<?xml version='1.0' encoding='UTF-8'?><gpx version="1.1" creator="JPX - https://github.com/jenetics/jpx" xmlns="http://www.topografix.com/GPX/1/1"><trk><trkseg><trkpt lat="37.1809041" lon="-3.6705609"><ele>605.0</ele><time>2026-03-07T07:28:49.47Z</time></trkpt><trkpt lat="37.1809746" lon="-3.6705514"><ele>605.0</ele><time>2026-03-07T07:28:50.489Z</time></trkpt><trkpt lat="37.1810378" lon="-3.6705997"><ele>605.0</ele><time>2026-03-07T07:48:17.011Z</time></trkpt><trkpt lat="37.1810841" lon="-3.6706709"><ele>605.0</ele><time>2026-03-07T07:48:20.009Z</time></trkpt><trkpt lat="37.181126" lon="-3.6707475"><ele>605.0</ele><time>2026-03-07T07:48:22.016Z</time></trkpt><trkpt lat="37.1811684" lon="-3.67083"><ele>605.0</ele><time>2026-03-07T07:48:24.002Z</time></trkpt><trkpt lat="37.1811957" lon="-3.6709069"><ele>605.0</ele><time>2026-03-07T07:48:26.062Z</time></trkpt><trkpt lat="37.181219" lon="-3.6709843"><ele>605.0</ele><time>2026-03-07T07:48:28.02Z</time></trkpt><trkpt lat="37.1812477" lon="-3.6710893"><ele>605.0</ele><time>2026-03-07T07:48:31.045Z</time></trkpt><trkpt lat="37.1812598" lon="-3.6711838"><ele>605.0</ele><time>2026-03-07T07:48:33.03Z</time></trkpt><trkpt lat="37.1812866" lon="-3.6712744"><ele>605.0</ele><time>2026-03-07T07:48:36.001Z</time></trkpt><trkpt lat="37.1813071" lon="-3.6713603"><ele>605.0</ele><time>2026-03-07T07:48:39.023Z</time></trkpt><trkpt lat="37.1813336" lon="-3.6714751"><ele>605.0</ele><time>2026-03-07T07:48:42.031Z</time></trkpt><trkpt lat="37.181349" lon="-3.671553"><ele>605.3333333333333</ele><time>2026-03-07T07:48:44Z</time></trkpt><trkpt lat="37.1813571" lon="-3.6716343"><ele>605.6666666666666</ele><time>2026-03-07T07:48:47.018Z</time></trkpt><trkpt lat="37.1813439" lon="-3.6717259"><ele>606.0</ele><time>2026-03-07T07:48:51.017Z</time></trkpt><trkpt lat="37.1812787" lon="-3.6717847"><ele>606.3333333333334</ele><time>2026-03-07T07:48:54.014Z</time></trkpt><trkpt lat="37.1811734" lon="-3.6717791"><ele>606.6666666666667</ele><time>2026-03-07T07:48:56.01Z</time></trkpt><trkpt lat="37.1810576" lon="-3.6717449"><ele>607.0</ele><time>2026-03-07T07:48:58.013Z</time></trkpt><trkpt lat="37.1809882" lon="-3.67172"><ele>607.0</ele><time>2026-03-07T07:48:59.017Z</time></trkpt><trkpt lat="37.1809175" lon="-3.6717092"><ele>607.0</ele><time>2026-03-07T07:49:00.017Z</time></trkpt><trkpt lat="37.180839" lon="-3.6716971"><ele>607.0</ele><time>2026-03-07T07:49:01.009Z</time></trkpt><trkpt lat="37.1807597" lon="-3.6716893"><ele>607.0</ele><time>2026-03-07T07:49:02.011Z</time></trkpt><trkpt lat="37.180682" lon="-3.6716832"><ele>607.0</ele><time>2026-03-07T07:49:03.007Z</time></trkpt><trkpt lat="37.1806068" lon="-3.6716787"><ele>607.0</ele><time>2026-03-07T07:49:04.017Z</time></trkpt><trkpt lat="37.1805343" lon="-3.671672"><ele>606.8571428571428</ele><time>2026-03-07T07:49:05.008Z</time></trkpt><trkpt lat="37.1804626" lon="-3.6716729"><ele>606.7142857142857</ele><time>2026-03-07T07:49:06.014Z</time></trkpt><trkpt lat="37.1803935" lon="-3.6716751"><ele>606.5714285714286</ele><time>2026-03-07T07:49:07.079Z</time></trkpt><trkpt lat="37.1803292" lon="-3.6716773"><ele>606.4285714285713</ele><time>2026-03-07T07:49:08.007Z</time></trkpt><trkpt lat="37.1802655" lon="-3.6716779"><ele>606.2857142857142</ele><time>2026-03-07T07:49:09.019Z</time></trkpt><trkpt lat="37.1801958" lon="-3.6716793"><ele>606.1428571428571</ele><time>2026-03-07T07:49:10.007Z</time></trkpt><trkpt lat="37.1801212" lon="-3.671686"><ele>606.0</ele><time>2026-03-07T07:49:11.023Z</time></trkpt><trkpt lat="37.1800509" lon="-3.6717066"><ele>606.0</ele><time>2026-03-07T07:49:12.014Z</time></trkpt><trkpt lat="37.1799852" lon="-3.671741"><ele>606.0</ele><time>2026-03-07T07:49:13.005Z</time></trkpt><trkpt lat="37.1799215" lon="-3.6717779"><ele>606.0</ele><time>2026-03-07T07:49:14.005Z</time></trkpt><trkpt lat="37.1797955" lon="-3.6717727"><ele>606.0</ele><time>2026-03-07T07:49:16.01Z</time></trkpt><trkpt lat="37.1797241" lon="-3.6717401"><ele>606.0</ele><time>2026-03-07T07:49:17.004Z</time></trkpt><trkpt lat="37.179649" lon="-3.6717088"><ele>606.0</ele><time>2026-03-07T07:49:18.011Z</time></trkpt><trkpt lat="37.1795692" lon="-3.6716849"><ele>606.2</ele><time>2026-03-07T07:49:19.006Z</time></trkpt><trkpt lat="37.1794798" lon="-3.671681"><ele>606.4000000000001</ele><time>2026-03-07T07:49:20.005Z</time></trkpt><trkpt lat="37.1793861" lon="-3.6716822"><ele>606.6</ele><time>2026-03-07T07:49:21.023Z</time></trkpt><trkpt lat="37.179292" lon="-3.6716778"><ele>606.8000000000001</ele><time>2026-03-07T07:49:22.013Z</time></trkpt><trkpt lat="37.1791971" lon="-3.6716745"><ele>607.0</ele><time>2026-03-07T07:49:23.007Z</time></trkpt><trkpt lat="37.179102" lon="-3.6716687"><ele>607.0</ele><time>2026-03-07T07:49:24.008Z</time></trkpt><trkpt lat="37.1790057" lon="-3.6716645"><ele>607.0</ele><time>2026-03-07T07:49:25.021Z</time></trkpt><trkpt lat="37.1788987" lon="-3.6716614"><ele>607.0</ele><time>2026-03-07T07:49:26.013Z</time></trkpt><trkpt lat="37.1787705" lon="-3.6716604"><ele>607.0</ele><time>2026-03-07T07:49:27.013Z</time></trkpt><trkpt lat="37.1786269" lon="-3.671659"><ele>607.0</ele><time>2026-03-07T07:49:28.008Z</time></trkpt><trkpt lat="37.1784761" lon="-3.6716555"><ele>607.0</ele><time>2026-03-07T07:49:29.012Z</time></trkpt><trkpt lat="37.1783169" lon="-3.6716513"><ele>607.0</ele><time>2026-03-07T07:49:29.978Z</time></trkpt><trkpt lat="37.1781588" lon="-3.6716472"><ele>607.0</ele><time>2026-03-07T07:49:31.009Z</time></trkpt><trkpt lat="37.1780119" lon="-3.6716454"><ele>607.0</ele><time>2026-03-07T07:49:31.991Z</time></trkpt><trkpt lat="37.1778756" lon="-3.671644"><ele>607.0</ele><time>2026-03-07T07:49:32.981Z</time></trkpt><trkpt lat="37.1777414" lon="-3.6716458"><ele>607.0</ele><time>2026-03-07T07:49:33.982Z</time></trkpt><trkpt lat="37.1776068" lon="-3.6716463"><ele>607.0</ele><time>2026-03-07T07:49:35.015Z</time></trkpt><trkpt lat="37.1774705" lon="-3.6716441"><ele>607.0</ele><time>2026-03-07T07:49:36.007Z</time></trkpt><trkpt lat="37.1773314" lon="-3.6716424"><ele>607.0</ele><time>2026-03-07T07:49:37.002Z</time></trkpt><trkpt lat="37.1771929" lon="-3.6716391"><ele>607.0</ele><time>2026-03-07T07:49:37.988Z</time></trkpt><trkpt lat="37.1770574" lon="-3.6716378"><ele>606.75</ele><time>2026-03-07T07:49:39Z</time></trkpt><trkpt lat="37.1769264" lon="-3.6716341"><ele>606.5</ele><time>2026-03-07T07:49:40.01Z</time></trkpt><trkpt lat="37.1767973" lon="-3.6716289"><ele>606.25</ele><time>2026-03-07T07:49:41.016Z</time></trkpt><trkpt lat="37.1766658" lon="-3.6716243"><ele>606.0</ele><time>2026-03-07T07:49:42.004Z</time></trkpt><trkpt lat="37.1765301" lon="-3.6716194"><ele>606.5</ele><time>2026-03-07T07:49:43.007Z</time></trkpt><trkpt lat="37.1763933" lon="-3.671615"><ele>607.0</ele><time>2026-03-07T07:49:44.015Z</time></trkpt><trkpt lat="37.1762573" lon="-3.6716113"><ele>607.5</ele><time>2026-03-07T07:49:45.024Z</time></trkpt><trkpt lat="37.1761227" lon="-3.6716079"><ele>608.0</ele><time>2026-03-07T07:49:46.004Z</time></trkpt><trkpt lat="37.175991" lon="-3.6716029"><ele>608.0</ele><time>2026-03-07T07:49:47.016Z</time></trkpt><trkpt lat="37.1758574" lon="-3.6715985"><ele>608.0</ele><time>2026-03-07T07:49:48.003Z</time></trkpt><trkpt lat="37.1757199" lon="-3.6715941"><ele>608.0</ele><time>2026-03-07T07:49:49.012Z</time></trkpt><trkpt lat="37.1755808" lon="-3.6715909"><ele>608.0</ele><time>2026-03-07T07:49:50.013Z</time></trkpt><trkpt lat="37.1754412" lon="-3.6715861"><ele>608.5</ele><time>2026-03-07T07:49:51.013Z</time></trkpt><trkpt lat="37.1753033" lon="-3.6715814"><ele>609.0</ele><time>2026-03-07T07:49:52.059Z</time></trkpt><trkpt lat="37.1751676" lon="-3.6715781"><ele>609.5</ele><time>2026-03-07T07:49:53.006Z</time></trkpt><trkpt lat="37.1750356" lon="-3.6715758"><ele>610.0</ele><time>2026-03-07T07:49:54.008Z</time></trkpt><trkpt lat="37.1749056" lon="-3.6715704"><ele>610.75</ele><time>2026-03-07T07:49:55.013Z</time></trkpt><trkpt lat="37.1747741" lon="-3.6715666"><ele>611.5</ele><time>2026-03-07T07:49:56.012Z</time></trkpt><trkpt lat="37.1746397" lon="-3.6715624"><ele>612.25</ele><time>2026-03-07T07:49:57.002Z</time></trkpt><trkpt lat="37.1745053" lon="-3.6715562"><ele>613.0</ele><time>2026-03-07T07:49:58.017Z</time></trkpt><trkpt lat="37.1743737" lon="-3.6715505"><ele>613.0</ele><time>2026-03-07T07:49:59.011Z</time></trkpt><trkpt lat="37.1742465" lon="-3.6715504"><ele>613.0</ele><time>2026-03-07T07:50:00.025Z</time></trkpt><trkpt lat="37.1741226" lon="-3.6715468"><ele>613.0</ele><time>2026-03-07T07:50:01.014Z</time></trkpt><trkpt lat="37.1740036" lon="-3.671543"><ele>613.0</ele><time>2026-03-07T07:50:02.013Z</time></trkpt><trkpt lat="37.1738925" lon="-3.6715399"><ele>613.1999999999999</ele><time>2026-03-07T07:50:03.012Z</time></trkpt><trkpt lat="37.1737907" lon="-3.6715404"><ele>613.4</ele><time>2026-03-07T07:50:04.006Z</time></trkpt><trkpt lat="37.173693" lon="-3.6715393"><ele>613.5999999999999</ele><time>2026-03-07T07:50:05.021Z</time></trkpt><trkpt lat="37.1735946" lon="-3.6715395"><ele>613.8</ele><time>2026-03-07T07:50:06.015Z</time></trkpt><trkpt lat="37.1734975" lon="-3.6715351"><ele>614.0</ele><time>2026-03-07T07:50:07Z</time></trkpt><trkpt lat="37.1734089" lon="-3.6715301"><ele>614.0</ele><time>2026-03-07T07:50:08.009Z</time></trkpt><trkpt lat="37.1733283" lon="-3.6715314"><ele>614.0</ele><time>2026-03-07T07:50:09.017Z</time></trkpt><trkpt lat="37.1732466" lon="-3.6715424"><ele>614.0</ele><time>2026-03-07T07:50:10.029Z</time></trkpt><trkpt lat="37.1731642" lon="-3.6715758"><ele>614.0</ele><time>2026-03-07T07:50:11.009Z</time></trkpt><trkpt lat="37.1730899" lon="-3.6716183"><ele>614.0</ele><time>2026-03-07T07:50:12.014Z</time></trkpt><trkpt lat="37.1730228" lon="-3.6716457"><ele>614.0</ele><time>2026-03-07T07:50:13.003Z</time></trkpt><trkpt lat="37.1728991" lon="-3.6716296"><ele>614.1666666666666</ele><time>2026-03-07T07:50:15.002Z</time></trkpt><trkpt lat="37.1728348" lon="-3.6715917"><ele>614.3333333333333</ele><time>2026-03-07T07:50:16.005Z</time></trkpt><trkpt lat="37.1727672" lon="-3.6715493"><ele>614.5</ele><time>2026-03-07T07:50:17.002Z</time></trkpt><trkpt lat="37.1726875" lon="-3.671517"><ele>614.6666666666666</ele><time>2026-03-07T07:50:18.008Z</time></trkpt><trkpt lat="37.1725922" lon="-3.6715063"><ele>614.8333333333334</ele><time>2026-03-07T07:50:19.007Z</time></trkpt><trkpt lat="37.1724825" lon="-3.6715022"><ele>615.0</ele><time>2026-03-07T07:50:20.005Z</time></trkpt><trkpt lat="37.1723586" lon="-3.6715004"><ele>614.5</ele><time>2026-03-07T07:50:21.014Z</time></trkpt><trkpt lat="37.1722232" lon="-3.6714959"><ele>614.0</ele><time>2026-03-07T07:50:22.009Z</time></trkpt><trkpt lat="37.172077" lon="-3.6714867"><ele>613.5</ele><time>2026-03-07T07:50:23.004Z</time></trkpt><trkpt lat="37.171921" lon="-3.6714721"><ele>613.0</ele><time>2026-03-07T07:50:23.998Z</time></trkpt><trkpt lat="37.1717595" lon="-3.6714572"><ele>613.0</ele><time>2026-03-07T07:50:25.014Z</time></trkpt><trkpt lat="37.171596" lon="-3.6714401"><ele>613.0</ele><time>2026-03-07T07:50:26Z</time></trkpt><trkpt lat="37.1714313" lon="-3.6714254"><ele>613.0</ele><time>2026-03-07T07:50:27.009Z</time></trkpt><trkpt lat="37.1712648" lon="-3.6714109"><ele>613.6666666666667</ele><time>2026-03-07T07:50:28.022Z</time></trkpt><trkpt lat="37.1710967" lon="-3.6713938"><ele>614.3333333333334</ele><time>2026-03-07T07:50:28.997Z</time></trkpt><trkpt lat="37.170933" lon="-3.6713761"><ele>615.0</ele><time>2026-03-07T07:50:30.013Z</time></trkpt><trkpt lat="37.1707768" lon="-3.6713622"><ele>615.75</ele><time>2026-03-07T07:50:31.01Z</time></trkpt><trkpt lat="37.1706271" lon="-3.671356"><ele>616.5</ele><time>2026-03-07T07:50:32.009Z</time></trkpt><trkpt lat="37.170482" lon="-3.6713558"><ele>617.25</ele><time>2026-03-07T07:50:33.002Z</time></trkpt><trkpt lat="37.1703363" lon="-3.6713584"><ele>618.0</ele><time>2026-03-07T07:50:34.018Z</time></trkpt><trkpt lat="37.1701885" lon="-3.671368"><ele>618.0</ele><time>2026-03-07T07:50:34.994Z</time></trkpt><trkpt lat="37.1700405" lon="-3.67139"><ele>618.0</ele><time>2026-03-07T07:50:36.007Z</time></trkpt><trkpt lat="37.1698946" lon="-3.6714255"><ele>618.0</ele><time>2026-03-07T07:50:37.017Z</time></trkpt><trkpt lat="37.1697509" lon="-3.6714689"><ele>618.0</ele><time>2026-03-07T07:50:38.016Z</time></trkpt><trkpt lat="37.1696113" lon="-3.6715201"><ele>617.75</ele><time>2026-03-07T07:50:39.011Z</time></trkpt><trkpt lat="37.1694735" lon="-3.6715803"><ele>617.5</ele><time>2026-03-07T07:50:40.007Z</time></trkpt><trkpt lat="37.169335" lon="-3.6716469"><ele>617.25</ele><time>2026-03-07T07:50:41.014Z</time></trkpt><trkpt lat="37.1691955" lon="-3.6717098"><ele>617.0</ele><time>2026-03-07T07:50:42.015Z</time></trkpt><trkpt lat="37.1690571" lon="-3.6717672"><ele>616.75</ele><time>2026-03-07T07:50:43.012Z</time></trkpt><trkpt lat="37.1689223" lon="-3.6718164"><ele>616.5</ele><time>2026-03-07T07:50:44.013Z</time></trkpt><trkpt lat="37.1687894" lon="-3.6718541"><ele>616.25</ele><time>2026-03-07T07:50:45.013Z</time></trkpt><trkpt lat="37.1686607" lon="-3.6718829"><ele>616.0</ele><time>2026-03-07T07:50:46.015Z</time></trkpt><trkpt lat="37.168535" lon="-3.6719026"><ele>616.0</ele><time>2026-03-07T07:50:47Z</time></trkpt><trkpt lat="37.1684106" lon="-3.6719183"><ele>616.0</ele><time>2026-03-07T07:50:48.007Z</time></trkpt><trkpt lat="37.1682865" lon="-3.6719367"><ele>616.0</ele><time>2026-03-07T07:50:49.015Z</time></trkpt><trkpt lat="37.1681663" lon="-3.6719495"><ele>616.0</ele><time>2026-03-07T07:50:50.005Z</time></trkpt><trkpt lat="37.1680471" lon="-3.6719536"><ele>616.5</ele><time>2026-03-07T07:50:51.016Z</time></trkpt><trkpt lat="37.1679244" lon="-3.6719622"><ele>617.0</ele><time>2026-03-07T07:50:52.021Z</time></trkpt><trkpt lat="37.167799" lon="-3.6719711"><ele>617.5</ele><time>2026-03-07T07:50:53.018Z</time></trkpt><trkpt lat="37.1676744" lon="-3.6719772"><ele>618.0</ele><time>2026-03-07T07:50:54.004Z</time></trkpt><trkpt lat="37.1675513" lon="-3.6719795"><ele>618.0</ele><time>2026-03-07T07:50:55.016Z</time></trkpt><trkpt lat="37.1674294" lon="-3.6719827"><ele>618.0</ele><time>2026-03-07T07:50:56.025Z</time></trkpt><trkpt lat="37.1673082" lon="-3.6719898"><ele>618.0</ele><time>2026-03-07T07:50:57.009Z</time></trkpt><trkpt lat="37.1671915" lon="-3.6719944"><ele>618.0</ele><time>2026-03-07T07:50:58.006Z</time></trkpt><trkpt lat="37.1670815" lon="-3.6719933"><ele>618.6</ele><time>2026-03-07T07:50:59.002Z</time></trkpt><trkpt lat="37.1669757" lon="-3.6719952"><ele>619.1999999999999</ele><time>2026-03-07T07:51:00.007Z</time></trkpt><trkpt lat="37.1668716" lon="-3.6720008"><ele>619.8</ele><time>2026-03-07T07:51:01.011Z</time></trkpt><trkpt lat="37.1667727" lon="-3.6720072"><ele>620.4</ele><time>2026-03-07T07:51:02.011Z</time></trkpt><trkpt lat="37.1666769" lon="-3.6720109"><ele>621.0</ele><time>2026-03-07T07:51:03.027Z</time></trkpt><trkpt lat="37.1665826" lon="-3.6720122"><ele>621.1666666666666</ele><time>2026-03-07T07:51:04.006Z</time></trkpt><trkpt lat="37.1664928" lon="-3.6720174"><ele>621.3333333333334</ele><time>2026-03-07T07:51:05.01Z</time></trkpt><trkpt lat="37.1664131" lon="-3.6720203"><ele>621.5</ele><time>2026-03-07T07:51:06.002Z</time></trkpt><trkpt lat="37.1663392" lon="-3.672025"><ele>621.6666666666667</ele><time>2026-03-07T07:51:07Z</time></trkpt><trkpt lat="37.16627" lon="-3.6720328"><ele>621.8333333333334</ele><time>2026-03-07T07:51:08.016Z</time></trkpt><trkpt lat="37.1662009" lon="-3.6720496"><ele>622.0</ele><time>2026-03-07T07:51:09.008Z</time></trkpt><trkpt lat="37.1661268" lon="-3.6720784"><ele>622.0</ele><time>2026-03-07T07:51:10.005Z</time></trkpt><trkpt lat="37.1660512" lon="-3.6720973"><ele>622.0</ele><time>2026-03-07T07:51:11.023Z</time></trkpt><trkpt lat="37.1659733" lon="-3.6721147"><ele>622.0</ele><time>2026-03-07T07:51:12.026Z</time></trkpt><trkpt lat="37.1658887" lon="-3.67211"><ele>622.0</ele><time>2026-03-07T07:51:13.032Z</time></trkpt><trkpt lat="37.1657984" lon="-3.6721098"><ele>622.0</ele><time>2026-03-07T07:51:14.022Z</time></trkpt><trkpt lat="37.1657089" lon="-3.6721341"><ele>622.0</ele><time>2026-03-07T07:51:15.005Z</time></trkpt><trkpt lat="37.1656216" lon="-3.6721806"><ele>622.25</ele><time>2026-03-07T07:51:16.008Z</time></trkpt><trkpt lat="37.1655302" lon="-3.6722358"><ele>622.5</ele><time>2026-03-07T07:51:17.035Z</time></trkpt><trkpt lat="37.1654312" lon="-3.6722998"><ele>622.75</ele><time>2026-03-07T07:51:18.006Z</time></trkpt><trkpt lat="37.1653236" lon="-3.6723655"><ele>623.0</ele><time>2026-03-07T07:51:19.012Z</time></trkpt><trkpt lat="37.1652079" lon="-3.6724265"><ele>623.0</ele><time>2026-03-07T07:51:20.013Z</time></trkpt><trkpt lat="37.1650903" lon="-3.672494"><ele>623.0</ele><time>2026-03-07T07:51:21.007Z</time></trkpt><trkpt lat="37.1649708" lon="-3.672565"><ele>623.0</ele><time>2026-03-07T07:51:22.016Z</time></trkpt><trkpt lat="37.1648478" lon="-3.6726391"><ele>623.0</ele><time>2026-03-07T07:51:23.004Z</time></trkpt><trkpt lat="37.1647195" lon="-3.6727294"><ele>623.6666666666666</ele><time>2026-03-07T07:51:24.01Z</time></trkpt><trkpt lat="37.1645743" lon="-3.672827"><ele>624.3333333333334</ele><time>2026-03-07T07:51:25.016Z</time></trkpt><trkpt lat="37.164415" lon="-3.6729309"><ele>625.0</ele><time>2026-03-07T07:51:26.022Z</time></trkpt><trkpt lat="37.1642591" lon="-3.6730342"><ele>625.0</ele><time>2026-03-07T07:51:27.025Z</time></trkpt><trkpt lat="37.1641124" lon="-3.6731317"><ele>625.0</ele><time>2026-03-07T07:51:28.006Z</time></trkpt><trkpt lat="37.1639779" lon="-3.6732271"><ele>625.0</ele><time>2026-03-07T07:51:29.007Z</time></trkpt><trkpt lat="37.1638495" lon="-3.6733339"><ele>625.0</ele><time>2026-03-07T07:51:30.011Z</time></trkpt><trkpt lat="37.1637237" lon="-3.6734343"><ele>625.0</ele><time>2026-03-07T07:51:31.009Z</time></trkpt><trkpt lat="37.1636051" lon="-3.6735207"><ele>625.0</ele><time>2026-03-07T07:51:32.013Z</time></trkpt><trkpt lat="37.1634876" lon="-3.6735924"><ele>625.0</ele><time>2026-03-07T07:51:33.029Z</time></trkpt><trkpt lat="37.1633646" lon="-3.6736613"><ele>625.0</ele><time>2026-03-07T07:51:34.015Z</time></trkpt><trkpt lat="37.1632332" lon="-3.6737215"><ele>625.0</ele><time>2026-03-07T07:51:35.015Z</time></trkpt><trkpt lat="37.1630939" lon="-3.6737681"><ele>625.0</ele><time>2026-03-07T07:51:36.008Z</time></trkpt><trkpt lat="37.1629492" lon="-3.6738012"><ele>625.0</ele><time>2026-03-07T07:51:37.011Z</time></trkpt><trkpt lat="37.1628031" lon="-3.6738138"><ele>625.25</ele><time>2026-03-07T07:51:38.015Z</time></trkpt><trkpt lat="37.1626568" lon="-3.6738209"><ele>625.5</ele><time>2026-03-07T07:51:39.023Z</time></trkpt><trkpt lat="37.1625087" lon="-3.6738187"><ele>625.75</ele><time>2026-03-07T07:51:40.003Z</time></trkpt><trkpt lat="37.162356" lon="-3.6738114"><ele>626.0</ele><time>2026-03-07T07:51:41.017Z</time></trkpt><trkpt lat="37.1622036" lon="-3.6737991"><ele>626.25</ele><time>2026-03-07T07:51:42.02Z</time></trkpt><trkpt lat="37.1620584" lon="-3.6737762"><ele>626.5</ele><time>2026-03-07T07:51:43.021Z</time></trkpt><trkpt lat="37.161926" lon="-3.6737541"><ele>626.75</ele><time>2026-03-07T07:51:44.017Z</time></trkpt><trkpt lat="37.1618052" lon="-3.6737391"><ele>627.0</ele><time>2026-03-07T07:51:45.001Z</time></trkpt><trkpt lat="37.1616938" lon="-3.6737087"><ele>627.0</ele><time>2026-03-07T07:51:46.007Z</time></trkpt><trkpt lat="37.1615937" lon="-3.6736951"><ele>627.0</ele><time>2026-03-07T07:51:47.022Z</time></trkpt><trkpt lat="37.161506" lon="-3.673685"><ele>627.0</ele><time>2026-03-07T07:51:48.016Z</time></trkpt><trkpt lat="37.1614296" lon="-3.6736664"><ele>627.0</ele><time>2026-03-07T07:51:49.004Z</time></trkpt><trkpt lat="37.1613586" lon="-3.6736625"><ele>627.0</ele><time>2026-03-07T07:51:50.006Z</time></trkpt><trkpt lat="37.1612539" lon="-3.6736999"><ele>627.0</ele><time>2026-03-07T07:51:52.002Z</time></trkpt><trkpt lat="37.1611751" lon="-3.6738149"><ele>626.8000000000001</ele><time>2026-03-07T07:51:53.999Z</time></trkpt><trkpt lat="37.1611357" lon="-3.6739527"><ele>626.6</ele><time>2026-03-07T07:51:55.999Z</time></trkpt><trkpt lat="37.1611477" lon="-3.6741231"><ele>626.4000000000001</ele><time>2026-03-07T07:51:58.015Z</time></trkpt><trkpt lat="37.1611601" lon="-3.674232"><ele>626.2</ele><time>2026-03-07T07:51:59.009Z</time></trkpt><trkpt lat="37.1611767" lon="-3.6743548"><ele>626.0</ele><time>2026-03-07T07:52:00.022Z</time></trkpt><trkpt lat="37.1611913" lon="-3.674478"><ele>626.0</ele><time>2026-03-07T07:52:01.012Z</time></trkpt><trkpt lat="37.1612033" lon="-3.6746039"><ele>626.0</ele><time>2026-03-07T07:52:02.031Z</time></trkpt><trkpt lat="37.1612211" lon="-3.6747246"><ele>626.0</ele><time>2026-03-07T07:52:03.014Z</time></trkpt><trkpt lat="37.1612344" lon="-3.6748466"><ele>626.0</ele><time>2026-03-07T07:52:04.004Z</time></trkpt><trkpt lat="37.1612487" lon="-3.6749735"><ele>626.0</ele><time>2026-03-07T07:52:05.019Z</time></trkpt><trkpt lat="37.1612667" lon="-3.675114"><ele>626.0</ele><time>2026-03-07T07:52:06.011Z</time></trkpt><trkpt lat="37.1612872" lon="-3.6752703"><ele>626.0</ele><time>2026-03-07T07:52:06.994Z</time></trkpt><trkpt lat="37.161313" lon="-3.6754344"><ele>626.0</ele><time>2026-03-07T07:52:08.009Z</time></trkpt><trkpt lat="37.161333" lon="-3.6756035"><ele>626.0</ele><time>2026-03-07T07:52:09.008Z</time></trkpt><trkpt lat="37.1613496" lon="-3.67577"><ele>626.0</ele><time>2026-03-07T07:52:10.013Z</time></trkpt><trkpt lat="37.1613559" lon="-3.6759375"><ele>626.0</ele><time>2026-03-07T07:52:11.009Z</time></trkpt><trkpt lat="37.1613521" lon="-3.6761095"><ele>626.0</ele><time>2026-03-07T07:52:11.995Z</time></trkpt><trkpt lat="37.1613482" lon="-3.6762836"><ele>626.0</ele><time>2026-03-07T07:52:13.008Z</time></trkpt><trkpt lat="37.161347" lon="-3.6764585"><ele>626.25</ele><time>2026-03-07T07:52:14.007Z</time></trkpt><trkpt lat="37.1613428" lon="-3.6766311"><ele>626.5</ele><time>2026-03-07T07:52:15.006Z</time></trkpt><trkpt lat="37.1613367" lon="-3.6767989"><ele>626.75</ele><time>2026-03-07T07:52:16.019Z</time></trkpt><trkpt lat="37.1613255" lon="-3.6769635"><ele>627.0</ele><time>2026-03-07T07:52:17.006Z</time></trkpt><trkpt lat="37.1613102" lon="-3.6771256"><ele>627.0</ele><time>2026-03-07T07:52:18.008Z</time></trkpt><trkpt lat="37.161296" lon="-3.6772864"><ele>627.0</ele><time>2026-03-07T07:52:19.013Z</time></trkpt><trkpt lat="37.1612834" lon="-3.6774462"><ele>627.0</ele><time>2026-03-07T07:52:20.002Z</time></trkpt><trkpt lat="37.1612653" lon="-3.6776013"><ele>627.0</ele><time>2026-03-07T07:52:21.015Z</time></trkpt><trkpt lat="37.161251" lon="-3.6777471"><ele>627.0</ele><time>2026-03-07T07:52:22.009Z</time></trkpt><trkpt lat="37.1612319" lon="-3.6778837"><ele>627.0</ele><time>2026-03-07T07:52:23.014Z</time></trkpt><trkpt lat="37.1612101" lon="-3.6780174"><ele>627.0</ele><time>2026-03-07T07:52:24.018Z</time></trkpt><trkpt lat="37.1611868" lon="-3.6781518"><ele>627.0</ele><time>2026-03-07T07:52:25.007Z</time></trkpt><trkpt lat="37.1611638" lon="-3.6782886"><ele>627.0</ele><time>2026-03-07T07:52:26.013Z</time></trkpt><trkpt lat="37.1611386" lon="-3.678426"><ele>627.0</ele><time>2026-03-07T07:52:27.011Z</time></trkpt><trkpt lat="37.1611078" lon="-3.6785636"><ele>627.0</ele><time>2026-03-07T07:52:28.017Z</time></trkpt><trkpt lat="37.1610709" lon="-3.6787023"><ele>627.0</ele><time>2026-03-07T07:52:29.011Z</time></trkpt><trkpt lat="37.1610221" lon="-3.6788388"><ele>627.0</ele><time>2026-03-07T07:52:30.007Z</time></trkpt><trkpt lat="37.1609673" lon="-3.678973"><ele>627.0</ele><time>2026-03-07T07:52:31.016Z</time></trkpt><trkpt lat="37.1609049" lon="-3.6791013"><ele>627.0</ele><time>2026-03-07T07:52:32.005Z</time></trkpt><trkpt lat="37.1608406" lon="-3.6792196"><ele>627.0</ele><time>2026-03-07T07:52:33.004Z</time></trkpt><trkpt lat="37.1607792" lon="-3.6793315"><ele>627.0</ele><time>2026-03-07T07:52:34.009Z</time></trkpt><trkpt lat="37.1607115" lon="-3.67943"><ele>627.0</ele><time>2026-03-07T07:52:35.001Z</time></trkpt><trkpt lat="37.1606415" lon="-3.6795178"><ele>627.0</ele><time>2026-03-07T07:52:36.01Z</time></trkpt><trkpt lat="37.1605721" lon="-3.6795979"><ele>627.0</ele><time>2026-03-07T07:52:37.017Z</time></trkpt><trkpt lat="37.160498" lon="-3.6796769"><ele>627.0</ele><time>2026-03-07T07:52:38.022Z</time></trkpt><trkpt lat="37.1604131" lon="-3.6797596"><ele>627.0</ele><time>2026-03-07T07:52:39.009Z</time></trkpt><trkpt lat="37.1603182" lon="-3.6798404"><ele>627.0</ele><time>2026-03-07T07:52:40.014Z</time></trkpt><trkpt lat="37.1602229" lon="-3.679916"><ele>627.0</ele><time>2026-03-07T07:52:41.012Z</time></trkpt><trkpt lat="37.1601341" lon="-3.6799841"><ele>627.0</ele><time>2026-03-07T07:52:42.016Z</time></trkpt><trkpt lat="37.1600499" lon="-3.6800362"><ele>627.0</ele><time>2026-03-07T07:52:43.013Z</time></trkpt><trkpt lat="37.1599771" lon="-3.6800906"><ele>627.0</ele><time>2026-03-07T07:52:44.057Z</time></trkpt><trkpt lat="37.159914" lon="-3.6801396"><ele>627.0</ele><time>2026-03-07T07:52:45.01Z</time></trkpt><trkpt lat="37.1598591" lon="-3.6801973"><ele>627.0</ele><time>2026-03-07T07:52:46.011Z</time></trkpt><trkpt lat="37.1598177" lon="-3.6802632"><ele>627.2</ele><time>2026-03-07T07:52:47.001Z</time></trkpt><trkpt lat="37.1597434" lon="-3.6803794"><ele>627.4000000000001</ele><time>2026-03-07T07:52:49.021Z</time></trkpt><trkpt lat="37.1596438" lon="-3.680375"><ele>627.5999999999999</ele><time>2026-03-07T07:52:51.001Z</time></trkpt><trkpt lat="37.1595674" lon="-3.6802781"><ele>627.8</ele><time>2026-03-07T07:52:53.005Z</time></trkpt><trkpt lat="37.159555" lon="-3.6801922"><ele>628.0</ele><time>2026-03-07T07:52:54.018Z</time></trkpt><trkpt lat="37.1595609" lon="-3.6800904"><ele>628.0</ele><time>2026-03-07T07:52:55.003Z</time></trkpt><trkpt lat="37.1595716" lon="-3.6799859"><ele>628.0</ele><time>2026-03-07T07:52:56.015Z</time></trkpt><trkpt lat="37.1595785" lon="-3.6798828"><ele>628.0</ele><time>2026-03-07T07:52:57.014Z</time></trkpt><trkpt lat="37.1595703" lon="-3.6797908"><ele>628.0</ele><time>2026-03-07T07:52:58.004Z</time></trkpt><trkpt lat="37.1595486" lon="-3.6797134"><ele>628.0</ele><time>2026-03-07T07:52:59.003Z</time></trkpt><trkpt lat="37.1595" lon="-3.6795824"><ele>628.0</ele><time>2026-03-07T07:53:01.002Z</time></trkpt><trkpt lat="37.1594562" lon="-3.6795148"><ele>627.9999999999999</ele><time>2026-03-07T07:53:03.015Z</time></trkpt><trkpt lat="37.1593777" lon="-3.6794825"><ele>628.0</ele><time>2026-03-07T07:53:05.008Z</time></trkpt><trkpt lat="37.1593088" lon="-3.6794667"><ele>628.0</ele><time>2026-03-07T07:53:06.011Z</time></trkpt><trkpt lat="37.1592364" lon="-3.6794566"><ele>628.0</ele><time>2026-03-07T07:53:07.003Z</time></trkpt><trkpt lat="37.1591681" lon="-3.6794542"><ele>628.0</ele><time>2026-03-07T07:53:08.014Z</time></trkpt><trkpt lat="37.1590987" lon="-3.6794669"><ele>627.9999999999999</ele><time>2026-03-07T07:53:08.994Z</time></trkpt><trkpt lat="37.1590199" lon="-3.6794974"><ele>628.0</ele><time>2026-03-07T07:53:10.005Z</time></trkpt><trkpt lat="37.1589244" lon="-3.6795382"><ele>628.4</ele><time>2026-03-07T07:53:11.008Z</time></trkpt><trkpt lat="37.1588152" lon="-3.6795811"><ele>628.8</ele><time>2026-03-07T07:53:12.002Z</time></trkpt><trkpt lat="37.1587067" lon="-3.6796252"><ele>629.2</ele><time>2026-03-07T07:53:13.008Z</time></trkpt><trkpt lat="37.1586051" lon="-3.6796669"><ele>629.6</ele><time>2026-03-07T07:53:14.007Z</time></trkpt><trkpt lat="37.1585128" lon="-3.6797128"><ele>630.0</ele><time>2026-03-07T07:53:15.008Z</time></trkpt><trkpt lat="37.1584258" lon="-3.6797547"><ele>630.0</ele><time>2026-03-07T07:53:16.006Z</time></trkpt><trkpt lat="37.1583424" lon="-3.6797928"><ele>630.0</ele><time>2026-03-07T07:53:17.014Z</time></trkpt><trkpt lat="37.1582517" lon="-3.6798296"><ele>630.0</ele><time>2026-03-07T07:53:18.011Z</time></trkpt><trkpt lat="37.1581546" lon="-3.6798671"><ele>630.0</ele><time>2026-03-07T07:53:19.018Z</time></trkpt><trkpt lat="37.1580605" lon="-3.679908"><ele>630.0</ele><time>2026-03-07T07:53:20.008Z</time></trkpt><trkpt lat="37.1579792" lon="-3.6799491"><ele>630.3333333333334</ele><time>2026-03-07T07:53:21.006Z</time></trkpt><trkpt lat="37.1579142" lon="-3.679984"><ele>630.6666666666666</ele><time>2026-03-07T07:53:22.014Z</time></trkpt><trkpt lat="37.1578076" lon="-3.6800493"><ele>631.0</ele><time>2026-03-07T07:53:24.002Z</time></trkpt><trkpt lat="37.1577476" lon="-3.6800786"><ele>631.3333333333333</ele><time>2026-03-07T07:53:24.999Z</time></trkpt><trkpt lat="37.157676" lon="-3.6800858"><ele>631.6666666666666</ele><time>2026-03-07T07:53:26.011Z</time></trkpt><trkpt lat="37.1576037" lon="-3.6800674"><ele>632.0</ele><time>2026-03-07T07:53:27.031Z</time></trkpt><trkpt lat="37.1575281" lon="-3.6800398"><ele>632.0</ele><time>2026-03-07T07:53:28.005Z</time></trkpt><trkpt lat="37.1574475" lon="-3.6800102"><ele>632.0</ele><time>2026-03-07T07:53:29.013Z</time></trkpt><trkpt lat="37.1573643" lon="-3.6799912"><ele>632.0</ele><time>2026-03-07T07:53:30.005Z</time></trkpt><trkpt lat="37.1572796" lon="-3.6799763"><ele>632.0</ele><time>2026-03-07T07:53:31.03Z</time></trkpt><trkpt lat="37.1571948" lon="-3.6799584"><ele>632.0</ele><time>2026-03-07T07:53:32.006Z</time></trkpt><trkpt lat="37.1571119" lon="-3.6799442"><ele>632.0</ele><time>2026-03-07T07:53:33.024Z</time></trkpt><trkpt lat="37.1570216" lon="-3.6799167"><ele>631.8000000000001</ele><time>2026-03-07T07:53:34.019Z</time></trkpt><trkpt lat="37.1569272" lon="-3.6798816"><ele>631.6</ele><time>2026-03-07T07:53:34.998Z</time></trkpt><trkpt lat="37.1568325" lon="-3.6798477"><ele>631.4000000000001</ele><time>2026-03-07T07:53:36.012Z</time></trkpt><trkpt lat="37.1567296" lon="-3.6798186"><ele>631.2</ele><time>2026-03-07T07:53:37.004Z</time></trkpt><trkpt lat="37.1566279" lon="-3.6797911"><ele>631.0</ele><time>2026-03-07T07:53:38.016Z</time></trkpt><trkpt lat="37.1565328" lon="-3.679759"><ele>631.0</ele><time>2026-03-07T07:53:39.013Z</time></trkpt><trkpt lat="37.1564402" lon="-3.6797251"><ele>631.0</ele><time>2026-03-07T07:53:40.02Z</time></trkpt><trkpt lat="37.156345" lon="-3.6796953"><ele>631.0</ele><time>2026-03-07T07:53:41.033Z</time></trkpt><trkpt lat="37.1562441" lon="-3.6796748"><ele>631.0</ele><time>2026-03-07T07:53:42.008Z</time></trkpt><trkpt lat="37.156148" lon="-3.6796648"><ele>631.0</ele><time>2026-03-07T07:53:43.012Z</time></trkpt><trkpt lat="37.156057" lon="-3.6796636"><ele>631.0</ele><time>2026-03-07T07:53:44.025Z</time></trkpt><trkpt lat="37.1559677" lon="-3.6796601"><ele>631.0</ele><time>2026-03-07T07:53:45.013Z</time></trkpt><trkpt lat="37.1558872" lon="-3.6796644"><ele>631.0</ele><time>2026-03-07T07:53:46.056Z</time></trkpt><trkpt lat="37.1558148" lon="-3.6796757"><ele>631.0</ele><time>2026-03-07T07:53:47.014Z</time></trkpt><trkpt lat="37.1557451" lon="-3.6796839"><ele>631.0</ele><time>2026-03-07T07:53:48.013Z</time></trkpt><trkpt lat="37.1556768" lon="-3.6796893"><ele>631.0</ele><time>2026-03-07T07:53:49.006Z</time></trkpt><trkpt lat="37.1556024" lon="-3.6796991"><ele>631.1666666666667</ele><time>2026-03-07T07:53:50.021Z</time></trkpt><trkpt lat="37.1555245" lon="-3.6797181"><ele>631.3333333333334</ele><time>2026-03-07T07:53:51.003Z</time></trkpt><trkpt lat="37.155447" lon="-3.6797377"><ele>631.5</ele><time>2026-03-07T07:53:52.019Z</time></trkpt><trkpt lat="37.1553667" lon="-3.6797569"><ele>631.6666666666666</ele><time>2026-03-07T07:53:53.006Z</time></trkpt><trkpt lat="37.1552782" lon="-3.6797791"><ele>631.8333333333333</ele><time>2026-03-07T07:53:54.008Z</time></trkpt><trkpt lat="37.1551798" lon="-3.6797934"><ele>632.0</ele><time>2026-03-07T07:53:55.041Z</time></trkpt><trkpt lat="37.155077" lon="-3.6797959"><ele>632.0</ele><time>2026-03-07T07:53:56.023Z</time></trkpt><trkpt lat="37.154966" lon="-3.6797782"><ele>632.0</ele><time>2026-03-07T07:53:57.009Z</time></trkpt><trkpt lat="37.1548584" lon="-3.6797504"><ele>632.0</ele><time>2026-03-07T07:53:58.023Z</time></trkpt><trkpt lat="37.1547646" lon="-3.6797088"><ele>632.0</ele><time>2026-03-07T07:53:59.016Z</time></trkpt><trkpt lat="37.1546823" lon="-3.6796667"><ele>632.0</ele><time>2026-03-07T07:54:00.024Z</time></trkpt><trkpt lat="37.1546066" lon="-3.679638"><ele>632.8000000000001</ele><time>2026-03-07T07:54:01.01Z</time></trkpt><trkpt lat="37.1545275" lon="-3.6796212"><ele>633.6</ele><time>2026-03-07T07:54:02.009Z</time></trkpt><trkpt lat="37.1544333" lon="-3.6796173"><ele>634.4000000000001</ele><time>2026-03-07T07:54:03.007Z</time></trkpt><trkpt lat="37.1543272" lon="-3.6796182"><ele>635.2</ele><time>2026-03-07T07:54:04.012Z</time></trkpt><trkpt lat="37.1542169" lon="-3.6796238"><ele>636.0</ele><time>2026-03-07T07:54:05.048Z</time></trkpt><trkpt lat="37.1541095" lon="-3.6796287"><ele>636.6</ele><time>2026-03-07T07:54:06.02Z</time></trkpt><trkpt lat="37.1540101" lon="-3.6796272"><ele>637.2</ele><time>2026-03-07T07:54:07.019Z</time></trkpt><trkpt lat="37.1539153" lon="-3.6796208"><ele>637.8</ele><time>2026-03-07T07:54:08.008Z</time></trkpt><trkpt lat="37.1538251" lon="-3.6796177"><ele>638.4</ele><time>2026-03-07T07:54:09.012Z</time></trkpt><trkpt lat="37.1537357" lon="-3.6796165"><ele>639.0</ele><time>2026-03-07T07:54:10.004Z</time></trkpt><trkpt lat="37.1536448" lon="-3.6796099"><ele>639.0</ele><time>2026-03-07T07:54:11.012Z</time></trkpt><trkpt lat="37.1535536" lon="-3.6796037"><ele>639.0</ele><time>2026-03-07T07:54:12.011Z</time></trkpt><trkpt lat="37.153467" lon="-3.6795978"><ele>639.0</ele><time>2026-03-07T07:54:13.016Z</time></trkpt><trkpt lat="37.153388" lon="-3.6796099"><ele>639.0</ele><time>2026-03-07T07:54:14.007Z</time></trkpt><trkpt lat="37.1533153" lon="-3.6796257"><ele>639.0</ele><time>2026-03-07T07:54:14.993Z</time></trkpt><trkpt lat="37.1532445" lon="-3.6796413"><ele>639.0</ele><time>2026-03-07T07:54:16.005Z</time></trkpt><trkpt lat="37.1531775" lon="-3.6796575"><ele>639.4</ele><time>2026-03-07T07:54:17.005Z</time></trkpt><trkpt lat="37.1531133" lon="-3.6796606"><ele>639.8</ele><time>2026-03-07T07:54:18.007Z</time></trkpt><trkpt lat="37.153008" lon="-3.6795798"><ele>640.1999999999999</ele><time>2026-03-07T07:54:20.002Z</time></trkpt><trkpt lat="37.1529506" lon="-3.6795069"><ele>640.5999999999999</ele><time>2026-03-07T07:54:21.004Z</time></trkpt><trkpt lat="37.1528873" lon="-3.6794197"><ele>641.0</ele><time>2026-03-07T07:54:22.005Z</time></trkpt><trkpt lat="37.1528196" lon="-3.6793386"><ele>641.0</ele><time>2026-03-07T07:54:23.004Z</time></trkpt><trkpt lat="37.152751" lon="-3.6792777"><ele>641.0</ele><time>2026-03-07T07:54:24.003Z</time></trkpt><trkpt lat="37.1526787" lon="-3.6792341"><ele>641.0</ele><time>2026-03-07T07:54:25.017Z</time></trkpt><trkpt lat="37.1525976" lon="-3.6792004"><ele>641.0</ele><time>2026-03-07T07:54:26.013Z</time></trkpt><trkpt lat="37.1525142" lon="-3.6791603"><ele>641.0</ele><time>2026-03-07T07:54:27.028Z</time></trkpt><trkpt lat="37.1524284" lon="-3.6791052"><ele>641.0</ele><time>2026-03-07T07:54:28.008Z</time></trkpt><trkpt lat="37.1523545" lon="-3.6790255"><ele>640.8</ele><time>2026-03-07T07:54:29.016Z</time></trkpt><trkpt lat="37.1522931" lon="-3.6789331"><ele>640.5999999999999</ele><time>2026-03-07T07:54:29.993Z</time></trkpt><trkpt lat="37.152244" lon="-3.6788338"><ele>640.4</ele><time>2026-03-07T07:54:31.007Z</time></trkpt><trkpt lat="37.1521952" lon="-3.678738"><ele>640.2</ele><time>2026-03-07T07:54:32.007Z</time></trkpt><trkpt lat="37.1521463" lon="-3.6786428"><ele>640.0</ele><time>2026-03-07T07:54:33.01Z</time></trkpt><trkpt lat="37.1520953" lon="-3.6785513"><ele>640.6</ele><time>2026-03-07T07:54:34.007Z</time></trkpt><trkpt lat="37.1520431" lon="-3.6784719"><ele>641.2</ele><time>2026-03-07T07:54:35.006Z</time></trkpt><trkpt lat="37.1519923" lon="-3.6783993"><ele>641.8</ele><time>2026-03-07T07:54:36.02Z</time></trkpt><trkpt lat="37.1519397" lon="-3.6783285"><ele>642.4</ele><time>2026-03-07T07:54:37.007Z</time></trkpt><trkpt lat="37.1518831" lon="-3.6782715"><ele>643.0</ele><time>2026-03-07T07:54:38.01Z</time></trkpt><trkpt lat="37.1517413" lon="-3.6782677"><ele>643.0</ele><time>2026-03-07T07:54:40.055Z</time></trkpt><trkpt lat="37.1516532" lon="-3.6782654"><ele>643.0</ele><time>2026-03-07T07:54:41.004Z</time></trkpt><trkpt lat="37.1515679" lon="-3.678259"><ele>643.0</ele><time>2026-03-07T07:54:42.007Z</time></trkpt><trkpt lat="37.1514909" lon="-3.6782482"><ele>643.0</ele><time>2026-03-07T07:54:43.011Z</time></trkpt><trkpt lat="37.1514271" lon="-3.678242"><ele>643.0</ele><time>2026-03-07T07:54:44.003Z</time></trkpt><trkpt lat="37.1513233" lon="-3.6782114"><ele>643.0</ele><time>2026-03-07T07:54:46.005Z</time></trkpt><trkpt lat="37.1512382" lon="-3.678126"><ele>643.3333333333334</ele><time>2026-03-07T07:54:48.04Z</time></trkpt><trkpt lat="37.1511658" lon="-3.6780177"><ele>643.6666666666667</ele><time>2026-03-07T07:54:50.011Z</time></trkpt><trkpt lat="37.1511247" lon="-3.6779499"><ele>644.0</ele><time>2026-03-07T07:54:51.015Z</time></trkpt><trkpt lat="37.1510817" lon="-3.677875"><ele>644.3333333333334</ele><time>2026-03-07T07:54:52.011Z</time></trkpt><trkpt lat="37.1510374" lon="-3.6777935"><ele>644.6666666666666</ele><time>2026-03-07T07:54:53.004Z</time></trkpt><trkpt lat="37.1509948" lon="-3.6777113"><ele>645.0</ele><time>2026-03-07T07:54:54.006Z</time></trkpt><trkpt lat="37.1509551" lon="-3.6776327"><ele>645.0</ele><time>2026-03-07T07:54:55.002Z</time></trkpt><trkpt lat="37.150919" lon="-3.677555"><ele>645.0</ele><time>2026-03-07T07:54:56.017Z</time></trkpt><trkpt lat="37.1508829" lon="-3.6774871"><ele>645.0</ele><time>2026-03-07T07:54:57.01Z</time></trkpt><trkpt lat="37.1508069" lon="-3.6773987"><ele>645.0</ele><time>2026-03-07T07:54:59.013Z</time></trkpt><trkpt lat="37.1507495" lon="-3.6773377"><ele>645.0</ele><time>2026-03-07T07:55:02.037Z</time></trkpt><trkpt lat="37.1506847" lon="-3.6773224"><ele>645.0</ele><time>2026-03-07T07:55:04.004Z</time></trkpt><trkpt lat="37.1505671" lon="-3.6773885"><ele>645.3333333333334</ele><time>2026-03-07T07:55:06.036Z</time></trkpt><trkpt lat="37.1504829" lon="-3.6774314"><ele>645.6666666666666</ele><time>2026-03-07T07:55:07.005Z</time></trkpt><trkpt lat="37.1503945" lon="-3.6774711"><ele>646.0</ele><time>2026-03-07T07:55:08.018Z</time></trkpt><trkpt lat="37.1503169" lon="-3.6775158"><ele>646.3333333333333</ele><time>2026-03-07T07:55:09.005Z</time></trkpt><trkpt lat="37.150241" lon="-3.677563"><ele>646.6666666666666</ele><time>2026-03-07T07:55:10.023Z</time></trkpt><trkpt lat="37.1501604" lon="-3.677608"><ele>647.0</ele><time>2026-03-07T07:55:11.078Z</time></trkpt><trkpt lat="37.1500798" lon="-3.6776294"><ele>647.0</ele><time>2026-03-07T07:55:12.006Z</time></trkpt><trkpt lat="37.1499951" lon="-3.6776506"><ele>647.0</ele><time>2026-03-07T07:55:13.022Z</time></trkpt><trkpt lat="37.1499054" lon="-3.6776595"><ele>647.0</ele><time>2026-03-07T07:55:14.016Z</time></trkpt><trkpt lat="37.1498109" lon="-3.6776484"><ele>647.0</ele><time>2026-03-07T07:55:15.022Z</time></trkpt><trkpt lat="37.1497175" lon="-3.6776392"><ele>647.0</ele><time>2026-03-07T07:55:16.006Z</time></trkpt><trkpt lat="37.1496272" lon="-3.6776341"><ele>647.6</ele><time>2026-03-07T07:55:17.008Z</time></trkpt><trkpt lat="37.1495392" lon="-3.6776367"><ele>648.2</ele><time>2026-03-07T07:55:18Z</time></trkpt><trkpt lat="37.1494506" lon="-3.6776482"><ele>648.8</ele><time>2026-03-07T07:55:18.997Z</time></trkpt><trkpt lat="37.1493612" lon="-3.6776801"><ele>649.4</ele><time>2026-03-07T07:55:19.994Z</time></trkpt><trkpt lat="37.1492694" lon="-3.6777143"><ele>650.0</ele><time>2026-03-07T07:55:21.012Z</time></trkpt><trkpt lat="37.1491783" lon="-3.6777467"><ele>650.3333333333333</ele><time>2026-03-07T07:55:22.014Z</time></trkpt><trkpt lat="37.1490916" lon="-3.677774"><ele>650.6666666666666</ele><time>2026-03-07T07:55:23.009Z</time></trkpt><trkpt lat="37.1490113" lon="-3.6778143"><ele>651.0</ele><time>2026-03-07T07:55:24.011Z</time></trkpt><trkpt lat="37.1489331" lon="-3.6778439"><ele>651.3333333333334</ele><time>2026-03-07T07:55:25.002Z</time></trkpt><trkpt lat="37.1488614" lon="-3.6778726"><ele>651.6666666666667</ele><time>2026-03-07T07:55:26.026Z</time></trkpt><trkpt lat="37.1487969" lon="-3.6778955"><ele>652.0</ele><time>2026-03-07T07:55:27.008Z</time></trkpt><trkpt lat="37.1486914" lon="-3.6779511"><ele>652.0</ele><time>2026-03-07T07:55:29.009Z</time></trkpt><trkpt lat="37.1486354" lon="-3.6779964"><ele>652.0</ele><time>2026-03-07T07:55:30.01Z</time></trkpt><trkpt lat="37.1485779" lon="-3.678061"><ele>652.0</ele><time>2026-03-07T07:55:31.014Z</time></trkpt><trkpt lat="37.1485236" lon="-3.678139"><ele>652.0</ele><time>2026-03-07T07:55:32.007Z</time></trkpt><trkpt lat="37.1484722" lon="-3.6782248"><ele>652.0</ele><time>2026-03-07T07:55:33.003Z</time></trkpt><trkpt lat="37.1484213" lon="-3.6783158"><ele>652.0</ele><time>2026-03-07T07:55:34.006Z</time></trkpt><trkpt lat="37.148366" lon="-3.6784075"><ele>652.0</ele><time>2026-03-07T07:55:35.014Z</time></trkpt><trkpt lat="37.1483071" lon="-3.6785008"><ele>652.0</ele><time>2026-03-07T07:55:36.011Z</time></trkpt><trkpt lat="37.1482488" lon="-3.6785931"><ele>652.0</ele><time>2026-03-07T07:55:37.012Z</time></trkpt><trkpt lat="37.148195" lon="-3.6786848"><ele>652.0</ele><time>2026-03-07T07:55:38.011Z</time></trkpt><trkpt lat="37.1481472" lon="-3.6787766"><ele>652.0</ele><time>2026-03-07T07:55:39.015Z</time></trkpt><trkpt lat="37.1481009" lon="-3.6788581"><ele>652.0</ele><time>2026-03-07T07:55:40.015Z</time></trkpt><trkpt lat="37.1480524" lon="-3.6789223"><ele>652.5</ele><time>2026-03-07T07:55:41.009Z</time></trkpt><trkpt lat="37.1480059" lon="-3.6789843"><ele>653.0</ele><time>2026-03-07T07:55:42.023Z</time></trkpt><trkpt lat="37.1479599" lon="-3.6790535"><ele>653.5</ele><time>2026-03-07T07:55:43.013Z</time></trkpt><trkpt lat="37.1479118" lon="-3.6791272"><ele>654.0</ele><time>2026-03-07T07:55:44.04Z</time></trkpt><trkpt lat="37.1478568" lon="-3.679205"><ele>654.5</ele><time>2026-03-07T07:55:44.996Z</time></trkpt><trkpt lat="37.1477908" lon="-3.679284"><ele>655.0</ele><time>2026-03-07T07:55:46.01Z</time></trkpt><trkpt lat="37.1477194" lon="-3.6793638"><ele>655.0</ele><time>2026-03-07T07:55:47.011Z</time></trkpt><trkpt lat="37.1476447" lon="-3.6794529"><ele>655.0</ele><time>2026-03-07T07:55:48.005Z</time></trkpt><trkpt lat="37.1475617" lon="-3.6795429"><ele>655.0</ele><time>2026-03-07T07:55:49.013Z</time></trkpt><trkpt lat="37.1474759" lon="-3.6796354"><ele>655.0</ele><time>2026-03-07T07:55:50.001Z</time></trkpt><trkpt lat="37.1473926" lon="-3.6797291"><ele>655.0</ele><time>2026-03-07T07:55:51.003Z</time></trkpt><trkpt lat="37.1473123" lon="-3.6798192"><ele>655.8</ele><time>2026-03-07T07:55:52.013Z</time></trkpt><trkpt lat="37.1472327" lon="-3.6799082"><ele>656.6</ele><time>2026-03-07T07:55:53.014Z</time></trkpt><trkpt lat="37.1471515" lon="-3.6800011"><ele>657.4000000000001</ele><time>2026-03-07T07:55:54.01Z</time></trkpt><trkpt lat="37.1470719" lon="-3.6801"><ele>658.2</ele><time>2026-03-07T07:55:55.003Z</time></trkpt><trkpt lat="37.1469844" lon="-3.6801915"><ele>659.0</ele><time>2026-03-07T07:55:56.012Z</time></trkpt><trkpt lat="37.1469018" lon="-3.6802897"><ele>659.4000000000001</ele><time>2026-03-07T07:55:57.01Z</time></trkpt><trkpt lat="37.1468166" lon="-3.6803803"><ele>659.8</ele><time>2026-03-07T07:55:58.014Z</time></trkpt><trkpt lat="37.146735" lon="-3.6804618"><ele>660.2</ele><time>2026-03-07T07:55:59.02Z</time></trkpt><trkpt lat="37.1466582" lon="-3.6805376"><ele>660.5999999999999</ele><time>2026-03-07T07:56:00.022Z</time></trkpt><trkpt lat="37.1465778" lon="-3.6806097"><ele>661.0</ele><time>2026-03-07T07:56:01.035Z</time></trkpt><trkpt lat="37.1464882" lon="-3.6806822"><ele>661.8</ele><time>2026-03-07T07:56:02.009Z</time></trkpt><trkpt lat="37.1463947" lon="-3.6807618"><ele>662.5999999999999</ele><time>2026-03-07T07:56:03.007Z</time></trkpt><trkpt lat="37.1463008" lon="-3.6808376"><ele>663.4</ele><time>2026-03-07T07:56:04.006Z</time></trkpt><trkpt lat="37.1462123" lon="-3.6809081"><ele>664.2</ele><time>2026-03-07T07:56:05.009Z</time></trkpt><trkpt lat="37.1461341" lon="-3.6809847"><ele>665.0</ele><time>2026-03-07T07:56:06.014Z</time></trkpt><trkpt lat="37.1460626" lon="-3.6810727"><ele>666.25</ele><time>2026-03-07T07:56:06.998Z</time></trkpt><trkpt lat="37.1459962" lon="-3.6811827"><ele>667.5</ele><time>2026-03-07T07:56:08.005Z</time></trkpt><trkpt lat="37.1459271" lon="-3.6813032"><ele>668.75</ele><time>2026-03-07T07:56:09.015Z</time></trkpt><trkpt lat="37.145855" lon="-3.6814243"><ele>670.0</ele><time>2026-03-07T07:56:10.009Z</time></trkpt><trkpt lat="37.1457861" lon="-3.6815492"><ele>670.0</ele><time>2026-03-07T07:56:11.005Z</time></trkpt><trkpt lat="37.1457135" lon="-3.6816733"><ele>670.0</ele><time>2026-03-07T07:56:12.006Z</time></trkpt><trkpt lat="37.1456363" lon="-3.6818025"><ele>670.0</ele><time>2026-03-07T07:56:13.011Z</time></trkpt><trkpt lat="37.1455611" lon="-3.6819388"><ele>670.0</ele><time>2026-03-07T07:56:14.014Z</time></trkpt><trkpt lat="37.1454873" lon="-3.6820714"><ele>671.5</ele><time>2026-03-07T07:56:15.003Z</time></trkpt><trkpt lat="37.1454135" lon="-3.6821972"><ele>673.0</ele><time>2026-03-07T07:56:15.998Z</time></trkpt><trkpt lat="37.1453384" lon="-3.6823227"><ele>674.5</ele><time>2026-03-07T07:56:17.007Z</time></trkpt><trkpt lat="37.1452665" lon="-3.6824589"><ele>676.0</ele><time>2026-03-07T07:56:18.008Z</time></trkpt><trkpt lat="37.145193" lon="-3.6825984"><ele>676.0</ele><time>2026-03-07T07:56:19.01Z</time></trkpt><trkpt lat="37.145114" lon="-3.6827337"><ele>676.0</ele><time>2026-03-07T07:56:19.998Z</time></trkpt><trkpt lat="37.1450346" lon="-3.6828681"><ele>676.0</ele><time>2026-03-07T07:56:21.002Z</time></trkpt><trkpt lat="37.1449593" lon="-3.6830029"><ele>676.0</ele><time>2026-03-07T07:56:22.013Z</time></trkpt><trkpt lat="37.1448887" lon="-3.6831401"><ele>677.75</ele><time>2026-03-07T07:56:23.014Z</time></trkpt><trkpt lat="37.1448144" lon="-3.6832776"><ele>679.5</ele><time>2026-03-07T07:56:24.008Z</time></trkpt><trkpt lat="37.1447383" lon="-3.6834125"><ele>681.25</ele><time>2026-03-07T07:56:25.017Z</time></trkpt><trkpt lat="37.1446653" lon="-3.6835456"><ele>683.0</ele><time>2026-03-07T07:56:26.003Z</time></trkpt><trkpt lat="37.1445959" lon="-3.6836736"><ele>683.75</ele><time>2026-03-07T07:56:27.016Z</time></trkpt><trkpt lat="37.1445255" lon="-3.6837978"><ele>684.5</ele><time>2026-03-07T07:56:28.013Z</time></trkpt><trkpt lat="37.1444549" lon="-3.6839236"><ele>685.25</ele><time>2026-03-07T07:56:29.007Z</time></trkpt><trkpt lat="37.1443839" lon="-3.6840532"><ele>686.0</ele><time>2026-03-07T07:56:30.014Z</time></trkpt><trkpt lat="37.1443102" lon="-3.6841803"><ele>686.0</ele><time>2026-03-07T07:56:31.005Z</time></trkpt><trkpt lat="37.1442361" lon="-3.684304"><ele>686.0</ele><time>2026-03-07T07:56:32.001Z</time></trkpt><trkpt lat="37.144163" lon="-3.684427"><ele>686.0</ele><time>2026-03-07T07:56:33.014Z</time></trkpt><trkpt lat="37.1440866" lon="-3.6845488"><ele>686.0</ele><time>2026-03-07T07:56:34.017Z</time></trkpt><trkpt lat="37.1440122" lon="-3.6846735"><ele>688.0</ele><time>2026-03-07T07:56:35.007Z</time></trkpt><trkpt lat="37.1439365" lon="-3.6847955"><ele>690.0</ele><time>2026-03-07T07:56:36Z</time></trkpt><trkpt lat="37.1438637" lon="-3.6849144"><ele>692.0</ele><time>2026-03-07T07:56:37.018Z</time></trkpt><trkpt lat="37.143797" lon="-3.6850272"><ele>694.0</ele><time>2026-03-07T07:56:38.012Z</time></trkpt><trkpt lat="37.1437389" lon="-3.6851298"><ele>694.0</ele><time>2026-03-07T07:56:39.005Z</time></trkpt><trkpt lat="37.1436878" lon="-3.6852209"><ele>694.0</ele><time>2026-03-07T07:56:39.992Z</time></trkpt><trkpt lat="37.1436364" lon="-3.6853014"><ele>694.0</ele><time>2026-03-07T07:56:41.014Z</time></trkpt><trkpt lat="37.1435807" lon="-3.6853753"><ele>694.0</ele><time>2026-03-07T07:56:41.999Z</time></trkpt><trkpt lat="37.1435345" lon="-3.6854518"><ele>694.0</ele><time>2026-03-07T07:56:43.024Z</time></trkpt><trkpt lat="37.1434829" lon="-3.6855333"><ele>694.0</ele><time>2026-03-07T07:56:44.026Z</time></trkpt><trkpt lat="37.1434244" lon="-3.6856339"><ele>693.6</ele><time>2026-03-07T07:56:45.019Z</time></trkpt><trkpt lat="37.1433671" lon="-3.6857501"><ele>693.2</ele><time>2026-03-07T07:56:46.013Z</time></trkpt><trkpt lat="37.1433169" lon="-3.685863"><ele>692.8000000000001</ele><time>2026-03-07T07:56:47.017Z</time></trkpt><trkpt lat="37.1432675" lon="-3.685973"><ele>692.4000000000001</ele><time>2026-03-07T07:56:48.013Z</time></trkpt><trkpt lat="37.1432118" lon="-3.6860857"><ele>692.0</ele><time>2026-03-07T07:56:49.006Z</time></trkpt><trkpt lat="37.1431581" lon="-3.6862058"><ele>689.4000000000001</ele><time>2026-03-07T07:56:50.01Z</time></trkpt><trkpt lat="37.1431018" lon="-3.686324"><ele>686.8000000000001</ele><time>2026-03-07T07:56:51.01Z</time></trkpt><trkpt lat="37.1430468" lon="-3.6864391"><ele>684.2</ele><time>2026-03-07T07:56:52.01Z</time></trkpt><trkpt lat="37.1429979" lon="-3.6865528"><ele>681.6</ele><time>2026-03-07T07:56:53.009Z</time></trkpt><trkpt lat="37.1429461" lon="-3.6866661"><ele>679.0</ele><time>2026-03-07T07:56:54.001Z</time></trkpt><trkpt lat="37.1428895" lon="-3.6867854"><ele>679.0</ele><time>2026-03-07T07:56:55.021Z</time></trkpt><trkpt lat="37.1428247" lon="-3.6869051"><ele>679.0</ele><time>2026-03-07T07:56:56.039Z</time></trkpt><trkpt lat="37.1427571" lon="-3.6870211"><ele>679.0</ele><time>2026-03-07T07:56:57.004Z</time></trkpt><trkpt lat="37.1426881" lon="-3.6871359"><ele>679.0</ele><time>2026-03-07T07:56:58.012Z</time></trkpt><trkpt lat="37.1426278" lon="-3.6872574"><ele>677.75</ele><time>2026-03-07T07:56:59.019Z</time></trkpt><trkpt lat="37.1425748" lon="-3.6873844"><ele>676.5</ele><time>2026-03-07T07:57:00.114Z</time></trkpt><trkpt lat="37.1425199" lon="-3.6875156"><ele>675.25</ele><time>2026-03-07T07:57:01.097Z</time></trkpt><trkpt lat="37.1424682" lon="-3.6876531"><ele>674.0</ele><time>2026-03-07T07:57:01.998Z</time></trkpt><trkpt lat="37.1424276" lon="-3.6877919"><ele>674.2</ele><time>2026-03-07T07:57:02.981Z</time></trkpt><trkpt lat="37.1423875" lon="-3.6879261"><ele>674.4000000000001</ele><time>2026-03-07T07:57:03.996Z</time></trkpt><trkpt lat="37.1423516" lon="-3.6880575"><ele>674.6</ele><time>2026-03-07T07:57:04.985Z</time></trkpt><trkpt lat="37.1423145" lon="-3.688187"><ele>674.8</ele><time>2026-03-07T07:57:06.093Z</time></trkpt><trkpt lat="37.1422773" lon="-3.6883091"><ele>675.0</ele><time>2026-03-07T07:57:07.032Z</time></trkpt><trkpt lat="37.142241" lon="-3.6884186"><ele>675.0</ele><time>2026-03-07T07:57:08.082Z</time></trkpt><trkpt lat="37.1422021" lon="-3.6885164"><ele>675.0</ele><time>2026-03-07T07:57:09.07Z</time></trkpt><trkpt lat="37.1421674" lon="-3.6885985"><ele>675.0</ele><time>2026-03-07T07:57:10.084Z</time></trkpt><trkpt lat="37.1421126" lon="-3.688706"><ele>675.0</ele><time>2026-03-07T07:57:12.127Z</time></trkpt><trkpt lat="37.1420811" lon="-3.6887808"><ele>675.0</ele><time>2026-03-07T07:57:14.067Z</time></trkpt><trkpt lat="37.1420394" lon="-3.6889189"><ele>675.0</ele><time>2026-03-07T07:57:16.032Z</time></trkpt><trkpt lat="37.1420209" lon="-3.6890166"><ele>674.6666666666666</ele><time>2026-03-07T07:57:17.04Z</time></trkpt><trkpt lat="37.1420023" lon="-3.6891046"><ele>674.3333333333334</ele><time>2026-03-07T07:57:18.019Z</time></trkpt><trkpt lat="37.1419834" lon="-3.6892039"><ele>674.0</ele><time>2026-03-07T07:57:19.044Z</time></trkpt><trkpt lat="37.1419679" lon="-3.6893218"><ele>673.6666666666667</ele><time>2026-03-07T07:57:20.029Z</time></trkpt><trkpt lat="37.1419518" lon="-3.6894456"><ele>673.3333333333334</ele><time>2026-03-07T07:57:21.065Z</time></trkpt><trkpt lat="37.1419222" lon="-3.6895615"><ele>673.0</ele><time>2026-03-07T07:57:22.078Z</time></trkpt><trkpt lat="37.141883" lon="-3.6896757"><ele>674.2</ele><time>2026-03-07T07:57:23.044Z</time></trkpt><trkpt lat="37.1418453" lon="-3.6897899"><ele>675.4</ele><time>2026-03-07T07:57:24.013Z</time></trkpt><trkpt lat="37.1418008" lon="-3.6899019"><ele>676.6</ele><time>2026-03-07T07:57:25.028Z</time></trkpt><trkpt lat="37.1417703" lon="-3.6900219"><ele>677.8000000000001</ele><time>2026-03-07T07:57:26.019Z</time></trkpt><trkpt lat="37.1417426" lon="-3.6901336"><ele>679.0</ele><time>2026-03-07T07:57:27.014Z</time></trkpt><trkpt lat="37.1417228" lon="-3.6902399"><ele>679.5</ele><time>2026-03-07T07:57:28.027Z</time></trkpt><trkpt lat="37.1417027" lon="-3.6903478"><ele>680.0</ele><time>2026-03-07T07:57:29.074Z</time></trkpt><trkpt lat="37.141677" lon="-3.6904508"><ele>680.5</ele><time>2026-03-07T07:57:30.027Z</time></trkpt><trkpt lat="37.1416501" lon="-3.6905469"><ele>681.0</ele><time>2026-03-07T07:57:31.104Z</time></trkpt><trkpt lat="37.1416266" lon="-3.6906334"><ele>681.5</ele><time>2026-03-07T07:57:32.094Z</time></trkpt><trkpt lat="37.1415858" lon="-3.6907709"><ele>682.0</ele><time>2026-03-07T07:57:34.025Z</time></trkpt><trkpt lat="37.1415476" lon="-3.6908483"><ele>682.6666666666667</ele><time>2026-03-07T07:57:36.045Z</time></trkpt><trkpt lat="37.1414826" lon="-3.6908199"><ele>683.3333333333334</ele><time>2026-03-07T07:57:39.021Z</time></trkpt><trkpt lat="37.1414772" lon="-3.6907116"><ele>684.0</ele><time>2026-03-07T07:57:41.011Z</time></trkpt><trkpt lat="37.1414513" lon="-3.6905715"><ele>684.6666666666666</ele><time>2026-03-07T07:57:43.004Z</time></trkpt><trkpt lat="37.1414408" lon="-3.6904696"><ele>685.3333333333333</ele><time>2026-03-07T07:57:44.012Z</time></trkpt><trkpt lat="37.1414234" lon="-3.6903685"><ele>686.0</ele><time>2026-03-07T07:57:45.027Z</time></trkpt><trkpt lat="37.1413999" lon="-3.6902672"><ele>685.8333333333333</ele><time>2026-03-07T07:57:46.012Z</time></trkpt><trkpt lat="37.1413741" lon="-3.6901735"><ele>685.6666666666666</ele><time>2026-03-07T07:57:47.026Z</time></trkpt><trkpt lat="37.1413438" lon="-3.6900827"><ele>685.5</ele><time>2026-03-07T07:57:48.005Z</time></trkpt><trkpt lat="37.1413113" lon="-3.689995"><ele>685.3333333333334</ele><time>2026-03-07T07:57:49.007Z</time></trkpt><trkpt lat="37.141279" lon="-3.6899086"><ele>685.1666666666667</ele><time>2026-03-07T07:57:50.011Z</time></trkpt><trkpt lat="37.1412462" lon="-3.6898256"><ele>685.0</ele><time>2026-03-07T07:57:51.015Z</time></trkpt><trkpt lat="37.14121" lon="-3.6897458"><ele>685.0</ele><time>2026-03-07T07:57:52.015Z</time></trkpt><trkpt lat="37.1411583" lon="-3.6896194"><ele>685.0</ele><time>2026-03-07T07:57:54.019Z</time></trkpt><trkpt lat="37.1411171" lon="-3.6895174"><ele>685.0</ele><time>2026-03-07T07:57:56.008Z</time></trkpt><trkpt lat="37.1410598" lon="-3.6894434"><ele>685.0</ele><time>2026-03-07T07:57:58.006Z</time></trkpt><trkpt lat="37.1409833" lon="-3.6893919"><ele>685.0</ele><time>2026-03-07T07:58:00.045Z</time></trkpt><trkpt lat="37.1408897" lon="-3.6893241"><ele>684.0</ele><time>2026-03-07T07:58:02.01Z</time></trkpt><trkpt lat="37.1408327" lon="-3.6892854"><ele>683.0</ele><time>2026-03-07T07:58:03.013Z</time></trkpt><trkpt lat="37.1407711" lon="-3.6892415"><ele>682.0</ele><time>2026-03-07T07:58:04.005Z</time></trkpt><trkpt lat="37.1406985" lon="-3.6891899"><ele>681.0</ele><time>2026-03-07T07:58:05.013Z</time></trkpt><trkpt lat="37.1406187" lon="-3.6891294"><ele>680.0</ele><time>2026-03-07T07:58:06.004Z</time></trkpt><trkpt lat="37.1405399" lon="-3.6890661"><ele>679.0</ele><time>2026-03-07T07:58:07.011Z</time></trkpt><trkpt lat="37.1404707" lon="-3.689004"><ele>679.0</ele><time>2026-03-07T07:58:08.027Z</time></trkpt><trkpt lat="37.1404067" lon="-3.6889412"><ele>679.0</ele><time>2026-03-07T07:58:09.001Z</time></trkpt><trkpt lat="37.1403529" lon="-3.6888694"><ele>679.0</ele><time>2026-03-07T07:58:10.013Z</time></trkpt><trkpt lat="37.1403044" lon="-3.688797"><ele>679.0</ele><time>2026-03-07T07:58:11.016Z</time></trkpt><trkpt lat="37.1402521" lon="-3.6887268"><ele>679.0</ele><time>2026-03-07T07:58:12.015Z</time></trkpt><trkpt lat="37.1402003" lon="-3.6886537"><ele>679.0</ele><time>2026-03-07T07:58:13.004Z</time></trkpt><trkpt lat="37.1401535" lon="-3.6885799"><ele>679.2</ele><time>2026-03-07T07:58:14.007Z</time></trkpt><trkpt lat="37.1401088" lon="-3.6884916"><ele>679.4000000000001</ele><time>2026-03-07T07:58:15.014Z</time></trkpt><trkpt lat="37.1400596" lon="-3.6883856"><ele>679.6</ele><time>2026-03-07T07:58:16.017Z</time></trkpt><trkpt lat="37.1399973" lon="-3.6882622"><ele>679.8</ele><time>2026-03-07T07:58:17.008Z</time></trkpt><trkpt lat="37.1399248" lon="-3.6881353"><ele>680.0</ele><time>2026-03-07T07:58:18.016Z</time></trkpt><trkpt lat="37.1398536" lon="-3.6880167"><ele>680.0</ele><time>2026-03-07T07:58:19.009Z</time></trkpt><trkpt lat="37.1397869" lon="-3.6878976"><ele>680.0</ele><time>2026-03-07T07:58:20Z</time></trkpt><trkpt lat="37.1397277" lon="-3.6877736"><ele>680.0</ele><time>2026-03-07T07:58:21.008Z</time></trkpt><trkpt lat="37.139687" lon="-3.687651"><ele>680.0</ele><time>2026-03-07T07:58:22.015Z</time></trkpt><trkpt lat="37.1396518" lon="-3.6875444"><ele>680.0</ele><time>2026-03-07T07:58:23.004Z</time></trkpt><trkpt lat="37.1396203" lon="-3.6874569"><ele>681.0</ele><time>2026-03-07T07:58:24.019Z</time></trkpt><trkpt lat="37.1395912" lon="-3.6873738"><ele>682.0</ele><time>2026-03-07T07:58:25.007Z</time></trkpt><trkpt lat="37.1395731" lon="-3.6872801"><ele>683.0</ele><time>2026-03-07T07:58:26.011Z</time></trkpt><trkpt lat="37.1395547" lon="-3.6871701"><ele>684.0</ele><time>2026-03-07T07:58:27.009Z</time></trkpt><trkpt lat="37.1395406" lon="-3.6870579"><ele>685.0</ele><time>2026-03-07T07:58:28.009Z</time></trkpt><trkpt lat="37.1395299" lon="-3.6869474"><ele>686.0</ele><time>2026-03-07T07:58:29.01Z</time></trkpt><trkpt lat="37.1395199" lon="-3.686841"><ele>686.3333333333333</ele><time>2026-03-07T07:58:30.013Z</time></trkpt><trkpt lat="37.1395112" lon="-3.6867291"><ele>686.6666666666666</ele><time>2026-03-07T07:58:31.029Z</time></trkpt><trkpt lat="37.1395039" lon="-3.6866157"><ele>687.0</ele><time>2026-03-07T07:58:32.008Z</time></trkpt><trkpt lat="37.1395141" lon="-3.6865069"><ele>687.3333333333334</ele><time>2026-03-07T07:58:33.01Z</time></trkpt><trkpt lat="37.1395343" lon="-3.6864002"><ele>687.6666666666667</ele><time>2026-03-07T07:58:34.01Z</time></trkpt><trkpt lat="37.1395604" lon="-3.6862867"><ele>688.0</ele><time>2026-03-07T07:58:35.02Z</time></trkpt><trkpt lat="37.1395861" lon="-3.6861694"><ele>689.3333333333334</ele><time>2026-03-07T07:58:36.013Z</time></trkpt><trkpt lat="37.1396092" lon="-3.6860667"><ele>690.6666666666667</ele><time>2026-03-07T07:58:37.009Z</time></trkpt><trkpt lat="37.1396354" lon="-3.6859758"><ele>692.0</ele><time>2026-03-07T07:58:38.015Z</time></trkpt><trkpt lat="37.1396597" lon="-3.6858889"><ele>693.3333333333334</ele><time>2026-03-07T07:58:39.016Z</time></trkpt><trkpt lat="37.1396765" lon="-3.6858074"><ele>694.6666666666666</ele><time>2026-03-07T07:58:40.003Z</time></trkpt><trkpt lat="37.1396332" lon="-3.6856372"><ele>696.0</ele><time>2026-03-07T07:58:42.019Z</time></trkpt><trkpt lat="37.1395743" lon="-3.6855269"><ele>696.0</ele><time>2026-03-07T07:58:43.001Z</time></trkpt><trkpt lat="37.1395207" lon="-3.6853989"><ele>696.0</ele><time>2026-03-07T07:58:43.996Z</time></trkpt><trkpt lat="37.13946" lon="-3.6852688"><ele>696.0</ele><time>2026-03-07T07:58:45.004Z</time></trkpt><trkpt lat="37.1393891" lon="-3.6851451"><ele>696.0</ele><time>2026-03-07T07:58:46.004Z</time></trkpt><trkpt lat="37.1393215" lon="-3.6850358"><ele>697.5</ele><time>2026-03-07T07:58:47.01Z</time></trkpt><trkpt lat="37.1392553" lon="-3.6849314"><ele>699.0</ele><time>2026-03-07T07:58:48.013Z</time></trkpt><trkpt lat="37.1391965" lon="-3.6848308"><ele>700.5</ele><time>2026-03-07T07:58:49.011Z</time></trkpt><trkpt lat="37.1391502" lon="-3.6847431"><ele>702.0</ele><time>2026-03-07T07:58:50.024Z</time></trkpt><trkpt lat="37.139109" lon="-3.6846676"><ele>703.5</ele><time>2026-03-07T07:58:51.016Z</time></trkpt><trkpt lat="37.1390683" lon="-3.6845966"><ele>705.0</ele><time>2026-03-07T07:58:52.017Z</time></trkpt><trkpt lat="37.1390282" lon="-3.6845277"><ele>706.0</ele><time>2026-03-07T07:58:53.005Z</time></trkpt><trkpt lat="37.1389876" lon="-3.6844614"><ele>707.0</ele><time>2026-03-07T07:58:54.009Z</time></trkpt><trkpt lat="37.1389436" lon="-3.6843895"><ele>708.0</ele><time>2026-03-07T07:58:55.009Z</time></trkpt><trkpt lat="37.1388937" lon="-3.6843109"><ele>709.0</ele><time>2026-03-07T07:58:56.01Z</time></trkpt><trkpt lat="37.1388467" lon="-3.6842217"><ele>710.0</ele><time>2026-03-07T07:58:57.004Z</time></trkpt><trkpt lat="37.1388032" lon="-3.6841164"><ele>711.0</ele><time>2026-03-07T07:58:58.013Z</time></trkpt><trkpt lat="37.1387627" lon="-3.6839926"><ele>710.75</ele><time>2026-03-07T07:58:59.013Z</time></trkpt><trkpt lat="37.1387163" lon="-3.6838615"><ele>710.5</ele><time>2026-03-07T07:59:00.027Z</time></trkpt><trkpt lat="37.1386757" lon="-3.6837165"><ele>710.25</ele><time>2026-03-07T07:59:01.005Z</time></trkpt><trkpt lat="37.1386462" lon="-3.6835626"><ele>710.0</ele><time>2026-03-07T07:59:02.009Z</time></trkpt><trkpt lat="37.1386148" lon="-3.6834099"><ele>710.0</ele><time>2026-03-07T07:59:03.014Z</time></trkpt><trkpt lat="37.1385825" lon="-3.6832591"><ele>710.0</ele><time>2026-03-07T07:59:04.014Z</time></trkpt><trkpt lat="37.1385477" lon="-3.6831091"><ele>710.0</ele><time>2026-03-07T07:59:05.028Z</time></trkpt><trkpt lat="37.1385129" lon="-3.6829627"><ele>710.0</ele><time>2026-03-07T07:59:06.009Z</time></trkpt><trkpt lat="37.1384762" lon="-3.682835"><ele>709.5</ele><time>2026-03-07T07:59:07.001Z</time></trkpt><trkpt lat="37.1384428" lon="-3.6827279"><ele>709.0</ele><time>2026-03-07T07:59:08.011Z</time></trkpt><trkpt lat="37.1384119" lon="-3.6826285"><ele>708.5</ele><time>2026-03-07T07:59:09.008Z</time></trkpt><trkpt lat="37.1383872" lon="-3.6825275"><ele>708.0</ele><time>2026-03-07T07:59:10.031Z</time></trkpt><trkpt lat="37.1383478" lon="-3.6824202"><ele>707.5</ele><time>2026-03-07T07:59:11.006Z</time></trkpt><trkpt lat="37.1383093" lon="-3.68232"><ele>707.0</ele><time>2026-03-07T07:59:12.004Z</time></trkpt><trkpt lat="37.1382896" lon="-3.6822281"><ele>707.0</ele><time>2026-03-07T07:59:13.001Z</time></trkpt><trkpt lat="37.1383001" lon="-3.6821395"><ele>707.0</ele><time>2026-03-07T07:59:14.005Z</time></trkpt><trkpt lat="37.1383151" lon="-3.6820523"><ele>707.0</ele><time>2026-03-07T07:59:15.006Z</time></trkpt><trkpt lat="37.1383296" lon="-3.681966"><ele>707.0</ele><time>2026-03-07T07:59:16.004Z</time></trkpt><trkpt lat="37.1383463" lon="-3.6818818"><ele>707.0</ele><time>2026-03-07T07:59:17.005Z</time></trkpt><trkpt lat="37.1383579" lon="-3.6817386"><ele>707.0</ele><time>2026-03-07T07:59:19.008Z</time></trkpt><trkpt lat="37.1383026" lon="-3.6815794"><ele>706.4285714285714</ele><time>2026-03-07T07:59:21.016Z</time></trkpt><trkpt lat="37.1382735" lon="-3.6814926"><ele>705.8571428571429</ele><time>2026-03-07T07:59:22.02Z</time></trkpt><trkpt lat="37.1382459" lon="-3.6814046"><ele>705.2857142857142</ele><time>2026-03-07T07:59:23.013Z</time></trkpt><trkpt lat="37.1382251" lon="-3.6813204"><ele>704.7142857142858</ele><time>2026-03-07T07:59:24.023Z</time></trkpt><trkpt lat="37.1382066" lon="-3.6812332"><ele>704.1428571428571</ele><time>2026-03-07T07:59:25.021Z</time></trkpt><trkpt lat="37.1381932" lon="-3.6811438"><ele>703.5714285714286</ele><time>2026-03-07T07:59:26.016Z</time></trkpt><trkpt lat="37.1381884" lon="-3.6810567"><ele>703.0</ele><time>2026-03-07T07:59:27.014Z</time></trkpt><trkpt lat="37.1381892" lon="-3.6809692"><ele>701.5</ele><time>2026-03-07T07:59:28.019Z</time></trkpt><trkpt lat="37.13819" lon="-3.6808756"><ele>700.0</ele><time>2026-03-07T07:59:29.034Z</time></trkpt><trkpt lat="37.1381817" lon="-3.6807756"><ele>698.5</ele><time>2026-03-07T07:59:30.015Z</time></trkpt><trkpt lat="37.1381706" lon="-3.6806762"><ele>697.0</ele><time>2026-03-07T07:59:31.018Z</time></trkpt><trkpt lat="37.138162" lon="-3.6805788"><ele>695.5</ele><time>2026-03-07T07:59:32.01Z</time></trkpt><trkpt lat="37.1381649" lon="-3.6804853"><ele>694.0</ele><time>2026-03-07T07:59:33.006Z</time></trkpt><trkpt lat="37.1381706" lon="-3.6803932"><ele>694.0</ele><time>2026-03-07T07:59:34.013Z</time></trkpt><trkpt lat="37.1381728" lon="-3.6803051"><ele>694.0</ele><time>2026-03-07T07:59:35.017Z</time></trkpt><trkpt lat="37.1381822" lon="-3.6802209"><ele>694.0</ele><time>2026-03-07T07:59:36.014Z</time></trkpt><trkpt lat="37.1381888" lon="-3.6800826"><ele>694.0</ele><time>2026-03-07T07:59:38.012Z</time></trkpt><trkpt lat="37.1382122" lon="-3.679982"><ele>694.0</ele><time>2026-03-07T07:59:40.012Z</time></trkpt><trkpt lat="37.1382287" lon="-3.6798762"><ele>694.0</ele><time>2026-03-07T07:59:43.002Z</time></trkpt><trkpt lat="37.1381525" lon="-3.6799957"><ele>694.0</ele><time>2026-03-07T07:59:49.006Z</time></trkpt><trkpt lat="37.1381052" lon="-3.6800704"><ele>694.0</ele><time>2026-03-07T07:59:50.011Z</time></trkpt><trkpt lat="37.1380581" lon="-3.6801428"><ele>694.0</ele><time>2026-03-07T07:59:51.001Z</time></trkpt><trkpt lat="37.138008" lon="-3.6802159"><ele>694.0</ele><time>2026-03-07T07:59:52.021Z</time></trkpt><trkpt lat="37.1379569" lon="-3.6802822"><ele>694.0</ele><time>2026-03-07T07:59:53.022Z</time></trkpt><trkpt lat="37.1379093" lon="-3.6803501"><ele>694.0</ele><time>2026-03-07T07:59:54Z</time></trkpt><trkpt lat="37.137865" lon="-3.6804103"><ele>694.0</ele><time>2026-03-07T07:59:55.013Z</time></trkpt><trkpt lat="37.1378176" lon="-3.6804646"><ele>694.0</ele><time>2026-03-07T07:59:56.012Z</time></trkpt><trkpt lat="37.1377663" lon="-3.6805124"><ele>694.0</ele><time>2026-03-07T07:59:57.014Z</time></trkpt><trkpt lat="37.1376642" lon="-3.6805981"><ele>694.0</ele><time>2026-03-07T07:59:59.007Z</time></trkpt><trkpt lat="37.1376096" lon="-3.6806383"><ele>694.0</ele><time>2026-03-07T08:00:00.009Z</time></trkpt><trkpt lat="37.1374981" lon="-3.6807034"><ele>694.0</ele><time>2026-03-07T08:00:02.028Z</time></trkpt><trkpt lat="37.1374401" lon="-3.680739"><ele>694.0</ele><time>2026-03-07T08:00:03.007Z</time></trkpt><trkpt lat="37.1373809" lon="-3.680774"><ele>693.8571428571429</ele><time>2026-03-07T08:00:04.01Z</time></trkpt><trkpt lat="37.1373226" lon="-3.6808103"><ele>693.7142857142857</ele><time>2026-03-07T08:00:05.004Z</time></trkpt><trkpt lat="37.1372646" lon="-3.6808466"><ele>693.5714285714286</ele><time>2026-03-07T08:00:06.009Z</time></trkpt><trkpt lat="37.137205" lon="-3.6808823"><ele>693.4285714285714</ele><time>2026-03-07T08:00:07.009Z</time></trkpt><trkpt lat="37.1371445" lon="-3.680917"><ele>693.2857142857142</ele><time>2026-03-07T08:00:08.023Z</time></trkpt><trkpt lat="37.1370823" lon="-3.6809528"><ele>693.1428571428571</ele><time>2026-03-07T08:00:09.024Z</time></trkpt><trkpt lat="37.137019" lon="-3.6809874"><ele>693.0</ele><time>2026-03-07T08:00:10.006Z</time></trkpt><trkpt lat="37.1369549" lon="-3.6810168"><ele>693.0</ele><time>2026-03-07T08:00:11.003Z</time></trkpt><trkpt lat="37.1368891" lon="-3.6810416"><ele>693.0</ele><time>2026-03-07T08:00:12.012Z</time></trkpt><trkpt lat="37.1368242" lon="-3.6810663"><ele>693.0</ele><time>2026-03-07T08:00:13.013Z</time></trkpt><trkpt lat="37.1367617" lon="-3.6810918"><ele>693.0</ele><time>2026-03-07T08:00:14.019Z</time></trkpt><trkpt lat="37.1366968" lon="-3.6811161"><ele>693.0</ele><time>2026-03-07T08:00:15.007Z</time></trkpt><trkpt lat="37.1366286" lon="-3.6811391"><ele>693.0</ele><time>2026-03-07T08:00:16.002Z</time></trkpt><trkpt lat="37.1365581" lon="-3.6811658"><ele>693.0</ele><time>2026-03-07T08:00:17.031Z</time></trkpt><trkpt lat="37.1364873" lon="-3.6812019"><ele>693.8</ele><time>2026-03-07T08:00:18.001Z</time></trkpt><trkpt lat="37.1364091" lon="-3.6812549"><ele>694.5999999999999</ele><time>2026-03-07T08:00:19.013Z</time></trkpt><trkpt lat="37.1363241" lon="-3.6813261"><ele>695.4000000000001</ele><time>2026-03-07T08:00:20.014Z</time></trkpt><trkpt lat="37.1362406" lon="-3.6814059"><ele>696.2</ele><time>2026-03-07T08:00:21.006Z</time></trkpt><trkpt lat="37.136164" lon="-3.6814858"><ele>697.0</ele><time>2026-03-07T08:00:22.016Z</time></trkpt><trkpt lat="37.1361006" lon="-3.6815691"><ele>697.0</ele><time>2026-03-07T08:00:23.007Z</time></trkpt><trkpt lat="37.1360412" lon="-3.6816581"><ele>697.0</ele><time>2026-03-07T08:00:23.999Z</time></trkpt><trkpt lat="37.1359871" lon="-3.6817661"><ele>697.0</ele><time>2026-03-07T08:00:25.009Z</time></trkpt><trkpt lat="37.1359449" lon="-3.6819036"><ele>697.0</ele><time>2026-03-07T08:00:26.023Z</time></trkpt><trkpt lat="37.1359083" lon="-3.6820551"><ele>697.0</ele><time>2026-03-07T08:00:26.997Z</time></trkpt><trkpt lat="37.1358833" lon="-3.6822089"><ele>698.75</ele><time>2026-03-07T08:00:28.018Z</time></trkpt><trkpt lat="37.1358628" lon="-3.682356"><ele>700.5</ele><time>2026-03-07T08:00:29.015Z</time></trkpt><trkpt lat="37.1358515" lon="-3.6825037"><ele>702.25</ele><time>2026-03-07T08:00:30.003Z</time></trkpt><trkpt lat="37.1358406" lon="-3.6826601"><ele>704.0</ele><time>2026-03-07T08:00:31.02Z</time></trkpt><trkpt lat="37.1358233" lon="-3.6828246"><ele>706.0</ele><time>2026-03-07T08:00:32.015Z</time></trkpt><trkpt lat="37.1358036" lon="-3.682993"><ele>708.0</ele><time>2026-03-07T08:00:33.006Z</time></trkpt><trkpt lat="37.1357857" lon="-3.6831548"><ele>710.0</ele><time>2026-03-07T08:00:34.002Z</time></trkpt><trkpt lat="37.1357679" lon="-3.6833033"><ele>712.0</ele><time>2026-03-07T08:00:35.008Z</time></trkpt><trkpt lat="37.1357419" lon="-3.6834452"><ele>712.5</ele><time>2026-03-07T08:00:36.008Z</time></trkpt><trkpt lat="37.1357158" lon="-3.6835985"><ele>713.0</ele><time>2026-03-07T08:00:37.005Z</time></trkpt><trkpt lat="37.1356824" lon="-3.6837522"><ele>713.5</ele><time>2026-03-07T08:00:38.009Z</time></trkpt><trkpt lat="37.1356467" lon="-3.6838913"><ele>714.0</ele><time>2026-03-07T08:00:39.006Z</time></trkpt><trkpt lat="37.1356078" lon="-3.6840247"><ele>714.0</ele><time>2026-03-07T08:00:40.002Z</time></trkpt><trkpt lat="37.1355714" lon="-3.6841578"><ele>714.0</ele><time>2026-03-07T08:00:41.008Z</time></trkpt><trkpt lat="37.1355348" lon="-3.6842836"><ele>714.0</ele><time>2026-03-07T08:00:42Z</time></trkpt><trkpt lat="37.1355042" lon="-3.6844078"><ele>714.0</ele><time>2026-03-07T08:00:43.006Z</time></trkpt><trkpt lat="37.1354756" lon="-3.6845282"><ele>714.0</ele><time>2026-03-07T08:00:44.016Z</time></trkpt><trkpt lat="37.1354468" lon="-3.6846442"><ele>713.0</ele><time>2026-03-07T08:00:45.004Z</time></trkpt><trkpt lat="37.1354176" lon="-3.684763"><ele>712.0</ele><time>2026-03-07T08:00:46.003Z</time></trkpt><trkpt lat="37.1353978" lon="-3.6848825"><ele>711.0</ele><time>2026-03-07T08:00:46.993Z</time></trkpt><trkpt lat="37.1353789" lon="-3.6850008"><ele>710.0</ele><time>2026-03-07T08:00:48.005Z</time></trkpt><trkpt lat="37.1353562" lon="-3.6851174"><ele>709.0</ele><time>2026-03-07T08:00:49.016Z</time></trkpt><trkpt lat="37.1353343" lon="-3.6852371"><ele>707.8000000000001</ele><time>2026-03-07T08:00:50.035Z</time></trkpt><trkpt lat="37.1353118" lon="-3.6853582"><ele>706.6</ele><time>2026-03-07T08:00:51.021Z</time></trkpt><trkpt lat="37.1352873" lon="-3.6854765"><ele>705.4</ele><time>2026-03-07T08:00:52.005Z</time></trkpt><trkpt lat="37.1352743" lon="-3.6856004"><ele>704.2</ele><time>2026-03-07T08:00:53.012Z</time></trkpt><trkpt lat="37.1352555" lon="-3.6857224"><ele>703.0</ele><time>2026-03-07T08:00:54.013Z</time></trkpt><trkpt lat="37.1352446" lon="-3.6858496"><ele>703.0</ele><time>2026-03-07T08:00:55.01Z</time></trkpt><trkpt lat="37.1352291" lon="-3.6859708"><ele>703.0</ele><time>2026-03-07T08:00:56.009Z</time></trkpt><trkpt lat="37.1352135" lon="-3.6860842"><ele>703.0</ele><time>2026-03-07T08:00:57.002Z</time></trkpt><trkpt lat="37.1351907" lon="-3.6861849"><ele>703.0</ele><time>2026-03-07T08:00:57.995Z</time></trkpt><trkpt lat="37.13516" lon="-3.6862712"><ele>703.0</ele><time>2026-03-07T08:00:59.009Z</time></trkpt><trkpt lat="37.1351257" lon="-3.6863431"><ele>703.0</ele><time>2026-03-07T08:01:00.039Z</time></trkpt><trkpt lat="37.1350587" lon="-3.686443"><ele>702.0</ele><time>2026-03-07T08:01:02.006Z</time></trkpt><trkpt lat="37.1349581" lon="-3.6865024"><ele>701.0</ele><time>2026-03-07T08:01:04.003Z</time></trkpt><trkpt lat="37.1348827" lon="-3.6865026"><ele>700.0</ele><time>2026-03-07T08:01:05.004Z</time></trkpt><trkpt lat="37.1347878" lon="-3.6864683"><ele>699.0</ele><time>2026-03-07T08:01:06.01Z</time></trkpt><trkpt lat="37.1346828" lon="-3.6864401"><ele>698.0</ele><time>2026-03-07T08:01:07.019Z</time></trkpt><trkpt lat="37.1345771" lon="-3.6864331"><ele>698.0</ele><time>2026-03-07T08:01:08.002Z</time></trkpt><trkpt lat="37.13447" lon="-3.6864348"><ele>698.0</ele><time>2026-03-07T08:01:09.005Z</time></trkpt><trkpt lat="37.1343756" lon="-3.6864329"><ele>698.0</ele><time>2026-03-07T08:01:10.018Z</time></trkpt><trkpt lat="37.1342934" lon="-3.6864205"><ele>698.0</ele><time>2026-03-07T08:01:11.01Z</time></trkpt><trkpt lat="37.1342127" lon="-3.6863965"><ele>698.0</ele><time>2026-03-07T08:01:12.005Z</time></trkpt><trkpt lat="37.1341292" lon="-3.6863513"><ele>698.2</ele><time>2026-03-07T08:01:13.009Z</time></trkpt><trkpt lat="37.1340458" lon="-3.6862766"><ele>698.4</ele><time>2026-03-07T08:01:13.997Z</time></trkpt><trkpt lat="37.1339638" lon="-3.6861796"><ele>698.6</ele><time>2026-03-07T08:01:15.01Z</time></trkpt><trkpt lat="37.1338766" lon="-3.6860838"><ele>698.8000000000001</ele><time>2026-03-07T08:01:16.006Z</time></trkpt><trkpt lat="37.1337859" lon="-3.6859996"><ele>699.0</ele><time>2026-03-07T08:01:17.01Z</time></trkpt><trkpt lat="37.1337003" lon="-3.6859107"><ele>700.0</ele><time>2026-03-07T08:01:18.018Z</time></trkpt><trkpt lat="37.1336227" lon="-3.685814"><ele>701.0</ele><time>2026-03-07T08:01:19.009Z</time></trkpt><trkpt lat="37.133547" lon="-3.6857146"><ele>702.0</ele><time>2026-03-07T08:01:20.01Z</time></trkpt><trkpt lat="37.1334813" lon="-3.6856068"><ele>703.0</ele><time>2026-03-07T08:01:21.016Z</time></trkpt><trkpt lat="37.1334121" lon="-3.685513"><ele>704.0</ele><time>2026-03-07T08:01:22.016Z</time></trkpt><trkpt lat="37.1333492" lon="-3.685417"><ele>704.0</ele><time>2026-03-07T08:01:23.018Z</time></trkpt><trkpt lat="37.1332993" lon="-3.6853055"><ele>704.0</ele><time>2026-03-07T08:01:24.007Z</time></trkpt><trkpt lat="37.1332649" lon="-3.6851749"><ele>704.0</ele><time>2026-03-07T08:01:25.01Z</time></trkpt><trkpt lat="37.1332376" lon="-3.6850365"><ele>704.0</ele><time>2026-03-07T08:01:26.009Z</time></trkpt><trkpt lat="37.1332111" lon="-3.6848918"><ele>704.0</ele><time>2026-03-07T08:01:26.998Z</time></trkpt><trkpt lat="37.1331716" lon="-3.6847488"><ele>704.5</ele><time>2026-03-07T08:01:28.01Z</time></trkpt><trkpt lat="37.1331267" lon="-3.6846127"><ele>705.0</ele><time>2026-03-07T08:01:29.002Z</time></trkpt><trkpt lat="37.1330808" lon="-3.6844868"><ele>705.5</ele><time>2026-03-07T08:01:30.01Z</time></trkpt><trkpt lat="37.1330339" lon="-3.6843607"><ele>706.0</ele><time>2026-03-07T08:01:31.002Z</time></trkpt><trkpt lat="37.1329811" lon="-3.6842322"><ele>706.0</ele><time>2026-03-07T08:01:32Z</time></trkpt><trkpt lat="37.1329328" lon="-3.6841105"><ele>706.0</ele><time>2026-03-07T08:01:33.007Z</time></trkpt><trkpt lat="37.132879" lon="-3.6839921"><ele>706.0</ele><time>2026-03-07T08:01:34.005Z</time></trkpt><trkpt lat="37.1328258" lon="-3.6838741"><ele>706.0</ele><time>2026-03-07T08:01:35.014Z</time></trkpt><trkpt lat="37.1327789" lon="-3.6837497"><ele>706.0</ele><time>2026-03-07T08:01:36.003Z</time></trkpt><trkpt lat="37.1327418" lon="-3.6836138"><ele>707.25</ele><time>2026-03-07T08:01:37.026Z</time></trkpt><trkpt lat="37.1327032" lon="-3.6834696"><ele>708.5</ele><time>2026-03-07T08:01:38.048Z</time></trkpt><trkpt lat="37.1326567" lon="-3.6833331"><ele>709.75</ele><time>2026-03-07T08:01:39.012Z</time></trkpt><trkpt lat="37.1326089" lon="-3.6831954"><ele>711.0</ele><time>2026-03-07T08:01:40.018Z</time></trkpt><trkpt lat="37.1325606" lon="-3.6830577"><ele>711.0</ele><time>2026-03-07T08:01:41.008Z</time></trkpt><trkpt lat="37.1325094" lon="-3.6829302"><ele>711.0</ele><time>2026-03-07T08:01:42.013Z</time></trkpt><trkpt lat="37.1324481" lon="-3.6828048"><ele>711.0</ele><time>2026-03-07T08:01:43.014Z</time></trkpt><trkpt lat="37.1323866" lon="-3.6826837"><ele>711.0</ele><time>2026-03-07T08:01:44.009Z</time></trkpt><trkpt lat="37.1323144" lon="-3.6825822"><ele>711.4</ele><time>2026-03-07T08:01:45.016Z</time></trkpt><trkpt lat="37.1322396" lon="-3.6824878"><ele>711.8</ele><time>2026-03-07T08:01:46.007Z</time></trkpt><trkpt lat="37.1321693" lon="-3.6823849"><ele>712.1999999999999</ele><time>2026-03-07T08:01:47.011Z</time></trkpt><trkpt lat="37.1320939" lon="-3.6822981"><ele>712.5999999999999</ele><time>2026-03-07T08:01:48.009Z</time></trkpt><trkpt lat="37.1320215" lon="-3.6822188"><ele>713.0</ele><time>2026-03-07T08:01:49.006Z</time></trkpt><trkpt lat="37.1319632" lon="-3.6821358"><ele>713.0</ele><time>2026-03-07T08:01:50.014Z</time></trkpt><trkpt lat="37.1318974" lon="-3.6820484"><ele>713.0</ele><time>2026-03-07T08:01:51.011Z</time></trkpt><trkpt lat="37.1318298" lon="-3.6819586"><ele>713.0</ele><time>2026-03-07T08:01:52.009Z</time></trkpt><trkpt lat="37.1317651" lon="-3.6818667"><ele>713.0</ele><time>2026-03-07T08:01:53.02Z</time></trkpt><trkpt lat="37.1316976" lon="-3.6817722"><ele>713.0</ele><time>2026-03-07T08:01:54.014Z</time></trkpt><trkpt lat="37.1316273" lon="-3.6816779"><ele>713.0</ele><time>2026-03-07T08:01:55.019Z</time></trkpt><trkpt lat="37.1315619" lon="-3.6815798"><ele>713.0</ele><time>2026-03-07T08:01:56.003Z</time></trkpt><trkpt lat="37.1315081" lon="-3.6814769"><ele>713.0</ele><time>2026-03-07T08:01:57.01Z</time></trkpt><trkpt lat="37.1314568" lon="-3.6813794"><ele>713.0</ele><time>2026-03-07T08:01:58.02Z</time></trkpt><trkpt lat="37.1314165" lon="-3.6812799"><ele>713.0</ele><time>2026-03-07T08:01:58.999Z</time></trkpt><trkpt lat="37.1313877" lon="-3.6811721"><ele>712.2</ele><time>2026-03-07T08:02:00.044Z</time></trkpt><trkpt lat="37.1313563" lon="-3.68106"><ele>711.4</ele><time>2026-03-07T08:02:01.044Z</time></trkpt><trkpt lat="37.1313232" lon="-3.6809349"><ele>710.6</ele><time>2026-03-07T08:02:02.009Z</time></trkpt><trkpt lat="37.1312812" lon="-3.6808149"><ele>709.8000000000001</ele><time>2026-03-07T08:02:03.007Z</time></trkpt><trkpt lat="37.1312445" lon="-3.6807058"><ele>709.0</ele><time>2026-03-07T08:02:04.008Z</time></trkpt><trkpt lat="37.131211" lon="-3.6806145"><ele>709.0</ele><time>2026-03-07T08:02:05.019Z</time></trkpt><trkpt lat="37.1311874" lon="-3.6805391"><ele>709.0</ele><time>2026-03-07T08:02:06.011Z</time></trkpt><trkpt lat="37.1311461" lon="-3.6803881"><ele>709.0</ele><time>2026-03-07T08:02:08.009Z</time></trkpt><trkpt lat="37.1311447" lon="-3.6802845"><ele>709.0</ele><time>2026-03-07T08:02:09.006Z</time></trkpt><trkpt lat="37.1311578" lon="-3.6801693"><ele>709.0</ele><time>2026-03-07T08:02:10.012Z</time></trkpt><trkpt lat="37.1311672" lon="-3.6800563"><ele>708.6666666666667</ele><time>2026-03-07T08:02:10.998Z</time></trkpt><trkpt lat="37.1311752" lon="-3.6799413"><ele>708.3333333333334</ele><time>2026-03-07T08:02:12.005Z</time></trkpt><trkpt lat="37.1311756" lon="-3.6798417"><ele>708.0</ele><time>2026-03-07T08:02:13.008Z</time></trkpt><trkpt lat="37.1311493" lon="-3.6797542"><ele>707.6666666666666</ele><time>2026-03-07T08:02:14.036Z</time></trkpt><trkpt lat="37.1311099" lon="-3.6796687"><ele>707.3333333333333</ele><time>2026-03-07T08:02:15.011Z</time></trkpt><trkpt lat="37.1310501" lon="-3.6795954"><ele>707.0</ele><time>2026-03-07T08:02:16.021Z</time></trkpt><trkpt lat="37.1309838" lon="-3.6795332"><ele>707.0</ele><time>2026-03-07T08:02:17.008Z</time></trkpt><trkpt lat="37.1309095" lon="-3.6794815"><ele>707.0</ele><time>2026-03-07T08:02:18.01Z</time></trkpt><trkpt lat="37.1308201" lon="-3.6794474"><ele>707.0</ele><time>2026-03-07T08:02:19.009Z</time></trkpt><trkpt lat="37.1307241" lon="-3.6794199"><ele>707.0</ele><time>2026-03-07T08:02:20.01Z</time></trkpt><trkpt lat="37.130626" lon="-3.6793935"><ele>707.0</ele><time>2026-03-07T08:02:20.999Z</time></trkpt><trkpt lat="37.1305303" lon="-3.6793593"><ele>706.3333333333333</ele><time>2026-03-07T08:02:22.028Z</time></trkpt><trkpt lat="37.1304368" lon="-3.679328"><ele>705.6666666666666</ele><time>2026-03-07T08:02:23.02Z</time></trkpt><trkpt lat="37.130347" lon="-3.6792952"><ele>705.0</ele><time>2026-03-07T08:02:24.016Z</time></trkpt><trkpt lat="37.130265" lon="-3.6792735"><ele>704.3333333333334</ele><time>2026-03-07T08:02:25.015Z</time></trkpt><trkpt lat="37.1301963" lon="-3.6792416"><ele>703.6666666666667</ele><time>2026-03-07T08:02:26.011Z</time></trkpt><trkpt lat="37.1301361" lon="-3.6792136"><ele>703.0</ele><time>2026-03-07T08:02:27.002Z</time></trkpt><trkpt lat="37.1300872" lon="-3.6791621"><ele>703.0</ele><time>2026-03-07T08:02:28.012Z</time></trkpt><trkpt lat="37.1299751" lon="-3.6790972"><ele>703.0</ele><time>2026-03-07T08:02:30.007Z</time></trkpt><trkpt lat="37.1299103" lon="-3.6790931"><ele>703.0</ele><time>2026-03-07T08:02:31.012Z</time></trkpt><trkpt lat="37.1298414" lon="-3.6790947"><ele>703.0</ele><time>2026-03-07T08:02:32.003Z</time></trkpt><trkpt lat="37.1297458" lon="-3.6790805"><ele>703.0</ele><time>2026-03-07T08:02:34.001Z</time></trkpt><trkpt lat="37.1296813" lon="-3.6790618"><ele>703.0</ele><time>2026-03-07T08:02:36.022Z</time></trkpt><trkpt lat="37.1296074" lon="-3.6790865"><ele>703.6666666666667</ele><time>2026-03-07T08:02:38.02Z</time></trkpt><trkpt lat="37.12954" lon="-3.679178"><ele>704.3333333333334</ele><time>2026-03-07T08:02:40.017Z</time></trkpt><trkpt lat="37.1294973" lon="-3.6792456"><ele>705.0</ele><time>2026-03-07T08:02:41.006Z</time></trkpt><trkpt lat="37.1294503" lon="-3.6793153"><ele>705.6666666666666</ele><time>2026-03-07T08:02:42.005Z</time></trkpt><trkpt lat="37.1293839" lon="-3.6794187"><ele>706.3333333333333</ele><time>2026-03-07T08:02:44.008Z</time></trkpt><trkpt lat="37.1293119" lon="-3.6794709"><ele>707.0</ele><time>2026-03-07T08:02:46.009Z</time></trkpt><trkpt lat="37.1292479" lon="-3.6794835"><ele>707.0</ele><time>2026-03-07T08:02:47.006Z</time></trkpt><trkpt lat="37.129179" lon="-3.6794968"><ele>707.0</ele><time>2026-03-07T08:02:48.022Z</time></trkpt><trkpt lat="37.1291072" lon="-3.6795313"><ele>707.0</ele><time>2026-03-07T08:02:49.011Z</time></trkpt><trkpt lat="37.1290358" lon="-3.6795658"><ele>707.0</ele><time>2026-03-07T08:02:50.011Z</time></trkpt><trkpt lat="37.1289687" lon="-3.6795895"><ele>707.0</ele><time>2026-03-07T08:02:51.013Z</time></trkpt><trkpt lat="37.1288981" lon="-3.6795887"><ele>707.0</ele><time>2026-03-07T08:02:52.02Z</time></trkpt><trkpt lat="37.1288267" lon="-3.6795768"><ele>707.0</ele><time>2026-03-07T08:02:53.007Z</time></trkpt><trkpt lat="37.1287531" lon="-3.6795587"><ele>708.1666666666666</ele><time>2026-03-07T08:02:54.005Z</time></trkpt><trkpt lat="37.1286807" lon="-3.679539"><ele>709.3333333333333</ele><time>2026-03-07T08:02:55.015Z</time></trkpt><trkpt lat="37.1286101" lon="-3.6795203"><ele>710.5</ele><time>2026-03-07T08:02:56.01Z</time></trkpt><trkpt lat="37.1285445" lon="-3.6794988"><ele>711.6666666666666</ele><time>2026-03-07T08:02:57.023Z</time></trkpt><trkpt lat="37.1284297" lon="-3.6794752"><ele>712.8333333333334</ele><time>2026-03-07T08:02:59.017Z</time></trkpt><trkpt lat="37.1283493" lon="-3.6794381"><ele>714.0</ele><time>2026-03-07T08:03:01.043Z</time></trkpt><trkpt lat="37.1282713" lon="-3.6793784"><ele>715.0</ele><time>2026-03-07T08:03:04.014Z</time></trkpt><trkpt lat="37.1281823" lon="-3.6794431"><ele>716.0</ele><time>2026-03-07T08:03:06.012Z</time></trkpt><trkpt lat="37.1281491" lon="-3.6795136"><ele>717.0</ele><time>2026-03-07T08:03:07.017Z</time></trkpt><trkpt lat="37.1281115" lon="-3.6796"><ele>718.0</ele><time>2026-03-07T08:03:07.997Z</time></trkpt><trkpt lat="37.1280695" lon="-3.6796865"><ele>719.0</ele><time>2026-03-07T08:03:09.017Z</time></trkpt><trkpt lat="37.1280241" lon="-3.6797731"><ele>720.0</ele><time>2026-03-07T08:03:10.015Z</time></trkpt><trkpt lat="37.1279728" lon="-3.6798712"><ele>720.0</ele><time>2026-03-07T08:03:11.013Z</time></trkpt><trkpt lat="37.1279123" lon="-3.6799923"><ele>720.0</ele><time>2026-03-07T08:03:12.014Z</time></trkpt><trkpt lat="37.1278515" lon="-3.6801136"><ele>720.0</ele><time>2026-03-07T08:03:13.021Z</time></trkpt><trkpt lat="37.1277886" lon="-3.6802354"><ele>720.0</ele><time>2026-03-07T08:03:14.013Z</time></trkpt><trkpt lat="37.1277296" lon="-3.6803453"><ele>720.0</ele><time>2026-03-07T08:03:15.006Z</time></trkpt><trkpt lat="37.1276719" lon="-3.6804521"><ele>719.6</ele><time>2026-03-07T08:03:16.017Z</time></trkpt><trkpt lat="37.1276138" lon="-3.6805575"><ele>719.2</ele><time>2026-03-07T08:03:17.019Z</time></trkpt><trkpt lat="37.1275654" lon="-3.6806718"><ele>718.8</ele><time>2026-03-07T08:03:18.004Z</time></trkpt><trkpt lat="37.1275329" lon="-3.6807961"><ele>718.4</ele><time>2026-03-07T08:03:19.013Z</time></trkpt><trkpt lat="37.1275103" lon="-3.680889"><ele>718.0</ele><time>2026-03-07T08:03:20.013Z</time></trkpt><trkpt lat="37.1274825" lon="-3.6809818"><ele>718.0</ele><time>2026-03-07T08:03:21.998Z</time></trkpt><trkpt lat="37.1274281" lon="-3.6809383"><ele>718.0</ele><time>2026-03-07T08:03:26.021Z</time></trkpt><trkpt lat="37.1273111" lon="-3.6809383"><ele>718.0</ele><time>2026-03-07T08:03:28.016Z</time></trkpt><trkpt lat="37.1272132" lon="-3.6809594"><ele>718.0</ele><time>2026-03-07T08:03:29.017Z</time></trkpt><trkpt lat="37.127102" lon="-3.6809912"><ele>718.0</ele><time>2026-03-07T08:03:30.014Z</time></trkpt><trkpt lat="37.126973" lon="-3.6810144"><ele>719.0</ele><time>2026-03-07T08:03:31.008Z</time></trkpt><trkpt lat="37.1268365" lon="-3.6810194"><ele>720.0</ele><time>2026-03-07T08:03:32.015Z</time></trkpt><trkpt lat="37.1267022" lon="-3.6810126"><ele>721.0</ele><time>2026-03-07T08:03:33.008Z</time></trkpt><trkpt lat="37.1265851" lon="-3.6810004"><ele>722.0</ele><time>2026-03-07T08:03:34.013Z</time></trkpt><trkpt lat="37.1264823" lon="-3.680997"><ele>723.25</ele><time>2026-03-07T08:03:35.008Z</time></trkpt><trkpt lat="37.1263833" lon="-3.6810103"><ele>724.5</ele><time>2026-03-07T08:03:36.003Z</time></trkpt><trkpt lat="37.1262852" lon="-3.6810484"><ele>725.75</ele><time>2026-03-07T08:03:37.008Z</time></trkpt><trkpt lat="37.1261881" lon="-3.6811327"><ele>727.0</ele><time>2026-03-07T08:03:38.025Z</time></trkpt><trkpt lat="37.1260883" lon="-3.6812448"><ele>727.75</ele><time>2026-03-07T08:03:39.012Z</time></trkpt><trkpt lat="37.1259828" lon="-3.6813531"><ele>728.5</ele><time>2026-03-07T08:03:40.017Z</time></trkpt><trkpt lat="37.1258786" lon="-3.681464"><ele>729.25</ele><time>2026-03-07T08:03:41.026Z</time></trkpt><trkpt lat="37.1257769" lon="-3.6815699"><ele>730.0</ele><time>2026-03-07T08:03:42.025Z</time></trkpt><trkpt lat="37.1256777" lon="-3.6816719"><ele>730.0</ele><time>2026-03-07T08:03:43.018Z</time></trkpt><trkpt lat="37.1255801" lon="-3.6817761"><ele>730.0</ele><time>2026-03-07T08:03:44.006Z</time></trkpt><trkpt lat="37.1254941" lon="-3.6818856"><ele>730.0</ele><time>2026-03-07T08:03:45.004Z</time></trkpt><trkpt lat="37.1254348" lon="-3.6820021"><ele>730.0</ele><time>2026-03-07T08:03:46.014Z</time></trkpt><trkpt lat="37.1253985" lon="-3.6821312"><ele>731.4</ele><time>2026-03-07T08:03:47.002Z</time></trkpt><trkpt lat="37.1253582" lon="-3.6822535"><ele>732.8</ele><time>2026-03-07T08:03:47.999Z</time></trkpt><trkpt lat="37.1252955" lon="-3.6823555"><ele>734.2</ele><time>2026-03-07T08:03:49.014Z</time></trkpt><trkpt lat="37.1252055" lon="-3.6824341"><ele>735.6</ele><time>2026-03-07T08:03:50.019Z</time></trkpt><trkpt lat="37.1250972" lon="-3.6825046"><ele>737.0</ele><time>2026-03-07T08:03:51.041Z</time></trkpt><trkpt lat="37.1249715" lon="-3.6825712"><ele>739.0</ele><time>2026-03-07T08:03:52.004Z</time></trkpt><trkpt lat="37.1248376" lon="-3.6826297"><ele>741.0</ele><time>2026-03-07T08:03:53.003Z</time></trkpt><trkpt lat="37.1247038" lon="-3.6826788"><ele>743.0</ele><time>2026-03-07T08:03:54.023Z</time></trkpt><trkpt lat="37.1245754" lon="-3.6827155"><ele>745.0</ele><time>2026-03-07T08:03:55.016Z</time></trkpt><trkpt lat="37.1244507" lon="-3.6827501"><ele>745.5</ele><time>2026-03-07T08:03:56.005Z</time></trkpt><trkpt lat="37.1243253" lon="-3.6827875"><ele>746.0</ele><time>2026-03-07T08:03:57.015Z</time></trkpt><trkpt lat="37.1242" lon="-3.6828294"><ele>746.5</ele><time>2026-03-07T08:03:58.02Z</time></trkpt><trkpt lat="37.1240783" lon="-3.6828771"><ele>747.0</ele><time>2026-03-07T08:03:59.004Z</time></trkpt><trkpt lat="37.1239655" lon="-3.682933"><ele>749.5</ele><time>2026-03-07T08:04:00.008Z</time></trkpt><trkpt lat="37.1238606" lon="-3.6830034"><ele>752.0</ele><time>2026-03-07T08:04:01.006Z</time></trkpt><trkpt lat="37.123758" lon="-3.6830897"><ele>754.5</ele><time>2026-03-07T08:04:02.007Z</time></trkpt><trkpt lat="37.1236533" lon="-3.6831793"><ele>757.0</ele><time>2026-03-07T08:04:03.004Z</time></trkpt><trkpt lat="37.1235469" lon="-3.6832653"><ele>757.0</ele><time>2026-03-07T08:04:04.011Z</time></trkpt><trkpt lat="37.1234408" lon="-3.6833448"><ele>757.0</ele><time>2026-03-07T08:04:05.006Z</time></trkpt><trkpt lat="37.1233398" lon="-3.6834135"><ele>757.0</ele><time>2026-03-07T08:04:06.009Z</time></trkpt><trkpt lat="37.1232411" lon="-3.6834703"><ele>757.0</ele><time>2026-03-07T08:04:07.01Z</time></trkpt><trkpt lat="37.1231398" lon="-3.6835289"><ele>758.6</ele><time>2026-03-07T08:04:08.006Z</time></trkpt><trkpt lat="37.123036" lon="-3.683584"><ele>760.2</ele><time>2026-03-07T08:04:09.011Z</time></trkpt><trkpt lat="37.122935" lon="-3.6836346"><ele>761.8</ele><time>2026-03-07T08:04:10.012Z</time></trkpt><trkpt lat="37.1228363" lon="-3.6836733"><ele>763.4</ele><time>2026-03-07T08:04:11.004Z</time></trkpt><trkpt lat="37.1227401" lon="-3.6836918"><ele>765.0</ele><time>2026-03-07T08:04:12.001Z</time></trkpt><trkpt lat="37.1226414" lon="-3.6836882"><ele>765.0</ele><time>2026-03-07T08:04:13.021Z</time></trkpt><trkpt lat="37.1225409" lon="-3.6836765"><ele>765.0</ele><time>2026-03-07T08:04:14.011Z</time></trkpt><trkpt lat="37.1224538" lon="-3.6836074"><ele>765.0</ele><time>2026-03-07T08:04:15.011Z</time></trkpt><trkpt lat="37.1223759" lon="-3.6835391"><ele>765.0</ele><time>2026-03-07T08:04:16.018Z</time></trkpt><trkpt lat="37.1223194" lon="-3.6834669"><ele>765.0</ele><time>2026-03-07T08:04:17.008Z</time></trkpt><trkpt lat="37.1222735" lon="-3.683385"><ele>766.6666666666666</ele><time>2026-03-07T08:04:18.006Z</time></trkpt><trkpt lat="37.1222393" lon="-3.6832958"><ele>768.3333333333333</ele><time>2026-03-07T08:04:19.006Z</time></trkpt><trkpt lat="37.1222061" lon="-3.6832156"><ele>770.0</ele><time>2026-03-07T08:04:20.012Z</time></trkpt><trkpt lat="37.1221577" lon="-3.6831641"><ele>771.6666666666666</ele><time>2026-03-07T08:04:21.004Z</time></trkpt><trkpt lat="37.1220466" lon="-3.6831318"><ele>773.3333333333333</ele><time>2026-03-07T08:04:23.013Z</time></trkpt><trkpt lat="37.1219536" lon="-3.6831701"><ele>775.0</ele><time>2026-03-07T08:04:25.008Z</time></trkpt><trkpt lat="37.121875" lon="-3.6832892"><ele>774.9999999999999</ele><time>2026-03-07T08:04:27.014Z</time></trkpt><trkpt lat="37.1218418" lon="-3.6833673"><ele>775.0</ele><time>2026-03-07T08:04:28.007Z</time></trkpt><trkpt lat="37.121811" lon="-3.6834607"><ele>775.0</ele><time>2026-03-07T08:04:29.012Z</time></trkpt><trkpt lat="37.1217747" lon="-3.6835648"><ele>775.0</ele><time>2026-03-07T08:04:30.012Z</time></trkpt><trkpt lat="37.1217351" lon="-3.6836815"><ele>774.9999999999999</ele><time>2026-03-07T08:04:31.013Z</time></trkpt><trkpt lat="37.1216951" lon="-3.6837985"><ele>775.0</ele><time>2026-03-07T08:04:32.005Z</time></trkpt><trkpt lat="37.1216509" lon="-3.6839122"><ele>775.4</ele><time>2026-03-07T08:04:33.02Z</time></trkpt><trkpt lat="37.1216069" lon="-3.684021"><ele>775.8</ele><time>2026-03-07T08:04:33.999Z</time></trkpt><trkpt lat="37.1215572" lon="-3.6841267"><ele>776.2</ele><time>2026-03-07T08:04:35.012Z</time></trkpt><trkpt lat="37.1215041" lon="-3.684227"><ele>776.6</ele><time>2026-03-07T08:04:36.007Z</time></trkpt><trkpt lat="37.1214496" lon="-3.6843202"><ele>777.0</ele><time>2026-03-07T08:04:36.998Z</time></trkpt><trkpt lat="37.1213852" lon="-3.6844048"><ele>778.4000000000001</ele><time>2026-03-07T08:04:38.004Z</time></trkpt><trkpt lat="37.1213056" lon="-3.6844734"><ele>779.8000000000001</ele><time>2026-03-07T08:04:39.012Z</time></trkpt><trkpt lat="37.1212142" lon="-3.6845337"><ele>781.2</ele><time>2026-03-07T08:04:40.007Z</time></trkpt><trkpt lat="37.1211147" lon="-3.6846059"><ele>782.6</ele><time>2026-03-07T08:04:41.02Z</time></trkpt><trkpt lat="37.1210151" lon="-3.6846937"><ele>784.0</ele><time>2026-03-07T08:04:42.007Z</time></trkpt><trkpt lat="37.1209204" lon="-3.6847869"><ele>784.0</ele><time>2026-03-07T08:04:42.999Z</time></trkpt><trkpt lat="37.1208357" lon="-3.6848797"><ele>784.0</ele><time>2026-03-07T08:04:44.017Z</time></trkpt><trkpt lat="37.1207605" lon="-3.6849654"><ele>784.0</ele><time>2026-03-07T08:04:45.016Z</time></trkpt><trkpt lat="37.120683" lon="-3.6850478"><ele>784.0</ele><time>2026-03-07T08:04:45.998Z</time></trkpt><trkpt lat="37.1205969" lon="-3.6851044"><ele>784.0</ele><time>2026-03-07T08:04:47.015Z</time></trkpt><trkpt lat="37.1205023" lon="-3.685156"><ele>785.75</ele><time>2026-03-07T08:04:48.021Z</time></trkpt><trkpt lat="37.1203974" lon="-3.6852015"><ele>787.5</ele><time>2026-03-07T08:04:49.03Z</time></trkpt><trkpt lat="37.1202887" lon="-3.6852565"><ele>789.25</ele><time>2026-03-07T08:04:50.011Z</time></trkpt><trkpt lat="37.1201768" lon="-3.6853163"><ele>791.0</ele><time>2026-03-07T08:04:51.029Z</time></trkpt><trkpt lat="37.1200621" lon="-3.6853871"><ele>791.25</ele><time>2026-03-07T08:04:52.015Z</time></trkpt><trkpt lat="37.1199495" lon="-3.6854643"><ele>791.5</ele><time>2026-03-07T08:04:53.017Z</time></trkpt><trkpt lat="37.1198392" lon="-3.6855412"><ele>791.75</ele><time>2026-03-07T08:04:54.02Z</time></trkpt><trkpt lat="37.1197328" lon="-3.6856171"><ele>792.0</ele><time>2026-03-07T08:04:55.011Z</time></trkpt><trkpt lat="37.1196242" lon="-3.6856802"><ele>793.75</ele><time>2026-03-07T08:04:56.01Z</time></trkpt><trkpt lat="37.1195131" lon="-3.6857253"><ele>795.5</ele><time>2026-03-07T08:04:57.011Z</time></trkpt><trkpt lat="37.1193939" lon="-3.6857413"><ele>797.25</ele><time>2026-03-07T08:04:58.014Z</time></trkpt><trkpt lat="37.1192696" lon="-3.6857479"><ele>799.0</ele><time>2026-03-07T08:04:59.013Z</time></trkpt><trkpt lat="37.1191464" lon="-3.6857425"><ele>800.75</ele><time>2026-03-07T08:05:00.047Z</time></trkpt><trkpt lat="37.1190176" lon="-3.685729"><ele>802.5</ele><time>2026-03-07T08:05:01.014Z</time></trkpt><trkpt lat="37.1188823" lon="-3.6857214"><ele>804.25</ele><time>2026-03-07T08:05:02.009Z</time></trkpt><trkpt lat="37.1187426" lon="-3.6856909"><ele>806.0</ele><time>2026-03-07T08:05:03.015Z</time></trkpt><trkpt lat="37.1186009" lon="-3.6856622"><ele>806.0</ele><time>2026-03-07T08:05:04.033Z</time></trkpt><trkpt lat="37.1184589" lon="-3.6856398"><ele>806.0</ele><time>2026-03-07T08:05:05.025Z</time></trkpt><trkpt lat="37.1183186" lon="-3.6856155"><ele>806.0</ele><time>2026-03-07T08:05:06.02Z</time></trkpt><trkpt lat="37.1181797" lon="-3.6855904"><ele>806.0</ele><time>2026-03-07T08:05:07.015Z</time></trkpt><trkpt lat="37.1180432" lon="-3.6855703"><ele>807.25</ele><time>2026-03-07T08:05:08.013Z</time></trkpt><trkpt lat="37.1179125" lon="-3.6855439"><ele>808.5</ele><time>2026-03-07T08:05:09.005Z</time></trkpt><trkpt lat="37.1177859" lon="-3.6855188"><ele>809.75</ele><time>2026-03-07T08:05:10.016Z</time></trkpt><trkpt lat="37.1176603" lon="-3.6854951"><ele>811.0</ele><time>2026-03-07T08:05:11.008Z</time></trkpt><trkpt lat="37.1175327" lon="-3.6854666"><ele>811.0</ele><time>2026-03-07T08:05:11.998Z</time></trkpt><trkpt lat="37.1174025" lon="-3.6854441"><ele>811.0</ele><time>2026-03-07T08:05:13.008Z</time></trkpt><trkpt lat="37.1172698" lon="-3.6854276"><ele>811.0</ele><time>2026-03-07T08:05:14.018Z</time></trkpt><trkpt lat="37.117136" lon="-3.6854156"><ele>811.0</ele><time>2026-03-07T08:05:15.005Z</time></trkpt><trkpt lat="37.1170054" lon="-3.6854058"><ele>811.5</ele><time>2026-03-07T08:05:16.014Z</time></trkpt><trkpt lat="37.1168791" lon="-3.6854035"><ele>812.0</ele><time>2026-03-07T08:05:17.016Z</time></trkpt><trkpt lat="37.116758" lon="-3.6854041"><ele>812.5</ele><time>2026-03-07T08:05:18.018Z</time></trkpt><trkpt lat="37.1166463" lon="-3.6854124"><ele>813.0</ele><time>2026-03-07T08:05:19.033Z</time></trkpt><trkpt lat="37.1165383" lon="-3.6854329"><ele>813.0</ele><time>2026-03-07T08:05:20.005Z</time></trkpt><trkpt lat="37.1164279" lon="-3.685475"><ele>813.0</ele><time>2026-03-07T08:05:21.023Z</time></trkpt><trkpt lat="37.1163217" lon="-3.6855489"><ele>813.0</ele><time>2026-03-07T08:05:22.012Z</time></trkpt><trkpt lat="37.1162192" lon="-3.6856419"><ele>813.0</ele><time>2026-03-07T08:05:23.015Z</time></trkpt><trkpt lat="37.1161209" lon="-3.6857463"><ele>813.0</ele><time>2026-03-07T08:05:24.013Z</time></trkpt><trkpt lat="37.1160339" lon="-3.6858627"><ele>813.0</ele><time>2026-03-07T08:05:25.005Z</time></trkpt><trkpt lat="37.1159544" lon="-3.6859773"><ele>813.0</ele><time>2026-03-07T08:05:26.034Z</time></trkpt><trkpt lat="37.1158905" lon="-3.6861103"><ele>813.0</ele><time>2026-03-07T08:05:27.038Z</time></trkpt><trkpt lat="37.1158288" lon="-3.6862447"><ele>814.25</ele><time>2026-03-07T08:05:28.027Z</time></trkpt><trkpt lat="37.1157684" lon="-3.6863781"><ele>815.5</ele><time>2026-03-07T08:05:29.023Z</time></trkpt><trkpt lat="37.1156936" lon="-3.6864973"><ele>816.75</ele><time>2026-03-07T08:05:30.002Z</time></trkpt><trkpt lat="37.1156092" lon="-3.6866231"><ele>818.0</ele><time>2026-03-07T08:05:30.995Z</time></trkpt><trkpt lat="37.1155123" lon="-3.6867314"><ele>818.0</ele><time>2026-03-07T08:05:32.008Z</time></trkpt><trkpt lat="37.1154152" lon="-3.6868373"><ele>818.0</ele><time>2026-03-07T08:05:33.011Z</time></trkpt><trkpt lat="37.115313" lon="-3.686927"><ele>818.0</ele><time>2026-03-07T08:05:34.011Z</time></trkpt><trkpt lat="37.1152054" lon="-3.6870217"><ele>818.0</ele><time>2026-03-07T08:05:35.023Z</time></trkpt><trkpt lat="37.1150991" lon="-3.6871119"><ele>821.5</ele><time>2026-03-07T08:05:36.017Z</time></trkpt><trkpt lat="37.1149963" lon="-3.6872068"><ele>825.0</ele><time>2026-03-07T08:05:37.013Z</time></trkpt><trkpt lat="37.1148931" lon="-3.687301"><ele>828.5</ele><time>2026-03-07T08:05:38.029Z</time></trkpt><trkpt lat="37.1147879" lon="-3.687399"><ele>832.0</ele><time>2026-03-07T08:05:39.006Z</time></trkpt><trkpt lat="37.1146786" lon="-3.6874937"><ele>832.25</ele><time>2026-03-07T08:05:40.011Z</time></trkpt><trkpt lat="37.1145638" lon="-3.6875825"><ele>832.5</ele><time>2026-03-07T08:05:41.004Z</time></trkpt><trkpt lat="37.1144446" lon="-3.687668"><ele>832.75</ele><time>2026-03-07T08:05:42.012Z</time></trkpt><trkpt lat="37.1143227" lon="-3.687741"><ele>833.0</ele><time>2026-03-07T08:05:43.018Z</time></trkpt><trkpt lat="37.1141981" lon="-3.6878097"><ele>834.0</ele><time>2026-03-07T08:05:44.019Z</time></trkpt><trkpt lat="37.1140793" lon="-3.6878738"><ele>835.0</ele><time>2026-03-07T08:05:45.015Z</time></trkpt><trkpt lat="37.113966" lon="-3.6879374"><ele>836.0</ele><time>2026-03-07T08:05:46.028Z</time></trkpt><trkpt lat="37.1138557" lon="-3.6879893"><ele>837.0</ele><time>2026-03-07T08:05:47.016Z</time></trkpt><trkpt lat="37.1137437" lon="-3.688042"><ele>838.75</ele><time>2026-03-07T08:05:48.013Z</time></trkpt><trkpt lat="37.1136254" lon="-3.6880705"><ele>840.5</ele><time>2026-03-07T08:05:49.022Z</time></trkpt><trkpt lat="37.1135006" lon="-3.6880851"><ele>842.25</ele><time>2026-03-07T08:05:50.01Z</time></trkpt><trkpt lat="37.1133705" lon="-3.6880911"><ele>844.0</ele><time>2026-03-07T08:05:51.009Z</time></trkpt><trkpt lat="37.1132417" lon="-3.6880969"><ele>844.2</ele><time>2026-03-07T08:05:52.018Z</time></trkpt><trkpt lat="37.1131163" lon="-3.6880965"><ele>844.4000000000001</ele><time>2026-03-07T08:05:53.006Z</time></trkpt><trkpt lat="37.1129996" lon="-3.6881056"><ele>844.6</ele><time>2026-03-07T08:05:54.007Z</time></trkpt><trkpt lat="37.1129115" lon="-3.6881234"><ele>844.8</ele><time>2026-03-07T08:05:55.003Z</time></trkpt><trkpt lat="37.1128263" lon="-3.6881391"><ele>845.0</ele><time>2026-03-07T08:05:56.007Z</time></trkpt><trkpt lat="37.1127423" lon="-3.6881606"><ele>845.0000000000001</ele><time>2026-03-07T08:05:57.025Z</time></trkpt><trkpt lat="37.1126626" lon="-3.6881928"><ele>845.0</ele><time>2026-03-07T08:05:58.009Z</time></trkpt><trkpt lat="37.1125884" lon="-3.6882427"><ele>845.0</ele><time>2026-03-07T08:05:59.001Z</time></trkpt><trkpt lat="37.1125065" lon="-3.6882879"><ele>845.0</ele><time>2026-03-07T08:06:00.029Z</time></trkpt><trkpt lat="37.1124167" lon="-3.6883215"><ele>845.0000000000001</ele><time>2026-03-07T08:06:01.021Z</time></trkpt><trkpt lat="37.1123233" lon="-3.6883403"><ele>845.0</ele><time>2026-03-07T08:06:02.024Z</time></trkpt><trkpt lat="37.1122314" lon="-3.6883516"><ele>845.2</ele><time>2026-03-07T08:06:03.013Z</time></trkpt><trkpt lat="37.1121368" lon="-3.6883552"><ele>845.4</ele><time>2026-03-07T08:06:04.012Z</time></trkpt><trkpt lat="37.1120354" lon="-3.6883464"><ele>845.5999999999999</ele><time>2026-03-07T08:06:05.005Z</time></trkpt><trkpt lat="37.1119289" lon="-3.6883254"><ele>845.8</ele><time>2026-03-07T08:06:06.003Z</time></trkpt><trkpt lat="37.111816" lon="-3.6882864"><ele>846.0</ele><time>2026-03-07T08:06:07.012Z</time></trkpt><trkpt lat="37.1116984" lon="-3.6882337"><ele>846.0</ele><time>2026-03-07T08:06:08.011Z</time></trkpt><trkpt lat="37.1115801" lon="-3.6881767"><ele>846.0</ele><time>2026-03-07T08:06:09.034Z</time></trkpt><trkpt lat="37.1114629" lon="-3.6881132"><ele>846.0</ele><time>2026-03-07T08:06:10.023Z</time></trkpt><trkpt lat="37.1113442" lon="-3.6880631"><ele>846.0</ele><time>2026-03-07T08:06:11.009Z</time></trkpt><trkpt lat="37.1112277" lon="-3.688016"><ele>846.5</ele><time>2026-03-07T08:06:12.007Z</time></trkpt><trkpt lat="37.1111072" lon="-3.6879807"><ele>847.0</ele><time>2026-03-07T08:06:13.002Z</time></trkpt><trkpt lat="37.1109831" lon="-3.6879516"><ele>847.5</ele><time>2026-03-07T08:06:14.037Z</time></trkpt><trkpt lat="37.1108559" lon="-3.6879181"><ele>848.0</ele><time>2026-03-07T08:06:15.016Z</time></trkpt><trkpt lat="37.1107314" lon="-3.6878828"><ele>848.8</ele><time>2026-03-07T08:06:16.004Z</time></trkpt><trkpt lat="37.1106156" lon="-3.6878479"><ele>849.5999999999999</ele><time>2026-03-07T08:06:17.005Z</time></trkpt><trkpt lat="37.1105076" lon="-3.6878175"><ele>850.4000000000001</ele><time>2026-03-07T08:06:18.014Z</time></trkpt><trkpt lat="37.1103995" lon="-3.6878011"><ele>851.2</ele><time>2026-03-07T08:06:19.004Z</time></trkpt><trkpt lat="37.1102913" lon="-3.6877831"><ele>852.0</ele><time>2026-03-07T08:06:20.015Z</time></trkpt><trkpt lat="37.1101827" lon="-3.6877645"><ele>852.0</ele><time>2026-03-07T08:06:21.014Z</time></trkpt><trkpt lat="37.1100856" lon="-3.687756"><ele>852.0</ele><time>2026-03-07T08:06:22.011Z</time></trkpt><trkpt lat="37.1099997" lon="-3.687766"><ele>852.0</ele><time>2026-03-07T08:06:23.009Z</time></trkpt><trkpt lat="37.1099123" lon="-3.6877867"><ele>852.0</ele><time>2026-03-07T08:06:24.006Z</time></trkpt><trkpt lat="37.1098142" lon="-3.6878036"><ele>852.0</ele><time>2026-03-07T08:06:25.018Z</time></trkpt><trkpt lat="37.109723" lon="-3.6878441"><ele>853.0</ele><time>2026-03-07T08:06:26.004Z</time></trkpt><trkpt lat="37.1096446" lon="-3.6879099"><ele>854.0</ele><time>2026-03-07T08:06:27.021Z</time></trkpt><trkpt lat="37.1095719" lon="-3.6879815"><ele>855.0</ele><time>2026-03-07T08:06:28.004Z</time></trkpt><trkpt lat="37.1095134" lon="-3.6880622"><ele>856.0</ele><time>2026-03-07T08:06:29.02Z</time></trkpt><trkpt lat="37.1094751" lon="-3.688147"><ele>857.0</ele><time>2026-03-07T08:06:30.009Z</time></trkpt><trkpt lat="37.1094396" lon="-3.6882198"><ele>858.0</ele><time>2026-03-07T08:06:31Z</time></trkpt><trkpt lat="37.1094008" lon="-3.6882832"><ele>858.0</ele><time>2026-03-07T08:06:32.002Z</time></trkpt><trkpt lat="37.1093078" lon="-3.6883694"><ele>858.0</ele><time>2026-03-07T08:06:34.023Z</time></trkpt><trkpt lat="37.1092412" lon="-3.6884296"><ele>858.0</ele><time>2026-03-07T08:06:36.007Z</time></trkpt><trkpt lat="37.1091947" lon="-3.6885007"><ele>858.0</ele><time>2026-03-07T08:06:38.017Z</time></trkpt><trkpt lat="37.1091861" lon="-3.6885873"><ele>858.0</ele><time>2026-03-07T08:06:40.01Z</time></trkpt><trkpt lat="37.1092194" lon="-3.6887072"><ele>858.0</ele><time>2026-03-07T08:06:42.027Z</time></trkpt><trkpt lat="37.1092619" lon="-3.6887808"><ele>857.3333333333334</ele><time>2026-03-07T08:06:43.027Z</time></trkpt><trkpt lat="37.1093164" lon="-3.6888614"><ele>856.6666666666667</ele><time>2026-03-07T08:06:44.009Z</time></trkpt><trkpt lat="37.1093692" lon="-3.6889505"><ele>856.0</ele><time>2026-03-07T08:06:45.008Z</time></trkpt><trkpt lat="37.1094233" lon="-3.6890448"><ele>855.3333333333334</ele><time>2026-03-07T08:06:46.012Z</time></trkpt><trkpt lat="37.1094685" lon="-3.6891322"><ele>854.6666666666667</ele><time>2026-03-07T08:06:47.013Z</time></trkpt><trkpt lat="37.109514" lon="-3.6892357"><ele>854.0</ele><time>2026-03-07T08:06:48.014Z</time></trkpt><trkpt lat="37.1095546" lon="-3.6893539"><ele>853.8000000000001</ele><time>2026-03-07T08:06:49.004Z</time></trkpt><trkpt lat="37.1095885" lon="-3.6894757"><ele>853.6000000000001</ele><time>2026-03-07T08:06:50.013Z</time></trkpt><trkpt lat="37.1096126" lon="-3.6895979"><ele>853.4</ele><time>2026-03-07T08:06:51.026Z</time></trkpt><trkpt lat="37.1096324" lon="-3.68971"><ele>853.2</ele><time>2026-03-07T08:06:52.008Z</time></trkpt><trkpt lat="37.1096527" lon="-3.6898192"><ele>853.0</ele><time>2026-03-07T08:06:53.012Z</time></trkpt><trkpt lat="37.1096755" lon="-3.6899312"><ele>852.9999999999999</ele><time>2026-03-07T08:06:54.009Z</time></trkpt><trkpt lat="37.1097061" lon="-3.6900481"><ele>853.0</ele><time>2026-03-07T08:06:55.015Z</time></trkpt><trkpt lat="37.1097445" lon="-3.690165"><ele>853.0</ele><time>2026-03-07T08:06:56.014Z</time></trkpt><trkpt lat="37.1097798" lon="-3.6902763"><ele>853.0</ele><time>2026-03-07T08:06:57.019Z</time></trkpt><trkpt lat="37.1098064" lon="-3.6903712"><ele>852.9999999999999</ele><time>2026-03-07T08:06:58.013Z</time></trkpt><trkpt lat="37.1098307" lon="-3.6904464"><ele>853.0</ele><time>2026-03-07T08:06:59.001Z</time></trkpt><trkpt lat="37.1098976" lon="-3.6905802"><ele>855.0</ele><time>2026-03-07T08:07:01.013Z</time></trkpt><trkpt lat="37.1099388" lon="-3.6906434"><ele>857.0</ele><time>2026-03-07T08:07:02.009Z</time></trkpt><trkpt lat="37.110024" lon="-3.6907469"><ele>859.0</ele><time>2026-03-07T08:07:04.014Z</time></trkpt><trkpt lat="37.1100979" lon="-3.690822"><ele>861.0</ele><time>2026-03-07T08:07:06.014Z</time></trkpt><trkpt lat="37.1101843" lon="-3.690886"><ele>863.0</ele><time>2026-03-07T08:08:45.997Z</time></trkpt><trkpt lat="37.1102675" lon="-3.6910234"><ele>861.2</ele><time>2026-03-07T08:08:48.014Z</time></trkpt><trkpt lat="37.1103135" lon="-3.6911039"><ele>859.4</ele><time>2026-03-07T08:08:49.01Z</time></trkpt><trkpt lat="37.1103646" lon="-3.6911887"><ele>857.6000000000001</ele><time>2026-03-07T08:08:50.016Z</time></trkpt><trkpt lat="37.1104211" lon="-3.6912914"><ele>855.8000000000001</ele><time>2026-03-07T08:08:51.01Z</time></trkpt><trkpt lat="37.1104837" lon="-3.6913966"><ele>854.0</ele><time>2026-03-07T08:08:52.003Z</time></trkpt><trkpt lat="37.1105464" lon="-3.6914919"><ele>854.0</ele><time>2026-03-07T08:08:53Z</time></trkpt><trkpt lat="37.110609" lon="-3.6915836"><ele>854.0000000000001</ele><time>2026-03-07T08:08:54.016Z</time></trkpt><trkpt lat="37.1106716" lon="-3.6916764"><ele>854.0000000000001</ele><time>2026-03-07T08:08:55.005Z</time></trkpt><trkpt lat="37.1107246" lon="-3.6917713"><ele>854.0</ele><time>2026-03-07T08:08:56.005Z</time></trkpt><trkpt lat="37.1107713" lon="-3.6918667"><ele>854.0</ele><time>2026-03-07T08:08:56.993Z</time></trkpt><trkpt lat="37.1108116" lon="-3.6919626"><ele>855.4000000000001</ele><time>2026-03-07T08:08:58Z</time></trkpt><trkpt lat="37.1108496" lon="-3.6920675"><ele>856.8000000000001</ele><time>2026-03-07T08:08:59.005Z</time></trkpt><trkpt lat="37.1108931" lon="-3.692179"><ele>858.1999999999999</ele><time>2026-03-07T08:09:00.032Z</time></trkpt><trkpt lat="37.1109504" lon="-3.692281"><ele>859.5999999999999</ele><time>2026-03-07T08:09:01.005Z</time></trkpt><trkpt lat="37.1110023" lon="-3.6923862"><ele>861.0</ele><time>2026-03-07T08:09:02.013Z</time></trkpt><trkpt lat="37.1110526" lon="-3.692487"><ele>861.0</ele><time>2026-03-07T08:09:03.008Z</time></trkpt><trkpt lat="37.1110978" lon="-3.692588"><ele>860.9999999999999</ele><time>2026-03-07T08:09:04.014Z</time></trkpt><trkpt lat="37.1111423" lon="-3.6926918"><ele>860.9999999999999</ele><time>2026-03-07T08:09:05.018Z</time></trkpt><trkpt lat="37.1111854" lon="-3.6927989"><ele>861.0</ele><time>2026-03-07T08:09:06.027Z</time></trkpt><trkpt lat="37.1112255" lon="-3.6929127"><ele>861.0</ele><time>2026-03-07T08:09:06.995Z</time></trkpt><trkpt lat="37.111262" lon="-3.6930323"><ele>859.1999999999999</ele><time>2026-03-07T08:09:08.015Z</time></trkpt><trkpt lat="37.1112943" lon="-3.6931511"><ele>857.3999999999999</ele><time>2026-03-07T08:09:09.026Z</time></trkpt><trkpt lat="37.1113281" lon="-3.6932618"><ele>855.6</ele><time>2026-03-07T08:09:10.01Z</time></trkpt><trkpt lat="37.1113737" lon="-3.693363"><ele>853.8</ele><time>2026-03-07T08:09:10.999Z</time></trkpt><trkpt lat="37.1114328" lon="-3.6934612"><ele>852.0</ele><time>2026-03-07T08:09:12.003Z</time></trkpt><trkpt lat="37.1114971" lon="-3.6935692"><ele>853.0</ele><time>2026-03-07T08:09:13.014Z</time></trkpt><trkpt lat="37.1115563" lon="-3.6936951"><ele>854.0</ele><time>2026-03-07T08:09:14.014Z</time></trkpt><trkpt lat="37.1116001" lon="-3.6938266"><ele>855.0</ele><time>2026-03-07T08:09:14.996Z</time></trkpt><trkpt lat="37.1116275" lon="-3.6939595"><ele>856.0</ele><time>2026-03-07T08:09:16.014Z</time></trkpt><trkpt lat="37.1116458" lon="-3.6940873"><ele>857.0</ele><time>2026-03-07T08:09:17.009Z</time></trkpt><trkpt lat="37.1116623" lon="-3.6942038"><ele>857.0</ele><time>2026-03-07T08:09:18.021Z</time></trkpt><trkpt lat="37.1116907" lon="-3.6943115"><ele>857.0</ele><time>2026-03-07T08:09:18.998Z</time></trkpt><trkpt lat="37.1117253" lon="-3.69442"><ele>857.0</ele><time>2026-03-07T08:09:20.024Z</time></trkpt><trkpt lat="37.1117628" lon="-3.694528"><ele>857.0</ele><time>2026-03-07T08:09:21.02Z</time></trkpt><trkpt lat="37.1117988" lon="-3.694638"><ele>857.0</ele><time>2026-03-07T08:09:22.011Z</time></trkpt><trkpt lat="37.1118277" lon="-3.6947463"><ele>856.8333333333334</ele><time>2026-03-07T08:09:23.007Z</time></trkpt><trkpt lat="37.1118504" lon="-3.6948538"><ele>856.6666666666667</ele><time>2026-03-07T08:09:24.003Z</time></trkpt><trkpt lat="37.1118717" lon="-3.6949568"><ele>856.5</ele><time>2026-03-07T08:09:25.008Z</time></trkpt><trkpt lat="37.1119004" lon="-3.695051"><ele>856.3333333333333</ele><time>2026-03-07T08:09:26.009Z</time></trkpt><trkpt lat="37.1119372" lon="-3.6951497"><ele>856.1666666666666</ele><time>2026-03-07T08:09:27.006Z</time></trkpt><trkpt lat="37.1119856" lon="-3.6952585"><ele>856.0</ele><time>2026-03-07T08:09:28.007Z</time></trkpt><trkpt lat="37.1120385" lon="-3.6953779"><ele>854.0</ele><time>2026-03-07T08:09:29.012Z</time></trkpt><trkpt lat="37.1120907" lon="-3.695502"><ele>852.0</ele><time>2026-03-07T08:09:30.008Z</time></trkpt><trkpt lat="37.1121379" lon="-3.6956304"><ele>850.0</ele><time>2026-03-07T08:09:31.005Z</time></trkpt><trkpt lat="37.1121783" lon="-3.6957664"><ele>848.0</ele><time>2026-03-07T08:09:31.999Z</time></trkpt><trkpt lat="37.1122141" lon="-3.6958986"><ele>848.0</ele><time>2026-03-07T08:09:33.003Z</time></trkpt><trkpt lat="37.1122409" lon="-3.6960295"><ele>848.0</ele><time>2026-03-07T08:09:34.007Z</time></trkpt><trkpt lat="37.1122621" lon="-3.6961582"><ele>848.0</ele><time>2026-03-07T08:09:35.006Z</time></trkpt><trkpt lat="37.1122688" lon="-3.6962812"><ele>848.0</ele><time>2026-03-07T08:09:36.007Z</time></trkpt><trkpt lat="37.1122663" lon="-3.6963881"><ele>848.0</ele><time>2026-03-07T08:09:37.012Z</time></trkpt><trkpt lat="37.1122658" lon="-3.6964857"><ele>847.5000000000001</ele><time>2026-03-07T08:09:38.024Z</time></trkpt><trkpt lat="37.1122746" lon="-3.6965766"><ele>847.0</ele><time>2026-03-07T08:09:39.017Z</time></trkpt><trkpt lat="37.1122887" lon="-3.6966562"><ele>846.5</ele><time>2026-03-07T08:09:40.019Z</time></trkpt><trkpt lat="37.1123552" lon="-3.696804"><ele>846.0</ele><time>2026-03-07T08:09:42.015Z</time></trkpt><trkpt lat="37.1123995" lon="-3.6968942"><ele>845.5000000000001</ele><time>2026-03-07T08:09:43.004Z</time></trkpt><trkpt lat="37.1124519" lon="-3.6969841"><ele>845.0</ele><time>2026-03-07T08:09:44.011Z</time></trkpt><trkpt lat="37.1124947" lon="-3.6970844"><ele>847.2</ele><time>2026-03-07T08:09:45.006Z</time></trkpt><trkpt lat="37.1125246" lon="-3.6971977"><ele>849.4</ele><time>2026-03-07T08:09:46.012Z</time></trkpt><trkpt lat="37.1125278" lon="-3.6973242"><ele>851.5999999999999</ele><time>2026-03-07T08:09:47.008Z</time></trkpt><trkpt lat="37.1125189" lon="-3.6974563"><ele>853.8</ele><time>2026-03-07T08:09:48.001Z</time></trkpt><trkpt lat="37.112513" lon="-3.6975767"><ele>856.0</ele><time>2026-03-07T08:09:49.002Z</time></trkpt><trkpt lat="37.1125225" lon="-3.6976889"><ele>855.0</ele><time>2026-03-07T08:09:50.001Z</time></trkpt><trkpt lat="37.1125514" lon="-3.6977967"><ele>853.9999999999999</ele><time>2026-03-07T08:09:51.016Z</time></trkpt><trkpt lat="37.1125907" lon="-3.6979081"><ele>853.0</ele><time>2026-03-07T08:09:52.014Z</time></trkpt><trkpt lat="37.1126458" lon="-3.6980194"><ele>852.0</ele><time>2026-03-07T08:09:53.003Z</time></trkpt><trkpt lat="37.1127019" lon="-3.6981314"><ele>851.0</ele><time>2026-03-07T08:09:54.002Z</time></trkpt><trkpt lat="37.1127562" lon="-3.6982401"><ele>851.0</ele><time>2026-03-07T08:09:54.999Z</time></trkpt><trkpt lat="37.1128033" lon="-3.6983468"><ele>851.0</ele><time>2026-03-07T08:09:55.997Z</time></trkpt><trkpt lat="37.1128447" lon="-3.6984677"><ele>851.0</ele><time>2026-03-07T08:09:57.013Z</time></trkpt><trkpt lat="37.1128801" lon="-3.6985985"><ele>851.0</ele><time>2026-03-07T08:09:58.015Z</time></trkpt><trkpt lat="37.1129115" lon="-3.6987347"><ele>851.0</ele><time>2026-03-07T08:09:59.002Z</time></trkpt><trkpt lat="37.1129395" lon="-3.6988737"><ele>850.5999999999999</ele><time>2026-03-07T08:10:00.006Z</time></trkpt><trkpt lat="37.1129577" lon="-3.6990115"><ele>850.2</ele><time>2026-03-07T08:10:01.016Z</time></trkpt><trkpt lat="37.1129705" lon="-3.6991432"><ele>849.8</ele><time>2026-03-07T08:10:02.017Z</time></trkpt><trkpt lat="37.1129942" lon="-3.699267"><ele>849.4000000000001</ele><time>2026-03-07T08:10:03.004Z</time></trkpt><trkpt lat="37.1130209" lon="-3.6993947"><ele>849.0</ele><time>2026-03-07T08:10:04.02Z</time></trkpt><trkpt lat="37.1130591" lon="-3.6995216"><ele>847.75</ele><time>2026-03-07T08:10:05.002Z</time></trkpt><trkpt lat="37.1130973" lon="-3.6996542"><ele>846.5</ele><time>2026-03-07T08:10:06.008Z</time></trkpt><trkpt lat="37.1131244" lon="-3.6997939"><ele>845.25</ele><time>2026-03-07T08:10:07.002Z</time></trkpt><trkpt lat="37.1131415" lon="-3.6999348"><ele>844.0</ele><time>2026-03-07T08:10:08.006Z</time></trkpt><trkpt lat="37.1131504" lon="-3.7000774"><ele>844.0</ele><time>2026-03-07T08:10:09.004Z</time></trkpt><trkpt lat="37.1131545" lon="-3.7002188"><ele>844.0</ele><time>2026-03-07T08:10:10.013Z</time></trkpt><trkpt lat="37.1131564" lon="-3.7003614"><ele>844.0</ele><time>2026-03-07T08:10:11.014Z</time></trkpt><trkpt lat="37.113157" lon="-3.7004982"><ele>844.0</ele><time>2026-03-07T08:10:12.006Z</time></trkpt><trkpt lat="37.1131583" lon="-3.7006187"><ele>844.0</ele><time>2026-03-07T08:10:13.004Z</time></trkpt><trkpt lat="37.1131529" lon="-3.7007306"><ele>844.3333333333333</ele><time>2026-03-07T08:10:14.007Z</time></trkpt><trkpt lat="37.113148" lon="-3.7008377"><ele>844.6666666666666</ele><time>2026-03-07T08:10:15.009Z</time></trkpt><trkpt lat="37.1131351" lon="-3.7009399"><ele>845.0</ele><time>2026-03-07T08:10:16.014Z</time></trkpt><trkpt lat="37.1131253" lon="-3.701037"><ele>845.3333333333333</ele><time>2026-03-07T08:10:16.998Z</time></trkpt><trkpt lat="37.1131141" lon="-3.7011307"><ele>845.6666666666666</ele><time>2026-03-07T08:10:18.009Z</time></trkpt><trkpt lat="37.1131028" lon="-3.7012317"><ele>846.0</ele><time>2026-03-07T08:10:19.012Z</time></trkpt><trkpt lat="37.1130966" lon="-3.7013384"><ele>846.0</ele><time>2026-03-07T08:10:20.003Z</time></trkpt><trkpt lat="37.1130919" lon="-3.7014424"><ele>846.0</ele><time>2026-03-07T08:10:21.012Z</time></trkpt><trkpt lat="37.1130923" lon="-3.7015448"><ele>846.0</ele><time>2026-03-07T08:10:22.004Z</time></trkpt><trkpt lat="37.1130927" lon="-3.7016482"><ele>846.0</ele><time>2026-03-07T08:10:23Z</time></trkpt><trkpt lat="37.1130957" lon="-3.7017603"><ele>846.0</ele><time>2026-03-07T08:10:24.016Z</time></trkpt><trkpt lat="37.1130884" lon="-3.7018834"><ele>846.0</ele><time>2026-03-07T08:10:25.017Z</time></trkpt><trkpt lat="37.1130716" lon="-3.7020032"><ele>848.5999999999999</ele><time>2026-03-07T08:10:26Z</time></trkpt><trkpt lat="37.1130437" lon="-3.7021066"><ele>851.2</ele><time>2026-03-07T08:10:27.02Z</time></trkpt><trkpt lat="37.112985" lon="-3.7021989"><ele>853.8000000000001</ele><time>2026-03-07T08:10:28.013Z</time></trkpt><trkpt lat="37.1129101" lon="-3.7022685"><ele>856.4000000000001</ele><time>2026-03-07T08:10:29.01Z</time></trkpt><trkpt lat="37.1128315" lon="-3.7023223"><ele>859.0</ele><time>2026-03-07T08:10:29.996Z</time></trkpt><trkpt lat="37.1127441" lon="-3.7023467"><ele>858.9999999999999</ele><time>2026-03-07T08:10:31.012Z</time></trkpt><trkpt lat="37.1126577" lon="-3.70235"><ele>859.0</ele><time>2026-03-07T08:10:32.006Z</time></trkpt><trkpt lat="37.112582" lon="-3.7023488"><ele>859.0</ele><time>2026-03-07T08:10:33.006Z</time></trkpt><trkpt lat="37.1125073" lon="-3.702351"><ele>859.0</ele><time>2026-03-07T08:10:34.018Z</time></trkpt><trkpt lat="37.1124296" lon="-3.7023845"><ele>858.9999999999999</ele><time>2026-03-07T08:10:35.011Z</time></trkpt><trkpt lat="37.1123537" lon="-3.7024208"><ele>859.0</ele><time>2026-03-07T08:10:36.005Z</time></trkpt><trkpt lat="37.1122767" lon="-3.7024572"><ele>858.6666666666666</ele><time>2026-03-07T08:10:37.006Z</time></trkpt><trkpt lat="37.1122007" lon="-3.7025041"><ele>858.3333333333333</ele><time>2026-03-07T08:10:38.005Z</time></trkpt><trkpt lat="37.1121372" lon="-3.7025795"><ele>858.0</ele><time>2026-03-07T08:10:39.006Z</time></trkpt><trkpt lat="37.1120806" lon="-3.7026702"><ele>857.6666666666667</ele><time>2026-03-07T08:10:40.004Z</time></trkpt><trkpt lat="37.1120209" lon="-3.702748"><ele>857.3333333333334</ele><time>2026-03-07T08:10:41.007Z</time></trkpt><trkpt lat="37.1119705" lon="-3.7028313"><ele>857.0</ele><time>2026-03-07T08:10:42.013Z</time></trkpt><trkpt lat="37.111912" lon="-3.7029048"><ele>857.0000000000001</ele><time>2026-03-07T08:10:43.01Z</time></trkpt><trkpt lat="37.1118469" lon="-3.7029663"><ele>857.0</ele><time>2026-03-07T08:10:44.013Z</time></trkpt><trkpt lat="37.1117791" lon="-3.7030179"><ele>857.0</ele><time>2026-03-07T08:10:45.014Z</time></trkpt><trkpt lat="37.1117079" lon="-3.7030532"><ele>857.0</ele><time>2026-03-07T08:10:46.011Z</time></trkpt><trkpt lat="37.1116432" lon="-3.7030835"><ele>857.0000000000001</ele><time>2026-03-07T08:10:47Z</time></trkpt><trkpt lat="37.1115564" lon="-3.7031641"><ele>857.0</ele><time>2026-03-07T08:10:49.002Z</time></trkpt><trkpt lat="37.1115363" lon="-3.7032931"><ele>857.0</ele><time>2026-03-07T08:10:51.01Z</time></trkpt><trkpt lat="37.111587" lon="-3.7034391"><ele>857.0</ele><time>2026-03-07T08:10:53.002Z</time></trkpt><trkpt lat="37.1116338" lon="-3.7035216"><ele>857.0</ele><time>2026-03-07T08:10:54.012Z</time></trkpt><trkpt lat="37.1116934" lon="-3.7036172"><ele>857.0</ele><time>2026-03-07T08:10:55.005Z</time></trkpt><trkpt lat="37.1117457" lon="-3.7037162"><ele>857.0</ele><time>2026-03-07T08:10:56.017Z</time></trkpt><trkpt lat="37.1117797" lon="-3.7038149"><ele>856.0000000000001</ele><time>2026-03-07T08:10:57.002Z</time></trkpt><trkpt lat="37.1118003" lon="-3.7039128"><ele>855.0</ele><time>2026-03-07T08:10:58.005Z</time></trkpt><trkpt lat="37.1118185" lon="-3.7040066"><ele>854.0</ele><time>2026-03-07T08:10:59Z</time></trkpt><trkpt lat="37.111844" lon="-3.7040979"><ele>853.0</ele><time>2026-03-07T08:11:00.001Z</time></trkpt><trkpt lat="37.1118754" lon="-3.7041738"><ele>852.0000000000001</ele><time>2026-03-07T08:11:01.004Z</time></trkpt><trkpt lat="37.1119421" lon="-3.7042971"><ele>851.0</ele><time>2026-03-07T08:11:03.001Z</time></trkpt><trkpt lat="37.1120115" lon="-3.7044144"><ele>850.5000000000001</ele><time>2026-03-07T08:11:05.014Z</time></trkpt><trkpt lat="37.1120596" lon="-3.7045007"><ele>850.0</ele><time>2026-03-07T08:11:07.001Z</time></trkpt><trkpt lat="37.1121111" lon="-3.704587"><ele>849.5</ele><time>2026-03-07T08:11:10.013Z</time></trkpt><trkpt lat="37.1121492" lon="-3.7046904"><ele>849.0</ele><time>2026-03-07T08:11:13.022Z</time></trkpt><trkpt lat="37.112139" lon="-3.7047741"><ele>848.5000000000001</ele><time>2026-03-07T08:11:15.03Z</time></trkpt><trkpt lat="37.1120868" lon="-3.7048751"><ele>848.0</ele><time>2026-03-07T08:11:17.014Z</time></trkpt><trkpt lat="37.1120252" lon="-3.7049931"><ele>848.0</ele><time>2026-03-07T08:11:19.005Z</time></trkpt><trkpt lat="37.111982" lon="-3.7051104"><ele>848.0</ele><time>2026-03-07T08:11:21.002Z</time></trkpt><trkpt lat="37.1119584" lon="-3.7052093"><ele>848.0</ele><time>2026-03-07T08:11:23.01Z</time></trkpt><trkpt lat="37.111938" lon="-3.7053091"><ele>848.0</ele><time>2026-03-07T08:11:25.015Z</time></trkpt><trkpt lat="37.1118995" lon="-3.7054253"><ele>848.0</ele><time>2026-03-07T08:11:27.003Z</time></trkpt><trkpt lat="37.1118536" lon="-3.705522"><ele>848.3333333333334</ele><time>2026-03-07T08:11:29.003Z</time></trkpt><trkpt lat="37.1117977" lon="-3.7055882"><ele>848.6666666666667</ele><time>2026-03-07T08:11:31.026Z</time></trkpt><trkpt lat="37.1117133" lon="-3.7056917"><ele>849.0</ele><time>2026-03-07T08:11:33.013Z</time></trkpt><trkpt lat="37.1116524" lon="-3.7057335"><ele>849.3333333333333</ele><time>2026-03-07T08:11:34.021Z</time></trkpt><trkpt lat="37.111579" lon="-3.7057665"><ele>849.6666666666666</ele><time>2026-03-07T08:11:35.016Z</time></trkpt><trkpt lat="37.1114957" lon="-3.7057894"><ele>850.0</ele><time>2026-03-07T08:11:36.007Z</time></trkpt><trkpt lat="37.1114165" lon="-3.7058107"><ele>850.3333333333333</ele><time>2026-03-07T08:11:37.015Z</time></trkpt><trkpt lat="37.1113321" lon="-3.705826"><ele>850.6666666666666</ele><time>2026-03-07T08:11:38.012Z</time></trkpt><trkpt lat="37.111244" lon="-3.7058312"><ele>851.0</ele><time>2026-03-07T08:11:39.018Z</time></trkpt><trkpt lat="37.1111564" lon="-3.705833"><ele>851.3333333333333</ele><time>2026-03-07T08:11:40.021Z</time></trkpt><trkpt lat="37.1110725" lon="-3.7058274"><ele>851.6666666666666</ele><time>2026-03-07T08:11:41.025Z</time></trkpt><trkpt lat="37.1109939" lon="-3.7058265"><ele>852.0</ele><time>2026-03-07T08:11:42.018Z</time></trkpt><trkpt lat="37.1109228" lon="-3.705821"><ele>851.9999999999999</ele><time>2026-03-07T08:11:43.01Z</time></trkpt><trkpt lat="37.1108589" lon="-3.7058174"><ele>852.0</ele><time>2026-03-07T08:11:44.009Z</time></trkpt><trkpt lat="37.1107902" lon="-3.7058134"><ele>852.0</ele><time>2026-03-07T08:11:45.014Z</time></trkpt><trkpt lat="37.1107228" lon="-3.7057998"><ele>852.0</ele><time>2026-03-07T08:11:46.018Z</time></trkpt><trkpt lat="37.1106545" lon="-3.7057932"><ele>852.0</ele><time>2026-03-07T08:11:47.014Z</time></trkpt><trkpt lat="37.1105916" lon="-3.7057874"><ele>851.9999999999999</ele><time>2026-03-07T08:11:48.017Z</time></trkpt><trkpt lat="37.1104811" lon="-3.7057909"><ele>852.0</ele><time>2026-03-07T08:11:50.001Z</time></trkpt><trkpt lat="37.1103681" lon="-3.7057961"><ele>850.8</ele><time>2026-03-07T08:11:52.007Z</time></trkpt><trkpt lat="37.110245" lon="-3.7058014"><ele>849.6</ele><time>2026-03-07T08:11:54.008Z</time></trkpt><trkpt lat="37.1101815" lon="-3.7058018"><ele>848.4</ele><time>2026-03-07T08:11:55.008Z</time></trkpt><trkpt lat="37.1100679" lon="-3.7058271"><ele>847.1999999999999</ele><time>2026-03-07T08:11:57.023Z</time></trkpt><trkpt lat="37.1099614" lon="-3.7058504"><ele>846.0</ele><time>2026-03-07T08:11:59.022Z</time></trkpt><trkpt lat="37.1098955" lon="-3.7058649"><ele>843.8333333333334</ele><time>2026-03-07T08:12:00.019Z</time></trkpt><trkpt lat="37.1098196" lon="-3.7058876"><ele>841.6666666666667</ele><time>2026-03-07T08:12:01.011Z</time></trkpt><trkpt lat="37.1097385" lon="-3.7059156"><ele>839.5</ele><time>2026-03-07T08:12:02.01Z</time></trkpt><trkpt lat="37.109666" lon="-3.7059352"><ele>837.3333333333334</ele><time>2026-03-07T08:12:03.018Z</time></trkpt><trkpt lat="37.1095948" lon="-3.7059547"><ele>835.1666666666667</ele><time>2026-03-07T08:12:04.02Z</time></trkpt><trkpt lat="37.1095301" lon="-3.7059746"><ele>833.0</ele><time>2026-03-07T08:12:04.998Z</time></trkpt><trkpt lat="37.1094253" lon="-3.705991"><ele>833.0000000000001</ele><time>2026-03-07T08:12:07.01Z</time></trkpt><trkpt lat="37.1093463" lon="-3.7060759"><ele>833.0</ele><time>2026-03-07T08:12:09.009Z</time></trkpt><trkpt lat="37.1092984" lon="-3.706131"><ele>833.0</ele><time>2026-03-07T08:12:10.004Z</time></trkpt><trkpt lat="37.1092422" lon="-3.7061822"><ele>833.0</ele><time>2026-03-07T08:12:11.012Z</time></trkpt><trkpt lat="37.1091848" lon="-3.7062324"><ele>833.0000000000001</ele><time>2026-03-07T08:12:12.001Z</time></trkpt><trkpt lat="37.1091264" lon="-3.7062832"><ele>833.0</ele><time>2026-03-07T08:12:13.015Z</time></trkpt><trkpt lat="37.1090679" lon="-3.7063372"><ele>831.1666666666667</ele><time>2026-03-07T08:12:14.004Z</time></trkpt><trkpt lat="37.1090083" lon="-3.7063861"><ele>829.3333333333334</ele><time>2026-03-07T08:12:15.008Z</time></trkpt><trkpt lat="37.1089469" lon="-3.7064286"><ele>827.5</ele><time>2026-03-07T08:12:16.016Z</time></trkpt><trkpt lat="37.1088861" lon="-3.706472"><ele>825.6666666666667</ele><time>2026-03-07T08:12:17.012Z</time></trkpt><trkpt lat="37.1088279" lon="-3.7065163"><ele>823.8333333333334</ele><time>2026-03-07T08:12:18.006Z</time></trkpt><trkpt lat="37.1087735" lon="-3.7065607"><ele>822.0</ele><time>2026-03-07T08:12:19.021Z</time></trkpt><trkpt lat="37.1086839" lon="-3.7066559"><ele>822.0</ele><time>2026-03-07T08:12:21.006Z</time></trkpt><trkpt lat="37.1086196" lon="-3.7067294"><ele>822.0</ele><time>2026-03-07T08:12:23.017Z</time></trkpt><trkpt lat="37.1085565" lon="-3.7067953"><ele>822.0</ele><time>2026-03-07T08:12:25.017Z</time></trkpt><trkpt lat="37.108485" lon="-3.7068322"><ele>822.0</ele><time>2026-03-07T08:12:27.009Z</time></trkpt><trkpt lat="37.1084289" lon="-3.7069009"><ele>822.0</ele><time>2026-03-07T08:12:29.011Z</time></trkpt><trkpt lat="37.1083757" lon="-3.7069983"><ele>822.0</ele><time>2026-03-07T08:12:31.001Z</time></trkpt><trkpt lat="37.1083048" lon="-3.7071014"><ele>822.2</ele><time>2026-03-07T08:12:33.004Z</time></trkpt><trkpt lat="37.1081931" lon="-3.7071635"><ele>822.4000000000001</ele><time>2026-03-07T08:12:35.007Z</time></trkpt><trkpt lat="37.1081298" lon="-3.7071943"><ele>822.5999999999999</ele><time>2026-03-07T08:12:36.005Z</time></trkpt><trkpt lat="37.1080706" lon="-3.7072376"><ele>822.8</ele><time>2026-03-07T08:12:37.008Z</time></trkpt><trkpt lat="37.1079931" lon="-3.7073267"><ele>823.0</ele><time>2026-03-07T08:12:39.016Z</time></trkpt><trkpt lat="37.1079058" lon="-3.707412"><ele>822.9999999999999</ele><time>2026-03-07T08:12:41.003Z</time></trkpt><trkpt lat="37.1078529" lon="-3.7074701"><ele>823.0</ele><time>2026-03-07T08:12:43.009Z</time></trkpt><trkpt lat="37.1077862" lon="-3.7075316"><ele>823.0</ele><time>2026-03-07T08:12:46.028Z</time></trkpt><trkpt lat="37.1077339" lon="-3.7076075"><ele>823.0</ele><time>2026-03-07T08:13:17.018Z</time></trkpt><trkpt lat="37.1076749" lon="-3.707685"><ele>822.9999999999999</ele><time>2026-03-07T08:13:20.012Z</time></trkpt><trkpt lat="37.1076229" lon="-3.7077504"><ele>823.0</ele><time>2026-03-07T08:13:23.998Z</time></trkpt><trkpt lat="37.1075673" lon="-3.707814"><ele>821.0</ele><time>2026-03-07T08:13:29.011Z</time></trkpt><trkpt lat="37.1075099" lon="-3.7078648"><ele>819.0</ele><time>2026-03-07T08:13:33.019Z</time></trkpt><trkpt lat="37.1074321" lon="-3.7078916"><ele>817.0</ele><time>2026-03-07T08:13:37.006Z</time></trkpt><trkpt lat="37.1073691" lon="-3.7079031"><ele>815.0</ele><time>2026-03-07T08:13:40.012Z</time></trkpt><trkpt lat="37.1073013" lon="-3.707926"><ele>813.0</ele><time>2026-03-07T08:13:43.008Z</time></trkpt><trkpt lat="37.1072364" lon="-3.7079559"><ele>811.0</ele><time>2026-03-07T08:13:48.009Z</time></trkpt><trkpt lat="37.1071729" lon="-3.7079544"><ele>809.0</ele><time>2026-03-07T08:13:58.004Z</time></trkpt><trkpt lat="37.1070997" lon="-3.7079736"><ele>808.5714285714286</ele><time>2026-03-07T08:14:05.01Z</time></trkpt><trkpt lat="37.1070362" lon="-3.7079966"><ele>808.1428571428571</ele><time>2026-03-07T08:14:10.017Z</time></trkpt><trkpt lat="37.1069605" lon="-3.7080056"><ele>807.7142857142858</ele><time>2026-03-07T08:14:15Z</time></trkpt><trkpt lat="37.1068924" lon="-3.7080118"><ele>807.2857142857142</ele><time>2026-03-07T08:14:18.011Z</time></trkpt><trkpt lat="37.1068132" lon="-3.7080288"><ele>806.8571428571428</ele><time>2026-03-07T08:14:21.008Z</time></trkpt><trkpt lat="37.1067482" lon="-3.7080377"><ele>806.4285714285714</ele><time>2026-03-07T08:14:24.008Z</time></trkpt><trkpt lat="37.1066811" lon="-3.7080434"><ele>806.0</ele><time>2026-03-07T08:14:27.01Z</time></trkpt><trkpt lat="37.1065942" lon="-3.7080507"><ele>804.5714285714286</ele><time>2026-03-07T08:14:30.018Z</time></trkpt><trkpt lat="37.1065153" lon="-3.7080597"><ele>803.1428571428571</ele><time>2026-03-07T08:14:33.009Z</time></trkpt><trkpt lat="37.1064505" lon="-3.7080941"><ele>801.7142857142857</ele><time>2026-03-07T08:14:37.017Z</time></trkpt><trkpt lat="37.1063744" lon="-3.7081196"><ele>800.2857142857142</ele><time>2026-03-07T08:14:40.018Z</time></trkpt><trkpt lat="37.1063101" lon="-3.7081413"><ele>798.8571428571429</ele><time>2026-03-07T08:14:43.012Z</time></trkpt><trkpt lat="37.1062412" lon="-3.7081518"><ele>797.4285714285713</ele><time>2026-03-07T08:14:49.013Z</time></trkpt><trkpt lat="37.1061611" lon="-3.7081601"><ele>796.0</ele><time>2026-03-07T08:15:06.008Z</time></trkpt><trkpt lat="37.1060919" lon="-3.7081727"><ele>796.0</ele><time>2026-03-07T08:15:08.016Z</time></trkpt><trkpt lat="37.1059876" lon="-3.7082094"><ele>796.0</ele><time>2026-03-07T08:15:10.011Z</time></trkpt><trkpt lat="37.105905" lon="-3.7082438"><ele>796.0</ele><time>2026-03-07T08:15:12.015Z</time></trkpt><trkpt lat="37.1058345" lon="-3.7082268"><ele>796.0</ele><time>2026-03-07T08:15:16.013Z</time></trkpt><trkpt lat="37.1057385" lon="-3.7081718"><ele>796.0</ele><time>2026-03-07T08:15:18.013Z</time></trkpt><trkpt lat="37.1056144" lon="-3.7081994"><ele>795.1666666666666</ele><time>2026-03-07T08:15:20.012Z</time></trkpt><trkpt lat="37.1055476" lon="-3.7082189"><ele>794.3333333333333</ele><time>2026-03-07T08:15:21.017Z</time></trkpt><trkpt lat="37.1054687" lon="-3.7082365"><ele>793.5</ele><time>2026-03-07T08:15:22.009Z</time></trkpt><trkpt lat="37.1054018" lon="-3.708253"><ele>792.6666666666667</ele><time>2026-03-07T08:15:23.002Z</time></trkpt><trkpt lat="37.1053375" lon="-3.7082788"><ele>791.8333333333334</ele><time>2026-03-07T08:15:24.006Z</time></trkpt><trkpt lat="37.1052763" lon="-3.7082998"><ele>791.0</ele><time>2026-03-07T08:15:25.008Z</time></trkpt><trkpt lat="37.1051666" lon="-3.7083329"><ele>791.0</ele><time>2026-03-07T08:15:27.017Z</time></trkpt><trkpt lat="37.1050952" lon="-3.7083554"><ele>791.0</ele><time>2026-03-07T08:15:29.006Z</time></trkpt><trkpt lat="37.1050323" lon="-3.7083671"><ele>791.0</ele><time>2026-03-07T08:15:32.01Z</time></trkpt><trkpt lat="37.1049553" lon="-3.7083885"><ele>791.0</ele><time>2026-03-07T08:15:40.011Z</time></trkpt><trkpt lat="37.1048934" lon="-3.708433"><ele>791.0</ele><time>2026-03-07T08:15:43.021Z</time></trkpt><trkpt lat="37.1048276" lon="-3.708484"><ele>791.0</ele><time>2026-03-07T08:15:48.011Z</time></trkpt><trkpt lat="37.1047634" lon="-3.7084583"><ele>791.0</ele><time>2026-03-07T08:15:50.005Z</time></trkpt><trkpt lat="37.1046739" lon="-3.7083848"><ele>788.5999999999999</ele><time>2026-03-07T08:15:52.014Z</time></trkpt><trkpt lat="37.1045637" lon="-3.7083526"><ele>786.2</ele><time>2026-03-07T08:15:54Z</time></trkpt><trkpt lat="37.1044839" lon="-3.7083171"><ele>783.8</ele><time>2026-03-07T08:15:56.015Z</time></trkpt><trkpt lat="37.1043946" lon="-3.7082918"><ele>781.4000000000001</ele><time>2026-03-07T08:15:58.012Z</time></trkpt><trkpt lat="37.1042913" lon="-3.7082943"><ele>779.0</ele><time>2026-03-07T08:16:00.037Z</time></trkpt><trkpt lat="37.1041865" lon="-3.7082813"><ele>779.0</ele><time>2026-03-07T08:16:02.01Z</time></trkpt><trkpt lat="37.1040839" lon="-3.7082687"><ele>779.0</ele><time>2026-03-07T08:16:04.017Z</time></trkpt><trkpt lat="37.1040047" lon="-3.7082585"><ele>779.0</ele><time>2026-03-07T08:16:06.014Z</time></trkpt><trkpt lat="37.1039219" lon="-3.7082376"><ele>779.0</ele><time>2026-03-07T08:16:08.008Z</time></trkpt><trkpt lat="37.1038327" lon="-3.708199"><ele>779.0</ele><time>2026-03-07T08:16:10.017Z</time></trkpt><trkpt lat="37.1037205" lon="-3.708162"><ele>776.8000000000001</ele><time>2026-03-07T08:16:12.004Z</time></trkpt><trkpt lat="37.1036024" lon="-3.7081491"><ele>774.6</ele><time>2026-03-07T08:16:14.008Z</time></trkpt><trkpt lat="37.1034844" lon="-3.7081486"><ele>772.4</ele><time>2026-03-07T08:16:16.01Z</time></trkpt><trkpt lat="37.1033829" lon="-3.7081416"><ele>770.2</ele><time>2026-03-07T08:16:18.006Z</time></trkpt><trkpt lat="37.1032856" lon="-3.7081195"><ele>768.0</ele><time>2026-03-07T08:16:20.01Z</time></trkpt><trkpt lat="37.1031847" lon="-3.7081163"><ele>766.4</ele><time>2026-03-07T08:16:22.006Z</time></trkpt><trkpt lat="37.1030955" lon="-3.7081346"><ele>764.8</ele><time>2026-03-07T08:16:24.01Z</time></trkpt><trkpt lat="37.1030224" lon="-3.7081826"><ele>763.2</ele><time>2026-03-07T08:16:26.025Z</time></trkpt><trkpt lat="37.1029902" lon="-3.7082532"><ele>761.6</ele><time>2026-03-07T08:16:28.011Z</time></trkpt><trkpt lat="37.1030326" lon="-3.7083732"><ele>760.0</ele><time>2026-03-07T08:16:31.037Z</time></trkpt><trkpt lat="37.103107" lon="-3.7084901"><ele>760.0</ele><time>2026-03-07T08:16:33.013Z</time></trkpt><trkpt lat="37.1031681" lon="-3.7085678"><ele>760.0</ele><time>2026-03-07T08:16:34.015Z</time></trkpt><trkpt lat="37.1032231" lon="-3.708643"><ele>760.0</ele><time>2026-03-07T08:16:35.011Z</time></trkpt><trkpt lat="37.1032667" lon="-3.7087104"><ele>760.0</ele><time>2026-03-07T08:16:36.007Z</time></trkpt><trkpt lat="37.1033105" lon="-3.7087801"><ele>760.0</ele><time>2026-03-07T08:16:37.006Z</time></trkpt><trkpt lat="37.1033864" lon="-3.7088941"><ele>760.0</ele><time>2026-03-07T08:16:39.004Z</time></trkpt><trkpt lat="37.1034177" lon="-3.7090124"><ele>760.0</ele><time>2026-03-07T08:16:41.009Z</time></trkpt><trkpt lat="37.1034096" lon="-3.709149"><ele>760.0</ele><time>2026-03-07T08:16:42.998Z</time></trkpt><trkpt lat="37.1034316" lon="-3.7092995"><ele>760.0</ele><time>2026-03-07T08:16:45.01Z</time></trkpt><trkpt lat="37.1034552" lon="-3.7093854"><ele>760.0</ele><time>2026-03-07T08:16:46.006Z</time></trkpt><trkpt lat="37.1034853" lon="-3.7094769"><ele>760.0</ele><time>2026-03-07T08:16:47.004Z</time></trkpt><trkpt lat="37.1035197" lon="-3.7095845"><ele>760.0</ele><time>2026-03-07T08:16:48.002Z</time></trkpt><trkpt lat="37.1035551" lon="-3.7096891"><ele>760.0</ele><time>2026-03-07T08:16:49.013Z</time></trkpt><trkpt lat="37.1035956" lon="-3.7098058"><ele>760.0</ele><time>2026-03-07T08:16:50.007Z</time></trkpt><trkpt lat="37.1036334" lon="-3.7099209"><ele>760.0</ele><time>2026-03-07T08:16:51.01Z</time></trkpt><trkpt lat="37.1036674" lon="-3.7100441"><ele>760.0</ele><time>2026-03-07T08:16:52.008Z</time></trkpt><trkpt lat="37.1036866" lon="-3.7101805"><ele>761.0</ele><time>2026-03-07T08:16:53.013Z</time></trkpt><trkpt lat="37.103713" lon="-3.7103067"><ele>762.0</ele><time>2026-03-07T08:16:54.006Z</time></trkpt><trkpt lat="37.1037378" lon="-3.7104178"><ele>763.0</ele><time>2026-03-07T08:16:55.002Z</time></trkpt><trkpt lat="37.1037548" lon="-3.7105197"><ele>764.0</ele><time>2026-03-07T08:16:56.022Z</time></trkpt><trkpt lat="37.1037507" lon="-3.710636"><ele>765.0</ele><time>2026-03-07T08:16:57.004Z</time></trkpt><trkpt lat="37.1037607" lon="-3.7107593"><ele>765.0</ele><time>2026-03-07T08:16:58.005Z</time></trkpt><trkpt lat="37.1037732" lon="-3.7108826"><ele>765.0</ele><time>2026-03-07T08:16:59.006Z</time></trkpt><trkpt lat="37.1037755" lon="-3.7110043"><ele>765.0</ele><time>2026-03-07T08:17:00.005Z</time></trkpt><trkpt lat="37.1037794" lon="-3.7111136"><ele>765.0</ele><time>2026-03-07T08:17:01.044Z</time></trkpt><trkpt lat="37.1037819" lon="-3.7112202"><ele>765.0</ele><time>2026-03-07T08:17:02.017Z</time></trkpt><trkpt lat="37.1037831" lon="-3.7113296"><ele>764.2</ele><time>2026-03-07T08:17:03.006Z</time></trkpt><trkpt lat="37.1037843" lon="-3.7114411"><ele>763.4</ele><time>2026-03-07T08:17:04.008Z</time></trkpt><trkpt lat="37.103787" lon="-3.7115471"><ele>762.5999999999999</ele><time>2026-03-07T08:17:04.999Z</time></trkpt><trkpt lat="37.1037854" lon="-3.7116512"><ele>761.8</ele><time>2026-03-07T08:17:06.005Z</time></trkpt><trkpt lat="37.1037824" lon="-3.7117647"><ele>761.0</ele><time>2026-03-07T08:17:07Z</time></trkpt><trkpt lat="37.1037608" lon="-3.7118931"><ele>758.8</ele><time>2026-03-07T08:17:08.015Z</time></trkpt><trkpt lat="37.1037266" lon="-3.7120349"><ele>756.5999999999999</ele><time>2026-03-07T08:17:09.015Z</time></trkpt><trkpt lat="37.1036981" lon="-3.7121693"><ele>754.4</ele><time>2026-03-07T08:17:09.999Z</time></trkpt><trkpt lat="37.1036518" lon="-3.7122891"><ele>752.2</ele><time>2026-03-07T08:17:11.005Z</time></trkpt><trkpt lat="37.1036123" lon="-3.7124073"><ele>750.0</ele><time>2026-03-07T08:17:12.004Z</time></trkpt><trkpt lat="37.1035806" lon="-3.7125354"><ele>750.0</ele><time>2026-03-07T08:17:13.012Z</time></trkpt><trkpt lat="37.1035424" lon="-3.7126585"><ele>750.0</ele><time>2026-03-07T08:17:14Z</time></trkpt><trkpt lat="37.1034968" lon="-3.7127742"><ele>750.0</ele><time>2026-03-07T08:17:15.004Z</time></trkpt><trkpt lat="37.1034544" lon="-3.7128863"><ele>750.0</ele><time>2026-03-07T08:17:16.007Z</time></trkpt><trkpt lat="37.1034081" lon="-3.7129946"><ele>750.0</ele><time>2026-03-07T08:17:17.001Z</time></trkpt><trkpt lat="37.103354" lon="-3.7130994"><ele>748.6</ele><time>2026-03-07T08:17:18.016Z</time></trkpt><trkpt lat="37.1032932" lon="-3.7132077"><ele>747.2</ele><time>2026-03-07T08:17:19.007Z</time></trkpt><trkpt lat="37.1032297" lon="-3.7133056"><ele>745.8</ele><time>2026-03-07T08:17:20.007Z</time></trkpt><trkpt lat="37.1031648" lon="-3.7134021"><ele>744.4</ele><time>2026-03-07T08:17:21.001Z</time></trkpt><trkpt lat="37.1031041" lon="-3.7135014"><ele>743.0</ele><time>2026-03-07T08:17:22.02Z</time></trkpt><trkpt lat="37.1030516" lon="-3.7136031"><ele>742.0</ele><time>2026-03-07T08:17:23.022Z</time></trkpt><trkpt lat="37.1029959" lon="-3.7136993"><ele>741.0</ele><time>2026-03-07T08:17:24.006Z</time></trkpt><trkpt lat="37.1029248" lon="-3.7137783"><ele>740.0</ele><time>2026-03-07T08:17:25.006Z</time></trkpt><trkpt lat="37.1028587" lon="-3.7138539"><ele>739.0</ele><time>2026-03-07T08:17:26.005Z</time></trkpt><trkpt lat="37.1027859" lon="-3.7139313"><ele>738.0</ele><time>2026-03-07T08:17:27.007Z</time></trkpt><trkpt lat="37.1027118" lon="-3.7140211"><ele>738.0</ele><time>2026-03-07T08:17:28.004Z</time></trkpt><trkpt lat="37.1026304" lon="-3.7141103"><ele>738.0</ele><time>2026-03-07T08:17:29.016Z</time></trkpt><trkpt lat="37.1025548" lon="-3.7141945"><ele>738.0</ele><time>2026-03-07T08:17:30.002Z</time></trkpt><trkpt lat="37.1024892" lon="-3.7142768"><ele>738.0</ele><time>2026-03-07T08:17:31.004Z</time></trkpt><trkpt lat="37.1024257" lon="-3.7143615"><ele>738.0</ele><time>2026-03-07T08:17:32.003Z</time></trkpt><trkpt lat="37.1023777" lon="-3.7144603"><ele>738.2</ele><time>2026-03-07T08:17:33Z</time></trkpt><trkpt lat="37.1023329" lon="-3.7145625"><ele>738.4</ele><time>2026-03-07T08:17:34.014Z</time></trkpt><trkpt lat="37.1023047" lon="-3.7146753"><ele>738.6</ele><time>2026-03-07T08:17:35.005Z</time></trkpt><trkpt lat="37.1022912" lon="-3.7147793"><ele>738.8000000000001</ele><time>2026-03-07T08:17:36.006Z</time></trkpt><trkpt lat="37.1022784" lon="-3.7148617"><ele>739.0</ele><time>2026-03-07T08:17:36.995Z</time></trkpt><trkpt lat="37.102201" lon="-3.714978"><ele>739.0</ele><time>2026-03-07T08:17:39.008Z</time></trkpt><trkpt lat="37.1021315" lon="-3.7150364"><ele>739.0</ele><time>2026-03-07T08:17:40.003Z</time></trkpt><trkpt lat="37.1020582" lon="-3.7151048"><ele>739.0</ele><time>2026-03-07T08:17:41.001Z</time></trkpt><trkpt lat="37.1019859" lon="-3.715176"><ele>739.0</ele><time>2026-03-07T08:17:42.002Z</time></trkpt><trkpt lat="37.1019198" lon="-3.7152434"><ele>739.0</ele><time>2026-03-07T08:17:43.012Z</time></trkpt><trkpt lat="37.1018652" lon="-3.7153027"><ele>739.0</ele><time>2026-03-07T08:17:44.011Z</time></trkpt><trkpt lat="37.101811" lon="-3.715355"><ele>737.6666666666667</ele><time>2026-03-07T08:17:45.013Z</time></trkpt><trkpt lat="37.101747" lon="-3.7154074"><ele>736.3333333333334</ele><time>2026-03-07T08:17:46.004Z</time></trkpt><trkpt lat="37.1016746" lon="-3.7154605"><ele>735.0</ele><time>2026-03-07T08:17:47.001Z</time></trkpt><trkpt lat="37.101601" lon="-3.7155137"><ele>733.6666666666666</ele><time>2026-03-07T08:17:48.011Z</time></trkpt><trkpt lat="37.1015389" lon="-3.7155653"><ele>732.3333333333333</ele><time>2026-03-07T08:17:49.015Z</time></trkpt><trkpt lat="37.1014883" lon="-3.7156159"><ele>731.0</ele><time>2026-03-07T08:17:50.025Z</time></trkpt><trkpt lat="37.1014334" lon="-3.7156616"><ele>730.7142857142857</ele><time>2026-03-07T08:17:51.019Z</time></trkpt><trkpt lat="37.1013811" lon="-3.7157084"><ele>730.4285714285713</ele><time>2026-03-07T08:17:52.017Z</time></trkpt><trkpt lat="37.101336" lon="-3.715769"><ele>730.1428571428571</ele><time>2026-03-07T08:17:53.01Z</time></trkpt><trkpt lat="37.1013036" lon="-3.7158437"><ele>729.8571428571429</ele><time>2026-03-07T08:17:54.009Z</time></trkpt><trkpt lat="37.1012764" lon="-3.7159249"><ele>729.5714285714286</ele><time>2026-03-07T08:17:55.004Z</time></trkpt><trkpt lat="37.1012444" lon="-3.7160124"><ele>729.2857142857143</ele><time>2026-03-07T08:17:56.007Z</time></trkpt><trkpt lat="37.1012139" lon="-3.7161051"><ele>729.0</ele><time>2026-03-07T08:17:57.003Z</time></trkpt><trkpt lat="37.1011851" lon="-3.7161982"><ele>728.5</ele><time>2026-03-07T08:17:58.004Z</time></trkpt><trkpt lat="37.1011569" lon="-3.7162905"><ele>728.0</ele><time>2026-03-07T08:17:59.002Z</time></trkpt><trkpt lat="37.1011113" lon="-3.7163783"><ele>727.5</ele><time>2026-03-07T08:18:00.02Z</time></trkpt><trkpt lat="37.1010609" lon="-3.7164644"><ele>727.0</ele><time>2026-03-07T08:18:01.003Z</time></trkpt><trkpt lat="37.1010133" lon="-3.7165586"><ele>726.5</ele><time>2026-03-07T08:18:02.001Z</time></trkpt><trkpt lat="37.1009765" lon="-3.7166593"><ele>726.0</ele><time>2026-03-07T08:18:03.005Z</time></trkpt><trkpt lat="37.1009406" lon="-3.7167532"><ele>726.0</ele><time>2026-03-07T08:18:03.996Z</time></trkpt><trkpt lat="37.1009148" lon="-3.7168406"><ele>726.0</ele><time>2026-03-07T08:18:05.003Z</time></trkpt><trkpt lat="37.10089" lon="-3.7169245"><ele>726.0</ele><time>2026-03-07T08:18:06.008Z</time></trkpt><trkpt lat="37.1008647" lon="-3.7170089"><ele>726.0</ele><time>2026-03-07T08:18:07.017Z</time></trkpt><trkpt lat="37.1008398" lon="-3.7171022"><ele>726.0</ele><time>2026-03-07T08:18:08.004Z</time></trkpt><trkpt lat="37.1008119" lon="-3.7171987"><ele>726.0</ele><time>2026-03-07T08:18:09.006Z</time></trkpt><trkpt lat="37.1007828" lon="-3.717289"><ele>725.1666666666666</ele><time>2026-03-07T08:18:10.025Z</time></trkpt><trkpt lat="37.100748" lon="-3.7173686"><ele>724.3333333333334</ele><time>2026-03-07T08:18:11.005Z</time></trkpt><trkpt lat="37.100716" lon="-3.7174481"><ele>723.5</ele><time>2026-03-07T08:18:12.005Z</time></trkpt><trkpt lat="37.1006788" lon="-3.7175261"><ele>722.6666666666667</ele><time>2026-03-07T08:18:12.998Z</time></trkpt><trkpt lat="37.1006468" lon="-3.7176118"><ele>721.8333333333334</ele><time>2026-03-07T08:18:14.005Z</time></trkpt><trkpt lat="37.1006117" lon="-3.7176999"><ele>721.0</ele><time>2026-03-07T08:18:15.008Z</time></trkpt><trkpt lat="37.100585" lon="-3.7177964"><ele>719.6666666666667</ele><time>2026-03-07T08:18:16.012Z</time></trkpt><trkpt lat="37.1005512" lon="-3.7178847"><ele>718.3333333333334</ele><time>2026-03-07T08:18:17.002Z</time></trkpt><trkpt lat="37.1005241" lon="-3.7179733"><ele>717.0</ele><time>2026-03-07T08:18:18.006Z</time></trkpt><trkpt lat="37.1004818" lon="-3.7180471"><ele>715.6666666666666</ele><time>2026-03-07T08:18:19.005Z</time></trkpt><trkpt lat="37.1004499" lon="-3.7181218"><ele>714.3333333333333</ele><time>2026-03-07T08:18:20.006Z</time></trkpt><trkpt lat="37.1003913" lon="-3.7182594"><ele>713.0</ele><time>2026-03-07T08:18:21.998Z</time></trkpt><trkpt lat="37.1003677" lon="-3.718333"><ele>713.0</ele><time>2026-03-07T08:18:23.007Z</time></trkpt><trkpt lat="37.1003587" lon="-3.7184871"><ele>713.0</ele><time>2026-03-07T08:18:25.001Z</time></trkpt><trkpt lat="37.100344" lon="-3.7186262"><ele>713.0</ele><time>2026-03-07T08:18:27.007Z</time></trkpt><trkpt lat="37.1003288" lon="-3.7187782"><ele>713.0</ele><time>2026-03-07T08:18:29.008Z</time></trkpt><trkpt lat="37.1003288" lon="-3.7188613"><ele>713.0</ele><time>2026-03-07T08:18:30.007Z</time></trkpt><trkpt lat="37.100334" lon="-3.7189979"><ele>712.5</ele><time>2026-03-07T08:18:32.024Z</time></trkpt><trkpt lat="37.1003524" lon="-3.719098"><ele>712.0</ele><time>2026-03-07T08:18:34.005Z</time></trkpt><trkpt lat="37.1003588" lon="-3.719186"><ele>711.5</ele><time>2026-03-07T08:18:36.016Z</time></trkpt><trkpt lat="37.1003344" lon="-3.7192683"><ele>711.0</ele><time>2026-03-07T08:18:38.016Z</time></trkpt><trkpt lat="37.1002764" lon="-3.7193136"><ele>710.5</ele><time>2026-03-07T08:18:39.998Z</time></trkpt><trkpt lat="37.1002136" lon="-3.7193899"><ele>710.0</ele><time>2026-03-07T08:19:40.005Z</time></trkpt><trkpt lat="37.1001318" lon="-3.7194087"><ele>710.0</ele><time>2026-03-07T08:19:44.01Z</time></trkpt><trkpt lat="37.1000635" lon="-3.7194374"><ele>710.0</ele><time>2026-03-07T08:19:49.02Z</time></trkpt><trkpt lat="37.1000969" lon="-3.7195205"><ele>710.0</ele><time>2026-03-07T08:19:56.026Z</time></trkpt><trkpt lat="37.1001892" lon="-3.7195596"><ele>710.0</ele><time>2026-03-07T08:19:58.023Z</time></trkpt><trkpt lat="37.1002901" lon="-3.719585"><ele>710.0</ele><time>2026-03-07T08:20:00.018Z</time></trkpt><trkpt lat="37.1003764" lon="-3.7196139"><ele>710.0</ele><time>2026-03-07T08:20:02.035Z</time></trkpt><trkpt lat="37.1004836" lon="-3.7196606"><ele>710.0</ele><time>2026-03-07T08:20:04.006Z</time></trkpt><trkpt lat="37.1005681" lon="-3.7196959"><ele>710.0</ele><time>2026-03-07T08:20:06.001Z</time></trkpt><trkpt lat="37.1006406" lon="-3.7197203"><ele>710.0</ele><time>2026-03-07T08:20:10.008Z</time></trkpt><trkpt lat="37.1006969" lon="-3.7198237"><ele>710.0</ele><time>2026-03-07T08:20:13.008Z</time></trkpt><trkpt lat="37.1007425" lon="-3.7199183"><ele>710.0</ele><time>2026-03-07T08:20:14.008Z</time></trkpt><trkpt lat="37.1007968" lon="-3.7200329"><ele>710.4</ele><time>2026-03-07T08:20:15.014Z</time></trkpt><trkpt lat="37.1008471" lon="-3.7201174"><ele>710.8</ele><time>2026-03-07T08:20:15.996Z</time></trkpt><trkpt lat="37.1008991" lon="-3.7201989"><ele>711.2</ele><time>2026-03-07T08:20:17.023Z</time></trkpt><trkpt lat="37.1009518" lon="-3.7203088"><ele>711.6</ele><time>2026-03-07T08:20:19.008Z</time></trkpt><trkpt lat="37.1009369" lon="-3.7204348"><ele>712.0</ele><time>2026-03-07T08:20:21.018Z</time></trkpt><trkpt lat="37.1009031" lon="-3.7205729"><ele>712.0</ele><time>2026-03-07T08:20:23.011Z</time></trkpt><trkpt lat="37.1008634" lon="-3.7207018"><ele>712.0</ele><time>2026-03-07T08:20:25.011Z</time></trkpt><trkpt lat="37.100789" lon="-3.7208247"><ele>712.0</ele><time>2026-03-07T08:20:27.012Z</time></trkpt><trkpt lat="37.1007455" lon="-3.7208933"><ele>712.0</ele><time>2026-03-07T08:20:28.003Z</time></trkpt><trkpt lat="37.1006938" lon="-3.720959"><ele>712.0</ele><time>2026-03-07T08:20:29.004Z</time></trkpt><trkpt lat="37.1006401" lon="-3.7210341"><ele>712.6</ele><time>2026-03-07T08:20:30.01Z</time></trkpt><trkpt lat="37.1005891" lon="-3.7211169"><ele>713.2</ele><time>2026-03-07T08:20:31.003Z</time></trkpt><trkpt lat="37.1005346" lon="-3.7211945"><ele>713.8</ele><time>2026-03-07T08:20:32.004Z</time></trkpt><trkpt lat="37.1004923" lon="-3.721265"><ele>714.4</ele><time>2026-03-07T08:20:33.007Z</time></trkpt><trkpt lat="37.1004282" lon="-3.7213698"><ele>715.0</ele><time>2026-03-07T08:20:35.011Z</time></trkpt><trkpt lat="37.1003527" lon="-3.7214851"><ele>715.0</ele><time>2026-03-07T08:20:37.013Z</time></trkpt><trkpt lat="37.1003088" lon="-3.7215484"><ele>715.0</ele><time>2026-03-07T08:20:38.018Z</time></trkpt><trkpt lat="37.1002373" lon="-3.7216543"><ele>715.0</ele><time>2026-03-07T08:20:40.019Z</time></trkpt><trkpt lat="37.1002397" lon="-3.7217707"><ele>715.0</ele><time>2026-03-07T08:20:42.02Z</time></trkpt><trkpt lat="37.1003063" lon="-3.721892"><ele>715.0</ele><time>2026-03-07T08:20:44.004Z</time></trkpt><trkpt lat="37.1003476" lon="-3.7219579"><ele>714.8333333333334</ele><time>2026-03-07T08:20:45.001Z</time></trkpt><trkpt lat="37.1003887" lon="-3.7220282"><ele>714.6666666666667</ele><time>2026-03-07T08:20:46.014Z</time></trkpt><trkpt lat="37.1004292" lon="-3.7221075"><ele>714.5</ele><time>2026-03-07T08:20:47.009Z</time></trkpt><trkpt lat="37.1004677" lon="-3.7221828"><ele>714.3333333333334</ele><time>2026-03-07T08:20:48.004Z</time></trkpt><trkpt lat="37.1004983" lon="-3.7222613"><ele>714.1666666666666</ele><time>2026-03-07T08:20:49.008Z</time></trkpt><trkpt lat="37.1005358" lon="-3.7223536"><ele>714.0</ele><time>2026-03-07T08:20:50.004Z</time></trkpt><trkpt lat="37.1005616" lon="-3.7224588"><ele>714.0</ele><time>2026-03-07T08:20:51.002Z</time></trkpt><trkpt lat="37.1006157" lon="-3.7225355"><ele>714.0</ele><time>2026-03-07T08:20:52.006Z</time></trkpt><trkpt lat="37.1006666" lon="-3.7226123"><ele>714.0</ele><time>2026-03-07T08:20:53.013Z</time></trkpt><trkpt lat="37.1007256" lon="-3.7226789"><ele>714.0</ele><time>2026-03-07T08:20:53.994Z</time></trkpt><trkpt lat="37.1007882" lon="-3.7227399"><ele>714.0</ele><time>2026-03-07T08:20:55.007Z</time></trkpt><trkpt lat="37.1008472" lon="-3.7227984"><ele>714.0</ele><time>2026-03-07T08:20:56.004Z</time></trkpt><trkpt lat="37.100899" lon="-3.7228519"><ele>713.4000000000001</ele><time>2026-03-07T08:20:57.022Z</time></trkpt><trkpt lat="37.1009716" lon="-3.7229467"><ele>712.8</ele><time>2026-03-07T08:20:59.008Z</time></trkpt><trkpt lat="37.1010013" lon="-3.7230319"><ele>712.2</ele><time>2026-03-07T08:21:02.022Z</time></trkpt><trkpt lat="37.1009685" lon="-3.7231377"><ele>711.5999999999999</ele><time>2026-03-07T08:21:05.015Z</time></trkpt><trkpt lat="37.1008777" lon="-3.7232698"><ele>711.0</ele><time>2026-03-07T08:21:07.002Z</time></trkpt><trkpt lat="37.1008239" lon="-3.7233502"><ele>711.0</ele><time>2026-03-07T08:21:07.991Z</time></trkpt><trkpt lat="37.1007627" lon="-3.72344"><ele>711.0</ele><time>2026-03-07T08:21:09.006Z</time></trkpt><trkpt lat="37.1006997" lon="-3.7235389"><ele>711.0</ele><time>2026-03-07T08:21:10.009Z</time></trkpt><trkpt lat="37.1006398" lon="-3.723646"><ele>711.0</ele><time>2026-03-07T08:21:11.007Z</time></trkpt><trkpt lat="37.100575" lon="-3.7237656"><ele>711.0</ele><time>2026-03-07T08:21:12.014Z</time></trkpt><trkpt lat="37.100511" lon="-3.7238958"><ele>712.25</ele><time>2026-03-07T08:21:13.006Z</time></trkpt><trkpt lat="37.1004484" lon="-3.7240393"><ele>713.5</ele><time>2026-03-07T08:21:14.011Z</time></trkpt><trkpt lat="37.1003878" lon="-3.7242015"><ele>714.75</ele><time>2026-03-07T08:21:15.002Z</time></trkpt><trkpt lat="37.1003229" lon="-3.7243681"><ele>716.0</ele><time>2026-03-07T08:21:16.009Z</time></trkpt><trkpt lat="37.1002558" lon="-3.7245369"><ele>717.0</ele><time>2026-03-07T08:21:17.011Z</time></trkpt><trkpt lat="37.1001896" lon="-3.7247122"><ele>718.0</ele><time>2026-03-07T08:21:18.002Z</time></trkpt><trkpt lat="37.1001225" lon="-3.7248954"><ele>719.0</ele><time>2026-03-07T08:21:19.013Z</time></trkpt><trkpt lat="37.1000577" lon="-3.7250683"><ele>719.0</ele><time>2026-03-07T08:21:20Z</time></trkpt><trkpt lat="37.1000029" lon="-3.7252252"><ele>719.0</ele><time>2026-03-07T08:21:21.052Z</time></trkpt><trkpt lat="37.0999548" lon="-3.725374"><ele>719.0</ele><time>2026-03-07T08:21:22.001Z</time></trkpt><trkpt lat="37.0999104" lon="-3.7255195"><ele>719.0</ele><time>2026-03-07T08:21:23.011Z</time></trkpt><trkpt lat="37.0998664" lon="-3.7256603"><ele>721.0</ele><time>2026-03-07T08:21:24.014Z</time></trkpt><trkpt lat="37.0998208" lon="-3.7258004"><ele>723.0</ele><time>2026-03-07T08:21:25.018Z</time></trkpt><trkpt lat="37.0997757" lon="-3.7259413"><ele>725.0</ele><time>2026-03-07T08:21:26Z</time></trkpt><trkpt lat="37.0997292" lon="-3.7260853"><ele>727.0</ele><time>2026-03-07T08:21:27.014Z</time></trkpt><trkpt lat="37.0996783" lon="-3.7262276"><ele>727.0</ele><time>2026-03-07T08:21:28.023Z</time></trkpt><trkpt lat="37.0996258" lon="-3.7263675"><ele>727.0</ele><time>2026-03-07T08:21:29.007Z</time></trkpt><trkpt lat="37.0995781" lon="-3.7265058"><ele>727.0</ele><time>2026-03-07T08:21:30.008Z</time></trkpt><trkpt lat="37.0995309" lon="-3.7266407"><ele>727.0</ele><time>2026-03-07T08:21:31.01Z</time></trkpt><trkpt lat="37.0994822" lon="-3.7267649"><ele>727.0</ele><time>2026-03-07T08:21:32.016Z</time></trkpt><trkpt lat="37.0994416" lon="-3.7268707"><ele>727.0</ele><time>2026-03-07T08:21:33.011Z</time></trkpt><trkpt lat="37.0994028" lon="-3.7269618"><ele>727.0</ele><time>2026-03-07T08:21:34.015Z</time></trkpt><trkpt lat="37.0993686" lon="-3.7270448"><ele>727.0</ele><time>2026-03-07T08:21:35.014Z</time></trkpt><trkpt lat="37.0993299" lon="-3.727127"><ele>727.0</ele><time>2026-03-07T08:21:36.005Z</time></trkpt><trkpt lat="37.0992911" lon="-3.7272161"><ele>727.0</ele><time>2026-03-07T08:21:37Z</time></trkpt><trkpt lat="37.0992537" lon="-3.7273077"><ele>726.6</ele><time>2026-03-07T08:21:38.016Z</time></trkpt><trkpt lat="37.0992102" lon="-3.7274035"><ele>726.2</ele><time>2026-03-07T08:21:39.015Z</time></trkpt><trkpt lat="37.0991657" lon="-3.7275015"><ele>725.8</ele><time>2026-03-07T08:21:40.005Z</time></trkpt><trkpt lat="37.0991165" lon="-3.7275987"><ele>725.4</ele><time>2026-03-07T08:21:41.009Z</time></trkpt><trkpt lat="37.0990639" lon="-3.7277004"><ele>725.0</ele><time>2026-03-07T08:21:41.994Z</time></trkpt><trkpt lat="37.0989968" lon="-3.7278032"><ele>726.0</ele><time>2026-03-07T08:21:43.006Z</time></trkpt><trkpt lat="37.0989278" lon="-3.7279026"><ele>727.0</ele><time>2026-03-07T08:21:44.02Z</time></trkpt><trkpt lat="37.0988513" lon="-3.7279945"><ele>728.0</ele><time>2026-03-07T08:21:45.021Z</time></trkpt><trkpt lat="37.0987706" lon="-3.7280905"><ele>729.0</ele><time>2026-03-07T08:21:46.016Z</time></trkpt><trkpt lat="37.0986923" lon="-3.7281912"><ele>730.0</ele><time>2026-03-07T08:21:47.001Z</time></trkpt><trkpt lat="37.0986073" lon="-3.7282935"><ele>730.0</ele><time>2026-03-07T08:21:48.006Z</time></trkpt><trkpt lat="37.0985214" lon="-3.728401"><ele>730.0</ele><time>2026-03-07T08:21:49.017Z</time></trkpt><trkpt lat="37.0984304" lon="-3.7285043"><ele>730.0</ele><time>2026-03-07T08:21:50.026Z</time></trkpt><trkpt lat="37.0983462" lon="-3.7286073"><ele>730.0</ele><time>2026-03-07T08:21:51.012Z</time></trkpt><trkpt lat="37.0982671" lon="-3.7287037"><ele>730.0</ele><time>2026-03-07T08:21:52.004Z</time></trkpt><trkpt lat="37.0981933" lon="-3.7288001"><ele>730.0</ele><time>2026-03-07T08:21:53.01Z</time></trkpt><trkpt lat="37.0981199" lon="-3.7288937"><ele>730.0</ele><time>2026-03-07T08:21:54.026Z</time></trkpt><trkpt lat="37.0980461" lon="-3.7289835"><ele>730.0</ele><time>2026-03-07T08:21:55.012Z</time></trkpt><trkpt lat="37.0979741" lon="-3.7290724"><ele>730.0</ele><time>2026-03-07T08:21:56.008Z</time></trkpt><trkpt lat="37.0979023" lon="-3.7291619"><ele>730.0</ele><time>2026-03-07T08:21:57.046Z</time></trkpt><trkpt lat="37.0978295" lon="-3.7292508"><ele>730.0</ele><time>2026-03-07T08:21:58.021Z</time></trkpt><trkpt lat="37.0977519" lon="-3.7293424"><ele>730.0</ele><time>2026-03-07T08:21:59.003Z</time></trkpt><trkpt lat="37.0976673" lon="-3.7294404"><ele>730.0</ele><time>2026-03-07T08:22:00.008Z</time></trkpt><trkpt lat="37.0975852" lon="-3.7295518"><ele>730.0</ele><time>2026-03-07T08:22:01.008Z</time></trkpt><trkpt lat="37.0975005" lon="-3.7296595"><ele>729.8</ele><time>2026-03-07T08:22:02.008Z</time></trkpt><trkpt lat="37.0974202" lon="-3.7297684"><ele>729.6</ele><time>2026-03-07T08:22:03.005Z</time></trkpt><trkpt lat="37.0973459" lon="-3.729866"><ele>729.4000000000001</ele><time>2026-03-07T08:22:04.014Z</time></trkpt><trkpt lat="37.0972836" lon="-3.7299506"><ele>729.2</ele><time>2026-03-07T08:22:05.009Z</time></trkpt><trkpt lat="37.0972334" lon="-3.7300292"><ele>729.0</ele><time>2026-03-07T08:22:06.005Z</time></trkpt><trkpt lat="37.0972068" lon="-3.7301191"><ele>729.0</ele><time>2026-03-07T08:22:07.017Z</time></trkpt><trkpt lat="37.0971916" lon="-3.7302185"><ele>729.0</ele><time>2026-03-07T08:22:08.006Z</time></trkpt><trkpt lat="37.0971966" lon="-3.7303195"><ele>729.0</ele><time>2026-03-07T08:22:09.008Z</time></trkpt><trkpt lat="37.097207" lon="-3.7304144"><ele>729.0</ele><time>2026-03-07T08:22:10.008Z</time></trkpt><trkpt lat="37.0971942" lon="-3.730502"><ele>729.0</ele><time>2026-03-07T08:22:11.018Z</time></trkpt><trkpt lat="37.0971664" lon="-3.7305835"><ele>729.0</ele><time>2026-03-07T08:22:12.014Z</time></trkpt><trkpt lat="37.0971247" lon="-3.7306444"><ele>729.0</ele><time>2026-03-07T08:22:13.004Z</time></trkpt><trkpt lat="37.0970675" lon="-3.7306913"><ele>728.8333333333334</ele><time>2026-03-07T08:22:14.01Z</time></trkpt><trkpt lat="37.0970052" lon="-3.7307349"><ele>728.6666666666666</ele><time>2026-03-07T08:22:15.009Z</time></trkpt><trkpt lat="37.0969378" lon="-3.7307644"><ele>728.5</ele><time>2026-03-07T08:22:16.001Z</time></trkpt><trkpt lat="37.0968683" lon="-3.7307768"><ele>728.3333333333333</ele><time>2026-03-07T08:22:17.014Z</time></trkpt><trkpt lat="37.0968039" lon="-3.7307598"><ele>728.1666666666666</ele><time>2026-03-07T08:22:18.016Z</time></trkpt><trkpt lat="37.0967442" lon="-3.7307276"><ele>728.0</ele><time>2026-03-07T08:22:19.016Z</time></trkpt><trkpt lat="37.0966558" lon="-3.7306293"><ele>728.0</ele><time>2026-03-07T08:22:21.006Z</time></trkpt><trkpt lat="37.0965982" lon="-3.730494"><ele>728.0</ele><time>2026-03-07T08:22:23.023Z</time></trkpt><trkpt lat="37.0965088" lon="-3.7304223"><ele>728.0</ele><time>2026-03-07T08:22:25.009Z</time></trkpt><trkpt lat="37.0963752" lon="-3.730412"><ele>728.0</ele><time>2026-03-07T08:22:27.017Z</time></trkpt><trkpt lat="37.0963032" lon="-3.730401"><ele>728.0</ele><time>2026-03-07T08:22:28.007Z</time></trkpt><trkpt lat="37.0962268" lon="-3.7303983"><ele>728.3333333333333</ele><time>2026-03-07T08:22:29.011Z</time></trkpt><trkpt lat="37.0961565" lon="-3.7304347"><ele>728.6666666666666</ele><time>2026-03-07T08:22:30.009Z</time></trkpt><trkpt lat="37.0960819" lon="-3.7304905"><ele>729.0</ele><time>2026-03-07T08:22:31.004Z</time></trkpt><trkpt lat="37.0960241" lon="-3.7305732"><ele>729.3333333333334</ele><time>2026-03-07T08:22:31.996Z</time></trkpt><trkpt lat="37.0959744" lon="-3.7306634"><ele>729.6666666666667</ele><time>2026-03-07T08:22:33.012Z</time></trkpt><trkpt lat="37.0959544" lon="-3.7307695"><ele>730.0</ele><time>2026-03-07T08:22:33.998Z</time></trkpt><trkpt lat="37.0959353" lon="-3.7308831"><ele>730.0</ele><time>2026-03-07T08:22:35.006Z</time></trkpt><trkpt lat="37.0959298" lon="-3.731003"><ele>730.0</ele><time>2026-03-07T08:22:36.006Z</time></trkpt><trkpt lat="37.095927" lon="-3.7311244"><ele>730.0</ele><time>2026-03-07T08:22:37.007Z</time></trkpt><trkpt lat="37.0959203" lon="-3.7312433"><ele>730.0</ele><time>2026-03-07T08:22:38.018Z</time></trkpt><trkpt lat="37.0959017" lon="-3.7313465"><ele>730.0</ele><time>2026-03-07T08:22:39.008Z</time></trkpt><trkpt lat="37.0958518" lon="-3.7314332"><ele>730.0</ele><time>2026-03-07T08:22:39.995Z</time></trkpt><trkpt lat="37.0957862" lon="-3.7315316"><ele>730.0</ele><time>2026-03-07T08:22:41.005Z</time></trkpt><trkpt lat="37.0957117" lon="-3.7316353"><ele>730.0</ele><time>2026-03-07T08:22:42.032Z</time></trkpt><trkpt lat="37.0956268" lon="-3.7317307"><ele>730.0</ele><time>2026-03-07T08:22:43.017Z</time></trkpt><trkpt lat="37.0955414" lon="-3.7318376"><ele>730.0</ele><time>2026-03-07T08:22:44.003Z</time></trkpt><trkpt lat="37.0954513" lon="-3.7319516"><ele>730.75</ele><time>2026-03-07T08:22:45.003Z</time></trkpt><trkpt lat="37.0953555" lon="-3.7320678"><ele>731.5</ele><time>2026-03-07T08:22:46.008Z</time></trkpt><trkpt lat="37.0952544" lon="-3.732188"><ele>732.25</ele><time>2026-03-07T08:22:47.009Z</time></trkpt><trkpt lat="37.0951468" lon="-3.7323108"><ele>733.0</ele><time>2026-03-07T08:22:48.01Z</time></trkpt><trkpt lat="37.0950369" lon="-3.7324362"><ele>733.0</ele><time>2026-03-07T08:22:49.008Z</time></trkpt><trkpt lat="37.0949232" lon="-3.7325683"><ele>733.0</ele><time>2026-03-07T08:22:50.008Z</time></trkpt><trkpt lat="37.0948104" lon="-3.7327076"><ele>733.0</ele><time>2026-03-07T08:22:51.015Z</time></trkpt><trkpt lat="37.0946953" lon="-3.7328476"><ele>734.3333333333334</ele><time>2026-03-07T08:22:52.009Z</time></trkpt><trkpt lat="37.0945766" lon="-3.7329911"><ele>735.6666666666666</ele><time>2026-03-07T08:22:52.993Z</time></trkpt><trkpt lat="37.094453" lon="-3.7331381"><ele>737.0</ele><time>2026-03-07T08:22:54.03Z</time></trkpt><trkpt lat="37.0943297" lon="-3.7332891"><ele>737.0</ele><time>2026-03-07T08:22:55.014Z</time></trkpt><trkpt lat="37.0942057" lon="-3.7334401"><ele>737.0</ele><time>2026-03-07T08:22:56.005Z</time></trkpt><trkpt lat="37.0940811" lon="-3.7335916"><ele>737.0</ele><time>2026-03-07T08:22:56.995Z</time></trkpt><trkpt lat="37.0939549" lon="-3.7337446"><ele>737.6666666666666</ele><time>2026-03-07T08:22:58.009Z</time></trkpt><trkpt lat="37.093826" lon="-3.7338994"><ele>738.3333333333334</ele><time>2026-03-07T08:22:59.018Z</time></trkpt><trkpt lat="37.0936962" lon="-3.7340555"><ele>739.0</ele><time>2026-03-07T08:23:00.029Z</time></trkpt><trkpt lat="37.0935671" lon="-3.7342127"><ele>739.0</ele><time>2026-03-07T08:23:01.013Z</time></trkpt><trkpt lat="37.0934398" lon="-3.7343646"><ele>739.0</ele><time>2026-03-07T08:23:02.01Z</time></trkpt><trkpt lat="37.0933172" lon="-3.7345108"><ele>739.0</ele><time>2026-03-07T08:23:03.016Z</time></trkpt><trkpt lat="37.0931989" lon="-3.734654"><ele>739.6666666666667</ele><time>2026-03-07T08:23:04.017Z</time></trkpt><trkpt lat="37.0930817" lon="-3.7347967"><ele>740.3333333333334</ele><time>2026-03-07T08:23:05.016Z</time></trkpt><trkpt lat="37.0929615" lon="-3.7349397"><ele>741.0</ele><time>2026-03-07T08:23:06.006Z</time></trkpt><trkpt lat="37.0928396" lon="-3.7350849"><ele>741.0</ele><time>2026-03-07T08:23:07.008Z</time></trkpt><trkpt lat="37.0927172" lon="-3.7352316"><ele>741.0</ele><time>2026-03-07T08:23:08.042Z</time></trkpt><trkpt lat="37.0925961" lon="-3.7353794"><ele>741.0</ele><time>2026-03-07T08:23:09.027Z</time></trkpt><trkpt lat="37.0924763" lon="-3.7355253"><ele>741.3333333333334</ele><time>2026-03-07T08:23:10.015Z</time></trkpt><trkpt lat="37.0923587" lon="-3.7356709"><ele>741.6666666666667</ele><time>2026-03-07T08:23:11.02Z</time></trkpt><trkpt lat="37.0922416" lon="-3.735816"><ele>742.0</ele><time>2026-03-07T08:23:12.013Z</time></trkpt><trkpt lat="37.092123" lon="-3.7359618"><ele>742.3333333333334</ele><time>2026-03-07T08:23:13.013Z</time></trkpt><trkpt lat="37.092" lon="-3.7361049"><ele>742.6666666666666</ele><time>2026-03-07T08:23:14.005Z</time></trkpt><trkpt lat="37.0918775" lon="-3.7362504"><ele>743.0</ele><time>2026-03-07T08:23:15.031Z</time></trkpt><trkpt lat="37.0917562" lon="-3.7363952"><ele>743.0</ele><time>2026-03-07T08:23:16.01Z</time></trkpt><trkpt lat="37.0916368" lon="-3.7365383"><ele>743.0</ele><time>2026-03-07T08:23:17.008Z</time></trkpt><trkpt lat="37.0915223" lon="-3.7366838"><ele>743.0</ele><time>2026-03-07T08:23:18.01Z</time></trkpt><trkpt lat="37.0914114" lon="-3.7368291"><ele>743.3333333333333</ele><time>2026-03-07T08:23:19.01Z</time></trkpt><trkpt lat="37.0913009" lon="-3.7369693"><ele>743.6666666666666</ele><time>2026-03-07T08:23:20.01Z</time></trkpt><trkpt lat="37.0911905" lon="-3.7371039"><ele>744.0</ele><time>2026-03-07T08:23:21.01Z</time></trkpt><trkpt lat="37.0910804" lon="-3.7372345"><ele>744.0</ele><time>2026-03-07T08:23:22.016Z</time></trkpt><trkpt lat="37.0909683" lon="-3.737356"><ele>744.0</ele><time>2026-03-07T08:23:23.006Z</time></trkpt><trkpt lat="37.0908527" lon="-3.7374702"><ele>744.0</ele><time>2026-03-07T08:23:24.012Z</time></trkpt><trkpt lat="37.0907356" lon="-3.7375783"><ele>744.0</ele><time>2026-03-07T08:23:25.005Z</time></trkpt><trkpt lat="37.0906209" lon="-3.7376806"><ele>744.75</ele><time>2026-03-07T08:23:26.009Z</time></trkpt><trkpt lat="37.0905033" lon="-3.7377725"><ele>745.5</ele><time>2026-03-07T08:23:27.009Z</time></trkpt><trkpt lat="37.0903852" lon="-3.7378617"><ele>746.25</ele><time>2026-03-07T08:23:28.009Z</time></trkpt><trkpt lat="37.0902616" lon="-3.7379486"><ele>747.0</ele><time>2026-03-07T08:23:29.005Z</time></trkpt><trkpt lat="37.0901346" lon="-3.7380424"><ele>747.0</ele><time>2026-03-07T08:23:30.003Z</time></trkpt><trkpt lat="37.0900059" lon="-3.7381382"><ele>747.0</ele><time>2026-03-07T08:23:31.004Z</time></trkpt><trkpt lat="37.0898862" lon="-3.7382331"><ele>747.0</ele><time>2026-03-07T08:23:32.007Z</time></trkpt><trkpt lat="37.0897718" lon="-3.7383205"><ele>747.0</ele><time>2026-03-07T08:23:32.996Z</time></trkpt><trkpt lat="37.0896425" lon="-3.7383751"><ele>747.5</ele><time>2026-03-07T08:23:34.01Z</time></trkpt><trkpt lat="37.0895055" lon="-3.7384244"><ele>748.0</ele><time>2026-03-07T08:23:35.014Z</time></trkpt><trkpt lat="37.0893642" lon="-3.7384774"><ele>748.5</ele><time>2026-03-07T08:23:36.01Z</time></trkpt><trkpt lat="37.0892177" lon="-3.7385302"><ele>749.0</ele><time>2026-03-07T08:23:37.001Z</time></trkpt><trkpt lat="37.0890697" lon="-3.738592"><ele>750.0</ele><time>2026-03-07T08:23:38.007Z</time></trkpt><trkpt lat="37.0889241" lon="-3.7386553"><ele>751.0</ele><time>2026-03-07T08:23:39Z</time></trkpt><trkpt lat="37.0887839" lon="-3.7387163"><ele>752.0</ele><time>2026-03-07T08:23:40.013Z</time></trkpt><trkpt lat="37.0886506" lon="-3.7387822"><ele>753.0</ele><time>2026-03-07T08:23:41.015Z</time></trkpt><trkpt lat="37.0885316" lon="-3.738885"><ele>753.0</ele><time>2026-03-07T08:23:42.022Z</time></trkpt><trkpt lat="37.0884072" lon="-3.738994"><ele>753.0</ele><time>2026-03-07T08:23:43.008Z</time></trkpt><trkpt lat="37.0882893" lon="-3.7391269"><ele>753.0</ele><time>2026-03-07T08:23:44.005Z</time></trkpt><trkpt lat="37.0881666" lon="-3.7392553"><ele>754.0</ele><time>2026-03-07T08:23:45.007Z</time></trkpt><trkpt lat="37.088044" lon="-3.7393752"><ele>755.0</ele><time>2026-03-07T08:23:46.002Z</time></trkpt><trkpt lat="37.0879262" lon="-3.7394926"><ele>756.0</ele><time>2026-03-07T08:23:47.001Z</time></trkpt><trkpt lat="37.0878056" lon="-3.7396056"><ele>756.25</ele><time>2026-03-07T08:23:48Z</time></trkpt><trkpt lat="37.0876837" lon="-3.7397128"><ele>756.5</ele><time>2026-03-07T08:23:49.004Z</time></trkpt><trkpt lat="37.0875581" lon="-3.7398081"><ele>756.75</ele><time>2026-03-07T08:23:50.007Z</time></trkpt><trkpt lat="37.0874426" lon="-3.7399262"><ele>757.0</ele><time>2026-03-07T08:23:51.004Z</time></trkpt><trkpt lat="37.0873216" lon="-3.7400356"><ele>757.3333333333334</ele><time>2026-03-07T08:23:52.003Z</time></trkpt><trkpt lat="37.0871999" lon="-3.7401482"><ele>757.6666666666666</ele><time>2026-03-07T08:23:53Z</time></trkpt><trkpt lat="37.0870806" lon="-3.7402683"><ele>758.0</ele><time>2026-03-07T08:23:54.003Z</time></trkpt><trkpt lat="37.0869607" lon="-3.7403906"><ele>758.0</ele><time>2026-03-07T08:23:55.003Z</time></trkpt><trkpt lat="37.0868376" lon="-3.7405134"><ele>758.0</ele><time>2026-03-07T08:23:56.026Z</time></trkpt><trkpt lat="37.0867131" lon="-3.7406336"><ele>758.0</ele><time>2026-03-07T08:23:57.009Z</time></trkpt><trkpt lat="37.0865942" lon="-3.740748"><ele>758.25</ele><time>2026-03-07T08:23:58.007Z</time></trkpt><trkpt lat="37.0864825" lon="-3.7408532"><ele>758.5</ele><time>2026-03-07T08:23:59.001Z</time></trkpt><trkpt lat="37.0863762" lon="-3.7409503"><ele>758.75</ele><time>2026-03-07T08:24:00.017Z</time></trkpt><trkpt lat="37.0862775" lon="-3.7410488"><ele>759.0</ele><time>2026-03-07T08:24:01.008Z</time></trkpt><trkpt lat="37.0861795" lon="-3.7411424"><ele>759.0</ele><time>2026-03-07T08:24:02.009Z</time></trkpt><trkpt lat="37.0860781" lon="-3.7412357"><ele>759.0</ele><time>2026-03-07T08:24:03.005Z</time></trkpt><trkpt lat="37.085976" lon="-3.7413424"><ele>759.0</ele><time>2026-03-07T08:24:04.016Z</time></trkpt><trkpt lat="37.0858733" lon="-3.7414468"><ele>759.0</ele><time>2026-03-07T08:24:05.013Z</time></trkpt><trkpt lat="37.0857747" lon="-3.741539"><ele>760.0</ele><time>2026-03-07T08:24:06.009Z</time></trkpt><trkpt lat="37.0856731" lon="-3.7416114"><ele>761.0</ele><time>2026-03-07T08:24:07.009Z</time></trkpt><trkpt lat="37.0855644" lon="-3.7416818"><ele>762.0</ele><time>2026-03-07T08:24:08.003Z</time></trkpt><trkpt lat="37.0854463" lon="-3.7417476"><ele>763.0</ele><time>2026-03-07T08:24:09.011Z</time></trkpt><trkpt lat="37.085319" lon="-3.7418087"><ele>763.0</ele><time>2026-03-07T08:24:10.01Z</time></trkpt><trkpt lat="37.0851873" lon="-3.7418692"><ele>763.0</ele><time>2026-03-07T08:24:11.02Z</time></trkpt><trkpt lat="37.0850529" lon="-3.7419316"><ele>763.0</ele><time>2026-03-07T08:24:12.018Z</time></trkpt><trkpt lat="37.0849152" lon="-3.7419987"><ele>763.0</ele><time>2026-03-07T08:24:13.02Z</time></trkpt><trkpt lat="37.0847718" lon="-3.7420634"><ele>764.0</ele><time>2026-03-07T08:24:14.01Z</time></trkpt><trkpt lat="37.0846262" lon="-3.7421326"><ele>765.0</ele><time>2026-03-07T08:24:15.009Z</time></trkpt><trkpt lat="37.0844764" lon="-3.7421949"><ele>766.0</ele><time>2026-03-07T08:24:16.006Z</time></trkpt><trkpt lat="37.0843254" lon="-3.7422631"><ele>766.0</ele><time>2026-03-07T08:24:17.042Z</time></trkpt><trkpt lat="37.0841733" lon="-3.7423417"><ele>766.0</ele><time>2026-03-07T08:24:18.013Z</time></trkpt><trkpt lat="37.0840199" lon="-3.7424153"><ele>766.0</ele><time>2026-03-07T08:24:19.022Z</time></trkpt><trkpt lat="37.083869" lon="-3.7424898"><ele>766.0</ele><time>2026-03-07T08:24:20.009Z</time></trkpt><trkpt lat="37.0837189" lon="-3.7425549"><ele>766.0</ele><time>2026-03-07T08:24:21.009Z</time></trkpt><trkpt lat="37.0835684" lon="-3.742616"><ele>766.0</ele><time>2026-03-07T08:24:22.021Z</time></trkpt><trkpt lat="37.0834168" lon="-3.7426823"><ele>766.3333333333334</ele><time>2026-03-07T08:24:23.007Z</time></trkpt><trkpt lat="37.0832639" lon="-3.7427559"><ele>766.6666666666666</ele><time>2026-03-07T08:24:24.01Z</time></trkpt><trkpt lat="37.0831106" lon="-3.7428286"><ele>767.0</ele><time>2026-03-07T08:24:24.996Z</time></trkpt><trkpt lat="37.0829578" lon="-3.7428954"><ele>767.0</ele><time>2026-03-07T08:24:26.011Z</time></trkpt><trkpt lat="37.0828078" lon="-3.742963"><ele>767.0</ele><time>2026-03-07T08:24:27.014Z</time></trkpt><trkpt lat="37.0826598" lon="-3.7430317"><ele>767.0</ele><time>2026-03-07T08:24:28.016Z</time></trkpt><trkpt lat="37.0825165" lon="-3.743102"><ele>767.5</ele><time>2026-03-07T08:24:29.009Z</time></trkpt><trkpt lat="37.0823814" lon="-3.7431744"><ele>768.0</ele><time>2026-03-07T08:24:30.003Z</time></trkpt><trkpt lat="37.082255" lon="-3.7432627"><ele>768.5</ele><time>2026-03-07T08:24:31.015Z</time></trkpt><trkpt lat="37.0821308" lon="-3.7433629"><ele>769.0</ele><time>2026-03-07T08:24:32.006Z</time></trkpt><trkpt lat="37.0820139" lon="-3.743488"><ele>769.3333333333333</ele><time>2026-03-07T08:24:33.02Z</time></trkpt><trkpt lat="37.0818901" lon="-3.7436172"><ele>769.6666666666667</ele><time>2026-03-07T08:24:34.011Z</time></trkpt><trkpt lat="37.0817614" lon="-3.7437451"><ele>770.0</ele><time>2026-03-07T08:24:35.011Z</time></trkpt><trkpt lat="37.0816373" lon="-3.7438837"><ele>770.6666666666667</ele><time>2026-03-07T08:24:36.016Z</time></trkpt><trkpt lat="37.0815113" lon="-3.7440183"><ele>771.3333333333333</ele><time>2026-03-07T08:24:37.003Z</time></trkpt><trkpt lat="37.0813837" lon="-3.7441521"><ele>772.0</ele><time>2026-03-07T08:24:38.003Z</time></trkpt><trkpt lat="37.0812552" lon="-3.7442873"><ele>772.3333333333333</ele><time>2026-03-07T08:24:38.999Z</time></trkpt><trkpt lat="37.0811272" lon="-3.7444259"><ele>772.6666666666667</ele><time>2026-03-07T08:24:40.007Z</time></trkpt><trkpt lat="37.0809987" lon="-3.7445683"><ele>773.0</ele><time>2026-03-07T08:24:40.999Z</time></trkpt><trkpt lat="37.0808668" lon="-3.7447112"><ele>774.0</ele><time>2026-03-07T08:24:42.006Z</time></trkpt><trkpt lat="37.0807315" lon="-3.7448534"><ele>775.0</ele><time>2026-03-07T08:24:43.008Z</time></trkpt><trkpt lat="37.0805965" lon="-3.7449968"><ele>776.0</ele><time>2026-03-07T08:24:44.003Z</time></trkpt><trkpt lat="37.0804621" lon="-3.7451395"><ele>775.0</ele><time>2026-03-07T08:24:45.003Z</time></trkpt><trkpt lat="37.080329" lon="-3.7452807"><ele>774.0</ele><time>2026-03-07T08:24:46.017Z</time></trkpt><trkpt lat="37.080195" lon="-3.7454191"><ele>773.0</ele><time>2026-03-07T08:24:47.025Z</time></trkpt><trkpt lat="37.0800644" lon="-3.7455622"><ele>774.6666666666667</ele><time>2026-03-07T08:24:48.006Z</time></trkpt><trkpt lat="37.0799333" lon="-3.7457029"><ele>776.3333333333333</ele><time>2026-03-07T08:24:49.008Z</time></trkpt><trkpt lat="37.0798015" lon="-3.7458409"><ele>778.0</ele><time>2026-03-07T08:24:50.009Z</time></trkpt><trkpt lat="37.0796739" lon="-3.745983"><ele>777.6666666666666</ele><time>2026-03-07T08:24:51.02Z</time></trkpt><trkpt lat="37.0795463" lon="-3.7461239"><ele>777.3333333333333</ele><time>2026-03-07T08:24:52.013Z</time></trkpt><trkpt lat="37.0794191" lon="-3.7462623"><ele>777.0</ele><time>2026-03-07T08:24:53.009Z</time></trkpt><trkpt lat="37.0792917" lon="-3.7463959"><ele>777.0</ele><time>2026-03-07T08:24:54.021Z</time></trkpt><trkpt lat="37.0791672" lon="-3.7465282"><ele>777.0</ele><time>2026-03-07T08:24:55.005Z</time></trkpt><trkpt lat="37.0790474" lon="-3.7466617"><ele>777.0</ele><time>2026-03-07T08:24:55.998Z</time></trkpt><trkpt lat="37.0789274" lon="-3.7467886"><ele>777.75</ele><time>2026-03-07T08:24:57.009Z</time></trkpt><trkpt lat="37.078818" lon="-3.7469181"><ele>778.5</ele><time>2026-03-07T08:24:58.007Z</time></trkpt><trkpt lat="37.0787168" lon="-3.7470466"><ele>779.25</ele><time>2026-03-07T08:24:59.001Z</time></trkpt><trkpt lat="37.0786339" lon="-3.7471836"><ele>780.0</ele><time>2026-03-07T08:25:00.005Z</time></trkpt><trkpt lat="37.0785602" lon="-3.7473131"><ele>780.0</ele><time>2026-03-07T08:25:01.007Z</time></trkpt><trkpt lat="37.0785019" lon="-3.7474394"><ele>780.0</ele><time>2026-03-07T08:25:02.009Z</time></trkpt><trkpt lat="37.0784489" lon="-3.7475635"><ele>780.0</ele><time>2026-03-07T08:25:03.019Z</time></trkpt><trkpt lat="37.0783957" lon="-3.7476863"><ele>780.0</ele><time>2026-03-07T08:25:04.017Z</time></trkpt><trkpt lat="37.0783405" lon="-3.7478059"><ele>780.2</ele><time>2026-03-07T08:25:05.027Z</time></trkpt><trkpt lat="37.0782788" lon="-3.7479193"><ele>780.4</ele><time>2026-03-07T08:25:06.003Z</time></trkpt><trkpt lat="37.0782146" lon="-3.7480278"><ele>780.5999999999999</ele><time>2026-03-07T08:25:07.014Z</time></trkpt><trkpt lat="37.0781474" lon="-3.7481296"><ele>780.8</ele><time>2026-03-07T08:25:08.007Z</time></trkpt><trkpt lat="37.0780715" lon="-3.7482156"><ele>781.0</ele><time>2026-03-07T08:25:09.024Z</time></trkpt><trkpt lat="37.0779966" lon="-3.7482994"><ele>781.5999999999999</ele><time>2026-03-07T08:25:10.009Z</time></trkpt><trkpt lat="37.0779174" lon="-3.7483721"><ele>782.2</ele><time>2026-03-07T08:25:11.007Z</time></trkpt><trkpt lat="37.0778377" lon="-3.7484407"><ele>782.8</ele><time>2026-03-07T08:25:12.017Z</time></trkpt><trkpt lat="37.0777515" lon="-3.7484982"><ele>783.4000000000001</ele><time>2026-03-07T08:25:13.015Z</time></trkpt><trkpt lat="37.0776564" lon="-3.7485381"><ele>784.0</ele><time>2026-03-07T08:25:14.03Z</time></trkpt><trkpt lat="37.0775574" lon="-3.7485654"><ele>784.0</ele><time>2026-03-07T08:25:15.005Z</time></trkpt><trkpt lat="37.0774551" lon="-3.7485838"><ele>784.0</ele><time>2026-03-07T08:25:16.027Z</time></trkpt><trkpt lat="37.0773452" lon="-3.7485952"><ele>784.0</ele><time>2026-03-07T08:25:17.017Z</time></trkpt><trkpt lat="37.0772241" lon="-3.7485959"><ele>784.0</ele><time>2026-03-07T08:25:18.06Z</time></trkpt><trkpt lat="37.0770968" lon="-3.7485937"><ele>784.5</ele><time>2026-03-07T08:25:19.07Z</time></trkpt><trkpt lat="37.0769641" lon="-3.7485977"><ele>785.0</ele><time>2026-03-07T08:25:20.096Z</time></trkpt><trkpt lat="37.0768247" lon="-3.7485934"><ele>785.5</ele><time>2026-03-07T08:25:21.043Z</time></trkpt><trkpt lat="37.076681" lon="-3.7485821"><ele>786.0</ele><time>2026-03-07T08:25:22.029Z</time></trkpt><trkpt lat="37.0765319" lon="-3.7485888"><ele>788.0</ele><time>2026-03-07T08:25:23.012Z</time></trkpt><trkpt lat="37.0763739" lon="-3.7485984"><ele>790.0</ele><time>2026-03-07T08:25:24.004Z</time></trkpt><trkpt lat="37.0762091" lon="-3.7485968"><ele>792.0</ele><time>2026-03-07T08:25:25.013Z</time></trkpt><trkpt lat="37.0760446" lon="-3.7485893"><ele>792.0</ele><time>2026-03-07T08:25:26.017Z</time></trkpt><trkpt lat="37.0758796" lon="-3.7485797"><ele>792.0</ele><time>2026-03-07T08:25:27.006Z</time></trkpt><trkpt lat="37.075719" lon="-3.7485802"><ele>792.0</ele><time>2026-03-07T08:25:28.021Z</time></trkpt><trkpt lat="37.0755592" lon="-3.7485682"><ele>793.75</ele><time>2026-03-07T08:25:29.001Z</time></trkpt><trkpt lat="37.0754034" lon="-3.7485611"><ele>795.5</ele><time>2026-03-07T08:25:30.002Z</time></trkpt><trkpt lat="37.07526" lon="-3.7485514"><ele>797.25</ele><time>2026-03-07T08:25:31.002Z</time></trkpt><trkpt lat="37.0751236" lon="-3.7485399"><ele>799.0</ele><time>2026-03-07T08:25:32.006Z</time></trkpt><trkpt lat="37.0749947" lon="-3.7485217"><ele>801.0</ele><time>2026-03-07T08:25:33.013Z</time></trkpt><trkpt lat="37.074872" lon="-3.7485145"><ele>803.0</ele><time>2026-03-07T08:25:34.011Z</time></trkpt><trkpt lat="37.0747564" lon="-3.7485084"><ele>805.0</ele><time>2026-03-07T08:25:35.006Z</time></trkpt><trkpt lat="37.0746372" lon="-3.7485199"><ele>807.0</ele><time>2026-03-07T08:25:36.013Z</time></trkpt><trkpt lat="37.0745133" lon="-3.7485302"><ele>807.0</ele><time>2026-03-07T08:25:37.002Z</time></trkpt><trkpt lat="37.0743918" lon="-3.7485331"><ele>807.0</ele><time>2026-03-07T08:25:38.008Z</time></trkpt><trkpt lat="37.0742856" lon="-3.7485243"><ele>807.0</ele><time>2026-03-07T08:25:39.005Z</time></trkpt><trkpt lat="37.074198" lon="-3.7485295"><ele>807.0</ele><time>2026-03-07T08:25:40.03Z</time></trkpt><trkpt lat="37.0741076" lon="-3.7485263"><ele>807.0</ele><time>2026-03-07T08:25:41.008Z</time></trkpt><trkpt lat="37.0740126" lon="-3.7484997"><ele>808.2</ele><time>2026-03-07T08:25:42.007Z</time></trkpt><trkpt lat="37.0739243" lon="-3.7484464"><ele>809.4000000000001</ele><time>2026-03-07T08:25:43.003Z</time></trkpt><trkpt lat="37.0738265" lon="-3.7484219"><ele>810.5999999999999</ele><time>2026-03-07T08:25:44.007Z</time></trkpt><trkpt lat="37.0737212" lon="-3.7484127"><ele>811.8</ele><time>2026-03-07T08:25:45.008Z</time></trkpt><trkpt lat="37.0736066" lon="-3.7484189"><ele>813.0</ele><time>2026-03-07T08:25:46.027Z</time></trkpt><trkpt lat="37.0735001" lon="-3.7484154"><ele>813.0</ele><time>2026-03-07T08:25:46.992Z</time></trkpt><trkpt lat="37.073391" lon="-3.7484207"><ele>813.0</ele><time>2026-03-07T08:25:48.002Z</time></trkpt><trkpt lat="37.07328" lon="-3.7484251"><ele>813.0</ele><time>2026-03-07T08:25:49.005Z</time></trkpt><trkpt lat="37.0731731" lon="-3.7484228"><ele>813.0</ele><time>2026-03-07T08:25:50.009Z</time></trkpt><trkpt lat="37.073073" lon="-3.7484355"><ele>813.0</ele><time>2026-03-07T08:25:51.013Z</time></trkpt><trkpt lat="37.072982" lon="-3.7484539"><ele>814.4</ele><time>2026-03-07T08:25:52.013Z</time></trkpt><trkpt lat="37.0728896" lon="-3.7484675"><ele>815.8</ele><time>2026-03-07T08:25:53.006Z</time></trkpt><trkpt lat="37.0728" lon="-3.7484793"><ele>817.2</ele><time>2026-03-07T08:25:54.004Z</time></trkpt><trkpt lat="37.0727109" lon="-3.7484868"><ele>818.6</ele><time>2026-03-07T08:25:55.013Z</time></trkpt><trkpt lat="37.072619" lon="-3.7484857"><ele>820.0</ele><time>2026-03-07T08:25:56.015Z</time></trkpt><trkpt lat="37.0725271" lon="-3.7484888"><ele>821.6</ele><time>2026-03-07T08:25:57.005Z</time></trkpt><trkpt lat="37.0724369" lon="-3.7484919"><ele>823.2</ele><time>2026-03-07T08:25:58.01Z</time></trkpt><trkpt lat="37.07235" lon="-3.748497"><ele>824.8</ele><time>2026-03-07T08:25:59.014Z</time></trkpt><trkpt lat="37.0722618" lon="-3.7484971"><ele>826.4</ele><time>2026-03-07T08:26:00.019Z</time></trkpt><trkpt lat="37.0721687" lon="-3.7484931"><ele>828.0</ele><time>2026-03-07T08:26:00.999Z</time></trkpt><trkpt lat="37.0720732" lon="-3.7484885"><ele>828.0</ele><time>2026-03-07T08:26:02.006Z</time></trkpt><trkpt lat="37.0719782" lon="-3.7484809"><ele>828.0</ele><time>2026-03-07T08:26:03.008Z</time></trkpt><trkpt lat="37.0718887" lon="-3.7484813"><ele>828.0</ele><time>2026-03-07T08:26:04.009Z</time></trkpt><trkpt lat="37.0718015" lon="-3.7484805"><ele>828.0</ele><time>2026-03-07T08:26:05.005Z</time></trkpt><trkpt lat="37.071714" lon="-3.7484697"><ele>828.0</ele><time>2026-03-07T08:26:06.006Z</time></trkpt><trkpt lat="37.0716259" lon="-3.7484614"><ele>828.0</ele><time>2026-03-07T08:26:07.011Z</time></trkpt><trkpt lat="37.0715404" lon="-3.7484592"><ele>829.0</ele><time>2026-03-07T08:26:08.022Z</time></trkpt><trkpt lat="37.0714574" lon="-3.7484639"><ele>830.0</ele><time>2026-03-07T08:26:09.016Z</time></trkpt><trkpt lat="37.0713645" lon="-3.7484683"><ele>831.0</ele><time>2026-03-07T08:26:10.005Z</time></trkpt><trkpt lat="37.0712547" lon="-3.7484838"><ele>832.0</ele><time>2026-03-07T08:26:11.011Z</time></trkpt><trkpt lat="37.0711399" lon="-3.748496"><ele>833.0</ele><time>2026-03-07T08:26:12.006Z</time></trkpt><trkpt lat="37.0710246" lon="-3.7485094"><ele>833.0</ele><time>2026-03-07T08:26:13.016Z</time></trkpt><trkpt lat="37.0709145" lon="-3.7485034"><ele>833.0</ele><time>2026-03-07T08:26:14.006Z</time></trkpt><trkpt lat="37.0708059" lon="-3.7484969"><ele>833.0</ele><time>2026-03-07T08:26:15.001Z</time></trkpt><trkpt lat="37.0706946" lon="-3.7484922"><ele>833.0</ele><time>2026-03-07T08:26:16.007Z</time></trkpt><trkpt lat="37.0705755" lon="-3.7484902"><ele>833.0</ele><time>2026-03-07T08:26:16.998Z</time></trkpt><trkpt lat="37.0704511" lon="-3.7484858"><ele>834.0</ele><time>2026-03-07T08:26:18.014Z</time></trkpt><trkpt lat="37.0703237" lon="-3.7484765"><ele>835.0</ele><time>2026-03-07T08:26:19.014Z</time></trkpt><trkpt lat="37.0701931" lon="-3.7484675"><ele>836.0</ele><time>2026-03-07T08:26:20.01Z</time></trkpt><trkpt lat="37.0700577" lon="-3.7484556"><ele>837.0</ele><time>2026-03-07T08:26:21.004Z</time></trkpt><trkpt lat="37.0699205" lon="-3.7484468"><ele>838.75</ele><time>2026-03-07T08:26:22.032Z</time></trkpt><trkpt lat="37.069786" lon="-3.7484476"><ele>840.5</ele><time>2026-03-07T08:26:23.013Z</time></trkpt><trkpt lat="37.0696521" lon="-3.7484506"><ele>842.25</ele><time>2026-03-07T08:26:24.008Z</time></trkpt><trkpt lat="37.0695174" lon="-3.748457"><ele>844.0</ele><time>2026-03-07T08:26:25.008Z</time></trkpt><trkpt lat="37.0693803" lon="-3.7484706"><ele>844.0</ele><time>2026-03-07T08:26:26.02Z</time></trkpt><trkpt lat="37.0692415" lon="-3.7484684"><ele>844.0</ele><time>2026-03-07T08:26:27.014Z</time></trkpt><trkpt lat="37.0690952" lon="-3.7484662"><ele>844.0</ele><time>2026-03-07T08:26:28.015Z</time></trkpt><trkpt lat="37.0689495" lon="-3.7484584"><ele>844.0</ele><time>2026-03-07T08:26:29.007Z</time></trkpt><trkpt lat="37.0688071" lon="-3.7484469"><ele>845.4000000000001</ele><time>2026-03-07T08:26:30.02Z</time></trkpt><trkpt lat="37.0686816" lon="-3.7484428"><ele>846.8</ele><time>2026-03-07T08:26:31.019Z</time></trkpt><trkpt lat="37.0685751" lon="-3.7484281"><ele>848.2</ele><time>2026-03-07T08:26:32.001Z</time></trkpt><trkpt lat="37.0684847" lon="-3.748419"><ele>849.5999999999999</ele><time>2026-03-07T08:26:33.01Z</time></trkpt><trkpt lat="37.0684039" lon="-3.7484071"><ele>851.0</ele><time>2026-03-07T08:26:34.004Z</time></trkpt><trkpt lat="37.0682785" lon="-3.7483983"><ele>852.4</ele><time>2026-03-07T08:26:44.009Z</time></trkpt><trkpt lat="37.0681895" lon="-3.7484584"><ele>853.8</ele><time>2026-03-07T08:26:46.043Z</time></trkpt><trkpt lat="37.0681073" lon="-3.7484455"><ele>855.1999999999999</ele><time>2026-03-07T08:26:47.006Z</time></trkpt><trkpt lat="37.0679891" lon="-3.7484423"><ele>856.5999999999999</ele><time>2026-03-07T08:26:48.042Z</time></trkpt><trkpt lat="37.0678515" lon="-3.7484525"><ele>858.0</ele><time>2026-03-07T08:26:49.03Z</time></trkpt><trkpt lat="37.0677065" lon="-3.74846"><ele>858.0</ele><time>2026-03-07T08:26:50.006Z</time></trkpt><trkpt lat="37.0675473" lon="-3.7484458"><ele>858.0</ele><time>2026-03-07T08:26:51.041Z</time></trkpt><trkpt lat="37.0673935" lon="-3.7484345"><ele>858.0</ele><time>2026-03-07T08:26:52.005Z</time></trkpt><trkpt lat="37.0672319" lon="-3.7484385"><ele>859.0</ele><time>2026-03-07T08:26:52.997Z</time></trkpt><trkpt lat="37.067073" lon="-3.7484589"><ele>860.0</ele><time>2026-03-07T08:26:54.004Z</time></trkpt><trkpt lat="37.0669151" lon="-3.7484382"><ele>861.0</ele><time>2026-03-07T08:26:55.016Z</time></trkpt><trkpt lat="37.0667583" lon="-3.7484332"><ele>861.0</ele><time>2026-03-07T08:26:56.014Z</time></trkpt><trkpt lat="37.0666103" lon="-3.7484242"><ele>861.0</ele><time>2026-03-07T08:26:57.013Z</time></trkpt><trkpt lat="37.0664735" lon="-3.7484271"><ele>861.0</ele><time>2026-03-07T08:26:58.054Z</time></trkpt><trkpt lat="37.0663328" lon="-3.7484096"><ele>861.0</ele><time>2026-03-07T08:26:59.011Z</time></trkpt><trkpt lat="37.0661871" lon="-3.7483999"><ele>861.0</ele><time>2026-03-07T08:27:00Z</time></trkpt><trkpt lat="37.0660357" lon="-3.7483879"><ele>861.0</ele><time>2026-03-07T08:27:01.001Z</time></trkpt><trkpt lat="37.0658768" lon="-3.7483886"><ele>861.0</ele><time>2026-03-07T08:27:02.015Z</time></trkpt><trkpt lat="37.0657135" lon="-3.7483846"><ele>861.3333333333333</ele><time>2026-03-07T08:27:03.001Z</time></trkpt><trkpt lat="37.0655503" lon="-3.7483809"><ele>861.6666666666666</ele><time>2026-03-07T08:27:04.006Z</time></trkpt><trkpt lat="37.0653893" lon="-3.7483768"><ele>862.0</ele><time>2026-03-07T08:27:05.003Z</time></trkpt><trkpt lat="37.065232" lon="-3.7483769"><ele>862.0</ele><time>2026-03-07T08:27:06.003Z</time></trkpt><trkpt lat="37.0650762" lon="-3.7483831"><ele>862.0</ele><time>2026-03-07T08:27:07Z</time></trkpt><trkpt lat="37.0649228" lon="-3.7483879"><ele>862.0</ele><time>2026-03-07T08:27:08.005Z</time></trkpt><trkpt lat="37.0647726" lon="-3.7483887"><ele>862.75</ele><time>2026-03-07T08:27:09.016Z</time></trkpt><trkpt lat="37.0646284" lon="-3.7483896"><ele>863.5</ele><time>2026-03-07T08:27:10.027Z</time></trkpt><trkpt lat="37.0644869" lon="-3.7483846"><ele>864.25</ele><time>2026-03-07T08:27:11.007Z</time></trkpt><trkpt lat="37.0643446" lon="-3.7483826"><ele>865.0</ele><time>2026-03-07T08:27:12.005Z</time></trkpt><trkpt lat="37.0642003" lon="-3.7483847"><ele>866.75</ele><time>2026-03-07T08:27:13.011Z</time></trkpt><trkpt lat="37.0640539" lon="-3.7483918"><ele>868.5</ele><time>2026-03-07T08:27:14.014Z</time></trkpt><trkpt lat="37.0639074" lon="-3.7483997"><ele>870.25</ele><time>2026-03-07T08:27:15.012Z</time></trkpt><trkpt lat="37.0637582" lon="-3.7483963"><ele>872.0</ele><time>2026-03-07T08:27:16.01Z</time></trkpt><trkpt lat="37.0636127" lon="-3.7483845"><ele>872.0</ele><time>2026-03-07T08:27:17.008Z</time></trkpt><trkpt lat="37.063469" lon="-3.7483793"><ele>872.0</ele><time>2026-03-07T08:27:18.005Z</time></trkpt><trkpt lat="37.0633284" lon="-3.7483804"><ele>872.0</ele><time>2026-03-07T08:27:19.025Z</time></trkpt><trkpt lat="37.0631926" lon="-3.7483874"><ele>872.0</ele><time>2026-03-07T08:27:20.029Z</time></trkpt><trkpt lat="37.0630618" lon="-3.7483932"><ele>874.5</ele><time>2026-03-07T08:27:21.02Z</time></trkpt><trkpt lat="37.0629376" lon="-3.7483924"><ele>877.0</ele><time>2026-03-07T08:27:22.006Z</time></trkpt><trkpt lat="37.0628184" lon="-3.748395"><ele>879.5</ele><time>2026-03-07T08:27:23.003Z</time></trkpt><trkpt lat="37.0627011" lon="-3.7483907"><ele>882.0</ele><time>2026-03-07T08:27:24.01Z</time></trkpt><trkpt lat="37.0625844" lon="-3.7483837"><ele>882.0</ele><time>2026-03-07T08:27:25.009Z</time></trkpt><trkpt lat="37.0624657" lon="-3.7483802"><ele>882.0</ele><time>2026-03-07T08:27:26.014Z</time></trkpt><trkpt lat="37.0623427" lon="-3.7483777"><ele>882.0</ele><time>2026-03-07T08:27:27.006Z</time></trkpt><trkpt lat="37.0622136" lon="-3.748375"><ele>882.0</ele><time>2026-03-07T08:27:28.009Z</time></trkpt><trkpt lat="37.0620785" lon="-3.748378"><ele>883.5</ele><time>2026-03-07T08:27:29.01Z</time></trkpt><trkpt lat="37.061943" lon="-3.7483741"><ele>885.0</ele><time>2026-03-07T08:27:30.02Z</time></trkpt><trkpt lat="37.0618102" lon="-3.7483678"><ele>886.5</ele><time>2026-03-07T08:27:31.013Z</time></trkpt><trkpt lat="37.0616798" lon="-3.7483648"><ele>888.0</ele><time>2026-03-07T08:27:32.002Z</time></trkpt><trkpt lat="37.0615531" lon="-3.7483663"><ele>889.0</ele><time>2026-03-07T08:27:33.017Z</time></trkpt><trkpt lat="37.0614295" lon="-3.74837"><ele>890.0</ele><time>2026-03-07T08:27:34.015Z</time></trkpt><trkpt lat="37.0613057" lon="-3.7483699"><ele>891.0</ele><time>2026-03-07T08:27:35.008Z</time></trkpt><trkpt lat="37.0611821" lon="-3.7483716"><ele>892.0</ele><time>2026-03-07T08:27:36.01Z</time></trkpt><trkpt lat="37.0610599" lon="-3.7483762"><ele>892.0</ele><time>2026-03-07T08:27:37.009Z</time></trkpt><trkpt lat="37.0609376" lon="-3.7483864"><ele>892.0</ele><time>2026-03-07T08:27:38.009Z</time></trkpt><trkpt lat="37.0608206" lon="-3.7483949"><ele>892.0</ele><time>2026-03-07T08:27:39.017Z</time></trkpt><trkpt lat="37.060715" lon="-3.7484082"><ele>892.0</ele><time>2026-03-07T08:27:40.007Z</time></trkpt><trkpt lat="37.0606263" lon="-3.7484328"><ele>892.0</ele><time>2026-03-07T08:27:41.014Z</time></trkpt><trkpt lat="37.0605496" lon="-3.7484754"><ele>892.4000000000001</ele><time>2026-03-07T08:27:42.005Z</time></trkpt><trkpt lat="37.0604721" lon="-3.7485111"><ele>892.8000000000001</ele><time>2026-03-07T08:27:43.016Z</time></trkpt><trkpt lat="37.0603897" lon="-3.7485621"><ele>893.2</ele><time>2026-03-07T08:27:44.002Z</time></trkpt><trkpt lat="37.0602966" lon="-3.7485918"><ele>893.6</ele><time>2026-03-07T08:27:45.005Z</time></trkpt><trkpt lat="37.0602005" lon="-3.7485977"><ele>894.0</ele><time>2026-03-07T08:27:46.009Z</time></trkpt><trkpt lat="37.0601042" lon="-3.7486035"><ele>893.3333333333334</ele><time>2026-03-07T08:27:46.997Z</time></trkpt><trkpt lat="37.0600089" lon="-3.7486078"><ele>892.6666666666667</ele><time>2026-03-07T08:27:48.006Z</time></trkpt><trkpt lat="37.0599154" lon="-3.7486062"><ele>892.0</ele><time>2026-03-07T08:27:49.006Z</time></trkpt><trkpt lat="37.059825" lon="-3.7486027"><ele>891.3333333333334</ele><time>2026-03-07T08:27:50.012Z</time></trkpt><trkpt lat="37.0597406" lon="-3.7485992"><ele>890.6666666666667</ele><time>2026-03-07T08:27:51.004Z</time></trkpt><trkpt lat="37.0596588" lon="-3.7485944"><ele>890.0</ele><time>2026-03-07T08:27:52.01Z</time></trkpt><trkpt lat="37.0595766" lon="-3.748589"><ele>891.8</ele><time>2026-03-07T08:27:53.006Z</time></trkpt><trkpt lat="37.05949" lon="-3.7485764"><ele>893.6</ele><time>2026-03-07T08:27:53.991Z</time></trkpt><trkpt lat="37.0594035" lon="-3.7485396"><ele>895.4000000000001</ele><time>2026-03-07T08:27:55.028Z</time></trkpt><trkpt lat="37.0593203" lon="-3.748482"><ele>897.2</ele><time>2026-03-07T08:27:55.997Z</time></trkpt><trkpt lat="37.0592358" lon="-3.7484311"><ele>899.0</ele><time>2026-03-07T08:27:57.006Z</time></trkpt><trkpt lat="37.059147" lon="-3.7483763"><ele>901.4000000000001</ele><time>2026-03-07T08:27:58.008Z</time></trkpt><trkpt lat="37.0590469" lon="-3.7483282"><ele>903.8000000000001</ele><time>2026-03-07T08:27:59.012Z</time></trkpt><trkpt lat="37.0589441" lon="-3.748276"><ele>906.1999999999999</ele><time>2026-03-07T08:27:59.995Z</time></trkpt><trkpt lat="37.0588414" lon="-3.7482302"><ele>908.5999999999999</ele><time>2026-03-07T08:28:01.017Z</time></trkpt><trkpt lat="37.0587376" lon="-3.7481936"><ele>911.0</ele><time>2026-03-07T08:28:02.01Z</time></trkpt><trkpt lat="37.0586329" lon="-3.7481563"><ele>911.0</ele><time>2026-03-07T08:28:03.014Z</time></trkpt><trkpt lat="37.0585232" lon="-3.7481186"><ele>911.0</ele><time>2026-03-07T08:28:04.004Z</time></trkpt><trkpt lat="37.0584125" lon="-3.7480834"><ele>911.0</ele><time>2026-03-07T08:28:05.013Z</time></trkpt><trkpt lat="37.058305" lon="-3.748048"><ele>911.0</ele><time>2026-03-07T08:28:06.008Z</time></trkpt><trkpt lat="37.0581979" lon="-3.7480067"><ele>912.75</ele><time>2026-03-07T08:28:07.026Z</time></trkpt><trkpt lat="37.0580861" lon="-3.747963"><ele>914.5</ele><time>2026-03-07T08:28:08.01Z</time></trkpt><trkpt lat="37.0579715" lon="-3.7479225"><ele>916.25</ele><time>2026-03-07T08:28:09.004Z</time></trkpt><trkpt lat="37.0578559" lon="-3.7478842"><ele>918.0</ele><time>2026-03-07T08:28:10.017Z</time></trkpt><trkpt lat="37.0577368" lon="-3.7478447"><ele>918.0</ele><time>2026-03-07T08:28:11.002Z</time></trkpt><trkpt lat="37.0576146" lon="-3.7478088"><ele>918.0</ele><time>2026-03-07T08:28:12.027Z</time></trkpt><trkpt lat="37.0574919" lon="-3.7477673"><ele>918.0</ele><time>2026-03-07T08:28:13.005Z</time></trkpt><trkpt lat="37.0573691" lon="-3.747729"><ele>918.0</ele><time>2026-03-07T08:28:14.001Z</time></trkpt><trkpt lat="37.0572476" lon="-3.7476987"><ele>917.25</ele><time>2026-03-07T08:28:15.026Z</time></trkpt><trkpt lat="37.0571261" lon="-3.7476726"><ele>916.5</ele><time>2026-03-07T08:28:16Z</time></trkpt><trkpt lat="37.0570081" lon="-3.7476425"><ele>915.75</ele><time>2026-03-07T08:28:17.003Z</time></trkpt><trkpt lat="37.0568943" lon="-3.7476079"><ele>915.0</ele><time>2026-03-07T08:28:18.011Z</time></trkpt><trkpt lat="37.0567839" lon="-3.7475758"><ele>915.0</ele><time>2026-03-07T08:28:19.012Z</time></trkpt><trkpt lat="37.0566756" lon="-3.7475452"><ele>915.0</ele><time>2026-03-07T08:28:20.003Z</time></trkpt><trkpt lat="37.0565676" lon="-3.7475223"><ele>915.0</ele><time>2026-03-07T08:28:21.003Z</time></trkpt><trkpt lat="37.0564579" lon="-3.7475068"><ele>915.0</ele><time>2026-03-07T08:28:22.004Z</time></trkpt><trkpt lat="37.0563438" lon="-3.7475"><ele>915.0</ele><time>2026-03-07T08:28:23.008Z</time></trkpt><trkpt lat="37.0562278" lon="-3.7475048"><ele>914.8</ele><time>2026-03-07T08:28:24.013Z</time></trkpt><trkpt lat="37.0561148" lon="-3.7475191"><ele>914.6</ele><time>2026-03-07T08:28:25.017Z</time></trkpt><trkpt lat="37.0560046" lon="-3.7475344"><ele>914.4000000000001</ele><time>2026-03-07T08:28:25.998Z</time></trkpt><trkpt lat="37.0558973" lon="-3.7475497"><ele>914.2</ele><time>2026-03-07T08:28:27.005Z</time></trkpt><trkpt lat="37.0557925" lon="-3.7475651"><ele>914.0</ele><time>2026-03-07T08:28:28.005Z</time></trkpt><trkpt lat="37.0556881" lon="-3.7475823"><ele>913.6</ele><time>2026-03-07T08:28:29.003Z</time></trkpt><trkpt lat="37.0555902" lon="-3.7475791"><ele>913.2</ele><time>2026-03-07T08:28:29.998Z</time></trkpt><trkpt lat="37.0554899" lon="-3.7475751"><ele>912.8000000000001</ele><time>2026-03-07T08:28:31.008Z</time></trkpt><trkpt lat="37.0553903" lon="-3.7475446"><ele>912.4000000000001</ele><time>2026-03-07T08:28:32.007Z</time></trkpt><trkpt lat="37.0552928" lon="-3.7474905"><ele>912.0</ele><time>2026-03-07T08:28:32.999Z</time></trkpt><trkpt lat="37.0552005" lon="-3.7474121"><ele>912.0</ele><time>2026-03-07T08:28:34.009Z</time></trkpt><trkpt lat="37.0551157" lon="-3.7473225"><ele>912.0</ele><time>2026-03-07T08:28:35.006Z</time></trkpt><trkpt lat="37.055038" lon="-3.7472074"><ele>912.0</ele><time>2026-03-07T08:28:36.005Z</time></trkpt><trkpt lat="37.0549544" lon="-3.7470895"><ele>912.0</ele><time>2026-03-07T08:28:37.024Z</time></trkpt><trkpt lat="37.0548574" lon="-3.7469733"><ele>912.75</ele><time>2026-03-07T08:28:38.008Z</time></trkpt><trkpt lat="37.0547652" lon="-3.7468411"><ele>913.5</ele><time>2026-03-07T08:28:39.001Z</time></trkpt><trkpt lat="37.0546586" lon="-3.7467028"><ele>914.25</ele><time>2026-03-07T08:28:40.006Z</time></trkpt><trkpt lat="37.0545413" lon="-3.7465763"><ele>915.0</ele><time>2026-03-07T08:28:41.013Z</time></trkpt><trkpt lat="37.0544392" lon="-3.7464431"><ele>915.0</ele><time>2026-03-07T08:28:42Z</time></trkpt><trkpt lat="37.0543399" lon="-3.7463118"><ele>915.0</ele><time>2026-03-07T08:28:43.004Z</time></trkpt><trkpt lat="37.0542408" lon="-3.7461791"><ele>915.0</ele><time>2026-03-07T08:28:44.003Z</time></trkpt><trkpt lat="37.0541394" lon="-3.7460605"><ele>915.0</ele><time>2026-03-07T08:28:45.009Z</time></trkpt><trkpt lat="37.0540392" lon="-3.7459386"><ele>916.75</ele><time>2026-03-07T08:28:46.025Z</time></trkpt><trkpt lat="37.0539423" lon="-3.7458082"><ele>918.5</ele><time>2026-03-07T08:28:47.004Z</time></trkpt><trkpt lat="37.0538489" lon="-3.7456795"><ele>920.25</ele><time>2026-03-07T08:28:48.011Z</time></trkpt><trkpt lat="37.0537619" lon="-3.7455513"><ele>922.0</ele><time>2026-03-07T08:28:49.011Z</time></trkpt><trkpt lat="37.0536977" lon="-3.745411"><ele>922.0</ele><time>2026-03-07T08:28:50.003Z</time></trkpt><trkpt lat="37.0536461" lon="-3.7452665"><ele>922.0</ele><time>2026-03-07T08:28:51.003Z</time></trkpt><trkpt lat="37.0536011" lon="-3.7451182"><ele>922.0</ele><time>2026-03-07T08:28:52.011Z</time></trkpt><trkpt lat="37.0535585" lon="-3.7449711"><ele>922.0</ele><time>2026-03-07T08:28:53.01Z</time></trkpt><trkpt lat="37.0535171" lon="-3.7448139"><ele>923.75</ele><time>2026-03-07T08:28:54.005Z</time></trkpt><trkpt lat="37.0534614" lon="-3.7446511"><ele>925.5</ele><time>2026-03-07T08:28:55.006Z</time></trkpt><trkpt lat="37.0533958" lon="-3.7444945"><ele>927.25</ele><time>2026-03-07T08:28:56.006Z</time></trkpt><trkpt lat="37.053323" lon="-3.7443461"><ele>929.0</ele><time>2026-03-07T08:28:57.008Z</time></trkpt><trkpt lat="37.053254" lon="-3.7442002"><ele>930.5</ele><time>2026-03-07T08:28:58.023Z</time></trkpt><trkpt lat="37.0531827" lon="-3.7440663"><ele>932.0</ele><time>2026-03-07T08:28:59.021Z</time></trkpt><trkpt lat="37.0531034" lon="-3.7439492"><ele>933.5</ele><time>2026-03-07T08:29:00.021Z</time></trkpt><trkpt lat="37.0530113" lon="-3.7438515"><ele>935.0</ele><time>2026-03-07T08:29:01.008Z</time></trkpt><trkpt lat="37.052909" lon="-3.7437645"><ele>935.0</ele><time>2026-03-07T08:29:01.999Z</time></trkpt><trkpt lat="37.0527959" lon="-3.743698"><ele>935.0</ele><time>2026-03-07T08:29:03.007Z</time></trkpt><trkpt lat="37.0526787" lon="-3.743634"><ele>935.0</ele><time>2026-03-07T08:29:04.015Z</time></trkpt><trkpt lat="37.0525566" lon="-3.7435779"><ele>935.0</ele><time>2026-03-07T08:29:05.006Z</time></trkpt><trkpt lat="37.0524256" lon="-3.7435347"><ele>936.75</ele><time>2026-03-07T08:29:06.016Z</time></trkpt><trkpt lat="37.0522958" lon="-3.7434931"><ele>938.5</ele><time>2026-03-07T08:29:07.021Z</time></trkpt><trkpt lat="37.05217" lon="-3.743457"><ele>940.25</ele><time>2026-03-07T08:29:08.01Z</time></trkpt><trkpt lat="37.0520521" lon="-3.7434397"><ele>942.0</ele><time>2026-03-07T08:29:09.015Z</time></trkpt><trkpt lat="37.0519448" lon="-3.7434185"><ele>942.0</ele><time>2026-03-07T08:29:10.012Z</time></trkpt><trkpt lat="37.051845" lon="-3.7433887"><ele>942.0</ele><time>2026-03-07T08:29:11.011Z</time></trkpt><trkpt lat="37.0517533" lon="-3.743336"><ele>942.0</ele><time>2026-03-07T08:29:12.006Z</time></trkpt><trkpt lat="37.0516645" lon="-3.743261"><ele>942.0</ele><time>2026-03-07T08:29:13.005Z</time></trkpt><trkpt lat="37.0515803" lon="-3.7431722"><ele>942.0</ele><time>2026-03-07T08:29:14.022Z</time></trkpt><trkpt lat="37.0514987" lon="-3.7430651"><ele>941.5</ele><time>2026-03-07T08:29:15.015Z</time></trkpt><trkpt lat="37.0514146" lon="-3.7429405"><ele>941.0</ele><time>2026-03-07T08:29:16.014Z</time></trkpt><trkpt lat="37.0513328" lon="-3.7428209"><ele>940.5</ele><time>2026-03-07T08:29:16.998Z</time></trkpt><trkpt lat="37.0512501" lon="-3.7426964"><ele>940.0</ele><time>2026-03-07T08:29:18.008Z</time></trkpt><trkpt lat="37.0511662" lon="-3.7425839"><ele>939.5</ele><time>2026-03-07T08:29:19.011Z</time></trkpt><trkpt lat="37.0510849" lon="-3.7424664"><ele>939.0</ele><time>2026-03-07T08:29:20.031Z</time></trkpt><trkpt lat="37.051006" lon="-3.7423467"><ele>938.5</ele><time>2026-03-07T08:29:21.027Z</time></trkpt><trkpt lat="37.0509285" lon="-3.7422246"><ele>938.0</ele><time>2026-03-07T08:29:22.022Z</time></trkpt><trkpt lat="37.0508575" lon="-3.7420774"><ele>936.75</ele><time>2026-03-07T08:29:23.013Z</time></trkpt><trkpt lat="37.0507907" lon="-3.7419366"><ele>935.5</ele><time>2026-03-07T08:29:24.003Z</time></trkpt><trkpt lat="37.0507322" lon="-3.741785"><ele>934.25</ele><time>2026-03-07T08:29:25.01Z</time></trkpt><trkpt lat="37.0506826" lon="-3.7416234"><ele>933.0</ele><time>2026-03-07T08:29:26.033Z</time></trkpt><trkpt lat="37.0506396" lon="-3.7414499"><ele>932.25</ele><time>2026-03-07T08:29:27.024Z</time></trkpt><trkpt lat="37.0505985" lon="-3.7412726"><ele>931.5</ele><time>2026-03-07T08:29:28.036Z</time></trkpt><trkpt lat="37.0505529" lon="-3.7410966"><ele>930.75</ele><time>2026-03-07T08:29:29.015Z</time></trkpt><trkpt lat="37.0505099" lon="-3.7409211"><ele>930.0</ele><time>2026-03-07T08:29:30.001Z</time></trkpt><trkpt lat="37.0504675" lon="-3.7407522"><ele>929.5</ele><time>2026-03-07T08:29:31.016Z</time></trkpt><trkpt lat="37.0504242" lon="-3.7405943"><ele>929.0</ele><time>2026-03-07T08:29:32.02Z</time></trkpt><trkpt lat="37.0503785" lon="-3.7404437"><ele>928.5</ele><time>2026-03-07T08:29:33.007Z</time></trkpt><trkpt lat="37.0503295" lon="-3.7402833"><ele>928.0</ele><time>2026-03-07T08:29:34.011Z</time></trkpt><trkpt lat="37.0502599" lon="-3.7401257"><ele>928.0</ele><time>2026-03-07T08:29:35.005Z</time></trkpt><trkpt lat="37.0501606" lon="-3.7399754"><ele>928.0</ele><time>2026-03-07T08:29:36.006Z</time></trkpt><trkpt lat="37.0500543" lon="-3.7398359"><ele>928.0</ele><time>2026-03-07T08:29:37.018Z</time></trkpt><trkpt lat="37.0499481" lon="-3.7396947"><ele>927.0</ele><time>2026-03-07T08:29:38.017Z</time></trkpt><trkpt lat="37.0498376" lon="-3.7395593"><ele>926.0</ele><time>2026-03-07T08:29:39.008Z</time></trkpt><trkpt lat="37.0497226" lon="-3.7394219"><ele>925.0</ele><time>2026-03-07T08:29:40.005Z</time></trkpt><trkpt lat="37.0496076" lon="-3.7392865"><ele>923.6666666666666</ele><time>2026-03-07T08:29:41.01Z</time></trkpt><trkpt lat="37.0494887" lon="-3.7391565"><ele>922.3333333333333</ele><time>2026-03-07T08:29:42.007Z</time></trkpt><trkpt lat="37.0493781" lon="-3.7390233"><ele>921.0</ele><time>2026-03-07T08:29:43.003Z</time></trkpt><trkpt lat="37.0492718" lon="-3.7388936"><ele>921.0</ele><time>2026-03-07T08:29:44.014Z</time></trkpt><trkpt lat="37.0491693" lon="-3.7387616"><ele>921.0</ele><time>2026-03-07T08:29:45.018Z</time></trkpt><trkpt lat="37.0490597" lon="-3.7386297"><ele>921.0</ele><time>2026-03-07T08:29:46.002Z</time></trkpt><trkpt lat="37.0489484" lon="-3.7384942"><ele>920.75</ele><time>2026-03-07T08:29:47.005Z</time></trkpt><trkpt lat="37.0488383" lon="-3.7383674"><ele>920.5</ele><time>2026-03-07T08:29:48.014Z</time></trkpt><trkpt lat="37.0487382" lon="-3.7382503"><ele>920.25</ele><time>2026-03-07T08:29:49.021Z</time></trkpt><trkpt lat="37.0486473" lon="-3.7381379"><ele>920.0</ele><time>2026-03-07T08:29:50.035Z</time></trkpt><trkpt lat="37.0485588" lon="-3.738037"><ele>920.0</ele><time>2026-03-07T08:29:51.003Z</time></trkpt><trkpt lat="37.0484708" lon="-3.7379331"><ele>920.0</ele><time>2026-03-07T08:29:52.008Z</time></trkpt><trkpt lat="37.0483829" lon="-3.7378201"><ele>920.0</ele><time>2026-03-07T08:29:53.009Z</time></trkpt><trkpt lat="37.0482896" lon="-3.7377003"><ele>920.0</ele><time>2026-03-07T08:29:54.016Z</time></trkpt><trkpt lat="37.0481926" lon="-3.7375728"><ele>920.5</ele><time>2026-03-07T08:29:55.019Z</time></trkpt><trkpt lat="37.0480945" lon="-3.7374503"><ele>921.0</ele><time>2026-03-07T08:29:56.016Z</time></trkpt><trkpt lat="37.0479966" lon="-3.7373282"><ele>921.5</ele><time>2026-03-07T08:29:57.016Z</time></trkpt><trkpt lat="37.0478988" lon="-3.737202"><ele>922.0</ele><time>2026-03-07T08:29:58.02Z</time></trkpt><trkpt lat="37.0477954" lon="-3.7370853"><ele>922.0</ele><time>2026-03-07T08:29:59.019Z</time></trkpt><trkpt lat="37.0476997" lon="-3.7369639"><ele>922.0</ele><time>2026-03-07T08:30:00.037Z</time></trkpt><trkpt lat="37.0476067" lon="-3.7368408"><ele>922.0</ele><time>2026-03-07T08:30:01.019Z</time></trkpt><trkpt lat="37.0475159" lon="-3.7367187"><ele>922.0</ele><time>2026-03-07T08:30:02.124Z</time></trkpt><trkpt lat="37.0474346" lon="-3.7366112"><ele>921.8</ele><time>2026-03-07T08:30:03.027Z</time></trkpt><trkpt lat="37.0473581" lon="-3.7365062"><ele>921.6</ele><time>2026-03-07T08:30:04.071Z</time></trkpt><trkpt lat="37.0472803" lon="-3.7364026"><ele>921.3999999999999</ele><time>2026-03-07T08:30:05.052Z</time></trkpt><trkpt lat="37.0472078" lon="-3.7363003"><ele>921.1999999999999</ele><time>2026-03-07T08:30:06.01Z</time></trkpt><trkpt lat="37.0471382" lon="-3.7362018"><ele>921.0</ele><time>2026-03-07T08:30:07.032Z</time></trkpt><trkpt lat="37.0470713" lon="-3.7361096"><ele>920.75</ele><time>2026-03-07T08:30:08.002Z</time></trkpt><trkpt lat="37.0470064" lon="-3.7360092"><ele>920.5</ele><time>2026-03-07T08:30:09.002Z</time></trkpt><trkpt lat="37.0469343" lon="-3.7358988"><ele>920.25</ele><time>2026-03-07T08:30:10.011Z</time></trkpt><trkpt lat="37.0468598" lon="-3.7357669"><ele>920.0</ele><time>2026-03-07T08:30:11.014Z</time></trkpt><trkpt lat="37.0467839" lon="-3.7356583"><ele>920.0</ele><time>2026-03-07T08:30:12.049Z</time></trkpt><trkpt lat="37.0467089" lon="-3.7355536"><ele>920.0</ele><time>2026-03-07T08:30:13.001Z</time></trkpt><trkpt lat="37.0466309" lon="-3.7354447"><ele>920.0</ele><time>2026-03-07T08:30:13.997Z</time></trkpt><trkpt lat="37.0465522" lon="-3.7353309"><ele>920.0</ele><time>2026-03-07T08:30:15.002Z</time></trkpt><trkpt lat="37.0464728" lon="-3.7352104"><ele>920.75</ele><time>2026-03-07T08:30:16.003Z</time></trkpt><trkpt lat="37.0463919" lon="-3.7350846"><ele>921.5</ele><time>2026-03-07T08:30:16.994Z</time></trkpt><trkpt lat="37.0463093" lon="-3.734956"><ele>922.25</ele><time>2026-03-07T08:30:18.003Z</time></trkpt><trkpt lat="37.046225" lon="-3.7348256"><ele>923.0</ele><time>2026-03-07T08:30:19.019Z</time></trkpt><trkpt lat="37.0461467" lon="-3.7347029"><ele>923.0</ele><time>2026-03-07T08:30:20.016Z</time></trkpt><trkpt lat="37.0460875" lon="-3.7345857"><ele>923.0</ele><time>2026-03-07T08:30:21.003Z</time></trkpt><trkpt lat="37.0460455" lon="-3.734462"><ele>923.0</ele><time>2026-03-07T08:30:21.999Z</time></trkpt><trkpt lat="37.0460106" lon="-3.7343451"><ele>923.0</ele><time>2026-03-07T08:30:23.011Z</time></trkpt><trkpt lat="37.0459796" lon="-3.7342393"><ele>923.0</ele><time>2026-03-07T08:30:24.014Z</time></trkpt><trkpt lat="37.0459468" lon="-3.7341349"><ele>923.3333333333334</ele><time>2026-03-07T08:30:25.006Z</time></trkpt><trkpt lat="37.0459119" lon="-3.7340308"><ele>923.6666666666667</ele><time>2026-03-07T08:30:26.012Z</time></trkpt><trkpt lat="37.0458791" lon="-3.733931"><ele>924.0</ele><time>2026-03-07T08:30:27.01Z</time></trkpt><trkpt lat="37.0458519" lon="-3.7338387"><ele>924.3333333333333</ele><time>2026-03-07T08:30:28.012Z</time></trkpt><trkpt lat="37.0458256" lon="-3.7337583"><ele>924.6666666666666</ele><time>2026-03-07T08:30:29.005Z</time></trkpt><trkpt lat="37.0457879" lon="-3.7336261"><ele>925.0</ele><time>2026-03-07T08:30:31.01Z</time></trkpt><trkpt lat="37.0457394" lon="-3.7335332"><ele>926.0</ele><time>2026-03-07T08:30:33.01Z</time></trkpt><trkpt lat="37.0456356" lon="-3.7335262"><ele>927.0</ele><time>2026-03-07T08:30:35Z</time></trkpt><trkpt lat="37.0455751" lon="-3.7335692"><ele>928.0</ele><time>2026-03-07T08:30:36.005Z</time></trkpt><trkpt lat="37.045519" lon="-3.7336435"><ele>929.0</ele><time>2026-03-07T08:30:37.003Z</time></trkpt><trkpt lat="37.0454631" lon="-3.7337443"><ele>930.0</ele><time>2026-03-07T08:30:38.003Z</time></trkpt><trkpt lat="37.0453905" lon="-3.7338473"><ele>930.5</ele><time>2026-03-07T08:30:39.003Z</time></trkpt><trkpt lat="37.0452945" lon="-3.7339329"><ele>931.0</ele><time>2026-03-07T08:30:40Z</time></trkpt><trkpt lat="37.0451942" lon="-3.7340076"><ele>931.5</ele><time>2026-03-07T08:30:41.008Z</time></trkpt><trkpt lat="37.0450935" lon="-3.734078"><ele>932.0</ele><time>2026-03-07T08:30:42.006Z</time></trkpt><trkpt lat="37.044996" lon="-3.7341532"><ele>932.2</ele><time>2026-03-07T08:30:43.002Z</time></trkpt><trkpt lat="37.0449008" lon="-3.7342254"><ele>932.4000000000001</ele><time>2026-03-07T08:30:44.034Z</time></trkpt><trkpt lat="37.0448102" lon="-3.7342965"><ele>932.5999999999999</ele><time>2026-03-07T08:30:44.996Z</time></trkpt><trkpt lat="37.0447276" lon="-3.7343589"><ele>932.8</ele><time>2026-03-07T08:30:46.003Z</time></trkpt><trkpt lat="37.0446501" lon="-3.7344089"><ele>933.0</ele><time>2026-03-07T08:30:47.013Z</time></trkpt><trkpt lat="37.0445727" lon="-3.7344631"><ele>933.0</ele><time>2026-03-07T08:30:48.008Z</time></trkpt><trkpt lat="37.0444872" lon="-3.734509"><ele>933.0</ele><time>2026-03-07T08:30:49.027Z</time></trkpt><trkpt lat="37.044403" lon="-3.7345355"><ele>933.0</ele><time>2026-03-07T08:30:50.001Z</time></trkpt><trkpt lat="37.0443282" lon="-3.7345647"><ele>933.0</ele><time>2026-03-07T08:30:51.011Z</time></trkpt><trkpt lat="37.044221" lon="-3.7346197"><ele>933.0</ele><time>2026-03-07T08:30:53.001Z</time></trkpt><trkpt lat="37.0441183" lon="-3.7347134"><ele>934.0</ele><time>2026-03-07T08:30:55.011Z</time></trkpt><trkpt lat="37.0440673" lon="-3.7347989"><ele>935.0</ele><time>2026-03-07T08:30:56.013Z</time></trkpt><trkpt lat="37.0440111" lon="-3.7348869"><ele>936.0</ele><time>2026-03-07T08:30:57.009Z</time></trkpt><trkpt lat="37.0439549" lon="-3.7349777"><ele>937.0</ele><time>2026-03-07T08:30:58.013Z</time></trkpt><trkpt lat="37.0438977" lon="-3.7350702"><ele>938.0</ele><time>2026-03-07T08:30:59.013Z</time></trkpt><trkpt lat="37.0438442" lon="-3.7351503"><ele>939.0</ele><time>2026-03-07T08:31:00.058Z</time></trkpt><trkpt lat="37.0437841" lon="-3.7352157"><ele>939.1666666666666</ele><time>2026-03-07T08:31:01.01Z</time></trkpt><trkpt lat="37.043723" lon="-3.7352724"><ele>939.3333333333333</ele><time>2026-03-07T08:31:02.004Z</time></trkpt><trkpt lat="37.0436411" lon="-3.7353055"><ele>939.5</ele><time>2026-03-07T08:31:03.009Z</time></trkpt><trkpt lat="37.0435533" lon="-3.7353237"><ele>939.6666666666666</ele><time>2026-03-07T08:31:04.011Z</time></trkpt><trkpt lat="37.0434724" lon="-3.7353372"><ele>939.8333333333333</ele><time>2026-03-07T08:31:05.009Z</time></trkpt><trkpt lat="37.043381" lon="-3.7353607"><ele>940.0</ele><time>2026-03-07T08:31:06.016Z</time></trkpt><trkpt lat="37.0432949" lon="-3.7353933"><ele>941.4</ele><time>2026-03-07T08:31:07.011Z</time></trkpt><trkpt lat="37.0432079" lon="-3.7354415"><ele>942.8</ele><time>2026-03-07T08:31:08.003Z</time></trkpt><trkpt lat="37.0431128" lon="-3.7354874"><ele>944.2</ele><time>2026-03-07T08:31:09.005Z</time></trkpt><trkpt lat="37.0430146" lon="-3.7355133"><ele>945.6</ele><time>2026-03-07T08:31:10.013Z</time></trkpt><trkpt lat="37.0429146" lon="-3.7355109"><ele>947.0</ele><time>2026-03-07T08:31:11.008Z</time></trkpt><trkpt lat="37.0428113" lon="-3.7355072"><ele>947.0000000000001</ele><time>2026-03-07T08:31:12.009Z</time></trkpt><trkpt lat="37.0427136" lon="-3.7354867"><ele>947.0</ele><time>2026-03-07T08:31:13.006Z</time></trkpt><trkpt lat="37.042623" lon="-3.7354496"><ele>947.0</ele><time>2026-03-07T08:31:14.019Z</time></trkpt><trkpt lat="37.0425342" lon="-3.7354107"><ele>947.0</ele><time>2026-03-07T08:31:15.001Z</time></trkpt><trkpt lat="37.0424542" lon="-3.7353776"><ele>947.0000000000001</ele><time>2026-03-07T08:31:16.022Z</time></trkpt><trkpt lat="37.0423829" lon="-3.7353515"><ele>947.0</ele><time>2026-03-07T08:31:17.009Z</time></trkpt><trkpt lat="37.0423117" lon="-3.7353552"><ele>948.1666666666667</ele><time>2026-03-07T08:31:17.998Z</time></trkpt><trkpt lat="37.0422417" lon="-3.7353871"><ele>949.3333333333334</ele><time>2026-03-07T08:31:19.01Z</time></trkpt><trkpt lat="37.042175" lon="-3.735433"><ele>950.5</ele><time>2026-03-07T08:31:20.009Z</time></trkpt><trkpt lat="37.0421096" lon="-3.735483"><ele>951.6666666666667</ele><time>2026-03-07T08:31:21.001Z</time></trkpt><trkpt lat="37.042041" lon="-3.7355307"><ele>952.8333333333334</ele><time>2026-03-07T08:31:22.01Z</time></trkpt><trkpt lat="37.0419663" lon="-3.7355572"><ele>954.0</ele><time>2026-03-07T08:31:23.009Z</time></trkpt><trkpt lat="37.0418941" lon="-3.7355866"><ele>954.0</ele><time>2026-03-07T08:31:24.006Z</time></trkpt><trkpt lat="37.0418176" lon="-3.7356148"><ele>954.0000000000001</ele><time>2026-03-07T08:31:25.001Z</time></trkpt><trkpt lat="37.0417317" lon="-3.7356222"><ele>954.0000000000001</ele><time>2026-03-07T08:31:26.002Z</time></trkpt><trkpt lat="37.0416406" lon="-3.7356128"><ele>954.0</ele><time>2026-03-07T08:31:27.007Z</time></trkpt><trkpt lat="37.041549" lon="-3.7355696"><ele>954.0</ele><time>2026-03-07T08:31:28.002Z</time></trkpt><trkpt lat="37.0414636" lon="-3.7355056"><ele>954.8000000000001</ele><time>2026-03-07T08:31:29.004Z</time></trkpt><trkpt lat="37.0413805" lon="-3.7354329"><ele>955.6000000000001</ele><time>2026-03-07T08:31:30.012Z</time></trkpt><trkpt lat="37.0412946" lon="-3.735353"><ele>956.4</ele><time>2026-03-07T08:31:31.001Z</time></trkpt><trkpt lat="37.041205" lon="-3.7352582"><ele>957.2</ele><time>2026-03-07T08:31:32.016Z</time></trkpt><trkpt lat="37.04111" lon="-3.7351604"><ele>958.0</ele><time>2026-03-07T08:31:33.015Z</time></trkpt><trkpt lat="37.0410077" lon="-3.7350631"><ele>958.0</ele><time>2026-03-07T08:31:34.019Z</time></trkpt><trkpt lat="37.0409109" lon="-3.7349733"><ele>958.0</ele><time>2026-03-07T08:31:35.003Z</time></trkpt><trkpt lat="37.0408196" lon="-3.7348994"><ele>958.0</ele><time>2026-03-07T08:31:36.012Z</time></trkpt><trkpt lat="37.0407257" lon="-3.7348393"><ele>958.0</ele><time>2026-03-07T08:31:37.012Z</time></trkpt><trkpt lat="37.0406202" lon="-3.7347981"><ele>958.0</ele><time>2026-03-07T08:31:38.017Z</time></trkpt><trkpt lat="37.0404984" lon="-3.7347714"><ele>962.5</ele><time>2026-03-07T08:31:39.003Z</time></trkpt><trkpt lat="37.0403756" lon="-3.7347206"><ele>967.0</ele><time>2026-03-07T08:31:40.001Z</time></trkpt><trkpt lat="37.0402619" lon="-3.7346666"><ele>971.5</ele><time>2026-03-07T08:31:41.016Z</time></trkpt><trkpt lat="37.0401709" lon="-3.7345713"><ele>976.0</ele><time>2026-03-07T08:31:41.993Z</time></trkpt><trkpt lat="37.0400832" lon="-3.7344644"><ele>976.0</ele><time>2026-03-07T08:31:43.003Z</time></trkpt><trkpt lat="37.0400136" lon="-3.734331"><ele>976.0</ele><time>2026-03-07T08:31:44.014Z</time></trkpt><trkpt lat="37.0399585" lon="-3.7341876"><ele>976.0</ele><time>2026-03-07T08:31:45.018Z</time></trkpt><trkpt lat="37.0399038" lon="-3.7340576"><ele>976.0</ele><time>2026-03-07T08:31:46.019Z</time></trkpt><trkpt lat="37.0398593" lon="-3.7339354"><ele>979.0</ele><time>2026-03-07T08:31:47.005Z</time></trkpt><trkpt lat="37.03981" lon="-3.7338117"><ele>981.9999999999999</ele><time>2026-03-07T08:31:47.993Z</time></trkpt><trkpt lat="37.0397567" lon="-3.7336836"><ele>984.9999999999999</ele><time>2026-03-07T08:31:49.006Z</time></trkpt><trkpt lat="37.0397141" lon="-3.7335495"><ele>988.0</ele><time>2026-03-07T08:31:50.002Z</time></trkpt><trkpt lat="37.0396661" lon="-3.7334282"><ele>991.0</ele><time>2026-03-07T08:31:51.01Z</time></trkpt><trkpt lat="37.039619" lon="-3.7333184"><ele>991.0</ele><time>2026-03-07T08:31:52.006Z</time></trkpt><trkpt lat="37.0395751" lon="-3.7332156"><ele>990.9999999999999</ele><time>2026-03-07T08:31:53.008Z</time></trkpt><trkpt lat="37.0395256" lon="-3.7331117"><ele>990.9999999999999</ele><time>2026-03-07T08:31:54.003Z</time></trkpt><trkpt lat="37.0394677" lon="-3.7330065"><ele>991.0</ele><time>2026-03-07T08:31:55.007Z</time></trkpt><trkpt lat="37.0394032" lon="-3.7328908"><ele>991.0</ele><time>2026-03-07T08:31:55.999Z</time></trkpt><trkpt lat="37.039328" lon="-3.7327651"><ele>989.0</ele><time>2026-03-07T08:31:57.006Z</time></trkpt><trkpt lat="37.0392488" lon="-3.7326383"><ele>987.0</ele><time>2026-03-07T08:31:58.008Z</time></trkpt><trkpt lat="37.0391692" lon="-3.7325081"><ele>985.0</ele><time>2026-03-07T08:31:59.013Z</time></trkpt><trkpt lat="37.0390913" lon="-3.7323802"><ele>983.0</ele><time>2026-03-07T08:32:00.02Z</time></trkpt><trkpt lat="37.0390203" lon="-3.7322519"><ele>985.5999999999999</ele><time>2026-03-07T08:32:01.011Z</time></trkpt><trkpt lat="37.0389561" lon="-3.7321277"><ele>988.1999999999999</ele><time>2026-03-07T08:32:02.013Z</time></trkpt><trkpt lat="37.0388898" lon="-3.7320127"><ele>990.8</ele><time>2026-03-07T08:32:03.045Z</time></trkpt><trkpt lat="37.0388179" lon="-3.7319162"><ele>993.4</ele><time>2026-03-07T08:32:04Z</time></trkpt><trkpt lat="37.0387449" lon="-3.7318289"><ele>996.0</ele><time>2026-03-07T08:32:05Z</time></trkpt><trkpt lat="37.0386718" lon="-3.7317338"><ele>996.0</ele><time>2026-03-07T08:32:06.008Z</time></trkpt><trkpt lat="37.0386013" lon="-3.7316195"><ele>996.0</ele><time>2026-03-07T08:32:07.005Z</time></trkpt><trkpt lat="37.0385307" lon="-3.7314893"><ele>996.0</ele><time>2026-03-07T08:32:08.008Z</time></trkpt><trkpt lat="37.0384747" lon="-3.7313552"><ele>996.0</ele><time>2026-03-07T08:32:09.01Z</time></trkpt><trkpt lat="37.0384224" lon="-3.7312398"><ele>996.0</ele><time>2026-03-07T08:32:09.998Z</time></trkpt><trkpt lat="37.0383693" lon="-3.7311376"><ele>995.9999999999999</ele><time>2026-03-07T08:32:10.992Z</time></trkpt><trkpt lat="37.0383039" lon="-3.7310399"><ele>995.9999999999999</ele><time>2026-03-07T08:32:12.003Z</time></trkpt><trkpt lat="37.0382298" lon="-3.7309446"><ele>996.0</ele><time>2026-03-07T08:32:13.006Z</time></trkpt><trkpt lat="37.0381545" lon="-3.730836"><ele>996.0</ele><time>2026-03-07T08:32:14Z</time></trkpt><trkpt lat="37.0380917" lon="-3.7307064"><ele>997.8</ele><time>2026-03-07T08:32:14.998Z</time></trkpt><trkpt lat="37.0380582" lon="-3.7305613"><ele>999.5999999999999</ele><time>2026-03-07T08:32:16.009Z</time></trkpt><trkpt lat="37.0380286" lon="-3.7304246"><ele>1001.4</ele><time>2026-03-07T08:32:17.01Z</time></trkpt><trkpt lat="37.0380123" lon="-3.7302927"><ele>1003.2</ele><time>2026-03-07T08:32:18.01Z</time></trkpt><trkpt lat="37.0379876" lon="-3.7301701"><ele>1005.0</ele><time>2026-03-07T08:32:19.006Z</time></trkpt><trkpt lat="37.0379478" lon="-3.7300562"><ele>1005.0</ele><time>2026-03-07T08:32:19.994Z</time></trkpt><trkpt lat="37.0379122" lon="-3.7299473"><ele>1005.0</ele><time>2026-03-07T08:32:21.018Z</time></trkpt><trkpt lat="37.0378738" lon="-3.729849"><ele>1005.0</ele><time>2026-03-07T08:32:22.01Z</time></trkpt><trkpt lat="37.0378302" lon="-3.7297584"><ele>1005.0</ele><time>2026-03-07T08:32:23.01Z</time></trkpt><trkpt lat="37.0377714" lon="-3.7296754"><ele>1005.0</ele><time>2026-03-07T08:32:24.013Z</time></trkpt><trkpt lat="37.0376933" lon="-3.729598"><ele>1005.0</ele><time>2026-03-07T08:32:25.01Z</time></trkpt><trkpt lat="37.0375972" lon="-3.7295215"><ele>1005.0</ele><time>2026-03-07T08:32:26.006Z</time></trkpt><trkpt lat="37.0374973" lon="-3.72943"><ele>1005.0</ele><time>2026-03-07T08:32:27.008Z</time></trkpt><trkpt lat="37.0373915" lon="-3.7293336"><ele>1005.0</ele><time>2026-03-07T08:32:28.013Z</time></trkpt><trkpt lat="37.0372942" lon="-3.729219"><ele>1009.75</ele><time>2026-03-07T08:32:29.005Z</time></trkpt><trkpt lat="37.0372053" lon="-3.72909"><ele>1014.5</ele><time>2026-03-07T08:32:30.014Z</time></trkpt><trkpt lat="37.0371312" lon="-3.7289391"><ele>1019.25</ele><time>2026-03-07T08:32:31.02Z</time></trkpt><trkpt lat="37.0370671" lon="-3.7287834"><ele>1024.0</ele><time>2026-03-07T08:32:32.009Z</time></trkpt><trkpt lat="37.0370182" lon="-3.7286343"><ele>1023.5</ele><time>2026-03-07T08:32:33.003Z</time></trkpt><trkpt lat="37.0369711" lon="-3.7284965"><ele>1023.0</ele><time>2026-03-07T08:32:34.018Z</time></trkpt><trkpt lat="37.036917" lon="-3.728372"><ele>1022.5</ele><time>2026-03-07T08:32:35.014Z</time></trkpt><trkpt lat="37.0368597" lon="-3.7282532"><ele>1022.0</ele><time>2026-03-07T08:32:36.008Z</time></trkpt><trkpt lat="37.0367897" lon="-3.728138"><ele>1022.0</ele><time>2026-03-07T08:32:37.008Z</time></trkpt><trkpt lat="37.0367168" lon="-3.7280225"><ele>1022.0</ele><time>2026-03-07T08:32:38.008Z</time></trkpt><trkpt lat="37.0366402" lon="-3.7279216"><ele>1022.0</ele><time>2026-03-07T08:32:39.003Z</time></trkpt><trkpt lat="37.036568" lon="-3.727828"><ele>1022.0</ele><time>2026-03-07T08:32:40.01Z</time></trkpt><trkpt lat="37.0364979" lon="-3.7277371"><ele>1022.0</ele><time>2026-03-07T08:32:41.003Z</time></trkpt><trkpt lat="37.0364267" lon="-3.7276422"><ele>1025.0</ele><time>2026-03-07T08:32:42.009Z</time></trkpt><trkpt lat="37.0363554" lon="-3.7275378"><ele>1028.0</ele><time>2026-03-07T08:32:43.002Z</time></trkpt><trkpt lat="37.036282" lon="-3.7274281"><ele>1031.0</ele><time>2026-03-07T08:32:44.015Z</time></trkpt><trkpt lat="37.0362096" lon="-3.72732"><ele>1034.0</ele><time>2026-03-07T08:32:45.006Z</time></trkpt><trkpt lat="37.0361409" lon="-3.7272129"><ele>1037.0</ele><time>2026-03-07T08:32:46.011Z</time></trkpt><trkpt lat="37.0360804" lon="-3.7271096"><ele>1037.0</ele><time>2026-03-07T08:32:47.021Z</time></trkpt><trkpt lat="37.0360334" lon="-3.7270086"><ele>1037.0</ele><time>2026-03-07T08:32:48.012Z</time></trkpt><trkpt lat="37.0360001" lon="-3.7269051"><ele>1037.0</ele><time>2026-03-07T08:32:49.001Z</time></trkpt><trkpt lat="37.0359757" lon="-3.7268057"><ele>1037.0</ele><time>2026-03-07T08:32:49.998Z</time></trkpt><trkpt lat="37.0359535" lon="-3.7267178"><ele>1037.0</ele><time>2026-03-07T08:32:51.004Z</time></trkpt><trkpt lat="37.0359335" lon="-3.7266401"><ele>1037.0</ele><time>2026-03-07T08:32:52.018Z</time></trkpt><trkpt lat="37.0358551" lon="-3.7265604"><ele>1039.8</ele><time>2026-03-07T08:32:53.996Z</time></trkpt><trkpt lat="37.035754" lon="-3.7265621"><ele>1042.6</ele><time>2026-03-07T08:32:56.001Z</time></trkpt><trkpt lat="37.0357021" lon="-3.7266087"><ele>1045.3999999999999</ele><time>2026-03-07T08:32:57.014Z</time></trkpt><trkpt lat="37.0356548" lon="-3.7266842"><ele>1048.2</ele><time>2026-03-07T08:32:58.005Z</time></trkpt><trkpt lat="37.0356175" lon="-3.7268128"><ele>1051.0</ele><time>2026-03-07T08:32:58.998Z</time></trkpt><trkpt lat="37.0355805" lon="-3.7269368"><ele>1051.0</ele><time>2026-03-07T08:33:00Z</time></trkpt><trkpt lat="37.0355441" lon="-3.7270649"><ele>1051.0</ele><time>2026-03-07T08:33:01.021Z</time></trkpt><trkpt lat="37.0355086" lon="-3.7271835"><ele>1051.0</ele><time>2026-03-07T08:33:02.007Z</time></trkpt><trkpt lat="37.0354765" lon="-3.7272961"><ele>1051.0</ele><time>2026-03-07T08:33:03.009Z</time></trkpt><trkpt lat="37.0354456" lon="-3.7274083"><ele>1051.0</ele><time>2026-03-07T08:33:04.013Z</time></trkpt><trkpt lat="37.035412" lon="-3.7275245"><ele>1051.0</ele><time>2026-03-07T08:33:05.025Z</time></trkpt><trkpt lat="37.0353796" lon="-3.7276455"><ele>1051.0</ele><time>2026-03-07T08:33:06.003Z</time></trkpt><trkpt lat="37.0353483" lon="-3.7277673"><ele>1051.0</ele><time>2026-03-07T08:33:07.018Z</time></trkpt><trkpt lat="37.0353222" lon="-3.7278893"><ele>1051.0</ele><time>2026-03-07T08:33:08.01Z</time></trkpt><trkpt lat="37.0353098" lon="-3.7280123"><ele>1051.0</ele><time>2026-03-07T08:33:09.01Z</time></trkpt><trkpt lat="37.0353159" lon="-3.728137"><ele>1051.3999999999999</ele><time>2026-03-07T08:33:10.005Z</time></trkpt><trkpt lat="37.0353409" lon="-3.7282647"><ele>1051.8</ele><time>2026-03-07T08:33:10.991Z</time></trkpt><trkpt lat="37.0353668" lon="-3.728396"><ele>1052.1999999999998</ele><time>2026-03-07T08:33:11.998Z</time></trkpt><trkpt lat="37.0353905" lon="-3.728529"><ele>1052.6</ele><time>2026-03-07T08:33:13.004Z</time></trkpt><trkpt lat="37.0353965" lon="-3.7286565"><ele>1053.0</ele><time>2026-03-07T08:33:14.009Z</time></trkpt><trkpt lat="37.0353973" lon="-3.7287778"><ele>1053.0</ele><time>2026-03-07T08:33:15.016Z</time></trkpt><trkpt lat="37.0353919" lon="-3.7288914"><ele>1053.0</ele><time>2026-03-07T08:33:16.001Z</time></trkpt><trkpt lat="37.0353802" lon="-3.7290014"><ele>1053.0</ele><time>2026-03-07T08:33:17.014Z</time></trkpt><trkpt lat="37.0353624" lon="-3.7291051"><ele>1053.0</ele><time>2026-03-07T08:33:18.007Z</time></trkpt><trkpt lat="37.0353344" lon="-3.7291996"><ele>1053.0</ele><time>2026-03-07T08:33:19.014Z</time></trkpt><trkpt lat="37.0353127" lon="-3.7292925"><ele>1053.0</ele><time>2026-03-07T08:33:20.01Z</time></trkpt><trkpt lat="37.0352731" lon="-3.7293685"><ele>1053.7142857142856</ele><time>2026-03-07T08:33:21.017Z</time></trkpt><trkpt lat="37.0352211" lon="-3.7294252"><ele>1054.4285714285713</ele><time>2026-03-07T08:33:22.001Z</time></trkpt><trkpt lat="37.0351762" lon="-3.7294846"><ele>1055.142857142857</ele><time>2026-03-07T08:33:23.008Z</time></trkpt><trkpt lat="37.0350586" lon="-3.7294945"><ele>1055.8571428571427</ele><time>2026-03-07T08:33:25.004Z</time></trkpt><trkpt lat="37.0349955" lon="-3.729502"><ele>1056.5714285714284</ele><time>2026-03-07T08:33:26.004Z</time></trkpt><trkpt lat="37.0349281" lon="-3.7295135"><ele>1057.2857142857142</ele><time>2026-03-07T08:33:27.009Z</time></trkpt><trkpt lat="37.0348699" lon="-3.729551"><ele>1058.0</ele><time>2026-03-07T08:33:28.008Z</time></trkpt><trkpt lat="37.0348093" lon="-3.729596"><ele>1056.1666666666667</ele><time>2026-03-07T08:33:29.005Z</time></trkpt><trkpt lat="37.0347416" lon="-3.729615"><ele>1054.3333333333335</ele><time>2026-03-07T08:33:30.012Z</time></trkpt><trkpt lat="37.03467" lon="-3.729621"><ele>1052.5</ele><time>2026-03-07T08:33:31.022Z</time></trkpt><trkpt lat="37.0345971" lon="-3.7296345"><ele>1050.6666666666667</ele><time>2026-03-07T08:33:32.014Z</time></trkpt><trkpt lat="37.0345251" lon="-3.7296283"><ele>1048.8333333333333</ele><time>2026-03-07T08:33:33.011Z</time></trkpt><trkpt lat="37.0344251" lon="-3.7296866"><ele>1047.0</ele><time>2026-03-07T08:33:35.014Z</time></trkpt><trkpt lat="37.0343806" lon="-3.7298241"><ele>1047.0</ele><time>2026-03-07T08:33:37.001Z</time></trkpt><trkpt lat="37.0343476" lon="-3.7299584"><ele>1047.0</ele><time>2026-03-07T08:33:39.012Z</time></trkpt><trkpt lat="37.0343099" lon="-3.7301033"><ele>1047.0</ele><time>2026-03-07T08:33:41.009Z</time></trkpt><trkpt lat="37.0342791" lon="-3.7301744"><ele>1047.0</ele><time>2026-03-07T08:33:42.009Z</time></trkpt><trkpt lat="37.0341759" lon="-3.7302693"><ele>1047.0</ele><time>2026-03-07T08:33:43.996Z</time></trkpt><trkpt lat="37.0341175" lon="-3.7303291"><ele>1046.4285714285716</ele><time>2026-03-07T08:33:45Z</time></trkpt><trkpt lat="37.0340578" lon="-3.7303951"><ele>1045.857142857143</ele><time>2026-03-07T08:33:46.011Z</time></trkpt><trkpt lat="37.0340025" lon="-3.7304629"><ele>1045.2857142857142</ele><time>2026-03-07T08:33:47.02Z</time></trkpt><trkpt lat="37.0339525" lon="-3.7305329"><ele>1044.7142857142858</ele><time>2026-03-07T08:33:48.026Z</time></trkpt><trkpt lat="37.0339051" lon="-3.730597"><ele>1044.142857142857</ele><time>2026-03-07T08:33:49Z</time></trkpt><trkpt lat="37.033865" lon="-3.7306626"><ele>1043.5714285714287</ele><time>2026-03-07T08:33:50.007Z</time></trkpt><trkpt lat="37.0338233" lon="-3.7307237"><ele>1043.0</ele><time>2026-03-07T08:33:51.006Z</time></trkpt><trkpt lat="37.0337749" lon="-3.7307807"><ele>1043.0</ele><time>2026-03-07T08:33:52.019Z</time></trkpt><trkpt lat="37.0337227" lon="-3.7308399"><ele>1043.0</ele><time>2026-03-07T08:33:53.007Z</time></trkpt><trkpt lat="37.0336675" lon="-3.7308948"><ele>1043.0</ele><time>2026-03-07T08:33:53.999Z</time></trkpt><trkpt lat="37.0336185" lon="-3.7309519"><ele>1043.0</ele><time>2026-03-07T08:33:55.004Z</time></trkpt><trkpt lat="37.0335755" lon="-3.7310117"><ele>1043.0</ele><time>2026-03-07T08:33:56.014Z</time></trkpt><trkpt lat="37.0335328" lon="-3.7310753"><ele>1043.0</ele><time>2026-03-07T08:33:57.005Z</time></trkpt><trkpt lat="37.0334916" lon="-3.7311479"><ele>1043.0</ele><time>2026-03-07T08:33:58.015Z</time></trkpt><trkpt lat="37.033457" lon="-3.7312314"><ele>1043.0</ele><time>2026-03-07T08:33:59.001Z</time></trkpt><trkpt lat="37.0334262" lon="-3.731316"><ele>1043.0</ele><time>2026-03-07T08:34:00.004Z</time></trkpt><trkpt lat="37.033399" lon="-3.7313968"><ele>1043.0</ele><time>2026-03-07T08:34:01.01Z</time></trkpt><trkpt lat="37.0333706" lon="-3.7314769"><ele>1043.0</ele><time>2026-03-07T08:34:02.01Z</time></trkpt><trkpt lat="37.0333412" lon="-3.7315586"><ele>1043.0</ele><time>2026-03-07T08:34:03.002Z</time></trkpt><trkpt lat="37.0333129" lon="-3.7316416"><ele>1043.0</ele><time>2026-03-07T08:34:04.006Z</time></trkpt><trkpt lat="37.0332801" lon="-3.7317135"><ele>1043.0</ele><time>2026-03-07T08:34:05.013Z</time></trkpt><trkpt lat="37.0332193" lon="-3.7318508"><ele>1042.4285714285713</ele><time>2026-03-07T08:34:06.998Z</time></trkpt><trkpt lat="37.033185" lon="-3.7319196"><ele>1041.857142857143</ele><time>2026-03-07T08:34:08.008Z</time></trkpt><trkpt lat="37.0331489" lon="-3.731986"><ele>1041.2857142857142</ele><time>2026-03-07T08:34:09.011Z</time></trkpt><trkpt lat="37.033112" lon="-3.7320546"><ele>1040.7142857142858</ele><time>2026-03-07T08:34:10.006Z</time></trkpt><trkpt lat="37.0330756" lon="-3.7321221"><ele>1040.142857142857</ele><time>2026-03-07T08:34:11.008Z</time></trkpt><trkpt lat="37.0330367" lon="-3.7321872"><ele>1039.5714285714284</ele><time>2026-03-07T08:34:12.007Z</time></trkpt><trkpt lat="37.032998" lon="-3.7322537"><ele>1039.0</ele><time>2026-03-07T08:34:13.01Z</time></trkpt><trkpt lat="37.0329586" lon="-3.7323208"><ele>1039.0</ele><time>2026-03-07T08:34:14.004Z</time></trkpt><trkpt lat="37.0329215" lon="-3.7323907"><ele>1039.0</ele><time>2026-03-07T08:34:15.016Z</time></trkpt><trkpt lat="37.0328451" lon="-3.7325116"><ele>1039.0</ele><time>2026-03-07T08:34:17.018Z</time></trkpt><trkpt lat="37.0327615" lon="-3.7326318"><ele>1039.0</ele><time>2026-03-07T08:34:19Z</time></trkpt><trkpt lat="37.0326812" lon="-3.7327517"><ele>1039.0</ele><time>2026-03-07T08:34:21.006Z</time></trkpt><trkpt lat="37.0326156" lon="-3.7328648"><ele>1039.2</ele><time>2026-03-07T08:34:23.003Z</time></trkpt><trkpt lat="37.032571" lon="-3.7329673"><ele>1039.4</ele><time>2026-03-07T08:34:25Z</time></trkpt><trkpt lat="37.0325268" lon="-3.7330508"><ele>1039.6</ele><time>2026-03-07T08:34:27.006Z</time></trkpt><trkpt lat="37.0324791" lon="-3.7331436"><ele>1039.8</ele><time>2026-03-07T08:34:29.012Z</time></trkpt><trkpt lat="37.032416" lon="-3.7332709"><ele>1040.0</ele><time>2026-03-07T08:34:31.009Z</time></trkpt><trkpt lat="37.0323587" lon="-3.7333792"><ele>1039.6</ele><time>2026-03-07T08:34:33.007Z</time></trkpt><trkpt lat="37.0323123" lon="-3.7334633"><ele>1039.2</ele><time>2026-03-07T08:34:35.024Z</time></trkpt><trkpt lat="37.0322589" lon="-3.7335514"><ele>1038.8</ele><time>2026-03-07T08:34:37.015Z</time></trkpt><trkpt lat="37.0321985" lon="-3.7336391"><ele>1038.4</ele><time>2026-03-07T08:34:39.006Z</time></trkpt><trkpt lat="37.0321359" lon="-3.7337276"><ele>1038.0</ele><time>2026-03-07T08:34:41.013Z</time></trkpt><trkpt lat="37.0320643" lon="-3.7338416"><ele>1038.0</ele><time>2026-03-07T08:34:43.01Z</time></trkpt><trkpt lat="37.0320173" lon="-3.7339267"><ele>1038.0</ele><time>2026-03-07T08:34:45.008Z</time></trkpt><trkpt lat="37.0319716" lon="-3.7340031"><ele>1038.0</ele><time>2026-03-07T08:34:48.013Z</time></trkpt><trkpt lat="37.0319042" lon="-3.734062"><ele>1038.0</ele><time>2026-03-07T08:34:50.009Z</time></trkpt><trkpt lat="37.0318221" lon="-3.7341167"><ele>1038.0</ele><time>2026-03-07T08:34:52.019Z</time></trkpt><trkpt lat="37.0317352" lon="-3.7341682"><ele>1038.0</ele><time>2026-03-07T08:34:54.003Z</time></trkpt><trkpt lat="37.0316419" lon="-3.7342229"><ele>1038.6666666666667</ele><time>2026-03-07T08:34:56.008Z</time></trkpt><trkpt lat="37.0315725" lon="-3.7342763"><ele>1039.3333333333333</ele><time>2026-03-07T08:34:58.028Z</time></trkpt><trkpt lat="37.0314947" lon="-3.7343555"><ele>1040.0</ele><time>2026-03-07T08:35:00.025Z</time></trkpt><trkpt lat="37.0314018" lon="-3.734471"><ele>1040.6666666666665</ele><time>2026-03-07T08:35:02.002Z</time></trkpt><trkpt lat="37.0313553" lon="-3.7345316"><ele>1041.3333333333333</ele><time>2026-03-07T08:35:03.014Z</time></trkpt><trkpt lat="37.0313095" lon="-3.734592"><ele>1042.0</ele><time>2026-03-07T08:35:04.011Z</time></trkpt><trkpt lat="37.0312613" lon="-3.7346545"><ele>1042.5</ele><time>2026-03-07T08:35:05.012Z</time></trkpt><trkpt lat="37.0312166" lon="-3.7347125"><ele>1043.0</ele><time>2026-03-07T08:35:06.01Z</time></trkpt><trkpt lat="37.0311349" lon="-3.7348166"><ele>1043.5</ele><time>2026-03-07T08:35:08.003Z</time></trkpt><trkpt lat="37.0310934" lon="-3.734876"><ele>1044.0</ele><time>2026-03-07T08:35:09.006Z</time></trkpt><trkpt lat="37.0310577" lon="-3.734952"><ele>1044.5</ele><time>2026-03-07T08:35:10.01Z</time></trkpt><trkpt lat="37.0310334" lon="-3.7350364"><ele>1045.0</ele><time>2026-03-07T08:35:11Z</time></trkpt><trkpt lat="37.031023" lon="-3.7351252"><ele>1045.0</ele><time>2026-03-07T08:35:12.001Z</time></trkpt><trkpt lat="37.031013" lon="-3.7352121"><ele>1045.0</ele><time>2026-03-07T08:35:13.002Z</time></trkpt><trkpt lat="37.0309825" lon="-3.7353575"><ele>1045.0</ele><time>2026-03-07T08:35:15.014Z</time></trkpt><trkpt lat="37.0309198" lon="-3.7354894"><ele>1045.0</ele><time>2026-03-07T08:35:17.013Z</time></trkpt><trkpt lat="37.0308853" lon="-3.7356414"><ele>1045.0</ele><time>2026-03-07T08:35:19.019Z</time></trkpt><trkpt lat="37.0308745" lon="-3.7357195"><ele>1045.0</ele><time>2026-03-07T08:35:20.008Z</time></trkpt><trkpt lat="37.0308712" lon="-3.7357987"><ele>1045.0</ele><time>2026-03-07T08:35:21.001Z</time></trkpt><trkpt lat="37.0308632" lon="-3.7358815"><ele>1045.0</ele><time>2026-03-07T08:35:22.014Z</time></trkpt><trkpt lat="37.0308549" lon="-3.7359709"><ele>1045.0</ele><time>2026-03-07T08:35:23.016Z</time></trkpt><trkpt lat="37.0308496" lon="-3.7360633"><ele>1045.0</ele><time>2026-03-07T08:35:24.01Z</time></trkpt><trkpt lat="37.0308549" lon="-3.7361542"><ele>1045.0</ele><time>2026-03-07T08:35:25.009Z</time></trkpt><trkpt lat="37.0308666" lon="-3.736239"><ele>1045.0</ele><time>2026-03-07T08:35:26.015Z</time></trkpt><trkpt lat="37.0308795" lon="-3.7363217"><ele>1045.0</ele><time>2026-03-07T08:35:27.003Z</time></trkpt><trkpt lat="37.0308871" lon="-3.7364078"><ele>1045.0</ele><time>2026-03-07T08:35:27.998Z</time></trkpt><trkpt lat="37.0308828" lon="-3.7364975"><ele>1045.0</ele><time>2026-03-07T08:35:29.012Z</time></trkpt><trkpt lat="37.0308869" lon="-3.7365825"><ele>1045.0</ele><time>2026-03-07T08:35:30.009Z</time></trkpt><trkpt lat="37.030908" lon="-3.736723"><ele>1045.0</ele><time>2026-03-07T08:35:32.005Z</time></trkpt><trkpt lat="37.0309626" lon="-3.7368224"><ele>1045.0</ele><time>2026-03-07T08:35:34.002Z</time></trkpt><trkpt lat="37.0310213" lon="-3.7369358"><ele>1044.6</ele><time>2026-03-07T08:35:36.017Z</time></trkpt><trkpt lat="37.031053" lon="-3.7370682"><ele>1044.2</ele><time>2026-03-07T08:35:38.057Z</time></trkpt><trkpt lat="37.0310489" lon="-3.7372049"><ele>1043.8</ele><time>2026-03-07T08:35:40.015Z</time></trkpt><trkpt lat="37.0310346" lon="-3.737316"><ele>1043.4</ele><time>2026-03-07T08:35:42.014Z</time></trkpt><trkpt lat="37.0310403" lon="-3.7374303"><ele>1043.0</ele><time>2026-03-07T08:35:44.011Z</time></trkpt><trkpt lat="37.0310699" lon="-3.7375637"><ele>1043.0</ele><time>2026-03-07T08:35:46.007Z</time></trkpt><trkpt lat="37.0310892" lon="-3.7376563"><ele>1043.0</ele><time>2026-03-07T08:35:47.012Z</time></trkpt><trkpt lat="37.0311076" lon="-3.7377605"><ele>1043.0</ele><time>2026-03-07T08:35:48.024Z</time></trkpt><trkpt lat="37.0311221" lon="-3.7378602"><ele>1043.0</ele><time>2026-03-07T08:35:49.01Z</time></trkpt><trkpt lat="37.0311323" lon="-3.7379635"><ele>1043.0</ele><time>2026-03-07T08:35:50.004Z</time></trkpt><trkpt lat="37.0311426" lon="-3.7380579"><ele>1043.0</ele><time>2026-03-07T08:35:51.012Z</time></trkpt><trkpt lat="37.0311511" lon="-3.7381368"><ele>1042.4</ele><time>2026-03-07T08:35:52.017Z</time></trkpt><trkpt lat="37.0311693" lon="-3.7382703"><ele>1041.8</ele><time>2026-03-07T08:35:54.013Z</time></trkpt><trkpt lat="37.0311865" lon="-3.7383986"><ele>1041.2</ele><time>2026-03-07T08:35:56.005Z</time></trkpt><trkpt lat="37.0312262" lon="-3.7385293"><ele>1040.6</ele><time>2026-03-07T08:35:58.011Z</time></trkpt><trkpt lat="37.0312646" lon="-3.738593"><ele>1040.0</ele><time>2026-03-07T08:35:59.01Z</time></trkpt><trkpt lat="37.0313079" lon="-3.7386625"><ele>1039.6</ele><time>2026-03-07T08:36:00.031Z</time></trkpt><trkpt lat="37.0313572" lon="-3.7387287"><ele>1039.2</ele><time>2026-03-07T08:36:01.008Z</time></trkpt><trkpt lat="37.0314042" lon="-3.7387837"><ele>1038.8</ele><time>2026-03-07T08:36:02.019Z</time></trkpt><trkpt lat="37.0314798" lon="-3.7388907"><ele>1038.4</ele><time>2026-03-07T08:36:04.025Z</time></trkpt><trkpt lat="37.0315459" lon="-3.7390133"><ele>1038.0</ele><time>2026-03-07T08:36:06.011Z</time></trkpt><trkpt lat="37.0316159" lon="-3.7391088"><ele>1038.0</ele><time>2026-03-07T08:36:08.012Z</time></trkpt><trkpt lat="37.0316943" lon="-3.7391987"><ele>1038.0</ele><time>2026-03-07T08:36:10.01Z</time></trkpt><trkpt lat="37.0317378" lon="-3.7392935"><ele>1038.0</ele><time>2026-03-07T08:36:12.017Z</time></trkpt><trkpt lat="37.0317287" lon="-3.7394123"><ele>1038.0</ele><time>2026-03-07T08:36:14.009Z</time></trkpt><trkpt lat="37.0316925" lon="-3.7394771"><ele>1038.0</ele><time>2026-03-07T08:36:15.021Z</time></trkpt><trkpt lat="37.0315951" lon="-3.7395771"><ele>1038.0</ele><time>2026-03-07T08:36:17.01Z</time></trkpt><trkpt lat="37.0314901" lon="-3.7396326"><ele>1038.0</ele><time>2026-03-07T08:36:19.017Z</time></trkpt><trkpt lat="37.0314229" lon="-3.7397006"><ele>1038.0</ele><time>2026-03-07T08:36:21.014Z</time></trkpt><trkpt lat="37.0314045" lon="-3.7398142"><ele>1038.0</ele><time>2026-03-07T08:36:22.998Z</time></trkpt><trkpt lat="37.0314359" lon="-3.7399663"><ele>1038.0</ele><time>2026-03-07T08:36:25.007Z</time></trkpt><trkpt lat="37.0314562" lon="-3.7400586"><ele>1038.0</ele><time>2026-03-07T08:36:26.007Z</time></trkpt><trkpt lat="37.0314809" lon="-3.7401585"><ele>1038.0</ele><time>2026-03-07T08:36:27.009Z</time></trkpt><trkpt lat="37.0315069" lon="-3.7402584"><ele>1038.0</ele><time>2026-03-07T08:36:28.018Z</time></trkpt><trkpt lat="37.0315302" lon="-3.7403551"><ele>1038.0</ele><time>2026-03-07T08:36:29.003Z</time></trkpt><trkpt lat="37.0315529" lon="-3.7404522"><ele>1038.0</ele><time>2026-03-07T08:36:30.006Z</time></trkpt><trkpt lat="37.0315758" lon="-3.7405479"><ele>1038.0</ele><time>2026-03-07T08:36:31.009Z</time></trkpt><trkpt lat="37.0315677" lon="-3.7406507"><ele>1038.1666666666667</ele><time>2026-03-07T08:36:32.003Z</time></trkpt><trkpt lat="37.0315617" lon="-3.7407533"><ele>1038.3333333333333</ele><time>2026-03-07T08:36:33.012Z</time></trkpt><trkpt lat="37.0315629" lon="-3.7408573"><ele>1038.5</ele><time>2026-03-07T08:36:34.008Z</time></trkpt><trkpt lat="37.0315809" lon="-3.7409627"><ele>1038.6666666666665</ele><time>2026-03-07T08:36:35.014Z</time></trkpt><trkpt lat="37.0316087" lon="-3.7410688"><ele>1038.8333333333333</ele><time>2026-03-07T08:36:36.008Z</time></trkpt><trkpt lat="37.0316431" lon="-3.7411751"><ele>1039.0</ele><time>2026-03-07T08:36:37.002Z</time></trkpt><trkpt lat="37.0316606" lon="-3.741285"><ele>1041.0</ele><time>2026-03-07T08:36:38.004Z</time></trkpt><trkpt lat="37.0316631" lon="-3.7413914"><ele>1043.0</ele><time>2026-03-07T08:36:39.008Z</time></trkpt><trkpt lat="37.0316497" lon="-3.7414993"><ele>1045.0</ele><time>2026-03-07T08:36:40.008Z</time></trkpt><trkpt lat="37.0316426" lon="-3.7416134"><ele>1047.0</ele><time>2026-03-07T08:36:41.01Z</time></trkpt><trkpt lat="37.0316554" lon="-3.7417238"><ele>1049.0</ele><time>2026-03-07T08:36:42.004Z</time></trkpt><trkpt lat="37.0316788" lon="-3.7418234"><ele>1051.0</ele><time>2026-03-07T08:36:42.996Z</time></trkpt><trkpt lat="37.0317012" lon="-3.7419228"><ele>1051.2857142857142</ele><time>2026-03-07T08:36:44.001Z</time></trkpt><trkpt lat="37.0317238" lon="-3.742019"><ele>1051.5714285714284</ele><time>2026-03-07T08:36:45.01Z</time></trkpt><trkpt lat="37.0317315" lon="-3.742109"><ele>1051.8571428571427</ele><time>2026-03-07T08:36:46.015Z</time></trkpt><trkpt lat="37.0317227" lon="-3.7421899"><ele>1052.142857142857</ele><time>2026-03-07T08:36:47Z</time></trkpt><trkpt lat="37.0317072" lon="-3.7422691"><ele>1052.4285714285713</ele><time>2026-03-07T08:36:47.999Z</time></trkpt><trkpt lat="37.0316956" lon="-3.7423579"><ele>1052.7142857142856</ele><time>2026-03-07T08:36:49.014Z</time></trkpt><trkpt lat="37.0316978" lon="-3.7424499"><ele>1053.0</ele><time>2026-03-07T08:36:50.024Z</time></trkpt><trkpt lat="37.0317006" lon="-3.7425481"><ele>1053.0</ele><time>2026-03-07T08:36:51.01Z</time></trkpt><trkpt lat="37.0317063" lon="-3.7426444"><ele>1053.0</ele><time>2026-03-07T08:36:52.013Z</time></trkpt><trkpt lat="37.0317174" lon="-3.7427369"><ele>1053.0</ele><time>2026-03-07T08:36:53.017Z</time></trkpt><trkpt lat="37.0317307" lon="-3.7428277"><ele>1053.0</ele><time>2026-03-07T08:36:54.007Z</time></trkpt><trkpt lat="37.0317456" lon="-3.7429156"><ele>1053.0</ele><time>2026-03-07T08:36:55.001Z</time></trkpt><trkpt lat="37.0317586" lon="-3.743007"><ele>1053.0</ele><time>2026-03-07T08:36:56.013Z</time></trkpt><trkpt lat="37.0317516" lon="-3.7431048"><ele>1053.8333333333333</ele><time>2026-03-07T08:36:57.011Z</time></trkpt><trkpt lat="37.0317459" lon="-3.7432"><ele>1054.6666666666667</ele><time>2026-03-07T08:36:58.041Z</time></trkpt><trkpt lat="37.0317379" lon="-3.7432904"><ele>1055.5</ele><time>2026-03-07T08:36:59.034Z</time></trkpt><trkpt lat="37.0317388" lon="-3.7433796"><ele>1056.3333333333335</ele><time>2026-03-07T08:36:59.988Z</time></trkpt><trkpt lat="37.0317507" lon="-3.7434738"><ele>1057.1666666666667</ele><time>2026-03-07T08:37:00.994Z</time></trkpt><trkpt lat="37.0317715" lon="-3.7435755"><ele>1058.0</ele><time>2026-03-07T08:37:01.986Z</time></trkpt><trkpt lat="37.0317956" lon="-3.7436758"><ele>1058.5</ele><time>2026-03-07T08:37:02.988Z</time></trkpt><trkpt lat="37.0318169" lon="-3.743775"><ele>1059.0</ele><time>2026-03-07T08:37:03.982Z</time></trkpt><trkpt lat="37.0318364" lon="-3.7438733"><ele>1059.5</ele><time>2026-03-07T08:37:05.004Z</time></trkpt><trkpt lat="37.0318562" lon="-3.743971"><ele>1060.0</ele><time>2026-03-07T08:37:06.012Z</time></trkpt><trkpt lat="37.0318637" lon="-3.7440638"><ele>1060.5</ele><time>2026-03-07T08:37:07.008Z</time></trkpt><trkpt lat="37.0318607" lon="-3.7441515"><ele>1061.0</ele><time>2026-03-07T08:37:08.006Z</time></trkpt><trkpt lat="37.0318583" lon="-3.7442413"><ele>1061.0</ele><time>2026-03-07T08:37:09.007Z</time></trkpt><trkpt lat="37.0318535" lon="-3.7443391"><ele>1061.0</ele><time>2026-03-07T08:37:10.005Z</time></trkpt><trkpt lat="37.0318459" lon="-3.744442"><ele>1061.0</ele><time>2026-03-07T08:37:11.01Z</time></trkpt><trkpt lat="37.0318439" lon="-3.7445502"><ele>1061.0</ele><time>2026-03-07T08:37:12.003Z</time></trkpt><trkpt lat="37.0318429" lon="-3.7446671"><ele>1061.0</ele><time>2026-03-07T08:37:13.016Z</time></trkpt><trkpt lat="37.031846" lon="-3.7447914"><ele>1061.0</ele><time>2026-03-07T08:37:14.004Z</time></trkpt><trkpt lat="37.0318481" lon="-3.7449213"><ele>1061.6</ele><time>2026-03-07T08:37:15.007Z</time></trkpt><trkpt lat="37.0318533" lon="-3.7450516"><ele>1062.1999999999998</ele><time>2026-03-07T08:37:16.004Z</time></trkpt><trkpt lat="37.0318591" lon="-3.7451808"><ele>1062.8000000000002</ele><time>2026-03-07T08:37:17.02Z</time></trkpt><trkpt lat="37.0318526" lon="-3.7452955"><ele>1063.4</ele><time>2026-03-07T08:37:18.012Z</time></trkpt><trkpt lat="37.0318386" lon="-3.745402"><ele>1064.0</ele><time>2026-03-07T08:37:19.009Z</time></trkpt><trkpt lat="37.0318257" lon="-3.7455184"><ele>1064.5</ele><time>2026-03-07T08:37:20.013Z</time></trkpt><trkpt lat="37.0318132" lon="-3.7456322"><ele>1065.0</ele><time>2026-03-07T08:37:20.998Z</time></trkpt><trkpt lat="37.0318" lon="-3.7457426"><ele>1065.5</ele><time>2026-03-07T08:37:22.007Z</time></trkpt><trkpt lat="37.0317927" lon="-3.7458371"><ele>1066.0</ele><time>2026-03-07T08:37:23.012Z</time></trkpt><trkpt lat="37.0318009" lon="-3.7459253"><ele>1066.5</ele><time>2026-03-07T08:37:23.999Z</time></trkpt><trkpt lat="37.0318067" lon="-3.7460061"><ele>1067.0</ele><time>2026-03-07T08:37:25.003Z</time></trkpt><trkpt lat="37.0318151" lon="-3.7460849"><ele>1067.2</ele><time>2026-03-07T08:37:26.019Z</time></trkpt><trkpt lat="37.0318135" lon="-3.7462172"><ele>1067.4</ele><time>2026-03-07T08:37:28.002Z</time></trkpt><trkpt lat="37.0317964" lon="-3.7463252"><ele>1067.6</ele><time>2026-03-07T08:37:30.005Z</time></trkpt><trkpt lat="37.0318008" lon="-3.746452"><ele>1067.8</ele><time>2026-03-07T08:37:32.007Z</time></trkpt><trkpt lat="37.0318107" lon="-3.7465911"><ele>1068.0</ele><time>2026-03-07T08:37:34.01Z</time></trkpt><trkpt lat="37.0318155" lon="-3.7466734"><ele>1068.0</ele><time>2026-03-07T08:37:35.002Z</time></trkpt><trkpt lat="37.0318184" lon="-3.7467565"><ele>1068.0</ele><time>2026-03-07T08:37:36.01Z</time></trkpt><trkpt lat="37.0318144" lon="-3.7468402"><ele>1068.0</ele><time>2026-03-07T08:37:37.015Z</time></trkpt><trkpt lat="37.0318085" lon="-3.7469291"><ele>1068.0</ele><time>2026-03-07T08:37:38.005Z</time></trkpt><trkpt lat="37.0317831" lon="-3.7470172"><ele>1068.0</ele><time>2026-03-07T08:37:39.009Z</time></trkpt><trkpt lat="37.0317479" lon="-3.747112"><ele>1068.0</ele><time>2026-03-07T08:37:40.021Z</time></trkpt><trkpt lat="37.0317097" lon="-3.7472186"><ele>1069.0</ele><time>2026-03-07T08:37:40.999Z</time></trkpt><trkpt lat="37.0316714" lon="-3.7473167"><ele>1070.0</ele><time>2026-03-07T08:37:42.005Z</time></trkpt><trkpt lat="37.0316256" lon="-3.747418"><ele>1071.0</ele><time>2026-03-07T08:37:43.012Z</time></trkpt><trkpt lat="37.0315802" lon="-3.747526"><ele>1072.0</ele><time>2026-03-07T08:37:44.036Z</time></trkpt><trkpt lat="37.0315268" lon="-3.7476298"><ele>1073.0</ele><time>2026-03-07T08:37:45.029Z</time></trkpt><trkpt lat="37.0314698" lon="-3.7477296"><ele>1073.1666666666667</ele><time>2026-03-07T08:37:46.008Z</time></trkpt><trkpt lat="37.0314191" lon="-3.7478242"><ele>1073.3333333333335</ele><time>2026-03-07T08:37:47.011Z</time></trkpt><trkpt lat="37.0313689" lon="-3.7479176"><ele>1073.5</ele><time>2026-03-07T08:37:48.007Z</time></trkpt><trkpt lat="37.0313146" lon="-3.7480024"><ele>1073.6666666666667</ele><time>2026-03-07T08:37:49.024Z</time></trkpt><trkpt lat="37.0312592" lon="-3.7480836"><ele>1073.8333333333333</ele><time>2026-03-07T08:37:50.018Z</time></trkpt><trkpt lat="37.0312034" lon="-3.7481589"><ele>1074.0</ele><time>2026-03-07T08:37:51.024Z</time></trkpt><trkpt lat="37.0311528" lon="-3.7482264"><ele>1074.0</ele><time>2026-03-07T08:37:52.003Z</time></trkpt><trkpt lat="37.0311031" lon="-3.7482903"><ele>1074.0</ele><time>2026-03-07T08:37:53.004Z</time></trkpt><trkpt lat="37.0310469" lon="-3.7483574"><ele>1074.0</ele><time>2026-03-07T08:37:54.008Z</time></trkpt><trkpt lat="37.0309889" lon="-3.7484321"><ele>1074.0</ele><time>2026-03-07T08:37:55.075Z</time></trkpt><trkpt lat="37.0309332" lon="-3.7485124"><ele>1074.0</ele><time>2026-03-07T08:37:56.021Z</time></trkpt><trkpt lat="37.0308786" lon="-3.7485902"><ele>1074.0</ele><time>2026-03-07T08:37:57.002Z</time></trkpt><trkpt lat="37.0308251" lon="-3.7486665"><ele>1073.5</ele><time>2026-03-07T08:37:58.013Z</time></trkpt><trkpt lat="37.0307769" lon="-3.7487435"><ele>1073.0</ele><time>2026-03-07T08:37:59.02Z</time></trkpt><trkpt lat="37.0307299" lon="-3.7488163"><ele>1072.5</ele><time>2026-03-07T08:38:00.011Z</time></trkpt><trkpt lat="37.0306854" lon="-3.7488939"><ele>1072.0</ele><time>2026-03-07T08:38:01.006Z</time></trkpt><trkpt lat="37.0306426" lon="-3.7489753"><ele>1071.5</ele><time>2026-03-07T08:38:02.017Z</time></trkpt><trkpt lat="37.0306006" lon="-3.7490585"><ele>1071.0</ele><time>2026-03-07T08:38:03.015Z</time></trkpt><trkpt lat="37.0305581" lon="-3.7491413"><ele>1071.0</ele><time>2026-03-07T08:38:04.014Z</time></trkpt><trkpt lat="37.0305129" lon="-3.7492187"><ele>1071.0</ele><time>2026-03-07T08:38:05.008Z</time></trkpt><trkpt lat="37.030464" lon="-3.7492897"><ele>1071.0</ele><time>2026-03-07T08:38:06.006Z</time></trkpt><trkpt lat="37.0304149" lon="-3.7493641"><ele>1071.0</ele><time>2026-03-07T08:38:07.019Z</time></trkpt><trkpt lat="37.0303667" lon="-3.7494407"><ele>1071.0</ele><time>2026-03-07T08:38:08.012Z</time></trkpt><trkpt lat="37.0303219" lon="-3.7495177"><ele>1071.0</ele><time>2026-03-07T08:38:09.014Z</time></trkpt><trkpt lat="37.0302778" lon="-3.7495958"><ele>1070.6666666666667</ele><time>2026-03-07T08:38:10.005Z</time></trkpt><trkpt lat="37.03023" lon="-3.7496752"><ele>1070.3333333333333</ele><time>2026-03-07T08:38:11.016Z</time></trkpt><trkpt lat="37.0301835" lon="-3.7497556"><ele>1070.0</ele><time>2026-03-07T08:38:12.012Z</time></trkpt><trkpt lat="37.0301346" lon="-3.749834"><ele>1069.6666666666665</ele><time>2026-03-07T08:38:13.001Z</time></trkpt><trkpt lat="37.0300874" lon="-3.7499099"><ele>1069.3333333333333</ele><time>2026-03-07T08:38:14.008Z</time></trkpt><trkpt lat="37.0300405" lon="-3.7499816"><ele>1069.0</ele><time>2026-03-07T08:38:15.005Z</time></trkpt><trkpt lat="37.0299941" lon="-3.7500489"><ele>1069.5</ele><time>2026-03-07T08:38:16.004Z</time></trkpt><trkpt lat="37.0299481" lon="-3.7501146"><ele>1070.0</ele><time>2026-03-07T08:38:17.002Z</time></trkpt><trkpt lat="37.029906" lon="-3.7501813"><ele>1070.5</ele><time>2026-03-07T08:38:18.009Z</time></trkpt><trkpt lat="37.02987" lon="-3.7502473"><ele>1071.0</ele><time>2026-03-07T08:38:18.991Z</time></trkpt><trkpt lat="37.0297968" lon="-3.7503559"><ele>1071.5</ele><time>2026-03-07T08:38:21.018Z</time></trkpt><trkpt lat="37.0297365" lon="-3.7504458"><ele>1072.0</ele><time>2026-03-07T08:38:23.008Z</time></trkpt><trkpt lat="37.0296823" lon="-3.7505261"><ele>1072.0</ele><time>2026-03-07T08:38:25.006Z</time></trkpt><trkpt lat="37.0296466" lon="-3.7506343"><ele>1072.0</ele><time>2026-03-07T08:38:27.002Z</time></trkpt><trkpt lat="37.0296443" lon="-3.7507734"><ele>1072.0</ele><time>2026-03-07T08:38:29.008Z</time></trkpt><trkpt lat="37.0296161" lon="-3.7508736"><ele>1072.0</ele><time>2026-03-07T08:38:31.005Z</time></trkpt><trkpt lat="37.0295592" lon="-3.7509983"><ele>1072.0</ele><time>2026-03-07T08:38:33.001Z</time></trkpt><trkpt lat="37.0294947" lon="-3.7511148"><ele>1072.0</ele><time>2026-03-07T08:38:35.018Z</time></trkpt><trkpt lat="37.0294222" lon="-3.7512163"><ele>1072.0</ele><time>2026-03-07T08:38:37.004Z</time></trkpt><trkpt lat="37.029328" lon="-3.7513053"><ele>1072.0</ele><time>2026-03-07T08:38:39.004Z</time></trkpt><trkpt lat="37.0292706" lon="-3.7513392"><ele>1072.0</ele><time>2026-03-07T08:38:40.009Z</time></trkpt><trkpt lat="37.0292073" lon="-3.7513533"><ele>1072.0</ele><time>2026-03-07T08:38:41.011Z</time></trkpt><trkpt lat="37.0291356" lon="-3.7513645"><ele>1072.0</ele><time>2026-03-07T08:38:42.016Z</time></trkpt><trkpt lat="37.0290615" lon="-3.7513807"><ele>1073.2</ele><time>2026-03-07T08:38:43.015Z</time></trkpt><trkpt lat="37.0289913" lon="-3.7514006"><ele>1074.4</ele><time>2026-03-07T08:38:44.011Z</time></trkpt><trkpt lat="37.0288895" lon="-3.7514447"><ele>1075.6</ele><time>2026-03-07T08:38:46.007Z</time></trkpt><trkpt lat="37.0287955" lon="-3.7514894"><ele>1076.8</ele><time>2026-03-07T08:38:48.011Z</time></trkpt><trkpt lat="37.0286769" lon="-3.7515282"><ele>1078.0</ele><time>2026-03-07T08:38:50.009Z</time></trkpt><trkpt lat="37.028609" lon="-3.7515373"><ele>1078.0</ele><time>2026-03-07T08:38:51.018Z</time></trkpt><trkpt lat="37.0284953" lon="-3.7515353"><ele>1078.0</ele><time>2026-03-07T08:38:53.005Z</time></trkpt><trkpt lat="37.0284019" lon="-3.7515273"><ele>1078.0</ele><time>2026-03-07T08:38:55.006Z</time></trkpt><trkpt lat="37.0283034" lon="-3.7514978"><ele>1078.0</ele><time>2026-03-07T08:38:57.007Z</time></trkpt><trkpt lat="37.0281819" lon="-3.7514654"><ele>1078.0</ele><time>2026-03-07T08:38:59.007Z</time></trkpt><trkpt lat="37.0281177" lon="-3.7514757"><ele>1079.0</ele><time>2026-03-07T08:39:00.028Z</time></trkpt><trkpt lat="37.0280063" lon="-3.7515253"><ele>1080.0</ele><time>2026-03-07T08:39:02.023Z</time></trkpt><trkpt lat="37.0279069" lon="-3.7515387"><ele>1081.0</ele><time>2026-03-07T08:39:04.01Z</time></trkpt><trkpt lat="37.0278281" lon="-3.7514709"><ele>1082.0</ele><time>2026-03-07T08:39:06.012Z</time></trkpt><trkpt lat="37.0277517" lon="-3.7513998"><ele>1083.0</ele><time>2026-03-07T08:39:08.016Z</time></trkpt><trkpt lat="37.0276355" lon="-3.7513852"><ele>1083.0</ele><time>2026-03-07T08:39:10.013Z</time></trkpt><trkpt lat="37.0275301" lon="-3.7514456"><ele>1083.0</ele><time>2026-03-07T08:39:12.003Z</time></trkpt><trkpt lat="37.0274347" lon="-3.7515079"><ele>1083.0</ele><time>2026-03-07T08:39:14.001Z</time></trkpt><trkpt lat="37.0273345" lon="-3.7515248"><ele>1083.0</ele><time>2026-03-07T08:39:16.012Z</time></trkpt><trkpt lat="37.0272525" lon="-3.7514952"><ele>1083.0</ele><time>2026-03-07T08:39:18.009Z</time></trkpt><trkpt lat="37.0271689" lon="-3.7514125"><ele>1083.0</ele><time>2026-03-07T08:39:20.014Z</time></trkpt><trkpt lat="37.0270706" lon="-3.7513745"><ele>1083.0</ele><time>2026-03-07T08:39:22.019Z</time></trkpt><trkpt lat="37.0269996" lon="-3.7513848"><ele>1083.0</ele><time>2026-03-07T08:39:24.013Z</time></trkpt><trkpt lat="37.0269261" lon="-3.7513929"><ele>1083.0</ele><time>2026-03-07T08:39:27.007Z</time></trkpt><trkpt lat="37.0268621" lon="-3.7513904"><ele>1083.0</ele><time>2026-03-07T08:39:30.01Z</time></trkpt><trkpt lat="37.026782" lon="-3.7513933"><ele>1083.0</ele><time>2026-03-07T08:39:32.018Z</time></trkpt><trkpt lat="37.0267024" lon="-3.7514004"><ele>1082.4</ele><time>2026-03-07T08:39:33.993Z</time></trkpt><trkpt lat="37.0266267" lon="-3.7513835"><ele>1081.8</ele><time>2026-03-07T08:39:36.006Z</time></trkpt><trkpt lat="37.0265496" lon="-3.7513059"><ele>1081.2</ele><time>2026-03-07T08:39:38.007Z</time></trkpt><trkpt lat="37.0264642" lon="-3.7512455"><ele>1080.6</ele><time>2026-03-07T08:39:40.011Z</time></trkpt><trkpt lat="37.0263689" lon="-3.7511645"><ele>1080.0</ele><time>2026-03-07T08:39:42.011Z</time></trkpt><trkpt lat="37.0262967" lon="-3.7510676"><ele>1080.5</ele><time>2026-03-07T08:39:44.057Z</time></trkpt><trkpt lat="37.0262328" lon="-3.7509818"><ele>1081.0</ele><time>2026-03-07T08:39:46.009Z</time></trkpt><trkpt lat="37.0261601" lon="-3.7509402"><ele>1081.5</ele><time>2026-03-07T08:39:48.011Z</time></trkpt><trkpt lat="37.0260933" lon="-3.7508956"><ele>1082.0</ele><time>2026-03-07T08:39:50.016Z</time></trkpt><trkpt lat="37.0260281" lon="-3.7508627"><ele>1082.5</ele><time>2026-03-07T08:39:52.015Z</time></trkpt><trkpt lat="37.0259411" lon="-3.7508527"><ele>1083.0</ele><time>2026-03-07T08:40:09.021Z</time></trkpt><trkpt lat="37.0258317" lon="-3.75088"><ele>1082.6</ele><time>2026-03-07T08:40:11.008Z</time></trkpt><trkpt lat="37.02572" lon="-3.7509164"><ele>1082.1999999999998</ele><time>2026-03-07T08:40:13.008Z</time></trkpt><trkpt lat="37.0256264" lon="-3.7509495"><ele>1081.8</ele><time>2026-03-07T08:40:15.002Z</time></trkpt><trkpt lat="37.0255338" lon="-3.7509217"><ele>1081.3999999999999</ele><time>2026-03-07T08:40:17.004Z</time></trkpt><trkpt lat="37.0254413" lon="-3.7508407"><ele>1081.0</ele><time>2026-03-07T08:40:19.011Z</time></trkpt><trkpt lat="37.0253472" lon="-3.7507893"><ele>1081.0</ele><time>2026-03-07T08:40:21.009Z</time></trkpt><trkpt lat="37.0252602" lon="-3.7507885"><ele>1081.0</ele><time>2026-03-07T08:40:23.004Z</time></trkpt><trkpt lat="37.0251478" lon="-3.7507876"><ele>1081.0</ele><time>2026-03-07T08:40:24.998Z</time></trkpt><trkpt lat="37.0250798" lon="-3.7507831"><ele>1081.0</ele><time>2026-03-07T08:40:26.011Z</time></trkpt><trkpt lat="37.0249987" lon="-3.7507938"><ele>1081.0</ele><time>2026-03-07T08:40:27.005Z</time></trkpt><trkpt lat="37.0249193" lon="-3.7507999"><ele>1081.0</ele><time>2026-03-07T08:40:28.005Z</time></trkpt><trkpt lat="37.0248529" lon="-3.7507838"><ele>1081.3999999999999</ele><time>2026-03-07T08:40:29.021Z</time></trkpt><trkpt lat="37.0248004" lon="-3.7507371"><ele>1081.8</ele><time>2026-03-07T08:40:30.019Z</time></trkpt><trkpt lat="37.0247446" lon="-3.7506258"><ele>1082.1999999999998</ele><time>2026-03-07T08:40:32.016Z</time></trkpt><trkpt lat="37.0247091" lon="-3.750511"><ele>1082.6</ele><time>2026-03-07T08:40:34.013Z</time></trkpt><trkpt lat="37.0246754" lon="-3.7503756"><ele>1083.0</ele><time>2026-03-07T08:40:36.006Z</time></trkpt><trkpt lat="37.0246335" lon="-3.750234"><ele>1083.0</ele><time>2026-03-07T08:40:38.008Z</time></trkpt><trkpt lat="37.0245886" lon="-3.7501064"><ele>1083.0</ele><time>2026-03-07T08:40:40.009Z</time></trkpt><trkpt lat="37.0245568" lon="-3.7499903"><ele>1083.0</ele><time>2026-03-07T08:40:42.006Z</time></trkpt><trkpt lat="37.0244919" lon="-3.7499218"><ele>1083.0</ele><time>2026-03-07T08:40:44.014Z</time></trkpt><trkpt lat="37.0243879" lon="-3.7499075"><ele>1083.0</ele><time>2026-03-07T08:40:46.013Z</time></trkpt><trkpt lat="37.024261" lon="-3.7498697"><ele>1083.0</ele><time>2026-03-07T08:40:47.999Z</time></trkpt><trkpt lat="37.024187" lon="-3.7498437"><ele>1083.0</ele><time>2026-03-07T08:40:49.013Z</time></trkpt><trkpt lat="37.0241069" lon="-3.7498248"><ele>1083.0</ele><time>2026-03-07T08:40:50.006Z</time></trkpt><trkpt lat="37.0240296" lon="-3.749802"><ele>1083.0</ele><time>2026-03-07T08:40:51.006Z</time></trkpt><trkpt lat="37.0239612" lon="-3.7497656"><ele>1083.0</ele><time>2026-03-07T08:40:52.01Z</time></trkpt><trkpt lat="37.0238957" lon="-3.7497254"><ele>1083.0</ele><time>2026-03-07T08:40:53.004Z</time></trkpt><trkpt lat="37.0238315" lon="-3.7496944"><ele>1083.4</ele><time>2026-03-07T08:40:53.996Z</time></trkpt><trkpt lat="37.0237666" lon="-3.7496746"><ele>1083.8</ele><time>2026-03-07T08:40:55.011Z</time></trkpt><trkpt lat="37.0236454" lon="-3.7496911"><ele>1084.2</ele><time>2026-03-07T08:40:57.001Z</time></trkpt><trkpt lat="37.0235368" lon="-3.7497324"><ele>1084.6</ele><time>2026-03-07T08:40:59.002Z</time></trkpt><trkpt lat="37.0234177" lon="-3.7497186"><ele>1085.0</ele><time>2026-03-07T08:41:01.009Z</time></trkpt><trkpt lat="37.0232951" lon="-3.7497226"><ele>1085.8333333333335</ele><time>2026-03-07T08:41:03.009Z</time></trkpt><trkpt lat="37.0231805" lon="-3.7497586"><ele>1086.6666666666667</ele><time>2026-03-07T08:41:05.002Z</time></trkpt><trkpt lat="37.0230746" lon="-3.7498014"><ele>1087.5</ele><time>2026-03-07T08:41:06.998Z</time></trkpt><trkpt lat="37.0230158" lon="-3.7498317"><ele>1088.3333333333333</ele><time>2026-03-07T08:41:08.008Z</time></trkpt><trkpt lat="37.0229585" lon="-3.7498689"><ele>1089.1666666666665</ele><time>2026-03-07T08:41:09.003Z</time></trkpt><trkpt lat="37.0229046" lon="-3.7499129"><ele>1090.0</ele><time>2026-03-07T08:41:10.004Z</time></trkpt><trkpt lat="37.0228548" lon="-3.749969"><ele>1090.0</ele><time>2026-03-07T08:41:11.013Z</time></trkpt><trkpt lat="37.022811" lon="-3.7500261"><ele>1090.0</ele><time>2026-03-07T08:41:12.025Z</time></trkpt><trkpt lat="37.0227698" lon="-3.7500874"><ele>1090.0</ele><time>2026-03-07T08:41:13.007Z</time></trkpt><trkpt lat="37.0227244" lon="-3.7501562"><ele>1090.0</ele><time>2026-03-07T08:41:14.006Z</time></trkpt><trkpt lat="37.0226799" lon="-3.7502213"><ele>1090.0</ele><time>2026-03-07T08:41:15.004Z</time></trkpt><trkpt lat="37.0226074" lon="-3.7503253"><ele>1090.0</ele><time>2026-03-07T08:41:17.018Z</time></trkpt><trkpt lat="37.0226041" lon="-3.7504451"><ele>1089.8333333333333</ele><time>2026-03-07T08:41:19.012Z</time></trkpt><trkpt lat="37.0226211" lon="-3.7505274"><ele>1089.6666666666665</ele><time>2026-03-07T08:41:20.011Z</time></trkpt><trkpt lat="37.0226407" lon="-3.7506125"><ele>1089.5</ele><time>2026-03-07T08:41:21.008Z</time></trkpt><trkpt lat="37.0226756" lon="-3.7507277"><ele>1089.3333333333333</ele><time>2026-03-07T08:41:23.01Z</time></trkpt><trkpt lat="37.0227342" lon="-3.7508243"><ele>1089.1666666666667</ele><time>2026-03-07T08:41:25.011Z</time></trkpt><trkpt lat="37.0228083" lon="-3.7509077"><ele>1089.0</ele><time>2026-03-07T08:41:26.997Z</time></trkpt><trkpt lat="37.0228409" lon="-3.750997"><ele>1089.0</ele><time>2026-03-07T08:41:30.014Z</time></trkpt><trkpt lat="37.0227453" lon="-3.7510452"><ele>1089.0</ele><time>2026-03-07T08:41:33.001Z</time></trkpt><trkpt lat="37.0226453" lon="-3.7510779"><ele>1089.0</ele><time>2026-03-07T08:41:35.013Z</time></trkpt><trkpt lat="37.0225381" lon="-3.7511466"><ele>1089.0</ele><time>2026-03-07T08:41:37.015Z</time></trkpt><trkpt lat="37.0224806" lon="-3.7511806"><ele>1089.0</ele><time>2026-03-07T08:41:38.007Z</time></trkpt><trkpt lat="37.0223664" lon="-3.7512103"><ele>1090.0</ele><time>2026-03-07T08:41:39.999Z</time></trkpt><trkpt lat="37.022247" lon="-3.7512508"><ele>1091.0</ele><time>2026-03-07T08:41:42.012Z</time></trkpt><trkpt lat="37.0221191" lon="-3.7512601"><ele>1092.0</ele><time>2026-03-07T08:41:44.006Z</time></trkpt><trkpt lat="37.0220543" lon="-3.7512468"><ele>1093.0</ele><time>2026-03-07T08:41:45.01Z</time></trkpt><trkpt lat="37.021988" lon="-3.7512216"><ele>1094.0</ele><time>2026-03-07T08:41:46.005Z</time></trkpt><trkpt lat="37.0219278" lon="-3.7511829"><ele>1094.0</ele><time>2026-03-07T08:41:47.007Z</time></trkpt><trkpt lat="37.0218683" lon="-3.7511416"><ele>1094.0</ele><time>2026-03-07T08:41:47.991Z</time></trkpt><trkpt lat="37.0218074" lon="-3.7511069"><ele>1094.0</ele><time>2026-03-07T08:41:49.012Z</time></trkpt><trkpt lat="37.0217476" lon="-3.7510757"><ele>1094.0</ele><time>2026-03-07T08:41:50.015Z</time></trkpt><trkpt lat="37.0216894" lon="-3.7510423"><ele>1094.0</ele><time>2026-03-07T08:41:51.009Z</time></trkpt><trkpt lat="37.0215739" lon="-3.7509978"><ele>1094.0</ele><time>2026-03-07T08:41:53.007Z</time></trkpt><trkpt lat="37.021512" lon="-3.750959"><ele>1094.3333333333335</ele><time>2026-03-07T08:41:54.005Z</time></trkpt><trkpt lat="37.0214489" lon="-3.7509076"><ele>1094.6666666666667</ele><time>2026-03-07T08:41:55.021Z</time></trkpt><trkpt lat="37.0213853" lon="-3.7508566"><ele>1095.0</ele><time>2026-03-07T08:41:56.021Z</time></trkpt><trkpt lat="37.0213227" lon="-3.7508104"><ele>1095.3333333333333</ele><time>2026-03-07T08:41:57.024Z</time></trkpt><trkpt lat="37.0212124" lon="-3.750785"><ele>1095.6666666666665</ele><time>2026-03-07T08:41:59.008Z</time></trkpt><trkpt lat="37.0211307" lon="-3.7507487"><ele>1096.0</ele><time>2026-03-07T08:42:01.011Z</time></trkpt><trkpt lat="37.0210342" lon="-3.7506934"><ele>1096.0</ele><time>2026-03-07T08:42:03.007Z</time></trkpt><trkpt lat="37.0209256" lon="-3.750698"><ele>1096.0</ele><time>2026-03-07T08:42:05.021Z</time></trkpt><trkpt lat="37.0208303" lon="-3.7506111"><ele>1096.0</ele><time>2026-03-07T08:42:07.013Z</time></trkpt><trkpt lat="37.0207776" lon="-3.7505509"><ele>1096.0</ele><time>2026-03-07T08:42:08.011Z</time></trkpt><trkpt lat="37.0207129" lon="-3.7504949"><ele>1096.0</ele><time>2026-03-07T08:42:09.003Z</time></trkpt><trkpt lat="37.0206412" lon="-3.7504641"><ele>1096.8333333333333</ele><time>2026-03-07T08:42:10.003Z</time></trkpt><trkpt lat="37.0205692" lon="-3.7504357"><ele>1097.6666666666665</ele><time>2026-03-07T08:42:11.008Z</time></trkpt><trkpt lat="37.0205043" lon="-3.7504003"><ele>1098.5</ele><time>2026-03-07T08:42:12.013Z</time></trkpt><trkpt lat="37.0204315" lon="-3.7503597"><ele>1099.3333333333333</ele><time>2026-03-07T08:42:13.002Z</time></trkpt><trkpt lat="37.0203534" lon="-3.7503218"><ele>1100.1666666666667</ele><time>2026-03-07T08:42:14.015Z</time></trkpt><trkpt lat="37.0202753" lon="-3.7502994"><ele>1101.0</ele><time>2026-03-07T08:42:15.006Z</time></trkpt><trkpt lat="37.0201999" lon="-3.7502818"><ele>1101.0</ele><time>2026-03-07T08:42:16.048Z</time></trkpt><trkpt lat="37.0201218" lon="-3.7502675"><ele>1101.0</ele><time>2026-03-07T08:42:17.018Z</time></trkpt><trkpt lat="37.020042" lon="-3.7502567"><ele>1101.0</ele><time>2026-03-07T08:42:18.035Z</time></trkpt><trkpt lat="37.0199643" lon="-3.7502567"><ele>1101.0</ele><time>2026-03-07T08:42:19.075Z</time></trkpt><trkpt lat="37.0198846" lon="-3.7502395"><ele>1101.0</ele><time>2026-03-07T08:42:20.077Z</time></trkpt><trkpt lat="37.019807" lon="-3.750234"><ele>1101.0</ele><time>2026-03-07T08:42:21.077Z</time></trkpt><trkpt lat="37.0197295" lon="-3.7502265"><ele>1101.0</ele><time>2026-03-07T08:42:22.021Z</time></trkpt><trkpt lat="37.0196568" lon="-3.7502243"><ele>1101.0</ele><time>2026-03-07T08:42:23.021Z</time></trkpt><trkpt lat="37.0195888" lon="-3.7502161"><ele>1101.0</ele><time>2026-03-07T08:42:24.012Z</time></trkpt><trkpt lat="37.0195257" lon="-3.7501933"><ele>1101.0</ele><time>2026-03-07T08:42:25.006Z</time></trkpt><trkpt lat="37.0194692" lon="-3.7501558"><ele>1101.0</ele><time>2026-03-07T08:42:26.001Z</time></trkpt><trkpt lat="37.0194111" lon="-3.7501177"><ele>1101.0</ele><time>2026-03-07T08:42:27.007Z</time></trkpt><trkpt lat="37.0193383" lon="-3.7500874"><ele>1101.0</ele><time>2026-03-07T08:42:28.015Z</time></trkpt><trkpt lat="37.0192578" lon="-3.7500942"><ele>1100.6666666666667</ele><time>2026-03-07T08:42:29.005Z</time></trkpt><trkpt lat="37.0191773" lon="-3.7501055"><ele>1100.3333333333333</ele><time>2026-03-07T08:42:30.064Z</time></trkpt><trkpt lat="37.0190998" lon="-3.7500993"><ele>1100.0</ele><time>2026-03-07T08:42:31.01Z</time></trkpt><trkpt lat="37.0190352" lon="-3.7500906"><ele>1099.6666666666665</ele><time>2026-03-07T08:42:32.006Z</time></trkpt><trkpt lat="37.0189439" lon="-3.7500788"><ele>1099.3333333333333</ele><time>2026-03-07T08:42:34.013Z</time></trkpt><trkpt lat="37.0188807" lon="-3.750063"><ele>1099.0</ele><time>2026-03-07T08:42:36.021Z</time></trkpt><trkpt lat="37.0188332" lon="-3.7499626"><ele>1099.6666666666665</ele><time>2026-03-07T08:42:38.021Z</time></trkpt><trkpt lat="37.018803" lon="-3.7498878"><ele>1100.3333333333333</ele><time>2026-03-07T08:42:39.033Z</time></trkpt><trkpt lat="37.0187666" lon="-3.7498065"><ele>1101.0</ele><time>2026-03-07T08:42:40.015Z</time></trkpt><trkpt lat="37.0187255" lon="-3.7497232"><ele>1101.6666666666667</ele><time>2026-03-07T08:42:41.011Z</time></trkpt><trkpt lat="37.0186784" lon="-3.7496414"><ele>1102.3333333333335</ele><time>2026-03-07T08:42:42.01Z</time></trkpt><trkpt lat="37.0186302" lon="-3.7495605"><ele>1103.0</ele><time>2026-03-07T08:42:43.006Z</time></trkpt><trkpt lat="37.0185679" lon="-3.7494742"><ele>1103.0</ele><time>2026-03-07T08:42:44.015Z</time></trkpt><trkpt lat="37.0184996" lon="-3.7493865"><ele>1103.0</ele><time>2026-03-07T08:42:45.004Z</time></trkpt><trkpt lat="37.0184245" lon="-3.749297"><ele>1103.0</ele><time>2026-03-07T08:42:46.015Z</time></trkpt><trkpt lat="37.018345" lon="-3.7492037"><ele>1103.0</ele><time>2026-03-07T08:42:47.042Z</time></trkpt><trkpt lat="37.0182668" lon="-3.7491053"><ele>1103.0</ele><time>2026-03-07T08:42:48.015Z</time></trkpt><trkpt lat="37.0181888" lon="-3.7490047"><ele>1104.0</ele><time>2026-03-07T08:42:49.005Z</time></trkpt><trkpt lat="37.0181163" lon="-3.7489094"><ele>1105.0</ele><time>2026-03-07T08:42:50.007Z</time></trkpt><trkpt lat="37.0180513" lon="-3.7488232"><ele>1106.0</ele><time>2026-03-07T08:42:51.017Z</time></trkpt><trkpt lat="37.0179906" lon="-3.748729"><ele>1107.0</ele><time>2026-03-07T08:42:52.005Z</time></trkpt><trkpt lat="37.017947" lon="-3.7486147"><ele>1108.0</ele><time>2026-03-07T08:42:53.008Z</time></trkpt><trkpt lat="37.017907" lon="-3.7484951"><ele>1108.0</ele><time>2026-03-07T08:42:54.01Z</time></trkpt><trkpt lat="37.0178669" lon="-3.7483831"><ele>1108.0</ele><time>2026-03-07T08:42:55.008Z</time></trkpt><trkpt lat="37.0178347" lon="-3.7482803"><ele>1108.0</ele><time>2026-03-07T08:42:56.013Z</time></trkpt><trkpt lat="37.0178006" lon="-3.7481914"><ele>1108.0</ele><time>2026-03-07T08:42:57.009Z</time></trkpt><trkpt lat="37.0177754" lon="-3.7481049"><ele>1108.0</ele><time>2026-03-07T08:42:58.008Z</time></trkpt><trkpt lat="37.0177131" lon="-3.7479945"><ele>1108.0</ele><time>2026-03-07T08:43:00.012Z</time></trkpt><trkpt lat="37.0176167" lon="-3.7479347"><ele>1108.0</ele><time>2026-03-07T08:43:02.01Z</time></trkpt><trkpt lat="37.0175709" lon="-3.74787"><ele>1108.0</ele><time>2026-03-07T08:43:03.008Z</time></trkpt><trkpt lat="37.0175354" lon="-3.7477837"><ele>1108.0</ele><time>2026-03-07T08:43:04.005Z</time></trkpt><trkpt lat="37.0174926" lon="-3.7477042"><ele>1108.0</ele><time>2026-03-07T08:43:05.009Z</time></trkpt><trkpt lat="37.0174428" lon="-3.747628"><ele>1108.0</ele><time>2026-03-07T08:43:06.01Z</time></trkpt><trkpt lat="37.0173971" lon="-3.7475355"><ele>1108.0</ele><time>2026-03-07T08:43:07.027Z</time></trkpt><trkpt lat="37.0173623" lon="-3.7474335"><ele>1108.6666666666665</ele><time>2026-03-07T08:43:08.017Z</time></trkpt><trkpt lat="37.0173317" lon="-3.7473304"><ele>1109.3333333333333</ele><time>2026-03-07T08:43:09.017Z</time></trkpt><trkpt lat="37.0172964" lon="-3.7472326"><ele>1110.0</ele><time>2026-03-07T08:43:10.02Z</time></trkpt><trkpt lat="37.0172643" lon="-3.747139"><ele>1110.6666666666667</ele><time>2026-03-07T08:43:11.011Z</time></trkpt><trkpt lat="37.0172547" lon="-3.7470488"><ele>1111.3333333333335</ele><time>2026-03-07T08:43:12.01Z</time></trkpt><trkpt lat="37.0172539" lon="-3.746964"><ele>1112.0</ele><time>2026-03-07T08:43:13.007Z</time></trkpt><trkpt lat="37.0172686" lon="-3.7468859"><ele>1112.5</ele><time>2026-03-07T08:43:14.073Z</time></trkpt><trkpt lat="37.0173126" lon="-3.7467588"><ele>1113.0</ele><time>2026-03-07T08:43:16.01Z</time></trkpt><trkpt lat="37.017337" lon="-3.7466591"><ele>1113.5</ele><time>2026-03-07T08:43:18.01Z</time></trkpt><trkpt lat="37.0173518" lon="-3.746553"><ele>1114.0</ele><time>2026-03-07T08:43:20.036Z</time></trkpt><trkpt lat="37.0173426" lon="-3.7464252"><ele>1114.5</ele><time>2026-03-07T08:43:22.01Z</time></trkpt><trkpt lat="37.0173348" lon="-3.7463432"><ele>1115.0</ele><time>2026-03-07T08:43:23.018Z</time></trkpt><trkpt lat="37.0173394" lon="-3.7462503"><ele>1115.0</ele><time>2026-03-07T08:43:24.015Z</time></trkpt><trkpt lat="37.0173451" lon="-3.7461496"><ele>1115.0</ele><time>2026-03-07T08:43:25.02Z</time></trkpt><trkpt lat="37.017343" lon="-3.7460522"><ele>1115.0</ele><time>2026-03-07T08:43:26.007Z</time></trkpt><trkpt lat="37.0173262" lon="-3.7459589"><ele>1115.0</ele><time>2026-03-07T08:43:27.013Z</time></trkpt><trkpt lat="37.0172866" lon="-3.7458664"><ele>1115.0</ele><time>2026-03-07T08:43:28.009Z</time></trkpt><trkpt lat="37.0172372" lon="-3.7457661"><ele>1115.0</ele><time>2026-03-07T08:43:29.016Z</time></trkpt><trkpt lat="37.0171864" lon="-3.7456547"><ele>1114.2</ele><time>2026-03-07T08:43:30.006Z</time></trkpt><trkpt lat="37.017128" lon="-3.7455471"><ele>1113.4</ele><time>2026-03-07T08:43:31.013Z</time></trkpt><trkpt lat="37.0170759" lon="-3.7454345"><ele>1112.6</ele><time>2026-03-07T08:43:32.035Z</time></trkpt><trkpt lat="37.0170195" lon="-3.7453215"><ele>1111.8</ele><time>2026-03-07T08:43:32.998Z</time></trkpt><trkpt lat="37.0169542" lon="-3.7452162"><ele>1111.0</ele><time>2026-03-07T08:43:34.005Z</time></trkpt><trkpt lat="37.0168973" lon="-3.7451135"><ele>1110.8</ele><time>2026-03-07T08:43:35.107Z</time></trkpt><trkpt lat="37.0168525" lon="-3.7450132"><ele>1110.6</ele><time>2026-03-07T08:43:36.014Z</time></trkpt><trkpt lat="37.0168097" lon="-3.7449133"><ele>1110.4</ele><time>2026-03-07T08:43:37.012Z</time></trkpt><trkpt lat="37.0167567" lon="-3.7448169"><ele>1110.2</ele><time>2026-03-07T08:43:38.009Z</time></trkpt><trkpt lat="37.016696" lon="-3.7447209"><ele>1110.0</ele><time>2026-03-07T08:43:39.013Z</time></trkpt><trkpt lat="37.0166393" lon="-3.7446145"><ele>1111.6</ele><time>2026-03-07T08:43:40.005Z</time></trkpt><trkpt lat="37.0165785" lon="-3.7445116"><ele>1113.2</ele><time>2026-03-07T08:43:41.016Z</time></trkpt><trkpt lat="37.016507" lon="-3.7444126"><ele>1114.8</ele><time>2026-03-07T08:43:42.016Z</time></trkpt><trkpt lat="37.0164319" lon="-3.7443183"><ele>1116.4</ele><time>2026-03-07T08:43:43.009Z</time></trkpt><trkpt lat="37.016362" lon="-3.7442222"><ele>1118.0</ele><time>2026-03-07T08:43:44.011Z</time></trkpt><trkpt lat="37.0162918" lon="-3.7441283"><ele>1118.0</ele><time>2026-03-07T08:43:45.01Z</time></trkpt><trkpt lat="37.0162315" lon="-3.7440324"><ele>1118.0</ele><time>2026-03-07T08:43:46.009Z</time></trkpt><trkpt lat="37.0161782" lon="-3.7439431"><ele>1118.0</ele><time>2026-03-07T08:43:47.028Z</time></trkpt><trkpt lat="37.0161335" lon="-3.7438607"><ele>1118.0</ele><time>2026-03-07T08:43:48.005Z</time></trkpt><trkpt lat="37.0161011" lon="-3.7437733"><ele>1118.0</ele><time>2026-03-07T08:43:49.029Z</time></trkpt><trkpt lat="37.0160682" lon="-3.7436766"><ele>1118.0</ele><time>2026-03-07T08:43:50.022Z</time></trkpt><trkpt lat="37.0160373" lon="-3.7435722"><ele>1117.0</ele><time>2026-03-07T08:43:51.008Z</time></trkpt><trkpt lat="37.0160132" lon="-3.7434604"><ele>1116.0</ele><time>2026-03-07T08:43:52.007Z</time></trkpt><trkpt lat="37.0159933" lon="-3.7433437"><ele>1115.0</ele><time>2026-03-07T08:43:53.009Z</time></trkpt><trkpt lat="37.0159691" lon="-3.7432317"><ele>1114.0</ele><time>2026-03-07T08:43:54.013Z</time></trkpt><trkpt lat="37.0159466" lon="-3.7431249"><ele>1113.0</ele><time>2026-03-07T08:43:55.017Z</time></trkpt><trkpt lat="37.0159193" lon="-3.7430122"><ele>1113.0</ele><time>2026-03-07T08:43:56.009Z</time></trkpt><trkpt lat="37.0158952" lon="-3.7429015"><ele>1113.0</ele><time>2026-03-07T08:43:57.022Z</time></trkpt><trkpt lat="37.0158662" lon="-3.7427909"><ele>1113.0</ele><time>2026-03-07T08:43:58.018Z</time></trkpt><trkpt lat="37.0158322" lon="-3.7426866"><ele>1113.0</ele><time>2026-03-07T08:43:59.015Z</time></trkpt><trkpt lat="37.0158027" lon="-3.7425927"><ele>1113.0</ele><time>2026-03-07T08:44:00.067Z</time></trkpt><trkpt lat="37.0157677" lon="-3.742514"><ele>1113.0</ele><time>2026-03-07T08:44:01.001Z</time></trkpt><trkpt lat="37.0157313" lon="-3.7424388"><ele>1113.5</ele><time>2026-03-07T08:44:02.002Z</time></trkpt><trkpt lat="37.0156931" lon="-3.7423649"><ele>1114.0</ele><time>2026-03-07T08:44:03.012Z</time></trkpt><trkpt lat="37.0156575" lon="-3.7422968"><ele>1114.5</ele><time>2026-03-07T08:44:04.008Z</time></trkpt><trkpt lat="37.0155784" lon="-3.7421733"><ele>1115.0</ele><time>2026-03-07T08:44:06Z</time></trkpt><trkpt lat="37.0155427" lon="-3.742104"><ele>1115.5</ele><time>2026-03-07T08:44:07.002Z</time></trkpt><trkpt lat="37.0155123" lon="-3.7420349"><ele>1116.0</ele><time>2026-03-07T08:44:08.001Z</time></trkpt><trkpt lat="37.0154891" lon="-3.7419004"><ele>1114.8333333333333</ele><time>2026-03-07T08:44:10.003Z</time></trkpt><trkpt lat="37.0154237" lon="-3.7418064"><ele>1113.6666666666667</ele><time>2026-03-07T08:44:12.017Z</time></trkpt><trkpt lat="37.0153708" lon="-3.7417628"><ele>1112.5</ele><time>2026-03-07T08:44:13.01Z</time></trkpt><trkpt lat="37.0152719" lon="-3.7416596"><ele>1111.3333333333335</ele><time>2026-03-07T08:44:15.008Z</time></trkpt><trkpt lat="37.0152113" lon="-3.7416051"><ele>1110.1666666666667</ele><time>2026-03-07T08:44:16.005Z</time></trkpt><trkpt lat="37.0151494" lon="-3.7415378"><ele>1109.0</ele><time>2026-03-07T08:44:17.019Z</time></trkpt><trkpt lat="37.0150741" lon="-3.7414749"><ele>1109.0</ele><time>2026-03-07T08:44:18.013Z</time></trkpt><trkpt lat="37.0149977" lon="-3.7414005"><ele>1109.0</ele><time>2026-03-07T08:44:19.004Z</time></trkpt><trkpt lat="37.0149222" lon="-3.7413214"><ele>1109.0</ele><time>2026-03-07T08:44:20.01Z</time></trkpt><trkpt lat="37.0148599" lon="-3.7412414"><ele>1109.0</ele><time>2026-03-07T08:44:21.009Z</time></trkpt><trkpt lat="37.0148009" lon="-3.7411621"><ele>1109.0</ele><time>2026-03-07T08:44:22.031Z</time></trkpt><trkpt lat="37.0147554" lon="-3.7410781"><ele>1108.9999999999998</ele><time>2026-03-07T08:44:23.005Z</time></trkpt><trkpt lat="37.0147103" lon="-3.7409989"><ele>1109.0</ele><time>2026-03-07T08:44:24.003Z</time></trkpt><trkpt lat="37.0146594" lon="-3.7409325"><ele>1109.0</ele><time>2026-03-07T08:44:25.013Z</time></trkpt><trkpt lat="37.0145973" lon="-3.7408804"><ele>1109.0</ele><time>2026-03-07T08:44:26.022Z</time></trkpt><trkpt lat="37.014529" lon="-3.7408369"><ele>1109.0</ele><time>2026-03-07T08:44:27.013Z</time></trkpt><trkpt lat="37.0144746" lon="-3.7407787"><ele>1108.9999999999998</ele><time>2026-03-07T08:44:28.009Z</time></trkpt><trkpt lat="37.014434" lon="-3.7407134"><ele>1109.0</ele><time>2026-03-07T08:44:29.006Z</time></trkpt><trkpt lat="37.0143926" lon="-3.7406356"><ele>1109.0</ele><time>2026-03-07T08:44:30.006Z</time></trkpt><trkpt lat="37.0143598" lon="-3.7405527"><ele>1109.0</ele><time>2026-03-07T08:44:31.025Z</time></trkpt><trkpt lat="37.0143341" lon="-3.7404741"><ele>1109.0</ele><time>2026-03-07T08:44:32.004Z</time></trkpt><trkpt lat="37.0142899" lon="-3.7404153"><ele>1109.0</ele><time>2026-03-07T08:44:33.009Z</time></trkpt><trkpt lat="37.0141898" lon="-3.7403323"><ele>1109.0</ele><time>2026-03-07T08:44:34.999Z</time></trkpt><trkpt lat="37.0141241" lon="-3.7402944"><ele>1109.0</ele><time>2026-03-07T08:44:36.009Z</time></trkpt><trkpt lat="37.0140586" lon="-3.7402579"><ele>1108.8</ele><time>2026-03-07T08:44:37.006Z</time></trkpt><trkpt lat="37.0139845" lon="-3.7402076"><ele>1108.6000000000001</ele><time>2026-03-07T08:44:38.01Z</time></trkpt><trkpt lat="37.0139018" lon="-3.7401426"><ele>1108.4</ele><time>2026-03-07T08:44:39.017Z</time></trkpt><trkpt lat="37.0138171" lon="-3.7400747"><ele>1108.2</ele><time>2026-03-07T08:44:40.019Z</time></trkpt><trkpt lat="37.013733" lon="-3.7399986"><ele>1108.0</ele><time>2026-03-07T08:44:41.006Z</time></trkpt><trkpt lat="37.0136553" lon="-3.7399209"><ele>1108.0</ele><time>2026-03-07T08:44:42.006Z</time></trkpt><trkpt lat="37.0135762" lon="-3.7398492"><ele>1108.0</ele><time>2026-03-07T08:44:43.017Z</time></trkpt><trkpt lat="37.0134989" lon="-3.7397923"><ele>1108.0</ele><time>2026-03-07T08:44:44.011Z</time></trkpt><trkpt lat="37.0134209" lon="-3.7397426"><ele>1108.0</ele><time>2026-03-07T08:44:45.014Z</time></trkpt><trkpt lat="37.0133402" lon="-3.739683"><ele>1108.0</ele><time>2026-03-07T08:44:46.005Z</time></trkpt><trkpt lat="37.0132599" lon="-3.7395995"><ele>1108.0</ele><time>2026-03-07T08:44:47.047Z</time></trkpt><trkpt lat="37.0131796" lon="-3.7395068"><ele>1108.0</ele><time>2026-03-07T08:44:48.007Z</time></trkpt><trkpt lat="37.0131073" lon="-3.7393938"><ele>1108.0</ele><time>2026-03-07T08:44:49.008Z</time></trkpt><trkpt lat="37.0130417" lon="-3.7392832"><ele>1108.0</ele><time>2026-03-07T08:44:50.007Z</time></trkpt><trkpt lat="37.0129779" lon="-3.7391823"><ele>1108.0</ele><time>2026-03-07T08:44:51.007Z</time></trkpt><trkpt lat="37.0129309" lon="-3.7390581"><ele>1108.0</ele><time>2026-03-07T08:44:52.007Z</time></trkpt><trkpt lat="37.0128719" lon="-3.7389324"><ele>1108.0</ele><time>2026-03-07T08:44:53.021Z</time></trkpt><trkpt lat="37.0127995" lon="-3.7388128"><ele>1108.0</ele><time>2026-03-07T08:44:54.029Z</time></trkpt><trkpt lat="37.0127289" lon="-3.7386936"><ele>1108.0</ele><time>2026-03-07T08:44:55.026Z</time></trkpt><trkpt lat="37.0126625" lon="-3.7385892"><ele>1107.8333333333333</ele><time>2026-03-07T08:44:56.011Z</time></trkpt><trkpt lat="37.0126045" lon="-3.7384878"><ele>1107.6666666666665</ele><time>2026-03-07T08:44:57.006Z</time></trkpt><trkpt lat="37.0125567" lon="-3.7383923"><ele>1107.5</ele><time>2026-03-07T08:44:58.008Z</time></trkpt><trkpt lat="37.0125251" lon="-3.7382882"><ele>1107.3333333333333</ele><time>2026-03-07T08:44:59.013Z</time></trkpt><trkpt lat="37.0124815" lon="-3.7382103"><ele>1107.1666666666667</ele><time>2026-03-07T08:45:00.019Z</time></trkpt><trkpt lat="37.0124296" lon="-3.7381266"><ele>1107.0</ele><time>2026-03-07T08:45:01.008Z</time></trkpt><trkpt lat="37.0123676" lon="-3.7380571"><ele>1107.0</ele><time>2026-03-07T08:45:02.018Z</time></trkpt><trkpt lat="37.0123072" lon="-3.7379703"><ele>1107.0</ele><time>2026-03-07T08:45:03.012Z</time></trkpt><trkpt lat="37.0122543" lon="-3.7378704"><ele>1107.0</ele><time>2026-03-07T08:45:04.004Z</time></trkpt><trkpt lat="37.0121987" lon="-3.7377733"><ele>1107.0</ele><time>2026-03-07T08:45:05.002Z</time></trkpt><trkpt lat="37.0121407" lon="-3.737677"><ele>1107.0</ele><time>2026-03-07T08:45:06.005Z</time></trkpt><trkpt lat="37.0120852" lon="-3.7375811"><ele>1105.8</ele><time>2026-03-07T08:45:07.016Z</time></trkpt><trkpt lat="37.0120411" lon="-3.7374859"><ele>1104.6</ele><time>2026-03-07T08:45:08.016Z</time></trkpt><trkpt lat="37.012012" lon="-3.7373812"><ele>1103.3999999999999</ele><time>2026-03-07T08:45:09.015Z</time></trkpt><trkpt lat="37.0119855" lon="-3.7372713"><ele>1102.2</ele><time>2026-03-07T08:45:10.008Z</time></trkpt><trkpt lat="37.0119718" lon="-3.7371539"><ele>1101.0</ele><time>2026-03-07T08:45:11.009Z</time></trkpt><trkpt lat="37.0119568" lon="-3.7370355"><ele>1101.0</ele><time>2026-03-07T08:45:12.019Z</time></trkpt><trkpt lat="37.0119298" lon="-3.736924"><ele>1101.0</ele><time>2026-03-07T08:45:13.007Z</time></trkpt><trkpt lat="37.0118928" lon="-3.7368115"><ele>1101.0</ele><time>2026-03-07T08:45:14.012Z</time></trkpt><trkpt lat="37.0118561" lon="-3.7367055"><ele>1101.0</ele><time>2026-03-07T08:45:15.011Z</time></trkpt><trkpt lat="37.0118296" lon="-3.7366095"><ele>1101.0</ele><time>2026-03-07T08:45:16.008Z</time></trkpt><trkpt lat="37.0118042" lon="-3.7365175"><ele>1101.0</ele><time>2026-03-07T08:45:17.024Z</time></trkpt><trkpt lat="37.0117654" lon="-3.7364322"><ele>1100.8</ele><time>2026-03-07T08:45:18.023Z</time></trkpt><trkpt lat="37.011697" lon="-3.7363582"><ele>1100.6</ele><time>2026-03-07T08:45:19.006Z</time></trkpt><trkpt lat="37.011623" lon="-3.7362804"><ele>1100.4</ele><time>2026-03-07T08:45:20.005Z</time></trkpt><trkpt lat="37.0115583" lon="-3.7361931"><ele>1100.2</ele><time>2026-03-07T08:45:21.009Z</time></trkpt><trkpt lat="37.0115007" lon="-3.7360925"><ele>1100.0</ele><time>2026-03-07T08:45:22.037Z</time></trkpt><trkpt lat="37.0114409" lon="-3.7359995"><ele>1099.2</ele><time>2026-03-07T08:45:23.01Z</time></trkpt><trkpt lat="37.0113747" lon="-3.7359118"><ele>1098.4</ele><time>2026-03-07T08:45:24.011Z</time></trkpt><trkpt lat="37.0113031" lon="-3.735831"><ele>1097.6</ele><time>2026-03-07T08:45:25.01Z</time></trkpt><trkpt lat="37.0112231" lon="-3.7357538"><ele>1096.8</ele><time>2026-03-07T08:45:26.023Z</time></trkpt><trkpt lat="37.011143" lon="-3.7356731"><ele>1096.0</ele><time>2026-03-07T08:45:27.014Z</time></trkpt><trkpt lat="37.0110613" lon="-3.735593"><ele>1096.0</ele><time>2026-03-07T08:45:28.006Z</time></trkpt><trkpt lat="37.0109802" lon="-3.7355252"><ele>1096.0</ele><time>2026-03-07T08:45:29.007Z</time></trkpt><trkpt lat="37.0109126" lon="-3.7354514"><ele>1096.0</ele><time>2026-03-07T08:45:30.013Z</time></trkpt><trkpt lat="37.0108628" lon="-3.7353463"><ele>1096.0</ele><time>2026-03-07T08:45:31.292Z</time></trkpt><trkpt lat="37.0107746" lon="-3.7350821"><ele>1095.6</ele><time>2026-03-07T08:45:33.022Z</time></trkpt><trkpt lat="37.0107403" lon="-3.7349567"><ele>1095.1999999999998</ele><time>2026-03-07T08:45:34.033Z</time></trkpt><trkpt lat="37.0107066" lon="-3.7348484"><ele>1094.8000000000002</ele><time>2026-03-07T08:45:35.001Z</time></trkpt><trkpt lat="37.010671" lon="-3.734747"><ele>1094.4</ele><time>2026-03-07T08:45:36.011Z</time></trkpt><trkpt lat="37.0106236" lon="-3.734647"><ele>1094.0</ele><time>2026-03-07T08:45:37.031Z</time></trkpt><trkpt lat="37.0105661" lon="-3.7345555"><ele>1094.0</ele><time>2026-03-07T08:45:38.01Z</time></trkpt><trkpt lat="37.0105036" lon="-3.7344703"><ele>1094.0</ele><time>2026-03-07T08:45:39.017Z</time></trkpt><trkpt lat="37.0104447" lon="-3.7343863"><ele>1094.0</ele><time>2026-03-07T08:45:40.011Z</time></trkpt><trkpt lat="37.0103949" lon="-3.7342912"><ele>1094.0</ele><time>2026-03-07T08:45:41.016Z</time></trkpt><trkpt lat="37.0103419" lon="-3.7342162"><ele>1094.0</ele><time>2026-03-07T08:45:42.009Z</time></trkpt><trkpt lat="37.0102868" lon="-3.7341512"><ele>1094.0</ele><time>2026-03-07T08:45:43.006Z</time></trkpt><trkpt lat="37.0102243" lon="-3.7341027"><ele>1093.857142857143</ele><time>2026-03-07T08:45:44.016Z</time></trkpt><trkpt lat="37.0101552" lon="-3.7340625"><ele>1093.7142857142856</ele><time>2026-03-07T08:45:45.028Z</time></trkpt><trkpt lat="37.0100846" lon="-3.7340149"><ele>1093.5714285714284</ele><time>2026-03-07T08:45:46.005Z</time></trkpt><trkpt lat="37.0100215" lon="-3.7339592"><ele>1093.4285714285713</ele><time>2026-03-07T08:45:47.005Z</time></trkpt><trkpt lat="37.0099735" lon="-3.7338911"><ele>1093.2857142857142</ele><time>2026-03-07T08:45:48.013Z</time></trkpt><trkpt lat="37.0099389" lon="-3.7338201"><ele>1093.142857142857</ele><time>2026-03-07T08:45:49.018Z</time></trkpt><trkpt lat="37.0099162" lon="-3.7337415"><ele>1093.0</ele><time>2026-03-07T08:45:50.017Z</time></trkpt><trkpt lat="37.0098979" lon="-3.7336615"><ele>1093.0</ele><time>2026-03-07T08:45:51.006Z</time></trkpt><trkpt lat="37.0098856" lon="-3.7335825"><ele>1093.0</ele><time>2026-03-07T08:45:52.001Z</time></trkpt><trkpt lat="37.0098806" lon="-3.7334963"><ele>1093.0</ele><time>2026-03-07T08:45:53.008Z</time></trkpt><trkpt lat="37.0098614" lon="-3.7334193"><ele>1093.0</ele><time>2026-03-07T08:45:54.008Z</time></trkpt><trkpt lat="37.0098231" lon="-3.7333545"><ele>1093.0</ele><time>2026-03-07T08:45:55.014Z</time></trkpt><trkpt lat="37.0097736" lon="-3.733275"><ele>1093.0</ele><time>2026-03-07T08:45:56.01Z</time></trkpt><trkpt lat="37.0097316" lon="-3.7331871"><ele>1093.0</ele><time>2026-03-07T08:45:57.007Z</time></trkpt><trkpt lat="37.0096897" lon="-3.7330928"><ele>1092.6</ele><time>2026-03-07T08:45:58.016Z</time></trkpt><trkpt lat="37.0096534" lon="-3.7329994"><ele>1092.1999999999998</ele><time>2026-03-07T08:45:59.011Z</time></trkpt><trkpt lat="37.0096113" lon="-3.7328961"><ele>1091.8</ele><time>2026-03-07T08:46:00.011Z</time></trkpt><trkpt lat="37.009564" lon="-3.7327921"><ele>1091.3999999999999</ele><time>2026-03-07T08:46:01.012Z</time></trkpt><trkpt lat="37.0095116" lon="-3.7326981"><ele>1091.0</ele><time>2026-03-07T08:46:02.007Z</time></trkpt><trkpt lat="37.0094611" lon="-3.7326063"><ele>1090.8</ele><time>2026-03-07T08:46:03.007Z</time></trkpt><trkpt lat="37.0094316" lon="-3.7324958"><ele>1090.6</ele><time>2026-03-07T08:46:04.007Z</time></trkpt><trkpt lat="37.0094005" lon="-3.7323744"><ele>1090.4</ele><time>2026-03-07T08:46:05.008Z</time></trkpt><trkpt lat="37.0093572" lon="-3.7322581"><ele>1090.2</ele><time>2026-03-07T08:46:06.01Z</time></trkpt><trkpt lat="37.0093144" lon="-3.7321513"><ele>1090.0</ele><time>2026-03-07T08:46:07.006Z</time></trkpt><trkpt lat="37.0092672" lon="-3.7320445"><ele>1090.0</ele><time>2026-03-07T08:46:08.019Z</time></trkpt><trkpt lat="37.0092219" lon="-3.7319404"><ele>1090.0</ele><time>2026-03-07T08:46:09.009Z</time></trkpt><trkpt lat="37.0091855" lon="-3.7318358"><ele>1090.0</ele><time>2026-03-07T08:46:10.003Z</time></trkpt><trkpt lat="37.0091468" lon="-3.7317432"><ele>1090.0</ele><time>2026-03-07T08:46:11.003Z</time></trkpt><trkpt lat="37.0091012" lon="-3.7316417"><ele>1090.0</ele><time>2026-03-07T08:46:13.002Z</time></trkpt><trkpt lat="37.0090537" lon="-3.7317153"><ele>1090.0</ele><time>2026-03-07T08:46:18.014Z</time></trkpt><trkpt lat="37.0090337" lon="-3.7317915"><ele>1090.0</ele><time>2026-03-07T08:46:20.013Z</time></trkpt><trkpt lat="37.0090042" lon="-3.7318823"><ele>1090.0</ele><time>2026-03-07T08:46:22.044Z</time></trkpt><trkpt lat="37.0090001" lon="-3.7320068"><ele>1090.0</ele><time>2026-03-07T08:46:23.997Z</time></trkpt><trkpt lat="37.0090176" lon="-3.7321559"><ele>1090.0</ele><time>2026-03-07T08:46:25.996Z</time></trkpt><trkpt lat="37.0090335" lon="-3.7322357"><ele>1090.0</ele><time>2026-03-07T08:46:27.007Z</time></trkpt><trkpt lat="37.0090519" lon="-3.7323236"><ele>1090.0</ele><time>2026-03-07T08:46:28.006Z</time></trkpt><trkpt lat="37.0090688" lon="-3.7324187"><ele>1090.0</ele><time>2026-03-07T08:46:29.008Z</time></trkpt><trkpt lat="37.0090849" lon="-3.7325252"><ele>1090.0</ele><time>2026-03-07T08:46:29.994Z</time></trkpt><trkpt lat="37.0091013" lon="-3.7326394"><ele>1090.0</ele><time>2026-03-07T08:46:31.011Z</time></trkpt><trkpt lat="37.0091157" lon="-3.7327395"><ele>1090.0</ele><time>2026-03-07T08:46:32.015Z</time></trkpt><trkpt lat="37.0091269" lon="-3.7328376"><ele>1090.0</ele><time>2026-03-07T08:46:33.013Z</time></trkpt><trkpt lat="37.0091236" lon="-3.7329352"><ele>1090.0</ele><time>2026-03-07T08:46:34.003Z</time></trkpt><trkpt lat="37.0091113" lon="-3.7330346"><ele>1090.1666666666665</ele><time>2026-03-07T08:46:35.022Z</time></trkpt><trkpt lat="37.0090974" lon="-3.7331271"><ele>1090.3333333333333</ele><time>2026-03-07T08:46:36.009Z</time></trkpt><trkpt lat="37.0090888" lon="-3.7332162"><ele>1090.5</ele><time>2026-03-07T08:46:37.002Z</time></trkpt><trkpt lat="37.0090896" lon="-3.7333072"><ele>1090.6666666666667</ele><time>2026-03-07T08:46:38.008Z</time></trkpt><trkpt lat="37.0091026" lon="-3.7334071"><ele>1090.8333333333335</ele><time>2026-03-07T08:46:39.014Z</time></trkpt><trkpt lat="37.0091226" lon="-3.7335124"><ele>1091.0</ele><time>2026-03-07T08:46:40.005Z</time></trkpt><trkpt lat="37.00914" lon="-3.7336138"><ele>1091.3333333333335</ele><time>2026-03-07T08:46:41.007Z</time></trkpt><trkpt lat="37.0091547" lon="-3.7337038"><ele>1091.6666666666667</ele><time>2026-03-07T08:46:42.005Z</time></trkpt><trkpt lat="37.0091553" lon="-3.7337981"><ele>1092.0</ele><time>2026-03-07T08:46:43.01Z</time></trkpt><trkpt lat="37.0091461" lon="-3.7339035"><ele>1092.3333333333333</ele><time>2026-03-07T08:46:44.017Z</time></trkpt><trkpt lat="37.0091115" lon="-3.7340133"><ele>1092.6666666666665</ele><time>2026-03-07T08:46:45.013Z</time></trkpt><trkpt lat="37.0090784" lon="-3.7341248"><ele>1093.0</ele><time>2026-03-07T08:46:46.001Z</time></trkpt><trkpt lat="37.0090605" lon="-3.7342464"><ele>1093.0</ele><time>2026-03-07T08:46:47.007Z</time></trkpt><trkpt lat="37.0090498" lon="-3.7343709"><ele>1093.0</ele><time>2026-03-07T08:46:48.012Z</time></trkpt><trkpt lat="37.0090504" lon="-3.7344886"><ele>1093.0</ele><time>2026-03-07T08:46:49.002Z</time></trkpt><trkpt lat="37.0090676" lon="-3.7346006"><ele>1093.0</ele><time>2026-03-07T08:46:50.006Z</time></trkpt><trkpt lat="37.009078" lon="-3.7347162"><ele>1093.0</ele><time>2026-03-07T08:46:51.004Z</time></trkpt><trkpt lat="37.0090957" lon="-3.7348144"><ele>1093.4</ele><time>2026-03-07T08:46:52.007Z</time></trkpt><trkpt lat="37.0090991" lon="-3.7348962"><ele>1093.8</ele><time>2026-03-07T08:46:53.016Z</time></trkpt><trkpt lat="37.0090621" lon="-3.7350441"><ele>1094.2</ele><time>2026-03-07T08:46:55.005Z</time></trkpt><trkpt lat="37.0090079" lon="-3.7351374"><ele>1094.6</ele><time>2026-03-07T08:46:55.999Z</time></trkpt><trkpt lat="37.0089449" lon="-3.7352504"><ele>1095.0</ele><time>2026-03-07T08:46:57.018Z</time></trkpt><trkpt lat="37.0089078" lon="-3.7353829"><ele>1095.8333333333333</ele><time>2026-03-07T08:46:58.017Z</time></trkpt><trkpt lat="37.0088741" lon="-3.7354941"><ele>1096.6666666666667</ele><time>2026-03-07T08:46:59.002Z</time></trkpt><trkpt lat="37.0088436" lon="-3.7355932"><ele>1097.5</ele><time>2026-03-07T08:47:00.007Z</time></trkpt><trkpt lat="37.0088175" lon="-3.7356923"><ele>1098.3333333333335</ele><time>2026-03-07T08:47:01.014Z</time></trkpt><trkpt lat="37.0088103" lon="-3.7358015"><ele>1099.1666666666667</ele><time>2026-03-07T08:47:02.011Z</time></trkpt><trkpt lat="37.0088088" lon="-3.7359189"><ele>1100.0</ele><time>2026-03-07T08:47:03.004Z</time></trkpt><trkpt lat="37.0087988" lon="-3.7360348"><ele>1100.5</ele><time>2026-03-07T08:47:04.005Z</time></trkpt><trkpt lat="37.0087876" lon="-3.7361466"><ele>1101.0</ele><time>2026-03-07T08:47:05.007Z</time></trkpt><trkpt lat="37.0087774" lon="-3.7362595"><ele>1101.5</ele><time>2026-03-07T08:47:06.012Z</time></trkpt><trkpt lat="37.0087723" lon="-3.7363701"><ele>1102.0</ele><time>2026-03-07T08:47:07.007Z</time></trkpt><trkpt lat="37.0087544" lon="-3.7364702"><ele>1102.5</ele><time>2026-03-07T08:47:08.009Z</time></trkpt><trkpt lat="37.0087147" lon="-3.7365624"><ele>1103.0</ele><time>2026-03-07T08:47:08.988Z</time></trkpt><trkpt lat="37.0086703" lon="-3.7366534"><ele>1103.0</ele><time>2026-03-07T08:47:10.003Z</time></trkpt><trkpt lat="37.0086273" lon="-3.7367371"><ele>1103.0</ele><time>2026-03-07T08:47:11.007Z</time></trkpt><trkpt lat="37.0086104" lon="-3.7368318"><ele>1103.0</ele><time>2026-03-07T08:47:12.012Z</time></trkpt><trkpt lat="37.0086098" lon="-3.7369381"><ele>1103.0</ele><time>2026-03-07T08:47:13.048Z</time></trkpt><trkpt lat="37.0086083" lon="-3.7370453"><ele>1103.0</ele><time>2026-03-07T08:47:13.993Z</time></trkpt><trkpt lat="37.0085964" lon="-3.7371425"><ele>1103.0</ele><time>2026-03-07T08:47:15.001Z</time></trkpt><trkpt lat="37.0085666" lon="-3.7372284"><ele>1103.3333333333335</ele><time>2026-03-07T08:47:16.011Z</time></trkpt><trkpt lat="37.00853" lon="-3.7373144"><ele>1103.6666666666667</ele><time>2026-03-07T08:47:17.011Z</time></trkpt><trkpt lat="37.0084986" lon="-3.7374113"><ele>1104.0</ele><time>2026-03-07T08:47:18.018Z</time></trkpt><trkpt lat="37.0084618" lon="-3.737507"><ele>1104.3333333333333</ele><time>2026-03-07T08:47:19.006Z</time></trkpt><trkpt lat="37.0084215" lon="-3.7376042"><ele>1104.6666666666665</ele><time>2026-03-07T08:47:20.018Z</time></trkpt><trkpt lat="37.008383" lon="-3.7376993"><ele>1105.0</ele><time>2026-03-07T08:47:21.007Z</time></trkpt><trkpt lat="37.0083474" lon="-3.7377937"><ele>1105.0</ele><time>2026-03-07T08:47:22.005Z</time></trkpt><trkpt lat="37.0083128" lon="-3.7378934"><ele>1105.0</ele><time>2026-03-07T08:47:23.023Z</time></trkpt><trkpt lat="37.0082869" lon="-3.738002"><ele>1105.0</ele><time>2026-03-07T08:47:24.007Z</time></trkpt><trkpt lat="37.008271" lon="-3.7381233"><ele>1105.0</ele><time>2026-03-07T08:47:25Z</time></trkpt><trkpt lat="37.0082734" lon="-3.7382549"><ele>1105.0</ele><time>2026-03-07T08:47:26.018Z</time></trkpt><trkpt lat="37.00827" lon="-3.7383896"><ele>1105.0</ele><time>2026-03-07T08:47:27.008Z</time></trkpt><trkpt lat="37.0082659" lon="-3.7385168"><ele>1105.0</ele><time>2026-03-07T08:47:28.004Z</time></trkpt><trkpt lat="37.0082618" lon="-3.7386429"><ele>1105.0</ele><time>2026-03-07T08:47:28.995Z</time></trkpt><trkpt lat="37.0082669" lon="-3.7387716"><ele>1105.0</ele><time>2026-03-07T08:47:30.009Z</time></trkpt><trkpt lat="37.0082763" lon="-3.7388995"><ele>1105.0</ele><time>2026-03-07T08:47:31.01Z</time></trkpt><trkpt lat="37.0082831" lon="-3.7390232"><ele>1106.2</ele><time>2026-03-07T08:47:32.013Z</time></trkpt><trkpt lat="37.0082949" lon="-3.7391437"><ele>1107.4</ele><time>2026-03-07T08:47:32.998Z</time></trkpt><trkpt lat="37.0083178" lon="-3.7392633"><ele>1108.6</ele><time>2026-03-07T08:47:34.003Z</time></trkpt><trkpt lat="37.0083484" lon="-3.739386"><ele>1109.8</ele><time>2026-03-07T08:47:35.01Z</time></trkpt><trkpt lat="37.0083743" lon="-3.7395091"><ele>1111.0</ele><time>2026-03-07T08:47:36.006Z</time></trkpt><trkpt lat="37.0083854" lon="-3.7396291"><ele>1111.6666666666665</ele><time>2026-03-07T08:47:37.012Z</time></trkpt><trkpt lat="37.0083876" lon="-3.7397488"><ele>1112.3333333333333</ele><time>2026-03-07T08:47:38.013Z</time></trkpt><trkpt lat="37.00839" lon="-3.7398648"><ele>1113.0</ele><time>2026-03-07T08:47:39.005Z</time></trkpt><trkpt lat="37.0083868" lon="-3.7399784"><ele>1113.6666666666667</ele><time>2026-03-07T08:47:40.003Z</time></trkpt><trkpt lat="37.0083787" lon="-3.7400787"><ele>1114.3333333333335</ele><time>2026-03-07T08:47:41.01Z</time></trkpt><trkpt lat="37.0083592" lon="-3.7401751"><ele>1115.0</ele><time>2026-03-07T08:47:42.003Z</time></trkpt><trkpt lat="37.0083315" lon="-3.740273"><ele>1115.4</ele><time>2026-03-07T08:47:42.998Z</time></trkpt><trkpt lat="37.0083129" lon="-3.7403689"><ele>1115.8</ele><time>2026-03-07T08:47:44.009Z</time></trkpt><trkpt lat="37.008316" lon="-3.7404646"><ele>1116.2</ele><time>2026-03-07T08:47:45.069Z</time></trkpt><trkpt lat="37.008349" lon="-3.7405738"><ele>1116.6</ele><time>2026-03-07T08:47:46.009Z</time></trkpt><trkpt lat="37.0083973" lon="-3.7406895"><ele>1117.0</ele><time>2026-03-07T08:47:47Z</time></trkpt><trkpt lat="37.0084347" lon="-3.7408036"><ele>1117.0</ele><time>2026-03-07T08:47:48.008Z</time></trkpt><trkpt lat="37.0084642" lon="-3.7409118"><ele>1117.0</ele><time>2026-03-07T08:47:49.032Z</time></trkpt><trkpt lat="37.0084929" lon="-3.7410209"><ele>1117.0</ele><time>2026-03-07T08:47:50.009Z</time></trkpt><trkpt lat="37.0085269" lon="-3.7411271"><ele>1117.0</ele><time>2026-03-07T08:47:51.011Z</time></trkpt><trkpt lat="37.0085695" lon="-3.7412272"><ele>1117.0</ele><time>2026-03-07T08:47:52.003Z</time></trkpt><trkpt lat="37.0086135" lon="-3.7413233"><ele>1117.1666666666665</ele><time>2026-03-07T08:47:53.005Z</time></trkpt><trkpt lat="37.0086505" lon="-3.74142"><ele>1117.3333333333333</ele><time>2026-03-07T08:47:53.998Z</time></trkpt><trkpt lat="37.0086766" lon="-3.7415155"><ele>1117.5</ele><time>2026-03-07T08:47:55Z</time></trkpt><trkpt lat="37.0086914" lon="-3.7416113"><ele>1117.6666666666667</ele><time>2026-03-07T08:47:56.002Z</time></trkpt><trkpt lat="37.0086837" lon="-3.7416996"><ele>1117.8333333333335</ele><time>2026-03-07T08:47:57.004Z</time></trkpt><trkpt lat="37.0086577" lon="-3.7417881"><ele>1118.0</ele><time>2026-03-07T08:47:58.02Z</time></trkpt><trkpt lat="37.0086229" lon="-3.7418888"><ele>1118.8333333333335</ele><time>2026-03-07T08:47:59.028Z</time></trkpt><trkpt lat="37.0085815" lon="-3.741994"><ele>1119.6666666666667</ele><time>2026-03-07T08:48:00.016Z</time></trkpt><trkpt lat="37.0085468" lon="-3.7420966"><ele>1120.5</ele><time>2026-03-07T08:48:01.003Z</time></trkpt><trkpt lat="37.0085247" lon="-3.742198"><ele>1121.3333333333333</ele><time>2026-03-07T08:48:02.005Z</time></trkpt><trkpt lat="37.0085174" lon="-3.742304"><ele>1122.1666666666665</ele><time>2026-03-07T08:48:03.008Z</time></trkpt><trkpt lat="37.008526" lon="-3.7424159"><ele>1123.0</ele><time>2026-03-07T08:48:04.017Z</time></trkpt><trkpt lat="37.008551" lon="-3.7425302"><ele>1123.0</ele><time>2026-03-07T08:48:05.025Z</time></trkpt><trkpt lat="37.0085721" lon="-3.7426386"><ele>1123.0</ele><time>2026-03-07T08:48:06.016Z</time></trkpt><trkpt lat="37.0085746" lon="-3.7427436"><ele>1123.0</ele><time>2026-03-07T08:48:07.017Z</time></trkpt><trkpt lat="37.0085668" lon="-3.7428548"><ele>1123.0</ele><time>2026-03-07T08:48:08.012Z</time></trkpt><trkpt lat="37.0085341" lon="-3.7429657"><ele>1123.0</ele><time>2026-03-07T08:48:09.013Z</time></trkpt><trkpt lat="37.0085022" lon="-3.7430734"><ele>1123.0</ele><time>2026-03-07T08:48:10.005Z</time></trkpt><trkpt lat="37.0084626" lon="-3.743172"><ele>1123.5</ele><time>2026-03-07T08:48:11.009Z</time></trkpt><trkpt lat="37.0084115" lon="-3.7432542"><ele>1124.0</ele><time>2026-03-07T08:48:12.013Z</time></trkpt><trkpt lat="37.0083527" lon="-3.7433127"><ele>1124.5</ele><time>2026-03-07T08:48:13.01Z</time></trkpt><trkpt lat="37.0083026" lon="-3.7433691"><ele>1125.0</ele><time>2026-03-07T08:48:14.008Z</time></trkpt><trkpt lat="37.008233" lon="-3.7434966"><ele>1125.5</ele><time>2026-03-07T08:48:16.008Z</time></trkpt><trkpt lat="37.0082203" lon="-3.7435828"><ele>1126.0</ele><time>2026-03-07T08:48:17.005Z</time></trkpt><trkpt lat="37.0082368" lon="-3.7436878"><ele>1127.0</ele><time>2026-03-07T08:48:18.01Z</time></trkpt><trkpt lat="37.0082571" lon="-3.7438052"><ele>1128.0</ele><time>2026-03-07T08:48:19.001Z</time></trkpt><trkpt lat="37.0082846" lon="-3.7439253"><ele>1129.0</ele><time>2026-03-07T08:48:20.014Z</time></trkpt><trkpt lat="37.0083204" lon="-3.7440423"><ele>1130.0</ele><time>2026-03-07T08:48:21.013Z</time></trkpt><trkpt lat="37.0083706" lon="-3.7441615"><ele>1131.0</ele><time>2026-03-07T08:48:22.01Z</time></trkpt><trkpt lat="37.0084374" lon="-3.7442741"><ele>1131.0</ele><time>2026-03-07T08:48:23.012Z</time></trkpt><trkpt lat="37.0085003" lon="-3.7443785"><ele>1131.0</ele><time>2026-03-07T08:48:24.011Z</time></trkpt><trkpt lat="37.0085516" lon="-3.7444786"><ele>1131.0</ele><time>2026-03-07T08:48:25.01Z</time></trkpt><trkpt lat="37.0085833" lon="-3.7445711"><ele>1131.0</ele><time>2026-03-07T08:48:25.997Z</time></trkpt><trkpt lat="37.0085911" lon="-3.7446701"><ele>1131.0</ele><time>2026-03-07T08:48:26.998Z</time></trkpt><trkpt lat="37.0085753" lon="-3.7447847"><ele>1132.3999999999999</ele><time>2026-03-07T08:48:28.003Z</time></trkpt><trkpt lat="37.0085483" lon="-3.7449088"><ele>1133.8</ele><time>2026-03-07T08:48:29.015Z</time></trkpt><trkpt lat="37.0085204" lon="-3.7450272"><ele>1135.1999999999998</ele><time>2026-03-07T08:48:30.008Z</time></trkpt><trkpt lat="37.0084782" lon="-3.7451296"><ele>1136.6</ele><time>2026-03-07T08:48:31.014Z</time></trkpt><trkpt lat="37.00842" lon="-3.7452233"><ele>1138.0</ele><time>2026-03-07T08:48:32Z</time></trkpt><trkpt lat="37.0083512" lon="-3.7453183"><ele>1139.8333333333333</ele><time>2026-03-07T08:48:33.005Z</time></trkpt><trkpt lat="37.0082885" lon="-3.7454112"><ele>1141.6666666666665</ele><time>2026-03-07T08:48:34.005Z</time></trkpt><trkpt lat="37.0082346" lon="-3.7455002"><ele>1143.5</ele><time>2026-03-07T08:48:35.009Z</time></trkpt><trkpt lat="37.0081805" lon="-3.7455795"><ele>1145.3333333333333</ele><time>2026-03-07T08:48:36.014Z</time></trkpt><trkpt lat="37.0081125" lon="-3.7456225"><ele>1147.1666666666667</ele><time>2026-03-07T08:48:37Z</time></trkpt><trkpt lat="37.0080399" lon="-3.7456369"><ele>1149.0</ele><time>2026-03-07T08:48:38.018Z</time></trkpt><trkpt lat="37.007967" lon="-3.7456637"><ele>1149.0</ele><time>2026-03-07T08:48:38.999Z</time></trkpt><trkpt lat="37.0078811" lon="-3.7456721"><ele>1149.0</ele><time>2026-03-07T08:48:39.998Z</time></trkpt><trkpt lat="37.0077864" lon="-3.74566"><ele>1149.0</ele><time>2026-03-07T08:48:41.006Z</time></trkpt><trkpt lat="37.0076915" lon="-3.7456378"><ele>1149.0</ele><time>2026-03-07T08:48:42Z</time></trkpt><trkpt lat="37.0075945" lon="-3.7456017"><ele>1149.0</ele><time>2026-03-07T08:48:43.006Z</time></trkpt><trkpt lat="37.0074963" lon="-3.7455629"><ele>1150.8333333333333</ele><time>2026-03-07T08:48:44.02Z</time></trkpt><trkpt lat="37.007406" lon="-3.7455408"><ele>1152.6666666666667</ele><time>2026-03-07T08:48:45.013Z</time></trkpt><trkpt lat="37.0073259" lon="-3.745525"><ele>1154.5</ele><time>2026-03-07T08:48:46.007Z</time></trkpt><trkpt lat="37.0072492" lon="-3.7454924"><ele>1156.3333333333335</ele><time>2026-03-07T08:48:47.008Z</time></trkpt><trkpt lat="37.0071729" lon="-3.7454317"><ele>1158.1666666666667</ele><time>2026-03-07T08:48:48.002Z</time></trkpt><trkpt lat="37.007098" lon="-3.7453833"><ele>1160.0</ele><time>2026-03-07T08:48:49.002Z</time></trkpt><trkpt lat="37.0070201" lon="-3.7453575"><ele>1160.0</ele><time>2026-03-07T08:48:50.004Z</time></trkpt><trkpt lat="37.0069422" lon="-3.7453525"><ele>1160.0</ele><time>2026-03-07T08:48:51.006Z</time></trkpt><trkpt lat="37.0068645" lon="-3.7453456"><ele>1160.0</ele><time>2026-03-07T08:48:52.018Z</time></trkpt><trkpt lat="37.0067891" lon="-3.7453459"><ele>1160.0</ele><time>2026-03-07T08:48:53.019Z</time></trkpt><trkpt lat="37.0067133" lon="-3.7453316"><ele>1160.0</ele><time>2026-03-07T08:48:54.018Z</time></trkpt><trkpt lat="37.0066374" lon="-3.7452945"><ele>1160.0</ele><time>2026-03-07T08:48:55.01Z</time></trkpt><trkpt lat="37.0065654" lon="-3.7452247"><ele>1161.8333333333335</ele><time>2026-03-07T08:48:56.016Z</time></trkpt><trkpt lat="37.0064967" lon="-3.7451457"><ele>1163.6666666666667</ele><time>2026-03-07T08:48:57.007Z</time></trkpt><trkpt lat="37.0064313" lon="-3.7450758"><ele>1165.5</ele><time>2026-03-07T08:48:58.006Z</time></trkpt><trkpt lat="37.0063758" lon="-3.745"><ele>1167.3333333333333</ele><time>2026-03-07T08:48:59.008Z</time></trkpt><trkpt lat="37.0063284" lon="-3.7449228"><ele>1169.1666666666665</ele><time>2026-03-07T08:49:00.028Z</time></trkpt><trkpt lat="37.0062859" lon="-3.7448406"><ele>1171.0</ele><time>2026-03-07T08:49:00.991Z</time></trkpt><trkpt lat="37.0062377" lon="-3.7447632"><ele>1171.0</ele><time>2026-03-07T08:49:02.005Z</time></trkpt><trkpt lat="37.0061776" lon="-3.7446929"><ele>1171.0</ele><time>2026-03-07T08:49:03.003Z</time></trkpt><trkpt lat="37.006114" lon="-3.7446265"><ele>1171.0</ele><time>2026-03-07T08:49:04.009Z</time></trkpt><trkpt lat="37.0060447" lon="-3.7445723"><ele>1171.0</ele><time>2026-03-07T08:49:04.997Z</time></trkpt><trkpt lat="37.0059727" lon="-3.7445207"><ele>1171.0</ele><time>2026-03-07T08:49:06.009Z</time></trkpt><trkpt lat="37.0058817" lon="-3.7444823"><ele>1171.0</ele><time>2026-03-07T08:49:07.109Z</time></trkpt><trkpt lat="37.0057871" lon="-3.7444395"><ele>1172.0</ele><time>2026-03-07T08:49:08.049Z</time></trkpt><trkpt lat="37.0056977" lon="-3.7443862"><ele>1173.0</ele><time>2026-03-07T08:49:09.067Z</time></trkpt><trkpt lat="37.0056103" lon="-3.7443233"><ele>1174.0</ele><time>2026-03-07T08:49:10.006Z</time></trkpt><trkpt lat="37.0055222" lon="-3.74425"><ele>1175.0</ele><time>2026-03-07T08:49:11.004Z</time></trkpt><trkpt lat="37.0054331" lon="-3.7441818"><ele>1176.0</ele><time>2026-03-07T08:49:12.008Z</time></trkpt><trkpt lat="37.0053505" lon="-3.7441078"><ele>1176.0</ele><time>2026-03-07T08:49:13.01Z</time></trkpt><trkpt lat="37.005274" lon="-3.7440368"><ele>1176.0</ele><time>2026-03-07T08:49:14.009Z</time></trkpt><trkpt lat="37.0052062" lon="-3.7439789"><ele>1176.0</ele><time>2026-03-07T08:49:15.008Z</time></trkpt><trkpt lat="37.0051358" lon="-3.7439306"><ele>1176.0</ele><time>2026-03-07T08:49:16.008Z</time></trkpt><trkpt lat="37.0050578" lon="-3.7438855"><ele>1176.0</ele><time>2026-03-07T08:49:17.012Z</time></trkpt><trkpt lat="37.0049856" lon="-3.7438473"><ele>1176.0</ele><time>2026-03-07T08:49:18.004Z</time></trkpt><trkpt lat="37.0049183" lon="-3.7438192"><ele>1177.3999999999999</ele><time>2026-03-07T08:49:19.012Z</time></trkpt><trkpt lat="37.004856" lon="-3.7437898"><ele>1178.8</ele><time>2026-03-07T08:49:20.006Z</time></trkpt><trkpt lat="37.0047735" lon="-3.7437803"><ele>1180.1999999999998</ele><time>2026-03-07T08:49:21.007Z</time></trkpt><trkpt lat="37.0046708" lon="-3.7437965"><ele>1181.6</ele><time>2026-03-07T08:49:22.016Z</time></trkpt><trkpt lat="37.0045669" lon="-3.743813"><ele>1183.0</ele><time>2026-03-07T08:49:23.019Z</time></trkpt><trkpt lat="37.0044613" lon="-3.7438185"><ele>1183.0</ele><time>2026-03-07T08:49:24Z</time></trkpt><trkpt lat="37.0043582" lon="-3.7438258"><ele>1183.0</ele><time>2026-03-07T08:49:25.002Z</time></trkpt><trkpt lat="37.004256" lon="-3.7438419"><ele>1183.0</ele><time>2026-03-07T08:49:26.007Z</time></trkpt><trkpt lat="37.0041492" lon="-3.7438686"><ele>1183.0</ele><time>2026-03-07T08:49:27.004Z</time></trkpt><trkpt lat="37.0040409" lon="-3.7438935"><ele>1183.0</ele><time>2026-03-07T08:49:28.037Z</time></trkpt><trkpt lat="37.0039226" lon="-3.7439131"><ele>1183.6</ele><time>2026-03-07T08:49:28.995Z</time></trkpt><trkpt lat="37.0038165" lon="-3.743925"><ele>1184.1999999999998</ele><time>2026-03-07T08:49:30.004Z</time></trkpt><trkpt lat="37.0037222" lon="-3.7439292"><ele>1184.8</ele><time>2026-03-07T08:49:31.004Z</time></trkpt><trkpt lat="37.0036377" lon="-3.7439256"><ele>1185.3999999999999</ele><time>2026-03-07T08:49:32.003Z</time></trkpt><trkpt lat="37.0035578" lon="-3.743902"><ele>1186.0</ele><time>2026-03-07T08:49:33.008Z</time></trkpt><trkpt lat="37.0034905" lon="-3.7438397"><ele>1186.0</ele><time>2026-03-07T08:49:34.004Z</time></trkpt><trkpt lat="37.0034308" lon="-3.7437709"><ele>1186.0</ele><time>2026-03-07T08:49:35.013Z</time></trkpt><trkpt lat="37.0033736" lon="-3.7437109"><ele>1186.0</ele><time>2026-03-07T08:49:36.001Z</time></trkpt><trkpt lat="37.0033016" lon="-3.7436894"><ele>1186.0</ele><time>2026-03-07T08:49:37.004Z</time></trkpt><trkpt lat="37.0032327" lon="-3.7437036"><ele>1186.0</ele><time>2026-03-07T08:49:38.007Z</time></trkpt><trkpt lat="37.0031608" lon="-3.7437161"><ele>1186.0</ele><time>2026-03-07T08:49:39.014Z</time></trkpt><trkpt lat="37.0030843" lon="-3.7437346"><ele>1185.8333333333333</ele><time>2026-03-07T08:49:40.011Z</time></trkpt><trkpt lat="37.0030086" lon="-3.7437544"><ele>1185.6666666666665</ele><time>2026-03-07T08:49:41.028Z</time></trkpt><trkpt lat="37.0029396" lon="-3.7437849"><ele>1185.5</ele><time>2026-03-07T08:49:42.001Z</time></trkpt><trkpt lat="37.0028714" lon="-3.7438231"><ele>1185.3333333333333</ele><time>2026-03-07T08:49:43.01Z</time></trkpt><trkpt lat="37.0028116" lon="-3.7438826"><ele>1185.1666666666667</ele><time>2026-03-07T08:49:44.003Z</time></trkpt><trkpt lat="37.0027487" lon="-3.7439522"><ele>1185.0</ele><time>2026-03-07T08:49:44.998Z</time></trkpt><trkpt lat="37.0026856" lon="-3.744031"><ele>1185.0</ele><time>2026-03-07T08:49:46.012Z</time></trkpt><trkpt lat="37.0026261" lon="-3.7441177"><ele>1185.0</ele><time>2026-03-07T08:49:47.003Z</time></trkpt><trkpt lat="37.0025767" lon="-3.7442126"><ele>1185.0</ele><time>2026-03-07T08:49:48.01Z</time></trkpt><trkpt lat="37.0025385" lon="-3.7443115"><ele>1185.0</ele><time>2026-03-07T08:49:48.996Z</time></trkpt><trkpt lat="37.0025033" lon="-3.7443965"><ele>1185.0</ele><time>2026-03-07T08:49:50.01Z</time></trkpt><trkpt lat="37.0024499" lon="-3.7445249"><ele>1185.4285714285713</ele><time>2026-03-07T08:49:52.008Z</time></trkpt><trkpt lat="37.0024326" lon="-3.7446523"><ele>1185.8571428571427</ele><time>2026-03-07T08:49:54.004Z</time></trkpt><trkpt lat="37.0024534" lon="-3.7447269"><ele>1186.2857142857142</ele><time>2026-03-07T08:49:55.013Z</time></trkpt><trkpt lat="37.002486" lon="-3.7447959"><ele>1186.7142857142858</ele><time>2026-03-07T08:49:56.017Z</time></trkpt><trkpt lat="37.0025131" lon="-3.7448678"><ele>1187.1428571428573</ele><time>2026-03-07T08:49:57.001Z</time></trkpt><trkpt lat="37.0025337" lon="-3.7449458"><ele>1187.5714285714287</ele><time>2026-03-07T08:49:58.008Z</time></trkpt><trkpt lat="37.0025485" lon="-3.7450294"><ele>1188.0</ele><time>2026-03-07T08:49:59.009Z</time></trkpt><trkpt lat="37.0025525" lon="-3.7451263"><ele>1188.1666666666667</ele><time>2026-03-07T08:50:00.04Z</time></trkpt><trkpt lat="37.002549" lon="-3.7452293"><ele>1188.3333333333333</ele><time>2026-03-07T08:50:01.016Z</time></trkpt><trkpt lat="37.0025367" lon="-3.7453281"><ele>1188.5</ele><time>2026-03-07T08:50:02.01Z</time></trkpt><trkpt lat="37.0025188" lon="-3.7454157"><ele>1188.6666666666665</ele><time>2026-03-07T08:50:03.015Z</time></trkpt><trkpt lat="37.0024925" lon="-3.7454888"><ele>1188.8333333333333</ele><time>2026-03-07T08:50:04.022Z</time></trkpt><trkpt lat="37.0024327" lon="-3.7456103"><ele>1189.0</ele><time>2026-03-07T08:50:06.008Z</time></trkpt><trkpt lat="37.0024078" lon="-3.7457275"><ele>1189.0</ele><time>2026-03-07T08:50:08.004Z</time></trkpt><trkpt lat="37.0024209" lon="-3.7458088"><ele>1189.0</ele><time>2026-03-07T08:50:10.023Z</time></trkpt><trkpt lat="37.002472" lon="-3.745856"><ele>1189.0</ele><time>2026-03-07T08:50:12.011Z</time></trkpt><trkpt lat="37.0025463" lon="-3.7459444"><ele>1189.0</ele><time>2026-03-07T08:50:14.008Z</time></trkpt><trkpt lat="37.0025709" lon="-3.746023"><ele>1189.0</ele><time>2026-03-07T08:50:15.01Z</time></trkpt><trkpt lat="37.0026043" lon="-3.7461108"><ele>1189.0</ele><time>2026-03-07T08:50:16.005Z</time></trkpt><trkpt lat="37.002636" lon="-3.7462014"><ele>1189.1666666666665</ele><time>2026-03-07T08:50:17.013Z</time></trkpt><trkpt lat="37.0026661" lon="-3.7462857"><ele>1189.3333333333333</ele><time>2026-03-07T08:50:17.987Z</time></trkpt><trkpt lat="37.0026694" lon="-3.7463912"><ele>1189.5</ele><time>2026-03-07T08:50:19.003Z</time></trkpt><trkpt lat="37.0026758" lon="-3.7464978"><ele>1189.6666666666667</ele><time>2026-03-07T08:50:20.007Z</time></trkpt><trkpt lat="37.0026904" lon="-3.7465973"><ele>1189.8333333333335</ele><time>2026-03-07T08:50:21.004Z</time></trkpt><trkpt lat="37.0027117" lon="-3.7466964"><ele>1190.0</ele><time>2026-03-07T08:50:22.005Z</time></trkpt><trkpt lat="37.0027413" lon="-3.7467969"><ele>1189.5</ele><time>2026-03-07T08:50:23.008Z</time></trkpt><trkpt lat="37.0027729" lon="-3.7468986"><ele>1189.0</ele><time>2026-03-07T08:50:24.034Z</time></trkpt><trkpt lat="37.0028056" lon="-3.7469942"><ele>1188.5</ele><time>2026-03-07T08:50:25.006Z</time></trkpt><trkpt lat="37.0028262" lon="-3.7470825"><ele>1188.0</ele><time>2026-03-07T08:50:26.013Z</time></trkpt><trkpt lat="37.0028367" lon="-3.7471663"><ele>1187.5</ele><time>2026-03-07T08:50:27.01Z</time></trkpt><trkpt lat="37.0028481" lon="-3.7472512"><ele>1187.0</ele><time>2026-03-07T08:50:28.005Z</time></trkpt><trkpt lat="37.002839" lon="-3.7473398"><ele>1187.0</ele><time>2026-03-07T08:50:29.005Z</time></trkpt><trkpt lat="37.0028243" lon="-3.7474282"><ele>1187.0</ele><time>2026-03-07T08:50:29.997Z</time></trkpt><trkpt lat="37.0028059" lon="-3.7475169"><ele>1187.0</ele><time>2026-03-07T08:50:31.007Z</time></trkpt><trkpt lat="37.0027875" lon="-3.7476139"><ele>1187.0</ele><time>2026-03-07T08:50:32.021Z</time></trkpt><trkpt lat="37.0027802" lon="-3.7477231"><ele>1187.0</ele><time>2026-03-07T08:50:32.993Z</time></trkpt><trkpt lat="37.0027733" lon="-3.7478348"><ele>1187.0</ele><time>2026-03-07T08:50:34Z</time></trkpt><trkpt lat="37.0027654" lon="-3.7479427"><ele>1186.6666666666667</ele><time>2026-03-07T08:50:34.991Z</time></trkpt><trkpt lat="37.0027639" lon="-3.7480418"><ele>1186.3333333333335</ele><time>2026-03-07T08:50:35.991Z</time></trkpt><trkpt lat="37.002759" lon="-3.7481343"><ele>1186.0</ele><time>2026-03-07T08:50:36.999Z</time></trkpt><trkpt lat="37.0027701" lon="-3.748228"><ele>1185.6666666666667</ele><time>2026-03-07T08:50:37.998Z</time></trkpt><trkpt lat="37.0027822" lon="-3.7483224"><ele>1185.3333333333333</ele><time>2026-03-07T08:50:38.995Z</time></trkpt><trkpt lat="37.0028078" lon="-3.7484116"><ele>1185.0</ele><time>2026-03-07T08:50:40.023Z</time></trkpt><trkpt lat="37.0028426" lon="-3.7484891"><ele>1183.8333333333333</ele><time>2026-03-07T08:50:41Z</time></trkpt><trkpt lat="37.0028878" lon="-3.7485589"><ele>1182.6666666666667</ele><time>2026-03-07T08:50:42.001Z</time></trkpt><trkpt lat="37.0029413" lon="-3.7486221"><ele>1181.5</ele><time>2026-03-07T08:50:43.015Z</time></trkpt><trkpt lat="37.0029903" lon="-3.7486927"><ele>1180.3333333333335</ele><time>2026-03-07T08:50:44.003Z</time></trkpt><trkpt lat="37.0030387" lon="-3.7487498"><ele>1179.1666666666667</ele><time>2026-03-07T08:50:45.003Z</time></trkpt><trkpt lat="37.0030886" lon="-3.7488855"><ele>1178.0</ele><time>2026-03-07T08:50:47.002Z</time></trkpt><trkpt lat="37.003066" lon="-3.7490318"><ele>1178.0</ele><time>2026-03-07T08:50:49.004Z</time></trkpt><trkpt lat="37.0030303" lon="-3.7490969"><ele>1178.0</ele><time>2026-03-07T08:50:50.008Z</time></trkpt><trkpt lat="37.0029893" lon="-3.7491622"><ele>1178.0</ele><time>2026-03-07T08:50:51.003Z</time></trkpt><trkpt lat="37.0029297" lon="-3.7492148"><ele>1178.0</ele><time>2026-03-07T08:50:52.012Z</time></trkpt><trkpt lat="37.002885" lon="-3.7492897"><ele>1178.0</ele><time>2026-03-07T08:50:53.009Z</time></trkpt><trkpt lat="37.0028529" lon="-3.7493779"><ele>1178.0</ele><time>2026-03-07T08:50:54.009Z</time></trkpt><trkpt lat="37.0028412" lon="-3.749491"><ele>1178.0</ele><time>2026-03-07T08:50:55.003Z</time></trkpt><trkpt lat="37.0028274" lon="-3.7496058"><ele>1176.0</ele><time>2026-03-07T08:50:56.015Z</time></trkpt><trkpt lat="37.0028128" lon="-3.7497213"><ele>1174.0</ele><time>2026-03-07T08:50:57.018Z</time></trkpt><trkpt lat="37.0027955" lon="-3.7498323"><ele>1172.0</ele><time>2026-03-07T08:50:58.005Z</time></trkpt><trkpt lat="37.0027739" lon="-3.7499318"><ele>1170.0</ele><time>2026-03-07T08:50:59.008Z</time></trkpt><trkpt lat="37.0027534" lon="-3.750013"><ele>1168.0</ele><time>2026-03-07T08:51:00.006Z</time></trkpt><trkpt lat="37.0027414" lon="-3.7501622"><ele>1168.3333333333333</ele><time>2026-03-07T08:51:02.013Z</time></trkpt><trkpt lat="37.0028184" lon="-3.7502737"><ele>1168.6666666666665</ele><time>2026-03-07T08:51:04Z</time></trkpt><trkpt lat="37.0028785" lon="-3.7503204"><ele>1169.0</ele><time>2026-03-07T08:51:05.009Z</time></trkpt><trkpt lat="37.0029416" lon="-3.7503651"><ele>1169.3333333333333</ele><time>2026-03-07T08:51:06.005Z</time></trkpt><trkpt lat="37.0030157" lon="-3.7504159"><ele>1169.6666666666667</ele><time>2026-03-07T08:51:07.006Z</time></trkpt><trkpt lat="37.0030905" lon="-3.7504716"><ele>1170.0</ele><time>2026-03-07T08:51:08.007Z</time></trkpt><trkpt lat="37.0031747" lon="-3.7505316"><ele>1170.0</ele><time>2026-03-07T08:51:09.006Z</time></trkpt><trkpt lat="37.0032541" lon="-3.7505839"><ele>1170.0</ele><time>2026-03-07T08:51:10.011Z</time></trkpt><trkpt lat="37.0033308" lon="-3.7506369"><ele>1170.0</ele><time>2026-03-07T08:51:11.002Z</time></trkpt><trkpt lat="37.003404" lon="-3.7506852"><ele>1170.0</ele><time>2026-03-07T08:51:12.011Z</time></trkpt><trkpt lat="37.0034807" lon="-3.7507241"><ele>1170.0</ele><time>2026-03-07T08:51:13.006Z</time></trkpt><trkpt lat="37.0035564" lon="-3.7507669"><ele>1170.0</ele><time>2026-03-07T08:51:14.011Z</time></trkpt><trkpt lat="37.0036279" lon="-3.7508029"><ele>1169.3333333333333</ele><time>2026-03-07T08:51:15.021Z</time></trkpt><trkpt lat="37.0036971" lon="-3.7508356"><ele>1168.6666666666667</ele><time>2026-03-07T08:51:16.015Z</time></trkpt><trkpt lat="37.0037678" lon="-3.7508534"><ele>1168.0</ele><time>2026-03-07T08:51:17.009Z</time></trkpt><trkpt lat="37.0038448" lon="-3.7508577"><ele>1167.3333333333335</ele><time>2026-03-07T08:51:18.011Z</time></trkpt><trkpt lat="37.0039339" lon="-3.7508524"><ele>1166.6666666666667</ele><time>2026-03-07T08:51:18.998Z</time></trkpt><trkpt lat="37.0040283" lon="-3.7508387"><ele>1166.0</ele><time>2026-03-07T08:51:20.003Z</time></trkpt><trkpt lat="37.0041221" lon="-3.7508159"><ele>1165.6666666666667</ele><time>2026-03-07T08:51:20.996Z</time></trkpt><trkpt lat="37.0042091" lon="-3.7508044"><ele>1165.3333333333335</ele><time>2026-03-07T08:51:22.007Z</time></trkpt><trkpt lat="37.0042855" lon="-3.7508028"><ele>1165.0</ele><time>2026-03-07T08:51:23.002Z</time></trkpt><trkpt lat="37.0043491" lon="-3.7508119"><ele>1164.6666666666667</ele><time>2026-03-07T08:51:24.02Z</time></trkpt><trkpt lat="37.0044516" lon="-3.7508431"><ele>1164.3333333333333</ele><time>2026-03-07T08:51:25.995Z</time></trkpt><trkpt lat="37.0044997" lon="-3.7509385"><ele>1164.0</ele><time>2026-03-07T08:51:29.012Z</time></trkpt><trkpt lat="37.0044783" lon="-3.7510385"><ele>1164.2</ele><time>2026-03-07T08:51:31.002Z</time></trkpt><trkpt lat="37.0044015" lon="-3.7511149"><ele>1164.4</ele><time>2026-03-07T08:51:33.01Z</time></trkpt><trkpt lat="37.0042989" lon="-3.7511683"><ele>1164.6</ele><time>2026-03-07T08:51:35.007Z</time></trkpt><trkpt lat="37.0041857" lon="-3.7512188"><ele>1164.8</ele><time>2026-03-07T08:51:37.007Z</time></trkpt><trkpt lat="37.0041154" lon="-3.7512489"><ele>1165.0</ele><time>2026-03-07T08:51:38.043Z</time></trkpt><trkpt lat="37.0040459" lon="-3.7512852"><ele>1165.4</ele><time>2026-03-07T08:51:39.026Z</time></trkpt><trkpt lat="37.0039742" lon="-3.7513351"><ele>1165.8</ele><time>2026-03-07T08:51:40.034Z</time></trkpt><trkpt lat="37.0038868" lon="-3.751395"><ele>1166.2</ele><time>2026-03-07T08:51:41.008Z</time></trkpt><trkpt lat="37.0037959" lon="-3.7514573"><ele>1166.6</ele><time>2026-03-07T08:51:42.007Z</time></trkpt><trkpt lat="37.0037088" lon="-3.7515141"><ele>1167.0</ele><time>2026-03-07T08:51:43.016Z</time></trkpt><trkpt lat="37.0036256" lon="-3.7515646"><ele>1167.0</ele><time>2026-03-07T08:51:44.009Z</time></trkpt><trkpt lat="37.0035456" lon="-3.7516168"><ele>1167.0</ele><time>2026-03-07T08:51:45.01Z</time></trkpt><trkpt lat="37.0034662" lon="-3.751672"><ele>1167.0</ele><time>2026-03-07T08:51:46.004Z</time></trkpt><trkpt lat="37.0033855" lon="-3.7517265"><ele>1167.0</ele><time>2026-03-07T08:51:47.007Z</time></trkpt><trkpt lat="37.0033062" lon="-3.7517819"><ele>1167.0</ele><time>2026-03-07T08:51:48.06Z</time></trkpt><trkpt lat="37.003228" lon="-3.7518308"><ele>1168.0</ele><time>2026-03-07T08:51:49.006Z</time></trkpt><trkpt lat="37.0031573" lon="-3.7518711"><ele>1169.0</ele><time>2026-03-07T08:51:50.01Z</time></trkpt><trkpt lat="37.0030864" lon="-3.751886"><ele>1170.0</ele><time>2026-03-07T08:51:51.008Z</time></trkpt><trkpt lat="37.0030155" lon="-3.751899"><ele>1171.0</ele><time>2026-03-07T08:51:52.006Z</time></trkpt><trkpt lat="37.0029516" lon="-3.7519018"><ele>1172.0</ele><time>2026-03-07T08:51:53.02Z</time></trkpt><trkpt lat="37.0028649" lon="-3.7519189"><ele>1173.0</ele><time>2026-03-07T08:51:55.007Z</time></trkpt><trkpt lat="37.0028122" lon="-3.752033"><ele>1173.5</ele><time>2026-03-07T08:51:58.01Z</time></trkpt><trkpt lat="37.0027705" lon="-3.7521691"><ele>1174.0</ele><time>2026-03-07T08:52:00.034Z</time></trkpt><trkpt lat="37.0027297" lon="-3.7522416"><ele>1174.5</ele><time>2026-03-07T08:52:01.006Z</time></trkpt><trkpt lat="37.002669" lon="-3.7523155"><ele>1175.0</ele><time>2026-03-07T08:52:02.014Z</time></trkpt><trkpt lat="37.0026021" lon="-3.7523813"><ele>1175.5</ele><time>2026-03-07T08:52:03.013Z</time></trkpt><trkpt lat="37.0025411" lon="-3.7524405"><ele>1176.0</ele><time>2026-03-07T08:52:04.007Z</time></trkpt><trkpt lat="37.0024872" lon="-3.7524944"><ele>1177.8</ele><time>2026-03-07T08:52:05.008Z</time></trkpt><trkpt lat="37.0024336" lon="-3.7525424"><ele>1179.6</ele><time>2026-03-07T08:52:06.013Z</time></trkpt><trkpt lat="37.0023483" lon="-3.7526395"><ele>1181.4</ele><time>2026-03-07T08:52:08.006Z</time></trkpt><trkpt lat="37.0023128" lon="-3.7527547"><ele>1183.2</ele><time>2026-03-07T08:52:10.007Z</time></trkpt><trkpt lat="37.0022739" lon="-3.7528767"><ele>1185.0</ele><time>2026-03-07T08:52:12.009Z</time></trkpt><trkpt lat="37.0022378" lon="-3.7529469"><ele>1185.8</ele><time>2026-03-07T08:52:13.005Z</time></trkpt><trkpt lat="37.0021598" lon="-3.7530345"><ele>1186.6</ele><time>2026-03-07T08:52:15.011Z</time></trkpt><trkpt lat="37.0020334" lon="-3.7530729"><ele>1187.4</ele><time>2026-03-07T08:52:17.008Z</time></trkpt><trkpt lat="37.0019642" lon="-3.7531024"><ele>1188.2</ele><time>2026-03-07T08:52:18.013Z</time></trkpt><trkpt lat="37.0018906" lon="-3.753142"><ele>1189.0</ele><time>2026-03-07T08:52:19.04Z</time></trkpt><trkpt lat="37.0018003" lon="-3.7531926"><ele>1189.0</ele><time>2026-03-07T08:52:20.012Z</time></trkpt><trkpt lat="37.0017098" lon="-3.7532436"><ele>1189.0</ele><time>2026-03-07T08:52:21.002Z</time></trkpt><trkpt lat="37.0016176" lon="-3.7532935"><ele>1189.0</ele><time>2026-03-07T08:52:22.001Z</time></trkpt><trkpt lat="37.0015234" lon="-3.7533389"><ele>1189.0</ele><time>2026-03-07T08:52:23.023Z</time></trkpt><trkpt lat="37.0014283" lon="-3.7533777"><ele>1189.0</ele><time>2026-03-07T08:52:24.002Z</time></trkpt><trkpt lat="37.0013337" lon="-3.7534182"><ele>1191.6000000000001</ele><time>2026-03-07T08:52:25.011Z</time></trkpt><trkpt lat="37.0012412" lon="-3.7534585"><ele>1194.2</ele><time>2026-03-07T08:52:26.01Z</time></trkpt><trkpt lat="37.0011558" lon="-3.7535111"><ele>1196.8000000000002</ele><time>2026-03-07T08:52:27.006Z</time></trkpt><trkpt lat="37.0010648" lon="-3.7535639"><ele>1199.4</ele><time>2026-03-07T08:52:28.004Z</time></trkpt><trkpt lat="37.0009722" lon="-3.7536233"><ele>1202.0</ele><time>2026-03-07T08:52:29.032Z</time></trkpt><trkpt lat="37.0008861" lon="-3.7536731"><ele>1204.6666666666667</ele><time>2026-03-07T08:52:30.008Z</time></trkpt><trkpt lat="37.0008142" lon="-3.7537174"><ele>1207.3333333333335</ele><time>2026-03-07T08:52:31.016Z</time></trkpt><trkpt lat="37.0007442" lon="-3.7537334"><ele>1210.0</ele><time>2026-03-07T08:52:32.013Z</time></trkpt><trkpt lat="37.0006737" lon="-3.7537427"><ele>1212.6666666666667</ele><time>2026-03-07T08:52:33.009Z</time></trkpt><trkpt lat="37.0005927" lon="-3.7537446"><ele>1215.3333333333333</ele><time>2026-03-07T08:52:34.003Z</time></trkpt><trkpt lat="37.0005074" lon="-3.753752"><ele>1218.0</ele><time>2026-03-07T08:52:34.996Z</time></trkpt><trkpt lat="37.0004226" lon="-3.7537438"><ele>1218.0</ele><time>2026-03-07T08:52:36.007Z</time></trkpt><trkpt lat="37.0003371" lon="-3.7537149"><ele>1218.0</ele><time>2026-03-07T08:52:37.004Z</time></trkpt><trkpt lat="37.0002478" lon="-3.7536846"><ele>1218.0</ele><time>2026-03-07T08:52:38.005Z</time></trkpt><trkpt lat="37.000158" lon="-3.7536574"><ele>1218.0</ele><time>2026-03-07T08:52:39.01Z</time></trkpt><trkpt lat="37.000068" lon="-3.753661"><ele>1218.0</ele><time>2026-03-07T08:52:40.004Z</time></trkpt><trkpt lat="36.9999736" lon="-3.7536757"><ele>1218.0</ele><time>2026-03-07T08:52:41.004Z</time></trkpt><trkpt lat="36.9998733" lon="-3.753684"><ele>1218.0</ele><time>2026-03-07T08:52:42.013Z</time></trkpt><trkpt lat="36.9997668" lon="-3.7536929"><ele>1218.0</ele><time>2026-03-07T08:52:42.999Z</time></trkpt><trkpt lat="36.9996605" lon="-3.7536982"><ele>1218.0</ele><time>2026-03-07T08:52:43.996Z</time></trkpt><trkpt lat="36.9995632" lon="-3.7536947"><ele>1218.0</ele><time>2026-03-07T08:52:45.017Z</time></trkpt><trkpt lat="36.9994759" lon="-3.7536985"><ele>1218.0</ele><time>2026-03-07T08:52:46.001Z</time></trkpt><trkpt lat="36.9993911" lon="-3.7537027"><ele>1218.0</ele><time>2026-03-07T08:52:46.999Z</time></trkpt><trkpt lat="36.9993049" lon="-3.7537028"><ele>1218.0</ele><time>2026-03-07T08:52:48.011Z</time></trkpt><trkpt lat="36.9992153" lon="-3.7537053"><ele>1218.0</ele><time>2026-03-07T08:52:49.006Z</time></trkpt><trkpt lat="36.9991285" lon="-3.7537171"><ele>1218.0</ele><time>2026-03-07T08:52:50.009Z</time></trkpt><trkpt lat="36.9990415" lon="-3.7537523"><ele>1218.0</ele><time>2026-03-07T08:52:50.998Z</time></trkpt><trkpt lat="36.9989475" lon="-3.7537923"><ele>1218.0</ele><time>2026-03-07T08:52:52.014Z</time></trkpt><trkpt lat="36.9988579" lon="-3.7538366"><ele>1218.0</ele><time>2026-03-07T08:52:53.02Z</time></trkpt><trkpt lat="36.9987834" lon="-3.7538794"><ele>1218.0</ele><time>2026-03-07T08:52:54.013Z</time></trkpt><trkpt lat="36.9987204" lon="-3.7539293"><ele>1218.0</ele><time>2026-03-07T08:52:55.019Z</time></trkpt><trkpt lat="36.9986626" lon="-3.7539678"><ele>1218.0</ele><time>2026-03-07T08:52:55.999Z</time></trkpt><trkpt lat="36.9986027" lon="-3.7539948"><ele>1218.0</ele><time>2026-03-07T08:52:57.004Z</time></trkpt><trkpt lat="36.9985394" lon="-3.7540092"><ele>1218.0</ele><time>2026-03-07T08:52:58.01Z</time></trkpt><trkpt lat="36.9984168" lon="-3.7540274"><ele>1218.0</ele><time>2026-03-07T08:53:00.004Z</time></trkpt><trkpt lat="36.9983521" lon="-3.7540321"><ele>1218.0</ele><time>2026-03-07T08:53:01.012Z</time></trkpt><trkpt lat="36.9982898" lon="-3.754044"><ele>1218.0</ele><time>2026-03-07T08:53:02.01Z</time></trkpt><trkpt lat="36.9982094" lon="-3.7541024"><ele>1218.0</ele><time>2026-03-07T08:53:04.004Z</time></trkpt><trkpt lat="36.9981836" lon="-3.7542447"><ele>1218.0</ele><time>2026-03-07T08:53:06.02Z</time></trkpt><trkpt lat="36.9981924" lon="-3.7543431"><ele>1218.0</ele><time>2026-03-07T08:53:07.024Z</time></trkpt><trkpt lat="36.9982004" lon="-3.7544601"><ele>1219.1666666666667</ele><time>2026-03-07T08:53:08.006Z</time></trkpt><trkpt lat="36.998203" lon="-3.7545496"><ele>1220.3333333333333</ele><time>2026-03-07T08:53:09.004Z</time></trkpt><trkpt lat="36.9982035" lon="-3.7546377"><ele>1221.5</ele><time>2026-03-07T08:53:10.003Z</time></trkpt><trkpt lat="36.9981938" lon="-3.7547291"><ele>1222.6666666666665</ele><time>2026-03-07T08:53:11.004Z</time></trkpt><trkpt lat="36.9981924" lon="-3.7548206"><ele>1223.8333333333333</ele><time>2026-03-07T08:53:11.991Z</time></trkpt><trkpt lat="36.9981865" lon="-3.7549049"><ele>1225.0</ele><time>2026-03-07T08:53:13.009Z</time></trkpt><trkpt lat="36.9981447" lon="-3.755041"><ele>1225.0</ele><time>2026-03-07T08:53:15.011Z</time></trkpt><trkpt lat="36.998091" lon="-3.7551688"><ele>1225.0</ele><time>2026-03-07T08:53:17.024Z</time></trkpt><trkpt lat="36.9980524" lon="-3.7553102"><ele>1225.0</ele><time>2026-03-07T08:53:19.014Z</time></trkpt><trkpt lat="36.9980142" lon="-3.7554461"><ele>1225.0</ele><time>2026-03-07T08:53:21.005Z</time></trkpt><trkpt lat="36.9979194" lon="-3.7555459"><ele>1226.0</ele><time>2026-03-07T08:53:23.022Z</time></trkpt><trkpt lat="36.9978617" lon="-3.7555968"><ele>1227.0</ele><time>2026-03-07T08:53:24.012Z</time></trkpt><trkpt lat="36.9978017" lon="-3.7556358"><ele>1228.0</ele><time>2026-03-07T08:53:25.033Z</time></trkpt><trkpt lat="36.9977299" lon="-3.7556557"><ele>1229.0</ele><time>2026-03-07T08:53:26.005Z</time></trkpt><trkpt lat="36.9976571" lon="-3.7556674"><ele>1230.0</ele><time>2026-03-07T08:53:27.008Z</time></trkpt><trkpt lat="36.9975818" lon="-3.7557215"><ele>1231.0</ele><time>2026-03-07T08:53:28.005Z</time></trkpt><trkpt lat="36.997516" lon="-3.7557941"><ele>1230.8333333333333</ele><time>2026-03-07T08:53:29.012Z</time></trkpt><trkpt lat="36.9974582" lon="-3.7558723"><ele>1230.6666666666665</ele><time>2026-03-07T08:53:30.008Z</time></trkpt><trkpt lat="36.9973971" lon="-3.7559381"><ele>1230.5</ele><time>2026-03-07T08:53:31.005Z</time></trkpt><trkpt lat="36.9973389" lon="-3.7559972"><ele>1230.3333333333333</ele><time>2026-03-07T08:53:32.013Z</time></trkpt><trkpt lat="36.9972833" lon="-3.7560606"><ele>1230.1666666666667</ele><time>2026-03-07T08:53:33.004Z</time></trkpt><trkpt lat="36.9972236" lon="-3.7561046"><ele>1230.0</ele><time>2026-03-07T08:53:34.011Z</time></trkpt><trkpt lat="36.9971174" lon="-3.7561407"><ele>1230.4</ele><time>2026-03-07T08:53:36.012Z</time></trkpt><trkpt lat="36.9970155" lon="-3.7561416"><ele>1230.8</ele><time>2026-03-07T08:53:38.012Z</time></trkpt><trkpt lat="36.9969007" lon="-3.7561391"><ele>1231.2</ele><time>2026-03-07T08:53:40.027Z</time></trkpt><trkpt lat="36.9968351" lon="-3.7561314"><ele>1231.6</ele><time>2026-03-07T08:53:41.004Z</time></trkpt><trkpt lat="36.9967536" lon="-3.7561175"><ele>1232.0</ele><time>2026-03-07T08:53:42.023Z</time></trkpt><trkpt lat="36.9966604" lon="-3.756105"><ele>1232.0</ele><time>2026-03-07T08:53:43.008Z</time></trkpt><trkpt lat="36.9965579" lon="-3.7560974"><ele>1232.0</ele><time>2026-03-07T08:53:44.011Z</time></trkpt><trkpt lat="36.9964543" lon="-3.7560907"><ele>1232.0</ele><time>2026-03-07T08:53:45.018Z</time></trkpt><trkpt lat="36.9963438" lon="-3.7560797"><ele>1232.0</ele><time>2026-03-07T08:53:46.007Z</time></trkpt><trkpt lat="36.9962287" lon="-3.7560664"><ele>1232.0</ele><time>2026-03-07T08:53:47.017Z</time></trkpt><trkpt lat="36.996112" lon="-3.7560508"><ele>1231.75</ele><time>2026-03-07T08:53:48.01Z</time></trkpt><trkpt lat="36.9959905" lon="-3.7560294"><ele>1231.5</ele><time>2026-03-07T08:53:49.009Z</time></trkpt><trkpt lat="36.9958646" lon="-3.7560107"><ele>1231.25</ele><time>2026-03-07T08:53:49.993Z</time></trkpt><trkpt lat="36.9957412" lon="-3.7559972"><ele>1231.0</ele><time>2026-03-07T08:53:50.996Z</time></trkpt><trkpt lat="36.9956208" lon="-3.7559885"><ele>1231.3999999999999</ele><time>2026-03-07T08:53:52.016Z</time></trkpt><trkpt lat="36.9955043" lon="-3.7559767"><ele>1231.8</ele><time>2026-03-07T08:53:53.036Z</time></trkpt><trkpt lat="36.995395" lon="-3.7559696"><ele>1232.1999999999998</ele><time>2026-03-07T08:53:54.029Z</time></trkpt><trkpt lat="36.99529" lon="-3.7559663"><ele>1232.6</ele><time>2026-03-07T08:53:55.015Z</time></trkpt><trkpt lat="36.9951912" lon="-3.7559683"><ele>1233.0</ele><time>2026-03-07T08:53:56.019Z</time></trkpt><trkpt lat="36.9950988" lon="-3.755972"><ele>1233.0</ele><time>2026-03-07T08:53:57.004Z</time></trkpt><trkpt lat="36.9950144" lon="-3.7559717"><ele>1233.0</ele><time>2026-03-07T08:53:58.004Z</time></trkpt><trkpt lat="36.9949341" lon="-3.7559657"><ele>1233.0</ele><time>2026-03-07T08:53:59.023Z</time></trkpt><trkpt lat="36.9948531" lon="-3.7559678"><ele>1233.0</ele><time>2026-03-07T08:54:00.032Z</time></trkpt><trkpt lat="36.9947708" lon="-3.7559801"><ele>1233.0</ele><time>2026-03-07T08:54:01.001Z</time></trkpt><trkpt lat="36.9946873" lon="-3.7559879"><ele>1233.0</ele><time>2026-03-07T08:54:02.004Z</time></trkpt><trkpt lat="36.9946011" lon="-3.7559862"><ele>1233.0</ele><time>2026-03-07T08:54:03.005Z</time></trkpt><trkpt lat="36.9945147" lon="-3.7559681"><ele>1233.0</ele><time>2026-03-07T08:54:04.012Z</time></trkpt><trkpt lat="36.9944274" lon="-3.7559386"><ele>1233.0</ele><time>2026-03-07T08:54:05.005Z</time></trkpt><trkpt lat="36.9943388" lon="-3.755911"><ele>1233.0</ele><time>2026-03-07T08:54:06.003Z</time></trkpt><trkpt lat="36.9942475" lon="-3.7559029"><ele>1233.0</ele><time>2026-03-07T08:54:07.011Z</time></trkpt><trkpt lat="36.9941551" lon="-3.755917"><ele>1233.6</ele><time>2026-03-07T08:54:08.013Z</time></trkpt><trkpt lat="36.9940636" lon="-3.7559557"><ele>1234.1999999999998</ele><time>2026-03-07T08:54:09.004Z</time></trkpt><trkpt lat="36.9939721" lon="-3.7560067"><ele>1234.8</ele><time>2026-03-07T08:54:10.007Z</time></trkpt><trkpt lat="36.9938794" lon="-3.7560603"><ele>1235.3999999999999</ele><time>2026-03-07T08:54:11.006Z</time></trkpt><trkpt lat="36.9937823" lon="-3.7561078"><ele>1236.0</ele><time>2026-03-07T08:54:12.004Z</time></trkpt><trkpt lat="36.9936801" lon="-3.7561528"><ele>1236.25</ele><time>2026-03-07T08:54:13.021Z</time></trkpt><trkpt lat="36.9935736" lon="-3.7561917"><ele>1236.5</ele><time>2026-03-07T08:54:14.01Z</time></trkpt><trkpt lat="36.9934654" lon="-3.7562268"><ele>1236.75</ele><time>2026-03-07T08:54:15.016Z</time></trkpt><trkpt lat="36.993355" lon="-3.7562574"><ele>1237.0</ele><time>2026-03-07T08:54:16.012Z</time></trkpt><trkpt lat="36.9932419" lon="-3.7562839"><ele>1237.75</ele><time>2026-03-07T08:54:17.01Z</time></trkpt><trkpt lat="36.9931265" lon="-3.7563106"><ele>1238.5</ele><time>2026-03-07T08:54:18.005Z</time></trkpt><trkpt lat="36.9930101" lon="-3.7563367"><ele>1239.25</ele><time>2026-03-07T08:54:19.024Z</time></trkpt><trkpt lat="36.9928917" lon="-3.7563592"><ele>1240.0</ele><time>2026-03-07T08:54:20.006Z</time></trkpt><trkpt lat="36.992773" lon="-3.7563851"><ele>1240.0</ele><time>2026-03-07T08:54:21.004Z</time></trkpt><trkpt lat="36.9926537" lon="-3.7564116"><ele>1240.0</ele><time>2026-03-07T08:54:22.009Z</time></trkpt><trkpt lat="36.9925333" lon="-3.7564354"><ele>1240.0</ele><time>2026-03-07T08:54:23.008Z</time></trkpt><trkpt lat="36.9924117" lon="-3.75646"><ele>1240.0</ele><time>2026-03-07T08:54:24.009Z</time></trkpt><trkpt lat="36.9922912" lon="-3.7564888"><ele>1241.25</ele><time>2026-03-07T08:54:25.016Z</time></trkpt><trkpt lat="36.9921712" lon="-3.7565224"><ele>1242.5</ele><time>2026-03-07T08:54:26.012Z</time></trkpt><trkpt lat="36.9920488" lon="-3.7565503"><ele>1243.75</ele><time>2026-03-07T08:54:27.004Z</time></trkpt><trkpt lat="36.9919255" lon="-3.7565718"><ele>1245.0</ele><time>2026-03-07T08:54:28.012Z</time></trkpt><trkpt lat="36.991801" lon="-3.7565861"><ele>1245.0</ele><time>2026-03-07T08:54:29.018Z</time></trkpt><trkpt lat="36.991677" lon="-3.756584"><ele>1245.0</ele><time>2026-03-07T08:54:30.007Z</time></trkpt><trkpt lat="36.9915538" lon="-3.7565877"><ele>1245.0</ele><time>2026-03-07T08:54:31.012Z</time></trkpt><trkpt lat="36.9914293" lon="-3.7565994"><ele>1245.0</ele><time>2026-03-07T08:54:32.012Z</time></trkpt><trkpt lat="36.9912991" lon="-3.7566115"><ele>1245.75</ele><time>2026-03-07T08:54:33.017Z</time></trkpt><trkpt lat="36.9911657" lon="-3.7566243"><ele>1246.5</ele><time>2026-03-07T08:54:34.005Z</time></trkpt><trkpt lat="36.9910362" lon="-3.7566379"><ele>1247.25</ele><time>2026-03-07T08:54:35.004Z</time></trkpt><trkpt lat="36.9909133" lon="-3.7566493"><ele>1248.0</ele><time>2026-03-07T08:54:36.018Z</time></trkpt><trkpt lat="36.9908006" lon="-3.7566615"><ele>1248.8</ele><time>2026-03-07T08:54:37.009Z</time></trkpt><trkpt lat="36.9907018" lon="-3.75667"><ele>1249.6</ele><time>2026-03-07T08:54:38.006Z</time></trkpt><trkpt lat="36.9906123" lon="-3.7566758"><ele>1250.4</ele><time>2026-03-07T08:54:39.011Z</time></trkpt><trkpt lat="36.9905245" lon="-3.7566818"><ele>1251.2</ele><time>2026-03-07T08:54:40.002Z</time></trkpt><trkpt lat="36.9904296" lon="-3.7566806"><ele>1252.0</ele><time>2026-03-07T08:54:41.03Z</time></trkpt><trkpt lat="36.9903345" lon="-3.7566695"><ele>1252.0</ele><time>2026-03-07T08:54:42.008Z</time></trkpt><trkpt lat="36.9902499" lon="-3.7566558"><ele>1252.0</ele><time>2026-03-07T08:54:42.999Z</time></trkpt><trkpt lat="36.9901738" lon="-3.7566422"><ele>1252.0</ele><time>2026-03-07T08:54:44.01Z</time></trkpt><trkpt lat="36.9900983" lon="-3.7566205"><ele>1252.0</ele><time>2026-03-07T08:54:44.998Z</time></trkpt><trkpt lat="36.9900216" lon="-3.7565964"><ele>1252.0</ele><time>2026-03-07T08:54:46.008Z</time></trkpt><trkpt lat="36.9899537" lon="-3.7565525"><ele>1252.0</ele><time>2026-03-07T08:54:47.013Z</time></trkpt><trkpt lat="36.9898971" lon="-3.7564901"><ele>1252.6</ele><time>2026-03-07T08:54:47.999Z</time></trkpt><trkpt lat="36.9898505" lon="-3.7564106"><ele>1253.2</ele><time>2026-03-07T08:54:49.01Z</time></trkpt><trkpt lat="36.989817" lon="-3.7563086"><ele>1253.8</ele><time>2026-03-07T08:54:50.014Z</time></trkpt><trkpt lat="36.9897947" lon="-3.7561851"><ele>1254.4</ele><time>2026-03-07T08:54:51.014Z</time></trkpt><trkpt lat="36.9897873" lon="-3.7560473"><ele>1255.0</ele><time>2026-03-07T08:54:52.012Z</time></trkpt><trkpt lat="36.9897933" lon="-3.7559061"><ele>1255.0</ele><time>2026-03-07T08:54:53.011Z</time></trkpt><trkpt lat="36.9898118" lon="-3.7557679"><ele>1255.0</ele><time>2026-03-07T08:54:54.005Z</time></trkpt><trkpt lat="36.9898363" lon="-3.7556391"><ele>1255.0</ele><time>2026-03-07T08:54:55.003Z</time></trkpt><trkpt lat="36.9898461" lon="-3.7555118"><ele>1255.0</ele><time>2026-03-07T08:54:56.006Z</time></trkpt><trkpt lat="36.9898313" lon="-3.7553926"><ele>1255.0</ele><time>2026-03-07T08:54:57.001Z</time></trkpt><trkpt lat="36.9897918" lon="-3.7552769"><ele>1254.25</ele><time>2026-03-07T08:54:58.02Z</time></trkpt><trkpt lat="36.9897371" lon="-3.7551539"><ele>1253.5</ele><time>2026-03-07T08:54:59.012Z</time></trkpt><trkpt lat="36.9896748" lon="-3.7550257"><ele>1252.75</ele><time>2026-03-07T08:55:00.034Z</time></trkpt><trkpt lat="36.9896245" lon="-3.7548893"><ele>1252.0</ele><time>2026-03-07T08:55:01.013Z</time></trkpt><trkpt lat="36.9895903" lon="-3.7547393"><ele>1252.0</ele><time>2026-03-07T08:55:02.016Z</time></trkpt><trkpt lat="36.9895431" lon="-3.754581"><ele>1252.0</ele><time>2026-03-07T08:55:03.008Z</time></trkpt><trkpt lat="36.9895372" lon="-3.7544093"><ele>1252.0</ele><time>2026-03-07T08:55:04.007Z</time></trkpt><trkpt lat="36.9895227" lon="-3.7542388"><ele>1252.0</ele><time>2026-03-07T08:55:05Z</time></trkpt><trkpt lat="36.9895077" lon="-3.7540695"><ele>1251.0</ele><time>2026-03-07T08:55:06.008Z</time></trkpt><trkpt lat="36.9895121" lon="-3.7538991"><ele>1250.0</ele><time>2026-03-07T08:55:07Z</time></trkpt><trkpt lat="36.9895169" lon="-3.7537239"><ele>1249.0</ele><time>2026-03-07T08:55:08.019Z</time></trkpt><trkpt lat="36.9895312" lon="-3.7535458"><ele>1248.0</ele><time>2026-03-07T08:55:09.01Z</time></trkpt><trkpt lat="36.989544" lon="-3.7533725"><ele>1247.0</ele><time>2026-03-07T08:55:10.005Z</time></trkpt><trkpt lat="36.9895633" lon="-3.753209"><ele>1246.0</ele><time>2026-03-07T08:55:11.007Z</time></trkpt><trkpt lat="36.9895702" lon="-3.753061"><ele>1245.0</ele><time>2026-03-07T08:55:12.005Z</time></trkpt><trkpt lat="36.9895593" lon="-3.7529263"><ele>1244.0</ele><time>2026-03-07T08:55:12.994Z</time></trkpt><trkpt lat="36.9895373" lon="-3.7528042"><ele>1243.0</ele><time>2026-03-07T08:55:14.012Z</time></trkpt><trkpt lat="36.9894932" lon="-3.7527006"><ele>1242.0</ele><time>2026-03-07T08:55:15.005Z</time></trkpt><trkpt lat="36.989433" lon="-3.7526091"><ele>1241.0</ele><time>2026-03-07T08:55:16.006Z</time></trkpt><trkpt lat="36.9893592" lon="-3.7525234"><ele>1240.0</ele><time>2026-03-07T08:55:17.001Z</time></trkpt><trkpt lat="36.9892901" lon="-3.7524317"><ele>1239.0</ele><time>2026-03-07T08:55:18.004Z</time></trkpt><trkpt lat="36.9892236" lon="-3.7523298"><ele>1238.75</ele><time>2026-03-07T08:55:19.025Z</time></trkpt><trkpt lat="36.9891675" lon="-3.7522038"><ele>1238.5</ele><time>2026-03-07T08:55:20.019Z</time></trkpt><trkpt lat="36.9891147" lon="-3.7520571"><ele>1238.25</ele><time>2026-03-07T08:55:21.014Z</time></trkpt><trkpt lat="36.9890595" lon="-3.7518953"><ele>1238.0</ele><time>2026-03-07T08:55:22.014Z</time></trkpt><trkpt lat="36.9890065" lon="-3.7517483"><ele>1238.0</ele><time>2026-03-07T08:55:23.005Z</time></trkpt><trkpt lat="36.9889597" lon="-3.7516034"><ele>1238.0</ele><time>2026-03-07T08:55:23.997Z</time></trkpt><trkpt lat="36.9889249" lon="-3.7514355"><ele>1238.0</ele><time>2026-03-07T08:55:25.014Z</time></trkpt><trkpt lat="36.9889035" lon="-3.7512667"><ele>1238.0</ele><time>2026-03-07T08:55:26.009Z</time></trkpt><trkpt lat="36.9888842" lon="-3.7510987"><ele>1236.5</ele><time>2026-03-07T08:55:26.999Z</time></trkpt><trkpt lat="36.9888598" lon="-3.7509407"><ele>1235.0</ele><time>2026-03-07T08:55:28.009Z</time></trkpt><trkpt lat="36.9888264" lon="-3.7507958"><ele>1233.5</ele><time>2026-03-07T08:55:29.013Z</time></trkpt><trkpt lat="36.9887971" lon="-3.7506615"><ele>1232.0</ele><time>2026-03-07T08:55:30.005Z</time></trkpt><trkpt lat="36.9887699" lon="-3.7505374"><ele>1232.0</ele><time>2026-03-07T08:55:31.026Z</time></trkpt><trkpt lat="36.9887325" lon="-3.7504252"><ele>1232.0</ele><time>2026-03-07T08:55:32.006Z</time></trkpt><trkpt lat="36.9886974" lon="-3.7503227"><ele>1232.0</ele><time>2026-03-07T08:55:33.005Z</time></trkpt><trkpt lat="36.9886411" lon="-3.7502064"><ele>1232.0</ele><time>2026-03-07T08:55:35.005Z</time></trkpt><trkpt lat="36.9885544" lon="-3.7502244"><ele>1232.0</ele><time>2026-03-07T08:55:38.022Z</time></trkpt><trkpt lat="36.9885138" lon="-3.7503423"><ele>1232.0</ele><time>2026-03-07T08:55:40.011Z</time></trkpt><trkpt lat="36.9884896" lon="-3.7504406"><ele>1232.0</ele><time>2026-03-07T08:55:41.006Z</time></trkpt><trkpt lat="36.9884636" lon="-3.7505523"><ele>1232.0</ele><time>2026-03-07T08:55:42.004Z</time></trkpt><trkpt lat="36.9884386" lon="-3.7506794"><ele>1232.0</ele><time>2026-03-07T08:55:43.01Z</time></trkpt><trkpt lat="36.9884095" lon="-3.7507976"><ele>1232.0</ele><time>2026-03-07T08:55:44.008Z</time></trkpt><trkpt lat="36.9883802" lon="-3.7509153"><ele>1232.0</ele><time>2026-03-07T08:55:45.008Z</time></trkpt><trkpt lat="36.9883473" lon="-3.7510377"><ele>1232.0</ele><time>2026-03-07T08:55:46.01Z</time></trkpt><trkpt lat="36.9883039" lon="-3.7511666"><ele>1232.0</ele><time>2026-03-07T08:55:47.019Z</time></trkpt><trkpt lat="36.988254" lon="-3.7513018"><ele>1232.0</ele><time>2026-03-07T08:55:48.016Z</time></trkpt><trkpt lat="36.9882047" lon="-3.7514519"><ele>1235.0</ele><time>2026-03-07T08:55:49.002Z</time></trkpt><trkpt lat="36.9881398" lon="-3.751595"><ele>1238.0</ele><time>2026-03-07T08:55:50.009Z</time></trkpt><trkpt lat="36.9880715" lon="-3.7517436"><ele>1241.0</ele><time>2026-03-07T08:55:51.015Z</time></trkpt><trkpt lat="36.9879995" lon="-3.751887"><ele>1244.0</ele><time>2026-03-07T08:55:52.016Z</time></trkpt><trkpt lat="36.9879197" lon="-3.7520243"><ele>1246.25</ele><time>2026-03-07T08:55:53.015Z</time></trkpt><trkpt lat="36.9878307" lon="-3.752162"><ele>1248.5</ele><time>2026-03-07T08:55:54.008Z</time></trkpt><trkpt lat="36.9877215" lon="-3.7522818"><ele>1250.75</ele><time>2026-03-07T08:55:55.004Z</time></trkpt><trkpt lat="36.9876052" lon="-3.7523969"><ele>1253.0</ele><time>2026-03-07T08:55:56.009Z</time></trkpt><trkpt lat="36.9874914" lon="-3.7524909"><ele>1253.0</ele><time>2026-03-07T08:55:57.017Z</time></trkpt><trkpt lat="36.9873871" lon="-3.752572"><ele>1253.0</ele><time>2026-03-07T08:55:58.012Z</time></trkpt><trkpt lat="36.987293" lon="-3.7526627"><ele>1253.0</ele><time>2026-03-07T08:55:59.004Z</time></trkpt><trkpt lat="36.9872107" lon="-3.7527678"><ele>1253.0</ele><time>2026-03-07T08:56:00.037Z</time></trkpt><trkpt lat="36.9871385" lon="-3.7528818"><ele>1254.75</ele><time>2026-03-07T08:56:01.026Z</time></trkpt><trkpt lat="36.9870827" lon="-3.7530112"><ele>1256.5</ele><time>2026-03-07T08:56:02.036Z</time></trkpt><trkpt lat="36.9870456" lon="-3.7531636"><ele>1258.25</ele><time>2026-03-07T08:56:03.009Z</time></trkpt><trkpt lat="36.9870175" lon="-3.7533352"><ele>1260.0</ele><time>2026-03-07T08:56:04.017Z</time></trkpt><trkpt lat="36.986993" lon="-3.7535121"><ele>1260.25</ele><time>2026-03-07T08:56:05.014Z</time></trkpt><trkpt lat="36.986964" lon="-3.753691"><ele>1260.5</ele><time>2026-03-07T08:56:06.021Z</time></trkpt><trkpt lat="36.9869343" lon="-3.7538716"><ele>1260.75</ele><time>2026-03-07T08:56:07.009Z</time></trkpt><trkpt lat="36.9869072" lon="-3.7540541"><ele>1261.0</ele><time>2026-03-07T08:56:08.017Z</time></trkpt><trkpt lat="36.9868832" lon="-3.7542396"><ele>1261.0</ele><time>2026-03-07T08:56:09.023Z</time></trkpt><trkpt lat="36.9868618" lon="-3.7544236"><ele>1261.0</ele><time>2026-03-07T08:56:10.012Z</time></trkpt><trkpt lat="36.9868489" lon="-3.754602"><ele>1261.0</ele><time>2026-03-07T08:56:11.007Z</time></trkpt><trkpt lat="36.986838" lon="-3.754767"><ele>1261.0</ele><time>2026-03-07T08:56:12.007Z</time></trkpt><trkpt lat="36.9868306" lon="-3.7549344"><ele>1261.0</ele><time>2026-03-07T08:56:12.991Z</time></trkpt><trkpt lat="36.9868292" lon="-3.7550994"><ele>1261.0</ele><time>2026-03-07T08:56:14.004Z</time></trkpt><trkpt lat="36.9868278" lon="-3.7552595"><ele>1261.0</ele><time>2026-03-07T08:56:15.02Z</time></trkpt><trkpt lat="36.9868203" lon="-3.7554152"><ele>1261.0</ele><time>2026-03-07T08:56:16.058Z</time></trkpt><trkpt lat="36.9868084" lon="-3.7555662"><ele>1261.5</ele><time>2026-03-07T08:56:17.006Z</time></trkpt><trkpt lat="36.9867876" lon="-3.755708"><ele>1262.0</ele><time>2026-03-07T08:56:18Z</time></trkpt><trkpt lat="36.9867334" lon="-3.7558286"><ele>1262.5</ele><time>2026-03-07T08:56:19.002Z</time></trkpt><trkpt lat="36.986662" lon="-3.7559449"><ele>1263.0</ele><time>2026-03-07T08:56:20.008Z</time></trkpt><trkpt lat="36.9865594" lon="-3.7560456"><ele>1265.3333333333333</ele><time>2026-03-07T08:56:21.002Z</time></trkpt><trkpt lat="36.986439" lon="-3.7561459"><ele>1267.6666666666665</ele><time>2026-03-07T08:56:22.001Z</time></trkpt><trkpt lat="36.9863044" lon="-3.7562386"><ele>1270.0</ele><time>2026-03-07T08:56:23.007Z</time></trkpt><trkpt lat="36.9861645" lon="-3.7563281"><ele>1270.0</ele><time>2026-03-07T08:56:24.011Z</time></trkpt><trkpt lat="36.9860333" lon="-3.756407"><ele>1270.0</ele><time>2026-03-07T08:56:25.008Z</time></trkpt><trkpt lat="36.985922" lon="-3.7564853"><ele>1270.0</ele><time>2026-03-07T08:56:26.002Z</time></trkpt><trkpt lat="36.9858201" lon="-3.7565807"><ele>1270.0</ele><time>2026-03-07T08:56:27.016Z</time></trkpt><trkpt lat="36.9857332" lon="-3.756702"><ele>1271.0</ele><time>2026-03-07T08:56:28.002Z</time></trkpt><trkpt lat="36.9856469" lon="-3.7568322"><ele>1272.0</ele><time>2026-03-07T08:56:29.005Z</time></trkpt><trkpt lat="36.9855532" lon="-3.7569683"><ele>1273.0</ele><time>2026-03-07T08:56:30.011Z</time></trkpt><trkpt lat="36.9854565" lon="-3.7570947"><ele>1274.0</ele><time>2026-03-07T08:56:31.012Z</time></trkpt><trkpt lat="36.9853647" lon="-3.757209"><ele>1276.6</ele><time>2026-03-07T08:56:32.002Z</time></trkpt><trkpt lat="36.9852912" lon="-3.7573127"><ele>1279.2</ele><time>2026-03-07T08:56:33.01Z</time></trkpt><trkpt lat="36.985243" lon="-3.7574238"><ele>1281.8</ele><time>2026-03-07T08:56:34.01Z</time></trkpt><trkpt lat="36.9852245" lon="-3.7575484"><ele>1284.3999999999999</ele><time>2026-03-07T08:56:35.013Z</time></trkpt><trkpt lat="36.9852028" lon="-3.757662"><ele>1287.0</ele><time>2026-03-07T08:56:36.009Z</time></trkpt><trkpt lat="36.9851702" lon="-3.7577586"><ele>1287.8</ele><time>2026-03-07T08:56:36.998Z</time></trkpt><trkpt lat="36.9851169" lon="-3.7578367"><ele>1288.6</ele><time>2026-03-07T08:56:38.014Z</time></trkpt><trkpt lat="36.9850643" lon="-3.7579048"><ele>1289.3999999999999</ele><time>2026-03-07T08:56:39.009Z</time></trkpt><trkpt lat="36.98496" lon="-3.7579346"><ele>1290.1999999999998</ele><time>2026-03-07T08:56:40.013Z</time></trkpt><trkpt lat="36.9848375" lon="-3.7579281"><ele>1291.0</ele><time>2026-03-07T08:56:41.011Z</time></trkpt><trkpt lat="36.9847099" lon="-3.7579222"><ele>1291.0</ele><time>2026-03-07T08:56:42.015Z</time></trkpt><trkpt lat="36.9845745" lon="-3.757932"><ele>1291.0</ele><time>2026-03-07T08:56:43.009Z</time></trkpt><trkpt lat="36.984432" lon="-3.7579471"><ele>1291.0</ele><time>2026-03-07T08:56:44.016Z</time></trkpt><trkpt lat="36.9842879" lon="-3.7579635"><ele>1291.0</ele><time>2026-03-07T08:56:45.017Z</time></trkpt><trkpt lat="36.9841429" lon="-3.7579705"><ele>1291.5</ele><time>2026-03-07T08:56:46.004Z</time></trkpt><trkpt lat="36.9839987" lon="-3.7579793"><ele>1292.0</ele><time>2026-03-07T08:56:47.003Z</time></trkpt><trkpt lat="36.983854" lon="-3.7579835"><ele>1292.5</ele><time>2026-03-07T08:56:48.009Z</time></trkpt><trkpt lat="36.9837089" lon="-3.757987"><ele>1293.0</ele><time>2026-03-07T08:56:49.013Z</time></trkpt><trkpt lat="36.9835637" lon="-3.7579926"><ele>1293.0</ele><time>2026-03-07T08:56:50.004Z</time></trkpt><trkpt lat="36.9834215" lon="-3.7580076"><ele>1293.0</ele><time>2026-03-07T08:56:51.003Z</time></trkpt><trkpt lat="36.9832907" lon="-3.7580303"><ele>1293.0</ele><time>2026-03-07T08:56:52.013Z</time></trkpt><trkpt lat="36.983183" lon="-3.7580664"><ele>1293.0</ele><time>2026-03-07T08:56:53.007Z</time></trkpt><trkpt lat="36.9830843" lon="-3.7581266"><ele>1293.25</ele><time>2026-03-07T08:56:54.006Z</time></trkpt><trkpt lat="36.9830011" lon="-3.7582241"><ele>1293.5</ele><time>2026-03-07T08:56:55.016Z</time></trkpt><trkpt lat="36.9829454" lon="-3.7583565"><ele>1293.75</ele><time>2026-03-07T08:56:56.015Z</time></trkpt><trkpt lat="36.9829051" lon="-3.7585073"><ele>1294.0</ele><time>2026-03-07T08:56:57.007Z</time></trkpt><trkpt lat="36.9828721" lon="-3.7586549"><ele>1297.0</ele><time>2026-03-07T08:56:58.004Z</time></trkpt><trkpt lat="36.9828278" lon="-3.7587884"><ele>1300.0</ele><time>2026-03-07T08:56:59.02Z</time></trkpt><trkpt lat="36.9827554" lon="-3.7588957"><ele>1303.0</ele><time>2026-03-07T08:57:00Z</time></trkpt><trkpt lat="36.9826618" lon="-3.7589689"><ele>1306.0</ele><time>2026-03-07T08:57:00.998Z</time></trkpt><trkpt lat="36.9825545" lon="-3.7590123"><ele>1305.1999999999998</ele><time>2026-03-07T08:57:01.999Z</time></trkpt><trkpt lat="36.9824474" lon="-3.7590509"><ele>1304.3999999999999</ele><time>2026-03-07T08:57:03.005Z</time></trkpt><trkpt lat="36.9823367" lon="-3.7590799"><ele>1303.6</ele><time>2026-03-07T08:57:04.001Z</time></trkpt><trkpt lat="36.9822323" lon="-3.7590926"><ele>1302.8</ele><time>2026-03-07T08:57:05.012Z</time></trkpt><trkpt lat="36.9821348" lon="-3.7590785"><ele>1302.0</ele><time>2026-03-07T08:57:06.011Z</time></trkpt><trkpt lat="36.9820394" lon="-3.7590283"><ele>1302.0</ele><time>2026-03-07T08:57:07.003Z</time></trkpt><trkpt lat="36.9819495" lon="-3.7589451"><ele>1302.0</ele><time>2026-03-07T08:57:08.005Z</time></trkpt><trkpt lat="36.9818694" lon="-3.7588357"><ele>1302.0</ele><time>2026-03-07T08:57:09.015Z</time></trkpt><trkpt lat="36.9817974" lon="-3.7587123"><ele>1302.0</ele><time>2026-03-07T08:57:10.002Z</time></trkpt><trkpt lat="36.9817206" lon="-3.7585922"><ele>1304.0</ele><time>2026-03-07T08:57:11.017Z</time></trkpt><trkpt lat="36.9816456" lon="-3.7584736"><ele>1306.0</ele><time>2026-03-07T08:57:12.011Z</time></trkpt><trkpt lat="36.9815727" lon="-3.758359"><ele>1308.0</ele><time>2026-03-07T08:57:13.047Z</time></trkpt><trkpt lat="36.9815003" lon="-3.7582513"><ele>1310.0</ele><time>2026-03-07T08:57:14.033Z</time></trkpt><trkpt lat="36.9814245" lon="-3.7581508"><ele>1310.0</ele><time>2026-03-07T08:57:15.002Z</time></trkpt><trkpt lat="36.9813449" lon="-3.7580562"><ele>1310.0</ele><time>2026-03-07T08:57:16.036Z</time></trkpt><trkpt lat="36.981265" lon="-3.7579683"><ele>1310.0</ele><time>2026-03-07T08:57:17.006Z</time></trkpt><trkpt lat="36.9811833" lon="-3.757884"><ele>1310.0</ele><time>2026-03-07T08:57:18.007Z</time></trkpt><trkpt lat="36.9811045" lon="-3.7577989"><ele>1310.0</ele><time>2026-03-07T08:57:19.037Z</time></trkpt><trkpt lat="36.9810284" lon="-3.7577202"><ele>1310.6</ele><time>2026-03-07T08:57:20.001Z</time></trkpt><trkpt lat="36.9809542" lon="-3.7576448"><ele>1311.2</ele><time>2026-03-07T08:57:21.004Z</time></trkpt><trkpt lat="36.9808747" lon="-3.7575814"><ele>1311.8000000000002</ele><time>2026-03-07T08:57:22.002Z</time></trkpt><trkpt lat="36.9807961" lon="-3.7575137"><ele>1312.4</ele><time>2026-03-07T08:57:23.007Z</time></trkpt><trkpt lat="36.9807187" lon="-3.7574358"><ele>1313.0</ele><time>2026-03-07T08:57:24.01Z</time></trkpt><trkpt lat="36.9806686" lon="-3.7573277"><ele>1316.0</ele><time>2026-03-07T08:57:25.002Z</time></trkpt><trkpt lat="36.9806227" lon="-3.7572159"><ele>1319.0</ele><time>2026-03-07T08:57:26.004Z</time></trkpt><trkpt lat="36.9805719" lon="-3.7571112"><ele>1322.0</ele><time>2026-03-07T08:57:27.012Z</time></trkpt><trkpt lat="36.9805223" lon="-3.7570065"><ele>1325.0</ele><time>2026-03-07T08:57:28.014Z</time></trkpt><trkpt lat="36.9804713" lon="-3.7569062"><ele>1328.0</ele><time>2026-03-07T08:57:29.004Z</time></trkpt><trkpt lat="36.9804079" lon="-3.7568137"><ele>1328.2</ele><time>2026-03-07T08:57:30.027Z</time></trkpt><trkpt lat="36.980337" lon="-3.7567235"><ele>1328.4</ele><time>2026-03-07T08:57:31.003Z</time></trkpt><trkpt lat="36.9802613" lon="-3.7566344"><ele>1328.6000000000001</ele><time>2026-03-07T08:57:32.003Z</time></trkpt><trkpt lat="36.9801808" lon="-3.7565456"><ele>1328.8000000000002</ele><time>2026-03-07T08:57:33.016Z</time></trkpt><trkpt lat="36.9800985" lon="-3.7564554"><ele>1329.0</ele><time>2026-03-07T08:57:34.019Z</time></trkpt><trkpt lat="36.9800154" lon="-3.7563661"><ele>1331.0</ele><time>2026-03-07T08:57:35.007Z</time></trkpt><trkpt lat="36.9799326" lon="-3.7562826"><ele>1333.0</ele><time>2026-03-07T08:57:36.001Z</time></trkpt><trkpt lat="36.9798447" lon="-3.7562155"><ele>1335.0</ele><time>2026-03-07T08:57:36.997Z</time></trkpt><trkpt lat="36.9797446" lon="-3.7561626"><ele>1337.0</ele><time>2026-03-07T08:57:37.998Z</time></trkpt><trkpt lat="36.9796345" lon="-3.756116"><ele>1339.0</ele><time>2026-03-07T08:57:39.004Z</time></trkpt><trkpt lat="36.9795206" lon="-3.7560753"><ele>1335.75</ele><time>2026-03-07T08:57:40.017Z</time></trkpt><trkpt lat="36.9794105" lon="-3.7560173"><ele>1332.5</ele><time>2026-03-07T08:57:41.001Z</time></trkpt><trkpt lat="36.9792928" lon="-3.756004"><ele>1329.25</ele><time>2026-03-07T08:57:41.998Z</time></trkpt><trkpt lat="36.9791816" lon="-3.7560031"><ele>1326.0</ele><time>2026-03-07T08:57:42.995Z</time></trkpt><trkpt lat="36.9790703" lon="-3.7560167"><ele>1333.25</ele><time>2026-03-07T08:57:44.003Z</time></trkpt><trkpt lat="36.9789588" lon="-3.7560386"><ele>1340.5</ele><time>2026-03-07T08:57:45.003Z</time></trkpt><trkpt lat="36.9788419" lon="-3.7560741"><ele>1347.75</ele><time>2026-03-07T08:57:46.04Z</time></trkpt><trkpt lat="36.9787208" lon="-3.7561112"><ele>1355.0</ele><time>2026-03-07T08:57:47.004Z</time></trkpt><trkpt lat="36.9786049" lon="-3.756172"><ele>1355.0</ele><time>2026-03-07T08:57:48.001Z</time></trkpt><trkpt lat="36.9784924" lon="-3.7562216"><ele>1355.0</ele><time>2026-03-07T08:57:49.012Z</time></trkpt><trkpt lat="36.9783872" lon="-3.75626"><ele>1355.0</ele><time>2026-03-07T08:57:50.008Z</time></trkpt><trkpt lat="36.9782884" lon="-3.7562856"><ele>1355.0</ele><time>2026-03-07T08:57:51.006Z</time></trkpt><trkpt lat="36.9781945" lon="-3.7563119"><ele>1355.0</ele><time>2026-03-07T08:57:52.015Z</time></trkpt><trkpt lat="36.9781093" lon="-3.7563598"><ele>1350.4</ele><time>2026-03-07T08:57:53.009Z</time></trkpt><trkpt lat="36.9780396" lon="-3.7564327"><ele>1345.8</ele><time>2026-03-07T08:57:54.005Z</time></trkpt><trkpt lat="36.9779848" lon="-3.7565204"><ele>1341.1999999999998</ele><time>2026-03-07T08:57:55.064Z</time></trkpt><trkpt lat="36.9779477" lon="-3.756622"><ele>1336.6</ele><time>2026-03-07T08:57:56.015Z</time></trkpt><trkpt lat="36.9779403" lon="-3.7567321"><ele>1332.0</ele><time>2026-03-07T08:57:57.014Z</time></trkpt><trkpt lat="36.9779559" lon="-3.7568459"><ele>1332.0</ele><time>2026-03-07T08:57:57.997Z</time></trkpt><trkpt lat="36.9779653" lon="-3.7569565"><ele>1332.0</ele><time>2026-03-07T08:57:59.012Z</time></trkpt><trkpt lat="36.9779474" lon="-3.7570593"><ele>1332.0</ele><time>2026-03-07T08:58:00.019Z</time></trkpt><trkpt lat="36.9779006" lon="-3.757143"><ele>1332.0</ele><time>2026-03-07T08:58:01.003Z</time></trkpt><trkpt lat="36.9778347" lon="-3.757218"><ele>1332.0</ele><time>2026-03-07T08:58:01.996Z</time></trkpt><trkpt lat="36.9777518" lon="-3.7572807"><ele>1332.0</ele><time>2026-03-07T08:58:03.017Z</time></trkpt><trkpt lat="36.9776783" lon="-3.7573607"><ele>1332.0</ele><time>2026-03-07T08:58:04.013Z</time></trkpt><trkpt lat="36.9776134" lon="-3.7574515"><ele>1332.0</ele><time>2026-03-07T08:58:05.007Z</time></trkpt><trkpt lat="36.9775599" lon="-3.7575489"><ele>1332.0</ele><time>2026-03-07T08:58:06.011Z</time></trkpt><trkpt lat="36.9775208" lon="-3.7576626"><ele>1332.0</ele><time>2026-03-07T08:58:07.012Z</time></trkpt><trkpt lat="36.9775087" lon="-3.7577881"><ele>1332.0</ele><time>2026-03-07T08:58:08.006Z</time></trkpt><trkpt lat="36.9775213" lon="-3.7579259"><ele>1330.25</ele><time>2026-03-07T08:58:09.016Z</time></trkpt><trkpt lat="36.9775386" lon="-3.7580811"><ele>1328.5</ele><time>2026-03-07T08:58:10.002Z</time></trkpt><trkpt lat="36.9775818" lon="-3.7582314"><ele>1326.75</ele><time>2026-03-07T08:58:11.003Z</time></trkpt><trkpt lat="36.9776086" lon="-3.7583875"><ele>1325.0</ele><time>2026-03-07T08:58:11.998Z</time></trkpt><trkpt lat="36.9776529" lon="-3.7585365"><ele>1324.25</ele><time>2026-03-07T08:58:13.022Z</time></trkpt><trkpt lat="36.9776827" lon="-3.75869"><ele>1323.5</ele><time>2026-03-07T08:58:14.022Z</time></trkpt><trkpt lat="36.9776845" lon="-3.7588463"><ele>1322.75</ele><time>2026-03-07T08:58:15.011Z</time></trkpt><trkpt lat="36.9776679" lon="-3.7590051"><ele>1322.0</ele><time>2026-03-07T08:58:16.013Z</time></trkpt><trkpt lat="36.9776633" lon="-3.7591675"><ele>1322.0</ele><time>2026-03-07T08:58:17.009Z</time></trkpt><trkpt lat="36.9776538" lon="-3.7593286"><ele>1322.0</ele><time>2026-03-07T08:58:18.006Z</time></trkpt><trkpt lat="36.977646" lon="-3.7594876"><ele>1322.0</ele><time>2026-03-07T08:58:19.005Z</time></trkpt><trkpt lat="36.9776359" lon="-3.7596431"><ele>1322.0</ele><time>2026-03-07T08:58:20.007Z</time></trkpt><trkpt lat="36.9776499" lon="-3.7597911"><ele>1320.8</ele><time>2026-03-07T08:58:21.003Z</time></trkpt><trkpt lat="36.9776628" lon="-3.7599336"><ele>1319.6</ele><time>2026-03-07T08:58:22.001Z</time></trkpt><trkpt lat="36.9776686" lon="-3.7600695"><ele>1318.3999999999999</ele><time>2026-03-07T08:58:23.006Z</time></trkpt><trkpt lat="36.9776559" lon="-3.7601936"><ele>1317.1999999999998</ele><time>2026-03-07T08:58:24.009Z</time></trkpt><trkpt lat="36.9776177" lon="-3.7603046"><ele>1316.0</ele><time>2026-03-07T08:58:25.006Z</time></trkpt><trkpt lat="36.9775786" lon="-3.7604022"><ele>1314.3333333333335</ele><time>2026-03-07T08:58:26.008Z</time></trkpt><trkpt lat="36.9775381" lon="-3.7604857"><ele>1312.6666666666667</ele><time>2026-03-07T08:58:27.006Z</time></trkpt><trkpt lat="36.977492" lon="-3.7605547"><ele>1311.0</ele><time>2026-03-07T08:58:28.001Z</time></trkpt><trkpt lat="36.9774322" lon="-3.7606021"><ele>1309.3333333333333</ele><time>2026-03-07T08:58:29.016Z</time></trkpt><trkpt lat="36.9773677" lon="-3.7606472"><ele>1307.6666666666665</ele><time>2026-03-07T08:58:30.008Z</time></trkpt><trkpt lat="36.9773016" lon="-3.7606971"><ele>1306.0</ele><time>2026-03-07T08:58:31.009Z</time></trkpt><trkpt lat="36.9772328" lon="-3.760754"><ele>1303.3333333333333</ele><time>2026-03-07T08:58:32.006Z</time></trkpt><trkpt lat="36.977161" lon="-3.760816"><ele>1300.6666666666665</ele><time>2026-03-07T08:58:33.027Z</time></trkpt><trkpt lat="36.9770945" lon="-3.7608765"><ele>1298.0</ele><time>2026-03-07T08:58:34.005Z</time></trkpt><trkpt lat="36.9770298" lon="-3.7609326"><ele>1295.3333333333333</ele><time>2026-03-07T08:58:35.006Z</time></trkpt><trkpt lat="36.976977" lon="-3.7609859"><ele>1292.6666666666667</ele><time>2026-03-07T08:58:36.014Z</time></trkpt><trkpt lat="36.9769215" lon="-3.7611117"><ele>1290.0</ele><time>2026-03-07T08:58:38.013Z</time></trkpt><trkpt lat="36.9769536" lon="-3.7612141"><ele>1288.2</ele><time>2026-03-07T08:58:40.005Z</time></trkpt><trkpt lat="36.9770655" lon="-3.7612573"><ele>1286.4</ele><time>2026-03-07T08:58:42.01Z</time></trkpt><trkpt lat="36.9771448" lon="-3.761255"><ele>1284.6</ele><time>2026-03-07T08:58:43.01Z</time></trkpt><trkpt lat="36.9772238" lon="-3.7612549"><ele>1282.8</ele><time>2026-03-07T08:58:44.011Z</time></trkpt><trkpt lat="36.9773326" lon="-3.7612694"><ele>1281.0</ele><time>2026-03-07T08:58:46.012Z</time></trkpt><trkpt lat="36.9774283" lon="-3.7613802"><ele>1281.0</ele><time>2026-03-07T08:58:48.008Z</time></trkpt><trkpt lat="36.9774753" lon="-3.7614802"><ele>1281.0</ele><time>2026-03-07T08:58:49.009Z</time></trkpt><trkpt lat="36.977504" lon="-3.7616055"><ele>1281.0</ele><time>2026-03-07T08:58:50.01Z</time></trkpt><trkpt lat="36.9775046" lon="-3.761727"><ele>1281.0</ele><time>2026-03-07T08:58:51.009Z</time></trkpt><trkpt lat="36.977499" lon="-3.7618511"><ele>1281.0</ele><time>2026-03-07T08:58:52.009Z</time></trkpt><trkpt lat="36.9774846" lon="-3.7619621"><ele>1280.1666666666667</ele><time>2026-03-07T08:58:53.008Z</time></trkpt><trkpt lat="36.977458" lon="-3.7620687"><ele>1279.3333333333333</ele><time>2026-03-07T08:58:54.021Z</time></trkpt><trkpt lat="36.9774343" lon="-3.7621757"><ele>1278.5</ele><time>2026-03-07T08:58:55.024Z</time></trkpt><trkpt lat="36.9774077" lon="-3.7622846"><ele>1277.6666666666665</ele><time>2026-03-07T08:58:56.005Z</time></trkpt><trkpt lat="36.977385" lon="-3.7623782"><ele>1276.8333333333333</ele><time>2026-03-07T08:58:57.01Z</time></trkpt><trkpt lat="36.977362" lon="-3.7624528"><ele>1276.0</ele><time>2026-03-07T08:58:58.022Z</time></trkpt><trkpt lat="36.9773038" lon="-3.7625779"><ele>1276.0</ele><time>2026-03-07T08:59:00.015Z</time></trkpt><trkpt lat="36.9772298" lon="-3.7626419"><ele>1276.0</ele><time>2026-03-07T08:59:03.061Z</time></trkpt><trkpt lat="36.9771466" lon="-3.7626203"><ele>1276.0</ele><time>2026-03-07T08:59:05.01Z</time></trkpt><trkpt lat="36.9770628" lon="-3.7625369"><ele>1276.0</ele><time>2026-03-07T08:59:07.016Z</time></trkpt><trkpt lat="36.9769966" lon="-3.7624291"><ele>1276.0</ele><time>2026-03-07T08:59:09.007Z</time></trkpt><trkpt lat="36.976939" lon="-3.7623746"><ele>1276.0</ele><time>2026-03-07T08:59:10.014Z</time></trkpt><trkpt lat="36.976872" lon="-3.7623433"><ele>1276.0</ele><time>2026-03-07T08:59:11.009Z</time></trkpt><trkpt lat="36.9767415" lon="-3.7623298"><ele>1276.0</ele><time>2026-03-07T08:59:13.027Z</time></trkpt><trkpt lat="36.9766643" lon="-3.7623722"><ele>1276.0</ele><time>2026-03-07T08:59:14.012Z</time></trkpt><trkpt lat="36.9766007" lon="-3.7624236"><ele>1276.0</ele><time>2026-03-07T08:59:15.001Z</time></trkpt><trkpt lat="36.9765004" lon="-3.7625142"><ele>1275.3333333333333</ele><time>2026-03-07T08:59:17.014Z</time></trkpt><trkpt lat="36.9764389" lon="-3.7625605"><ele>1274.6666666666665</ele><time>2026-03-07T08:59:18.015Z</time></trkpt><trkpt lat="36.9763735" lon="-3.7626109"><ele>1274.0</ele><time>2026-03-07T08:59:19.01Z</time></trkpt><trkpt lat="36.976312" lon="-3.7626722"><ele>1273.3333333333333</ele><time>2026-03-07T08:59:20.005Z</time></trkpt><trkpt lat="36.976248" lon="-3.7627288"><ele>1272.6666666666667</ele><time>2026-03-07T08:59:21.009Z</time></trkpt><trkpt lat="36.9761461" lon="-3.7628095"><ele>1272.0</ele><time>2026-03-07T08:59:23.012Z</time></trkpt><trkpt lat="36.9760504" lon="-3.7627938"><ele>1272.0</ele><time>2026-03-07T08:59:25.011Z</time></trkpt><trkpt lat="36.9759502" lon="-3.7627296"><ele>1272.0</ele><time>2026-03-07T08:59:26.996Z</time></trkpt><trkpt lat="36.9758897" lon="-3.7626814"><ele>1272.0</ele><time>2026-03-07T08:59:28.015Z</time></trkpt><trkpt lat="36.975832" lon="-3.7626191"><ele>1272.0</ele><time>2026-03-07T08:59:29.009Z</time></trkpt><trkpt lat="36.9757715" lon="-3.7625464"><ele>1272.0</ele><time>2026-03-07T08:59:30.001Z</time></trkpt><trkpt lat="36.9757071" lon="-3.7625089"><ele>1272.0</ele><time>2026-03-07T08:59:31.014Z</time></trkpt><trkpt lat="36.9756417" lon="-3.7624922"><ele>1271.1666666666667</ele><time>2026-03-07T08:59:32.001Z</time></trkpt><trkpt lat="36.9755734" lon="-3.7625145"><ele>1270.3333333333333</ele><time>2026-03-07T08:59:33.01Z</time></trkpt><trkpt lat="36.9755122" lon="-3.7625638"><ele>1269.5</ele><time>2026-03-07T08:59:34.013Z</time></trkpt><trkpt lat="36.9754665" lon="-3.7626189"><ele>1268.6666666666665</ele><time>2026-03-07T08:59:35.006Z</time></trkpt><trkpt lat="36.9754235" lon="-3.7627379"><ele>1267.8333333333333</ele><time>2026-03-07T08:59:37.005Z</time></trkpt><trkpt lat="36.9753936" lon="-3.7628078"><ele>1267.0</ele><time>2026-03-07T08:59:38.001Z</time></trkpt><trkpt lat="36.9753191" lon="-3.7629317"><ele>1266.0</ele><time>2026-03-07T08:59:40.012Z</time></trkpt><trkpt lat="36.9752802" lon="-3.7630079"><ele>1265.0</ele><time>2026-03-07T08:59:41.012Z</time></trkpt><trkpt lat="36.9752444" lon="-3.7630829"><ele>1264.0</ele><time>2026-03-07T08:59:42.017Z</time></trkpt><trkpt lat="36.9752102" lon="-3.7631545"><ele>1263.0</ele><time>2026-03-07T08:59:43.017Z</time></trkpt><trkpt lat="36.9751899" lon="-3.7632333"><ele>1262.0</ele><time>2026-03-07T08:59:44.004Z</time></trkpt><trkpt lat="36.9751903" lon="-3.7633185"><ele>1261.0</ele><time>2026-03-07T08:59:45.005Z</time></trkpt><trkpt lat="36.9751967" lon="-3.7634001"><ele>1260.0</ele><time>2026-03-07T08:59:46.014Z</time></trkpt><trkpt lat="36.9752067" lon="-3.7634813"><ele>1258.4</ele><time>2026-03-07T08:59:47.003Z</time></trkpt><trkpt lat="36.9752321" lon="-3.7635635"><ele>1256.8</ele><time>2026-03-07T08:59:48.005Z</time></trkpt><trkpt lat="36.9752636" lon="-3.7636479"><ele>1255.2</ele><time>2026-03-07T08:59:49.003Z</time></trkpt><trkpt lat="36.9752962" lon="-3.763727"><ele>1253.6</ele><time>2026-03-07T08:59:50.031Z</time></trkpt><trkpt lat="36.9753992" lon="-3.7637995"><ele>1252.0</ele><time>2026-03-07T08:59:52.02Z</time></trkpt><trkpt lat="36.9755151" lon="-3.76384"><ele>1252.0</ele><time>2026-03-07T08:59:53.998Z</time></trkpt><trkpt lat="36.9755749" lon="-3.7639489"><ele>1252.0</ele><time>2026-03-07T08:59:56.006Z</time></trkpt><trkpt lat="36.9755489" lon="-3.7640765"><ele>1252.0</ele><time>2026-03-07T08:59:58.003Z</time></trkpt><trkpt lat="36.9754998" lon="-3.7641447"><ele>1252.0</ele><time>2026-03-07T08:59:59.013Z</time></trkpt><trkpt lat="36.9754474" lon="-3.7642253"><ele>1252.0</ele><time>2026-03-07T09:00:00.003Z</time></trkpt><trkpt lat="36.9754056" lon="-3.7643283"><ele>1250.6666666666665</ele><time>2026-03-07T09:00:01.004Z</time></trkpt><trkpt lat="36.9753729" lon="-3.7644244"><ele>1249.3333333333333</ele><time>2026-03-07T09:00:02.003Z</time></trkpt><trkpt lat="36.9753375" lon="-3.764531"><ele>1248.0</ele><time>2026-03-07T09:00:03.003Z</time></trkpt><trkpt lat="36.9753074" lon="-3.7646207"><ele>1246.6666666666667</ele><time>2026-03-07T09:00:04.003Z</time></trkpt><trkpt lat="36.9752811" lon="-3.7646979"><ele>1245.3333333333335</ele><time>2026-03-07T09:00:05.006Z</time></trkpt><trkpt lat="36.9752494" lon="-3.7647665"><ele>1244.0</ele><time>2026-03-07T09:00:06.005Z</time></trkpt><trkpt lat="36.9752165" lon="-3.7648595"><ele>1244.0</ele><time>2026-03-07T09:00:07.008Z</time></trkpt><trkpt lat="36.9751766" lon="-3.7649245"><ele>1244.0</ele><time>2026-03-07T09:00:08.01Z</time></trkpt><trkpt lat="36.9751251" lon="-3.764982"><ele>1244.0</ele><time>2026-03-07T09:00:09Z</time></trkpt><trkpt lat="36.9750632" lon="-3.7650093"><ele>1244.0</ele><time>2026-03-07T09:00:10.008Z</time></trkpt><trkpt lat="36.9749936" lon="-3.7650117"><ele>1244.0</ele><time>2026-03-07T09:00:11Z</time></trkpt><trkpt lat="36.9749201" lon="-3.7650034"><ele>1244.0</ele><time>2026-03-07T09:00:12.033Z</time></trkpt><trkpt lat="36.9748451" lon="-3.7649895"><ele>1244.0</ele><time>2026-03-07T09:00:13.006Z</time></trkpt><trkpt lat="36.9747734" lon="-3.764995"><ele>1244.0</ele><time>2026-03-07T09:00:14.014Z</time></trkpt><trkpt lat="36.9746924" lon="-3.7650239"><ele>1244.0</ele><time>2026-03-07T09:00:15.006Z</time></trkpt><trkpt lat="36.9746185" lon="-3.7650689"><ele>1244.0</ele><time>2026-03-07T09:00:16.002Z</time></trkpt><trkpt lat="36.9745472" lon="-3.7651164"><ele>1244.0</ele><time>2026-03-07T09:00:17.001Z</time></trkpt><trkpt lat="36.9744659" lon="-3.7651294"><ele>1244.0</ele><time>2026-03-07T09:00:18.009Z</time></trkpt><trkpt lat="36.9743877" lon="-3.7651315"><ele>1244.0</ele><time>2026-03-07T09:00:19.005Z</time></trkpt><trkpt lat="36.9743194" lon="-3.7651448"><ele>1244.0</ele><time>2026-03-07T09:00:20.004Z</time></trkpt><trkpt lat="36.974256" lon="-3.7651597"><ele>1244.0</ele><time>2026-03-07T09:00:21.001Z</time></trkpt><trkpt lat="36.9741473" lon="-3.7651478"><ele>1244.0</ele><time>2026-03-07T09:00:23.016Z</time></trkpt><trkpt lat="36.9740507" lon="-3.7650514"><ele>1244.0</ele><time>2026-03-07T09:00:25.012Z</time></trkpt><trkpt lat="36.9739873" lon="-3.7649923"><ele>1244.0</ele><time>2026-03-07T09:00:26.014Z</time></trkpt><trkpt lat="36.9739207" lon="-3.7649492"><ele>1243.0</ele><time>2026-03-07T09:00:26.994Z</time></trkpt><trkpt lat="36.9738502" lon="-3.7649195"><ele>1242.0</ele><time>2026-03-07T09:00:28.008Z</time></trkpt><trkpt lat="36.9737917" lon="-3.7648852"><ele>1241.0</ele><time>2026-03-07T09:00:29.013Z</time></trkpt><trkpt lat="36.9736855" lon="-3.7648328"><ele>1240.0</ele><time>2026-03-07T09:00:31.005Z</time></trkpt><trkpt lat="36.9736215" lon="-3.7648032"><ele>1239.0</ele><time>2026-03-07T09:00:31.998Z</time></trkpt><trkpt lat="36.9735185" lon="-3.7647402"><ele>1238.0</ele><time>2026-03-07T09:00:34.003Z</time></trkpt><trkpt lat="36.9734652" lon="-3.7646076"><ele>1238.0</ele><time>2026-03-07T09:00:36.005Z</time></trkpt><trkpt lat="36.9734483" lon="-3.7644685"><ele>1238.0</ele><time>2026-03-07T09:00:38.017Z</time></trkpt><trkpt lat="36.9734862" lon="-3.7643318"><ele>1238.0</ele><time>2026-03-07T09:00:40.002Z</time></trkpt><trkpt lat="36.9735218" lon="-3.7642431"><ele>1238.0</ele><time>2026-03-07T09:00:41.01Z</time></trkpt><trkpt lat="36.9735561" lon="-3.764156"><ele>1238.0</ele><time>2026-03-07T09:00:42.014Z</time></trkpt><trkpt lat="36.9735866" lon="-3.7640693"><ele>1239.8333333333335</ele><time>2026-03-07T09:00:43Z</time></trkpt><trkpt lat="36.973617" lon="-3.7639813"><ele>1241.6666666666667</ele><time>2026-03-07T09:00:43.998Z</time></trkpt><trkpt lat="36.9736493" lon="-3.7638892"><ele>1243.5</ele><time>2026-03-07T09:00:45.011Z</time></trkpt><trkpt lat="36.9736803" lon="-3.7637974"><ele>1245.3333333333333</ele><time>2026-03-07T09:00:46.004Z</time></trkpt><trkpt lat="36.9737124" lon="-3.7637043"><ele>1247.1666666666665</ele><time>2026-03-07T09:00:47.015Z</time></trkpt><trkpt lat="36.9737495" lon="-3.7636194"><ele>1249.0</ele><time>2026-03-07T09:00:48.013Z</time></trkpt><trkpt lat="36.9737755" lon="-3.763538"><ele>1248.4</ele><time>2026-03-07T09:00:49.016Z</time></trkpt><trkpt lat="36.9737992" lon="-3.763405"><ele>1247.8000000000002</ele><time>2026-03-07T09:00:51.011Z</time></trkpt><trkpt lat="36.9737712" lon="-3.7632913"><ele>1247.1999999999998</ele><time>2026-03-07T09:00:52.998Z</time></trkpt><trkpt lat="36.9736457" lon="-3.7632989"><ele>1246.6</ele><time>2026-03-07T09:00:55.014Z</time></trkpt><trkpt lat="36.973588" lon="-3.7633651"><ele>1246.0</ele><time>2026-03-07T09:00:56.015Z</time></trkpt><trkpt lat="36.9735416" lon="-3.7634575"><ele>1246.5</ele><time>2026-03-07T09:00:56.998Z</time></trkpt><trkpt lat="36.9735032" lon="-3.7635569"><ele>1247.0</ele><time>2026-03-07T09:00:58.015Z</time></trkpt><trkpt lat="36.9734659" lon="-3.7636562"><ele>1247.5</ele><time>2026-03-07T09:00:59.01Z</time></trkpt><trkpt lat="36.9734255" lon="-3.7637487"><ele>1248.0</ele><time>2026-03-07T09:01:00.043Z</time></trkpt><trkpt lat="36.9733762" lon="-3.7638398"><ele>1248.5</ele><time>2026-03-07T09:01:01.01Z</time></trkpt><trkpt lat="36.973338" lon="-3.7639329"><ele>1249.0</ele><time>2026-03-07T09:01:02.012Z</time></trkpt><trkpt lat="36.9732925" lon="-3.7640186"><ele>1246.4285714285713</ele><time>2026-03-07T09:01:02.999Z</time></trkpt><trkpt lat="36.973258" lon="-3.7640904"><ele>1243.857142857143</ele><time>2026-03-07T09:01:04.001Z</time></trkpt><trkpt lat="36.9732106" lon="-3.7641428"><ele>1241.2857142857142</ele><time>2026-03-07T09:01:05.014Z</time></trkpt><trkpt lat="36.9731631" lon="-3.7641974"><ele>1238.7142857142858</ele><time>2026-03-07T09:01:06.014Z</time></trkpt><trkpt lat="36.9731195" lon="-3.76426"><ele>1236.142857142857</ele><time>2026-03-07T09:01:07.019Z</time></trkpt><trkpt lat="36.9730736" lon="-3.7643152"><ele>1233.5714285714284</ele><time>2026-03-07T09:01:08.007Z</time></trkpt><trkpt lat="36.9730039" lon="-3.7644269"><ele>1231.0</ele><time>2026-03-07T09:01:09.994Z</time></trkpt><trkpt lat="36.9729489" lon="-3.7645379"><ele>1230.25</ele><time>2026-03-07T09:01:12.009Z</time></trkpt><trkpt lat="36.972879" lon="-3.7646632"><ele>1229.5</ele><time>2026-03-07T09:01:14.016Z</time></trkpt><trkpt lat="36.9728293" lon="-3.7647966"><ele>1228.75</ele><time>2026-03-07T09:01:16.013Z</time></trkpt><trkpt lat="36.9728003" lon="-3.7649431"><ele>1228.0</ele><time>2026-03-07T09:01:18.015Z</time></trkpt><trkpt lat="36.9727803" lon="-3.765059"><ele>1228.0</ele><time>2026-03-07T09:01:20.004Z</time></trkpt><trkpt lat="36.9727277" lon="-3.7651308"><ele>1228.0</ele><time>2026-03-07T09:01:23.014Z</time></trkpt><trkpt lat="36.9726412" lon="-3.7651889"><ele>1228.0</ele><time>2026-03-07T09:01:36.023Z</time></trkpt><trkpt lat="36.9725578" lon="-3.765298"><ele>1228.0</ele><time>2026-03-07T09:01:38.04Z</time></trkpt><trkpt lat="36.9725056" lon="-3.7653551"><ele>1228.0</ele><time>2026-03-07T09:01:39.015Z</time></trkpt><trkpt lat="36.972448" lon="-3.7654185"><ele>1228.0</ele><time>2026-03-07T09:01:39.999Z</time></trkpt><trkpt lat="36.9723951" lon="-3.7654803"><ele>1224.8</ele><time>2026-03-07T09:01:41.011Z</time></trkpt><trkpt lat="36.9723438" lon="-3.7655305"><ele>1221.6</ele><time>2026-03-07T09:01:42.017Z</time></trkpt><trkpt lat="36.9722781" lon="-3.7656137"><ele>1218.4</ele><time>2026-03-07T09:01:44.01Z</time></trkpt><trkpt lat="36.972258" lon="-3.765719"><ele>1215.2</ele><time>2026-03-07T09:01:46.014Z</time></trkpt><trkpt lat="36.9722768" lon="-3.7658421"><ele>1212.0</ele><time>2026-03-07T09:01:48.011Z</time></trkpt><trkpt lat="36.9723004" lon="-3.7659869"><ele>1210.6666666666667</ele><time>2026-03-07T09:01:50.004Z</time></trkpt><trkpt lat="36.9723116" lon="-3.7660763"><ele>1209.3333333333333</ele><time>2026-03-07T09:01:51.005Z</time></trkpt><trkpt lat="36.9723108" lon="-3.7661709"><ele>1208.0</ele><time>2026-03-07T09:01:52.004Z</time></trkpt><trkpt lat="36.9722921" lon="-3.7662897"><ele>1206.6666666666665</ele><time>2026-03-07T09:01:53.013Z</time></trkpt><trkpt lat="36.9722547" lon="-3.7663977"><ele>1205.3333333333333</ele><time>2026-03-07T09:01:54.001Z</time></trkpt><trkpt lat="36.9722046" lon="-3.7664934"><ele>1204.0</ele><time>2026-03-07T09:01:55.008Z</time></trkpt><trkpt lat="36.9721382" lon="-3.7665692"><ele>1204.0</ele><time>2026-03-07T09:01:56.005Z</time></trkpt><trkpt lat="36.9720854" lon="-3.7666567"><ele>1204.0</ele><time>2026-03-07T09:01:56.99Z</time></trkpt><trkpt lat="36.9720353" lon="-3.7667387"><ele>1204.0</ele><time>2026-03-07T09:01:58.026Z</time></trkpt><trkpt lat="36.9719849" lon="-3.7668116"><ele>1204.0</ele><time>2026-03-07T09:01:59.016Z</time></trkpt><trkpt lat="36.9719273" lon="-3.7668756"><ele>1204.0</ele><time>2026-03-07T09:02:00.066Z</time></trkpt><trkpt lat="36.9718618" lon="-3.7669214"><ele>1204.0</ele><time>2026-03-07T09:02:01.019Z</time></trkpt><trkpt lat="36.9718058" lon="-3.7669787"><ele>1203.0</ele><time>2026-03-07T09:02:02.006Z</time></trkpt><trkpt lat="36.9717428" lon="-3.7670293"><ele>1202.0</ele><time>2026-03-07T09:02:03.016Z</time></trkpt><trkpt lat="36.9716839" lon="-3.7670878"><ele>1201.0</ele><time>2026-03-07T09:02:04.012Z</time></trkpt><trkpt lat="36.9716193" lon="-3.7671206"><ele>1200.0</ele><time>2026-03-07T09:02:05.014Z</time></trkpt><trkpt lat="36.9715571" lon="-3.7671362"><ele>1199.0</ele><time>2026-03-07T09:02:06.003Z</time></trkpt><trkpt lat="36.9714378" lon="-3.7671091"><ele>1198.0</ele><time>2026-03-07T09:02:08.005Z</time></trkpt><trkpt lat="36.9713196" lon="-3.767091"><ele>1198.0</ele><time>2026-03-07T09:02:10.016Z</time></trkpt><trkpt lat="36.9712216" lon="-3.7671634"><ele>1198.0</ele><time>2026-03-07T09:02:12.005Z</time></trkpt><trkpt lat="36.9711817" lon="-3.7672341"><ele>1198.0</ele><time>2026-03-07T09:02:13.008Z</time></trkpt><trkpt lat="36.9711379" lon="-3.7673187"><ele>1198.0</ele><time>2026-03-07T09:02:14.012Z</time></trkpt><trkpt lat="36.971107" lon="-3.7673927"><ele>1198.0</ele><time>2026-03-07T09:02:15.008Z</time></trkpt><trkpt lat="36.9710802" lon="-3.7674671"><ele>1198.0</ele><time>2026-03-07T09:02:16.016Z</time></trkpt><trkpt lat="36.9710539" lon="-3.7675473"><ele>1198.0</ele><time>2026-03-07T09:02:17.009Z</time></trkpt><trkpt lat="36.9710273" lon="-3.7676379"><ele>1198.0</ele><time>2026-03-07T09:02:18.013Z</time></trkpt><trkpt lat="36.9710021" lon="-3.7677457"><ele>1198.0</ele><time>2026-03-07T09:02:19.007Z</time></trkpt><trkpt lat="36.9709911" lon="-3.7678583"><ele>1198.0</ele><time>2026-03-07T09:02:20.016Z</time></trkpt><trkpt lat="36.970977" lon="-3.7679719"><ele>1198.0</ele><time>2026-03-07T09:02:21.026Z</time></trkpt><trkpt lat="36.9709661" lon="-3.7680831"><ele>1198.0</ele><time>2026-03-07T09:02:22.02Z</time></trkpt><trkpt lat="36.9709509" lon="-3.7681947"><ele>1196.3333333333333</ele><time>2026-03-07T09:02:23.018Z</time></trkpt><trkpt lat="36.9709431" lon="-3.7683045"><ele>1194.6666666666665</ele><time>2026-03-07T09:02:24.01Z</time></trkpt><trkpt lat="36.970943" lon="-3.7684099"><ele>1193.0</ele><time>2026-03-07T09:02:25.011Z</time></trkpt><trkpt lat="36.9709359" lon="-3.7685109"><ele>1191.3333333333333</ele><time>2026-03-07T09:02:26.004Z</time></trkpt><trkpt lat="36.9709437" lon="-3.7686071"><ele>1189.6666666666667</ele><time>2026-03-07T09:02:27.013Z</time></trkpt><trkpt lat="36.970965" lon="-3.7687012"><ele>1188.0</ele><time>2026-03-07T09:02:28.006Z</time></trkpt><trkpt lat="36.9710052" lon="-3.7687962"><ele>1186.6666666666667</ele><time>2026-03-07T09:02:29.009Z</time></trkpt><trkpt lat="36.9710542" lon="-3.7688894"><ele>1185.3333333333333</ele><time>2026-03-07T09:02:30.014Z</time></trkpt><trkpt lat="36.9711125" lon="-3.7689686"><ele>1184.0</ele><time>2026-03-07T09:02:31.009Z</time></trkpt><trkpt lat="36.9711791" lon="-3.769027"><ele>1182.6666666666665</ele><time>2026-03-07T09:02:31.999Z</time></trkpt><trkpt lat="36.9712372" lon="-3.7690895"><ele>1181.3333333333333</ele><time>2026-03-07T09:02:33.014Z</time></trkpt><trkpt lat="36.9713015" lon="-3.7691478"><ele>1180.0</ele><time>2026-03-07T09:02:34.005Z</time></trkpt><trkpt lat="36.9713591" lon="-3.7692156"><ele>1180.0</ele><time>2026-03-07T09:02:34.998Z</time></trkpt><trkpt lat="36.9714092" lon="-3.7692962"><ele>1180.0</ele><time>2026-03-07T09:02:36.008Z</time></trkpt><trkpt lat="36.9714621" lon="-3.7693743"><ele>1180.0</ele><time>2026-03-07T09:02:37Z</time></trkpt><trkpt lat="36.9715131" lon="-3.7694529"><ele>1180.0</ele><time>2026-03-07T09:02:38.008Z</time></trkpt><trkpt lat="36.9715587" lon="-3.769531"><ele>1180.0</ele><time>2026-03-07T09:02:39.01Z</time></trkpt><trkpt lat="36.9715986" lon="-3.7696156"><ele>1180.0</ele><time>2026-03-07T09:02:40Z</time></trkpt><trkpt lat="36.9716319" lon="-3.7697032"><ele>1178.857142857143</ele><time>2026-03-07T09:02:41.012Z</time></trkpt><trkpt lat="36.9716686" lon="-3.7697814"><ele>1177.7142857142858</ele><time>2026-03-07T09:02:42.007Z</time></trkpt><trkpt lat="36.9717161" lon="-3.7698408"><ele>1176.5714285714284</ele><time>2026-03-07T09:02:42.997Z</time></trkpt><trkpt lat="36.9717742" lon="-3.769887"><ele>1175.4285714285716</ele><time>2026-03-07T09:02:44.005Z</time></trkpt><trkpt lat="36.9718227" lon="-3.7699393"><ele>1174.2857142857142</ele><time>2026-03-07T09:02:45.017Z</time></trkpt><trkpt lat="36.971896" lon="-3.7700436"><ele>1173.142857142857</ele><time>2026-03-07T09:02:47.014Z</time></trkpt><trkpt lat="36.971929" lon="-3.7701124"><ele>1172.0</ele><time>2026-03-07T09:02:48.001Z</time></trkpt><trkpt lat="36.9719648" lon="-3.7701813"><ele>1170.3333333333335</ele><time>2026-03-07T09:02:49.015Z</time></trkpt><trkpt lat="36.9720046" lon="-3.7702522"><ele>1168.6666666666667</ele><time>2026-03-07T09:02:50.013Z</time></trkpt><trkpt lat="36.9720498" lon="-3.7703293"><ele>1167.0</ele><time>2026-03-07T09:02:51.006Z</time></trkpt><trkpt lat="36.97209" lon="-3.7704085"><ele>1165.3333333333333</ele><time>2026-03-07T09:02:52.007Z</time></trkpt><trkpt lat="36.9721459" lon="-3.770488"><ele>1163.6666666666665</ele><time>2026-03-07T09:02:53.024Z</time></trkpt><trkpt lat="36.9721916" lon="-3.7705772"><ele>1162.0</ele><time>2026-03-07T09:02:54.024Z</time></trkpt><trkpt lat="36.9722251" lon="-3.7706682"><ele>1162.0</ele><time>2026-03-07T09:02:55.003Z</time></trkpt><trkpt lat="36.97226" lon="-3.7707595"><ele>1162.0</ele><time>2026-03-07T09:02:56.007Z</time></trkpt><trkpt lat="36.9722913" lon="-3.7708548"><ele>1162.0</ele><time>2026-03-07T09:02:57.015Z</time></trkpt><trkpt lat="36.9723183" lon="-3.7709573"><ele>1162.0</ele><time>2026-03-07T09:02:58.009Z</time></trkpt><trkpt lat="36.9723409" lon="-3.7710605"><ele>1162.0</ele><time>2026-03-07T09:02:59.008Z</time></trkpt><trkpt lat="36.972375" lon="-3.7711638"><ele>1162.0</ele><time>2026-03-07T09:03:00.096Z</time></trkpt><trkpt lat="36.9723897" lon="-3.7712675"><ele>1161.0</ele><time>2026-03-07T09:03:01.017Z</time></trkpt><trkpt lat="36.9723974" lon="-3.771368"><ele>1160.0</ele><time>2026-03-07T09:03:02.017Z</time></trkpt><trkpt lat="36.9723927" lon="-3.7714729"><ele>1159.0</ele><time>2026-03-07T09:03:03.021Z</time></trkpt><trkpt lat="36.9723751" lon="-3.7715776"><ele>1158.0</ele><time>2026-03-07T09:03:03.994Z</time></trkpt><trkpt lat="36.9723542" lon="-3.771682"><ele>1157.0</ele><time>2026-03-07T09:03:05.013Z</time></trkpt><trkpt lat="36.9723424" lon="-3.7717839"><ele>1156.0</ele><time>2026-03-07T09:03:06.011Z</time></trkpt><trkpt lat="36.9723365" lon="-3.771884"><ele>1155.0</ele><time>2026-03-07T09:03:07.014Z</time></trkpt><trkpt lat="36.9723316" lon="-3.7719849"><ele>1154.0</ele><time>2026-03-07T09:03:08.01Z</time></trkpt><trkpt lat="36.9723261" lon="-3.7720913"><ele>1153.0</ele><time>2026-03-07T09:03:09.01Z</time></trkpt><trkpt lat="36.9723247" lon="-3.7721987"><ele>1152.0</ele><time>2026-03-07T09:03:10.003Z</time></trkpt><trkpt lat="36.9723244" lon="-3.7722981"><ele>1151.0</ele><time>2026-03-07T09:03:10.999Z</time></trkpt><trkpt lat="36.9723212" lon="-3.7723961"><ele>1150.0</ele><time>2026-03-07T09:03:12.012Z</time></trkpt><trkpt lat="36.9723063" lon="-3.7724945"><ele>1150.0</ele><time>2026-03-07T09:03:13.004Z</time></trkpt><trkpt lat="36.9722809" lon="-3.7725969"><ele>1150.0</ele><time>2026-03-07T09:03:14.008Z</time></trkpt><trkpt lat="36.97226" lon="-3.772704"><ele>1150.0</ele><time>2026-03-07T09:03:15.01Z</time></trkpt><trkpt lat="36.9722392" lon="-3.7728088"><ele>1150.0</ele><time>2026-03-07T09:03:16.016Z</time></trkpt><trkpt lat="36.9722286" lon="-3.7729126"><ele>1150.0</ele><time>2026-03-07T09:03:17.002Z</time></trkpt><trkpt lat="36.9722282" lon="-3.773014"><ele>1150.0</ele><time>2026-03-07T09:03:17.992Z</time></trkpt><trkpt lat="36.9722373" lon="-3.7731067"><ele>1149.142857142857</ele><time>2026-03-07T09:03:19.007Z</time></trkpt><trkpt lat="36.9722445" lon="-3.7731966"><ele>1148.2857142857142</ele><time>2026-03-07T09:03:20.007Z</time></trkpt><trkpt lat="36.9722345" lon="-3.7732869"><ele>1147.4285714285713</ele><time>2026-03-07T09:03:20.999Z</time></trkpt><trkpt lat="36.9722158" lon="-3.7733703"><ele>1146.5714285714284</ele><time>2026-03-07T09:03:21.997Z</time></trkpt><trkpt lat="36.972196" lon="-3.7734521"><ele>1145.7142857142858</ele><time>2026-03-07T09:03:22.995Z</time></trkpt><trkpt lat="36.9721683" lon="-3.7735354"><ele>1144.8571428571427</ele><time>2026-03-07T09:03:24Z</time></trkpt><trkpt lat="36.97213" lon="-3.7736172"><ele>1144.0</ele><time>2026-03-07T09:03:25.009Z</time></trkpt><trkpt lat="36.9720734" lon="-3.7736942"><ele>1142.8333333333333</ele><time>2026-03-07T09:03:26.005Z</time></trkpt><trkpt lat="36.9720133" lon="-3.7737631"><ele>1141.6666666666665</ele><time>2026-03-07T09:03:27.014Z</time></trkpt><trkpt lat="36.9719514" lon="-3.7738241"><ele>1140.5</ele><time>2026-03-07T09:03:28.012Z</time></trkpt><trkpt lat="36.9718916" lon="-3.7738867"><ele>1139.3333333333333</ele><time>2026-03-07T09:03:29.02Z</time></trkpt><trkpt lat="36.9718303" lon="-3.7739388"><ele>1138.1666666666667</ele><time>2026-03-07T09:03:30.015Z</time></trkpt><trkpt lat="36.9717712" lon="-3.7739871"><ele>1137.0</ele><time>2026-03-07T09:03:31.003Z</time></trkpt><trkpt lat="36.9717121" lon="-3.7740288"><ele>1136.8333333333333</ele><time>2026-03-07T09:03:32.011Z</time></trkpt><trkpt lat="36.9716507" lon="-3.7740551"><ele>1136.6666666666667</ele><time>2026-03-07T09:03:33Z</time></trkpt><trkpt lat="36.9715246" lon="-3.774078"><ele>1136.5</ele><time>2026-03-07T09:03:35.012Z</time></trkpt><trkpt lat="36.9714546" lon="-3.7740891"><ele>1136.3333333333335</ele><time>2026-03-07T09:03:36.015Z</time></trkpt><trkpt lat="36.9713795" lon="-3.7741049"><ele>1136.1666666666667</ele><time>2026-03-07T09:03:37.01Z</time></trkpt><trkpt lat="36.9713002" lon="-3.7741198"><ele>1136.0</ele><time>2026-03-07T09:03:38.015Z</time></trkpt><trkpt lat="36.9712173" lon="-3.774138"><ele>1136.0</ele><time>2026-03-07T09:03:39.016Z</time></trkpt><trkpt lat="36.9711311" lon="-3.7741421"><ele>1136.0</ele><time>2026-03-07T09:03:40.015Z</time></trkpt><trkpt lat="36.9710464" lon="-3.7741427"><ele>1136.0</ele><time>2026-03-07T09:03:41.002Z</time></trkpt><trkpt lat="36.9709624" lon="-3.7741393"><ele>1136.0</ele><time>2026-03-07T09:03:42.011Z</time></trkpt><trkpt lat="36.9708798" lon="-3.7741316"><ele>1136.0</ele><time>2026-03-07T09:03:43.007Z</time></trkpt><trkpt lat="36.9708062" lon="-3.7741444"><ele>1136.0</ele><time>2026-03-07T09:03:43.996Z</time></trkpt><trkpt lat="36.9707388" lon="-3.7741469"><ele>1135.6666666666667</ele><time>2026-03-07T09:03:45.003Z</time></trkpt><trkpt lat="36.9706348" lon="-3.7741349"><ele>1135.3333333333335</ele><time>2026-03-07T09:03:47.025Z</time></trkpt><trkpt lat="36.9705532" lon="-3.7741857"><ele>1135.0</ele><time>2026-03-07T09:03:49.006Z</time></trkpt><trkpt lat="36.9705971" lon="-3.7742632"><ele>1134.6666666666667</ele><time>2026-03-07T09:03:51.016Z</time></trkpt><trkpt lat="36.9706575" lon="-3.7743063"><ele>1134.3333333333333</ele><time>2026-03-07T09:03:52Z</time></trkpt><trkpt lat="36.9707244" lon="-3.7743563"><ele>1134.0</ele><time>2026-03-07T09:03:53.011Z</time></trkpt><trkpt lat="36.9707896" lon="-3.7744129"><ele>1132.5714285714287</ele><time>2026-03-07T09:03:54.017Z</time></trkpt><trkpt lat="36.9708537" lon="-3.7744717"><ele>1131.142857142857</ele><time>2026-03-07T09:03:55.014Z</time></trkpt><trkpt lat="36.9709174" lon="-3.7745314"><ele>1129.7142857142858</ele><time>2026-03-07T09:03:56.015Z</time></trkpt><trkpt lat="36.9709788" lon="-3.7745839"><ele>1128.2857142857142</ele><time>2026-03-07T09:03:57.006Z</time></trkpt><trkpt lat="36.9710353" lon="-3.7746317"><ele>1126.857142857143</ele><time>2026-03-07T09:03:58.019Z</time></trkpt><trkpt lat="36.9710901" lon="-3.7746818"><ele>1125.4285714285716</ele><time>2026-03-07T09:03:58.997Z</time></trkpt><trkpt lat="36.9711356" lon="-3.7747423"><ele>1124.0</ele><time>2026-03-07T09:04:00.004Z</time></trkpt><trkpt lat="36.9712092" lon="-3.7748518"><ele>1124.0</ele><time>2026-03-07T09:04:02.012Z</time></trkpt><trkpt lat="36.971284" lon="-3.7749313"><ele>1124.0</ele><time>2026-03-07T09:04:03.995Z</time></trkpt><trkpt lat="36.971425" lon="-3.7748879"><ele>1124.0</ele><time>2026-03-07T09:04:06.006Z</time></trkpt><trkpt lat="36.9715042" lon="-3.7748576"><ele>1124.0</ele><time>2026-03-07T09:04:07.001Z</time></trkpt><trkpt lat="36.9715727" lon="-3.7748398"><ele>1124.0</ele><time>2026-03-07T09:04:08.003Z</time></trkpt><trkpt lat="36.9716702" lon="-3.7748824"><ele>1124.8333333333335</ele><time>2026-03-07T09:04:10.002Z</time></trkpt><trkpt lat="36.9717084" lon="-3.7750417"><ele>1125.6666666666667</ele><time>2026-03-07T09:04:12.003Z</time></trkpt><trkpt lat="36.9717282" lon="-3.7751284"><ele>1126.5</ele><time>2026-03-07T09:04:13.004Z</time></trkpt><trkpt lat="36.9717459" lon="-3.7752096"><ele>1127.3333333333333</ele><time>2026-03-07T09:04:14.004Z</time></trkpt><trkpt lat="36.9717648" lon="-3.7752859"><ele>1128.1666666666665</ele><time>2026-03-07T09:04:15.008Z</time></trkpt><trkpt lat="36.9717852" lon="-3.7753608"><ele>1129.0</ele><time>2026-03-07T09:04:16.016Z</time></trkpt><trkpt lat="36.9718529" lon="-3.7754984"><ele>1127.3333333333333</ele><time>2026-03-07T09:04:18.006Z</time></trkpt><trkpt lat="36.9719056" lon="-3.7755595"><ele>1125.6666666666665</ele><time>2026-03-07T09:04:19.01Z</time></trkpt><trkpt lat="36.9719635" lon="-3.7756126"><ele>1124.0</ele><time>2026-03-07T09:04:20.006Z</time></trkpt><trkpt lat="36.9720083" lon="-3.7756708"><ele>1122.3333333333333</ele><time>2026-03-07T09:04:21.003Z</time></trkpt><trkpt lat="36.9720348" lon="-3.7758067"><ele>1120.6666666666667</ele><time>2026-03-07T09:04:23.018Z</time></trkpt><trkpt lat="36.9720094" lon="-3.7759562"><ele>1119.0</ele><time>2026-03-07T09:04:25.022Z</time></trkpt><trkpt lat="36.9719848" lon="-3.7760304"><ele>1116.6666666666667</ele><time>2026-03-07T09:04:26.011Z</time></trkpt><trkpt lat="36.9719216" lon="-3.7761449"><ele>1114.3333333333333</ele><time>2026-03-07T09:04:28.005Z</time></trkpt><trkpt lat="36.9718699" lon="-3.7762042"><ele>1112.0</ele><time>2026-03-07T09:04:29.016Z</time></trkpt><trkpt lat="36.971815" lon="-3.7762744"><ele>1109.6666666666665</ele><time>2026-03-07T09:04:30.005Z</time></trkpt><trkpt lat="36.9717536" lon="-3.7763359"><ele>1107.3333333333333</ele><time>2026-03-07T09:04:30.998Z</time></trkpt><trkpt lat="36.971689" lon="-3.7763842"><ele>1105.0</ele><time>2026-03-07T09:04:32.006Z</time></trkpt><trkpt lat="36.9716169" lon="-3.7764224"><ele>1105.0</ele><time>2026-03-07T09:04:33.009Z</time></trkpt><trkpt lat="36.9715523" lon="-3.7764601"><ele>1105.0</ele><time>2026-03-07T09:04:34.018Z</time></trkpt><trkpt lat="36.971492" lon="-3.7765045"><ele>1105.0</ele><time>2026-03-07T09:04:35.004Z</time></trkpt><trkpt lat="36.9714212" lon="-3.7766431"><ele>1105.0</ele><time>2026-03-07T09:04:37.005Z</time></trkpt><trkpt lat="36.9713995" lon="-3.7767266"><ele>1105.0</ele><time>2026-03-07T09:04:38.017Z</time></trkpt><trkpt lat="36.9713626" lon="-3.7768096"><ele>1105.0</ele><time>2026-03-07T09:04:39.011Z</time></trkpt><trkpt lat="36.9713281" lon="-3.7768859"><ele>1104.3333333333333</ele><time>2026-03-07T09:04:40.007Z</time></trkpt><trkpt lat="36.9712912" lon="-3.7769619"><ele>1103.6666666666665</ele><time>2026-03-07T09:04:41.002Z</time></trkpt><trkpt lat="36.9712557" lon="-3.777041"><ele>1103.0</ele><time>2026-03-07T09:04:42Z</time></trkpt><trkpt lat="36.9712299" lon="-3.7771268"><ele>1102.3333333333333</ele><time>2026-03-07T09:04:43.015Z</time></trkpt><trkpt lat="36.9711981" lon="-3.7772154"><ele>1101.6666666666667</ele><time>2026-03-07T09:04:44.002Z</time></trkpt><trkpt lat="36.9711728" lon="-3.7773188"><ele>1101.0</ele><time>2026-03-07T09:04:45.007Z</time></trkpt><trkpt lat="36.9711359" lon="-3.7774271"><ele>1101.0</ele><time>2026-03-07T09:04:46.002Z</time></trkpt><trkpt lat="36.9710869" lon="-3.7775367"><ele>1101.0</ele><time>2026-03-07T09:04:46.998Z</time></trkpt><trkpt lat="36.9710407" lon="-3.7776511"><ele>1101.0</ele><time>2026-03-07T09:04:48.008Z</time></trkpt><trkpt lat="36.9709907" lon="-3.777759"><ele>1101.0</ele><time>2026-03-07T09:04:49.012Z</time></trkpt><trkpt lat="36.9709413" lon="-3.7778615"><ele>1101.0</ele><time>2026-03-07T09:04:50.007Z</time></trkpt><trkpt lat="36.9708973" lon="-3.7779619"><ele>1100.3333333333333</ele><time>2026-03-07T09:04:51.016Z</time></trkpt><trkpt lat="36.9708528" lon="-3.7780525"><ele>1099.6666666666667</ele><time>2026-03-07T09:04:52.01Z</time></trkpt><trkpt lat="36.9708125" lon="-3.7781455"><ele>1099.0</ele><time>2026-03-07T09:04:53.003Z</time></trkpt><trkpt lat="36.970758" lon="-3.7782305"><ele>1098.3333333333335</ele><time>2026-03-07T09:04:54.006Z</time></trkpt><trkpt lat="36.9707113" lon="-3.7783252"><ele>1097.6666666666667</ele><time>2026-03-07T09:04:55.008Z</time></trkpt><trkpt lat="36.9706605" lon="-3.7784182"><ele>1097.0</ele><time>2026-03-07T09:04:55.996Z</time></trkpt><trkpt lat="36.9706093" lon="-3.7785128"><ele>1095.2</ele><time>2026-03-07T09:04:57.002Z</time></trkpt><trkpt lat="36.9705362" lon="-3.7785919"><ele>1093.4</ele><time>2026-03-07T09:04:57.999Z</time></trkpt><trkpt lat="36.9704575" lon="-3.778678"><ele>1091.6</ele><time>2026-03-07T09:04:59.007Z</time></trkpt><trkpt lat="36.9703756" lon="-3.7787612"><ele>1089.8</ele><time>2026-03-07T09:05:00.05Z</time></trkpt><trkpt lat="36.9702967" lon="-3.7788491"><ele>1088.0</ele><time>2026-03-07T09:05:01.016Z</time></trkpt><trkpt lat="36.9702107" lon="-3.7789306"><ele>1088.0</ele><time>2026-03-07T09:05:02.003Z</time></trkpt><trkpt lat="36.9701223" lon="-3.7790119"><ele>1088.0</ele><time>2026-03-07T09:05:03.013Z</time></trkpt><trkpt lat="36.9700355" lon="-3.7790948"><ele>1088.0</ele><time>2026-03-07T09:05:04.026Z</time></trkpt><trkpt lat="36.9699381" lon="-3.7791578"><ele>1088.0</ele><time>2026-03-07T09:05:05.009Z</time></trkpt><trkpt lat="36.9698457" lon="-3.7792261"><ele>1088.0</ele><time>2026-03-07T09:05:06.011Z</time></trkpt><trkpt lat="36.969755" lon="-3.7792907"><ele>1087.6</ele><time>2026-03-07T09:05:07.01Z</time></trkpt><trkpt lat="36.9696679" lon="-3.7793523"><ele>1087.1999999999998</ele><time>2026-03-07T09:05:08.005Z</time></trkpt><trkpt lat="36.9695883" lon="-3.7794179"><ele>1086.8</ele><time>2026-03-07T09:05:09.013Z</time></trkpt><trkpt lat="36.9695147" lon="-3.779503"><ele>1086.3999999999999</ele><time>2026-03-07T09:05:10.005Z</time></trkpt><trkpt lat="36.9694392" lon="-3.7795946"><ele>1086.0</ele><time>2026-03-07T09:05:11.007Z</time></trkpt><trkpt lat="36.9693846" lon="-3.7797192"><ele>1086.0</ele><time>2026-03-07T09:05:12.01Z</time></trkpt><trkpt lat="36.9693079" lon="-3.7798009"><ele>1086.0</ele><time>2026-03-07T09:05:13.004Z</time></trkpt><trkpt lat="36.9692425" lon="-3.7798962"><ele>1086.0</ele><time>2026-03-07T09:05:13.992Z</time></trkpt><trkpt lat="36.9691776" lon="-3.7799853"><ele>1086.0</ele><time>2026-03-07T09:05:15Z</time></trkpt><trkpt lat="36.9690987" lon="-3.7800555"><ele>1086.0</ele><time>2026-03-07T09:05:16.014Z</time></trkpt><trkpt lat="36.9690217" lon="-3.7801246"><ele>1084.6</ele><time>2026-03-07T09:05:16.998Z</time></trkpt><trkpt lat="36.9689433" lon="-3.7801844"><ele>1083.1999999999998</ele><time>2026-03-07T09:05:18.017Z</time></trkpt><trkpt lat="36.9688759" lon="-3.7802793"><ele>1081.8000000000002</ele><time>2026-03-07T09:05:19.004Z</time></trkpt><trkpt lat="36.9687958" lon="-3.780377"><ele>1080.4</ele><time>2026-03-07T09:05:20.009Z</time></trkpt><trkpt lat="36.9687106" lon="-3.7804771"><ele>1079.0</ele><time>2026-03-07T09:05:21.006Z</time></trkpt><trkpt lat="36.9686275" lon="-3.7805753"><ele>1079.0</ele><time>2026-03-07T09:05:22.005Z</time></trkpt><trkpt lat="36.9685415" lon="-3.7806573"><ele>1079.0</ele><time>2026-03-07T09:05:23.009Z</time></trkpt><trkpt lat="36.9684481" lon="-3.780725"><ele>1079.0</ele><time>2026-03-07T09:05:24.004Z</time></trkpt><trkpt lat="36.9683522" lon="-3.7807965"><ele>1079.0</ele><time>2026-03-07T09:05:25.005Z</time></trkpt><trkpt lat="36.9682576" lon="-3.7808683"><ele>1079.0</ele><time>2026-03-07T09:05:26.002Z</time></trkpt><trkpt lat="36.9681784" lon="-3.7809436"><ele>1077.2</ele><time>2026-03-07T09:05:27.003Z</time></trkpt><trkpt lat="36.9681046" lon="-3.7810303"><ele>1075.4</ele><time>2026-03-07T09:05:28.012Z</time></trkpt><trkpt lat="36.9680362" lon="-3.7811278"><ele>1073.6</ele><time>2026-03-07T09:05:29.016Z</time></trkpt><trkpt lat="36.9679627" lon="-3.7812243"><ele>1071.8</ele><time>2026-03-07T09:05:30.011Z</time></trkpt><trkpt lat="36.967892" lon="-3.7813188"><ele>1070.0</ele><time>2026-03-07T09:05:31.006Z</time></trkpt><trkpt lat="36.9678187" lon="-3.7814007"><ele>1070.0</ele><time>2026-03-07T09:05:32.011Z</time></trkpt><trkpt lat="36.9677484" lon="-3.7814791"><ele>1070.0</ele><time>2026-03-07T09:05:33.004Z</time></trkpt><trkpt lat="36.9676841" lon="-3.781564"><ele>1070.0</ele><time>2026-03-07T09:05:34.015Z</time></trkpt><trkpt lat="36.9676203" lon="-3.7816484"><ele>1070.0</ele><time>2026-03-07T09:05:35.018Z</time></trkpt><trkpt lat="36.9675563" lon="-3.781731"><ele>1070.0</ele><time>2026-03-07T09:05:36.006Z</time></trkpt><trkpt lat="36.9674865" lon="-3.781798"><ele>1069.1666666666667</ele><time>2026-03-07T09:05:37.006Z</time></trkpt><trkpt lat="36.9674206" lon="-3.7818611"><ele>1068.3333333333335</ele><time>2026-03-07T09:05:38.01Z</time></trkpt><trkpt lat="36.9673531" lon="-3.7819191"><ele>1067.5</ele><time>2026-03-07T09:05:39.01Z</time></trkpt><trkpt lat="36.9672885" lon="-3.781984"><ele>1066.6666666666667</ele><time>2026-03-07T09:05:39.999Z</time></trkpt><trkpt lat="36.9672132" lon="-3.7820376"><ele>1065.8333333333333</ele><time>2026-03-07T09:05:41.001Z</time></trkpt><trkpt lat="36.9671297" lon="-3.7820918"><ele>1065.0</ele><time>2026-03-07T09:05:42.014Z</time></trkpt><trkpt lat="36.9670271" lon="-3.7821393"><ele>1065.0</ele><time>2026-03-07T09:05:43.007Z</time></trkpt><trkpt lat="36.9669144" lon="-3.7821796"><ele>1065.0</ele><time>2026-03-07T09:05:44.008Z</time></trkpt><trkpt lat="36.966801" lon="-3.7822189"><ele>1065.0</ele><time>2026-03-07T09:05:45.001Z</time></trkpt><trkpt lat="36.9666921" lon="-3.7822668"><ele>1065.0</ele><time>2026-03-07T09:05:45.997Z</time></trkpt><trkpt lat="36.9665855" lon="-3.7823143"><ele>1064.25</ele><time>2026-03-07T09:05:47.014Z</time></trkpt><trkpt lat="36.966476" lon="-3.7823666"><ele>1063.5</ele><time>2026-03-07T09:05:48.016Z</time></trkpt><trkpt lat="36.9663685" lon="-3.7824185"><ele>1062.75</ele><time>2026-03-07T09:05:49.01Z</time></trkpt><trkpt lat="36.9662604" lon="-3.782464"><ele>1062.0</ele><time>2026-03-07T09:05:50.006Z</time></trkpt><trkpt lat="36.9661544" lon="-3.7824945"><ele>1062.0</ele><time>2026-03-07T09:05:51.007Z</time></trkpt><trkpt lat="36.966051" lon="-3.7825241"><ele>1062.0</ele><time>2026-03-07T09:05:52.008Z</time></trkpt><trkpt lat="36.9659493" lon="-3.7825317"><ele>1062.0</ele><time>2026-03-07T09:05:52.998Z</time></trkpt><trkpt lat="36.9658478" lon="-3.7825425"><ele>1062.0</ele><time>2026-03-07T09:05:54.032Z</time></trkpt><trkpt lat="36.9657519" lon="-3.7825554"><ele>1062.0</ele><time>2026-03-07T09:05:55.01Z</time></trkpt><trkpt lat="36.9656521" lon="-3.7825414"><ele>1061.6666666666667</ele><time>2026-03-07T09:05:55.999Z</time></trkpt><trkpt lat="36.9655542" lon="-3.7825242"><ele>1061.3333333333333</ele><time>2026-03-07T09:05:57.017Z</time></trkpt><trkpt lat="36.9654601" lon="-3.7825057"><ele>1061.0</ele><time>2026-03-07T09:05:58.02Z</time></trkpt><trkpt lat="36.965375" lon="-3.7824826"><ele>1060.6666666666665</ele><time>2026-03-07T09:05:59.018Z</time></trkpt><trkpt lat="36.965291" lon="-3.7824598"><ele>1060.3333333333333</ele><time>2026-03-07T09:06:00.027Z</time></trkpt><trkpt lat="36.9652117" lon="-3.7824458"><ele>1060.0</ele><time>2026-03-07T09:06:01.017Z</time></trkpt><trkpt lat="36.9651389" lon="-3.7824336"><ele>1060.0</ele><time>2026-03-07T09:06:02.021Z</time></trkpt><trkpt lat="36.9650705" lon="-3.782426"><ele>1060.0</ele><time>2026-03-07T09:06:03.006Z</time></trkpt><trkpt lat="36.9650009" lon="-3.7824152"><ele>1060.0</ele><time>2026-03-07T09:06:04.005Z</time></trkpt><trkpt lat="36.9649352" lon="-3.7824312"><ele>1060.0</ele><time>2026-03-07T09:06:05.009Z</time></trkpt><trkpt lat="36.9648363" lon="-3.7825227"><ele>1060.0</ele><time>2026-03-07T09:06:07.009Z</time></trkpt><trkpt lat="36.9647899" lon="-3.7825791"><ele>1060.0</ele><time>2026-03-07T09:06:08.009Z</time></trkpt><trkpt lat="36.9647298" lon="-3.7826493"><ele>1058.6</ele><time>2026-03-07T09:06:09.011Z</time></trkpt><trkpt lat="36.9646686" lon="-3.7827377"><ele>1057.2</ele><time>2026-03-07T09:06:10.014Z</time></trkpt><trkpt lat="36.9646077" lon="-3.7828299"><ele>1055.8</ele><time>2026-03-07T09:06:11.008Z</time></trkpt><trkpt lat="36.9645381" lon="-3.782923"><ele>1054.4</ele><time>2026-03-07T09:06:12.007Z</time></trkpt><trkpt lat="36.9644581" lon="-3.7830242"><ele>1053.0</ele><time>2026-03-07T09:06:13.02Z</time></trkpt><trkpt lat="36.9643833" lon="-3.7831313"><ele>1053.0</ele><time>2026-03-07T09:06:14.013Z</time></trkpt><trkpt lat="36.9643137" lon="-3.7832437"><ele>1053.0</ele><time>2026-03-07T09:06:15.015Z</time></trkpt><trkpt lat="36.964247" lon="-3.783359"><ele>1053.0</ele><time>2026-03-07T09:06:16.007Z</time></trkpt><trkpt lat="36.9641741" lon="-3.7834733"><ele>1053.0</ele><time>2026-03-07T09:06:17.004Z</time></trkpt><trkpt lat="36.9641012" lon="-3.7835873"><ele>1051.0</ele><time>2026-03-07T09:06:18.004Z</time></trkpt><trkpt lat="36.9640321" lon="-3.7837026"><ele>1049.0</ele><time>2026-03-07T09:06:19.018Z</time></trkpt><trkpt lat="36.9639602" lon="-3.7838101"><ele>1047.0</ele><time>2026-03-07T09:06:20.042Z</time></trkpt><trkpt lat="36.9638887" lon="-3.7839108"><ele>1045.0</ele><time>2026-03-07T09:06:21.024Z</time></trkpt><trkpt lat="36.9638121" lon="-3.783998"><ele>1043.0</ele><time>2026-03-07T09:06:22.002Z</time></trkpt><trkpt lat="36.963744" lon="-3.7840878"><ele>1043.0</ele><time>2026-03-07T09:06:23.01Z</time></trkpt><trkpt lat="36.9636731" lon="-3.7841793"><ele>1043.0</ele><time>2026-03-07T09:06:24.012Z</time></trkpt><trkpt lat="36.9636066" lon="-3.784276"><ele>1043.0</ele><time>2026-03-07T09:06:25.009Z</time></trkpt><trkpt lat="36.9635424" lon="-3.7843741"><ele>1043.0</ele><time>2026-03-07T09:06:26.012Z</time></trkpt><trkpt lat="36.9634777" lon="-3.7844657"><ele>1043.0</ele><time>2026-03-07T09:06:27.006Z</time></trkpt><trkpt lat="36.963413" lon="-3.7845559"><ele>1040.4</ele><time>2026-03-07T09:06:28.007Z</time></trkpt><trkpt lat="36.9633476" lon="-3.7846505"><ele>1037.8</ele><time>2026-03-07T09:06:29.005Z</time></trkpt><trkpt lat="36.9632857" lon="-3.7847598"><ele>1035.2</ele><time>2026-03-07T09:06:30.014Z</time></trkpt><trkpt lat="36.9632188" lon="-3.7848569"><ele>1032.6</ele><time>2026-03-07T09:06:31.017Z</time></trkpt><trkpt lat="36.9631478" lon="-3.7849371"><ele>1030.0</ele><time>2026-03-07T09:06:32.012Z</time></trkpt><trkpt lat="36.9630832" lon="-3.7850118"><ele>1030.0</ele><time>2026-03-07T09:06:33.011Z</time></trkpt><trkpt lat="36.9630232" lon="-3.7850881"><ele>1030.0</ele><time>2026-03-07T09:06:34.006Z</time></trkpt><trkpt lat="36.9629634" lon="-3.7851637"><ele>1030.0</ele><time>2026-03-07T09:06:35.007Z</time></trkpt><trkpt lat="36.962907" lon="-3.7852449"><ele>1030.0</ele><time>2026-03-07T09:06:36.011Z</time></trkpt><trkpt lat="36.9628484" lon="-3.7853227"><ele>1030.0</ele><time>2026-03-07T09:06:37.023Z</time></trkpt><trkpt lat="36.9627761" lon="-3.7853824"><ele>1030.0</ele><time>2026-03-07T09:06:38.004Z</time></trkpt><trkpt lat="36.9627103" lon="-3.7854561"><ele>1029.1666666666665</ele><time>2026-03-07T09:06:39.014Z</time></trkpt><trkpt lat="36.9626445" lon="-3.7855229"><ele>1028.3333333333333</ele><time>2026-03-07T09:06:40.009Z</time></trkpt><trkpt lat="36.9625757" lon="-3.7855849"><ele>1027.5</ele><time>2026-03-07T09:06:40.997Z</time></trkpt><trkpt lat="36.9625056" lon="-3.7856409"><ele>1026.6666666666667</ele><time>2026-03-07T09:06:42.038Z</time></trkpt><trkpt lat="36.9624358" lon="-3.7856997"><ele>1025.8333333333335</ele><time>2026-03-07T09:06:43.01Z</time></trkpt><trkpt lat="36.9623654" lon="-3.785758"><ele>1025.0</ele><time>2026-03-07T09:06:44.008Z</time></trkpt><trkpt lat="36.9622952" lon="-3.785823"><ele>1024.5</ele><time>2026-03-07T09:06:45.011Z</time></trkpt><trkpt lat="36.9622205" lon="-3.7858866"><ele>1024.0</ele><time>2026-03-07T09:06:46.009Z</time></trkpt><trkpt lat="36.9621557" lon="-3.7859597"><ele>1023.5</ele><time>2026-03-07T09:06:47.008Z</time></trkpt><trkpt lat="36.9620991" lon="-3.7860373"><ele>1023.0</ele><time>2026-03-07T09:06:48.011Z</time></trkpt><trkpt lat="36.9620571" lon="-3.7861383"><ele>1022.5000000000001</ele><time>2026-03-07T09:06:49.02Z</time></trkpt><trkpt lat="36.9620105" lon="-3.7862353"><ele>1022.0</ele><time>2026-03-07T09:06:50.009Z</time></trkpt><trkpt lat="36.9619641" lon="-3.7863422"><ele>1021.1666666666667</ele><time>2026-03-07T09:06:51.011Z</time></trkpt><trkpt lat="36.9619234" lon="-3.7864531"><ele>1020.3333333333334</ele><time>2026-03-07T09:06:52.003Z</time></trkpt><trkpt lat="36.9619023" lon="-3.7865687"><ele>1019.5</ele><time>2026-03-07T09:06:53.009Z</time></trkpt><trkpt lat="36.96188" lon="-3.7866604"><ele>1018.6666666666667</ele><time>2026-03-07T09:06:54.007Z</time></trkpt><trkpt lat="36.9618615" lon="-3.7867415"><ele>1017.8333333333334</ele><time>2026-03-07T09:06:55.008Z</time></trkpt><trkpt lat="36.961813" lon="-3.7868687"><ele>1017.0</ele><time>2026-03-07T09:06:57.003Z</time></trkpt><trkpt lat="36.9618192" lon="-3.7869491"><ele>1016.8</ele><time>2026-03-07T09:06:58.007Z</time></trkpt><trkpt lat="36.9617707" lon="-3.7871059"><ele>1016.6</ele><time>2026-03-07T09:07:00.021Z</time></trkpt><trkpt lat="36.961735" lon="-3.7871932"><ele>1016.3999999999999</ele><time>2026-03-07T09:07:01.01Z</time></trkpt><trkpt lat="36.9616864" lon="-3.787281"><ele>1016.1999999999999</ele><time>2026-03-07T09:07:02.011Z</time></trkpt><trkpt lat="36.9616357" lon="-3.7873728"><ele>1016.0</ele><time>2026-03-07T09:07:03.012Z</time></trkpt><trkpt lat="36.9615794" lon="-3.787468"><ele>1014.8</ele><time>2026-03-07T09:07:04.011Z</time></trkpt><trkpt lat="36.9615281" lon="-3.787568"><ele>1013.5999999999999</ele><time>2026-03-07T09:07:05.009Z</time></trkpt><trkpt lat="36.9615094" lon="-3.7876916"><ele>1012.4</ele><time>2026-03-07T09:07:06.012Z</time></trkpt><trkpt lat="36.9614637" lon="-3.7877996"><ele>1011.2</ele><time>2026-03-07T09:07:07.013Z</time></trkpt><trkpt lat="36.9614043" lon="-3.7879001"><ele>1010.0</ele><time>2026-03-07T09:07:08.005Z</time></trkpt><trkpt lat="36.9613222" lon="-3.7879809"><ele>1009.2</ele><time>2026-03-07T09:07:09.01Z</time></trkpt><trkpt lat="36.9612455" lon="-3.788065"><ele>1008.4</ele><time>2026-03-07T09:07:10.007Z</time></trkpt><trkpt lat="36.9611646" lon="-3.7881478"><ele>1007.5999999999999</ele><time>2026-03-07T09:07:11.002Z</time></trkpt><trkpt lat="36.9610857" lon="-3.7882269"><ele>1006.8</ele><time>2026-03-07T09:07:12.006Z</time></trkpt><trkpt lat="36.9610158" lon="-3.7883162"><ele>1006.0</ele><time>2026-03-07T09:07:13.005Z</time></trkpt><trkpt lat="36.960939" lon="-3.788397"><ele>1006.0</ele><time>2026-03-07T09:07:14.004Z</time></trkpt><trkpt lat="36.9608682" lon="-3.7884876"><ele>1005.9999999999999</ele><time>2026-03-07T09:07:14.997Z</time></trkpt><trkpt lat="36.9608041" lon="-3.7885829"><ele>1005.9999999999999</ele><time>2026-03-07T09:07:16.01Z</time></trkpt><trkpt lat="36.9607374" lon="-3.7886694"><ele>1006.0</ele><time>2026-03-07T09:07:17.021Z</time></trkpt><trkpt lat="36.9606789" lon="-3.7887604"><ele>1006.0</ele><time>2026-03-07T09:07:18.017Z</time></trkpt><trkpt lat="36.9606084" lon="-3.7888495"><ele>1005.8</ele><time>2026-03-07T09:07:19.002Z</time></trkpt><trkpt lat="36.9605338" lon="-3.7889558"><ele>1005.5999999999999</ele><time>2026-03-07T09:07:20.009Z</time></trkpt><trkpt lat="36.960463" lon="-3.7890747"><ele>1005.4</ele><time>2026-03-07T09:07:21.006Z</time></trkpt><trkpt lat="36.9604043" lon="-3.7891878"><ele>1005.2</ele><time>2026-03-07T09:07:22.002Z</time></trkpt><trkpt lat="36.9603736" lon="-3.7893053"><ele>1005.0</ele><time>2026-03-07T09:07:23.036Z</time></trkpt><trkpt lat="36.9603389" lon="-3.7894262"><ele>1003.6</ele><time>2026-03-07T09:07:23.999Z</time></trkpt><trkpt lat="36.96029" lon="-3.7895465"><ele>1002.2</ele><time>2026-03-07T09:07:25.003Z</time></trkpt><trkpt lat="36.9602413" lon="-3.7896683"><ele>1000.8</ele><time>2026-03-07T09:07:26.005Z</time></trkpt><trkpt lat="36.9601967" lon="-3.789796"><ele>999.4</ele><time>2026-03-07T09:07:27.01Z</time></trkpt><trkpt lat="36.9601431" lon="-3.7899173"><ele>998.0</ele><time>2026-03-07T09:07:28.009Z</time></trkpt><trkpt lat="36.9601044" lon="-3.7900564"><ele>997.25</ele><time>2026-03-07T09:07:29.011Z</time></trkpt><trkpt lat="36.9600481" lon="-3.790196"><ele>996.5</ele><time>2026-03-07T09:07:30.001Z</time></trkpt><trkpt lat="36.9599868" lon="-3.7903255"><ele>995.75</ele><time>2026-03-07T09:07:31.015Z</time></trkpt><trkpt lat="36.9599394" lon="-3.7904562"><ele>995.0</ele><time>2026-03-07T09:07:32Z</time></trkpt><trkpt lat="36.959894" lon="-3.7905874"><ele>993.8</ele><time>2026-03-07T09:07:33.012Z</time></trkpt><trkpt lat="36.9598577" lon="-3.7907187"><ele>992.6</ele><time>2026-03-07T09:07:34.013Z</time></trkpt><trkpt lat="36.9598211" lon="-3.7908447"><ele>991.4000000000001</ele><time>2026-03-07T09:07:35.024Z</time></trkpt><trkpt lat="36.9597714" lon="-3.7909716"><ele>990.2</ele><time>2026-03-07T09:07:36.009Z</time></trkpt><trkpt lat="36.9597269" lon="-3.7911026"><ele>989.0</ele><time>2026-03-07T09:07:37.004Z</time></trkpt><trkpt lat="36.9596894" lon="-3.7912336"><ele>988.25</ele><time>2026-03-07T09:07:38.004Z</time></trkpt><trkpt lat="36.9596569" lon="-3.7913667"><ele>987.5</ele><time>2026-03-07T09:07:39.003Z</time></trkpt><trkpt lat="36.9596151" lon="-3.7915044"><ele>986.75</ele><time>2026-03-07T09:07:40.021Z</time></trkpt><trkpt lat="36.9595705" lon="-3.7916403"><ele>986.0</ele><time>2026-03-07T09:07:41.028Z</time></trkpt><trkpt lat="36.959512" lon="-3.7917692"><ele>987.5</ele><time>2026-03-07T09:07:42.013Z</time></trkpt><trkpt lat="36.9594524" lon="-3.7918895"><ele>989.0</ele><time>2026-03-07T09:07:42.995Z</time></trkpt><trkpt lat="36.9593753" lon="-3.7919948"><ele>990.5</ele><time>2026-03-07T09:07:44.002Z</time></trkpt><trkpt lat="36.9593175" lon="-3.7921123"><ele>992.0</ele><time>2026-03-07T09:07:45.005Z</time></trkpt><trkpt lat="36.9592626" lon="-3.792235"><ele>992.0</ele><time>2026-03-07T09:07:46.007Z</time></trkpt><trkpt lat="36.959207" lon="-3.7923578"><ele>992.0</ele><time>2026-03-07T09:07:47.009Z</time></trkpt><trkpt lat="36.9591497" lon="-3.7924774"><ele>992.0</ele><time>2026-03-07T09:07:48.008Z</time></trkpt><trkpt lat="36.9590911" lon="-3.7925945"><ele>992.0</ele><time>2026-03-07T09:07:48.999Z</time></trkpt><trkpt lat="36.9590199" lon="-3.7926986"><ele>992.0</ele><time>2026-03-07T09:07:50.005Z</time></trkpt><trkpt lat="36.9589584" lon="-3.79282"><ele>989.75</ele><time>2026-03-07T09:07:51.007Z</time></trkpt><trkpt lat="36.9589086" lon="-3.7929483"><ele>987.5</ele><time>2026-03-07T09:07:52Z</time></trkpt><trkpt lat="36.9588596" lon="-3.793083"><ele>985.25</ele><time>2026-03-07T09:07:52.999Z</time></trkpt><trkpt lat="36.9588057" lon="-3.7932133"><ele>983.0</ele><time>2026-03-07T09:07:54.008Z</time></trkpt><trkpt lat="36.9587402" lon="-3.7933387"><ele>983.0</ele><time>2026-03-07T09:07:55.005Z</time></trkpt><trkpt lat="36.9586857" lon="-3.7934697"><ele>983.0</ele><time>2026-03-07T09:07:56.005Z</time></trkpt><trkpt lat="36.9586344" lon="-3.7936006"><ele>983.0</ele><time>2026-03-07T09:07:57Z</time></trkpt><trkpt lat="36.9585779" lon="-3.7937266"><ele>983.0</ele><time>2026-03-07T09:07:58.004Z</time></trkpt><trkpt lat="36.9585272" lon="-3.7938527"><ele>983.4</ele><time>2026-03-07T09:07:59.008Z</time></trkpt><trkpt lat="36.9584827" lon="-3.7939733"><ele>983.8</ele><time>2026-03-07T09:08:00.029Z</time></trkpt><trkpt lat="36.9584359" lon="-3.794085"><ele>984.2</ele><time>2026-03-07T09:08:01.018Z</time></trkpt><trkpt lat="36.9583954" lon="-3.7941936"><ele>984.6</ele><time>2026-03-07T09:08:02.022Z</time></trkpt><trkpt lat="36.9583541" lon="-3.7943036"><ele>985.0</ele><time>2026-03-07T09:08:03.01Z</time></trkpt><trkpt lat="36.9583181" lon="-3.7944206"><ele>983.0</ele><time>2026-03-07T09:08:04.007Z</time></trkpt><trkpt lat="36.9582901" lon="-3.7945467"><ele>981.0</ele><time>2026-03-07T09:08:05.017Z</time></trkpt><trkpt lat="36.9582489" lon="-3.794649"><ele>979.0</ele><time>2026-03-07T09:08:06.008Z</time></trkpt><trkpt lat="36.9582099" lon="-3.7947505"><ele>977.0</ele><time>2026-03-07T09:08:07.001Z</time></trkpt><trkpt lat="36.9581706" lon="-3.7948639"><ele>975.0</ele><time>2026-03-07T09:08:08.006Z</time></trkpt><trkpt lat="36.9581365" lon="-3.7949965"><ele>975.0</ele><time>2026-03-07T09:08:09.004Z</time></trkpt><trkpt lat="36.9581089" lon="-3.7951395"><ele>975.0</ele><time>2026-03-07T09:08:10.009Z</time></trkpt><trkpt lat="36.9580815" lon="-3.7952928"><ele>975.0</ele><time>2026-03-07T09:08:11.008Z</time></trkpt><trkpt lat="36.9580511" lon="-3.7954512"><ele>975.0</ele><time>2026-03-07T09:08:12.008Z</time></trkpt><trkpt lat="36.958028" lon="-3.7956203"><ele>974.0</ele><time>2026-03-07T09:08:13.012Z</time></trkpt><trkpt lat="36.9579965" lon="-3.795794"><ele>973.0</ele><time>2026-03-07T09:08:14.01Z</time></trkpt><trkpt lat="36.9579682" lon="-3.7959694"><ele>972.0</ele><time>2026-03-07T09:08:15.014Z</time></trkpt><trkpt lat="36.9579419" lon="-3.7961414"><ele>971.0</ele><time>2026-03-07T09:08:16.023Z</time></trkpt><trkpt lat="36.9579138" lon="-3.7963098"><ele>970.25</ele><time>2026-03-07T09:08:16.993Z</time></trkpt><trkpt lat="36.9578859" lon="-3.796476"><ele>969.5</ele><time>2026-03-07T09:08:18.009Z</time></trkpt><trkpt lat="36.9578621" lon="-3.796655"><ele>968.75</ele><time>2026-03-07T09:08:19.005Z</time></trkpt><trkpt lat="36.9578355" lon="-3.796828"><ele>968.0</ele><time>2026-03-07T09:08:20.003Z</time></trkpt><trkpt lat="36.9578043" lon="-3.7969854"><ele>967.5</ele><time>2026-03-07T09:08:20.996Z</time></trkpt><trkpt lat="36.957781" lon="-3.7971435"><ele>967.0</ele><time>2026-03-07T09:08:22.005Z</time></trkpt><trkpt lat="36.9577599" lon="-3.7972974"><ele>966.5</ele><time>2026-03-07T09:08:23.012Z</time></trkpt><trkpt lat="36.9577355" lon="-3.7974599"><ele>966.0</ele><time>2026-03-07T09:08:24.002Z</time></trkpt><trkpt lat="36.9577071" lon="-3.797636"><ele>966.25</ele><time>2026-03-07T09:08:25.01Z</time></trkpt><trkpt lat="36.957675" lon="-3.7978142"><ele>966.5</ele><time>2026-03-07T09:08:26.008Z</time></trkpt><trkpt lat="36.9576516" lon="-3.7979938"><ele>966.75</ele><time>2026-03-07T09:08:27.008Z</time></trkpt><trkpt lat="36.9576262" lon="-3.7981641"><ele>967.0</ele><time>2026-03-07T09:08:28.009Z</time></trkpt><trkpt lat="36.9575976" lon="-3.7983238"><ele>967.0</ele><time>2026-03-07T09:08:29.012Z</time></trkpt><trkpt lat="36.9575638" lon="-3.7984803"><ele>967.0</ele><time>2026-03-07T09:08:30.011Z</time></trkpt><trkpt lat="36.9575326" lon="-3.7986492"><ele>967.0</ele><time>2026-03-07T09:08:31.011Z</time></trkpt><trkpt lat="36.957536" lon="-3.7988239"><ele>967.0</ele><time>2026-03-07T09:08:32.009Z</time></trkpt><trkpt lat="36.9575285" lon="-3.7989975"><ele>965.0</ele><time>2026-03-07T09:08:33.005Z</time></trkpt><trkpt lat="36.9575192" lon="-3.799165"><ele>963.0</ele><time>2026-03-07T09:08:34.006Z</time></trkpt><trkpt lat="36.9575027" lon="-3.7993326"><ele>961.0</ele><time>2026-03-07T09:08:35.024Z</time></trkpt><trkpt lat="36.957491" lon="-3.7995041"><ele>959.0</ele><time>2026-03-07T09:08:36.009Z</time></trkpt><trkpt lat="36.9574669" lon="-3.7996738"><ele>958.25</ele><time>2026-03-07T09:08:37.001Z</time></trkpt><trkpt lat="36.9574338" lon="-3.7998407"><ele>957.5</ele><time>2026-03-07T09:08:38.019Z</time></trkpt><trkpt lat="36.9573949" lon="-3.8000025"><ele>956.75</ele><time>2026-03-07T09:08:39Z</time></trkpt><trkpt lat="36.9573492" lon="-3.8001577"><ele>956.0</ele><time>2026-03-07T09:08:40.002Z</time></trkpt><trkpt lat="36.9573001" lon="-3.8003129"><ele>955.75</ele><time>2026-03-07T09:08:41.019Z</time></trkpt><trkpt lat="36.9572547" lon="-3.8004724"><ele>955.5</ele><time>2026-03-07T09:08:42.006Z</time></trkpt><trkpt lat="36.9572191" lon="-3.8006432"><ele>955.25</ele><time>2026-03-07T09:08:43.012Z</time></trkpt><trkpt lat="36.9571785" lon="-3.8008183"><ele>955.0</ele><time>2026-03-07T09:08:44.015Z</time></trkpt><trkpt lat="36.9571337" lon="-3.8009924"><ele>954.5</ele><time>2026-03-07T09:08:45.011Z</time></trkpt><trkpt lat="36.9570894" lon="-3.8011615"><ele>954.0</ele><time>2026-03-07T09:08:46.008Z</time></trkpt><trkpt lat="36.9570409" lon="-3.8013238"><ele>953.5</ele><time>2026-03-07T09:08:47.009Z</time></trkpt><trkpt lat="36.956998" lon="-3.8014838"><ele>953.0</ele><time>2026-03-07T09:08:48.008Z</time></trkpt><trkpt lat="36.9569583" lon="-3.8016434"><ele>953.0</ele><time>2026-03-07T09:08:49.019Z</time></trkpt><trkpt lat="36.9569283" lon="-3.8018039"><ele>953.0</ele><time>2026-03-07T09:08:50.012Z</time></trkpt><trkpt lat="36.9568935" lon="-3.8019627"><ele>953.0</ele><time>2026-03-07T09:08:51.004Z</time></trkpt><trkpt lat="36.9568509" lon="-3.8021194"><ele>953.0</ele><time>2026-03-07T09:08:52.009Z</time></trkpt><trkpt lat="36.9568199" lon="-3.8022825"><ele>952.75</ele><time>2026-03-07T09:08:53.012Z</time></trkpt><trkpt lat="36.956786" lon="-3.8024465"><ele>952.5</ele><time>2026-03-07T09:08:54.011Z</time></trkpt><trkpt lat="36.9567547" lon="-3.8026114"><ele>952.25</ele><time>2026-03-07T09:08:55.009Z</time></trkpt><trkpt lat="36.9567215" lon="-3.8027683"><ele>952.0</ele><time>2026-03-07T09:08:56.005Z</time></trkpt><trkpt lat="36.9566887" lon="-3.8029117"><ele>952.0</ele><time>2026-03-07T09:08:57.006Z</time></trkpt><trkpt lat="36.9566473" lon="-3.803037"><ele>952.0</ele><time>2026-03-07T09:08:58.027Z</time></trkpt><trkpt lat="36.956592" lon="-3.8031488"><ele>952.0</ele><time>2026-03-07T09:08:59.007Z</time></trkpt><trkpt lat="36.9565322" lon="-3.8032559"><ele>952.0</ele><time>2026-03-07T09:09:00.016Z</time></trkpt><trkpt lat="36.9564672" lon="-3.8033699"><ele>952.0</ele><time>2026-03-07T09:09:01.008Z</time></trkpt><trkpt lat="36.9563929" lon="-3.8035095"><ele>953.3333333333333</ele><time>2026-03-07T09:09:02.012Z</time></trkpt><trkpt lat="36.9563014" lon="-3.8036592"><ele>954.6666666666667</ele><time>2026-03-07T09:09:03.01Z</time></trkpt><trkpt lat="36.9562105" lon="-3.80382"><ele>956.0</ele><time>2026-03-07T09:09:04.005Z</time></trkpt><trkpt lat="36.9561268" lon="-3.8039968"><ele>956.0</ele><time>2026-03-07T09:09:05.012Z</time></trkpt><trkpt lat="36.956042" lon="-3.8041657"><ele>956.0</ele><time>2026-03-07T09:09:05.999Z</time></trkpt><trkpt lat="36.9559618" lon="-3.8043276"><ele>956.0</ele><time>2026-03-07T09:09:07.006Z</time></trkpt><trkpt lat="36.955886" lon="-3.8044891"><ele>955.0</ele><time>2026-03-07T09:09:08.004Z</time></trkpt><trkpt lat="36.9558111" lon="-3.8046457"><ele>954.0</ele><time>2026-03-07T09:09:09.005Z</time></trkpt><trkpt lat="36.9557281" lon="-3.804781"><ele>953.0</ele><time>2026-03-07T09:09:10.012Z</time></trkpt><trkpt lat="36.9556394" lon="-3.8049217"><ele>952.0</ele><time>2026-03-07T09:09:11.012Z</time></trkpt><trkpt lat="36.9555279" lon="-3.8050563"><ele>952.6666666666666</ele><time>2026-03-07T09:09:12.001Z</time></trkpt><trkpt lat="36.9554151" lon="-3.8051951"><ele>953.3333333333333</ele><time>2026-03-07T09:09:13.023Z</time></trkpt><trkpt lat="36.9552995" lon="-3.8053397"><ele>954.0</ele><time>2026-03-07T09:09:14.01Z</time></trkpt><trkpt lat="36.9551777" lon="-3.805486"><ele>954.0</ele><time>2026-03-07T09:09:15.004Z</time></trkpt><trkpt lat="36.9550568" lon="-3.8056397"><ele>954.0</ele><time>2026-03-07T09:09:16.016Z</time></trkpt><trkpt lat="36.9549313" lon="-3.8057924"><ele>954.0</ele><time>2026-03-07T09:09:17.013Z</time></trkpt><trkpt lat="36.9548025" lon="-3.8059435"><ele>952.0</ele><time>2026-03-07T09:09:18.006Z</time></trkpt><trkpt lat="36.9546722" lon="-3.8061001"><ele>950.0</ele><time>2026-03-07T09:09:19.009Z</time></trkpt><trkpt lat="36.9545398" lon="-3.8062522"><ele>948.0</ele><time>2026-03-07T09:09:20.006Z</time></trkpt><trkpt lat="36.9544112" lon="-3.8064073"><ele>948.0</ele><time>2026-03-07T09:09:21.008Z</time></trkpt><trkpt lat="36.9542904" lon="-3.8065738"><ele>948.0</ele><time>2026-03-07T09:09:22.018Z</time></trkpt><trkpt lat="36.9541758" lon="-3.8067516"><ele>948.0</ele><time>2026-03-07T09:09:23.013Z</time></trkpt><trkpt lat="36.9540603" lon="-3.8069335"><ele>947.0</ele><time>2026-03-07T09:09:24.001Z</time></trkpt><trkpt lat="36.9539419" lon="-3.8071128"><ele>946.0</ele><time>2026-03-07T09:09:25.01Z</time></trkpt><trkpt lat="36.9538043" lon="-3.8072722"><ele>945.0</ele><time>2026-03-07T09:09:26.009Z</time></trkpt><trkpt lat="36.9536664" lon="-3.807432"><ele>945.0</ele><time>2026-03-07T09:09:27.008Z</time></trkpt><trkpt lat="36.9535258" lon="-3.80759"><ele>945.0</ele><time>2026-03-07T09:09:28.016Z</time></trkpt><trkpt lat="36.9533846" lon="-3.8077503"><ele>945.0</ele><time>2026-03-07T09:09:29.009Z</time></trkpt><trkpt lat="36.9532439" lon="-3.8079076"><ele>944.0</ele><time>2026-03-07T09:09:30.014Z</time></trkpt><trkpt lat="36.9531042" lon="-3.8080618"><ele>943.0</ele><time>2026-03-07T09:09:31.023Z</time></trkpt><trkpt lat="36.952964" lon="-3.8082095"><ele>942.0</ele><time>2026-03-07T09:09:32.037Z</time></trkpt><trkpt lat="36.9528257" lon="-3.8083515"><ele>942.0</ele><time>2026-03-07T09:09:33.007Z</time></trkpt><trkpt lat="36.9526859" lon="-3.8084893"><ele>942.0</ele><time>2026-03-07T09:09:34.008Z</time></trkpt><trkpt lat="36.9525484" lon="-3.8086283"><ele>942.0</ele><time>2026-03-07T09:09:35.004Z</time></trkpt><trkpt lat="36.9524192" lon="-3.8087765"><ele>940.6666666666667</ele><time>2026-03-07T09:09:36.003Z</time></trkpt><trkpt lat="36.9522925" lon="-3.808928"><ele>939.3333333333334</ele><time>2026-03-07T09:09:37.017Z</time></trkpt><trkpt lat="36.9521644" lon="-3.8090914"><ele>938.0</ele><time>2026-03-07T09:09:38.023Z</time></trkpt><trkpt lat="36.9520317" lon="-3.8092535"><ele>939.3333333333334</ele><time>2026-03-07T09:09:39.01Z</time></trkpt><trkpt lat="36.9518996" lon="-3.8094162"><ele>940.6666666666667</ele><time>2026-03-07T09:09:39.998Z</time></trkpt><trkpt lat="36.9517675" lon="-3.8095746"><ele>942.0</ele><time>2026-03-07T09:09:41.021Z</time></trkpt><trkpt lat="36.9516389" lon="-3.8097331"><ele>940.6666666666667</ele><time>2026-03-07T09:09:42.026Z</time></trkpt><trkpt lat="36.9515072" lon="-3.8098819"><ele>939.3333333333334</ele><time>2026-03-07T09:09:43.011Z</time></trkpt><trkpt lat="36.9513753" lon="-3.8100343"><ele>938.0</ele><time>2026-03-07T09:09:44.011Z</time></trkpt><trkpt lat="36.9512425" lon="-3.8101876"><ele>938.0</ele><time>2026-03-07T09:09:45.011Z</time></trkpt><trkpt lat="36.9511102" lon="-3.8103311"><ele>938.0</ele><time>2026-03-07T09:09:46.011Z</time></trkpt><trkpt lat="36.9509901" lon="-3.8104762"><ele>938.0</ele><time>2026-03-07T09:09:47.005Z</time></trkpt><trkpt lat="36.9508831" lon="-3.8106194"><ele>936.25</ele><time>2026-03-07T09:09:48.005Z</time></trkpt><trkpt lat="36.9507829" lon="-3.8107548"><ele>934.5</ele><time>2026-03-07T09:09:49.01Z</time></trkpt><trkpt lat="36.9506943" lon="-3.8108828"><ele>932.75</ele><time>2026-03-07T09:09:50.001Z</time></trkpt><trkpt lat="36.9506154" lon="-3.8110055"><ele>931.0</ele><time>2026-03-07T09:09:50.995Z</time></trkpt><trkpt lat="36.9505428" lon="-3.8111192"><ele>930.9999999999999</ele><time>2026-03-07T09:09:52.009Z</time></trkpt><trkpt lat="36.9504758" lon="-3.8112094"><ele>931.0</ele><time>2026-03-07T09:09:53.008Z</time></trkpt><trkpt lat="36.9504216" lon="-3.8112932"><ele>931.0</ele><time>2026-03-07T09:09:53.996Z</time></trkpt><trkpt lat="36.9503737" lon="-3.8113481"><ele>931.0</ele><time>2026-03-07T09:09:54.999Z</time></trkpt><trkpt lat="36.95029" lon="-3.8113509"><ele>930.9999999999999</ele><time>2026-03-07T09:09:57.006Z</time></trkpt><trkpt lat="36.9502237" lon="-3.8112797"><ele>931.0</ele><time>2026-03-07T09:09:59.015Z</time></trkpt><trkpt lat="36.9501446" lon="-3.8111929"><ele>930.9999999999999</ele><time>2026-03-07T09:10:01.019Z</time></trkpt><trkpt lat="36.9501032" lon="-3.8111196"><ele>931.0</ele><time>2026-03-07T09:10:02.013Z</time></trkpt><trkpt lat="36.9500761" lon="-3.8110298"><ele>931.0</ele><time>2026-03-07T09:10:03.021Z</time></trkpt><trkpt lat="36.9500367" lon="-3.8109379"><ele>931.0</ele><time>2026-03-07T09:10:04.009Z</time></trkpt><trkpt lat="36.949984" lon="-3.8108354"><ele>930.9999999999999</ele><time>2026-03-07T09:10:05.012Z</time></trkpt><trkpt lat="36.9499098" lon="-3.8107371"><ele>931.0</ele><time>2026-03-07T09:10:06.014Z</time></trkpt><trkpt lat="36.9498204" lon="-3.8106517"><ele>928.5</ele><time>2026-03-07T09:10:07.006Z</time></trkpt><trkpt lat="36.9497219" lon="-3.8105793"><ele>926.0</ele><time>2026-03-07T09:10:08.005Z</time></trkpt><trkpt lat="36.9496216" lon="-3.8105003"><ele>923.5</ele><time>2026-03-07T09:10:09.011Z</time></trkpt><trkpt lat="36.9495137" lon="-3.8104145"><ele>921.0</ele><time>2026-03-07T09:10:10.01Z</time></trkpt><trkpt lat="36.9494068" lon="-3.8103102"><ele>921.0</ele><time>2026-03-07T09:10:10.999Z</time></trkpt><trkpt lat="36.9492985" lon="-3.8102001"><ele>921.0</ele><time>2026-03-07T09:10:12.007Z</time></trkpt><trkpt lat="36.9492006" lon="-3.8100677"><ele>921.0</ele><time>2026-03-07T09:10:13.011Z</time></trkpt><trkpt lat="36.9491133" lon="-3.8099214"><ele>921.0</ele><time>2026-03-07T09:10:14.015Z</time></trkpt><trkpt lat="36.9490314" lon="-3.8097702"><ele>921.5</ele><time>2026-03-07T09:10:15.005Z</time></trkpt><trkpt lat="36.9489601" lon="-3.8096141"><ele>922.0</ele><time>2026-03-07T09:10:16.01Z</time></trkpt><trkpt lat="36.9489102" lon="-3.8094501"><ele>922.5</ele><time>2026-03-07T09:10:17.006Z</time></trkpt><trkpt lat="36.9488715" lon="-3.8092923"><ele>923.0</ele><time>2026-03-07T09:10:17.995Z</time></trkpt><trkpt lat="36.9488455" lon="-3.809131"><ele>924.4</ele><time>2026-03-07T09:10:19.009Z</time></trkpt><trkpt lat="36.9488238" lon="-3.8089724"><ele>925.8</ele><time>2026-03-07T09:10:19.996Z</time></trkpt><trkpt lat="36.948803" lon="-3.8088274"><ele>927.2</ele><time>2026-03-07T09:10:21.004Z</time></trkpt><trkpt lat="36.9487761" lon="-3.8086988"><ele>928.6</ele><time>2026-03-07T09:10:22.007Z</time></trkpt><trkpt lat="36.9487552" lon="-3.8085928"><ele>930.0</ele><time>2026-03-07T09:10:23.001Z</time></trkpt><trkpt lat="36.9487337" lon="-3.808508"><ele>931.0</ele><time>2026-03-07T09:10:23.998Z</time></trkpt><trkpt lat="36.9486773" lon="-3.8083947"><ele>932.0</ele><time>2026-03-07T09:10:25.994Z</time></trkpt><trkpt lat="36.9486129" lon="-3.8083158"><ele>933.0</ele><time>2026-03-07T09:10:28.011Z</time></trkpt><trkpt lat="36.948552" lon="-3.8082415"><ele>934.0</ele><time>2026-03-07T09:10:30.003Z</time></trkpt><trkpt lat="36.9485116" lon="-3.808167"><ele>935.0</ele><time>2026-03-07T09:10:32.021Z</time></trkpt><trkpt lat="36.9485048" lon="-3.8080543"><ele>936.0</ele><time>2026-03-07T09:14:40.032Z</time></trkpt><trkpt lat="36.9485288" lon="-3.8079414"><ele>936.0</ele><time>2026-03-07T09:16:51.993Z</time></trkpt><trkpt lat="36.9485241" lon="-3.8078277"><ele>935.9999999999999</ele><time>2026-03-07T09:16:57.018Z</time></trkpt><trkpt lat="36.9485059" lon="-3.8077421"><ele>935.9999999999999</ele><time>2026-03-07T09:16:58.022Z</time></trkpt><trkpt lat="36.9484857" lon="-3.8076389"><ele>936.0</ele><time>2026-03-07T09:16:59.05Z</time></trkpt><trkpt lat="36.9484629" lon="-3.8075113"><ele>936.0</ele><time>2026-03-07T09:17:00.022Z</time></trkpt><trkpt lat="36.9484415" lon="-3.8073642"><ele>937.0</ele><time>2026-03-07T09:17:01.007Z</time></trkpt><trkpt lat="36.9484147" lon="-3.8071962"><ele>938.0</ele><time>2026-03-07T09:17:02.02Z</time></trkpt><trkpt lat="36.9483813" lon="-3.8070152"><ele>939.0</ele><time>2026-03-07T09:17:03.024Z</time></trkpt><trkpt lat="36.9483357" lon="-3.8068259"><ele>940.0</ele><time>2026-03-07T09:17:04.029Z</time></trkpt><trkpt lat="36.9482891" lon="-3.8066308"><ele>936.3333333333333</ele><time>2026-03-07T09:17:05.008Z</time></trkpt><trkpt lat="36.9482332" lon="-3.8064273"><ele>932.6666666666667</ele><time>2026-03-07T09:17:06.023Z</time></trkpt><trkpt lat="36.948169" lon="-3.806218"><ele>929.0</ele><time>2026-03-07T09:17:07.002Z</time></trkpt><trkpt lat="36.9480871" lon="-3.8060191"><ele>930.6666666666667</ele><time>2026-03-07T09:17:08.001Z</time></trkpt><trkpt lat="36.9479988" lon="-3.8058231"><ele>932.3333333333333</ele><time>2026-03-07T09:17:09.025Z</time></trkpt><trkpt lat="36.9479188" lon="-3.80562"><ele>934.0</ele><time>2026-03-07T09:17:10.011Z</time></trkpt><trkpt lat="36.9478467" lon="-3.8054107"><ele>934.0</ele><time>2026-03-07T09:17:11.011Z</time></trkpt><trkpt lat="36.9477754" lon="-3.8051988"><ele>934.0</ele><time>2026-03-07T09:17:12.014Z</time></trkpt><trkpt lat="36.9477013" lon="-3.8049847"><ele>934.0</ele><time>2026-03-07T09:17:12.99Z</time></trkpt><trkpt lat="36.947624" lon="-3.8047675"><ele>935.6666666666666</ele><time>2026-03-07T09:17:14.025Z</time></trkpt><trkpt lat="36.9475516" lon="-3.8045445"><ele>937.3333333333333</ele><time>2026-03-07T09:17:14.999Z</time></trkpt><trkpt lat="36.947481" lon="-3.804321"><ele>939.0</ele><time>2026-03-07T09:17:16.002Z</time></trkpt><trkpt lat="36.9474074" lon="-3.8041042"><ele>939.0</ele><time>2026-03-07T09:17:16.995Z</time></trkpt><trkpt lat="36.9473459" lon="-3.8038838"><ele>939.0</ele><time>2026-03-07T09:17:18.01Z</time></trkpt><trkpt lat="36.9473173" lon="-3.8036448"><ele>939.0</ele><time>2026-03-07T09:17:19.019Z</time></trkpt><trkpt lat="36.9473122" lon="-3.803395"><ele>939.6666666666667</ele><time>2026-03-07T09:17:20.003Z</time></trkpt><trkpt lat="36.9473064" lon="-3.8031467"><ele>940.3333333333334</ele><time>2026-03-07T09:17:21.012Z</time></trkpt><trkpt lat="36.947301" lon="-3.8029004"><ele>941.0</ele><time>2026-03-07T09:17:22.01Z</time></trkpt><trkpt lat="36.947306" lon="-3.8026513"><ele>941.3333333333334</ele><time>2026-03-07T09:17:23.01Z</time></trkpt><trkpt lat="36.9473091" lon="-3.8024034"><ele>941.6666666666667</ele><time>2026-03-07T09:17:24.007Z</time></trkpt><trkpt lat="36.9473034" lon="-3.8021547"><ele>942.0</ele><time>2026-03-07T09:17:25.007Z</time></trkpt><trkpt lat="36.947295" lon="-3.8019027"><ele>942.6666666666667</ele><time>2026-03-07T09:17:26.02Z</time></trkpt><trkpt lat="36.9472966" lon="-3.801646"><ele>943.3333333333334</ele><time>2026-03-07T09:17:27Z</time></trkpt><trkpt lat="36.9472851" lon="-3.8013917"><ele>944.0</ele><time>2026-03-07T09:17:28.014Z</time></trkpt><trkpt lat="36.9473118" lon="-3.801133"><ele>945.3333333333334</ele><time>2026-03-07T09:17:29.015Z</time></trkpt><trkpt lat="36.9473008" lon="-3.8008745"><ele>946.6666666666667</ele><time>2026-03-07T09:17:30.009Z</time></trkpt><trkpt lat="36.9473108" lon="-3.8006133"><ele>948.0</ele><time>2026-03-07T09:17:31.009Z</time></trkpt><trkpt lat="36.9473087" lon="-3.8003462"><ele>948.6666666666667</ele><time>2026-03-07T09:17:32.02Z</time></trkpt><trkpt lat="36.9472868" lon="-3.8000759"><ele>949.3333333333334</ele><time>2026-03-07T09:17:33.068Z</time></trkpt><trkpt lat="36.9472607" lon="-3.799829"><ele>950.0</ele><time>2026-03-07T09:17:34.01Z</time></trkpt><trkpt lat="36.947253" lon="-3.7996311"><ele>950.0</ele><time>2026-03-07T09:17:35.007Z</time></trkpt><trkpt lat="36.9472618" lon="-3.7994747"><ele>950.0</ele><time>2026-03-07T09:17:36.006Z</time></trkpt><trkpt lat="36.947268" lon="-3.7993469"><ele>950.0</ele><time>2026-03-07T09:17:37.008Z</time></trkpt><trkpt lat="36.9472776" lon="-3.7992282"><ele>950.0</ele><time>2026-03-07T09:17:38.002Z</time></trkpt><trkpt lat="36.9472794" lon="-3.7991093"><ele>950.0</ele><time>2026-03-07T09:17:39Z</time></trkpt><trkpt lat="36.9472757" lon="-3.7989849"><ele>950.0</ele><time>2026-03-07T09:17:40.005Z</time></trkpt><trkpt lat="36.9472765" lon="-3.7988478"><ele>950.0</ele><time>2026-03-07T09:17:41.02Z</time></trkpt><trkpt lat="36.94728" lon="-3.7987009"><ele>950.0</ele><time>2026-03-07T09:17:42.006Z</time></trkpt><trkpt lat="36.9473245" lon="-3.7985488"><ele>950.0</ele><time>2026-03-07T09:17:43.002Z</time></trkpt><trkpt lat="36.9473775" lon="-3.7984091"><ele>950.2</ele><time>2026-03-07T09:17:44.007Z</time></trkpt><trkpt lat="36.9474244" lon="-3.7982895"><ele>950.4</ele><time>2026-03-07T09:17:45.014Z</time></trkpt><trkpt lat="36.9474679" lon="-3.7981855"><ele>950.5999999999999</ele><time>2026-03-07T09:17:46.021Z</time></trkpt><trkpt lat="36.9475143" lon="-3.7980899"><ele>950.8</ele><time>2026-03-07T09:17:47.007Z</time></trkpt><trkpt lat="36.9475644" lon="-3.7979975"><ele>951.0</ele><time>2026-03-07T09:17:48.006Z</time></trkpt><trkpt lat="36.9476195" lon="-3.7979071"><ele>953.4</ele><time>2026-03-07T09:17:49.007Z</time></trkpt><trkpt lat="36.9476806" lon="-3.7978197"><ele>955.8</ele><time>2026-03-07T09:17:50.011Z</time></trkpt><trkpt lat="36.9477403" lon="-3.7977321"><ele>958.1999999999999</ele><time>2026-03-07T09:17:51.009Z</time></trkpt><trkpt lat="36.9478078" lon="-3.7976578"><ele>960.5999999999999</ele><time>2026-03-07T09:17:52.011Z</time></trkpt><trkpt lat="36.9478786" lon="-3.7975848"><ele>963.0</ele><time>2026-03-07T09:17:53.007Z</time></trkpt><trkpt lat="36.9479564" lon="-3.7975001"><ele>963.0</ele><time>2026-03-07T09:17:54.001Z</time></trkpt><trkpt lat="36.9480492" lon="-3.7974038"><ele>963.0</ele><time>2026-03-07T09:17:55Z</time></trkpt><trkpt lat="36.9481553" lon="-3.797292"><ele>963.0</ele><time>2026-03-07T09:17:56.004Z</time></trkpt><trkpt lat="36.9482738" lon="-3.797171"><ele>963.0</ele><time>2026-03-07T09:17:57.021Z</time></trkpt><trkpt lat="36.9483926" lon="-3.7970076"><ele>966.3333333333333</ele><time>2026-03-07T09:17:58.002Z</time></trkpt><trkpt lat="36.9485349" lon="-3.7968756"><ele>969.6666666666666</ele><time>2026-03-07T09:17:59.014Z</time></trkpt><trkpt lat="36.9486741" lon="-3.7967408"><ele>973.0</ele><time>2026-03-07T09:18:00.009Z</time></trkpt><trkpt lat="36.9488102" lon="-3.7966047"><ele>973.0</ele><time>2026-03-07T09:18:01Z</time></trkpt><trkpt lat="36.9489412" lon="-3.796465"><ele>973.0</ele><time>2026-03-07T09:18:01.997Z</time></trkpt><trkpt lat="36.9490684" lon="-3.7963232"><ele>973.0</ele><time>2026-03-07T09:18:03.01Z</time></trkpt><trkpt lat="36.949182" lon="-3.7961675"><ele>978.0</ele><time>2026-03-07T09:18:04.018Z</time></trkpt><trkpt lat="36.9492924" lon="-3.7960033"><ele>983.0</ele><time>2026-03-07T09:18:04.989Z</time></trkpt><trkpt lat="36.9494068" lon="-3.7958436"><ele>988.0</ele><time>2026-03-07T09:18:06.011Z</time></trkpt><trkpt lat="36.9495099" lon="-3.7956676"><ele>988.0</ele><time>2026-03-07T09:18:07.005Z</time></trkpt><trkpt lat="36.9496064" lon="-3.7954861"><ele>988.0</ele><time>2026-03-07T09:18:08.019Z</time></trkpt><trkpt lat="36.9497027" lon="-3.7953049"><ele>988.0</ele><time>2026-03-07T09:18:09.006Z</time></trkpt><trkpt lat="36.9497911" lon="-3.7951226"><ele>986.0</ele><time>2026-03-07T09:18:10.006Z</time></trkpt><trkpt lat="36.9498812" lon="-3.7949492"><ele>984.0</ele><time>2026-03-07T09:18:11.003Z</time></trkpt><trkpt lat="36.9499616" lon="-3.7947798"><ele>982.0</ele><time>2026-03-07T09:18:12.026Z</time></trkpt><trkpt lat="36.9500382" lon="-3.7946099"><ele>984.0</ele><time>2026-03-07T09:18:13.007Z</time></trkpt><trkpt lat="36.9501204" lon="-3.7944245"><ele>986.0</ele><time>2026-03-07T09:18:14.001Z</time></trkpt><trkpt lat="36.9502106" lon="-3.7942256"><ele>988.0</ele><time>2026-03-07T09:18:15Z</time></trkpt><trkpt lat="36.9503036" lon="-3.7940225"><ele>988.0</ele><time>2026-03-07T09:18:16.024Z</time></trkpt><trkpt lat="36.950412" lon="-3.7938203"><ele>988.0</ele><time>2026-03-07T09:18:17.002Z</time></trkpt><trkpt lat="36.9505274" lon="-3.7936158"><ele>988.0</ele><time>2026-03-07T09:18:18.006Z</time></trkpt><trkpt lat="36.9506469" lon="-3.7934152"><ele>989.0</ele><time>2026-03-07T09:18:19.014Z</time></trkpt><trkpt lat="36.9507924" lon="-3.7932308"><ele>990.0</ele><time>2026-03-07T09:18:20.008Z</time></trkpt><trkpt lat="36.95096" lon="-3.7930625"><ele>991.0</ele><time>2026-03-07T09:18:21.007Z</time></trkpt><trkpt lat="36.9511348" lon="-3.7929033"><ele>991.0</ele><time>2026-03-07T09:18:22.012Z</time></trkpt><trkpt lat="36.9513068" lon="-3.7927437"><ele>991.0</ele><time>2026-03-07T09:18:23.01Z</time></trkpt><trkpt lat="36.9514724" lon="-3.7925761"><ele>991.0</ele><time>2026-03-07T09:18:24.036Z</time></trkpt><trkpt lat="36.9516233" lon="-3.7923839"><ele>991.6666666666666</ele><time>2026-03-07T09:18:25.014Z</time></trkpt><trkpt lat="36.9517715" lon="-3.7921898"><ele>992.3333333333333</ele><time>2026-03-07T09:18:26.007Z</time></trkpt><trkpt lat="36.9518973" lon="-3.7919679"><ele>993.0</ele><time>2026-03-07T09:18:27.009Z</time></trkpt><trkpt lat="36.9520144" lon="-3.7917368"><ele>993.0</ele><time>2026-03-07T09:18:28.021Z</time></trkpt><trkpt lat="36.9521208" lon="-3.7915003"><ele>993.0</ele><time>2026-03-07T09:18:29.023Z</time></trkpt><trkpt lat="36.9522239" lon="-3.7912674"><ele>993.0</ele><time>2026-03-07T09:18:30.029Z</time></trkpt><trkpt lat="36.9523258" lon="-3.7910354"><ele>993.6666666666667</ele><time>2026-03-07T09:18:31.005Z</time></trkpt><trkpt lat="36.9524504" lon="-3.7908258"><ele>994.3333333333334</ele><time>2026-03-07T09:18:32.01Z</time></trkpt><trkpt lat="36.9525837" lon="-3.7906257"><ele>995.0</ele><time>2026-03-07T09:18:33.021Z</time></trkpt><trkpt lat="36.952729" lon="-3.7904363"><ele>997.0</ele><time>2026-03-07T09:18:34.008Z</time></trkpt><trkpt lat="36.9528837" lon="-3.7902512"><ele>999.0</ele><time>2026-03-07T09:18:35.011Z</time></trkpt><trkpt lat="36.9530603" lon="-3.7900823"><ele>1001.0</ele><time>2026-03-07T09:18:36.009Z</time></trkpt><trkpt lat="36.9532502" lon="-3.7899326"><ele>1007.5</ele><time>2026-03-07T09:18:37.02Z</time></trkpt><trkpt lat="36.9534491" lon="-3.7897834"><ele>1014.0</ele><time>2026-03-07T09:18:38.011Z</time></trkpt><trkpt lat="36.9536465" lon="-3.7896358"><ele>1014.0</ele><time>2026-03-07T09:18:39.004Z</time></trkpt><trkpt lat="36.9538407" lon="-3.7894928"><ele>1014.0</ele><time>2026-03-07T09:18:40.007Z</time></trkpt><trkpt lat="36.9540279" lon="-3.7893509"><ele>1014.0</ele><time>2026-03-07T09:18:41.005Z</time></trkpt><trkpt lat="36.9542053" lon="-3.7892"><ele>1017.3333333333333</ele><time>2026-03-07T09:18:42.003Z</time></trkpt><trkpt lat="36.9543744" lon="-3.7890405"><ele>1020.6666666666666</ele><time>2026-03-07T09:18:43.016Z</time></trkpt><trkpt lat="36.9545229" lon="-3.7888425"><ele>1024.0</ele><time>2026-03-07T09:18:44.011Z</time></trkpt><trkpt lat="36.9546643" lon="-3.7886348"><ele>1023.0</ele><time>2026-03-07T09:18:45.015Z</time></trkpt><trkpt lat="36.9547998" lon="-3.7884205"><ele>1022.0</ele><time>2026-03-07T09:18:46.004Z</time></trkpt><trkpt lat="36.9549317" lon="-3.7882003"><ele>1021.0</ele><time>2026-03-07T09:18:47.013Z</time></trkpt><trkpt lat="36.9550422" lon="-3.787965"><ele>1021.0</ele><time>2026-03-07T09:18:48.001Z</time></trkpt><trkpt lat="36.9551372" lon="-3.7877181"><ele>1021.0</ele><time>2026-03-07T09:18:49.016Z</time></trkpt><trkpt lat="36.9552299" lon="-3.7874682"><ele>1021.0</ele><time>2026-03-07T09:18:50.001Z</time></trkpt><trkpt lat="36.9553213" lon="-3.7872133"><ele>1021.0</ele><time>2026-03-07T09:18:51.014Z</time></trkpt><trkpt lat="36.9554088" lon="-3.786958"><ele>1021.0</ele><time>2026-03-07T09:18:52.005Z</time></trkpt><trkpt lat="36.9554945" lon="-3.786709"><ele>1021.0</ele><time>2026-03-07T09:18:53.013Z</time></trkpt><trkpt lat="36.9555714" lon="-3.7864667"><ele>1023.3333333333333</ele><time>2026-03-07T09:18:53.999Z</time></trkpt><trkpt lat="36.9556373" lon="-3.7862191"><ele>1025.6666666666667</ele><time>2026-03-07T09:18:55.007Z</time></trkpt><trkpt lat="36.9556891" lon="-3.7859629"><ele>1028.0</ele><time>2026-03-07T09:18:56.01Z</time></trkpt><trkpt lat="36.9557277" lon="-3.7857015"><ele>1031.3333333333335</ele><time>2026-03-07T09:18:57.016Z</time></trkpt><trkpt lat="36.9557646" lon="-3.7854382"><ele>1034.6666666666667</ele><time>2026-03-07T09:18:58.004Z</time></trkpt><trkpt lat="36.9557882" lon="-3.7851871"><ele>1038.0</ele><time>2026-03-07T09:18:59.015Z</time></trkpt><trkpt lat="36.9557998" lon="-3.7849393"><ele>1038.3333333333333</ele><time>2026-03-07T09:19:00.049Z</time></trkpt><trkpt lat="36.9557989" lon="-3.7846951"><ele>1038.6666666666665</ele><time>2026-03-07T09:19:01.014Z</time></trkpt><trkpt lat="36.9557748" lon="-3.78446"><ele>1039.0</ele><time>2026-03-07T09:19:01.998Z</time></trkpt><trkpt lat="36.9557429" lon="-3.7842378"><ele>1037.6666666666665</ele><time>2026-03-07T09:19:03.008Z</time></trkpt><trkpt lat="36.9556794" lon="-3.7840326"><ele>1036.3333333333333</ele><time>2026-03-07T09:19:04.012Z</time></trkpt><trkpt lat="36.9555559" lon="-3.7838619"><ele>1035.0</ele><time>2026-03-07T09:19:04.997Z</time></trkpt><trkpt lat="36.9554378" lon="-3.7836814"><ele>1035.0</ele><time>2026-03-07T09:19:06.017Z</time></trkpt><trkpt lat="36.9553017" lon="-3.7835196"><ele>1035.0</ele><time>2026-03-07T09:19:07.006Z</time></trkpt><trkpt lat="36.9551389" lon="-3.7834"><ele>1035.0</ele><time>2026-03-07T09:19:08.007Z</time></trkpt><trkpt lat="36.9549628" lon="-3.7833046"><ele>1034.3333333333333</ele><time>2026-03-07T09:19:09.004Z</time></trkpt><trkpt lat="36.9547879" lon="-3.7832235"><ele>1033.6666666666665</ele><time>2026-03-07T09:19:10.013Z</time></trkpt><trkpt lat="36.9546214" lon="-3.7831502"><ele>1033.0</ele><time>2026-03-07T09:19:11.021Z</time></trkpt><trkpt lat="36.9544569" lon="-3.7830582"><ele>1033.0</ele><time>2026-03-07T09:19:11.997Z</time></trkpt><trkpt lat="36.9542929" lon="-3.7829596"><ele>1033.0</ele><time>2026-03-07T09:19:13.005Z</time></trkpt><trkpt lat="36.9541553" lon="-3.7827781"><ele>1033.0</ele><time>2026-03-07T09:19:14.01Z</time></trkpt><trkpt lat="36.9540193" lon="-3.7825877"><ele>1034.6666666666665</ele><time>2026-03-07T09:19:15.004Z</time></trkpt><trkpt lat="36.9538923" lon="-3.7823817"><ele>1036.3333333333333</ele><time>2026-03-07T09:19:16.006Z</time></trkpt><trkpt lat="36.9537627" lon="-3.782178"><ele>1038.0</ele><time>2026-03-07T09:19:17.021Z</time></trkpt><trkpt lat="36.9536209" lon="-3.7819749"><ele>1039.3333333333333</ele><time>2026-03-07T09:19:18.011Z</time></trkpt><trkpt lat="36.9534801" lon="-3.7817625"><ele>1040.6666666666665</ele><time>2026-03-07T09:19:19.066Z</time></trkpt><trkpt lat="36.9533419" lon="-3.7815497"><ele>1042.0</ele><time>2026-03-07T09:19:20.006Z</time></trkpt><trkpt lat="36.9532128" lon="-3.781329"><ele>1042.0</ele><time>2026-03-07T09:19:21.009Z</time></trkpt><trkpt lat="36.953075" lon="-3.7811191"><ele>1042.0</ele><time>2026-03-07T09:19:22.01Z</time></trkpt><trkpt lat="36.9529482" lon="-3.7809078"><ele>1042.0</ele><time>2026-03-07T09:19:23.016Z</time></trkpt><trkpt lat="36.9528239" lon="-3.7806965"><ele>1042.0</ele><time>2026-03-07T09:19:24.01Z</time></trkpt><trkpt lat="36.9527028" lon="-3.7804802"><ele>1042.0</ele><time>2026-03-07T09:19:25.002Z</time></trkpt><trkpt lat="36.9525908" lon="-3.7802591"><ele>1042.0</ele><time>2026-03-07T09:19:26.014Z</time></trkpt><trkpt lat="36.9524822" lon="-3.7800333"><ele>1045.6666666666665</ele><time>2026-03-07T09:19:27.021Z</time></trkpt><trkpt lat="36.9524043" lon="-3.7797865"><ele>1049.3333333333333</ele><time>2026-03-07T09:19:28.011Z</time></trkpt><trkpt lat="36.9523428" lon="-3.7795341"><ele>1053.0</ele><time>2026-03-07T09:19:29.004Z</time></trkpt><trkpt lat="36.9522739" lon="-3.7792919"><ele>1058.6666666666667</ele><time>2026-03-07T09:19:30.002Z</time></trkpt><trkpt lat="36.952192" lon="-3.7790464"><ele>1064.3333333333335</ele><time>2026-03-07T09:19:31.003Z</time></trkpt><trkpt lat="36.9521007" lon="-3.7788027"><ele>1070.0</ele><time>2026-03-07T09:19:32.005Z</time></trkpt><trkpt lat="36.952007" lon="-3.7785594"><ele>1067.0</ele><time>2026-03-07T09:19:33.013Z</time></trkpt><trkpt lat="36.9519106" lon="-3.7783209"><ele>1064.0</ele><time>2026-03-07T09:19:34.018Z</time></trkpt><trkpt lat="36.9518095" lon="-3.778088"><ele>1061.0</ele><time>2026-03-07T09:19:34.999Z</time></trkpt><trkpt lat="36.9517034" lon="-3.7778587"><ele>1067.3333333333335</ele><time>2026-03-07T09:19:36.013Z</time></trkpt><trkpt lat="36.9515903" lon="-3.7776324"><ele>1073.6666666666667</ele><time>2026-03-07T09:19:37.007Z</time></trkpt><trkpt lat="36.9514732" lon="-3.7774047"><ele>1080.0</ele><time>2026-03-07T09:19:37.999Z</time></trkpt><trkpt lat="36.9513582" lon="-3.7771769"><ele>1080.0</ele><time>2026-03-07T09:19:39.001Z</time></trkpt><trkpt lat="36.9512439" lon="-3.7769497"><ele>1080.0</ele><time>2026-03-07T09:19:40.006Z</time></trkpt><trkpt lat="36.9511281" lon="-3.7767255"><ele>1080.0</ele><time>2026-03-07T09:19:41.018Z</time></trkpt><trkpt lat="36.951013" lon="-3.7765096"><ele>1077.3333333333333</ele><time>2026-03-07T09:19:41.999Z</time></trkpt><trkpt lat="36.9509" lon="-3.776307"><ele>1074.6666666666665</ele><time>2026-03-07T09:19:43.004Z</time></trkpt><trkpt lat="36.9507959" lon="-3.7761082"><ele>1072.0</ele><time>2026-03-07T09:19:44.012Z</time></trkpt><trkpt lat="36.9506891" lon="-3.7759288"><ele>1078.3333333333333</ele><time>2026-03-07T09:19:45.008Z</time></trkpt><trkpt lat="36.9505862" lon="-3.7757675"><ele>1084.6666666666667</ele><time>2026-03-07T09:19:46.024Z</time></trkpt><trkpt lat="36.9504786" lon="-3.7756342"><ele>1091.0</ele><time>2026-03-07T09:19:47.005Z</time></trkpt><trkpt lat="36.9503536" lon="-3.7755369"><ele>1091.0</ele><time>2026-03-07T09:19:48.01Z</time></trkpt><trkpt lat="36.9502153" lon="-3.7754724"><ele>1091.0</ele><time>2026-03-07T09:19:49.006Z</time></trkpt><trkpt lat="36.9500683" lon="-3.775459"><ele>1091.0</ele><time>2026-03-07T09:19:50.003Z</time></trkpt><trkpt lat="36.9499231" lon="-3.7754791"><ele>1091.0</ele><time>2026-03-07T09:19:51.017Z</time></trkpt><trkpt lat="36.9497845" lon="-3.7755509"><ele>1086.6666666666667</ele><time>2026-03-07T09:19:52.014Z</time></trkpt><trkpt lat="36.9496547" lon="-3.7756674"><ele>1082.3333333333333</ele><time>2026-03-07T09:19:53.003Z</time></trkpt><trkpt lat="36.9495552" lon="-3.7758301"><ele>1078.0</ele><time>2026-03-07T09:19:54.005Z</time></trkpt><trkpt lat="36.9494775" lon="-3.7760142"><ele>1077.0</ele><time>2026-03-07T09:19:55.013Z</time></trkpt><trkpt lat="36.949446" lon="-3.7762275"><ele>1076.0</ele><time>2026-03-07T09:19:56.001Z</time></trkpt><trkpt lat="36.9494272" lon="-3.7764576"><ele>1075.0</ele><time>2026-03-07T09:19:57.011Z</time></trkpt><trkpt lat="36.9494655" lon="-3.7766791"><ele>1076.3333333333333</ele><time>2026-03-07T09:19:58.015Z</time></trkpt><trkpt lat="36.9495235" lon="-3.7768937"><ele>1077.6666666666667</ele><time>2026-03-07T09:19:59.026Z</time></trkpt><trkpt lat="36.9495713" lon="-3.7771099"><ele>1079.0</ele><time>2026-03-07T09:20:00.023Z</time></trkpt><trkpt lat="36.9496195" lon="-3.7773207"><ele>1079.0</ele><time>2026-03-07T09:20:01.011Z</time></trkpt><trkpt lat="36.9496607" lon="-3.7775271"><ele>1079.0</ele><time>2026-03-07T09:20:02.025Z</time></trkpt><trkpt lat="36.949703" lon="-3.7777315"><ele>1079.0</ele><time>2026-03-07T09:20:03.007Z</time></trkpt><trkpt lat="36.9497432" lon="-3.777933"><ele>1078.5</ele><time>2026-03-07T09:20:04.01Z</time></trkpt><trkpt lat="36.9497799" lon="-3.7781252"><ele>1078.0</ele><time>2026-03-07T09:20:05.007Z</time></trkpt><trkpt lat="36.9497992" lon="-3.7783068"><ele>1077.5</ele><time>2026-03-07T09:20:06.006Z</time></trkpt><trkpt lat="36.9498059" lon="-3.7784816"><ele>1077.0</ele><time>2026-03-07T09:20:07.008Z</time></trkpt><trkpt lat="36.9497767" lon="-3.7786592"><ele>1077.0</ele><time>2026-03-07T09:20:08.008Z</time></trkpt><trkpt lat="36.9497499" lon="-3.7788323"><ele>1077.0</ele><time>2026-03-07T09:20:09.011Z</time></trkpt><trkpt lat="36.94969" lon="-3.7789796"><ele>1077.0</ele><time>2026-03-07T09:20:10.009Z</time></trkpt><trkpt lat="36.9495969" lon="-3.7790846"><ele>1077.0</ele><time>2026-03-07T09:20:11.012Z</time></trkpt><trkpt lat="36.9494908" lon="-3.7791799"><ele>1077.0</ele><time>2026-03-07T09:20:12.023Z</time></trkpt><trkpt lat="36.9493688" lon="-3.7792241"><ele>1077.0</ele><time>2026-03-07T09:20:13.014Z</time></trkpt><trkpt lat="36.9492387" lon="-3.7792253"><ele>1077.0</ele><time>2026-03-07T09:20:14.005Z</time></trkpt><trkpt lat="36.9490976" lon="-3.7791889"><ele>1077.0</ele><time>2026-03-07T09:20:15.004Z</time></trkpt><trkpt lat="36.9489688" lon="-3.7791143"><ele>1080.5</ele><time>2026-03-07T09:20:15.994Z</time></trkpt><trkpt lat="36.9488486" lon="-3.7790131"><ele>1084.0</ele><time>2026-03-07T09:20:17.007Z</time></trkpt><trkpt lat="36.9487602" lon="-3.7788705"><ele>1087.5</ele><time>2026-03-07T09:20:18.01Z</time></trkpt><trkpt lat="36.9487012" lon="-3.7787105"><ele>1091.0</ele><time>2026-03-07T09:20:19.013Z</time></trkpt><trkpt lat="36.9486577" lon="-3.7785431"><ele>1093.5</ele><time>2026-03-07T09:20:20.026Z</time></trkpt><trkpt lat="36.948621" lon="-3.7783712"><ele>1096.0</ele><time>2026-03-07T09:20:21Z</time></trkpt><trkpt lat="36.9485863" lon="-3.7782013"><ele>1098.5</ele><time>2026-03-07T09:20:22.005Z</time></trkpt><trkpt lat="36.9485657" lon="-3.7780267"><ele>1101.0</ele><time>2026-03-07T09:20:23.006Z</time></trkpt><trkpt lat="36.9485471" lon="-3.7778451"><ele>1101.0</ele><time>2026-03-07T09:20:24.021Z</time></trkpt><trkpt lat="36.9485335" lon="-3.7776597"><ele>1101.0</ele><time>2026-03-07T09:20:25.007Z</time></trkpt><trkpt lat="36.9485164" lon="-3.7774684"><ele>1101.0</ele><time>2026-03-07T09:20:26.011Z</time></trkpt><trkpt lat="36.9485014" lon="-3.7772773"><ele>1101.0</ele><time>2026-03-07T09:20:27.009Z</time></trkpt><trkpt lat="36.9484875" lon="-3.7770859"><ele>1101.0</ele><time>2026-03-07T09:20:28.008Z</time></trkpt><trkpt lat="36.9484901" lon="-3.77689"><ele>1101.0</ele><time>2026-03-07T09:20:29.005Z</time></trkpt><trkpt lat="36.9485045" lon="-3.7766911"><ele>1099.3333333333333</ele><time>2026-03-07T09:20:30.013Z</time></trkpt><trkpt lat="36.9485301" lon="-3.7764932"><ele>1097.6666666666665</ele><time>2026-03-07T09:20:31.009Z</time></trkpt><trkpt lat="36.9485631" lon="-3.7762938"><ele>1096.0</ele><time>2026-03-07T09:20:32.011Z</time></trkpt><trkpt lat="36.9486" lon="-3.7760957"><ele>1097.6666666666665</ele><time>2026-03-07T09:20:33.014Z</time></trkpt><trkpt lat="36.9486452" lon="-3.7759008"><ele>1099.3333333333333</ele><time>2026-03-07T09:20:34.014Z</time></trkpt><trkpt lat="36.9486918" lon="-3.7757051"><ele>1101.0</ele><time>2026-03-07T09:20:35.048Z</time></trkpt><trkpt lat="36.9487312" lon="-3.7755076"><ele>1101.0</ele><time>2026-03-07T09:20:36.012Z</time></trkpt><trkpt lat="36.9487702" lon="-3.7753134"><ele>1101.0</ele><time>2026-03-07T09:20:36.999Z</time></trkpt><trkpt lat="36.9488047" lon="-3.7751176"><ele>1101.0</ele><time>2026-03-07T09:20:38.013Z</time></trkpt><trkpt lat="36.948853" lon="-3.7749253"><ele>1104.0</ele><time>2026-03-07T09:20:39.013Z</time></trkpt><trkpt lat="36.9489038" lon="-3.7747369"><ele>1107.0</ele><time>2026-03-07T09:20:40.002Z</time></trkpt><trkpt lat="36.9489581" lon="-3.7745559"><ele>1110.0</ele><time>2026-03-07T09:20:41.009Z</time></trkpt><trkpt lat="36.949023" lon="-3.7743752"><ele>1112.6666666666667</ele><time>2026-03-07T09:20:42.005Z</time></trkpt><trkpt lat="36.9490751" lon="-3.774183"><ele>1115.3333333333335</ele><time>2026-03-07T09:20:43Z</time></trkpt><trkpt lat="36.9491081" lon="-3.7739813"><ele>1118.0</ele><time>2026-03-07T09:20:44.007Z</time></trkpt><trkpt lat="36.9491312" lon="-3.7737745"><ele>1118.0</ele><time>2026-03-07T09:20:45.006Z</time></trkpt><trkpt lat="36.9491536" lon="-3.7735648"><ele>1118.0</ele><time>2026-03-07T09:20:46.019Z</time></trkpt><trkpt lat="36.9491699" lon="-3.7733541"><ele>1118.0</ele><time>2026-03-07T09:20:47.016Z</time></trkpt><trkpt lat="36.949168" lon="-3.7731405"><ele>1119.3333333333335</ele><time>2026-03-07T09:20:48.003Z</time></trkpt><trkpt lat="36.9491641" lon="-3.7729232"><ele>1120.6666666666667</ele><time>2026-03-07T09:20:49.014Z</time></trkpt><trkpt lat="36.9491571" lon="-3.7727068"><ele>1122.0</ele><time>2026-03-07T09:20:50.003Z</time></trkpt><trkpt lat="36.9491567" lon="-3.772492"><ele>1124.0</ele><time>2026-03-07T09:20:51.006Z</time></trkpt><trkpt lat="36.9491612" lon="-3.7722814"><ele>1126.0</ele><time>2026-03-07T09:20:52.01Z</time></trkpt><trkpt lat="36.9491816" lon="-3.772068"><ele>1128.0</ele><time>2026-03-07T09:20:53.013Z</time></trkpt><trkpt lat="36.9492115" lon="-3.7718523"><ele>1129.6666666666667</ele><time>2026-03-07T09:20:54.004Z</time></trkpt><trkpt lat="36.9492496" lon="-3.771638"><ele>1131.3333333333335</ele><time>2026-03-07T09:20:55.009Z</time></trkpt><trkpt lat="36.9492954" lon="-3.771423"><ele>1133.0</ele><time>2026-03-07T09:20:56.007Z</time></trkpt><trkpt lat="36.949357" lon="-3.771212"><ele>1131.6666666666667</ele><time>2026-03-07T09:20:57.01Z</time></trkpt><trkpt lat="36.949427" lon="-3.7709992"><ele>1130.3333333333333</ele><time>2026-03-07T09:20:58.013Z</time></trkpt><trkpt lat="36.9495036" lon="-3.7707884"><ele>1129.0</ele><time>2026-03-07T09:20:59.002Z</time></trkpt><trkpt lat="36.949591" lon="-3.7705859"><ele>1129.0</ele><time>2026-03-07T09:21:00.014Z</time></trkpt><trkpt lat="36.9496676" lon="-3.7703836"><ele>1129.0</ele><time>2026-03-07T09:21:01.006Z</time></trkpt><trkpt lat="36.9497434" lon="-3.7701879"><ele>1129.0</ele><time>2026-03-07T09:21:02.017Z</time></trkpt><trkpt lat="36.9497994" lon="-3.7699765"><ele>1130.6666666666665</ele><time>2026-03-07T09:21:03.019Z</time></trkpt><trkpt lat="36.9498719" lon="-3.7697793"><ele>1132.3333333333333</ele><time>2026-03-07T09:21:04.001Z</time></trkpt><trkpt lat="36.9499341" lon="-3.7695778"><ele>1134.0</ele><time>2026-03-07T09:21:04.996Z</time></trkpt><trkpt lat="36.949976" lon="-3.7693677"><ele>1136.0</ele><time>2026-03-07T09:21:06.002Z</time></trkpt><trkpt lat="36.9499984" lon="-3.769154"><ele>1138.0</ele><time>2026-03-07T09:21:07.015Z</time></trkpt><trkpt lat="36.9500199" lon="-3.7689405"><ele>1140.0</ele><time>2026-03-07T09:21:08.009Z</time></trkpt><trkpt lat="36.9500031" lon="-3.7687304"><ele>1140.6666666666667</ele><time>2026-03-07T09:21:09.009Z</time></trkpt><trkpt lat="36.9499921" lon="-3.7685243"><ele>1141.3333333333335</ele><time>2026-03-07T09:21:10.006Z</time></trkpt><trkpt lat="36.9500141" lon="-3.7683205"><ele>1142.0</ele><time>2026-03-07T09:21:11.007Z</time></trkpt><trkpt lat="36.9500476" lon="-3.768117"><ele>1142.0</ele><time>2026-03-07T09:21:12Z</time></trkpt><trkpt lat="36.950072" lon="-3.7679087"><ele>1142.0</ele><time>2026-03-07T09:21:13.001Z</time></trkpt><trkpt lat="36.9501129" lon="-3.7677047"><ele>1142.0</ele><time>2026-03-07T09:21:14.006Z</time></trkpt><trkpt lat="36.9501579" lon="-3.7675069"><ele>1145.3333333333335</ele><time>2026-03-07T09:21:15Z</time></trkpt><trkpt lat="36.9501836" lon="-3.7673093"><ele>1148.6666666666667</ele><time>2026-03-07T09:21:16.017Z</time></trkpt><trkpt lat="36.9502018" lon="-3.7671108"><ele>1152.0</ele><time>2026-03-07T09:21:17.003Z</time></trkpt><trkpt lat="36.9502282" lon="-3.7669084"><ele>1154.6666666666667</ele><time>2026-03-07T09:21:18.018Z</time></trkpt><trkpt lat="36.9502384" lon="-3.7666993"><ele>1157.3333333333335</ele><time>2026-03-07T09:21:19.005Z</time></trkpt><trkpt lat="36.9502311" lon="-3.7664874"><ele>1160.0</ele><time>2026-03-07T09:21:20.001Z</time></trkpt><trkpt lat="36.9502158" lon="-3.7662762"><ele>1160.0</ele><time>2026-03-07T09:21:20.998Z</time></trkpt><trkpt lat="36.9501849" lon="-3.7660663"><ele>1160.0</ele><time>2026-03-07T09:21:22.004Z</time></trkpt><trkpt lat="36.9501327" lon="-3.7658567"><ele>1160.0</ele><time>2026-03-07T09:21:23.002Z</time></trkpt><trkpt lat="36.9500567" lon="-3.7656601"><ele>1162.6666666666667</ele><time>2026-03-07T09:21:24.017Z</time></trkpt><trkpt lat="36.9499689" lon="-3.7654685"><ele>1165.3333333333333</ele><time>2026-03-07T09:21:25.01Z</time></trkpt><trkpt lat="36.9498787" lon="-3.7652806"><ele>1168.0</ele><time>2026-03-07T09:21:26.013Z</time></trkpt><trkpt lat="36.9497834" lon="-3.7650935"><ele>1170.3333333333333</ele><time>2026-03-07T09:21:27.004Z</time></trkpt><trkpt lat="36.9497251" lon="-3.7648839"><ele>1172.6666666666667</ele><time>2026-03-07T09:21:28.002Z</time></trkpt><trkpt lat="36.9496774" lon="-3.7646627"><ele>1175.0</ele><time>2026-03-07T09:21:29.008Z</time></trkpt><trkpt lat="36.949639" lon="-3.7644368"><ele>1175.6666666666667</ele><time>2026-03-07T09:21:29.999Z</time></trkpt><trkpt lat="36.9496029" lon="-3.7642069"><ele>1176.3333333333333</ele><time>2026-03-07T09:21:31.005Z</time></trkpt><trkpt lat="36.9495684" lon="-3.7639753"><ele>1177.0</ele><time>2026-03-07T09:21:32.001Z</time></trkpt><trkpt lat="36.9495221" lon="-3.7637434"><ele>1177.3333333333333</ele><time>2026-03-07T09:21:33.005Z</time></trkpt><trkpt lat="36.9494778" lon="-3.7635081"><ele>1177.6666666666667</ele><time>2026-03-07T09:21:34.002Z</time></trkpt><trkpt lat="36.9494446" lon="-3.7632825"><ele>1178.0</ele><time>2026-03-07T09:21:35.01Z</time></trkpt><trkpt lat="36.9494042" lon="-3.7630675"><ele>1178.0</ele><time>2026-03-07T09:21:36.02Z</time></trkpt><trkpt lat="36.9493511" lon="-3.7628571"><ele>1178.0</ele><time>2026-03-07T09:21:37.004Z</time></trkpt><trkpt lat="36.9492799" lon="-3.7626495"><ele>1178.0</ele><time>2026-03-07T09:21:38.01Z</time></trkpt><trkpt lat="36.9491805" lon="-3.7624515"><ele>1179.3333333333335</ele><time>2026-03-07T09:21:39.008Z</time></trkpt><trkpt lat="36.9490846" lon="-3.7622492"><ele>1180.6666666666667</ele><time>2026-03-07T09:21:40.009Z</time></trkpt><trkpt lat="36.9490023" lon="-3.7620381"><ele>1182.0</ele><time>2026-03-07T09:21:41.003Z</time></trkpt><trkpt lat="36.9489174" lon="-3.7618286"><ele>1183.3333333333333</ele><time>2026-03-07T09:21:42.015Z</time></trkpt><trkpt lat="36.9488163" lon="-3.761628"><ele>1184.6666666666665</ele><time>2026-03-07T09:21:43.013Z</time></trkpt><trkpt lat="36.9487159" lon="-3.7614279"><ele>1186.0</ele><time>2026-03-07T09:21:43.995Z</time></trkpt><trkpt lat="36.9486185" lon="-3.7612256"><ele>1186.3333333333333</ele><time>2026-03-07T09:21:45.003Z</time></trkpt><trkpt lat="36.9485177" lon="-3.7610253"><ele>1186.6666666666667</ele><time>2026-03-07T09:21:46.017Z</time></trkpt><trkpt lat="36.9484252" lon="-3.7608206"><ele>1187.0</ele><time>2026-03-07T09:21:47.004Z</time></trkpt><trkpt lat="36.9483278" lon="-3.7606178"><ele>1187.0</ele><time>2026-03-07T09:21:48.013Z</time></trkpt><trkpt lat="36.9482442" lon="-3.7604052"><ele>1187.0</ele><time>2026-03-07T09:21:49.009Z</time></trkpt><trkpt lat="36.948149" lon="-3.7601993"><ele>1187.0</ele><time>2026-03-07T09:21:50.007Z</time></trkpt><trkpt lat="36.9480678" lon="-3.7599838"><ele>1190.0</ele><time>2026-03-07T09:21:51.003Z</time></trkpt><trkpt lat="36.9479828" lon="-3.7597665"><ele>1193.0</ele><time>2026-03-07T09:21:52.004Z</time></trkpt><trkpt lat="36.947892" lon="-3.7595524"><ele>1196.0</ele><time>2026-03-07T09:21:53.017Z</time></trkpt><trkpt lat="36.9477814" lon="-3.7593496"><ele>1197.3333333333335</ele><time>2026-03-07T09:21:54.003Z</time></trkpt><trkpt lat="36.9476935" lon="-3.7591311"><ele>1198.6666666666667</ele><time>2026-03-07T09:21:54.999Z</time></trkpt><trkpt lat="36.9476075" lon="-3.7589119"><ele>1200.0</ele><time>2026-03-07T09:21:56.021Z</time></trkpt><trkpt lat="36.9475166" lon="-3.7586971"><ele>1203.3333333333333</ele><time>2026-03-07T09:21:57.007Z</time></trkpt><trkpt lat="36.9474256" lon="-3.7584833"><ele>1206.6666666666665</ele><time>2026-03-07T09:21:58.01Z</time></trkpt><trkpt lat="36.9473403" lon="-3.7582647"><ele>1210.0</ele><time>2026-03-07T09:21:59.007Z</time></trkpt><trkpt lat="36.9472378" lon="-3.758062"><ele>1210.0</ele><time>2026-03-07T09:22:00.029Z</time></trkpt><trkpt lat="36.9471474" lon="-3.7578508"><ele>1210.0</ele><time>2026-03-07T09:22:01.001Z</time></trkpt><trkpt lat="36.9470541" lon="-3.7576435"><ele>1210.0</ele><time>2026-03-07T09:22:02.02Z</time></trkpt><trkpt lat="36.9469507" lon="-3.7574282"><ele>1210.6666666666665</ele><time>2026-03-07T09:22:03.016Z</time></trkpt><trkpt lat="36.9468522" lon="-3.7572161"><ele>1211.3333333333333</ele><time>2026-03-07T09:22:04.01Z</time></trkpt><trkpt lat="36.9467485" lon="-3.7570102"><ele>1212.0</ele><time>2026-03-07T09:22:05.021Z</time></trkpt><trkpt lat="36.946625" lon="-3.7568083"><ele>1213.3333333333333</ele><time>2026-03-07T09:22:06.021Z</time></trkpt><trkpt lat="36.9465034" lon="-3.7566137"><ele>1214.6666666666665</ele><time>2026-03-07T09:22:07.029Z</time></trkpt><trkpt lat="36.946383" lon="-3.7564238"><ele>1216.0</ele><time>2026-03-07T09:22:08.009Z</time></trkpt><trkpt lat="36.9462613" lon="-3.756234"><ele>1216.0</ele><time>2026-03-07T09:22:09.013Z</time></trkpt><trkpt lat="36.946137" lon="-3.7560416"><ele>1216.0</ele><time>2026-03-07T09:22:10.018Z</time></trkpt><trkpt lat="36.9460124" lon="-3.7558497"><ele>1216.0</ele><time>2026-03-07T09:22:11.007Z</time></trkpt><trkpt lat="36.9458884" lon="-3.7556571"><ele>1216.6666666666665</ele><time>2026-03-07T09:22:12.002Z</time></trkpt><trkpt lat="36.9457627" lon="-3.7554636"><ele>1217.3333333333333</ele><time>2026-03-07T09:22:13.005Z</time></trkpt><trkpt lat="36.945638" lon="-3.755268"><ele>1218.0</ele><time>2026-03-07T09:22:14.007Z</time></trkpt><trkpt lat="36.9455128" lon="-3.755076"><ele>1218.0</ele><time>2026-03-07T09:22:15.002Z</time></trkpt><trkpt lat="36.9453924" lon="-3.7548877"><ele>1218.0</ele><time>2026-03-07T09:22:16.008Z</time></trkpt><trkpt lat="36.9452778" lon="-3.7546982"><ele>1218.0</ele><time>2026-03-07T09:22:17.009Z</time></trkpt><trkpt lat="36.9451699" lon="-3.7544991"><ele>1222.0</ele><time>2026-03-07T09:22:18.002Z</time></trkpt><trkpt lat="36.9450316" lon="-3.754319"><ele>1226.0</ele><time>2026-03-07T09:22:19.01Z</time></trkpt><trkpt lat="36.9449433" lon="-3.7541079"><ele>1230.0</ele><time>2026-03-07T09:22:20.015Z</time></trkpt><trkpt lat="36.9448581" lon="-3.7539027"><ele>1230.0</ele><time>2026-03-07T09:22:21.014Z</time></trkpt><trkpt lat="36.9447732" lon="-3.7536996"><ele>1230.0</ele><time>2026-03-07T09:22:22Z</time></trkpt><trkpt lat="36.9446879" lon="-3.7534954"><ele>1230.0</ele><time>2026-03-07T09:22:22.998Z</time></trkpt><trkpt lat="36.9446032" lon="-3.7532928"><ele>1230.0</ele><time>2026-03-07T09:22:23.997Z</time></trkpt><trkpt lat="36.9444862" lon="-3.7531149"><ele>1230.0</ele><time>2026-03-07T09:22:25.012Z</time></trkpt><trkpt lat="36.9444089" lon="-3.7529119"><ele>1230.0</ele><time>2026-03-07T09:22:26.004Z</time></trkpt><trkpt lat="36.9443319" lon="-3.7527127"><ele>1229.6666666666667</ele><time>2026-03-07T09:22:27.006Z</time></trkpt><trkpt lat="36.9442558" lon="-3.7525157"><ele>1229.3333333333335</ele><time>2026-03-07T09:22:28.025Z</time></trkpt><trkpt lat="36.9441805" lon="-3.7523194"><ele>1229.0</ele><time>2026-03-07T09:22:29.042Z</time></trkpt><trkpt lat="36.9441074" lon="-3.7521238"><ele>1232.0</ele><time>2026-03-07T09:22:30.003Z</time></trkpt><trkpt lat="36.9440435" lon="-3.7519244"><ele>1235.0</ele><time>2026-03-07T09:22:31.003Z</time></trkpt><trkpt lat="36.9439906" lon="-3.7517189"><ele>1238.0</ele><time>2026-03-07T09:22:32.007Z</time></trkpt><trkpt lat="36.9439446" lon="-3.7515068"><ele>1240.0</ele><time>2026-03-07T09:22:33.009Z</time></trkpt><trkpt lat="36.9438703" lon="-3.751306"><ele>1242.0</ele><time>2026-03-07T09:22:33.993Z</time></trkpt><trkpt lat="36.9438165" lon="-3.7510951"><ele>1244.0</ele><time>2026-03-07T09:22:35.002Z</time></trkpt><trkpt lat="36.9437986" lon="-3.7508702"><ele>1246.0</ele><time>2026-03-07T09:22:36.009Z</time></trkpt><trkpt lat="36.9437555" lon="-3.7506514"><ele>1248.0</ele><time>2026-03-07T09:22:37.007Z</time></trkpt><trkpt lat="36.9437443" lon="-3.7504199"><ele>1250.0</ele><time>2026-03-07T09:22:38.013Z</time></trkpt><trkpt lat="36.9437242" lon="-3.7501883"><ele>1251.0</ele><time>2026-03-07T09:22:39.005Z</time></trkpt><trkpt lat="36.9436978" lon="-3.7499563"><ele>1252.0</ele><time>2026-03-07T09:22:39.997Z</time></trkpt><trkpt lat="36.9436647" lon="-3.7497241"><ele>1253.0</ele><time>2026-03-07T09:22:40.998Z</time></trkpt><trkpt lat="36.9436189" lon="-3.7494931"><ele>1256.0</ele><time>2026-03-07T09:22:42.007Z</time></trkpt><trkpt lat="36.9435676" lon="-3.7492634"><ele>1259.0</ele><time>2026-03-07T09:22:43.001Z</time></trkpt><trkpt lat="36.9435076" lon="-3.7490362"><ele>1262.0</ele><time>2026-03-07T09:22:44.002Z</time></trkpt><trkpt lat="36.9434468" lon="-3.7488073"><ele>1262.0</ele><time>2026-03-07T09:22:45.003Z</time></trkpt><trkpt lat="36.9433888" lon="-3.7485752"><ele>1262.0</ele><time>2026-03-07T09:22:46.006Z</time></trkpt><trkpt lat="36.9433298" lon="-3.7483445"><ele>1262.0</ele><time>2026-03-07T09:22:47.023Z</time></trkpt><trkpt lat="36.9432741" lon="-3.748117"><ele>1265.0</ele><time>2026-03-07T09:22:48.005Z</time></trkpt><trkpt lat="36.9432213" lon="-3.747895"><ele>1268.0</ele><time>2026-03-07T09:22:49.021Z</time></trkpt><trkpt lat="36.9431607" lon="-3.7476827"><ele>1271.0</ele><time>2026-03-07T09:22:50.008Z</time></trkpt><trkpt lat="36.9431313" lon="-3.7474727"><ele>1275.0</ele><time>2026-03-07T09:22:51.004Z</time></trkpt><trkpt lat="36.9431366" lon="-3.7472663"><ele>1279.0</ele><time>2026-03-07T09:22:52Z</time></trkpt><trkpt lat="36.943189" lon="-3.7470819"><ele>1283.0</ele><time>2026-03-07T09:22:53.008Z</time></trkpt><trkpt lat="36.9432625" lon="-3.7468679"><ele>1283.6666666666667</ele><time>2026-03-07T09:22:54.006Z</time></trkpt><trkpt lat="36.9433388" lon="-3.7466497"><ele>1284.3333333333333</ele><time>2026-03-07T09:22:55.001Z</time></trkpt><trkpt lat="36.9433925" lon="-3.7464171"><ele>1285.0</ele><time>2026-03-07T09:22:55.995Z</time></trkpt><trkpt lat="36.9434248" lon="-3.7461774"><ele>1286.6666666666665</ele><time>2026-03-07T09:22:57.002Z</time></trkpt><trkpt lat="36.943415" lon="-3.7459495"><ele>1288.3333333333333</ele><time>2026-03-07T09:22:57.995Z</time></trkpt><trkpt lat="36.9433835" lon="-3.745715"><ele>1290.0</ele><time>2026-03-07T09:22:59.018Z</time></trkpt><trkpt lat="36.943351" lon="-3.7454799"><ele>1290.0</ele><time>2026-03-07T09:23:00.017Z</time></trkpt><trkpt lat="36.9433387" lon="-3.7452364"><ele>1290.0</ele><time>2026-03-07T09:23:00.999Z</time></trkpt><trkpt lat="36.9433081" lon="-3.7450036"><ele>1290.0</ele><time>2026-03-07T09:23:02.01Z</time></trkpt><trkpt lat="36.9432998" lon="-3.7447621"><ele>1291.6666666666667</ele><time>2026-03-07T09:23:03.002Z</time></trkpt><trkpt lat="36.9432919" lon="-3.7445197"><ele>1293.3333333333335</ele><time>2026-03-07T09:23:04.009Z</time></trkpt><trkpt lat="36.9432778" lon="-3.7442782"><ele>1295.0</ele><time>2026-03-07T09:23:05.017Z</time></trkpt><trkpt lat="36.9432628" lon="-3.744039"><ele>1296.6666666666667</ele><time>2026-03-07T09:23:06.007Z</time></trkpt><trkpt lat="36.9432468" lon="-3.7438053"><ele>1298.3333333333333</ele><time>2026-03-07T09:23:06.997Z</time></trkpt><trkpt lat="36.943235" lon="-3.7435759"><ele>1300.0</ele><time>2026-03-07T09:23:08.021Z</time></trkpt><trkpt lat="36.9432005" lon="-3.7433537"><ele>1301.6666666666665</ele><time>2026-03-07T09:23:09.007Z</time></trkpt><trkpt lat="36.943144" lon="-3.743139"><ele>1303.3333333333333</ele><time>2026-03-07T09:23:10.003Z</time></trkpt><trkpt lat="36.9430712" lon="-3.7429261"><ele>1305.0</ele><time>2026-03-07T09:23:11.014Z</time></trkpt><trkpt lat="36.9429773" lon="-3.7427214"><ele>1307.3333333333333</ele><time>2026-03-07T09:23:12.01Z</time></trkpt><trkpt lat="36.9428623" lon="-3.7425358"><ele>1309.6666666666665</ele><time>2026-03-07T09:23:13Z</time></trkpt><trkpt lat="36.94273" lon="-3.7423704"><ele>1312.0</ele><time>2026-03-07T09:23:14.004Z</time></trkpt><trkpt lat="36.9425803" lon="-3.7422213"><ele>1310.6666666666665</ele><time>2026-03-07T09:23:15.01Z</time></trkpt><trkpt lat="36.9424243" lon="-3.7420859"><ele>1309.3333333333333</ele><time>2026-03-07T09:23:16.009Z</time></trkpt><trkpt lat="36.9422747" lon="-3.7419545"><ele>1308.0</ele><time>2026-03-07T09:23:17.001Z</time></trkpt><trkpt lat="36.9421226" lon="-3.7418289"><ele>1309.0</ele><time>2026-03-07T09:23:18.068Z</time></trkpt><trkpt lat="36.9419789" lon="-3.7416884"><ele>1310.0</ele><time>2026-03-07T09:23:19.001Z</time></trkpt><trkpt lat="36.9418247" lon="-3.7415628"><ele>1311.0</ele><time>2026-03-07T09:23:20.011Z</time></trkpt><trkpt lat="36.941685" lon="-3.7413997"><ele>1311.0</ele><time>2026-03-07T09:23:21.006Z</time></trkpt><trkpt lat="36.9415796" lon="-3.7411916"><ele>1311.0</ele><time>2026-03-07T09:23:22.076Z</time></trkpt><trkpt lat="36.9414686" lon="-3.7409782"><ele>1311.0</ele><time>2026-03-07T09:23:23.008Z</time></trkpt><trkpt lat="36.9413323" lon="-3.740794"><ele>1312.6666666666667</ele><time>2026-03-07T09:23:24.014Z</time></trkpt><trkpt lat="36.9412094" lon="-3.7406026"><ele>1314.3333333333335</ele><time>2026-03-07T09:23:25.01Z</time></trkpt><trkpt lat="36.9411066" lon="-3.7403891"><ele>1316.0</ele><time>2026-03-07T09:23:26.005Z</time></trkpt><trkpt lat="36.9409985" lon="-3.7401866"><ele>1317.3333333333335</ele><time>2026-03-07T09:23:27.003Z</time></trkpt><trkpt lat="36.940885" lon="-3.7399976"><ele>1318.6666666666667</ele><time>2026-03-07T09:23:28.006Z</time></trkpt><trkpt lat="36.9407695" lon="-3.7398076"><ele>1320.0</ele><time>2026-03-07T09:23:29.019Z</time></trkpt><trkpt lat="36.9406545" lon="-3.7396177"><ele>1320.0</ele><time>2026-03-07T09:23:30.004Z</time></trkpt><trkpt lat="36.9405421" lon="-3.739418"><ele>1320.0</ele><time>2026-03-07T09:23:31.009Z</time></trkpt><trkpt lat="36.9404438" lon="-3.7391969"><ele>1320.0</ele><time>2026-03-07T09:23:32.012Z</time></trkpt><trkpt lat="36.9403561" lon="-3.7389612"><ele>1322.6666666666667</ele><time>2026-03-07T09:23:33.012Z</time></trkpt><trkpt lat="36.9402825" lon="-3.7387162"><ele>1325.3333333333335</ele><time>2026-03-07T09:23:34.006Z</time></trkpt><trkpt lat="36.9402151" lon="-3.7384685"><ele>1328.0</ele><time>2026-03-07T09:23:35.007Z</time></trkpt><trkpt lat="36.9401551" lon="-3.7382157"><ele>1328.3333333333335</ele><time>2026-03-07T09:23:36.019Z</time></trkpt><trkpt lat="36.9400996" lon="-3.7379629"><ele>1328.6666666666667</ele><time>2026-03-07T09:23:36.994Z</time></trkpt><trkpt lat="36.9400508" lon="-3.7377097"><ele>1329.0</ele><time>2026-03-07T09:23:38.002Z</time></trkpt><trkpt lat="36.9399922" lon="-3.737459"><ele>1329.0</ele><time>2026-03-07T09:23:39.007Z</time></trkpt><trkpt lat="36.9399356" lon="-3.7372101"><ele>1329.0</ele><time>2026-03-07T09:23:40.006Z</time></trkpt><trkpt lat="36.9398731" lon="-3.7369666"><ele>1329.0</ele><time>2026-03-07T09:23:41.011Z</time></trkpt><trkpt lat="36.9398034" lon="-3.7367284"><ele>1330.6666666666667</ele><time>2026-03-07T09:23:42.024Z</time></trkpt><trkpt lat="36.9397286" lon="-3.736492"><ele>1332.3333333333335</ele><time>2026-03-07T09:23:43.008Z</time></trkpt><trkpt lat="36.9396531" lon="-3.7362566"><ele>1334.0</ele><time>2026-03-07T09:23:44.012Z</time></trkpt><trkpt lat="36.9395674" lon="-3.7360292"><ele>1335.0</ele><time>2026-03-07T09:23:45.01Z</time></trkpt><trkpt lat="36.9394738" lon="-3.7358096"><ele>1336.0</ele><time>2026-03-07T09:23:46Z</time></trkpt><trkpt lat="36.9393649" lon="-3.7356021"><ele>1337.0</ele><time>2026-03-07T09:23:47.004Z</time></trkpt><trkpt lat="36.9392525" lon="-3.7353968"><ele>1338.3333333333335</ele><time>2026-03-07T09:23:48.011Z</time></trkpt><trkpt lat="36.9391381" lon="-3.7351954"><ele>1339.6666666666667</ele><time>2026-03-07T09:23:49.003Z</time></trkpt><trkpt lat="36.9390259" lon="-3.7349906"><ele>1341.0</ele><time>2026-03-07T09:23:50.022Z</time></trkpt><trkpt lat="36.9389119" lon="-3.7347861"><ele>1341.0</ele><time>2026-03-07T09:23:51.006Z</time></trkpt><trkpt lat="36.9387989" lon="-3.7345814"><ele>1341.0</ele><time>2026-03-07T09:23:52.013Z</time></trkpt><trkpt lat="36.9386836" lon="-3.7343795"><ele>1341.0</ele><time>2026-03-07T09:23:53.016Z</time></trkpt><trkpt lat="36.9385666" lon="-3.7341799"><ele>1341.0</ele><time>2026-03-07T09:23:53.996Z</time></trkpt><trkpt lat="36.9384446" lon="-3.7339845"><ele>1341.0</ele><time>2026-03-07T09:23:54.999Z</time></trkpt><trkpt lat="36.9383243" lon="-3.7337875"><ele>1341.0</ele><time>2026-03-07T09:23:56.019Z</time></trkpt><trkpt lat="36.9382074" lon="-3.7335876"><ele>1342.3333333333333</ele><time>2026-03-07T09:23:57.007Z</time></trkpt><trkpt lat="36.938091" lon="-3.7333884"><ele>1343.6666666666665</ele><time>2026-03-07T09:23:58.006Z</time></trkpt><trkpt lat="36.9379739" lon="-3.7331894"><ele>1345.0</ele><time>2026-03-07T09:23:59.005Z</time></trkpt><trkpt lat="36.9378565" lon="-3.7329889"><ele>1345.0</ele><time>2026-03-07T09:24:00.061Z</time></trkpt><trkpt lat="36.9377368" lon="-3.732785"><ele>1345.0</ele><time>2026-03-07T09:24:01.008Z</time></trkpt><trkpt lat="36.9376156" lon="-3.7325794"><ele>1345.0</ele><time>2026-03-07T09:24:02.007Z</time></trkpt><trkpt lat="36.9374936" lon="-3.7323744"><ele>1345.0</ele><time>2026-03-07T09:24:03.013Z</time></trkpt><trkpt lat="36.9373716" lon="-3.7321691"><ele>1345.0</ele><time>2026-03-07T09:24:04.014Z</time></trkpt><trkpt lat="36.9372491" lon="-3.731962"><ele>1345.0</ele><time>2026-03-07T09:24:05.011Z</time></trkpt><trkpt lat="36.9371247" lon="-3.7317552"><ele>1345.0</ele><time>2026-03-07T09:24:06.049Z</time></trkpt><trkpt lat="36.9370013" lon="-3.7315476"><ele>1345.0</ele><time>2026-03-07T09:24:07.03Z</time></trkpt><trkpt lat="36.9368809" lon="-3.7313379"><ele>1345.0</ele><time>2026-03-07T09:24:08.007Z</time></trkpt><trkpt lat="36.9367636" lon="-3.7311279"><ele>1345.3333333333333</ele><time>2026-03-07T09:24:09.008Z</time></trkpt><trkpt lat="36.9366486" lon="-3.7309185"><ele>1345.6666666666667</ele><time>2026-03-07T09:24:10.015Z</time></trkpt><trkpt lat="36.9365362" lon="-3.7307085"><ele>1346.0</ele><time>2026-03-07T09:24:11.007Z</time></trkpt><trkpt lat="36.936428" lon="-3.7304958"><ele>1346.0</ele><time>2026-03-07T09:24:12.01Z</time></trkpt><trkpt lat="36.9363304" lon="-3.7302735"><ele>1346.0</ele><time>2026-03-07T09:24:13.003Z</time></trkpt><trkpt lat="36.9362484" lon="-3.7300394"><ele>1346.0</ele><time>2026-03-07T09:24:14.011Z</time></trkpt><trkpt lat="36.9361729" lon="-3.7298009"><ele>1347.3333333333335</ele><time>2026-03-07T09:24:15.009Z</time></trkpt><trkpt lat="36.9361028" lon="-3.729561"><ele>1348.6666666666667</ele><time>2026-03-07T09:24:16.011Z</time></trkpt><trkpt lat="36.9360397" lon="-3.7293203"><ele>1350.0</ele><time>2026-03-07T09:24:17.009Z</time></trkpt><trkpt lat="36.9359826" lon="-3.7290805"><ele>1350.3333333333333</ele><time>2026-03-07T09:24:18.001Z</time></trkpt><trkpt lat="36.9359244" lon="-3.728842"><ele>1350.6666666666665</ele><time>2026-03-07T09:24:19.014Z</time></trkpt><trkpt lat="36.9358678" lon="-3.728605"><ele>1351.0</ele><time>2026-03-07T09:24:20.006Z</time></trkpt><trkpt lat="36.9358132" lon="-3.7283659"><ele>1351.0</ele><time>2026-03-07T09:24:21.002Z</time></trkpt><trkpt lat="36.9357572" lon="-3.7281241"><ele>1351.0</ele><time>2026-03-07T09:24:22.007Z</time></trkpt><trkpt lat="36.9357027" lon="-3.7278801"><ele>1351.0</ele><time>2026-03-07T09:24:23.009Z</time></trkpt><trkpt lat="36.9356462" lon="-3.7276396"><ele>1351.3333333333333</ele><time>2026-03-07T09:24:24.013Z</time></trkpt><trkpt lat="36.9355911" lon="-3.7273999"><ele>1351.6666666666667</ele><time>2026-03-07T09:24:25.014Z</time></trkpt><trkpt lat="36.9355363" lon="-3.7271609"><ele>1352.0</ele><time>2026-03-07T09:24:26.021Z</time></trkpt><trkpt lat="36.9354832" lon="-3.7269225"><ele>1351.6666666666667</ele><time>2026-03-07T09:24:27.014Z</time></trkpt><trkpt lat="36.9354262" lon="-3.7266885"><ele>1351.3333333333333</ele><time>2026-03-07T09:24:28.02Z</time></trkpt><trkpt lat="36.9353702" lon="-3.7264593"><ele>1351.0</ele><time>2026-03-07T09:24:29.011Z</time></trkpt><trkpt lat="36.9353157" lon="-3.7262396"><ele>1351.0</ele><time>2026-03-07T09:24:30.02Z</time></trkpt><trkpt lat="36.9352672" lon="-3.7260382"><ele>1351.0</ele><time>2026-03-07T09:24:31.007Z</time></trkpt><trkpt lat="36.9352221" lon="-3.7258657"><ele>1351.0</ele><time>2026-03-07T09:24:32.004Z</time></trkpt><trkpt lat="36.9351889" lon="-3.7257163"><ele>1351.0</ele><time>2026-03-07T09:24:33.005Z</time></trkpt><trkpt lat="36.9351663" lon="-3.7255945"><ele>1351.0</ele><time>2026-03-07T09:24:34.022Z</time></trkpt><trkpt lat="36.9351568" lon="-3.7255015"><ele>1351.0</ele><time>2026-03-07T09:24:35.003Z</time></trkpt><trkpt lat="36.9351481" lon="-3.7253851"><ele>1351.0</ele><time>2026-03-07T09:24:37.016Z</time></trkpt><trkpt lat="36.9351328" lon="-3.7252745"><ele>1351.0</ele><time>2026-03-07T09:24:39.038Z</time></trkpt><trkpt lat="36.9351106" lon="-3.7251984"><ele>1351.0</ele><time>2026-03-07T09:24:40.016Z</time></trkpt><trkpt lat="36.9350815" lon="-3.7251163"><ele>1351.0</ele><time>2026-03-07T09:24:41.016Z</time></trkpt><trkpt lat="36.9350483" lon="-3.7250245"><ele>1351.8</ele><time>2026-03-07T09:24:42.005Z</time></trkpt><trkpt lat="36.9350141" lon="-3.7249229"><ele>1352.6</ele><time>2026-03-07T09:24:43.012Z</time></trkpt><trkpt lat="36.9349764" lon="-3.7248131"><ele>1353.4</ele><time>2026-03-07T09:24:44.039Z</time></trkpt><trkpt lat="36.934942" lon="-3.7246971"><ele>1354.2</ele><time>2026-03-07T09:24:45.019Z</time></trkpt><trkpt lat="36.9349013" lon="-3.7245828"><ele>1355.0</ele><time>2026-03-07T09:24:46.017Z</time></trkpt><trkpt lat="36.9348701" lon="-3.7244686"><ele>1355.0</ele><time>2026-03-07T09:24:47.011Z</time></trkpt><trkpt lat="36.9348494" lon="-3.7243539"><ele>1355.0</ele><time>2026-03-07T09:24:48.018Z</time></trkpt><trkpt lat="36.9348321" lon="-3.724238"><ele>1355.0</ele><time>2026-03-07T09:24:49.01Z</time></trkpt><trkpt lat="36.934836" lon="-3.7241073"><ele>1355.0</ele><time>2026-03-07T09:24:50.009Z</time></trkpt><trkpt lat="36.9348267" lon="-3.7239748"><ele>1355.0</ele><time>2026-03-07T09:24:51.015Z</time></trkpt><trkpt lat="36.9348204" lon="-3.7238361"><ele>1355.0</ele><time>2026-03-07T09:24:52.005Z</time></trkpt><trkpt lat="36.9348142" lon="-3.7236862"><ele>1355.0</ele><time>2026-03-07T09:24:53.009Z</time></trkpt><trkpt lat="36.9347807" lon="-3.7235349"><ele>1355.0</ele><time>2026-03-07T09:24:54.01Z</time></trkpt><trkpt lat="36.9347454" lon="-3.7233717"><ele>1355.0</ele><time>2026-03-07T09:24:55.001Z</time></trkpt><trkpt lat="36.9347151" lon="-3.723212"><ele>1354.25</ele><time>2026-03-07T09:24:56.009Z</time></trkpt><trkpt lat="36.9346905" lon="-3.7230565"><ele>1353.5</ele><time>2026-03-07T09:24:57.026Z</time></trkpt><trkpt lat="36.9346951" lon="-3.7229196"><ele>1352.75</ele><time>2026-03-07T09:24:58.016Z</time></trkpt><trkpt lat="36.9346832" lon="-3.7227706"><ele>1352.0</ele><time>2026-03-07T09:24:59.007Z</time></trkpt><trkpt lat="36.9346538" lon="-3.7226027"><ele>1350.0</ele><time>2026-03-07T09:25:00.025Z</time></trkpt><trkpt lat="36.9346238" lon="-3.7224385"><ele>1348.0</ele><time>2026-03-07T09:25:01.014Z</time></trkpt><trkpt lat="36.9346036" lon="-3.7222868"><ele>1346.0</ele><time>2026-03-07T09:25:02.004Z</time></trkpt><trkpt lat="36.9345711" lon="-3.7221558"><ele>1344.0</ele><time>2026-03-07T09:25:02.99Z</time></trkpt><trkpt lat="36.9345378" lon="-3.7220212"><ele>1344.0</ele><time>2026-03-07T09:25:04.007Z</time></trkpt><trkpt lat="36.9345167" lon="-3.7219009"><ele>1344.0</ele><time>2026-03-07T09:25:05.007Z</time></trkpt><trkpt lat="36.9344881" lon="-3.7217827"><ele>1344.0</ele><time>2026-03-07T09:25:06.021Z</time></trkpt><trkpt lat="36.9344701" lon="-3.721647"><ele>1344.0</ele><time>2026-03-07T09:25:07.031Z</time></trkpt><trkpt lat="36.9344527" lon="-3.7214877"><ele>1344.0</ele><time>2026-03-07T09:25:08.013Z</time></trkpt><trkpt lat="36.9344398" lon="-3.7213182"><ele>1343.0</ele><time>2026-03-07T09:25:09.019Z</time></trkpt><trkpt lat="36.9344056" lon="-3.7211457"><ele>1342.0</ele><time>2026-03-07T09:25:10.002Z</time></trkpt><trkpt lat="36.9343733" lon="-3.7209701"><ele>1341.0</ele><time>2026-03-07T09:25:11.013Z</time></trkpt><trkpt lat="36.9343491" lon="-3.7207933"><ele>1340.0</ele><time>2026-03-07T09:25:12.005Z</time></trkpt><trkpt lat="36.9343242" lon="-3.7206257"><ele>1340.0</ele><time>2026-03-07T09:25:13.005Z</time></trkpt><trkpt lat="36.9342962" lon="-3.7204743"><ele>1340.0</ele><time>2026-03-07T09:25:14.007Z</time></trkpt><trkpt lat="36.934272" lon="-3.720331"><ele>1340.0</ele><time>2026-03-07T09:25:15.015Z</time></trkpt><trkpt lat="36.9342438" lon="-3.7201845"><ele>1340.0</ele><time>2026-03-07T09:25:16.005Z</time></trkpt><trkpt lat="36.9342182" lon="-3.7200336"><ele>1341.0</ele><time>2026-03-07T09:25:17.007Z</time></trkpt><trkpt lat="36.9341744" lon="-3.7198783"><ele>1342.0</ele><time>2026-03-07T09:25:18.014Z</time></trkpt><trkpt lat="36.9341458" lon="-3.7197069"><ele>1343.0</ele><time>2026-03-07T09:25:19.005Z</time></trkpt><trkpt lat="36.9341145" lon="-3.719534"><ele>1344.0</ele><time>2026-03-07T09:25:19.989Z</time></trkpt><trkpt lat="36.9340787" lon="-3.7193606"><ele>1344.0</ele><time>2026-03-07T09:25:21.017Z</time></trkpt><trkpt lat="36.9340403" lon="-3.7191868"><ele>1344.0</ele><time>2026-03-07T09:25:22.003Z</time></trkpt><trkpt lat="36.9340011" lon="-3.7190128"><ele>1344.0</ele><time>2026-03-07T09:25:23.007Z</time></trkpt><trkpt lat="36.9339595" lon="-3.7188427"><ele>1344.0</ele><time>2026-03-07T09:25:24.009Z</time></trkpt><trkpt lat="36.9339182" lon="-3.7186736"><ele>1343.0</ele><time>2026-03-07T09:25:25.008Z</time></trkpt><trkpt lat="36.9338754" lon="-3.7185085"><ele>1342.0</ele><time>2026-03-07T09:25:26.016Z</time></trkpt><trkpt lat="36.9338339" lon="-3.7183505"><ele>1341.0</ele><time>2026-03-07T09:25:27.007Z</time></trkpt><trkpt lat="36.9337723" lon="-3.7182016"><ele>1340.0</ele><time>2026-03-07T09:25:28.011Z</time></trkpt><trkpt lat="36.9337362" lon="-3.7180394"><ele>1340.0</ele><time>2026-03-07T09:25:29.023Z</time></trkpt><trkpt lat="36.9336998" lon="-3.7178662"><ele>1340.0</ele><time>2026-03-07T09:25:30.003Z</time></trkpt><trkpt lat="36.9336681" lon="-3.7176896"><ele>1340.0</ele><time>2026-03-07T09:25:31.016Z</time></trkpt><trkpt lat="36.9336368" lon="-3.71751"><ele>1340.0</ele><time>2026-03-07T09:25:31.998Z</time></trkpt><trkpt lat="36.933599" lon="-3.7173349"><ele>1341.0</ele><time>2026-03-07T09:25:33.01Z</time></trkpt><trkpt lat="36.9335717" lon="-3.717158"><ele>1342.0</ele><time>2026-03-07T09:25:34.002Z</time></trkpt><trkpt lat="36.9335417" lon="-3.7169837"><ele>1343.0</ele><time>2026-03-07T09:25:35.011Z</time></trkpt><trkpt lat="36.9335133" lon="-3.7168151"><ele>1344.0</ele><time>2026-03-07T09:25:36.001Z</time></trkpt><trkpt lat="36.9334901" lon="-3.7166533"><ele>1344.75</ele><time>2026-03-07T09:25:37.02Z</time></trkpt><trkpt lat="36.933469" lon="-3.7164919"><ele>1345.5</ele><time>2026-03-07T09:25:38.01Z</time></trkpt><trkpt lat="36.9334558" lon="-3.7163264"><ele>1346.25</ele><time>2026-03-07T09:25:39.015Z</time></trkpt><trkpt lat="36.933441" lon="-3.716163"><ele>1347.0</ele><time>2026-03-07T09:25:40.017Z</time></trkpt><trkpt lat="36.9334428" lon="-3.7160106"><ele>1348.0</ele><time>2026-03-07T09:25:41.005Z</time></trkpt><trkpt lat="36.9334521" lon="-3.7158634"><ele>1349.0</ele><time>2026-03-07T09:25:42.009Z</time></trkpt><trkpt lat="36.9334908" lon="-3.7157236"><ele>1350.0</ele><time>2026-03-07T09:25:43.017Z</time></trkpt><trkpt lat="36.9335439" lon="-3.7155868"><ele>1351.0</ele><time>2026-03-07T09:25:44.006Z</time></trkpt><trkpt lat="36.9336112" lon="-3.7154496"><ele>1351.0</ele><time>2026-03-07T09:25:45.01Z</time></trkpt><trkpt lat="36.9336786" lon="-3.7153077"><ele>1351.0</ele><time>2026-03-07T09:25:46.008Z</time></trkpt><trkpt lat="36.9337502" lon="-3.7151626"><ele>1351.0</ele><time>2026-03-07T09:25:47.018Z</time></trkpt><trkpt lat="36.9338253" lon="-3.7150187"><ele>1351.0</ele><time>2026-03-07T09:25:48.005Z</time></trkpt><trkpt lat="36.9338985" lon="-3.7148782"><ele>1351.5</ele><time>2026-03-07T09:25:49.003Z</time></trkpt><trkpt lat="36.9339632" lon="-3.7147376"><ele>1352.0</ele><time>2026-03-07T09:25:50.005Z</time></trkpt><trkpt lat="36.9340307" lon="-3.7146139"><ele>1352.5</ele><time>2026-03-07T09:25:51.017Z</time></trkpt><trkpt lat="36.9341159" lon="-3.7145054"><ele>1353.0</ele><time>2026-03-07T09:25:52.01Z</time></trkpt><trkpt lat="36.9342062" lon="-3.7144062"><ele>1355.4</ele><time>2026-03-07T09:25:53.003Z</time></trkpt><trkpt lat="36.9342991" lon="-3.7143181"><ele>1357.8000000000002</ele><time>2026-03-07T09:25:54.008Z</time></trkpt><trkpt lat="36.9343856" lon="-3.7142407"><ele>1360.2</ele><time>2026-03-07T09:25:55.012Z</time></trkpt><trkpt lat="36.9344667" lon="-3.7141638"><ele>1362.6</ele><time>2026-03-07T09:25:56.03Z</time></trkpt><trkpt lat="36.9345408" lon="-3.7140851"><ele>1365.0</ele><time>2026-03-07T09:25:57.019Z</time></trkpt><trkpt lat="36.9346085" lon="-3.7139851"><ele>1365.0</ele><time>2026-03-07T09:25:58.01Z</time></trkpt><trkpt lat="36.9346637" lon="-3.7138629"><ele>1365.0</ele><time>2026-03-07T09:25:59.02Z</time></trkpt><trkpt lat="36.934724" lon="-3.7137404"><ele>1365.0</ele><time>2026-03-07T09:26:00.033Z</time></trkpt><trkpt lat="36.9347886" lon="-3.7136234"><ele>1365.0</ele><time>2026-03-07T09:26:01.009Z</time></trkpt><trkpt lat="36.9348565" lon="-3.7135134"><ele>1364.75</ele><time>2026-03-07T09:26:02.008Z</time></trkpt><trkpt lat="36.9349281" lon="-3.7134119"><ele>1364.5</ele><time>2026-03-07T09:26:03.019Z</time></trkpt><trkpt lat="36.9349977" lon="-3.7133002"><ele>1364.25</ele><time>2026-03-07T09:26:04.012Z</time></trkpt><trkpt lat="36.9350798" lon="-3.7131945"><ele>1364.0</ele><time>2026-03-07T09:26:05.029Z</time></trkpt><trkpt lat="36.9351736" lon="-3.713088"><ele>1364.5</ele><time>2026-03-07T09:26:06.016Z</time></trkpt><trkpt lat="36.9352742" lon="-3.7129768"><ele>1365.0</ele><time>2026-03-07T09:26:07.008Z</time></trkpt><trkpt lat="36.9353761" lon="-3.7128569"><ele>1365.5</ele><time>2026-03-07T09:26:08.014Z</time></trkpt><trkpt lat="36.935474" lon="-3.7127362"><ele>1366.0</ele><time>2026-03-07T09:26:08.992Z</time></trkpt><trkpt lat="36.9355676" lon="-3.7126226"><ele>1366.0</ele><time>2026-03-07T09:26:10.012Z</time></trkpt><trkpt lat="36.9356752" lon="-3.7125382"><ele>1366.0</ele><time>2026-03-07T09:26:11.011Z</time></trkpt><trkpt lat="36.9357846" lon="-3.7124648"><ele>1366.0</ele><time>2026-03-07T09:26:11.995Z</time></trkpt><trkpt lat="36.9358947" lon="-3.7124003"><ele>1366.0</ele><time>2026-03-07T09:26:13.014Z</time></trkpt><trkpt lat="36.9360022" lon="-3.7123362"><ele>1369.25</ele><time>2026-03-07T09:26:14.009Z</time></trkpt><trkpt lat="36.9361157" lon="-3.7122566"><ele>1372.5</ele><time>2026-03-07T09:26:15.011Z</time></trkpt><trkpt lat="36.9362302" lon="-3.7121621"><ele>1375.75</ele><time>2026-03-07T09:26:16.009Z</time></trkpt><trkpt lat="36.9363431" lon="-3.7120712"><ele>1379.0</ele><time>2026-03-07T09:26:17.006Z</time></trkpt><trkpt lat="36.936445" lon="-3.7119908"><ele>1379.0</ele><time>2026-03-07T09:26:18.01Z</time></trkpt><trkpt lat="36.9365417" lon="-3.7119291"><ele>1379.0</ele><time>2026-03-07T09:26:19.009Z</time></trkpt><trkpt lat="36.9366526" lon="-3.7118769"><ele>1379.0</ele><time>2026-03-07T09:26:20.004Z</time></trkpt><trkpt lat="36.9367781" lon="-3.7118526"><ele>1379.0</ele><time>2026-03-07T09:26:21.001Z</time></trkpt><trkpt lat="36.9369148" lon="-3.7118179"><ele>1377.75</ele><time>2026-03-07T09:26:22.005Z</time></trkpt><trkpt lat="36.9370513" lon="-3.7117647"><ele>1376.5</ele><time>2026-03-07T09:26:23.005Z</time></trkpt><trkpt lat="36.937184" lon="-3.7116983"><ele>1375.25</ele><time>2026-03-07T09:26:24.008Z</time></trkpt><trkpt lat="36.9373103" lon="-3.7116291"><ele>1374.0</ele><time>2026-03-07T09:26:25.005Z</time></trkpt><trkpt lat="36.9374302" lon="-3.7115584"><ele>1374.0</ele><time>2026-03-07T09:26:26Z</time></trkpt><trkpt lat="36.9375468" lon="-3.711486"><ele>1374.0</ele><time>2026-03-07T09:26:27.004Z</time></trkpt><trkpt lat="36.9376545" lon="-3.7113945"><ele>1374.0</ele><time>2026-03-07T09:26:28.01Z</time></trkpt><trkpt lat="36.9377656" lon="-3.7112976"><ele>1374.0</ele><time>2026-03-07T09:26:29.006Z</time></trkpt><trkpt lat="36.9378847" lon="-3.7112049"><ele>1373.5</ele><time>2026-03-07T09:26:30.008Z</time></trkpt><trkpt lat="36.9380086" lon="-3.7111207"><ele>1373.0</ele><time>2026-03-07T09:26:31.004Z</time></trkpt><trkpt lat="36.9381366" lon="-3.711049"><ele>1372.5</ele><time>2026-03-07T09:26:32.009Z</time></trkpt><trkpt lat="36.9382608" lon="-3.7109684"><ele>1372.0</ele><time>2026-03-07T09:26:33.011Z</time></trkpt><trkpt lat="36.9383844" lon="-3.7108988"><ele>1374.5</ele><time>2026-03-07T09:26:34.013Z</time></trkpt><trkpt lat="36.9385053" lon="-3.7108267"><ele>1377.0</ele><time>2026-03-07T09:26:35.008Z</time></trkpt><trkpt lat="36.9386247" lon="-3.7107541"><ele>1379.5</ele><time>2026-03-07T09:26:36.011Z</time></trkpt><trkpt lat="36.938739" lon="-3.7106848"><ele>1382.0</ele><time>2026-03-07T09:26:37.015Z</time></trkpt><trkpt lat="36.9388531" lon="-3.7106194"><ele>1382.0</ele><time>2026-03-07T09:26:38.01Z</time></trkpt><trkpt lat="36.9389593" lon="-3.7105544"><ele>1382.0</ele><time>2026-03-07T09:26:39.041Z</time></trkpt><trkpt lat="36.9390617" lon="-3.7104909"><ele>1382.0</ele><time>2026-03-07T09:26:40.033Z</time></trkpt><trkpt lat="36.9391652" lon="-3.7104269"><ele>1382.0</ele><time>2026-03-07T09:26:41.009Z</time></trkpt><trkpt lat="36.9392735" lon="-3.7103552"><ele>1381.25</ele><time>2026-03-07T09:26:42.003Z</time></trkpt><trkpt lat="36.9393891" lon="-3.7102807"><ele>1380.5</ele><time>2026-03-07T09:26:43.005Z</time></trkpt><trkpt lat="36.9395052" lon="-3.7102076"><ele>1379.75</ele><time>2026-03-07T09:26:44.01Z</time></trkpt><trkpt lat="36.9396184" lon="-3.7101397"><ele>1379.0</ele><time>2026-03-07T09:26:45.006Z</time></trkpt><trkpt lat="36.9397333" lon="-3.7100776"><ele>1379.0</ele><time>2026-03-07T09:26:46.011Z</time></trkpt><trkpt lat="36.9398546" lon="-3.7100198"><ele>1379.0</ele><time>2026-03-07T09:26:47.011Z</time></trkpt><trkpt lat="36.9399786" lon="-3.7099634"><ele>1379.0</ele><time>2026-03-07T09:26:48.005Z</time></trkpt><trkpt lat="36.9401019" lon="-3.7098936"><ele>1379.0</ele><time>2026-03-07T09:26:49.011Z</time></trkpt><trkpt lat="36.9402209" lon="-3.7098134"><ele>1379.5</ele><time>2026-03-07T09:26:50.001Z</time></trkpt><trkpt lat="36.9403356" lon="-3.7097321"><ele>1380.0</ele><time>2026-03-07T09:26:51.026Z</time></trkpt><trkpt lat="36.9404506" lon="-3.7096488"><ele>1380.5</ele><time>2026-03-07T09:26:52.008Z</time></trkpt><trkpt lat="36.940571" lon="-3.7095625"><ele>1381.0</ele><time>2026-03-07T09:26:53.005Z</time></trkpt><trkpt lat="36.9406951" lon="-3.7094735"><ele>1381.25</ele><time>2026-03-07T09:26:54.004Z</time></trkpt><trkpt lat="36.9408208" lon="-3.7093899"><ele>1381.5</ele><time>2026-03-07T09:26:55.003Z</time></trkpt><trkpt lat="36.9409415" lon="-3.7093124"><ele>1381.75</ele><time>2026-03-07T09:26:56.008Z</time></trkpt><trkpt lat="36.9410579" lon="-3.7092399"><ele>1382.0</ele><time>2026-03-07T09:26:57.009Z</time></trkpt><trkpt lat="36.9411765" lon="-3.7091713"><ele>1382.0</ele><time>2026-03-07T09:26:58.019Z</time></trkpt><trkpt lat="36.9412997" lon="-3.7091028"><ele>1382.0</ele><time>2026-03-07T09:26:59.006Z</time></trkpt><trkpt lat="36.9414254" lon="-3.7090398"><ele>1382.0</ele><time>2026-03-07T09:26:59.999Z</time></trkpt><trkpt lat="36.9415544" lon="-3.7089895"><ele>1382.0</ele><time>2026-03-07T09:27:01.004Z</time></trkpt><trkpt lat="36.9416838" lon="-3.7089528"><ele>1382.75</ele><time>2026-03-07T09:27:02.013Z</time></trkpt><trkpt lat="36.9418112" lon="-3.7089274"><ele>1383.5</ele><time>2026-03-07T09:27:03.013Z</time></trkpt><trkpt lat="36.9419425" lon="-3.7089054"><ele>1384.25</ele><time>2026-03-07T09:27:04.002Z</time></trkpt><trkpt lat="36.9420666" lon="-3.7088826"><ele>1385.0</ele><time>2026-03-07T09:27:05.002Z</time></trkpt><trkpt lat="36.9421904" lon="-3.7088598"><ele>1385.0</ele><time>2026-03-07T09:27:06.014Z</time></trkpt><trkpt lat="36.9423163" lon="-3.7088433"><ele>1385.0</ele><time>2026-03-07T09:27:06.999Z</time></trkpt><trkpt lat="36.942443" lon="-3.7088257"><ele>1385.0</ele><time>2026-03-07T09:27:08.005Z</time></trkpt><trkpt lat="36.9425655" lon="-3.7087909"><ele>1385.0</ele><time>2026-03-07T09:27:09.006Z</time></trkpt><trkpt lat="36.9426874" lon="-3.7087474"><ele>1385.75</ele><time>2026-03-07T09:27:10.037Z</time></trkpt><trkpt lat="36.9428144" lon="-3.7087063"><ele>1386.5</ele><time>2026-03-07T09:27:11.007Z</time></trkpt><trkpt lat="36.9429452" lon="-3.7086666"><ele>1387.25</ele><time>2026-03-07T09:27:12.011Z</time></trkpt><trkpt lat="36.9430752" lon="-3.7086282"><ele>1388.0</ele><time>2026-03-07T09:27:13.012Z</time></trkpt><trkpt lat="36.9431995" lon="-3.7085922"><ele>1387.75</ele><time>2026-03-07T09:27:14.012Z</time></trkpt><trkpt lat="36.9433196" lon="-3.7085617"><ele>1387.5</ele><time>2026-03-07T09:27:15.023Z</time></trkpt><trkpt lat="36.9434381" lon="-3.70853"><ele>1387.25</ele><time>2026-03-07T09:27:16.002Z</time></trkpt><trkpt lat="36.9435567" lon="-3.7084947"><ele>1387.0</ele><time>2026-03-07T09:27:17.014Z</time></trkpt><trkpt lat="36.9436767" lon="-3.7084536"><ele>1386.0</ele><time>2026-03-07T09:27:18.014Z</time></trkpt><trkpt lat="36.9437916" lon="-3.708407"><ele>1385.0</ele><time>2026-03-07T09:27:19.014Z</time></trkpt><trkpt lat="36.9439042" lon="-3.7083616"><ele>1384.0</ele><time>2026-03-07T09:27:20.011Z</time></trkpt><trkpt lat="36.9440162" lon="-3.7083141"><ele>1383.0</ele><time>2026-03-07T09:27:21.009Z</time></trkpt><trkpt lat="36.9441223" lon="-3.7082675"><ele>1382.25</ele><time>2026-03-07T09:27:22.015Z</time></trkpt><trkpt lat="36.9442266" lon="-3.7082286"><ele>1381.5</ele><time>2026-03-07T09:27:23.006Z</time></trkpt><trkpt lat="36.9443397" lon="-3.7081998"><ele>1380.75</ele><time>2026-03-07T09:27:24.013Z</time></trkpt><trkpt lat="36.9444621" lon="-3.7081725"><ele>1380.0</ele><time>2026-03-07T09:27:25.027Z</time></trkpt><trkpt lat="36.9445821" lon="-3.7081509"><ele>1380.0</ele><time>2026-03-07T09:27:26.009Z</time></trkpt><trkpt lat="36.9446983" lon="-3.7081331"><ele>1380.0</ele><time>2026-03-07T09:27:27.007Z</time></trkpt><trkpt lat="36.9448104" lon="-3.7081235"><ele>1380.0</ele><time>2026-03-07T09:27:28.02Z</time></trkpt><trkpt lat="36.9449127" lon="-3.7081217"><ele>1380.0</ele><time>2026-03-07T09:27:29.006Z</time></trkpt><trkpt lat="36.9450055" lon="-3.7081154"><ele>1380.0</ele><time>2026-03-07T09:27:30.028Z</time></trkpt><trkpt lat="36.9450972" lon="-3.7081082"><ele>1379.2</ele><time>2026-03-07T09:27:31.013Z</time></trkpt><trkpt lat="36.9451899" lon="-3.7080996"><ele>1378.4</ele><time>2026-03-07T09:27:32.011Z</time></trkpt><trkpt lat="36.9452858" lon="-3.7080928"><ele>1377.6</ele><time>2026-03-07T09:27:33.007Z</time></trkpt><trkpt lat="36.9453914" lon="-3.7080683"><ele>1376.8</ele><time>2026-03-07T09:27:34.007Z</time></trkpt><trkpt lat="36.9455018" lon="-3.7080199"><ele>1376.0</ele><time>2026-03-07T09:27:35.006Z</time></trkpt><trkpt lat="36.9456186" lon="-3.7079743"><ele>1376.0</ele><time>2026-03-07T09:27:36.006Z</time></trkpt><trkpt lat="36.9457325" lon="-3.707928"><ele>1376.0</ele><time>2026-03-07T09:27:37.001Z</time></trkpt><trkpt lat="36.9458398" lon="-3.707876"><ele>1376.0</ele><time>2026-03-07T09:27:38.016Z</time></trkpt><trkpt lat="36.9459412" lon="-3.7078104"><ele>1376.0</ele><time>2026-03-07T09:27:39.015Z</time></trkpt><trkpt lat="36.9460444" lon="-3.7077616"><ele>1377.25</ele><time>2026-03-07T09:27:40.013Z</time></trkpt><trkpt lat="36.9461517" lon="-3.7077133"><ele>1378.5</ele><time>2026-03-07T09:27:41.011Z</time></trkpt><trkpt lat="36.9462571" lon="-3.707662"><ele>1379.75</ele><time>2026-03-07T09:27:42.01Z</time></trkpt><trkpt lat="36.9463577" lon="-3.7075915"><ele>1381.0</ele><time>2026-03-07T09:27:43.002Z</time></trkpt><trkpt lat="36.946454" lon="-3.7075292"><ele>1381.0</ele><time>2026-03-07T09:27:44.002Z</time></trkpt><trkpt lat="36.9465434" lon="-3.7074824"><ele>1381.0</ele><time>2026-03-07T09:27:45.016Z</time></trkpt><trkpt lat="36.9466457" lon="-3.7074587"><ele>1381.0</ele><time>2026-03-07T09:27:46.014Z</time></trkpt><trkpt lat="36.9467558" lon="-3.7074745"><ele>1381.0</ele><time>2026-03-07T09:27:47.016Z</time></trkpt><trkpt lat="36.9468676" lon="-3.7074792"><ele>1381.0</ele><time>2026-03-07T09:27:48.01Z</time></trkpt><trkpt lat="36.9469854" lon="-3.7074705"><ele>1381.0</ele><time>2026-03-07T09:27:49.009Z</time></trkpt><trkpt lat="36.94711" lon="-3.7074445"><ele>1381.0</ele><time>2026-03-07T09:27:50.014Z</time></trkpt><trkpt lat="36.9472436" lon="-3.707414"><ele>1381.0</ele><time>2026-03-07T09:27:51.003Z</time></trkpt><trkpt lat="36.9473858" lon="-3.7073883"><ele>1381.0</ele><time>2026-03-07T09:27:52.009Z</time></trkpt><trkpt lat="36.9475276" lon="-3.7073635"><ele>1382.25</ele><time>2026-03-07T09:27:53.014Z</time></trkpt><trkpt lat="36.9476666" lon="-3.7073411"><ele>1383.5</ele><time>2026-03-07T09:27:54.012Z</time></trkpt><trkpt lat="36.9478056" lon="-3.707312"><ele>1384.75</ele><time>2026-03-07T09:27:55.001Z</time></trkpt><trkpt lat="36.9479413" lon="-3.7072808"><ele>1386.0</ele><time>2026-03-07T09:27:56.008Z</time></trkpt><trkpt lat="36.9480748" lon="-3.7072447"><ele>1386.0</ele><time>2026-03-07T09:27:57.01Z</time></trkpt><trkpt lat="36.9482058" lon="-3.7072006"><ele>1386.0</ele><time>2026-03-07T09:27:58.013Z</time></trkpt><trkpt lat="36.9483358" lon="-3.7071535"><ele>1386.0</ele><time>2026-03-07T09:27:59.014Z</time></trkpt><trkpt lat="36.9484646" lon="-3.7071044"><ele>1386.0</ele><time>2026-03-07T09:28:00.023Z</time></trkpt><trkpt lat="36.9485917" lon="-3.7070574"><ele>1387.0</ele><time>2026-03-07T09:28:01.007Z</time></trkpt><trkpt lat="36.9487196" lon="-3.7070111"><ele>1388.0</ele><time>2026-03-07T09:28:02.01Z</time></trkpt><trkpt lat="36.9488487" lon="-3.7069648"><ele>1389.0</ele><time>2026-03-07T09:28:03.007Z</time></trkpt><trkpt lat="36.9489783" lon="-3.7069153"><ele>1390.0</ele><time>2026-03-07T09:28:04.011Z</time></trkpt><trkpt lat="36.9491038" lon="-3.7068599"><ele>1393.5</ele><time>2026-03-07T09:28:05.01Z</time></trkpt><trkpt lat="36.9492232" lon="-3.7067975"><ele>1397.0</ele><time>2026-03-07T09:28:06Z</time></trkpt><trkpt lat="36.949333" lon="-3.7067292"><ele>1400.5</ele><time>2026-03-07T09:28:07.006Z</time></trkpt><trkpt lat="36.9494353" lon="-3.7066571"><ele>1404.0</ele><time>2026-03-07T09:28:08.001Z</time></trkpt><trkpt lat="36.949547" lon="-3.7065964"><ele>1404.0</ele><time>2026-03-07T09:28:09.008Z</time></trkpt><trkpt lat="36.9496668" lon="-3.7065745"><ele>1404.0</ele><time>2026-03-07T09:28:10.023Z</time></trkpt><trkpt lat="36.9497847" lon="-3.7065993"><ele>1404.0</ele><time>2026-03-07T09:28:11.011Z</time></trkpt><trkpt lat="36.9499043" lon="-3.7066386"><ele>1404.0</ele><time>2026-03-07T09:28:12.002Z</time></trkpt><trkpt lat="36.9500235" lon="-3.7066659"><ele>1405.75</ele><time>2026-03-07T09:28:13.01Z</time></trkpt><trkpt lat="36.9501362" lon="-3.7066768"><ele>1407.5</ele><time>2026-03-07T09:28:14.011Z</time></trkpt><trkpt lat="36.950248" lon="-3.7066599"><ele>1409.25</ele><time>2026-03-07T09:28:15.006Z</time></trkpt><trkpt lat="36.9503667" lon="-3.7066294"><ele>1411.0</ele><time>2026-03-07T09:28:16.009Z</time></trkpt><trkpt lat="36.9504889" lon="-3.7066032"><ele>1411.0</ele><time>2026-03-07T09:28:17.014Z</time></trkpt><trkpt lat="36.9506091" lon="-3.7065603"><ele>1411.0</ele><time>2026-03-07T09:28:18.011Z</time></trkpt><trkpt lat="36.9507219" lon="-3.7065278"><ele>1411.0</ele><time>2026-03-07T09:28:19.015Z</time></trkpt><trkpt lat="36.9508288" lon="-3.7064956"><ele>1411.0</ele><time>2026-03-07T09:28:20.009Z</time></trkpt><trkpt lat="36.950937" lon="-3.706463"><ele>1412.0</ele><time>2026-03-07T09:28:21.007Z</time></trkpt><trkpt lat="36.9510442" lon="-3.7064295"><ele>1413.0</ele><time>2026-03-07T09:28:22.009Z</time></trkpt><trkpt lat="36.9511426" lon="-3.7063757"><ele>1414.0</ele><time>2026-03-07T09:28:23.01Z</time></trkpt><trkpt lat="36.9512295" lon="-3.7062983"><ele>1415.0</ele><time>2026-03-07T09:28:24.002Z</time></trkpt><trkpt lat="36.9513071" lon="-3.7062048"><ele>1416.0</ele><time>2026-03-07T09:28:25.004Z</time></trkpt><trkpt lat="36.9513716" lon="-3.7061064"><ele>1416.6</ele><time>2026-03-07T09:28:26.008Z</time></trkpt><trkpt lat="36.9514173" lon="-3.7060033"><ele>1417.1999999999998</ele><time>2026-03-07T09:28:27.014Z</time></trkpt><trkpt lat="36.9514406" lon="-3.7058821"><ele>1417.8000000000002</ele><time>2026-03-07T09:28:27.999Z</time></trkpt><trkpt lat="36.951441" lon="-3.7057433"><ele>1418.4</ele><time>2026-03-07T09:28:29.01Z</time></trkpt><trkpt lat="36.9514175" lon="-3.7056011"><ele>1419.0</ele><time>2026-03-07T09:28:30.011Z</time></trkpt><trkpt lat="36.9513869" lon="-3.7054697"><ele>1419.0</ele><time>2026-03-07T09:28:31.004Z</time></trkpt><trkpt lat="36.9513668" lon="-3.7053384"><ele>1419.0</ele><time>2026-03-07T09:28:32.006Z</time></trkpt><trkpt lat="36.9513473" lon="-3.705204"><ele>1419.0</ele><time>2026-03-07T09:28:33.006Z</time></trkpt><trkpt lat="36.9513264" lon="-3.7050716"><ele>1419.0</ele><time>2026-03-07T09:28:34.012Z</time></trkpt><trkpt lat="36.9513089" lon="-3.7049384"><ele>1419.0</ele><time>2026-03-07T09:28:35.005Z</time></trkpt><trkpt lat="36.9513124" lon="-3.7048111"><ele>1420.2</ele><time>2026-03-07T09:28:36.007Z</time></trkpt><trkpt lat="36.9513129" lon="-3.7046863"><ele>1421.4</ele><time>2026-03-07T09:28:37.002Z</time></trkpt><trkpt lat="36.9513054" lon="-3.7045613"><ele>1422.6</ele><time>2026-03-07T09:28:38.009Z</time></trkpt><trkpt lat="36.9512742" lon="-3.704446"><ele>1423.8</ele><time>2026-03-07T09:28:39.009Z</time></trkpt><trkpt lat="36.9512029" lon="-3.7043621"><ele>1425.0</ele><time>2026-03-07T09:28:40.01Z</time></trkpt><trkpt lat="36.951129" lon="-3.7042688"><ele>1425.4</ele><time>2026-03-07T09:28:41.012Z</time></trkpt><trkpt lat="36.9510512" lon="-3.7041728"><ele>1425.8</ele><time>2026-03-07T09:28:42.014Z</time></trkpt><trkpt lat="36.9509633" lon="-3.704089"><ele>1426.1999999999998</ele><time>2026-03-07T09:28:43.013Z</time></trkpt><trkpt lat="36.9508962" lon="-3.7039943"><ele>1426.6</ele><time>2026-03-07T09:28:44.007Z</time></trkpt><trkpt lat="36.9508443" lon="-3.7038932"><ele>1427.0</ele><time>2026-03-07T09:28:45.008Z</time></trkpt><trkpt lat="36.9508175" lon="-3.7037872"><ele>1427.0</ele><time>2026-03-07T09:28:46.008Z</time></trkpt><trkpt lat="36.9507979" lon="-3.703674"><ele>1427.0</ele><time>2026-03-07T09:28:47.008Z</time></trkpt><trkpt lat="36.9507994" lon="-3.7035546"><ele>1427.0</ele><time>2026-03-07T09:28:48.016Z</time></trkpt><trkpt lat="36.9508277" lon="-3.7034374"><ele>1427.0</ele><time>2026-03-07T09:28:49.008Z</time></trkpt><trkpt lat="36.9508495" lon="-3.7033177"><ele>1427.0</ele><time>2026-03-07T09:28:50.004Z</time></trkpt><trkpt lat="36.9508777" lon="-3.7032067"><ele>1427.3999999999999</ele><time>2026-03-07T09:28:51.008Z</time></trkpt><trkpt lat="36.9508877" lon="-3.7030943"><ele>1427.8</ele><time>2026-03-07T09:28:52.025Z</time></trkpt><trkpt lat="36.9508778" lon="-3.7029694"><ele>1428.2</ele><time>2026-03-07T09:28:53.011Z</time></trkpt><trkpt lat="36.9508482" lon="-3.7028471"><ele>1428.6</ele><time>2026-03-07T09:28:54.026Z</time></trkpt><trkpt lat="36.9508207" lon="-3.7027276"><ele>1429.0</ele><time>2026-03-07T09:28:55.011Z</time></trkpt><trkpt lat="36.9507929" lon="-3.7026041"><ele>1430.0</ele><time>2026-03-07T09:28:56.025Z</time></trkpt><trkpt lat="36.9507807" lon="-3.7024608"><ele>1431.0</ele><time>2026-03-07T09:28:57.008Z</time></trkpt><trkpt lat="36.9507708" lon="-3.7023023"><ele>1432.0</ele><time>2026-03-07T09:28:58.01Z</time></trkpt><trkpt lat="36.950763" lon="-3.7021371"><ele>1433.0</ele><time>2026-03-07T09:28:59.013Z</time></trkpt><trkpt lat="36.9507639" lon="-3.7019729"><ele>1434.0</ele><time>2026-03-07T09:29:00.032Z</time></trkpt><trkpt lat="36.9507633" lon="-3.701813"><ele>1435.0</ele><time>2026-03-07T09:29:01.014Z</time></trkpt><trkpt lat="36.9507533" lon="-3.7016556"><ele>1436.0</ele><time>2026-03-07T09:29:02.011Z</time></trkpt><trkpt lat="36.9507529" lon="-3.7014996"><ele>1437.0</ele><time>2026-03-07T09:29:03.009Z</time></trkpt><trkpt lat="36.9507432" lon="-3.7013376"><ele>1437.0</ele><time>2026-03-07T09:29:04.003Z</time></trkpt><trkpt lat="36.9507267" lon="-3.7011761"><ele>1437.0</ele><time>2026-03-07T09:29:05.008Z</time></trkpt><trkpt lat="36.9506992" lon="-3.7010138"><ele>1437.0</ele><time>2026-03-07T09:29:06.012Z</time></trkpt><trkpt lat="36.9506645" lon="-3.7008504"><ele>1437.0</ele><time>2026-03-07T09:29:07.012Z</time></trkpt><trkpt lat="36.9506275" lon="-3.7006938"><ele>1438.75</ele><time>2026-03-07T09:29:07.997Z</time></trkpt><trkpt lat="36.9505968" lon="-3.7005432"><ele>1440.5</ele><time>2026-03-07T09:29:09.004Z</time></trkpt><trkpt lat="36.9505649" lon="-3.7003975"><ele>1442.25</ele><time>2026-03-07T09:29:10.011Z</time></trkpt><trkpt lat="36.9505285" lon="-3.700248"><ele>1444.0</ele><time>2026-03-07T09:29:11.01Z</time></trkpt><trkpt lat="36.9504787" lon="-3.7000878"><ele>1444.8000000000002</ele><time>2026-03-07T09:29:12.014Z</time></trkpt><trkpt lat="36.9504351" lon="-3.6999405"><ele>1445.6000000000001</ele><time>2026-03-07T09:29:13.012Z</time></trkpt><trkpt lat="36.9503952" lon="-3.6998174"><ele>1446.4</ele><time>2026-03-07T09:29:14.011Z</time></trkpt><trkpt lat="36.9503684" lon="-3.6997089"><ele>1447.2</ele><time>2026-03-07T09:29:14.992Z</time></trkpt><trkpt lat="36.9503455" lon="-3.6996153"><ele>1448.0</ele><time>2026-03-07T09:29:16.018Z</time></trkpt><trkpt lat="36.9503092" lon="-3.6995312"><ele>1448.0</ele><time>2026-03-07T09:29:16.994Z</time></trkpt><trkpt lat="36.9503017" lon="-3.6994479"><ele>1448.0</ele><time>2026-03-07T09:29:18.005Z</time></trkpt><trkpt lat="36.9503221" lon="-3.6993727"><ele>1448.0</ele><time>2026-03-07T09:29:19.024Z</time></trkpt><trkpt lat="36.9503725" lon="-3.6993225"><ele>1448.0</ele><time>2026-03-07T09:29:20.015Z</time></trkpt><trkpt lat="36.9504387" lon="-3.6992957"><ele>1448.0</ele><time>2026-03-07T09:29:21.009Z</time></trkpt><trkpt lat="36.9505123" lon="-3.6992761"><ele>1448.0</ele><time>2026-03-07T09:29:22.016Z</time></trkpt><trkpt lat="36.9506196" lon="-3.6992695"><ele>1448.0</ele><time>2026-03-07T09:29:23.039Z</time></trkpt><trkpt lat="36.950755" lon="-3.6992757"><ele>1447.5</ele><time>2026-03-07T09:29:24.003Z</time></trkpt><trkpt lat="36.9508913" lon="-3.699272"><ele>1447.0</ele><time>2026-03-07T09:29:25.007Z</time></trkpt><trkpt lat="36.9510212" lon="-3.6992543"><ele>1446.5</ele><time>2026-03-07T09:29:26.005Z</time></trkpt><trkpt lat="36.9511535" lon="-3.6992153"><ele>1446.0</ele><time>2026-03-07T09:29:26.997Z</time></trkpt><trkpt lat="36.9512874" lon="-3.6991644"><ele>1446.0</ele><time>2026-03-07T09:29:28.013Z</time></trkpt><trkpt lat="36.951416" lon="-3.699104"><ele>1446.0</ele><time>2026-03-07T09:29:29.019Z</time></trkpt><trkpt lat="36.9515362" lon="-3.6990379"><ele>1446.0</ele><time>2026-03-07T09:29:30.005Z</time></trkpt><trkpt lat="36.9516554" lon="-3.6989589"><ele>1446.0</ele><time>2026-03-07T09:29:31.008Z</time></trkpt><trkpt lat="36.9517748" lon="-3.6988633"><ele>1444.0</ele><time>2026-03-07T09:29:32.008Z</time></trkpt><trkpt lat="36.9518867" lon="-3.698753"><ele>1442.0</ele><time>2026-03-07T09:29:33.012Z</time></trkpt><trkpt lat="36.9519847" lon="-3.6986298"><ele>1440.0</ele><time>2026-03-07T09:29:34.023Z</time></trkpt><trkpt lat="36.9520858" lon="-3.698511"><ele>1438.0</ele><time>2026-03-07T09:29:35.003Z</time></trkpt><trkpt lat="36.9521923" lon="-3.6983948"><ele>1437.5</ele><time>2026-03-07T09:29:36.008Z</time></trkpt><trkpt lat="36.9523041" lon="-3.6982827"><ele>1437.0</ele><time>2026-03-07T09:29:37.008Z</time></trkpt><trkpt lat="36.9524159" lon="-3.6981814"><ele>1436.5</ele><time>2026-03-07T09:29:38.011Z</time></trkpt><trkpt lat="36.9525304" lon="-3.6980916"><ele>1436.0</ele><time>2026-03-07T09:29:39.006Z</time></trkpt><trkpt lat="36.9526471" lon="-3.6980166"><ele>1435.0</ele><time>2026-03-07T09:29:40.009Z</time></trkpt><trkpt lat="36.9527696" lon="-3.6979437"><ele>1434.0</ele><time>2026-03-07T09:29:41.008Z</time></trkpt><trkpt lat="36.9528986" lon="-3.6978674"><ele>1433.0</ele><time>2026-03-07T09:29:42.01Z</time></trkpt><trkpt lat="36.953033" lon="-3.6977951"><ele>1432.0</ele><time>2026-03-07T09:29:43.008Z</time></trkpt><trkpt lat="36.9531651" lon="-3.6977143"><ele>1432.0</ele><time>2026-03-07T09:29:44.005Z</time></trkpt><trkpt lat="36.9532993" lon="-3.6976551"><ele>1432.0</ele><time>2026-03-07T09:29:45.009Z</time></trkpt><trkpt lat="36.95343" lon="-3.6976299"><ele>1432.0</ele><time>2026-03-07T09:29:46.007Z</time></trkpt><trkpt lat="36.9535497" lon="-3.6976217"><ele>1432.0</ele><time>2026-03-07T09:29:47.032Z</time></trkpt><trkpt lat="36.9536653" lon="-3.6975945"><ele>1431.75</ele><time>2026-03-07T09:29:48.004Z</time></trkpt><trkpt lat="36.9537773" lon="-3.6975674"><ele>1431.5</ele><time>2026-03-07T09:29:49.008Z</time></trkpt><trkpt lat="36.9538887" lon="-3.6975355"><ele>1431.25</ele><time>2026-03-07T09:29:50.003Z</time></trkpt><trkpt lat="36.9540003" lon="-3.6974971"><ele>1431.0</ele><time>2026-03-07T09:29:51.023Z</time></trkpt><trkpt lat="36.9541122" lon="-3.6974604"><ele>1428.75</ele><time>2026-03-07T09:29:52.007Z</time></trkpt><trkpt lat="36.9542206" lon="-3.697414"><ele>1426.5</ele><time>2026-03-07T09:29:53.008Z</time></trkpt><trkpt lat="36.9543195" lon="-3.6973562"><ele>1424.25</ele><time>2026-03-07T09:29:54.007Z</time></trkpt><trkpt lat="36.9543942" lon="-3.6972413"><ele>1422.0</ele><time>2026-03-07T09:29:55.006Z</time></trkpt><trkpt lat="36.9544554" lon="-3.6970924"><ele>1422.0</ele><time>2026-03-07T09:29:56.012Z</time></trkpt><trkpt lat="36.9545207" lon="-3.6969645"><ele>1422.0</ele><time>2026-03-07T09:29:57.024Z</time></trkpt><trkpt lat="36.9545803" lon="-3.6968412"><ele>1422.0</ele><time>2026-03-07T09:29:58.005Z</time></trkpt><trkpt lat="36.9546356" lon="-3.6967132"><ele>1422.0</ele><time>2026-03-07T09:29:58.991Z</time></trkpt><trkpt lat="36.9546923" lon="-3.6966007"><ele>1423.1999999999998</ele><time>2026-03-07T09:30:00.01Z</time></trkpt><trkpt lat="36.9547182" lon="-3.6964852"><ele>1424.4</ele><time>2026-03-07T09:30:01.017Z</time></trkpt><trkpt lat="36.9547055" lon="-3.6963545"><ele>1425.6</ele><time>2026-03-07T09:30:02.007Z</time></trkpt><trkpt lat="36.9546596" lon="-3.6962174"><ele>1426.8000000000002</ele><time>2026-03-07T09:30:03.012Z</time></trkpt><trkpt lat="36.9546045" lon="-3.6960728"><ele>1428.0</ele><time>2026-03-07T09:30:04.006Z</time></trkpt><trkpt lat="36.954557" lon="-3.6959205"><ele>1428.0</ele><time>2026-03-07T09:30:05.022Z</time></trkpt><trkpt lat="36.9545018" lon="-3.6957528"><ele>1428.0</ele><time>2026-03-07T09:30:06.011Z</time></trkpt><trkpt lat="36.9544335" lon="-3.6956158"><ele>1428.0</ele><time>2026-03-07T09:30:07.006Z</time></trkpt><trkpt lat="36.9543351" lon="-3.6954902"><ele>1428.0</ele><time>2026-03-07T09:30:08.01Z</time></trkpt><trkpt lat="36.9542286" lon="-3.6953625"><ele>1428.5</ele><time>2026-03-07T09:30:09.009Z</time></trkpt><trkpt lat="36.9541206" lon="-3.6952425"><ele>1429.0</ele><time>2026-03-07T09:30:10.01Z</time></trkpt><trkpt lat="36.954031" lon="-3.6951217"><ele>1429.5</ele><time>2026-03-07T09:30:11.016Z</time></trkpt><trkpt lat="36.9539428" lon="-3.6950128"><ele>1430.0</ele><time>2026-03-07T09:30:12.006Z</time></trkpt><trkpt lat="36.9538652" lon="-3.6949043"><ele>1430.0</ele><time>2026-03-07T09:30:13.009Z</time></trkpt><trkpt lat="36.9538072" lon="-3.694803"><ele>1430.0</ele><time>2026-03-07T09:30:14.01Z</time></trkpt><trkpt lat="36.9537741" lon="-3.6947103"><ele>1430.0</ele><time>2026-03-07T09:30:15.009Z</time></trkpt><trkpt lat="36.953751" lon="-3.6946312"><ele>1430.0</ele><time>2026-03-07T09:30:16.007Z</time></trkpt><trkpt lat="36.9537672" lon="-3.6945061"><ele>1430.0</ele><time>2026-03-07T09:30:18.011Z</time></trkpt><trkpt lat="36.9538928" lon="-3.6944608"><ele>1430.0</ele><time>2026-03-07T09:30:20.009Z</time></trkpt><trkpt lat="36.9539863" lon="-3.6944654"><ele>1430.0</ele><time>2026-03-07T09:30:21.012Z</time></trkpt><trkpt lat="36.9540692" lon="-3.6944824"><ele>1430.0</ele><time>2026-03-07T09:30:22.013Z</time></trkpt><trkpt lat="36.9541484" lon="-3.6945218"><ele>1430.0</ele><time>2026-03-07T09:30:23.004Z</time></trkpt><trkpt lat="36.9542225" lon="-3.6945841"><ele>1430.0</ele><time>2026-03-07T09:30:24.017Z</time></trkpt><trkpt lat="36.9542852" lon="-3.6946611"><ele>1430.0</ele><time>2026-03-07T09:30:25.004Z</time></trkpt><trkpt lat="36.9543464" lon="-3.6947181"><ele>1429.2</ele><time>2026-03-07T09:30:26.006Z</time></trkpt><trkpt lat="36.9544221" lon="-3.6947413"><ele>1428.4</ele><time>2026-03-07T09:30:27.008Z</time></trkpt><trkpt lat="36.954506" lon="-3.6947418"><ele>1427.6</ele><time>2026-03-07T09:30:28.016Z</time></trkpt><trkpt lat="36.954606" lon="-3.6947123"><ele>1426.8</ele><time>2026-03-07T09:30:29.011Z</time></trkpt><trkpt lat="36.9547105" lon="-3.6946865"><ele>1426.0</ele><time>2026-03-07T09:30:30.009Z</time></trkpt><trkpt lat="36.9548165" lon="-3.6946572"><ele>1426.0</ele><time>2026-03-07T09:30:31.01Z</time></trkpt><trkpt lat="36.9549195" lon="-3.6946285"><ele>1426.0</ele><time>2026-03-07T09:30:32.011Z</time></trkpt><trkpt lat="36.9550187" lon="-3.6945964"><ele>1426.0</ele><time>2026-03-07T09:30:33.013Z</time></trkpt><trkpt lat="36.9551123" lon="-3.6945678"><ele>1426.0</ele><time>2026-03-07T09:30:34.009Z</time></trkpt><trkpt lat="36.9552033" lon="-3.69455"><ele>1426.0</ele><time>2026-03-07T09:30:35.005Z</time></trkpt><trkpt lat="36.9552802" lon="-3.6945483"><ele>1423.1666666666665</ele><time>2026-03-07T09:30:36.012Z</time></trkpt><trkpt lat="36.9553447" lon="-3.6945691"><ele>1420.3333333333333</ele><time>2026-03-07T09:30:37.009Z</time></trkpt><trkpt lat="36.9554075" lon="-3.6945895"><ele>1417.5</ele><time>2026-03-07T09:30:38.006Z</time></trkpt><trkpt lat="36.9555088" lon="-3.694691"><ele>1414.6666666666667</ele><time>2026-03-07T09:30:40.007Z</time></trkpt><trkpt lat="36.9555624" lon="-3.6947537"><ele>1411.8333333333335</ele><time>2026-03-07T09:30:41.015Z</time></trkpt><trkpt lat="36.9556184" lon="-3.6948132"><ele>1409.0</ele><time>2026-03-07T09:30:42.026Z</time></trkpt><trkpt lat="36.9556753" lon="-3.6948763"><ele>1409.0</ele><time>2026-03-07T09:30:43.026Z</time></trkpt><trkpt lat="36.9557292" lon="-3.6949403"><ele>1409.0</ele><time>2026-03-07T09:30:44.01Z</time></trkpt><trkpt lat="36.9557805" lon="-3.6950044"><ele>1409.0</ele><time>2026-03-07T09:30:45.012Z</time></trkpt><trkpt lat="36.9558297" lon="-3.6950641"><ele>1409.0</ele><time>2026-03-07T09:30:46.009Z</time></trkpt><trkpt lat="36.9559477" lon="-3.6951125"><ele>1409.0</ele><time>2026-03-07T09:30:48.003Z</time></trkpt><trkpt lat="36.9560242" lon="-3.6951138"><ele>1409.0</ele><time>2026-03-07T09:30:49.013Z</time></trkpt><trkpt lat="36.9561104" lon="-3.6951122"><ele>1406.4</ele><time>2026-03-07T09:30:50.009Z</time></trkpt><trkpt lat="36.9562017" lon="-3.6950651"><ele>1403.8000000000002</ele><time>2026-03-07T09:30:51.002Z</time></trkpt><trkpt lat="36.9562924" lon="-3.6950043"><ele>1401.1999999999998</ele><time>2026-03-07T09:30:52.055Z</time></trkpt><trkpt lat="36.95638" lon="-3.6949375"><ele>1398.6</ele><time>2026-03-07T09:30:53.021Z</time></trkpt><trkpt lat="36.9564579" lon="-3.6948752"><ele>1396.0</ele><time>2026-03-07T09:30:54.002Z</time></trkpt><trkpt lat="36.9565295" lon="-3.6948136"><ele>1396.0</ele><time>2026-03-07T09:30:55.005Z</time></trkpt><trkpt lat="36.9565814" lon="-3.6947261"><ele>1396.0</ele><time>2026-03-07T09:30:56.011Z</time></trkpt><trkpt lat="36.956605" lon="-3.6945901"><ele>1396.0</ele><time>2026-03-07T09:30:57.006Z</time></trkpt><trkpt lat="36.9566406" lon="-3.6944821"><ele>1396.0</ele><time>2026-03-07T09:30:58.013Z</time></trkpt><trkpt lat="36.9566738" lon="-3.6943886"><ele>1396.0</ele><time>2026-03-07T09:30:59.012Z</time></trkpt><trkpt lat="36.9567122" lon="-3.6942945"><ele>1393.6666666666665</ele><time>2026-03-07T09:31:00.039Z</time></trkpt><trkpt lat="36.9567466" lon="-3.6941791"><ele>1391.3333333333333</ele><time>2026-03-07T09:31:01.023Z</time></trkpt><trkpt lat="36.9567831" lon="-3.6940939"><ele>1389.0</ele><time>2026-03-07T09:31:02.017Z</time></trkpt><trkpt lat="36.95683" lon="-3.6940273"><ele>1386.6666666666667</ele><time>2026-03-07T09:31:03.01Z</time></trkpt><trkpt lat="36.9568804" lon="-3.6939726"><ele>1384.3333333333335</ele><time>2026-03-07T09:31:04.027Z</time></trkpt><trkpt lat="36.9569622" lon="-3.6939105"><ele>1382.0</ele><time>2026-03-07T09:31:06.01Z</time></trkpt><trkpt lat="36.9570261" lon="-3.6938914"><ele>1382.0</ele><time>2026-03-07T09:31:08.009Z</time></trkpt><trkpt lat="36.9571141" lon="-3.6939611"><ele>1382.0</ele><time>2026-03-07T09:31:10.008Z</time></trkpt><trkpt lat="36.957147" lon="-3.6940836"><ele>1382.0</ele><time>2026-03-07T09:31:12.016Z</time></trkpt><trkpt lat="36.9571593" lon="-3.694179"><ele>1382.0</ele><time>2026-03-07T09:31:13.026Z</time></trkpt><trkpt lat="36.9571682" lon="-3.6942764"><ele>1382.0</ele><time>2026-03-07T09:31:14.01Z</time></trkpt><trkpt lat="36.9571743" lon="-3.6943709"><ele>1382.0</ele><time>2026-03-07T09:31:14.999Z</time></trkpt><trkpt lat="36.9571499" lon="-3.6944697"><ele>1383.1999999999998</ele><time>2026-03-07T09:31:16.004Z</time></trkpt><trkpt lat="36.9571173" lon="-3.6945576"><ele>1384.4</ele><time>2026-03-07T09:31:17.005Z</time></trkpt><trkpt lat="36.9570844" lon="-3.6946431"><ele>1385.6</ele><time>2026-03-07T09:31:17.995Z</time></trkpt><trkpt lat="36.9570365" lon="-3.6947825"><ele>1386.8000000000002</ele><time>2026-03-07T09:31:20.001Z</time></trkpt><trkpt lat="36.9570357" lon="-3.6948666"><ele>1388.0</ele><time>2026-03-07T09:31:21.004Z</time></trkpt><trkpt lat="36.9570927" lon="-3.6949969"><ele>1388.0</ele><time>2026-03-07T09:31:23.008Z</time></trkpt><trkpt lat="36.9572295" lon="-3.6950178"><ele>1388.0</ele><time>2026-03-07T09:31:27.007Z</time></trkpt><trkpt lat="36.957338" lon="-3.6949319"><ele>1388.0</ele><time>2026-03-07T09:31:28.008Z</time></trkpt><trkpt lat="36.9574434" lon="-3.6948061"><ele>1388.0</ele><time>2026-03-07T09:31:29.013Z</time></trkpt><trkpt lat="36.9575312" lon="-3.6946834"><ele>1387.5</ele><time>2026-03-07T09:31:30.017Z</time></trkpt><trkpt lat="36.9576221" lon="-3.694563"><ele>1387.0</ele><time>2026-03-07T09:31:31.024Z</time></trkpt><trkpt lat="36.9577282" lon="-3.6944378"><ele>1386.5</ele><time>2026-03-07T09:31:32.012Z</time></trkpt><trkpt lat="36.9578398" lon="-3.694318"><ele>1386.0</ele><time>2026-03-07T09:31:33.017Z</time></trkpt><trkpt lat="36.9579435" lon="-3.6942113"><ele>1382.4</ele><time>2026-03-07T09:31:34.011Z</time></trkpt><trkpt lat="36.9580348" lon="-3.69412"><ele>1378.8</ele><time>2026-03-07T09:31:35.008Z</time></trkpt><trkpt lat="36.9581133" lon="-3.6940314"><ele>1375.2</ele><time>2026-03-07T09:31:36.005Z</time></trkpt><trkpt lat="36.9581768" lon="-3.693928"><ele>1371.6000000000001</ele><time>2026-03-07T09:31:37.018Z</time></trkpt><trkpt lat="36.958232" lon="-3.6938097"><ele>1368.0</ele><time>2026-03-07T09:31:38.012Z</time></trkpt><trkpt lat="36.9582827" lon="-3.6936808"><ele>1366.6000000000001</ele><time>2026-03-07T09:31:39.007Z</time></trkpt><trkpt lat="36.9583343" lon="-3.693547"><ele>1365.2</ele><time>2026-03-07T09:31:40.012Z</time></trkpt><trkpt lat="36.9583754" lon="-3.6934232"><ele>1363.8</ele><time>2026-03-07T09:31:41.013Z</time></trkpt><trkpt lat="36.9584118" lon="-3.6933163"><ele>1362.4</ele><time>2026-03-07T09:31:42.012Z</time></trkpt><trkpt lat="36.9584654" lon="-3.6932269"><ele>1361.0</ele><time>2026-03-07T09:31:43.035Z</time></trkpt><trkpt lat="36.9585202" lon="-3.6931226"><ele>1359.4</ele><time>2026-03-07T09:31:44.017Z</time></trkpt><trkpt lat="36.9585682" lon="-3.6930038"><ele>1357.8</ele><time>2026-03-07T09:31:45.012Z</time></trkpt><trkpt lat="36.9586086" lon="-3.6928686"><ele>1356.2</ele><time>2026-03-07T09:31:46.007Z</time></trkpt><trkpt lat="36.9586389" lon="-3.6927328"><ele>1354.6000000000001</ele><time>2026-03-07T09:31:47.01Z</time></trkpt><trkpt lat="36.9586673" lon="-3.6926048"><ele>1353.0</ele><time>2026-03-07T09:31:48.005Z</time></trkpt><trkpt lat="36.9586989" lon="-3.6924875"><ele>1350.4</ele><time>2026-03-07T09:31:49.001Z</time></trkpt><trkpt lat="36.9587324" lon="-3.6923786"><ele>1347.8000000000002</ele><time>2026-03-07T09:31:50.004Z</time></trkpt><trkpt lat="36.9587652" lon="-3.6922729"><ele>1345.2</ele><time>2026-03-07T09:31:51.002Z</time></trkpt><trkpt lat="36.9588128" lon="-3.6921682"><ele>1342.6</ele><time>2026-03-07T09:31:52.01Z</time></trkpt><trkpt lat="36.9588629" lon="-3.692066"><ele>1340.0</ele><time>2026-03-07T09:31:53.012Z</time></trkpt><trkpt lat="36.9589182" lon="-3.6919936"><ele>1340.0</ele><time>2026-03-07T09:31:54.023Z</time></trkpt><trkpt lat="36.9589736" lon="-3.6919339"><ele>1340.0</ele><time>2026-03-07T09:31:54.997Z</time></trkpt><trkpt lat="36.9590589" lon="-3.69185"><ele>1340.0</ele><time>2026-03-07T09:31:57.009Z</time></trkpt><trkpt lat="36.9591127" lon="-3.691769"><ele>1340.0</ele><time>2026-03-07T09:31:59.012Z</time></trkpt><trkpt lat="36.9591177" lon="-3.6916788"><ele>1340.0</ele><time>2026-03-07T09:32:02.004Z</time></trkpt><trkpt lat="36.9590553" lon="-3.6915945"><ele>1340.0</ele><time>2026-03-07T09:32:05.008Z</time></trkpt><trkpt lat="36.958973" lon="-3.6915606"><ele>1338.6</ele><time>2026-03-07T09:32:07.013Z</time></trkpt><trkpt lat="36.9588734" lon="-3.6915411"><ele>1337.2</ele><time>2026-03-07T09:32:09.01Z</time></trkpt><trkpt lat="36.9587638" lon="-3.69152"><ele>1335.8000000000002</ele><time>2026-03-07T09:32:11.007Z</time></trkpt><trkpt lat="36.958664" lon="-3.6914299"><ele>1334.4</ele><time>2026-03-07T09:32:13.011Z</time></trkpt><trkpt lat="36.9586198" lon="-3.6913662"><ele>1333.0</ele><time>2026-03-07T09:32:14.007Z</time></trkpt><trkpt lat="36.9585716" lon="-3.6913011"><ele>1332.9999999999998</ele><time>2026-03-07T09:32:15.005Z</time></trkpt><trkpt lat="36.9585215" lon="-3.6912339"><ele>1333.0</ele><time>2026-03-07T09:32:16.001Z</time></trkpt><trkpt lat="36.9584774" lon="-3.6911768"><ele>1333.0</ele><time>2026-03-07T09:32:17.006Z</time></trkpt><trkpt lat="36.9584299" lon="-3.6911122"><ele>1333.0</ele><time>2026-03-07T09:32:18.01Z</time></trkpt><trkpt lat="36.9583867" lon="-3.6910454"><ele>1333.0</ele><time>2026-03-07T09:32:19.01Z</time></trkpt><trkpt lat="36.9583408" lon="-3.6909725"><ele>1332.9999999999998</ele><time>2026-03-07T09:32:19.997Z</time></trkpt><trkpt lat="36.9582908" lon="-3.6909021"><ele>1333.0</ele><time>2026-03-07T09:32:20.992Z</time></trkpt><trkpt lat="36.9582326" lon="-3.6908293"><ele>1332.1666666666665</ele><time>2026-03-07T09:32:22.002Z</time></trkpt><trkpt lat="36.9581631" lon="-3.6907555"><ele>1331.3333333333333</ele><time>2026-03-07T09:32:23.012Z</time></trkpt><trkpt lat="36.9580887" lon="-3.6907044"><ele>1330.5</ele><time>2026-03-07T09:32:24.006Z</time></trkpt><trkpt lat="36.9580233" lon="-3.6906522"><ele>1329.6666666666667</ele><time>2026-03-07T09:32:25.011Z</time></trkpt><trkpt lat="36.9579587" lon="-3.6906244"><ele>1328.8333333333335</ele><time>2026-03-07T09:32:26.008Z</time></trkpt><trkpt lat="36.957893" lon="-3.6906128"><ele>1328.0</ele><time>2026-03-07T09:32:27.009Z</time></trkpt><trkpt lat="36.9578286" lon="-3.6906226"><ele>1328.0</ele><time>2026-03-07T09:32:28.014Z</time></trkpt><trkpt lat="36.9577608" lon="-3.6907067"><ele>1328.0</ele><time>2026-03-07T09:32:30.012Z</time></trkpt><trkpt lat="36.9577073" lon="-3.6907805"><ele>1328.0</ele><time>2026-03-07T09:32:32.047Z</time></trkpt><trkpt lat="36.9576254" lon="-3.6907603"><ele>1328.0</ele><time>2026-03-07T09:32:34.013Z</time></trkpt><trkpt lat="36.9575468" lon="-3.6906908"><ele>1328.0</ele><time>2026-03-07T09:32:36.014Z</time></trkpt><trkpt lat="36.9575176" lon="-3.6906152"><ele>1328.0</ele><time>2026-03-07T09:32:37.004Z</time></trkpt><trkpt lat="36.9574976" lon="-3.6905282"><ele>1328.6666666666667</ele><time>2026-03-07T09:32:38.015Z</time></trkpt><trkpt lat="36.9574792" lon="-3.690441"><ele>1329.3333333333335</ele><time>2026-03-07T09:32:39.025Z</time></trkpt><trkpt lat="36.957452" lon="-3.6903532"><ele>1330.0</ele><time>2026-03-07T09:32:40.009Z</time></trkpt><trkpt lat="36.9574217" lon="-3.690269"><ele>1330.6666666666667</ele><time>2026-03-07T09:32:41.009Z</time></trkpt><trkpt lat="36.9573851" lon="-3.6901817"><ele>1331.3333333333333</ele><time>2026-03-07T09:32:42.015Z</time></trkpt><trkpt lat="36.9573415" lon="-3.6900807"><ele>1332.0</ele><time>2026-03-07T09:32:43.011Z</time></trkpt><trkpt lat="36.957295" lon="-3.6899665"><ele>1328.6</ele><time>2026-03-07T09:32:44.008Z</time></trkpt><trkpt lat="36.9572497" lon="-3.6898643"><ele>1325.1999999999998</ele><time>2026-03-07T09:32:45.026Z</time></trkpt><trkpt lat="36.9572038" lon="-3.6897633"><ele>1321.8</ele><time>2026-03-07T09:32:46.014Z</time></trkpt><trkpt lat="36.9571541" lon="-3.6896686"><ele>1318.4</ele><time>2026-03-07T09:32:47.011Z</time></trkpt><trkpt lat="36.9571002" lon="-3.6895646"><ele>1315.0</ele><time>2026-03-07T09:32:48.005Z</time></trkpt><trkpt lat="36.9570547" lon="-3.6894696"><ele>1310.6</ele><time>2026-03-07T09:32:49.007Z</time></trkpt><trkpt lat="36.9570159" lon="-3.6893647"><ele>1306.2</ele><time>2026-03-07T09:32:50.016Z</time></trkpt><trkpt lat="36.9569829" lon="-3.6892656"><ele>1301.8000000000002</ele><time>2026-03-07T09:32:51.007Z</time></trkpt><trkpt lat="36.9569559" lon="-3.6891659"><ele>1297.4</ele><time>2026-03-07T09:32:52.017Z</time></trkpt><trkpt lat="36.9569256" lon="-3.6890519"><ele>1293.0</ele><time>2026-03-07T09:32:53.016Z</time></trkpt><trkpt lat="36.9568948" lon="-3.6889291"><ele>1293.0</ele><time>2026-03-07T09:32:54.008Z</time></trkpt><trkpt lat="36.9568483" lon="-3.6888121"><ele>1293.0</ele><time>2026-03-07T09:32:55.007Z</time></trkpt><trkpt lat="36.9568139" lon="-3.6886989"><ele>1293.0</ele><time>2026-03-07T09:32:56.01Z</time></trkpt><trkpt lat="36.9567801" lon="-3.6885864"><ele>1293.0</ele><time>2026-03-07T09:32:57.014Z</time></trkpt><trkpt lat="36.9567423" lon="-3.6884786"><ele>1293.0</ele><time>2026-03-07T09:32:58.021Z</time></trkpt><trkpt lat="36.9566902" lon="-3.6883773"><ele>1293.1666666666667</ele><time>2026-03-07T09:32:59.017Z</time></trkpt><trkpt lat="36.9566329" lon="-3.6883061"><ele>1293.3333333333333</ele><time>2026-03-07T09:33:00.014Z</time></trkpt><trkpt lat="36.9565616" lon="-3.6882518"><ele>1293.5</ele><time>2026-03-07T09:33:01.002Z</time></trkpt><trkpt lat="36.9565015" lon="-3.6881957"><ele>1293.6666666666665</ele><time>2026-03-07T09:33:02.012Z</time></trkpt><trkpt lat="36.9564294" lon="-3.6881372"><ele>1293.8333333333333</ele><time>2026-03-07T09:33:03.013Z</time></trkpt><trkpt lat="36.9563652" lon="-3.6880988"><ele>1294.0</ele><time>2026-03-07T09:33:04.009Z</time></trkpt><trkpt lat="36.9562957" lon="-3.6881061"><ele>1294.0</ele><time>2026-03-07T09:33:05.012Z</time></trkpt><trkpt lat="36.9562205" lon="-3.6881136"><ele>1294.0</ele><time>2026-03-07T09:33:06.014Z</time></trkpt><trkpt lat="36.9561414" lon="-3.6881411"><ele>1294.0</ele><time>2026-03-07T09:33:07.02Z</time></trkpt><trkpt lat="36.9560682" lon="-3.688173"><ele>1294.0</ele><time>2026-03-07T09:33:08.013Z</time></trkpt><trkpt lat="36.9559994" lon="-3.6882019"><ele>1294.0</ele><time>2026-03-07T09:33:08.995Z</time></trkpt><trkpt lat="36.9559321" lon="-3.6882215"><ele>1294.0</ele><time>2026-03-07T09:33:10.008Z</time></trkpt><trkpt lat="36.9558622" lon="-3.6882399"><ele>1294.0</ele><time>2026-03-07T09:33:11.002Z</time></trkpt><trkpt lat="36.9557961" lon="-3.6882559"><ele>1293.857142857143</ele><time>2026-03-07T09:33:12.009Z</time></trkpt><trkpt lat="36.9557302" lon="-3.6882654"><ele>1293.7142857142858</ele><time>2026-03-07T09:33:13.032Z</time></trkpt><trkpt lat="36.9556607" lon="-3.6882863"><ele>1293.5714285714284</ele><time>2026-03-07T09:33:14.01Z</time></trkpt><trkpt lat="36.9555951" lon="-3.6882981"><ele>1293.4285714285716</ele><time>2026-03-07T09:33:15.004Z</time></trkpt><trkpt lat="36.9555271" lon="-3.6883393"><ele>1293.2857142857144</ele><time>2026-03-07T09:33:16.005Z</time></trkpt><trkpt lat="36.9554582" lon="-3.6883604"><ele>1293.142857142857</ele><time>2026-03-07T09:33:16.999Z</time></trkpt><trkpt lat="36.9553902" lon="-3.688345"><ele>1293.0</ele><time>2026-03-07T09:33:18.007Z</time></trkpt><trkpt lat="36.9553265" lon="-3.6883046"><ele>1293.0</ele><time>2026-03-07T09:33:19.005Z</time></trkpt><trkpt lat="36.955266" lon="-3.6882616"><ele>1293.0</ele><time>2026-03-07T09:33:20.011Z</time></trkpt><trkpt lat="36.955192" lon="-3.6882439"><ele>1293.0</ele><time>2026-03-07T09:33:21.005Z</time></trkpt><trkpt lat="36.9551165" lon="-3.6882188"><ele>1293.0</ele><time>2026-03-07T09:33:22.006Z</time></trkpt><trkpt lat="36.9550322" lon="-3.6882145"><ele>1293.0</ele><time>2026-03-07T09:33:23.009Z</time></trkpt><trkpt lat="36.9549441" lon="-3.6882011"><ele>1293.0</ele><time>2026-03-07T09:33:24.011Z</time></trkpt><trkpt lat="36.9548518" lon="-3.688187"><ele>1291.5</ele><time>2026-03-07T09:33:25.013Z</time></trkpt><trkpt lat="36.9547621" lon="-3.6881829"><ele>1290.0</ele><time>2026-03-07T09:33:26.012Z</time></trkpt><trkpt lat="36.9546791" lon="-3.6881998"><ele>1288.5</ele><time>2026-03-07T09:33:27.012Z</time></trkpt><trkpt lat="36.9546073" lon="-3.688227"><ele>1287.0</ele><time>2026-03-07T09:33:28.011Z</time></trkpt><trkpt lat="36.9545369" lon="-3.6882612"><ele>1285.5</ele><time>2026-03-07T09:33:29.012Z</time></trkpt><trkpt lat="36.9544705" lon="-3.6882892"><ele>1284.0</ele><time>2026-03-07T09:33:30.01Z</time></trkpt><trkpt lat="36.9543767" lon="-3.6882819"><ele>1284.0</ele><time>2026-03-07T09:33:32.013Z</time></trkpt><trkpt lat="36.9543557" lon="-3.6881593"><ele>1284.0</ele><time>2026-03-07T09:33:34.012Z</time></trkpt><trkpt lat="36.9543773" lon="-3.6880284"><ele>1284.0</ele><time>2026-03-07T09:33:36.015Z</time></trkpt><trkpt lat="36.9544392" lon="-3.6878919"><ele>1284.0</ele><time>2026-03-07T09:33:38.015Z</time></trkpt><trkpt lat="36.9544798" lon="-3.6878207"><ele>1284.0</ele><time>2026-03-07T09:33:39.025Z</time></trkpt><trkpt lat="36.9545186" lon="-3.6877424"><ele>1280.6666666666667</ele><time>2026-03-07T09:33:40.024Z</time></trkpt><trkpt lat="36.9545516" lon="-3.6876638"><ele>1277.3333333333333</ele><time>2026-03-07T09:33:41.028Z</time></trkpt><trkpt lat="36.954584" lon="-3.6875781"><ele>1274.0</ele><time>2026-03-07T09:33:42.011Z</time></trkpt><trkpt lat="36.9546166" lon="-3.6874918"><ele>1270.6666666666665</ele><time>2026-03-07T09:33:43.009Z</time></trkpt><trkpt lat="36.9546496" lon="-3.6874124"><ele>1267.3333333333333</ele><time>2026-03-07T09:33:44.002Z</time></trkpt><trkpt lat="36.95467" lon="-3.6873332"><ele>1264.0</ele><time>2026-03-07T09:33:45.019Z</time></trkpt><trkpt lat="36.9546855" lon="-3.6871804"><ele>1264.0</ele><time>2026-03-07T09:33:47.01Z</time></trkpt><trkpt lat="36.9546399" lon="-3.6870515"><ele>1264.0</ele><time>2026-03-07T09:33:49.01Z</time></trkpt><trkpt lat="36.9545872" lon="-3.6869978"><ele>1264.0</ele><time>2026-03-07T09:33:50.007Z</time></trkpt><trkpt lat="36.954523" lon="-3.6869492"><ele>1264.0</ele><time>2026-03-07T09:33:51.009Z</time></trkpt><trkpt lat="36.9544467" lon="-3.6869096"><ele>1264.0</ele><time>2026-03-07T09:33:52.01Z</time></trkpt><trkpt lat="36.9543667" lon="-3.6868666"><ele>1264.0</ele><time>2026-03-07T09:33:53.024Z</time></trkpt><trkpt lat="36.9542928" lon="-3.6868166"><ele>1264.0</ele><time>2026-03-07T09:33:54.009Z</time></trkpt><trkpt lat="36.9542193" lon="-3.6867353"><ele>1264.0</ele><time>2026-03-07T09:33:55.016Z</time></trkpt><trkpt lat="36.9541515" lon="-3.6866492"><ele>1264.0</ele><time>2026-03-07T09:33:55.998Z</time></trkpt><trkpt lat="36.9540901" lon="-3.6865609"><ele>1264.0</ele><time>2026-03-07T09:33:57.015Z</time></trkpt><trkpt lat="36.9540313" lon="-3.6864809"><ele>1264.0</ele><time>2026-03-07T09:33:58.003Z</time></trkpt><trkpt lat="36.9539785" lon="-3.6863988"><ele>1264.0</ele><time>2026-03-07T09:33:59.011Z</time></trkpt><trkpt lat="36.9539337" lon="-3.6863095"><ele>1264.0</ele><time>2026-03-07T09:34:00.038Z</time></trkpt><trkpt lat="36.9538967" lon="-3.6862129"><ele>1264.0</ele><time>2026-03-07T09:34:01.013Z</time></trkpt><trkpt lat="36.9538618" lon="-3.6861129"><ele>1264.0</ele><time>2026-03-07T09:34:02.01Z</time></trkpt><trkpt lat="36.9538155" lon="-3.6860264"><ele>1264.0</ele><time>2026-03-07T09:34:03.004Z</time></trkpt><trkpt lat="36.9537618" lon="-3.6859504"><ele>1264.0</ele><time>2026-03-07T09:34:04.017Z</time></trkpt><trkpt lat="36.953694" lon="-3.6859012"><ele>1263.0</ele><time>2026-03-07T09:34:05.01Z</time></trkpt><trkpt lat="36.9536259" lon="-3.6858612"><ele>1262.0</ele><time>2026-03-07T09:34:06Z</time></trkpt><trkpt lat="36.9535624" lon="-3.6858382"><ele>1261.0</ele><time>2026-03-07T09:34:07.012Z</time></trkpt><trkpt lat="36.9534934" lon="-3.6857551"><ele>1260.0</ele><time>2026-03-07T09:34:09.012Z</time></trkpt><trkpt lat="36.9534905" lon="-3.6856231"><ele>1259.0</ele><time>2026-03-07T09:34:11.008Z</time></trkpt><trkpt lat="36.9534949" lon="-3.6855403"><ele>1258.0</ele><time>2026-03-07T09:34:11.999Z</time></trkpt><trkpt lat="36.9534726" lon="-3.6853994"><ele>1258.0</ele><time>2026-03-07T09:34:14.007Z</time></trkpt><trkpt lat="36.9533993" lon="-3.6853112"><ele>1258.0</ele><time>2026-03-07T09:34:16.01Z</time></trkpt><trkpt lat="36.9532969" lon="-3.6852739"><ele>1258.0</ele><time>2026-03-07T09:34:18.022Z</time></trkpt><trkpt lat="36.9532199" lon="-3.6852237"><ele>1258.0</ele><time>2026-03-07T09:34:20.013Z</time></trkpt><trkpt lat="36.9531831" lon="-3.6850767"><ele>1258.0</ele><time>2026-03-07T09:34:22.004Z</time></trkpt><trkpt lat="36.9531381" lon="-3.6849363"><ele>1257.6666666666665</ele><time>2026-03-07T09:34:24.019Z</time></trkpt><trkpt lat="36.953102" lon="-3.6848613"><ele>1257.3333333333333</ele><time>2026-03-07T09:34:25.011Z</time></trkpt><trkpt lat="36.9530577" lon="-3.6847832"><ele>1257.0</ele><time>2026-03-07T09:34:26.006Z</time></trkpt><trkpt lat="36.9530072" lon="-3.6847057"><ele>1256.6666666666667</ele><time>2026-03-07T09:34:27.012Z</time></trkpt><trkpt lat="36.9529516" lon="-3.6846234"><ele>1256.3333333333335</ele><time>2026-03-07T09:34:28.006Z</time></trkpt><trkpt lat="36.9529049" lon="-3.6845407"><ele>1256.0</ele><time>2026-03-07T09:34:29.008Z</time></trkpt><trkpt lat="36.9528602" lon="-3.6844677"><ele>1255.2</ele><time>2026-03-07T09:34:30.019Z</time></trkpt><trkpt lat="36.952811" lon="-3.6844044"><ele>1254.3999999999999</ele><time>2026-03-07T09:34:31.019Z</time></trkpt><trkpt lat="36.9527541" lon="-3.6843482"><ele>1253.6</ele><time>2026-03-07T09:34:32.013Z</time></trkpt><trkpt lat="36.9527004" lon="-3.6843001"><ele>1252.8</ele><time>2026-03-07T09:34:33.01Z</time></trkpt><trkpt lat="36.9525942" lon="-3.684217"><ele>1252.0</ele><time>2026-03-07T09:34:35.01Z</time></trkpt><trkpt lat="36.9524727" lon="-3.684168"><ele>1252.0</ele><time>2026-03-07T09:34:37.017Z</time></trkpt><trkpt lat="36.9523539" lon="-3.6841229"><ele>1252.0</ele><time>2026-03-07T09:34:39.025Z</time></trkpt><trkpt lat="36.9522946" lon="-3.6840914"><ele>1252.0</ele><time>2026-03-07T09:34:40.016Z</time></trkpt><trkpt lat="36.9522452" lon="-3.6840396"><ele>1252.0</ele><time>2026-03-07T09:34:41.054Z</time></trkpt><trkpt lat="36.9522028" lon="-3.6839757"><ele>1252.0</ele><time>2026-03-07T09:34:42.007Z</time></trkpt><trkpt lat="36.9521545" lon="-3.6839013"><ele>1252.0</ele><time>2026-03-07T09:34:43.013Z</time></trkpt><trkpt lat="36.9521007" lon="-3.6838212"><ele>1252.0</ele><time>2026-03-07T09:34:44.018Z</time></trkpt><trkpt lat="36.9520407" lon="-3.6837476"><ele>1252.0</ele><time>2026-03-07T09:34:45.031Z</time></trkpt><trkpt lat="36.9519803" lon="-3.6836735"><ele>1252.0</ele><time>2026-03-07T09:34:46.013Z</time></trkpt><trkpt lat="36.9519194" lon="-3.6836047"><ele>1252.0</ele><time>2026-03-07T09:34:47.006Z</time></trkpt><trkpt lat="36.9518694" lon="-3.6835365"><ele>1252.0</ele><time>2026-03-07T09:34:48.03Z</time></trkpt><trkpt lat="36.9518139" lon="-3.6834725"><ele>1252.0</ele><time>2026-03-07T09:34:49.06Z</time></trkpt><trkpt lat="36.9517484" lon="-3.683395"><ele>1252.4</ele><time>2026-03-07T09:34:50.011Z</time></trkpt><trkpt lat="36.9516697" lon="-3.6833092"><ele>1252.8000000000002</ele><time>2026-03-07T09:34:51.011Z</time></trkpt><trkpt lat="36.9515829" lon="-3.6832258"><ele>1253.2</ele><time>2026-03-07T09:34:52.015Z</time></trkpt><trkpt lat="36.9515036" lon="-3.683146"><ele>1253.6000000000001</ele><time>2026-03-07T09:34:53.006Z</time></trkpt><trkpt lat="36.9514308" lon="-3.6830734"><ele>1254.0</ele><time>2026-03-07T09:34:54.01Z</time></trkpt><trkpt lat="36.9513607" lon="-3.6830012"><ele>1254.0</ele><time>2026-03-07T09:34:55.013Z</time></trkpt><trkpt lat="36.9512908" lon="-3.6829352"><ele>1254.0</ele><time>2026-03-07T09:34:56.009Z</time></trkpt><trkpt lat="36.9512167" lon="-3.6828757"><ele>1254.0</ele><time>2026-03-07T09:34:57.009Z</time></trkpt><trkpt lat="36.9511404" lon="-3.6828103"><ele>1254.0</ele><time>2026-03-07T09:34:58.017Z</time></trkpt><trkpt lat="36.9510617" lon="-3.6827398"><ele>1254.0</ele><time>2026-03-07T09:34:59.009Z</time></trkpt><trkpt lat="36.9509901" lon="-3.6826637"><ele>1253.8333333333333</ele><time>2026-03-07T09:35:00.01Z</time></trkpt><trkpt lat="36.9509241" lon="-3.6825959"><ele>1253.6666666666667</ele><time>2026-03-07T09:35:01.031Z</time></trkpt><trkpt lat="36.9508523" lon="-3.68255"><ele>1253.5</ele><time>2026-03-07T09:35:02.071Z</time></trkpt><trkpt lat="36.9507786" lon="-3.6825081"><ele>1253.3333333333335</ele><time>2026-03-07T09:35:03.008Z</time></trkpt><trkpt lat="36.9506993" lon="-3.682476"><ele>1253.1666666666667</ele><time>2026-03-07T09:35:04.001Z</time></trkpt><trkpt lat="36.9506201" lon="-3.6824346"><ele>1253.0</ele><time>2026-03-07T09:35:05.006Z</time></trkpt><trkpt lat="36.9505435" lon="-3.6823828"><ele>1254.4</ele><time>2026-03-07T09:35:06.011Z</time></trkpt><trkpt lat="36.9504735" lon="-3.6823231"><ele>1255.8</ele><time>2026-03-07T09:35:07.006Z</time></trkpt><trkpt lat="36.9504111" lon="-3.68224"><ele>1257.2</ele><time>2026-03-07T09:35:08.013Z</time></trkpt><trkpt lat="36.95035" lon="-3.6821481"><ele>1258.6</ele><time>2026-03-07T09:35:09.014Z</time></trkpt><trkpt lat="36.950289" lon="-3.6820572"><ele>1260.0</ele><time>2026-03-07T09:35:10.004Z</time></trkpt><trkpt lat="36.9502367" lon="-3.6819684"><ele>1261.1666666666667</ele><time>2026-03-07T09:35:11.003Z</time></trkpt><trkpt lat="36.9501798" lon="-3.6818953"><ele>1262.3333333333333</ele><time>2026-03-07T09:35:12.031Z</time></trkpt><trkpt lat="36.9501284" lon="-3.6818061"><ele>1263.5</ele><time>2026-03-07T09:35:13.014Z</time></trkpt><trkpt lat="36.9500811" lon="-3.6817099"><ele>1264.6666666666665</ele><time>2026-03-07T09:35:14.007Z</time></trkpt><trkpt lat="36.9500341" lon="-3.6816118"><ele>1265.8333333333333</ele><time>2026-03-07T09:35:15.009Z</time></trkpt><trkpt lat="36.9499817" lon="-3.6815091"><ele>1267.0</ele><time>2026-03-07T09:35:16.002Z</time></trkpt><trkpt lat="36.9499214" lon="-3.6814063"><ele>1267.0</ele><time>2026-03-07T09:35:17.018Z</time></trkpt><trkpt lat="36.9498711" lon="-3.6813057"><ele>1267.0</ele><time>2026-03-07T09:35:18.025Z</time></trkpt><trkpt lat="36.9498474" lon="-3.6812067"><ele>1267.0</ele><time>2026-03-07T09:35:19.001Z</time></trkpt><trkpt lat="36.9498428" lon="-3.6811122"><ele>1267.0</ele><time>2026-03-07T09:35:20.006Z</time></trkpt><trkpt lat="36.9498321" lon="-3.6810181"><ele>1267.0</ele><time>2026-03-07T09:35:21.009Z</time></trkpt><trkpt lat="36.9498473" lon="-3.6809079"><ele>1267.0</ele><time>2026-03-07T09:35:22.015Z</time></trkpt><trkpt lat="36.9498643" lon="-3.6807933"><ele>1265.6666666666665</ele><time>2026-03-07T09:35:23.007Z</time></trkpt><trkpt lat="36.9498889" lon="-3.6806903"><ele>1264.3333333333333</ele><time>2026-03-07T09:35:24.012Z</time></trkpt><trkpt lat="36.9499044" lon="-3.6806082"><ele>1263.0</ele><time>2026-03-07T09:35:25.011Z</time></trkpt><trkpt lat="36.9499018" lon="-3.6804825"><ele>1261.6666666666667</ele><time>2026-03-07T09:35:27.024Z</time></trkpt><trkpt lat="36.9498749" lon="-3.6803955"><ele>1260.3333333333335</ele><time>2026-03-07T09:35:29.017Z</time></trkpt><trkpt lat="36.9498573" lon="-3.6803098"><ele>1259.0</ele><time>2026-03-07T09:35:31.027Z</time></trkpt><trkpt lat="36.949863" lon="-3.6802077"><ele>1258.3333333333335</ele><time>2026-03-07T09:35:34.012Z</time></trkpt><trkpt lat="36.9498442" lon="-3.6801254"><ele>1257.6666666666667</ele><time>2026-03-07T09:35:37.018Z</time></trkpt><trkpt lat="36.9497942" lon="-3.6800362"><ele>1257.0</ele><time>2026-03-07T09:35:40.015Z</time></trkpt><trkpt lat="36.9497357" lon="-3.6799441"><ele>1256.3333333333333</ele><time>2026-03-07T09:35:43.009Z</time></trkpt><trkpt lat="36.9496859" lon="-3.6798731"><ele>1255.6666666666665</ele><time>2026-03-07T09:35:45.03Z</time></trkpt><trkpt lat="36.9496135" lon="-3.6797862"><ele>1255.0</ele><time>2026-03-07T09:35:47.02Z</time></trkpt><trkpt lat="36.949542" lon="-3.6797425"><ele>1255.0</ele><time>2026-03-07T09:35:49.017Z</time></trkpt><trkpt lat="36.9494632" lon="-3.679695"><ele>1255.0</ele><time>2026-03-07T09:35:51.013Z</time></trkpt><trkpt lat="36.9493869" lon="-3.6796275"><ele>1255.0</ele><time>2026-03-07T09:35:53.014Z</time></trkpt><trkpt lat="36.949297" lon="-3.6795885"><ele>1255.0</ele><time>2026-03-07T09:35:55.009Z</time></trkpt><trkpt lat="36.9492158" lon="-3.6795647"><ele>1255.0</ele><time>2026-03-07T09:35:57.017Z</time></trkpt><trkpt lat="36.9491406" lon="-3.6795116"><ele>1255.0</ele><time>2026-03-07T09:35:59.016Z</time></trkpt><trkpt lat="36.9490473" lon="-3.6795169"><ele>1253.0</ele><time>2026-03-07T09:36:01.009Z</time></trkpt><trkpt lat="36.9489485" lon="-3.6795289"><ele>1251.0</ele><time>2026-03-07T09:36:03Z</time></trkpt><trkpt lat="36.9488486" lon="-3.6795228"><ele>1249.0</ele><time>2026-03-07T09:36:05.006Z</time></trkpt><trkpt lat="36.9487474" lon="-3.6794474"><ele>1247.0</ele><time>2026-03-07T09:36:07.004Z</time></trkpt><trkpt lat="36.9486818" lon="-3.6793837"><ele>1245.0</ele><time>2026-03-07T09:36:08.005Z</time></trkpt><trkpt lat="36.9486127" lon="-3.6793066"><ele>1244.8333333333333</ele><time>2026-03-07T09:36:09.009Z</time></trkpt><trkpt lat="36.9485421" lon="-3.679231"><ele>1244.6666666666667</ele><time>2026-03-07T09:36:10.019Z</time></trkpt><trkpt lat="36.9484692" lon="-3.679164"><ele>1244.5</ele><time>2026-03-07T09:36:11.004Z</time></trkpt><trkpt lat="36.9484033" lon="-3.6791021"><ele>1244.3333333333335</ele><time>2026-03-07T09:36:12.009Z</time></trkpt><trkpt lat="36.9483422" lon="-3.6790426"><ele>1244.1666666666667</ele><time>2026-03-07T09:36:13.008Z</time></trkpt><trkpt lat="36.9482816" lon="-3.6789806"><ele>1244.0</ele><time>2026-03-07T09:36:14.001Z</time></trkpt><trkpt lat="36.9482305" lon="-3.6789086"><ele>1242.3333333333335</ele><time>2026-03-07T09:36:15.016Z</time></trkpt><trkpt lat="36.9481868" lon="-3.678822"><ele>1240.6666666666667</ele><time>2026-03-07T09:36:16.006Z</time></trkpt><trkpt lat="36.9481428" lon="-3.678729"><ele>1239.0</ele><time>2026-03-07T09:36:17.003Z</time></trkpt><trkpt lat="36.9481006" lon="-3.6786364"><ele>1237.3333333333333</ele><time>2026-03-07T09:36:18.005Z</time></trkpt><trkpt lat="36.9480667" lon="-3.6785552"><ele>1235.6666666666665</ele><time>2026-03-07T09:36:19.015Z</time></trkpt><trkpt lat="36.9480313" lon="-3.6784844"><ele>1234.0</ele><time>2026-03-07T09:36:20.005Z</time></trkpt><trkpt lat="36.947961" lon="-3.6783605"><ele>1233.5714285714287</ele><time>2026-03-07T09:36:22.008Z</time></trkpt><trkpt lat="36.9479212" lon="-3.6782957"><ele>1233.142857142857</ele><time>2026-03-07T09:36:23.02Z</time></trkpt><trkpt lat="36.9478768" lon="-3.6782205"><ele>1232.7142857142858</ele><time>2026-03-07T09:36:24.012Z</time></trkpt><trkpt lat="36.9478321" lon="-3.6781427"><ele>1232.2857142857142</ele><time>2026-03-07T09:36:25.001Z</time></trkpt><trkpt lat="36.9477897" lon="-3.6780625"><ele>1231.857142857143</ele><time>2026-03-07T09:36:26.012Z</time></trkpt><trkpt lat="36.947748" lon="-3.6779888"><ele>1231.4285714285713</ele><time>2026-03-07T09:36:27.015Z</time></trkpt><trkpt lat="36.9477088" lon="-3.6779227"><ele>1231.0</ele><time>2026-03-07T09:36:28.016Z</time></trkpt><trkpt lat="36.9476354" lon="-3.6778301"><ele>1228.3333333333333</ele><time>2026-03-07T09:36:30.012Z</time></trkpt><trkpt lat="36.9475751" lon="-3.6777382"><ele>1225.6666666666665</ele><time>2026-03-07T09:36:32.017Z</time></trkpt><trkpt lat="36.9475314" lon="-3.6776164"><ele>1223.0</ele><time>2026-03-07T09:36:34.004Z</time></trkpt><trkpt lat="36.947511" lon="-3.6775396"><ele>1220.3333333333333</ele><time>2026-03-07T09:36:35Z</time></trkpt><trkpt lat="36.9474848" lon="-3.6774625"><ele>1217.6666666666667</ele><time>2026-03-07T09:36:36.012Z</time></trkpt><trkpt lat="36.9474444" lon="-3.6773946"><ele>1215.0</ele><time>2026-03-07T09:36:37.003Z</time></trkpt><trkpt lat="36.9473738" lon="-3.6772878"><ele>1214.4</ele><time>2026-03-07T09:36:39.015Z</time></trkpt><trkpt lat="36.9473108" lon="-3.6771714"><ele>1213.8</ele><time>2026-03-07T09:36:41.009Z</time></trkpt><trkpt lat="36.947254" lon="-3.6770521"><ele>1213.2</ele><time>2026-03-07T09:36:43.004Z</time></trkpt><trkpt lat="36.9472027" lon="-3.676907"><ele>1212.6</ele><time>2026-03-07T09:36:45.005Z</time></trkpt><trkpt lat="36.9471778" lon="-3.6768208"><ele>1212.0</ele><time>2026-03-07T09:36:46.017Z</time></trkpt><trkpt lat="36.9471546" lon="-3.6767354"><ele>1209.5714285714287</ele><time>2026-03-07T09:36:47.013Z</time></trkpt><trkpt lat="36.9471299" lon="-3.6766507"><ele>1207.142857142857</ele><time>2026-03-07T09:36:48.024Z</time></trkpt><trkpt lat="36.9471051" lon="-3.6765711"><ele>1204.7142857142858</ele><time>2026-03-07T09:36:49.005Z</time></trkpt><trkpt lat="36.9470664" lon="-3.676501"><ele>1202.2857142857142</ele><time>2026-03-07T09:36:50.003Z</time></trkpt><trkpt lat="36.9470093" lon="-3.6764533"><ele>1199.857142857143</ele><time>2026-03-07T09:36:51.023Z</time></trkpt><trkpt lat="36.9469499" lon="-3.6764056"><ele>1197.4285714285713</ele><time>2026-03-07T09:36:52.006Z</time></trkpt><trkpt lat="36.9468871" lon="-3.6763451"><ele>1195.0</ele><time>2026-03-07T09:36:53.001Z</time></trkpt><trkpt lat="36.9468264" lon="-3.6762712"><ele>1195.0</ele><time>2026-03-07T09:36:54.021Z</time></trkpt><trkpt lat="36.9467641" lon="-3.6761997"><ele>1195.0</ele><time>2026-03-07T09:36:55.001Z</time></trkpt><trkpt lat="36.9466985" lon="-3.6761364"><ele>1195.0</ele><time>2026-03-07T09:36:56.003Z</time></trkpt><trkpt lat="36.9466357" lon="-3.6760653"><ele>1195.0</ele><time>2026-03-07T09:36:57.014Z</time></trkpt><trkpt lat="36.946568" lon="-3.6760118"><ele>1195.0</ele><time>2026-03-07T09:36:58.016Z</time></trkpt><trkpt lat="36.9465118" lon="-3.6759575"><ele>1195.0</ele><time>2026-03-07T09:36:59.015Z</time></trkpt><trkpt lat="36.9464578" lon="-3.67591"><ele>1192.3333333333333</ele><time>2026-03-07T09:37:00.044Z</time></trkpt><trkpt lat="36.9464102" lon="-3.6758495"><ele>1189.6666666666665</ele><time>2026-03-07T09:37:01.001Z</time></trkpt><trkpt lat="36.9463741" lon="-3.6757622"><ele>1187.0</ele><time>2026-03-07T09:37:02.021Z</time></trkpt><trkpt lat="36.946337" lon="-3.6756634"><ele>1184.3333333333333</ele><time>2026-03-07T09:37:03.004Z</time></trkpt><trkpt lat="36.9462833" lon="-3.6755715"><ele>1181.6666666666667</ele><time>2026-03-07T09:37:04.012Z</time></trkpt><trkpt lat="36.9462219" lon="-3.6754842"><ele>1179.0</ele><time>2026-03-07T09:37:05.008Z</time></trkpt><trkpt lat="36.9461492" lon="-3.6754004"><ele>1179.0</ele><time>2026-03-07T09:37:06.006Z</time></trkpt><trkpt lat="36.9460782" lon="-3.675312"><ele>1179.0</ele><time>2026-03-07T09:37:07.001Z</time></trkpt><trkpt lat="36.945987" lon="-3.6752503"><ele>1179.0</ele><time>2026-03-07T09:37:08.008Z</time></trkpt><trkpt lat="36.9458998" lon="-3.6751874"><ele>1179.0</ele><time>2026-03-07T09:37:09.015Z</time></trkpt><trkpt lat="36.9458143" lon="-3.6751118"><ele>1179.0</ele><time>2026-03-07T09:37:10.016Z</time></trkpt><trkpt lat="36.9457344" lon="-3.6750337"><ele>1177.3333333333333</ele><time>2026-03-07T09:37:11.003Z</time></trkpt><trkpt lat="36.9456613" lon="-3.6749512"><ele>1175.6666666666667</ele><time>2026-03-07T09:37:12.011Z</time></trkpt><trkpt lat="36.9455932" lon="-3.6748808"><ele>1174.0</ele><time>2026-03-07T09:37:13.007Z</time></trkpt><trkpt lat="36.9455261" lon="-3.6748214"><ele>1172.3333333333335</ele><time>2026-03-07T09:37:14.004Z</time></trkpt><trkpt lat="36.9454717" lon="-3.6747575"><ele>1170.6666666666667</ele><time>2026-03-07T09:37:14.994Z</time></trkpt><trkpt lat="36.9454267" lon="-3.674696"><ele>1169.0</ele><time>2026-03-07T09:37:16.005Z</time></trkpt><trkpt lat="36.94538" lon="-3.674637"><ele>1169.0</ele><time>2026-03-07T09:37:17.023Z</time></trkpt><trkpt lat="36.9453325" lon="-3.674571"><ele>1169.0</ele><time>2026-03-07T09:37:18.014Z</time></trkpt><trkpt lat="36.9452867" lon="-3.6745037"><ele>1169.0</ele><time>2026-03-07T09:37:19.012Z</time></trkpt><trkpt lat="36.9451835" lon="-3.6744393"><ele>1169.0</ele><time>2026-03-07T09:37:21.028Z</time></trkpt><trkpt lat="36.9451279" lon="-3.6743981"><ele>1169.0</ele><time>2026-03-07T09:37:21.999Z</time></trkpt><trkpt lat="36.9450726" lon="-3.6743397"><ele>1169.0</ele><time>2026-03-07T09:37:23.005Z</time></trkpt><trkpt lat="36.9450214" lon="-3.6742834"><ele>1169.0</ele><time>2026-03-07T09:37:24Z</time></trkpt><trkpt lat="36.9449488" lon="-3.6741726"><ele>1169.0</ele><time>2026-03-07T09:37:26Z</time></trkpt><trkpt lat="36.94488" lon="-3.6740381"><ele>1169.0</ele><time>2026-03-07T09:37:28.009Z</time></trkpt><trkpt lat="36.9448506" lon="-3.6739532"><ele>1169.0</ele><time>2026-03-07T09:37:29.016Z</time></trkpt><trkpt lat="36.9448391" lon="-3.6738677"><ele>1169.0</ele><time>2026-03-07T09:37:30.004Z</time></trkpt><trkpt lat="36.9448322" lon="-3.673786"><ele>1169.0</ele><time>2026-03-07T09:37:31.01Z</time></trkpt><trkpt lat="36.9448243" lon="-3.6737009"><ele>1169.0</ele><time>2026-03-07T09:37:32.031Z</time></trkpt><trkpt lat="36.9448161" lon="-3.6736126"><ele>1169.0</ele><time>2026-03-07T09:37:33.004Z</time></trkpt><trkpt lat="36.9447847" lon="-3.6735208"><ele>1169.0</ele><time>2026-03-07T09:37:34.009Z</time></trkpt><trkpt lat="36.9447373" lon="-3.6734307"><ele>1169.0</ele><time>2026-03-07T09:37:35.003Z</time></trkpt><trkpt lat="36.9446818" lon="-3.6733473"><ele>1169.0</ele><time>2026-03-07T09:37:36.006Z</time></trkpt><trkpt lat="36.9446295" lon="-3.6732664"><ele>1167.857142857143</ele><time>2026-03-07T09:37:37.011Z</time></trkpt><trkpt lat="36.9445764" lon="-3.6731937"><ele>1166.7142857142858</ele><time>2026-03-07T09:37:38.003Z</time></trkpt><trkpt lat="36.9445165" lon="-3.6731422"><ele>1165.5714285714284</ele><time>2026-03-07T09:37:39.001Z</time></trkpt><trkpt lat="36.9444536" lon="-3.6731178"><ele>1164.4285714285716</ele><time>2026-03-07T09:37:40.008Z</time></trkpt><trkpt lat="36.9443825" lon="-3.6731278"><ele>1163.2857142857142</ele><time>2026-03-07T09:37:41.004Z</time></trkpt><trkpt lat="36.9443063" lon="-3.6731551"><ele>1162.142857142857</ele><time>2026-03-07T09:37:42.01Z</time></trkpt><trkpt lat="36.9442352" lon="-3.6731771"><ele>1161.0</ele><time>2026-03-07T09:37:42.997Z</time></trkpt><trkpt lat="36.9441711" lon="-3.6731963"><ele>1161.0</ele><time>2026-03-07T09:37:44.002Z</time></trkpt><trkpt lat="36.9440563" lon="-3.6732461"><ele>1161.0</ele><time>2026-03-07T09:37:46.024Z</time></trkpt><trkpt lat="36.9439423" lon="-3.6732831"><ele>1161.0</ele><time>2026-03-07T09:37:48.004Z</time></trkpt><trkpt lat="36.9438785" lon="-3.673303"><ele>1161.0</ele><time>2026-03-07T09:37:49.01Z</time></trkpt><trkpt lat="36.9437668" lon="-3.6733455"><ele>1161.0</ele><time>2026-03-07T09:37:51.018Z</time></trkpt><trkpt lat="36.9436695" lon="-3.6734183"><ele>1161.0</ele><time>2026-03-07T09:37:53.013Z</time></trkpt><trkpt lat="36.9435773" lon="-3.6735249"><ele>1161.0</ele><time>2026-03-07T09:37:55.012Z</time></trkpt><trkpt lat="36.9435435" lon="-3.6735978"><ele>1161.0</ele><time>2026-03-07T09:37:56.014Z</time></trkpt><trkpt lat="36.9435057" lon="-3.6736676"><ele>1161.0</ele><time>2026-03-07T09:37:57.003Z</time></trkpt><trkpt lat="36.9434008" lon="-3.6737431"><ele>1161.0</ele><time>2026-03-07T09:37:59.014Z</time></trkpt><trkpt lat="36.9433352" lon="-3.6737564"><ele>1161.0</ele><time>2026-03-07T09:38:00.059Z</time></trkpt><trkpt lat="36.9432148" lon="-3.6737907"><ele>1157.2</ele><time>2026-03-07T09:38:02.02Z</time></trkpt><trkpt lat="36.9431569" lon="-3.6738236"><ele>1153.3999999999999</ele><time>2026-03-07T09:38:03.03Z</time></trkpt><trkpt lat="36.943051" lon="-3.6739017"><ele>1149.6</ele><time>2026-03-07T09:38:05.009Z</time></trkpt><trkpt lat="36.9429551" lon="-3.6739548"><ele>1145.8</ele><time>2026-03-07T09:38:07.009Z</time></trkpt><trkpt lat="36.9428738" lon="-3.6739432"><ele>1142.0</ele><time>2026-03-07T09:38:09.004Z</time></trkpt><trkpt lat="36.942804" lon="-3.6738478"><ele>1142.0</ele><time>2026-03-07T09:38:11.001Z</time></trkpt><trkpt lat="36.9427502" lon="-3.6737942"><ele>1142.0</ele><time>2026-03-07T09:38:12.009Z</time></trkpt><trkpt lat="36.9426814" lon="-3.6737408"><ele>1142.0</ele><time>2026-03-07T09:38:13.006Z</time></trkpt><trkpt lat="36.9426123" lon="-3.6736958"><ele>1142.0</ele><time>2026-03-07T09:38:14.011Z</time></trkpt><trkpt lat="36.9425382" lon="-3.6736497"><ele>1142.0</ele><time>2026-03-07T09:38:15.001Z</time></trkpt><trkpt lat="36.9424629" lon="-3.6736065"><ele>1142.0</ele><time>2026-03-07T09:38:16.023Z</time></trkpt><trkpt lat="36.9423757" lon="-3.6735677"><ele>1139.8333333333335</ele><time>2026-03-07T09:38:17.017Z</time></trkpt><trkpt lat="36.942292" lon="-3.6735353"><ele>1137.6666666666667</ele><time>2026-03-07T09:38:18.017Z</time></trkpt><trkpt lat="36.9422091" lon="-3.673506"><ele>1135.5</ele><time>2026-03-07T09:38:18.999Z</time></trkpt><trkpt lat="36.9421249" lon="-3.6734961"><ele>1133.3333333333333</ele><time>2026-03-07T09:38:20.021Z</time></trkpt><trkpt lat="36.9420404" lon="-3.6734824"><ele>1131.1666666666665</ele><time>2026-03-07T09:38:21.009Z</time></trkpt><trkpt lat="36.941958" lon="-3.6734607"><ele>1129.0</ele><time>2026-03-07T09:38:22.006Z</time></trkpt><trkpt lat="36.9418793" lon="-3.6734449"><ele>1129.0</ele><time>2026-03-07T09:38:23.004Z</time></trkpt><trkpt lat="36.9418104" lon="-3.6734252"><ele>1129.0</ele><time>2026-03-07T09:38:24.001Z</time></trkpt><trkpt lat="36.9417456" lon="-3.6734006"><ele>1129.0</ele><time>2026-03-07T09:38:25.004Z</time></trkpt><trkpt lat="36.9416823" lon="-3.6733745"><ele>1129.0</ele><time>2026-03-07T09:38:26.001Z</time></trkpt><trkpt lat="36.9415789" lon="-3.6733122"><ele>1129.0</ele><time>2026-03-07T09:38:28.016Z</time></trkpt><trkpt lat="36.9414929" lon="-3.6732482"><ele>1129.0</ele><time>2026-03-07T09:38:30.002Z</time></trkpt><trkpt lat="36.9414399" lon="-3.6731467"><ele>1126.6000000000001</ele><time>2026-03-07T09:38:32.005Z</time></trkpt><trkpt lat="36.9413905" lon="-3.6730457"><ele>1124.2</ele><time>2026-03-07T09:38:34.017Z</time></trkpt><trkpt lat="36.9413688" lon="-3.6729095"><ele>1121.8000000000002</ele><time>2026-03-07T09:38:36.006Z</time></trkpt><trkpt lat="36.9414114" lon="-3.6727686"><ele>1119.4</ele><time>2026-03-07T09:38:38.012Z</time></trkpt><trkpt lat="36.941465" lon="-3.6727172"><ele>1117.0</ele><time>2026-03-07T09:38:39.016Z</time></trkpt><trkpt lat="36.9415189" lon="-3.6726694"><ele>1115.8</ele><time>2026-03-07T09:38:40.008Z</time></trkpt><trkpt lat="36.9416008" lon="-3.6725904"><ele>1114.6</ele><time>2026-03-07T09:38:42.025Z</time></trkpt><trkpt lat="36.9416689" lon="-3.67255"><ele>1113.3999999999999</ele><time>2026-03-07T09:38:44.017Z</time></trkpt><trkpt lat="36.94171" lon="-3.6724556"><ele>1112.2</ele><time>2026-03-07T09:38:46.017Z</time></trkpt><trkpt lat="36.9417083" lon="-3.6723311"><ele>1111.0</ele><time>2026-03-07T09:38:48.015Z</time></trkpt><trkpt lat="36.941715" lon="-3.6722192"><ele>1111.0</ele><time>2026-03-07T09:38:50Z</time></trkpt><trkpt lat="36.9417001" lon="-3.6721235"><ele>1111.0</ele><time>2026-03-07T09:38:52.012Z</time></trkpt><trkpt lat="36.9416699" lon="-3.672045"><ele>1111.0</ele><time>2026-03-07T09:38:54.013Z</time></trkpt><trkpt lat="36.941635" lon="-3.6719529"><ele>1111.0</ele><time>2026-03-07T09:38:56.004Z</time></trkpt><trkpt lat="36.9416268" lon="-3.6718316"><ele>1111.0</ele><time>2026-03-07T09:38:58.013Z</time></trkpt><trkpt lat="36.9416505" lon="-3.671695"><ele>1111.0</ele><time>2026-03-07T09:39:00.023Z</time></trkpt><trkpt lat="36.9417154" lon="-3.6716128"><ele>1111.2</ele><time>2026-03-07T09:39:01.998Z</time></trkpt><trkpt lat="36.9418024" lon="-3.6715314"><ele>1111.3999999999999</ele><time>2026-03-07T09:39:04.003Z</time></trkpt><trkpt lat="36.9418505" lon="-3.6714687"><ele>1111.6</ele><time>2026-03-07T09:39:05.006Z</time></trkpt><trkpt lat="36.9419208" lon="-3.6713527"><ele>1111.8</ele><time>2026-03-07T09:39:07.01Z</time></trkpt><trkpt lat="36.9419466" lon="-3.6712759"><ele>1112.0</ele><time>2026-03-07T09:39:08.011Z</time></trkpt><trkpt lat="36.9419939" lon="-3.6711626"><ele>1109.0</ele><time>2026-03-07T09:39:10.001Z</time></trkpt><trkpt lat="36.9420094" lon="-3.671035"><ele>1106.0</ele><time>2026-03-07T09:39:12.003Z</time></trkpt><trkpt lat="36.941993" lon="-3.6709408"><ele>1103.0</ele><time>2026-03-07T09:39:14.011Z</time></trkpt><trkpt lat="36.9419852" lon="-3.6708615"><ele>1100.0</ele><time>2026-03-07T09:39:16.015Z</time></trkpt><trkpt lat="36.9419946" lon="-3.6707507"><ele>1097.0</ele><time>2026-03-07T09:39:18.008Z</time></trkpt><trkpt lat="36.9420064" lon="-3.6706328"><ele>1094.0</ele><time>2026-03-07T09:39:20.015Z</time></trkpt><trkpt lat="36.9420136" lon="-3.6705066"><ele>1094.0</ele><time>2026-03-07T09:39:22.009Z</time></trkpt><trkpt lat="36.9419589" lon="-3.6703773"><ele>1094.0</ele><time>2026-03-07T09:39:24.009Z</time></trkpt><trkpt lat="36.9419086" lon="-3.6702904"><ele>1094.0</ele><time>2026-03-07T09:39:25.01Z</time></trkpt><trkpt lat="36.9418622" lon="-3.6701944"><ele>1094.0</ele><time>2026-03-07T09:39:26.014Z</time></trkpt><trkpt lat="36.9418198" lon="-3.6700982"><ele>1094.0</ele><time>2026-03-07T09:39:27.016Z</time></trkpt><trkpt lat="36.9417743" lon="-3.6699966"><ele>1091.6000000000001</ele><time>2026-03-07T09:39:28.014Z</time></trkpt><trkpt lat="36.9417241" lon="-3.669892"><ele>1089.2</ele><time>2026-03-07T09:39:29.019Z</time></trkpt><trkpt lat="36.9416687" lon="-3.6697897"><ele>1086.8000000000002</ele><time>2026-03-07T09:39:30.001Z</time></trkpt><trkpt lat="36.9416008" lon="-3.6696866"><ele>1084.4</ele><time>2026-03-07T09:39:31.076Z</time></trkpt><trkpt lat="36.9415441" lon="-3.6695904"><ele>1082.0</ele><time>2026-03-07T09:39:32.012Z</time></trkpt><trkpt lat="36.9414676" lon="-3.6695145"><ele>1080.8333333333335</ele><time>2026-03-07T09:39:33.009Z</time></trkpt><trkpt lat="36.9413888" lon="-3.6694469"><ele>1079.6666666666667</ele><time>2026-03-07T09:39:34.011Z</time></trkpt><trkpt lat="36.9413084" lon="-3.6693882"><ele>1078.5</ele><time>2026-03-07T09:39:35.052Z</time></trkpt><trkpt lat="36.9412337" lon="-3.6693371"><ele>1077.3333333333333</ele><time>2026-03-07T09:39:36.014Z</time></trkpt><trkpt lat="36.9411776" lon="-3.6692703"><ele>1076.1666666666665</ele><time>2026-03-07T09:39:37.014Z</time></trkpt><trkpt lat="36.9411327" lon="-3.6691713"><ele>1075.0</ele><time>2026-03-07T09:39:38.023Z</time></trkpt><trkpt lat="36.9410738" lon="-3.669053"><ele>1072.6</ele><time>2026-03-07T09:39:39.016Z</time></trkpt><trkpt lat="36.941016" lon="-3.6689332"><ele>1070.2</ele><time>2026-03-07T09:39:40.01Z</time></trkpt><trkpt lat="36.9409566" lon="-3.6688154"><ele>1067.8</ele><time>2026-03-07T09:39:41.008Z</time></trkpt><trkpt lat="36.9408939" lon="-3.6686989"><ele>1065.4</ele><time>2026-03-07T09:39:42.012Z</time></trkpt><trkpt lat="36.9408325" lon="-3.6685824"><ele>1063.0</ele><time>2026-03-07T09:39:43.017Z</time></trkpt><trkpt lat="36.9407713" lon="-3.6684648"><ele>1060.75</ele><time>2026-03-07T09:39:44.01Z</time></trkpt><trkpt lat="36.9407136" lon="-3.6683436"><ele>1058.5</ele><time>2026-03-07T09:39:45.012Z</time></trkpt><trkpt lat="36.9406497" lon="-3.6682231"><ele>1056.25</ele><time>2026-03-07T09:39:46.016Z</time></trkpt><trkpt lat="36.9405869" lon="-3.6681067"><ele>1054.0</ele><time>2026-03-07T09:39:47.01Z</time></trkpt><trkpt lat="36.9405331" lon="-3.6679881"><ele>1054.0</ele><time>2026-03-07T09:39:48.02Z</time></trkpt><trkpt lat="36.9404704" lon="-3.6678853"><ele>1054.0</ele><time>2026-03-07T09:39:49.008Z</time></trkpt><trkpt lat="36.9404121" lon="-3.6677861"><ele>1054.0</ele><time>2026-03-07T09:39:50.017Z</time></trkpt><trkpt lat="36.9403496" lon="-3.6676906"><ele>1054.0</ele><time>2026-03-07T09:39:51.01Z</time></trkpt><trkpt lat="36.9402864" lon="-3.6675974"><ele>1054.0</ele><time>2026-03-07T09:39:52.014Z</time></trkpt><trkpt lat="36.9402066" lon="-3.6675214"><ele>1051.6000000000001</ele><time>2026-03-07T09:39:53.02Z</time></trkpt><trkpt lat="36.9401193" lon="-3.6674609"><ele>1049.2</ele><time>2026-03-07T09:39:54.02Z</time></trkpt><trkpt lat="36.9400403" lon="-3.667395"><ele>1046.8000000000002</ele><time>2026-03-07T09:39:55.009Z</time></trkpt><trkpt lat="36.9399627" lon="-3.6673215"><ele>1044.4</ele><time>2026-03-07T09:39:56.008Z</time></trkpt><trkpt lat="36.9398827" lon="-3.6672493"><ele>1042.0</ele><time>2026-03-07T09:39:57.01Z</time></trkpt><trkpt lat="36.9397998" lon="-3.6671784"><ele>1041.4</ele><time>2026-03-07T09:39:58.005Z</time></trkpt><trkpt lat="36.9397291" lon="-3.6670935"><ele>1040.8000000000002</ele><time>2026-03-07T09:39:59.013Z</time></trkpt><trkpt lat="36.9396736" lon="-3.6669918"><ele>1040.2</ele><time>2026-03-07T09:40:00.035Z</time></trkpt><trkpt lat="36.9396217" lon="-3.666887"><ele>1039.6000000000001</ele><time>2026-03-07T09:40:01.013Z</time></trkpt><trkpt lat="36.9395682" lon="-3.6667813"><ele>1039.0</ele><time>2026-03-07T09:40:02.007Z</time></trkpt><trkpt lat="36.9394984" lon="-3.6666906"><ele>1037.4</ele><time>2026-03-07T09:40:03.013Z</time></trkpt><trkpt lat="36.939415" lon="-3.6666172"><ele>1035.8000000000002</ele><time>2026-03-07T09:40:04.013Z</time></trkpt><trkpt lat="36.9393292" lon="-3.6665582"><ele>1034.1999999999998</ele><time>2026-03-07T09:40:05.01Z</time></trkpt><trkpt lat="36.9392359" lon="-3.6665185"><ele>1032.6</ele><time>2026-03-07T09:40:06.016Z</time></trkpt><trkpt lat="36.9391596" lon="-3.6664615"><ele>1031.0</ele><time>2026-03-07T09:40:07.002Z</time></trkpt><trkpt lat="36.9390851" lon="-3.6664086"><ele>1030.0</ele><time>2026-03-07T09:40:08.014Z</time></trkpt><trkpt lat="36.9390173" lon="-3.6663442"><ele>1029.0</ele><time>2026-03-07T09:40:09.005Z</time></trkpt><trkpt lat="36.9389608" lon="-3.6662545"><ele>1028.0</ele><time>2026-03-07T09:40:10.017Z</time></trkpt><trkpt lat="36.9388986" lon="-3.6661528"><ele>1027.0</ele><time>2026-03-07T09:40:11.009Z</time></trkpt><trkpt lat="36.9388362" lon="-3.6660429"><ele>1026.0</ele><time>2026-03-07T09:40:12.01Z</time></trkpt><trkpt lat="36.938764" lon="-3.6659448"><ele>1026.0</ele><time>2026-03-07T09:40:13.012Z</time></trkpt><trkpt lat="36.9386835" lon="-3.6658606"><ele>1026.0</ele><time>2026-03-07T09:40:14.006Z</time></trkpt><trkpt lat="36.9386008" lon="-3.6657729"><ele>1026.0</ele><time>2026-03-07T09:40:15.002Z</time></trkpt><trkpt lat="36.9385211" lon="-3.6656774"><ele>1026.0</ele><time>2026-03-07T09:40:16.01Z</time></trkpt><trkpt lat="36.9384343" lon="-3.6655868"><ele>1026.0</ele><time>2026-03-07T09:40:17.018Z</time></trkpt><trkpt lat="36.9383425" lon="-3.6654972"><ele>1021.4</ele><time>2026-03-07T09:40:18.018Z</time></trkpt><trkpt lat="36.9382611" lon="-3.6654049"><ele>1016.8</ele><time>2026-03-07T09:40:19.014Z</time></trkpt><trkpt lat="36.9381836" lon="-3.665306"><ele>1012.1999999999999</ele><time>2026-03-07T09:40:20.059Z</time></trkpt><trkpt lat="36.9381019" lon="-3.6652252"><ele>1007.5999999999999</ele><time>2026-03-07T09:40:21.011Z</time></trkpt><trkpt lat="36.9380348" lon="-3.665131"><ele>1003.0</ele><time>2026-03-07T09:40:22.01Z</time></trkpt><trkpt lat="36.9379666" lon="-3.6650344"><ele>1002.9999999999999</ele><time>2026-03-07T09:40:23.008Z</time></trkpt><trkpt lat="36.9379054" lon="-3.6649344"><ele>1003.0</ele><time>2026-03-07T09:40:24.01Z</time></trkpt><trkpt lat="36.9378557" lon="-3.6648327"><ele>1003.0</ele><time>2026-03-07T09:40:25.008Z</time></trkpt><trkpt lat="36.9378155" lon="-3.6647429"><ele>1003.0</ele><time>2026-03-07T09:40:26.014Z</time></trkpt><trkpt lat="36.9378006" lon="-3.6646585"><ele>1002.9999999999999</ele><time>2026-03-07T09:40:27.017Z</time></trkpt><trkpt lat="36.9378031" lon="-3.6645705"><ele>1003.0</ele><time>2026-03-07T09:40:28.006Z</time></trkpt><trkpt lat="36.9378134" lon="-3.664487"><ele>1002.9999999999999</ele><time>2026-03-07T09:40:29.011Z</time></trkpt><trkpt lat="36.9377948" lon="-3.6643442"><ele>1003.0</ele><time>2026-03-07T09:40:31.01Z</time></trkpt><trkpt lat="36.9377221" lon="-3.6642993"><ele>1003.0</ele><time>2026-03-07T09:40:33.075Z</time></trkpt><trkpt lat="36.9376543" lon="-3.6643594"><ele>1003.0</ele><time>2026-03-07T09:40:35.02Z</time></trkpt><trkpt lat="36.937631" lon="-3.6644508"><ele>1002.9999999999999</ele><time>2026-03-07T09:40:37.016Z</time></trkpt><trkpt lat="36.9376458" lon="-3.6645597"><ele>1003.0</ele><time>2026-03-07T09:40:39.003Z</time></trkpt><trkpt lat="36.9375989" lon="-3.6644679"><ele>1000.2</ele><time>2026-03-07T09:40:46.016Z</time></trkpt><trkpt lat="36.9376068" lon="-3.6643456"><ele>997.4</ele><time>2026-03-07T09:40:48.028Z</time></trkpt><trkpt lat="36.9376086" lon="-3.6642161"><ele>994.6000000000001</ele><time>2026-03-07T09:40:50.013Z</time></trkpt><trkpt lat="36.9375383" lon="-3.6641343"><ele>991.8000000000001</ele><time>2026-03-07T09:40:52.01Z</time></trkpt><trkpt lat="36.937444" lon="-3.6641309"><ele>989.0</ele><time>2026-03-07T09:40:54.013Z</time></trkpt><trkpt lat="36.9374174" lon="-3.6642073"><ele>987.0</ele><time>2026-03-07T09:40:57.006Z</time></trkpt><trkpt lat="36.9373385" lon="-3.6642537"><ele>985.0000000000001</ele><time>2026-03-07T09:41:00.033Z</time></trkpt><trkpt lat="36.9372856" lon="-3.6641977"><ele>983.0000000000001</ele><time>2026-03-07T09:41:02.017Z</time></trkpt><trkpt lat="36.9372402" lon="-3.664074"><ele>981.0</ele><time>2026-03-07T09:41:04.015Z</time></trkpt><trkpt lat="36.9371786" lon="-3.6639396"><ele>979.0</ele><time>2026-03-07T09:41:06.006Z</time></trkpt><trkpt lat="36.9371436" lon="-3.6638515"><ele>978.9999999999999</ele><time>2026-03-07T09:41:07.013Z</time></trkpt><trkpt lat="36.9371193" lon="-3.6637641"><ele>979.0</ele><time>2026-03-07T09:41:08.004Z</time></trkpt><trkpt lat="36.9371162" lon="-3.6636505"><ele>979.0</ele><time>2026-03-07T09:41:10.069Z</time></trkpt><trkpt lat="36.9371371" lon="-3.6635598"><ele>979.0</ele><time>2026-03-07T09:41:13.02Z</time></trkpt><trkpt lat="36.9371769" lon="-3.6634397"><ele>978.9999999999999</ele><time>2026-03-07T09:41:15.017Z</time></trkpt><trkpt lat="36.9371903" lon="-3.6633626"><ele>979.0</ele><time>2026-03-07T09:41:16.017Z</time></trkpt><trkpt lat="36.9371855" lon="-3.6631922"><ele>978.1666666666666</ele><time>2026-03-07T09:41:18.025Z</time></trkpt><trkpt lat="36.9371807" lon="-3.663073"><ele>977.3333333333333</ele><time>2026-03-07T09:41:19.022Z</time></trkpt><trkpt lat="36.937194" lon="-3.6629602"><ele>976.5</ele><time>2026-03-07T09:41:20.087Z</time></trkpt><trkpt lat="36.9372163" lon="-3.6628779"><ele>975.6666666666667</ele><time>2026-03-07T09:41:21.077Z</time></trkpt><trkpt lat="36.9372625" lon="-3.6628132"><ele>974.8333333333334</ele><time>2026-03-07T09:41:22.012Z</time></trkpt><trkpt lat="36.9373139" lon="-3.6627484"><ele>974.0</ele><time>2026-03-07T09:41:23.055Z</time></trkpt><trkpt lat="36.9373676" lon="-3.6626817"><ele>974.0</ele><time>2026-03-07T09:41:24.022Z</time></trkpt><trkpt lat="36.9374206" lon="-3.6626129"><ele>974.0</ele><time>2026-03-07T09:41:25.002Z</time></trkpt><trkpt lat="36.9374765" lon="-3.6625591"><ele>974.0</ele><time>2026-03-07T09:41:26.002Z</time></trkpt><trkpt lat="36.9375392" lon="-3.6625114"><ele>974.0</ele><time>2026-03-07T09:41:27.008Z</time></trkpt><trkpt lat="36.9375982" lon="-3.6624668"><ele>974.0</ele><time>2026-03-07T09:41:28.014Z</time></trkpt><trkpt lat="36.9376589" lon="-3.6624136"><ele>974.0</ele><time>2026-03-07T09:41:29.011Z</time></trkpt><trkpt lat="36.9377238" lon="-3.6623473"><ele>974.0</ele><time>2026-03-07T09:41:30.007Z</time></trkpt><trkpt lat="36.9377886" lon="-3.6622651"><ele>972.6</ele><time>2026-03-07T09:41:31.009Z</time></trkpt><trkpt lat="36.93786" lon="-3.662177"><ele>971.2</ele><time>2026-03-07T09:41:32.009Z</time></trkpt><trkpt lat="36.9379348" lon="-3.6620879"><ele>969.8000000000001</ele><time>2026-03-07T09:41:33.009Z</time></trkpt><trkpt lat="36.9380031" lon="-3.6619881"><ele>968.4000000000001</ele><time>2026-03-07T09:41:34.01Z</time></trkpt><trkpt lat="36.9380726" lon="-3.6618928"><ele>967.0</ele><time>2026-03-07T09:41:35.007Z</time></trkpt><trkpt lat="36.9381222" lon="-3.661799"><ele>966.9999999999999</ele><time>2026-03-07T09:41:36.012Z</time></trkpt><trkpt lat="36.9381479" lon="-3.6617188"><ele>967.0</ele><time>2026-03-07T09:41:37.016Z</time></trkpt><trkpt lat="36.9381581" lon="-3.6616393"><ele>967.0</ele><time>2026-03-07T09:41:38.012Z</time></trkpt><trkpt lat="36.9381414" lon="-3.661533"><ele>967.0</ele><time>2026-03-07T09:41:40.002Z</time></trkpt><trkpt lat="36.9380871" lon="-3.6614757"><ele>966.9999999999999</ele><time>2026-03-07T09:41:42.006Z</time></trkpt><trkpt lat="36.9379964" lon="-3.661449"><ele>967.0</ele><time>2026-03-07T09:41:44.018Z</time></trkpt><trkpt lat="36.9378885" lon="-3.6614261"><ele>966.9999999999999</ele><time>2026-03-07T09:41:46.009Z</time></trkpt><trkpt lat="36.9378253" lon="-3.6613983"><ele>967.0</ele><time>2026-03-07T09:41:47.001Z</time></trkpt><trkpt lat="36.9377516" lon="-3.6613636"><ele>967.0</ele><time>2026-03-07T09:41:48.001Z</time></trkpt><trkpt lat="36.9376725" lon="-3.6613256"><ele>967.0</ele><time>2026-03-07T09:41:49.008Z</time></trkpt><trkpt lat="36.9375938" lon="-3.6612722"><ele>966.9999999999999</ele><time>2026-03-07T09:41:50.019Z</time></trkpt><trkpt lat="36.9375214" lon="-3.6612125"><ele>967.0</ele><time>2026-03-07T09:41:51.018Z</time></trkpt><trkpt lat="36.9374517" lon="-3.6611437"><ele>967.1666666666666</ele><time>2026-03-07T09:41:52.005Z</time></trkpt><trkpt lat="36.937388" lon="-3.6610662"><ele>967.3333333333333</ele><time>2026-03-07T09:41:53.011Z</time></trkpt><trkpt lat="36.9373352" lon="-3.6609817"><ele>967.5</ele><time>2026-03-07T09:41:54.011Z</time></trkpt><trkpt lat="36.9372944" lon="-3.6608886"><ele>967.6666666666667</ele><time>2026-03-07T09:41:55.006Z</time></trkpt><trkpt lat="36.9372525" lon="-3.6607883"><ele>967.8333333333334</ele><time>2026-03-07T09:41:56.014Z</time></trkpt><trkpt lat="36.9372104" lon="-3.6606857"><ele>968.0</ele><time>2026-03-07T09:41:57.001Z</time></trkpt><trkpt lat="36.9371526" lon="-3.6605939"><ele>968.0</ele><time>2026-03-07T09:41:58.054Z</time></trkpt><trkpt lat="36.9370921" lon="-3.6605015"><ele>968.0</ele><time>2026-03-07T09:41:59.019Z</time></trkpt><trkpt lat="36.9370225" lon="-3.6604184"><ele>968.0</ele><time>2026-03-07T09:42:00.014Z</time></trkpt><trkpt lat="36.9369488" lon="-3.6603321"><ele>968.0</ele><time>2026-03-07T09:42:01.001Z</time></trkpt><trkpt lat="36.9368797" lon="-3.6602379"><ele>968.0</ele><time>2026-03-07T09:42:02.052Z</time></trkpt><trkpt lat="36.9368111" lon="-3.6601362"><ele>966.0</ele><time>2026-03-07T09:42:03.016Z</time></trkpt><trkpt lat="36.9367304" lon="-3.6600275"><ele>964.0</ele><time>2026-03-07T09:42:04.015Z</time></trkpt><trkpt lat="36.9366338" lon="-3.6599193"><ele>962.0</ele><time>2026-03-07T09:42:05.018Z</time></trkpt><trkpt lat="36.9365349" lon="-3.6598152"><ele>960.0</ele><time>2026-03-07T09:42:06.025Z</time></trkpt><trkpt lat="36.9364353" lon="-3.6597112"><ele>960.0</ele><time>2026-03-07T09:42:07.012Z</time></trkpt><trkpt lat="36.9363349" lon="-3.6596051"><ele>960.0</ele><time>2026-03-07T09:42:08.007Z</time></trkpt><trkpt lat="36.9362396" lon="-3.6594812"><ele>960.0</ele><time>2026-03-07T09:42:09.004Z</time></trkpt><trkpt lat="36.9361502" lon="-3.6593597"><ele>960.0</ele><time>2026-03-07T09:42:10.007Z</time></trkpt><trkpt lat="36.9360736" lon="-3.6592388"><ele>958.75</ele><time>2026-03-07T09:42:11.015Z</time></trkpt><trkpt lat="36.9360115" lon="-3.6591138"><ele>957.5</ele><time>2026-03-07T09:42:12.007Z</time></trkpt><trkpt lat="36.9359545" lon="-3.6589894"><ele>956.25</ele><time>2026-03-07T09:42:13.014Z</time></trkpt><trkpt lat="36.9358977" lon="-3.6588736"><ele>955.0</ele><time>2026-03-07T09:42:13.999Z</time></trkpt><trkpt lat="36.9358358" lon="-3.658759"><ele>955.0</ele><time>2026-03-07T09:42:15.008Z</time></trkpt><trkpt lat="36.9357756" lon="-3.6586416"><ele>955.0</ele><time>2026-03-07T09:42:16.016Z</time></trkpt><trkpt lat="36.9357216" lon="-3.6585058"><ele>955.0</ele><time>2026-03-07T09:42:17.026Z</time></trkpt><trkpt lat="36.9356616" lon="-3.6583668"><ele>955.0</ele><time>2026-03-07T09:42:18.003Z</time></trkpt><trkpt lat="36.935599" lon="-3.6582359"><ele>953.75</ele><time>2026-03-07T09:42:19.014Z</time></trkpt><trkpt lat="36.9355325" lon="-3.6581134"><ele>952.5</ele><time>2026-03-07T09:42:20.003Z</time></trkpt><trkpt lat="36.9354705" lon="-3.6579946"><ele>951.25</ele><time>2026-03-07T09:42:21.009Z</time></trkpt><trkpt lat="36.9354187" lon="-3.6578779"><ele>950.0</ele><time>2026-03-07T09:42:22.011Z</time></trkpt><trkpt lat="36.9353536" lon="-3.657765"><ele>949.6</ele><time>2026-03-07T09:42:23.014Z</time></trkpt><trkpt lat="36.9352907" lon="-3.6576615"><ele>949.2</ele><time>2026-03-07T09:42:24.014Z</time></trkpt><trkpt lat="36.9352282" lon="-3.6575704"><ele>948.8</ele><time>2026-03-07T09:42:25.008Z</time></trkpt><trkpt lat="36.93517" lon="-3.6574896"><ele>948.4</ele><time>2026-03-07T09:42:26.007Z</time></trkpt><trkpt lat="36.9351133" lon="-3.6574068"><ele>948.0</ele><time>2026-03-07T09:42:27.016Z</time></trkpt><trkpt lat="36.935053" lon="-3.6573213"><ele>947.5</ele><time>2026-03-07T09:42:28.031Z</time></trkpt><trkpt lat="36.9350068" lon="-3.6572147"><ele>947.0</ele><time>2026-03-07T09:42:29.008Z</time></trkpt><trkpt lat="36.9349634" lon="-3.657083"><ele>946.5</ele><time>2026-03-07T09:42:30.005Z</time></trkpt><trkpt lat="36.9349244" lon="-3.656933"><ele>946.0</ele><time>2026-03-07T09:42:31.01Z</time></trkpt><trkpt lat="36.9348768" lon="-3.6567847"><ele>945.25</ele><time>2026-03-07T09:42:32.01Z</time></trkpt><trkpt lat="36.9348257" lon="-3.6566444"><ele>944.5</ele><time>2026-03-07T09:42:33.005Z</time></trkpt><trkpt lat="36.9347727" lon="-3.6565033"><ele>943.75</ele><time>2026-03-07T09:42:34.034Z</time></trkpt><trkpt lat="36.9347153" lon="-3.6563568"><ele>943.0</ele><time>2026-03-07T09:42:34.993Z</time></trkpt><trkpt lat="36.9346542" lon="-3.6562096"><ele>942.25</ele><time>2026-03-07T09:42:35.983Z</time></trkpt><trkpt lat="36.9345904" lon="-3.6560682"><ele>941.5</ele><time>2026-03-07T09:42:36.982Z</time></trkpt><trkpt lat="36.9345261" lon="-3.6559379"><ele>940.75</ele><time>2026-03-07T09:42:37.977Z</time></trkpt><trkpt lat="36.934464" lon="-3.6558115"><ele>940.0</ele><time>2026-03-07T09:42:38.986Z</time></trkpt><trkpt lat="36.9344093" lon="-3.6556841"><ele>940.0</ele><time>2026-03-07T09:42:40.015Z</time></trkpt><trkpt lat="36.9343649" lon="-3.6555456"><ele>940.0</ele><time>2026-03-07T09:42:41.009Z</time></trkpt><trkpt lat="36.9343282" lon="-3.6554036"><ele>940.0</ele><time>2026-03-07T09:42:42.007Z</time></trkpt><trkpt lat="36.9342907" lon="-3.6552645"><ele>940.0</ele><time>2026-03-07T09:42:43.007Z</time></trkpt><trkpt lat="36.9342413" lon="-3.655141"><ele>938.0</ele><time>2026-03-07T09:42:44.007Z</time></trkpt><trkpt lat="36.9341752" lon="-3.655031"><ele>936.0</ele><time>2026-03-07T09:42:45.008Z</time></trkpt><trkpt lat="36.9341045" lon="-3.6549385"><ele>934.0</ele><time>2026-03-07T09:42:46.005Z</time></trkpt><trkpt lat="36.9340324" lon="-3.6548611"><ele>932.0</ele><time>2026-03-07T09:42:47.007Z</time></trkpt><trkpt lat="36.9339767" lon="-3.654788"><ele>930.0</ele><time>2026-03-07T09:42:48.006Z</time></trkpt><trkpt lat="36.9339274" lon="-3.6547387"><ele>930.0</ele><time>2026-03-07T09:42:49.01Z</time></trkpt><trkpt lat="36.9338713" lon="-3.6546683"><ele>930.0</ele><time>2026-03-07T09:42:51.022Z</time></trkpt><trkpt lat="36.9339054" lon="-3.6545849"><ele>930.0</ele><time>2026-03-07T09:42:54.008Z</time></trkpt><trkpt lat="36.9339641" lon="-3.654524"><ele>930.0</ele><time>2026-03-07T09:42:56.008Z</time></trkpt><trkpt lat="36.9339973" lon="-3.6544558"><ele>930.0</ele><time>2026-03-07T09:42:57.027Z</time></trkpt><trkpt lat="36.9340312" lon="-3.6543593"><ele>930.0</ele><time>2026-03-07T09:42:58.023Z</time></trkpt><trkpt lat="36.9340649" lon="-3.6542557"><ele>928.2</ele><time>2026-03-07T09:42:59.032Z</time></trkpt><trkpt lat="36.9340835" lon="-3.654154"><ele>926.4</ele><time>2026-03-07T09:43:00.019Z</time></trkpt><trkpt lat="36.9340987" lon="-3.6540511"><ele>924.5999999999999</ele><time>2026-03-07T09:43:00.999Z</time></trkpt><trkpt lat="36.9341134" lon="-3.653949"><ele>922.8</ele><time>2026-03-07T09:43:02.003Z</time></trkpt><trkpt lat="36.9341227" lon="-3.6538268"><ele>921.0</ele><time>2026-03-07T09:43:02.996Z</time></trkpt><trkpt lat="36.9341364" lon="-3.6536898"><ele>920.25</ele><time>2026-03-07T09:43:04.01Z</time></trkpt><trkpt lat="36.9341677" lon="-3.6535455"><ele>919.5</ele><time>2026-03-07T09:43:05.006Z</time></trkpt><trkpt lat="36.9341991" lon="-3.6534051"><ele>918.75</ele><time>2026-03-07T09:43:06.006Z</time></trkpt><trkpt lat="36.934232" lon="-3.6532738"><ele>918.0</ele><time>2026-03-07T09:43:07.003Z</time></trkpt><trkpt lat="36.9342668" lon="-3.6531504"><ele>918.0</ele><time>2026-03-07T09:43:08.021Z</time></trkpt><trkpt lat="36.9343012" lon="-3.6530275"><ele>918.0</ele><time>2026-03-07T09:43:09.008Z</time></trkpt><trkpt lat="36.9343424" lon="-3.6529106"><ele>918.0</ele><time>2026-03-07T09:43:10.019Z</time></trkpt><trkpt lat="36.934375" lon="-3.6527912"><ele>918.0</ele><time>2026-03-07T09:43:11.003Z</time></trkpt><trkpt lat="36.9344032" lon="-3.6526633"><ele>918.0</ele><time>2026-03-07T09:43:11.999Z</time></trkpt><trkpt lat="36.9344177" lon="-3.6525247"><ele>916.0</ele><time>2026-03-07T09:43:13.009Z</time></trkpt><trkpt lat="36.934432" lon="-3.6523804"><ele>914.0</ele><time>2026-03-07T09:43:14.019Z</time></trkpt><trkpt lat="36.9344444" lon="-3.6522335"><ele>912.0</ele><time>2026-03-07T09:43:15.008Z</time></trkpt><trkpt lat="36.9344642" lon="-3.6520845"><ele>910.0</ele><time>2026-03-07T09:43:16.018Z</time></trkpt><trkpt lat="36.9344821" lon="-3.6519368"><ele>909.0</ele><time>2026-03-07T09:43:17.015Z</time></trkpt><trkpt lat="36.9345054" lon="-3.6517917"><ele>908.0</ele><time>2026-03-07T09:43:18.061Z</time></trkpt><trkpt lat="36.9345235" lon="-3.651657"><ele>907.0</ele><time>2026-03-07T09:43:19.02Z</time></trkpt><trkpt lat="36.9345241" lon="-3.6515286"><ele>906.0</ele><time>2026-03-07T09:43:20.003Z</time></trkpt><trkpt lat="36.9345418" lon="-3.6514123"><ele>905.0</ele><time>2026-03-07T09:43:20.997Z</time></trkpt><trkpt lat="36.934551" lon="-3.6512924"><ele>905.0</ele><time>2026-03-07T09:43:22.008Z</time></trkpt><trkpt lat="36.9345759" lon="-3.6511761"><ele>905.0</ele><time>2026-03-07T09:43:23.017Z</time></trkpt><trkpt lat="36.934611" lon="-3.6510591"><ele>905.0</ele><time>2026-03-07T09:43:24.005Z</time></trkpt><trkpt lat="36.9346583" lon="-3.6509498"><ele>905.0</ele><time>2026-03-07T09:43:25.008Z</time></trkpt><trkpt lat="36.9346981" lon="-3.6508457"><ele>905.0</ele><time>2026-03-07T09:43:26.006Z</time></trkpt><trkpt lat="36.9347133" lon="-3.6507441"><ele>903.4</ele><time>2026-03-07T09:43:27.01Z</time></trkpt><trkpt lat="36.934715" lon="-3.6506459"><ele>901.8</ele><time>2026-03-07T09:43:28.003Z</time></trkpt><trkpt lat="36.934689" lon="-3.6505378"><ele>900.2</ele><time>2026-03-07T09:43:29.01Z</time></trkpt><trkpt lat="36.9346435" lon="-3.6504114"><ele>898.6</ele><time>2026-03-07T09:43:30.003Z</time></trkpt><trkpt lat="36.9345935" lon="-3.6502827"><ele>897.0</ele><time>2026-03-07T09:43:30.996Z</time></trkpt><trkpt lat="36.9345178" lon="-3.6501602"><ele>894.4000000000001</ele><time>2026-03-07T09:43:32.007Z</time></trkpt><trkpt lat="36.9344496" lon="-3.65004"><ele>891.8000000000001</ele><time>2026-03-07T09:43:33.007Z</time></trkpt><trkpt lat="36.9344037" lon="-3.6499189"><ele>889.2</ele><time>2026-03-07T09:43:34.018Z</time></trkpt><trkpt lat="36.9343583" lon="-3.6498016"><ele>886.6</ele><time>2026-03-07T09:43:35.01Z</time></trkpt><trkpt lat="36.9343383" lon="-3.6496949"><ele>884.0</ele><time>2026-03-07T09:43:36.006Z</time></trkpt><trkpt lat="36.9343367" lon="-3.6496144"><ele>884.0000000000001</ele><time>2026-03-07T09:43:37.007Z</time></trkpt><trkpt lat="36.934367" lon="-3.6495365"><ele>884.0</ele><time>2026-03-07T09:43:38.039Z</time></trkpt><trkpt lat="36.9344012" lon="-3.6494457"><ele>884.0</ele><time>2026-03-07T09:43:39.055Z</time></trkpt><trkpt lat="36.9344256" lon="-3.649356"><ele>884.0</ele><time>2026-03-07T09:43:40.03Z</time></trkpt><trkpt lat="36.9344576" lon="-3.6492687"><ele>884.0</ele><time>2026-03-07T09:43:41.01Z</time></trkpt><trkpt lat="36.9344655" lon="-3.6491767"><ele>884.0000000000001</ele><time>2026-03-07T09:43:42.007Z</time></trkpt><trkpt lat="36.9344378" lon="-3.6490983"><ele>884.0</ele><time>2026-03-07T09:43:43.011Z</time></trkpt><trkpt lat="36.9343938" lon="-3.6490293"><ele>881.6</ele><time>2026-03-07T09:43:44.009Z</time></trkpt><trkpt lat="36.9343117" lon="-3.6489332"><ele>879.2</ele><time>2026-03-07T09:43:46.011Z</time></trkpt><trkpt lat="36.9343731" lon="-3.6488851"><ele>876.8000000000001</ele><time>2026-03-07T09:43:50.017Z</time></trkpt><trkpt lat="36.9344669" lon="-3.6489636"><ele>874.4000000000001</ele><time>2026-03-07T09:43:52.007Z</time></trkpt><trkpt lat="36.9345238" lon="-3.6490205"><ele>872.0</ele><time>2026-03-07T09:43:53.003Z</time></trkpt><trkpt lat="36.9345822" lon="-3.6490905"><ele>872.0</ele><time>2026-03-07T09:43:54.004Z</time></trkpt><trkpt lat="36.9346398" lon="-3.6491628"><ele>872.0</ele><time>2026-03-07T09:43:55.006Z</time></trkpt><trkpt lat="36.9346927" lon="-3.6492315"><ele>872.0</ele><time>2026-03-07T09:43:56.008Z</time></trkpt><trkpt lat="36.9347418" lon="-3.6492977"><ele>872.0</ele><time>2026-03-07T09:43:57.011Z</time></trkpt><trkpt lat="36.9347821" lon="-3.6493676"><ele>872.0</ele><time>2026-03-07T09:43:58.007Z</time></trkpt><trkpt lat="36.9348189" lon="-3.6494371"><ele>872.0</ele><time>2026-03-07T09:43:59.004Z</time></trkpt><trkpt lat="36.934855" lon="-3.6495021"><ele>872.0</ele><time>2026-03-07T09:44:00.012Z</time></trkpt><trkpt lat="36.9349183" lon="-3.6496127"><ele>872.8333333333334</ele><time>2026-03-07T09:44:02.012Z</time></trkpt><trkpt lat="36.9349638" lon="-3.6497082"><ele>873.6666666666667</ele><time>2026-03-07T09:44:04.001Z</time></trkpt><trkpt lat="36.9350004" lon="-3.6497797"><ele>874.5</ele><time>2026-03-07T09:44:06.017Z</time></trkpt><trkpt lat="36.9350447" lon="-3.6498779"><ele>875.3333333333333</ele><time>2026-03-07T09:44:09.011Z</time></trkpt><trkpt lat="36.935079" lon="-3.6499732"><ele>876.1666666666666</ele><time>2026-03-07T09:44:12.014Z</time></trkpt><trkpt lat="36.9350996" lon="-3.6500545"><ele>877.0</ele><time>2026-03-07T09:44:14.018Z</time></trkpt><trkpt lat="36.9351315" lon="-3.6501647"><ele>876.9999999999999</ele><time>2026-03-07T09:44:16.012Z</time></trkpt><trkpt lat="36.935176" lon="-3.6502399"><ele>877.0</ele><time>2026-03-07T09:44:18.012Z</time></trkpt><trkpt lat="36.935263" lon="-3.6502003"><ele>877.0</ele><time>2026-03-07T09:44:21.002Z</time></trkpt><trkpt lat="36.9353364" lon="-3.6501191"><ele>877.0</ele><time>2026-03-07T09:44:23.011Z</time></trkpt><trkpt lat="36.9354447" lon="-3.6501041"><ele>876.9999999999999</ele><time>2026-03-07T09:44:25.009Z</time></trkpt><trkpt lat="36.9355071" lon="-3.6501222"><ele>877.0</ele><time>2026-03-07T09:44:26.016Z</time></trkpt><trkpt lat="36.9355748" lon="-3.6501597"><ele>877.0</ele><time>2026-03-07T09:44:27.013Z</time></trkpt><trkpt lat="36.9356477" lon="-3.6502139"><ele>877.0</ele><time>2026-03-07T09:44:28.005Z</time></trkpt><trkpt lat="36.9357218" lon="-3.6502948"><ele>877.0</ele><time>2026-03-07T09:44:29.024Z</time></trkpt><trkpt lat="36.9357964" lon="-3.6503867"><ele>877.0</ele><time>2026-03-07T09:44:30.004Z</time></trkpt><trkpt lat="36.9358682" lon="-3.6504788"><ele>877.0</ele><time>2026-03-07T09:44:31.011Z</time></trkpt><trkpt lat="36.9359314" lon="-3.6505629"><ele>877.4000000000001</ele><time>2026-03-07T09:44:32.004Z</time></trkpt><trkpt lat="36.9359989" lon="-3.6506228"><ele>877.8000000000001</ele><time>2026-03-07T09:44:33.011Z</time></trkpt><trkpt lat="36.9360701" lon="-3.6506894"><ele>878.2</ele><time>2026-03-07T09:44:34.036Z</time></trkpt><trkpt lat="36.9361556" lon="-3.650751"><ele>878.6</ele><time>2026-03-07T09:44:35.002Z</time></trkpt><trkpt lat="36.9362412" lon="-3.6508106"><ele>879.0</ele><time>2026-03-07T09:44:36.012Z</time></trkpt><trkpt lat="36.9363297" lon="-3.650867"><ele>879.0</ele><time>2026-03-07T09:44:37.013Z</time></trkpt><trkpt lat="36.9364224" lon="-3.6509212"><ele>879.0000000000001</ele><time>2026-03-07T09:44:38.01Z</time></trkpt><trkpt lat="36.9365112" lon="-3.6509775"><ele>879.0000000000001</ele><time>2026-03-07T09:44:39.005Z</time></trkpt><trkpt lat="36.936584" lon="-3.6510336"><ele>879.0</ele><time>2026-03-07T09:44:40.017Z</time></trkpt><trkpt lat="36.9366414" lon="-3.6511095"><ele>879.0</ele><time>2026-03-07T09:44:41.013Z</time></trkpt><trkpt lat="36.9366983" lon="-3.651205"><ele>880.1666666666666</ele><time>2026-03-07T09:44:42.002Z</time></trkpt><trkpt lat="36.9367539" lon="-3.6513043"><ele>881.3333333333333</ele><time>2026-03-07T09:44:43.019Z</time></trkpt><trkpt lat="36.9368036" lon="-3.6514062"><ele>882.5</ele><time>2026-03-07T09:44:44.019Z</time></trkpt><trkpt lat="36.9368446" lon="-3.651498"><ele>883.6666666666666</ele><time>2026-03-07T09:44:45.014Z</time></trkpt><trkpt lat="36.9368835" lon="-3.6515782"><ele>884.8333333333333</ele><time>2026-03-07T09:44:46.014Z</time></trkpt><trkpt lat="36.9369274" lon="-3.6516711"><ele>886.0</ele><time>2026-03-07T09:44:47.008Z</time></trkpt><trkpt lat="36.9369737" lon="-3.6517628"><ele>885.9999999999999</ele><time>2026-03-07T09:44:48.019Z</time></trkpt><trkpt lat="36.9370186" lon="-3.6518482"><ele>886.0</ele><time>2026-03-07T09:44:49.004Z</time></trkpt><trkpt lat="36.9370561" lon="-3.6519346"><ele>886.0</ele><time>2026-03-07T09:44:50.009Z</time></trkpt><trkpt lat="36.9370826" lon="-3.6520235"><ele>886.0</ele><time>2026-03-07T09:44:51.007Z</time></trkpt><trkpt lat="36.9371043" lon="-3.6521131"><ele>885.9999999999999</ele><time>2026-03-07T09:44:52.015Z</time></trkpt><trkpt lat="36.9371326" lon="-3.6521861"><ele>886.0</ele><time>2026-03-07T09:44:53.014Z</time></trkpt><trkpt lat="36.9372241" lon="-3.6522522"><ele>886.4</ele><time>2026-03-07T09:44:55.012Z</time></trkpt><trkpt lat="36.9373551" lon="-3.6522357"><ele>886.8</ele><time>2026-03-07T09:44:57.009Z</time></trkpt><trkpt lat="36.9374534" lon="-3.6522357"><ele>887.1999999999999</ele><time>2026-03-07T09:44:58.022Z</time></trkpt><trkpt lat="36.9375324" lon="-3.6522305"><ele>887.5999999999999</ele><time>2026-03-07T09:44:58.998Z</time></trkpt><trkpt lat="36.9376135" lon="-3.6522215"><ele>888.0</ele><time>2026-03-07T09:45:00.009Z</time></trkpt><trkpt lat="36.9376994" lon="-3.6522086"><ele>891.0</ele><time>2026-03-07T09:45:01.035Z</time></trkpt><trkpt lat="36.9377863" lon="-3.6521806"><ele>894.0</ele><time>2026-03-07T09:45:02.003Z</time></trkpt><trkpt lat="36.9378728" lon="-3.6521226"><ele>897.0</ele><time>2026-03-07T09:45:03.009Z</time></trkpt><trkpt lat="36.9379589" lon="-3.6520392"><ele>900.0</ele><time>2026-03-07T09:45:03.995Z</time></trkpt><trkpt lat="36.9380359" lon="-3.6519409"><ele>903.0</ele><time>2026-03-07T09:45:05.01Z</time></trkpt><trkpt lat="36.938095" lon="-3.6518601"><ele>903.0</ele><time>2026-03-07T09:45:06.002Z</time></trkpt><trkpt lat="36.9381321" lon="-3.651785"><ele>903.0</ele><time>2026-03-07T09:45:07.023Z</time></trkpt><trkpt lat="36.9381412" lon="-3.6517067"><ele>903.0</ele><time>2026-03-07T09:45:08.051Z</time></trkpt><trkpt lat="36.9381206" lon="-3.6516228"><ele>903.0</ele><time>2026-03-07T09:45:09.001Z</time></trkpt><trkpt lat="36.9380854" lon="-3.6515339"><ele>903.0</ele><time>2026-03-07T09:45:10.001Z</time></trkpt><trkpt lat="36.9380579" lon="-3.6514367"><ele>903.0</ele><time>2026-03-07T09:45:11.012Z</time></trkpt><trkpt lat="36.9380707" lon="-3.6513149"><ele>903.0</ele><time>2026-03-07T09:45:12.011Z</time></trkpt><trkpt lat="36.938116" lon="-3.6511818"><ele>903.0</ele><time>2026-03-07T09:45:13.007Z</time></trkpt><trkpt lat="36.9381656" lon="-3.6510455"><ele>903.0</ele><time>2026-03-07T09:45:14.009Z</time></trkpt><trkpt lat="36.9382069" lon="-3.6509081"><ele>903.0</ele><time>2026-03-07T09:45:15.018Z</time></trkpt><trkpt lat="36.938236" lon="-3.6507742"><ele>903.1666666666666</ele><time>2026-03-07T09:45:16.006Z</time></trkpt><trkpt lat="36.9382579" lon="-3.6506697"><ele>903.3333333333333</ele><time>2026-03-07T09:45:17.013Z</time></trkpt><trkpt lat="36.9382937" lon="-3.6505608"><ele>903.5</ele><time>2026-03-07T09:45:19.006Z</time></trkpt><trkpt lat="36.9383606" lon="-3.6506057"><ele>903.6666666666666</ele><time>2026-03-07T09:45:21.014Z</time></trkpt><trkpt lat="36.9384148" lon="-3.650681"><ele>903.8333333333333</ele><time>2026-03-07T09:45:22.004Z</time></trkpt><trkpt lat="36.9385019" lon="-3.6507414"><ele>904.0</ele><time>2026-03-07T09:45:23.005Z</time></trkpt><trkpt lat="36.938597" lon="-3.6508051"><ele>907.25</ele><time>2026-03-07T09:45:24.004Z</time></trkpt><trkpt lat="36.9386892" lon="-3.6508727"><ele>910.5</ele><time>2026-03-07T09:45:25.004Z</time></trkpt><trkpt lat="36.9387777" lon="-3.6509527"><ele>913.75</ele><time>2026-03-07T09:45:25.999Z</time></trkpt><trkpt lat="36.9388566" lon="-3.6510655"><ele>917.0</ele><time>2026-03-07T09:45:27.009Z</time></trkpt><trkpt lat="36.9389366" lon="-3.651184"><ele>918.25</ele><time>2026-03-07T09:45:28.012Z</time></trkpt><trkpt lat="36.9390119" lon="-3.6513041"><ele>919.5</ele><time>2026-03-07T09:45:29.01Z</time></trkpt><trkpt lat="36.9390795" lon="-3.6514197"><ele>920.75</ele><time>2026-03-07T09:45:30.003Z</time></trkpt><trkpt lat="36.9391322" lon="-3.6515339"><ele>922.0</ele><time>2026-03-07T09:45:31.012Z</time></trkpt><trkpt lat="36.9391668" lon="-3.6516678"><ele>922.0</ele><time>2026-03-07T09:45:32.013Z</time></trkpt><trkpt lat="36.9392023" lon="-3.6517887"><ele>922.0</ele><time>2026-03-07T09:45:33.015Z</time></trkpt><trkpt lat="36.9392284" lon="-3.6519094"><ele>922.0</ele><time>2026-03-07T09:45:34.002Z</time></trkpt><trkpt lat="36.9392687" lon="-3.6520287"><ele>922.0</ele><time>2026-03-07T09:45:35.013Z</time></trkpt><trkpt lat="36.9393259" lon="-3.6521533"><ele>922.0</ele><time>2026-03-07T09:45:36.014Z</time></trkpt><trkpt lat="36.9393833" lon="-3.6522891"><ele>924.6</ele><time>2026-03-07T09:45:37.014Z</time></trkpt><trkpt lat="36.9394275" lon="-3.6524333"><ele>927.2</ele><time>2026-03-07T09:45:38.006Z</time></trkpt><trkpt lat="36.9394684" lon="-3.6525588"><ele>929.8</ele><time>2026-03-07T09:45:39.019Z</time></trkpt><trkpt lat="36.939504" lon="-3.6526595"><ele>932.4</ele><time>2026-03-07T09:45:40.012Z</time></trkpt><trkpt lat="36.9395531" lon="-3.6527428"><ele>935.0</ele><time>2026-03-07T09:45:41.005Z</time></trkpt><trkpt lat="36.9396171" lon="-3.6528233"><ele>936.3333333333334</ele><time>2026-03-07T09:45:42.006Z</time></trkpt><trkpt lat="36.9396749" lon="-3.6529026"><ele>937.6666666666667</ele><time>2026-03-07T09:45:43.015Z</time></trkpt><trkpt lat="36.9397299" lon="-3.6529697"><ele>939.0</ele><time>2026-03-07T09:45:43.999Z</time></trkpt><trkpt lat="36.9397877" lon="-3.6530132"><ele>940.3333333333333</ele><time>2026-03-07T09:45:45.002Z</time></trkpt><trkpt lat="36.9398646" lon="-3.653026"><ele>941.6666666666666</ele><time>2026-03-07T09:45:46.002Z</time></trkpt><trkpt lat="36.9399474" lon="-3.6530273"><ele>943.0</ele><time>2026-03-07T09:45:47.009Z</time></trkpt><trkpt lat="36.9400341" lon="-3.6530282"><ele>945.2</ele><time>2026-03-07T09:45:48.016Z</time></trkpt><trkpt lat="36.9401269" lon="-3.6530361"><ele>947.4</ele><time>2026-03-07T09:45:49.013Z</time></trkpt><trkpt lat="36.9402248" lon="-3.6530418"><ele>949.6000000000001</ele><time>2026-03-07T09:45:50.011Z</time></trkpt><trkpt lat="36.9403191" lon="-3.6530546"><ele>951.8000000000001</ele><time>2026-03-07T09:45:51.006Z</time></trkpt><trkpt lat="36.940413" lon="-3.6530733"><ele>954.0</ele><time>2026-03-07T09:45:52.007Z</time></trkpt><trkpt lat="36.9405059" lon="-3.6530936"><ele>954.0</ele><time>2026-03-07T09:45:53.002Z</time></trkpt><trkpt lat="36.9405938" lon="-3.6531086"><ele>954.0</ele><time>2026-03-07T09:45:54.016Z</time></trkpt><trkpt lat="36.9406786" lon="-3.6531083"><ele>954.0</ele><time>2026-03-07T09:45:55.012Z</time></trkpt><trkpt lat="36.9407661" lon="-3.6530843"><ele>954.0</ele><time>2026-03-07T09:45:56.014Z</time></trkpt><trkpt lat="36.9408559" lon="-3.6530455"><ele>954.0</ele><time>2026-03-07T09:45:57.021Z</time></trkpt><trkpt lat="36.9409347" lon="-3.6529992"><ele>954.0</ele><time>2026-03-07T09:45:58.007Z</time></trkpt><trkpt lat="36.9410002" lon="-3.6529401"><ele>953.1428571428571</ele><time>2026-03-07T09:45:59Z</time></trkpt><trkpt lat="36.9410588" lon="-3.6528836"><ele>952.2857142857142</ele><time>2026-03-07T09:46:00.018Z</time></trkpt><trkpt lat="36.9411186" lon="-3.6528491"><ele>951.4285714285713</ele><time>2026-03-07T09:46:01.002Z</time></trkpt><trkpt lat="36.9411837" lon="-3.6528404"><ele>950.5714285714284</ele><time>2026-03-07T09:46:02.005Z</time></trkpt><trkpt lat="36.9412514" lon="-3.6528477"><ele>949.7142857142857</ele><time>2026-03-07T09:46:03.013Z</time></trkpt><trkpt lat="36.9413234" lon="-3.6528394"><ele>948.8571428571427</ele><time>2026-03-07T09:46:04.011Z</time></trkpt><trkpt lat="36.9413886" lon="-3.6528158"><ele>947.9999999999999</ele><time>2026-03-07T09:46:05.011Z</time></trkpt><trkpt lat="36.9414474" lon="-3.6527712"><ele>948.0</ele><time>2026-03-07T09:46:06.006Z</time></trkpt><trkpt lat="36.9414915" lon="-3.6527121"><ele>948.0</ele><time>2026-03-07T09:46:07.001Z</time></trkpt><trkpt lat="36.9415984" lon="-3.6526452"><ele>948.0</ele><time>2026-03-07T09:46:09.028Z</time></trkpt><trkpt lat="36.9416698" lon="-3.6526279"><ele>948.0</ele><time>2026-03-07T09:46:10.006Z</time></trkpt><trkpt lat="36.9417515" lon="-3.6526353"><ele>948.0</ele><time>2026-03-07T09:46:11.001Z</time></trkpt><trkpt lat="36.9418363" lon="-3.6526481"><ele>948.0</ele><time>2026-03-07T09:46:12.006Z</time></trkpt><trkpt lat="36.9419251" lon="-3.6526515"><ele>946.0</ele><time>2026-03-07T09:46:12.999Z</time></trkpt><trkpt lat="36.9420126" lon="-3.6526487"><ele>944.0</ele><time>2026-03-07T09:46:13.999Z</time></trkpt><trkpt lat="36.9421059" lon="-3.6526592"><ele>942.0</ele><time>2026-03-07T09:46:15.017Z</time></trkpt><trkpt lat="36.9422092" lon="-3.6526639"><ele>940.0</ele><time>2026-03-07T09:46:16.013Z</time></trkpt><trkpt lat="36.9423096" lon="-3.6526736"><ele>938.0</ele><time>2026-03-07T09:46:17Z</time></trkpt><trkpt lat="36.9424041" lon="-3.6527101"><ele>938.0</ele><time>2026-03-07T09:46:18.039Z</time></trkpt><trkpt lat="36.9425055" lon="-3.6527316"><ele>938.0</ele><time>2026-03-07T09:46:19.008Z</time></trkpt><trkpt lat="36.9426066" lon="-3.6527586"><ele>938.0</ele><time>2026-03-07T09:46:20.005Z</time></trkpt><trkpt lat="36.9427001" lon="-3.6528029"><ele>938.0</ele><time>2026-03-07T09:46:20.996Z</time></trkpt><trkpt lat="36.9427912" lon="-3.6528553"><ele>938.0</ele><time>2026-03-07T09:46:22.007Z</time></trkpt><trkpt lat="36.942881" lon="-3.6529169"><ele>937.5999999999999</ele><time>2026-03-07T09:46:23.011Z</time></trkpt><trkpt lat="36.9429673" lon="-3.6529741"><ele>937.1999999999999</ele><time>2026-03-07T09:46:24.008Z</time></trkpt><trkpt lat="36.9430431" lon="-3.6530492"><ele>936.8</ele><time>2026-03-07T09:46:25.006Z</time></trkpt><trkpt lat="36.9431264" lon="-3.6530991"><ele>936.4</ele><time>2026-03-07T09:46:25.997Z</time></trkpt><trkpt lat="36.9431945" lon="-3.6531809"><ele>936.0</ele><time>2026-03-07T09:46:27.013Z</time></trkpt><trkpt lat="36.9432642" lon="-3.6532389"><ele>936.0</ele><time>2026-03-07T09:46:28.005Z</time></trkpt><trkpt lat="36.9433303" lon="-3.6532748"><ele>935.9999999999999</ele><time>2026-03-07T09:46:29.01Z</time></trkpt><trkpt lat="36.9434379" lon="-3.6532981"><ele>935.9999999999999</ele><time>2026-03-07T09:46:31.014Z</time></trkpt><trkpt lat="36.9435065" lon="-3.6532316"><ele>936.0</ele><time>2026-03-07T09:46:33.001Z</time></trkpt><trkpt lat="36.9435364" lon="-3.6530661"><ele>936.0</ele><time>2026-03-07T09:46:35.021Z</time></trkpt><trkpt lat="36.9435587" lon="-3.6529699"><ele>937.0</ele><time>2026-03-07T09:46:36.009Z</time></trkpt><trkpt lat="36.9435834" lon="-3.6528781"><ele>937.9999999999999</ele><time>2026-03-07T09:46:37.012Z</time></trkpt><trkpt lat="36.9436652" lon="-3.652768"><ele>938.9999999999999</ele><time>2026-03-07T09:46:39.03Z</time></trkpt><trkpt lat="36.9437385" lon="-3.6527729"><ele>940.0</ele><time>2026-03-07T09:46:40.016Z</time></trkpt><trkpt lat="36.9438288" lon="-3.6527739"><ele>941.0</ele><time>2026-03-07T09:46:41.011Z</time></trkpt><trkpt lat="36.9439232" lon="-3.6527768"><ele>941.0</ele><time>2026-03-07T09:46:42.006Z</time></trkpt><trkpt lat="36.9440299" lon="-3.6527699"><ele>940.9999999999999</ele><time>2026-03-07T09:46:43.016Z</time></trkpt><trkpt lat="36.9441317" lon="-3.6527577"><ele>940.9999999999999</ele><time>2026-03-07T09:46:44.018Z</time></trkpt><trkpt lat="36.9442229" lon="-3.6527414"><ele>941.0</ele><time>2026-03-07T09:46:45.013Z</time></trkpt><trkpt lat="36.9443119" lon="-3.6527217"><ele>941.0</ele><time>2026-03-07T09:46:46.01Z</time></trkpt><trkpt lat="36.9444112" lon="-3.6526967"><ele>944.5999999999999</ele><time>2026-03-07T09:46:47.007Z</time></trkpt><trkpt lat="36.9445337" lon="-3.6526644"><ele>948.1999999999999</ele><time>2026-03-07T09:46:48.013Z</time></trkpt><trkpt lat="36.9446536" lon="-3.6526348"><ele>951.8000000000001</ele><time>2026-03-07T09:46:49.014Z</time></trkpt><trkpt lat="36.9447561" lon="-3.6526071"><ele>955.4000000000001</ele><time>2026-03-07T09:46:50.011Z</time></trkpt><trkpt lat="36.9448393" lon="-3.6525751"><ele>959.0</ele><time>2026-03-07T09:46:51.025Z</time></trkpt><trkpt lat="36.9449093" lon="-3.652549"><ele>959.0</ele><time>2026-03-07T09:46:52.019Z</time></trkpt><trkpt lat="36.9450263" lon="-3.6525068"><ele>959.0000000000001</ele><time>2026-03-07T09:46:54.001Z</time></trkpt><trkpt lat="36.9451137" lon="-3.6524707"><ele>959.0000000000001</ele><time>2026-03-07T09:46:56.011Z</time></trkpt><trkpt lat="36.9451292" lon="-3.6523943"><ele>959.0</ele><time>2026-03-07T09:46:58.013Z</time></trkpt><trkpt lat="36.9450825" lon="-3.6522723"><ele>959.0</ele><time>2026-03-07T09:47:00.06Z</time></trkpt><trkpt lat="36.9450051" lon="-3.6521385"><ele>959.0</ele><time>2026-03-07T09:47:01.993Z</time></trkpt><trkpt lat="36.9449579" lon="-3.6520023"><ele>959.0000000000001</ele><time>2026-03-07T09:47:04Z</time></trkpt><trkpt lat="36.9449483" lon="-3.6519012"><ele>959.0000000000001</ele><time>2026-03-07T09:47:05.016Z</time></trkpt><trkpt lat="36.9449495" lon="-3.6517848"><ele>959.0</ele><time>2026-03-07T09:47:06.005Z</time></trkpt><trkpt lat="36.9449593" lon="-3.6516589"><ele>959.0</ele><time>2026-03-07T09:47:07.007Z</time></trkpt><trkpt lat="36.9449669" lon="-3.6515541"><ele>959.5000000000001</ele><time>2026-03-07T09:47:08.019Z</time></trkpt><trkpt lat="36.944981" lon="-3.6514685"><ele>960.0</ele><time>2026-03-07T09:47:08.994Z</time></trkpt><trkpt lat="36.9450161" lon="-3.6514031"><ele>960.5</ele><time>2026-03-07T09:47:10.001Z</time></trkpt><trkpt lat="36.945099" lon="-3.6512967"><ele>961.0</ele><time>2026-03-07T09:47:12.007Z</time></trkpt><trkpt lat="36.9451224" lon="-3.6511863"><ele>961.5000000000001</ele><time>2026-03-07T09:47:14.012Z</time></trkpt><trkpt lat="36.9450838" lon="-3.6511157"><ele>962.0</ele><time>2026-03-07T09:47:15.004Z</time></trkpt><trkpt lat="36.9450111" lon="-3.65106"><ele>962.0</ele><time>2026-03-07T09:47:16.005Z</time></trkpt><trkpt lat="36.9449169" lon="-3.6510263"><ele>962.0</ele><time>2026-03-07T09:47:17.005Z</time></trkpt><trkpt lat="36.9448195" lon="-3.6510147"><ele>962.0</ele><time>2026-03-07T09:47:18.069Z</time></trkpt><trkpt lat="36.9447203" lon="-3.6510366"><ele>962.0</ele><time>2026-03-07T09:47:19.052Z</time></trkpt><trkpt lat="36.9446202" lon="-3.6510744"><ele>962.0</ele><time>2026-03-07T09:47:20.035Z</time></trkpt><trkpt lat="36.9445296" lon="-3.6511252"><ele>960.6666666666667</ele><time>2026-03-07T09:47:21.033Z</time></trkpt><trkpt lat="36.9444496" lon="-3.6511774"><ele>959.3333333333334</ele><time>2026-03-07T09:47:22.07Z</time></trkpt><trkpt lat="36.9443749" lon="-3.6512097"><ele>958.0</ele><time>2026-03-07T09:47:23.012Z</time></trkpt><trkpt lat="36.9443015" lon="-3.6512125"><ele>956.6666666666667</ele><time>2026-03-07T09:47:24.008Z</time></trkpt><trkpt lat="36.944224" lon="-3.651191"><ele>955.3333333333334</ele><time>2026-03-07T09:47:25.001Z</time></trkpt><trkpt lat="36.944146" lon="-3.6511668"><ele>954.0</ele><time>2026-03-07T09:47:26.002Z</time></trkpt><trkpt lat="36.9440676" lon="-3.651138"><ele>955.5</ele><time>2026-03-07T09:47:26.993Z</time></trkpt><trkpt lat="36.9439862" lon="-3.6511121"><ele>957.0</ele><time>2026-03-07T09:47:27.999Z</time></trkpt><trkpt lat="36.9439022" lon="-3.6510903"><ele>958.5</ele><time>2026-03-07T09:47:29.006Z</time></trkpt><trkpt lat="36.9438182" lon="-3.6510636"><ele>960.0</ele><time>2026-03-07T09:47:30.017Z</time></trkpt><trkpt lat="36.9437353" lon="-3.6510385"><ele>961.5</ele><time>2026-03-07T09:47:31.014Z</time></trkpt><trkpt lat="36.9436497" lon="-3.6510123"><ele>963.0</ele><time>2026-03-07T09:47:32.007Z</time></trkpt><trkpt lat="36.9435635" lon="-3.6509839"><ele>963.0</ele><time>2026-03-07T09:47:33.007Z</time></trkpt><trkpt lat="36.9434797" lon="-3.6509539"><ele>963.0</ele><time>2026-03-07T09:47:34.006Z</time></trkpt><trkpt lat="36.9433937" lon="-3.6509249"><ele>963.0</ele><time>2026-03-07T09:47:35.007Z</time></trkpt><trkpt lat="36.943305" lon="-3.6508951"><ele>963.0</ele><time>2026-03-07T09:47:36.008Z</time></trkpt><trkpt lat="36.9432137" lon="-3.6508736"><ele>963.0</ele><time>2026-03-07T09:47:37.003Z</time></trkpt><trkpt lat="36.9431234" lon="-3.6508467"><ele>961.5999999999999</ele><time>2026-03-07T09:47:38.012Z</time></trkpt><trkpt lat="36.9430318" lon="-3.650804"><ele>960.1999999999999</ele><time>2026-03-07T09:47:39.021Z</time></trkpt><trkpt lat="36.9429345" lon="-3.6507601"><ele>958.8</ele><time>2026-03-07T09:47:40.005Z</time></trkpt><trkpt lat="36.9428341" lon="-3.6507195"><ele>957.4</ele><time>2026-03-07T09:47:40.998Z</time></trkpt><trkpt lat="36.9427345" lon="-3.6506749"><ele>956.0</ele><time>2026-03-07T09:47:42.014Z</time></trkpt><trkpt lat="36.942634" lon="-3.6506305"><ele>953.0</ele><time>2026-03-07T09:47:43.005Z</time></trkpt><trkpt lat="36.9425334" lon="-3.6505873"><ele>949.9999999999999</ele><time>2026-03-07T09:47:44.014Z</time></trkpt><trkpt lat="36.9424393" lon="-3.6505542"><ele>946.9999999999999</ele><time>2026-03-07T09:47:45.001Z</time></trkpt><trkpt lat="36.9423477" lon="-3.6505196"><ele>944.0</ele><time>2026-03-07T09:47:45.995Z</time></trkpt><trkpt lat="36.9422567" lon="-3.6504812"><ele>941.0</ele><time>2026-03-07T09:47:47.025Z</time></trkpt><trkpt lat="36.942169" lon="-3.6504339"><ele>941.0000000000001</ele><time>2026-03-07T09:47:48.012Z</time></trkpt><trkpt lat="36.9420856" lon="-3.6503808"><ele>941.0</ele><time>2026-03-07T09:47:49.007Z</time></trkpt><trkpt lat="36.9420037" lon="-3.650326"><ele>941.0</ele><time>2026-03-07T09:47:50.005Z</time></trkpt><trkpt lat="36.9419235" lon="-3.6502715"><ele>941.0</ele><time>2026-03-07T09:47:51.028Z</time></trkpt><trkpt lat="36.9418474" lon="-3.6502183"><ele>941.0000000000001</ele><time>2026-03-07T09:47:52.004Z</time></trkpt><trkpt lat="36.941786" lon="-3.6501479"><ele>941.0</ele><time>2026-03-07T09:47:53.044Z</time></trkpt><trkpt lat="36.9417378" lon="-3.6500534"><ele>940.5999999999999</ele><time>2026-03-07T09:47:54.07Z</time></trkpt><trkpt lat="36.9416894" lon="-3.6499371"><ele>940.1999999999999</ele><time>2026-03-07T09:47:55.018Z</time></trkpt><trkpt lat="36.9416403" lon="-3.6498106"><ele>939.8000000000001</ele><time>2026-03-07T09:47:56.006Z</time></trkpt><trkpt lat="36.9415926" lon="-3.6496765"><ele>939.4000000000001</ele><time>2026-03-07T09:47:57.019Z</time></trkpt><trkpt lat="36.9415338" lon="-3.6495555"><ele>939.0</ele><time>2026-03-07T09:47:58.024Z</time></trkpt><trkpt lat="36.9414726" lon="-3.6494459"><ele>940.6</ele><time>2026-03-07T09:47:59.002Z</time></trkpt><trkpt lat="36.9414084" lon="-3.6493498"><ele>942.2</ele><time>2026-03-07T09:48:00.01Z</time></trkpt><trkpt lat="36.9413565" lon="-3.6492527"><ele>943.8000000000001</ele><time>2026-03-07T09:48:01.01Z</time></trkpt><trkpt lat="36.9413198" lon="-3.6491539"><ele>945.4000000000001</ele><time>2026-03-07T09:48:02.025Z</time></trkpt><trkpt lat="36.9412917" lon="-3.649051"><ele>947.0</ele><time>2026-03-07T09:48:03.024Z</time></trkpt><trkpt lat="36.94127" lon="-3.6489313"><ele>947.0</ele><time>2026-03-07T09:48:04.014Z</time></trkpt><trkpt lat="36.9412602" lon="-3.6488006"><ele>947.0</ele><time>2026-03-07T09:48:05Z</time></trkpt><trkpt lat="36.9412472" lon="-3.6486632"><ele>947.0</ele><time>2026-03-07T09:48:05.999Z</time></trkpt><trkpt lat="36.9412382" lon="-3.6485441"><ele>947.0</ele><time>2026-03-07T09:48:07.012Z</time></trkpt><trkpt lat="36.9412156" lon="-3.6484468"><ele>947.0</ele><time>2026-03-07T09:48:08.006Z</time></trkpt><trkpt lat="36.9411744" lon="-3.6483579"><ele>947.1666666666667</ele><time>2026-03-07T09:48:09.017Z</time></trkpt><trkpt lat="36.9411201" lon="-3.6482878"><ele>947.3333333333334</ele><time>2026-03-07T09:48:10.003Z</time></trkpt><trkpt lat="36.9410554" lon="-3.6482282"><ele>947.5</ele><time>2026-03-07T09:48:11.003Z</time></trkpt><trkpt lat="36.9409777" lon="-3.6481643"><ele>947.6666666666667</ele><time>2026-03-07T09:48:12.007Z</time></trkpt><trkpt lat="36.9408863" lon="-3.6481061"><ele>947.8333333333334</ele><time>2026-03-07T09:48:13.011Z</time></trkpt><trkpt lat="36.9408126" lon="-3.6480308"><ele>948.0</ele><time>2026-03-07T09:48:14.003Z</time></trkpt><trkpt lat="36.940745" lon="-3.647966"><ele>944.8333333333334</ele><time>2026-03-07T09:48:15.009Z</time></trkpt><trkpt lat="36.940695" lon="-3.6478913"><ele>941.6666666666667</ele><time>2026-03-07T09:48:16.012Z</time></trkpt><trkpt lat="36.9406591" lon="-3.647799"><ele>938.5</ele><time>2026-03-07T09:48:17Z</time></trkpt><trkpt lat="36.9406348" lon="-3.6476933"><ele>935.3333333333334</ele><time>2026-03-07T09:48:18.006Z</time></trkpt><trkpt lat="36.9406187" lon="-3.6475836"><ele>932.1666666666667</ele><time>2026-03-07T09:48:19.012Z</time></trkpt><trkpt lat="36.9406112" lon="-3.6474756"><ele>929.0</ele><time>2026-03-07T09:48:20.028Z</time></trkpt><trkpt lat="36.9406076" lon="-3.6473594"><ele>929.0</ele><time>2026-03-07T09:48:21.006Z</time></trkpt><trkpt lat="36.9405995" lon="-3.6472388"><ele>929.0000000000001</ele><time>2026-03-07T09:48:21.999Z</time></trkpt><trkpt lat="36.9405893" lon="-3.6471107"><ele>929.0000000000001</ele><time>2026-03-07T09:48:23.039Z</time></trkpt><trkpt lat="36.9405786" lon="-3.6469797"><ele>929.0</ele><time>2026-03-07T09:48:24.015Z</time></trkpt><trkpt lat="36.9405814" lon="-3.6468486"><ele>929.0</ele><time>2026-03-07T09:48:25.004Z</time></trkpt><trkpt lat="36.9405881" lon="-3.6467268"><ele>927.6666666666667</ele><time>2026-03-07T09:48:26.009Z</time></trkpt><trkpt lat="36.9405915" lon="-3.6466248"><ele>926.3333333333334</ele><time>2026-03-07T09:48:27.009Z</time></trkpt><trkpt lat="36.940569" lon="-3.6465309"><ele>925.0</ele><time>2026-03-07T09:48:28.007Z</time></trkpt><trkpt lat="36.9405349" lon="-3.6464405"><ele>923.6666666666667</ele><time>2026-03-07T09:48:29.005Z</time></trkpt><trkpt lat="36.9404854" lon="-3.6463603"><ele>922.3333333333334</ele><time>2026-03-07T09:48:30.061Z</time></trkpt><trkpt lat="36.9404303" lon="-3.6462848"><ele>921.0</ele><time>2026-03-07T09:48:31.003Z</time></trkpt><trkpt lat="36.9403734" lon="-3.6462244"><ele>921.0</ele><time>2026-03-07T09:48:31.999Z</time></trkpt><trkpt lat="36.9402951" lon="-3.6461439"><ele>921.0</ele><time>2026-03-07T09:48:34.019Z</time></trkpt><trkpt lat="36.9402342" lon="-3.6461027"><ele>921.0</ele><time>2026-03-07T09:48:37.025Z</time></trkpt><trkpt lat="36.9401468" lon="-3.6461516"><ele>921.0</ele><time>2026-03-07T09:48:45.006Z</time></trkpt><trkpt lat="36.9401042" lon="-3.6462214"><ele>921.0</ele><time>2026-03-07T09:49:09.005Z</time></trkpt><trkpt lat="36.9400393" lon="-3.6462214"><ele>921.0</ele><time>2026-03-07T09:49:10.016Z</time></trkpt><trkpt lat="36.9399708" lon="-3.6462203"><ele>918.8333333333334</ele><time>2026-03-07T09:49:11.007Z</time></trkpt><trkpt lat="36.9398993" lon="-3.6462126"><ele>916.6666666666667</ele><time>2026-03-07T09:49:12.024Z</time></trkpt><trkpt lat="36.9398178" lon="-3.6462021"><ele>914.5</ele><time>2026-03-07T09:49:13.074Z</time></trkpt><trkpt lat="36.9397356" lon="-3.646196"><ele>912.3333333333334</ele><time>2026-03-07T09:49:14.009Z</time></trkpt><trkpt lat="36.9396543" lon="-3.6461895"><ele>910.1666666666667</ele><time>2026-03-07T09:49:15.009Z</time></trkpt><trkpt lat="36.9395826" lon="-3.6461816"><ele>908.0</ele><time>2026-03-07T09:49:16.06Z</time></trkpt><trkpt lat="36.9395159" lon="-3.6461511"><ele>907.3333333333334</ele><time>2026-03-07T09:49:17Z</time></trkpt><trkpt lat="36.9394536" lon="-3.6461072"><ele>906.6666666666667</ele><time>2026-03-07T09:49:17.986Z</time></trkpt><trkpt lat="36.9394002" lon="-3.6460555"><ele>906.0</ele><time>2026-03-07T09:49:19.006Z</time></trkpt><trkpt lat="36.9393319" lon="-3.645996"><ele>905.3333333333333</ele><time>2026-03-07T09:49:20.038Z</time></trkpt><trkpt lat="36.9392502" lon="-3.6459277"><ele>904.6666666666666</ele><time>2026-03-07T09:49:21.014Z</time></trkpt><trkpt lat="36.9391632" lon="-3.6458457"><ele>904.0</ele><time>2026-03-07T09:49:22.017Z</time></trkpt><trkpt lat="36.9390697" lon="-3.6457614"><ele>902.6</ele><time>2026-03-07T09:49:23.01Z</time></trkpt><trkpt lat="36.9389717" lon="-3.6456927"><ele>901.2</ele><time>2026-03-07T09:49:23.998Z</time></trkpt><trkpt lat="36.9388747" lon="-3.6456386"><ele>899.8000000000001</ele><time>2026-03-07T09:49:25.006Z</time></trkpt><trkpt lat="36.9387854" lon="-3.6455756"><ele>898.4000000000001</ele><time>2026-03-07T09:49:26.01Z</time></trkpt><trkpt lat="36.9387032" lon="-3.6455171"><ele>897.0</ele><time>2026-03-07T09:49:27.01Z</time></trkpt><trkpt lat="36.9386271" lon="-3.6454489"><ele>897.0</ele><time>2026-03-07T09:49:28.028Z</time></trkpt><trkpt lat="36.9385587" lon="-3.645363"><ele>897.0</ele><time>2026-03-07T09:49:29.005Z</time></trkpt><trkpt lat="36.9384991" lon="-3.6452699"><ele>897.0</ele><time>2026-03-07T09:49:30.003Z</time></trkpt><trkpt lat="36.9384419" lon="-3.6451716"><ele>897.0</ele><time>2026-03-07T09:49:31.01Z</time></trkpt><trkpt lat="36.9383684" lon="-3.6450913"><ele>897.0</ele><time>2026-03-07T09:49:32.007Z</time></trkpt><trkpt lat="36.9382889" lon="-3.6450084"><ele>895.8</ele><time>2026-03-07T09:49:33.012Z</time></trkpt><trkpt lat="36.9382154" lon="-3.644928"><ele>894.6</ele><time>2026-03-07T09:49:34.002Z</time></trkpt><trkpt lat="36.938167" lon="-3.6448446"><ele>893.3999999999999</ele><time>2026-03-07T09:49:35.007Z</time></trkpt><trkpt lat="36.9381438" lon="-3.6447569"><ele>892.1999999999999</ele><time>2026-03-07T09:49:36.007Z</time></trkpt><trkpt lat="36.9381218" lon="-3.6446805"><ele>891.0</ele><time>2026-03-07T09:49:37.011Z</time></trkpt><trkpt lat="36.9380555" lon="-3.6445303"><ele>888.8</ele><time>2026-03-07T09:49:39.019Z</time></trkpt><trkpt lat="36.9379954" lon="-3.6444235"><ele>886.5999999999999</ele><time>2026-03-07T09:49:41.006Z</time></trkpt><trkpt lat="36.9379936" lon="-3.6442505"><ele>884.4</ele><time>2026-03-07T09:49:57.017Z</time></trkpt><trkpt lat="36.9379882" lon="-3.6441552"><ele>882.2</ele><time>2026-03-07T09:49:58.018Z</time></trkpt><trkpt lat="36.9380142" lon="-3.6440466"><ele>880.0</ele><time>2026-03-07T09:49:59.007Z</time></trkpt><trkpt lat="36.938005" lon="-3.6439367"><ele>880.0</ele><time>2026-03-07T09:50:00.029Z</time></trkpt><trkpt lat="36.9379418" lon="-3.6438249"><ele>880.0</ele><time>2026-03-07T09:50:01.022Z</time></trkpt><trkpt lat="36.9378774" lon="-3.6437066"><ele>880.0</ele><time>2026-03-07T09:50:02.018Z</time></trkpt><trkpt lat="36.9378217" lon="-3.6435983"><ele>880.0</ele><time>2026-03-07T09:50:03.011Z</time></trkpt><trkpt lat="36.9377714" lon="-3.6434963"><ele>880.0</ele><time>2026-03-07T09:50:04.024Z</time></trkpt><trkpt lat="36.9377292" lon="-3.6433892"><ele>877.3333333333333</ele><time>2026-03-07T09:50:05.017Z</time></trkpt><trkpt lat="36.9377145" lon="-3.6432939"><ele>874.6666666666666</ele><time>2026-03-07T09:50:05.997Z</time></trkpt><trkpt lat="36.9377235" lon="-3.6432048"><ele>872.0</ele><time>2026-03-07T09:50:07.009Z</time></trkpt><trkpt lat="36.937769" lon="-3.643118"><ele>869.3333333333333</ele><time>2026-03-07T09:50:07.991Z</time></trkpt><trkpt lat="36.9378075" lon="-3.6430168"><ele>866.6666666666666</ele><time>2026-03-07T09:50:09.012Z</time></trkpt><trkpt lat="36.937845" lon="-3.6429134"><ele>864.0</ele><time>2026-03-07T09:50:09.996Z</time></trkpt><trkpt lat="36.9378719" lon="-3.6428128"><ele>862.0</ele><time>2026-03-07T09:50:11.004Z</time></trkpt><trkpt lat="36.9378873" lon="-3.6427104"><ele>860.0000000000001</ele><time>2026-03-07T09:50:12.008Z</time></trkpt><trkpt lat="36.9378902" lon="-3.6425943"><ele>858.0000000000001</ele><time>2026-03-07T09:50:13.013Z</time></trkpt><trkpt lat="36.9378818" lon="-3.6424589"><ele>856.0</ele><time>2026-03-07T09:50:14.012Z</time></trkpt><trkpt lat="36.9378729" lon="-3.6423057"><ele>854.0</ele><time>2026-03-07T09:50:15.008Z</time></trkpt><trkpt lat="36.9378691" lon="-3.6421653"><ele>854.0</ele><time>2026-03-07T09:50:16.004Z</time></trkpt><trkpt lat="36.9378499" lon="-3.6420511"><ele>854.0000000000001</ele><time>2026-03-07T09:50:17.027Z</time></trkpt><trkpt lat="36.9378237" lon="-3.6419303"><ele>854.0000000000001</ele><time>2026-03-07T09:50:18.009Z</time></trkpt><trkpt lat="36.9378023" lon="-3.6418142"><ele>854.0</ele><time>2026-03-07T09:50:19.015Z</time></trkpt><trkpt lat="36.9377878" lon="-3.6417017"><ele>854.0</ele><time>2026-03-07T09:50:20.006Z</time></trkpt><trkpt lat="36.9377824" lon="-3.6415844"><ele>851.25</ele><time>2026-03-07T09:50:21.014Z</time></trkpt><trkpt lat="36.9377814" lon="-3.6414472"><ele>848.5</ele><time>2026-03-07T09:50:22.043Z</time></trkpt><trkpt lat="36.9377787" lon="-3.6412974"><ele>845.75</ele><time>2026-03-07T09:50:23.041Z</time></trkpt><trkpt lat="36.93777" lon="-3.6411509"><ele>843.0</ele><time>2026-03-07T09:50:24.03Z</time></trkpt><trkpt lat="36.9377552" lon="-3.6410034"><ele>841.5999999999999</ele><time>2026-03-07T09:50:25.011Z</time></trkpt><trkpt lat="36.9377425" lon="-3.6408606"><ele>840.1999999999999</ele><time>2026-03-07T09:50:26.015Z</time></trkpt><trkpt lat="36.9377345" lon="-3.6407214"><ele>838.8</ele><time>2026-03-07T09:50:27.012Z</time></trkpt><trkpt lat="36.9377196" lon="-3.6405868"><ele>837.4</ele><time>2026-03-07T09:50:28.014Z</time></trkpt><trkpt lat="36.9376978" lon="-3.6404579"><ele>836.0</ele><time>2026-03-07T09:50:29.005Z</time></trkpt><trkpt lat="36.9376883" lon="-3.6403414"><ele>835.0000000000001</ele><time>2026-03-07T09:50:30.004Z</time></trkpt><trkpt lat="36.9376825" lon="-3.6402285"><ele>834.0</ele><time>2026-03-07T09:50:31.01Z</time></trkpt><trkpt lat="36.9376776" lon="-3.6401132"><ele>833.0</ele><time>2026-03-07T09:50:32.005Z</time></trkpt><trkpt lat="36.9376746" lon="-3.639999"><ele>832.0</ele><time>2026-03-07T09:50:33.026Z</time></trkpt><trkpt lat="36.9376713" lon="-3.6398968"><ele>831.0000000000001</ele><time>2026-03-07T09:50:34.013Z</time></trkpt><trkpt lat="36.9376396" lon="-3.639817"><ele>830.0</ele><time>2026-03-07T09:50:35.013Z</time></trkpt><trkpt lat="36.9375937" lon="-3.6397534"><ele>830.6666666666667</ele><time>2026-03-07T09:50:36.008Z</time></trkpt><trkpt lat="36.9375496" lon="-3.6396794"><ele>831.3333333333334</ele><time>2026-03-07T09:50:37Z</time></trkpt><trkpt lat="36.9375132" lon="-3.6395852"><ele>832.0</ele><time>2026-03-07T09:50:38.007Z</time></trkpt><trkpt lat="36.9374841" lon="-3.6394834"><ele>832.6666666666667</ele><time>2026-03-07T09:50:38.999Z</time></trkpt><trkpt lat="36.9374652" lon="-3.6393786"><ele>833.3333333333334</ele><time>2026-03-07T09:50:40.012Z</time></trkpt><trkpt lat="36.9374491" lon="-3.6392727"><ele>834.0</ele><time>2026-03-07T09:50:41.009Z</time></trkpt><trkpt lat="36.9374289" lon="-3.6391705"><ele>834.0</ele><time>2026-03-07T09:50:42.017Z</time></trkpt><trkpt lat="36.9374103" lon="-3.6390695"><ele>834.0</ele><time>2026-03-07T09:50:43.02Z</time></trkpt><trkpt lat="36.937391" lon="-3.6389707"><ele>834.0</ele><time>2026-03-07T09:50:44.008Z</time></trkpt><trkpt lat="36.9373443" lon="-3.6388851"><ele>834.0</ele><time>2026-03-07T09:50:44.998Z</time></trkpt><trkpt lat="36.9372878" lon="-3.6387939"><ele>834.0</ele><time>2026-03-07T09:50:46.011Z</time></trkpt><trkpt lat="36.937235" lon="-3.6387044"><ele>834.0</ele><time>2026-03-07T09:50:47.003Z</time></trkpt><trkpt lat="36.9372132" lon="-3.638599"><ele>832.3333333333334</ele><time>2026-03-07T09:50:48.018Z</time></trkpt><trkpt lat="36.9372002" lon="-3.6384835"><ele>830.6666666666667</ele><time>2026-03-07T09:50:49.013Z</time></trkpt><trkpt lat="36.9371975" lon="-3.6383671"><ele>829.0</ele><time>2026-03-07T09:50:50.014Z</time></trkpt><trkpt lat="36.9371793" lon="-3.6382662"><ele>827.3333333333334</ele><time>2026-03-07T09:50:51.017Z</time></trkpt><trkpt lat="36.9371765" lon="-3.6381758"><ele>825.6666666666667</ele><time>2026-03-07T09:50:52.009Z</time></trkpt><trkpt lat="36.9371922" lon="-3.6380854"><ele>824.0</ele><time>2026-03-07T09:50:53.001Z</time></trkpt><trkpt lat="36.9372253" lon="-3.6379889"><ele>824.0000000000001</ele><time>2026-03-07T09:50:54.018Z</time></trkpt><trkpt lat="36.9372556" lon="-3.6378858"><ele>824.0</ele><time>2026-03-07T09:50:54.998Z</time></trkpt><trkpt lat="36.9372854" lon="-3.637775"><ele>824.0</ele><time>2026-03-07T09:50:55.996Z</time></trkpt><trkpt lat="36.9373146" lon="-3.6376617"><ele>824.0</ele><time>2026-03-07T09:50:57.019Z</time></trkpt><trkpt lat="36.9373254" lon="-3.6375604"><ele>824.0000000000001</ele><time>2026-03-07T09:50:58.001Z</time></trkpt><trkpt lat="36.9373316" lon="-3.6374644"><ele>824.0</ele><time>2026-03-07T09:50:59.002Z</time></trkpt><trkpt lat="36.9373404" lon="-3.637381"><ele>823.2</ele><time>2026-03-07T09:51:00.025Z</time></trkpt><trkpt lat="36.9373935" lon="-3.6372637"><ele>822.4000000000001</ele><time>2026-03-07T09:51:02.005Z</time></trkpt><trkpt lat="36.9375014" lon="-3.637277"><ele>821.6</ele><time>2026-03-07T09:51:04.006Z</time></trkpt><trkpt lat="36.9375973" lon="-3.6372768"><ele>820.8</ele><time>2026-03-07T09:51:06.021Z</time></trkpt><trkpt lat="36.9376655" lon="-3.6372373"><ele>820.0</ele><time>2026-03-07T09:51:08.017Z</time></trkpt><trkpt lat="36.9377112" lon="-3.6371162"><ele>818.3333333333333</ele><time>2026-03-07T09:51:10.013Z</time></trkpt><trkpt lat="36.9377066" lon="-3.6370231"><ele>816.6666666666666</ele><time>2026-03-07T09:51:11.012Z</time></trkpt><trkpt lat="36.9377016" lon="-3.6369135"><ele>815.0</ele><time>2026-03-07T09:51:12.007Z</time></trkpt><trkpt lat="36.9376948" lon="-3.6368051"><ele>813.3333333333333</ele><time>2026-03-07T09:51:13.007Z</time></trkpt><trkpt lat="36.9376842" lon="-3.6367047"><ele>811.6666666666666</ele><time>2026-03-07T09:51:14.017Z</time></trkpt><trkpt lat="36.9376476" lon="-3.6366264"><ele>810.0</ele><time>2026-03-07T09:51:15.001Z</time></trkpt><trkpt lat="36.9375976" lon="-3.6365536"><ele>810.0</ele><time>2026-03-07T09:51:16.016Z</time></trkpt><trkpt lat="36.9375403" lon="-3.6364796"><ele>810.0</ele><time>2026-03-07T09:51:17.018Z</time></trkpt><trkpt lat="36.9374896" lon="-3.6364198"><ele>810.0</ele><time>2026-03-07T09:51:18.003Z</time></trkpt><trkpt lat="36.9374647" lon="-3.6363274"><ele>810.0</ele><time>2026-03-07T09:51:19.002Z</time></trkpt><trkpt lat="36.9374347" lon="-3.6362321"><ele>810.0</ele><time>2026-03-07T09:51:20.01Z</time></trkpt><trkpt lat="36.9374045" lon="-3.6361452"><ele>810.0</ele><time>2026-03-07T09:51:21.006Z</time></trkpt><trkpt lat="36.9373792" lon="-3.6360538"><ele>808.1666666666666</ele><time>2026-03-07T09:51:22.014Z</time></trkpt><trkpt lat="36.937376" lon="-3.6359645"><ele>806.3333333333333</ele><time>2026-03-07T09:51:23.009Z</time></trkpt><trkpt lat="36.9373516" lon="-3.6358346"><ele>804.5</ele><time>2026-03-07T09:51:25.021Z</time></trkpt><trkpt lat="36.9372683" lon="-3.6358164"><ele>802.6666666666666</ele><time>2026-03-07T09:51:27.01Z</time></trkpt><trkpt lat="36.9371804" lon="-3.6358482"><ele>800.8333333333333</ele><time>2026-03-07T09:51:29.004Z</time></trkpt><trkpt lat="36.937119" lon="-3.6357583"><ele>799.0</ele><time>2026-03-07T09:51:30.993Z</time></trkpt><trkpt lat="36.9371021" lon="-3.63568"><ele>798.9999999999999</ele><time>2026-03-07T09:51:32.012Z</time></trkpt><trkpt lat="36.937092" lon="-3.6355955"><ele>799.0</ele><time>2026-03-07T09:51:33.081Z</time></trkpt><trkpt lat="36.9370867" lon="-3.6355153"><ele>799.0</ele><time>2026-03-07T09:51:34.007Z</time></trkpt><trkpt lat="36.9370822" lon="-3.6353743"><ele>799.0</ele><time>2026-03-07T09:51:36.003Z</time></trkpt><trkpt lat="36.9370768" lon="-3.6352885"><ele>798.9999999999999</ele><time>2026-03-07T09:51:36.989Z</time></trkpt><trkpt lat="36.9370282" lon="-3.6351467"><ele>799.0</ele><time>2026-03-07T09:51:38.998Z</time></trkpt><trkpt lat="36.9369759" lon="-3.6350701"><ele>797.4999999999999</ele><time>2026-03-07T09:51:39.995Z</time></trkpt><trkpt lat="36.9369226" lon="-3.634985"><ele>796.0</ele><time>2026-03-07T09:51:40.999Z</time></trkpt><trkpt lat="36.9368751" lon="-3.6349075"><ele>794.5</ele><time>2026-03-07T09:51:42.012Z</time></trkpt><trkpt lat="36.9368376" lon="-3.6348417"><ele>793.0</ele><time>2026-03-07T09:51:43.001Z</time></trkpt><trkpt lat="36.9367574" lon="-3.6347694"><ele>791.4999999999999</ele><time>2026-03-07T09:51:45.005Z</time></trkpt><trkpt lat="36.9366839" lon="-3.6346824"><ele>790.0</ele><time>2026-03-07T09:51:47.009Z</time></trkpt><trkpt lat="36.9365864" lon="-3.634597"><ele>790.0</ele><time>2026-03-07T09:51:49.066Z</time></trkpt><trkpt lat="36.9365222" lon="-3.6345695"><ele>790.0</ele><time>2026-03-07T09:51:50.086Z</time></trkpt><trkpt lat="36.9364467" lon="-3.6345425"><ele>790.0</ele><time>2026-03-07T09:51:51.087Z</time></trkpt><trkpt lat="36.9363588" lon="-3.6345017"><ele>790.0</ele><time>2026-03-07T09:51:52.089Z</time></trkpt><trkpt lat="36.9362628" lon="-3.6344402"><ele>790.0</ele><time>2026-03-07T09:51:53.081Z</time></trkpt><trkpt lat="36.9361748" lon="-3.634365"><ele>789.6666666666666</ele><time>2026-03-07T09:51:54.102Z</time></trkpt><trkpt lat="36.936098" lon="-3.6342919"><ele>789.3333333333333</ele><time>2026-03-07T09:51:55.127Z</time></trkpt><trkpt lat="36.9360371" lon="-3.6342136"><ele>789.0</ele><time>2026-03-07T09:51:56.09Z</time></trkpt><trkpt lat="36.9359892" lon="-3.6341614"><ele>788.6666666666667</ele><time>2026-03-07T09:51:57.098Z</time></trkpt><trkpt lat="36.9359019" lon="-3.6341096"><ele>788.3333333333334</ele><time>2026-03-07T09:51:59.031Z</time></trkpt><trkpt lat="36.9358096" lon="-3.6341354"><ele>788.0</ele><time>2026-03-07T09:52:01.055Z</time></trkpt><trkpt lat="36.9357398" lon="-3.6342439"><ele>788.0</ele><time>2026-03-07T09:52:03.076Z</time></trkpt><trkpt lat="36.9356572" lon="-3.6343615"><ele>788.0</ele><time>2026-03-07T09:52:05.028Z</time></trkpt><trkpt lat="36.9356039" lon="-3.6344275"><ele>788.0</ele><time>2026-03-07T09:52:06.041Z</time></trkpt><trkpt lat="36.935547" lon="-3.634503"><ele>788.0</ele><time>2026-03-07T09:52:07.036Z</time></trkpt><trkpt lat="36.9354769" lon="-3.6345871"><ele>788.0</ele><time>2026-03-07T09:52:08.042Z</time></trkpt><trkpt lat="36.935407" lon="-3.6346698"><ele>788.6666666666667</ele><time>2026-03-07T09:52:09.032Z</time></trkpt><trkpt lat="36.9353312" lon="-3.6347361"><ele>789.3333333333334</ele><time>2026-03-07T09:52:10.062Z</time></trkpt><trkpt lat="36.9352505" lon="-3.634789"><ele>790.0</ele><time>2026-03-07T09:52:11.042Z</time></trkpt><trkpt lat="36.9351758" lon="-3.6348398"><ele>790.6666666666667</ele><time>2026-03-07T09:52:12.049Z</time></trkpt><trkpt lat="36.935099" lon="-3.6348784"><ele>791.3333333333334</ele><time>2026-03-07T09:52:13.018Z</time></trkpt><trkpt lat="36.9350239" lon="-3.6349043"><ele>792.0</ele><time>2026-03-07T09:52:14.035Z</time></trkpt><trkpt lat="36.934951" lon="-3.6349176"><ele>792.0</ele><time>2026-03-07T09:52:15.058Z</time></trkpt><trkpt lat="36.9348863" lon="-3.6349179"><ele>792.0</ele><time>2026-03-07T09:52:16.056Z</time></trkpt><trkpt lat="36.9347833" lon="-3.634918"><ele>792.0</ele><time>2026-03-07T09:52:18.029Z</time></trkpt><trkpt lat="36.9347012" lon="-3.6349716"><ele>792.0</ele><time>2026-03-07T09:52:20.091Z</time></trkpt><trkpt lat="36.9346284" lon="-3.6350554"><ele>792.0</ele><time>2026-03-07T09:52:22.164Z</time></trkpt><trkpt lat="36.9345904" lon="-3.6351849"><ele>792.0</ele><time>2026-03-07T09:52:24.067Z</time></trkpt><trkpt lat="36.9345655" lon="-3.635298"><ele>792.0</ele><time>2026-03-07T09:52:26.118Z</time></trkpt><trkpt lat="36.9345117" lon="-3.6353402"><ele>792.0</ele><time>2026-03-07T09:52:28.075Z</time></trkpt><trkpt lat="36.9344592" lon="-3.6352955"><ele>792.0</ele><time>2026-03-07T09:52:30.096Z</time></trkpt><trkpt lat="36.9344487" lon="-3.6351954"><ele>792.0</ele><time>2026-03-07T09:52:32.126Z</time></trkpt><trkpt lat="36.9343991" lon="-3.6350894"><ele>792.0</ele><time>2026-03-07T09:52:34.1Z</time></trkpt><trkpt lat="36.9342853" lon="-3.635039"><ele>790.8333333333334</ele><time>2026-03-07T09:52:36.097Z</time></trkpt><trkpt lat="36.9342034" lon="-3.635048"><ele>789.6666666666667</ele><time>2026-03-07T09:52:37.119Z</time></trkpt><trkpt lat="36.9341212" lon="-3.6350295"><ele>788.5</ele><time>2026-03-07T09:52:38.095Z</time></trkpt><trkpt lat="36.9340529" lon="-3.6349903"><ele>787.3333333333334</ele><time>2026-03-07T09:52:39.028Z</time></trkpt><trkpt lat="36.9339967" lon="-3.6349146"><ele>786.1666666666667</ele><time>2026-03-07T09:52:40.032Z</time></trkpt><trkpt lat="36.9339543" lon="-3.6348094"><ele>785.0</ele><time>2026-03-07T09:52:41.08Z</time></trkpt><trkpt lat="36.9339446" lon="-3.6346931"><ele>785.0000000000001</ele><time>2026-03-07T09:52:42.072Z</time></trkpt><trkpt lat="36.9339251" lon="-3.6345847"><ele>785.0</ele><time>2026-03-07T09:52:43.087Z</time></trkpt><trkpt lat="36.9338966" lon="-3.6344839"><ele>785.0</ele><time>2026-03-07T09:52:44.08Z</time></trkpt><trkpt lat="36.9338514" lon="-3.6344058"><ele>785.0</ele><time>2026-03-07T09:52:45.083Z</time></trkpt><trkpt lat="36.9337958" lon="-3.6343485"><ele>785.0000000000001</ele><time>2026-03-07T09:52:46.108Z</time></trkpt><trkpt lat="36.9337282" lon="-3.6342751"><ele>785.0</ele><time>2026-03-07T09:52:47.085Z</time></trkpt><trkpt lat="36.9336508" lon="-3.6342448"><ele>784.8</ele><time>2026-03-07T09:52:48.103Z</time></trkpt><trkpt lat="36.9335733" lon="-3.6342144"><ele>784.6</ele><time>2026-03-07T09:52:49.233Z</time></trkpt><trkpt lat="36.9334568" lon="-3.6341062"><ele>784.4000000000001</ele><time>2026-03-07T09:52:51.103Z</time></trkpt><trkpt lat="36.9334207" lon="-3.6340385"><ele>784.2</ele><time>2026-03-07T09:52:52.091Z</time></trkpt><trkpt lat="36.9333957" lon="-3.6339004"><ele>784.0</ele><time>2026-03-07T09:52:54.06Z</time></trkpt><trkpt lat="36.9333421" lon="-3.633793"><ele>783.9999999999999</ele><time>2026-03-07T09:52:56.118Z</time></trkpt><trkpt lat="36.9332761" lon="-3.6337615"><ele>784.0</ele><time>2026-03-07T09:52:57.127Z</time></trkpt><trkpt lat="36.9332023" lon="-3.6337432"><ele>784.0</ele><time>2026-03-07T09:52:58.106Z</time></trkpt><trkpt lat="36.9331271" lon="-3.6337356"><ele>784.0</ele><time>2026-03-07T09:52:59.125Z</time></trkpt><trkpt lat="36.9330558" lon="-3.6337271"><ele>783.9999999999999</ele><time>2026-03-07T09:53:00.118Z</time></trkpt><trkpt lat="36.932996" lon="-3.6336987"><ele>784.0</ele><time>2026-03-07T09:53:01.103Z</time></trkpt><trkpt lat="36.9329029" lon="-3.6336633"><ele>784.0</ele><time>2026-03-07T09:53:03.098Z</time></trkpt><trkpt lat="36.9328195" lon="-3.633682"><ele>784.0</ele><time>2026-03-07T09:53:05.09Z</time></trkpt><trkpt lat="36.9327637" lon="-3.6337286"><ele>784.0</ele><time>2026-03-07T09:53:07.079Z</time></trkpt><trkpt lat="36.9326959" lon="-3.6335652"><ele>784.0</ele><time>2026-03-07T09:53:11.006Z</time></trkpt><trkpt lat="36.932679" lon="-3.6334867"><ele>784.0</ele><time>2026-03-07T09:53:11.989Z</time></trkpt><trkpt lat="36.9326298" lon="-3.6333944"><ele>781.9999999999999</ele><time>2026-03-07T09:53:14.088Z</time></trkpt><trkpt lat="36.9325661" lon="-3.6334204"><ele>780.0</ele><time>2026-03-07T09:53:16.088Z</time></trkpt><trkpt lat="36.9325014" lon="-3.6334471"><ele>778.0</ele><time>2026-03-07T09:53:18.093Z</time></trkpt><trkpt lat="36.9324115" lon="-3.6333978"><ele>776.0</ele><time>2026-03-07T09:53:20.079Z</time></trkpt><trkpt lat="36.9323777" lon="-3.6332639"><ele>773.9999999999999</ele><time>2026-03-07T09:53:22.04Z</time></trkpt><trkpt lat="36.9323988" lon="-3.6331775"><ele>772.0</ele><time>2026-03-07T09:53:23.043Z</time></trkpt><trkpt lat="36.93244" lon="-3.6330874"><ele>772.0</ele><time>2026-03-07T09:53:24.083Z</time></trkpt><trkpt lat="36.9324943" lon="-3.6329714"><ele>772.0</ele><time>2026-03-07T09:53:25.074Z</time></trkpt><trkpt lat="36.9325542" lon="-3.6328435"><ele>772.0</ele><time>2026-03-07T09:53:26.03Z</time></trkpt><trkpt lat="36.9326029" lon="-3.6327293"><ele>772.0</ele><time>2026-03-07T09:53:27.081Z</time></trkpt><trkpt lat="36.9326323" lon="-3.6326286"><ele>772.0</ele><time>2026-03-07T09:53:28.104Z</time></trkpt><trkpt lat="36.9326739" lon="-3.6325302"><ele>773.4000000000001</ele><time>2026-03-07T09:53:29.07Z</time></trkpt><trkpt lat="36.9327214" lon="-3.6324274"><ele>774.8000000000001</ele><time>2026-03-07T09:53:30.084Z</time></trkpt><trkpt lat="36.9327622" lon="-3.6323104"><ele>776.2</ele><time>2026-03-07T09:53:31.081Z</time></trkpt><trkpt lat="36.9327999" lon="-3.6321765"><ele>777.6</ele><time>2026-03-07T09:53:32.046Z</time></trkpt><trkpt lat="36.932836" lon="-3.6320525"><ele>779.0</ele><time>2026-03-07T09:53:33.002Z</time></trkpt><trkpt lat="36.9328612" lon="-3.6319299"><ele>779.0000000000001</ele><time>2026-03-07T09:53:34.015Z</time></trkpt><trkpt lat="36.9328823" lon="-3.6318204"><ele>779.0</ele><time>2026-03-07T09:53:35.02Z</time></trkpt><trkpt lat="36.9329055" lon="-3.6317251"><ele>779.0</ele><time>2026-03-07T09:53:36.007Z</time></trkpt><trkpt lat="36.932942" lon="-3.6316403"><ele>779.0</ele><time>2026-03-07T09:53:37.013Z</time></trkpt><trkpt lat="36.9330091" lon="-3.6315698"><ele>779.0000000000001</ele><time>2026-03-07T09:53:38.011Z</time></trkpt><trkpt lat="36.9331003" lon="-3.6315086"><ele>779.0</ele><time>2026-03-07T09:53:39.007Z</time></trkpt><trkpt lat="36.9331987" lon="-3.6314557"><ele>779.0000000000001</ele><time>2026-03-07T09:53:40.012Z</time></trkpt><trkpt lat="36.9332948" lon="-3.6314169"><ele>779.0</ele><time>2026-03-07T09:53:41.032Z</time></trkpt><trkpt lat="36.9333757" lon="-3.6313851"><ele>779.0</ele><time>2026-03-07T09:53:42.04Z</time></trkpt><trkpt lat="36.9334403" lon="-3.6313485"><ele>779.0</ele><time>2026-03-07T09:53:43.025Z</time></trkpt><trkpt lat="36.9334952" lon="-3.6313063"><ele>779.0000000000001</ele><time>2026-03-07T09:53:44.017Z</time></trkpt><trkpt lat="36.9335328" lon="-3.6312415"><ele>779.0</ele><time>2026-03-07T09:53:45.028Z</time></trkpt><trkpt lat="36.9335228" lon="-3.6310843"><ele>777.1666666666667</ele><time>2026-03-07T09:53:47.018Z</time></trkpt><trkpt lat="36.9334934" lon="-3.6309989"><ele>775.3333333333334</ele><time>2026-03-07T09:53:48.011Z</time></trkpt><trkpt lat="36.9334626" lon="-3.6309178"><ele>773.5</ele><time>2026-03-07T09:53:49.017Z</time></trkpt><trkpt lat="36.9334184" lon="-3.6308403"><ele>771.6666666666667</ele><time>2026-03-07T09:53:50.031Z</time></trkpt><trkpt lat="36.9333579" lon="-3.6307502"><ele>769.8333333333334</ele><time>2026-03-07T09:53:51.019Z</time></trkpt><trkpt lat="36.9333003" lon="-3.6306407"><ele>768.0</ele><time>2026-03-07T09:53:52.009Z</time></trkpt><trkpt lat="36.9332519" lon="-3.6305268"><ele>773.6666666666666</ele><time>2026-03-07T09:53:53.018Z</time></trkpt><trkpt lat="36.9332138" lon="-3.630415"><ele>779.3333333333333</ele><time>2026-03-07T09:53:54.033Z</time></trkpt><trkpt lat="36.9331853" lon="-3.6303052"><ele>785.0</ele><time>2026-03-07T09:53:55.015Z</time></trkpt><trkpt lat="36.9331557" lon="-3.6302018"><ele>790.6666666666666</ele><time>2026-03-07T09:53:56.011Z</time></trkpt><trkpt lat="36.9331328" lon="-3.6301001"><ele>796.3333333333333</ele><time>2026-03-07T09:53:57.012Z</time></trkpt><trkpt lat="36.9331068" lon="-3.6300034"><ele>802.0</ele><time>2026-03-07T09:53:58.021Z</time></trkpt><trkpt lat="36.9330792" lon="-3.6299058"><ele>802.3333333333333</ele><time>2026-03-07T09:53:59.009Z</time></trkpt><trkpt lat="36.9330402" lon="-3.6298112"><ele>802.6666666666666</ele><time>2026-03-07T09:54:00.013Z</time></trkpt><trkpt lat="36.9329962" lon="-3.6297166"><ele>803.0</ele><time>2026-03-07T09:54:01.013Z</time></trkpt><trkpt lat="36.9329495" lon="-3.6296236"><ele>803.3333333333333</ele><time>2026-03-07T09:54:02.013Z</time></trkpt><trkpt lat="36.9329018" lon="-3.6295352"><ele>803.6666666666666</ele><time>2026-03-07T09:54:03.014Z</time></trkpt><trkpt lat="36.9328563" lon="-3.6294588"><ele>804.0</ele><time>2026-03-07T09:54:04.022Z</time></trkpt><trkpt lat="36.9328164" lon="-3.6293942"><ele>804.0</ele><time>2026-03-07T09:54:05.017Z</time></trkpt><trkpt lat="36.9327377" lon="-3.6292865"><ele>804.0</ele><time>2026-03-07T09:54:07.043Z</time></trkpt><trkpt lat="36.9326665" lon="-3.6291676"><ele>804.0</ele><time>2026-03-07T09:54:09Z</time></trkpt><trkpt lat="36.9326321" lon="-3.6290964"><ele>804.0</ele><time>2026-03-07T09:54:10.024Z</time></trkpt><trkpt lat="36.9325968" lon="-3.6290257"><ele>804.0</ele><time>2026-03-07T09:54:11.011Z</time></trkpt><trkpt lat="36.9325381" lon="-3.6289229"><ele>806.0</ele><time>2026-03-07T09:54:13.017Z</time></trkpt><trkpt lat="36.9324785" lon="-3.6288851"><ele>808.0</ele><time>2026-03-07T09:54:15.022Z</time></trkpt><trkpt lat="36.9324199" lon="-3.6289518"><ele>810.0</ele><time>2026-03-07T09:54:17.015Z</time></trkpt><trkpt lat="36.9323898" lon="-3.6290876"><ele>812.0</ele><time>2026-03-07T09:54:19.029Z</time></trkpt><trkpt lat="36.9323728" lon="-3.6291867"><ele>814.0</ele><time>2026-03-07T09:54:20.016Z</time></trkpt><trkpt lat="36.93235" lon="-3.6293216"><ele>814.0</ele><time>2026-03-07T09:54:21.016Z</time></trkpt><trkpt lat="36.9323099" lon="-3.6294753"><ele>814.0</ele><time>2026-03-07T09:54:22.035Z</time></trkpt><trkpt lat="36.9322693" lon="-3.6296296"><ele>814.0</ele><time>2026-03-07T09:54:23.02Z</time></trkpt><trkpt lat="36.932231" lon="-3.6297753"><ele>814.0</ele><time>2026-03-07T09:54:24.037Z</time></trkpt><trkpt lat="36.9321966" lon="-3.6299137"><ele>813.8000000000001</ele><time>2026-03-07T09:54:25.023Z</time></trkpt><trkpt lat="36.9321639" lon="-3.6300475"><ele>813.6</ele><time>2026-03-07T09:54:26.017Z</time></trkpt><trkpt lat="36.9321351" lon="-3.6301747"><ele>813.4</ele><time>2026-03-07T09:54:27.022Z</time></trkpt><trkpt lat="36.9321062" lon="-3.6302915"><ele>813.2</ele><time>2026-03-07T09:54:28.021Z</time></trkpt><trkpt lat="36.9320796" lon="-3.630401"><ele>813.0</ele><time>2026-03-07T09:54:29.02Z</time></trkpt><trkpt lat="36.9320552" lon="-3.6305104"><ele>813.0</ele><time>2026-03-07T09:54:30.017Z</time></trkpt><trkpt lat="36.9320476" lon="-3.6306415"><ele>813.0</ele><time>2026-03-07T09:54:31.008Z</time></trkpt><trkpt lat="36.9320077" lon="-3.6307511"><ele>813.0</ele><time>2026-03-07T09:54:32.016Z</time></trkpt><trkpt lat="36.9319394" lon="-3.6308358"><ele>813.0</ele><time>2026-03-07T09:54:33.016Z</time></trkpt><trkpt lat="36.9318589" lon="-3.6308983"><ele>813.0</ele><time>2026-03-07T09:54:34.021Z</time></trkpt><trkpt lat="36.9317803" lon="-3.6309608"><ele>812.5999999999999</ele><time>2026-03-07T09:54:35.013Z</time></trkpt><trkpt lat="36.9317063" lon="-3.6310236"><ele>812.1999999999999</ele><time>2026-03-07T09:54:36.01Z</time></trkpt><trkpt lat="36.931642" lon="-3.6310937"><ele>811.8</ele><time>2026-03-07T09:54:36.997Z</time></trkpt><trkpt lat="36.9315837" lon="-3.6311817"><ele>811.4</ele><time>2026-03-07T09:54:38.001Z</time></trkpt><trkpt lat="36.9315272" lon="-3.6312928"><ele>811.0</ele><time>2026-03-07T09:54:39.006Z</time></trkpt><trkpt lat="36.9314665" lon="-3.6314205"><ele>811.0</ele><time>2026-03-07T09:54:40.006Z</time></trkpt><trkpt lat="36.9314024" lon="-3.631548"><ele>811.0</ele><time>2026-03-07T09:54:41.021Z</time></trkpt><trkpt lat="36.9313391" lon="-3.6316652"><ele>811.0</ele><time>2026-03-07T09:54:42.016Z</time></trkpt><trkpt lat="36.9312784" lon="-3.6317727"><ele>811.0</ele><time>2026-03-07T09:54:43.017Z</time></trkpt><trkpt lat="36.9312295" lon="-3.6318856"><ele>811.0</ele><time>2026-03-07T09:54:44.024Z</time></trkpt><trkpt lat="36.9311931" lon="-3.6320109"><ele>810.5999999999999</ele><time>2026-03-07T09:54:45.022Z</time></trkpt><trkpt lat="36.9311459" lon="-3.6321319"><ele>810.2</ele><time>2026-03-07T09:54:46.026Z</time></trkpt><trkpt lat="36.9311142" lon="-3.6322586"><ele>809.8</ele><time>2026-03-07T09:54:47.005Z</time></trkpt><trkpt lat="36.9310801" lon="-3.6323837"><ele>809.4000000000001</ele><time>2026-03-07T09:54:48.013Z</time></trkpt><trkpt lat="36.9310406" lon="-3.6325025"><ele>809.0</ele><time>2026-03-07T09:54:49.017Z</time></trkpt><trkpt lat="36.9309879" lon="-3.6326077"><ele>809.0</ele><time>2026-03-07T09:54:50.018Z</time></trkpt><trkpt lat="36.9309258" lon="-3.6327128"><ele>809.0</ele><time>2026-03-07T09:54:51.015Z</time></trkpt><trkpt lat="36.9308362" lon="-3.632812"><ele>809.0</ele><time>2026-03-07T09:54:52.021Z</time></trkpt><trkpt lat="36.9307419" lon="-3.6329035"><ele>809.0</ele><time>2026-03-07T09:54:53.01Z</time></trkpt><trkpt lat="36.9306527" lon="-3.6329847"><ele>809.8000000000001</ele><time>2026-03-07T09:54:54.019Z</time></trkpt><trkpt lat="36.9305733" lon="-3.6330641"><ele>810.6</ele><time>2026-03-07T09:54:55.002Z</time></trkpt><trkpt lat="36.9305004" lon="-3.6331407"><ele>811.4</ele><time>2026-03-07T09:54:56.024Z</time></trkpt><trkpt lat="36.9304325" lon="-3.6332185"><ele>812.2</ele><time>2026-03-07T09:54:57.052Z</time></trkpt><trkpt lat="36.9303726" lon="-3.6333087"><ele>813.0</ele><time>2026-03-07T09:54:58.021Z</time></trkpt><trkpt lat="36.9303157" lon="-3.6334096"><ele>813.0</ele><time>2026-03-07T09:54:59.015Z</time></trkpt><trkpt lat="36.9302552" lon="-3.6335112"><ele>813.0</ele><time>2026-03-07T09:55:00.005Z</time></trkpt><trkpt lat="36.9301958" lon="-3.6336147"><ele>813.0</ele><time>2026-03-07T09:55:01.009Z</time></trkpt><trkpt lat="36.9301354" lon="-3.6337132"><ele>813.0</ele><time>2026-03-07T09:55:02.009Z</time></trkpt><trkpt lat="36.9300743" lon="-3.6338062"><ele>813.0</ele><time>2026-03-07T09:55:03.009Z</time></trkpt><trkpt lat="36.930006" lon="-3.6338887"><ele>812.5999999999999</ele><time>2026-03-07T09:55:04.002Z</time></trkpt><trkpt lat="36.9299316" lon="-3.6339635"><ele>812.1999999999999</ele><time>2026-03-07T09:55:05.048Z</time></trkpt><trkpt lat="36.9298497" lon="-3.6340289"><ele>811.8</ele><time>2026-03-07T09:55:06.008Z</time></trkpt><trkpt lat="36.9297693" lon="-3.6340971"><ele>811.4</ele><time>2026-03-07T09:55:07.03Z</time></trkpt><trkpt lat="36.9296802" lon="-3.6341538"><ele>811.0</ele><time>2026-03-07T09:55:08.017Z</time></trkpt><trkpt lat="36.9295841" lon="-3.6342016"><ele>811.0</ele><time>2026-03-07T09:55:09.006Z</time></trkpt><trkpt lat="36.9294837" lon="-3.6342425"><ele>811.0</ele><time>2026-03-07T09:55:10.005Z</time></trkpt><trkpt lat="36.9293837" lon="-3.6342925"><ele>811.0</ele><time>2026-03-07T09:55:11.015Z</time></trkpt><trkpt lat="36.9292848" lon="-3.6343474"><ele>811.0</ele><time>2026-03-07T09:55:11.993Z</time></trkpt><trkpt lat="36.9291887" lon="-3.6343997"><ele>811.0</ele><time>2026-03-07T09:55:13.014Z</time></trkpt><trkpt lat="36.9290984" lon="-3.6344455"><ele>811.5999999999999</ele><time>2026-03-07T09:55:14Z</time></trkpt><trkpt lat="36.929013" lon="-3.6344863"><ele>812.2</ele><time>2026-03-07T09:55:15.017Z</time></trkpt><trkpt lat="36.9289342" lon="-3.6345327"><ele>812.8</ele><time>2026-03-07T09:55:16.006Z</time></trkpt><trkpt lat="36.9288568" lon="-3.634589"><ele>813.4000000000001</ele><time>2026-03-07T09:55:17.003Z</time></trkpt><trkpt lat="36.9287769" lon="-3.6346501"><ele>814.0</ele><time>2026-03-07T09:55:18.002Z</time></trkpt><trkpt lat="36.9286993" lon="-3.6347178"><ele>814.0</ele><time>2026-03-07T09:55:19.004Z</time></trkpt><trkpt lat="36.9286246" lon="-3.6347892"><ele>814.0</ele><time>2026-03-07T09:55:20.002Z</time></trkpt><trkpt lat="36.9285483" lon="-3.634862"><ele>814.0</ele><time>2026-03-07T09:55:21.006Z</time></trkpt><trkpt lat="36.9284781" lon="-3.6349464"><ele>814.0</ele><time>2026-03-07T09:55:22.007Z</time></trkpt><trkpt lat="36.9284088" lon="-3.635031"><ele>814.0</ele><time>2026-03-07T09:55:23.005Z</time></trkpt><trkpt lat="36.9283434" lon="-3.6351053"><ele>811.4000000000001</ele><time>2026-03-07T09:55:23.999Z</time></trkpt><trkpt lat="36.928272" lon="-3.635143"><ele>808.8</ele><time>2026-03-07T09:55:25.015Z</time></trkpt><trkpt lat="36.9281812" lon="-3.6351439"><ele>806.2</ele><time>2026-03-07T09:55:26.062Z</time></trkpt><trkpt lat="36.9280807" lon="-3.6351506"><ele>803.5999999999999</ele><time>2026-03-07T09:55:27.016Z</time></trkpt><trkpt lat="36.9279728" lon="-3.6351692"><ele>801.0</ele><time>2026-03-07T09:55:28.007Z</time></trkpt><trkpt lat="36.9278641" lon="-3.6352057"><ele>801.0</ele><time>2026-03-07T09:55:28.999Z</time></trkpt><trkpt lat="36.9277578" lon="-3.6352561"><ele>801.0</ele><time>2026-03-07T09:55:29.999Z</time></trkpt><trkpt lat="36.9276603" lon="-3.6353134"><ele>801.0</ele><time>2026-03-07T09:55:31.012Z</time></trkpt><trkpt lat="36.9275681" lon="-3.6353733"><ele>801.0</ele><time>2026-03-07T09:55:32.01Z</time></trkpt><trkpt lat="36.9274724" lon="-3.6354277"><ele>801.0</ele><time>2026-03-07T09:55:33.006Z</time></trkpt><trkpt lat="36.9273761" lon="-3.6354832"><ele>801.8</ele><time>2026-03-07T09:55:34.01Z</time></trkpt><trkpt lat="36.9272772" lon="-3.6355297"><ele>802.5999999999999</ele><time>2026-03-07T09:55:35.012Z</time></trkpt><trkpt lat="36.9271885" lon="-3.6355896"><ele>803.4</ele><time>2026-03-07T09:55:35.99Z</time></trkpt><trkpt lat="36.9271057" lon="-3.6356554"><ele>804.2</ele><time>2026-03-07T09:55:37.013Z</time></trkpt><trkpt lat="36.9270272" lon="-3.6357166"><ele>805.0</ele><time>2026-03-07T09:55:38.01Z</time></trkpt><trkpt lat="36.9269511" lon="-3.6357687"><ele>805.0</ele><time>2026-03-07T09:55:39.017Z</time></trkpt><trkpt lat="36.9268683" lon="-3.6357896"><ele>805.0</ele><time>2026-03-07T09:55:40.02Z</time></trkpt><trkpt lat="36.9267768" lon="-3.6357987"><ele>805.0</ele><time>2026-03-07T09:55:41.014Z</time></trkpt><trkpt lat="36.9266769" lon="-3.635789"><ele>805.0</ele><time>2026-03-07T09:55:42.018Z</time></trkpt><trkpt lat="36.9265781" lon="-3.6357774"><ele>805.0</ele><time>2026-03-07T09:55:43.002Z</time></trkpt><trkpt lat="36.9264863" lon="-3.63577"><ele>803.8</ele><time>2026-03-07T09:55:44.017Z</time></trkpt><trkpt lat="36.9264017" lon="-3.6357803"><ele>802.6</ele><time>2026-03-07T09:55:45.005Z</time></trkpt><trkpt lat="36.9263198" lon="-3.6358067"><ele>801.4000000000001</ele><time>2026-03-07T09:55:46.005Z</time></trkpt><trkpt lat="36.9262389" lon="-3.6358659"><ele>800.2</ele><time>2026-03-07T09:55:47.008Z</time></trkpt><trkpt lat="36.9261599" lon="-3.6359406"><ele>799.0</ele><time>2026-03-07T09:55:48.003Z</time></trkpt><trkpt lat="36.9260889" lon="-3.6360157"><ele>799.0</ele><time>2026-03-07T09:55:49.008Z</time></trkpt><trkpt lat="36.9260357" lon="-3.636095"><ele>799.0</ele><time>2026-03-07T09:55:50.012Z</time></trkpt><trkpt lat="36.9260083" lon="-3.6361886"><ele>799.0</ele><time>2026-03-07T09:55:51.018Z</time></trkpt><trkpt lat="36.9259946" lon="-3.6363053"><ele>799.0</ele><time>2026-03-07T09:55:52.02Z</time></trkpt><trkpt lat="36.9259809" lon="-3.6364382"><ele>799.0</ele><time>2026-03-07T09:55:52.991Z</time></trkpt><trkpt lat="36.9259619" lon="-3.6365791"><ele>799.0</ele><time>2026-03-07T09:55:54.002Z</time></trkpt><trkpt lat="36.9259338" lon="-3.6367176"><ele>799.0</ele><time>2026-03-07T09:55:55.004Z</time></trkpt><trkpt lat="36.9258974" lon="-3.636847"><ele>799.0</ele><time>2026-03-07T09:55:56.04Z</time></trkpt><trkpt lat="36.9258476" lon="-3.6369689"><ele>799.0</ele><time>2026-03-07T09:55:57.015Z</time></trkpt><trkpt lat="36.9257942" lon="-3.6370922"><ele>799.0</ele><time>2026-03-07T09:55:58.007Z</time></trkpt><trkpt lat="36.9257294" lon="-3.6372049"><ele>803.0</ele><time>2026-03-07T09:55:59.002Z</time></trkpt><trkpt lat="36.9256475" lon="-3.637291"><ele>807.0</ele><time>2026-03-07T09:56:00.027Z</time></trkpt><trkpt lat="36.9255597" lon="-3.6373722"><ele>811.0</ele><time>2026-03-07T09:56:01.012Z</time></trkpt><trkpt lat="36.9254658" lon="-3.6374579"><ele>815.0</ele><time>2026-03-07T09:56:02.005Z</time></trkpt><trkpt lat="36.925369" lon="-3.6375458"><ele>815.0</ele><time>2026-03-07T09:56:03.003Z</time></trkpt><trkpt lat="36.9252781" lon="-3.6376407"><ele>815.0</ele><time>2026-03-07T09:56:04.007Z</time></trkpt><trkpt lat="36.9251839" lon="-3.6377347"><ele>815.0</ele><time>2026-03-07T09:56:05.01Z</time></trkpt><trkpt lat="36.9251076" lon="-3.6378531"><ele>815.0</ele><time>2026-03-07T09:56:06.019Z</time></trkpt><trkpt lat="36.9250421" lon="-3.6379883"><ele>815.75</ele><time>2026-03-07T09:56:07.008Z</time></trkpt><trkpt lat="36.9249799" lon="-3.6381335"><ele>816.5</ele><time>2026-03-07T09:56:08.021Z</time></trkpt><trkpt lat="36.9249242" lon="-3.6382842"><ele>817.25</ele><time>2026-03-07T09:56:09.013Z</time></trkpt><trkpt lat="36.9248595" lon="-3.6384284"><ele>818.0</ele><time>2026-03-07T09:56:10.016Z</time></trkpt><trkpt lat="36.9247992" lon="-3.6385686"><ele>821.25</ele><time>2026-03-07T09:56:11.011Z</time></trkpt><trkpt lat="36.9247503" lon="-3.6387096"><ele>824.5</ele><time>2026-03-07T09:56:12Z</time></trkpt><trkpt lat="36.9246954" lon="-3.6388396"><ele>827.75</ele><time>2026-03-07T09:56:13.016Z</time></trkpt><trkpt lat="36.9246414" lon="-3.6389713"><ele>831.0</ele><time>2026-03-07T09:56:14.011Z</time></trkpt><trkpt lat="36.9245856" lon="-3.6391002"><ele>831.0</ele><time>2026-03-07T09:56:15Z</time></trkpt><trkpt lat="36.9245321" lon="-3.6392296"><ele>831.0</ele><time>2026-03-07T09:56:16.012Z</time></trkpt><trkpt lat="36.9244717" lon="-3.6393587"><ele>831.0</ele><time>2026-03-07T09:56:17.006Z</time></trkpt><trkpt lat="36.9244304" lon="-3.6395077"><ele>831.0</ele><time>2026-03-07T09:56:18.019Z</time></trkpt><trkpt lat="36.9243965" lon="-3.6396697"><ele>835.75</ele><time>2026-03-07T09:56:19.01Z</time></trkpt><trkpt lat="36.9243663" lon="-3.6398366"><ele>840.5</ele><time>2026-03-07T09:56:20.009Z</time></trkpt><trkpt lat="36.924334" lon="-3.6400002"><ele>845.25</ele><time>2026-03-07T09:56:21.003Z</time></trkpt><trkpt lat="36.9242971" lon="-3.6401594"><ele>850.0</ele><time>2026-03-07T09:56:22.007Z</time></trkpt><trkpt lat="36.9242475" lon="-3.640314"><ele>844.75</ele><time>2026-03-07T09:56:23.006Z</time></trkpt><trkpt lat="36.9241976" lon="-3.6404738"><ele>839.5</ele><time>2026-03-07T09:56:24.009Z</time></trkpt><trkpt lat="36.9241355" lon="-3.6406306"><ele>834.25</ele><time>2026-03-07T09:56:25.021Z</time></trkpt><trkpt lat="36.9240693" lon="-3.6407904"><ele>829.0</ele><time>2026-03-07T09:56:26.005Z</time></trkpt><trkpt lat="36.9240033" lon="-3.6409551"><ele>829.0</ele><time>2026-03-07T09:56:27.025Z</time></trkpt><trkpt lat="36.9239348" lon="-3.6411227"><ele>829.0</ele><time>2026-03-07T09:56:28.042Z</time></trkpt><trkpt lat="36.9238668" lon="-3.6412924"><ele>829.0</ele><time>2026-03-07T09:56:29.025Z</time></trkpt><trkpt lat="36.9238025" lon="-3.6414647"><ele>833.0</ele><time>2026-03-07T09:56:30.017Z</time></trkpt><trkpt lat="36.9237395" lon="-3.6416308"><ele>837.0</ele><time>2026-03-07T09:56:31.01Z</time></trkpt><trkpt lat="36.9236773" lon="-3.6417958"><ele>841.0</ele><time>2026-03-07T09:56:32.015Z</time></trkpt><trkpt lat="36.9236232" lon="-3.6419777"><ele>845.0</ele><time>2026-03-07T09:56:32.999Z</time></trkpt><trkpt lat="36.9235687" lon="-3.6421522"><ele>850.25</ele><time>2026-03-07T09:56:34.004Z</time></trkpt><trkpt lat="36.9235326" lon="-3.6423164"><ele>855.5</ele><time>2026-03-07T09:56:35.002Z</time></trkpt><trkpt lat="36.9235038" lon="-3.6424673"><ele>860.75</ele><time>2026-03-07T09:56:35.999Z</time></trkpt><trkpt lat="36.9234757" lon="-3.6426101"><ele>866.0</ele><time>2026-03-07T09:56:37.015Z</time></trkpt><trkpt lat="36.923447" lon="-3.6427454"><ele>869.4</ele><time>2026-03-07T09:56:38.014Z</time></trkpt><trkpt lat="36.92342" lon="-3.6428828"><ele>872.8</ele><time>2026-03-07T09:56:39.023Z</time></trkpt><trkpt lat="36.9233946" lon="-3.6430119"><ele>876.1999999999999</ele><time>2026-03-07T09:56:40.004Z</time></trkpt><trkpt lat="36.923375" lon="-3.6431366"><ele>879.5999999999999</ele><time>2026-03-07T09:56:40.999Z</time></trkpt><trkpt lat="36.9233511" lon="-3.6432582"><ele>883.0</ele><time>2026-03-07T09:56:42.012Z</time></trkpt><trkpt lat="36.9233247" lon="-3.6433747"><ele>881.2</ele><time>2026-03-07T09:56:43.009Z</time></trkpt><trkpt lat="36.9232931" lon="-3.6434964"><ele>879.4</ele><time>2026-03-07T09:56:44.013Z</time></trkpt><trkpt lat="36.9232381" lon="-3.6436117"><ele>877.6000000000001</ele><time>2026-03-07T09:56:45.004Z</time></trkpt><trkpt lat="36.9231492" lon="-3.6437098"><ele>875.8000000000001</ele><time>2026-03-07T09:56:46.005Z</time></trkpt><trkpt lat="36.9230669" lon="-3.6438119"><ele>874.0</ele><time>2026-03-07T09:56:47.005Z</time></trkpt><trkpt lat="36.9229923" lon="-3.6439145"><ele>874.0</ele><time>2026-03-07T09:56:48Z</time></trkpt><trkpt lat="36.9229187" lon="-3.6440162"><ele>874.0000000000001</ele><time>2026-03-07T09:56:49.014Z</time></trkpt><trkpt lat="36.922847" lon="-3.6441182"><ele>874.0000000000001</ele><time>2026-03-07T09:56:50.02Z</time></trkpt><trkpt lat="36.9227752" lon="-3.6442298"><ele>874.0</ele><time>2026-03-07T09:56:50.999Z</time></trkpt><trkpt lat="36.922701" lon="-3.6443411"><ele>874.0</ele><time>2026-03-07T09:56:52.014Z</time></trkpt><trkpt lat="36.9226232" lon="-3.6444371"><ele>864.25</ele><time>2026-03-07T09:56:53.023Z</time></trkpt><trkpt lat="36.9225553" lon="-3.6445364"><ele>854.5</ele><time>2026-03-07T09:56:54.01Z</time></trkpt><trkpt lat="36.9225128" lon="-3.6446641"><ele>844.75</ele><time>2026-03-07T09:56:55.014Z</time></trkpt><trkpt lat="36.9224717" lon="-3.6448073"><ele>835.0</ele><time>2026-03-07T09:56:56Z</time></trkpt><trkpt lat="36.9224359" lon="-3.6449649"><ele>835.0</ele><time>2026-03-07T09:56:57.008Z</time></trkpt><trkpt lat="36.9223997" lon="-3.6451365"><ele>835.0</ele><time>2026-03-07T09:56:58.018Z</time></trkpt><trkpt lat="36.9223612" lon="-3.6453025"><ele>835.0</ele><time>2026-03-07T09:56:59.011Z</time></trkpt><trkpt lat="36.9223233" lon="-3.6454591"><ele>835.0</ele><time>2026-03-07T09:56:59.998Z</time></trkpt><trkpt lat="36.9222842" lon="-3.6456177"><ele>837.5</ele><time>2026-03-07T09:57:01.025Z</time></trkpt><trkpt lat="36.9222442" lon="-3.6457774"><ele>840.0</ele><time>2026-03-07T09:57:01.997Z</time></trkpt><trkpt lat="36.9221943" lon="-3.6459243"><ele>842.5</ele><time>2026-03-07T09:57:02.999Z</time></trkpt><trkpt lat="36.9221493" lon="-3.6460626"><ele>845.0</ele><time>2026-03-07T09:57:04.01Z</time></trkpt><trkpt lat="36.9221022" lon="-3.6461957"><ele>847.75</ele><time>2026-03-07T09:57:05.008Z</time></trkpt><trkpt lat="36.9220444" lon="-3.6463317"><ele>850.5</ele><time>2026-03-07T09:57:06.001Z</time></trkpt><trkpt lat="36.921971" lon="-3.6464736"><ele>853.25</ele><time>2026-03-07T09:57:07.006Z</time></trkpt><trkpt lat="36.9218889" lon="-3.6466141"><ele>856.0</ele><time>2026-03-07T09:57:08.002Z</time></trkpt><trkpt lat="36.9218029" lon="-3.6467594"><ele>848.25</ele><time>2026-03-07T09:57:09.012Z</time></trkpt><trkpt lat="36.9217226" lon="-3.6469104"><ele>840.5</ele><time>2026-03-07T09:57:10.01Z</time></trkpt><trkpt lat="36.921657" lon="-3.6470697"><ele>832.75</ele><time>2026-03-07T09:57:11.015Z</time></trkpt><trkpt lat="36.9215807" lon="-3.6472304"><ele>825.0</ele><time>2026-03-07T09:57:12.001Z</time></trkpt><trkpt lat="36.9215009" lon="-3.6473929"><ele>825.0</ele><time>2026-03-07T09:57:13.018Z</time></trkpt><trkpt lat="36.921426" lon="-3.647556"><ele>825.0</ele><time>2026-03-07T09:57:14.019Z</time></trkpt><trkpt lat="36.921354" lon="-3.6477164"><ele>825.0</ele><time>2026-03-07T09:57:15.009Z</time></trkpt><trkpt lat="36.9212868" lon="-3.6478709"><ele>825.0</ele><time>2026-03-07T09:57:16.005Z</time></trkpt><trkpt lat="36.9212259" lon="-3.6480153"><ele>829.2</ele><time>2026-03-07T09:57:16.996Z</time></trkpt><trkpt lat="36.9211646" lon="-3.6481512"><ele>833.4</ele><time>2026-03-07T09:57:18.007Z</time></trkpt><trkpt lat="36.9211027" lon="-3.64827"><ele>837.5999999999999</ele><time>2026-03-07T09:57:19.004Z</time></trkpt><trkpt lat="36.9210441" lon="-3.6483813"><ele>841.8</ele><time>2026-03-07T09:57:20.006Z</time></trkpt><trkpt lat="36.9209968" lon="-3.6484947"><ele>846.0</ele><time>2026-03-07T09:57:21.038Z</time></trkpt><trkpt lat="36.9209697" lon="-3.6486101"><ele>841.0</ele><time>2026-03-07T09:57:22.012Z</time></trkpt><trkpt lat="36.9209484" lon="-3.6487373"><ele>836.0</ele><time>2026-03-07T09:57:23.082Z</time></trkpt><trkpt lat="36.9209357" lon="-3.6488674"><ele>831.0</ele><time>2026-03-07T09:57:24.028Z</time></trkpt><trkpt lat="36.9209" lon="-3.6489855"><ele>826.0</ele><time>2026-03-07T09:57:25.015Z</time></trkpt><trkpt lat="36.9208439" lon="-3.6490945"><ele>821.0</ele><time>2026-03-07T09:57:26.003Z</time></trkpt><trkpt lat="36.9207662" lon="-3.6491845"><ele>821.0</ele><time>2026-03-07T09:57:27Z</time></trkpt><trkpt lat="36.9206784" lon="-3.6492665"><ele>821.0</ele><time>2026-03-07T09:57:28.02Z</time></trkpt><trkpt lat="36.9205958" lon="-3.6493518"><ele>821.0</ele><time>2026-03-07T09:57:29.018Z</time></trkpt><trkpt lat="36.920514" lon="-3.6494473"><ele>821.0</ele><time>2026-03-07T09:57:30.015Z</time></trkpt><trkpt lat="36.9204253" lon="-3.649538"><ele>821.0</ele><time>2026-03-07T09:57:30.999Z</time></trkpt><trkpt lat="36.9203212" lon="-3.649605"><ele>821.5999999999999</ele><time>2026-03-07T09:57:32.007Z</time></trkpt><trkpt lat="36.9202214" lon="-3.6496664"><ele>822.2</ele><time>2026-03-07T09:57:33.008Z</time></trkpt><trkpt lat="36.9201304" lon="-3.6497244"><ele>822.8</ele><time>2026-03-07T09:57:34.005Z</time></trkpt><trkpt lat="36.9200474" lon="-3.6497887"><ele>823.4000000000001</ele><time>2026-03-07T09:57:35.003Z</time></trkpt><trkpt lat="36.9199508" lon="-3.6498677"><ele>824.0</ele><time>2026-03-07T09:57:36.004Z</time></trkpt><trkpt lat="36.9198572" lon="-3.6499536"><ele>824.0</ele><time>2026-03-07T09:57:37.002Z</time></trkpt><trkpt lat="36.9197643" lon="-3.6500431"><ele>824.0</ele><time>2026-03-07T09:57:38.007Z</time></trkpt><trkpt lat="36.9196633" lon="-3.6501135"><ele>824.0</ele><time>2026-03-07T09:57:39.017Z</time></trkpt><trkpt lat="36.9195615" lon="-3.6501806"><ele>824.0</ele><time>2026-03-07T09:57:40.006Z</time></trkpt><trkpt lat="36.9194713" lon="-3.6502558"><ele>824.2</ele><time>2026-03-07T09:57:41.019Z</time></trkpt><trkpt lat="36.9193848" lon="-3.6503376"><ele>824.4000000000001</ele><time>2026-03-07T09:57:42.001Z</time></trkpt><trkpt lat="36.919301" lon="-3.6504236"><ele>824.6</ele><time>2026-03-07T09:57:43.047Z</time></trkpt><trkpt lat="36.9192179" lon="-3.6505191"><ele>824.8</ele><time>2026-03-07T09:57:44.036Z</time></trkpt><trkpt lat="36.9191311" lon="-3.6506143"><ele>825.0</ele><time>2026-03-07T09:57:44.987Z</time></trkpt><trkpt lat="36.9190545" lon="-3.6507251"><ele>825.0</ele><time>2026-03-07T09:57:45.982Z</time></trkpt><trkpt lat="36.918976" lon="-3.6508356"><ele>825.0</ele><time>2026-03-07T09:57:46.982Z</time></trkpt><trkpt lat="36.9189129" lon="-3.6509616"><ele>825.0</ele><time>2026-03-07T09:57:47.976Z</time></trkpt><trkpt lat="36.9188671" lon="-3.6511001"><ele>825.0</ele><time>2026-03-07T09:57:49.067Z</time></trkpt><trkpt lat="36.9188173" lon="-3.6512395"><ele>829.75</ele><time>2026-03-07T09:57:50.04Z</time></trkpt><trkpt lat="36.918764" lon="-3.6513808"><ele>834.5</ele><time>2026-03-07T09:57:51.09Z</time></trkpt><trkpt lat="36.9187111" lon="-3.6515295"><ele>839.25</ele><time>2026-03-07T09:57:52.099Z</time></trkpt><trkpt lat="36.9186511" lon="-3.6516811"><ele>844.0</ele><time>2026-03-07T09:57:53.04Z</time></trkpt><trkpt lat="36.9186105" lon="-3.651846"><ele>847.5</ele><time>2026-03-07T09:57:54.102Z</time></trkpt><trkpt lat="36.9185569" lon="-3.6519974"><ele>851.0</ele><time>2026-03-07T09:57:55.072Z</time></trkpt><trkpt lat="36.918521" lon="-3.6521433"><ele>854.5</ele><time>2026-03-07T09:57:56.084Z</time></trkpt><trkpt lat="36.9184995" lon="-3.6522802"><ele>858.0</ele><time>2026-03-07T09:57:57.086Z</time></trkpt><trkpt lat="36.9184925" lon="-3.652421"><ele>858.0</ele><time>2026-03-07T09:57:58.046Z</time></trkpt><trkpt lat="36.9184943" lon="-3.6525709"><ele>858.0</ele><time>2026-03-07T09:57:59.08Z</time></trkpt><trkpt lat="36.9185101" lon="-3.6527322"><ele>858.0</ele><time>2026-03-07T09:58:00.087Z</time></trkpt><trkpt lat="36.9185295" lon="-3.6528921"><ele>858.0</ele><time>2026-03-07T09:58:01.081Z</time></trkpt><trkpt lat="36.918553" lon="-3.6530464"><ele>858.0</ele><time>2026-03-07T09:58:02.1Z</time></trkpt><trkpt lat="36.9185855" lon="-3.6532011"><ele>858.0</ele><time>2026-03-07T09:58:03.07Z</time></trkpt><trkpt lat="36.9186238" lon="-3.6533634"><ele>858.0</ele><time>2026-03-07T09:58:04.016Z</time></trkpt><trkpt lat="36.9186635" lon="-3.6535105"><ele>858.0</ele><time>2026-03-07T09:58:05.008Z</time></trkpt><trkpt lat="36.9186995" lon="-3.6536414"><ele>857.0</ele><time>2026-03-07T09:58:06.039Z</time></trkpt><trkpt lat="36.9187359" lon="-3.6537479"><ele>856.0</ele><time>2026-03-07T09:58:07.025Z</time></trkpt><trkpt lat="36.918772" lon="-3.6538329"><ele>855.0</ele><time>2026-03-07T09:58:08.034Z</time></trkpt><trkpt lat="36.9188067" lon="-3.6539072"><ele>854.0</ele><time>2026-03-07T09:58:09.031Z</time></trkpt><trkpt lat="36.9188379" lon="-3.6539764"><ele>853.0</ele><time>2026-03-07T09:58:10.022Z</time></trkpt><trkpt lat="36.9188926" lon="-3.6540956"><ele>852.0</ele><time>2026-03-07T09:58:12.04Z</time></trkpt><trkpt lat="36.918892" lon="-3.6542276"><ele>852.0</ele><time>2026-03-07T09:58:14.012Z</time></trkpt><trkpt lat="36.9188862" lon="-3.6543641"><ele>852.0</ele><time>2026-03-07T09:58:16.013Z</time></trkpt><trkpt lat="36.9189087" lon="-3.6545088"><ele>852.0</ele><time>2026-03-07T09:58:18.06Z</time></trkpt><trkpt lat="36.9189238" lon="-3.6545917"><ele>852.0</ele><time>2026-03-07T09:58:19.054Z</time></trkpt><trkpt lat="36.9189416" lon="-3.6546709"><ele>852.0</ele><time>2026-03-07T09:58:20.042Z</time></trkpt><trkpt lat="36.9189677" lon="-3.6547472"><ele>852.0</ele><time>2026-03-07T09:58:21.032Z</time></trkpt><trkpt lat="36.9190297" lon="-3.6548836"><ele>852.0</ele><time>2026-03-07T09:58:23.017Z</time></trkpt><trkpt lat="36.9190565" lon="-3.6549625"><ele>852.0</ele><time>2026-03-07T09:58:24.032Z</time></trkpt><trkpt lat="36.9190857" lon="-3.6550496"><ele>852.0</ele><time>2026-03-07T09:58:25.012Z</time></trkpt><trkpt lat="36.9191117" lon="-3.6551365"><ele>852.0</ele><time>2026-03-07T09:58:26.026Z</time></trkpt><trkpt lat="36.9191331" lon="-3.655222"><ele>852.0</ele><time>2026-03-07T09:58:27.028Z</time></trkpt><trkpt lat="36.9191434" lon="-3.6553049"><ele>852.0</ele><time>2026-03-07T09:58:28.012Z</time></trkpt><trkpt lat="36.9191591" lon="-3.6554505"><ele>852.0</ele><time>2026-03-07T09:58:30.032Z</time></trkpt><trkpt lat="36.9191899" lon="-3.6555864"><ele>852.0</ele><time>2026-03-07T09:58:32.036Z</time></trkpt><trkpt lat="36.9192054" lon="-3.6556852"><ele>852.0</ele><time>2026-03-07T09:58:34.082Z</time></trkpt><trkpt lat="36.9192177" lon="-3.655806"><ele>852.0</ele><time>2026-03-07T09:58:50.033Z</time></trkpt><trkpt lat="36.9192208" lon="-3.6559004"><ele>852.0</ele><time>2026-03-07T09:58:52.028Z</time></trkpt><trkpt lat="36.9192414" lon="-3.6557965"><ele>852.0</ele><time>2026-03-07T09:59:04.031Z</time></trkpt><trkpt lat="36.9192308" lon="-3.6556876"><ele>852.0</ele><time>2026-03-07T09:59:05.018Z</time></trkpt><trkpt lat="36.9192209" lon="-3.6555874"><ele>852.0</ele><time>2026-03-07T09:59:06.016Z</time></trkpt><trkpt lat="36.9192076" lon="-3.6554741"><ele>852.0</ele><time>2026-03-07T09:59:07.029Z</time></trkpt><trkpt lat="36.9191941" lon="-3.6553637"><ele>852.0</ele><time>2026-03-07T09:59:08.01Z</time></trkpt><trkpt lat="36.9191807" lon="-3.6552616"><ele>852.0</ele><time>2026-03-07T09:59:09.01Z</time></trkpt><trkpt lat="36.9191635" lon="-3.6551559"><ele>851.4000000000001</ele><time>2026-03-07T09:59:10.007Z</time></trkpt><trkpt lat="36.9191414" lon="-3.6550408"><ele>850.8000000000001</ele><time>2026-03-07T09:59:11.014Z</time></trkpt><trkpt lat="36.9191063" lon="-3.6549177"><ele>850.2</ele><time>2026-03-07T09:59:12.041Z</time></trkpt><trkpt lat="36.9190701" lon="-3.6548092"><ele>849.6</ele><time>2026-03-07T09:59:13.029Z</time></trkpt><trkpt lat="36.9190416" lon="-3.6547097"><ele>849.0</ele><time>2026-03-07T09:59:14.041Z</time></trkpt><trkpt lat="36.9190239" lon="-3.6546202"><ele>849.0</ele><time>2026-03-07T09:59:15.015Z</time></trkpt><trkpt lat="36.9190055" lon="-3.6545378"><ele>849.0</ele><time>2026-03-07T09:59:16.016Z</time></trkpt><trkpt lat="36.9189966" lon="-3.6544536"><ele>849.0</ele><time>2026-03-07T09:59:17.065Z</time></trkpt><trkpt lat="36.9190083" lon="-3.6543042"><ele>849.0</ele><time>2026-03-07T09:59:18.988Z</time></trkpt><trkpt lat="36.9190132" lon="-3.6542211"><ele>849.0</ele><time>2026-03-07T09:59:20.998Z</time></trkpt><trkpt lat="36.9189689" lon="-3.6541562"><ele>849.0</ele><time>2026-03-07T09:59:25.007Z</time></trkpt><trkpt lat="36.9188513" lon="-3.6542128"><ele>849.0</ele><time>2026-03-07T09:59:27.022Z</time></trkpt><trkpt lat="36.9187807" lon="-3.6542497"><ele>849.0</ele><time>2026-03-07T09:59:28.01Z</time></trkpt><trkpt lat="36.9186798" lon="-3.6543186"><ele>849.0</ele><time>2026-03-07T09:59:30.005Z</time></trkpt><trkpt lat="36.9186193" lon="-3.6544251"><ele>849.0</ele><time>2026-03-07T09:59:32.025Z</time></trkpt><trkpt lat="36.918583" lon="-3.6545281"><ele>849.0</ele><time>2026-03-07T09:59:34.014Z</time></trkpt><trkpt lat="36.9185103" lon="-3.6545963"><ele>849.0</ele><time>2026-03-07T09:59:36.009Z</time></trkpt><trkpt lat="36.918441" lon="-3.6546343"><ele>849.0</ele><time>2026-03-07T09:59:37.009Z</time></trkpt><trkpt lat="36.9183743" lon="-3.6546795"><ele>849.0</ele><time>2026-03-07T09:59:38.026Z</time></trkpt><trkpt lat="36.9183165" lon="-3.6547351"><ele>849.0</ele><time>2026-03-07T09:59:39.007Z</time></trkpt><trkpt lat="36.9182472" lon="-3.6549037"><ele>849.0</ele><time>2026-03-07T09:59:39.996Z</time></trkpt><trkpt lat="36.918177" lon="-3.6551565"><ele>843.75</ele><time>2026-03-07T09:59:41.02Z</time></trkpt><trkpt lat="36.9181149" lon="-3.6553675"><ele>838.5</ele><time>2026-03-07T09:59:42.002Z</time></trkpt><trkpt lat="36.9180762" lon="-3.6554797"><ele>833.25</ele><time>2026-03-07T09:59:43.033Z</time></trkpt><trkpt lat="36.9180471" lon="-3.6555505"><ele>828.0</ele><time>2026-03-07T09:59:44.028Z</time></trkpt><trkpt lat="36.9180233" lon="-3.6554048"><ele>828.0000000000001</ele><time>2026-03-07T09:59:47.006Z</time></trkpt><trkpt lat="36.9180418" lon="-3.6553272"><ele>828.0</ele><time>2026-03-07T09:59:48.001Z</time></trkpt><trkpt lat="36.9180629" lon="-3.6552399"><ele>828.0</ele><time>2026-03-07T09:59:49.011Z</time></trkpt><trkpt lat="36.9180812" lon="-3.6551528"><ele>828.0</ele><time>2026-03-07T09:59:50.01Z</time></trkpt><trkpt lat="36.9180905" lon="-3.6550645"><ele>828.0</ele><time>2026-03-07T09:59:51.004Z</time></trkpt><trkpt lat="36.9180982" lon="-3.6549657"><ele>828.0000000000001</ele><time>2026-03-07T09:59:52.008Z</time></trkpt><trkpt lat="36.9181071" lon="-3.6548637"><ele>828.0</ele><time>2026-03-07T09:59:53.034Z</time></trkpt><trkpt lat="36.9181135" lon="-3.6547518"><ele>826.75</ele><time>2026-03-07T09:59:54.013Z</time></trkpt><trkpt lat="36.9181084" lon="-3.6546249"><ele>825.5</ele><time>2026-03-07T09:59:55.011Z</time></trkpt><trkpt lat="36.9180762" lon="-3.6544903"><ele>824.25</ele><time>2026-03-07T09:59:56.01Z</time></trkpt><trkpt lat="36.9180391" lon="-3.6543451"><ele>823.0</ele><time>2026-03-07T09:59:57.008Z</time></trkpt><trkpt lat="36.9180188" lon="-3.654192"><ele>821.75</ele><time>2026-03-07T09:59:58Z</time></trkpt><trkpt lat="36.9180134" lon="-3.6540416"><ele>820.5</ele><time>2026-03-07T09:59:59.019Z</time></trkpt><trkpt lat="36.9180182" lon="-3.6538948"><ele>819.25</ele><time>2026-03-07T10:00:00.018Z</time></trkpt><trkpt lat="36.9180184" lon="-3.6537539"><ele>818.0</ele><time>2026-03-07T10:00:01.007Z</time></trkpt><trkpt lat="36.9180185" lon="-3.6536248"><ele>817.25</ele><time>2026-03-07T10:00:02.004Z</time></trkpt><trkpt lat="36.9179977" lon="-3.6535078"><ele>816.5</ele><time>2026-03-07T10:00:03.007Z</time></trkpt><trkpt lat="36.9179609" lon="-3.6533806"><ele>815.75</ele><time>2026-03-07T10:00:03.994Z</time></trkpt><trkpt lat="36.9179106" lon="-3.6532309"><ele>815.0</ele><time>2026-03-07T10:00:04.996Z</time></trkpt><trkpt lat="36.9178528" lon="-3.6530836"><ele>815.0</ele><time>2026-03-07T10:00:06.005Z</time></trkpt><trkpt lat="36.9178129" lon="-3.652932"><ele>815.0</ele><time>2026-03-07T10:00:07.006Z</time></trkpt><trkpt lat="36.917779" lon="-3.652787"><ele>815.0</ele><time>2026-03-07T10:00:07.998Z</time></trkpt><trkpt lat="36.9177548" lon="-3.6526383"><ele>815.0</ele><time>2026-03-07T10:00:09.007Z</time></trkpt><trkpt lat="36.9177409" lon="-3.6524853"><ele>815.0</ele><time>2026-03-07T10:00:10.003Z</time></trkpt><trkpt lat="36.9177442" lon="-3.6523297"><ele>815.0</ele><time>2026-03-07T10:00:11.003Z</time></trkpt><trkpt lat="36.9177561" lon="-3.6521702"><ele>815.0</ele><time>2026-03-07T10:00:12.005Z</time></trkpt><trkpt lat="36.917768" lon="-3.652012"><ele>815.0</ele><time>2026-03-07T10:00:13.02Z</time></trkpt><trkpt lat="36.9177974" lon="-3.651859"><ele>813.25</ele><time>2026-03-07T10:00:14.003Z</time></trkpt><trkpt lat="36.9178258" lon="-3.651711"><ele>811.5</ele><time>2026-03-07T10:00:15.005Z</time></trkpt><trkpt lat="36.9178362" lon="-3.6515605"><ele>809.75</ele><time>2026-03-07T10:00:16.007Z</time></trkpt><trkpt lat="36.9178254" lon="-3.6514155"><ele>808.0</ele><time>2026-03-07T10:00:17.01Z</time></trkpt><trkpt lat="36.91782" lon="-3.651265"><ele>807.25</ele><time>2026-03-07T10:00:18.006Z</time></trkpt><trkpt lat="36.9178194" lon="-3.6511161"><ele>806.5</ele><time>2026-03-07T10:00:19.006Z</time></trkpt><trkpt lat="36.9178466" lon="-3.6509699"><ele>805.75</ele><time>2026-03-07T10:00:20.009Z</time></trkpt><trkpt lat="36.9178763" lon="-3.6508334"><ele>805.0</ele><time>2026-03-07T10:00:21.014Z</time></trkpt><trkpt lat="36.917907" lon="-3.6507133"><ele>805.0</ele><time>2026-03-07T10:00:22.007Z</time></trkpt><trkpt lat="36.9179598" lon="-3.6505998"><ele>805.0</ele><time>2026-03-07T10:00:23.006Z</time></trkpt><trkpt lat="36.9180128" lon="-3.6504656"><ele>805.0</ele><time>2026-03-07T10:00:24.009Z</time></trkpt><trkpt lat="36.9180611" lon="-3.6503184"><ele>805.0</ele><time>2026-03-07T10:00:25.017Z</time></trkpt><trkpt lat="36.9181081" lon="-3.6501952"><ele>804.25</ele><time>2026-03-07T10:00:26.009Z</time></trkpt><trkpt lat="36.9181878" lon="-3.6500839"><ele>803.5</ele><time>2026-03-07T10:00:26.994Z</time></trkpt><trkpt lat="36.918264" lon="-3.6499735"><ele>802.75</ele><time>2026-03-07T10:00:28.021Z</time></trkpt><trkpt lat="36.9183522" lon="-3.6498711"><ele>802.0</ele><time>2026-03-07T10:00:29.005Z</time></trkpt><trkpt lat="36.9184427" lon="-3.6497711"><ele>802.0</ele><time>2026-03-07T10:00:30.015Z</time></trkpt><trkpt lat="36.9185221" lon="-3.64966"><ele>802.0</ele><time>2026-03-07T10:00:31.004Z</time></trkpt><trkpt lat="36.9185958" lon="-3.6495589"><ele>802.0</ele><time>2026-03-07T10:00:32.02Z</time></trkpt><trkpt lat="36.9186751" lon="-3.6494704"><ele>802.0</ele><time>2026-03-07T10:00:33.008Z</time></trkpt><trkpt lat="36.9187605" lon="-3.6493969"><ele>802.0</ele><time>2026-03-07T10:00:34.001Z</time></trkpt><trkpt lat="36.9188358" lon="-3.6493106"><ele>804.2</ele><time>2026-03-07T10:00:35.006Z</time></trkpt><trkpt lat="36.918897" lon="-3.6492189"><ele>806.4000000000001</ele><time>2026-03-07T10:00:36.011Z</time></trkpt><trkpt lat="36.9189509" lon="-3.6491148"><ele>808.5999999999999</ele><time>2026-03-07T10:00:37.004Z</time></trkpt><trkpt lat="36.9190077" lon="-3.6490195"><ele>810.8</ele><time>2026-03-07T10:00:38.013Z</time></trkpt><trkpt lat="36.9190723" lon="-3.6489414"><ele>813.0</ele><time>2026-03-07T10:00:39.003Z</time></trkpt><trkpt lat="36.91914" lon="-3.6488538"><ele>813.0</ele><time>2026-03-07T10:00:40.015Z</time></trkpt><trkpt lat="36.9192082" lon="-3.6487537"><ele>813.0</ele><time>2026-03-07T10:00:41.012Z</time></trkpt><trkpt lat="36.9192696" lon="-3.648653"><ele>813.0</ele><time>2026-03-07T10:00:42.024Z</time></trkpt><trkpt lat="36.9193314" lon="-3.6485618"><ele>813.0</ele><time>2026-03-07T10:00:43.013Z</time></trkpt><trkpt lat="36.9193968" lon="-3.6484815"><ele>813.0</ele><time>2026-03-07T10:00:44.006Z</time></trkpt><trkpt lat="36.9194517" lon="-3.6484065"><ele>810.0</ele><time>2026-03-07T10:00:45.012Z</time></trkpt><trkpt lat="36.9194936" lon="-3.6483114"><ele>807.0</ele><time>2026-03-07T10:00:45.998Z</time></trkpt><trkpt lat="36.9195147" lon="-3.6481999"><ele>804.0</ele><time>2026-03-07T10:00:47.031Z</time></trkpt><trkpt lat="36.9195277" lon="-3.6480786"><ele>801.0</ele><time>2026-03-07T10:00:48.001Z</time></trkpt><trkpt lat="36.9195441" lon="-3.6479527"><ele>798.0</ele><time>2026-03-07T10:00:49.007Z</time></trkpt><trkpt lat="36.9195638" lon="-3.6478257"><ele>799.2</ele><time>2026-03-07T10:00:50.004Z</time></trkpt><trkpt lat="36.9195675" lon="-3.6477016"><ele>800.4</ele><time>2026-03-07T10:00:51.016Z</time></trkpt><trkpt lat="36.9195603" lon="-3.6475862"><ele>801.6</ele><time>2026-03-07T10:00:51.998Z</time></trkpt><trkpt lat="36.9195457" lon="-3.6474763"><ele>802.8000000000001</ele><time>2026-03-07T10:00:53Z</time></trkpt><trkpt lat="36.9195479" lon="-3.647366"><ele>804.0</ele><time>2026-03-07T10:00:54Z</time></trkpt><trkpt lat="36.9195773" lon="-3.6472524"><ele>804.0</ele><time>2026-03-07T10:00:55.012Z</time></trkpt><trkpt lat="36.9195983" lon="-3.6471355"><ele>804.0</ele><time>2026-03-07T10:00:56.012Z</time></trkpt><trkpt lat="36.9195965" lon="-3.6470057"><ele>804.0</ele><time>2026-03-07T10:00:56.999Z</time></trkpt><trkpt lat="36.9196034" lon="-3.6468646"><ele>804.0</ele><time>2026-03-07T10:00:58.004Z</time></trkpt><trkpt lat="36.9196097" lon="-3.6467175"><ele>804.0</ele><time>2026-03-07T10:00:59.01Z</time></trkpt><trkpt lat="36.9196055" lon="-3.6465727"><ele>805.6666666666666</ele><time>2026-03-07T10:01:00.002Z</time></trkpt><trkpt lat="36.9195965" lon="-3.6464416"><ele>807.3333333333333</ele><time>2026-03-07T10:01:01.006Z</time></trkpt><trkpt lat="36.9195906" lon="-3.6463312"><ele>809.0</ele><time>2026-03-07T10:01:02.011Z</time></trkpt><trkpt lat="36.9195846" lon="-3.6462361"><ele>810.6666666666666</ele><time>2026-03-07T10:01:03Z</time></trkpt><trkpt lat="36.9195774" lon="-3.6461407"><ele>812.3333333333333</ele><time>2026-03-07T10:01:04.001Z</time></trkpt><trkpt lat="36.9195674" lon="-3.6460518"><ele>814.0</ele><time>2026-03-07T10:01:05.006Z</time></trkpt><trkpt lat="36.9195103" lon="-3.6459397"><ele>814.0</ele><time>2026-03-07T10:01:07.006Z</time></trkpt><trkpt lat="36.9193891" lon="-3.6459719"><ele>814.0</ele><time>2026-03-07T10:01:09.015Z</time></trkpt><trkpt lat="36.9193109" lon="-3.6459999"><ele>814.0</ele><time>2026-03-07T10:01:10.009Z</time></trkpt><trkpt lat="36.9192399" lon="-3.6460456"><ele>814.0</ele><time>2026-03-07T10:01:10.998Z</time></trkpt><trkpt lat="36.9191763" lon="-3.6460796"><ele>814.0</ele><time>2026-03-07T10:01:12.007Z</time></trkpt><trkpt lat="36.9190692" lon="-3.6460838"><ele>821.6</ele><time>2026-03-07T10:01:14Z</time></trkpt><trkpt lat="36.9190062" lon="-3.6460207"><ele>829.2</ele><time>2026-03-07T10:01:15.007Z</time></trkpt><trkpt lat="36.9189844" lon="-3.645942"><ele>836.8000000000001</ele><time>2026-03-07T10:01:16Z</time></trkpt><trkpt lat="36.9190144" lon="-3.6457967"><ele>844.4000000000001</ele><time>2026-03-07T10:01:18.022Z</time></trkpt><trkpt lat="36.9190217" lon="-3.6456534"><ele>852.0</ele><time>2026-03-07T10:01:20.041Z</time></trkpt><trkpt lat="36.9189994" lon="-3.6455133"><ele>851.9999999999999</ele><time>2026-03-07T10:01:22.012Z</time></trkpt><trkpt lat="36.9189747" lon="-3.6454408"><ele>852.0</ele><time>2026-03-07T10:01:23.012Z</time></trkpt><trkpt lat="36.9189475" lon="-3.6453599"><ele>852.0</ele><time>2026-03-07T10:01:24.006Z</time></trkpt><trkpt lat="36.9189222" lon="-3.6452783"><ele>852.0</ele><time>2026-03-07T10:01:25.001Z</time></trkpt><trkpt lat="36.9188985" lon="-3.6451955"><ele>852.0</ele><time>2026-03-07T10:01:26.002Z</time></trkpt><trkpt lat="36.9188824" lon="-3.6451106"><ele>851.9999999999999</ele><time>2026-03-07T10:01:27.012Z</time></trkpt><trkpt lat="36.9188813" lon="-3.6450241"><ele>852.0</ele><time>2026-03-07T10:01:28.003Z</time></trkpt><trkpt lat="36.9188827" lon="-3.6449414"><ele>852.8333333333334</ele><time>2026-03-07T10:01:29.016Z</time></trkpt><trkpt lat="36.9188536" lon="-3.6447901"><ele>853.6666666666667</ele><time>2026-03-07T10:01:31.005Z</time></trkpt><trkpt lat="36.9188293" lon="-3.6447146"><ele>854.5</ele><time>2026-03-07T10:01:32Z</time></trkpt><trkpt lat="36.91881" lon="-3.6446353"><ele>855.3333333333334</ele><time>2026-03-07T10:01:32.999Z</time></trkpt><trkpt lat="36.9187871" lon="-3.6445581"><ele>856.1666666666667</ele><time>2026-03-07T10:01:34.024Z</time></trkpt><trkpt lat="36.9187632" lon="-3.6444815"><ele>857.0</ele><time>2026-03-07T10:01:35.003Z</time></trkpt><trkpt lat="36.9187323" lon="-3.6444102"><ele>857.0</ele><time>2026-03-07T10:01:36.016Z</time></trkpt><trkpt lat="36.9186851" lon="-3.6443558"><ele>857.0</ele><time>2026-03-07T10:01:37.004Z</time></trkpt><trkpt lat="36.9186367" lon="-3.6442971"><ele>857.0</ele><time>2026-03-07T10:01:38.002Z</time></trkpt><trkpt lat="36.9185842" lon="-3.6442302"><ele>857.0</ele><time>2026-03-07T10:01:39.011Z</time></trkpt><trkpt lat="36.9185289" lon="-3.6441681"><ele>857.0</ele><time>2026-03-07T10:01:39.982Z</time></trkpt><trkpt lat="36.9184666" lon="-3.644118"><ele>857.0</ele><time>2026-03-07T10:01:41Z</time></trkpt><trkpt lat="36.9184026" lon="-3.6440641"><ele>857.0</ele><time>2026-03-07T10:01:42.001Z</time></trkpt><trkpt lat="36.9183359" lon="-3.6440123"><ele>857.0000000000001</ele><time>2026-03-07T10:01:43.005Z</time></trkpt><trkpt lat="36.9182793" lon="-3.6439587"><ele>857.0</ele><time>2026-03-07T10:01:44.026Z</time></trkpt><trkpt lat="36.9182167" lon="-3.6438683"><ele>857.0</ele><time>2026-03-07T10:01:46.001Z</time></trkpt><trkpt lat="36.9182285" lon="-3.6437776"><ele>857.0</ele><time>2026-03-07T10:01:48.009Z</time></trkpt><trkpt lat="36.9183044" lon="-3.6437339"><ele>857.0000000000001</ele><time>2026-03-07T10:01:49.996Z</time></trkpt><trkpt lat="36.9183957" lon="-3.6436965"><ele>857.0</ele><time>2026-03-07T10:01:52Z</time></trkpt><trkpt lat="36.9184864" lon="-3.6436473"><ele>861.0</ele><time>2026-03-07T10:01:53.991Z</time></trkpt><trkpt lat="36.9185876" lon="-3.6435849"><ele>865.0</ele><time>2026-03-07T10:01:56Z</time></trkpt><trkpt lat="36.9186901" lon="-3.6435183"><ele>869.0</ele><time>2026-03-07T10:01:58.01Z</time></trkpt><trkpt lat="36.9187941" lon="-3.6434506"><ele>873.0</ele><time>2026-03-07T10:02:00.006Z</time></trkpt><trkpt lat="36.9188551" lon="-3.643409"><ele>877.0</ele><time>2026-03-07T10:02:01.009Z</time></trkpt><trkpt lat="36.9189219" lon="-3.6433624"><ele>876.9999999999999</ele><time>2026-03-07T10:02:02Z</time></trkpt><trkpt lat="36.9189814" lon="-3.6433197"><ele>877.0</ele><time>2026-03-07T10:02:03.005Z</time></trkpt><trkpt lat="36.9190619" lon="-3.6432445"><ele>877.0</ele><time>2026-03-07T10:02:05.001Z</time></trkpt><trkpt lat="36.9191267" lon="-3.6431987"><ele>877.0</ele><time>2026-03-07T10:02:07.012Z</time></trkpt><trkpt lat="36.9190648" lon="-3.6432263"><ele>876.9999999999999</ele><time>2026-03-07T10:04:19.008Z</time></trkpt><trkpt lat="36.9190286" lon="-3.643108"><ele>877.0</ele><time>2026-03-07T10:04:22.001Z</time></trkpt><trkpt lat="36.918981" lon="-3.6430341"><ele>876.9999999999999</ele><time>2026-03-07T10:04:23.006Z</time></trkpt><trkpt lat="36.9189299" lon="-3.6429597"><ele>877.0</ele><time>2026-03-07T10:04:24.005Z</time></trkpt><trkpt lat="36.9188677" lon="-3.6428844"><ele>877.0</ele><time>2026-03-07T10:04:25.027Z</time></trkpt><trkpt lat="36.9187954" lon="-3.6428167"><ele>877.0</ele><time>2026-03-07T10:04:26.015Z</time></trkpt><trkpt lat="36.9187264" lon="-3.6427548"><ele>876.9999999999999</ele><time>2026-03-07T10:04:27.001Z</time></trkpt><trkpt lat="36.9186649" lon="-3.6427043"><ele>877.0</ele><time>2026-03-07T10:04:28.006Z</time></trkpt><trkpt lat="36.9186071" lon="-3.6426589"><ele>877.4999999999999</ele><time>2026-03-07T10:04:29.001Z</time></trkpt><trkpt lat="36.9185521" lon="-3.6426194"><ele>878.0</ele><time>2026-03-07T10:04:30.013Z</time></trkpt><trkpt lat="36.9184702" lon="-3.6425104"><ele>878.5</ele><time>2026-03-07T10:04:32.005Z</time></trkpt><trkpt lat="36.9184468" lon="-3.6423565"><ele>879.0</ele><time>2026-03-07T10:04:34.011Z</time></trkpt><trkpt lat="36.9184569" lon="-3.642276"><ele>879.4999999999999</ele><time>2026-03-07T10:04:35.024Z</time></trkpt><trkpt lat="36.9184729" lon="-3.6421995"><ele>880.0</ele><time>2026-03-07T10:04:36.004Z</time></trkpt><trkpt lat="36.9185033" lon="-3.6420593"><ele>880.4999999999999</ele><time>2026-03-07T10:04:38.013Z</time></trkpt><trkpt lat="36.9184715" lon="-3.6419461"><ele>881.0</ele><time>2026-03-07T10:04:40.01Z</time></trkpt><trkpt lat="36.9184264" lon="-3.6418905"><ele>881.5</ele><time>2026-03-07T10:04:40.999Z</time></trkpt><trkpt lat="36.918369" lon="-3.641836"><ele>882.0</ele><time>2026-03-07T10:04:42.009Z</time></trkpt><trkpt lat="36.9183038" lon="-3.6417839"><ele>882.4999999999999</ele><time>2026-03-07T10:04:42.989Z</time></trkpt><trkpt lat="36.9182342" lon="-3.6417427"><ele>883.0</ele><time>2026-03-07T10:04:44.007Z</time></trkpt><trkpt lat="36.9181571" lon="-3.6417172"><ele>883.0</ele><time>2026-03-07T10:04:45.014Z</time></trkpt><trkpt lat="36.9180743" lon="-3.6417207"><ele>883.0</ele><time>2026-03-07T10:04:46.006Z</time></trkpt><trkpt lat="36.9179666" lon="-3.6417504"><ele>883.0</ele><time>2026-03-07T10:04:47.002Z</time></trkpt><trkpt lat="36.917853" lon="-3.641771"><ele>883.0</ele><time>2026-03-07T10:04:48.034Z</time></trkpt><trkpt lat="36.9177454" lon="-3.6417838"><ele>883.0</ele><time>2026-03-07T10:04:48.996Z</time></trkpt><trkpt lat="36.9176466" lon="-3.641802"><ele>881.5999999999999</ele><time>2026-03-07T10:04:49.992Z</time></trkpt><trkpt lat="36.9175455" lon="-3.6418127"><ele>880.1999999999999</ele><time>2026-03-07T10:04:51.012Z</time></trkpt><trkpt lat="36.9174396" lon="-3.6418295"><ele>878.8</ele><time>2026-03-07T10:04:52.001Z</time></trkpt><trkpt lat="36.9173294" lon="-3.6418493"><ele>877.4</ele><time>2026-03-07T10:04:53.01Z</time></trkpt><trkpt lat="36.9172258" lon="-3.6418641"><ele>876.0</ele><time>2026-03-07T10:04:54.015Z</time></trkpt><trkpt lat="36.917136" lon="-3.6418717"><ele>876.0</ele><time>2026-03-07T10:04:55.008Z</time></trkpt><trkpt lat="36.9170698" lon="-3.6418756"><ele>876.0</ele><time>2026-03-07T10:04:56.004Z</time></trkpt><trkpt lat="36.9169799" lon="-3.6418268"><ele>876.0</ele><time>2026-03-07T10:04:58.014Z</time></trkpt><trkpt lat="36.9169559" lon="-3.6416877"><ele>876.0</ele><time>2026-03-07T10:05:00.017Z</time></trkpt><trkpt lat="36.9169873" lon="-3.6416062"><ele>876.0</ele><time>2026-03-07T10:05:01Z</time></trkpt><trkpt lat="36.9170489" lon="-3.6415312"><ele>876.0</ele><time>2026-03-07T10:05:02.03Z</time></trkpt><trkpt lat="36.9171154" lon="-3.6414512"><ele>876.0</ele><time>2026-03-07T10:05:03.007Z</time></trkpt><trkpt lat="36.9171944" lon="-3.6413713"><ele>875.9999999999999</ele><time>2026-03-07T10:05:04.006Z</time></trkpt><trkpt lat="36.9172753" lon="-3.641284"><ele>875.9999999999999</ele><time>2026-03-07T10:05:04.996Z</time></trkpt><trkpt lat="36.9173606" lon="-3.6411838"><ele>876.0</ele><time>2026-03-07T10:05:06.019Z</time></trkpt><trkpt lat="36.9174404" lon="-3.641071"><ele>876.0</ele><time>2026-03-07T10:05:07.001Z</time></trkpt><trkpt lat="36.9175175" lon="-3.640963"><ele>874.5</ele><time>2026-03-07T10:05:07.995Z</time></trkpt><trkpt lat="36.9175906" lon="-3.6408497"><ele>873.0</ele><time>2026-03-07T10:05:09.002Z</time></trkpt><trkpt lat="36.9176556" lon="-3.6407228"><ele>871.5</ele><time>2026-03-07T10:05:09.995Z</time></trkpt><trkpt lat="36.9177191" lon="-3.6405878"><ele>870.0</ele><time>2026-03-07T10:05:10.993Z</time></trkpt><trkpt lat="36.9177793" lon="-3.6404486"><ele>870.0</ele><time>2026-03-07T10:05:12.016Z</time></trkpt><trkpt lat="36.9178337" lon="-3.640323"><ele>870.0</ele><time>2026-03-07T10:05:13Z</time></trkpt><trkpt lat="36.9178757" lon="-3.6402093"><ele>870.0</ele><time>2026-03-07T10:05:14.005Z</time></trkpt><trkpt lat="36.9179057" lon="-3.6401055"><ele>870.0</ele><time>2026-03-07T10:05:15.014Z</time></trkpt><trkpt lat="36.9179046" lon="-3.6400039"><ele>870.0</ele><time>2026-03-07T10:05:16.001Z</time></trkpt><trkpt lat="36.9178966" lon="-3.6398836"><ele>868.6</ele><time>2026-03-07T10:05:17.001Z</time></trkpt><trkpt lat="36.9178684" lon="-3.6397479"><ele>867.2</ele><time>2026-03-07T10:05:17.998Z</time></trkpt><trkpt lat="36.9178502" lon="-3.6396098"><ele>865.8</ele><time>2026-03-07T10:05:18.999Z</time></trkpt><trkpt lat="36.9178167" lon="-3.6394956"><ele>864.4</ele><time>2026-03-07T10:05:20.001Z</time></trkpt><trkpt lat="36.9177722" lon="-3.6393978"><ele>863.0</ele><time>2026-03-07T10:05:21.005Z</time></trkpt><trkpt lat="36.9177174" lon="-3.6393082"><ele>861.5</ele><time>2026-03-07T10:05:22.004Z</time></trkpt><trkpt lat="36.9176437" lon="-3.6392212"><ele>860.0</ele><time>2026-03-07T10:05:23.005Z</time></trkpt><trkpt lat="36.917549" lon="-3.6391371"><ele>858.5</ele><time>2026-03-07T10:05:24.022Z</time></trkpt><trkpt lat="36.9174392" lon="-3.6390534"><ele>857.0</ele><time>2026-03-07T10:05:25.013Z</time></trkpt><trkpt lat="36.9173297" lon="-3.6389656"><ele>858.8</ele><time>2026-03-07T10:05:26.001Z</time></trkpt><trkpt lat="36.9172327" lon="-3.6388812"><ele>860.6</ele><time>2026-03-07T10:05:27.007Z</time></trkpt><trkpt lat="36.9171609" lon="-3.6388026"><ele>862.3999999999999</ele><time>2026-03-07T10:05:28.015Z</time></trkpt><trkpt lat="36.9170947" lon="-3.6387298"><ele>864.1999999999999</ele><time>2026-03-07T10:05:29.001Z</time></trkpt><trkpt lat="36.917027" lon="-3.6386663"><ele>866.0</ele><time>2026-03-07T10:05:30.012Z</time></trkpt><trkpt lat="36.916949" lon="-3.6386236"><ele>866.0000000000001</ele><time>2026-03-07T10:05:31.019Z</time></trkpt><trkpt lat="36.9168617" lon="-3.6385822"><ele>866.0</ele><time>2026-03-07T10:05:32.023Z</time></trkpt><trkpt lat="36.9167739" lon="-3.6385441"><ele>866.0</ele><time>2026-03-07T10:05:33.015Z</time></trkpt><trkpt lat="36.916686" lon="-3.6385118"><ele>866.0</ele><time>2026-03-07T10:05:34.007Z</time></trkpt><trkpt lat="36.9166149" lon="-3.6384821"><ele>866.0000000000001</ele><time>2026-03-07T10:05:35.011Z</time></trkpt><trkpt lat="36.916548" lon="-3.6384165"><ele>866.0</ele><time>2026-03-07T10:05:37.029Z</time></trkpt><trkpt lat="36.9165533" lon="-3.6382837"><ele>866.0</ele><time>2026-03-07T10:05:39.014Z</time></trkpt><trkpt lat="36.9166492" lon="-3.6382185"><ele>865.9999999999999</ele><time>2026-03-07T10:05:41.012Z</time></trkpt><trkpt lat="36.91674" lon="-3.6382269"><ele>865.9999999999999</ele><time>2026-03-07T10:05:42.008Z</time></trkpt><trkpt lat="36.9168433" lon="-3.638231"><ele>866.0</ele><time>2026-03-07T10:05:43.008Z</time></trkpt><trkpt lat="36.9169502" lon="-3.6382174"><ele>866.0</ele><time>2026-03-07T10:05:44.006Z</time></trkpt><trkpt lat="36.9170641" lon="-3.6382037"><ele>866.0</ele><time>2026-03-07T10:05:45.014Z</time></trkpt><trkpt lat="36.9171764" lon="-3.6381973"><ele>865.9999999999999</ele><time>2026-03-07T10:05:46.005Z</time></trkpt><trkpt lat="36.9172797" lon="-3.638191"><ele>865.9999999999999</ele><time>2026-03-07T10:05:47.004Z</time></trkpt><trkpt lat="36.9173765" lon="-3.6381809"><ele>866.0</ele><time>2026-03-07T10:05:48.011Z</time></trkpt><trkpt lat="36.9174695" lon="-3.63816"><ele>866.0</ele><time>2026-03-07T10:05:49.023Z</time></trkpt><trkpt lat="36.9175468" lon="-3.6381413"><ele>866.0</ele><time>2026-03-07T10:05:50.002Z</time></trkpt><trkpt lat="36.9176302" lon="-3.6380436"><ele>865.9999999999999</ele><time>2026-03-07T10:05:52.009Z</time></trkpt><trkpt lat="36.917613" lon="-3.6378982"><ele>865.9999999999999</ele><time>2026-03-07T10:05:54.001Z</time></trkpt><trkpt lat="36.9175666" lon="-3.6378227"><ele>866.0</ele><time>2026-03-07T10:05:55.013Z</time></trkpt><trkpt lat="36.9175161" lon="-3.6377473"><ele>866.0</ele><time>2026-03-07T10:05:56.009Z</time></trkpt><trkpt lat="36.9174788" lon="-3.6376595"><ele>868.4</ele><time>2026-03-07T10:05:57.005Z</time></trkpt><trkpt lat="36.9174689" lon="-3.6375597"><ele>870.8</ele><time>2026-03-07T10:05:58.008Z</time></trkpt><trkpt lat="36.9174786" lon="-3.6374455"><ele>873.1999999999999</ele><time>2026-03-07T10:05:59.009Z</time></trkpt><trkpt lat="36.9175043" lon="-3.6373219"><ele>875.5999999999999</ele><time>2026-03-07T10:06:00.009Z</time></trkpt><trkpt lat="36.9175293" lon="-3.6371978"><ele>878.0</ele><time>2026-03-07T10:06:01.006Z</time></trkpt><trkpt lat="36.9175525" lon="-3.6370724"><ele>878.8</ele><time>2026-03-07T10:06:02.004Z</time></trkpt><trkpt lat="36.9175758" lon="-3.6369421"><ele>879.5999999999999</ele><time>2026-03-07T10:06:03.012Z</time></trkpt><trkpt lat="36.9175913" lon="-3.6368058"><ele>880.4000000000001</ele><time>2026-03-07T10:06:04.007Z</time></trkpt><trkpt lat="36.917599" lon="-3.636672"><ele>881.2</ele><time>2026-03-07T10:06:05.011Z</time></trkpt><trkpt lat="36.9175994" lon="-3.6365406"><ele>882.0</ele><time>2026-03-07T10:06:06.013Z</time></trkpt><trkpt lat="36.917588" lon="-3.6364055"><ele>882.0</ele><time>2026-03-07T10:06:07Z</time></trkpt><trkpt lat="36.9175743" lon="-3.636262"><ele>882.0</ele><time>2026-03-07T10:06:08.005Z</time></trkpt><trkpt lat="36.9175543" lon="-3.6361117"><ele>882.0</ele><time>2026-03-07T10:06:09.006Z</time></trkpt><trkpt lat="36.9175346" lon="-3.6359603"><ele>882.0</ele><time>2026-03-07T10:06:10.007Z</time></trkpt><trkpt lat="36.9175155" lon="-3.6358182"><ele>883.8</ele><time>2026-03-07T10:06:11.001Z</time></trkpt><trkpt lat="36.9174862" lon="-3.6356795"><ele>885.6</ele><time>2026-03-07T10:06:12.011Z</time></trkpt><trkpt lat="36.9174592" lon="-3.6355394"><ele>887.3999999999999</ele><time>2026-03-07T10:06:13.009Z</time></trkpt><trkpt lat="36.9174293" lon="-3.6354068"><ele>889.1999999999999</ele><time>2026-03-07T10:06:14.012Z</time></trkpt><trkpt lat="36.9173977" lon="-3.635285"><ele>891.0</ele><time>2026-03-07T10:06:15.007Z</time></trkpt><trkpt lat="36.9173536" lon="-3.635178"><ele>891.4</ele><time>2026-03-07T10:06:16.002Z</time></trkpt><trkpt lat="36.9173031" lon="-3.6350846"><ele>891.8</ele><time>2026-03-07T10:06:17.001Z</time></trkpt><trkpt lat="36.9172412" lon="-3.6350082"><ele>892.1999999999999</ele><time>2026-03-07T10:06:18.014Z</time></trkpt><trkpt lat="36.9171654" lon="-3.634943"><ele>892.5999999999999</ele><time>2026-03-07T10:06:19.003Z</time></trkpt><trkpt lat="36.9170855" lon="-3.6348797"><ele>893.0</ele><time>2026-03-07T10:06:19.996Z</time></trkpt><trkpt lat="36.9170087" lon="-3.6348079"><ele>893.0</ele><time>2026-03-07T10:06:21.007Z</time></trkpt><trkpt lat="36.9169315" lon="-3.6347189"><ele>893.0</ele><time>2026-03-07T10:06:22.019Z</time></trkpt><trkpt lat="36.9168518" lon="-3.6346236"><ele>893.0</ele><time>2026-03-07T10:06:23.021Z</time></trkpt><trkpt lat="36.9167729" lon="-3.634527"><ele>893.0</ele><time>2026-03-07T10:06:24.02Z</time></trkpt><trkpt lat="36.9166959" lon="-3.6344293"><ele>893.0</ele><time>2026-03-07T10:06:24.998Z</time></trkpt><trkpt lat="36.9166184" lon="-3.6343315"><ele>894.25</ele><time>2026-03-07T10:06:26.007Z</time></trkpt><trkpt lat="36.9165417" lon="-3.6342278"><ele>895.5</ele><time>2026-03-07T10:06:27.006Z</time></trkpt><trkpt lat="36.9164704" lon="-3.6341131"><ele>896.75</ele><time>2026-03-07T10:06:28.015Z</time></trkpt><trkpt lat="36.916412" lon="-3.6339838"><ele>898.0</ele><time>2026-03-07T10:06:29.005Z</time></trkpt><trkpt lat="36.9163628" lon="-3.6338485"><ele>898.0</ele><time>2026-03-07T10:06:30.01Z</time></trkpt><trkpt lat="36.9163271" lon="-3.6337116"><ele>898.0</ele><time>2026-03-07T10:06:31Z</time></trkpt><trkpt lat="36.9162974" lon="-3.6335789"><ele>898.0</ele><time>2026-03-07T10:06:32.007Z</time></trkpt><trkpt lat="36.9162793" lon="-3.6334418"><ele>898.0</ele><time>2026-03-07T10:06:33.038Z</time></trkpt><trkpt lat="36.9162646" lon="-3.6333046"><ele>898.0</ele><time>2026-03-07T10:06:34.019Z</time></trkpt><trkpt lat="36.9162567" lon="-3.63318"><ele>897.4999999999999</ele><time>2026-03-07T10:06:35.002Z</time></trkpt><trkpt lat="36.9162266" lon="-3.6330857"><ele>897.0</ele><time>2026-03-07T10:06:36.02Z</time></trkpt><trkpt lat="36.9161955" lon="-3.6330119"><ele>896.5</ele><time>2026-03-07T10:06:37.003Z</time></trkpt><trkpt lat="36.9161122" lon="-3.6329452"><ele>896.0</ele><time>2026-03-07T10:06:39.003Z</time></trkpt><trkpt lat="36.9160666" lon="-3.6330035"><ele>895.4999999999999</ele><time>2026-03-07T10:06:40.007Z</time></trkpt><trkpt lat="36.9160053" lon="-3.6330422"><ele>895.0</ele><time>2026-03-07T10:06:41.012Z</time></trkpt><trkpt lat="36.9159216" lon="-3.6330842"><ele>895.9999999999999</ele><time>2026-03-07T10:06:41.999Z</time></trkpt><trkpt lat="36.9158272" lon="-3.6331161"><ele>897.0</ele><time>2026-03-07T10:06:43.012Z</time></trkpt><trkpt lat="36.9157351" lon="-3.6331402"><ele>898.0</ele><time>2026-03-07T10:06:44.006Z</time></trkpt><trkpt lat="36.9156442" lon="-3.6331496"><ele>899.0</ele><time>2026-03-07T10:06:45.006Z</time></trkpt><trkpt lat="36.915576" lon="-3.6331613"><ele>899.9999999999999</ele><time>2026-03-07T10:06:46.003Z</time></trkpt><trkpt lat="36.9154894" lon="-3.6331589"><ele>901.0</ele><time>2026-03-07T10:06:47.013Z</time></trkpt><trkpt lat="36.9154025" lon="-3.6331542"><ele>900.9999999999999</ele><time>2026-03-07T10:06:48.012Z</time></trkpt><trkpt lat="36.9153084" lon="-3.6331398"><ele>901.0</ele><time>2026-03-07T10:06:49.008Z</time></trkpt><trkpt lat="36.9152193" lon="-3.6331293"><ele>901.0</ele><time>2026-03-07T10:06:50.006Z</time></trkpt><trkpt lat="36.9151352" lon="-3.6331159"><ele>901.0</ele><time>2026-03-07T10:06:51.021Z</time></trkpt><trkpt lat="36.9150597" lon="-3.6330867"><ele>900.9999999999999</ele><time>2026-03-07T10:06:52.013Z</time></trkpt><trkpt lat="36.9149931" lon="-3.6330399"><ele>901.0</ele><time>2026-03-07T10:06:53.009Z</time></trkpt><trkpt lat="36.9149342" lon="-3.6329921"><ele>901.6666666666666</ele><time>2026-03-07T10:06:53.995Z</time></trkpt><trkpt lat="36.9148743" lon="-3.632947"><ele>902.3333333333333</ele><time>2026-03-07T10:06:55.007Z</time></trkpt><trkpt lat="36.9148181" lon="-3.6328904"><ele>903.0</ele><time>2026-03-07T10:06:56.009Z</time></trkpt><trkpt lat="36.9147666" lon="-3.6328379"><ele>903.6666666666667</ele><time>2026-03-07T10:06:57.01Z</time></trkpt><trkpt lat="36.9146989" lon="-3.6327167"><ele>904.3333333333334</ele><time>2026-03-07T10:06:59.007Z</time></trkpt><trkpt lat="36.9146862" lon="-3.6326321"><ele>905.0</ele><time>2026-03-07T10:07:00.018Z</time></trkpt><trkpt lat="36.9146914" lon="-3.6325388"><ele>903.1666666666667</ele><time>2026-03-07T10:07:01.007Z</time></trkpt><trkpt lat="36.9147112" lon="-3.6324563"><ele>901.3333333333334</ele><time>2026-03-07T10:07:02.008Z</time></trkpt><trkpt lat="36.9147468" lon="-3.6323706"><ele>899.5</ele><time>2026-03-07T10:07:03.004Z</time></trkpt><trkpt lat="36.9148029" lon="-3.6322917"><ele>897.6666666666667</ele><time>2026-03-07T10:07:03.998Z</time></trkpt><trkpt lat="36.914876" lon="-3.6322121"><ele>895.8333333333334</ele><time>2026-03-07T10:07:05.01Z</time></trkpt><trkpt lat="36.9149496" lon="-3.6321231"><ele>894.0</ele><time>2026-03-07T10:07:06.023Z</time></trkpt><trkpt lat="36.9150191" lon="-3.6320543"><ele>894.1666666666666</ele><time>2026-03-07T10:07:07.013Z</time></trkpt><trkpt lat="36.9150731" lon="-3.6319884"><ele>894.3333333333333</ele><time>2026-03-07T10:07:08.006Z</time></trkpt><trkpt lat="36.9151243" lon="-3.6319352"><ele>894.5</ele><time>2026-03-07T10:07:09.005Z</time></trkpt><trkpt lat="36.9151726" lon="-3.6318628"><ele>894.6666666666666</ele><time>2026-03-07T10:07:09.989Z</time></trkpt><trkpt lat="36.9152214" lon="-3.6317674"><ele>894.8333333333333</ele><time>2026-03-07T10:07:11.022Z</time></trkpt><trkpt lat="36.9152734" lon="-3.6316582"><ele>895.0</ele><time>2026-03-07T10:07:12.017Z</time></trkpt><trkpt lat="36.9153298" lon="-3.6315479"><ele>895.0</ele><time>2026-03-07T10:07:13.012Z</time></trkpt><trkpt lat="36.9153864" lon="-3.631435"><ele>895.0</ele><time>2026-03-07T10:07:14.004Z</time></trkpt><trkpt lat="36.9154452" lon="-3.6313169"><ele>895.0</ele><time>2026-03-07T10:07:15.007Z</time></trkpt><trkpt lat="36.9155062" lon="-3.6311926"><ele>895.0</ele><time>2026-03-07T10:07:16.004Z</time></trkpt><trkpt lat="36.9155708" lon="-3.6310744"><ele>895.0</ele><time>2026-03-07T10:07:17.007Z</time></trkpt><trkpt lat="36.91563" lon="-3.6309634"><ele>895.2</ele><time>2026-03-07T10:07:18.003Z</time></trkpt><trkpt lat="36.9156831" lon="-3.6308589"><ele>895.4</ele><time>2026-03-07T10:07:18.998Z</time></trkpt><trkpt lat="36.9157317" lon="-3.6307532"><ele>895.5999999999999</ele><time>2026-03-07T10:07:19.998Z</time></trkpt><trkpt lat="36.9157766" lon="-3.6306471"><ele>895.8</ele><time>2026-03-07T10:07:21.006Z</time></trkpt><trkpt lat="36.9158178" lon="-3.6305382"><ele>896.0</ele><time>2026-03-07T10:07:22.006Z</time></trkpt><trkpt lat="36.9158405" lon="-3.6304187"><ele>895.4</ele><time>2026-03-07T10:07:23.018Z</time></trkpt><trkpt lat="36.9158577" lon="-3.6302925"><ele>894.8</ele><time>2026-03-07T10:07:24.002Z</time></trkpt><trkpt lat="36.915884" lon="-3.6301614"><ele>894.1999999999999</ele><time>2026-03-07T10:07:25.019Z</time></trkpt><trkpt lat="36.9159245" lon="-3.6300282"><ele>893.5999999999999</ele><time>2026-03-07T10:07:26.012Z</time></trkpt><trkpt lat="36.9159754" lon="-3.6298958"><ele>893.0</ele><time>2026-03-07T10:07:27Z</time></trkpt><trkpt lat="36.9160381" lon="-3.6297689"><ele>891.5999999999999</ele><time>2026-03-07T10:07:28.005Z</time></trkpt><trkpt lat="36.9161015" lon="-3.6296494"><ele>890.1999999999999</ele><time>2026-03-07T10:07:29.016Z</time></trkpt><trkpt lat="36.9161587" lon="-3.6295339"><ele>888.8</ele><time>2026-03-07T10:07:30.014Z</time></trkpt><trkpt lat="36.9162104" lon="-3.6294174"><ele>887.4</ele><time>2026-03-07T10:07:31.01Z</time></trkpt><trkpt lat="36.9162558" lon="-3.6293033"><ele>886.0</ele><time>2026-03-07T10:07:32.006Z</time></trkpt><trkpt lat="36.9162917" lon="-3.6291887"><ele>885.4</ele><time>2026-03-07T10:07:33.014Z</time></trkpt><trkpt lat="36.9163223" lon="-3.6290706"><ele>884.8</ele><time>2026-03-07T10:07:33.987Z</time></trkpt><trkpt lat="36.9163412" lon="-3.6289497"><ele>884.1999999999999</ele><time>2026-03-07T10:07:35.002Z</time></trkpt><trkpt lat="36.9163423" lon="-3.6288287"><ele>883.5999999999999</ele><time>2026-03-07T10:07:36.002Z</time></trkpt><trkpt lat="36.9163218" lon="-3.6287049"><ele>883.0</ele><time>2026-03-07T10:07:36.996Z</time></trkpt><trkpt lat="36.9162863" lon="-3.6285685"><ele>882.2</ele><time>2026-03-07T10:07:38.018Z</time></trkpt><trkpt lat="36.9162641" lon="-3.6284263"><ele>881.4</ele><time>2026-03-07T10:07:39.009Z</time></trkpt><trkpt lat="36.9162461" lon="-3.6282912"><ele>880.6000000000001</ele><time>2026-03-07T10:07:40.008Z</time></trkpt><trkpt lat="36.9162319" lon="-3.6281653"><ele>879.8000000000001</ele><time>2026-03-07T10:07:41.01Z</time></trkpt><trkpt lat="36.9162253" lon="-3.6280438"><ele>879.0</ele><time>2026-03-07T10:07:42.005Z</time></trkpt><trkpt lat="36.9162216" lon="-3.6279235"><ele>878.1666666666666</ele><time>2026-03-07T10:07:43.004Z</time></trkpt><trkpt lat="36.9162195" lon="-3.6278074"><ele>877.3333333333333</ele><time>2026-03-07T10:07:44.021Z</time></trkpt><trkpt lat="36.9162133" lon="-3.6277054"><ele>876.5</ele><time>2026-03-07T10:07:44.999Z</time></trkpt><trkpt lat="36.9161887" lon="-3.6276301"><ele>875.6666666666666</ele><time>2026-03-07T10:07:46Z</time></trkpt><trkpt lat="36.9161182" lon="-3.6275043"><ele>874.8333333333333</ele><time>2026-03-07T10:07:48.004Z</time></trkpt><trkpt lat="36.9160666" lon="-3.6274421"><ele>874.0</ele><time>2026-03-07T10:07:49.013Z</time></trkpt><trkpt lat="36.9160206" lon="-3.6273619"><ele>873.9999999999999</ele><time>2026-03-07T10:07:49.996Z</time></trkpt><trkpt lat="36.9159795" lon="-3.6272695"><ele>874.0</ele><time>2026-03-07T10:07:51.005Z</time></trkpt><trkpt lat="36.9159362" lon="-3.6271753"><ele>874.0</ele><time>2026-03-07T10:07:52.021Z</time></trkpt><trkpt lat="36.9158897" lon="-3.6270857"><ele>874.0</ele><time>2026-03-07T10:07:53.003Z</time></trkpt><trkpt lat="36.9158397" lon="-3.6270125"><ele>873.9999999999999</ele><time>2026-03-07T10:07:54.006Z</time></trkpt><trkpt lat="36.9157775" lon="-3.6269745"><ele>874.0</ele><time>2026-03-07T10:07:55.008Z</time></trkpt><trkpt lat="36.9157005" lon="-3.6269672"><ele>873.6</ele><time>2026-03-07T10:07:56.01Z</time></trkpt><trkpt lat="36.9156271" lon="-3.6269588"><ele>873.2</ele><time>2026-03-07T10:07:57.012Z</time></trkpt><trkpt lat="36.9155604" lon="-3.6269368"><ele>872.8000000000001</ele><time>2026-03-07T10:07:58.004Z</time></trkpt><trkpt lat="36.9155007" lon="-3.6269014"><ele>872.4000000000001</ele><time>2026-03-07T10:07:59.005Z</time></trkpt><trkpt lat="36.9154155" lon="-3.6267873"><ele>872.0</ele><time>2026-03-07T10:08:01.002Z</time></trkpt><trkpt lat="36.9154538" lon="-3.6266359"><ele>872.0000000000001</ele><time>2026-03-07T10:08:03.004Z</time></trkpt><trkpt lat="36.9154934" lon="-3.6265641"><ele>872.0</ele><time>2026-03-07T10:08:03.998Z</time></trkpt><trkpt lat="36.9155346" lon="-3.6264902"><ele>872.0</ele><time>2026-03-07T10:08:04.997Z</time></trkpt><trkpt lat="36.9155617" lon="-3.6264171"><ele>872.0</ele><time>2026-03-07T10:08:06.003Z</time></trkpt><trkpt lat="36.9155533" lon="-3.6262628"><ele>872.0000000000001</ele><time>2026-03-07T10:08:08.005Z</time></trkpt><trkpt lat="36.9155203" lon="-3.6261554"><ele>872.0</ele><time>2026-03-07T10:08:09.007Z</time></trkpt><trkpt lat="36.9154867" lon="-3.6260414"><ele>872.0</ele><time>2026-03-07T10:08:10.013Z</time></trkpt><trkpt lat="36.9154557" lon="-3.6259286"><ele>872.0</ele><time>2026-03-07T10:08:11.001Z</time></trkpt><trkpt lat="36.9154359" lon="-3.6258125"><ele>872.0</ele><time>2026-03-07T10:08:12.011Z</time></trkpt><trkpt lat="36.9154497" lon="-3.6256958"><ele>872.0</ele><time>2026-03-07T10:08:13.003Z</time></trkpt><trkpt lat="36.9154623" lon="-3.6255726"><ele>872.0</ele><time>2026-03-07T10:08:13.995Z</time></trkpt><trkpt lat="36.9154737" lon="-3.625445"><ele>872.0</ele><time>2026-03-07T10:08:15.002Z</time></trkpt><trkpt lat="36.9154775" lon="-3.6253135"><ele>872.0</ele><time>2026-03-07T10:08:16.006Z</time></trkpt><trkpt lat="36.9154715" lon="-3.6251761"><ele>872.0</ele><time>2026-03-07T10:08:16.994Z</time></trkpt><trkpt lat="36.9154465" lon="-3.6250333"><ele>872.0</ele><time>2026-03-07T10:08:18.005Z</time></trkpt><trkpt lat="36.9154271" lon="-3.6248833"><ele>872.5</ele><time>2026-03-07T10:08:19.009Z</time></trkpt><trkpt lat="36.9154057" lon="-3.624736"><ele>873.0</ele><time>2026-03-07T10:08:20.009Z</time></trkpt><trkpt lat="36.9153788" lon="-3.6245952"><ele>873.5</ele><time>2026-03-07T10:08:20.991Z</time></trkpt><trkpt lat="36.915362" lon="-3.6244597"><ele>874.0</ele><time>2026-03-07T10:08:22.004Z</time></trkpt><trkpt lat="36.915347" lon="-3.6243224"><ele>873.2</ele><time>2026-03-07T10:08:23.008Z</time></trkpt><trkpt lat="36.915341" lon="-3.6241785"><ele>872.4000000000001</ele><time>2026-03-07T10:08:24.006Z</time></trkpt><trkpt lat="36.91534" lon="-3.6240334"><ele>871.6</ele><time>2026-03-07T10:08:25.008Z</time></trkpt><trkpt lat="36.915343" lon="-3.6238981"><ele>870.8</ele><time>2026-03-07T10:08:26.006Z</time></trkpt><trkpt lat="36.9153466" lon="-3.6237729"><ele>870.0</ele><time>2026-03-07T10:08:27.006Z</time></trkpt><trkpt lat="36.9153383" lon="-3.6236459"><ele>869.2</ele><time>2026-03-07T10:08:28.011Z</time></trkpt><trkpt lat="36.9153189" lon="-3.6235105"><ele>868.4</ele><time>2026-03-07T10:08:29.013Z</time></trkpt><trkpt lat="36.9152877" lon="-3.6233736"><ele>867.5999999999999</ele><time>2026-03-07T10:08:29.997Z</time></trkpt><trkpt lat="36.9152612" lon="-3.623237"><ele>866.8</ele><time>2026-03-07T10:08:31.005Z</time></trkpt><trkpt lat="36.9152429" lon="-3.6230972"><ele>866.0</ele><time>2026-03-07T10:08:32.008Z</time></trkpt><trkpt lat="36.9152275" lon="-3.6229529"><ele>865.0</ele><time>2026-03-07T10:08:33.004Z</time></trkpt><trkpt lat="36.9152109" lon="-3.6228056"><ele>864.0</ele><time>2026-03-07T10:08:34.002Z</time></trkpt><trkpt lat="36.9151889" lon="-3.6226561"><ele>863.0</ele><time>2026-03-07T10:08:34.999Z</time></trkpt><trkpt lat="36.9151653" lon="-3.6225064"><ele>862.0</ele><time>2026-03-07T10:08:36.001Z</time></trkpt><trkpt lat="36.9151413" lon="-3.6223577"><ele>862.0</ele><time>2026-03-07T10:08:37.003Z</time></trkpt><trkpt lat="36.9151228" lon="-3.6222061"><ele>862.0</ele><time>2026-03-07T10:08:38.006Z</time></trkpt><trkpt lat="36.9150963" lon="-3.6220518"><ele>862.0</ele><time>2026-03-07T10:08:39.005Z</time></trkpt><trkpt lat="36.9150764" lon="-3.6218869"><ele>862.0</ele><time>2026-03-07T10:08:40Z</time></trkpt><trkpt lat="36.9150575" lon="-3.6217281"><ele>862.75</ele><time>2026-03-07T10:08:41.003Z</time></trkpt><trkpt lat="36.9150469" lon="-3.6215763"><ele>863.5</ele><time>2026-03-07T10:08:42.023Z</time></trkpt><trkpt lat="36.9150431" lon="-3.6214198"><ele>864.25</ele><time>2026-03-07T10:08:43.005Z</time></trkpt><trkpt lat="36.915048" lon="-3.6212593"><ele>865.0</ele><time>2026-03-07T10:08:44.003Z</time></trkpt><trkpt lat="36.9150657" lon="-3.6211139"><ele>864.4</ele><time>2026-03-07T10:08:44.989Z</time></trkpt><trkpt lat="36.9150854" lon="-3.6209918"><ele>863.8</ele><time>2026-03-07T10:08:45.997Z</time></trkpt><trkpt lat="36.9151078" lon="-3.6208987"><ele>863.2</ele><time>2026-03-07T10:08:47.033Z</time></trkpt><trkpt lat="36.9151559" lon="-3.6207821"><ele>862.6</ele><time>2026-03-07T10:08:48.985Z</time></trkpt><trkpt lat="36.9151766" lon="-3.6206928"><ele>862.0</ele><time>2026-03-07T10:08:52.007Z</time></trkpt><trkpt lat="36.915268" lon="-3.6207253"><ele>861.9999999999999</ele><time>2026-03-07T10:09:07.013Z</time></trkpt><trkpt lat="36.9153721" lon="-3.6207459"><ele>862.0</ele><time>2026-03-07T10:09:09.001Z</time></trkpt><trkpt lat="36.9154948" lon="-3.6207956"><ele>862.0</ele><time>2026-03-07T10:09:11.032Z</time></trkpt><trkpt lat="36.9155644" lon="-3.620821"><ele>862.0</ele><time>2026-03-07T10:09:12.012Z</time></trkpt><trkpt lat="36.9156353" lon="-3.6208358"><ele>861.9999999999999</ele><time>2026-03-07T10:09:13.025Z</time></trkpt><trkpt lat="36.9157002" lon="-3.6208358"><ele>862.0</ele><time>2026-03-07T10:09:14.005Z</time></trkpt><trkpt lat="36.9158196" lon="-3.6207771"><ele>861.9999999999999</ele><time>2026-03-07T10:09:16Z</time></trkpt><trkpt lat="36.9158842" lon="-3.6207278"><ele>862.0</ele><time>2026-03-07T10:09:17.01Z</time></trkpt><trkpt lat="36.9159514" lon="-3.6206793"><ele>862.0</ele><time>2026-03-07T10:09:18.019Z</time></trkpt><trkpt lat="36.9160154" lon="-3.6206263"><ele>862.0</ele><time>2026-03-07T10:09:19.016Z</time></trkpt><trkpt lat="36.9160687" lon="-3.6205595"><ele>861.9999999999999</ele><time>2026-03-07T10:09:20.002Z</time></trkpt><trkpt lat="36.9161165" lon="-3.620492"><ele>862.0</ele><time>2026-03-07T10:09:21.006Z</time></trkpt><trkpt lat="36.9161606" lon="-3.6204184"><ele>861.3333333333333</ele><time>2026-03-07T10:09:22.032Z</time></trkpt><trkpt lat="36.9162002" lon="-3.6203367"><ele>860.6666666666666</ele><time>2026-03-07T10:09:23.024Z</time></trkpt><trkpt lat="36.9162355" lon="-3.6202496"><ele>860.0</ele><time>2026-03-07T10:09:24.009Z</time></trkpt><trkpt lat="36.9162644" lon="-3.6201528"><ele>859.3333333333333</ele><time>2026-03-07T10:09:25.005Z</time></trkpt><trkpt lat="36.9162835" lon="-3.6200316"><ele>858.6666666666666</ele><time>2026-03-07T10:09:26.003Z</time></trkpt><trkpt lat="36.916304" lon="-3.6198926"><ele>858.0</ele><time>2026-03-07T10:09:27.01Z</time></trkpt><trkpt lat="36.9163285" lon="-3.6197476"><ele>858.0</ele><time>2026-03-07T10:09:28.013Z</time></trkpt><trkpt lat="36.9163561" lon="-3.6196078"><ele>858.0</ele><time>2026-03-07T10:09:29.02Z</time></trkpt><trkpt lat="36.9163854" lon="-3.6194813"><ele>858.0</ele><time>2026-03-07T10:09:30.013Z</time></trkpt><trkpt lat="36.9164132" lon="-3.6193623"><ele>858.0</ele><time>2026-03-07T10:09:31.003Z</time></trkpt><trkpt lat="36.9164417" lon="-3.6192455"><ele>858.0</ele><time>2026-03-07T10:09:32.01Z</time></trkpt><trkpt lat="36.9164692" lon="-3.6191264"><ele>857.75</ele><time>2026-03-07T10:09:33.008Z</time></trkpt><trkpt lat="36.9164954" lon="-3.6190024"><ele>857.5</ele><time>2026-03-07T10:09:34.013Z</time></trkpt><trkpt lat="36.9165222" lon="-3.6188676"><ele>857.25</ele><time>2026-03-07T10:09:35.009Z</time></trkpt><trkpt lat="36.9165452" lon="-3.6187222"><ele>857.0</ele><time>2026-03-07T10:09:36.006Z</time></trkpt><trkpt lat="36.9165713" lon="-3.6185725"><ele>857.0</ele><time>2026-03-07T10:09:37.013Z</time></trkpt><trkpt lat="36.9166016" lon="-3.6184253"><ele>857.0</ele><time>2026-03-07T10:09:38.011Z</time></trkpt><trkpt lat="36.9166314" lon="-3.618282"><ele>857.0</ele><time>2026-03-07T10:09:39.002Z</time></trkpt><trkpt lat="36.9166548" lon="-3.6181453"><ele>857.0</ele><time>2026-03-07T10:09:40.015Z</time></trkpt><trkpt lat="36.9166793" lon="-3.6180127"><ele>857.0</ele><time>2026-03-07T10:09:41.017Z</time></trkpt><trkpt lat="36.9167037" lon="-3.617881"><ele>857.0</ele><time>2026-03-07T10:09:42.006Z</time></trkpt><trkpt lat="36.9167291" lon="-3.6177442"><ele>857.0</ele><time>2026-03-07T10:09:43.013Z</time></trkpt><trkpt lat="36.9167588" lon="-3.6176049"><ele>857.0</ele><time>2026-03-07T10:09:44.018Z</time></trkpt><trkpt lat="36.9167833" lon="-3.6174773"><ele>857.0</ele><time>2026-03-07T10:09:45.011Z</time></trkpt><trkpt lat="36.9168115" lon="-3.6173707"><ele>855.5000000000001</ele><time>2026-03-07T10:09:46.007Z</time></trkpt><trkpt lat="36.9168496" lon="-3.6172874"><ele>854.0</ele><time>2026-03-07T10:09:47.009Z</time></trkpt><trkpt lat="36.9168909" lon="-3.6172139"><ele>852.5</ele><time>2026-03-07T10:09:48.013Z</time></trkpt><trkpt lat="36.9169439" lon="-3.6171427"><ele>851.0</ele><time>2026-03-07T10:09:49.005Z</time></trkpt><trkpt lat="36.9170052" lon="-3.617071"><ele>849.5000000000001</ele><time>2026-03-07T10:09:50.02Z</time></trkpt><trkpt lat="36.9170639" lon="-3.6169913"><ele>848.0</ele><time>2026-03-07T10:09:51.014Z</time></trkpt><trkpt lat="36.9171072" lon="-3.616895"><ele>848.0</ele><time>2026-03-07T10:09:52.016Z</time></trkpt><trkpt lat="36.917143" lon="-3.616782"><ele>848.0</ele><time>2026-03-07T10:09:53.006Z</time></trkpt><trkpt lat="36.9171793" lon="-3.6166584"><ele>848.0</ele><time>2026-03-07T10:09:54.008Z</time></trkpt><trkpt lat="36.9172208" lon="-3.6165326"><ele>848.0</ele><time>2026-03-07T10:09:55.002Z</time></trkpt><trkpt lat="36.9172677" lon="-3.6164177"><ele>848.0</ele><time>2026-03-07T10:09:56.002Z</time></trkpt><trkpt lat="36.9173006" lon="-3.6163102"><ele>848.0000000000001</ele><time>2026-03-07T10:09:57.002Z</time></trkpt><trkpt lat="36.9173288" lon="-3.6162041"><ele>848.0</ele><time>2026-03-07T10:09:58Z</time></trkpt><trkpt lat="36.9173626" lon="-3.6161022"><ele>848.0</ele><time>2026-03-07T10:09:59.001Z</time></trkpt><trkpt lat="36.9174048" lon="-3.6160171"><ele>848.0</ele><time>2026-03-07T10:10:00.018Z</time></trkpt><trkpt lat="36.9174585" lon="-3.6159423"><ele>848.0000000000001</ele><time>2026-03-07T10:10:00.997Z</time></trkpt><trkpt lat="36.9175275" lon="-3.6158742"><ele>848.0</ele><time>2026-03-07T10:10:02.034Z</time></trkpt><trkpt lat="36.9175962" lon="-3.6157906"><ele>845.8</ele><time>2026-03-07T10:10:02.997Z</time></trkpt><trkpt lat="36.9176668" lon="-3.6157073"><ele>843.5999999999999</ele><time>2026-03-07T10:10:03.994Z</time></trkpt><trkpt lat="36.9177346" lon="-3.6156211"><ele>841.4000000000001</ele><time>2026-03-07T10:10:05.003Z</time></trkpt><trkpt lat="36.9178017" lon="-3.6155361"><ele>839.2</ele><time>2026-03-07T10:10:06.013Z</time></trkpt><trkpt lat="36.9178713" lon="-3.6154383"><ele>837.0</ele><time>2026-03-07T10:10:07.004Z</time></trkpt><trkpt lat="36.9179504" lon="-3.615325"><ele>837.6</ele><time>2026-03-07T10:10:08.008Z</time></trkpt><trkpt lat="36.918036" lon="-3.6152122"><ele>838.2</ele><time>2026-03-07T10:10:09.006Z</time></trkpt><trkpt lat="36.918116" lon="-3.6151072"><ele>838.8</ele><time>2026-03-07T10:10:10.013Z</time></trkpt><trkpt lat="36.9181924" lon="-3.6150101"><ele>839.4</ele><time>2026-03-07T10:10:11.002Z</time></trkpt><trkpt lat="36.9182597" lon="-3.6149237"><ele>840.0</ele><time>2026-03-07T10:10:12.003Z</time></trkpt><trkpt lat="36.9183126" lon="-3.6148306"><ele>840.0</ele><time>2026-03-07T10:10:13Z</time></trkpt><trkpt lat="36.9183589" lon="-3.6147333"><ele>840.0</ele><time>2026-03-07T10:10:14.015Z</time></trkpt><trkpt lat="36.9184094" lon="-3.6146249"><ele>840.0</ele><time>2026-03-07T10:10:15.008Z</time></trkpt><trkpt lat="36.9184284" lon="-3.6144913"><ele>840.0</ele><time>2026-03-07T10:10:16.001Z</time></trkpt><trkpt lat="36.9184502" lon="-3.6143545"><ele>840.0</ele><time>2026-03-07T10:10:17.009Z</time></trkpt><trkpt lat="36.9184737" lon="-3.6142275"><ele>837.0</ele><time>2026-03-07T10:10:18.013Z</time></trkpt><trkpt lat="36.918496" lon="-3.6141051"><ele>834.0</ele><time>2026-03-07T10:10:19.012Z</time></trkpt><trkpt lat="36.9185186" lon="-3.6139919"><ele>831.0</ele><time>2026-03-07T10:10:20.016Z</time></trkpt><trkpt lat="36.9185379" lon="-3.6139023"><ele>828.0</ele><time>2026-03-07T10:10:21.003Z</time></trkpt><trkpt lat="36.9185302" lon="-3.6138228"><ele>825.0</ele><time>2026-03-07T10:10:22.005Z</time></trkpt><trkpt lat="36.918483" lon="-3.6137592"><ele>822.0</ele><time>2026-03-07T10:10:23.022Z</time></trkpt><trkpt lat="36.9184147" lon="-3.613694"><ele>822.5</ele><time>2026-03-07T10:10:24.005Z</time></trkpt><trkpt lat="36.9183402" lon="-3.6136274"><ele>823.0</ele><time>2026-03-07T10:10:25.004Z</time></trkpt><trkpt lat="36.9182675" lon="-3.6135592"><ele>823.5</ele><time>2026-03-07T10:10:25.998Z</time></trkpt><trkpt lat="36.9182032" lon="-3.61348"><ele>824.0</ele><time>2026-03-07T10:10:27.007Z</time></trkpt><trkpt lat="36.9181501" lon="-3.6134027"><ele>824.5</ele><time>2026-03-07T10:10:28.003Z</time></trkpt><trkpt lat="36.9181121" lon="-3.6133144"><ele>825.0</ele><time>2026-03-07T10:10:28.995Z</time></trkpt><trkpt lat="36.9181095" lon="-3.6132109"><ele>825.0</ele><time>2026-03-07T10:10:30.008Z</time></trkpt><trkpt lat="36.9181105" lon="-3.6130998"><ele>825.0</ele><time>2026-03-07T10:10:31.003Z</time></trkpt><trkpt lat="36.9181256" lon="-3.6129857"><ele>825.0</ele><time>2026-03-07T10:10:32Z</time></trkpt><trkpt lat="36.9181475" lon="-3.6128849"><ele>825.0</ele><time>2026-03-07T10:10:33.008Z</time></trkpt><trkpt lat="36.9181639" lon="-3.6128064"><ele>825.0</ele><time>2026-03-07T10:10:34.003Z</time></trkpt><trkpt lat="36.9181418" lon="-3.6127002"><ele>825.0</ele><time>2026-03-07T10:10:36.001Z</time></trkpt><trkpt lat="36.9180525" lon="-3.6126821"><ele>823.2</ele><time>2026-03-07T10:10:38.002Z</time></trkpt><trkpt lat="36.9179506" lon="-3.6127044"><ele>821.4</ele><time>2026-03-07T10:10:40.006Z</time></trkpt><trkpt lat="36.9178677" lon="-3.6127518"><ele>819.5999999999999</ele><time>2026-03-07T10:10:42.004Z</time></trkpt><trkpt lat="36.9177791" lon="-3.6126799"><ele>817.8</ele><time>2026-03-07T10:10:44.025Z</time></trkpt><trkpt lat="36.9177538" lon="-3.612601"><ele>816.0</ele><time>2026-03-07T10:10:45.024Z</time></trkpt><trkpt lat="36.9177423" lon="-3.6124919"><ele>816.0</ele><time>2026-03-07T10:10:46.006Z</time></trkpt><trkpt lat="36.9177348" lon="-3.6123752"><ele>816.0</ele><time>2026-03-07T10:10:47.027Z</time></trkpt><trkpt lat="36.9177199" lon="-3.6122721"><ele>816.0</ele><time>2026-03-07T10:10:48.018Z</time></trkpt><trkpt lat="36.9177033" lon="-3.6121843"><ele>816.0</ele><time>2026-03-07T10:10:49.036Z</time></trkpt><trkpt lat="36.9177045" lon="-3.6121011"><ele>816.0</ele><time>2026-03-07T10:10:50Z</time></trkpt><trkpt lat="36.917715" lon="-3.6120142"><ele>816.0</ele><time>2026-03-07T10:10:51.008Z</time></trkpt><trkpt lat="36.9177443" lon="-3.6119257"><ele>814.3333333333334</ele><time>2026-03-07T10:10:52.006Z</time></trkpt><trkpt lat="36.9177766" lon="-3.6118375"><ele>812.6666666666667</ele><time>2026-03-07T10:10:53.015Z</time></trkpt><trkpt lat="36.9178127" lon="-3.6117488"><ele>811.0</ele><time>2026-03-07T10:10:54.015Z</time></trkpt><trkpt lat="36.9178468" lon="-3.6116556"><ele>809.3333333333334</ele><time>2026-03-07T10:10:54.999Z</time></trkpt><trkpt lat="36.9178871" lon="-3.6115726"><ele>807.6666666666667</ele><time>2026-03-07T10:10:56.012Z</time></trkpt><trkpt lat="36.9179276" lon="-3.6114996"><ele>806.0</ele><time>2026-03-07T10:10:57.009Z</time></trkpt><trkpt lat="36.9179565" lon="-3.6114222"><ele>806.0000000000001</ele><time>2026-03-07T10:10:58.006Z</time></trkpt><trkpt lat="36.9179773" lon="-3.6113414"><ele>806.0</ele><time>2026-03-07T10:10:59.002Z</time></trkpt><trkpt lat="36.917939" lon="-3.6111999"><ele>806.0</ele><time>2026-03-07T10:11:01.011Z</time></trkpt><trkpt lat="36.9179226" lon="-3.6111089"><ele>806.0</ele><time>2026-03-07T10:11:02.011Z</time></trkpt><trkpt lat="36.9179329" lon="-3.61101"><ele>806.0000000000001</ele><time>2026-03-07T10:11:03.015Z</time></trkpt><trkpt lat="36.9179682" lon="-3.6109152"><ele>806.0</ele><time>2026-03-07T10:11:04.01Z</time></trkpt><trkpt lat="36.9180147" lon="-3.6108287"><ele>804.8333333333334</ele><time>2026-03-07T10:11:05.034Z</time></trkpt><trkpt lat="36.9180565" lon="-3.610742"><ele>803.6666666666667</ele><time>2026-03-07T10:11:06.032Z</time></trkpt><trkpt lat="36.9180895" lon="-3.6106455"><ele>802.5</ele><time>2026-03-07T10:11:07.019Z</time></trkpt><trkpt lat="36.9181086" lon="-3.6105381"><ele>801.3333333333333</ele><time>2026-03-07T10:11:08.006Z</time></trkpt><trkpt lat="36.9181204" lon="-3.6104336"><ele>800.1666666666666</ele><time>2026-03-07T10:11:09.016Z</time></trkpt><trkpt lat="36.9181174" lon="-3.6103342"><ele>799.0</ele><time>2026-03-07T10:11:10.009Z</time></trkpt><trkpt lat="36.9180992" lon="-3.6102252"><ele>798.3333333333333</ele><time>2026-03-07T10:11:11.009Z</time></trkpt><trkpt lat="36.9180825" lon="-3.6101082"><ele>797.6666666666666</ele><time>2026-03-07T10:11:12.016Z</time></trkpt><trkpt lat="36.9180739" lon="-3.6099945"><ele>797.0</ele><time>2026-03-07T10:11:13Z</time></trkpt><trkpt lat="36.9180757" lon="-3.6098814"><ele>796.3333333333333</ele><time>2026-03-07T10:11:14.002Z</time></trkpt><trkpt lat="36.9180799" lon="-3.6097752"><ele>795.6666666666666</ele><time>2026-03-07T10:11:14.992Z</time></trkpt><trkpt lat="36.9180624" lon="-3.6096681"><ele>795.0</ele><time>2026-03-07T10:11:16.019Z</time></trkpt><trkpt lat="36.9180333" lon="-3.6095455"><ele>793.6</ele><time>2026-03-07T10:11:17.007Z</time></trkpt><trkpt lat="36.9180072" lon="-3.6094099"><ele>792.2</ele><time>2026-03-07T10:11:18.005Z</time></trkpt><trkpt lat="36.9179869" lon="-3.6092795"><ele>790.8</ele><time>2026-03-07T10:11:19.022Z</time></trkpt><trkpt lat="36.9179798" lon="-3.6091574"><ele>789.4</ele><time>2026-03-07T10:11:20.019Z</time></trkpt><trkpt lat="36.9179838" lon="-3.6090481"><ele>788.0</ele><time>2026-03-07T10:11:21.012Z</time></trkpt><trkpt lat="36.91799" lon="-3.608954"><ele>788.0000000000001</ele><time>2026-03-07T10:11:22.02Z</time></trkpt><trkpt lat="36.9180179" lon="-3.6088305"><ele>788.0</ele><time>2026-03-07T10:11:24.005Z</time></trkpt><trkpt lat="36.9180214" lon="-3.608724"><ele>788.0</ele><time>2026-03-07T10:11:51.019Z</time></trkpt><trkpt lat="36.9179669" lon="-3.6086454"><ele>788.0</ele><time>2026-03-07T10:11:53.063Z</time></trkpt><trkpt lat="36.9179074" lon="-3.6085649"><ele>788.0000000000001</ele><time>2026-03-07T10:11:55.021Z</time></trkpt><trkpt lat="36.9178427" lon="-3.6084864"><ele>788.0</ele><time>2026-03-07T10:11:57.004Z</time></trkpt><trkpt lat="36.9177777" lon="-3.608406"><ele>787.4</ele><time>2026-03-07T10:11:59.013Z</time></trkpt><trkpt lat="36.9177088" lon="-3.6082995"><ele>786.8</ele><time>2026-03-07T10:12:01.006Z</time></trkpt><trkpt lat="36.917659" lon="-3.6081622"><ele>786.2</ele><time>2026-03-07T10:12:03.01Z</time></trkpt><trkpt lat="36.917634" lon="-3.6080735"><ele>785.6</ele><time>2026-03-07T10:12:04.001Z</time></trkpt><trkpt lat="36.9176088" lon="-3.6079864"><ele>785.0</ele><time>2026-03-07T10:12:05.012Z</time></trkpt><trkpt lat="36.9175764" lon="-3.6079008"><ele>783.2857142857143</ele><time>2026-03-07T10:12:06.011Z</time></trkpt><trkpt lat="36.9175467" lon="-3.6078218"><ele>781.5714285714286</ele><time>2026-03-07T10:12:07.01Z</time></trkpt><trkpt lat="36.9175093" lon="-3.607748"><ele>779.8571428571429</ele><time>2026-03-07T10:12:08.012Z</time></trkpt><trkpt lat="36.9174689" lon="-3.6076732"><ele>778.1428571428571</ele><time>2026-03-07T10:12:08.996Z</time></trkpt><trkpt lat="36.9174167" lon="-3.6075938"><ele>776.4285714285713</ele><time>2026-03-07T10:12:10.008Z</time></trkpt><trkpt lat="36.9173756" lon="-3.6075131"><ele>774.7142857142857</ele><time>2026-03-07T10:12:11.011Z</time></trkpt><trkpt lat="36.9173498" lon="-3.6074218"><ele>773.0</ele><time>2026-03-07T10:12:12.009Z</time></trkpt><trkpt lat="36.9173367" lon="-3.6073232"><ele>773.0000000000001</ele><time>2026-03-07T10:12:13.005Z</time></trkpt><trkpt lat="36.9173423" lon="-3.6072357"><ele>773.0</ele><time>2026-03-07T10:12:14.01Z</time></trkpt><trkpt lat="36.9173555" lon="-3.607158"><ele>773.0</ele><time>2026-03-07T10:12:14.999Z</time></trkpt><trkpt lat="36.9173719" lon="-3.6070003"><ele>773.0</ele><time>2026-03-07T10:12:17.011Z</time></trkpt><trkpt lat="36.9173671" lon="-3.6069182"><ele>773.0000000000001</ele><time>2026-03-07T10:12:18.004Z</time></trkpt><trkpt lat="36.9173479" lon="-3.6068391"><ele>773.0</ele><time>2026-03-07T10:12:19.002Z</time></trkpt><trkpt lat="36.9173215" lon="-3.6067625"><ele>772.0000000000001</ele><time>2026-03-07T10:12:20.003Z</time></trkpt><trkpt lat="36.9172942" lon="-3.6066821"><ele>771.0</ele><time>2026-03-07T10:12:21.004Z</time></trkpt><trkpt lat="36.9172682" lon="-3.6065883"><ele>770.0</ele><time>2026-03-07T10:12:22.011Z</time></trkpt><trkpt lat="36.9172365" lon="-3.6064919"><ele>769.0</ele><time>2026-03-07T10:12:23.011Z</time></trkpt><trkpt lat="36.9172171" lon="-3.6063921"><ele>768.0</ele><time>2026-03-07T10:12:24.005Z</time></trkpt><trkpt lat="36.9172036" lon="-3.6062925"><ele>767.0</ele><time>2026-03-07T10:12:25.014Z</time></trkpt><trkpt lat="36.9172054" lon="-3.6061896"><ele>765.6666666666666</ele><time>2026-03-07T10:12:26.019Z</time></trkpt><trkpt lat="36.9172055" lon="-3.6060859"><ele>764.3333333333333</ele><time>2026-03-07T10:12:27Z</time></trkpt><trkpt lat="36.9171975" lon="-3.6059844"><ele>763.0</ele><time>2026-03-07T10:12:28.009Z</time></trkpt><trkpt lat="36.9171806" lon="-3.6058781"><ele>761.6666666666666</ele><time>2026-03-07T10:12:28.999Z</time></trkpt><trkpt lat="36.917176" lon="-3.6057702"><ele>760.3333333333334</ele><time>2026-03-07T10:12:30.005Z</time></trkpt><trkpt lat="36.9171736" lon="-3.6056808"><ele>759.0</ele><time>2026-03-07T10:12:31.002Z</time></trkpt><trkpt lat="36.9171916" lon="-3.6055497"><ele>759.0</ele><time>2026-03-07T10:12:33.001Z</time></trkpt><trkpt lat="36.9172174" lon="-3.605447"><ele>759.0</ele><time>2026-03-07T10:12:36Z</time></trkpt><trkpt lat="36.9172629" lon="-3.605348"><ele>759.0</ele><time>2026-03-07T10:12:38.02Z</time></trkpt><trkpt lat="36.9173007" lon="-3.6052374"><ele>759.0</ele><time>2026-03-07T10:12:39.993Z</time></trkpt><trkpt lat="36.9172713" lon="-3.6053223"><ele>759.0</ele><time>2026-03-07T10:13:01.986Z</time></trkpt><trkpt lat="36.9172432" lon="-3.6054281"><ele>759.0</ele><time>2026-03-07T10:13:04.001Z</time></trkpt><trkpt lat="36.9171437" lon="-3.6055296"><ele>759.0</ele><time>2026-03-07T10:13:05.996Z</time></trkpt><trkpt lat="36.9170732" lon="-3.6055784"><ele>759.0</ele><time>2026-03-07T10:13:06.991Z</time></trkpt><trkpt lat="36.9170087" lon="-3.605615"><ele>759.0</ele><time>2026-03-07T10:13:08.016Z</time></trkpt><trkpt lat="36.9169198" lon="-3.6056608"><ele>759.0</ele><time>2026-03-07T10:13:09.991Z</time></trkpt><trkpt lat="36.9168329" lon="-3.6056509"><ele>759.0</ele><time>2026-03-07T10:13:11.994Z</time></trkpt><trkpt lat="36.916747" lon="-3.6056051"><ele>759.0</ele><time>2026-03-07T10:13:14.009Z</time></trkpt><trkpt lat="36.9166673" lon="-3.6055299"><ele>759.0</ele><time>2026-03-07T10:13:15.997Z</time></trkpt><trkpt lat="36.9165599" lon="-3.6054406"><ele>759.0</ele><time>2026-03-07T10:13:17.995Z</time></trkpt><trkpt lat="36.916491" lon="-3.6053855"><ele>759.0</ele><time>2026-03-07T10:13:19.001Z</time></trkpt><trkpt lat="36.9164233" lon="-3.6053247"><ele>759.0</ele><time>2026-03-07T10:13:20.002Z</time></trkpt><trkpt lat="36.9163696" lon="-3.6052515"><ele>759.0</ele><time>2026-03-07T10:13:21.009Z</time></trkpt><trkpt lat="36.9163323" lon="-3.6051788"><ele>759.0</ele><time>2026-03-07T10:13:21.991Z</time></trkpt><trkpt lat="36.9163058" lon="-3.6050444"><ele>759.0</ele><time>2026-03-07T10:13:24.001Z</time></trkpt><trkpt lat="36.9162821" lon="-3.604913"><ele>759.0</ele><time>2026-03-07T10:13:25.999Z</time></trkpt><trkpt lat="36.9162515" lon="-3.6047629"><ele>759.0</ele><time>2026-03-07T10:13:28.004Z</time></trkpt><trkpt lat="36.9162274" lon="-3.6046761"><ele>759.0</ele><time>2026-03-07T10:13:28.995Z</time></trkpt><trkpt lat="36.9161972" lon="-3.60459"><ele>759.0</ele><time>2026-03-07T10:13:29.982Z</time></trkpt><trkpt lat="36.916156" lon="-3.6045149"><ele>760.1666666666666</ele><time>2026-03-07T10:13:31.003Z</time></trkpt><trkpt lat="36.9161056" lon="-3.6044443"><ele>761.3333333333334</ele><time>2026-03-07T10:13:31.997Z</time></trkpt><trkpt lat="36.9160453" lon="-3.6043954"><ele>762.5</ele><time>2026-03-07T10:13:33.004Z</time></trkpt><trkpt lat="36.9159781" lon="-3.6043699"><ele>763.6666666666667</ele><time>2026-03-07T10:13:33.992Z</time></trkpt><trkpt lat="36.9159001" lon="-3.604355"><ele>764.8333333333334</ele><time>2026-03-07T10:13:35.003Z</time></trkpt><trkpt lat="36.9158145" lon="-3.6043515"><ele>766.0</ele><time>2026-03-07T10:13:36.003Z</time></trkpt><trkpt lat="36.915727" lon="-3.6043546"><ele>767.6666666666667</ele><time>2026-03-07T10:13:37Z</time></trkpt><trkpt lat="36.9156393" lon="-3.6043578"><ele>769.3333333333334</ele><time>2026-03-07T10:13:37.998Z</time></trkpt><trkpt lat="36.9155526" lon="-3.6043569"><ele>771.0</ele><time>2026-03-07T10:13:38.989Z</time></trkpt><trkpt lat="36.9154702" lon="-3.6043473"><ele>772.6666666666667</ele><time>2026-03-07T10:13:40.002Z</time></trkpt><trkpt lat="36.9154022" lon="-3.6043309"><ele>774.3333333333334</ele><time>2026-03-07T10:13:41.013Z</time></trkpt><trkpt lat="36.9153441" lon="-3.6042906"><ele>776.0</ele><time>2026-03-07T10:13:42.003Z</time></trkpt><trkpt lat="36.9153" lon="-3.6042236"><ele>776.0000000000001</ele><time>2026-03-07T10:13:42.998Z</time></trkpt><trkpt lat="36.9152663" lon="-3.6041461"><ele>776.0</ele><time>2026-03-07T10:13:44Z</time></trkpt><trkpt lat="36.9152328" lon="-3.6040794"><ele>776.0</ele><time>2026-03-07T10:13:45.011Z</time></trkpt><trkpt lat="36.9151427" lon="-3.6039616"><ele>776.0</ele><time>2026-03-07T10:13:46.995Z</time></trkpt><trkpt lat="36.9150912" lon="-3.603901"><ele>776.0000000000001</ele><time>2026-03-07T10:13:48.004Z</time></trkpt><trkpt lat="36.9150416" lon="-3.6038454"><ele>776.0</ele><time>2026-03-07T10:13:49.008Z</time></trkpt><trkpt lat="36.9149214" lon="-3.6037995"><ele>778.1666666666667</ele><time>2026-03-07T10:13:50.993Z</time></trkpt><trkpt lat="36.9148456" lon="-3.6038006"><ele>780.3333333333334</ele><time>2026-03-07T10:13:51.998Z</time></trkpt><trkpt lat="36.9147595" lon="-3.603818"><ele>782.5</ele><time>2026-03-07T10:13:53.009Z</time></trkpt><trkpt lat="36.9146775" lon="-3.6038512"><ele>784.6666666666667</ele><time>2026-03-07T10:13:53.991Z</time></trkpt><trkpt lat="36.9145977" lon="-3.6038939"><ele>786.8333333333334</ele><time>2026-03-07T10:13:54.999Z</time></trkpt><trkpt lat="36.9145211" lon="-3.6039379"><ele>789.0</ele><time>2026-03-07T10:13:55.991Z</time></trkpt><trkpt lat="36.9144476" lon="-3.6039676"><ele>789.0</ele><time>2026-03-07T10:13:57.002Z</time></trkpt><trkpt lat="36.9143775" lon="-3.6039948"><ele>789.0</ele><time>2026-03-07T10:13:58.006Z</time></trkpt><trkpt lat="36.9143079" lon="-3.6040037"><ele>789.0</ele><time>2026-03-07T10:13:59.002Z</time></trkpt><trkpt lat="36.9142423" lon="-3.6039983"><ele>789.0</ele><time>2026-03-07T10:13:59.999Z</time></trkpt><trkpt lat="36.914141" lon="-3.6040189"><ele>789.0</ele><time>2026-03-07T10:14:02.005Z</time></trkpt><trkpt lat="36.9140448" lon="-3.6040574"><ele>789.0</ele><time>2026-03-07T10:14:04.007Z</time></trkpt><trkpt lat="36.913946" lon="-3.6041028"><ele>791.8000000000001</ele><time>2026-03-07T10:14:06.001Z</time></trkpt><trkpt lat="36.9138681" lon="-3.6041388"><ele>794.6</ele><time>2026-03-07T10:14:07.994Z</time></trkpt><trkpt lat="36.9138232" lon="-3.6042047"><ele>797.4</ele><time>2026-03-07T10:14:16.997Z</time></trkpt><trkpt lat="36.9137667" lon="-3.6042953"><ele>800.2</ele><time>2026-03-07T10:14:18.993Z</time></trkpt><trkpt lat="36.9136724" lon="-3.6043355"><ele>803.0</ele><time>2026-03-07T10:14:21.009Z</time></trkpt><trkpt lat="36.9136142" lon="-3.6042083"><ele>803.0000000000001</ele><time>2026-03-07T10:14:23.001Z</time></trkpt><trkpt lat="36.9136091" lon="-3.604113"><ele>803.0</ele><time>2026-03-07T10:14:24Z</time></trkpt><trkpt lat="36.9135967" lon="-3.6040154"><ele>803.0</ele><time>2026-03-07T10:14:25.004Z</time></trkpt><trkpt lat="36.9135691" lon="-3.6039219"><ele>803.0</ele><time>2026-03-07T10:14:26.012Z</time></trkpt><trkpt lat="36.9135359" lon="-3.6038358"><ele>803.0000000000001</ele><time>2026-03-07T10:14:27.003Z</time></trkpt><trkpt lat="36.9135066" lon="-3.6037457"><ele>803.0</ele><time>2026-03-07T10:14:28.004Z</time></trkpt><trkpt lat="36.9134892" lon="-3.6036471"><ele>801.8</ele><time>2026-03-07T10:14:28.997Z</time></trkpt><trkpt lat="36.9134729" lon="-3.6035339"><ele>800.5999999999999</ele><time>2026-03-07T10:14:29.998Z</time></trkpt><trkpt lat="36.9134362" lon="-3.6034067"><ele>799.4000000000001</ele><time>2026-03-07T10:14:31.003Z</time></trkpt><trkpt lat="36.9133779" lon="-3.6032732"><ele>798.2</ele><time>2026-03-07T10:14:31.989Z</time></trkpt><trkpt lat="36.9133238" lon="-3.6031386"><ele>797.0</ele><time>2026-03-07T10:14:33.004Z</time></trkpt><trkpt lat="36.9132872" lon="-3.6030112"><ele>798.6</ele><time>2026-03-07T10:14:33.999Z</time></trkpt><trkpt lat="36.9132788" lon="-3.6028908"><ele>800.2</ele><time>2026-03-07T10:14:35.001Z</time></trkpt><trkpt lat="36.9132696" lon="-3.6027775"><ele>801.8</ele><time>2026-03-07T10:14:36.001Z</time></trkpt><trkpt lat="36.913249" lon="-3.6026634"><ele>803.4</ele><time>2026-03-07T10:14:36.993Z</time></trkpt><trkpt lat="36.9132001" lon="-3.6025519"><ele>805.0</ele><time>2026-03-07T10:14:38.006Z</time></trkpt><trkpt lat="36.9131515" lon="-3.6024442"><ele>804.9999999999999</ele><time>2026-03-07T10:14:39.012Z</time></trkpt><trkpt lat="36.9131152" lon="-3.6023439"><ele>805.0</ele><time>2026-03-07T10:14:39.998Z</time></trkpt><trkpt lat="36.9130713" lon="-3.602266"><ele>805.0</ele><time>2026-03-07T10:14:40.997Z</time></trkpt><trkpt lat="36.9130279" lon="-3.602203"><ele>805.0</ele><time>2026-03-07T10:14:42.002Z</time></trkpt><trkpt lat="36.9130138" lon="-3.602053"><ele>804.9999999999999</ele><time>2026-03-07T10:14:43.999Z</time></trkpt><trkpt lat="36.9130625" lon="-3.6019957"><ele>805.0</ele><time>2026-03-07T10:14:45.002Z</time></trkpt><trkpt lat="36.9131188" lon="-3.6019501"><ele>804.7142857142857</ele><time>2026-03-07T10:14:46.003Z</time></trkpt><trkpt lat="36.9131762" lon="-3.6018941"><ele>804.4285714285714</ele><time>2026-03-07T10:14:47Z</time></trkpt><trkpt lat="36.913228" lon="-3.6018325"><ele>804.1428571428571</ele><time>2026-03-07T10:14:47.999Z</time></trkpt><trkpt lat="36.9132711" lon="-3.6017657"><ele>803.8571428571429</ele><time>2026-03-07T10:14:49Z</time></trkpt><trkpt lat="36.9132986" lon="-3.6016874"><ele>803.5714285714286</ele><time>2026-03-07T10:14:50.004Z</time></trkpt><trkpt lat="36.913306" lon="-3.6015898"><ele>803.2857142857142</ele><time>2026-03-07T10:14:50.994Z</time></trkpt><trkpt lat="36.9132913" lon="-3.6014807"><ele>803.0</ele><time>2026-03-07T10:14:52.005Z</time></trkpt><trkpt lat="36.9132652" lon="-3.6013733"><ele>803.0</ele><time>2026-03-07T10:14:52.988Z</time></trkpt><trkpt lat="36.9132434" lon="-3.6012681"><ele>803.0</ele><time>2026-03-07T10:14:54Z</time></trkpt><trkpt lat="36.9132337" lon="-3.6011599"><ele>803.0</ele><time>2026-03-07T10:14:55.01Z</time></trkpt><trkpt lat="36.913237" lon="-3.6010462"><ele>803.0</ele><time>2026-03-07T10:14:56.008Z</time></trkpt><trkpt lat="36.913242" lon="-3.6009271"><ele>803.0</ele><time>2026-03-07T10:14:57.001Z</time></trkpt><trkpt lat="36.913254" lon="-3.6008071"><ele>802.2</ele><time>2026-03-07T10:14:58.003Z</time></trkpt><trkpt lat="36.9132677" lon="-3.6006838"><ele>801.4</ele><time>2026-03-07T10:14:59.007Z</time></trkpt><trkpt lat="36.9132815" lon="-3.6005605"><ele>800.6</ele><time>2026-03-07T10:14:59.996Z</time></trkpt><trkpt lat="36.9133027" lon="-3.6004429"><ele>799.8000000000001</ele><time>2026-03-07T10:15:01.002Z</time></trkpt><trkpt lat="36.9133307" lon="-3.6003299"><ele>799.0</ele><time>2026-03-07T10:15:02.004Z</time></trkpt><trkpt lat="36.9133689" lon="-3.600219"><ele>794.4000000000001</ele><time>2026-03-07T10:15:03.009Z</time></trkpt><trkpt lat="36.91342" lon="-3.6001129"><ele>789.8</ele><time>2026-03-07T10:15:03.997Z</time></trkpt><trkpt lat="36.913464" lon="-3.6000024"><ele>785.2</ele><time>2026-03-07T10:15:04.989Z</time></trkpt><trkpt lat="36.9135084" lon="-3.5998937"><ele>780.5999999999999</ele><time>2026-03-07T10:15:05.991Z</time></trkpt><trkpt lat="36.9135546" lon="-3.5997907"><ele>776.0</ele><time>2026-03-07T10:15:06.997Z</time></trkpt><trkpt lat="36.9136074" lon="-3.5997051"><ele>776.0000000000001</ele><time>2026-03-07T10:15:07.993Z</time></trkpt><trkpt lat="36.9136318" lon="-3.5996117"><ele>776.0</ele><time>2026-03-07T10:15:08.99Z</time></trkpt><trkpt lat="36.9136238" lon="-3.5995024"><ele>776.0</ele><time>2026-03-07T10:15:09.99Z</time></trkpt><trkpt lat="36.9136029" lon="-3.5993811"><ele>776.0</ele><time>2026-03-07T10:15:10.987Z</time></trkpt><trkpt lat="36.9135911" lon="-3.5992664"><ele>776.0000000000001</ele><time>2026-03-07T10:15:12.002Z</time></trkpt><trkpt lat="36.9135935" lon="-3.5991574"><ele>776.0</ele><time>2026-03-07T10:15:13.006Z</time></trkpt><trkpt lat="36.913591" lon="-3.5990555"><ele>775.1666666666667</ele><time>2026-03-07T10:15:14Z</time></trkpt><trkpt lat="36.913564" lon="-3.5989646"><ele>774.3333333333334</ele><time>2026-03-07T10:15:14.999Z</time></trkpt><trkpt lat="36.9135089" lon="-3.5988747"><ele>773.5</ele><time>2026-03-07T10:15:15.996Z</time></trkpt><trkpt lat="36.9134721" lon="-3.5987708"><ele>772.6666666666667</ele><time>2026-03-07T10:15:16.989Z</time></trkpt><trkpt lat="36.9134547" lon="-3.5986616"><ele>771.8333333333334</ele><time>2026-03-07T10:15:18.007Z</time></trkpt><trkpt lat="36.9134552" lon="-3.5985499"><ele>771.0</ele><time>2026-03-07T10:15:18.999Z</time></trkpt><trkpt lat="36.9134649" lon="-3.5984378"><ele>769.8333333333334</ele><time>2026-03-07T10:15:20.004Z</time></trkpt><trkpt lat="36.9134744" lon="-3.5983319"><ele>768.6666666666666</ele><time>2026-03-07T10:15:20.996Z</time></trkpt><trkpt lat="36.9134825" lon="-3.5982375"><ele>767.5</ele><time>2026-03-07T10:15:22.01Z</time></trkpt><trkpt lat="36.913473" lon="-3.5981573"><ele>766.3333333333333</ele><time>2026-03-07T10:15:22.996Z</time></trkpt><trkpt lat="36.913397" lon="-3.5980536"><ele>765.1666666666666</ele><time>2026-03-07T10:15:24.993Z</time></trkpt><trkpt lat="36.9133447" lon="-3.5980062"><ele>764.0</ele><time>2026-03-07T10:15:26Z</time></trkpt><trkpt lat="36.9133037" lon="-3.5979422"><ele>764.7142857142858</ele><time>2026-03-07T10:15:27.003Z</time></trkpt><trkpt lat="36.9132766" lon="-3.5978622"><ele>765.4285714285713</ele><time>2026-03-07T10:15:28.008Z</time></trkpt><trkpt lat="36.9132741" lon="-3.5977691"><ele>766.1428571428571</ele><time>2026-03-07T10:15:28.992Z</time></trkpt><trkpt lat="36.9133049" lon="-3.5976787"><ele>766.8571428571429</ele><time>2026-03-07T10:15:30.004Z</time></trkpt><trkpt lat="36.9133433" lon="-3.5976032"><ele>767.5714285714287</ele><time>2026-03-07T10:15:30.984Z</time></trkpt><trkpt lat="36.9133764" lon="-3.5975317"><ele>768.2857142857142</ele><time>2026-03-07T10:15:31.986Z</time></trkpt><trkpt lat="36.9134104" lon="-3.5974556"><ele>769.0</ele><time>2026-03-07T10:15:32.996Z</time></trkpt><trkpt lat="36.913442" lon="-3.5973727"><ele>769.0</ele><time>2026-03-07T10:15:34.006Z</time></trkpt><trkpt lat="36.9134453" lon="-3.5972782"><ele>769.0</ele><time>2026-03-07T10:15:34.993Z</time></trkpt><trkpt lat="36.9134348" lon="-3.5971759"><ele>769.0</ele><time>2026-03-07T10:15:35.974Z</time></trkpt><trkpt lat="36.9134196" lon="-3.5970634"><ele>769.0</ele><time>2026-03-07T10:15:36.989Z</time></trkpt><trkpt lat="36.9133991" lon="-3.5969403"><ele>769.0</ele><time>2026-03-07T10:15:37.995Z</time></trkpt><trkpt lat="36.9133744" lon="-3.5968097"><ele>772.75</ele><time>2026-03-07T10:15:39.004Z</time></trkpt><trkpt lat="36.9133458" lon="-3.5966713"><ele>776.5</ele><time>2026-03-07T10:15:39.988Z</time></trkpt><trkpt lat="36.9133214" lon="-3.5965223"><ele>780.25</ele><time>2026-03-07T10:15:41.008Z</time></trkpt><trkpt lat="36.9132961" lon="-3.5963672"><ele>784.0</ele><time>2026-03-07T10:15:41.994Z</time></trkpt><trkpt lat="36.9132688" lon="-3.5962131"><ele>784.25</ele><time>2026-03-07T10:15:43.007Z</time></trkpt><trkpt lat="36.9132378" lon="-3.5960654"><ele>784.5</ele><time>2026-03-07T10:15:43.985Z</time></trkpt><trkpt lat="36.9132132" lon="-3.5959242"><ele>784.75</ele><time>2026-03-07T10:15:44.998Z</time></trkpt><trkpt lat="36.9131903" lon="-3.5957827"><ele>785.0</ele><time>2026-03-07T10:15:45.997Z</time></trkpt><trkpt lat="36.9131664" lon="-3.5956414"><ele>785.0</ele><time>2026-03-07T10:15:47.008Z</time></trkpt><trkpt lat="36.9131393" lon="-3.5955049"><ele>785.0</ele><time>2026-03-07T10:15:47.998Z</time></trkpt><trkpt lat="36.9131019" lon="-3.5953814"><ele>785.0</ele><time>2026-03-07T10:15:49.005Z</time></trkpt><trkpt lat="36.9130577" lon="-3.5952655"><ele>785.0</ele><time>2026-03-07T10:15:50.002Z</time></trkpt><trkpt lat="36.9130062" lon="-3.5951515"><ele>785.0</ele><time>2026-03-07T10:15:50.983Z</time></trkpt><trkpt lat="36.9129609" lon="-3.5950357"><ele>784.6</ele><time>2026-03-07T10:15:52.01Z</time></trkpt><trkpt lat="36.9129246" lon="-3.5949212"><ele>784.2</ele><time>2026-03-07T10:15:53.002Z</time></trkpt><trkpt lat="36.9129089" lon="-3.5948074"><ele>783.8</ele><time>2026-03-07T10:15:54.006Z</time></trkpt><trkpt lat="36.9128951" lon="-3.594699"><ele>783.4</ele><time>2026-03-07T10:15:54.999Z</time></trkpt><trkpt lat="36.9128807" lon="-3.594584"><ele>783.0</ele><time>2026-03-07T10:15:55.996Z</time></trkpt><trkpt lat="36.9128349" lon="-3.5944735"><ele>780.0</ele><time>2026-03-07T10:15:56.989Z</time></trkpt><trkpt lat="36.9127774" lon="-3.5943719"><ele>777.0</ele><time>2026-03-07T10:15:58.003Z</time></trkpt><trkpt lat="36.9127147" lon="-3.5942826"><ele>774.0</ele><time>2026-03-07T10:15:59.008Z</time></trkpt><trkpt lat="36.9126436" lon="-3.5942051"><ele>771.0</ele><time>2026-03-07T10:15:59.998Z</time></trkpt><trkpt lat="36.9125636" lon="-3.5941382"><ele>768.0</ele><time>2026-03-07T10:16:01.002Z</time></trkpt><trkpt lat="36.9124806" lon="-3.5940884"><ele>774.0</ele><time>2026-03-07T10:16:02.002Z</time></trkpt><trkpt lat="36.9124089" lon="-3.5940492"><ele>780.0</ele><time>2026-03-07T10:16:02.999Z</time></trkpt><trkpt lat="36.9122985" lon="-3.5940319"><ele>786.0</ele><time>2026-03-07T10:16:04.996Z</time></trkpt><trkpt lat="36.912201" lon="-3.5941034"><ele>792.0</ele><time>2026-03-07T10:16:06.995Z</time></trkpt><trkpt lat="36.9121652" lon="-3.5941758"><ele>798.0</ele><time>2026-03-07T10:16:08.01Z</time></trkpt><trkpt lat="36.9121286" lon="-3.5942658"><ele>798.0</ele><time>2026-03-07T10:16:08.99Z</time></trkpt><trkpt lat="36.91209" lon="-3.5943722"><ele>798.0</ele><time>2026-03-07T10:16:09.992Z</time></trkpt><trkpt lat="36.9120556" lon="-3.5945025"><ele>798.0</ele><time>2026-03-07T10:16:11.008Z</time></trkpt><trkpt lat="36.9120263" lon="-3.5946472"><ele>798.0</ele><time>2026-03-07T10:16:11.996Z</time></trkpt><trkpt lat="36.912007" lon="-3.5947835"><ele>798.0</ele><time>2026-03-07T10:16:13.01Z</time></trkpt><trkpt lat="36.9119919" lon="-3.5949086"><ele>798.4</ele><time>2026-03-07T10:16:14.02Z</time></trkpt><trkpt lat="36.9119705" lon="-3.5950307"><ele>798.8</ele><time>2026-03-07T10:16:15.001Z</time></trkpt><trkpt lat="36.9119322" lon="-3.5951415"><ele>799.2</ele><time>2026-03-07T10:16:16.008Z</time></trkpt><trkpt lat="36.9118823" lon="-3.5952402"><ele>799.6</ele><time>2026-03-07T10:16:17.001Z</time></trkpt><trkpt lat="36.9118245" lon="-3.5953357"><ele>800.0</ele><time>2026-03-07T10:16:17.999Z</time></trkpt><trkpt lat="36.9117641" lon="-3.595415"><ele>804.0</ele><time>2026-03-07T10:16:19.013Z</time></trkpt><trkpt lat="36.9117127" lon="-3.5954876"><ele>808.0</ele><time>2026-03-07T10:16:20.004Z</time></trkpt><trkpt lat="36.9116831" lon="-3.5955734"><ele>812.0</ele><time>2026-03-07T10:16:21.002Z</time></trkpt><trkpt lat="36.9116838" lon="-3.5956843"><ele>816.0</ele><time>2026-03-07T10:16:22.005Z</time></trkpt><trkpt lat="36.9116938" lon="-3.5958141"><ele>820.0</ele><time>2026-03-07T10:16:22.993Z</time></trkpt><trkpt lat="36.9117112" lon="-3.5959521"><ele>820.0</ele><time>2026-03-07T10:16:23.99Z</time></trkpt><trkpt lat="36.9117255" lon="-3.5960865"><ele>820.0</ele><time>2026-03-07T10:16:24.997Z</time></trkpt><trkpt lat="36.911737" lon="-3.5962165"><ele>820.0</ele><time>2026-03-07T10:16:25.998Z</time></trkpt><trkpt lat="36.911758" lon="-3.5963456"><ele>820.0</ele><time>2026-03-07T10:16:27.031Z</time></trkpt><trkpt lat="36.9117839" lon="-3.5964746"><ele>820.0</ele><time>2026-03-07T10:16:27.992Z</time></trkpt><trkpt lat="36.91181" lon="-3.5965981"><ele>819.4999999999999</ele><time>2026-03-07T10:16:29.007Z</time></trkpt><trkpt lat="36.9118307" lon="-3.5967124"><ele>819.0</ele><time>2026-03-07T10:16:30.002Z</time></trkpt><trkpt lat="36.9118402" lon="-3.5968144"><ele>818.5</ele><time>2026-03-07T10:16:30.994Z</time></trkpt><trkpt lat="36.9118405" lon="-3.5969116"><ele>818.0</ele><time>2026-03-07T10:16:31.998Z</time></trkpt><trkpt lat="36.9118312" lon="-3.5969946"><ele>817.4999999999999</ele><time>2026-03-07T10:16:33.01Z</time></trkpt><trkpt lat="36.9117877" lon="-3.5971307"><ele>817.0</ele><time>2026-03-07T10:16:34.993Z</time></trkpt><trkpt lat="36.9116851" lon="-3.5971726"><ele>816.9999999999999</ele><time>2026-03-07T10:16:36.992Z</time></trkpt><trkpt lat="36.9116145" lon="-3.5971453"><ele>817.0</ele><time>2026-03-07T10:16:38Z</time></trkpt><trkpt lat="36.911544" lon="-3.5970765"><ele>817.0</ele><time>2026-03-07T10:16:38.995Z</time></trkpt><trkpt lat="36.9114852" lon="-3.5969878"><ele>817.0</ele><time>2026-03-07T10:16:40Z</time></trkpt><trkpt lat="36.911423" lon="-3.5969055"><ele>816.9999999999999</ele><time>2026-03-07T10:16:40.99Z</time></trkpt><trkpt lat="36.9113539" lon="-3.596866"><ele>817.0</ele><time>2026-03-07T10:16:41.999Z</time></trkpt><trkpt lat="36.9112553" lon="-3.5968496"><ele>819.0</ele><time>2026-03-07T10:16:42.991Z</time></trkpt><trkpt lat="36.9111429" lon="-3.5968443"><ele>821.0</ele><time>2026-03-07T10:16:43.988Z</time></trkpt><trkpt lat="36.9110337" lon="-3.596828"><ele>823.0</ele><time>2026-03-07T10:16:44.999Z</time></trkpt><trkpt lat="36.9109354" lon="-3.5967935"><ele>825.0</ele><time>2026-03-07T10:16:45.992Z</time></trkpt><trkpt lat="36.9108456" lon="-3.5967455"><ele>827.0</ele><time>2026-03-07T10:16:46.996Z</time></trkpt><trkpt lat="36.9107641" lon="-3.5966843"><ele>828.8</ele><time>2026-03-07T10:16:48.001Z</time></trkpt><trkpt lat="36.9106812" lon="-3.5966405"><ele>830.6</ele><time>2026-03-07T10:16:49.017Z</time></trkpt><trkpt lat="36.9106006" lon="-3.5966057"><ele>832.4</ele><time>2026-03-07T10:16:49.996Z</time></trkpt><trkpt lat="36.9105103" lon="-3.5966085"><ele>834.1999999999999</ele><time>2026-03-07T10:16:51.001Z</time></trkpt><trkpt lat="36.9104145" lon="-3.5966163"><ele>836.0</ele><time>2026-03-07T10:16:51.998Z</time></trkpt><trkpt lat="36.9103176" lon="-3.5965833"><ele>836.0000000000001</ele><time>2026-03-07T10:16:53.026Z</time></trkpt><trkpt lat="36.9102227" lon="-3.5965233"><ele>836.0</ele><time>2026-03-07T10:16:53.992Z</time></trkpt><trkpt lat="36.910136" lon="-3.5964774"><ele>836.0</ele><time>2026-03-07T10:16:54.994Z</time></trkpt><trkpt lat="36.9100578" lon="-3.5964406"><ele>836.0</ele><time>2026-03-07T10:16:56.011Z</time></trkpt><trkpt lat="36.9099879" lon="-3.5964058"><ele>836.0000000000001</ele><time>2026-03-07T10:16:57.004Z</time></trkpt><trkpt lat="36.9099194" lon="-3.5963804"><ele>836.0</ele><time>2026-03-07T10:16:58.002Z</time></trkpt><trkpt lat="36.9098511" lon="-3.5963564"><ele>837.6666666666667</ele><time>2026-03-07T10:16:58.99Z</time></trkpt><trkpt lat="36.9097819" lon="-3.5963474"><ele>839.3333333333334</ele><time>2026-03-07T10:16:59.999Z</time></trkpt><trkpt lat="36.9097129" lon="-3.5963533"><ele>841.0</ele><time>2026-03-07T10:17:01.004Z</time></trkpt><trkpt lat="36.9096366" lon="-3.5963774"><ele>842.6666666666667</ele><time>2026-03-07T10:17:02.003Z</time></trkpt><trkpt lat="36.9095512" lon="-3.5964093"><ele>844.3333333333334</ele><time>2026-03-07T10:17:03.021Z</time></trkpt><trkpt lat="36.9094687" lon="-3.5964491"><ele>846.0</ele><time>2026-03-07T10:17:04.006Z</time></trkpt><trkpt lat="36.9093883" lon="-3.5964885"><ele>846.0</ele><time>2026-03-07T10:17:04.997Z</time></trkpt><trkpt lat="36.9093219" lon="-3.5965302"><ele>846.0</ele><time>2026-03-07T10:17:06.003Z</time></trkpt><trkpt lat="36.9092072" lon="-3.5966004"><ele>846.0</ele><time>2026-03-07T10:17:08.01Z</time></trkpt><trkpt lat="36.9091381" lon="-3.5966438"><ele>846.0</ele><time>2026-03-07T10:17:09.01Z</time></trkpt><trkpt lat="36.9090647" lon="-3.5966901"><ele>846.0</ele><time>2026-03-07T10:17:10.009Z</time></trkpt><trkpt lat="36.9089921" lon="-3.5967378"><ele>846.0</ele><time>2026-03-07T10:17:11.004Z</time></trkpt><trkpt lat="36.9089156" lon="-3.5967788"><ele>847.6666666666666</ele><time>2026-03-07T10:17:12.015Z</time></trkpt><trkpt lat="36.9088419" lon="-3.5968172"><ele>849.3333333333333</ele><time>2026-03-07T10:17:13.004Z</time></trkpt><trkpt lat="36.9087702" lon="-3.5968344"><ele>851.0</ele><time>2026-03-07T10:17:13.993Z</time></trkpt><trkpt lat="36.908667" lon="-3.5967442"><ele>852.6666666666666</ele><time>2026-03-07T10:17:16.006Z</time></trkpt><trkpt lat="36.9086441" lon="-3.5966562"><ele>854.3333333333333</ele><time>2026-03-07T10:17:17.005Z</time></trkpt><trkpt lat="36.9086566" lon="-3.5965588"><ele>856.0</ele><time>2026-03-07T10:17:17.998Z</time></trkpt><trkpt lat="36.9087033" lon="-3.5964762"><ele>855.9999999999999</ele><time>2026-03-07T10:17:19.007Z</time></trkpt><trkpt lat="36.9087374" lon="-3.5963977"><ele>856.0</ele><time>2026-03-07T10:17:20.018Z</time></trkpt><trkpt lat="36.9087655" lon="-3.5963153"><ele>856.0</ele><time>2026-03-07T10:17:20.999Z</time></trkpt><trkpt lat="36.9087796" lon="-3.5962221"><ele>856.0</ele><time>2026-03-07T10:17:22.001Z</time></trkpt><trkpt lat="36.9087672" lon="-3.5961278"><ele>855.9999999999999</ele><time>2026-03-07T10:17:23.032Z</time></trkpt><trkpt lat="36.9087316" lon="-3.5960345"><ele>856.0</ele><time>2026-03-07T10:17:24.002Z</time></trkpt><trkpt lat="36.9086898" lon="-3.5959505"><ele>854.4999999999999</ele><time>2026-03-07T10:17:24.995Z</time></trkpt><trkpt lat="36.9086508" lon="-3.5958586"><ele>853.0</ele><time>2026-03-07T10:17:26.011Z</time></trkpt><trkpt lat="36.9086174" lon="-3.5957586"><ele>851.5</ele><time>2026-03-07T10:17:27.003Z</time></trkpt><trkpt lat="36.9085865" lon="-3.5956658"><ele>850.0</ele><time>2026-03-07T10:17:28.012Z</time></trkpt><trkpt lat="36.9085581" lon="-3.5955727"><ele>848.4999999999999</ele><time>2026-03-07T10:17:29.009Z</time></trkpt><trkpt lat="36.9085289" lon="-3.5954853"><ele>847.0</ele><time>2026-03-07T10:17:30.008Z</time></trkpt><trkpt lat="36.9084989" lon="-3.5954009"><ele>845.1666666666666</ele><time>2026-03-07T10:17:30.991Z</time></trkpt><trkpt lat="36.9084728" lon="-3.5953147"><ele>843.3333333333333</ele><time>2026-03-07T10:17:32.007Z</time></trkpt><trkpt lat="36.9084423" lon="-3.5952313"><ele>841.5</ele><time>2026-03-07T10:17:33.014Z</time></trkpt><trkpt lat="36.9084064" lon="-3.5951501"><ele>839.6666666666667</ele><time>2026-03-07T10:17:34.009Z</time></trkpt><trkpt lat="36.9083642" lon="-3.5950595"><ele>837.8333333333334</ele><time>2026-03-07T10:17:34.995Z</time></trkpt><trkpt lat="36.9083199" lon="-3.5949693"><ele>836.0</ele><time>2026-03-07T10:17:36.001Z</time></trkpt><trkpt lat="36.9082757" lon="-3.5948821"><ele>838.0000000000001</ele><time>2026-03-07T10:17:37.008Z</time></trkpt><trkpt lat="36.9082274" lon="-3.5948074"><ele>840.0</ele><time>2026-03-07T10:17:38.007Z</time></trkpt><trkpt lat="36.9081778" lon="-3.5947296"><ele>842.0</ele><time>2026-03-07T10:17:39.006Z</time></trkpt><trkpt lat="36.908132" lon="-3.5946484"><ele>844.0</ele><time>2026-03-07T10:17:40.007Z</time></trkpt><trkpt lat="36.9080852" lon="-3.5945728"><ele>846.0000000000001</ele><time>2026-03-07T10:17:41Z</time></trkpt><trkpt lat="36.9080324" lon="-3.5945055"><ele>848.0</ele><time>2026-03-07T10:17:42.009Z</time></trkpt><trkpt lat="36.9079747" lon="-3.5944436"><ele>848.0000000000001</ele><time>2026-03-07T10:17:43.011Z</time></trkpt><trkpt lat="36.9079045" lon="-3.5943896"><ele>848.0</ele><time>2026-03-07T10:17:44.007Z</time></trkpt><trkpt lat="36.9078267" lon="-3.5943339"><ele>848.0</ele><time>2026-03-07T10:17:45Z</time></trkpt><trkpt lat="36.9077567" lon="-3.5942737"><ele>848.0</ele><time>2026-03-07T10:17:46.013Z</time></trkpt><trkpt lat="36.9076908" lon="-3.5942078"><ele>848.0000000000001</ele><time>2026-03-07T10:17:46.995Z</time></trkpt><trkpt lat="36.907623" lon="-3.5941448"><ele>848.0</ele><time>2026-03-07T10:17:48.009Z</time></trkpt><trkpt lat="36.907549" lon="-3.5940875"><ele>852.3333333333334</ele><time>2026-03-07T10:17:49.002Z</time></trkpt><trkpt lat="36.9074727" lon="-3.5940358"><ele>856.6666666666667</ele><time>2026-03-07T10:17:50.006Z</time></trkpt><trkpt lat="36.9073948" lon="-3.5939847"><ele>861.0</ele><time>2026-03-07T10:17:51.007Z</time></trkpt><trkpt lat="36.9073213" lon="-3.5939366"><ele>865.3333333333333</ele><time>2026-03-07T10:17:52.009Z</time></trkpt><trkpt lat="36.9072546" lon="-3.5938916"><ele>869.6666666666666</ele><time>2026-03-07T10:17:53.001Z</time></trkpt><trkpt lat="36.9071942" lon="-3.5938509"><ele>874.0</ele><time>2026-03-07T10:17:54Z</time></trkpt><trkpt lat="36.9071419" lon="-3.5938012"><ele>870.6</ele><time>2026-03-07T10:17:54.995Z</time></trkpt><trkpt lat="36.907097" lon="-3.5936632"><ele>867.2</ele><time>2026-03-07T10:17:57.004Z</time></trkpt><trkpt lat="36.9071125" lon="-3.5935245"><ele>863.8000000000001</ele><time>2026-03-07T10:17:59.01Z</time></trkpt><trkpt lat="36.9071211" lon="-3.5934203"><ele>860.4000000000001</ele><time>2026-03-07T10:18:01.008Z</time></trkpt><trkpt lat="36.9070888" lon="-3.5933286"><ele>857.0</ele><time>2026-03-07T10:18:04.014Z</time></trkpt><trkpt lat="36.907044" lon="-3.5932708"><ele>857.0000000000001</ele><time>2026-03-07T10:18:07.005Z</time></trkpt><trkpt lat="36.9070268" lon="-3.5931814"><ele>857.0</ele><time>2026-03-07T10:18:10.005Z</time></trkpt><trkpt lat="36.9069785" lon="-3.59306"><ele>857.0</ele><time>2026-03-07T10:18:22.005Z</time></trkpt><trkpt lat="36.9069489" lon="-3.5929857"><ele>857.0</ele><time>2026-03-07T10:18:23.009Z</time></trkpt><trkpt lat="36.9069182" lon="-3.5929108"><ele>857.0000000000001</ele><time>2026-03-07T10:18:24.004Z</time></trkpt><trkpt lat="36.9068938" lon="-3.5928368"><ele>857.0</ele><time>2026-03-07T10:18:25.011Z</time></trkpt><trkpt lat="36.906887" lon="-3.5927461"><ele>856.0000000000001</ele><time>2026-03-07T10:18:26.011Z</time></trkpt><trkpt lat="36.9068911" lon="-3.5926658"><ele>855.0</ele><time>2026-03-07T10:18:27.003Z</time></trkpt><trkpt lat="36.9068528" lon="-3.5925382"><ele>854.0</ele><time>2026-03-07T10:18:28.995Z</time></trkpt><trkpt lat="36.9067722" lon="-3.5924632"><ele>853.0</ele><time>2026-03-07T10:18:31.007Z</time></trkpt><trkpt lat="36.9067097" lon="-3.5924216"><ele>852.0000000000001</ele><time>2026-03-07T10:18:32.006Z</time></trkpt><trkpt lat="36.9066412" lon="-3.5923724"><ele>851.0</ele><time>2026-03-07T10:18:33.01Z</time></trkpt><trkpt lat="36.9065782" lon="-3.5923247"><ele>854.3333333333334</ele><time>2026-03-07T10:18:34Z</time></trkpt><trkpt lat="36.9065151" lon="-3.5922845"><ele>857.6666666666667</ele><time>2026-03-07T10:18:35.012Z</time></trkpt><trkpt lat="36.9064719" lon="-3.5922248"><ele>861.0</ele><time>2026-03-07T10:18:35.998Z</time></trkpt><trkpt lat="36.9064652" lon="-3.5921429"><ele>864.3333333333333</ele><time>2026-03-07T10:18:37.01Z</time></trkpt><trkpt lat="36.9064935" lon="-3.5920668"><ele>867.6666666666666</ele><time>2026-03-07T10:18:37.998Z</time></trkpt><trkpt lat="36.9065315" lon="-3.5919944"><ele>871.0</ele><time>2026-03-07T10:18:39.012Z</time></trkpt><trkpt lat="36.9066105" lon="-3.5918843"><ele>871.0</ele><time>2026-03-07T10:18:41.013Z</time></trkpt><trkpt lat="36.9067055" lon="-3.5917841"><ele>870.9999999999999</ele><time>2026-03-07T10:18:43.003Z</time></trkpt><trkpt lat="36.9067365" lon="-3.5916768"><ele>870.9999999999999</ele><time>2026-03-07T10:18:44.991Z</time></trkpt><trkpt lat="36.9067046" lon="-3.5915779"><ele>871.0</ele><time>2026-03-07T10:18:47.012Z</time></trkpt><trkpt lat="36.9066403" lon="-3.5915015"><ele>871.0</ele><time>2026-03-07T10:18:49.016Z</time></trkpt><trkpt lat="36.90657" lon="-3.5913613"><ele>870.9999999999999</ele><time>2026-03-07T10:18:51.01Z</time></trkpt><trkpt lat="36.9065335" lon="-3.5912577"><ele>871.0</ele><time>2026-03-07T10:18:51.999Z</time></trkpt><trkpt lat="36.9064989" lon="-3.5911435"><ele>871.0</ele><time>2026-03-07T10:18:53.014Z</time></trkpt><trkpt lat="36.9064735" lon="-3.5910311"><ele>871.0</ele><time>2026-03-07T10:18:54.001Z</time></trkpt><trkpt lat="36.9064479" lon="-3.5909314"><ele>870.9999999999999</ele><time>2026-03-07T10:18:55.003Z</time></trkpt><trkpt lat="36.9064253" lon="-3.5908452"><ele>871.0</ele><time>2026-03-07T10:18:56Z</time></trkpt><trkpt lat="36.9063912" lon="-3.5907721"><ele>870.4999999999999</ele><time>2026-03-07T10:18:56.999Z</time></trkpt><trkpt lat="36.9063426" lon="-3.5906943"><ele>870.0</ele><time>2026-03-07T10:18:58.001Z</time></trkpt><trkpt lat="36.9062935" lon="-3.5906114"><ele>869.5</ele><time>2026-03-07T10:18:58.995Z</time></trkpt><trkpt lat="36.9062535" lon="-3.5905429"><ele>869.0</ele><time>2026-03-07T10:19:00.033Z</time></trkpt><trkpt lat="36.9061506" lon="-3.5904438"><ele>868.4999999999999</ele><time>2026-03-07T10:19:01.99Z</time></trkpt><trkpt lat="36.9060879" lon="-3.5903975"><ele>868.0</ele><time>2026-03-07T10:19:03.005Z</time></trkpt><trkpt lat="36.906034" lon="-3.5903469"><ele>866.8333333333333</ele><time>2026-03-07T10:19:04.013Z</time></trkpt><trkpt lat="36.9059968" lon="-3.5902826"><ele>865.6666666666666</ele><time>2026-03-07T10:19:05.006Z</time></trkpt><trkpt lat="36.9060366" lon="-3.5901315"><ele>864.5</ele><time>2026-03-07T10:19:07.008Z</time></trkpt><trkpt lat="36.9060657" lon="-3.5900546"><ele>863.3333333333333</ele><time>2026-03-07T10:19:08.001Z</time></trkpt><trkpt lat="36.9060773" lon="-3.5899632"><ele>862.1666666666666</ele><time>2026-03-07T10:19:09.006Z</time></trkpt><trkpt lat="36.9060755" lon="-3.58987"><ele>861.0</ele><time>2026-03-07T10:19:10.007Z</time></trkpt><trkpt lat="36.9060609" lon="-3.5897673"><ele>861.0</ele><time>2026-03-07T10:19:11.007Z</time></trkpt><trkpt lat="36.9060452" lon="-3.5896596"><ele>861.0</ele><time>2026-03-07T10:19:12.005Z</time></trkpt><trkpt lat="36.9060292" lon="-3.5895432"><ele>861.0</ele><time>2026-03-07T10:19:13.006Z</time></trkpt><trkpt lat="36.9060222" lon="-3.5894296"><ele>861.0</ele><time>2026-03-07T10:19:13.994Z</time></trkpt><trkpt lat="36.9060223" lon="-3.5893358"><ele>861.0</ele><time>2026-03-07T10:19:15.003Z</time></trkpt><trkpt lat="36.9060318" lon="-3.5892547"><ele>861.0</ele><time>2026-03-07T10:19:16.007Z</time></trkpt><trkpt lat="36.9060736" lon="-3.5891939"><ele>862.1666666666666</ele><time>2026-03-07T10:19:17.006Z</time></trkpt><trkpt lat="36.9061205" lon="-3.5891282"><ele>863.3333333333333</ele><time>2026-03-07T10:19:17.999Z</time></trkpt><trkpt lat="36.9061744" lon="-3.5890637"><ele>864.5</ele><time>2026-03-07T10:19:19.01Z</time></trkpt><trkpt lat="36.9062265" lon="-3.5889882"><ele>865.6666666666666</ele><time>2026-03-07T10:19:20.008Z</time></trkpt><trkpt lat="36.9062588" lon="-3.5889065"><ele>866.8333333333333</ele><time>2026-03-07T10:19:21.005Z</time></trkpt><trkpt lat="36.9062638" lon="-3.5887771"><ele>868.0</ele><time>2026-03-07T10:19:23.004Z</time></trkpt><trkpt lat="36.9061713" lon="-3.5887103"><ele>867.9999999999999</ele><time>2026-03-07T10:19:24.998Z</time></trkpt><trkpt lat="36.9061066" lon="-3.5887255"><ele>868.0</ele><time>2026-03-07T10:19:26.002Z</time></trkpt><trkpt lat="36.9060432" lon="-3.5887575"><ele>868.0</ele><time>2026-03-07T10:19:26.995Z</time></trkpt><trkpt lat="36.9059739" lon="-3.5887809"><ele>868.0</ele><time>2026-03-07T10:19:27.996Z</time></trkpt><trkpt lat="36.9058892" lon="-3.5887742"><ele>867.9999999999999</ele><time>2026-03-07T10:19:30.007Z</time></trkpt><trkpt lat="36.905869" lon="-3.5886869"><ele>868.0</ele><time>2026-03-07T10:19:32.027Z</time></trkpt><trkpt lat="36.9059284" lon="-3.5885356"><ele>867.3333333333333</ele><time>2026-03-07T10:19:34.015Z</time></trkpt><trkpt lat="36.9059401" lon="-3.5884275"><ele>866.6666666666666</ele><time>2026-03-07T10:19:35.018Z</time></trkpt><trkpt lat="36.9059511" lon="-3.5883114"><ele>866.0</ele><time>2026-03-07T10:19:35.997Z</time></trkpt><trkpt lat="36.9059604" lon="-3.5881982"><ele>865.3333333333333</ele><time>2026-03-07T10:19:37.013Z</time></trkpt><trkpt lat="36.9059583" lon="-3.5880859"><ele>864.6666666666666</ele><time>2026-03-07T10:19:37.994Z</time></trkpt><trkpt lat="36.9059545" lon="-3.5879842"><ele>864.0</ele><time>2026-03-07T10:19:39.008Z</time></trkpt><trkpt lat="36.9059368" lon="-3.5878799"><ele>867.5</ele><time>2026-03-07T10:19:40Z</time></trkpt><trkpt lat="36.9059063" lon="-3.5877863"><ele>871.0</ele><time>2026-03-07T10:19:41.004Z</time></trkpt><trkpt lat="36.9058707" lon="-3.5876947"><ele>874.5</ele><time>2026-03-07T10:19:42.009Z</time></trkpt><trkpt lat="36.9058349" lon="-3.5876049"><ele>878.0</ele><time>2026-03-07T10:19:43.013Z</time></trkpt><trkpt lat="36.9058238" lon="-3.5875192"><ele>881.5</ele><time>2026-03-07T10:19:43.998Z</time></trkpt><trkpt lat="36.9058435" lon="-3.587428"><ele>885.0</ele><time>2026-03-07T10:19:45.006Z</time></trkpt><trkpt lat="36.9058915" lon="-3.5873317"><ele>882.8333333333334</ele><time>2026-03-07T10:19:45.998Z</time></trkpt><trkpt lat="36.9059363" lon="-3.5872207"><ele>880.6666666666667</ele><time>2026-03-07T10:19:46.999Z</time></trkpt><trkpt lat="36.9059709" lon="-3.5871172"><ele>878.5</ele><time>2026-03-07T10:19:48.014Z</time></trkpt><trkpt lat="36.9059874" lon="-3.587015"><ele>876.3333333333334</ele><time>2026-03-07T10:19:48.992Z</time></trkpt><trkpt lat="36.9059988" lon="-3.5869137"><ele>874.1666666666667</ele><time>2026-03-07T10:19:49.999Z</time></trkpt><trkpt lat="36.9060353" lon="-3.5868274"><ele>872.0</ele><time>2026-03-07T10:19:50.996Z</time></trkpt><trkpt lat="36.9060861" lon="-3.5867518"><ele>872.0</ele><time>2026-03-07T10:19:51.994Z</time></trkpt><trkpt lat="36.9061488" lon="-3.5866834"><ele>872.0</ele><time>2026-03-07T10:19:53.004Z</time></trkpt><trkpt lat="36.9062132" lon="-3.5866107"><ele>872.0</ele><time>2026-03-07T10:19:54.037Z</time></trkpt><trkpt lat="36.9062828" lon="-3.5865358"><ele>872.0</ele><time>2026-03-07T10:19:55.035Z</time></trkpt><trkpt lat="36.9063681" lon="-3.5864822"><ele>872.0</ele><time>2026-03-07T10:19:56.025Z</time></trkpt><trkpt lat="36.9064631" lon="-3.5864389"><ele>872.0000000000001</ele><time>2026-03-07T10:19:57.003Z</time></trkpt><trkpt lat="36.9065664" lon="-3.5864134"><ele>872.0</ele><time>2026-03-07T10:19:58Z</time></trkpt><trkpt lat="36.9066631" lon="-3.5864009"><ele>872.0</ele><time>2026-03-07T10:19:59.005Z</time></trkpt><trkpt lat="36.9067483" lon="-3.5863967"><ele>872.0</ele><time>2026-03-07T10:20:00.003Z</time></trkpt><trkpt lat="36.9068227" lon="-3.5863926"><ele>872.0000000000001</ele><time>2026-03-07T10:20:00.994Z</time></trkpt><trkpt lat="36.9068985" lon="-3.5863916"><ele>872.0</ele><time>2026-03-07T10:20:02.001Z</time></trkpt><trkpt lat="36.9069591" lon="-3.5863675"><ele>870.5000000000001</ele><time>2026-03-07T10:20:03.016Z</time></trkpt><trkpt lat="36.9070089" lon="-3.5863073"><ele>869.0</ele><time>2026-03-07T10:20:04.003Z</time></trkpt><trkpt lat="36.9070485" lon="-3.5862227"><ele>867.5</ele><time>2026-03-07T10:20:05.003Z</time></trkpt><trkpt lat="36.9070866" lon="-3.586137"><ele>866.0</ele><time>2026-03-07T10:20:06.008Z</time></trkpt><trkpt lat="36.9071186" lon="-3.5860485"><ele>864.5000000000001</ele><time>2026-03-07T10:20:07.008Z</time></trkpt><trkpt lat="36.9071442" lon="-3.5859553"><ele>863.0</ele><time>2026-03-07T10:20:08.005Z</time></trkpt><trkpt lat="36.9071585" lon="-3.5858548"><ele>863.0000000000001</ele><time>2026-03-07T10:20:09.022Z</time></trkpt><trkpt lat="36.9071809" lon="-3.5857501"><ele>863.0</ele><time>2026-03-07T10:20:10.002Z</time></trkpt><trkpt lat="36.907203" lon="-3.58565"><ele>863.0</ele><time>2026-03-07T10:20:10.989Z</time></trkpt><trkpt lat="36.9072277" lon="-3.5855617"><ele>863.0</ele><time>2026-03-07T10:20:12.014Z</time></trkpt><trkpt lat="36.907256" lon="-3.5854885"><ele>863.0000000000001</ele><time>2026-03-07T10:20:13.023Z</time></trkpt><trkpt lat="36.9073116" lon="-3.5854295"><ele>863.0</ele><time>2026-03-07T10:20:14.051Z</time></trkpt><trkpt lat="36.9073957" lon="-3.5853847"><ele>863.0</ele><time>2026-03-07T10:20:14.991Z</time></trkpt><trkpt lat="36.9074931" lon="-3.5853506"><ele>863.0</ele><time>2026-03-07T10:20:16.003Z</time></trkpt><trkpt lat="36.90759" lon="-3.5853145"><ele>863.0</ele><time>2026-03-07T10:20:17.002Z</time></trkpt><trkpt lat="36.9076832" lon="-3.5852796"><ele>863.0</ele><time>2026-03-07T10:20:17.998Z</time></trkpt><trkpt lat="36.9077738" lon="-3.5852514"><ele>863.0</ele><time>2026-03-07T10:20:19.009Z</time></trkpt><trkpt lat="36.9078709" lon="-3.5852198"><ele>860.4</ele><time>2026-03-07T10:20:19.99Z</time></trkpt><trkpt lat="36.9079694" lon="-3.5851794"><ele>857.8</ele><time>2026-03-07T10:20:20.995Z</time></trkpt><trkpt lat="36.9080659" lon="-3.5851347"><ele>855.2</ele><time>2026-03-07T10:20:22.001Z</time></trkpt><trkpt lat="36.9081608" lon="-3.5850947"><ele>852.6</ele><time>2026-03-07T10:20:23Z</time></trkpt><trkpt lat="36.9082515" lon="-3.5850599"><ele>850.0</ele><time>2026-03-07T10:20:24.005Z</time></trkpt><trkpt lat="36.9083425" lon="-3.5850229"><ele>847.2</ele><time>2026-03-07T10:20:25.009Z</time></trkpt><trkpt lat="36.9084343" lon="-3.5849844"><ele>844.4</ele><time>2026-03-07T10:20:26.001Z</time></trkpt><trkpt lat="36.9085284" lon="-3.5849441"><ele>841.5999999999999</ele><time>2026-03-07T10:20:27.011Z</time></trkpt><trkpt lat="36.90862" lon="-3.5849044"><ele>838.8</ele><time>2026-03-07T10:20:28.01Z</time></trkpt><trkpt lat="36.908711" lon="-3.5848673"><ele>836.0</ele><time>2026-03-07T10:20:28.994Z</time></trkpt><trkpt lat="36.9087936" lon="-3.5848273"><ele>836.0000000000001</ele><time>2026-03-07T10:20:30.007Z</time></trkpt><trkpt lat="36.908873" lon="-3.5847848"><ele>836.0</ele><time>2026-03-07T10:20:30.999Z</time></trkpt><trkpt lat="36.9089489" lon="-3.5847485"><ele>836.0</ele><time>2026-03-07T10:20:31.995Z</time></trkpt><trkpt lat="36.9090266" lon="-3.5847385"><ele>836.0</ele><time>2026-03-07T10:20:33.01Z</time></trkpt><trkpt lat="36.9090964" lon="-3.5847306"><ele>836.0000000000001</ele><time>2026-03-07T10:20:33.992Z</time></trkpt><trkpt lat="36.9092102" lon="-3.5847799"><ele>836.0</ele><time>2026-03-07T10:20:36.002Z</time></trkpt><trkpt lat="36.9092753" lon="-3.5847762"><ele>832.5999999999999</ele><time>2026-03-07T10:20:36.993Z</time></trkpt><trkpt lat="36.909385" lon="-3.5847149"><ele>829.2</ele><time>2026-03-07T10:20:39.009Z</time></trkpt><trkpt lat="36.909443" lon="-3.5846473"><ele>825.8</ele><time>2026-03-07T10:20:40.013Z</time></trkpt><trkpt lat="36.9094887" lon="-3.5845563"><ele>822.4000000000001</ele><time>2026-03-07T10:20:41.005Z</time></trkpt><trkpt lat="36.9095194" lon="-3.5844679"><ele>819.0</ele><time>2026-03-07T10:20:42Z</time></trkpt><trkpt lat="36.9095481" lon="-3.5843632"><ele>819.0</ele><time>2026-03-07T10:20:43.006Z</time></trkpt><trkpt lat="36.9095769" lon="-3.5842889"><ele>819.0</ele><time>2026-03-07T10:20:44.005Z</time></trkpt><trkpt lat="36.9096588" lon="-3.5842097"><ele>819.0</ele><time>2026-03-07T10:20:45.997Z</time></trkpt><trkpt lat="36.9097319" lon="-3.5843433"><ele>819.0</ele><time>2026-03-07T10:20:48Z</time></trkpt><trkpt lat="36.9097935" lon="-3.5844165"><ele>819.0</ele><time>2026-03-07T10:20:50Z</time></trkpt><trkpt lat="36.9098742" lon="-3.5843302"><ele>819.0</ele><time>2026-03-07T10:20:51.997Z</time></trkpt><trkpt lat="36.9099313" lon="-3.5842525"><ele>819.0</ele><time>2026-03-07T10:20:52.994Z</time></trkpt><trkpt lat="36.909999" lon="-3.584187"><ele>819.0</ele><time>2026-03-07T10:20:54Z</time></trkpt><trkpt lat="36.9100801" lon="-3.5841253"><ele>819.0</ele><time>2026-03-07T10:20:55Z</time></trkpt><trkpt lat="36.9101513" lon="-3.5840485"><ele>819.0</ele><time>2026-03-07T10:20:56.001Z</time></trkpt><trkpt lat="36.9102172" lon="-3.5839705"><ele>816.8333333333334</ele><time>2026-03-07T10:20:57.016Z</time></trkpt><trkpt lat="36.9102935" lon="-3.5839137"><ele>814.6666666666667</ele><time>2026-03-07T10:20:57.994Z</time></trkpt><trkpt lat="36.9103655" lon="-3.5838619"><ele>812.5</ele><time>2026-03-07T10:20:58.992Z</time></trkpt><trkpt lat="36.9104501" lon="-3.5838666"><ele>810.3333333333334</ele><time>2026-03-07T10:20:59.999Z</time></trkpt><trkpt lat="36.9105423" lon="-3.5838952"><ele>808.1666666666667</ele><time>2026-03-07T10:21:00.997Z</time></trkpt><trkpt lat="36.9106329" lon="-3.5839173"><ele>806.0</ele><time>2026-03-07T10:21:01.991Z</time></trkpt><trkpt lat="36.9107312" lon="-3.5839277"><ele>806.0</ele><time>2026-03-07T10:21:02.99Z</time></trkpt><trkpt lat="36.9108306" lon="-3.5839239"><ele>806.0</ele><time>2026-03-07T10:21:04.003Z</time></trkpt><trkpt lat="36.9109262" lon="-3.5839194"><ele>806.0</ele><time>2026-03-07T10:21:05Z</time></trkpt><trkpt lat="36.9110225" lon="-3.5839029"><ele>806.0</ele><time>2026-03-07T10:21:06.008Z</time></trkpt><trkpt lat="36.9111244" lon="-3.5838765"><ele>806.0</ele><time>2026-03-07T10:21:06.995Z</time></trkpt><trkpt lat="36.9112334" lon="-3.5838462"><ele>803.5999999999999</ele><time>2026-03-07T10:21:07.986Z</time></trkpt><trkpt lat="36.9113371" lon="-3.5838129"><ele>801.2</ele><time>2026-03-07T10:21:09Z</time></trkpt><trkpt lat="36.9114367" lon="-3.583769"><ele>798.8</ele><time>2026-03-07T10:21:09.999Z</time></trkpt><trkpt lat="36.9115321" lon="-3.5837284"><ele>796.4000000000001</ele><time>2026-03-07T10:21:10.989Z</time></trkpt><trkpt lat="36.9116305" lon="-3.5836982"><ele>794.0</ele><time>2026-03-07T10:21:12Z</time></trkpt><trkpt lat="36.911732" lon="-3.5836659"><ele>791.6</ele><time>2026-03-07T10:21:12.986Z</time></trkpt><trkpt lat="36.9118318" lon="-3.5836396"><ele>789.2</ele><time>2026-03-07T10:21:14.005Z</time></trkpt><trkpt lat="36.9119324" lon="-3.5836147"><ele>786.8000000000001</ele><time>2026-03-07T10:21:14.995Z</time></trkpt><trkpt lat="36.9120296" lon="-3.5835859"><ele>784.4000000000001</ele><time>2026-03-07T10:21:16.008Z</time></trkpt><trkpt lat="36.9121259" lon="-3.5835517"><ele>782.0</ele><time>2026-03-07T10:21:17.008Z</time></trkpt><trkpt lat="36.9122222" lon="-3.5835184"><ele>782.0</ele><time>2026-03-07T10:21:18.009Z</time></trkpt><trkpt lat="36.912314" lon="-3.5834772"><ele>782.0</ele><time>2026-03-07T10:21:19.004Z</time></trkpt><trkpt lat="36.9123911" lon="-3.5834299"><ele>782.0</ele><time>2026-03-07T10:21:20.002Z</time></trkpt><trkpt lat="36.9124591" lon="-3.5833995"><ele>782.0</ele><time>2026-03-07T10:21:20.992Z</time></trkpt><trkpt lat="36.9125544" lon="-3.5833481"><ele>782.0</ele><time>2026-03-07T10:21:23.002Z</time></trkpt><trkpt lat="36.9125831" lon="-3.5832379"><ele>782.0000000000001</ele><time>2026-03-07T10:21:24.997Z</time></trkpt><trkpt lat="36.9125369" lon="-3.5831166"><ele>782.0</ele><time>2026-03-07T10:21:27.012Z</time></trkpt><trkpt lat="36.9124902" lon="-3.5830453"><ele>782.0</ele><time>2026-03-07T10:21:28.009Z</time></trkpt><trkpt lat="36.9124346" lon="-3.5829704"><ele>782.0</ele><time>2026-03-07T10:21:29.01Z</time></trkpt><trkpt lat="36.9123708" lon="-3.5828963"><ele>782.0000000000001</ele><time>2026-03-07T10:21:29.997Z</time></trkpt><trkpt lat="36.9123087" lon="-3.5828264"><ele>782.0</ele><time>2026-03-07T10:21:31.009Z</time></trkpt><trkpt lat="36.9122458" lon="-3.5827459"><ele>781.2</ele><time>2026-03-07T10:21:32.006Z</time></trkpt><trkpt lat="36.9121952" lon="-3.5826597"><ele>780.4000000000001</ele><time>2026-03-07T10:21:33.002Z</time></trkpt><trkpt lat="36.9121686" lon="-3.5825574"><ele>779.5999999999999</ele><time>2026-03-07T10:21:33.996Z</time></trkpt><trkpt lat="36.9121373" lon="-3.5824295"><ele>778.8</ele><time>2026-03-07T10:21:35.006Z</time></trkpt><trkpt lat="36.9121128" lon="-3.5823191"><ele>778.0</ele><time>2026-03-07T10:21:35.995Z</time></trkpt><trkpt lat="36.9121121" lon="-3.582178"><ele>778.0</ele><time>2026-03-07T10:21:37.014Z</time></trkpt><trkpt lat="36.9120761" lon="-3.5820629"><ele>778.0</ele><time>2026-03-07T10:21:37.998Z</time></trkpt><trkpt lat="36.9120314" lon="-3.5819592"><ele>778.0</ele><time>2026-03-07T10:21:39.008Z</time></trkpt><trkpt lat="36.911976" lon="-3.5818577"><ele>778.0</ele><time>2026-03-07T10:21:39.997Z</time></trkpt><trkpt lat="36.9119078" lon="-3.581766"><ele>778.0</ele><time>2026-03-07T10:21:40.999Z</time></trkpt><trkpt lat="36.9118372" lon="-3.5816767"><ele>777.6666666666666</ele><time>2026-03-07T10:21:42.003Z</time></trkpt><trkpt lat="36.9117665" lon="-3.5815926"><ele>777.3333333333333</ele><time>2026-03-07T10:21:43.003Z</time></trkpt><trkpt lat="36.9117057" lon="-3.581512"><ele>777.0</ele><time>2026-03-07T10:21:43.996Z</time></trkpt><trkpt lat="36.9116604" lon="-3.5814266"><ele>776.6666666666667</ele><time>2026-03-07T10:21:45.012Z</time></trkpt><trkpt lat="36.9116054" lon="-3.5813491"><ele>776.3333333333334</ele><time>2026-03-07T10:21:45.999Z</time></trkpt><trkpt lat="36.9115363" lon="-3.5812815"><ele>776.0</ele><time>2026-03-07T10:21:47.001Z</time></trkpt><trkpt lat="36.9114606" lon="-3.5812289"><ele>776.0000000000001</ele><time>2026-03-07T10:21:47.994Z</time></trkpt><trkpt lat="36.9113832" lon="-3.5811817"><ele>776.0</ele><time>2026-03-07T10:21:49.007Z</time></trkpt><trkpt lat="36.9113046" lon="-3.5811608"><ele>776.0</ele><time>2026-03-07T10:21:50.001Z</time></trkpt><trkpt lat="36.9112273" lon="-3.5811391"><ele>776.0</ele><time>2026-03-07T10:21:51.013Z</time></trkpt><trkpt lat="36.9111596" lon="-3.5810937"><ele>776.0000000000001</ele><time>2026-03-07T10:21:52.016Z</time></trkpt><trkpt lat="36.9111026" lon="-3.581049"><ele>776.0</ele><time>2026-03-07T10:21:53.002Z</time></trkpt><trkpt lat="36.9110322" lon="-3.5809337"><ele>776.0000000000001</ele><time>2026-03-07T10:21:55.002Z</time></trkpt><trkpt lat="36.9110886" lon="-3.5807831"><ele>776.0</ele><time>2026-03-07T10:21:57.006Z</time></trkpt><trkpt lat="36.9111406" lon="-3.5807043"><ele>776.0</ele><time>2026-03-07T10:21:58.02Z</time></trkpt><trkpt lat="36.9111812" lon="-3.5806164"><ele>776.0</ele><time>2026-03-07T10:21:59.007Z</time></trkpt><trkpt lat="36.9112002" lon="-3.5805281"><ele>776.0000000000001</ele><time>2026-03-07T10:22:00.03Z</time></trkpt><trkpt lat="36.9112047" lon="-3.5804463"><ele>776.0</ele><time>2026-03-07T10:22:00.989Z</time></trkpt><trkpt lat="36.9111344" lon="-3.5803312"><ele>775.6666666666667</ele><time>2026-03-07T10:22:03.049Z</time></trkpt><trkpt lat="36.9110582" lon="-3.5802984"><ele>775.3333333333334</ele><time>2026-03-07T10:22:04.106Z</time></trkpt><trkpt lat="36.9109699" lon="-3.580273"><ele>775.0</ele><time>2026-03-07T10:22:05.116Z</time></trkpt><trkpt lat="36.9108826" lon="-3.5802441"><ele>774.6666666666667</ele><time>2026-03-07T10:22:06.068Z</time></trkpt><trkpt lat="36.910799" lon="-3.580204"><ele>774.3333333333334</ele><time>2026-03-07T10:22:06.994Z</time></trkpt><trkpt lat="36.9107353" lon="-3.5801622"><ele>774.0</ele><time>2026-03-07T10:22:07.976Z</time></trkpt><trkpt lat="36.9107076" lon="-3.5800708"><ele>775.6666666666666</ele><time>2026-03-07T10:22:08.964Z</time></trkpt><trkpt lat="36.9107303" lon="-3.5799753"><ele>777.3333333333333</ele><time>2026-03-07T10:22:09.99Z</time></trkpt><trkpt lat="36.9107637" lon="-3.5798797"><ele>779.0</ele><time>2026-03-07T10:22:11.006Z</time></trkpt><trkpt lat="36.9107863" lon="-3.5797714"><ele>780.6666666666666</ele><time>2026-03-07T10:22:11.989Z</time></trkpt><trkpt lat="36.9108045" lon="-3.5796543"><ele>782.3333333333333</ele><time>2026-03-07T10:22:13.01Z</time></trkpt><trkpt lat="36.91082" lon="-3.5795291"><ele>784.0</ele><time>2026-03-07T10:22:13.993Z</time></trkpt><trkpt lat="36.9108244" lon="-3.5794051"><ele>784.2</ele><time>2026-03-07T10:22:14.998Z</time></trkpt><trkpt lat="36.9108266" lon="-3.5792761"><ele>784.4000000000001</ele><time>2026-03-07T10:22:15.999Z</time></trkpt><trkpt lat="36.9108282" lon="-3.5791509"><ele>784.6</ele><time>2026-03-07T10:22:17.001Z</time></trkpt><trkpt lat="36.9108246" lon="-3.5790271"><ele>784.8</ele><time>2026-03-07T10:22:17.992Z</time></trkpt><trkpt lat="36.910808" lon="-3.5789055"><ele>785.0</ele><time>2026-03-07T10:22:18.994Z</time></trkpt><trkpt lat="36.9107843" lon="-3.5787775"><ele>784.0</ele><time>2026-03-07T10:22:20.001Z</time></trkpt><trkpt lat="36.910758" lon="-3.5786416"><ele>783.0</ele><time>2026-03-07T10:22:21.002Z</time></trkpt><trkpt lat="36.9107301" lon="-3.578499"><ele>782.0</ele><time>2026-03-07T10:22:22.007Z</time></trkpt><trkpt lat="36.9107591" lon="-3.5783353"><ele>781.0</ele><time>2026-03-07T10:22:22.991Z</time></trkpt><trkpt lat="36.9107632" lon="-3.5781758"><ele>781.0</ele><time>2026-03-07T10:22:24.002Z</time></trkpt><trkpt lat="36.910748" lon="-3.5780322"><ele>781.0</ele><time>2026-03-07T10:22:24.999Z</time></trkpt><trkpt lat="36.9107356" lon="-3.5779001"><ele>781.0</ele><time>2026-03-07T10:22:25.995Z</time></trkpt><trkpt lat="36.9107359" lon="-3.5777844"><ele>781.0</ele><time>2026-03-07T10:22:27.057Z</time></trkpt><trkpt lat="36.9107493" lon="-3.5776761"><ele>781.0</ele><time>2026-03-07T10:22:27.996Z</time></trkpt><trkpt lat="36.9107758" lon="-3.5775659"><ele>780.0</ele><time>2026-03-07T10:22:29.001Z</time></trkpt><trkpt lat="36.9107964" lon="-3.5774364"><ele>779.0</ele><time>2026-03-07T10:22:30.003Z</time></trkpt><trkpt lat="36.9108015" lon="-3.5772896"><ele>778.0</ele><time>2026-03-07T10:22:31.011Z</time></trkpt><trkpt lat="36.9107965" lon="-3.5771381"><ele>777.0</ele><time>2026-03-07T10:22:31.994Z</time></trkpt><trkpt lat="36.9107916" lon="-3.5769902"><ele>775.2</ele><time>2026-03-07T10:22:32.997Z</time></trkpt><trkpt lat="36.9107837" lon="-3.5768446"><ele>773.4000000000001</ele><time>2026-03-07T10:22:33.994Z</time></trkpt><trkpt lat="36.9107713" lon="-3.576703"><ele>771.5999999999999</ele><time>2026-03-07T10:22:34.999Z</time></trkpt><trkpt lat="36.9107557" lon="-3.5765649"><ele>769.8</ele><time>2026-03-07T10:22:36.006Z</time></trkpt><trkpt lat="36.9107278" lon="-3.5764369"><ele>768.0</ele><time>2026-03-07T10:22:36.997Z</time></trkpt><trkpt lat="36.9107197" lon="-3.5763107"><ele>768.0</ele><time>2026-03-07T10:22:38.027Z</time></trkpt><trkpt lat="36.9107073" lon="-3.5761899"><ele>768.0</ele><time>2026-03-07T10:22:39.01Z</time></trkpt><trkpt lat="36.9106873" lon="-3.5760661"><ele>768.0</ele><time>2026-03-07T10:22:39.987Z</time></trkpt><trkpt lat="36.910667" lon="-3.575932"><ele>768.0</ele><time>2026-03-07T10:22:40.999Z</time></trkpt><trkpt lat="36.9106549" lon="-3.575792"><ele>768.0</ele><time>2026-03-07T10:22:41.999Z</time></trkpt><trkpt lat="36.9106427" lon="-3.5756381"><ele>768.4</ele><time>2026-03-07T10:22:43.001Z</time></trkpt><trkpt lat="36.9106745" lon="-3.5754882"><ele>768.8</ele><time>2026-03-07T10:22:44.001Z</time></trkpt><trkpt lat="36.9107118" lon="-3.5753525"><ele>769.2</ele><time>2026-03-07T10:22:45.01Z</time></trkpt><trkpt lat="36.9107585" lon="-3.5752297"><ele>769.6</ele><time>2026-03-07T10:22:45.997Z</time></trkpt><trkpt lat="36.9107896" lon="-3.5751176"><ele>770.0</ele><time>2026-03-07T10:22:47.003Z</time></trkpt><trkpt lat="36.9108049" lon="-3.5750054"><ele>770.0000000000001</ele><time>2026-03-07T10:22:47.997Z</time></trkpt><trkpt lat="36.9108081" lon="-3.5748922"><ele>770.0</ele><time>2026-03-07T10:22:49.008Z</time></trkpt><trkpt lat="36.9108119" lon="-3.574784"><ele>770.0</ele><time>2026-03-07T10:22:49.998Z</time></trkpt><trkpt lat="36.9108187" lon="-3.5746872"><ele>770.0</ele><time>2026-03-07T10:22:51.01Z</time></trkpt><trkpt lat="36.9108415" lon="-3.5745671"><ele>770.0000000000001</ele><time>2026-03-07T10:22:53.013Z</time></trkpt><trkpt lat="36.9108743" lon="-3.5744634"><ele>770.0</ele><time>2026-03-07T10:22:56.015Z</time></trkpt><trkpt lat="36.9108803" lon="-3.5743421"><ele>769.8</ele><time>2026-03-07T10:22:58.002Z</time></trkpt><trkpt lat="36.9108064" lon="-3.574267"><ele>769.6</ele><time>2026-03-07T10:22:59.999Z</time></trkpt><trkpt lat="36.9106871" lon="-3.5741898"><ele>769.4000000000001</ele><time>2026-03-07T10:23:02.002Z</time></trkpt><trkpt lat="36.9106208" lon="-3.574135"><ele>769.2</ele><time>2026-03-07T10:23:02.991Z</time></trkpt><trkpt lat="36.9105487" lon="-3.5740636"><ele>769.0</ele><time>2026-03-07T10:23:03.994Z</time></trkpt><trkpt lat="36.9104737" lon="-3.5739835"><ele>769.0</ele><time>2026-03-07T10:23:04.999Z</time></trkpt><trkpt lat="36.9103938" lon="-3.5738891"><ele>769.0</ele><time>2026-03-07T10:23:05.998Z</time></trkpt><trkpt lat="36.9103207" lon="-3.5737825"><ele>769.0</ele><time>2026-03-07T10:23:07.004Z</time></trkpt><trkpt lat="36.9102567" lon="-3.5736899"><ele>769.0</ele><time>2026-03-07T10:23:08.008Z</time></trkpt><trkpt lat="36.9102052" lon="-3.5736157"><ele>769.0</ele><time>2026-03-07T10:23:09.01Z</time></trkpt><trkpt lat="36.9101626" lon="-3.573552"><ele>768.6</ele><time>2026-03-07T10:23:09.994Z</time></trkpt><trkpt lat="36.9101296" lon="-3.5734834"><ele>768.2</ele><time>2026-03-07T10:23:11.003Z</time></trkpt><trkpt lat="36.9101096" lon="-3.5733454"><ele>767.8000000000001</ele><time>2026-03-07T10:23:13.002Z</time></trkpt><trkpt lat="36.9102014" lon="-3.5732554"><ele>767.4000000000001</ele><time>2026-03-07T10:23:15Z</time></trkpt><trkpt lat="36.9103138" lon="-3.5732705"><ele>767.0</ele><time>2026-03-07T10:23:16.995Z</time></trkpt><trkpt lat="36.9103997" lon="-3.5733111"><ele>767.0</ele><time>2026-03-07T10:23:18.999Z</time></trkpt><trkpt lat="36.9104795" lon="-3.5732912"><ele>767.0</ele><time>2026-03-07T10:23:22.001Z</time></trkpt><trkpt lat="36.9104113" lon="-3.573315"><ele>767.0</ele><time>2026-03-07T10:23:50.006Z</time></trkpt><trkpt lat="36.9103405" lon="-3.573313"><ele>767.0</ele><time>2026-03-07T10:23:51.001Z</time></trkpt><trkpt lat="36.9102562" lon="-3.5733042"><ele>767.0</ele><time>2026-03-07T10:23:52.006Z</time></trkpt><trkpt lat="36.910189" lon="-3.5732989"><ele>767.0</ele><time>2026-03-07T10:23:53.008Z</time></trkpt><trkpt lat="36.9101288" lon="-3.5733863"><ele>767.0</ele><time>2026-03-07T10:23:56.02Z</time></trkpt><trkpt lat="36.9101631" lon="-3.5735349"><ele>767.0</ele><time>2026-03-07T10:23:58.004Z</time></trkpt><trkpt lat="36.910222" lon="-3.5736253"><ele>767.0</ele><time>2026-03-07T10:23:59.011Z</time></trkpt><trkpt lat="36.91031" lon="-3.5737348"><ele>767.0</ele><time>2026-03-07T10:24:00.001Z</time></trkpt><trkpt lat="36.9104062" lon="-3.57387"><ele>767.4000000000001</ele><time>2026-03-07T10:24:01.012Z</time></trkpt><trkpt lat="36.9104922" lon="-3.5739951"><ele>767.8000000000001</ele><time>2026-03-07T10:24:02.014Z</time></trkpt><trkpt lat="36.9105738" lon="-3.5740914"><ele>768.2</ele><time>2026-03-07T10:24:02.993Z</time></trkpt><trkpt lat="36.9106454" lon="-3.5741642"><ele>768.6</ele><time>2026-03-07T10:24:04Z</time></trkpt><trkpt lat="36.9107038" lon="-3.5742287"><ele>769.0</ele><time>2026-03-07T10:24:05.003Z</time></trkpt><trkpt lat="36.9107546" lon="-3.5742983"><ele>768.9999999999999</ele><time>2026-03-07T10:24:05.997Z</time></trkpt><trkpt lat="36.9108073" lon="-3.5743638"><ele>769.0</ele><time>2026-03-07T10:24:06.994Z</time></trkpt><trkpt lat="36.9108566" lon="-3.5744203"><ele>769.0</ele><time>2026-03-07T10:24:08.003Z</time></trkpt><trkpt lat="36.9109282" lon="-3.5745087"><ele>769.0</ele><time>2026-03-07T10:24:10.008Z</time></trkpt><trkpt lat="36.9109879" lon="-3.5745618"><ele>768.9999999999999</ele><time>2026-03-07T10:24:13.006Z</time></trkpt><trkpt lat="36.9110522" lon="-3.5745472"><ele>769.0</ele><time>2026-03-07T10:24:18.008Z</time></trkpt><trkpt lat="36.9111246" lon="-3.5745135"><ele>767.6666666666666</ele><time>2026-03-07T10:24:20.02Z</time></trkpt><trkpt lat="36.9111907" lon="-3.5744856"><ele>766.3333333333333</ele><time>2026-03-07T10:24:20.982Z</time></trkpt><trkpt lat="36.9112715" lon="-3.5744613"><ele>765.0</ele><time>2026-03-07T10:24:22.007Z</time></trkpt><trkpt lat="36.9113461" lon="-3.5744547"><ele>763.6666666666666</ele><time>2026-03-07T10:24:23.004Z</time></trkpt><trkpt lat="36.9114906" lon="-3.5744422"><ele>762.3333333333333</ele><time>2026-03-07T10:24:25.017Z</time></trkpt><trkpt lat="36.9115619" lon="-3.5744394"><ele>761.0</ele><time>2026-03-07T10:24:26.059Z</time></trkpt><trkpt lat="36.9116276" lon="-3.5744445"><ele>761.0</ele><time>2026-03-07T10:24:26.993Z</time></trkpt><trkpt lat="36.9117009" lon="-3.5744761"><ele>761.0</ele><time>2026-03-07T10:24:28.004Z</time></trkpt><trkpt lat="36.9117723" lon="-3.5745193"><ele>761.0</ele><time>2026-03-07T10:24:29.018Z</time></trkpt><trkpt lat="36.9118334" lon="-3.5745429"><ele>761.0</ele><time>2026-03-07T10:24:30.021Z</time></trkpt><trkpt lat="36.9119107" lon="-3.5745943"><ele>761.0</ele><time>2026-03-07T10:24:32.014Z</time></trkpt><trkpt lat="36.9119799" lon="-3.5745678"><ele>761.0</ele><time>2026-03-07T10:24:35.028Z</time></trkpt><trkpt lat="36.9120426" lon="-3.5744919"><ele>758.8</ele><time>2026-03-07T10:24:37.009Z</time></trkpt><trkpt lat="36.9121027" lon="-3.5744349"><ele>756.5999999999999</ele><time>2026-03-07T10:24:37.999Z</time></trkpt><trkpt lat="36.912187" lon="-3.5743728"><ele>754.4</ele><time>2026-03-07T10:24:38.995Z</time></trkpt><trkpt lat="36.9122824" lon="-3.5743271"><ele>752.2</ele><time>2026-03-07T10:24:40.013Z</time></trkpt><trkpt lat="36.9123691" lon="-3.5743023"><ele>750.0</ele><time>2026-03-07T10:24:40.987Z</time></trkpt><trkpt lat="36.9124654" lon="-3.5742812"><ele>750.0</ele><time>2026-03-07T10:24:42.017Z</time></trkpt><trkpt lat="36.9125489" lon="-3.5742669"><ele>750.0</ele><time>2026-03-07T10:24:43.029Z</time></trkpt><trkpt lat="36.9126459" lon="-3.574237"><ele>750.0</ele><time>2026-03-07T10:24:45.015Z</time></trkpt><trkpt lat="36.9126806" lon="-3.5741713"><ele>750.0</ele><time>2026-03-07T10:24:48.104Z</time></trkpt><trkpt lat="36.9126264" lon="-3.5742728"><ele>750.0</ele><time>2026-03-07T10:24:58.006Z</time></trkpt><trkpt lat="36.9125503" lon="-3.5742927"><ele>750.0</ele><time>2026-03-07T10:24:59.016Z</time></trkpt><trkpt lat="36.9124543" lon="-3.5742972"><ele>750.0</ele><time>2026-03-07T10:25:00.053Z</time></trkpt><trkpt lat="36.9123642" lon="-3.5743154"><ele>750.0</ele><time>2026-03-07T10:25:01Z</time></trkpt><trkpt lat="36.9122809" lon="-3.5743364"><ele>750.0</ele><time>2026-03-07T10:25:02.022Z</time></trkpt><trkpt lat="36.9121987" lon="-3.574362"><ele>750.0</ele><time>2026-03-07T10:25:03.005Z</time></trkpt><trkpt lat="36.9121206" lon="-3.5744097"><ele>750.0</ele><time>2026-03-07T10:25:03.998Z</time></trkpt><trkpt lat="36.9120451" lon="-3.5744662"><ele>750.0</ele><time>2026-03-07T10:25:04.995Z</time></trkpt><trkpt lat="36.9119837" lon="-3.5745193"><ele>749.3333333333334</ele><time>2026-03-07T10:25:05.992Z</time></trkpt><trkpt lat="36.9119245" lon="-3.5745469"><ele>748.6666666666666</ele><time>2026-03-07T10:25:06.999Z</time></trkpt><trkpt lat="36.9118568" lon="-3.574555"><ele>748.0</ele><time>2026-03-07T10:25:08.007Z</time></trkpt><trkpt lat="36.911779" lon="-3.5745307"><ele>747.3333333333333</ele><time>2026-03-07T10:25:09.007Z</time></trkpt><trkpt lat="36.9116907" lon="-3.5744816"><ele>746.6666666666666</ele><time>2026-03-07T10:25:10.015Z</time></trkpt><trkpt lat="36.9115912" lon="-3.574442"><ele>746.0</ele><time>2026-03-07T10:25:11.03Z</time></trkpt><trkpt lat="36.9114837" lon="-3.5744053"><ele>749.0</ele><time>2026-03-07T10:25:12.018Z</time></trkpt><trkpt lat="36.9113743" lon="-3.574389"><ele>752.0</ele><time>2026-03-07T10:25:13.006Z</time></trkpt><trkpt lat="36.9112597" lon="-3.5744024"><ele>755.0</ele><time>2026-03-07T10:25:13.995Z</time></trkpt><trkpt lat="36.9111546" lon="-3.5744276"><ele>758.0</ele><time>2026-03-07T10:25:15.001Z</time></trkpt><trkpt lat="36.9110676" lon="-3.5744558"><ele>761.0</ele><time>2026-03-07T10:25:16.014Z</time></trkpt><trkpt lat="36.9110071" lon="-3.5744805"><ele>761.0</ele><time>2026-03-07T10:25:16.999Z</time></trkpt><trkpt lat="36.9109282" lon="-3.5744806"><ele>761.0</ele><time>2026-03-07T10:25:18.998Z</time></trkpt><trkpt lat="36.9108286" lon="-3.5743735"><ele>761.0</ele><time>2026-03-07T10:25:21.001Z</time></trkpt><trkpt lat="36.9107585" lon="-3.5742945"><ele>761.0</ele><time>2026-03-07T10:25:22.001Z</time></trkpt><trkpt lat="36.9106775" lon="-3.5742094"><ele>761.0</ele><time>2026-03-07T10:25:23.002Z</time></trkpt><trkpt lat="36.9105917" lon="-3.5741188"><ele>763.0</ele><time>2026-03-07T10:25:24.02Z</time></trkpt><trkpt lat="36.9104965" lon="-3.5740233"><ele>765.0</ele><time>2026-03-07T10:25:25.006Z</time></trkpt><trkpt lat="36.9104118" lon="-3.5739189"><ele>767.0</ele><time>2026-03-07T10:25:26.006Z</time></trkpt><trkpt lat="36.9103402" lon="-3.5738165"><ele>769.0</ele><time>2026-03-07T10:25:27.006Z</time></trkpt><trkpt lat="36.9102721" lon="-3.5737173"><ele>768.6</ele><time>2026-03-07T10:25:28.016Z</time></trkpt><trkpt lat="36.9102069" lon="-3.5736219"><ele>768.2</ele><time>2026-03-07T10:25:28.998Z</time></trkpt><trkpt lat="36.910148" lon="-3.5735431"><ele>767.8000000000001</ele><time>2026-03-07T10:25:30.006Z</time></trkpt><trkpt lat="36.9101082" lon="-3.5734694"><ele>767.4000000000001</ele><time>2026-03-07T10:25:31.005Z</time></trkpt><trkpt lat="36.9100996" lon="-3.5733257"><ele>767.0</ele><time>2026-03-07T10:25:32.997Z</time></trkpt><trkpt lat="36.9101814" lon="-3.5732706"><ele>767.0</ele><time>2026-03-07T10:25:35.007Z</time></trkpt><trkpt lat="36.9102899" lon="-3.5733055"><ele>767.0</ele><time>2026-03-07T10:25:37.005Z</time></trkpt><trkpt lat="36.9103704" lon="-3.5733095"><ele>767.0</ele><time>2026-03-07T10:25:38.009Z</time></trkpt><trkpt lat="36.9104436" lon="-3.5732899"><ele>767.0</ele><time>2026-03-07T10:25:39.013Z</time></trkpt><trkpt lat="36.9105186" lon="-3.573199"><ele>767.0</ele><time>2026-03-07T10:25:41.006Z</time></trkpt><trkpt lat="36.9105613" lon="-3.5730303"><ele>767.0</ele><time>2026-03-07T10:25:42.996Z</time></trkpt><trkpt lat="36.9105754" lon="-3.5729229"><ele>767.0</ele><time>2026-03-07T10:25:44.009Z</time></trkpt><trkpt lat="36.9105746" lon="-3.5728285"><ele>767.0</ele><time>2026-03-07T10:25:44.997Z</time></trkpt><trkpt lat="36.9105583" lon="-3.5727318"><ele>767.0</ele><time>2026-03-07T10:25:46.009Z</time></trkpt><trkpt lat="36.9105187" lon="-3.5726193"><ele>767.0</ele><time>2026-03-07T10:25:46.996Z</time></trkpt><trkpt lat="36.9104828" lon="-3.5724958"><ele>767.0</ele><time>2026-03-07T10:25:47.994Z</time></trkpt><trkpt lat="36.9104693" lon="-3.5723812"><ele>767.3333333333333</ele><time>2026-03-07T10:25:48.994Z</time></trkpt><trkpt lat="36.9104621" lon="-3.5722752"><ele>767.6666666666666</ele><time>2026-03-07T10:25:49.998Z</time></trkpt><trkpt lat="36.9104607" lon="-3.5721698"><ele>768.0</ele><time>2026-03-07T10:25:51.005Z</time></trkpt><trkpt lat="36.9104675" lon="-3.5720722"><ele>768.3333333333333</ele><time>2026-03-07T10:25:52.001Z</time></trkpt><trkpt lat="36.9104669" lon="-3.5719927"><ele>768.6666666666666</ele><time>2026-03-07T10:25:52.995Z</time></trkpt><trkpt lat="36.9103976" lon="-3.5718497"><ele>769.0</ele><time>2026-03-07T10:25:54.998Z</time></trkpt><trkpt lat="36.9103394" lon="-3.5717772"><ele>767.6</ele><time>2026-03-07T10:25:56.004Z</time></trkpt><trkpt lat="36.9102596" lon="-3.5717137"><ele>766.2</ele><time>2026-03-07T10:25:56.999Z</time></trkpt><trkpt lat="36.9101746" lon="-3.5716466"><ele>764.8000000000001</ele><time>2026-03-07T10:25:57.991Z</time></trkpt><trkpt lat="36.9100958" lon="-3.5715725"><ele>763.4000000000001</ele><time>2026-03-07T10:25:58.995Z</time></trkpt><trkpt lat="36.9100257" lon="-3.5714948"><ele>762.0</ele><time>2026-03-07T10:26:00.019Z</time></trkpt><trkpt lat="36.9099503" lon="-3.5714199"><ele>765.25</ele><time>2026-03-07T10:26:01.008Z</time></trkpt><trkpt lat="36.909869" lon="-3.5713352"><ele>768.5</ele><time>2026-03-07T10:26:02.002Z</time></trkpt><trkpt lat="36.9097884" lon="-3.5712234"><ele>771.75</ele><time>2026-03-07T10:26:03.09Z</time></trkpt><trkpt lat="36.9097118" lon="-3.5710871"><ele>775.0</ele><time>2026-03-07T10:26:04.016Z</time></trkpt><trkpt lat="36.9096225" lon="-3.5709671"><ele>775.0</ele><time>2026-03-07T10:26:04.989Z</time></trkpt><trkpt lat="36.909537" lon="-3.5708591"><ele>775.0</ele><time>2026-03-07T10:26:05.996Z</time></trkpt><trkpt lat="36.9094586" lon="-3.5707663"><ele>775.0</ele><time>2026-03-07T10:26:07.002Z</time></trkpt><trkpt lat="36.9093962" lon="-3.5706831"><ele>775.0</ele><time>2026-03-07T10:26:08.003Z</time></trkpt><trkpt lat="36.9093504" lon="-3.5706059"><ele>775.0</ele><time>2026-03-07T10:26:08.996Z</time></trkpt><trkpt lat="36.9092895" lon="-3.57049"><ele>774.9999999999999</ele><time>2026-03-07T10:26:10.997Z</time></trkpt><trkpt lat="36.9093124" lon="-3.5704104"><ele>775.0</ele><time>2026-03-07T10:26:12.999Z</time></trkpt><trkpt lat="36.9093792" lon="-3.5704152"><ele>775.0</ele><time>2026-03-07T10:26:15.004Z</time></trkpt><trkpt lat="36.9094956" lon="-3.5704803"><ele>775.0</ele><time>2026-03-07T10:26:17.003Z</time></trkpt><trkpt lat="36.9095784" lon="-3.5704846"><ele>774.9999999999999</ele><time>2026-03-07T10:26:17.986Z</time></trkpt><trkpt lat="36.9096515" lon="-3.5704721"><ele>775.0</ele><time>2026-03-07T10:26:19.001Z</time></trkpt><trkpt lat="36.9097252" lon="-3.5704535"><ele>775.0</ele><time>2026-03-07T10:26:20.019Z</time></trkpt><trkpt lat="36.9098138" lon="-3.570434"><ele>775.0</ele><time>2026-03-07T10:26:20.992Z</time></trkpt><trkpt lat="36.9099121" lon="-3.570411"><ele>775.0</ele><time>2026-03-07T10:26:21.988Z</time></trkpt><trkpt lat="36.9100171" lon="-3.5703733"><ele>775.0</ele><time>2026-03-07T10:26:23.006Z</time></trkpt><trkpt lat="36.9101185" lon="-3.570327"><ele>775.0</ele><time>2026-03-07T10:26:23.994Z</time></trkpt><trkpt lat="36.9102123" lon="-3.5702759"><ele>775.6666666666666</ele><time>2026-03-07T10:26:24.997Z</time></trkpt><trkpt lat="36.9103137" lon="-3.5702411"><ele>776.3333333333333</ele><time>2026-03-07T10:26:25.992Z</time></trkpt><trkpt lat="36.9104105" lon="-3.5702081"><ele>777.0</ele><time>2026-03-07T10:26:27.002Z</time></trkpt><trkpt lat="36.9104917" lon="-3.5701815"><ele>777.6666666666667</ele><time>2026-03-07T10:26:28.002Z</time></trkpt><trkpt lat="36.9105527" lon="-3.5701582"><ele>778.3333333333334</ele><time>2026-03-07T10:26:28.994Z</time></trkpt><trkpt lat="36.9106094" lon="-3.5700635"><ele>779.0</ele><time>2026-03-07T10:26:30.993Z</time></trkpt><trkpt lat="36.9106408" lon="-3.569922"><ele>779.0</ele><time>2026-03-07T10:26:33.006Z</time></trkpt><trkpt lat="36.9106713" lon="-3.569833"><ele>779.0</ele><time>2026-03-07T10:26:33.998Z</time></trkpt><trkpt lat="36.9107114" lon="-3.5697248"><ele>779.0</ele><time>2026-03-07T10:26:34.995Z</time></trkpt><trkpt lat="36.9107476" lon="-3.5696047"><ele>779.0</ele><time>2026-03-07T10:26:35.99Z</time></trkpt><trkpt lat="36.9107825" lon="-3.5694908"><ele>779.0</ele><time>2026-03-07T10:26:36.997Z</time></trkpt><trkpt lat="36.9108133" lon="-3.5693843"><ele>779.8000000000001</ele><time>2026-03-07T10:26:38Z</time></trkpt><trkpt lat="36.9108467" lon="-3.5692779"><ele>780.6</ele><time>2026-03-07T10:26:39.002Z</time></trkpt><trkpt lat="36.910874" lon="-3.569162"><ele>781.4</ele><time>2026-03-07T10:26:39.997Z</time></trkpt><trkpt lat="36.9109036" lon="-3.5690386"><ele>782.2</ele><time>2026-03-07T10:26:41.008Z</time></trkpt><trkpt lat="36.9109368" lon="-3.5689041"><ele>783.0</ele><time>2026-03-07T10:26:42.016Z</time></trkpt><trkpt lat="36.9109703" lon="-3.5687555"><ele>780.5999999999999</ele><time>2026-03-07T10:26:43.013Z</time></trkpt><trkpt lat="36.9110009" lon="-3.5686062"><ele>778.1999999999999</ele><time>2026-03-07T10:26:44.008Z</time></trkpt><trkpt lat="36.9110291" lon="-3.5684686"><ele>775.8</ele><time>2026-03-07T10:26:45.006Z</time></trkpt><trkpt lat="36.9110504" lon="-3.5683405"><ele>773.4</ele><time>2026-03-07T10:26:46.048Z</time></trkpt><trkpt lat="36.9110653" lon="-3.5682166"><ele>771.0</ele><time>2026-03-07T10:26:47.024Z</time></trkpt><trkpt lat="36.9110823" lon="-3.5680952"><ele>771.0</ele><time>2026-03-07T10:26:48.005Z</time></trkpt><trkpt lat="36.911089" lon="-3.5679753"><ele>771.0</ele><time>2026-03-07T10:26:49.008Z</time></trkpt><trkpt lat="36.9111029" lon="-3.5678541"><ele>771.0</ele><time>2026-03-07T10:26:49.993Z</time></trkpt><trkpt lat="36.9111175" lon="-3.5677163"><ele>771.0</ele><time>2026-03-07T10:26:51.008Z</time></trkpt><trkpt lat="36.9111389" lon="-3.5675643"><ele>771.0</ele><time>2026-03-07T10:26:52.008Z</time></trkpt><trkpt lat="36.9111629" lon="-3.5674002"><ele>769.5</ele><time>2026-03-07T10:26:53Z</time></trkpt><trkpt lat="36.9111847" lon="-3.5672347"><ele>768.0</ele><time>2026-03-07T10:26:53.994Z</time></trkpt><trkpt lat="36.9112063" lon="-3.5670808"><ele>766.5</ele><time>2026-03-07T10:26:54.998Z</time></trkpt><trkpt lat="36.9112249" lon="-3.5669345"><ele>765.0</ele><time>2026-03-07T10:26:55.989Z</time></trkpt><trkpt lat="36.9112395" lon="-3.5667933"><ele>765.0</ele><time>2026-03-07T10:26:56.994Z</time></trkpt><trkpt lat="36.9112425" lon="-3.566652"><ele>765.0</ele><time>2026-03-07T10:26:57.991Z</time></trkpt><trkpt lat="36.9112478" lon="-3.5665043"><ele>765.0</ele><time>2026-03-07T10:26:59.013Z</time></trkpt><trkpt lat="36.9112466" lon="-3.5663533"><ele>765.0</ele><time>2026-03-07T10:27:00.002Z</time></trkpt><trkpt lat="36.9112321" lon="-3.5662097"><ele>764.6</ele><time>2026-03-07T10:27:01.003Z</time></trkpt><trkpt lat="36.9112172" lon="-3.5660855"><ele>764.2</ele><time>2026-03-07T10:27:01.995Z</time></trkpt><trkpt lat="36.911209" lon="-3.5659861"><ele>763.8</ele><time>2026-03-07T10:27:02.994Z</time></trkpt><trkpt lat="36.9111998" lon="-3.5658876"><ele>763.4</ele><time>2026-03-07T10:27:04.003Z</time></trkpt><trkpt lat="36.9111891" lon="-3.5657649"><ele>763.0</ele><time>2026-03-07T10:27:04.994Z</time></trkpt><trkpt lat="36.9111895" lon="-3.5656265"><ele>763.0</ele><time>2026-03-07T10:27:06.005Z</time></trkpt><trkpt lat="36.9111883" lon="-3.565485"><ele>763.0</ele><time>2026-03-07T10:27:07.002Z</time></trkpt><trkpt lat="36.9111879" lon="-3.5653483"><ele>763.0</ele><time>2026-03-07T10:27:08.029Z</time></trkpt><trkpt lat="36.9111801" lon="-3.5652131"><ele>763.0</ele><time>2026-03-07T10:27:08.994Z</time></trkpt><trkpt lat="36.9111688" lon="-3.5650769"><ele>763.0</ele><time>2026-03-07T10:27:10.001Z</time></trkpt><trkpt lat="36.9111606" lon="-3.5649284"><ele>762.25</ele><time>2026-03-07T10:27:10.996Z</time></trkpt><trkpt lat="36.9111472" lon="-3.5647619"><ele>761.5</ele><time>2026-03-07T10:27:11.996Z</time></trkpt><trkpt lat="36.9111311" lon="-3.5645889"><ele>760.75</ele><time>2026-03-07T10:27:13.007Z</time></trkpt><trkpt lat="36.9111134" lon="-3.5644217"><ele>760.0</ele><time>2026-03-07T10:27:14.006Z</time></trkpt><trkpt lat="36.9111008" lon="-3.5642654"><ele>759.0</ele><time>2026-03-07T10:27:14.993Z</time></trkpt><trkpt lat="36.9110903" lon="-3.5641184"><ele>758.0</ele><time>2026-03-07T10:27:16.002Z</time></trkpt><trkpt lat="36.9110797" lon="-3.563978"><ele>757.0</ele><time>2026-03-07T10:27:17.011Z</time></trkpt><trkpt lat="36.9110674" lon="-3.5638452"><ele>756.0</ele><time>2026-03-07T10:27:17.999Z</time></trkpt><trkpt lat="36.9110511" lon="-3.5637144"><ele>755.0</ele><time>2026-03-07T10:27:19Z</time></trkpt><trkpt lat="36.9110343" lon="-3.5635758"><ele>754.75</ele><time>2026-03-07T10:27:19.982Z</time></trkpt><trkpt lat="36.9110071" lon="-3.563431"><ele>754.5</ele><time>2026-03-07T10:27:20.997Z</time></trkpt><trkpt lat="36.9109648" lon="-3.5632822"><ele>754.25</ele><time>2026-03-07T10:27:22.006Z</time></trkpt><trkpt lat="36.9109203" lon="-3.5631279"><ele>754.0</ele><time>2026-03-07T10:27:22.998Z</time></trkpt><trkpt lat="36.9108701" lon="-3.5629756"><ele>752.0</ele><time>2026-03-07T10:27:24Z</time></trkpt><trkpt lat="36.9108126" lon="-3.5628377"><ele>750.0</ele><time>2026-03-07T10:27:24.996Z</time></trkpt><trkpt lat="36.91075" lon="-3.5627047"><ele>748.0</ele><time>2026-03-07T10:27:25.995Z</time></trkpt><trkpt lat="36.9106781" lon="-3.5625808"><ele>746.0</ele><time>2026-03-07T10:27:27.019Z</time></trkpt><trkpt lat="36.9106063" lon="-3.562475"><ele>746.0</ele><time>2026-03-07T10:27:27.988Z</time></trkpt><trkpt lat="36.910549" lon="-3.5623878"><ele>746.0</ele><time>2026-03-07T10:27:28.991Z</time></trkpt><trkpt lat="36.9105027" lon="-3.5623197"><ele>746.0</ele><time>2026-03-07T10:27:30Z</time></trkpt><trkpt lat="36.9104118" lon="-3.5622256"><ele>746.0</ele><time>2026-03-07T10:27:31.993Z</time></trkpt><trkpt lat="36.9103303" lon="-3.562134"><ele>746.0</ele><time>2026-03-07T10:27:33.994Z</time></trkpt><trkpt lat="36.9102438" lon="-3.5620269"><ele>745.8</ele><time>2026-03-07T10:27:35.989Z</time></trkpt><trkpt lat="36.9102002" lon="-3.5619623"><ele>745.5999999999999</ele><time>2026-03-07T10:27:36.996Z</time></trkpt><trkpt lat="36.9101516" lon="-3.561881"><ele>745.4</ele><time>2026-03-07T10:27:38Z</time></trkpt><trkpt lat="36.9100863" lon="-3.5617876"><ele>745.2</ele><time>2026-03-07T10:27:39Z</time></trkpt><trkpt lat="36.9100053" lon="-3.5616832"><ele>745.0</ele><time>2026-03-07T10:27:40.001Z</time></trkpt><trkpt lat="36.9099215" lon="-3.5615732"><ele>745.0</ele><time>2026-03-07T10:27:40.999Z</time></trkpt><trkpt lat="36.9098418" lon="-3.5614752"><ele>745.0</ele><time>2026-03-07T10:27:41.996Z</time></trkpt><trkpt lat="36.9097669" lon="-3.561379"><ele>745.0</ele><time>2026-03-07T10:27:43.005Z</time></trkpt><trkpt lat="36.9096973" lon="-3.5612911"><ele>745.0</ele><time>2026-03-07T10:27:44.005Z</time></trkpt><trkpt lat="36.9096349" lon="-3.5612089"><ele>745.0</ele><time>2026-03-07T10:27:44.999Z</time></trkpt><trkpt lat="36.9095865" lon="-3.5611329"><ele>745.6666666666667</ele><time>2026-03-07T10:27:46.003Z</time></trkpt><trkpt lat="36.9095445" lon="-3.5610663"><ele>746.3333333333334</ele><time>2026-03-07T10:27:46.998Z</time></trkpt><trkpt lat="36.9094543" lon="-3.5609989"><ele>747.0</ele><time>2026-03-07T10:27:48.987Z</time></trkpt><trkpt lat="36.9093504" lon="-3.5610921"><ele>747.6666666666666</ele><time>2026-03-07T10:27:51.004Z</time></trkpt><trkpt lat="36.909305" lon="-3.5611483"><ele>748.3333333333333</ele><time>2026-03-07T10:27:51.994Z</time></trkpt><trkpt lat="36.9092278" lon="-3.5611537"><ele>749.0</ele><time>2026-03-07T10:27:54.001Z</time></trkpt><trkpt lat="36.9091525" lon="-3.5610046"><ele>749.0</ele><time>2026-03-07T10:27:55.967Z</time></trkpt><trkpt lat="36.9091085" lon="-3.5608909"><ele>749.0</ele><time>2026-03-07T10:27:56.971Z</time></trkpt><trkpt lat="36.9090667" lon="-3.5607564"><ele>749.0</ele><time>2026-03-07T10:27:57.971Z</time></trkpt><trkpt lat="36.9090403" lon="-3.5606168"><ele>749.0</ele><time>2026-03-07T10:27:58.967Z</time></trkpt><trkpt lat="36.9090262" lon="-3.5604878"><ele>749.0</ele><time>2026-03-07T10:28:00.035Z</time></trkpt><trkpt lat="36.9090104" lon="-3.5603728"><ele>747.1666666666666</ele><time>2026-03-07T10:28:01.077Z</time></trkpt><trkpt lat="36.908978" lon="-3.5602604"><ele>745.3333333333333</ele><time>2026-03-07T10:28:02.028Z</time></trkpt><trkpt lat="36.9089232" lon="-3.5601608"><ele>743.5</ele><time>2026-03-07T10:28:03.065Z</time></trkpt><trkpt lat="36.9088696" lon="-3.5600662"><ele>741.6666666666666</ele><time>2026-03-07T10:28:04.047Z</time></trkpt><trkpt lat="36.9088165" lon="-3.5599857"><ele>739.8333333333334</ele><time>2026-03-07T10:28:05.006Z</time></trkpt><trkpt lat="36.9087719" lon="-3.5599094"><ele>738.0</ele><time>2026-03-07T10:28:06.008Z</time></trkpt><trkpt lat="36.9087603" lon="-3.5598039"><ele>738.0</ele><time>2026-03-07T10:28:07.07Z</time></trkpt><trkpt lat="36.9087455" lon="-3.559678"><ele>738.0</ele><time>2026-03-07T10:28:08.027Z</time></trkpt><trkpt lat="36.9087231" lon="-3.5595454"><ele>738.0</ele><time>2026-03-07T10:28:09.022Z</time></trkpt><trkpt lat="36.9086976" lon="-3.559415"><ele>738.0</ele><time>2026-03-07T10:28:10.027Z</time></trkpt><trkpt lat="36.9086723" lon="-3.5592931"><ele>738.0</ele><time>2026-03-07T10:28:11.012Z</time></trkpt><trkpt lat="36.9086513" lon="-3.5591758"><ele>735.2</ele><time>2026-03-07T10:28:11.99Z</time></trkpt><trkpt lat="36.9086373" lon="-3.5590595"><ele>732.4</ele><time>2026-03-07T10:28:13.013Z</time></trkpt><trkpt lat="36.9086202" lon="-3.558947"><ele>729.6</ele><time>2026-03-07T10:28:14.007Z</time></trkpt><trkpt lat="36.9085934" lon="-3.5588354"><ele>726.8000000000001</ele><time>2026-03-07T10:28:14.995Z</time></trkpt><trkpt lat="36.9085569" lon="-3.5587245"><ele>724.0</ele><time>2026-03-07T10:28:15.998Z</time></trkpt><trkpt lat="36.9085205" lon="-3.558613"><ele>726.0</ele><time>2026-03-07T10:28:16.995Z</time></trkpt><trkpt lat="36.9084916" lon="-3.558501"><ele>728.0</ele><time>2026-03-07T10:28:17.992Z</time></trkpt><trkpt lat="36.908455" lon="-3.558387"><ele>730.0</ele><time>2026-03-07T10:28:18.994Z</time></trkpt><trkpt lat="36.9084203" lon="-3.5582737"><ele>732.0</ele><time>2026-03-07T10:28:19.99Z</time></trkpt><trkpt lat="36.9083687" lon="-3.5581828"><ele>734.0</ele><time>2026-03-07T10:28:21.002Z</time></trkpt><trkpt lat="36.9083188" lon="-3.5581143"><ele>734.0</ele><time>2026-03-07T10:28:21.997Z</time></trkpt><trkpt lat="36.9082606" lon="-3.5580632"><ele>734.0</ele><time>2026-03-07T10:28:22.994Z</time></trkpt><trkpt lat="36.908193" lon="-3.5580077"><ele>734.0</ele><time>2026-03-07T10:28:24.01Z</time></trkpt><trkpt lat="36.9081266" lon="-3.5579473"><ele>734.0</ele><time>2026-03-07T10:28:24.999Z</time></trkpt><trkpt lat="36.9080677" lon="-3.5578849"><ele>734.0</ele><time>2026-03-07T10:28:25.995Z</time></trkpt><trkpt lat="36.9080211" lon="-3.5578302"><ele>734.0</ele><time>2026-03-07T10:28:26.999Z</time></trkpt><trkpt lat="36.9079946" lon="-3.5577586"><ele>734.0</ele><time>2026-03-07T10:28:27.998Z</time></trkpt><trkpt lat="36.9079636" lon="-3.5576331"><ele>731.4000000000001</ele><time>2026-03-07T10:28:29.995Z</time></trkpt><trkpt lat="36.9079707" lon="-3.5575379"><ele>728.8</ele><time>2026-03-07T10:28:32Z</time></trkpt><trkpt lat="36.9080416" lon="-3.5575685"><ele>726.2</ele><time>2026-03-07T10:33:21.027Z</time></trkpt><trkpt lat="36.9081445" lon="-3.5576642"><ele>723.5999999999999</ele><time>2026-03-07T10:33:23.009Z</time></trkpt><trkpt lat="36.9082142" lon="-3.5577202"><ele>721.0</ele><time>2026-03-07T10:33:24.013Z</time></trkpt><trkpt lat="36.9082814" lon="-3.5577904"><ele>721.0</ele><time>2026-03-07T10:33:25.029Z</time></trkpt><trkpt lat="36.9083505" lon="-3.5578591"><ele>721.0</ele><time>2026-03-07T10:33:26.023Z</time></trkpt><trkpt lat="36.9084332" lon="-3.557913"><ele>721.0</ele><time>2026-03-07T10:33:27.014Z</time></trkpt><trkpt lat="36.9085208" lon="-3.5579636"><ele>721.0</ele><time>2026-03-07T10:33:27.999Z</time></trkpt><trkpt lat="36.9086128" lon="-3.5580135"><ele>721.0</ele><time>2026-03-07T10:33:29.004Z</time></trkpt><trkpt lat="36.9086955" lon="-3.5580594"><ele>719.4</ele><time>2026-03-07T10:33:30.015Z</time></trkpt><trkpt lat="36.9087517" lon="-3.5581251"><ele>717.8</ele><time>2026-03-07T10:33:30.996Z</time></trkpt><trkpt lat="36.9088072" lon="-3.5581784"><ele>716.1999999999999</ele><time>2026-03-07T10:33:32.002Z</time></trkpt><trkpt lat="36.9089165" lon="-3.5582137"><ele>714.5999999999999</ele><time>2026-03-07T10:33:33.987Z</time></trkpt><trkpt lat="36.9090036" lon="-3.5581496"><ele>713.0</ele><time>2026-03-07T10:33:36.01Z</time></trkpt><trkpt lat="36.9090489" lon="-3.5580499"><ele>713.0</ele><time>2026-03-07T10:33:37.992Z</time></trkpt><trkpt lat="36.9090133" lon="-3.55792"><ele>713.0</ele><time>2026-03-07T10:33:40.002Z</time></trkpt><trkpt lat="36.90897" lon="-3.557824"><ele>713.0</ele><time>2026-03-07T10:33:41Z</time></trkpt><trkpt lat="36.9089267" lon="-3.5576903"><ele>713.0</ele><time>2026-03-07T10:33:42.021Z</time></trkpt><trkpt lat="36.9088966" lon="-3.5575399"><ele>713.0</ele><time>2026-03-07T10:33:43.007Z</time></trkpt><trkpt lat="36.9088747" lon="-3.5573885"><ele>712.2</ele><time>2026-03-07T10:33:43.993Z</time></trkpt><trkpt lat="36.9088555" lon="-3.5572611"><ele>711.4</ele><time>2026-03-07T10:33:45.001Z</time></trkpt><trkpt lat="36.9088434" lon="-3.5571437"><ele>710.6</ele><time>2026-03-07T10:33:46.006Z</time></trkpt><trkpt lat="36.908826" lon="-3.5570304"><ele>709.8000000000001</ele><time>2026-03-07T10:33:47Z</time></trkpt><trkpt lat="36.9088131" lon="-3.5569279"><ele>709.0</ele><time>2026-03-07T10:33:48.005Z</time></trkpt><trkpt lat="36.9087997" lon="-3.5568305"><ele>709.0000000000001</ele><time>2026-03-07T10:33:49.013Z</time></trkpt><trkpt lat="36.9087881" lon="-3.5567443"><ele>709.0</ele><time>2026-03-07T10:33:50Z</time></trkpt><trkpt lat="36.9087921" lon="-3.5566643"><ele>709.0</ele><time>2026-03-07T10:33:50.998Z</time></trkpt><trkpt lat="36.9088055" lon="-3.5565847"><ele>709.0</ele><time>2026-03-07T10:33:51.996Z</time></trkpt><trkpt lat="36.9088529" lon="-3.5565289"><ele>709.0</ele><time>2026-03-07T10:33:53.014Z</time></trkpt><trkpt lat="36.9089322" lon="-3.556495"><ele>709.0000000000001</ele><time>2026-03-07T10:33:54.004Z</time></trkpt><trkpt lat="36.9090166" lon="-3.5564455"><ele>709.0</ele><time>2026-03-07T10:33:54.995Z</time></trkpt><trkpt lat="36.9090977" lon="-3.5563864"><ele>709.0</ele><time>2026-03-07T10:33:55.993Z</time></trkpt><trkpt lat="36.9091645" lon="-3.556298"><ele>709.0</ele><time>2026-03-07T10:33:56.996Z</time></trkpt><trkpt lat="36.9092093" lon="-3.5561809"><ele>709.0</ele><time>2026-03-07T10:33:57.999Z</time></trkpt><trkpt lat="36.909227" lon="-3.5560447"><ele>709.0</ele><time>2026-03-07T10:33:58.992Z</time></trkpt><trkpt lat="36.9092253" lon="-3.5559105"><ele>709.0</ele><time>2026-03-07T10:33:59.986Z</time></trkpt><trkpt lat="36.9092105" lon="-3.5557747"><ele>708.8000000000001</ele><time>2026-03-07T10:34:00.993Z</time></trkpt><trkpt lat="36.909202" lon="-3.5556407"><ele>708.6</ele><time>2026-03-07T10:34:01.998Z</time></trkpt><trkpt lat="36.9092143" lon="-3.5555108"><ele>708.4</ele><time>2026-03-07T10:34:02.995Z</time></trkpt><trkpt lat="36.9092491" lon="-3.5553926"><ele>708.2</ele><time>2026-03-07T10:34:03.994Z</time></trkpt><trkpt lat="36.9092944" lon="-3.5552862"><ele>708.0</ele><time>2026-03-07T10:34:05.005Z</time></trkpt><trkpt lat="36.9093584" lon="-3.5552001"><ele>705.0</ele><time>2026-03-07T10:34:05.998Z</time></trkpt><trkpt lat="36.9094695" lon="-3.5551354"><ele>702.0</ele><time>2026-03-07T10:34:07Z</time></trkpt><trkpt lat="36.9096022" lon="-3.555088"><ele>699.0</ele><time>2026-03-07T10:34:07.996Z</time></trkpt><trkpt lat="36.9097363" lon="-3.555036"><ele>696.0</ele><time>2026-03-07T10:34:09.007Z</time></trkpt><trkpt lat="36.9098709" lon="-3.5549932"><ele>696.0</ele><time>2026-03-07T10:34:09.995Z</time></trkpt><trkpt lat="36.9100042" lon="-3.5549293"><ele>696.0</ele><time>2026-03-07T10:34:11Z</time></trkpt><trkpt lat="36.9101414" lon="-3.5548709"><ele>696.0</ele><time>2026-03-07T10:34:12.003Z</time></trkpt><trkpt lat="36.9102706" lon="-3.5547981"><ele>696.0</ele><time>2026-03-07T10:34:13Z</time></trkpt><trkpt lat="36.9103998" lon="-3.5547276"><ele>694.75</ele><time>2026-03-07T10:34:13.995Z</time></trkpt><trkpt lat="36.9105242" lon="-3.5546555"><ele>693.5</ele><time>2026-03-07T10:34:15.002Z</time></trkpt><trkpt lat="36.9106417" lon="-3.5545854"><ele>692.25</ele><time>2026-03-07T10:34:15.99Z</time></trkpt><trkpt lat="36.9107615" lon="-3.5545125"><ele>691.0</ele><time>2026-03-07T10:34:16.991Z</time></trkpt><trkpt lat="36.9108753" lon="-3.5544356"><ele>690.0</ele><time>2026-03-07T10:34:18.008Z</time></trkpt><trkpt lat="36.9109857" lon="-3.5543623"><ele>689.0</ele><time>2026-03-07T10:34:19Z</time></trkpt><trkpt lat="36.9110856" lon="-3.5542916"><ele>688.0</ele><time>2026-03-07T10:34:19.993Z</time></trkpt><trkpt lat="36.9111755" lon="-3.5542309"><ele>687.0</ele><time>2026-03-07T10:34:20.999Z</time></trkpt><trkpt lat="36.9112581" lon="-3.5541652"><ele>686.0</ele><time>2026-03-07T10:34:22Z</time></trkpt><trkpt lat="36.9113531" lon="-3.554101"><ele>686.0</ele><time>2026-03-07T10:34:22.998Z</time></trkpt><trkpt lat="36.9114637" lon="-3.5540422"><ele>686.0</ele><time>2026-03-07T10:34:23.995Z</time></trkpt><trkpt lat="36.9115795" lon="-3.5539767"><ele>686.0</ele><time>2026-03-07T10:34:25.003Z</time></trkpt><trkpt lat="36.9117008" lon="-3.5539273"><ele>686.0</ele><time>2026-03-07T10:34:25.995Z</time></trkpt><trkpt lat="36.9118308" lon="-3.5538831"><ele>685.75</ele><time>2026-03-07T10:34:26.997Z</time></trkpt><trkpt lat="36.9119592" lon="-3.5538263"><ele>685.5</ele><time>2026-03-07T10:34:27.988Z</time></trkpt><trkpt lat="36.9120894" lon="-3.5537752"><ele>685.25</ele><time>2026-03-07T10:34:29.001Z</time></trkpt><trkpt lat="36.9122062" lon="-3.553721"><ele>685.0</ele><time>2026-03-07T10:34:30.001Z</time></trkpt><trkpt lat="36.9123232" lon="-3.5536739"><ele>682.75</ele><time>2026-03-07T10:34:30.99Z</time></trkpt><trkpt lat="36.9124395" lon="-3.553613"><ele>680.5</ele><time>2026-03-07T10:34:31.989Z</time></trkpt><trkpt lat="36.9125571" lon="-3.553545"><ele>678.25</ele><time>2026-03-07T10:34:33Z</time></trkpt><trkpt lat="36.9126762" lon="-3.5534963"><ele>676.0</ele><time>2026-03-07T10:34:33.995Z</time></trkpt><trkpt lat="36.9127782" lon="-3.5534472"><ele>674.8</ele><time>2026-03-07T10:34:34.999Z</time></trkpt><trkpt lat="36.912879" lon="-3.5533977"><ele>673.5999999999999</ele><time>2026-03-07T10:34:36Z</time></trkpt><trkpt lat="36.9129779" lon="-3.5533443"><ele>672.4</ele><time>2026-03-07T10:34:36.998Z</time></trkpt><trkpt lat="36.9130753" lon="-3.5532904"><ele>671.2</ele><time>2026-03-07T10:34:37.998Z</time></trkpt><trkpt lat="36.9131588" lon="-3.5532615"><ele>670.0</ele><time>2026-03-07T10:34:39.005Z</time></trkpt><trkpt lat="36.9132286" lon="-3.5532242"><ele>670.0</ele><time>2026-03-07T10:34:39.973Z</time></trkpt><trkpt lat="36.9133538" lon="-3.5532244"><ele>670.0</ele><time>2026-03-07T10:34:42.003Z</time></trkpt><trkpt lat="36.9134222" lon="-3.553235"><ele>670.0</ele><time>2026-03-07T10:34:43.004Z</time></trkpt><trkpt lat="36.9134608" lon="-3.5532982"><ele>670.0</ele><time>2026-03-07T10:34:43.997Z</time></trkpt><trkpt lat="36.913487" lon="-3.5534103"><ele>670.0</ele><time>2026-03-07T10:34:44.993Z</time></trkpt><trkpt lat="36.9135254" lon="-3.5535329"><ele>664.75</ele><time>2026-03-07T10:34:46.009Z</time></trkpt><trkpt lat="36.9135769" lon="-3.5536537"><ele>659.5</ele><time>2026-03-07T10:34:46.996Z</time></trkpt><trkpt lat="36.9136321" lon="-3.5537873"><ele>654.25</ele><time>2026-03-07T10:34:48.015Z</time></trkpt><trkpt lat="36.9136894" lon="-3.5539424"><ele>649.0</ele><time>2026-03-07T10:34:49Z</time></trkpt><trkpt lat="36.9137422" lon="-3.5540957"><ele>649.0</ele><time>2026-03-07T10:34:49.989Z</time></trkpt><trkpt lat="36.9138064" lon="-3.5542601"><ele>649.0</ele><time>2026-03-07T10:34:50.993Z</time></trkpt><trkpt lat="36.9138581" lon="-3.5544415"><ele>649.0</ele><time>2026-03-07T10:34:51.986Z</time></trkpt><trkpt lat="36.9139052" lon="-3.5546166"><ele>649.0</ele><time>2026-03-07T10:34:53Z</time></trkpt><trkpt lat="36.9139488" lon="-3.5547824"><ele>649.5</ele><time>2026-03-07T10:34:53.996Z</time></trkpt><trkpt lat="36.9139729" lon="-3.5549447"><ele>650.0</ele><time>2026-03-07T10:34:54.999Z</time></trkpt><trkpt lat="36.9139839" lon="-3.5550993"><ele>650.5</ele><time>2026-03-07T10:34:55.988Z</time></trkpt><trkpt lat="36.9139797" lon="-3.555243"><ele>651.0</ele><time>2026-03-07T10:34:57.009Z</time></trkpt><trkpt lat="36.913963" lon="-3.5553748"><ele>649.25</ele><time>2026-03-07T10:34:58.009Z</time></trkpt><trkpt lat="36.9139276" lon="-3.5554991"><ele>647.5</ele><time>2026-03-07T10:34:59.013Z</time></trkpt><trkpt lat="36.9138856" lon="-3.5556226"><ele>645.75</ele><time>2026-03-07T10:34:59.999Z</time></trkpt><trkpt lat="36.913824" lon="-3.5557381"><ele>644.0</ele><time>2026-03-07T10:35:01.004Z</time></trkpt><trkpt lat="36.9137466" lon="-3.5558676"><ele>644.0</ele><time>2026-03-07T10:35:01.994Z</time></trkpt><trkpt lat="36.9136705" lon="-3.5559731"><ele>644.0</ele><time>2026-03-07T10:35:02.986Z</time></trkpt><trkpt lat="36.9136032" lon="-3.5560727"><ele>644.0</ele><time>2026-03-07T10:35:04.012Z</time></trkpt><trkpt lat="36.9135654" lon="-3.5561885"><ele>644.0</ele><time>2026-03-07T10:35:05Z</time></trkpt><trkpt lat="36.9135736" lon="-3.5563158"><ele>644.0</ele><time>2026-03-07T10:35:05.974Z</time></trkpt><trkpt lat="36.9136187" lon="-3.5564424"><ele>643.75</ele><time>2026-03-07T10:35:06.992Z</time></trkpt><trkpt lat="36.9136945" lon="-3.5565552"><ele>643.5</ele><time>2026-03-07T10:35:08.005Z</time></trkpt><trkpt lat="36.9138119" lon="-3.556631"><ele>643.25</ele><time>2026-03-07T10:35:09.004Z</time></trkpt><trkpt lat="36.9139531" lon="-3.5566886"><ele>643.0</ele><time>2026-03-07T10:35:09.997Z</time></trkpt><trkpt lat="36.9141063" lon="-3.5567466"><ele>641.6666666666667</ele><time>2026-03-07T10:35:11.001Z</time></trkpt><trkpt lat="36.9142628" lon="-3.5568184"><ele>640.3333333333334</ele><time>2026-03-07T10:35:11.996Z</time></trkpt><trkpt lat="36.9144282" lon="-3.5568955"><ele>639.0</ele><time>2026-03-07T10:35:13.015Z</time></trkpt><trkpt lat="36.9145889" lon="-3.5569711"><ele>639.0</ele><time>2026-03-07T10:35:13.999Z</time></trkpt><trkpt lat="36.9147407" lon="-3.5570413"><ele>639.0</ele><time>2026-03-07T10:35:15.001Z</time></trkpt><trkpt lat="36.9148867" lon="-3.5571057"><ele>639.0</ele><time>2026-03-07T10:35:16.003Z</time></trkpt><trkpt lat="36.9150219" lon="-3.5571747"><ele>636.0</ele><time>2026-03-07T10:35:16.994Z</time></trkpt><trkpt lat="36.9151518" lon="-3.557228"><ele>633.0</ele><time>2026-03-07T10:35:17.99Z</time></trkpt><trkpt lat="36.9152701" lon="-3.557252"><ele>630.0</ele><time>2026-03-07T10:35:19.01Z</time></trkpt><trkpt lat="36.9153823" lon="-3.5572359"><ele>627.0</ele><time>2026-03-07T10:35:20.002Z</time></trkpt><trkpt lat="36.9154927" lon="-3.5571751"><ele>627.0</ele><time>2026-03-07T10:35:21.004Z</time></trkpt><trkpt lat="36.9155925" lon="-3.5570667"><ele>627.0</ele><time>2026-03-07T10:35:22.001Z</time></trkpt><trkpt lat="36.9156897" lon="-3.5569404"><ele>627.0</ele><time>2026-03-07T10:35:22.996Z</time></trkpt><trkpt lat="36.9157796" lon="-3.5567961"><ele>627.0</ele><time>2026-03-07T10:35:23.992Z</time></trkpt><trkpt lat="36.9158783" lon="-3.5566671"><ele>624.5</ele><time>2026-03-07T10:35:25.006Z</time></trkpt><trkpt lat="36.9159851" lon="-3.5565543"><ele>622.0</ele><time>2026-03-07T10:35:25.987Z</time></trkpt><trkpt lat="36.916102" lon="-3.5564638"><ele>619.5</ele><time>2026-03-07T10:35:26.994Z</time></trkpt><trkpt lat="36.9162327" lon="-3.5563996"><ele>617.0</ele><time>2026-03-07T10:35:28.001Z</time></trkpt><trkpt lat="36.9163821" lon="-3.5563848"><ele>617.0</ele><time>2026-03-07T10:35:28.999Z</time></trkpt><trkpt lat="36.9165309" lon="-3.5563949"><ele>617.0</ele><time>2026-03-07T10:35:30Z</time></trkpt><trkpt lat="36.9166693" lon="-3.5564173"><ele>617.0</ele><time>2026-03-07T10:35:30.992Z</time></trkpt><trkpt lat="36.9167884" lon="-3.5564086"><ele>617.0</ele><time>2026-03-07T10:35:32.005Z</time></trkpt><trkpt lat="36.9168914" lon="-3.5563464"><ele>613.0</ele><time>2026-03-07T10:35:33.004Z</time></trkpt><trkpt lat="36.9169824" lon="-3.5562661"><ele>609.0</ele><time>2026-03-07T10:35:33.999Z</time></trkpt><trkpt lat="36.9170482" lon="-3.5561458"><ele>605.0</ele><time>2026-03-07T10:35:34.99Z</time></trkpt><trkpt lat="36.9170744" lon="-3.5559658"><ele>601.0</ele><time>2026-03-07T10:35:35.992Z</time></trkpt><trkpt lat="36.9170968" lon="-3.5557816"><ele>601.0</ele><time>2026-03-07T10:35:37Z</time></trkpt><trkpt lat="36.9171098" lon="-3.5555884"><ele>601.0</ele><time>2026-03-07T10:35:38Z</time></trkpt><trkpt lat="36.9171188" lon="-3.5553856"><ele>601.0</ele><time>2026-03-07T10:35:39.015Z</time></trkpt><trkpt lat="36.9171241" lon="-3.5551868"><ele>598.6666666666667</ele><time>2026-03-07T10:35:39.987Z</time></trkpt><trkpt lat="36.9170931" lon="-3.554988"><ele>596.3333333333334</ele><time>2026-03-07T10:35:40.993Z</time></trkpt><trkpt lat="36.9170059" lon="-3.5548076"><ele>594.0</ele><time>2026-03-07T10:35:41.994Z</time></trkpt><trkpt lat="36.9169047" lon="-3.554675"><ele>596.5</ele><time>2026-03-07T10:35:42.983Z</time></trkpt><trkpt lat="36.9168055" lon="-3.5545338"><ele>599.0</ele><time>2026-03-07T10:35:43.998Z</time></trkpt><trkpt lat="36.9167209" lon="-3.5543952"><ele>601.5</ele><time>2026-03-07T10:35:44.981Z</time></trkpt><trkpt lat="36.9166569" lon="-3.5542573"><ele>604.0</ele><time>2026-03-07T10:35:46.001Z</time></trkpt><trkpt lat="36.9166171" lon="-3.5541089"><ele>604.0</ele><time>2026-03-07T10:35:46.992Z</time></trkpt><trkpt lat="36.9166102" lon="-3.553954"><ele>604.0</ele><time>2026-03-07T10:35:47.999Z</time></trkpt><trkpt lat="36.9166487" lon="-3.5538112"><ele>604.0</ele><time>2026-03-07T10:35:48.975Z</time></trkpt><trkpt lat="36.9167247" lon="-3.5536768"><ele>604.0</ele><time>2026-03-07T10:35:50.005Z</time></trkpt><trkpt lat="36.9168265" lon="-3.5535475"><ele>596.0</ele><time>2026-03-07T10:35:50.982Z</time></trkpt><trkpt lat="36.9169446" lon="-3.5534337"><ele>588.0</ele><time>2026-03-07T10:35:51.988Z</time></trkpt><trkpt lat="36.9170742" lon="-3.5533197"><ele>580.0</ele><time>2026-03-07T10:35:52.998Z</time></trkpt><trkpt lat="36.9172014" lon="-3.5532044"><ele>580.0</ele><time>2026-03-07T10:35:54.009Z</time></trkpt><trkpt lat="36.9173103" lon="-3.5530812"><ele>580.0</ele><time>2026-03-07T10:35:54.996Z</time></trkpt><trkpt lat="36.9174111" lon="-3.5529664"><ele>580.0</ele><time>2026-03-07T10:35:55.998Z</time></trkpt><trkpt lat="36.9174838" lon="-3.5528462"><ele>580.0</ele><time>2026-03-07T10:35:56.989Z</time></trkpt><trkpt lat="36.9175316" lon="-3.5527364"><ele>580.25</ele><time>2026-03-07T10:35:57.992Z</time></trkpt><trkpt lat="36.9175408" lon="-3.5525953"><ele>580.5</ele><time>2026-03-07T10:35:58.997Z</time></trkpt><trkpt lat="36.9174868" lon="-3.5524732"><ele>580.75</ele><time>2026-03-07T10:35:59.984Z</time></trkpt><trkpt lat="36.9173801" lon="-3.5523902"><ele>581.0</ele><time>2026-03-07T10:36:00.99Z</time></trkpt><trkpt lat="36.9172452" lon="-3.5523552"><ele>581.0</ele><time>2026-03-07T10:36:01.994Z</time></trkpt><trkpt lat="36.9171191" lon="-3.5523189"><ele>581.0</ele><time>2026-03-07T10:36:02.99Z</time></trkpt><trkpt lat="36.9169975" lon="-3.5522682"><ele>581.0</ele><time>2026-03-07T10:36:03.999Z</time></trkpt><trkpt lat="36.9168883" lon="-3.5521753"><ele>581.0</ele><time>2026-03-07T10:36:04.994Z</time></trkpt><trkpt lat="36.9168039" lon="-3.552024"><ele>583.6666666666666</ele><time>2026-03-07T10:36:05.989Z</time></trkpt><trkpt lat="36.9167422" lon="-3.5518465"><ele>586.3333333333334</ele><time>2026-03-07T10:36:07.002Z</time></trkpt><trkpt lat="36.9166916" lon="-3.5516489"><ele>589.0</ele><time>2026-03-07T10:36:07.991Z</time></trkpt><trkpt lat="36.9166641" lon="-3.55145"><ele>589.0</ele><time>2026-03-07T10:36:08.988Z</time></trkpt><trkpt lat="36.9166767" lon="-3.5512634"><ele>589.0</ele><time>2026-03-07T10:36:09.994Z</time></trkpt><trkpt lat="36.9167239" lon="-3.5510715"><ele>589.0</ele><time>2026-03-07T10:36:11.006Z</time></trkpt><trkpt lat="36.9167701" lon="-3.550888"><ele>580.25</ele><time>2026-03-07T10:36:11.992Z</time></trkpt><trkpt lat="36.9168115" lon="-3.5507062"><ele>571.5</ele><time>2026-03-07T10:36:12.988Z</time></trkpt><trkpt lat="36.9168388" lon="-3.5505389"><ele>562.75</ele><time>2026-03-07T10:36:13.987Z</time></trkpt><trkpt lat="36.916858" lon="-3.5503786"><ele>554.0</ele><time>2026-03-07T10:36:14.991Z</time></trkpt><trkpt lat="36.9168914" lon="-3.5502336"><ele>554.0</ele><time>2026-03-07T10:36:15.993Z</time></trkpt><trkpt lat="36.9169665" lon="-3.5501139"><ele>554.0</ele><time>2026-03-07T10:36:17.001Z</time></trkpt><trkpt lat="36.9170486" lon="-3.5499882"><ele>554.0</ele><time>2026-03-07T10:36:18.001Z</time></trkpt><trkpt lat="36.91713" lon="-3.5498563"><ele>554.0</ele><time>2026-03-07T10:36:19.003Z</time></trkpt><trkpt lat="36.9171908" lon="-3.5497155"><ele>554.0</ele><time>2026-03-07T10:36:19.999Z</time></trkpt><trkpt lat="36.91725" lon="-3.5495603"><ele>554.0</ele><time>2026-03-07T10:36:21.002Z</time></trkpt><trkpt lat="36.9173138" lon="-3.5494021"><ele>554.0</ele><time>2026-03-07T10:36:21.997Z</time></trkpt><trkpt lat="36.917378" lon="-3.5492478"><ele>554.0</ele><time>2026-03-07T10:36:22.993Z</time></trkpt><trkpt lat="36.9174336" lon="-3.5490941"><ele>556.5</ele><time>2026-03-07T10:36:23.997Z</time></trkpt><trkpt lat="36.9174894" lon="-3.5489366"><ele>559.0</ele><time>2026-03-07T10:36:25Z</time></trkpt><trkpt lat="36.9175265" lon="-3.5487699"><ele>561.5</ele><time>2026-03-07T10:36:25.985Z</time></trkpt><trkpt lat="36.9175431" lon="-3.548601"><ele>564.0</ele><time>2026-03-07T10:36:27Z</time></trkpt><trkpt lat="36.9175458" lon="-3.5484226"><ele>564.0</ele><time>2026-03-07T10:36:28.001Z</time></trkpt><trkpt lat="36.9175487" lon="-3.5482424"><ele>564.0</ele><time>2026-03-07T10:36:29.002Z</time></trkpt><trkpt lat="36.9175407" lon="-3.5480709"><ele>564.0</ele><time>2026-03-07T10:36:29.999Z</time></trkpt><trkpt lat="36.9175175" lon="-3.5479074"><ele>564.0</ele><time>2026-03-07T10:36:31Z</time></trkpt><trkpt lat="36.9174637" lon="-3.5477412"><ele>559.75</ele><time>2026-03-07T10:36:31.995Z</time></trkpt><trkpt lat="36.9173747" lon="-3.5476111"><ele>555.5</ele><time>2026-03-07T10:36:33.002Z</time></trkpt><trkpt lat="36.917267" lon="-3.54751"><ele>551.25</ele><time>2026-03-07T10:36:33.996Z</time></trkpt><trkpt lat="36.9171577" lon="-3.5474034"><ele>547.0</ele><time>2026-03-07T10:36:34.994Z</time></trkpt><trkpt lat="36.9170319" lon="-3.5472893"><ele>547.0</ele><time>2026-03-07T10:36:36.011Z</time></trkpt><trkpt lat="36.9168892" lon="-3.5471666"><ele>547.0</ele><time>2026-03-07T10:36:36.992Z</time></trkpt><trkpt lat="36.9167513" lon="-3.5470803"><ele>547.0</ele><time>2026-03-07T10:36:37.994Z</time></trkpt><trkpt lat="36.9166131" lon="-3.5470514"><ele>541.75</ele><time>2026-03-07T10:36:38.994Z</time></trkpt><trkpt lat="36.9164844" lon="-3.5470304"><ele>536.5</ele><time>2026-03-07T10:36:39.998Z</time></trkpt><trkpt lat="36.916355" lon="-3.5470073"><ele>531.25</ele><time>2026-03-07T10:36:40.991Z</time></trkpt><trkpt lat="36.9162244" lon="-3.5469809"><ele>526.0</ele><time>2026-03-07T10:36:41.988Z</time></trkpt><trkpt lat="36.9160881" lon="-3.5469499"><ele>526.0</ele><time>2026-03-07T10:36:42.984Z</time></trkpt><trkpt lat="36.9159569" lon="-3.5469053"><ele>526.0</ele><time>2026-03-07T10:36:43.992Z</time></trkpt><trkpt lat="36.9158418" lon="-3.5468282"><ele>526.0</ele><time>2026-03-07T10:36:44.992Z</time></trkpt><trkpt lat="36.9157562" lon="-3.5467025"><ele>526.0</ele><time>2026-03-07T10:36:46Z</time></trkpt><trkpt lat="36.9156773" lon="-3.5465579"><ele>526.6666666666667</ele><time>2026-03-07T10:36:47.063Z</time></trkpt><trkpt lat="36.9156151" lon="-3.5463744"><ele>527.3333333333334</ele><time>2026-03-07T10:36:47.997Z</time></trkpt><trkpt lat="36.915564" lon="-3.5461727"><ele>528.0</ele><time>2026-03-07T10:36:48.989Z</time></trkpt><trkpt lat="36.9155028" lon="-3.5459541"><ele>528.0</ele><time>2026-03-07T10:36:49.992Z</time></trkpt><trkpt lat="36.9154481" lon="-3.54573"><ele>528.0</ele><time>2026-03-07T10:36:50.987Z</time></trkpt><trkpt lat="36.9153931" lon="-3.5455233"><ele>528.0</ele><time>2026-03-07T10:36:51.99Z</time></trkpt><trkpt lat="36.9153334" lon="-3.5453122"><ele>522.3333333333334</ele><time>2026-03-07T10:36:52.995Z</time></trkpt><trkpt lat="36.9152652" lon="-3.5451076"><ele>516.6666666666667</ele><time>2026-03-07T10:36:53.994Z</time></trkpt><trkpt lat="36.9151847" lon="-3.5449015"><ele>511.0</ele><time>2026-03-07T10:36:54.998Z</time></trkpt><trkpt lat="36.9150783" lon="-3.5447067"><ele>514.6666666666667</ele><time>2026-03-07T10:36:56.003Z</time></trkpt><trkpt lat="36.9149694" lon="-3.5445397"><ele>518.3333333333334</ele><time>2026-03-07T10:36:56.993Z</time></trkpt><trkpt lat="36.9148527" lon="-3.54439"><ele>522.0</ele><time>2026-03-07T10:36:58Z</time></trkpt><trkpt lat="36.9147288" lon="-3.5442527"><ele>522.0</ele><time>2026-03-07T10:36:58.991Z</time></trkpt><trkpt lat="36.9146093" lon="-3.5441169"><ele>522.0</ele><time>2026-03-07T10:36:59.997Z</time></trkpt><trkpt lat="36.9145238" lon="-3.5439531"><ele>522.0</ele><time>2026-03-07T10:37:00.992Z</time></trkpt><trkpt lat="36.9144674" lon="-3.5437784"><ele>523.5</ele><time>2026-03-07T10:37:01.999Z</time></trkpt><trkpt lat="36.9144296" lon="-3.5436053"><ele>525.0</ele><time>2026-03-07T10:37:02.997Z</time></trkpt><trkpt lat="36.9143691" lon="-3.5434444"><ele>526.5</ele><time>2026-03-07T10:37:04.003Z</time></trkpt><trkpt lat="36.9142986" lon="-3.5432909"><ele>528.0</ele><time>2026-03-07T10:37:05.011Z</time></trkpt><trkpt lat="36.9142014" lon="-3.5431361"><ele>528.0</ele><time>2026-03-07T10:37:05.991Z</time></trkpt><trkpt lat="36.9140852" lon="-3.5429733"><ele>528.0</ele><time>2026-03-07T10:37:06.993Z</time></trkpt><trkpt lat="36.9139716" lon="-3.5428055"><ele>528.0</ele><time>2026-03-07T10:37:07.998Z</time></trkpt><trkpt lat="36.9138672" lon="-3.542637"><ele>522.25</ele><time>2026-03-07T10:37:09.002Z</time></trkpt><trkpt lat="36.9137657" lon="-3.5424808"><ele>516.5</ele><time>2026-03-07T10:37:09.994Z</time></trkpt><trkpt lat="36.9136772" lon="-3.5423458"><ele>510.75</ele><time>2026-03-07T10:37:11.013Z</time></trkpt><trkpt lat="36.9135996" lon="-3.5422374"><ele>505.0</ele><time>2026-03-07T10:37:11.998Z</time></trkpt><trkpt lat="36.9135194" lon="-3.5421581"><ele>505.00000000000006</ele><time>2026-03-07T10:37:13.004Z</time></trkpt><trkpt lat="36.913427" lon="-3.542108"><ele>505.0</ele><time>2026-03-07T10:37:14.009Z</time></trkpt><trkpt lat="36.9133417" lon="-3.5421164"><ele>505.0</ele><time>2026-03-07T10:37:14.99Z</time></trkpt><trkpt lat="36.9132592" lon="-3.5421649"><ele>505.0</ele><time>2026-03-07T10:37:16.009Z</time></trkpt><trkpt lat="36.9131833" lon="-3.5422067"><ele>505.00000000000006</ele><time>2026-03-07T10:37:16.993Z</time></trkpt><trkpt lat="36.9131156" lon="-3.542243"><ele>505.0</ele><time>2026-03-07T10:37:18.005Z</time></trkpt><trkpt lat="36.9130473" lon="-3.5422278"><ele>504.2</ele><time>2026-03-07T10:37:18.999Z</time></trkpt><trkpt lat="36.9129863" lon="-3.5421602"><ele>503.4</ele><time>2026-03-07T10:37:20.001Z</time></trkpt><trkpt lat="36.9129449" lon="-3.5420648"><ele>502.6</ele><time>2026-03-07T10:37:20.992Z</time></trkpt><trkpt lat="36.9129184" lon="-3.5419483"><ele>501.8</ele><time>2026-03-07T10:37:21.993Z</time></trkpt><trkpt lat="36.9129332" lon="-3.5418109"><ele>501.0</ele><time>2026-03-07T10:37:23.012Z</time></trkpt><trkpt lat="36.912946" lon="-3.5416703"><ele>501.0</ele><time>2026-03-07T10:37:23.994Z</time></trkpt><trkpt lat="36.9129635" lon="-3.5415274"><ele>501.0</ele><time>2026-03-07T10:37:24.985Z</time></trkpt><trkpt lat="36.9129782" lon="-3.5413769"><ele>501.0</ele><time>2026-03-07T10:37:26Z</time></trkpt><trkpt lat="36.9130095" lon="-3.5412254"><ele>501.0</ele><time>2026-03-07T10:37:26.985Z</time></trkpt><trkpt lat="36.9130698" lon="-3.5410821"><ele>497.25</ele><time>2026-03-07T10:37:27.994Z</time></trkpt><trkpt lat="36.913175" lon="-3.5409579"><ele>493.5</ele><time>2026-03-07T10:37:28.994Z</time></trkpt><trkpt lat="36.913298" lon="-3.5408586"><ele>489.75</ele><time>2026-03-07T10:37:29.997Z</time></trkpt><trkpt lat="36.913442" lon="-3.5408028"><ele>486.0</ele><time>2026-03-07T10:37:30.991Z</time></trkpt><trkpt lat="36.9136026" lon="-3.540774"><ele>482.0</ele><time>2026-03-07T10:37:31.999Z</time></trkpt><trkpt lat="36.9137734" lon="-3.5407548"><ele>478.0</ele><time>2026-03-07T10:37:32.988Z</time></trkpt><trkpt lat="36.9139349" lon="-3.5407308"><ele>474.0</ele><time>2026-03-07T10:37:33.995Z</time></trkpt><trkpt lat="36.9140861" lon="-3.540715"><ele>474.0</ele><time>2026-03-07T10:37:34.994Z</time></trkpt><trkpt lat="36.9142202" lon="-3.5407026"><ele>474.0</ele><time>2026-03-07T10:37:35.991Z</time></trkpt><trkpt lat="36.9143519" lon="-3.54069"><ele>474.0</ele><time>2026-03-07T10:37:37.001Z</time></trkpt><trkpt lat="36.9144783" lon="-3.5406737"><ele>474.0</ele><time>2026-03-07T10:37:37.993Z</time></trkpt><trkpt lat="36.9146003" lon="-3.540644"><ele>473.25</ele><time>2026-03-07T10:37:38.99Z</time></trkpt><trkpt lat="36.9147173" lon="-3.5406019"><ele>472.5</ele><time>2026-03-07T10:37:39.998Z</time></trkpt><trkpt lat="36.9148353" lon="-3.5405404"><ele>471.75</ele><time>2026-03-07T10:37:41.003Z</time></trkpt><trkpt lat="36.9149476" lon="-3.5404705"><ele>471.0</ele><time>2026-03-07T10:37:42Z</time></trkpt><trkpt lat="36.915039" lon="-3.5403819"><ele>471.0</ele><time>2026-03-07T10:37:42.999Z</time></trkpt><trkpt lat="36.9151184" lon="-3.5402735"><ele>471.0</ele><time>2026-03-07T10:37:43.995Z</time></trkpt><trkpt lat="36.9151917" lon="-3.5401585"><ele>471.0</ele><time>2026-03-07T10:37:44.999Z</time></trkpt><trkpt lat="36.9152508" lon="-3.5400305"><ele>471.0</ele><time>2026-03-07T10:37:45.99Z</time></trkpt><trkpt lat="36.9152908" lon="-3.5398969"><ele>471.0</ele><time>2026-03-07T10:37:46.998Z</time></trkpt><trkpt lat="36.9153222" lon="-3.5397459"><ele>471.0</ele><time>2026-03-07T10:37:47.998Z</time></trkpt><trkpt lat="36.9153494" lon="-3.5395954"><ele>471.0</ele><time>2026-03-07T10:37:49.003Z</time></trkpt><trkpt lat="36.9153546" lon="-3.5394303"><ele>471.0</ele><time>2026-03-07T10:37:49.997Z</time></trkpt><trkpt lat="36.9153435" lon="-3.5392453"><ele>471.33333333333337</ele><time>2026-03-07T10:37:51.001Z</time></trkpt><trkpt lat="36.9153049" lon="-3.5390667"><ele>471.6666666666667</ele><time>2026-03-07T10:37:52.002Z</time></trkpt><trkpt lat="36.9152593" lon="-3.5388872"><ele>472.0</ele><time>2026-03-07T10:37:52.997Z</time></trkpt><trkpt lat="36.9151982" lon="-3.5387127"><ele>473.6666666666667</ele><time>2026-03-07T10:37:54Z</time></trkpt><trkpt lat="36.9151326" lon="-3.5385373"><ele>475.33333333333337</ele><time>2026-03-07T10:37:54.997Z</time></trkpt><trkpt lat="36.9150664" lon="-3.538367"><ele>477.0</ele><time>2026-03-07T10:37:56.002Z</time></trkpt><trkpt lat="36.9150017" lon="-3.5381978"><ele>477.0</ele><time>2026-03-07T10:37:56.998Z</time></trkpt><trkpt lat="36.9149417" lon="-3.5380318"><ele>477.0</ele><time>2026-03-07T10:37:57.999Z</time></trkpt><trkpt lat="36.9149036" lon="-3.5378808"><ele>477.0</ele><time>2026-03-07T10:37:59Z</time></trkpt><trkpt lat="36.9148941" lon="-3.5377272"><ele>477.0</ele><time>2026-03-07T10:37:59.993Z</time></trkpt><trkpt lat="36.9148986" lon="-3.5375663"><ele>480.25</ele><time>2026-03-07T10:38:01.002Z</time></trkpt><trkpt lat="36.9149339" lon="-3.5374141"><ele>483.5</ele><time>2026-03-07T10:38:02.001Z</time></trkpt><trkpt lat="36.9150228" lon="-3.5372644"><ele>486.75</ele><time>2026-03-07T10:38:03.005Z</time></trkpt><trkpt lat="36.9151637" lon="-3.5371632"><ele>490.0</ele><time>2026-03-07T10:38:03.985Z</time></trkpt><trkpt lat="36.9153203" lon="-3.5370998"><ele>490.0</ele><time>2026-03-07T10:38:05.017Z</time></trkpt><trkpt lat="36.91549" lon="-3.5370621"><ele>490.0</ele><time>2026-03-07T10:38:06.001Z</time></trkpt><trkpt lat="36.9156502" lon="-3.5370317"><ele>490.0</ele><time>2026-03-07T10:38:07.001Z</time></trkpt><trkpt lat="36.9157856" lon="-3.5370037"><ele>490.0</ele><time>2026-03-07T10:38:08.003Z</time></trkpt><trkpt lat="36.9159152" lon="-3.5369607"><ele>490.0</ele><time>2026-03-07T10:38:08.991Z</time></trkpt><trkpt lat="36.9160408" lon="-3.5368921"><ele>490.0</ele><time>2026-03-07T10:38:09.996Z</time></trkpt><trkpt lat="36.9161597" lon="-3.5368102"><ele>490.0</ele><time>2026-03-07T10:38:11Z</time></trkpt><trkpt lat="36.9162695" lon="-3.536716"><ele>490.0</ele><time>2026-03-07T10:38:12.001Z</time></trkpt><trkpt lat="36.9163674" lon="-3.5366005"><ele>490.0</ele><time>2026-03-07T10:38:13Z</time></trkpt><trkpt lat="36.9164307" lon="-3.5364743"><ele>490.0</ele><time>2026-03-07T10:38:14.009Z</time></trkpt><trkpt lat="36.9164571" lon="-3.5363321"><ele>490.0</ele><time>2026-03-07T10:38:15.014Z</time></trkpt><trkpt lat="36.9164777" lon="-3.5361803"><ele>491.5</ele><time>2026-03-07T10:38:16.006Z</time></trkpt><trkpt lat="36.9164755" lon="-3.53601"><ele>493.0</ele><time>2026-03-07T10:38:16.984Z</time></trkpt><trkpt lat="36.9164723" lon="-3.5358295"><ele>494.5</ele><time>2026-03-07T10:38:17.991Z</time></trkpt><trkpt lat="36.9164588" lon="-3.5356287"><ele>496.0</ele><time>2026-03-07T10:38:19.002Z</time></trkpt><trkpt lat="36.9164511" lon="-3.5354174"><ele>498.6666666666667</ele><time>2026-03-07T10:38:20.004Z</time></trkpt><trkpt lat="36.9164415" lon="-3.5351882"><ele>501.33333333333337</ele><time>2026-03-07T10:38:20.99Z</time></trkpt><trkpt lat="36.9164562" lon="-3.5349568"><ele>504.0</ele><time>2026-03-07T10:38:22Z</time></trkpt><trkpt lat="36.916488" lon="-3.5347347"><ele>509.0</ele><time>2026-03-07T10:38:22.99Z</time></trkpt><trkpt lat="36.9165449" lon="-3.5345267"><ele>514.0</ele><time>2026-03-07T10:38:23.995Z</time></trkpt><trkpt lat="36.9166348" lon="-3.5343447"><ele>519.0</ele><time>2026-03-07T10:38:25.007Z</time></trkpt><trkpt lat="36.9167225" lon="-3.5341817"><ele>516.25</ele><time>2026-03-07T10:38:25.988Z</time></trkpt><trkpt lat="36.9168482" lon="-3.5340692"><ele>513.5</ele><time>2026-03-07T10:38:27.033Z</time></trkpt><trkpt lat="36.916975" lon="-3.5339783"><ele>510.75</ele><time>2026-03-07T10:38:28.004Z</time></trkpt><trkpt lat="36.917099" lon="-3.5338994"><ele>508.0</ele><time>2026-03-07T10:38:28.998Z</time></trkpt><trkpt lat="36.9172585" lon="-3.533839"><ele>508.0</ele><time>2026-03-07T10:38:29.998Z</time></trkpt><trkpt lat="36.917429" lon="-3.5338021"><ele>508.0</ele><time>2026-03-07T10:38:31.006Z</time></trkpt><trkpt lat="36.9176096" lon="-3.5337762"><ele>508.0</ele><time>2026-03-07T10:38:31.994Z</time></trkpt><trkpt lat="36.9178087" lon="-3.5337545"><ele>510.0</ele><time>2026-03-07T10:38:33.009Z</time></trkpt><trkpt lat="36.9179898" lon="-3.5337282"><ele>512.0</ele><time>2026-03-07T10:38:34.008Z</time></trkpt><trkpt lat="36.9181908" lon="-3.5336955"><ele>514.0</ele><time>2026-03-07T10:38:34.996Z</time></trkpt><trkpt lat="36.9183684" lon="-3.5336598"><ele>512.6666666666667</ele><time>2026-03-07T10:38:36.013Z</time></trkpt><trkpt lat="36.9185562" lon="-3.5336296"><ele>511.33333333333337</ele><time>2026-03-07T10:38:36.997Z</time></trkpt><trkpt lat="36.9187407" lon="-3.5335954"><ele>510.0</ele><time>2026-03-07T10:38:37.996Z</time></trkpt><trkpt lat="36.918923" lon="-3.5335538"><ele>510.0</ele><time>2026-03-07T10:38:39.004Z</time></trkpt><trkpt lat="36.9190991" lon="-3.5335233"><ele>510.0</ele><time>2026-03-07T10:38:39.993Z</time></trkpt><trkpt lat="36.9192662" lon="-3.5334946"><ele>510.0</ele><time>2026-03-07T10:38:40.985Z</time></trkpt><trkpt lat="36.9194269" lon="-3.5334619"><ele>512.6666666666666</ele><time>2026-03-07T10:38:41.993Z</time></trkpt><trkpt lat="36.9195876" lon="-3.5334284"><ele>515.3333333333333</ele><time>2026-03-07T10:38:42.993Z</time></trkpt><trkpt lat="36.9197476" lon="-3.5333977"><ele>518.0</ele><time>2026-03-07T10:38:43.997Z</time></trkpt><trkpt lat="36.9199135" lon="-3.5333623"><ele>522.0</ele><time>2026-03-07T10:38:44.997Z</time></trkpt><trkpt lat="36.9200742" lon="-3.5333309"><ele>526.0</ele><time>2026-03-07T10:38:45.993Z</time></trkpt><trkpt lat="36.9202373" lon="-3.5332926"><ele>530.0</ele><time>2026-03-07T10:38:47.001Z</time></trkpt><trkpt lat="36.9204084" lon="-3.5332565"><ele>530.0</ele><time>2026-03-07T10:38:47.999Z</time></trkpt><trkpt lat="36.9205864" lon="-3.5332207"><ele>530.0</ele><time>2026-03-07T10:38:48.994Z</time></trkpt><trkpt lat="36.9207609" lon="-3.5331812"><ele>530.0</ele><time>2026-03-07T10:38:49.985Z</time></trkpt><trkpt lat="36.9209391" lon="-3.5331313"><ele>531.3333333333333</ele><time>2026-03-07T10:38:50.994Z</time></trkpt><trkpt lat="36.921114" lon="-3.5330948"><ele>532.6666666666666</ele><time>2026-03-07T10:38:52.025Z</time></trkpt><trkpt lat="36.9212924" lon="-3.5330581"><ele>534.0</ele><time>2026-03-07T10:38:53.022Z</time></trkpt><trkpt lat="36.9214723" lon="-3.5330213"><ele>534.0</ele><time>2026-03-07T10:38:53.997Z</time></trkpt><trkpt lat="36.921648" lon="-3.5329853"><ele>534.0</ele><time>2026-03-07T10:38:54.995Z</time></trkpt><trkpt lat="36.9218268" lon="-3.5329492"><ele>534.0</ele><time>2026-03-07T10:38:55.997Z</time></trkpt><trkpt lat="36.9220009" lon="-3.5329107"><ele>537.3333333333334</ele><time>2026-03-07T10:38:56.991Z</time></trkpt><trkpt lat="36.9221723" lon="-3.5328707"><ele>540.6666666666667</ele><time>2026-03-07T10:38:58.002Z</time></trkpt><trkpt lat="36.9223451" lon="-3.5328434"><ele>544.0</ele><time>2026-03-07T10:38:58.995Z</time></trkpt><trkpt lat="36.9225115" lon="-3.5328204"><ele>544.5</ele><time>2026-03-07T10:39:00Z</time></trkpt><trkpt lat="36.9226639" lon="-3.5327965"><ele>545.0</ele><time>2026-03-07T10:39:00.988Z</time></trkpt><trkpt lat="36.9228102" lon="-3.5327855"><ele>545.5</ele><time>2026-03-07T10:39:02.008Z</time></trkpt><trkpt lat="36.9229559" lon="-3.5328053"><ele>546.0</ele><time>2026-03-07T10:39:03.01Z</time></trkpt><trkpt lat="36.9231007" lon="-3.5328567"><ele>545.5</ele><time>2026-03-07T10:39:03.997Z</time></trkpt><trkpt lat="36.9232433" lon="-3.5329304"><ele>545.0</ele><time>2026-03-07T10:39:05.023Z</time></trkpt><trkpt lat="36.9233598" lon="-3.5330372"><ele>544.5</ele><time>2026-03-07T10:39:05.996Z</time></trkpt><trkpt lat="36.9234694" lon="-3.5331543"><ele>544.0</ele><time>2026-03-07T10:39:07.011Z</time></trkpt><trkpt lat="36.923555" lon="-3.5332854"><ele>546.2</ele><time>2026-03-07T10:39:08Z</time></trkpt><trkpt lat="36.923612" lon="-3.5333849"><ele>548.4</ele><time>2026-03-07T10:39:09Z</time></trkpt><trkpt lat="36.9236555" lon="-3.5334712"><ele>550.6</ele><time>2026-03-07T10:39:10.008Z</time></trkpt><trkpt lat="36.9237082" lon="-3.5335373"><ele>552.8</ele><time>2026-03-07T10:39:10.983Z</time></trkpt><trkpt lat="36.9238046" lon="-3.5335739"><ele>555.0</ele><time>2026-03-07T10:39:13.02Z</time></trkpt><trkpt lat="36.923858" lon="-3.5334707"><ele>555.0</ele><time>2026-03-07T10:39:42.002Z</time></trkpt><trkpt lat="36.9239488" lon="-3.533339"><ele>555.0</ele><time>2026-03-07T10:39:43.998Z</time></trkpt><trkpt lat="36.9239838" lon="-3.5332122"><ele>555.0</ele><time>2026-03-07T10:39:44.993Z</time></trkpt><trkpt lat="36.9240081" lon="-3.5330759"><ele>555.0</ele><time>2026-03-07T10:39:45.994Z</time></trkpt><trkpt lat="36.9240231" lon="-3.5329085"><ele>555.0</ele><time>2026-03-07T10:39:46.996Z</time></trkpt><trkpt lat="36.9240435" lon="-3.5327329"><ele>555.0</ele><time>2026-03-07T10:39:47.991Z</time></trkpt><trkpt lat="36.9240637" lon="-3.5325452"><ele>555.0</ele><time>2026-03-07T10:39:49Z</time></trkpt><trkpt lat="36.9240773" lon="-3.5323784"><ele>555.0</ele><time>2026-03-07T10:39:49.996Z</time></trkpt><trkpt lat="36.9240805" lon="-3.5322251"><ele>555.0</ele><time>2026-03-07T10:39:50.996Z</time></trkpt><trkpt lat="36.9240617" lon="-3.5320945"><ele>555.0</ele><time>2026-03-07T10:39:52.055Z</time></trkpt><trkpt lat="36.9240305" lon="-3.5319752"><ele>555.0</ele><time>2026-03-07T10:39:52.998Z</time></trkpt><trkpt lat="36.9239775" lon="-3.5318412"><ele>555.0</ele><time>2026-03-07T10:39:54.001Z</time></trkpt><trkpt lat="36.9239495" lon="-3.5316786"><ele>557.0</ele><time>2026-03-07T10:39:55.02Z</time></trkpt><trkpt lat="36.9239388" lon="-3.5315219"><ele>559.0</ele><time>2026-03-07T10:39:55.997Z</time></trkpt><trkpt lat="36.9239061" lon="-3.5313724"><ele>561.0</ele><time>2026-03-07T10:39:56.982Z</time></trkpt><trkpt lat="36.9238443" lon="-3.5312299"><ele>563.0</ele><time>2026-03-07T10:39:58.002Z</time></trkpt><trkpt lat="36.9237689" lon="-3.531089"><ele>566.25</ele><time>2026-03-07T10:39:59Z</time></trkpt><trkpt lat="36.9236907" lon="-3.5309479"><ele>569.5</ele><time>2026-03-07T10:39:59.986Z</time></trkpt><trkpt lat="36.9236151" lon="-3.5307903"><ele>572.75</ele><time>2026-03-07T10:40:00.992Z</time></trkpt><trkpt lat="36.9235344" lon="-3.5306248"><ele>576.0</ele><time>2026-03-07T10:40:01.998Z</time></trkpt><trkpt lat="36.923453" lon="-3.5304529"><ele>578.0</ele><time>2026-03-07T10:40:02.999Z</time></trkpt><trkpt lat="36.9233628" lon="-3.5302724"><ele>580.0</ele><time>2026-03-07T10:40:04.004Z</time></trkpt><trkpt lat="36.9232726" lon="-3.5300806"><ele>582.0</ele><time>2026-03-07T10:40:05.004Z</time></trkpt><trkpt lat="36.9231839" lon="-3.529879"><ele>582.0</ele><time>2026-03-07T10:40:06Z</time></trkpt><trkpt lat="36.9230938" lon="-3.5296766"><ele>582.0</ele><time>2026-03-07T10:40:06.992Z</time></trkpt><trkpt lat="36.9230126" lon="-3.5294869"><ele>582.0</ele><time>2026-03-07T10:40:07.996Z</time></trkpt><trkpt lat="36.9229432" lon="-3.5293201"><ele>582.8000000000001</ele><time>2026-03-07T10:40:09.013Z</time></trkpt><trkpt lat="36.9228843" lon="-3.529171"><ele>583.6</ele><time>2026-03-07T10:40:09.987Z</time></trkpt><trkpt lat="36.9228393" lon="-3.5290351"><ele>584.4000000000001</ele><time>2026-03-07T10:40:11.03Z</time></trkpt><trkpt lat="36.9228012" lon="-3.5289228"><ele>585.2</ele><time>2026-03-07T10:40:11.999Z</time></trkpt><trkpt lat="36.9227729" lon="-3.528829"><ele>586.0</ele><time>2026-03-07T10:40:12.99Z</time></trkpt><trkpt lat="36.9227309" lon="-3.5287555"><ele>586.0</ele><time>2026-03-07T10:40:13.986Z</time></trkpt><trkpt lat="36.9226618" lon="-3.5287348"><ele>586.0</ele><time>2026-03-07T10:40:14.985Z</time></trkpt><trkpt lat="36.9225796" lon="-3.5287462"><ele>586.0</ele><time>2026-03-07T10:40:15.988Z</time></trkpt><trkpt lat="36.9224945" lon="-3.5287714"><ele>586.0</ele><time>2026-03-07T10:40:16.985Z</time></trkpt><trkpt lat="36.9224065" lon="-3.5287771"><ele>586.0</ele><time>2026-03-07T10:40:17.991Z</time></trkpt><trkpt lat="36.9223154" lon="-3.5287848"><ele>586.0</ele><time>2026-03-07T10:40:18.989Z</time></trkpt><trkpt lat="36.9222238" lon="-3.5288139"><ele>583.8</ele><time>2026-03-07T10:40:19.995Z</time></trkpt><trkpt lat="36.9221331" lon="-3.5288697"><ele>581.6</ele><time>2026-03-07T10:40:20.994Z</time></trkpt><trkpt lat="36.922039" lon="-3.5289396"><ele>579.4</ele><time>2026-03-07T10:40:21.996Z</time></trkpt><trkpt lat="36.9219459" lon="-3.5290135"><ele>577.2</ele><time>2026-03-07T10:40:22.991Z</time></trkpt><trkpt lat="36.9218422" lon="-3.5290836"><ele>575.0</ele><time>2026-03-07T10:40:23.992Z</time></trkpt><trkpt lat="36.9217358" lon="-3.52917"><ele>573.6666666666666</ele><time>2026-03-07T10:40:25.013Z</time></trkpt><trkpt lat="36.9216132" lon="-3.5292694"><ele>572.3333333333334</ele><time>2026-03-07T10:40:25.983Z</time></trkpt><trkpt lat="36.9214789" lon="-3.5293715"><ele>571.0</ele><time>2026-03-07T10:40:26.985Z</time></trkpt><trkpt lat="36.9213373" lon="-3.529488"><ele>571.0</ele><time>2026-03-07T10:40:28.008Z</time></trkpt><trkpt lat="36.9211965" lon="-3.5295955"><ele>571.0</ele><time>2026-03-07T10:40:28.989Z</time></trkpt><trkpt lat="36.9210442" lon="-3.5296934"><ele>571.0</ele><time>2026-03-07T10:40:29.989Z</time></trkpt><trkpt lat="36.9208861" lon="-3.5297687"><ele>569.0</ele><time>2026-03-07T10:40:31.002Z</time></trkpt><trkpt lat="36.9207337" lon="-3.5298314"><ele>567.0</ele><time>2026-03-07T10:40:31.994Z</time></trkpt><trkpt lat="36.9205806" lon="-3.5298862"><ele>565.0</ele><time>2026-03-07T10:40:32.985Z</time></trkpt><trkpt lat="36.9204208" lon="-3.529941"><ele>565.0</ele><time>2026-03-07T10:40:33.986Z</time></trkpt><trkpt lat="36.9202608" lon="-3.5299965"><ele>565.0</ele><time>2026-03-07T10:40:35.013Z</time></trkpt><trkpt lat="36.9201122" lon="-3.5300464"><ele>565.0</ele><time>2026-03-07T10:40:35.996Z</time></trkpt><trkpt lat="36.9199885" lon="-3.5300824"><ele>565.0</ele><time>2026-03-07T10:40:36.999Z</time></trkpt><trkpt lat="36.9198806" lon="-3.5300634"><ele>563.6</ele><time>2026-03-07T10:40:37.992Z</time></trkpt><trkpt lat="36.9197768" lon="-3.5300029"><ele>562.2</ele><time>2026-03-07T10:40:39.002Z</time></trkpt><trkpt lat="36.9197078" lon="-3.5299095"><ele>560.8</ele><time>2026-03-07T10:40:39.995Z</time></trkpt><trkpt lat="36.9196764" lon="-3.5297846"><ele>559.4</ele><time>2026-03-07T10:40:40.997Z</time></trkpt><trkpt lat="36.9196933" lon="-3.5296407"><ele>558.0</ele><time>2026-03-07T10:40:42.006Z</time></trkpt><trkpt lat="36.9197443" lon="-3.529503"><ele>557.6666666666666</ele><time>2026-03-07T10:40:42.993Z</time></trkpt><trkpt lat="36.9198158" lon="-3.5293596"><ele>557.3333333333333</ele><time>2026-03-07T10:40:43.988Z</time></trkpt><trkpt lat="36.9198884" lon="-3.5291961"><ele>557.0</ele><time>2026-03-07T10:40:44.993Z</time></trkpt><trkpt lat="36.9199587" lon="-3.5290083"><ele>557.0</ele><time>2026-03-07T10:40:45.993Z</time></trkpt><trkpt lat="36.920035" lon="-3.528813"><ele>557.0</ele><time>2026-03-07T10:40:46.994Z</time></trkpt><trkpt lat="36.9201217" lon="-3.5286286"><ele>557.0</ele><time>2026-03-07T10:40:47.996Z</time></trkpt><trkpt lat="36.9202049" lon="-3.5284436"><ele>561.3333333333333</ele><time>2026-03-07T10:40:48.986Z</time></trkpt><trkpt lat="36.9202922" lon="-3.5282755"><ele>565.6666666666666</ele><time>2026-03-07T10:40:49.995Z</time></trkpt><trkpt lat="36.9203975" lon="-3.5281315"><ele>570.0</ele><time>2026-03-07T10:40:50.998Z</time></trkpt><trkpt lat="36.9205271" lon="-3.5280087"><ele>570.0</ele><time>2026-03-07T10:40:51.995Z</time></trkpt><trkpt lat="36.9206796" lon="-3.5278986"><ele>570.0</ele><time>2026-03-07T10:40:52.983Z</time></trkpt><trkpt lat="36.9208392" lon="-3.5278021"><ele>570.0</ele><time>2026-03-07T10:40:53.987Z</time></trkpt><trkpt lat="36.9209946" lon="-3.5276914"><ele>567.0</ele><time>2026-03-07T10:40:54.994Z</time></trkpt><trkpt lat="36.921146" lon="-3.5275823"><ele>564.0</ele><time>2026-03-07T10:40:55.993Z</time></trkpt><trkpt lat="36.9212961" lon="-3.5274814"><ele>561.0</ele><time>2026-03-07T10:40:56.995Z</time></trkpt><trkpt lat="36.9214377" lon="-3.5273866"><ele>561.0</ele><time>2026-03-07T10:40:57.997Z</time></trkpt><trkpt lat="36.9215803" lon="-3.5272912"><ele>561.0</ele><time>2026-03-07T10:40:58.991Z</time></trkpt><trkpt lat="36.9217188" lon="-3.5272017"><ele>561.0</ele><time>2026-03-07T10:41:00Z</time></trkpt><trkpt lat="36.9218425" lon="-3.5271178"><ele>559.25</ele><time>2026-03-07T10:41:00.99Z</time></trkpt><trkpt lat="36.9219344" lon="-3.5270414"><ele>557.5</ele><time>2026-03-07T10:41:01.992Z</time></trkpt><trkpt lat="36.9219806" lon="-3.5269494"><ele>555.75</ele><time>2026-03-07T10:41:02.995Z</time></trkpt><trkpt lat="36.9219548" lon="-3.5266943"><ele>554.0</ele><time>2026-03-07T10:41:04.99Z</time></trkpt><trkpt lat="36.9219112" lon="-3.5265646"><ele>554.0</ele><time>2026-03-07T10:41:05.999Z</time></trkpt><trkpt lat="36.9218939" lon="-3.5264148"><ele>554.0</ele><time>2026-03-07T10:41:06.996Z</time></trkpt><trkpt lat="36.9218703" lon="-3.5262621"><ele>554.0</ele><time>2026-03-07T10:41:08.001Z</time></trkpt><trkpt lat="36.9218348" lon="-3.5261342"><ele>554.0</ele><time>2026-03-07T10:41:09.002Z</time></trkpt><trkpt lat="36.9217753" lon="-3.5260414"><ele>554.0</ele><time>2026-03-07T10:41:10.028Z</time></trkpt><trkpt lat="36.9216844" lon="-3.5260009"><ele>556.4</ele><time>2026-03-07T10:41:11.024Z</time></trkpt><trkpt lat="36.9215933" lon="-3.5259882"><ele>558.8</ele><time>2026-03-07T10:41:12.009Z</time></trkpt><trkpt lat="36.9215205" lon="-3.5260285"><ele>561.2</ele><time>2026-03-07T10:41:12.984Z</time></trkpt><trkpt lat="36.9214266" lon="-3.5260806"><ele>563.6</ele><time>2026-03-07T10:41:13.996Z</time></trkpt><trkpt lat="36.92128" lon="-3.5261237"><ele>566.0</ele><time>2026-03-07T10:41:14.988Z</time></trkpt><trkpt lat="36.921126" lon="-3.5261422"><ele>549.5</ele><time>2026-03-07T10:41:16.089Z</time></trkpt><trkpt lat="36.9208365" lon="-3.5262353"><ele>533.0</ele><time>2026-03-07T10:41:18.003Z</time></trkpt><trkpt lat="36.9206983" lon="-3.526316"><ele>533.0</ele><time>2026-03-07T10:41:19.021Z</time></trkpt><trkpt lat="36.920556" lon="-3.5263861"><ele>533.0</ele><time>2026-03-07T10:41:19.986Z</time></trkpt><trkpt lat="36.9203991" lon="-3.5263993"><ele>533.0</ele><time>2026-03-07T10:41:21Z</time></trkpt><trkpt lat="36.9202337" lon="-3.5263967"><ele>534.0</ele><time>2026-03-07T10:41:21.997Z</time></trkpt><trkpt lat="36.9200594" lon="-3.5264032"><ele>535.0</ele><time>2026-03-07T10:41:22.995Z</time></trkpt><trkpt lat="36.9198796" lon="-3.526419"><ele>536.0</ele><time>2026-03-07T10:41:23.994Z</time></trkpt><trkpt lat="36.9196874" lon="-3.5264628"><ele>536.0</ele><time>2026-03-07T10:41:24.999Z</time></trkpt><trkpt lat="36.9195098" lon="-3.5265113"><ele>536.0</ele><time>2026-03-07T10:41:25.987Z</time></trkpt><trkpt lat="36.9193303" lon="-3.5265893"><ele>536.0</ele><time>2026-03-07T10:41:26.991Z</time></trkpt><trkpt lat="36.9191545" lon="-3.5266943"><ele>539.3333333333333</ele><time>2026-03-07T10:41:27.996Z</time></trkpt><trkpt lat="36.918984" lon="-3.5268002"><ele>542.6666666666666</ele><time>2026-03-07T10:41:28.992Z</time></trkpt><trkpt lat="36.9188285" lon="-3.5269008"><ele>546.0</ele><time>2026-03-07T10:41:30.002Z</time></trkpt><trkpt lat="36.9186797" lon="-3.5269886"><ele>546.0</ele><time>2026-03-07T10:41:30.989Z</time></trkpt><trkpt lat="36.9185302" lon="-3.527058"><ele>546.0</ele><time>2026-03-07T10:41:32.003Z</time></trkpt><trkpt lat="36.9183873" lon="-3.5271371"><ele>546.0</ele><time>2026-03-07T10:41:32.999Z</time></trkpt><trkpt lat="36.9182346" lon="-3.5272126"><ele>544.0</ele><time>2026-03-07T10:41:33.999Z</time></trkpt><trkpt lat="36.9180627" lon="-3.5272714"><ele>542.0</ele><time>2026-03-07T10:41:35.009Z</time></trkpt><trkpt lat="36.9178808" lon="-3.5272838"><ele>540.0</ele><time>2026-03-07T10:41:36Z</time></trkpt><trkpt lat="36.9176996" lon="-3.527284"><ele>538.0</ele><time>2026-03-07T10:41:37.003Z</time></trkpt><trkpt lat="36.9175086" lon="-3.5272916"><ele>536.0</ele><time>2026-03-07T10:41:38.001Z</time></trkpt><trkpt lat="36.9173131" lon="-3.5273"><ele>534.0</ele><time>2026-03-07T10:41:38.998Z</time></trkpt><trkpt lat="36.9171176" lon="-3.5273089"><ele>534.0</ele><time>2026-03-07T10:41:39.998Z</time></trkpt><trkpt lat="36.9169316" lon="-3.5273176"><ele>534.0</ele><time>2026-03-07T10:41:40.988Z</time></trkpt><trkpt lat="36.9167575" lon="-3.5273294"><ele>534.0</ele><time>2026-03-07T10:41:41.999Z</time></trkpt><trkpt lat="36.9165936" lon="-3.5273356"><ele>535.3333333333334</ele><time>2026-03-07T10:41:42.996Z</time></trkpt><trkpt lat="36.9164277" lon="-3.5273381"><ele>536.6666666666667</ele><time>2026-03-07T10:41:43.997Z</time></trkpt><trkpt lat="36.9162728" lon="-3.5273364"><ele>538.0</ele><time>2026-03-07T10:41:44.989Z</time></trkpt><trkpt lat="36.9161307" lon="-3.5273406"><ele>538.0</ele><time>2026-03-07T10:41:46.002Z</time></trkpt><trkpt lat="36.915995" lon="-3.5273371"><ele>538.0</ele><time>2026-03-07T10:41:46.992Z</time></trkpt><trkpt lat="36.9158705" lon="-3.5272951"><ele>538.0</ele><time>2026-03-07T10:41:48.003Z</time></trkpt><trkpt lat="36.9157508" lon="-3.5272344"><ele>538.0</ele><time>2026-03-07T10:41:48.993Z</time></trkpt><trkpt lat="36.9156408" lon="-3.5271421"><ele>537.5</ele><time>2026-03-07T10:41:50.006Z</time></trkpt><trkpt lat="36.9155257" lon="-3.5270502"><ele>537.0</ele><time>2026-03-07T10:41:50.986Z</time></trkpt><trkpt lat="36.9154158" lon="-3.5269651"><ele>536.5</ele><time>2026-03-07T10:41:51.99Z</time></trkpt><trkpt lat="36.9153342" lon="-3.5268638"><ele>536.0</ele><time>2026-03-07T10:41:52.986Z</time></trkpt><trkpt lat="36.9153152" lon="-3.5267508"><ele>536.0</ele><time>2026-03-07T10:41:54.017Z</time></trkpt><trkpt lat="36.9153546" lon="-3.5266328"><ele>536.0</ele><time>2026-03-07T10:41:54.998Z</time></trkpt><trkpt lat="36.9154508" lon="-3.5265335"><ele>536.0</ele><time>2026-03-07T10:41:56.017Z</time></trkpt><trkpt lat="36.9155632" lon="-3.5264954"><ele>536.0</ele><time>2026-03-07T10:41:57.006Z</time></trkpt><trkpt lat="36.915683" lon="-3.5264847"><ele>536.0</ele><time>2026-03-07T10:41:58.002Z</time></trkpt><trkpt lat="36.9157919" lon="-3.5264232"><ele>536.0</ele><time>2026-03-07T10:41:58.989Z</time></trkpt><trkpt lat="36.9158867" lon="-3.5263375"><ele>536.0</ele><time>2026-03-07T10:41:59.992Z</time></trkpt><trkpt lat="36.9159609" lon="-3.5262413"><ele>536.0</ele><time>2026-03-07T10:42:00.992Z</time></trkpt><trkpt lat="36.9160245" lon="-3.5260708"><ele>535.5</ele><time>2026-03-07T10:42:02.993Z</time></trkpt><trkpt lat="36.9158904" lon="-3.5260088"><ele>535.0</ele><time>2026-03-07T10:42:06.98Z</time></trkpt><trkpt lat="36.9157879" lon="-3.5260289"><ele>534.5</ele><time>2026-03-07T10:42:08.006Z</time></trkpt><trkpt lat="36.9156438" lon="-3.5260236"><ele>534.0</ele><time>2026-03-07T10:42:08.992Z</time></trkpt><trkpt lat="36.9154696" lon="-3.5259986"><ele>534.0</ele><time>2026-03-07T10:42:09.992Z</time></trkpt><trkpt lat="36.9152936" lon="-3.5259814"><ele>534.0</ele><time>2026-03-07T10:42:11.013Z</time></trkpt><trkpt lat="36.9151415" lon="-3.5260009"><ele>534.0</ele><time>2026-03-07T10:42:11.999Z</time></trkpt><trkpt lat="36.9150065" lon="-3.5260451"><ele>531.0</ele><time>2026-03-07T10:42:13Z</time></trkpt><trkpt lat="36.9148859" lon="-3.5261072"><ele>528.0</ele><time>2026-03-07T10:42:14.007Z</time></trkpt><trkpt lat="36.9147661" lon="-3.5262133"><ele>525.0</ele><time>2026-03-07T10:42:14.998Z</time></trkpt><trkpt lat="36.9146333" lon="-3.526317"><ele>522.0</ele><time>2026-03-07T10:42:16Z</time></trkpt><trkpt lat="36.9144481" lon="-3.5263372"><ele>522.0</ele><time>2026-03-07T10:42:16.998Z</time></trkpt><trkpt lat="36.914279" lon="-3.5263681"><ele>522.0</ele><time>2026-03-07T10:42:17.998Z</time></trkpt><trkpt lat="36.9141127" lon="-3.5264144"><ele>522.0</ele><time>2026-03-07T10:42:19.007Z</time></trkpt><trkpt lat="36.9139363" lon="-3.526421"><ele>516.0</ele><time>2026-03-07T10:42:19.997Z</time></trkpt><trkpt lat="36.9137517" lon="-3.5264171"><ele>510.0</ele><time>2026-03-07T10:42:20.996Z</time></trkpt><trkpt lat="36.9135549" lon="-3.5263914"><ele>504.0</ele><time>2026-03-07T10:42:21.99Z</time></trkpt><trkpt lat="36.9133594" lon="-3.5263523"><ele>501.66666666666663</ele><time>2026-03-07T10:42:23.007Z</time></trkpt><trkpt lat="36.9131721" lon="-3.5263465"><ele>499.3333333333333</ele><time>2026-03-07T10:42:24.017Z</time></trkpt><trkpt lat="36.9129977" lon="-3.5264028"><ele>497.0</ele><time>2026-03-07T10:42:25.001Z</time></trkpt><trkpt lat="36.9128378" lon="-3.5264772"><ele>497.0</ele><time>2026-03-07T10:42:25.999Z</time></trkpt><trkpt lat="36.9126714" lon="-3.5265749"><ele>497.0</ele><time>2026-03-07T10:42:26.983Z</time></trkpt><trkpt lat="36.9124785" lon="-3.5266312"><ele>497.0</ele><time>2026-03-07T10:42:28.002Z</time></trkpt><trkpt lat="36.9122742" lon="-3.5266752"><ele>496.3333333333333</ele><time>2026-03-07T10:42:29Z</time></trkpt><trkpt lat="36.9120572" lon="-3.5267118"><ele>495.66666666666663</ele><time>2026-03-07T10:42:29.989Z</time></trkpt><trkpt lat="36.911839" lon="-3.5267296"><ele>495.0</ele><time>2026-03-07T10:42:31.001Z</time></trkpt><trkpt lat="36.9116209" lon="-3.5267349"><ele>494.0</ele><time>2026-03-07T10:42:31.994Z</time></trkpt><trkpt lat="36.9114022" lon="-3.5267215"><ele>493.0</ele><time>2026-03-07T10:42:32.988Z</time></trkpt><trkpt lat="36.9111962" lon="-3.5266888"><ele>492.0</ele><time>2026-03-07T10:42:33.991Z</time></trkpt><trkpt lat="36.9109897" lon="-3.5266577"><ele>490.66666666666663</ele><time>2026-03-07T10:42:34.999Z</time></trkpt><trkpt lat="36.9107836" lon="-3.5266302"><ele>489.3333333333333</ele><time>2026-03-07T10:42:35.988Z</time></trkpt><trkpt lat="36.9105771" lon="-3.5265856"><ele>488.0</ele><time>2026-03-07T10:42:36.99Z</time></trkpt><trkpt lat="36.9103869" lon="-3.5265406"><ele>488.0</ele><time>2026-03-07T10:42:37.994Z</time></trkpt><trkpt lat="36.9102174" lon="-3.5264946"><ele>488.0</ele><time>2026-03-07T10:42:38.994Z</time></trkpt><trkpt lat="36.9100673" lon="-3.526453"><ele>488.0</ele><time>2026-03-07T10:42:40.004Z</time></trkpt><trkpt lat="36.9099346" lon="-3.5264353"><ele>486.2</ele><time>2026-03-07T10:42:40.988Z</time></trkpt><trkpt lat="36.9098155" lon="-3.5264551"><ele>484.4</ele><time>2026-03-07T10:42:41.995Z</time></trkpt><trkpt lat="36.9097243" lon="-3.5265038"><ele>482.59999999999997</ele><time>2026-03-07T10:42:43.009Z</time></trkpt><trkpt lat="36.9096324" lon="-3.5265638"><ele>480.79999999999995</ele><time>2026-03-07T10:42:43.988Z</time></trkpt><trkpt lat="36.9095499" lon="-3.5266391"><ele>479.0</ele><time>2026-03-07T10:42:44.995Z</time></trkpt><trkpt lat="36.9094909" lon="-3.5267499"><ele>479.0</ele><time>2026-03-07T10:42:45.992Z</time></trkpt><trkpt lat="36.9094522" lon="-3.5269024"><ele>479.0</ele><time>2026-03-07T10:42:46.993Z</time></trkpt><trkpt lat="36.909423" lon="-3.5270913"><ele>479.0</ele><time>2026-03-07T10:42:48Z</time></trkpt><trkpt lat="36.9093747" lon="-3.5272978"><ele>477.3333333333333</ele><time>2026-03-07T10:42:48.976Z</time></trkpt><trkpt lat="36.9093126" lon="-3.5274982"><ele>475.66666666666663</ele><time>2026-03-07T10:42:49.985Z</time></trkpt><trkpt lat="36.9092475" lon="-3.5276784"><ele>474.0</ele><time>2026-03-07T10:42:50.998Z</time></trkpt><trkpt lat="36.9091589" lon="-3.5278345"><ele>468.0</ele><time>2026-03-07T10:42:51.997Z</time></trkpt><trkpt lat="36.9090657" lon="-3.5279846"><ele>462.0</ele><time>2026-03-07T10:42:53.005Z</time></trkpt><trkpt lat="36.9089469" lon="-3.5281075"><ele>456.0</ele><time>2026-03-07T10:42:54.002Z</time></trkpt><trkpt lat="36.9088047" lon="-3.5282186"><ele>456.0</ele><time>2026-03-07T10:42:54.994Z</time></trkpt><trkpt lat="36.9086327" lon="-3.5282838"><ele>456.0</ele><time>2026-03-07T10:42:56.015Z</time></trkpt><trkpt lat="36.9084505" lon="-3.5283099"><ele>456.0</ele><time>2026-03-07T10:42:56.989Z</time></trkpt><trkpt lat="36.9082667" lon="-3.5283089"><ele>457.33333333333337</ele><time>2026-03-07T10:42:57.996Z</time></trkpt><trkpt lat="36.9080836" lon="-3.5282555"><ele>458.6666666666667</ele><time>2026-03-07T10:42:58.996Z</time></trkpt><trkpt lat="36.9079056" lon="-3.5281884"><ele>460.0</ele><time>2026-03-07T10:42:59.993Z</time></trkpt><trkpt lat="36.9077299" lon="-3.5281032"><ele>460.0</ele><time>2026-03-07T10:43:00.999Z</time></trkpt><trkpt lat="36.9075569" lon="-3.52801"><ele>460.0</ele><time>2026-03-07T10:43:01.996Z</time></trkpt><trkpt lat="36.907399" lon="-3.5279342"><ele>460.0</ele><time>2026-03-07T10:43:02.998Z</time></trkpt><trkpt lat="36.907248" lon="-3.5278827"><ele>459.5</ele><time>2026-03-07T10:43:04.003Z</time></trkpt><trkpt lat="36.9071244" lon="-3.5279333"><ele>459.0</ele><time>2026-03-07T10:43:04.986Z</time></trkpt><trkpt lat="36.9070105" lon="-3.5280236"><ele>458.5</ele><time>2026-03-07T10:43:06.002Z</time></trkpt><trkpt lat="36.9069002" lon="-3.5281367"><ele>458.0</ele><time>2026-03-07T10:43:06.99Z</time></trkpt><trkpt lat="36.9067926" lon="-3.5282761"><ele>456.66666666666663</ele><time>2026-03-07T10:43:07.987Z</time></trkpt><trkpt lat="36.906669" lon="-3.5283936"><ele>455.33333333333337</ele><time>2026-03-07T10:43:08.985Z</time></trkpt><trkpt lat="36.9065381" lon="-3.5285065"><ele>454.0</ele><time>2026-03-07T10:43:10.001Z</time></trkpt><trkpt lat="36.9063936" lon="-3.5286095"><ele>454.0</ele><time>2026-03-07T10:43:10.982Z</time></trkpt><trkpt lat="36.9062562" lon="-3.5286963"><ele>454.0</ele><time>2026-03-07T10:43:11.993Z</time></trkpt><trkpt lat="36.9061024" lon="-3.5287797"><ele>454.0</ele><time>2026-03-07T10:43:12.985Z</time></trkpt><trkpt lat="36.905942" lon="-3.528825"><ele>451.0</ele><time>2026-03-07T10:43:13.978Z</time></trkpt><trkpt lat="36.905785" lon="-3.5288504"><ele>448.0</ele><time>2026-03-07T10:43:15.007Z</time></trkpt><trkpt lat="36.9056324" lon="-3.5288419"><ele>445.0</ele><time>2026-03-07T10:43:16.001Z</time></trkpt><trkpt lat="36.9054965" lon="-3.528798"><ele>446.25</ele><time>2026-03-07T10:43:16.982Z</time></trkpt><trkpt lat="36.9053918" lon="-3.5287065"><ele>447.5</ele><time>2026-03-07T10:43:17.992Z</time></trkpt><trkpt lat="36.9053209" lon="-3.528579"><ele>448.75</ele><time>2026-03-07T10:43:18.981Z</time></trkpt><trkpt lat="36.9052875" lon="-3.5284485"><ele>450.0</ele><time>2026-03-07T10:43:19.988Z</time></trkpt><trkpt lat="36.9052929" lon="-3.5283186"><ele>450.0</ele><time>2026-03-07T10:43:20.994Z</time></trkpt><trkpt lat="36.9053543" lon="-3.5281821"><ele>450.0</ele><time>2026-03-07T10:43:21.984Z</time></trkpt><trkpt lat="36.9054533" lon="-3.5280629"><ele>450.0</ele><time>2026-03-07T10:43:23.009Z</time></trkpt><trkpt lat="36.9055699" lon="-3.5279341"><ele>450.0</ele><time>2026-03-07T10:43:23.981Z</time></trkpt><trkpt lat="36.9056887" lon="-3.5277945"><ele>448.0</ele><time>2026-03-07T10:43:24.972Z</time></trkpt><trkpt lat="36.9057772" lon="-3.5276433"><ele>446.0</ele><time>2026-03-07T10:43:25.994Z</time></trkpt><trkpt lat="36.9058269" lon="-3.5274919"><ele>444.0</ele><time>2026-03-07T10:43:26.989Z</time></trkpt><trkpt lat="36.9057778" lon="-3.5273102"><ele>442.0</ele><time>2026-03-07T10:43:27.996Z</time></trkpt><trkpt lat="36.9056809" lon="-3.5271784"><ele>442.0</ele><time>2026-03-07T10:43:29.022Z</time></trkpt><trkpt lat="36.9055635" lon="-3.5271131"><ele>442.0</ele><time>2026-03-07T10:43:30.039Z</time></trkpt><trkpt lat="36.9054332" lon="-3.5270813"><ele>442.0</ele><time>2026-03-07T10:43:31.007Z</time></trkpt><trkpt lat="36.9053154" lon="-3.527079"><ele>442.0</ele><time>2026-03-07T10:43:32.005Z</time></trkpt><trkpt lat="36.905213" lon="-3.5270702"><ele>440.6666666666667</ele><time>2026-03-07T10:43:33.016Z</time></trkpt><trkpt lat="36.90508" lon="-3.527041"><ele>439.33333333333337</ele><time>2026-03-07T10:43:34.015Z</time></trkpt><trkpt lat="36.9049331" lon="-3.5270154"><ele>438.0</ele><time>2026-03-07T10:43:34.993Z</time></trkpt><trkpt lat="36.9047627" lon="-3.5270137"><ele>435.0</ele><time>2026-03-07T10:43:35.98Z</time></trkpt><trkpt lat="36.9045746" lon="-3.5270136"><ele>432.0</ele><time>2026-03-07T10:43:36.998Z</time></trkpt><trkpt lat="36.9043733" lon="-3.5270367"><ele>429.0</ele><time>2026-03-07T10:43:37.994Z</time></trkpt><trkpt lat="36.9041705" lon="-3.5270482"><ele>427.0</ele><time>2026-03-07T10:43:38.989Z</time></trkpt><trkpt lat="36.9039602" lon="-3.5270256"><ele>425.0</ele><time>2026-03-07T10:43:39.983Z</time></trkpt><trkpt lat="36.9037475" lon="-3.5270011"><ele>423.0</ele><time>2026-03-07T10:43:40.98Z</time></trkpt><trkpt lat="36.9035316" lon="-3.5269288"><ele>423.66666666666663</ele><time>2026-03-07T10:43:41.99Z</time></trkpt><trkpt lat="36.9033323" lon="-3.5268305"><ele>424.3333333333333</ele><time>2026-03-07T10:43:43.001Z</time></trkpt><trkpt lat="36.9031398" lon="-3.5267289"><ele>425.0</ele><time>2026-03-07T10:43:43.991Z</time></trkpt><trkpt lat="36.9029413" lon="-3.5266466"><ele>425.0</ele><time>2026-03-07T10:43:44.992Z</time></trkpt><trkpt lat="36.9027098" lon="-3.5265911"><ele>425.0</ele><time>2026-03-07T10:43:45.995Z</time></trkpt><trkpt lat="36.9025014" lon="-3.5265471"><ele>425.0</ele><time>2026-03-07T10:43:46.993Z</time></trkpt><trkpt lat="36.9022943" lon="-3.5264862"><ele>425.0</ele><time>2026-03-07T10:43:47.985Z</time></trkpt><trkpt lat="36.902093" lon="-3.5264097"><ele>425.0</ele><time>2026-03-07T10:43:48.994Z</time></trkpt><trkpt lat="36.9018963" lon="-3.5263229"><ele>425.0</ele><time>2026-03-07T10:43:50.001Z</time></trkpt><trkpt lat="36.9017107" lon="-3.5262287"><ele>427.66666666666663</ele><time>2026-03-07T10:43:51.001Z</time></trkpt><trkpt lat="36.9015448" lon="-3.5261433"><ele>430.33333333333337</ele><time>2026-03-07T10:43:51.991Z</time></trkpt><trkpt lat="36.9013848" lon="-3.5260676"><ele>433.0</ele><time>2026-03-07T10:43:52.98Z</time></trkpt><trkpt lat="36.9012369" lon="-3.5259769"><ele>433.0</ele><time>2026-03-07T10:43:53.993Z</time></trkpt><trkpt lat="36.9010952" lon="-3.5258978"><ele>433.0</ele><time>2026-03-07T10:43:54.99Z</time></trkpt><trkpt lat="36.9009601" lon="-3.5258207"><ele>433.0</ele><time>2026-03-07T10:43:55.994Z</time></trkpt><trkpt lat="36.9008275" lon="-3.5257338"><ele>428.0</ele><time>2026-03-07T10:43:56.989Z</time></trkpt><trkpt lat="36.9006824" lon="-3.5256476"><ele>423.0</ele><time>2026-03-07T10:43:58Z</time></trkpt><trkpt lat="36.9005306" lon="-3.5255833"><ele>418.0</ele><time>2026-03-07T10:43:58.99Z</time></trkpt><trkpt lat="36.9003761" lon="-3.5255357"><ele>418.0</ele><time>2026-03-07T10:43:59.988Z</time></trkpt><trkpt lat="36.9002426" lon="-3.5254924"><ele>418.0</ele><time>2026-03-07T10:44:00.992Z</time></trkpt><trkpt lat="36.9001596" lon="-3.525394"><ele>418.0</ele><time>2026-03-07T10:44:01.992Z</time></trkpt><trkpt lat="36.9000978" lon="-3.5252676"><ele>418.0</ele><time>2026-03-07T10:44:02.982Z</time></trkpt><trkpt lat="36.9000328" lon="-3.5251249"><ele>418.0</ele><time>2026-03-07T10:44:04.01Z</time></trkpt><trkpt lat="36.8999263" lon="-3.5249946"><ele>418.0</ele><time>2026-03-07T10:44:05.002Z</time></trkpt><trkpt lat="36.8997755" lon="-3.5249005"><ele>418.0</ele><time>2026-03-07T10:44:06.001Z</time></trkpt><trkpt lat="36.8996225" lon="-3.5248076"><ele>418.0</ele><time>2026-03-07T10:44:06.994Z</time></trkpt><trkpt lat="36.8994666" lon="-3.5246928"><ele>418.0</ele><time>2026-03-07T10:44:07.992Z</time></trkpt><trkpt lat="36.8993176" lon="-3.5245546"><ele>418.0</ele><time>2026-03-07T10:44:08.995Z</time></trkpt><trkpt lat="36.899165" lon="-3.5244295"><ele>415.6666666666667</ele><time>2026-03-07T10:44:09.998Z</time></trkpt><trkpt lat="36.8989931" lon="-3.5243218"><ele>413.33333333333337</ele><time>2026-03-07T10:44:10.993Z</time></trkpt><trkpt lat="36.8988243" lon="-3.5242242"><ele>411.0</ele><time>2026-03-07T10:44:11.975Z</time></trkpt><trkpt lat="36.8986425" lon="-3.5241491"><ele>411.0</ele><time>2026-03-07T10:44:12.994Z</time></trkpt><trkpt lat="36.8984409" lon="-3.5240534"><ele>411.0</ele><time>2026-03-07T10:44:14Z</time></trkpt><trkpt lat="36.8982673" lon="-3.5238936"><ele>411.0</ele><time>2026-03-07T10:44:15.032Z</time></trkpt><trkpt lat="36.8980984" lon="-3.5237362"><ele>411.33333333333337</ele><time>2026-03-07T10:44:15.999Z</time></trkpt><trkpt lat="36.8979273" lon="-3.5235869"><ele>411.6666666666667</ele><time>2026-03-07T10:44:16.993Z</time></trkpt><trkpt lat="36.8977622" lon="-3.5234496"><ele>412.0</ele><time>2026-03-07T10:44:17.988Z</time></trkpt><trkpt lat="36.8975977" lon="-3.5233196"><ele>412.0</ele><time>2026-03-07T10:44:18.983Z</time></trkpt><trkpt lat="36.8974314" lon="-3.5231873"><ele>412.0</ele><time>2026-03-07T10:44:19.996Z</time></trkpt><trkpt lat="36.8972658" lon="-3.5230456"><ele>412.0</ele><time>2026-03-07T10:44:21.009Z</time></trkpt><trkpt lat="36.8971" lon="-3.5228862"><ele>412.0</ele><time>2026-03-07T10:44:21.986Z</time></trkpt><trkpt lat="36.8969392" lon="-3.5227163"><ele>412.0</ele><time>2026-03-07T10:44:22.995Z</time></trkpt><trkpt lat="36.8967951" lon="-3.5225416"><ele>412.0</ele><time>2026-03-07T10:44:23.987Z</time></trkpt><trkpt lat="36.8966589" lon="-3.5223587"><ele>409.0</ele><time>2026-03-07T10:44:24.986Z</time></trkpt><trkpt lat="36.8965508" lon="-3.522155"><ele>406.0</ele><time>2026-03-07T10:44:25.987Z</time></trkpt><trkpt lat="36.8964488" lon="-3.5219363"><ele>403.0</ele><time>2026-03-07T10:44:27.008Z</time></trkpt><trkpt lat="36.8963633" lon="-3.5217162"><ele>403.0</ele><time>2026-03-07T10:44:27.997Z</time></trkpt><trkpt lat="36.8962907" lon="-3.5214655"><ele>403.0</ele><time>2026-03-07T10:44:28.998Z</time></trkpt><trkpt lat="36.8962325" lon="-3.5212033"><ele>403.0</ele><time>2026-03-07T10:44:29.988Z</time></trkpt><trkpt lat="36.8961919" lon="-3.5209414"><ele>406.0</ele><time>2026-03-07T10:44:30.981Z</time></trkpt><trkpt lat="36.8961789" lon="-3.520671"><ele>409.0</ele><time>2026-03-07T10:44:31.997Z</time></trkpt><trkpt lat="36.8961755" lon="-3.5203856"><ele>412.0</ele><time>2026-03-07T10:44:32.981Z</time></trkpt><trkpt lat="36.8961988" lon="-3.5201006"><ele>413.0</ele><time>2026-03-07T10:44:33.986Z</time></trkpt><trkpt lat="36.8962303" lon="-3.519826"><ele>414.0</ele><time>2026-03-07T10:44:34.986Z</time></trkpt><trkpt lat="36.896302" lon="-3.5195686"><ele>415.0</ele><time>2026-03-07T10:44:35.99Z</time></trkpt><trkpt lat="36.896374" lon="-3.5193117"><ele>407.6666666666667</ele><time>2026-03-07T10:44:37.021Z</time></trkpt><trkpt lat="36.8964511" lon="-3.5190653"><ele>400.33333333333337</ele><time>2026-03-07T10:44:38Z</time></trkpt><trkpt lat="36.8965346" lon="-3.5188256"><ele>393.0</ele><time>2026-03-07T10:44:38.997Z</time></trkpt><trkpt lat="36.8966236" lon="-3.5185864"><ele>398.66666666666663</ele><time>2026-03-07T10:44:39.991Z</time></trkpt><trkpt lat="36.8967323" lon="-3.5183511"><ele>404.3333333333333</ele><time>2026-03-07T10:44:40.978Z</time></trkpt><trkpt lat="36.8968457" lon="-3.5181255"><ele>410.0</ele><time>2026-03-07T10:44:41.986Z</time></trkpt><trkpt lat="36.8969647" lon="-3.5179205"><ele>402.3333333333333</ele><time>2026-03-07T10:44:43Z</time></trkpt><trkpt lat="36.8970769" lon="-3.5177267"><ele>394.66666666666663</ele><time>2026-03-07T10:44:43.994Z</time></trkpt><trkpt lat="36.8971837" lon="-3.5175335"><ele>387.0</ele><time>2026-03-07T10:44:44.986Z</time></trkpt><trkpt lat="36.8972964" lon="-3.5173444"><ele>387.0</ele><time>2026-03-07T10:44:45.993Z</time></trkpt><trkpt lat="36.897409" lon="-3.5171547"><ele>387.0</ele><time>2026-03-07T10:44:46.996Z</time></trkpt><trkpt lat="36.8975168" lon="-3.5169505"><ele>387.0</ele><time>2026-03-07T10:44:47.996Z</time></trkpt><trkpt lat="36.8976303" lon="-3.5167303"><ele>389.0</ele><time>2026-03-07T10:44:48.989Z</time></trkpt><trkpt lat="36.8977424" lon="-3.5165063"><ele>391.0</ele><time>2026-03-07T10:44:50.001Z</time></trkpt><trkpt lat="36.8978566" lon="-3.5162931"><ele>393.0</ele><time>2026-03-07T10:44:50.991Z</time></trkpt><trkpt lat="36.8979636" lon="-3.5160972"><ele>384.0</ele><time>2026-03-07T10:44:51.994Z</time></trkpt><trkpt lat="36.8980692" lon="-3.5158978"><ele>375.0</ele><time>2026-03-07T10:44:53Z</time></trkpt><trkpt lat="36.8981692" lon="-3.5156931"><ele>366.0</ele><time>2026-03-07T10:44:53.99Z</time></trkpt><trkpt lat="36.8982591" lon="-3.5154835"><ele>368.6666666666667</ele><time>2026-03-07T10:44:54.997Z</time></trkpt><trkpt lat="36.898354" lon="-3.5152808"><ele>371.33333333333337</ele><time>2026-03-07T10:44:55.995Z</time></trkpt><trkpt lat="36.8984441" lon="-3.5150736"><ele>374.0</ele><time>2026-03-07T10:44:57.014Z</time></trkpt><trkpt lat="36.8985215" lon="-3.5148644"><ele>374.0</ele><time>2026-03-07T10:44:58.011Z</time></trkpt><trkpt lat="36.8985894" lon="-3.5146483"><ele>374.0</ele><time>2026-03-07T10:44:59.019Z</time></trkpt><trkpt lat="36.898653" lon="-3.5144183"><ele>374.0</ele><time>2026-03-07T10:45:00.004Z</time></trkpt><trkpt lat="36.8987089" lon="-3.514185"><ele>366.6666666666667</ele><time>2026-03-07T10:45:01.006Z</time></trkpt><trkpt lat="36.8987456" lon="-3.5139475"><ele>359.3333333333333</ele><time>2026-03-07T10:45:01.988Z</time></trkpt><trkpt lat="36.898782" lon="-3.5137079"><ele>352.0</ele><time>2026-03-07T10:45:02.992Z</time></trkpt><trkpt lat="36.8988066" lon="-3.5134626"><ele>346.66666666666663</ele><time>2026-03-07T10:45:03.987Z</time></trkpt><trkpt lat="36.8988273" lon="-3.5132189"><ele>341.3333333333333</ele><time>2026-03-07T10:45:04.993Z</time></trkpt><trkpt lat="36.8988423" lon="-3.5129725"><ele>336.0</ele><time>2026-03-07T10:45:05.992Z</time></trkpt><trkpt lat="36.8988414" lon="-3.5127322"><ele>335.0</ele><time>2026-03-07T10:45:06.999Z</time></trkpt><trkpt lat="36.8988283" lon="-3.5124953"><ele>334.0</ele><time>2026-03-07T10:45:07.993Z</time></trkpt><trkpt lat="36.898808" lon="-3.5122699"><ele>333.0</ele><time>2026-03-07T10:45:09.009Z</time></trkpt><trkpt lat="36.8987826" lon="-3.5120782"><ele>335.0</ele><time>2026-03-07T10:45:09.979Z</time></trkpt><trkpt lat="36.8987581" lon="-3.5119059"><ele>337.0</ele><time>2026-03-07T10:45:10.981Z</time></trkpt><trkpt lat="36.8986956" lon="-3.5117683"><ele>339.0</ele><time>2026-03-07T10:45:11.987Z</time></trkpt><trkpt lat="36.8986239" lon="-3.5116349"><ele>341.0</ele><time>2026-03-07T10:45:12.985Z</time></trkpt><trkpt lat="36.8985545" lon="-3.5114907"><ele>341.0</ele><time>2026-03-07T10:45:13.979Z</time></trkpt><trkpt lat="36.898482" lon="-3.5113438"><ele>341.0</ele><time>2026-03-07T10:45:14.988Z</time></trkpt><trkpt lat="36.8984044" lon="-3.5112133"><ele>341.0</ele><time>2026-03-07T10:45:15.994Z</time></trkpt><trkpt lat="36.8983228" lon="-3.5111426"><ele>341.0</ele><time>2026-03-07T10:45:16.996Z</time></trkpt><trkpt lat="36.8982533" lon="-3.5110889"><ele>341.0</ele><time>2026-03-07T10:45:17.996Z</time></trkpt><trkpt lat="36.898196" lon="-3.5110386"><ele>334.75</ele><time>2026-03-07T10:45:18.999Z</time></trkpt><trkpt lat="36.898126" lon="-3.5109777"><ele>328.5</ele><time>2026-03-07T10:45:20.013Z</time></trkpt><trkpt lat="36.8980375" lon="-3.5109029"><ele>322.25</ele><time>2026-03-07T10:45:20.981Z</time></trkpt><trkpt lat="36.8979371" lon="-3.5108068"><ele>316.0</ele><time>2026-03-07T10:45:21.988Z</time></trkpt><trkpt lat="36.8978324" lon="-3.510695"><ele>316.0</ele><time>2026-03-07T10:45:22.979Z</time></trkpt><trkpt lat="36.8977243" lon="-3.5105791"><ele>316.0</ele><time>2026-03-07T10:45:23.981Z</time></trkpt><trkpt lat="36.8976038" lon="-3.510456"><ele>316.0</ele><time>2026-03-07T10:45:25.008Z</time></trkpt><trkpt lat="36.8974625" lon="-3.5103548"><ele>315.0</ele><time>2026-03-07T10:45:25.989Z</time></trkpt><trkpt lat="36.8973179" lon="-3.5102725"><ele>314.0</ele><time>2026-03-07T10:45:26.983Z</time></trkpt><trkpt lat="36.8971884" lon="-3.5102045"><ele>313.0</ele><time>2026-03-07T10:45:27.995Z</time></trkpt><trkpt lat="36.8970843" lon="-3.5101605"><ele>312.0</ele><time>2026-03-07T10:45:28.986Z</time></trkpt><trkpt lat="36.8969938" lon="-3.5101303"><ele>312.0</ele><time>2026-03-07T10:45:29.985Z</time></trkpt><trkpt lat="36.8968984" lon="-3.5100958"><ele>312.0</ele><time>2026-03-07T10:45:31.003Z</time></trkpt><trkpt lat="36.8967805" lon="-3.5100381"><ele>312.0</ele><time>2026-03-07T10:45:31.994Z</time></trkpt><trkpt lat="36.8966582" lon="-3.5099568"><ele>312.0</ele><time>2026-03-07T10:45:32.991Z</time></trkpt><trkpt lat="36.8965195" lon="-3.5098611"><ele>307.6666666666667</ele><time>2026-03-07T10:45:33.996Z</time></trkpt><trkpt lat="36.8963673" lon="-3.5097634"><ele>303.33333333333337</ele><time>2026-03-07T10:45:34.991Z</time></trkpt><trkpt lat="36.8962095" lon="-3.5096701"><ele>299.0</ele><time>2026-03-07T10:45:35.991Z</time></trkpt><trkpt lat="36.8960492" lon="-3.5095989"><ele>305.33333333333337</ele><time>2026-03-07T10:45:36.99Z</time></trkpt><trkpt lat="36.8958969" lon="-3.5095458"><ele>311.6666666666667</ele><time>2026-03-07T10:45:37.984Z</time></trkpt><trkpt lat="36.8957587" lon="-3.5095021"><ele>318.0</ele><time>2026-03-07T10:45:38.991Z</time></trkpt><trkpt lat="36.8956064" lon="-3.5094855"><ele>318.0</ele><time>2026-03-07T10:45:40.007Z</time></trkpt><trkpt lat="36.8954449" lon="-3.5094819"><ele>318.0</ele><time>2026-03-07T10:45:40.984Z</time></trkpt><trkpt lat="36.8952834" lon="-3.5095183"><ele>318.0</ele><time>2026-03-07T10:45:41.979Z</time></trkpt><trkpt lat="36.8951274" lon="-3.5095578"><ele>308.25</ele><time>2026-03-07T10:45:42.98Z</time></trkpt><trkpt lat="36.8949887" lon="-3.5095923"><ele>298.5</ele><time>2026-03-07T10:45:44.003Z</time></trkpt><trkpt lat="36.8948422" lon="-3.5096081"><ele>288.75</ele><time>2026-03-07T10:45:44.994Z</time></trkpt><trkpt lat="36.8947094" lon="-3.5096205"><ele>279.0</ele><time>2026-03-07T10:45:45.999Z</time></trkpt><trkpt lat="36.894577" lon="-3.5096327"><ele>279.0</ele><time>2026-03-07T10:45:47.004Z</time></trkpt><trkpt lat="36.8944562" lon="-3.5096497"><ele>279.0</ele><time>2026-03-07T10:45:47.988Z</time></trkpt><trkpt lat="36.8943406" lon="-3.5096643"><ele>279.0</ele><time>2026-03-07T10:45:48.997Z</time></trkpt><trkpt lat="36.8942364" lon="-3.5096755"><ele>279.0</ele><time>2026-03-07T10:45:50.017Z</time></trkpt><trkpt lat="36.894127" lon="-3.509658"><ele>299.0</ele><time>2026-03-07T10:45:50.998Z</time></trkpt><trkpt lat="36.8940104" lon="-3.5095944"><ele>319.0</ele><time>2026-03-07T10:45:51.99Z</time></trkpt><trkpt lat="36.8929611" lon="-3.5087874"><ele>317.0</ele><time>2026-03-07T10:46:00.975Z</time></trkpt><trkpt lat="36.892851" lon="-3.5086165"><ele>315.0</ele><time>2026-03-07T10:46:01.986Z</time></trkpt><trkpt lat="36.892753" lon="-3.5085704"><ele>313.0</ele><time>2026-03-07T10:46:02.996Z</time></trkpt><trkpt lat="36.8926139" lon="-3.5085015"><ele>311.0</ele><time>2026-03-07T10:46:03.973Z</time></trkpt><trkpt lat="36.892495" lon="-3.5083826"><ele>311.0</ele><time>2026-03-07T10:46:04.987Z</time></trkpt><trkpt lat="36.8923913" lon="-3.5082667"><ele>311.0</ele><time>2026-03-07T10:46:06.008Z</time></trkpt><trkpt lat="36.8922811" lon="-3.5081412"><ele>311.0</ele><time>2026-03-07T10:46:06.977Z</time></trkpt><trkpt lat="36.8921675" lon="-3.507972"><ele>304.33333333333337</ele><time>2026-03-07T10:46:07.997Z</time></trkpt><trkpt lat="36.89205" lon="-3.5078097"><ele>297.6666666666667</ele><time>2026-03-07T10:46:08.991Z</time></trkpt><trkpt lat="36.8919401" lon="-3.5076314"><ele>291.0</ele><time>2026-03-07T10:46:09.989Z</time></trkpt><trkpt lat="36.8918392" lon="-3.507432"><ele>299.0</ele><time>2026-03-07T10:46:10.99Z</time></trkpt><trkpt lat="36.8917467" lon="-3.5072269"><ele>307.0</ele><time>2026-03-07T10:46:11.991Z</time></trkpt><trkpt lat="36.8916668" lon="-3.5070029"><ele>315.0</ele><time>2026-03-07T10:46:12.993Z</time></trkpt><trkpt lat="36.8915824" lon="-3.5067755"><ele>315.0</ele><time>2026-03-07T10:46:13.985Z</time></trkpt><trkpt lat="36.8915019" lon="-3.506536"><ele>315.0</ele><time>2026-03-07T10:46:14.988Z</time></trkpt><trkpt lat="36.8914219" lon="-3.5062947"><ele>315.0</ele><time>2026-03-07T10:46:16.001Z</time></trkpt><trkpt lat="36.8913449" lon="-3.5060531"><ele>311.6666666666667</ele><time>2026-03-07T10:46:16.996Z</time></trkpt><trkpt lat="36.8912602" lon="-3.5058194"><ele>308.33333333333337</ele><time>2026-03-07T10:46:17.973Z</time></trkpt><trkpt lat="36.8911569" lon="-3.5056006"><ele>305.0</ele><time>2026-03-07T10:46:18.987Z</time></trkpt><trkpt lat="36.891025" lon="-3.505392"><ele>313.0</ele><time>2026-03-07T10:46:19.988Z</time></trkpt><trkpt lat="36.890876" lon="-3.5051947"><ele>321.0</ele><time>2026-03-07T10:46:20.99Z</time></trkpt><trkpt lat="36.8907145" lon="-3.5050108"><ele>329.0</ele><time>2026-03-07T10:46:21.983Z</time></trkpt><trkpt lat="36.8905457" lon="-3.5048299"><ele>329.0</ele><time>2026-03-07T10:46:22.987Z</time></trkpt><trkpt lat="36.8903817" lon="-3.5046408"><ele>329.0</ele><time>2026-03-07T10:46:23.988Z</time></trkpt><trkpt lat="36.8902168" lon="-3.5044505"><ele>329.0</ele><time>2026-03-07T10:46:24.991Z</time></trkpt><trkpt lat="36.8900568" lon="-3.5042697"><ele>330.6666666666667</ele><time>2026-03-07T10:46:25.997Z</time></trkpt><trkpt lat="36.8899" lon="-3.5040892"><ele>332.3333333333333</ele><time>2026-03-07T10:46:27.004Z</time></trkpt><trkpt lat="36.8897431" lon="-3.5039119"><ele>334.0</ele><time>2026-03-07T10:46:28.005Z</time></trkpt><trkpt lat="36.8895919" lon="-3.5037392"><ele>334.0</ele><time>2026-03-07T10:46:28.992Z</time></trkpt><trkpt lat="36.8894663" lon="-3.5035939"><ele>334.0</ele><time>2026-03-07T10:46:29.985Z</time></trkpt><trkpt lat="36.8893674" lon="-3.5034835"><ele>334.0</ele><time>2026-03-07T10:46:30.996Z</time></trkpt><trkpt lat="36.8892927" lon="-3.5034058"><ele>334.0</ele><time>2026-03-07T10:46:31.99Z</time></trkpt><trkpt lat="36.8892348" lon="-3.5033493"><ele>336.0</ele><time>2026-03-07T10:46:33.002Z</time></trkpt><trkpt lat="36.8891418" lon="-3.5032993"><ele>338.0</ele><time>2026-03-07T10:46:34.988Z</time></trkpt><trkpt lat="36.8890914" lon="-3.5033805"><ele>340.0</ele><time>2026-03-07T10:46:36.999Z</time></trkpt><trkpt lat="36.8891274" lon="-3.5035304"><ele>342.0</ele><time>2026-03-07T10:46:38.988Z</time></trkpt><trkpt lat="36.8891794" lon="-3.5036079"><ele>344.0</ele><time>2026-03-07T10:46:39.983Z</time></trkpt><trkpt lat="36.8892394" lon="-3.5036721"><ele>342.6</ele><time>2026-03-07T10:46:40.997Z</time></trkpt><trkpt lat="36.8892999" lon="-3.5037668"><ele>341.2</ele><time>2026-03-07T10:46:42.984Z</time></trkpt><trkpt lat="36.8892884" lon="-3.5038484"><ele>339.8</ele><time>2026-03-07T10:47:15.004Z</time></trkpt><trkpt lat="36.8892737" lon="-3.5039621"><ele>338.40000000000003</ele><time>2026-03-07T10:47:16.993Z</time></trkpt><trkpt lat="36.8892201" lon="-3.5040984"><ele>337.0</ele><time>2026-03-07T10:47:18.976Z</time></trkpt><trkpt lat="36.8890854" lon="-3.5041205"><ele>338.16666666666663</ele><time>2026-03-07T10:47:20.99Z</time></trkpt><trkpt lat="36.8890106" lon="-3.5040727"><ele>339.3333333333333</ele><time>2026-03-07T10:47:21.989Z</time></trkpt><trkpt lat="36.8889458" lon="-3.5039916"><ele>340.5</ele><time>2026-03-07T10:47:22.997Z</time></trkpt><trkpt lat="36.8888755" lon="-3.5039061"><ele>341.6666666666667</ele><time>2026-03-07T10:47:23.986Z</time></trkpt><trkpt lat="36.8888073" lon="-3.5038191"><ele>342.83333333333337</ele><time>2026-03-07T10:47:24.977Z</time></trkpt><trkpt lat="36.888751" lon="-3.5037601"><ele>344.0</ele><time>2026-03-07T10:47:25.99Z</time></trkpt><trkpt lat="36.8886432" lon="-3.5037321"><ele>345.83333333333337</ele><time>2026-03-07T10:47:27.996Z</time></trkpt><trkpt lat="36.8885993" lon="-3.5038343"><ele>347.6666666666667</ele><time>2026-03-07T10:47:29.986Z</time></trkpt><trkpt lat="36.888605" lon="-3.5039182"><ele>349.5</ele><time>2026-03-07T10:47:30.992Z</time></trkpt><trkpt lat="36.8886259" lon="-3.504015"><ele>351.3333333333333</ele><time>2026-03-07T10:47:31.992Z</time></trkpt><trkpt lat="36.8886543" lon="-3.5041196"><ele>353.16666666666663</ele><time>2026-03-07T10:47:32.993Z</time></trkpt><trkpt lat="36.8887084" lon="-3.504223"><ele>355.0</ele><time>2026-03-07T10:47:34.002Z</time></trkpt><trkpt lat="36.8887429" lon="-3.5043478"><ele>355.0</ele><time>2026-03-07T10:47:35.002Z</time></trkpt><trkpt lat="36.8887786" lon="-3.504476"><ele>355.0</ele><time>2026-03-07T10:47:35.993Z</time></trkpt><trkpt lat="36.8888128" lon="-3.5046037"><ele>355.0</ele><time>2026-03-07T10:47:36.993Z</time></trkpt><trkpt lat="36.8888372" lon="-3.5047281"><ele>355.0</ele><time>2026-03-07T10:47:37.996Z</time></trkpt><trkpt lat="36.8888585" lon="-3.50486"><ele>355.0</ele><time>2026-03-07T10:47:38.996Z</time></trkpt><trkpt lat="36.8888712" lon="-3.5049971"><ele>359.75</ele><time>2026-03-07T10:47:39.991Z</time></trkpt><trkpt lat="36.8888902" lon="-3.505128"><ele>364.5</ele><time>2026-03-07T10:47:40.982Z</time></trkpt><trkpt lat="36.8889208" lon="-3.5052602"><ele>369.25</ele><time>2026-03-07T10:47:42.016Z</time></trkpt><trkpt lat="36.8889716" lon="-3.5053916"><ele>374.0</ele><time>2026-03-07T10:47:42.995Z</time></trkpt><trkpt lat="36.8890428" lon="-3.5055318"><ele>372.5</ele><time>2026-03-07T10:47:43.982Z</time></trkpt><trkpt lat="36.8891175" lon="-3.5056876"><ele>371.0</ele><time>2026-03-07T10:47:45Z</time></trkpt><trkpt lat="36.8891839" lon="-3.5058404"><ele>369.5</ele><time>2026-03-07T10:47:45.983Z</time></trkpt><trkpt lat="36.8892496" lon="-3.5059952"><ele>368.0</ele><time>2026-03-07T10:47:46.986Z</time></trkpt><trkpt lat="36.8893159" lon="-3.5061563"><ele>372.0</ele><time>2026-03-07T10:47:47.999Z</time></trkpt><trkpt lat="36.8893835" lon="-3.5063148"><ele>376.0</ele><time>2026-03-07T10:47:48.985Z</time></trkpt><trkpt lat="36.8894487" lon="-3.5064698"><ele>380.0</ele><time>2026-03-07T10:47:49.988Z</time></trkpt><trkpt lat="36.8895106" lon="-3.5065993"><ele>384.0</ele><time>2026-03-07T10:47:50.998Z</time></trkpt><trkpt lat="36.889574" lon="-3.5067006"><ele>384.0</ele><time>2026-03-07T10:47:51.975Z</time></trkpt><trkpt lat="36.8896314" lon="-3.5067876"><ele>384.0</ele><time>2026-03-07T10:47:52.975Z</time></trkpt><trkpt lat="36.8896743" lon="-3.5068805"><ele>384.0</ele><time>2026-03-07T10:47:53.988Z</time></trkpt><trkpt lat="36.8897133" lon="-3.5069823"><ele>384.0</ele><time>2026-03-07T10:47:54.981Z</time></trkpt><trkpt lat="36.8897333" lon="-3.5070976"><ele>384.0</ele><time>2026-03-07T10:47:55.98Z</time></trkpt><trkpt lat="36.8897468" lon="-3.507205"><ele>384.0</ele><time>2026-03-07T10:47:56.991Z</time></trkpt><trkpt lat="36.8897605" lon="-3.5073042"><ele>386.4</ele><time>2026-03-07T10:47:57.985Z</time></trkpt><trkpt lat="36.889769" lon="-3.5073911"><ele>388.79999999999995</ele><time>2026-03-07T10:47:58.991Z</time></trkpt><trkpt lat="36.8897552" lon="-3.5074786"><ele>391.20000000000005</ele><time>2026-03-07T10:47:59.995Z</time></trkpt><trkpt lat="36.8896814" lon="-3.5075866"><ele>393.6</ele><time>2026-03-07T10:48:01.996Z</time></trkpt><trkpt lat="36.8895748" lon="-3.5075394"><ele>396.0</ele><time>2026-03-07T10:48:03.997Z</time></trkpt><trkpt lat="36.8894952" lon="-3.5074665"><ele>396.0</ele><time>2026-03-07T10:48:04.975Z</time></trkpt><trkpt lat="36.8894037" lon="-3.5073935"><ele>396.0</ele><time>2026-03-07T10:48:05.993Z</time></trkpt><trkpt lat="36.8893093" lon="-3.5073275"><ele>396.0</ele><time>2026-03-07T10:48:06.993Z</time></trkpt><trkpt lat="36.8892009" lon="-3.5072714"><ele>396.0</ele><time>2026-03-07T10:48:07.986Z</time></trkpt><trkpt lat="36.8890799" lon="-3.5072066"><ele>398.5</ele><time>2026-03-07T10:48:08.989Z</time></trkpt><trkpt lat="36.8889567" lon="-3.5071361"><ele>401.0</ele><time>2026-03-07T10:48:09.99Z</time></trkpt><trkpt lat="36.8888452" lon="-3.5070658"><ele>403.5</ele><time>2026-03-07T10:48:10.98Z</time></trkpt><trkpt lat="36.8887266" lon="-3.5069815"><ele>406.0</ele><time>2026-03-07T10:48:11.993Z</time></trkpt><trkpt lat="36.8886021" lon="-3.5068924"><ele>406.0</ele><time>2026-03-07T10:48:12.992Z</time></trkpt><trkpt lat="36.8884799" lon="-3.5067953"><ele>406.0</ele><time>2026-03-07T10:48:13.988Z</time></trkpt><trkpt lat="36.8883559" lon="-3.5066995"><ele>406.0</ele><time>2026-03-07T10:48:14.983Z</time></trkpt><trkpt lat="36.8882298" lon="-3.5066108"><ele>406.0</ele><time>2026-03-07T10:48:15.983Z</time></trkpt><trkpt lat="36.8881008" lon="-3.5065233"><ele>407.5</ele><time>2026-03-07T10:48:17.01Z</time></trkpt><trkpt lat="36.8879812" lon="-3.5064384"><ele>409.0</ele><time>2026-03-07T10:48:17.984Z</time></trkpt><trkpt lat="36.8878724" lon="-3.5063572"><ele>410.5</ele><time>2026-03-07T10:48:18.979Z</time></trkpt><trkpt lat="36.8877777" lon="-3.5062821"><ele>412.0</ele><time>2026-03-07T10:48:19.984Z</time></trkpt><trkpt lat="36.8876892" lon="-3.5062145"><ele>412.0</ele><time>2026-03-07T10:48:20.989Z</time></trkpt><trkpt lat="36.8876057" lon="-3.506137"><ele>412.0</ele><time>2026-03-07T10:48:21.979Z</time></trkpt><trkpt lat="36.8875303" lon="-3.5060572"><ele>412.0</ele><time>2026-03-07T10:48:22.981Z</time></trkpt><trkpt lat="36.8874518" lon="-3.5059605"><ele>412.0</ele><time>2026-03-07T10:48:23.988Z</time></trkpt><trkpt lat="36.8873713" lon="-3.5058529"><ele>412.0</ele><time>2026-03-07T10:48:24.993Z</time></trkpt><trkpt lat="36.8872883" lon="-3.5057395"><ele>414.8</ele><time>2026-03-07T10:48:25.988Z</time></trkpt><trkpt lat="36.8872108" lon="-3.5056302"><ele>417.6</ele><time>2026-03-07T10:48:26.992Z</time></trkpt><trkpt lat="36.8871371" lon="-3.5055255"><ele>420.40000000000003</ele><time>2026-03-07T10:48:27.987Z</time></trkpt><trkpt lat="36.8870781" lon="-3.5054421"><ele>423.20000000000005</ele><time>2026-03-07T10:48:28.987Z</time></trkpt><trkpt lat="36.8870196" lon="-3.5053719"><ele>426.0</ele><time>2026-03-07T10:48:29.996Z</time></trkpt><trkpt lat="36.8869413" lon="-3.5053228"><ele>426.0</ele><time>2026-03-07T10:48:30.988Z</time></trkpt><trkpt lat="36.8868465" lon="-3.5052853"><ele>426.0</ele><time>2026-03-07T10:48:31.988Z</time></trkpt><trkpt lat="36.8867435" lon="-3.505242"><ele>426.0</ele><time>2026-03-07T10:48:32.988Z</time></trkpt><trkpt lat="36.8866294" lon="-3.5051899"><ele>426.0</ele><time>2026-03-07T10:48:33.989Z</time></trkpt><trkpt lat="36.8865103" lon="-3.5051389"><ele>432.0</ele><time>2026-03-07T10:48:34.984Z</time></trkpt><trkpt lat="36.8863872" lon="-3.5051027"><ele>438.0</ele><time>2026-03-07T10:48:35.987Z</time></trkpt><trkpt lat="36.8862677" lon="-3.5050565"><ele>444.0</ele><time>2026-03-07T10:48:36.997Z</time></trkpt><trkpt lat="36.8861586" lon="-3.5050025"><ele>450.0</ele><time>2026-03-07T10:48:37.979Z</time></trkpt><trkpt lat="36.8860569" lon="-3.5049179"><ele>450.0</ele><time>2026-03-07T10:48:38.976Z</time></trkpt><trkpt lat="36.8859565" lon="-3.504824"><ele>450.0</ele><time>2026-03-07T10:48:39.992Z</time></trkpt><trkpt lat="36.8858673" lon="-3.5047485"><ele>450.0</ele><time>2026-03-07T10:48:40.993Z</time></trkpt><trkpt lat="36.8857902" lon="-3.5047011"><ele>450.0</ele><time>2026-03-07T10:48:41.978Z</time></trkpt><trkpt lat="36.885727" lon="-3.5046583"><ele>450.0</ele><time>2026-03-07T10:48:42.976Z</time></trkpt><trkpt lat="36.8856648" lon="-3.5045879"><ele>451.4</ele><time>2026-03-07T10:48:43.99Z</time></trkpt><trkpt lat="36.8856001" lon="-3.5045008"><ele>452.8</ele><time>2026-03-07T10:48:44.993Z</time></trkpt><trkpt lat="36.8855182" lon="-3.5044188"><ele>454.20000000000005</ele><time>2026-03-07T10:48:45.993Z</time></trkpt><trkpt lat="36.8854259" lon="-3.5043632"><ele>455.6</ele><time>2026-03-07T10:48:46.991Z</time></trkpt><trkpt lat="36.8853417" lon="-3.5042971"><ele>457.0</ele><time>2026-03-07T10:48:47.992Z</time></trkpt><trkpt lat="36.8852774" lon="-3.5042172"><ele>457.00000000000006</ele><time>2026-03-07T10:48:49.003Z</time></trkpt><trkpt lat="36.8852253" lon="-3.5041446"><ele>457.0</ele><time>2026-03-07T10:48:49.988Z</time></trkpt><trkpt lat="36.8851498" lon="-3.5040619"><ele>457.0</ele><time>2026-03-07T10:48:51.996Z</time></trkpt><trkpt lat="36.8850927" lon="-3.5041652"><ele>457.0</ele><time>2026-03-07T10:48:55.005Z</time></trkpt><trkpt lat="36.8851109" lon="-3.5042431"><ele>457.00000000000006</ele><time>2026-03-07T10:48:55.999Z</time></trkpt><trkpt lat="36.8851506" lon="-3.5043313"><ele>457.0</ele><time>2026-03-07T10:48:56.987Z</time></trkpt><trkpt lat="36.8852152" lon="-3.5044353"><ele>457.0</ele><time>2026-03-07T10:48:58.066Z</time></trkpt><trkpt lat="36.8852782" lon="-3.5045649"><ele>457.00000000000006</ele><time>2026-03-07T10:48:58.995Z</time></trkpt><trkpt lat="36.8853367" lon="-3.5046947"><ele>457.00000000000006</ele><time>2026-03-07T10:48:59.974Z</time></trkpt><trkpt lat="36.8853913" lon="-3.5048127"><ele>457.0</ele><time>2026-03-07T10:49:00.984Z</time></trkpt><trkpt lat="36.885447" lon="-3.5048974"><ele>457.0</ele><time>2026-03-07T10:49:01.997Z</time></trkpt><trkpt lat="36.8855004" lon="-3.5049611"><ele>460.40000000000003</ele><time>2026-03-07T10:49:02.983Z</time></trkpt><trkpt lat="36.88554" lon="-3.5050264"><ele>463.80000000000007</ele><time>2026-03-07T10:49:04.984Z</time></trkpt><trkpt lat="36.8854589" lon="-3.5049783"><ele>467.2</ele><time>2026-03-07T10:49:08.969Z</time></trkpt><trkpt lat="36.8853745" lon="-3.5049033"><ele>470.6</ele><time>2026-03-07T10:49:09.997Z</time></trkpt><trkpt lat="36.8852682" lon="-3.5048336"><ele>474.0</ele><time>2026-03-07T10:49:11.014Z</time></trkpt><trkpt lat="36.8851619" lon="-3.5047598"><ele>479.2</ele><time>2026-03-07T10:49:12.014Z</time></trkpt><trkpt lat="36.8850454" lon="-3.5047082"><ele>484.4</ele><time>2026-03-07T10:49:13.003Z</time></trkpt><trkpt lat="36.884934" lon="-3.5046762"><ele>489.6</ele><time>2026-03-07T10:49:13.996Z</time></trkpt><trkpt lat="36.8848432" lon="-3.5046508"><ele>494.8</ele><time>2026-03-07T10:49:14.982Z</time></trkpt><trkpt lat="36.8847622" lon="-3.5046299"><ele>500.0</ele><time>2026-03-07T10:49:16.023Z</time></trkpt><trkpt lat="36.8846838" lon="-3.5046243"><ele>499.99999999999994</ele><time>2026-03-07T10:49:17.013Z</time></trkpt><trkpt lat="36.8846111" lon="-3.5046375"><ele>500.0</ele><time>2026-03-07T10:49:18.026Z</time></trkpt><trkpt lat="36.8845409" lon="-3.5046647"><ele>500.0</ele><time>2026-03-07T10:49:18.989Z</time></trkpt><trkpt lat="36.88448" lon="-3.5047024"><ele>500.0</ele><time>2026-03-07T10:49:20.024Z</time></trkpt><trkpt lat="36.884423" lon="-3.5047389"><ele>499.99999999999994</ele><time>2026-03-07T10:49:20.995Z</time></trkpt><trkpt lat="36.8843261" lon="-3.5048157"><ele>500.0</ele><time>2026-03-07T10:49:22.989Z</time></trkpt><trkpt lat="36.8842349" lon="-3.5049184"><ele>500.99999999999994</ele><time>2026-03-07T10:49:25.014Z</time></trkpt><trkpt lat="36.8841978" lon="-3.5049938"><ele>502.0</ele><time>2026-03-07T10:49:25.988Z</time></trkpt><trkpt lat="36.884169" lon="-3.5050991"><ele>503.0</ele><time>2026-03-07T10:49:27Z</time></trkpt><trkpt lat="36.8841367" lon="-3.5052131"><ele>504.0</ele><time>2026-03-07T10:49:27.99Z</time></trkpt><trkpt lat="36.8841025" lon="-3.5053096"><ele>504.99999999999994</ele><time>2026-03-07T10:49:28.994Z</time></trkpt><trkpt lat="36.8840707" lon="-3.5053904"><ele>506.0</ele><time>2026-03-07T10:49:29.984Z</time></trkpt><trkpt lat="36.8840606" lon="-3.5054783"><ele>509.20000000000005</ele><time>2026-03-07T10:49:30.979Z</time></trkpt><trkpt lat="36.8840736" lon="-3.505571"><ele>512.4000000000001</ele><time>2026-03-07T10:49:31.994Z</time></trkpt><trkpt lat="36.8841096" lon="-3.505671"><ele>515.6</ele><time>2026-03-07T10:49:32.989Z</time></trkpt><trkpt lat="36.8841572" lon="-3.5057859"><ele>518.8000000000001</ele><time>2026-03-07T10:49:33.995Z</time></trkpt><trkpt lat="36.8842025" lon="-3.5059021"><ele>522.0</ele><time>2026-03-07T10:49:35.009Z</time></trkpt><trkpt lat="36.8842429" lon="-3.5060035"><ele>522.4</ele><time>2026-03-07T10:49:36.008Z</time></trkpt><trkpt lat="36.8842801" lon="-3.5060935"><ele>522.8000000000001</ele><time>2026-03-07T10:49:36.998Z</time></trkpt><trkpt lat="36.8843462" lon="-3.506215"><ele>523.2</ele><time>2026-03-07T10:49:39.007Z</time></trkpt><trkpt lat="36.8843885" lon="-3.5062858"><ele>523.6</ele><time>2026-03-07T10:49:39.997Z</time></trkpt><trkpt lat="36.884445" lon="-3.5063826"><ele>524.0</ele><time>2026-03-07T10:49:40.987Z</time></trkpt><trkpt lat="36.8845155" lon="-3.5064948"><ele>524.0</ele><time>2026-03-07T10:49:41.988Z</time></trkpt><trkpt lat="36.8845952" lon="-3.5066044"><ele>524.0</ele><time>2026-03-07T10:49:43.001Z</time></trkpt><trkpt lat="36.8846827" lon="-3.5066934"><ele>524.0</ele><time>2026-03-07T10:49:43.996Z</time></trkpt><trkpt lat="36.8847655" lon="-3.5067744"><ele>524.0</ele><time>2026-03-07T10:49:44.994Z</time></trkpt><trkpt lat="36.8848667" lon="-3.506836"><ele>524.0</ele><time>2026-03-07T10:49:45.996Z</time></trkpt><trkpt lat="36.8849796" lon="-3.506877"><ele>524.0</ele><time>2026-03-07T10:49:46.984Z</time></trkpt><trkpt lat="36.885083" lon="-3.5069099"><ele>524.0</ele><time>2026-03-07T10:49:47.998Z</time></trkpt><trkpt lat="36.8851766" lon="-3.5069353"><ele>524.0</ele><time>2026-03-07T10:49:49.016Z</time></trkpt><trkpt lat="36.8852621" lon="-3.5069791"><ele>524.0</ele><time>2026-03-07T10:49:49.996Z</time></trkpt><trkpt lat="36.8853446" lon="-3.5070542"><ele>524.0</ele><time>2026-03-07T10:49:51.001Z</time></trkpt><trkpt lat="36.8854073" lon="-3.5071588"><ele>528.25</ele><time>2026-03-07T10:49:51.986Z</time></trkpt><trkpt lat="36.8854598" lon="-3.5072757"><ele>532.5</ele><time>2026-03-07T10:49:53.003Z</time></trkpt><trkpt lat="36.8855014" lon="-3.5074061"><ele>536.75</ele><time>2026-03-07T10:49:53.996Z</time></trkpt><trkpt lat="36.8855329" lon="-3.5075574"><ele>541.0</ele><time>2026-03-07T10:49:55.013Z</time></trkpt><trkpt lat="36.8855658" lon="-3.5077163"><ele>541.0</ele><time>2026-03-07T10:49:56.003Z</time></trkpt><trkpt lat="36.885592" lon="-3.5078611"><ele>541.0</ele><time>2026-03-07T10:49:57.007Z</time></trkpt><trkpt lat="36.8856044" lon="-3.5080056"><ele>541.0</ele><time>2026-03-07T10:49:58.007Z</time></trkpt><trkpt lat="36.885614" lon="-3.5081402"><ele>541.0</ele><time>2026-03-07T10:49:58.997Z</time></trkpt><trkpt lat="36.8856079" lon="-3.5082785"><ele>540.6</ele><time>2026-03-07T10:49:59.993Z</time></trkpt><trkpt lat="36.8855978" lon="-3.5084053"><ele>540.2</ele><time>2026-03-07T10:50:01.023Z</time></trkpt><trkpt lat="36.8855649" lon="-3.5085324"><ele>539.8</ele><time>2026-03-07T10:50:01.987Z</time></trkpt><trkpt lat="36.8855177" lon="-3.5086448"><ele>539.4</ele><time>2026-03-07T10:50:02.996Z</time></trkpt><trkpt lat="36.8854542" lon="-3.5087396"><ele>539.0</ele><time>2026-03-07T10:50:03.978Z</time></trkpt><trkpt lat="36.8853608" lon="-3.508816"><ele>539.0</ele><time>2026-03-07T10:50:04.983Z</time></trkpt><trkpt lat="36.8852613" lon="-3.5088765"><ele>539.0</ele><time>2026-03-07T10:50:05.995Z</time></trkpt><trkpt lat="36.8851733" lon="-3.5089188"><ele>539.0</ele><time>2026-03-07T10:50:06.995Z</time></trkpt><trkpt lat="36.8850923" lon="-3.5089541"><ele>539.0</ele><time>2026-03-07T10:50:07.992Z</time></trkpt><trkpt lat="36.8850233" lon="-3.5089841"><ele>539.0</ele><time>2026-03-07T10:50:08.99Z</time></trkpt><trkpt lat="36.8849278" lon="-3.509006"><ele>539.1428571428571</ele><time>2026-03-07T10:50:10.996Z</time></trkpt><trkpt lat="36.8848593" lon="-3.5090138"><ele>539.2857142857142</ele><time>2026-03-07T10:50:12.995Z</time></trkpt><trkpt lat="36.8847703" lon="-3.5090024"><ele>539.4285714285714</ele><time>2026-03-07T10:50:14.98Z</time></trkpt><trkpt lat="36.8847049" lon="-3.5089823"><ele>539.5714285714286</ele><time>2026-03-07T10:50:15.994Z</time></trkpt><trkpt lat="36.8846397" lon="-3.5089469"><ele>539.7142857142857</ele><time>2026-03-07T10:50:16.994Z</time></trkpt><trkpt lat="36.8845773" lon="-3.508906"><ele>539.8571428571429</ele><time>2026-03-07T10:50:17.984Z</time></trkpt><trkpt lat="36.8845271" lon="-3.5088515"><ele>540.0</ele><time>2026-03-07T10:50:18.996Z</time></trkpt><trkpt lat="36.8844808" lon="-3.5087898"><ele>540.1428571428571</ele><time>2026-03-07T10:50:19.988Z</time></trkpt><trkpt lat="36.8844398" lon="-3.5087229"><ele>540.2857142857142</ele><time>2026-03-07T10:50:20.991Z</time></trkpt><trkpt lat="36.8843959" lon="-3.5086497"><ele>540.4285714285714</ele><time>2026-03-07T10:50:21.996Z</time></trkpt><trkpt lat="36.884337" lon="-3.508579"><ele>540.5714285714286</ele><time>2026-03-07T10:50:23Z</time></trkpt><trkpt lat="36.8842773" lon="-3.508535"><ele>540.7142857142858</ele><time>2026-03-07T10:50:24Z</time></trkpt><trkpt lat="36.8842074" lon="-3.508515"><ele>540.8571428571429</ele><time>2026-03-07T10:50:24.985Z</time></trkpt><trkpt lat="36.8841343" lon="-3.5085273"><ele>541.0</ele><time>2026-03-07T10:50:25.994Z</time></trkpt><trkpt lat="36.8840529" lon="-3.508547"><ele>541.0</ele><time>2026-03-07T10:50:26.997Z</time></trkpt><trkpt lat="36.8839598" lon="-3.5085622"><ele>541.0</ele><time>2026-03-07T10:50:27.989Z</time></trkpt><trkpt lat="36.8838495" lon="-3.5085739"><ele>541.0</ele><time>2026-03-07T10:50:29.004Z</time></trkpt><trkpt lat="36.8837403" lon="-3.5085845"><ele>541.0</ele><time>2026-03-07T10:50:30.001Z</time></trkpt><trkpt lat="36.8836461" lon="-3.5085918"><ele>541.0</ele><time>2026-03-07T10:50:31Z</time></trkpt><trkpt lat="36.8835813" lon="-3.5085956"><ele>541.0</ele><time>2026-03-07T10:50:31.99Z</time></trkpt><trkpt lat="36.8835399" lon="-3.5086777"><ele>541.0</ele><time>2026-03-07T10:50:35.007Z</time></trkpt><trkpt lat="36.8836221" lon="-3.508777"><ele>541.0</ele><time>2026-03-07T10:50:37.004Z</time></trkpt><trkpt lat="36.8836846" lon="-3.5088346"><ele>541.0</ele><time>2026-03-07T10:50:37.996Z</time></trkpt><trkpt lat="36.8837479" lon="-3.5089047"><ele>541.0</ele><time>2026-03-07T10:50:38.984Z</time></trkpt><trkpt lat="36.8838135" lon="-3.508975"><ele>541.0</ele><time>2026-03-07T10:50:39.996Z</time></trkpt><trkpt lat="36.8838754" lon="-3.5090412"><ele>544.0</ele><time>2026-03-07T10:50:40.997Z</time></trkpt><trkpt lat="36.8839158" lon="-3.5091219"><ele>547.0</ele><time>2026-03-07T10:50:42.005Z</time></trkpt><trkpt lat="36.8839144" lon="-3.5092681"><ele>550.0</ele><time>2026-03-07T10:50:43.999Z</time></trkpt><trkpt lat="36.8838721" lon="-3.5093278"><ele>553.0</ele><time>2026-03-07T10:50:45.004Z</time></trkpt><trkpt lat="36.8837636" lon="-3.5093669"><ele>556.0</ele><time>2026-03-07T10:50:46.997Z</time></trkpt><trkpt lat="36.883683" lon="-3.5093812"><ele>556.0</ele><time>2026-03-07T10:50:48.997Z</time></trkpt><trkpt lat="36.8836147" lon="-3.509442"><ele>556.0</ele><time>2026-03-07T10:50:50.995Z</time></trkpt><trkpt lat="36.8835934" lon="-3.509595"><ele>556.0</ele><time>2026-03-07T10:50:52.99Z</time></trkpt><trkpt lat="36.8835972" lon="-3.5096918"><ele>556.0</ele><time>2026-03-07T10:50:53.993Z</time></trkpt><trkpt lat="36.8836031" lon="-3.509798"><ele>556.0</ele><time>2026-03-07T10:50:55.001Z</time></trkpt><trkpt lat="36.8836123" lon="-3.5099172"><ele>558.0</ele><time>2026-03-07T10:50:55.986Z</time></trkpt><trkpt lat="36.8836309" lon="-3.5100389"><ele>560.0</ele><time>2026-03-07T10:50:56.985Z</time></trkpt><trkpt lat="36.883649" lon="-3.510161"><ele>562.0</ele><time>2026-03-07T10:50:58Z</time></trkpt><trkpt lat="36.8836653" lon="-3.5102854"><ele>564.0</ele><time>2026-03-07T10:50:59.003Z</time></trkpt><trkpt lat="36.8836733" lon="-3.5104117"><ele>566.0</ele><time>2026-03-07T10:50:59.997Z</time></trkpt><trkpt lat="36.8836758" lon="-3.510531"><ele>568.8</ele><time>2026-03-07T10:51:00.989Z</time></trkpt><trkpt lat="36.8836714" lon="-3.5106506"><ele>571.6</ele><time>2026-03-07T10:51:01.989Z</time></trkpt><trkpt lat="36.8836612" lon="-3.5107787"><ele>574.4</ele><time>2026-03-07T10:51:02.994Z</time></trkpt><trkpt lat="36.8836444" lon="-3.5108991"><ele>577.2</ele><time>2026-03-07T10:51:03.983Z</time></trkpt><trkpt lat="36.8836152" lon="-3.5110134"><ele>580.0</ele><time>2026-03-07T10:51:05.009Z</time></trkpt><trkpt lat="36.8835733" lon="-3.511118"><ele>580.0</ele><time>2026-03-07T10:51:05.995Z</time></trkpt><trkpt lat="36.883513" lon="-3.5112139"><ele>580.0</ele><time>2026-03-07T10:51:06.987Z</time></trkpt><trkpt lat="36.8834441" lon="-3.5113063"><ele>580.0</ele><time>2026-03-07T10:51:07.998Z</time></trkpt><trkpt lat="36.8833717" lon="-3.5113872"><ele>580.0</ele><time>2026-03-07T10:51:08.985Z</time></trkpt><trkpt lat="36.8833036" lon="-3.5114549"><ele>580.0</ele><time>2026-03-07T10:51:09.995Z</time></trkpt><trkpt lat="36.883251" lon="-3.5115225"><ele>584.8333333333334</ele><time>2026-03-07T10:51:11.004Z</time></trkpt><trkpt lat="36.8832269" lon="-3.5116101"><ele>589.6666666666667</ele><time>2026-03-07T10:51:12.006Z</time></trkpt><trkpt lat="36.8832308" lon="-3.5117209"><ele>594.5</ele><time>2026-03-07T10:51:12.999Z</time></trkpt><trkpt lat="36.8832443" lon="-3.5118451"><ele>599.3333333333334</ele><time>2026-03-07T10:51:13.989Z</time></trkpt><trkpt lat="36.8832605" lon="-3.5119622"><ele>604.1666666666666</ele><time>2026-03-07T10:51:14.987Z</time></trkpt><trkpt lat="36.8832775" lon="-3.5120627"><ele>609.0</ele><time>2026-03-07T10:51:16.026Z</time></trkpt><trkpt lat="36.8833257" lon="-3.512185"><ele>609.5</ele><time>2026-03-07T10:51:18.004Z</time></trkpt><trkpt lat="36.883428" lon="-3.5122634"><ele>610.0</ele><time>2026-03-07T10:51:19.992Z</time></trkpt><trkpt lat="36.8834999" lon="-3.5122967"><ele>610.5</ele><time>2026-03-07T10:51:20.991Z</time></trkpt><trkpt lat="36.8835762" lon="-3.5123415"><ele>611.0</ele><time>2026-03-07T10:51:21.995Z</time></trkpt><trkpt lat="36.8836328" lon="-3.5123973"><ele>611.5</ele><time>2026-03-07T10:51:22.989Z</time></trkpt><trkpt lat="36.8836761" lon="-3.5124613"><ele>612.0</ele><time>2026-03-07T10:51:23.999Z</time></trkpt><trkpt lat="36.8837117" lon="-3.5125436"><ele>612.0</ele><time>2026-03-07T10:51:25.002Z</time></trkpt><trkpt lat="36.8837366" lon="-3.5126468"><ele>612.0</ele><time>2026-03-07T10:51:25.994Z</time></trkpt><trkpt lat="36.8837514" lon="-3.5127519"><ele>612.0</ele><time>2026-03-07T10:51:26.995Z</time></trkpt><trkpt lat="36.883782" lon="-3.5128406"><ele>612.0</ele><time>2026-03-07T10:51:28.003Z</time></trkpt><trkpt lat="36.8838254" lon="-3.5129291"><ele>612.0</ele><time>2026-03-07T10:51:29.012Z</time></trkpt><trkpt lat="36.8839052" lon="-3.5130133"><ele>612.0</ele><time>2026-03-07T10:51:29.987Z</time></trkpt><trkpt lat="36.8839905" lon="-3.5131043"><ele>612.6666666666666</ele><time>2026-03-07T10:51:31.009Z</time></trkpt><trkpt lat="36.8840783" lon="-3.5131903"><ele>613.3333333333334</ele><time>2026-03-07T10:51:32.001Z</time></trkpt><trkpt lat="36.8841549" lon="-3.5132473"><ele>614.0</ele><time>2026-03-07T10:51:32.997Z</time></trkpt><trkpt lat="36.8842176" lon="-3.5132912"><ele>614.6666666666667</ele><time>2026-03-07T10:51:33.994Z</time></trkpt><trkpt lat="36.8842731" lon="-3.5133654"><ele>615.3333333333334</ele><time>2026-03-07T10:51:35.981Z</time></trkpt><trkpt lat="36.8842066" lon="-3.5134305"><ele>616.0</ele><time>2026-03-07T10:51:38.993Z</time></trkpt><trkpt lat="36.8840958" lon="-3.5133871"><ele>617.8333333333334</ele><time>2026-03-07T10:51:40.998Z</time></trkpt><trkpt lat="36.8840245" lon="-3.5133607"><ele>619.6666666666667</ele><time>2026-03-07T10:51:41.99Z</time></trkpt><trkpt lat="36.8839479" lon="-3.5133378"><ele>621.5</ele><time>2026-03-07T10:51:42.986Z</time></trkpt><trkpt lat="36.8838709" lon="-3.5133176"><ele>623.3333333333334</ele><time>2026-03-07T10:51:43.994Z</time></trkpt><trkpt lat="36.8837861" lon="-3.5132996"><ele>625.1666666666666</ele><time>2026-03-07T10:51:44.984Z</time></trkpt><trkpt lat="36.8836888" lon="-3.5132834"><ele>627.0</ele><time>2026-03-07T10:51:46.001Z</time></trkpt><trkpt lat="36.8835915" lon="-3.5132615"><ele>627.0</ele><time>2026-03-07T10:51:46.988Z</time></trkpt><trkpt lat="36.8834819" lon="-3.5132396"><ele>627.0</ele><time>2026-03-07T10:51:47.99Z</time></trkpt><trkpt lat="36.8833813" lon="-3.5132295"><ele>627.0</ele><time>2026-03-07T10:51:48.983Z</time></trkpt><trkpt lat="36.8832674" lon="-3.5132351"><ele>627.0</ele><time>2026-03-07T10:51:50.001Z</time></trkpt><trkpt lat="36.88314" lon="-3.5132377"><ele>632.0</ele><time>2026-03-07T10:51:51.007Z</time></trkpt><trkpt lat="36.8830061" lon="-3.5132413"><ele>637.0</ele><time>2026-03-07T10:51:52.053Z</time></trkpt><trkpt lat="36.8828871" lon="-3.5132393"><ele>642.0</ele><time>2026-03-07T10:51:53.014Z</time></trkpt><trkpt lat="36.8827633" lon="-3.5132364"><ele>647.0</ele><time>2026-03-07T10:51:53.996Z</time></trkpt><trkpt lat="36.8826549" lon="-3.5132326"><ele>651.2</ele><time>2026-03-07T10:51:55.003Z</time></trkpt><trkpt lat="36.8825451" lon="-3.5132275"><ele>655.4000000000001</ele><time>2026-03-07T10:51:56.008Z</time></trkpt><trkpt lat="36.8824341" lon="-3.5132225"><ele>659.5999999999999</ele><time>2026-03-07T10:51:56.99Z</time></trkpt><trkpt lat="36.8823249" lon="-3.5132281"><ele>663.8</ele><time>2026-03-07T10:51:57.999Z</time></trkpt><trkpt lat="36.8822274" lon="-3.5132361"><ele>668.0</ele><time>2026-03-07T10:51:59.007Z</time></trkpt><trkpt lat="36.8821384" lon="-3.5132322"><ele>668.0</ele><time>2026-03-07T10:52:00.014Z</time></trkpt><trkpt lat="36.8820521" lon="-3.5132052"><ele>668.0</ele><time>2026-03-07T10:52:01.004Z</time></trkpt><trkpt lat="36.8819559" lon="-3.5131516"><ele>668.0</ele><time>2026-03-07T10:52:02Z</time></trkpt><trkpt lat="36.8818443" lon="-3.5130817"><ele>668.0</ele><time>2026-03-07T10:52:02.992Z</time></trkpt><trkpt lat="36.881725" lon="-3.5130009"><ele>665.25</ele><time>2026-03-07T10:52:03.977Z</time></trkpt><trkpt lat="36.8816042" lon="-3.5129193"><ele>662.5</ele><time>2026-03-07T10:52:05.004Z</time></trkpt><trkpt lat="36.8814756" lon="-3.5128305"><ele>659.75</ele><time>2026-03-07T10:52:06.019Z</time></trkpt><trkpt lat="36.8813474" lon="-3.5127417"><ele>657.0</ele><time>2026-03-07T10:52:06.983Z</time></trkpt><trkpt lat="36.881232" lon="-3.5126582"><ele>657.0</ele><time>2026-03-07T10:52:08.007Z</time></trkpt><trkpt lat="36.8811283" lon="-3.5125868"><ele>657.0</ele><time>2026-03-07T10:52:08.987Z</time></trkpt><trkpt lat="36.881045" lon="-3.512524"><ele>657.0</ele><time>2026-03-07T10:52:10.004Z</time></trkpt><trkpt lat="36.8809665" lon="-3.5124609"><ele>657.0</ele><time>2026-03-07T10:52:10.991Z</time></trkpt><trkpt lat="36.8808828" lon="-3.5123923"><ele>657.0</ele><time>2026-03-07T10:52:11.996Z</time></trkpt><trkpt lat="36.8807991" lon="-3.5123234"><ele>661.6666666666666</ele><time>2026-03-07T10:52:12.989Z</time></trkpt><trkpt lat="36.8807312" lon="-3.5122759"><ele>666.3333333333334</ele><time>2026-03-07T10:52:14.003Z</time></trkpt><trkpt lat="36.8806658" lon="-3.5122416"><ele>671.0</ele><time>2026-03-07T10:52:16.052Z</time></trkpt><trkpt lat="36.8807341" lon="-3.5123562"><ele>675.6666666666667</ele><time>2026-03-07T10:52:21Z</time></trkpt><trkpt lat="36.8807942" lon="-3.5124137"><ele>680.3333333333334</ele><time>2026-03-07T10:52:21.996Z</time></trkpt><trkpt lat="36.8808539" lon="-3.5124879"><ele>685.0</ele><time>2026-03-07T10:52:23.001Z</time></trkpt><trkpt lat="36.8809132" lon="-3.5125914"><ele>685.0</ele><time>2026-03-07T10:52:23.991Z</time></trkpt><trkpt lat="36.8809815" lon="-3.5127116"><ele>685.0</ele><time>2026-03-07T10:52:25.005Z</time></trkpt><trkpt lat="36.8810551" lon="-3.5128477"><ele>685.0</ele><time>2026-03-07T10:52:25.992Z</time></trkpt><trkpt lat="36.8811301" lon="-3.512989"><ele>685.0</ele><time>2026-03-07T10:52:26.993Z</time></trkpt><trkpt lat="36.8812144" lon="-3.5131237"><ele>685.0</ele><time>2026-03-07T10:52:27.999Z</time></trkpt><trkpt lat="36.8813086" lon="-3.5132489"><ele>685.0</ele><time>2026-03-07T10:52:28.988Z</time></trkpt><trkpt lat="36.8814079" lon="-3.5133723"><ele>685.0</ele><time>2026-03-07T10:52:29.994Z</time></trkpt><trkpt lat="36.8815038" lon="-3.513484"><ele>685.0</ele><time>2026-03-07T10:52:31.006Z</time></trkpt><trkpt lat="36.8816001" lon="-3.5135779"><ele>685.0</ele><time>2026-03-07T10:52:31.999Z</time></trkpt><trkpt lat="36.8816972" lon="-3.5136726"><ele>685.0</ele><time>2026-03-07T10:52:32.991Z</time></trkpt><trkpt lat="36.8817905" lon="-3.5137593"><ele>685.0</ele><time>2026-03-07T10:52:33.987Z</time></trkpt><trkpt lat="36.8818763" lon="-3.5138341"><ele>685.0</ele><time>2026-03-07T10:52:34.988Z</time></trkpt><trkpt lat="36.8819622" lon="-3.5138916"><ele>685.0</ele><time>2026-03-07T10:52:35.994Z</time></trkpt><trkpt lat="36.8820517" lon="-3.5139503"><ele>688.4</ele><time>2026-03-07T10:52:36.996Z</time></trkpt><trkpt lat="36.8821546" lon="-3.5140062"><ele>691.8</ele><time>2026-03-07T10:52:37.99Z</time></trkpt><trkpt lat="36.8822607" lon="-3.5140616"><ele>695.2</ele><time>2026-03-07T10:52:38.996Z</time></trkpt><trkpt lat="36.8823605" lon="-3.5141141"><ele>698.6</ele><time>2026-03-07T10:52:39.99Z</time></trkpt><trkpt lat="36.8824551" lon="-3.5141706"><ele>702.0</ele><time>2026-03-07T10:52:40.981Z</time></trkpt><trkpt lat="36.8825422" lon="-3.5142301"><ele>701.4000000000001</ele><time>2026-03-07T10:52:41.981Z</time></trkpt><trkpt lat="36.882615" lon="-3.5142971"><ele>700.8000000000001</ele><time>2026-03-07T10:52:43.003Z</time></trkpt><trkpt lat="36.8826828" lon="-3.5143689"><ele>700.2</ele><time>2026-03-07T10:52:43.986Z</time></trkpt><trkpt lat="36.8827448" lon="-3.5144492"><ele>699.6</ele><time>2026-03-07T10:52:44.987Z</time></trkpt><trkpt lat="36.8828088" lon="-3.5145392"><ele>699.0</ele><time>2026-03-07T10:52:45.995Z</time></trkpt><trkpt lat="36.8828746" lon="-3.5146303"><ele>699.0</ele><time>2026-03-07T10:52:46.995Z</time></trkpt><trkpt lat="36.8829397" lon="-3.5147188"><ele>699.0</ele><time>2026-03-07T10:52:48.001Z</time></trkpt><trkpt lat="36.8829993" lon="-3.5148048"><ele>699.0</ele><time>2026-03-07T10:52:48.987Z</time></trkpt><trkpt lat="36.8830481" lon="-3.5148974"><ele>699.0</ele><time>2026-03-07T10:52:49.987Z</time></trkpt><trkpt lat="36.8830884" lon="-3.5149966"><ele>699.0</ele><time>2026-03-07T10:52:51.02Z</time></trkpt><trkpt lat="36.8831123" lon="-3.5150983"><ele>699.0</ele><time>2026-03-07T10:52:51.997Z</time></trkpt><trkpt lat="36.8831277" lon="-3.5152012"><ele>699.0</ele><time>2026-03-07T10:52:52.988Z</time></trkpt><trkpt lat="36.883144" lon="-3.5153008"><ele>699.0</ele><time>2026-03-07T10:52:53.995Z</time></trkpt><trkpt lat="36.8831497" lon="-3.5154022"><ele>699.0</ele><time>2026-03-07T10:52:54.988Z</time></trkpt><trkpt lat="36.8831561" lon="-3.5155032"><ele>699.0</ele><time>2026-03-07T10:52:55.987Z</time></trkpt><trkpt lat="36.8831599" lon="-3.5156021"><ele>699.0</ele><time>2026-03-07T10:52:56.997Z</time></trkpt><trkpt lat="36.8831611" lon="-3.5156981"><ele>700.5</ele><time>2026-03-07T10:52:57.994Z</time></trkpt><trkpt lat="36.883154" lon="-3.5157996"><ele>702.0</ele><time>2026-03-07T10:52:58.991Z</time></trkpt><trkpt lat="36.8831404" lon="-3.5158778"><ele>703.5</ele><time>2026-03-07T10:52:59.992Z</time></trkpt><trkpt lat="36.8830976" lon="-3.5159436"><ele>705.0</ele><time>2026-03-07T10:53:01.002Z</time></trkpt><trkpt lat="36.8830446" lon="-3.5160298"><ele>706.5</ele><time>2026-03-07T10:53:01.995Z</time></trkpt><trkpt lat="36.882988" lon="-3.5161328"><ele>708.0</ele><time>2026-03-07T10:53:02.997Z</time></trkpt><trkpt lat="36.8829393" lon="-3.5162445"><ele>708.0</ele><time>2026-03-07T10:53:03.99Z</time></trkpt><trkpt lat="36.8829047" lon="-3.516366"><ele>708.0</ele><time>2026-03-07T10:53:04.995Z</time></trkpt><trkpt lat="36.8828834" lon="-3.5164803"><ele>708.0</ele><time>2026-03-07T10:53:05.992Z</time></trkpt><trkpt lat="36.8828616" lon="-3.5165703"><ele>708.0</ele><time>2026-03-07T10:53:07.014Z</time></trkpt><trkpt lat="36.8827718" lon="-3.5166569"><ele>708.0</ele><time>2026-03-07T10:53:08.998Z</time></trkpt><trkpt lat="36.882658" lon="-3.5165824"><ele>708.0</ele><time>2026-03-07T10:53:10.996Z</time></trkpt><trkpt lat="36.8826096" lon="-3.5165188"><ele>708.0</ele><time>2026-03-07T10:53:11.997Z</time></trkpt><trkpt lat="36.8825598" lon="-3.5164368"><ele>708.0</ele><time>2026-03-07T10:53:12.986Z</time></trkpt><trkpt lat="36.8825122" lon="-3.5163379"><ele>708.0</ele><time>2026-03-07T10:53:13.992Z</time></trkpt><trkpt lat="36.8824663" lon="-3.5162243"><ele>708.0</ele><time>2026-03-07T10:53:14.988Z</time></trkpt><trkpt lat="36.8824142" lon="-3.5161042"><ele>713.8</ele><time>2026-03-07T10:53:15.995Z</time></trkpt><trkpt lat="36.8823598" lon="-3.5159804"><ele>719.5999999999999</ele><time>2026-03-07T10:53:17.049Z</time></trkpt><trkpt lat="36.8823113" lon="-3.515868"><ele>725.4000000000001</ele><time>2026-03-07T10:53:18.02Z</time></trkpt><trkpt lat="36.8822641" lon="-3.5157617"><ele>731.2</ele><time>2026-03-07T10:53:19.003Z</time></trkpt><trkpt lat="36.8822234" lon="-3.5156725"><ele>737.0</ele><time>2026-03-07T10:53:19.997Z</time></trkpt><trkpt lat="36.8821704" lon="-3.5156079"><ele>737.0</ele><time>2026-03-07T10:53:20.998Z</time></trkpt><trkpt lat="36.8820568" lon="-3.5155762"><ele>737.0</ele><time>2026-03-07T10:53:22.989Z</time></trkpt><trkpt lat="36.8819933" lon="-3.5156262"><ele>737.0</ele><time>2026-03-07T10:53:23.987Z</time></trkpt><trkpt lat="36.8819265" lon="-3.515687"><ele>737.0</ele><time>2026-03-07T10:53:24.991Z</time></trkpt><trkpt lat="36.881842" lon="-3.5157477"><ele>737.0</ele><time>2026-03-07T10:53:25.998Z</time></trkpt><trkpt lat="36.881755" lon="-3.5158018"><ele>740.8</ele><time>2026-03-07T10:53:27.054Z</time></trkpt><trkpt lat="36.8816681" lon="-3.5158588"><ele>744.6</ele><time>2026-03-07T10:53:27.986Z</time></trkpt><trkpt lat="36.8815843" lon="-3.5159149"><ele>748.4</ele><time>2026-03-07T10:53:28.997Z</time></trkpt><trkpt lat="36.8815077" lon="-3.5159651"><ele>752.1999999999999</ele><time>2026-03-07T10:53:30.007Z</time></trkpt><trkpt lat="36.8814268" lon="-3.5160111"><ele>756.0</ele><time>2026-03-07T10:53:30.996Z</time></trkpt><trkpt lat="36.881341" lon="-3.5160393"><ele>756.0</ele><time>2026-03-07T10:53:31.992Z</time></trkpt><trkpt lat="36.8812499" lon="-3.5160646"><ele>756.0</ele><time>2026-03-07T10:53:32.976Z</time></trkpt><trkpt lat="36.881162" lon="-3.5160902"><ele>756.0</ele><time>2026-03-07T10:53:33.993Z</time></trkpt><trkpt lat="36.8810762" lon="-3.5161198"><ele>756.0</ele><time>2026-03-07T10:53:35.001Z</time></trkpt><trkpt lat="36.8810011" lon="-3.5161602"><ele>756.0</ele><time>2026-03-07T10:53:35.998Z</time></trkpt><trkpt lat="36.8809428" lon="-3.5161937"><ele>756.0</ele><time>2026-03-07T10:53:36.998Z</time></trkpt><trkpt lat="36.8808217" lon="-3.516225"><ele>757.8333333333334</ele><time>2026-03-07T10:53:38.995Z</time></trkpt><trkpt lat="36.880756" lon="-3.5162287"><ele>759.6666666666666</ele><time>2026-03-07T10:53:40.004Z</time></trkpt><trkpt lat="36.8806755" lon="-3.5162228"><ele>761.5</ele><time>2026-03-07T10:53:40.991Z</time></trkpt><trkpt lat="36.8805799" lon="-3.5161932"><ele>763.3333333333333</ele><time>2026-03-07T10:53:42Z</time></trkpt><trkpt lat="36.8804803" lon="-3.5161689"><ele>765.1666666666666</ele><time>2026-03-07T10:53:43.002Z</time></trkpt><trkpt lat="36.8803832" lon="-3.5161524"><ele>767.0</ele><time>2026-03-07T10:53:43.981Z</time></trkpt><trkpt lat="36.88029" lon="-3.5161592"><ele>767.0</ele><time>2026-03-07T10:53:44.991Z</time></trkpt><trkpt lat="36.8802054" lon="-3.5161967"><ele>767.0</ele><time>2026-03-07T10:53:45.978Z</time></trkpt><trkpt lat="36.8801348" lon="-3.5162614"><ele>767.0</ele><time>2026-03-07T10:53:46.997Z</time></trkpt><trkpt lat="36.8800727" lon="-3.5163479"><ele>767.0</ele><time>2026-03-07T10:53:47.992Z</time></trkpt><trkpt lat="36.8800098" lon="-3.5164583"><ele>767.0</ele><time>2026-03-07T10:53:49.004Z</time></trkpt><trkpt lat="36.8799423" lon="-3.5165798"><ele>767.5</ele><time>2026-03-07T10:53:49.993Z</time></trkpt><trkpt lat="36.8798718" lon="-3.5166996"><ele>768.0</ele><time>2026-03-07T10:53:51.004Z</time></trkpt><trkpt lat="36.8798191" lon="-3.5168223"><ele>768.5</ele><time>2026-03-07T10:53:52.004Z</time></trkpt><trkpt lat="36.8797664" lon="-3.5169489"><ele>769.0</ele><time>2026-03-07T10:53:52.994Z</time></trkpt><trkpt lat="36.8797239" lon="-3.5170896"><ele>768.0</ele><time>2026-03-07T10:53:53.985Z</time></trkpt><trkpt lat="36.8796799" lon="-3.5172283"><ele>767.0</ele><time>2026-03-07T10:53:54.997Z</time></trkpt><trkpt lat="36.879632" lon="-3.5173674"><ele>766.0</ele><time>2026-03-07T10:53:55.997Z</time></trkpt><trkpt lat="36.8795873" lon="-3.517488"><ele>765.0</ele><time>2026-03-07T10:53:56.99Z</time></trkpt><trkpt lat="36.8795424" lon="-3.517594"><ele>764.0</ele><time>2026-03-07T10:53:57.992Z</time></trkpt><trkpt lat="36.8794868" lon="-3.5176936"><ele>764.0</ele><time>2026-03-07T10:53:58.997Z</time></trkpt><trkpt lat="36.8794203" lon="-3.5177864"><ele>764.0</ele><time>2026-03-07T10:53:59.988Z</time></trkpt><trkpt lat="36.8793621" lon="-3.5178767"><ele>764.0</ele><time>2026-03-07T10:54:01.002Z</time></trkpt><trkpt lat="36.8793157" lon="-3.517955"><ele>764.0</ele><time>2026-03-07T10:54:01.992Z</time></trkpt><trkpt lat="36.8792723" lon="-3.5180261"><ele>764.0</ele><time>2026-03-07T10:54:02.995Z</time></trkpt><trkpt lat="36.8792215" lon="-3.5180895"><ele>764.0</ele><time>2026-03-07T10:54:03.998Z</time></trkpt><trkpt lat="36.8791679" lon="-3.5181411"><ele>768.4000000000001</ele><time>2026-03-07T10:54:05.003Z</time></trkpt><trkpt lat="36.8791046" lon="-3.5181846"><ele>772.8</ele><time>2026-03-07T10:54:05.998Z</time></trkpt><trkpt lat="36.8790163" lon="-3.518196"><ele>777.2</ele><time>2026-03-07T10:54:07.001Z</time></trkpt><trkpt lat="36.8789075" lon="-3.5181927"><ele>781.5999999999999</ele><time>2026-03-07T10:54:07.996Z</time></trkpt><trkpt lat="36.8787866" lon="-3.5181759"><ele>786.0</ele><time>2026-03-07T10:54:08.982Z</time></trkpt><trkpt lat="36.8786587" lon="-3.5181474"><ele>786.0</ele><time>2026-03-07T10:54:09.988Z</time></trkpt><trkpt lat="36.8785113" lon="-3.5181076"><ele>786.0</ele><time>2026-03-07T10:54:11.018Z</time></trkpt><trkpt lat="36.8783724" lon="-3.5180623"><ele>786.0</ele><time>2026-03-07T10:54:12.009Z</time></trkpt><trkpt lat="36.8782521" lon="-3.5180255"><ele>786.0</ele><time>2026-03-07T10:54:13.006Z</time></trkpt><trkpt lat="36.878147" lon="-3.5179851"><ele>787.25</ele><time>2026-03-07T10:54:13.987Z</time></trkpt><trkpt lat="36.8780433" lon="-3.5179369"><ele>788.5</ele><time>2026-03-07T10:54:14.989Z</time></trkpt><trkpt lat="36.8779386" lon="-3.5178775"><ele>789.75</ele><time>2026-03-07T10:54:16.004Z</time></trkpt><trkpt lat="36.8778339" lon="-3.5178004"><ele>791.0</ele><time>2026-03-07T10:54:16.985Z</time></trkpt><trkpt lat="36.877734" lon="-3.5177038"><ele>793.75</ele><time>2026-03-07T10:54:17.988Z</time></trkpt><trkpt lat="36.8776347" lon="-3.5176061"><ele>796.5</ele><time>2026-03-07T10:54:18.993Z</time></trkpt><trkpt lat="36.8775322" lon="-3.5175132"><ele>799.25</ele><time>2026-03-07T10:54:20.002Z</time></trkpt><trkpt lat="36.8774387" lon="-3.5174126"><ele>802.0</ele><time>2026-03-07T10:54:20.982Z</time></trkpt><trkpt lat="36.8773512" lon="-3.5173211"><ele>802.0</ele><time>2026-03-07T10:54:21.986Z</time></trkpt><trkpt lat="36.8772599" lon="-3.5172438"><ele>802.0</ele><time>2026-03-07T10:54:23.009Z</time></trkpt><trkpt lat="36.8771748" lon="-3.5171874"><ele>802.0</ele><time>2026-03-07T10:54:24.006Z</time></trkpt><trkpt lat="36.8770876" lon="-3.517147"><ele>802.0</ele><time>2026-03-07T10:54:25Z</time></trkpt><trkpt lat="36.877002" lon="-3.5171165"><ele>802.0</ele><time>2026-03-07T10:54:26.003Z</time></trkpt><trkpt lat="36.8769248" lon="-3.5170806"><ele>802.0</ele><time>2026-03-07T10:54:26.986Z</time></trkpt><trkpt lat="36.8768359" lon="-3.5170349"><ele>802.0</ele><time>2026-03-07T10:54:28.01Z</time></trkpt><trkpt lat="36.8767326" lon="-3.5169617"><ele>802.0</ele><time>2026-03-07T10:54:28.997Z</time></trkpt><trkpt lat="36.8766081" lon="-3.5168806"><ele>802.0</ele><time>2026-03-07T10:54:29.99Z</time></trkpt><trkpt lat="36.8764854" lon="-3.5167971"><ele>802.0</ele><time>2026-03-07T10:54:30.991Z</time></trkpt><trkpt lat="36.8763637" lon="-3.5167177"><ele>802.0</ele><time>2026-03-07T10:54:31.992Z</time></trkpt><trkpt lat="36.8762372" lon="-3.5166475"><ele>802.0</ele><time>2026-03-07T10:54:32.996Z</time></trkpt><trkpt lat="36.8761149" lon="-3.5165868"><ele>802.0</ele><time>2026-03-07T10:54:33.989Z</time></trkpt><trkpt lat="36.8759944" lon="-3.5165317"><ele>803.5</ele><time>2026-03-07T10:54:34.997Z</time></trkpt><trkpt lat="36.8758587" lon="-3.5164946"><ele>805.0</ele><time>2026-03-07T10:54:36.004Z</time></trkpt><trkpt lat="36.8757148" lon="-3.5164571"><ele>806.5</ele><time>2026-03-07T10:54:36.977Z</time></trkpt><trkpt lat="36.8755722" lon="-3.5164184"><ele>808.0</ele><time>2026-03-07T10:54:37.999Z</time></trkpt><trkpt lat="36.8754376" lon="-3.5163825"><ele>807.9999999999999</ele><time>2026-03-07T10:54:39.001Z</time></trkpt><trkpt lat="36.8753202" lon="-3.5163609"><ele>808.0</ele><time>2026-03-07T10:54:39.999Z</time></trkpt><trkpt lat="36.8752186" lon="-3.5163477"><ele>808.0</ele><time>2026-03-07T10:54:40.997Z</time></trkpt><trkpt lat="36.875137" lon="-3.5163413"><ele>808.0</ele><time>2026-03-07T10:54:42.003Z</time></trkpt><trkpt lat="36.8750683" lon="-3.5163461"><ele>807.9999999999999</ele><time>2026-03-07T10:54:43.001Z</time></trkpt><trkpt lat="36.8750121" lon="-3.5163861"><ele>808.0</ele><time>2026-03-07T10:54:43.995Z</time></trkpt><trkpt lat="36.8749621" lon="-3.5164571"><ele>810.5999999999999</ele><time>2026-03-07T10:54:45.002Z</time></trkpt><trkpt lat="36.8749067" lon="-3.5165582"><ele>813.1999999999999</ele><time>2026-03-07T10:54:45.997Z</time></trkpt><trkpt lat="36.8748434" lon="-3.516683"><ele>815.8</ele><time>2026-03-07T10:54:46.994Z</time></trkpt><trkpt lat="36.8747735" lon="-3.5168059"><ele>818.4</ele><time>2026-03-07T10:54:47.988Z</time></trkpt><trkpt lat="36.8747038" lon="-3.5169055"><ele>821.0</ele><time>2026-03-07T10:54:48.993Z</time></trkpt><trkpt lat="36.8746488" lon="-3.5169861"><ele>821.0</ele><time>2026-03-07T10:54:49.989Z</time></trkpt><trkpt lat="36.8745846" lon="-3.5170333"><ele>821.0</ele><time>2026-03-07T10:54:50.98Z</time></trkpt><trkpt lat="36.874503" lon="-3.5170576"><ele>821.0</ele><time>2026-03-07T10:54:51.994Z</time></trkpt><trkpt lat="36.8743936" lon="-3.5170612"><ele>821.0</ele><time>2026-03-07T10:54:52.995Z</time></trkpt><trkpt lat="36.8742602" lon="-3.5170405"><ele>821.0</ele><time>2026-03-07T10:54:53.994Z</time></trkpt><trkpt lat="36.8741248" lon="-3.5170063"><ele>821.25</ele><time>2026-03-07T10:54:54.996Z</time></trkpt><trkpt lat="36.8739988" lon="-3.5169512"><ele>821.5</ele><time>2026-03-07T10:54:56.053Z</time></trkpt><trkpt lat="36.8738786" lon="-3.5168948"><ele>821.75</ele><time>2026-03-07T10:54:57.004Z</time></trkpt><trkpt lat="36.8737615" lon="-3.5168534"><ele>822.0</ele><time>2026-03-07T10:54:58.011Z</time></trkpt><trkpt lat="36.8736455" lon="-3.5168279"><ele>822.0</ele><time>2026-03-07T10:54:58.995Z</time></trkpt><trkpt lat="36.873539" lon="-3.5168165"><ele>822.0</ele><time>2026-03-07T10:54:59.989Z</time></trkpt><trkpt lat="36.8734384" lon="-3.5168295"><ele>822.0</ele><time>2026-03-07T10:55:01.012Z</time></trkpt><trkpt lat="36.8733266" lon="-3.5168542"><ele>822.0</ele><time>2026-03-07T10:55:02.012Z</time></trkpt><trkpt lat="36.873214" lon="-3.5168951"><ele>822.0</ele><time>2026-03-07T10:55:02.997Z</time></trkpt><trkpt lat="36.8731066" lon="-3.5169304"><ele>824.2</ele><time>2026-03-07T10:55:03.994Z</time></trkpt><trkpt lat="36.8730023" lon="-3.5169404"><ele>826.4000000000001</ele><time>2026-03-07T10:55:05.005Z</time></trkpt><trkpt lat="36.8729036" lon="-3.5169194"><ele>828.5999999999999</ele><time>2026-03-07T10:55:05.979Z</time></trkpt><trkpt lat="36.8728158" lon="-3.516883"><ele>830.8</ele><time>2026-03-07T10:55:06.989Z</time></trkpt><trkpt lat="36.872736" lon="-3.5168213"><ele>833.0</ele><time>2026-03-07T10:55:07.995Z</time></trkpt><trkpt lat="36.8726608" lon="-3.5167395"><ele>834.2</ele><time>2026-03-07T10:55:08.998Z</time></trkpt><trkpt lat="36.872589" lon="-3.5166481"><ele>835.4</ele><time>2026-03-07T10:55:09.987Z</time></trkpt><trkpt lat="36.872535" lon="-3.5165514"><ele>836.6</ele><time>2026-03-07T10:55:10.997Z</time></trkpt><trkpt lat="36.872474" lon="-3.5164735"><ele>837.8000000000001</ele><time>2026-03-07T10:55:11.981Z</time></trkpt><trkpt lat="36.8724041" lon="-3.5164148"><ele>839.0</ele><time>2026-03-07T10:55:12.994Z</time></trkpt><trkpt lat="36.8723158" lon="-3.5163748"><ele>839.0</ele><time>2026-03-07T10:55:13.99Z</time></trkpt><trkpt lat="36.8722104" lon="-3.5163427"><ele>839.0</ele><time>2026-03-07T10:55:14.986Z</time></trkpt><trkpt lat="36.8721" lon="-3.5163327"><ele>839.0</ele><time>2026-03-07T10:55:15.994Z</time></trkpt><trkpt lat="36.8719983" lon="-3.5163586"><ele>839.0</ele><time>2026-03-07T10:55:16.995Z</time></trkpt><trkpt lat="36.8719012" lon="-3.516419"><ele>839.0</ele><time>2026-03-07T10:55:17.998Z</time></trkpt><trkpt lat="36.8717992" lon="-3.516512"><ele>838.25</ele><time>2026-03-07T10:55:18.998Z</time></trkpt><trkpt lat="36.8716935" lon="-3.5166149"><ele>837.5</ele><time>2026-03-07T10:55:19.996Z</time></trkpt><trkpt lat="36.8715809" lon="-3.5167149"><ele>836.75</ele><time>2026-03-07T10:55:21Z</time></trkpt><trkpt lat="36.8714783" lon="-3.5168167"><ele>836.0</ele><time>2026-03-07T10:55:22.026Z</time></trkpt><trkpt lat="36.8713858" lon="-3.5169281"><ele>836.0</ele><time>2026-03-07T10:55:23.015Z</time></trkpt><trkpt lat="36.8713003" lon="-3.5170524"><ele>836.0</ele><time>2026-03-07T10:55:24.009Z</time></trkpt><trkpt lat="36.8712188" lon="-3.5171801"><ele>836.0</ele><time>2026-03-07T10:55:25.003Z</time></trkpt><trkpt lat="36.8711469" lon="-3.5172975"><ele>836.0</ele><time>2026-03-07T10:55:26.008Z</time></trkpt><trkpt lat="36.8710808" lon="-3.5173991"><ele>836.0</ele><time>2026-03-07T10:55:26.996Z</time></trkpt><trkpt lat="36.8710171" lon="-3.5174822"><ele>836.0</ele><time>2026-03-07T10:55:28.008Z</time></trkpt><trkpt lat="36.8709644" lon="-3.517552"><ele>836.0</ele><time>2026-03-07T10:55:28.984Z</time></trkpt><trkpt lat="36.8709231" lon="-3.5176132"><ele>836.0</ele><time>2026-03-07T10:55:29.991Z</time></trkpt><trkpt lat="36.8708727" lon="-3.5177305"><ele>836.0</ele><time>2026-03-07T10:55:32Z</time></trkpt><trkpt lat="36.8708293" lon="-3.5178779"><ele>836.0</ele><time>2026-03-07T10:55:34.009Z</time></trkpt><trkpt lat="36.8708158" lon="-3.5179906"><ele>836.0</ele><time>2026-03-07T10:55:35.003Z</time></trkpt><trkpt lat="36.8707976" lon="-3.5181099"><ele>836.0</ele><time>2026-03-07T10:55:35.993Z</time></trkpt><trkpt lat="36.8707696" lon="-3.5182321"><ele>836.0</ele><time>2026-03-07T10:55:36.982Z</time></trkpt><trkpt lat="36.8707381" lon="-3.5183559"><ele>836.0</ele><time>2026-03-07T10:55:37.996Z</time></trkpt><trkpt lat="36.8706923" lon="-3.5185016"><ele>836.0</ele><time>2026-03-07T10:55:38.993Z</time></trkpt><trkpt lat="36.8706445" lon="-3.5186553"><ele>836.0</ele><time>2026-03-07T10:55:39.987Z</time></trkpt><trkpt lat="36.8706049" lon="-3.5188013"><ele>836.0</ele><time>2026-03-07T10:55:40.993Z</time></trkpt><trkpt lat="36.8705684" lon="-3.5189379"><ele>836.0</ele><time>2026-03-07T10:55:42Z</time></trkpt><trkpt lat="36.8705315" lon="-3.5190714"><ele>836.0</ele><time>2026-03-07T10:55:42.996Z</time></trkpt><trkpt lat="36.8705124" lon="-3.5192073"><ele>836.0</ele><time>2026-03-07T10:55:43.995Z</time></trkpt><trkpt lat="36.8705017" lon="-3.5193552"><ele>836.0</ele><time>2026-03-07T10:55:44.991Z</time></trkpt><trkpt lat="36.8705005" lon="-3.5195047"><ele>836.0</ele><time>2026-03-07T10:55:46.006Z</time></trkpt><trkpt lat="36.8704935" lon="-3.5196505"><ele>835.8</ele><time>2026-03-07T10:55:46.996Z</time></trkpt><trkpt lat="36.8704925" lon="-3.5197781"><ele>835.5999999999999</ele><time>2026-03-07T10:55:47.994Z</time></trkpt><trkpt lat="36.8705095" lon="-3.5199049"><ele>835.4</ele><time>2026-03-07T10:55:48.989Z</time></trkpt><trkpt lat="36.8705265" lon="-3.5200282"><ele>835.2</ele><time>2026-03-07T10:55:50.003Z</time></trkpt><trkpt lat="36.8705388" lon="-3.5201493"><ele>835.0</ele><time>2026-03-07T10:55:50.979Z</time></trkpt><trkpt lat="36.8705348" lon="-3.5202686"><ele>834.9999999999999</ele><time>2026-03-07T10:55:52.044Z</time></trkpt><trkpt lat="36.8705271" lon="-3.5203904"><ele>835.0</ele><time>2026-03-07T10:55:52.995Z</time></trkpt><trkpt lat="36.8705024" lon="-3.5205087"><ele>835.0</ele><time>2026-03-07T10:55:53.995Z</time></trkpt><trkpt lat="36.8704726" lon="-3.52062"><ele>835.0</ele><time>2026-03-07T10:55:54.999Z</time></trkpt><trkpt lat="36.8704499" lon="-3.5207184"><ele>834.9999999999999</ele><time>2026-03-07T10:55:55.998Z</time></trkpt><trkpt lat="36.8704296" lon="-3.5208101"><ele>835.0</ele><time>2026-03-07T10:55:56.994Z</time></trkpt><trkpt lat="36.8704152" lon="-3.5208869"><ele>834.4</ele><time>2026-03-07T10:55:57.996Z</time></trkpt><trkpt lat="36.8704078" lon="-3.5209671"><ele>833.8</ele><time>2026-03-07T10:55:59.001Z</time></trkpt><trkpt lat="36.8704307" lon="-3.5210642"><ele>833.2</ele><time>2026-03-07T10:56:00.005Z</time></trkpt><trkpt lat="36.8704553" lon="-3.521184"><ele>832.6</ele><time>2026-03-07T10:56:00.998Z</time></trkpt><trkpt lat="36.8704802" lon="-3.5213236"><ele>832.0</ele><time>2026-03-07T10:56:02.004Z</time></trkpt><trkpt lat="36.8705002" lon="-3.5214618"><ele>831.2</ele><time>2026-03-07T10:56:02.99Z</time></trkpt><trkpt lat="36.870516" lon="-3.5215973"><ele>830.4000000000001</ele><time>2026-03-07T10:56:04.002Z</time></trkpt><trkpt lat="36.8705331" lon="-3.5217163"><ele>829.5999999999999</ele><time>2026-03-07T10:56:04.991Z</time></trkpt><trkpt lat="36.8705489" lon="-3.5218345"><ele>828.8</ele><time>2026-03-07T10:56:06.003Z</time></trkpt><trkpt lat="36.8705636" lon="-3.5219591"><ele>828.0</ele><time>2026-03-07T10:56:06.994Z</time></trkpt><trkpt lat="36.8705654" lon="-3.5220911"><ele>826.5</ele><time>2026-03-07T10:56:07.984Z</time></trkpt><trkpt lat="36.8705454" lon="-3.5222202"><ele>825.0</ele><time>2026-03-07T10:56:09.001Z</time></trkpt><trkpt lat="36.8705187" lon="-3.5223481"><ele>823.5</ele><time>2026-03-07T10:56:10Z</time></trkpt><trkpt lat="36.8704684" lon="-3.52249"><ele>822.0</ele><time>2026-03-07T10:56:11.007Z</time></trkpt><trkpt lat="36.8704077" lon="-3.5226501"><ele>822.0</ele><time>2026-03-07T10:56:12.009Z</time></trkpt><trkpt lat="36.8703358" lon="-3.5228224"><ele>822.0</ele><time>2026-03-07T10:56:13.002Z</time></trkpt><trkpt lat="36.8702618" lon="-3.5229944"><ele>822.0</ele><time>2026-03-07T10:56:13.991Z</time></trkpt><trkpt lat="36.8702023" lon="-3.5231728"><ele>821.25</ele><time>2026-03-07T10:56:14.992Z</time></trkpt><trkpt lat="36.8701463" lon="-3.523337"><ele>820.5</ele><time>2026-03-07T10:56:15.994Z</time></trkpt><trkpt lat="36.8700933" lon="-3.5234875"><ele>819.75</ele><time>2026-03-07T10:56:16.992Z</time></trkpt><trkpt lat="36.8700579" lon="-3.5236176"><ele>819.0</ele><time>2026-03-07T10:56:17.992Z</time></trkpt><trkpt lat="36.8700456" lon="-3.5237313"><ele>820.2</ele><time>2026-03-07T10:56:18.978Z</time></trkpt><trkpt lat="36.8700398" lon="-3.5238583"><ele>821.4000000000001</ele><time>2026-03-07T10:56:19.999Z</time></trkpt><trkpt lat="36.8700407" lon="-3.5240022"><ele>822.6</ele><time>2026-03-07T10:56:20.994Z</time></trkpt><trkpt lat="36.8700334" lon="-3.5241453"><ele>823.8</ele><time>2026-03-07T10:56:22.005Z</time></trkpt><trkpt lat="36.8700194" lon="-3.5242841"><ele>825.0</ele><time>2026-03-07T10:56:22.994Z</time></trkpt><trkpt lat="36.8700125" lon="-3.5244098"><ele>825.0</ele><time>2026-03-07T10:56:24.01Z</time></trkpt><trkpt lat="36.8700337" lon="-3.524536"><ele>825.0</ele><time>2026-03-07T10:56:24.997Z</time></trkpt><trkpt lat="36.8700785" lon="-3.5246496"><ele>825.0</ele><time>2026-03-07T10:56:25.995Z</time></trkpt><trkpt lat="36.8701527" lon="-3.5247612"><ele>825.0</ele><time>2026-03-07T10:56:26.996Z</time></trkpt><trkpt lat="36.8702315" lon="-3.5248711"><ele>825.0</ele><time>2026-03-07T10:56:28.002Z</time></trkpt><trkpt lat="36.8703131" lon="-3.5249873"><ele>821.6</ele><time>2026-03-07T10:56:28.999Z</time></trkpt><trkpt lat="36.870386" lon="-3.525106"><ele>818.2</ele><time>2026-03-07T10:56:29.979Z</time></trkpt><trkpt lat="36.8704488" lon="-3.5252035"><ele>814.8</ele><time>2026-03-07T10:56:30.992Z</time></trkpt><trkpt lat="36.8705018" lon="-3.5252908"><ele>811.4</ele><time>2026-03-07T10:56:32Z</time></trkpt><trkpt lat="36.8705446" lon="-3.5253952"><ele>808.0</ele><time>2026-03-07T10:56:32.988Z</time></trkpt><trkpt lat="36.8705821" lon="-3.5255176"><ele>808.0</ele><time>2026-03-07T10:56:34.058Z</time></trkpt><trkpt lat="36.870625" lon="-3.5256541"><ele>808.0</ele><time>2026-03-07T10:56:34.995Z</time></trkpt><trkpt lat="36.8706794" lon="-3.5257835"><ele>808.0</ele><time>2026-03-07T10:56:35.984Z</time></trkpt><trkpt lat="36.8707318" lon="-3.525903"><ele>808.0</ele><time>2026-03-07T10:56:37.001Z</time></trkpt><trkpt lat="36.8707704" lon="-3.5260355"><ele>808.0</ele><time>2026-03-07T10:56:38.007Z</time></trkpt><trkpt lat="36.870792" lon="-3.5261876"><ele>808.0</ele><time>2026-03-07T10:56:39.012Z</time></trkpt><trkpt lat="36.8708142" lon="-3.5263406"><ele>808.0</ele><time>2026-03-07T10:56:40.001Z</time></trkpt><trkpt lat="36.8708413" lon="-3.5264924"><ele>808.0</ele><time>2026-03-07T10:56:41Z</time></trkpt><trkpt lat="36.8708843" lon="-3.5266486"><ele>808.8</ele><time>2026-03-07T10:56:42.002Z</time></trkpt><trkpt lat="36.8709369" lon="-3.5267845"><ele>809.5999999999999</ele><time>2026-03-07T10:56:42.995Z</time></trkpt><trkpt lat="36.8709964" lon="-3.5269034"><ele>810.4000000000001</ele><time>2026-03-07T10:56:44.002Z</time></trkpt><trkpt lat="36.8710626" lon="-3.5270059"><ele>811.2</ele><time>2026-03-07T10:56:44.994Z</time></trkpt><trkpt lat="36.8711435" lon="-3.5270906"><ele>812.0</ele><time>2026-03-07T10:56:45.993Z</time></trkpt><trkpt lat="36.8712465" lon="-3.5271536"><ele>813.25</ele><time>2026-03-07T10:56:46.998Z</time></trkpt><trkpt lat="36.8713621" lon="-3.5272085"><ele>814.5</ele><time>2026-03-07T10:56:47.994Z</time></trkpt><trkpt lat="36.8714716" lon="-3.5272718"><ele>815.75</ele><time>2026-03-07T10:56:48.999Z</time></trkpt><trkpt lat="36.8715677" lon="-3.5273459"><ele>817.0</ele><time>2026-03-07T10:56:49.992Z</time></trkpt><trkpt lat="36.8716486" lon="-3.5274251"><ele>817.0</ele><time>2026-03-07T10:56:50.986Z</time></trkpt><trkpt lat="36.8717055" lon="-3.5275242"><ele>817.0</ele><time>2026-03-07T10:56:51.998Z</time></trkpt><trkpt lat="36.8717488" lon="-3.5276362"><ele>817.0</ele><time>2026-03-07T10:56:52.997Z</time></trkpt><trkpt lat="36.8717824" lon="-3.5277636"><ele>817.0</ele><time>2026-03-07T10:56:53.999Z</time></trkpt><trkpt lat="36.8718035" lon="-3.5279193"><ele>817.0</ele><time>2026-03-07T10:56:54.991Z</time></trkpt><trkpt lat="36.8718185" lon="-3.5280736"><ele>816.75</ele><time>2026-03-07T10:56:55.998Z</time></trkpt><trkpt lat="36.8718105" lon="-3.5282348"><ele>816.5</ele><time>2026-03-07T10:56:56.995Z</time></trkpt><trkpt lat="36.87178" lon="-3.5283982"><ele>816.25</ele><time>2026-03-07T10:56:57.996Z</time></trkpt><trkpt lat="36.8717476" lon="-3.5285579"><ele>816.0</ele><time>2026-03-07T10:56:59Z</time></trkpt><trkpt lat="36.8717235" lon="-3.5287103"><ele>814.5</ele><time>2026-03-07T10:57:00Z</time></trkpt><trkpt lat="36.8717106" lon="-3.5288614"><ele>813.0</ele><time>2026-03-07T10:57:01.007Z</time></trkpt><trkpt lat="36.8717088" lon="-3.5290169"><ele>811.5</ele><time>2026-03-07T10:57:01.994Z</time></trkpt><trkpt lat="36.8717208" lon="-3.5291714"><ele>810.0</ele><time>2026-03-07T10:57:02.99Z</time></trkpt><trkpt lat="36.8717579" lon="-3.5293327"><ele>806.0</ele><time>2026-03-07T10:57:04.071Z</time></trkpt><trkpt lat="36.8718184" lon="-3.5294977"><ele>802.0</ele><time>2026-03-07T10:57:04.997Z</time></trkpt><trkpt lat="36.8718912" lon="-3.5296615"><ele>798.0</ele><time>2026-03-07T10:57:06.018Z</time></trkpt><trkpt lat="36.8719688" lon="-3.5298305"><ele>798.0</ele><time>2026-03-07T10:57:07.014Z</time></trkpt><trkpt lat="36.8720387" lon="-3.5299852"><ele>798.0</ele><time>2026-03-07T10:57:08.014Z</time></trkpt><trkpt lat="36.8721015" lon="-3.5301197"><ele>798.0</ele><time>2026-03-07T10:57:09.016Z</time></trkpt><trkpt lat="36.8721555" lon="-3.530245"><ele>798.0</ele><time>2026-03-07T10:57:10.002Z</time></trkpt><trkpt lat="36.8722021" lon="-3.530362"><ele>799.25</ele><time>2026-03-07T10:57:11.01Z</time></trkpt><trkpt lat="36.8722353" lon="-3.5304911"><ele>800.5</ele><time>2026-03-07T10:57:12.013Z</time></trkpt><trkpt lat="36.8722607" lon="-3.5306371"><ele>801.75</ele><time>2026-03-07T10:57:12.986Z</time></trkpt><trkpt lat="36.8722789" lon="-3.5307897"><ele>803.0</ele><time>2026-03-07T10:57:13.992Z</time></trkpt><trkpt lat="36.8723017" lon="-3.5309441"><ele>803.0</ele><time>2026-03-07T10:57:15.028Z</time></trkpt><trkpt lat="36.8723239" lon="-3.5310873"><ele>803.0</ele><time>2026-03-07T10:57:16.029Z</time></trkpt><trkpt lat="36.8723454" lon="-3.5312225"><ele>803.0</ele><time>2026-03-07T10:57:16.988Z</time></trkpt><trkpt lat="36.8723682" lon="-3.5313499"><ele>803.0</ele><time>2026-03-07T10:57:17.999Z</time></trkpt><trkpt lat="36.8723899" lon="-3.5314779"><ele>803.0</ele><time>2026-03-07T10:57:18.996Z</time></trkpt><trkpt lat="36.8724143" lon="-3.5316107"><ele>802.5</ele><time>2026-03-07T10:57:20.052Z</time></trkpt><trkpt lat="36.8724399" lon="-3.5317582"><ele>802.0</ele><time>2026-03-07T10:57:20.996Z</time></trkpt><trkpt lat="36.8724589" lon="-3.5319096"><ele>801.5</ele><time>2026-03-07T10:57:21.989Z</time></trkpt><trkpt lat="36.8724751" lon="-3.5320517"><ele>801.0</ele><time>2026-03-07T10:57:23.001Z</time></trkpt><trkpt lat="36.8724847" lon="-3.5321884"><ele>799.75</ele><time>2026-03-07T10:57:23.998Z</time></trkpt><trkpt lat="36.8724727" lon="-3.5323194"><ele>798.5</ele><time>2026-03-07T10:57:24.98Z</time></trkpt><trkpt lat="36.8724428" lon="-3.5324525"><ele>797.25</ele><time>2026-03-07T10:57:26.011Z</time></trkpt><trkpt lat="36.8723952" lon="-3.5325824"><ele>796.0</ele><time>2026-03-07T10:57:27.004Z</time></trkpt><trkpt lat="36.8723323" lon="-3.5327104"><ele>796.0</ele><time>2026-03-07T10:57:27.989Z</time></trkpt><trkpt lat="36.872268" lon="-3.5328407"><ele>796.0</ele><time>2026-03-07T10:57:28.996Z</time></trkpt><trkpt lat="36.8721943" lon="-3.5329736"><ele>796.0</ele><time>2026-03-07T10:57:29.999Z</time></trkpt><trkpt lat="36.8721185" lon="-3.5330955"><ele>796.0</ele><time>2026-03-07T10:57:30.997Z</time></trkpt><trkpt lat="36.8720293" lon="-3.5332035"><ele>797.5999999999999</ele><time>2026-03-07T10:57:32.01Z</time></trkpt><trkpt lat="36.8719305" lon="-3.5333069"><ele>799.2</ele><time>2026-03-07T10:57:33.028Z</time></trkpt><trkpt lat="36.8718343" lon="-3.5334015"><ele>800.8</ele><time>2026-03-07T10:57:34.005Z</time></trkpt><trkpt lat="36.8717568" lon="-3.5334769"><ele>802.4000000000001</ele><time>2026-03-07T10:57:34.984Z</time></trkpt><trkpt lat="36.8716927" lon="-3.5335321"><ele>804.0</ele><time>2026-03-07T10:57:36.021Z</time></trkpt><trkpt lat="36.8716343" lon="-3.5335781"><ele>804.0</ele><time>2026-03-07T10:57:37.035Z</time></trkpt><trkpt lat="36.871578" lon="-3.5337033"><ele>804.0</ele><time>2026-03-07T10:57:39.012Z</time></trkpt><trkpt lat="36.8716485" lon="-3.5338358"><ele>804.0</ele><time>2026-03-07T10:57:41.012Z</time></trkpt><trkpt lat="36.8717114" lon="-3.5339119"><ele>804.0</ele><time>2026-03-07T10:57:42.009Z</time></trkpt><trkpt lat="36.871767" lon="-3.5339895"><ele>804.0</ele><time>2026-03-07T10:57:43.013Z</time></trkpt><trkpt lat="36.8718005" lon="-3.5340824"><ele>803.8000000000001</ele><time>2026-03-07T10:57:44.02Z</time></trkpt><trkpt lat="36.8718005" lon="-3.5342083"><ele>803.6</ele><time>2026-03-07T10:57:45.033Z</time></trkpt><trkpt lat="36.8717624" lon="-3.5343431"><ele>803.4</ele><time>2026-03-07T10:57:46.017Z</time></trkpt><trkpt lat="36.8717236" lon="-3.5344733"><ele>803.2</ele><time>2026-03-07T10:57:47.012Z</time></trkpt><trkpt lat="36.8716924" lon="-3.5345801"><ele>803.0</ele><time>2026-03-07T10:57:48.008Z</time></trkpt><trkpt lat="36.871668" lon="-3.5346617"><ele>803.0000000000001</ele><time>2026-03-07T10:57:49.012Z</time></trkpt><trkpt lat="36.8716663" lon="-3.5347471"><ele>803.0</ele><time>2026-03-07T10:57:50.015Z</time></trkpt><trkpt lat="36.8716752" lon="-3.5348438"><ele>803.0</ele><time>2026-03-07T10:57:50.998Z</time></trkpt><trkpt lat="36.8716892" lon="-3.5349616"><ele>803.0</ele><time>2026-03-07T10:57:51.991Z</time></trkpt><trkpt lat="36.8717078" lon="-3.535088"><ele>803.0000000000001</ele><time>2026-03-07T10:57:53.015Z</time></trkpt><trkpt lat="36.8717227" lon="-3.5352153"><ele>803.0</ele><time>2026-03-07T10:57:54.003Z</time></trkpt><trkpt lat="36.8717278" lon="-3.5353422"><ele>803.5000000000001</ele><time>2026-03-07T10:57:54.993Z</time></trkpt><trkpt lat="36.8717267" lon="-3.5354633"><ele>804.0</ele><time>2026-03-07T10:57:56.037Z</time></trkpt><trkpt lat="36.8717229" lon="-3.5355815"><ele>804.5</ele><time>2026-03-07T10:57:56.992Z</time></trkpt><trkpt lat="36.8717054" lon="-3.5356899"><ele>805.0</ele><time>2026-03-07T10:57:57.98Z</time></trkpt><trkpt lat="36.8716823" lon="-3.5357929"><ele>805.5000000000001</ele><time>2026-03-07T10:57:59.006Z</time></trkpt><trkpt lat="36.8716582" lon="-3.5358906"><ele>806.0</ele><time>2026-03-07T10:58:00Z</time></trkpt><trkpt lat="36.8716222" lon="-3.5359888"><ele>806.0000000000001</ele><time>2026-03-07T10:58:00.998Z</time></trkpt><trkpt lat="36.8715761" lon="-3.5360822"><ele>806.0</ele><time>2026-03-07T10:58:02.009Z</time></trkpt><trkpt lat="36.8715307" lon="-3.5361822"><ele>806.0</ele><time>2026-03-07T10:58:02.992Z</time></trkpt><trkpt lat="36.8714982" lon="-3.5362774"><ele>806.0</ele><time>2026-03-07T10:58:03.989Z</time></trkpt><trkpt lat="36.8714898" lon="-3.536376"><ele>806.0000000000001</ele><time>2026-03-07T10:58:04.978Z</time></trkpt><trkpt lat="36.8715013" lon="-3.5364811"><ele>806.0</ele><time>2026-03-07T10:58:06.007Z</time></trkpt><trkpt lat="36.8715175" lon="-3.5365928"><ele>807.8</ele><time>2026-03-07T10:58:07.026Z</time></trkpt><trkpt lat="36.8715337" lon="-3.5367036"><ele>809.5999999999999</ele><time>2026-03-07T10:58:08.007Z</time></trkpt><trkpt lat="36.8715443" lon="-3.5368109"><ele>811.4</ele><time>2026-03-07T10:58:08.998Z</time></trkpt><trkpt lat="36.8715506" lon="-3.5369227"><ele>813.2</ele><time>2026-03-07T10:58:09.981Z</time></trkpt><trkpt lat="36.8715538" lon="-3.5370349"><ele>815.0</ele><time>2026-03-07T10:58:11.024Z</time></trkpt><trkpt lat="36.8715563" lon="-3.5371542"><ele>815.8333333333334</ele><time>2026-03-07T10:58:12.016Z</time></trkpt><trkpt lat="36.8715566" lon="-3.5372605"><ele>816.6666666666667</ele><time>2026-03-07T10:58:12.985Z</time></trkpt><trkpt lat="36.871557" lon="-3.5373584"><ele>817.5</ele><time>2026-03-07T10:58:14.015Z</time></trkpt><trkpt lat="36.8715632" lon="-3.5374544"><ele>818.3333333333333</ele><time>2026-03-07T10:58:14.982Z</time></trkpt><trkpt lat="36.8715847" lon="-3.537551"><ele>819.1666666666666</ele><time>2026-03-07T10:58:16.012Z</time></trkpt><trkpt lat="36.8716212" lon="-3.5376335"><ele>820.0</ele><time>2026-03-07T10:58:17.009Z</time></trkpt><trkpt lat="36.8716748" lon="-3.5377026"><ele>820.0</ele><time>2026-03-07T10:58:18.016Z</time></trkpt><trkpt lat="36.8717453" lon="-3.5377608"><ele>820.0</ele><time>2026-03-07T10:58:19.012Z</time></trkpt><trkpt lat="36.8718214" lon="-3.5378119"><ele>820.0</ele><time>2026-03-07T10:58:19.974Z</time></trkpt><trkpt lat="36.8719003" lon="-3.5378611"><ele>820.0</ele><time>2026-03-07T10:58:21.029Z</time></trkpt><trkpt lat="36.8719551" lon="-3.5379069"><ele>820.0</ele><time>2026-03-07T10:58:22.008Z</time></trkpt><trkpt lat="36.8720379" lon="-3.5380236"><ele>820.0</ele><time>2026-03-07T10:58:24.013Z</time></trkpt><trkpt lat="36.8720677" lon="-3.5380936"><ele>820.0</ele><time>2026-03-07T10:58:25.007Z</time></trkpt><trkpt lat="36.8720896" lon="-3.5381726"><ele>820.0</ele><time>2026-03-07T10:58:26.007Z</time></trkpt><trkpt lat="36.8720902" lon="-3.5382641"><ele>820.0</ele><time>2026-03-07T10:58:27.003Z</time></trkpt><trkpt lat="36.8720822" lon="-3.5383551"><ele>820.0</ele><time>2026-03-07T10:58:28.022Z</time></trkpt><trkpt lat="36.8720704" lon="-3.5384424"><ele>820.0</ele><time>2026-03-07T10:58:28.989Z</time></trkpt><trkpt lat="36.8720475" lon="-3.5385277"><ele>820.0</ele><time>2026-03-07T10:58:29.993Z</time></trkpt><trkpt lat="36.8720177" lon="-3.5386216"><ele>823.0</ele><time>2026-03-07T10:58:30.996Z</time></trkpt><trkpt lat="36.8719926" lon="-3.5387339"><ele>826.0</ele><time>2026-03-07T10:58:31.986Z</time></trkpt><trkpt lat="36.8719784" lon="-3.5388534"><ele>829.0</ele><time>2026-03-07T10:58:32.982Z</time></trkpt><trkpt lat="36.8719627" lon="-3.5389848"><ele>832.0</ele><time>2026-03-07T10:58:33.988Z</time></trkpt><trkpt lat="36.8719418" lon="-3.5391062"><ele>835.0</ele><time>2026-03-07T10:58:34.982Z</time></trkpt><trkpt lat="36.8718998" lon="-3.5392165"><ele>835.0</ele><time>2026-03-07T10:58:36.021Z</time></trkpt><trkpt lat="36.8718353" lon="-3.5393124"><ele>835.0</ele><time>2026-03-07T10:58:37.002Z</time></trkpt><trkpt lat="36.8717606" lon="-3.5393965"><ele>835.0</ele><time>2026-03-07T10:58:37.978Z</time></trkpt><trkpt lat="36.8716833" lon="-3.5394637"><ele>835.0</ele><time>2026-03-07T10:58:38.985Z</time></trkpt><trkpt lat="36.8716008" lon="-3.5395165"><ele>835.0</ele><time>2026-03-07T10:58:39.991Z</time></trkpt><trkpt lat="36.8715207" lon="-3.5395706"><ele>834.8</ele><time>2026-03-07T10:58:40.991Z</time></trkpt><trkpt lat="36.8714447" lon="-3.539639"><ele>834.6</ele><time>2026-03-07T10:58:41.985Z</time></trkpt><trkpt lat="36.8713855" lon="-3.539724"><ele>834.4000000000001</ele><time>2026-03-07T10:58:42.984Z</time></trkpt><trkpt lat="36.871346" lon="-3.5398233"><ele>834.2</ele><time>2026-03-07T10:58:43.986Z</time></trkpt><trkpt lat="36.8713193" lon="-3.5399313"><ele>834.0</ele><time>2026-03-07T10:58:44.982Z</time></trkpt><trkpt lat="36.871292" lon="-3.5400366"><ele>834.0</ele><time>2026-03-07T10:58:45.995Z</time></trkpt><trkpt lat="36.871246" lon="-3.5401411"><ele>834.0</ele><time>2026-03-07T10:58:47.006Z</time></trkpt><trkpt lat="36.8711678" lon="-3.5402204"><ele>834.0</ele><time>2026-03-07T10:58:48.012Z</time></trkpt><trkpt lat="36.8710636" lon="-3.5402711"><ele>834.0</ele><time>2026-03-07T10:58:49.001Z</time></trkpt><trkpt lat="36.8709409" lon="-3.5402944"><ele>834.0</ele><time>2026-03-07T10:58:49.983Z</time></trkpt><trkpt lat="36.8708126" lon="-3.5403041"><ele>833.5</ele><time>2026-03-07T10:58:50.976Z</time></trkpt><trkpt lat="36.870681" lon="-3.5403213"><ele>833.0</ele><time>2026-03-07T10:58:52Z</time></trkpt><trkpt lat="36.8705513" lon="-3.5403608"><ele>832.5</ele><time>2026-03-07T10:58:52.99Z</time></trkpt><trkpt lat="36.870439" lon="-3.5404584"><ele>832.0</ele><time>2026-03-07T10:58:53.983Z</time></trkpt><trkpt lat="36.8703218" lon="-3.5405753"><ele>832.0</ele><time>2026-03-07T10:58:54.993Z</time></trkpt><trkpt lat="36.8702089" lon="-3.540689"><ele>832.0</ele><time>2026-03-07T10:58:55.996Z</time></trkpt><trkpt lat="36.8701103" lon="-3.5407955"><ele>832.0</ele><time>2026-03-07T10:58:56.98Z</time></trkpt><trkpt lat="36.8700256" lon="-3.5408986"><ele>832.0</ele><time>2026-03-07T10:58:57.996Z</time></trkpt><trkpt lat="36.8699542" lon="-3.5410198"><ele>824.3333333333333</ele><time>2026-03-07T10:58:58.995Z</time></trkpt><trkpt lat="36.8699058" lon="-3.5411886"><ele>816.6666666666667</ele><time>2026-03-07T10:58:59.989Z</time></trkpt><trkpt lat="36.8698733" lon="-3.5413822"><ele>809.0</ele><time>2026-03-07T10:59:00.994Z</time></trkpt><trkpt lat="36.8698291" lon="-3.5416008"><ele>809.0</ele><time>2026-03-07T10:59:02.007Z</time></trkpt><trkpt lat="36.8697621" lon="-3.5418179"><ele>809.0</ele><time>2026-03-07T10:59:02.985Z</time></trkpt><trkpt lat="36.8696877" lon="-3.5420239"><ele>809.0</ele><time>2026-03-07T10:59:04.006Z</time></trkpt><trkpt lat="36.8696168" lon="-3.5422095"><ele>810.75</ele><time>2026-03-07T10:59:04.992Z</time></trkpt><trkpt lat="36.8695528" lon="-3.5423788"><ele>812.5</ele><time>2026-03-07T10:59:05.989Z</time></trkpt><trkpt lat="36.8694991" lon="-3.5425269"><ele>814.25</ele><time>2026-03-07T10:59:06.974Z</time></trkpt><trkpt lat="36.8694495" lon="-3.5426559"><ele>816.0</ele><time>2026-03-07T10:59:07.996Z</time></trkpt><trkpt lat="36.8693825" lon="-3.5427584"><ele>816.0</ele><time>2026-03-07T10:59:08.994Z</time></trkpt><trkpt lat="36.8692872" lon="-3.5428383"><ele>816.0</ele><time>2026-03-07T10:59:09.994Z</time></trkpt><trkpt lat="36.8691728" lon="-3.5428831"><ele>816.0</ele><time>2026-03-07T10:59:10.995Z</time></trkpt><trkpt lat="36.8690545" lon="-3.54286"><ele>816.0</ele><time>2026-03-07T10:59:11.998Z</time></trkpt><trkpt lat="36.8689405" lon="-3.5427855"><ele>808.75</ele><time>2026-03-07T10:59:12.977Z</time></trkpt><trkpt lat="36.868838" lon="-3.5426642"><ele>801.5</ele><time>2026-03-07T10:59:13.995Z</time></trkpt><trkpt lat="36.8687568" lon="-3.5424853"><ele>794.25</ele><time>2026-03-07T10:59:14.988Z</time></trkpt><trkpt lat="36.8686814" lon="-3.5423355"><ele>787.0</ele><time>2026-03-07T10:59:15.988Z</time></trkpt><trkpt lat="36.8685948" lon="-3.542209"><ele>787.0</ele><time>2026-03-07T10:59:16.999Z</time></trkpt><trkpt lat="36.8684899" lon="-3.5421202"><ele>787.0</ele><time>2026-03-07T10:59:18.009Z</time></trkpt><trkpt lat="36.8683685" lon="-3.5420669"><ele>787.0</ele><time>2026-03-07T10:59:18.994Z</time></trkpt><trkpt lat="36.8682389" lon="-3.5420356"><ele>787.0</ele><time>2026-03-07T10:59:19.978Z</time></trkpt><trkpt lat="36.868096" lon="-3.5420359"><ele>788.6666666666666</ele><time>2026-03-07T10:59:20.998Z</time></trkpt><trkpt lat="36.8679504" lon="-3.5420819"><ele>790.3333333333333</ele><time>2026-03-07T10:59:22.001Z</time></trkpt><trkpt lat="36.8677934" lon="-3.5421453"><ele>792.0</ele><time>2026-03-07T10:59:22.989Z</time></trkpt><trkpt lat="36.867643" lon="-3.5422014"><ele>789.0</ele><time>2026-03-07T10:59:23.996Z</time></trkpt><trkpt lat="36.867498" lon="-3.5422668"><ele>786.0</ele><time>2026-03-07T10:59:24.997Z</time></trkpt><trkpt lat="36.8673545" lon="-3.5423528"><ele>783.0</ele><time>2026-03-07T10:59:25.989Z</time></trkpt><trkpt lat="36.8672213" lon="-3.5424708"><ele>783.0</ele><time>2026-03-07T10:59:26.975Z</time></trkpt><trkpt lat="36.8670945" lon="-3.5426009"><ele>783.0</ele><time>2026-03-07T10:59:28.001Z</time></trkpt><trkpt lat="36.8669795" lon="-3.5427318"><ele>783.0</ele><time>2026-03-07T10:59:28.986Z</time></trkpt><trkpt lat="36.8668858" lon="-3.5428538"><ele>784.75</ele><time>2026-03-07T10:59:29.984Z</time></trkpt><trkpt lat="36.8668175" lon="-3.5429707"><ele>786.5</ele><time>2026-03-07T10:59:30.987Z</time></trkpt><trkpt lat="36.8667747" lon="-3.5431011"><ele>788.25</ele><time>2026-03-07T10:59:31.993Z</time></trkpt><trkpt lat="36.8667694" lon="-3.5432505"><ele>790.0</ele><time>2026-03-07T10:59:32.989Z</time></trkpt><trkpt lat="36.8668048" lon="-3.543408"><ele>790.0</ele><time>2026-03-07T10:59:33.978Z</time></trkpt><trkpt lat="36.8668319" lon="-3.5435575"><ele>790.0</ele><time>2026-03-07T10:59:34.981Z</time></trkpt><trkpt lat="36.8668149" lon="-3.5437016"><ele>790.0</ele><time>2026-03-07T10:59:35.995Z</time></trkpt><trkpt lat="36.8667568" lon="-3.5438289"><ele>790.0</ele><time>2026-03-07T10:59:36.986Z</time></trkpt><trkpt lat="36.8666588" lon="-3.5439071"><ele>789.5</ele><time>2026-03-07T10:59:38.018Z</time></trkpt><trkpt lat="36.8665561" lon="-3.5439516"><ele>789.0</ele><time>2026-03-07T10:59:38.984Z</time></trkpt><trkpt lat="36.8664617" lon="-3.5439885"><ele>788.5</ele><time>2026-03-07T10:59:39.984Z</time></trkpt><trkpt lat="36.8663325" lon="-3.5439434"><ele>788.0</ele><time>2026-03-07T10:59:40.988Z</time></trkpt><trkpt lat="36.8661928" lon="-3.5438242"><ele>782.0</ele><time>2026-03-07T10:59:41.99Z</time></trkpt><trkpt lat="36.8660533" lon="-3.5436894"><ele>776.0</ele><time>2026-03-07T10:59:43.034Z</time></trkpt><trkpt lat="36.865898" lon="-3.5435706"><ele>770.0</ele><time>2026-03-07T10:59:43.99Z</time></trkpt><trkpt lat="36.8657478" lon="-3.5434673"><ele>770.0</ele><time>2026-03-07T10:59:45.002Z</time></trkpt><trkpt lat="36.8656011" lon="-3.5433761"><ele>770.0</ele><time>2026-03-07T10:59:45.994Z</time></trkpt><trkpt lat="36.8654718" lon="-3.5432986"><ele>770.0</ele><time>2026-03-07T10:59:46.99Z</time></trkpt><trkpt lat="36.8653489" lon="-3.5432251"><ele>770.0</ele><time>2026-03-07T10:59:48.009Z</time></trkpt><trkpt lat="36.86523" lon="-3.5431658"><ele>771.75</ele><time>2026-03-07T10:59:49.008Z</time></trkpt><trkpt lat="36.8651094" lon="-3.5431141"><ele>773.5</ele><time>2026-03-07T10:59:49.99Z</time></trkpt><trkpt lat="36.8649784" lon="-3.543114"><ele>775.25</ele><time>2026-03-07T10:59:50.99Z</time></trkpt><trkpt lat="36.8648432" lon="-3.5431365"><ele>777.0</ele><time>2026-03-07T10:59:52.007Z</time></trkpt><trkpt lat="36.8647077" lon="-3.5431683"><ele>777.0</ele><time>2026-03-07T10:59:52.996Z</time></trkpt><trkpt lat="36.8645716" lon="-3.5431386"><ele>777.0</ele><time>2026-03-07T10:59:54Z</time></trkpt><trkpt lat="36.864437" lon="-3.5430612"><ele>777.0</ele><time>2026-03-07T10:59:54.985Z</time></trkpt><trkpt lat="36.8643167" lon="-3.5429294"><ele>777.0</ele><time>2026-03-07T10:59:55.992Z</time></trkpt><trkpt lat="36.8641976" lon="-3.5427895"><ele>771.0</ele><time>2026-03-07T10:59:56.986Z</time></trkpt><trkpt lat="36.8640869" lon="-3.5426645"><ele>765.0</ele><time>2026-03-07T10:59:57.981Z</time></trkpt><trkpt lat="36.8639642" lon="-3.5425676"><ele>759.0</ele><time>2026-03-07T10:59:58.994Z</time></trkpt><trkpt lat="36.8638326" lon="-3.5425154"><ele>753.0</ele><time>2026-03-07T10:59:59.999Z</time></trkpt><trkpt lat="36.8636954" lon="-3.5424935"><ele>753.0</ele><time>2026-03-07T11:00:00.99Z</time></trkpt><trkpt lat="36.8635361" lon="-3.5425014"><ele>753.0</ele><time>2026-03-07T11:00:01.994Z</time></trkpt><trkpt lat="36.8633692" lon="-3.5425174"><ele>753.0</ele><time>2026-03-07T11:00:02.998Z</time></trkpt><trkpt lat="36.8632023" lon="-3.542527"><ele>752.6666666666666</ele><time>2026-03-07T11:00:04Z</time></trkpt><trkpt lat="36.8630422" lon="-3.5425387"><ele>752.3333333333333</ele><time>2026-03-07T11:00:05Z</time></trkpt><trkpt lat="36.8628846" lon="-3.5425671"><ele>752.0</ele><time>2026-03-07T11:00:05.987Z</time></trkpt><trkpt lat="36.8627274" lon="-3.5426116"><ele>747.6666666666666</ele><time>2026-03-07T11:00:06.999Z</time></trkpt><trkpt lat="36.8625685" lon="-3.5426766"><ele>743.3333333333334</ele><time>2026-03-07T11:00:08.014Z</time></trkpt><trkpt lat="36.8624103" lon="-3.5427492"><ele>739.0</ele><time>2026-03-07T11:00:08.983Z</time></trkpt><trkpt lat="36.8622653" lon="-3.5428245"><ele>739.0</ele><time>2026-03-07T11:00:10Z</time></trkpt><trkpt lat="36.8621199" lon="-3.5428707"><ele>739.0</ele><time>2026-03-07T11:00:11.006Z</time></trkpt><trkpt lat="36.861972" lon="-3.5428548"><ele>739.0</ele><time>2026-03-07T11:00:12.002Z</time></trkpt><trkpt lat="36.8618246" lon="-3.5427919"><ele>737.6666666666667</ele><time>2026-03-07T11:00:12.989Z</time></trkpt><trkpt lat="36.8616801" lon="-3.5427214"><ele>736.3333333333334</ele><time>2026-03-07T11:00:13.998Z</time></trkpt><trkpt lat="36.8615298" lon="-3.5426475"><ele>735.0</ele><time>2026-03-07T11:00:14.983Z</time></trkpt><trkpt lat="36.8613795" lon="-3.5425715"><ele>735.0</ele><time>2026-03-07T11:00:15.99Z</time></trkpt><trkpt lat="36.8612301" lon="-3.5425128"><ele>735.0</ele><time>2026-03-07T11:00:16.997Z</time></trkpt><trkpt lat="36.8610897" lon="-3.5424731"><ele>735.0</ele><time>2026-03-07T11:00:18.001Z</time></trkpt><trkpt lat="36.8609426" lon="-3.5424564"><ele>735.0</ele><time>2026-03-07T11:00:18.984Z</time></trkpt><trkpt lat="36.8607844" lon="-3.5424767"><ele>733.6666666666666</ele><time>2026-03-07T11:00:19.994Z</time></trkpt><trkpt lat="36.8606183" lon="-3.5424859"><ele>732.3333333333333</ele><time>2026-03-07T11:00:20.982Z</time></trkpt><trkpt lat="36.8604567" lon="-3.5424797"><ele>731.0</ele><time>2026-03-07T11:00:21.983Z</time></trkpt><trkpt lat="36.8602852" lon="-3.5424695"><ele>728.6666666666666</ele><time>2026-03-07T11:00:23.005Z</time></trkpt><trkpt lat="36.8601032" lon="-3.5424737"><ele>726.3333333333334</ele><time>2026-03-07T11:00:23.989Z</time></trkpt><trkpt lat="36.859918" lon="-3.5425257"><ele>724.0</ele><time>2026-03-07T11:00:24.995Z</time></trkpt><trkpt lat="36.8597315" lon="-3.5425785"><ele>724.0</ele><time>2026-03-07T11:00:25.982Z</time></trkpt><trkpt lat="36.8595678" lon="-3.5426249"><ele>724.0</ele><time>2026-03-07T11:00:26.989Z</time></trkpt><trkpt lat="36.8594037" lon="-3.5426434"><ele>724.0</ele><time>2026-03-07T11:00:27.993Z</time></trkpt><trkpt lat="36.8592337" lon="-3.5426221"><ele>720.25</ele><time>2026-03-07T11:00:28.993Z</time></trkpt><trkpt lat="36.8590842" lon="-3.5426025"><ele>716.5</ele><time>2026-03-07T11:00:29.991Z</time></trkpt><trkpt lat="36.8589371" lon="-3.5425854"><ele>712.75</ele><time>2026-03-07T11:00:30.993Z</time></trkpt><trkpt lat="36.8587948" lon="-3.542577"><ele>709.0</ele><time>2026-03-07T11:00:32.009Z</time></trkpt><trkpt lat="36.8586575" lon="-3.5425769"><ele>709.0</ele><time>2026-03-07T11:00:32.99Z</time></trkpt><trkpt lat="36.8585253" lon="-3.5425942"><ele>709.0</ele><time>2026-03-07T11:00:33.985Z</time></trkpt><trkpt lat="36.8584107" lon="-3.5426424"><ele>709.0</ele><time>2026-03-07T11:00:34.994Z</time></trkpt><trkpt lat="36.8583054" lon="-3.5427151"><ele>709.0</ele><time>2026-03-07T11:00:35.99Z</time></trkpt><trkpt lat="36.8582139" lon="-3.5427947"><ele>707.6</ele><time>2026-03-07T11:00:36.986Z</time></trkpt><trkpt lat="36.858124" lon="-3.5428703"><ele>706.2</ele><time>2026-03-07T11:00:37.988Z</time></trkpt><trkpt lat="36.8580414" lon="-3.542934"><ele>704.8000000000001</ele><time>2026-03-07T11:00:38.994Z</time></trkpt><trkpt lat="36.8579621" lon="-3.5429765"><ele>703.4000000000001</ele><time>2026-03-07T11:00:40.002Z</time></trkpt><trkpt lat="36.8578781" lon="-3.5429957"><ele>702.0</ele><time>2026-03-07T11:00:40.999Z</time></trkpt><trkpt lat="36.8577822" lon="-3.5430052"><ele>702.6</ele><time>2026-03-07T11:00:41.992Z</time></trkpt><trkpt lat="36.8576787" lon="-3.5430184"><ele>703.2</ele><time>2026-03-07T11:00:43.008Z</time></trkpt><trkpt lat="36.857571" lon="-3.5430451"><ele>703.8</ele><time>2026-03-07T11:00:43.994Z</time></trkpt><trkpt lat="36.8574651" lon="-3.5430709"><ele>704.4</ele><time>2026-03-07T11:00:44.981Z</time></trkpt><trkpt lat="36.8573524" lon="-3.5430902"><ele>705.0</ele><time>2026-03-07T11:00:45.991Z</time></trkpt><trkpt lat="36.8572346" lon="-3.5431157"><ele>705.0</ele><time>2026-03-07T11:00:46.986Z</time></trkpt><trkpt lat="36.8571156" lon="-3.5431477"><ele>705.0</ele><time>2026-03-07T11:00:47.981Z</time></trkpt><trkpt lat="36.8569946" lon="-3.5431976"><ele>705.0</ele><time>2026-03-07T11:00:48.991Z</time></trkpt><trkpt lat="36.8568732" lon="-3.5432725"><ele>705.0</ele><time>2026-03-07T11:00:49.99Z</time></trkpt><trkpt lat="36.8567445" lon="-3.543371"><ele>707.0</ele><time>2026-03-07T11:00:50.997Z</time></trkpt><trkpt lat="36.8566093" lon="-3.5434809"><ele>709.0</ele><time>2026-03-07T11:00:51.997Z</time></trkpt><trkpt lat="36.8564642" lon="-3.5435984"><ele>711.0</ele><time>2026-03-07T11:00:53.007Z</time></trkpt><trkpt lat="36.8563179" lon="-3.5437215"><ele>711.0</ele><time>2026-03-07T11:00:54.009Z</time></trkpt><trkpt lat="36.8561694" lon="-3.5438455"><ele>711.0</ele><time>2026-03-07T11:00:55.001Z</time></trkpt><trkpt lat="36.8560283" lon="-3.5439635"><ele>711.0</ele><time>2026-03-07T11:00:55.988Z</time></trkpt><trkpt lat="36.8558919" lon="-3.5440644"><ele>706.0</ele><time>2026-03-07T11:00:57.012Z</time></trkpt><trkpt lat="36.8557541" lon="-3.5441456"><ele>701.0</ele><time>2026-03-07T11:00:57.999Z</time></trkpt><trkpt lat="36.8556169" lon="-3.5441978"><ele>696.0</ele><time>2026-03-07T11:00:58.996Z</time></trkpt><trkpt lat="36.8554762" lon="-3.5442605"><ele>691.0</ele><time>2026-03-07T11:01:00.001Z</time></trkpt><trkpt lat="36.8553392" lon="-3.5443426"><ele>691.0</ele><time>2026-03-07T11:01:00.993Z</time></trkpt><trkpt lat="36.8552189" lon="-3.544474"><ele>691.0</ele><time>2026-03-07T11:01:01.993Z</time></trkpt><trkpt lat="36.8551077" lon="-3.5446358"><ele>691.0</ele><time>2026-03-07T11:01:02.989Z</time></trkpt><trkpt lat="36.8549986" lon="-3.5447985"><ele>689.75</ele><time>2026-03-07T11:01:04.001Z</time></trkpt><trkpt lat="36.8549084" lon="-3.5449483"><ele>688.5</ele><time>2026-03-07T11:01:04.998Z</time></trkpt><trkpt lat="36.8547987" lon="-3.5450541"><ele>687.25</ele><time>2026-03-07T11:01:05.972Z</time></trkpt><trkpt lat="36.8546767" lon="-3.5451428"><ele>686.0</ele><time>2026-03-07T11:01:06.986Z</time></trkpt><trkpt lat="36.8545354" lon="-3.5452134"><ele>686.0</ele><time>2026-03-07T11:01:08Z</time></trkpt><trkpt lat="36.8543768" lon="-3.545258"><ele>686.0</ele><time>2026-03-07T11:01:08.981Z</time></trkpt><trkpt lat="36.8542075" lon="-3.5452869"><ele>686.0</ele><time>2026-03-07T11:01:09.981Z</time></trkpt><trkpt lat="36.8540575" lon="-3.5453129"><ele>686.75</ele><time>2026-03-07T11:01:10.996Z</time></trkpt><trkpt lat="36.8539204" lon="-3.5453313"><ele>687.5</ele><time>2026-03-07T11:01:12Z</time></trkpt><trkpt lat="36.8538039" lon="-3.5453601"><ele>688.25</ele><time>2026-03-07T11:01:12.987Z</time></trkpt><trkpt lat="36.8537002" lon="-3.5453917"><ele>689.0</ele><time>2026-03-07T11:01:13.991Z</time></trkpt><trkpt lat="36.8536067" lon="-3.5454746"><ele>689.0</ele><time>2026-03-07T11:01:14.98Z</time></trkpt><trkpt lat="36.8535258" lon="-3.5455936"><ele>689.0</ele><time>2026-03-07T11:01:15.992Z</time></trkpt><trkpt lat="36.8534507" lon="-3.5457408"><ele>689.0</ele><time>2026-03-07T11:01:16.973Z</time></trkpt><trkpt lat="36.8533757" lon="-3.5459229"><ele>689.0</ele><time>2026-03-07T11:01:17.991Z</time></trkpt><trkpt lat="36.8532983" lon="-3.5461207"><ele>684.3333333333333</ele><time>2026-03-07T11:01:18.987Z</time></trkpt><trkpt lat="36.8532026" lon="-3.5463219"><ele>679.6666666666666</ele><time>2026-03-07T11:01:19.984Z</time></trkpt><trkpt lat="36.8530836" lon="-3.5465075"><ele>675.0</ele><time>2026-03-07T11:01:20.993Z</time></trkpt><trkpt lat="36.8529669" lon="-3.5466895"><ele>675.0</ele><time>2026-03-07T11:01:21.994Z</time></trkpt><trkpt lat="36.8528554" lon="-3.54686"><ele>675.0</ele><time>2026-03-07T11:01:22.982Z</time></trkpt><trkpt lat="36.8527444" lon="-3.5470276"><ele>675.0</ele><time>2026-03-07T11:01:23.998Z</time></trkpt><trkpt lat="36.8526367" lon="-3.5471673"><ele>668.6666666666666</ele><time>2026-03-07T11:01:24.985Z</time></trkpt><trkpt lat="36.852531" lon="-3.5472869"><ele>662.3333333333333</ele><time>2026-03-07T11:01:25.986Z</time></trkpt><trkpt lat="36.8523925" lon="-3.5473663"><ele>656.0</ele><time>2026-03-07T11:01:26.994Z</time></trkpt><trkpt lat="36.8522411" lon="-3.5474144"><ele>656.0</ele><time>2026-03-07T11:01:27.989Z</time></trkpt><trkpt lat="36.8521031" lon="-3.5474544"><ele>656.0</ele><time>2026-03-07T11:01:28.992Z</time></trkpt><trkpt lat="36.8519846" lon="-3.5474886"><ele>656.0</ele><time>2026-03-07T11:01:29.986Z</time></trkpt><trkpt lat="36.8518937" lon="-3.5475673"><ele>656.0</ele><time>2026-03-07T11:01:30.997Z</time></trkpt><trkpt lat="36.8518075" lon="-3.547662"><ele>653.25</ele><time>2026-03-07T11:01:31.97Z</time></trkpt><trkpt lat="36.8517497" lon="-3.5478157"><ele>650.5</ele><time>2026-03-07T11:01:32.998Z</time></trkpt><trkpt lat="36.8517125" lon="-3.548"><ele>647.75</ele><time>2026-03-07T11:01:33.985Z</time></trkpt><trkpt lat="36.8516759" lon="-3.5481812"><ele>645.0</ele><time>2026-03-07T11:01:34.999Z</time></trkpt><trkpt lat="36.8516156" lon="-3.5483554"><ele>645.0</ele><time>2026-03-07T11:01:35.981Z</time></trkpt><trkpt lat="36.8515085" lon="-3.5485137"><ele>645.0</ele><time>2026-03-07T11:01:36.988Z</time></trkpt><trkpt lat="36.8513863" lon="-3.5486512"><ele>645.0</ele><time>2026-03-07T11:01:37.995Z</time></trkpt><trkpt lat="36.8512542" lon="-3.548789"><ele>642.0</ele><time>2026-03-07T11:01:39.013Z</time></trkpt><trkpt lat="36.8511322" lon="-3.5489393"><ele>639.0</ele><time>2026-03-07T11:01:39.998Z</time></trkpt><trkpt lat="36.8510268" lon="-3.5490932"><ele>636.0</ele><time>2026-03-07T11:01:40.988Z</time></trkpt><trkpt lat="36.8509306" lon="-3.549249"><ele>636.0</ele><time>2026-03-07T11:01:41.994Z</time></trkpt><trkpt lat="36.850833" lon="-3.549397"><ele>636.0</ele><time>2026-03-07T11:01:42.986Z</time></trkpt><trkpt lat="36.8507399" lon="-3.5495388"><ele>636.0</ele><time>2026-03-07T11:01:43.989Z</time></trkpt><trkpt lat="36.8506454" lon="-3.5496859"><ele>638.5</ele><time>2026-03-07T11:01:44.997Z</time></trkpt><trkpt lat="36.8505612" lon="-3.5498319"><ele>641.0</ele><time>2026-03-07T11:01:46.002Z</time></trkpt><trkpt lat="36.8504843" lon="-3.549972"><ele>643.5</ele><time>2026-03-07T11:01:46.993Z</time></trkpt><trkpt lat="36.850421" lon="-3.5501156"><ele>646.0</ele><time>2026-03-07T11:01:47.996Z</time></trkpt><trkpt lat="36.8503897" lon="-3.5502951"><ele>644.25</ele><time>2026-03-07T11:01:49Z</time></trkpt><trkpt lat="36.8503893" lon="-3.5504904"><ele>642.5</ele><time>2026-03-07T11:01:50Z</time></trkpt><trkpt lat="36.8504072" lon="-3.5506739"><ele>640.75</ele><time>2026-03-07T11:01:51.002Z</time></trkpt><trkpt lat="36.8504462" lon="-3.5508361"><ele>639.0</ele><time>2026-03-07T11:01:51.994Z</time></trkpt><trkpt lat="36.850519" lon="-3.5509785"><ele>639.0</ele><time>2026-03-07T11:01:53.004Z</time></trkpt><trkpt lat="36.8506342" lon="-3.5510914"><ele>639.0</ele><time>2026-03-07T11:01:53.994Z</time></trkpt><trkpt lat="36.8507658" lon="-3.5511902"><ele>639.0</ele><time>2026-03-07T11:01:54.998Z</time></trkpt><trkpt lat="36.8508978" lon="-3.5513008"><ele>642.0</ele><time>2026-03-07T11:01:55.996Z</time></trkpt><trkpt lat="36.8510107" lon="-3.551425"><ele>645.0</ele><time>2026-03-07T11:01:56.976Z</time></trkpt><trkpt lat="36.8511075" lon="-3.5515752"><ele>648.0</ele><time>2026-03-07T11:01:57.999Z</time></trkpt><trkpt lat="36.8511779" lon="-3.5517704"><ele>648.0</ele><time>2026-03-07T11:01:59.007Z</time></trkpt><trkpt lat="36.8512303" lon="-3.5519602"><ele>648.0</ele><time>2026-03-07T11:02:00.002Z</time></trkpt><trkpt lat="36.8512955" lon="-3.5521635"><ele>648.0</ele><time>2026-03-07T11:02:00.993Z</time></trkpt><trkpt lat="36.8513761" lon="-3.5523597"><ele>642.0</ele><time>2026-03-07T11:02:02.1Z</time></trkpt><trkpt lat="36.851532" lon="-3.5526971"><ele>636.0</ele><time>2026-03-07T11:02:03.987Z</time></trkpt><trkpt lat="36.8515772" lon="-3.5528721"><ele>634.0</ele><time>2026-03-07T11:02:04.997Z</time></trkpt><trkpt lat="36.8515835" lon="-3.55307"><ele>632.0</ele><time>2026-03-07T11:02:05.997Z</time></trkpt><trkpt lat="36.8515665" lon="-3.5532813"><ele>630.0</ele><time>2026-03-07T11:02:06.988Z</time></trkpt><trkpt lat="36.8515439" lon="-3.5534712"><ele>630.0</ele><time>2026-03-07T11:02:07.994Z</time></trkpt><trkpt lat="36.8515026" lon="-3.5536523"><ele>630.0</ele><time>2026-03-07T11:02:09.002Z</time></trkpt><trkpt lat="36.8514221" lon="-3.5538257"><ele>630.0</ele><time>2026-03-07T11:02:09.998Z</time></trkpt><trkpt lat="36.8513209" lon="-3.5539816"><ele>629.25</ele><time>2026-03-07T11:02:10.979Z</time></trkpt><trkpt lat="36.8512083" lon="-3.5541029"><ele>628.5</ele><time>2026-03-07T11:02:11.985Z</time></trkpt><trkpt lat="36.8511143" lon="-3.5542015"><ele>627.75</ele><time>2026-03-07T11:02:12.978Z</time></trkpt><trkpt lat="36.8510446" lon="-3.5543001"><ele>627.0</ele><time>2026-03-07T11:02:13.988Z</time></trkpt><trkpt lat="36.8509945" lon="-3.5544113"><ele>627.0</ele><time>2026-03-07T11:02:14.985Z</time></trkpt><trkpt lat="36.8509833" lon="-3.5545316"><ele>627.0</ele><time>2026-03-07T11:02:15.994Z</time></trkpt><trkpt lat="36.8510171" lon="-3.5546523"><ele>627.0</ele><time>2026-03-07T11:02:16.999Z</time></trkpt><trkpt lat="36.8510714" lon="-3.5547607"><ele>627.0</ele><time>2026-03-07T11:02:17.994Z</time></trkpt><trkpt lat="36.8511709" lon="-3.5548383"><ele>627.0</ele><time>2026-03-07T11:02:18.982Z</time></trkpt><trkpt lat="36.8512947" lon="-3.5549048"><ele>619.6666666666666</ele><time>2026-03-07T11:02:19.99Z</time></trkpt><trkpt lat="36.8514296" lon="-3.5549775"><ele>612.3333333333333</ele><time>2026-03-07T11:02:20.993Z</time></trkpt><trkpt lat="36.8515734" lon="-3.555049"><ele>605.0</ele><time>2026-03-07T11:02:21.996Z</time></trkpt><trkpt lat="36.8517232" lon="-3.5551098"><ele>606.75</ele><time>2026-03-07T11:02:22.998Z</time></trkpt><trkpt lat="36.8518673" lon="-3.5551539"><ele>608.5</ele><time>2026-03-07T11:02:23.993Z</time></trkpt><trkpt lat="36.8519994" lon="-3.555189"><ele>610.25</ele><time>2026-03-07T11:02:24.99Z</time></trkpt><trkpt lat="36.8521211" lon="-3.5552266"><ele>612.0</ele><time>2026-03-07T11:02:25.994Z</time></trkpt><trkpt lat="36.8522251" lon="-3.5552857"><ele>613.25</ele><time>2026-03-07T11:02:26.993Z</time></trkpt><trkpt lat="36.8523008" lon="-3.5553753"><ele>614.5</ele><time>2026-03-07T11:02:28.02Z</time></trkpt><trkpt lat="36.8523452" lon="-3.5554981"><ele>615.75</ele><time>2026-03-07T11:02:28.998Z</time></trkpt><trkpt lat="36.8523685" lon="-3.5556454"><ele>617.0</ele><time>2026-03-07T11:02:29.994Z</time></trkpt><trkpt lat="36.8523407" lon="-3.5557987"><ele>617.0</ele><time>2026-03-07T11:02:30.989Z</time></trkpt><trkpt lat="36.8522818" lon="-3.5559527"><ele>617.0</ele><time>2026-03-07T11:02:31.987Z</time></trkpt><trkpt lat="36.852176" lon="-3.5561009"><ele>617.0</ele><time>2026-03-07T11:02:32.991Z</time></trkpt><trkpt lat="36.8520468" lon="-3.5562202"><ele>614.6666666666666</ele><time>2026-03-07T11:02:34Z</time></trkpt><trkpt lat="36.8518952" lon="-3.5562915"><ele>612.3333333333334</ele><time>2026-03-07T11:02:35.01Z</time></trkpt><trkpt lat="36.851742" lon="-3.5563485"><ele>610.0</ele><time>2026-03-07T11:02:35.989Z</time></trkpt><trkpt lat="36.8515815" lon="-3.5564005"><ele>610.0</ele><time>2026-03-07T11:02:36.994Z</time></trkpt><trkpt lat="36.8514171" lon="-3.5564705"><ele>610.0</ele><time>2026-03-07T11:02:37.982Z</time></trkpt><trkpt lat="36.8512605" lon="-3.5565958"><ele>610.0</ele><time>2026-03-07T11:02:38.988Z</time></trkpt><trkpt lat="36.8511104" lon="-3.5567162"><ele>610.0</ele><time>2026-03-07T11:02:39.998Z</time></trkpt><trkpt lat="36.8509658" lon="-3.5568384"><ele>610.0</ele><time>2026-03-07T11:02:41Z</time></trkpt><trkpt lat="36.8508466" lon="-3.5569515"><ele>610.0</ele><time>2026-03-07T11:02:41.998Z</time></trkpt><trkpt lat="36.8507569" lon="-3.5570579"><ele>610.0</ele><time>2026-03-07T11:02:42.981Z</time></trkpt><trkpt lat="36.8506861" lon="-3.5571818"><ele>603.75</ele><time>2026-03-07T11:02:44.007Z</time></trkpt><trkpt lat="36.8506427" lon="-3.5573271"><ele>597.5</ele><time>2026-03-07T11:02:44.984Z</time></trkpt><trkpt lat="36.8506288" lon="-3.5574793"><ele>591.25</ele><time>2026-03-07T11:02:45.971Z</time></trkpt><trkpt lat="36.8506348" lon="-3.5576347"><ele>585.0</ele><time>2026-03-07T11:02:46.984Z</time></trkpt><trkpt lat="36.8506572" lon="-3.5578017"><ele>585.5</ele><time>2026-03-07T11:02:47.966Z</time></trkpt><trkpt lat="36.8507172" lon="-3.557972"><ele>586.0</ele><time>2026-03-07T11:02:48.991Z</time></trkpt><trkpt lat="36.8507858" lon="-3.5581314"><ele>586.5</ele><time>2026-03-07T11:02:50.011Z</time></trkpt><trkpt lat="36.8508429" lon="-3.5582811"><ele>587.0</ele><time>2026-03-07T11:02:50.972Z</time></trkpt><trkpt lat="36.8508663" lon="-3.5584228"><ele>587.0</ele><time>2026-03-07T11:02:51.999Z</time></trkpt><trkpt lat="36.85086" lon="-3.5585513"><ele>587.0</ele><time>2026-03-07T11:02:52.983Z</time></trkpt><trkpt lat="36.8508216" lon="-3.5586555"><ele>587.0</ele><time>2026-03-07T11:02:53.984Z</time></trkpt><trkpt lat="36.8507499" lon="-3.5587313"><ele>587.0</ele><time>2026-03-07T11:02:54.992Z</time></trkpt><trkpt lat="36.8506524" lon="-3.5587474"><ele>587.0</ele><time>2026-03-07T11:02:56Z</time></trkpt><trkpt lat="36.8505414" lon="-3.5587188"><ele>587.0</ele><time>2026-03-07T11:02:56.991Z</time></trkpt><trkpt lat="36.8504441" lon="-3.5586184"><ele>587.0</ele><time>2026-03-07T11:02:57.993Z</time></trkpt><trkpt lat="36.8503555" lon="-3.5584655"><ele>587.0</ele><time>2026-03-07T11:02:58.985Z</time></trkpt><trkpt lat="36.8502568" lon="-3.5583328"><ele>587.0</ele><time>2026-03-07T11:02:59.983Z</time></trkpt><trkpt lat="36.8501346" lon="-3.5582224"><ele>583.6666666666666</ele><time>2026-03-07T11:03:00.984Z</time></trkpt><trkpt lat="36.8499957" lon="-3.5581155"><ele>580.3333333333334</ele><time>2026-03-07T11:03:01.976Z</time></trkpt><trkpt lat="36.8498673" lon="-3.5580212"><ele>577.0</ele><time>2026-03-07T11:03:02.999Z</time></trkpt><trkpt lat="36.8497442" lon="-3.5579432"><ele>577.0</ele><time>2026-03-07T11:03:03.997Z</time></trkpt><trkpt lat="36.8496382" lon="-3.5578895"><ele>577.0</ele><time>2026-03-07T11:03:04.985Z</time></trkpt><trkpt lat="36.8495395" lon="-3.5578791"><ele>577.0</ele><time>2026-03-07T11:03:05.989Z</time></trkpt><trkpt lat="36.8494513" lon="-3.5579161"><ele>577.0</ele><time>2026-03-07T11:03:06.989Z</time></trkpt><trkpt lat="36.8493872" lon="-3.5579982"><ele>577.0</ele><time>2026-03-07T11:03:07.99Z</time></trkpt><trkpt lat="36.8493598" lon="-3.5581126"><ele>577.0</ele><time>2026-03-07T11:03:08.98Z</time></trkpt><trkpt lat="36.8493615" lon="-3.5582511"><ele>577.0</ele><time>2026-03-07T11:03:09.987Z</time></trkpt><trkpt lat="36.8493824" lon="-3.5584022"><ele>577.0</ele><time>2026-03-07T11:03:10.987Z</time></trkpt><trkpt lat="36.8494147" lon="-3.5585559"><ele>577.0</ele><time>2026-03-07T11:03:11.996Z</time></trkpt><trkpt lat="36.8494509" lon="-3.558705"><ele>579.0</ele><time>2026-03-07T11:03:12.996Z</time></trkpt><trkpt lat="36.8494716" lon="-3.5588454"><ele>581.0</ele><time>2026-03-07T11:03:13.985Z</time></trkpt><trkpt lat="36.8494549" lon="-3.5589863"><ele>583.0</ele><time>2026-03-07T11:03:14.991Z</time></trkpt><trkpt lat="36.8493926" lon="-3.559116"><ele>585.0</ele><time>2026-03-07T11:03:15.988Z</time></trkpt><trkpt lat="36.8492889" lon="-3.5592403"><ele>581.75</ele><time>2026-03-07T11:03:16.994Z</time></trkpt><trkpt lat="36.8491645" lon="-3.5593494"><ele>578.5</ele><time>2026-03-07T11:03:17.979Z</time></trkpt><trkpt lat="36.8490371" lon="-3.5594568"><ele>575.25</ele><time>2026-03-07T11:03:18.98Z</time></trkpt><trkpt lat="36.848923" lon="-3.5595638"><ele>572.0</ele><time>2026-03-07T11:03:19.997Z</time></trkpt><trkpt lat="36.8488082" lon="-3.5596592"><ele>572.0</ele><time>2026-03-07T11:03:20.987Z</time></trkpt><trkpt lat="36.8487" lon="-3.5597458"><ele>572.0</ele><time>2026-03-07T11:03:21.991Z</time></trkpt><trkpt lat="36.8485885" lon="-3.5598259"><ele>572.0</ele><time>2026-03-07T11:03:23.004Z</time></trkpt><trkpt lat="36.8484745" lon="-3.5598872"><ele>572.0</ele><time>2026-03-07T11:03:23.973Z</time></trkpt><trkpt lat="36.8483553" lon="-3.5599258"><ele>568.75</ele><time>2026-03-07T11:03:24.996Z</time></trkpt><trkpt lat="36.8482223" lon="-3.5599012"><ele>565.5</ele><time>2026-03-07T11:03:25.986Z</time></trkpt><trkpt lat="36.8480862" lon="-3.5598529"><ele>562.25</ele><time>2026-03-07T11:03:26.996Z</time></trkpt><trkpt lat="36.8479533" lon="-3.5598114"><ele>559.0</ele><time>2026-03-07T11:03:27.997Z</time></trkpt><trkpt lat="36.8478376" lon="-3.5597818"><ele>559.0</ele><time>2026-03-07T11:03:28.999Z</time></trkpt><trkpt lat="36.8477283" lon="-3.5597699"><ele>559.0</ele><time>2026-03-07T11:03:29.977Z</time></trkpt><trkpt lat="36.8476327" lon="-3.5597656"><ele>559.0</ele><time>2026-03-07T11:03:30.982Z</time></trkpt><trkpt lat="36.8475528" lon="-3.5598028"><ele>559.0</ele><time>2026-03-07T11:03:31.999Z</time></trkpt><trkpt lat="36.8474889" lon="-3.5598648"><ele>559.0</ele><time>2026-03-07T11:03:32.98Z</time></trkpt><trkpt lat="36.8474519" lon="-3.5599734"><ele>557.0</ele><time>2026-03-07T11:03:33.988Z</time></trkpt><trkpt lat="36.8474165" lon="-3.560096"><ele>555.0</ele><time>2026-03-07T11:03:35.005Z</time></trkpt><trkpt lat="36.8473753" lon="-3.5602261"><ele>553.0</ele><time>2026-03-07T11:03:36.032Z</time></trkpt><trkpt lat="36.8473378" lon="-3.5603385"><ele>551.0</ele><time>2026-03-07T11:03:36.992Z</time></trkpt><trkpt lat="36.8473006" lon="-3.5604486"><ele>549.0</ele><time>2026-03-07T11:03:37.979Z</time></trkpt><trkpt lat="36.8472652" lon="-3.5605434"><ele>549.0</ele><time>2026-03-07T11:03:38.998Z</time></trkpt><trkpt lat="36.8472314" lon="-3.5606235"><ele>549.0</ele><time>2026-03-07T11:03:40Z</time></trkpt><trkpt lat="36.8472072" lon="-3.5606972"><ele>549.0</ele><time>2026-03-07T11:03:40.976Z</time></trkpt><trkpt lat="36.8470802" lon="-3.56083"><ele>549.0</ele><time>2026-03-07T11:03:42.999Z</time></trkpt><trkpt lat="36.8469935" lon="-3.5607952"><ele>549.0</ele><time>2026-03-07T11:03:44.003Z</time></trkpt><trkpt lat="36.8468291" lon="-3.560707"><ele>547.6666666666666</ele><time>2026-03-07T11:03:44.987Z</time></trkpt><trkpt lat="36.8466475" lon="-3.5606614"><ele>546.3333333333333</ele><time>2026-03-07T11:03:45.998Z</time></trkpt><trkpt lat="36.8464866" lon="-3.5606729"><ele>545.0</ele><time>2026-03-07T11:03:46.997Z</time></trkpt><trkpt lat="36.8463613" lon="-3.5607321"><ele>545.0</ele><time>2026-03-07T11:03:48.008Z</time></trkpt><trkpt lat="36.8462342" lon="-3.5608117"><ele>545.0</ele><time>2026-03-07T11:03:49.035Z</time></trkpt><trkpt lat="36.8461456" lon="-3.5609351"><ele>545.0</ele><time>2026-03-07T11:03:49.986Z</time></trkpt><trkpt lat="36.8460728" lon="-3.5610771"><ele>545.0</ele><time>2026-03-07T11:03:50.988Z</time></trkpt><trkpt lat="36.8460051" lon="-3.5612299"><ele>541.25</ele><time>2026-03-07T11:03:52.022Z</time></trkpt><trkpt lat="36.8459367" lon="-3.5613874"><ele>537.5</ele><time>2026-03-07T11:03:53.003Z</time></trkpt><trkpt lat="36.8458784" lon="-3.5615337"><ele>533.75</ele><time>2026-03-07T11:03:53.989Z</time></trkpt><trkpt lat="36.8458161" lon="-3.5616659"><ele>530.0</ele><time>2026-03-07T11:03:54.989Z</time></trkpt><trkpt lat="36.8457423" lon="-3.5617672"><ele>530.0</ele><time>2026-03-07T11:03:56.015Z</time></trkpt><trkpt lat="36.8456564" lon="-3.5618594"><ele>530.0</ele><time>2026-03-07T11:03:56.991Z</time></trkpt><trkpt lat="36.8455593" lon="-3.5619283"><ele>530.0</ele><time>2026-03-07T11:03:58.001Z</time></trkpt><trkpt lat="36.845474" lon="-3.562016"><ele>530.0</ele><time>2026-03-07T11:03:59.006Z</time></trkpt><trkpt lat="36.8453999" lon="-3.5621116"><ele>530.0</ele><time>2026-03-07T11:04:00.066Z</time></trkpt><trkpt lat="36.845335" lon="-3.5622266"><ele>530.2</ele><time>2026-03-07T11:04:01.018Z</time></trkpt><trkpt lat="36.8452886" lon="-3.562348"><ele>530.4</ele><time>2026-03-07T11:04:02.018Z</time></trkpt><trkpt lat="36.8452532" lon="-3.5624622"><ele>530.6</ele><time>2026-03-07T11:04:03.035Z</time></trkpt><trkpt lat="36.8452199" lon="-3.5625565"><ele>530.8</ele><time>2026-03-07T11:04:03.993Z</time></trkpt><trkpt lat="36.845189" lon="-3.5626372"><ele>531.0</ele><time>2026-03-07T11:04:05.01Z</time></trkpt><trkpt lat="36.8451289" lon="-3.5627598"><ele>531.0</ele><time>2026-03-07T11:04:06.996Z</time></trkpt><trkpt lat="36.8450614" lon="-3.5628618"><ele>531.0</ele><time>2026-03-07T11:04:09.005Z</time></trkpt><trkpt lat="36.8449026" lon="-3.5629176"><ele>531.0</ele><time>2026-03-07T11:04:11.994Z</time></trkpt><trkpt lat="36.8448024" lon="-3.562884"><ele>531.0</ele><time>2026-03-07T11:04:13.994Z</time></trkpt><trkpt lat="36.8447535" lon="-3.5628012"><ele>528.0</ele><time>2026-03-07T11:04:15.992Z</time></trkpt><trkpt lat="36.8446965" lon="-3.5627294"><ele>525.0</ele><time>2026-03-07T11:04:18.982Z</time></trkpt><trkpt lat="36.8446297" lon="-3.5626669"><ele>522.0</ele><time>2026-03-07T11:04:20.996Z</time></trkpt><trkpt lat="36.8445646" lon="-3.562605"><ele>519.0</ele><time>2026-03-07T11:04:22.996Z</time></trkpt><trkpt lat="36.8445055" lon="-3.5625492"><ele>516.0</ele><time>2026-03-07T11:04:24.996Z</time></trkpt><trkpt lat="36.8444369" lon="-3.5624702"><ele>513.0</ele><time>2026-03-07T11:04:27.007Z</time></trkpt><trkpt lat="36.8443567" lon="-3.5623834"><ele>510.2</ele><time>2026-03-07T11:04:28.995Z</time></trkpt><trkpt lat="36.8442695" lon="-3.5622739"><ele>507.4</ele><time>2026-03-07T11:04:30.985Z</time></trkpt><trkpt lat="36.8441872" lon="-3.5621952"><ele>504.59999999999997</ele><time>2026-03-07T11:04:33.05Z</time></trkpt><trkpt lat="36.8441145" lon="-3.5621778"><ele>501.79999999999995</ele><time>2026-03-07T11:04:34.997Z</time></trkpt><trkpt lat="36.8440494" lon="-3.562169"><ele>499.0</ele><time>2026-03-07T11:04:37.015Z</time></trkpt><trkpt lat="36.8439978" lon="-3.5620277"><ele>499.00000000000006</ele><time>2026-03-07T11:04:52.013Z</time></trkpt><trkpt lat="36.8440912" lon="-3.5620009"><ele>499.0</ele><time>2026-03-07T11:04:56.02Z</time></trkpt><trkpt lat="36.8441477" lon="-3.5619597"><ele>499.0</ele><time>2026-03-07T11:04:59.001Z</time></trkpt><trkpt lat="36.8442116" lon="-3.5619491"><ele>499.0</ele><time>2026-03-07T11:05:03.03Z</time></trkpt><trkpt lat="36.8441737" lon="-3.5620148"><ele>499.00000000000006</ele><time>2026-03-07T11:05:11.013Z</time></trkpt><trkpt lat="36.8440907" lon="-3.5620956"><ele>499.0</ele><time>2026-03-07T11:05:15.006Z</time></trkpt><trkpt lat="36.8440451" lon="-3.5621642"><ele>499.0</ele><time>2026-03-07T11:05:16.978Z</time></trkpt><trkpt lat="36.8440986" lon="-3.5622159"><ele>499.0</ele><time>2026-03-07T11:05:20.109Z</time></trkpt><trkpt lat="36.8441959" lon="-3.5621755"><ele>499.0</ele><time>2026-03-07T11:05:22.989Z</time></trkpt><trkpt lat="36.844308" lon="-3.5621863"><ele>499.0</ele><time>2026-03-07T11:05:25.015Z</time></trkpt><trkpt lat="36.8444" lon="-3.5622826"><ele>499.0</ele><time>2026-03-07T11:05:27.041Z</time></trkpt><trkpt lat="36.8444825" lon="-3.5623991"><ele>501.33333333333337</ele><time>2026-03-07T11:05:29.006Z</time></trkpt><trkpt lat="36.8445276" lon="-3.5624608"><ele>503.6666666666667</ele><time>2026-03-07T11:05:29.997Z</time></trkpt><trkpt lat="36.844581" lon="-3.5625237"><ele>506.0</ele><time>2026-03-07T11:05:30.98Z</time></trkpt><trkpt lat="36.8446457" lon="-3.5625873"><ele>508.33333333333337</ele><time>2026-03-07T11:05:31.996Z</time></trkpt><trkpt lat="36.8447095" lon="-3.5626331"><ele>510.6666666666667</ele><time>2026-03-07T11:05:32.996Z</time></trkpt><trkpt lat="36.8447898" lon="-3.5627056"><ele>513.0</ele><time>2026-03-07T11:05:34.998Z</time></trkpt><trkpt lat="36.8448028" lon="-3.5627934"><ele>513.0</ele><time>2026-03-07T11:05:37Z</time></trkpt><trkpt lat="36.8447307" lon="-3.5628564"><ele>513.0</ele><time>2026-03-07T11:05:39.001Z</time></trkpt><trkpt lat="36.8445999" lon="-3.5629007"><ele>513.0</ele><time>2026-03-07T11:05:40.984Z</time></trkpt><trkpt lat="36.8445057" lon="-3.5629197"><ele>513.0</ele><time>2026-03-07T11:05:41.997Z</time></trkpt><trkpt lat="36.8444029" lon="-3.5629568"><ele>513.0</ele><time>2026-03-07T11:05:42.977Z</time></trkpt><trkpt lat="36.8443045" lon="-3.5630321"><ele>516.25</ele><time>2026-03-07T11:05:43.99Z</time></trkpt><trkpt lat="36.8442095" lon="-3.5631132"><ele>519.5</ele><time>2026-03-07T11:05:45.005Z</time></trkpt><trkpt lat="36.8441067" lon="-3.5631744"><ele>522.75</ele><time>2026-03-07T11:05:46.003Z</time></trkpt><trkpt lat="36.8439762" lon="-3.5631951"><ele>526.0</ele><time>2026-03-07T11:05:46.975Z</time></trkpt><trkpt lat="36.8438329" lon="-3.5631889"><ele>526.0</ele><time>2026-03-07T11:05:47.991Z</time></trkpt><trkpt lat="36.8436816" lon="-3.5631967"><ele>526.0</ele><time>2026-03-07T11:05:48.983Z</time></trkpt><trkpt lat="36.8435409" lon="-3.5632104"><ele>526.0</ele><time>2026-03-07T11:05:49.984Z</time></trkpt><trkpt lat="36.8433849" lon="-3.563241"><ele>524.75</ele><time>2026-03-07T11:05:50.989Z</time></trkpt><trkpt lat="36.8432381" lon="-3.5632746"><ele>523.5</ele><time>2026-03-07T11:05:51.986Z</time></trkpt><trkpt lat="36.8430976" lon="-3.5633012"><ele>522.25</ele><time>2026-03-07T11:05:52.98Z</time></trkpt><trkpt lat="36.8429561" lon="-3.5633193"><ele>521.0</ele><time>2026-03-07T11:05:53.989Z</time></trkpt><trkpt lat="36.8428076" lon="-3.5633059"><ele>521.0</ele><time>2026-03-07T11:05:54.988Z</time></trkpt><trkpt lat="36.8426577" lon="-3.5632552"><ele>521.0</ele><time>2026-03-07T11:05:55.988Z</time></trkpt><trkpt lat="36.8425129" lon="-3.5632095"><ele>521.0</ele><time>2026-03-07T11:05:56.989Z</time></trkpt><trkpt lat="36.8423808" lon="-3.5631673"><ele>521.0</ele><time>2026-03-07T11:05:57.996Z</time></trkpt><trkpt lat="36.8422581" lon="-3.5631558"><ele>519.5</ele><time>2026-03-07T11:05:58.998Z</time></trkpt><trkpt lat="36.8421461" lon="-3.5632002"><ele>518.0</ele><time>2026-03-07T11:05:59.981Z</time></trkpt><trkpt lat="36.8420285" lon="-3.563275"><ele>516.5</ele><time>2026-03-07T11:06:00.99Z</time></trkpt><trkpt lat="36.841905" lon="-3.5633556"><ele>515.0</ele><time>2026-03-07T11:06:02.012Z</time></trkpt><trkpt lat="36.8417738" lon="-3.5634435"><ele>510.25</ele><time>2026-03-07T11:06:02.985Z</time></trkpt><trkpt lat="36.8416363" lon="-3.5634995"><ele>505.5</ele><time>2026-03-07T11:06:04.005Z</time></trkpt><trkpt lat="36.8415116" lon="-3.5635362"><ele>500.75</ele><time>2026-03-07T11:06:04.997Z</time></trkpt><trkpt lat="36.8414075" lon="-3.5635786"><ele>496.0</ele><time>2026-03-07T11:06:05.984Z</time></trkpt><trkpt lat="36.8413123" lon="-3.5636381"><ele>494.25</ele><time>2026-03-07T11:06:06.986Z</time></trkpt><trkpt lat="36.8412214" lon="-3.5637293"><ele>492.5</ele><time>2026-03-07T11:06:07.991Z</time></trkpt><trkpt lat="36.8411325" lon="-3.5638377"><ele>490.75</ele><time>2026-03-07T11:06:08.991Z</time></trkpt><trkpt lat="36.8410336" lon="-3.5639742"><ele>489.0</ele><time>2026-03-07T11:06:10.034Z</time></trkpt><trkpt lat="36.8409181" lon="-3.5641001"><ele>489.0</ele><time>2026-03-07T11:06:10.988Z</time></trkpt><trkpt lat="36.8408004" lon="-3.5642055"><ele>489.0</ele><time>2026-03-07T11:06:12.012Z</time></trkpt><trkpt lat="36.840692" lon="-3.5643048"><ele>489.0</ele><time>2026-03-07T11:06:12.998Z</time></trkpt><trkpt lat="36.8405928" lon="-3.5643893"><ele>489.0</ele><time>2026-03-07T11:06:13.986Z</time></trkpt><trkpt lat="36.8404832" lon="-3.5644403"><ele>489.0</ele><time>2026-03-07T11:06:14.981Z</time></trkpt><trkpt lat="36.8403755" lon="-3.5644805"><ele>489.0</ele><time>2026-03-07T11:06:15.99Z</time></trkpt><trkpt lat="36.840256" lon="-3.5644575"><ele>489.0</ele><time>2026-03-07T11:06:16.991Z</time></trkpt><trkpt lat="36.8401372" lon="-3.5644086"><ele>489.0</ele><time>2026-03-07T11:06:17.995Z</time></trkpt><trkpt lat="36.8400313" lon="-3.5643654"><ele>487.3333333333333</ele><time>2026-03-07T11:06:19.003Z</time></trkpt><trkpt lat="36.839933" lon="-3.5643464"><ele>485.66666666666663</ele><time>2026-03-07T11:06:19.994Z</time></trkpt><trkpt lat="36.8398544" lon="-3.5643786"><ele>484.0</ele><time>2026-03-07T11:06:20.997Z</time></trkpt><trkpt lat="36.8397844" lon="-3.5644269"><ele>482.3333333333333</ele><time>2026-03-07T11:06:21.986Z</time></trkpt><trkpt lat="36.839748" lon="-3.564522"><ele>480.66666666666663</ele><time>2026-03-07T11:06:22.989Z</time></trkpt><trkpt lat="36.8397413" lon="-3.5646429"><ele>479.0</ele><time>2026-03-07T11:06:24Z</time></trkpt><trkpt lat="36.8397659" lon="-3.5647734"><ele>479.0</ele><time>2026-03-07T11:06:24.995Z</time></trkpt><trkpt lat="36.8398067" lon="-3.5649185"><ele>479.0</ele><time>2026-03-07T11:06:25.987Z</time></trkpt><trkpt lat="36.8398565" lon="-3.5650695"><ele>479.0</ele><time>2026-03-07T11:06:26.986Z</time></trkpt><trkpt lat="36.8399122" lon="-3.5652173"><ele>479.0</ele><time>2026-03-07T11:06:27.988Z</time></trkpt><trkpt lat="36.8399618" lon="-3.5653635"><ele>477.5</ele><time>2026-03-07T11:06:29.053Z</time></trkpt><trkpt lat="36.8399978" lon="-3.5654967"><ele>476.0</ele><time>2026-03-07T11:06:29.99Z</time></trkpt><trkpt lat="36.840003" lon="-3.5656346"><ele>474.5</ele><time>2026-03-07T11:06:31.014Z</time></trkpt><trkpt lat="36.8399849" lon="-3.5657851"><ele>473.0</ele><time>2026-03-07T11:06:32.006Z</time></trkpt><trkpt lat="36.8399502" lon="-3.5659545"><ele>473.0</ele><time>2026-03-07T11:06:32.981Z</time></trkpt><trkpt lat="36.8398789" lon="-3.5661309"><ele>473.0</ele><time>2026-03-07T11:06:33.987Z</time></trkpt><trkpt lat="36.8398108" lon="-3.5663243"><ele>473.0</ele><time>2026-03-07T11:06:34.997Z</time></trkpt><trkpt lat="36.8397428" lon="-3.5665225"><ele>472.0</ele><time>2026-03-07T11:06:35.99Z</time></trkpt><trkpt lat="36.8396761" lon="-3.5667192"><ele>471.0</ele><time>2026-03-07T11:06:37.024Z</time></trkpt><trkpt lat="36.8396146" lon="-3.5669101"><ele>470.0</ele><time>2026-03-07T11:06:37.986Z</time></trkpt><trkpt lat="36.8395513" lon="-3.5670935"><ele>467.25</ele><time>2026-03-07T11:06:38.992Z</time></trkpt><trkpt lat="36.8394935" lon="-3.56726"><ele>464.5</ele><time>2026-03-07T11:06:39.987Z</time></trkpt><trkpt lat="36.8394486" lon="-3.5674246"><ele>461.75</ele><time>2026-03-07T11:06:40.986Z</time></trkpt><trkpt lat="36.8394222" lon="-3.5675884"><ele>459.0</ele><time>2026-03-07T11:06:41.993Z</time></trkpt><trkpt lat="36.8394263" lon="-3.5677531"><ele>456.25</ele><time>2026-03-07T11:06:42.983Z</time></trkpt><trkpt lat="36.8394581" lon="-3.5679072"><ele>453.5</ele><time>2026-03-07T11:06:43.978Z</time></trkpt><trkpt lat="36.8395102" lon="-3.5680404"><ele>450.75</ele><time>2026-03-07T11:06:44.986Z</time></trkpt><trkpt lat="36.8396029" lon="-3.5681373"><ele>448.0</ele><time>2026-03-07T11:06:45.991Z</time></trkpt><trkpt lat="36.8397028" lon="-3.5682227"><ele>448.0</ele><time>2026-03-07T11:06:46.994Z</time></trkpt><trkpt lat="36.8398007" lon="-3.5683059"><ele>448.0</ele><time>2026-03-07T11:06:47.99Z</time></trkpt><trkpt lat="36.8398998" lon="-3.5683874"><ele>448.0</ele><time>2026-03-07T11:06:48.984Z</time></trkpt><trkpt lat="36.8399974" lon="-3.5684739"><ele>448.0</ele><time>2026-03-07T11:06:50.009Z</time></trkpt><trkpt lat="36.8400886" lon="-3.5685797"><ele>445.33333333333337</ele><time>2026-03-07T11:06:50.978Z</time></trkpt><trkpt lat="36.8401323" lon="-3.5687473"><ele>442.66666666666663</ele><time>2026-03-07T11:06:51.98Z</time></trkpt><trkpt lat="36.8401174" lon="-3.56894"><ele>440.0</ele><time>2026-03-07T11:06:52.975Z</time></trkpt><trkpt lat="36.8400955" lon="-3.5691311"><ele>440.0</ele><time>2026-03-07T11:06:53.995Z</time></trkpt><trkpt lat="36.8400755" lon="-3.5693067"><ele>440.0</ele><time>2026-03-07T11:06:54.995Z</time></trkpt><trkpt lat="36.8400549" lon="-3.569454"><ele>440.0</ele><time>2026-03-07T11:06:55.989Z</time></trkpt><trkpt lat="36.8400469" lon="-3.5696029"><ele>440.0</ele><time>2026-03-07T11:06:56.997Z</time></trkpt><trkpt lat="36.8400644" lon="-3.5697826"><ele>441.3333333333333</ele><time>2026-03-07T11:06:57.986Z</time></trkpt><trkpt lat="36.8400933" lon="-3.5699691"><ele>442.66666666666663</ele><time>2026-03-07T11:06:58.999Z</time></trkpt><trkpt lat="36.8401284" lon="-3.5701678"><ele>444.0</ele><time>2026-03-07T11:07:00.016Z</time></trkpt><trkpt lat="36.8401534" lon="-3.5703641"><ele>444.0</ele><time>2026-03-07T11:07:01Z</time></trkpt><trkpt lat="36.8401545" lon="-3.5705612"><ele>444.0</ele><time>2026-03-07T11:07:01.999Z</time></trkpt><trkpt lat="36.8401526" lon="-3.5707496"><ele>444.0</ele><time>2026-03-07T11:07:02.997Z</time></trkpt><trkpt lat="36.8401665" lon="-3.5709451"><ele>444.0</ele><time>2026-03-07T11:07:04.006Z</time></trkpt><trkpt lat="36.8402013" lon="-3.5711479"><ele>444.0</ele><time>2026-03-07T11:07:04.998Z</time></trkpt><trkpt lat="36.8402416" lon="-3.5713633"><ele>444.0</ele><time>2026-03-07T11:07:06.005Z</time></trkpt><trkpt lat="36.8402908" lon="-3.5715687"><ele>440.25</ele><time>2026-03-07T11:07:06.982Z</time></trkpt><trkpt lat="36.8403376" lon="-3.5717665"><ele>436.5</ele><time>2026-03-07T11:07:07.98Z</time></trkpt><trkpt lat="36.8403771" lon="-3.5719443"><ele>432.75</ele><time>2026-03-07T11:07:08.984Z</time></trkpt><trkpt lat="36.840411" lon="-3.5721073"><ele>429.0</ele><time>2026-03-07T11:07:09.994Z</time></trkpt><trkpt lat="36.8404409" lon="-3.5722622"><ele>424.5</ele><time>2026-03-07T11:07:11Z</time></trkpt><trkpt lat="36.8404701" lon="-3.5724026"><ele>420.0</ele><time>2026-03-07T11:07:11.982Z</time></trkpt><trkpt lat="36.8405094" lon="-3.5725347"><ele>415.5</ele><time>2026-03-07T11:07:12.98Z</time></trkpt><trkpt lat="36.8405803" lon="-3.5726643"><ele>411.0</ele><time>2026-03-07T11:07:13.984Z</time></trkpt><trkpt lat="36.8406685" lon="-3.5727796"><ele>413.0</ele><time>2026-03-07T11:07:14.982Z</time></trkpt><trkpt lat="36.8407778" lon="-3.5728628"><ele>415.0</ele><time>2026-03-07T11:07:15.983Z</time></trkpt><trkpt lat="36.8408988" lon="-3.5729141"><ele>417.0</ele><time>2026-03-07T11:07:16.996Z</time></trkpt><trkpt lat="36.841007" lon="-3.5729529"><ele>419.0</ele><time>2026-03-07T11:07:17.994Z</time></trkpt><trkpt lat="36.841098" lon="-3.5730283"><ele>419.0</ele><time>2026-03-07T11:07:18.987Z</time></trkpt><trkpt lat="36.8411633" lon="-3.573144"><ele>419.0</ele><time>2026-03-07T11:07:19.983Z</time></trkpt><trkpt lat="36.8411935" lon="-3.5732867"><ele>419.0</ele><time>2026-03-07T11:07:20.99Z</time></trkpt><trkpt lat="36.8412143" lon="-3.5734471"><ele>419.0</ele><time>2026-03-07T11:07:21.99Z</time></trkpt><trkpt lat="36.841232" lon="-3.5736223"><ele>417.0</ele><time>2026-03-07T11:07:22.98Z</time></trkpt><trkpt lat="36.8412581" lon="-3.5738139"><ele>415.0</ele><time>2026-03-07T11:07:23.988Z</time></trkpt><trkpt lat="36.8412914" lon="-3.5740182"><ele>413.0</ele><time>2026-03-07T11:07:24.98Z</time></trkpt><trkpt lat="36.8413195" lon="-3.5742159"><ele>413.0</ele><time>2026-03-07T11:07:25.998Z</time></trkpt><trkpt lat="36.8413461" lon="-3.5744022"><ele>413.0</ele><time>2026-03-07T11:07:26.993Z</time></trkpt><trkpt lat="36.8413539" lon="-3.5745844"><ele>413.0</ele><time>2026-03-07T11:07:27.995Z</time></trkpt><trkpt lat="36.8413272" lon="-3.5747678"><ele>413.0</ele><time>2026-03-07T11:07:28.998Z</time></trkpt><trkpt lat="36.8412752" lon="-3.5749499"><ele>412.66666666666663</ele><time>2026-03-07T11:07:29.987Z</time></trkpt><trkpt lat="36.8412126" lon="-3.5751339"><ele>412.33333333333337</ele><time>2026-03-07T11:07:30.992Z</time></trkpt><trkpt lat="36.8411586" lon="-3.575319"><ele>412.0</ele><time>2026-03-07T11:07:31.989Z</time></trkpt><trkpt lat="36.8411166" lon="-3.5754971"><ele>411.0</ele><time>2026-03-07T11:07:32.994Z</time></trkpt><trkpt lat="36.8410823" lon="-3.5756605"><ele>410.0</ele><time>2026-03-07T11:07:33.991Z</time></trkpt><trkpt lat="36.841051" lon="-3.5758124"><ele>409.0</ele><time>2026-03-07T11:07:34.992Z</time></trkpt><trkpt lat="36.8410163" lon="-3.5759591"><ele>408.0</ele><time>2026-03-07T11:07:35.978Z</time></trkpt><trkpt lat="36.8409821" lon="-3.5761074"><ele>397.0</ele><time>2026-03-07T11:07:36.976Z</time></trkpt><trkpt lat="36.8409522" lon="-3.5762505"><ele>386.0</ele><time>2026-03-07T11:07:37.985Z</time></trkpt><trkpt lat="36.8409251" lon="-3.5764039"><ele>375.0</ele><time>2026-03-07T11:07:38.996Z</time></trkpt><trkpt lat="36.8409143" lon="-3.5765488"><ele>364.0</ele><time>2026-03-07T11:07:39.996Z</time></trkpt><trkpt lat="36.840918" lon="-3.5766784"><ele>364.0</ele><time>2026-03-07T11:07:40.984Z</time></trkpt><trkpt lat="36.8409497" lon="-3.576827"><ele>364.0</ele><time>2026-03-07T11:07:41.988Z</time></trkpt><trkpt lat="36.8410213" lon="-3.5769655"><ele>364.0</ele><time>2026-03-07T11:07:42.986Z</time></trkpt><trkpt lat="36.841118" lon="-3.5770877"><ele>364.0</ele><time>2026-03-07T11:07:43.993Z</time></trkpt><trkpt lat="36.8412245" lon="-3.5772314"><ele>365.0</ele><time>2026-03-07T11:07:45.011Z</time></trkpt><trkpt lat="36.841329" lon="-3.5773826"><ele>366.0</ele><time>2026-03-07T11:07:46.042Z</time></trkpt><trkpt lat="36.8414311" lon="-3.5775227"><ele>367.0</ele><time>2026-03-07T11:07:47.015Z</time></trkpt><trkpt lat="36.8415303" lon="-3.5776598"><ele>367.0</ele><time>2026-03-07T11:07:48.019Z</time></trkpt><trkpt lat="36.8416263" lon="-3.5777707"><ele>367.0</ele><time>2026-03-07T11:07:49.002Z</time></trkpt><trkpt lat="36.8417263" lon="-3.5778642"><ele>367.0</ele><time>2026-03-07T11:07:50.019Z</time></trkpt><trkpt lat="36.8418307" lon="-3.5779401"><ele>367.0</ele><time>2026-03-07T11:07:51.013Z</time></trkpt><trkpt lat="36.8419417" lon="-3.5779916"><ele>370.8</ele><time>2026-03-07T11:07:51.993Z</time></trkpt><trkpt lat="36.8420483" lon="-3.578019"><ele>374.6</ele><time>2026-03-07T11:07:52.994Z</time></trkpt><trkpt lat="36.8421461" lon="-3.5780429"><ele>378.40000000000003</ele><time>2026-03-07T11:07:54.018Z</time></trkpt><trkpt lat="36.8422369" lon="-3.5780768"><ele>382.20000000000005</ele><time>2026-03-07T11:07:55.007Z</time></trkpt><trkpt lat="36.842317" lon="-3.5781365"><ele>386.0</ele><time>2026-03-07T11:07:56.005Z</time></trkpt><trkpt lat="36.842368" lon="-3.5782313"><ele>386.0</ele><time>2026-03-07T11:07:57.019Z</time></trkpt><trkpt lat="36.8423909" lon="-3.5783273"><ele>386.0</ele><time>2026-03-07T11:07:57.995Z</time></trkpt><trkpt lat="36.8423607" lon="-3.5784219"><ele>386.0</ele><time>2026-03-07T11:07:58.994Z</time></trkpt><trkpt lat="36.842292" lon="-3.5784952"><ele>386.0</ele><time>2026-03-07T11:07:59.988Z</time></trkpt><trkpt lat="36.8422078" lon="-3.5785737"><ele>386.0</ele><time>2026-03-07T11:08:01.048Z</time></trkpt><trkpt lat="36.8421156" lon="-3.578641"><ele>386.75</ele><time>2026-03-07T11:08:02.03Z</time></trkpt><trkpt lat="36.8420253" lon="-3.5787193"><ele>387.5</ele><time>2026-03-07T11:08:03.04Z</time></trkpt><trkpt lat="36.8419214" lon="-3.5788164"><ele>388.25</ele><time>2026-03-07T11:08:03.998Z</time></trkpt><trkpt lat="36.8418393" lon="-3.5789115"><ele>389.0</ele><time>2026-03-07T11:08:05.028Z</time></trkpt><trkpt lat="36.8417661" lon="-3.5790057"><ele>380.6</ele><time>2026-03-07T11:08:06.008Z</time></trkpt><trkpt lat="36.8417203" lon="-3.5791099"><ele>372.2</ele><time>2026-03-07T11:08:07.037Z</time></trkpt><trkpt lat="36.8416912" lon="-3.5792339"><ele>363.8</ele><time>2026-03-07T11:08:07.99Z</time></trkpt><trkpt lat="36.8416701" lon="-3.5793783"><ele>355.40000000000003</ele><time>2026-03-07T11:08:08.983Z</time></trkpt><trkpt lat="36.8416525" lon="-3.5795362"><ele>347.0</ele><time>2026-03-07T11:08:10.004Z</time></trkpt><trkpt lat="36.841635" lon="-3.5796965"><ele>347.0</ele><time>2026-03-07T11:08:11.029Z</time></trkpt><trkpt lat="36.8416148" lon="-3.5798538"><ele>347.0</ele><time>2026-03-07T11:08:12.002Z</time></trkpt><trkpt lat="36.8415928" lon="-3.5800034"><ele>347.0</ele><time>2026-03-07T11:08:13.008Z</time></trkpt><trkpt lat="36.8415691" lon="-3.5801385"><ele>347.0</ele><time>2026-03-07T11:08:14.004Z</time></trkpt><trkpt lat="36.8415348" lon="-3.5802629"><ele>348.0</ele><time>2026-03-07T11:08:14.994Z</time></trkpt><trkpt lat="36.8414956" lon="-3.5803747"><ele>349.0</ele><time>2026-03-07T11:08:15.99Z</time></trkpt><trkpt lat="36.8414552" lon="-3.5804852"><ele>350.0</ele><time>2026-03-07T11:08:17.007Z</time></trkpt><trkpt lat="36.8414123" lon="-3.5805894"><ele>351.0</ele><time>2026-03-07T11:08:17.999Z</time></trkpt><trkpt lat="36.8413689" lon="-3.5806941"><ele>352.0</ele><time>2026-03-07T11:08:19.011Z</time></trkpt><trkpt lat="36.841331" lon="-3.5808012"><ele>352.0</ele><time>2026-03-07T11:08:20Z</time></trkpt><trkpt lat="36.8412928" lon="-3.5809101"><ele>352.0</ele><time>2026-03-07T11:08:20.993Z</time></trkpt><trkpt lat="36.8412551" lon="-3.5810187"><ele>352.0</ele><time>2026-03-07T11:08:22.027Z</time></trkpt><trkpt lat="36.8412201" lon="-3.5811254"><ele>352.0</ele><time>2026-03-07T11:08:23.008Z</time></trkpt><trkpt lat="36.8411899" lon="-3.5812276"><ele>352.0</ele><time>2026-03-07T11:08:23.991Z</time></trkpt><trkpt lat="36.841162" lon="-3.581329"><ele>351.16666666666663</ele><time>2026-03-07T11:08:25.011Z</time></trkpt><trkpt lat="36.841132" lon="-3.5814303"><ele>350.3333333333333</ele><time>2026-03-07T11:08:25.993Z</time></trkpt><trkpt lat="36.841107" lon="-3.5815309"><ele>349.5</ele><time>2026-03-07T11:08:26.987Z</time></trkpt><trkpt lat="36.8410816" lon="-3.5816222"><ele>348.6666666666667</ele><time>2026-03-07T11:08:28.017Z</time></trkpt><trkpt lat="36.8410594" lon="-3.5817027"><ele>347.83333333333337</ele><time>2026-03-07T11:08:29.003Z</time></trkpt><trkpt lat="36.8410228" lon="-3.5818414"><ele>347.0</ele><time>2026-03-07T11:08:30.994Z</time></trkpt><trkpt lat="36.8409914" lon="-3.581959"><ele>342.6666666666667</ele><time>2026-03-07T11:08:32.99Z</time></trkpt><trkpt lat="36.840924" lon="-3.5820205"><ele>338.33333333333337</ele><time>2026-03-07T11:08:36.001Z</time></trkpt><trkpt lat="36.8408529" lon="-3.5819246"><ele>334.0</ele><time>2026-03-07T11:08:37.99Z</time></trkpt><trkpt lat="36.8408519" lon="-3.581834"><ele>329.6666666666667</ele><time>2026-03-07T11:08:39.014Z</time></trkpt><trkpt lat="36.8408697" lon="-3.5817564"><ele>325.3333333333333</ele><time>2026-03-07T11:08:40.004Z</time></trkpt><trkpt lat="36.8408919" lon="-3.5816723"><ele>321.0</ele><time>2026-03-07T11:08:40.998Z</time></trkpt><trkpt lat="36.8409157" lon="-3.5815861"><ele>320.6</ele><time>2026-03-07T11:08:42.007Z</time></trkpt><trkpt lat="36.84094" lon="-3.5814895"><ele>320.20000000000005</ele><time>2026-03-07T11:08:43.002Z</time></trkpt><trkpt lat="36.8409684" lon="-3.5813753"><ele>319.79999999999995</ele><time>2026-03-07T11:08:43.994Z</time></trkpt><trkpt lat="36.8410032" lon="-3.5812472"><ele>319.4</ele><time>2026-03-07T11:08:44.991Z</time></trkpt><trkpt lat="36.8410339" lon="-3.5811288"><ele>319.0</ele><time>2026-03-07T11:08:45.996Z</time></trkpt><trkpt lat="36.8410623" lon="-3.5810268"><ele>324.5</ele><time>2026-03-07T11:08:46.981Z</time></trkpt><trkpt lat="36.8410854" lon="-3.5809458"><ele>330.0</ele><time>2026-03-07T11:08:47.994Z</time></trkpt><trkpt lat="36.8411038" lon="-3.5808703"><ele>335.5</ele><time>2026-03-07T11:08:48.988Z</time></trkpt><trkpt lat="36.8411141" lon="-3.5807713"><ele>341.0</ele><time>2026-03-07T11:08:50.001Z</time></trkpt><trkpt lat="36.8411251" lon="-3.5806605"><ele>346.5</ele><time>2026-03-07T11:08:51.002Z</time></trkpt><trkpt lat="36.8411359" lon="-3.5805542"><ele>352.0</ele><time>2026-03-07T11:08:52.022Z</time></trkpt><trkpt lat="36.8411575" lon="-3.5804404"><ele>351.0</ele><time>2026-03-07T11:08:52.985Z</time></trkpt><trkpt lat="36.8411786" lon="-3.5803207"><ele>350.0</ele><time>2026-03-07T11:08:54Z</time></trkpt><trkpt lat="36.8411969" lon="-3.5802019"><ele>349.0</ele><time>2026-03-07T11:08:54.989Z</time></trkpt><trkpt lat="36.8412069" lon="-3.580075"><ele>348.0</ele><time>2026-03-07T11:08:56.003Z</time></trkpt><trkpt lat="36.8412117" lon="-3.5799447"><ele>347.0</ele><time>2026-03-07T11:08:57.001Z</time></trkpt><trkpt lat="36.8412036" lon="-3.5798147"><ele>347.0</ele><time>2026-03-07T11:08:57.982Z</time></trkpt><trkpt lat="36.8411841" lon="-3.5796947"><ele>347.0</ele><time>2026-03-07T11:08:59.001Z</time></trkpt><trkpt lat="36.8411504" lon="-3.5795824"><ele>347.0</ele><time>2026-03-07T11:09:00.057Z</time></trkpt><trkpt lat="36.8411163" lon="-3.5794865"><ele>347.0</ele><time>2026-03-07T11:09:00.984Z</time></trkpt><trkpt lat="36.8410861" lon="-3.5794024"><ele>347.0</ele><time>2026-03-07T11:09:01.989Z</time></trkpt><trkpt lat="36.8410656" lon="-3.5793116"><ele>347.0</ele><time>2026-03-07T11:09:02.989Z</time></trkpt><trkpt lat="36.8410588" lon="-3.5792106"><ele>346.6666666666667</ele><time>2026-03-07T11:09:03.973Z</time></trkpt><trkpt lat="36.8410907" lon="-3.5790976"><ele>346.33333333333337</ele><time>2026-03-07T11:09:04.992Z</time></trkpt><trkpt lat="36.8411255" lon="-3.5789934"><ele>346.0</ele><time>2026-03-07T11:09:05.974Z</time></trkpt><trkpt lat="36.8411554" lon="-3.5788943"><ele>345.6666666666667</ele><time>2026-03-07T11:09:07.001Z</time></trkpt><trkpt lat="36.8411826" lon="-3.5788081"><ele>345.3333333333333</ele><time>2026-03-07T11:09:08Z</time></trkpt><trkpt lat="36.8412068" lon="-3.5787246"><ele>345.0</ele><time>2026-03-07T11:09:08.995Z</time></trkpt><trkpt lat="36.8411669" lon="-3.5785738"><ele>345.0</ele><time>2026-03-07T11:09:10.982Z</time></trkpt><trkpt lat="36.8411151" lon="-3.5785012"><ele>345.0</ele><time>2026-03-07T11:09:11.981Z</time></trkpt><trkpt lat="36.8410545" lon="-3.5784311"><ele>345.0</ele><time>2026-03-07T11:09:12.976Z</time></trkpt><trkpt lat="36.8409967" lon="-3.5783541"><ele>345.0</ele><time>2026-03-07T11:09:13.98Z</time></trkpt><trkpt lat="36.8409285" lon="-3.5782722"><ele>345.0</ele><time>2026-03-07T11:09:14.985Z</time></trkpt><trkpt lat="36.8408554" lon="-3.5782097"><ele>345.0</ele><time>2026-03-07T11:09:15.981Z</time></trkpt><trkpt lat="36.8407736" lon="-3.5781678"><ele>340.6</ele><time>2026-03-07T11:09:16.978Z</time></trkpt><trkpt lat="36.8406773" lon="-3.5781507"><ele>336.2</ele><time>2026-03-07T11:09:17.985Z</time></trkpt><trkpt lat="36.8405834" lon="-3.5781636"><ele>331.79999999999995</ele><time>2026-03-07T11:09:18.985Z</time></trkpt><trkpt lat="36.8404861" lon="-3.5781891"><ele>327.4</ele><time>2026-03-07T11:09:19.988Z</time></trkpt><trkpt lat="36.8403795" lon="-3.5782034"><ele>323.0</ele><time>2026-03-07T11:09:20.987Z</time></trkpt><trkpt lat="36.8402823" lon="-3.5782014"><ele>323.0</ele><time>2026-03-07T11:09:22.004Z</time></trkpt><trkpt lat="36.8401972" lon="-3.5781717"><ele>323.0</ele><time>2026-03-07T11:09:22.999Z</time></trkpt><trkpt lat="36.840124" lon="-3.5781034"><ele>323.0</ele><time>2026-03-07T11:09:24.006Z</time></trkpt><trkpt lat="36.8400625" lon="-3.5779862"><ele>323.0</ele><time>2026-03-07T11:09:24.986Z</time></trkpt><trkpt lat="36.8400077" lon="-3.5778302"><ele>323.0</ele><time>2026-03-07T11:09:25.985Z</time></trkpt><trkpt lat="36.8399411" lon="-3.5776584"><ele>320.6666666666667</ele><time>2026-03-07T11:09:26.98Z</time></trkpt><trkpt lat="36.839864" lon="-3.5774775"><ele>318.3333333333333</ele><time>2026-03-07T11:09:27.988Z</time></trkpt><trkpt lat="36.8397784" lon="-3.5773193"><ele>316.0</ele><time>2026-03-07T11:09:28.976Z</time></trkpt><trkpt lat="36.8396943" lon="-3.5771664"><ele>316.0</ele><time>2026-03-07T11:09:29.993Z</time></trkpt><trkpt lat="36.839614" lon="-3.5770197"><ele>316.0</ele><time>2026-03-07T11:09:30.983Z</time></trkpt><trkpt lat="36.8395448" lon="-3.5768755"><ele>316.0</ele><time>2026-03-07T11:09:31.984Z</time></trkpt><trkpt lat="36.8394906" lon="-3.5767265"><ele>316.0</ele><time>2026-03-07T11:09:32.99Z</time></trkpt><trkpt lat="36.8394323" lon="-3.5765923"><ele>317.0</ele><time>2026-03-07T11:09:33.985Z</time></trkpt><trkpt lat="36.8393471" lon="-3.5764692"><ele>318.0</ele><time>2026-03-07T11:09:34.988Z</time></trkpt><trkpt lat="36.8392276" lon="-3.5763641"><ele>319.0</ele><time>2026-03-07T11:09:35.976Z</time></trkpt><trkpt lat="36.8390799" lon="-3.5762744"><ele>320.0</ele><time>2026-03-07T11:09:36.98Z</time></trkpt><trkpt lat="36.8389289" lon="-3.5761836"><ele>320.0</ele><time>2026-03-07T11:09:37.976Z</time></trkpt><trkpt lat="36.8387893" lon="-3.5761056"><ele>320.0</ele><time>2026-03-07T11:09:39.002Z</time></trkpt><trkpt lat="36.8386601" lon="-3.5760368"><ele>320.0</ele><time>2026-03-07T11:09:39.992Z</time></trkpt><trkpt lat="36.8385386" lon="-3.575954"><ele>320.0</ele><time>2026-03-07T11:09:40.998Z</time></trkpt><trkpt lat="36.8384257" lon="-3.5758365"><ele>317.75</ele><time>2026-03-07T11:09:41.993Z</time></trkpt><trkpt lat="36.8383347" lon="-3.5756949"><ele>315.5</ele><time>2026-03-07T11:09:43.017Z</time></trkpt><trkpt lat="36.8382576" lon="-3.5755447"><ele>313.25</ele><time>2026-03-07T11:09:43.989Z</time></trkpt><trkpt lat="36.8381816" lon="-3.575402"><ele>311.0</ele><time>2026-03-07T11:09:45.014Z</time></trkpt><trkpt lat="36.8380858" lon="-3.5752824"><ele>311.0</ele><time>2026-03-07T11:09:45.991Z</time></trkpt><trkpt lat="36.8379539" lon="-3.5751907"><ele>311.0</ele><time>2026-03-07T11:09:47.007Z</time></trkpt><trkpt lat="36.8378056" lon="-3.5751133"><ele>311.0</ele><time>2026-03-07T11:09:47.993Z</time></trkpt><trkpt lat="36.8376579" lon="-3.5750167"><ele>303.6666666666667</ele><time>2026-03-07T11:09:49.002Z</time></trkpt><trkpt lat="36.8375178" lon="-3.5749123"><ele>296.3333333333333</ele><time>2026-03-07T11:09:49.978Z</time></trkpt><trkpt lat="36.8373993" lon="-3.5747949"><ele>289.0</ele><time>2026-03-07T11:09:50.995Z</time></trkpt><trkpt lat="36.8372896" lon="-3.5746732"><ele>289.0</ele><time>2026-03-07T11:09:51.977Z</time></trkpt><trkpt lat="36.8371862" lon="-3.5745708"><ele>289.0</ele><time>2026-03-07T11:09:52.984Z</time></trkpt><trkpt lat="36.8370789" lon="-3.5745054"><ele>289.0</ele><time>2026-03-07T11:09:53.981Z</time></trkpt><trkpt lat="36.8369709" lon="-3.5744378"><ele>289.0</ele><time>2026-03-07T11:09:54.988Z</time></trkpt><trkpt lat="36.8368646" lon="-3.5743534"><ele>285.75</ele><time>2026-03-07T11:09:56.016Z</time></trkpt><trkpt lat="36.8367984" lon="-3.5742201"><ele>282.5</ele><time>2026-03-07T11:09:56.992Z</time></trkpt><trkpt lat="36.8367797" lon="-3.5740669"><ele>279.25</ele><time>2026-03-07T11:09:57.998Z</time></trkpt><trkpt lat="36.8368118" lon="-3.5739207"><ele>276.0</ele><time>2026-03-07T11:09:58.982Z</time></trkpt><trkpt lat="36.8368353" lon="-3.573798"><ele>278.2</ele><time>2026-03-07T11:10:00.028Z</time></trkpt><trkpt lat="36.8368338" lon="-3.5736843"><ele>280.40000000000003</ele><time>2026-03-07T11:10:01.033Z</time></trkpt><trkpt lat="36.8367871" lon="-3.5735807"><ele>282.6</ele><time>2026-03-07T11:10:02.015Z</time></trkpt><trkpt lat="36.8367028" lon="-3.5734917"><ele>284.8</ele><time>2026-03-07T11:10:02.982Z</time></trkpt><trkpt lat="36.836603" lon="-3.5734235"><ele>287.0</ele><time>2026-03-07T11:10:03.993Z</time></trkpt><trkpt lat="36.836494" lon="-3.5733803"><ele>287.0</ele><time>2026-03-07T11:10:05.038Z</time></trkpt><trkpt lat="36.8363855" lon="-3.5733732"><ele>287.0</ele><time>2026-03-07T11:10:06.045Z</time></trkpt><trkpt lat="36.83627" lon="-3.5733652"><ele>287.0</ele><time>2026-03-07T11:10:07.052Z</time></trkpt><trkpt lat="36.8361635" lon="-3.5733236"><ele>287.0</ele><time>2026-03-07T11:10:08.036Z</time></trkpt><trkpt lat="36.8360775" lon="-3.5732418"><ele>287.0</ele><time>2026-03-07T11:10:09.02Z</time></trkpt><trkpt lat="36.8360347" lon="-3.5731055"><ele>287.0</ele><time>2026-03-07T11:10:10.005Z</time></trkpt><trkpt lat="36.8360453" lon="-3.5729587"><ele>287.0</ele><time>2026-03-07T11:10:11.018Z</time></trkpt><trkpt lat="36.8360863" lon="-3.5728211"><ele>287.0</ele><time>2026-03-07T11:10:12.056Z</time></trkpt><trkpt lat="36.8361378" lon="-3.5726847"><ele>287.0</ele><time>2026-03-07T11:10:13.018Z</time></trkpt><trkpt lat="36.8361549" lon="-3.5725518"><ele>287.6</ele><time>2026-03-07T11:10:14.024Z</time></trkpt><trkpt lat="36.8361256" lon="-3.5724324"><ele>288.2</ele><time>2026-03-07T11:10:15.022Z</time></trkpt><trkpt lat="36.8360491" lon="-3.5723377"><ele>288.8</ele><time>2026-03-07T11:10:15.999Z</time></trkpt><trkpt lat="36.835948" lon="-3.5722855"><ele>289.4</ele><time>2026-03-07T11:10:16.987Z</time></trkpt><trkpt lat="36.8358284" lon="-3.5722638"><ele>290.0</ele><time>2026-03-07T11:10:17.997Z</time></trkpt><trkpt lat="36.8356984" lon="-3.5722061"><ele>289.75</ele><time>2026-03-07T11:10:18.99Z</time></trkpt><trkpt lat="36.8355709" lon="-3.5721451"><ele>289.5</ele><time>2026-03-07T11:10:20.007Z</time></trkpt><trkpt lat="36.835439" lon="-3.5720823"><ele>289.25</ele><time>2026-03-07T11:10:21.021Z</time></trkpt><trkpt lat="36.8353018" lon="-3.5720247"><ele>289.0</ele><time>2026-03-07T11:10:21.999Z</time></trkpt><trkpt lat="36.83516" lon="-3.5719851"><ele>286.25</ele><time>2026-03-07T11:10:23.029Z</time></trkpt><trkpt lat="36.8350247" lon="-3.5719631"><ele>283.5</ele><time>2026-03-07T11:10:24.004Z</time></trkpt><trkpt lat="36.8348841" lon="-3.5719661"><ele>280.75</ele><time>2026-03-07T11:10:24.996Z</time></trkpt><trkpt lat="36.8347414" lon="-3.5719892"><ele>278.0</ele><time>2026-03-07T11:10:26.022Z</time></trkpt><trkpt lat="36.8345963" lon="-3.5720314"><ele>273.0</ele><time>2026-03-07T11:10:26.992Z</time></trkpt><trkpt lat="36.8344502" lon="-3.5720714"><ele>268.0</ele><time>2026-03-07T11:10:28.045Z</time></trkpt><trkpt lat="36.8343148" lon="-3.5720958"><ele>263.0</ele><time>2026-03-07T11:10:28.981Z</time></trkpt><trkpt lat="36.8341793" lon="-3.5720926"><ele>258.0</ele><time>2026-03-07T11:10:30.003Z</time></trkpt><trkpt lat="36.834052" lon="-3.572091"><ele>256.8</ele><time>2026-03-07T11:10:31.053Z</time></trkpt><trkpt lat="36.8339413" lon="-3.5721032"><ele>255.60000000000002</ele><time>2026-03-07T11:10:32.015Z</time></trkpt><trkpt lat="36.8338473" lon="-3.5721298"><ele>254.39999999999998</ele><time>2026-03-07T11:10:33.001Z</time></trkpt><trkpt lat="36.8337669" lon="-3.5721683"><ele>253.2</ele><time>2026-03-07T11:10:34.029Z</time></trkpt><trkpt lat="36.8336941" lon="-3.5722046"><ele>252.0</ele><time>2026-03-07T11:10:34.993Z</time></trkpt><trkpt lat="36.8336017" lon="-3.5722467"><ele>252.0</ele><time>2026-03-07T11:10:37.003Z</time></trkpt><trkpt lat="36.8335918" lon="-3.5723544"><ele>252.0</ele><time>2026-03-07T11:10:40.002Z</time></trkpt><trkpt lat="36.8336529" lon="-3.5724235"><ele>252.0</ele><time>2026-03-07T11:10:40.997Z</time></trkpt><trkpt lat="36.8337592" lon="-3.5724621"><ele>252.0</ele><time>2026-03-07T11:10:41.991Z</time></trkpt><trkpt lat="36.8338777" lon="-3.5724477"><ele>252.0</ele><time>2026-03-07T11:10:42.978Z</time></trkpt><trkpt lat="36.834" lon="-3.572411"><ele>252.0</ele><time>2026-03-07T11:10:43.983Z</time></trkpt><trkpt lat="36.8341164" lon="-3.5723905"><ele>252.0</ele><time>2026-03-07T11:10:44.986Z</time></trkpt><trkpt lat="36.8342345" lon="-3.5723735"><ele>252.0</ele><time>2026-03-07T11:10:45.979Z</time></trkpt><trkpt lat="36.8343534" lon="-3.5723735"><ele>252.0</ele><time>2026-03-07T11:10:46.984Z</time></trkpt><trkpt lat="36.8344668" lon="-3.5723861"><ele>253.0</ele><time>2026-03-07T11:10:48.025Z</time></trkpt><trkpt lat="36.8345697" lon="-3.5723992"><ele>254.0</ele><time>2026-03-07T11:10:48.987Z</time></trkpt><trkpt lat="36.834664" lon="-3.5724116"><ele>255.0</ele><time>2026-03-07T11:10:49.988Z</time></trkpt><trkpt lat="36.8347479" lon="-3.5724319"><ele>256.0</ele><time>2026-03-07T11:10:51.004Z</time></trkpt><trkpt lat="36.8348174" lon="-3.5724814"><ele>257.0</ele><time>2026-03-07T11:10:51.994Z</time></trkpt><trkpt lat="36.8348702" lon="-3.5725591"><ele>258.0</ele><time>2026-03-07T11:10:52.977Z</time></trkpt><trkpt lat="36.8349059" lon="-3.572655"><ele>258.0</ele><time>2026-03-07T11:10:53.987Z</time></trkpt><trkpt lat="36.8349286" lon="-3.5727435"><ele>258.0</ele><time>2026-03-07T11:10:54.989Z</time></trkpt><trkpt lat="36.8349248" lon="-3.5728374"><ele>258.0</ele><time>2026-03-07T11:10:55.994Z</time></trkpt><trkpt lat="36.8349029" lon="-3.5729309"><ele>258.0</ele><time>2026-03-07T11:10:56.996Z</time></trkpt><trkpt lat="36.8348803" lon="-3.5730241"><ele>258.0</ele><time>2026-03-07T11:10:57.996Z</time></trkpt><trkpt lat="36.8348689" lon="-3.5731233"><ele>258.0</ele><time>2026-03-07T11:10:58.981Z</time></trkpt><trkpt lat="36.8348694" lon="-3.5732229"><ele>256.2</ele><time>2026-03-07T11:10:59.997Z</time></trkpt><trkpt lat="36.8348881" lon="-3.5733329"><ele>254.4</ele><time>2026-03-07T11:11:00.984Z</time></trkpt><trkpt lat="36.8349146" lon="-3.5734606"><ele>252.59999999999997</ele><time>2026-03-07T11:11:01.983Z</time></trkpt><trkpt lat="36.8349437" lon="-3.5735849"><ele>250.79999999999998</ele><time>2026-03-07T11:11:03.012Z</time></trkpt><trkpt lat="36.8349819" lon="-3.5737131"><ele>249.0</ele><time>2026-03-07T11:11:03.994Z</time></trkpt><trkpt lat="36.8350167" lon="-3.5738298"><ele>246.85714285714283</ele><time>2026-03-07T11:11:04.979Z</time></trkpt><trkpt lat="36.8350481" lon="-3.5739357"><ele>244.7142857142857</ele><time>2026-03-07T11:11:05.993Z</time></trkpt><trkpt lat="36.8350656" lon="-3.5740324"><ele>242.57142857142856</ele><time>2026-03-07T11:11:06.976Z</time></trkpt><trkpt lat="36.8350614" lon="-3.5741167"><ele>240.42857142857144</ele><time>2026-03-07T11:11:08.003Z</time></trkpt><trkpt lat="36.8350198" lon="-3.5741873"><ele>238.2857142857143</ele><time>2026-03-07T11:11:08.969Z</time></trkpt><trkpt lat="36.8349634" lon="-3.5742344"><ele>236.14285714285717</ele><time>2026-03-07T11:11:09.996Z</time></trkpt><trkpt lat="36.8349013" lon="-3.5742554"><ele>234.0</ele><time>2026-03-07T11:11:11Z</time></trkpt><trkpt lat="36.834829" lon="-3.5742214"><ele>234.0</ele><time>2026-03-07T11:11:11.981Z</time></trkpt><trkpt lat="36.8347746" lon="-3.5741293"><ele>233.99999999999997</ele><time>2026-03-07T11:11:12.984Z</time></trkpt><trkpt lat="36.8347487" lon="-3.5740027"><ele>233.99999999999997</ele><time>2026-03-07T11:11:13.991Z</time></trkpt><trkpt lat="36.8347246" lon="-3.5738832"><ele>234.0</ele><time>2026-03-07T11:11:14.99Z</time></trkpt><trkpt lat="36.8346876" lon="-3.5737657"><ele>234.0</ele><time>2026-03-07T11:11:15.987Z</time></trkpt><trkpt lat="36.8346466" lon="-3.5736652"><ele>234.0</ele><time>2026-03-07T11:11:16.987Z</time></trkpt><trkpt lat="36.8345942" lon="-3.573593"><ele>234.0</ele><time>2026-03-07T11:11:17.984Z</time></trkpt><trkpt lat="36.8345304" lon="-3.573563"><ele>234.0</ele><time>2026-03-07T11:11:18.973Z</time></trkpt><trkpt lat="36.8344157" lon="-3.5736412"><ele>234.0</ele><time>2026-03-07T11:11:20.972Z</time></trkpt><trkpt lat="36.8343899" lon="-3.5737429"><ele>234.0</ele><time>2026-03-07T11:11:21.991Z</time></trkpt><trkpt lat="36.834388" lon="-3.5738441"><ele>234.0</ele><time>2026-03-07T11:11:22.974Z</time></trkpt><trkpt lat="36.8344257" lon="-3.5739467"><ele>234.0</ele><time>2026-03-07T11:11:23.986Z</time></trkpt><trkpt lat="36.8344732" lon="-3.5740644"><ele>234.0</ele><time>2026-03-07T11:11:24.988Z</time></trkpt><trkpt lat="36.8345318" lon="-3.5741944"><ele>234.0</ele><time>2026-03-07T11:11:25.992Z</time></trkpt><trkpt lat="36.8345953" lon="-3.5743153"><ele>234.0</ele><time>2026-03-07T11:11:26.973Z</time></trkpt><trkpt lat="36.834677" lon="-3.574438"><ele>226.66666666666669</ele><time>2026-03-07T11:11:27.987Z</time></trkpt><trkpt lat="36.8347779" lon="-3.5745635"><ele>219.33333333333334</ele><time>2026-03-07T11:11:28.971Z</time></trkpt><trkpt lat="36.8348932" lon="-3.5746958"><ele>212.0</ele><time>2026-03-07T11:11:29.98Z</time></trkpt><trkpt lat="36.8350179" lon="-3.57484"><ele>221.33333333333334</ele><time>2026-03-07T11:11:30.987Z</time></trkpt><trkpt lat="36.8351434" lon="-3.5749919"><ele>230.66666666666669</ele><time>2026-03-07T11:11:31.987Z</time></trkpt><trkpt lat="36.8352637" lon="-3.5751532"><ele>240.0</ele><time>2026-03-07T11:11:32.968Z</time></trkpt><trkpt lat="36.835379" lon="-3.5753075"><ele>233.0</ele><time>2026-03-07T11:11:33.98Z</time></trkpt><trkpt lat="36.8354806" lon="-3.5754433"><ele>226.0</ele><time>2026-03-07T11:11:34.986Z</time></trkpt><trkpt lat="36.8355727" lon="-3.5755898"><ele>219.0</ele><time>2026-03-07T11:11:35.983Z</time></trkpt><trkpt lat="36.8356427" lon="-3.5757747"><ele>219.0</ele><time>2026-03-07T11:11:36.985Z</time></trkpt><trkpt lat="36.8357118" lon="-3.5759629"><ele>219.0</ele><time>2026-03-07T11:11:37.99Z</time></trkpt><trkpt lat="36.8357925" lon="-3.5761304"><ele>219.0</ele><time>2026-03-07T11:11:39.032Z</time></trkpt><trkpt lat="36.8358785" lon="-3.5762771"><ele>216.5</ele><time>2026-03-07T11:11:40.026Z</time></trkpt><trkpt lat="36.8359666" lon="-3.5764143"><ele>214.0</ele><time>2026-03-07T11:11:41.056Z</time></trkpt><trkpt lat="36.8360491" lon="-3.5765586"><ele>211.5</ele><time>2026-03-07T11:11:41.978Z</time></trkpt><trkpt lat="36.8361171" lon="-3.5766918"><ele>209.0</ele><time>2026-03-07T11:11:43.033Z</time></trkpt><trkpt lat="36.836151" lon="-3.5768269"><ele>210.39999999999998</ele><time>2026-03-07T11:11:44.011Z</time></trkpt><trkpt lat="36.8361599" lon="-3.5769509"><ele>211.8</ele><time>2026-03-07T11:11:45.005Z</time></trkpt><trkpt lat="36.8361477" lon="-3.5770722"><ele>213.20000000000002</ele><time>2026-03-07T11:11:45.984Z</time></trkpt><trkpt lat="36.8360816" lon="-3.5771769"><ele>214.60000000000002</ele><time>2026-03-07T11:11:47.001Z</time></trkpt><trkpt lat="36.8359893" lon="-3.5772617"><ele>216.0</ele><time>2026-03-07T11:11:47.995Z</time></trkpt><trkpt lat="36.8358911" lon="-3.5773309"><ele>216.5</ele><time>2026-03-07T11:11:49.016Z</time></trkpt><trkpt lat="36.835796" lon="-3.577386"><ele>217.0</ele><time>2026-03-07T11:11:50.005Z</time></trkpt><trkpt lat="36.8356932" lon="-3.5773905"><ele>217.5</ele><time>2026-03-07T11:11:51.01Z</time></trkpt><trkpt lat="36.8355775" lon="-3.5773276"><ele>218.0</ele><time>2026-03-07T11:11:51.993Z</time></trkpt><trkpt lat="36.8354672" lon="-3.5772403"><ele>218.0</ele><time>2026-03-07T11:11:53.003Z</time></trkpt><trkpt lat="36.8353716" lon="-3.5771396"><ele>218.0</ele><time>2026-03-07T11:11:53.983Z</time></trkpt><trkpt lat="36.8352903" lon="-3.5770694"><ele>218.0</ele><time>2026-03-07T11:11:55.014Z</time></trkpt><trkpt lat="36.8352169" lon="-3.5770079"><ele>218.0</ele><time>2026-03-07T11:11:56.015Z</time></trkpt><trkpt lat="36.8351192" lon="-3.5769551"><ele>218.0</ele><time>2026-03-07T11:11:57.031Z</time></trkpt><trkpt lat="36.8350116" lon="-3.5769191"><ele>218.5</ele><time>2026-03-07T11:11:57.986Z</time></trkpt><trkpt lat="36.8348909" lon="-3.5768877"><ele>219.0</ele><time>2026-03-07T11:11:59.035Z</time></trkpt><trkpt lat="36.8347575" lon="-3.576868"><ele>219.5</ele><time>2026-03-07T11:11:59.981Z</time></trkpt><trkpt lat="36.834626" lon="-3.5768687"><ele>220.0</ele><time>2026-03-07T11:12:00.998Z</time></trkpt><trkpt lat="36.8344984" lon="-3.5768908"><ele>220.0</ele><time>2026-03-07T11:12:02.012Z</time></trkpt><trkpt lat="36.8343817" lon="-3.5769326"><ele>220.0</ele><time>2026-03-07T11:12:02.986Z</time></trkpt><trkpt lat="36.8342747" lon="-3.5769719"><ele>220.0</ele><time>2026-03-07T11:12:03.994Z</time></trkpt><trkpt lat="36.8341638" lon="-3.5770179"><ele>220.0</ele><time>2026-03-07T11:12:05.009Z</time></trkpt><trkpt lat="36.8340716" lon="-3.577072"><ele>221.6</ele><time>2026-03-07T11:12:05.985Z</time></trkpt><trkpt lat="36.8339964" lon="-3.5771356"><ele>223.2</ele><time>2026-03-07T11:12:06.989Z</time></trkpt><trkpt lat="36.833921" lon="-3.5771502"><ele>224.8</ele><time>2026-03-07T11:12:08.027Z</time></trkpt><trkpt lat="36.8338415" lon="-3.5771053"><ele>226.4</ele><time>2026-03-07T11:12:09.017Z</time></trkpt><trkpt lat="36.8337598" lon="-3.5769921"><ele>228.0</ele><time>2026-03-07T11:12:10.008Z</time></trkpt><trkpt lat="36.8336787" lon="-3.576857"><ele>228.0</ele><time>2026-03-07T11:12:10.994Z</time></trkpt><trkpt lat="36.8335793" lon="-3.5767249"><ele>228.0</ele><time>2026-03-07T11:12:11.972Z</time></trkpt><trkpt lat="36.8334813" lon="-3.576606"><ele>228.0</ele><time>2026-03-07T11:12:13.001Z</time></trkpt><trkpt lat="36.8333802" lon="-3.5765123"><ele>228.0</ele><time>2026-03-07T11:12:13.978Z</time></trkpt><trkpt lat="36.8332853" lon="-3.5764452"><ele>230.33333333333334</ele><time>2026-03-07T11:12:15.002Z</time></trkpt><trkpt lat="36.8331938" lon="-3.5764114"><ele>232.66666666666669</ele><time>2026-03-07T11:12:15.998Z</time></trkpt><trkpt lat="36.8331239" lon="-3.5764214"><ele>235.0</ele><time>2026-03-07T11:12:17.005Z</time></trkpt><trkpt lat="36.8330574" lon="-3.5764565"><ele>237.33333333333334</ele><time>2026-03-07T11:12:18.994Z</time></trkpt><trkpt lat="36.8329961" lon="-3.5764745"><ele>239.66666666666669</ele><time>2026-03-07T11:12:20.998Z</time></trkpt><trkpt lat="36.8328913" lon="-3.576399"><ele>242.0</ele><time>2026-03-07T11:12:22.981Z</time></trkpt><trkpt lat="36.832818" lon="-3.5763535"><ele>242.00000000000003</ele><time>2026-03-07T11:12:24.033Z</time></trkpt><trkpt lat="36.832733" lon="-3.576317"><ele>242.0</ele><time>2026-03-07T11:12:25.023Z</time></trkpt><trkpt lat="36.8326446" lon="-3.5762957"><ele>242.0</ele><time>2026-03-07T11:12:25.989Z</time></trkpt><trkpt lat="36.8325573" lon="-3.5762879"><ele>242.0</ele><time>2026-03-07T11:12:26.983Z</time></trkpt><trkpt lat="36.8324763" lon="-3.5762939"><ele>242.00000000000003</ele><time>2026-03-07T11:12:27.992Z</time></trkpt><trkpt lat="36.832392" lon="-3.5762812"><ele>242.0</ele><time>2026-03-07T11:12:28.969Z</time></trkpt><trkpt lat="36.8323081" lon="-3.5762634"><ele>239.83333333333334</ele><time>2026-03-07T11:12:29.985Z</time></trkpt><trkpt lat="36.8322216" lon="-3.5762375"><ele>237.66666666666669</ele><time>2026-03-07T11:12:30.981Z</time></trkpt><trkpt lat="36.8321407" lon="-3.5761848"><ele>235.5</ele><time>2026-03-07T11:12:31.969Z</time></trkpt><trkpt lat="36.8320664" lon="-3.5761166"><ele>233.33333333333331</ele><time>2026-03-07T11:12:32.998Z</time></trkpt><trkpt lat="36.8320103" lon="-3.5760302"><ele>231.16666666666666</ele><time>2026-03-07T11:12:33.993Z</time></trkpt><trkpt lat="36.8319687" lon="-3.575957"><ele>229.0</ele><time>2026-03-07T11:12:34.992Z</time></trkpt><trkpt lat="36.8319161" lon="-3.5758332"><ele>229.0</ele><time>2026-03-07T11:12:36.976Z</time></trkpt><trkpt lat="36.8318449" lon="-3.5757339"><ele>228.99999999999997</ele><time>2026-03-07T11:12:38.996Z</time></trkpt><trkpt lat="36.8317581" lon="-3.5756878"><ele>228.99999999999997</ele><time>2026-03-07T11:12:40.988Z</time></trkpt><trkpt lat="36.8316783" lon="-3.5757039"><ele>229.0</ele><time>2026-03-07T11:12:42.989Z</time></trkpt><trkpt lat="36.8316023" lon="-3.5758078"><ele>229.0</ele><time>2026-03-07T11:12:44.985Z</time></trkpt><trkpt lat="36.8315399" lon="-3.5759207"><ele>231.33333333333331</ele><time>2026-03-07T11:12:46.988Z</time></trkpt><trkpt lat="36.8314765" lon="-3.5760439"><ele>233.66666666666666</ele><time>2026-03-07T11:12:48.988Z</time></trkpt><trkpt lat="36.831429" lon="-3.5761136"><ele>236.0</ele><time>2026-03-07T11:12:49.996Z</time></trkpt><trkpt lat="36.8313675" lon="-3.5761746"><ele>238.33333333333331</ele><time>2026-03-07T11:12:50.991Z</time></trkpt><trkpt lat="36.8313092" lon="-3.5762378"><ele>240.66666666666666</ele><time>2026-03-07T11:12:51.977Z</time></trkpt><trkpt lat="36.8312548" lon="-3.5763107"><ele>243.0</ele><time>2026-03-07T11:12:52.976Z</time></trkpt><trkpt lat="36.8312067" lon="-3.5763836"><ele>245.5</ele><time>2026-03-07T11:12:53.988Z</time></trkpt><trkpt lat="36.8311569" lon="-3.5764506"><ele>248.0</ele><time>2026-03-07T11:12:54.977Z</time></trkpt><trkpt lat="36.8311205" lon="-3.5765187"><ele>250.5</ele><time>2026-03-07T11:12:55.971Z</time></trkpt><trkpt lat="36.8310791" lon="-3.5766482"><ele>253.0</ele><time>2026-03-07T11:12:57.983Z</time></trkpt><trkpt lat="36.8310205" lon="-3.5767142"><ele>255.5</ele><time>2026-03-07T11:13:00.051Z</time></trkpt><trkpt lat="36.8309145" lon="-3.5766572"><ele>258.0</ele><time>2026-03-07T11:13:01.975Z</time></trkpt><trkpt lat="36.8308664" lon="-3.5765727"><ele>258.0</ele><time>2026-03-07T11:13:02.992Z</time></trkpt><trkpt lat="36.8308353" lon="-3.5764674"><ele>258.0</ele><time>2026-03-07T11:13:03.986Z</time></trkpt><trkpt lat="36.8308181" lon="-3.5763553"><ele>258.0</ele><time>2026-03-07T11:13:04.994Z</time></trkpt><trkpt lat="36.830803" lon="-3.5762496"><ele>258.0</ele><time>2026-03-07T11:13:05.991Z</time></trkpt><trkpt lat="36.8307764" lon="-3.5761489"><ele>258.0</ele><time>2026-03-07T11:13:06.979Z</time></trkpt><trkpt lat="36.8307595" lon="-3.5760472"><ele>258.0</ele><time>2026-03-07T11:13:07.977Z</time></trkpt><trkpt lat="36.8307412" lon="-3.5759506"><ele>253.5</ele><time>2026-03-07T11:13:08.981Z</time></trkpt><trkpt lat="36.8307242" lon="-3.5758538"><ele>249.0</ele><time>2026-03-07T11:13:09.974Z</time></trkpt><trkpt lat="36.8306977" lon="-3.575767"><ele>244.5</ele><time>2026-03-07T11:13:10.97Z</time></trkpt><trkpt lat="36.8306464" lon="-3.5756934"><ele>240.0</ele><time>2026-03-07T11:13:11.98Z</time></trkpt><trkpt lat="36.8305836" lon="-3.5756251"><ele>235.5</ele><time>2026-03-07T11:13:12.986Z</time></trkpt><trkpt lat="36.83052" lon="-3.575563"><ele>231.0</ele><time>2026-03-07T11:13:13.967Z</time></trkpt><trkpt lat="36.8304558" lon="-3.5755146"><ele>231.0</ele><time>2026-03-07T11:13:14.969Z</time></trkpt><trkpt lat="36.8303897" lon="-3.5754885"><ele>231.0</ele><time>2026-03-07T11:13:15.971Z</time></trkpt><trkpt lat="36.8303316" lon="-3.5754547"><ele>231.0</ele><time>2026-03-07T11:13:16.978Z</time></trkpt><trkpt lat="36.8302855" lon="-3.5753857"><ele>231.0</ele><time>2026-03-07T11:13:17.986Z</time></trkpt><trkpt lat="36.8302433" lon="-3.5752996"><ele>231.0</ele><time>2026-03-07T11:13:18.971Z</time></trkpt><trkpt lat="36.8301966" lon="-3.5752134"><ele>231.0</ele><time>2026-03-07T11:13:19.972Z</time></trkpt><trkpt lat="36.8301311" lon="-3.5751446"><ele>229.5</ele><time>2026-03-07T11:13:20.98Z</time></trkpt><trkpt lat="36.8300689" lon="-3.5750825"><ele>228.0</ele><time>2026-03-07T11:13:21.969Z</time></trkpt><trkpt lat="36.830007" lon="-3.5750099"><ele>226.5</ele><time>2026-03-07T11:13:22.982Z</time></trkpt><trkpt lat="36.8299621" lon="-3.5749227"><ele>225.0</ele><time>2026-03-07T11:13:23.98Z</time></trkpt><trkpt lat="36.8299232" lon="-3.5748405"><ele>223.5</ele><time>2026-03-07T11:13:24.972Z</time></trkpt><trkpt lat="36.8298821" lon="-3.5747535"><ele>222.0</ele><time>2026-03-07T11:13:25.979Z</time></trkpt><trkpt lat="36.82984" lon="-3.5746564"><ele>222.0</ele><time>2026-03-07T11:13:26.971Z</time></trkpt><trkpt lat="36.8298031" lon="-3.5745594"><ele>222.0</ele><time>2026-03-07T11:13:27.974Z</time></trkpt><trkpt lat="36.8297674" lon="-3.5744712"><ele>222.0</ele><time>2026-03-07T11:13:28.975Z</time></trkpt><trkpt lat="36.8297312" lon="-3.574398"><ele>222.0</ele><time>2026-03-07T11:13:29.973Z</time></trkpt><trkpt lat="36.8296931" lon="-3.5743211"><ele>222.0</ele><time>2026-03-07T11:13:30.974Z</time></trkpt><trkpt lat="36.8296517" lon="-3.5742454"><ele>222.0</ele><time>2026-03-07T11:13:31.965Z</time></trkpt><trkpt lat="36.8296086" lon="-3.5741819"><ele>222.0</ele><time>2026-03-07T11:13:32.991Z</time></trkpt><trkpt lat="36.829563" lon="-3.57412"><ele>221.33333333333334</ele><time>2026-03-07T11:13:33.97Z</time></trkpt><trkpt lat="36.8295144" lon="-3.5740576"><ele>220.66666666666669</ele><time>2026-03-07T11:13:34.974Z</time></trkpt><trkpt lat="36.8294608" lon="-3.5739929"><ele>220.0</ele><time>2026-03-07T11:13:35.968Z</time></trkpt><trkpt lat="36.8293983" lon="-3.5739276"><ele>219.33333333333334</ele><time>2026-03-07T11:13:36.974Z</time></trkpt><trkpt lat="36.8293323" lon="-3.5738558"><ele>218.66666666666669</ele><time>2026-03-07T11:13:37.972Z</time></trkpt><trkpt lat="36.8292685" lon="-3.5737905"><ele>218.0</ele><time>2026-03-07T11:13:39.007Z</time></trkpt><trkpt lat="36.8292065" lon="-3.5737332"><ele>218.00000000000003</ele><time>2026-03-07T11:13:39.97Z</time></trkpt><trkpt lat="36.8291401" lon="-3.573684"><ele>218.0</ele><time>2026-03-07T11:13:40.972Z</time></trkpt><trkpt lat="36.8290646" lon="-3.5736695"><ele>218.0</ele><time>2026-03-07T11:13:41.973Z</time></trkpt><trkpt lat="36.8289886" lon="-3.5736997"><ele>218.0</ele><time>2026-03-07T11:13:42.972Z</time></trkpt><trkpt lat="36.8289204" lon="-3.5737519"><ele>218.00000000000003</ele><time>2026-03-07T11:13:43.973Z</time></trkpt><trkpt lat="36.8288525" lon="-3.5738088"><ele>218.0</ele><time>2026-03-07T11:13:44.976Z</time></trkpt><trkpt lat="36.8287871" lon="-3.5738637"><ele>218.00000000000003</ele><time>2026-03-07T11:13:45.997Z</time></trkpt><trkpt lat="36.8287285" lon="-3.5739164"><ele>218.0</ele><time>2026-03-07T11:13:46.984Z</time></trkpt><trkpt lat="36.8286674" lon="-3.5739585"><ele>218.0</ele><time>2026-03-07T11:13:47.994Z</time></trkpt><trkpt lat="36.8286129" lon="-3.5739994"><ele>218.0</ele><time>2026-03-07T11:13:48.987Z</time></trkpt><trkpt lat="36.8285452" lon="-3.5741304"><ele>218.00000000000003</ele><time>2026-03-07T11:13:50.997Z</time></trkpt><trkpt lat="36.8285348" lon="-3.5742112"><ele>218.0</ele><time>2026-03-07T11:13:51.977Z</time></trkpt><trkpt lat="36.8285138" lon="-3.5742933"><ele>217.2</ele><time>2026-03-07T11:13:52.996Z</time></trkpt><trkpt lat="36.8284365" lon="-3.5743687"><ele>216.4</ele><time>2026-03-07T11:13:54.968Z</time></trkpt><trkpt lat="36.8283709" lon="-3.5743238"><ele>215.59999999999997</ele><time>2026-03-07T11:13:56.998Z</time></trkpt><trkpt lat="36.8283423" lon="-3.5741709"><ele>214.79999999999998</ele><time>2026-03-07T11:13:58.997Z</time></trkpt><trkpt lat="36.8283373" lon="-3.5740705"><ele>214.0</ele><time>2026-03-07T11:13:59.973Z</time></trkpt><trkpt lat="36.8283339" lon="-3.5739752"><ele>213.99999999999997</ele><time>2026-03-07T11:14:00.986Z</time></trkpt><trkpt lat="36.828334" lon="-3.5738474"><ele>214.0</ele><time>2026-03-07T11:14:02.974Z</time></trkpt><trkpt lat="36.8283245" lon="-3.5737478"><ele>214.0</ele><time>2026-03-07T11:14:04.994Z</time></trkpt><trkpt lat="36.8282375" lon="-3.5737236"><ele>214.0</ele><time>2026-03-07T11:14:06.987Z</time></trkpt><trkpt lat="36.8281675" lon="-3.5737496"><ele>213.99999999999997</ele><time>2026-03-07T11:14:07.969Z</time></trkpt><trkpt lat="36.8280808" lon="-3.573801"><ele>214.0</ele><time>2026-03-07T11:14:08.969Z</time></trkpt><trkpt lat="36.827981" lon="-3.5738382"><ele>213.99999999999997</ele><time>2026-03-07T11:14:09.975Z</time></trkpt><trkpt lat="36.827883" lon="-3.573877"><ele>214.0</ele><time>2026-03-07T11:14:10.963Z</time></trkpt><trkpt lat="36.8278007" lon="-3.5738984"><ele>214.0</ele><time>2026-03-07T11:14:11.97Z</time></trkpt><trkpt lat="36.8277258" lon="-3.5739078"><ele>214.0</ele><time>2026-03-07T11:14:12.967Z</time></trkpt><trkpt lat="36.8276542" lon="-3.5739033"><ele>213.99999999999997</ele><time>2026-03-07T11:14:13.969Z</time></trkpt><trkpt lat="36.8275769" lon="-3.5738836"><ele>214.0</ele><time>2026-03-07T11:14:14.966Z</time></trkpt><trkpt lat="36.8275058" lon="-3.5738537"><ele>215.83333333333331</ele><time>2026-03-07T11:14:15.97Z</time></trkpt><trkpt lat="36.8273866" lon="-3.573866"><ele>217.66666666666666</ele><time>2026-03-07T11:14:17.978Z</time></trkpt><trkpt lat="36.8273272" lon="-3.5739196"><ele>219.5</ele><time>2026-03-07T11:14:18.986Z</time></trkpt><trkpt lat="36.8272806" lon="-3.5739729"><ele>221.33333333333331</ele><time>2026-03-07T11:14:19.972Z</time></trkpt><trkpt lat="36.8271884" lon="-3.5739896"><ele>223.16666666666666</ele><time>2026-03-07T11:14:21.967Z</time></trkpt><trkpt lat="36.8271406" lon="-3.573935"><ele>225.0</ele><time>2026-03-07T11:14:22.961Z</time></trkpt><trkpt lat="36.827082" lon="-3.5738691"><ele>225.0</ele><time>2026-03-07T11:14:23.973Z</time></trkpt><trkpt lat="36.8270349" lon="-3.5738156"><ele>225.0</ele><time>2026-03-07T11:14:24.967Z</time></trkpt><trkpt lat="36.82694" lon="-3.5737483"><ele>225.0</ele><time>2026-03-07T11:14:26.972Z</time></trkpt><trkpt lat="36.8268631" lon="-3.5737176"><ele>225.0</ele><time>2026-03-07T11:14:27.971Z</time></trkpt><trkpt lat="36.8267808" lon="-3.5736909"><ele>225.0</ele><time>2026-03-07T11:14:28.973Z</time></trkpt><trkpt lat="36.8267074" lon="-3.5736758"><ele>225.0</ele><time>2026-03-07T11:14:29.987Z</time></trkpt><trkpt lat="36.8265962" lon="-3.5736548"><ele>226.33333333333334</ele><time>2026-03-07T11:14:31.975Z</time></trkpt><trkpt lat="36.8265263" lon="-3.5736924"><ele>227.66666666666669</ele><time>2026-03-07T11:14:33.971Z</time></trkpt><trkpt lat="36.8265056" lon="-3.5738092"><ele>229.0</ele><time>2026-03-07T11:14:35.985Z</time></trkpt><trkpt lat="36.8264881" lon="-3.5738892"><ele>230.33333333333334</ele><time>2026-03-07T11:14:36.995Z</time></trkpt><trkpt lat="36.8264503" lon="-3.5739752"><ele>231.66666666666669</ele><time>2026-03-07T11:14:37.969Z</time></trkpt><trkpt lat="36.8264073" lon="-3.5740654"><ele>233.0</ele><time>2026-03-07T11:14:38.977Z</time></trkpt><trkpt lat="36.8263666" lon="-3.5741504"><ele>233.00000000000003</ele><time>2026-03-07T11:14:39.978Z</time></trkpt><trkpt lat="36.8263271" lon="-3.574239"><ele>233.0</ele><time>2026-03-07T11:14:40.974Z</time></trkpt><trkpt lat="36.8262924" lon="-3.5743242"><ele>233.0</ele><time>2026-03-07T11:14:41.984Z</time></trkpt><trkpt lat="36.826258" lon="-3.574403"><ele>233.0</ele><time>2026-03-07T11:14:42.966Z</time></trkpt><trkpt lat="36.8261968" lon="-3.574504"><ele>233.00000000000003</ele><time>2026-03-07T11:14:44.976Z</time></trkpt><trkpt lat="36.8261097" lon="-3.574501"><ele>233.0</ele><time>2026-03-07T11:14:46.994Z</time></trkpt><trkpt lat="36.826052" lon="-3.5743931"><ele>233.0</ele><time>2026-03-07T11:14:48.971Z</time></trkpt><trkpt lat="36.8260344" lon="-3.5742996"><ele>233.0</ele><time>2026-03-07T11:14:49.969Z</time></trkpt><trkpt lat="36.82601" lon="-3.5741865"><ele>233.0</ele><time>2026-03-07T11:14:50.991Z</time></trkpt><trkpt lat="36.8259804" lon="-3.5740764"><ele>233.0</ele><time>2026-03-07T11:14:51.97Z</time></trkpt><trkpt lat="36.8259383" lon="-3.5739769"><ele>233.0</ele><time>2026-03-07T11:14:52.972Z</time></trkpt><trkpt lat="36.8258749" lon="-3.573878"><ele>234.4</ele><time>2026-03-07T11:14:53.972Z</time></trkpt><trkpt lat="36.8258002" lon="-3.5737997"><ele>235.8</ele><time>2026-03-07T11:14:54.971Z</time></trkpt><trkpt lat="36.8257273" lon="-3.5737494"><ele>237.2</ele><time>2026-03-07T11:14:55.989Z</time></trkpt><trkpt lat="36.8256447" lon="-3.5737382"><ele>238.6</ele><time>2026-03-07T11:14:56.974Z</time></trkpt><trkpt lat="36.8255522" lon="-3.5737483"><ele>240.0</ele><time>2026-03-07T11:14:57.972Z</time></trkpt><trkpt lat="36.8254614" lon="-3.5737745"><ele>240.0</ele><time>2026-03-07T11:14:58.965Z</time></trkpt><trkpt lat="36.8253788" lon="-3.5738122"><ele>240.0</ele><time>2026-03-07T11:14:59.966Z</time></trkpt><trkpt lat="36.8253064" lon="-3.5738511"><ele>240.0</ele><time>2026-03-07T11:15:00.971Z</time></trkpt><trkpt lat="36.8252013" lon="-3.5738148"><ele>240.0</ele><time>2026-03-07T11:15:02.997Z</time></trkpt><trkpt lat="36.8251705" lon="-3.5737408"><ele>240.0</ele><time>2026-03-07T11:15:03.968Z</time></trkpt><trkpt lat="36.8251522" lon="-3.573639"><ele>240.0</ele><time>2026-03-07T11:15:04.999Z</time></trkpt><trkpt lat="36.825134" lon="-3.5735432"><ele>241.16666666666666</ele><time>2026-03-07T11:15:05.984Z</time></trkpt><trkpt lat="36.8251068" lon="-3.5734609"><ele>242.33333333333331</ele><time>2026-03-07T11:15:06.983Z</time></trkpt><trkpt lat="36.8250666" lon="-3.5733994"><ele>243.5</ele><time>2026-03-07T11:15:08.004Z</time></trkpt><trkpt lat="36.8250062" lon="-3.5733655"><ele>244.66666666666666</ele><time>2026-03-07T11:15:09.014Z</time></trkpt><trkpt lat="36.8249273" lon="-3.5733346"><ele>245.83333333333331</ele><time>2026-03-07T11:15:09.966Z</time></trkpt><trkpt lat="36.8248335" lon="-3.5732992"><ele>247.0</ele><time>2026-03-07T11:15:10.996Z</time></trkpt><trkpt lat="36.8247367" lon="-3.5732548"><ele>246.99999999999997</ele><time>2026-03-07T11:15:11.992Z</time></trkpt><trkpt lat="36.8246484" lon="-3.5731995"><ele>247.0</ele><time>2026-03-07T11:15:12.997Z</time></trkpt><trkpt lat="36.8245657" lon="-3.5731371"><ele>247.0</ele><time>2026-03-07T11:15:13.979Z</time></trkpt><trkpt lat="36.8244813" lon="-3.5730852"><ele>247.0</ele><time>2026-03-07T11:15:15.015Z</time></trkpt><trkpt lat="36.8244032" lon="-3.5730412"><ele>246.99999999999997</ele><time>2026-03-07T11:15:16.038Z</time></trkpt><trkpt lat="36.8243375" lon="-3.5730035"><ele>247.0</ele><time>2026-03-07T11:15:17.046Z</time></trkpt><trkpt lat="36.8242576" lon="-3.5729"><ele>246.49999999999997</ele><time>2026-03-07T11:15:18.958Z</time></trkpt><trkpt lat="36.824178" lon="-3.5728087"><ele>246.0</ele><time>2026-03-07T11:15:20.966Z</time></trkpt><trkpt lat="36.8241161" lon="-3.5727768"><ele>245.5</ele><time>2026-03-07T11:15:21.948Z</time></trkpt><trkpt lat="36.8240551" lon="-3.5727344"><ele>245.0</ele><time>2026-03-07T11:15:23.016Z</time></trkpt><trkpt lat="36.8240048" lon="-3.5726802"><ele>244.49999999999997</ele><time>2026-03-07T11:15:23.99Z</time></trkpt><trkpt lat="36.8239611" lon="-3.5726084"><ele>244.0</ele><time>2026-03-07T11:15:25.032Z</time></trkpt><trkpt lat="36.8239272" lon="-3.5725371"><ele>244.0</ele><time>2026-03-07T11:15:25.996Z</time></trkpt><trkpt lat="36.8238547" lon="-3.5724356"><ele>243.99999999999997</ele><time>2026-03-07T11:15:28.073Z</time></trkpt><trkpt lat="36.8237955" lon="-3.5724653"><ele>243.99999999999997</ele><time>2026-03-07T11:15:31.046Z</time></trkpt><trkpt lat="36.8238363" lon="-3.5725561"><ele>244.0</ele><time>2026-03-07T11:15:34.049Z</time></trkpt><trkpt lat="36.8238789" lon="-3.5726956"><ele>244.0</ele><time>2026-03-07T11:15:36.016Z</time></trkpt><trkpt lat="36.8238999" lon="-3.572796"><ele>246.66666666666666</ele><time>2026-03-07T11:15:36.978Z</time></trkpt><trkpt lat="36.8239194" lon="-3.5728917"><ele>249.33333333333331</ele><time>2026-03-07T11:15:38.004Z</time></trkpt><trkpt lat="36.8239306" lon="-3.5729811"><ele>252.0</ele><time>2026-03-07T11:15:39.01Z</time></trkpt><trkpt lat="36.823933" lon="-3.5730722"><ele>254.66666666666669</ele><time>2026-03-07T11:15:39.969Z</time></trkpt><trkpt lat="36.8239253" lon="-3.5731612"><ele>257.33333333333337</ele><time>2026-03-07T11:15:40.991Z</time></trkpt><trkpt lat="36.823909" lon="-3.5732537"><ele>260.0</ele><time>2026-03-07T11:15:41.998Z</time></trkpt><trkpt lat="36.8238887" lon="-3.5733504"><ele>260.0</ele><time>2026-03-07T11:15:43.002Z</time></trkpt><trkpt lat="36.8238651" lon="-3.5734501"><ele>260.0</ele><time>2026-03-07T11:15:43.984Z</time></trkpt><trkpt lat="36.8238412" lon="-3.5735449"><ele>260.0</ele><time>2026-03-07T11:15:44.987Z</time></trkpt><trkpt lat="36.8238329" lon="-3.573635"><ele>260.0</ele><time>2026-03-07T11:15:46.022Z</time></trkpt><trkpt lat="36.823836" lon="-3.5737274"><ele>260.0</ele><time>2026-03-07T11:15:47.011Z</time></trkpt><trkpt lat="36.8238429" lon="-3.5738192"><ele>260.0</ele><time>2026-03-07T11:15:48.003Z</time></trkpt><trkpt lat="36.8238518" lon="-3.5739057"><ele>263.6666666666667</ele><time>2026-03-07T11:15:49.023Z</time></trkpt><trkpt lat="36.8238867" lon="-3.5740288"><ele>267.33333333333337</ele><time>2026-03-07T11:15:50.966Z</time></trkpt><trkpt lat="36.8238602" lon="-3.5741179"><ele>271.0</ele><time>2026-03-07T11:15:53.006Z</time></trkpt><trkpt lat="36.8237588" lon="-3.5741234"><ele>274.6666666666667</ele><time>2026-03-07T11:15:55Z</time></trkpt><trkpt lat="36.823681" lon="-3.5741239"><ele>278.3333333333333</ele><time>2026-03-07T11:15:56.997Z</time></trkpt><trkpt lat="36.823631" lon="-3.5741947"><ele>282.0</ele><time>2026-03-07T11:15:59.018Z</time></trkpt><trkpt lat="36.8235996" lon="-3.5743285"><ele>282.0</ele><time>2026-03-07T11:16:00.995Z</time></trkpt><trkpt lat="36.8235806" lon="-3.5744189"><ele>282.0</ele><time>2026-03-07T11:16:01.978Z</time></trkpt><trkpt lat="36.8235538" lon="-3.5745078"><ele>282.0</ele><time>2026-03-07T11:16:02.988Z</time></trkpt><trkpt lat="36.8234994" lon="-3.5745834"><ele>282.0</ele><time>2026-03-07T11:16:03.995Z</time></trkpt><trkpt lat="36.8234435" lon="-3.5746594"><ele>282.0</ele><time>2026-03-07T11:16:04.998Z</time></trkpt><trkpt lat="36.8234006" lon="-3.5747315"><ele>282.0</ele><time>2026-03-07T11:16:05.998Z</time></trkpt><trkpt lat="36.8233824" lon="-3.5748186"><ele>283.8333333333333</ele><time>2026-03-07T11:16:06.995Z</time></trkpt><trkpt lat="36.8234001" lon="-3.5749162"><ele>285.6666666666667</ele><time>2026-03-07T11:16:07.993Z</time></trkpt><trkpt lat="36.8234135" lon="-3.5750099"><ele>287.5</ele><time>2026-03-07T11:16:08.983Z</time></trkpt><trkpt lat="36.8234356" lon="-3.5751365"><ele>289.33333333333337</ele><time>2026-03-07T11:16:11.029Z</time></trkpt><trkpt lat="36.8234261" lon="-3.5752358"><ele>291.1666666666667</ele><time>2026-03-07T11:16:14.016Z</time></trkpt><trkpt lat="36.8234953" lon="-3.5752154"><ele>293.0</ele><time>2026-03-07T11:16:22.011Z</time></trkpt><trkpt lat="36.8235363" lon="-3.5751172"><ele>297.4</ele><time>2026-03-07T11:16:24.012Z</time></trkpt><trkpt lat="36.8235898" lon="-3.575009"><ele>301.8</ele><time>2026-03-07T11:16:25.991Z</time></trkpt><trkpt lat="36.8236542" lon="-3.5749168"><ele>306.2</ele><time>2026-03-07T11:16:28.001Z</time></trkpt><trkpt lat="36.8237585" lon="-3.5748922"><ele>310.6</ele><time>2026-03-07T11:16:30.01Z</time></trkpt><trkpt lat="36.8238703" lon="-3.5749507"><ele>315.0</ele><time>2026-03-07T11:16:32.003Z</time></trkpt><trkpt lat="36.823959" lon="-3.5750373"><ele>315.0</ele><time>2026-03-07T11:16:33.966Z</time></trkpt><trkpt lat="36.8240368" lon="-3.5750733"><ele>315.0</ele><time>2026-03-07T11:16:36.001Z</time></trkpt><trkpt lat="36.8241445" lon="-3.5750462"><ele>315.0</ele><time>2026-03-07T11:16:38.999Z</time></trkpt><trkpt lat="36.8242412" lon="-3.5750014"><ele>315.0</ele><time>2026-03-07T11:16:41.054Z</time></trkpt><trkpt lat="36.8243034" lon="-3.5750136"><ele>315.0</ele><time>2026-03-07T11:16:42.986Z</time></trkpt><trkpt lat="36.8243223" lon="-3.5751175"><ele>315.0</ele><time>2026-03-07T11:16:44.973Z</time></trkpt><trkpt lat="36.8243515" lon="-3.5752607"><ele>314.0</ele><time>2026-03-07T11:16:46.984Z</time></trkpt><trkpt lat="36.8243464" lon="-3.5753953"><ele>313.0</ele><time>2026-03-07T11:16:48.981Z</time></trkpt><trkpt lat="36.8243808" lon="-3.5755379"><ele>312.0</ele><time>2026-03-07T11:16:50.978Z</time></trkpt><trkpt lat="36.8243995" lon="-3.5756263"><ele>311.0</ele><time>2026-03-07T11:16:51.992Z</time></trkpt><trkpt lat="36.824433" lon="-3.5757818"><ele>310.0</ele><time>2026-03-07T11:16:53.979Z</time></trkpt><trkpt lat="36.824475" lon="-3.5759253"><ele>310.0</ele><time>2026-03-07T11:16:56.019Z</time></trkpt><trkpt lat="36.8244978" lon="-3.576038"><ele>310.0</ele><time>2026-03-07T11:16:57.024Z</time></trkpt><trkpt lat="36.8245126" lon="-3.576132"><ele>310.0</ele><time>2026-03-07T11:16:57.986Z</time></trkpt><trkpt lat="36.8245195" lon="-3.5762106"><ele>310.0</ele><time>2026-03-07T11:16:58.981Z</time></trkpt><trkpt lat="36.8245601" lon="-3.5763417"><ele>310.0</ele><time>2026-03-07T11:17:01.006Z</time></trkpt><trkpt lat="36.8246434" lon="-3.5764706"><ele>314.5</ele><time>2026-03-07T11:17:02.987Z</time></trkpt><trkpt lat="36.8246945" lon="-3.5765469"><ele>319.0</ele><time>2026-03-07T11:17:04.012Z</time></trkpt><trkpt lat="36.8247467" lon="-3.5766261"><ele>323.5</ele><time>2026-03-07T11:17:05.022Z</time></trkpt><trkpt lat="36.8247997" lon="-3.5766934"><ele>328.0</ele><time>2026-03-07T11:17:05.994Z</time></trkpt><trkpt lat="36.8248498" lon="-3.5767561"><ele>332.5</ele><time>2026-03-07T11:17:06.994Z</time></trkpt><trkpt lat="36.8249068" lon="-3.5768127"><ele>337.0</ele><time>2026-03-07T11:17:07.972Z</time></trkpt><trkpt lat="36.8249521" lon="-3.5768982"><ele>337.0</ele><time>2026-03-07T11:17:08.974Z</time></trkpt><trkpt lat="36.8250022" lon="-3.5769711"><ele>337.0</ele><time>2026-03-07T11:17:09.975Z</time></trkpt><trkpt lat="36.8250474" lon="-3.5770302"><ele>337.0</ele><time>2026-03-07T11:17:11Z</time></trkpt><trkpt lat="36.8251505" lon="-3.5771111"><ele>337.0</ele><time>2026-03-07T11:17:12.994Z</time></trkpt><trkpt lat="36.8252137" lon="-3.5771288"><ele>337.0</ele><time>2026-03-07T11:17:14.036Z</time></trkpt><trkpt lat="36.8253231" lon="-3.5770926"><ele>337.0</ele><time>2026-03-07T11:17:15.996Z</time></trkpt><trkpt lat="36.8254271" lon="-3.5770103"><ele>335.16666666666663</ele><time>2026-03-07T11:17:17.993Z</time></trkpt><trkpt lat="36.825554" lon="-3.5770078"><ele>333.3333333333333</ele><time>2026-03-07T11:17:19.984Z</time></trkpt><trkpt lat="36.8256258" lon="-3.5770277"><ele>331.5</ele><time>2026-03-07T11:17:20.984Z</time></trkpt><trkpt lat="36.8256993" lon="-3.5770378"><ele>329.6666666666667</ele><time>2026-03-07T11:17:22.001Z</time></trkpt><trkpt lat="36.8257677" lon="-3.5770353"><ele>327.83333333333337</ele><time>2026-03-07T11:17:22.985Z</time></trkpt><trkpt lat="36.8258406" lon="-3.5770364"><ele>326.0</ele><time>2026-03-07T11:17:23.994Z</time></trkpt><trkpt lat="36.8259171" lon="-3.5770557"><ele>326.1666666666667</ele><time>2026-03-07T11:17:25.004Z</time></trkpt><trkpt lat="36.8259915" lon="-3.5770617"><ele>326.33333333333337</ele><time>2026-03-07T11:17:25.999Z</time></trkpt><trkpt lat="36.8260684" lon="-3.5770587"><ele>326.5</ele><time>2026-03-07T11:17:26.986Z</time></trkpt><trkpt lat="36.8261391" lon="-3.5770438"><ele>326.6666666666667</ele><time>2026-03-07T11:17:27.99Z</time></trkpt><trkpt lat="36.8262022" lon="-3.5770424"><ele>326.8333333333333</ele><time>2026-03-07T11:17:28.998Z</time></trkpt><trkpt lat="36.8263087" lon="-3.5770372"><ele>327.0</ele><time>2026-03-07T11:17:31.001Z</time></trkpt><trkpt lat="36.826399" lon="-3.5770099"><ele>327.0</ele><time>2026-03-07T11:17:32.983Z</time></trkpt><trkpt lat="36.8264917" lon="-3.5769984"><ele>327.0</ele><time>2026-03-07T11:17:34.977Z</time></trkpt><trkpt lat="36.8265644" lon="-3.5770317"><ele>327.0</ele><time>2026-03-07T11:17:37.015Z</time></trkpt><trkpt lat="36.8266133" lon="-3.5771156"><ele>327.0</ele><time>2026-03-07T11:17:38.98Z</time></trkpt><trkpt lat="36.8266606" lon="-3.5772425"><ele>327.0</ele><time>2026-03-07T11:17:40.996Z</time></trkpt><trkpt lat="36.8266893" lon="-3.5773132"><ele>327.0</ele><time>2026-03-07T11:17:41.998Z</time></trkpt><trkpt lat="36.8267255" lon="-3.5773912"><ele>326.8333333333333</ele><time>2026-03-07T11:17:43.005Z</time></trkpt><trkpt lat="36.8267595" lon="-3.57748"><ele>326.6666666666667</ele><time>2026-03-07T11:17:43.984Z</time></trkpt><trkpt lat="36.8267972" lon="-3.577576"><ele>326.5</ele><time>2026-03-07T11:17:45.001Z</time></trkpt><trkpt lat="36.8268296" lon="-3.5776539"><ele>326.33333333333337</ele><time>2026-03-07T11:17:45.986Z</time></trkpt><trkpt lat="36.8268749" lon="-3.5777989"><ele>326.1666666666667</ele><time>2026-03-07T11:17:48.002Z</time></trkpt><trkpt lat="36.8268748" lon="-3.5778816"><ele>326.0</ele><time>2026-03-07T11:17:48.997Z</time></trkpt><trkpt lat="36.8268573" lon="-3.5780072"><ele>331.20000000000005</ele><time>2026-03-07T11:17:51.004Z</time></trkpt><trkpt lat="36.8268447" lon="-3.578114"><ele>336.40000000000003</ele><time>2026-03-07T11:17:52.997Z</time></trkpt><trkpt lat="36.8268387" lon="-3.5782366"><ele>341.6</ele><time>2026-03-07T11:17:54.995Z</time></trkpt><trkpt lat="36.8268489" lon="-3.5783596"><ele>346.8</ele><time>2026-03-07T11:17:57.024Z</time></trkpt><trkpt lat="36.8268634" lon="-3.5784941"><ele>352.0</ele><time>2026-03-07T11:17:59Z</time></trkpt><trkpt lat="36.8268964" lon="-3.578617"><ele>358.40000000000003</ele><time>2026-03-07T11:18:00.981Z</time></trkpt><trkpt lat="36.8269616" lon="-3.5787225"><ele>364.8</ele><time>2026-03-07T11:18:03.013Z</time></trkpt><trkpt lat="36.8269792" lon="-3.578848"><ele>371.2</ele><time>2026-03-07T11:18:04.989Z</time></trkpt><trkpt lat="36.8269792" lon="-3.5789769"><ele>377.6</ele><time>2026-03-07T11:18:07.029Z</time></trkpt><trkpt lat="36.8269808" lon="-3.5790718"><ele>384.0</ele><time>2026-03-07T11:18:09.022Z</time></trkpt><trkpt lat="36.8270406" lon="-3.5792015"><ele>384.0</ele><time>2026-03-07T11:18:10.978Z</time></trkpt><trkpt lat="36.8270945" lon="-3.5792567"><ele>384.0</ele><time>2026-03-07T11:18:11.966Z</time></trkpt><trkpt lat="36.8271825" lon="-3.579293"><ele>384.0</ele><time>2026-03-07T11:18:13.972Z</time></trkpt><trkpt lat="36.8271864" lon="-3.5793738"><ele>384.0</ele><time>2026-03-07T11:18:18.983Z</time></trkpt><trkpt lat="36.8270826" lon="-3.5794147"><ele>384.0</ele><time>2026-03-07T11:18:20.99Z</time></trkpt><trkpt lat="36.8269754" lon="-3.5793859"><ele>384.0</ele><time>2026-03-07T11:18:22.972Z</time></trkpt><trkpt lat="36.8269072" lon="-3.579248"><ele>384.0</ele><time>2026-03-07T11:18:24.967Z</time></trkpt><trkpt lat="36.8268708" lon="-3.5791615"><ele>384.0</ele><time>2026-03-07T11:18:25.989Z</time></trkpt><trkpt lat="36.8268434" lon="-3.5790782"><ele>384.0</ele><time>2026-03-07T11:18:26.971Z</time></trkpt><trkpt lat="36.8268106" lon="-3.579002"><ele>384.0</ele><time>2026-03-07T11:18:27.965Z</time></trkpt><trkpt lat="36.8267391" lon="-3.5789346"><ele>384.0</ele><time>2026-03-07T11:18:28.984Z</time></trkpt><trkpt lat="36.8266627" lon="-3.5788723"><ele>384.0</ele><time>2026-03-07T11:18:29.985Z</time></trkpt><trkpt lat="36.8265994" lon="-3.5788105"><ele>382.3333333333333</ele><time>2026-03-07T11:18:30.98Z</time></trkpt><trkpt lat="36.8265476" lon="-3.5787385"><ele>380.6666666666667</ele><time>2026-03-07T11:18:31.983Z</time></trkpt><trkpt lat="36.826509" lon="-3.5786474"><ele>379.0</ele><time>2026-03-07T11:18:32.993Z</time></trkpt><trkpt lat="36.8264839" lon="-3.5785448"><ele>377.33333333333337</ele><time>2026-03-07T11:18:33.975Z</time></trkpt><trkpt lat="36.8264458" lon="-3.5784531"><ele>375.6666666666667</ele><time>2026-03-07T11:18:34.971Z</time></trkpt><trkpt lat="36.8264023" lon="-3.5783729"><ele>374.0</ele><time>2026-03-07T11:18:35.978Z</time></trkpt><trkpt lat="36.8263559" lon="-3.5782921"><ele>374.0</ele><time>2026-03-07T11:18:36.975Z</time></trkpt><trkpt lat="36.8263093" lon="-3.5782073"><ele>374.0</ele><time>2026-03-07T11:18:37.976Z</time></trkpt><trkpt lat="36.8262769" lon="-3.5781211"><ele>374.0</ele><time>2026-03-07T11:18:38.965Z</time></trkpt><trkpt lat="36.826251" lon="-3.5780488"><ele>374.0</ele><time>2026-03-07T11:18:39.969Z</time></trkpt><trkpt lat="36.8262241" lon="-3.5779317"><ele>374.0</ele><time>2026-03-07T11:18:41.982Z</time></trkpt><trkpt lat="36.8261668" lon="-3.5778631"><ele>374.0</ele><time>2026-03-07T11:18:43.962Z</time></trkpt><trkpt lat="36.8260654" lon="-3.5778613"><ele>378.5</ele><time>2026-03-07T11:18:45.968Z</time></trkpt><trkpt lat="36.8259567" lon="-3.5778996"><ele>383.0</ele><time>2026-03-07T11:18:47.984Z</time></trkpt><trkpt lat="36.8258956" lon="-3.5779267"><ele>387.5</ele><time>2026-03-07T11:18:48.973Z</time></trkpt><trkpt lat="36.8258281" lon="-3.5779681"><ele>392.0</ele><time>2026-03-07T11:18:49.97Z</time></trkpt><trkpt lat="36.8257563" lon="-3.5780067"><ele>396.49999999999994</ele><time>2026-03-07T11:18:50.979Z</time></trkpt><trkpt lat="36.8256884" lon="-3.5780442"><ele>401.0</ele><time>2026-03-07T11:18:51.969Z</time></trkpt><trkpt lat="36.8256166" lon="-3.5780703"><ele>400.99999999999994</ele><time>2026-03-07T11:18:52.979Z</time></trkpt><trkpt lat="36.8255275" lon="-3.5780811"><ele>401.0</ele><time>2026-03-07T11:18:53.983Z</time></trkpt><trkpt lat="36.8254394" lon="-3.5780793"><ele>401.0</ele><time>2026-03-07T11:18:54.992Z</time></trkpt><trkpt lat="36.8253649" lon="-3.5780841"><ele>401.0</ele><time>2026-03-07T11:18:56.002Z</time></trkpt><trkpt lat="36.8253014" lon="-3.578081"><ele>400.99999999999994</ele><time>2026-03-07T11:18:56.97Z</time></trkpt><trkpt lat="36.8252326" lon="-3.5780568"><ele>401.0</ele><time>2026-03-07T11:18:57.973Z</time></trkpt><trkpt lat="36.8251735" lon="-3.5780262"><ele>400.49999999999994</ele><time>2026-03-07T11:18:58.974Z</time></trkpt><trkpt lat="36.8251105" lon="-3.5780114"><ele>400.0</ele><time>2026-03-07T11:18:59.974Z</time></trkpt><trkpt lat="36.8250347" lon="-3.5780173"><ele>399.5</ele><time>2026-03-07T11:19:01.021Z</time></trkpt><trkpt lat="36.8249537" lon="-3.5780151"><ele>399.0</ele><time>2026-03-07T11:19:01.981Z</time></trkpt><trkpt lat="36.8248784" lon="-3.5780048"><ele>398.49999999999994</ele><time>2026-03-07T11:19:02.969Z</time></trkpt><trkpt lat="36.824807" lon="-3.5780027"><ele>398.0</ele><time>2026-03-07T11:19:03.986Z</time></trkpt><trkpt lat="36.8247027" lon="-3.5779698"><ele>397.99999999999994</ele><time>2026-03-07T11:19:05.978Z</time></trkpt><trkpt lat="36.8246479" lon="-3.5779235"><ele>398.0</ele><time>2026-03-07T11:19:06.984Z</time></trkpt><trkpt lat="36.8245894" lon="-3.5778692"><ele>398.0</ele><time>2026-03-07T11:19:07.987Z</time></trkpt><trkpt lat="36.8245279" lon="-3.5778053"><ele>398.0</ele><time>2026-03-07T11:19:08.976Z</time></trkpt><trkpt lat="36.8244731" lon="-3.5777473"><ele>397.99999999999994</ele><time>2026-03-07T11:19:09.974Z</time></trkpt><trkpt lat="36.8243694" lon="-3.5777003"><ele>398.0</ele><time>2026-03-07T11:19:11.976Z</time></trkpt><trkpt lat="36.8242681" lon="-3.577758"><ele>399.79999999999995</ele><time>2026-03-07T11:19:13.971Z</time></trkpt><trkpt lat="36.8241661" lon="-3.5778467"><ele>401.6</ele><time>2026-03-07T11:19:15.998Z</time></trkpt><trkpt lat="36.8241132" lon="-3.5779828"><ele>403.4</ele><time>2026-03-07T11:19:18Z</time></trkpt><trkpt lat="36.8240392" lon="-3.5781075"><ele>405.20000000000005</ele><time>2026-03-07T11:19:19.975Z</time></trkpt><trkpt lat="36.8239773" lon="-3.5781402"><ele>407.0</ele><time>2026-03-07T11:19:20.969Z</time></trkpt><trkpt lat="36.8239124" lon="-3.5781546"><ele>407.0</ele><time>2026-03-07T11:19:21.979Z</time></trkpt><trkpt lat="36.8238073" lon="-3.5782047"><ele>407.0</ele><time>2026-03-07T11:19:23.969Z</time></trkpt><trkpt lat="36.8237381" lon="-3.5783032"><ele>407.0</ele><time>2026-03-07T11:19:25.971Z</time></trkpt><trkpt lat="36.823704" lon="-3.5783722"><ele>407.0</ele><time>2026-03-07T11:19:26.976Z</time></trkpt><trkpt lat="36.8236703" lon="-3.5784478"><ele>407.0</ele><time>2026-03-07T11:19:27.994Z</time></trkpt><trkpt lat="36.8236664" lon="-3.5785961"><ele>406.99999999999994</ele><time>2026-03-07T11:19:29.979Z</time></trkpt><trkpt lat="36.823696" lon="-3.5786684"><ele>407.0</ele><time>2026-03-07T11:19:30.976Z</time></trkpt><trkpt lat="36.8237434" lon="-3.5787275"><ele>407.0</ele><time>2026-03-07T11:19:31.981Z</time></trkpt><trkpt lat="36.8238625" lon="-3.578736"><ele>407.0</ele><time>2026-03-07T11:19:34.016Z</time></trkpt><trkpt lat="36.8239293" lon="-3.5787073"><ele>406.99999999999994</ele><time>2026-03-07T11:19:34.994Z</time></trkpt><trkpt lat="36.8239989" lon="-3.578672"><ele>407.0</ele><time>2026-03-07T11:19:35.975Z</time></trkpt><trkpt lat="36.8240672" lon="-3.5786417"><ele>407.0</ele><time>2026-03-07T11:19:36.97Z</time></trkpt><trkpt lat="36.8241532" lon="-3.578513"><ele>407.0</ele><time>2026-03-07T11:19:38.982Z</time></trkpt><trkpt lat="36.824202" lon="-3.5784455"><ele>407.0</ele><time>2026-03-07T11:19:39.972Z</time></trkpt><trkpt lat="36.82425" lon="-3.5783895"><ele>407.0</ele><time>2026-03-07T11:19:40.989Z</time></trkpt><trkpt lat="36.8243492" lon="-3.578377"><ele>407.0</ele><time>2026-03-07T11:19:42.972Z</time></trkpt><trkpt lat="36.8244135" lon="-3.5785012"><ele>405.20000000000005</ele><time>2026-03-07T11:19:44.984Z</time></trkpt><trkpt lat="36.824437" lon="-3.5785896"><ele>403.4</ele><time>2026-03-07T11:19:45.991Z</time></trkpt><trkpt lat="36.8244279" lon="-3.5787341"><ele>401.6</ele><time>2026-03-07T11:19:47.978Z</time></trkpt><trkpt lat="36.824353" lon="-3.578837"><ele>399.79999999999995</ele><time>2026-03-07T11:19:49.975Z</time></trkpt><trkpt lat="36.8242587" lon="-3.5789153"><ele>398.0</ele><time>2026-03-07T11:19:51.981Z</time></trkpt><trkpt lat="36.8241901" lon="-3.5790344"><ele>403.59999999999997</ele><time>2026-03-07T11:19:53.983Z</time></trkpt><trkpt lat="36.8241327" lon="-3.5791541"><ele>409.2</ele><time>2026-03-07T11:19:55.981Z</time></trkpt><trkpt lat="36.8240158" lon="-3.5792416"><ele>414.8</ele><time>2026-03-07T11:19:57.984Z</time></trkpt><trkpt lat="36.8239531" lon="-3.5792781"><ele>420.4</ele><time>2026-03-07T11:19:58.963Z</time></trkpt><trkpt lat="36.8238877" lon="-3.5792824"><ele>426.0</ele><time>2026-03-07T11:19:59.972Z</time></trkpt><trkpt lat="36.8238136" lon="-3.579268"><ele>426.0</ele><time>2026-03-07T11:20:00.976Z</time></trkpt><trkpt lat="36.8237482" lon="-3.5792606"><ele>426.0</ele><time>2026-03-07T11:20:01.981Z</time></trkpt><trkpt lat="36.8236398" lon="-3.5792844"><ele>426.0</ele><time>2026-03-07T11:20:03.976Z</time></trkpt><trkpt lat="36.8235842" lon="-3.5793287"><ele>426.0</ele><time>2026-03-07T11:20:06.978Z</time></trkpt><trkpt lat="36.8236036" lon="-3.5794778"><ele>426.0</ele><time>2026-03-07T11:20:09.981Z</time></trkpt><trkpt lat="36.8236093" lon="-3.5795642"><ele>426.0</ele><time>2026-03-07T11:20:10.982Z</time></trkpt><trkpt lat="36.8236123" lon="-3.5796629"><ele>429.4</ele><time>2026-03-07T11:20:11.988Z</time></trkpt><trkpt lat="36.8236357" lon="-3.5798108"><ele>432.8</ele><time>2026-03-07T11:20:13.971Z</time></trkpt><trkpt lat="36.8236746" lon="-3.5799154"><ele>436.19999999999993</ele><time>2026-03-07T11:20:15.979Z</time></trkpt><trkpt lat="36.8237647" lon="-3.57988"><ele>439.59999999999997</ele><time>2026-03-07T11:20:18.005Z</time></trkpt><trkpt lat="36.8238799" lon="-3.5798001"><ele>443.0</ele><time>2026-03-07T11:20:19.972Z</time></trkpt><trkpt lat="36.8239577" lon="-3.5797753"><ele>442.99999999999994</ele><time>2026-03-07T11:20:20.976Z</time></trkpt><trkpt lat="36.8240437" lon="-3.5797807"><ele>443.0</ele><time>2026-03-07T11:20:21.973Z</time></trkpt><trkpt lat="36.8241287" lon="-3.5797699"><ele>443.0</ele><time>2026-03-07T11:20:22.986Z</time></trkpt><trkpt lat="36.8242078" lon="-3.5797147"><ele>443.0</ele><time>2026-03-07T11:20:23.98Z</time></trkpt><trkpt lat="36.8242775" lon="-3.5796509"><ele>442.99999999999994</ele><time>2026-03-07T11:20:24.99Z</time></trkpt><trkpt lat="36.8243517" lon="-3.5795978"><ele>443.0</ele><time>2026-03-07T11:20:25.985Z</time></trkpt><trkpt lat="36.8244266" lon="-3.5795551"><ele>443.99999999999994</ele><time>2026-03-07T11:20:26.981Z</time></trkpt><trkpt lat="36.8244976" lon="-3.579518"><ele>445.0</ele><time>2026-03-07T11:20:27.979Z</time></trkpt><trkpt lat="36.8245715" lon="-3.5794937"><ele>446.0</ele><time>2026-03-07T11:20:28.975Z</time></trkpt><trkpt lat="36.8246448" lon="-3.5794822"><ele>447.0</ele><time>2026-03-07T11:20:29.993Z</time></trkpt><trkpt lat="36.8247156" lon="-3.5794831"><ele>447.99999999999994</ele><time>2026-03-07T11:20:30.983Z</time></trkpt><trkpt lat="36.8247843" lon="-3.5795048"><ele>449.0</ele><time>2026-03-07T11:20:31.981Z</time></trkpt><trkpt lat="36.8248653" lon="-3.5795328"><ele>446.3333333333333</ele><time>2026-03-07T11:20:32.989Z</time></trkpt><trkpt lat="36.8249483" lon="-3.5795151"><ele>443.66666666666663</ele><time>2026-03-07T11:20:33.97Z</time></trkpt><trkpt lat="36.8250405" lon="-3.5794694"><ele>441.0</ele><time>2026-03-07T11:20:34.967Z</time></trkpt><trkpt lat="36.8251281" lon="-3.5794454"><ele>438.33333333333337</ele><time>2026-03-07T11:20:35.971Z</time></trkpt><trkpt lat="36.825204" lon="-3.579433"><ele>435.6666666666667</ele><time>2026-03-07T11:20:36.97Z</time></trkpt><trkpt lat="36.8252734" lon="-3.5794567"><ele>433.0</ele><time>2026-03-07T11:20:37.976Z</time></trkpt><trkpt lat="36.8253365" lon="-3.5795127"><ele>435.6666666666667</ele><time>2026-03-07T11:20:38.983Z</time></trkpt><trkpt lat="36.825389" lon="-3.5795763"><ele>438.33333333333337</ele><time>2026-03-07T11:20:39.976Z</time></trkpt><trkpt lat="36.8254462" lon="-3.5796098"><ele>441.0</ele><time>2026-03-07T11:20:40.978Z</time></trkpt><trkpt lat="36.8255145" lon="-3.5796184"><ele>443.66666666666663</ele><time>2026-03-07T11:20:41.971Z</time></trkpt><trkpt lat="36.8256072" lon="-3.579612"><ele>446.3333333333333</ele><time>2026-03-07T11:20:42.977Z</time></trkpt><trkpt lat="36.8257074" lon="-3.5795982"><ele>449.0</ele><time>2026-03-07T11:20:43.978Z</time></trkpt><trkpt lat="36.825794" lon="-3.5795829"><ele>449.0</ele><time>2026-03-07T11:20:44.969Z</time></trkpt><trkpt lat="36.8258716" lon="-3.5795511"><ele>449.0</ele><time>2026-03-07T11:20:45.975Z</time></trkpt><trkpt lat="36.8259493" lon="-3.5795181"><ele>449.0</ele><time>2026-03-07T11:20:46.971Z</time></trkpt><trkpt lat="36.8260553" lon="-3.5794923"><ele>449.0</ele><time>2026-03-07T11:20:48.98Z</time></trkpt><trkpt lat="36.8260901" lon="-3.5795984"><ele>449.0</ele><time>2026-03-07T11:20:51.968Z</time></trkpt><trkpt lat="36.826008" lon="-3.579685"><ele>448.99999999999994</ele><time>2026-03-07T11:20:54.009Z</time></trkpt><trkpt lat="36.8259487" lon="-3.579726"><ele>449.0</ele><time>2026-03-07T11:20:55.011Z</time></trkpt><trkpt lat="36.8258706" lon="-3.5797843"><ele>449.0</ele><time>2026-03-07T11:20:55.989Z</time></trkpt><trkpt lat="36.825798" lon="-3.5798224"><ele>449.0</ele><time>2026-03-07T11:20:56.979Z</time></trkpt><trkpt lat="36.8257258" lon="-3.5798675"><ele>448.99999999999994</ele><time>2026-03-07T11:20:57.981Z</time></trkpt><trkpt lat="36.825666" lon="-3.5799229"><ele>449.0</ele><time>2026-03-07T11:20:58.979Z</time></trkpt><trkpt lat="36.8256118" lon="-3.5800074"><ele>449.0</ele><time>2026-03-07T11:20:59.979Z</time></trkpt><trkpt lat="36.8255639" lon="-3.580093"><ele>449.0</ele><time>2026-03-07T11:21:00.982Z</time></trkpt><trkpt lat="36.8255207" lon="-3.5801533"><ele>449.0</ele><time>2026-03-07T11:21:01.98Z</time></trkpt><trkpt lat="36.8254093" lon="-3.5801826"><ele>449.0</ele><time>2026-03-07T11:21:03.972Z</time></trkpt><trkpt lat="36.8253463" lon="-3.580166"><ele>449.0</ele><time>2026-03-07T11:21:04.997Z</time></trkpt><trkpt lat="36.8252061" lon="-3.5801782"><ele>449.0</ele><time>2026-03-07T11:21:06.966Z</time></trkpt><trkpt lat="36.8251288" lon="-3.580204"><ele>449.0</ele><time>2026-03-07T11:21:07.985Z</time></trkpt><trkpt lat="36.8250327" lon="-3.5802265"><ele>449.0</ele><time>2026-03-07T11:21:08.972Z</time></trkpt><trkpt lat="36.8249314" lon="-3.5802706"><ele>449.0</ele><time>2026-03-07T11:21:09.975Z</time></trkpt><trkpt lat="36.8248367" lon="-3.5803116"><ele>449.0</ele><time>2026-03-07T11:21:10.97Z</time></trkpt><trkpt lat="36.8247525" lon="-3.580353"><ele>455.4</ele><time>2026-03-07T11:21:11.975Z</time></trkpt><trkpt lat="36.8246752" lon="-3.5803847"><ele>461.79999999999995</ele><time>2026-03-07T11:21:12.97Z</time></trkpt><trkpt lat="36.8245945" lon="-3.5804274"><ele>468.20000000000005</ele><time>2026-03-07T11:21:13.97Z</time></trkpt><trkpt lat="36.824508" lon="-3.5804891"><ele>474.6</ele><time>2026-03-07T11:21:14.987Z</time></trkpt><trkpt lat="36.8244191" lon="-3.5805599"><ele>481.0</ele><time>2026-03-07T11:21:15.989Z</time></trkpt><trkpt lat="36.8243297" lon="-3.5806213"><ele>479.50000000000006</ele><time>2026-03-07T11:21:16.973Z</time></trkpt><trkpt lat="36.8242512" lon="-3.5806853"><ele>478.0</ele><time>2026-03-07T11:21:17.973Z</time></trkpt><trkpt lat="36.8241805" lon="-3.5807203"><ele>476.5</ele><time>2026-03-07T11:21:18.978Z</time></trkpt><trkpt lat="36.8241227" lon="-3.5807559"><ele>475.0</ele><time>2026-03-07T11:21:19.991Z</time></trkpt><trkpt lat="36.8240657" lon="-3.5807989"><ele>473.50000000000006</ele><time>2026-03-07T11:21:20.977Z</time></trkpt><trkpt lat="36.8240068" lon="-3.5808516"><ele>472.0</ele><time>2026-03-07T11:21:21.967Z</time></trkpt><trkpt lat="36.8239564" lon="-3.5809241"><ele>472.00000000000006</ele><time>2026-03-07T11:21:22.984Z</time></trkpt><trkpt lat="36.8239155" lon="-3.5809998"><ele>472.0</ele><time>2026-03-07T11:21:23.973Z</time></trkpt><trkpt lat="36.8238749" lon="-3.5810709"><ele>472.0</ele><time>2026-03-07T11:21:24.972Z</time></trkpt><trkpt lat="36.8238299" lon="-3.581133"><ele>472.0</ele><time>2026-03-07T11:21:25.974Z</time></trkpt><trkpt lat="36.8237839" lon="-3.5811969"><ele>472.00000000000006</ele><time>2026-03-07T11:21:26.982Z</time></trkpt><trkpt lat="36.8237362" lon="-3.5812638"><ele>472.0</ele><time>2026-03-07T11:21:27.969Z</time></trkpt><trkpt lat="36.8236438" lon="-3.5813562"><ele>474.00000000000006</ele><time>2026-03-07T11:21:29.994Z</time></trkpt><trkpt lat="36.8235453" lon="-3.5814465"><ele>476.0</ele><time>2026-03-07T11:21:31.979Z</time></trkpt><trkpt lat="36.8234948" lon="-3.5815184"><ele>478.0</ele><time>2026-03-07T11:21:32.975Z</time></trkpt><trkpt lat="36.823452" lon="-3.5815991"><ele>480.0</ele><time>2026-03-07T11:21:33.973Z</time></trkpt><trkpt lat="36.8234271" lon="-3.5816845"><ele>482.00000000000006</ele><time>2026-03-07T11:21:34.971Z</time></trkpt><trkpt lat="36.8234049" lon="-3.5817711"><ele>484.0</ele><time>2026-03-07T11:21:35.979Z</time></trkpt><trkpt lat="36.8233761" lon="-3.5818423"><ele>484.00000000000006</ele><time>2026-03-07T11:21:36.973Z</time></trkpt><trkpt lat="36.8233129" lon="-3.5819075"><ele>484.0</ele><time>2026-03-07T11:21:38.996Z</time></trkpt><trkpt lat="36.8231911" lon="-3.5818833"><ele>484.0</ele><time>2026-03-07T11:21:40.984Z</time></trkpt><trkpt lat="36.8231257" lon="-3.58187"><ele>484.0</ele><time>2026-03-07T11:21:41.981Z</time></trkpt><trkpt lat="36.8230623" lon="-3.5818789"><ele>484.00000000000006</ele><time>2026-03-07T11:21:42.976Z</time></trkpt><trkpt lat="36.8229986" lon="-3.5819002"><ele>484.0</ele><time>2026-03-07T11:21:43.992Z</time></trkpt><trkpt lat="36.8229347" lon="-3.5819299"><ele>484.00000000000006</ele><time>2026-03-07T11:21:44.978Z</time></trkpt><trkpt lat="36.8228695" lon="-3.5819586"><ele>484.0</ele><time>2026-03-07T11:21:45.972Z</time></trkpt><trkpt lat="36.8228012" lon="-3.5819842"><ele>484.0</ele><time>2026-03-07T11:21:46.978Z</time></trkpt><trkpt lat="36.8227362" lon="-3.5820138"><ele>484.0</ele><time>2026-03-07T11:21:47.987Z</time></trkpt><trkpt lat="36.8226699" lon="-3.5820428"><ele>484.00000000000006</ele><time>2026-03-07T11:21:48.974Z</time></trkpt><trkpt lat="36.8225829" lon="-3.5820797"><ele>484.0</ele><time>2026-03-07T11:21:50.972Z</time></trkpt><trkpt lat="36.8225374" lon="-3.5821651"><ele>488.6</ele><time>2026-03-07T11:21:53.989Z</time></trkpt><trkpt lat="36.8224958" lon="-3.5822367"><ele>493.2</ele><time>2026-03-07T11:21:55.995Z</time></trkpt><trkpt lat="36.822421" lon="-3.5823265"><ele>497.80000000000007</ele><time>2026-03-07T11:21:58.006Z</time></trkpt><trkpt lat="36.8223434" lon="-3.5824372"><ele>502.40000000000003</ele><time>2026-03-07T11:22:00.009Z</time></trkpt><trkpt lat="36.8222693" lon="-3.5825581"><ele>507.0</ele><time>2026-03-07T11:22:02.013Z</time></trkpt><trkpt lat="36.8222213" lon="-3.5826184"><ele>507.0</ele><time>2026-03-07T11:22:02.977Z</time></trkpt><trkpt lat="36.8221753" lon="-3.5826735"><ele>507.0</ele><time>2026-03-07T11:22:04.015Z</time></trkpt><trkpt lat="36.8221193" lon="-3.5827255"><ele>507.0</ele><time>2026-03-07T11:22:06.007Z</time></trkpt><trkpt lat="36.8220503" lon="-3.5826806"><ele>507.0</ele><time>2026-03-07T11:22:08.002Z</time></trkpt><trkpt lat="36.8219622" lon="-3.5826129"><ele>507.0</ele><time>2026-03-07T11:22:09.993Z</time></trkpt><trkpt lat="36.8219015" lon="-3.5825753"><ele>507.0</ele><time>2026-03-07T11:22:10.989Z</time></trkpt><trkpt lat="36.8218393" lon="-3.5825364"><ele>508.6666666666667</ele><time>2026-03-07T11:22:11.995Z</time></trkpt><trkpt lat="36.8217657" lon="-3.5824944"><ele>510.33333333333337</ele><time>2026-03-07T11:22:13.015Z</time></trkpt><trkpt lat="36.8216963" lon="-3.5824534"><ele>512.0</ele><time>2026-03-07T11:22:13.984Z</time></trkpt><trkpt lat="36.8216298" lon="-3.5824187"><ele>513.6666666666667</ele><time>2026-03-07T11:22:15.012Z</time></trkpt><trkpt lat="36.8215191" lon="-3.5824126"><ele>515.3333333333334</ele><time>2026-03-07T11:22:16.974Z</time></trkpt><trkpt lat="36.8215214" lon="-3.5825038"><ele>517.0</ele><time>2026-03-07T11:22:18.97Z</time></trkpt><trkpt lat="36.8215717" lon="-3.5825543"><ele>517.0</ele><time>2026-03-07T11:22:20Z</time></trkpt><trkpt lat="36.8216303" lon="-3.582602"><ele>517.0</ele><time>2026-03-07T11:22:20.972Z</time></trkpt><trkpt lat="36.8216805" lon="-3.582656"><ele>517.0</ele><time>2026-03-07T11:22:21.984Z</time></trkpt><trkpt lat="36.8217202" lon="-3.5827294"><ele>517.0</ele><time>2026-03-07T11:22:23Z</time></trkpt><trkpt lat="36.8217522" lon="-3.5828046"><ele>517.0</ele><time>2026-03-07T11:22:23.999Z</time></trkpt><trkpt lat="36.8217894" lon="-3.5828845"><ele>517.0</ele><time>2026-03-07T11:22:24.981Z</time></trkpt><trkpt lat="36.8218277" lon="-3.5829524"><ele>517.0</ele><time>2026-03-07T11:22:26.093Z</time></trkpt><trkpt lat="36.8218876" lon="-3.5830614"><ele>519.8000000000001</ele><time>2026-03-07T11:22:27.984Z</time></trkpt><trkpt lat="36.8218897" lon="-3.5831656"><ele>522.6</ele><time>2026-03-07T11:22:30.01Z</time></trkpt><trkpt lat="36.821904" lon="-3.583283"><ele>525.4000000000001</ele><time>2026-03-07T11:22:39.995Z</time></trkpt><trkpt lat="36.8217662" lon="-3.5832726"><ele>528.2</ele><time>2026-03-07T11:22:51.994Z</time></trkpt><trkpt lat="36.8216867" lon="-3.5832568"><ele>531.0</ele><time>2026-03-07T11:22:54.033Z</time></trkpt><trkpt lat="36.8216834" lon="-3.583361"><ele>531.0</ele><time>2026-03-07T11:22:57.022Z</time></trkpt><trkpt lat="36.8217715" lon="-3.5834787"><ele>531.0</ele><time>2026-03-07T11:22:59.003Z</time></trkpt><trkpt lat="36.8218055" lon="-3.5835608"><ele>531.0</ele><time>2026-03-07T11:23:00.024Z</time></trkpt><trkpt lat="36.8218352" lon="-3.5836584"><ele>531.0</ele><time>2026-03-07T11:23:01.012Z</time></trkpt><trkpt lat="36.821869" lon="-3.5837425"><ele>531.0</ele><time>2026-03-07T11:23:02.021Z</time></trkpt><trkpt lat="36.8218876" lon="-3.5838228"><ele>531.0</ele><time>2026-03-07T11:23:02.977Z</time></trkpt><trkpt lat="36.821885" lon="-3.5839222"><ele>535.4</ele><time>2026-03-07T11:23:03.999Z</time></trkpt><trkpt lat="36.8218937" lon="-3.5840323"><ele>539.8</ele><time>2026-03-07T11:23:05.016Z</time></trkpt><trkpt lat="36.8219063" lon="-3.5841231"><ele>544.1999999999999</ele><time>2026-03-07T11:23:05.963Z</time></trkpt><trkpt lat="36.8219121" lon="-3.5842759"><ele>548.6</ele><time>2026-03-07T11:23:08.078Z</time></trkpt><trkpt lat="36.8219562" lon="-3.5844058"><ele>553.0</ele><time>2026-03-07T11:23:09.978Z</time></trkpt><trkpt lat="36.8220481" lon="-3.5844709"><ele>553.0</ele><time>2026-03-07T11:23:11.978Z</time></trkpt><trkpt lat="36.8221493" lon="-3.5844863"><ele>553.0</ele><time>2026-03-07T11:23:13.984Z</time></trkpt><trkpt lat="36.8222737" lon="-3.584467"><ele>553.0</ele><time>2026-03-07T11:23:15.973Z</time></trkpt><trkpt lat="36.8223443" lon="-3.5844758"><ele>553.0</ele><time>2026-03-07T11:23:16.987Z</time></trkpt><trkpt lat="36.8224279" lon="-3.5844914"><ele>553.0</ele><time>2026-03-07T11:23:17.977Z</time></trkpt><trkpt lat="36.8225067" lon="-3.5845156"><ele>556.1666666666667</ele><time>2026-03-07T11:23:18.98Z</time></trkpt><trkpt lat="36.8225757" lon="-3.584527"><ele>559.3333333333334</ele><time>2026-03-07T11:23:19.969Z</time></trkpt><trkpt lat="36.8226869" lon="-3.5845084"><ele>562.5</ele><time>2026-03-07T11:23:21.974Z</time></trkpt><trkpt lat="36.8227824" lon="-3.5844812"><ele>565.6666666666666</ele><time>2026-03-07T11:23:23.991Z</time></trkpt><trkpt lat="36.8228371" lon="-3.584542"><ele>568.8333333333333</ele><time>2026-03-07T11:23:26.053Z</time></trkpt><trkpt lat="36.8228394" lon="-3.5846541"><ele>572.0</ele><time>2026-03-07T11:23:27.954Z</time></trkpt><trkpt lat="36.8227574" lon="-3.5847816"><ele>574.4</ele><time>2026-03-07T11:23:30.014Z</time></trkpt><trkpt lat="36.8226802" lon="-3.5848898"><ele>576.8000000000001</ele><time>2026-03-07T11:23:31.997Z</time></trkpt><trkpt lat="36.8226111" lon="-3.5850116"><ele>579.2</ele><time>2026-03-07T11:23:34.003Z</time></trkpt><trkpt lat="36.8225441" lon="-3.5851074"><ele>581.6</ele><time>2026-03-07T11:23:36.018Z</time></trkpt><trkpt lat="36.8224472" lon="-3.5851223"><ele>584.0</ele><time>2026-03-07T11:23:37.978Z</time></trkpt><trkpt lat="36.822334" lon="-3.5851306"><ele>584.0</ele><time>2026-03-07T11:23:40.028Z</time></trkpt><trkpt lat="36.822276" lon="-3.5851717"><ele>584.0</ele><time>2026-03-07T11:23:40.989Z</time></trkpt><trkpt lat="36.8221819" lon="-3.5852442"><ele>584.0</ele><time>2026-03-07T11:23:43.014Z</time></trkpt><trkpt lat="36.8221245" lon="-3.5852799"><ele>584.0</ele><time>2026-03-07T11:23:45.01Z</time></trkpt><trkpt lat="36.8221498" lon="-3.5853557"><ele>584.0</ele><time>2026-03-07T11:23:47.024Z</time></trkpt><trkpt lat="36.8222313" lon="-3.5853898"><ele>584.0</ele><time>2026-03-07T11:23:49.008Z</time></trkpt><trkpt lat="36.8223137" lon="-3.585332"><ele>588.0</ele><time>2026-03-07T11:23:51.036Z</time></trkpt><trkpt lat="36.8223829" lon="-3.5853764"><ele>592.0</ele><time>2026-03-07T11:23:53.002Z</time></trkpt><trkpt lat="36.8224033" lon="-3.5855201"><ele>596.0</ele><time>2026-03-07T11:23:54.987Z</time></trkpt><trkpt lat="36.8224058" lon="-3.5856261"><ele>600.0</ele><time>2026-03-07T11:23:55.982Z</time></trkpt><trkpt lat="36.8224059" lon="-3.5857324"><ele>604.0</ele><time>2026-03-07T11:23:57.016Z</time></trkpt><trkpt lat="36.8224038" lon="-3.5858405"><ele>604.0</ele><time>2026-03-07T11:23:58.016Z</time></trkpt><trkpt lat="36.8223805" lon="-3.5859419"><ele>604.0</ele><time>2026-03-07T11:23:58.989Z</time></trkpt><trkpt lat="36.8223265" lon="-3.586035"><ele>604.0</ele><time>2026-03-07T11:23:59.99Z</time></trkpt><trkpt lat="36.8222747" lon="-3.586127"><ele>604.0</ele><time>2026-03-07T11:24:00.977Z</time></trkpt><trkpt lat="36.8222268" lon="-3.5862002"><ele>604.0</ele><time>2026-03-07T11:24:01.973Z</time></trkpt><trkpt lat="36.8221408" lon="-3.5863009"><ele>605.1666666666667</ele><time>2026-03-07T11:24:04.012Z</time></trkpt><trkpt lat="36.8220417" lon="-3.5863489"><ele>606.3333333333334</ele><time>2026-03-07T11:24:05.995Z</time></trkpt><trkpt lat="36.8219804" lon="-3.5863672"><ele>607.5</ele><time>2026-03-07T11:24:06.985Z</time></trkpt><trkpt lat="36.8219001" lon="-3.5863798"><ele>608.6666666666666</ele><time>2026-03-07T11:24:07.981Z</time></trkpt><trkpt lat="36.8218109" lon="-3.5863845"><ele>609.8333333333333</ele><time>2026-03-07T11:24:08.992Z</time></trkpt><trkpt lat="36.8217314" lon="-3.586394"><ele>611.0</ele><time>2026-03-07T11:24:10.004Z</time></trkpt><trkpt lat="36.8216583" lon="-3.586412"><ele>611.0</ele><time>2026-03-07T11:24:10.993Z</time></trkpt><trkpt lat="36.8215445" lon="-3.5863825"><ele>611.0</ele><time>2026-03-07T11:24:12.984Z</time></trkpt><trkpt lat="36.8214985" lon="-3.5863251"><ele>611.0</ele><time>2026-03-07T11:24:13.996Z</time></trkpt><trkpt lat="36.8214524" lon="-3.5862539"><ele>611.0</ele><time>2026-03-07T11:24:14.992Z</time></trkpt><trkpt lat="36.8214047" lon="-3.5861966"><ele>611.0</ele><time>2026-03-07T11:24:15.982Z</time></trkpt><trkpt lat="36.8212976" lon="-3.5861539"><ele>611.0</ele><time>2026-03-07T11:24:17.984Z</time></trkpt><trkpt lat="36.8211561" lon="-3.586134"><ele>609.0</ele><time>2026-03-07T11:24:19.985Z</time></trkpt><trkpt lat="36.8210662" lon="-3.5861123"><ele>607.0</ele><time>2026-03-07T11:24:20.984Z</time></trkpt><trkpt lat="36.8209783" lon="-3.5860787"><ele>605.0</ele><time>2026-03-07T11:24:21.979Z</time></trkpt><trkpt lat="36.8208898" lon="-3.586038"><ele>603.0</ele><time>2026-03-07T11:24:22.995Z</time></trkpt><trkpt lat="36.8208073" lon="-3.5859984"><ele>601.0</ele><time>2026-03-07T11:24:23.988Z</time></trkpt><trkpt lat="36.8207385" lon="-3.5859658"><ele>599.0</ele><time>2026-03-07T11:24:25.016Z</time></trkpt><trkpt lat="36.8206503" lon="-3.585948"><ele>599.0</ele><time>2026-03-07T11:24:26.981Z</time></trkpt><trkpt lat="36.8206274" lon="-3.5860411"><ele>599.0</ele><time>2026-03-07T11:24:28.985Z</time></trkpt><trkpt lat="36.8206928" lon="-3.5861313"><ele>599.0</ele><time>2026-03-07T11:24:31.007Z</time></trkpt><trkpt lat="36.820763" lon="-3.5861694"><ele>599.0</ele><time>2026-03-07T11:24:31.987Z</time></trkpt><trkpt lat="36.8208403" lon="-3.5862122"><ele>599.0</ele><time>2026-03-07T11:24:32.97Z</time></trkpt><trkpt lat="36.8209072" lon="-3.5862783"><ele>599.0</ele><time>2026-03-07T11:24:33.971Z</time></trkpt><trkpt lat="36.820969" lon="-3.5863556"><ele>601.4</ele><time>2026-03-07T11:24:34.976Z</time></trkpt><trkpt lat="36.821031" lon="-3.5864307"><ele>603.8</ele><time>2026-03-07T11:24:35.975Z</time></trkpt><trkpt lat="36.8210958" lon="-3.5865198"><ele>606.2</ele><time>2026-03-07T11:24:36.984Z</time></trkpt><trkpt lat="36.8211594" lon="-3.5866192"><ele>608.6</ele><time>2026-03-07T11:24:37.961Z</time></trkpt><trkpt lat="36.8212196" lon="-3.5867229"><ele>611.0</ele><time>2026-03-07T11:24:38.988Z</time></trkpt><trkpt lat="36.8212741" lon="-3.5868099"><ele>611.0</ele><time>2026-03-07T11:24:39.97Z</time></trkpt><trkpt lat="36.8213121" lon="-3.5868766"><ele>611.0</ele><time>2026-03-07T11:24:40.965Z</time></trkpt><trkpt lat="36.8213227" lon="-3.5870381"><ele>611.0</ele><time>2026-03-07T11:24:43.002Z</time></trkpt><trkpt lat="36.8213226" lon="-3.5871283"><ele>611.0</ele><time>2026-03-07T11:24:43.978Z</time></trkpt><trkpt lat="36.8213521" lon="-3.5872028"><ele>611.0</ele><time>2026-03-07T11:24:44.978Z</time></trkpt><trkpt lat="36.8214071" lon="-3.587285"><ele>611.0</ele><time>2026-03-07T11:24:46.004Z</time></trkpt><trkpt lat="36.8214703" lon="-3.587371"><ele>612.8333333333333</ele><time>2026-03-07T11:24:46.975Z</time></trkpt><trkpt lat="36.8215192" lon="-3.5874639"><ele>614.6666666666666</ele><time>2026-03-07T11:24:47.973Z</time></trkpt><trkpt lat="36.8215425" lon="-3.5875698"><ele>616.5</ele><time>2026-03-07T11:24:48.969Z</time></trkpt><trkpt lat="36.821546" lon="-3.5876695"><ele>618.3333333333334</ele><time>2026-03-07T11:24:49.985Z</time></trkpt><trkpt lat="36.8215683" lon="-3.5877745"><ele>620.1666666666667</ele><time>2026-03-07T11:24:50.98Z</time></trkpt><trkpt lat="36.8216107" lon="-3.5878803"><ele>622.0</ele><time>2026-03-07T11:24:51.979Z</time></trkpt><trkpt lat="36.8216665" lon="-3.5879875"><ele>623.0</ele><time>2026-03-07T11:24:52.972Z</time></trkpt><trkpt lat="36.8217325" lon="-3.5880764"><ele>624.0</ele><time>2026-03-07T11:24:53.987Z</time></trkpt><trkpt lat="36.8217824" lon="-3.5881395"><ele>625.0</ele><time>2026-03-07T11:24:54.973Z</time></trkpt><trkpt lat="36.8218028" lon="-3.5882743"><ele>626.0</ele><time>2026-03-07T11:24:56.97Z</time></trkpt><trkpt lat="36.8217585" lon="-3.588409"><ele>627.0</ele><time>2026-03-07T11:24:58.97Z</time></trkpt><trkpt lat="36.8216931" lon="-3.5885261"><ele>627.0</ele><time>2026-03-07T11:25:00.976Z</time></trkpt><trkpt lat="36.8216879" lon="-3.5886562"><ele>627.0</ele><time>2026-03-07T11:25:02.976Z</time></trkpt><trkpt lat="36.8217332" lon="-3.5887812"><ele>627.0</ele><time>2026-03-07T11:25:04.98Z</time></trkpt><trkpt lat="36.82177" lon="-3.5888514"><ele>627.0</ele><time>2026-03-07T11:25:05.982Z</time></trkpt><trkpt lat="36.8218124" lon="-3.5889294"><ele>627.0</ele><time>2026-03-07T11:25:06.973Z</time></trkpt><trkpt lat="36.8218552" lon="-3.5890141"><ele>627.0</ele><time>2026-03-07T11:25:07.973Z</time></trkpt><trkpt lat="36.8218878" lon="-3.589101"><ele>628.4285714285714</ele><time>2026-03-07T11:25:08.984Z</time></trkpt><trkpt lat="36.8218896" lon="-3.5891808"><ele>629.8571428571429</ele><time>2026-03-07T11:25:09.989Z</time></trkpt><trkpt lat="36.8218698" lon="-3.5892555"><ele>631.2857142857142</ele><time>2026-03-07T11:25:10.973Z</time></trkpt><trkpt lat="36.8218309" lon="-3.5893208"><ele>632.7142857142858</ele><time>2026-03-07T11:25:11.973Z</time></trkpt><trkpt lat="36.8217789" lon="-3.5893749"><ele>634.1428571428571</ele><time>2026-03-07T11:25:12.992Z</time></trkpt><trkpt lat="36.8217409" lon="-3.5894471"><ele>635.5714285714286</ele><time>2026-03-07T11:25:13.98Z</time></trkpt><trkpt lat="36.8217221" lon="-3.5895386"><ele>637.0</ele><time>2026-03-07T11:25:14.967Z</time></trkpt><trkpt lat="36.8216982" lon="-3.589636"><ele>637.3333333333334</ele><time>2026-03-07T11:25:15.984Z</time></trkpt><trkpt lat="36.8216785" lon="-3.5897182"><ele>637.6666666666667</ele><time>2026-03-07T11:25:16.987Z</time></trkpt><trkpt lat="36.8216637" lon="-3.5898423"><ele>638.0</ele><time>2026-03-07T11:25:18.992Z</time></trkpt><trkpt lat="36.8217184" lon="-3.5899542"><ele>638.3333333333334</ele><time>2026-03-07T11:25:20.971Z</time></trkpt><trkpt lat="36.8217747" lon="-3.5900033"><ele>638.6666666666666</ele><time>2026-03-07T11:25:21.982Z</time></trkpt><trkpt lat="36.8218483" lon="-3.5900496"><ele>639.0</ele><time>2026-03-07T11:25:22.978Z</time></trkpt><trkpt lat="36.8219269" lon="-3.5901001"><ele>644.5</ele><time>2026-03-07T11:25:23.973Z</time></trkpt><trkpt lat="36.8219958" lon="-3.5901577"><ele>650.0</ele><time>2026-03-07T11:25:24.977Z</time></trkpt><trkpt lat="36.8220526" lon="-3.5902168"><ele>655.5</ele><time>2026-03-07T11:25:25.97Z</time></trkpt><trkpt lat="36.8221026" lon="-3.5902861"><ele>661.0</ele><time>2026-03-07T11:25:26.967Z</time></trkpt><trkpt lat="36.8221468" lon="-3.5903477"><ele>666.5</ele><time>2026-03-07T11:25:27.984Z</time></trkpt><trkpt lat="36.8221847" lon="-3.5904542"><ele>672.0</ele><time>2026-03-07T11:25:29.966Z</time></trkpt><trkpt lat="36.8221684" lon="-3.5905708"><ele>673.0</ele><time>2026-03-07T11:25:31.981Z</time></trkpt><trkpt lat="36.8221106" lon="-3.5906995"><ele>674.0</ele><time>2026-03-07T11:25:33.979Z</time></trkpt><trkpt lat="36.8220748" lon="-3.5907747"><ele>675.0</ele><time>2026-03-07T11:25:34.97Z</time></trkpt><trkpt lat="36.8220418" lon="-3.5908551"><ele>676.0</ele><time>2026-03-07T11:25:35.97Z</time></trkpt><trkpt lat="36.8220191" lon="-3.5909322"><ele>677.0</ele><time>2026-03-07T11:25:36.962Z</time></trkpt><trkpt lat="36.8219961" lon="-3.5910057"><ele>678.0</ele><time>2026-03-07T11:25:37.976Z</time></trkpt><trkpt lat="36.8219735" lon="-3.5910832"><ele>678.1666666666666</ele><time>2026-03-07T11:25:38.995Z</time></trkpt><trkpt lat="36.821952" lon="-3.5911784"><ele>678.3333333333334</ele><time>2026-03-07T11:25:39.986Z</time></trkpt><trkpt lat="36.8219506" lon="-3.5912823"><ele>678.5</ele><time>2026-03-07T11:25:40.974Z</time></trkpt><trkpt lat="36.8219668" lon="-3.591364"><ele>678.6666666666667</ele><time>2026-03-07T11:25:41.984Z</time></trkpt><trkpt lat="36.822021" lon="-3.5914686"><ele>678.8333333333334</ele><time>2026-03-07T11:25:43.977Z</time></trkpt><trkpt lat="36.8220828" lon="-3.5915867"><ele>679.0</ele><time>2026-03-07T11:25:45.976Z</time></trkpt><trkpt lat="36.8221209" lon="-3.5916658"><ele>679.0</ele><time>2026-03-07T11:25:46.974Z</time></trkpt><trkpt lat="36.8221647" lon="-3.5917516"><ele>679.0</ele><time>2026-03-07T11:25:47.98Z</time></trkpt><trkpt lat="36.8222169" lon="-3.5918332"><ele>679.0</ele><time>2026-03-07T11:25:48.973Z</time></trkpt><trkpt lat="36.8222725" lon="-3.5919098"><ele>679.0</ele><time>2026-03-07T11:25:49.985Z</time></trkpt><trkpt lat="36.8223326" lon="-3.5919839"><ele>679.0</ele><time>2026-03-07T11:25:50.975Z</time></trkpt><trkpt lat="36.8223883" lon="-3.592044"><ele>679.0</ele><time>2026-03-07T11:25:51.974Z</time></trkpt><trkpt lat="36.8224689" lon="-3.5921242"><ele>680.0</ele><time>2026-03-07T11:25:53.978Z</time></trkpt><trkpt lat="36.8224908" lon="-3.5922202"><ele>681.0</ele><time>2026-03-07T11:25:55.966Z</time></trkpt><trkpt lat="36.8224545" lon="-3.5923085"><ele>682.0</ele><time>2026-03-07T11:25:58.983Z</time></trkpt><trkpt lat="36.8224017" lon="-3.5923866"><ele>683.0</ele><time>2026-03-07T11:26:00.983Z</time></trkpt><trkpt lat="36.8223396" lon="-3.5924603"><ele>684.0</ele><time>2026-03-07T11:26:02.982Z</time></trkpt><trkpt lat="36.822285" lon="-3.5925264"><ele>685.0</ele><time>2026-03-07T11:26:04.989Z</time></trkpt><trkpt lat="36.8222141" lon="-3.5926313"><ele>685.0</ele><time>2026-03-07T11:26:06.991Z</time></trkpt><trkpt lat="36.8221768" lon="-3.5927005"><ele>685.0</ele><time>2026-03-07T11:26:07.977Z</time></trkpt><trkpt lat="36.8221112" lon="-3.5928349"><ele>685.0</ele><time>2026-03-07T11:26:09.974Z</time></trkpt><trkpt lat="36.8220803" lon="-3.5929043"><ele>685.0</ele><time>2026-03-07T11:26:10.992Z</time></trkpt><trkpt lat="36.8220533" lon="-3.5929884"><ele>685.0</ele><time>2026-03-07T11:26:11.972Z</time></trkpt><trkpt lat="36.8220302" lon="-3.5930752"><ele>685.0</ele><time>2026-03-07T11:26:12.981Z</time></trkpt><trkpt lat="36.8220092" lon="-3.5931623"><ele>688.2</ele><time>2026-03-07T11:26:13.97Z</time></trkpt><trkpt lat="36.8219714" lon="-3.5932803"><ele>691.4</ele><time>2026-03-07T11:26:15.978Z</time></trkpt><trkpt lat="36.8219088" lon="-3.5933249"><ele>694.5999999999999</ele><time>2026-03-07T11:26:17.974Z</time></trkpt><trkpt lat="36.8218176" lon="-3.5933289"><ele>697.8</ele><time>2026-03-07T11:26:19.992Z</time></trkpt><trkpt lat="36.8216996" lon="-3.5933718"><ele>701.0</ele><time>2026-03-07T11:26:21.97Z</time></trkpt><trkpt lat="36.821592" lon="-3.5933883"><ele>701.0</ele><time>2026-03-07T11:26:23.964Z</time></trkpt><trkpt lat="36.8214963" lon="-3.5933212"><ele>701.0</ele><time>2026-03-07T11:26:25.985Z</time></trkpt><trkpt lat="36.8214337" lon="-3.5932669"><ele>701.0</ele><time>2026-03-07T11:26:26.99Z</time></trkpt><trkpt lat="36.8213615" lon="-3.5932122"><ele>701.0</ele><time>2026-03-07T11:26:27.976Z</time></trkpt><trkpt lat="36.8212812" lon="-3.5931636"><ele>701.0</ele><time>2026-03-07T11:26:28.987Z</time></trkpt><trkpt lat="36.8211924" lon="-3.5931182"><ele>701.0</ele><time>2026-03-07T11:26:29.979Z</time></trkpt><trkpt lat="36.8210996" lon="-3.593094"><ele>701.0</ele><time>2026-03-07T11:26:31.026Z</time></trkpt><trkpt lat="36.8210158" lon="-3.5930831"><ele>701.0</ele><time>2026-03-07T11:26:31.992Z</time></trkpt><trkpt lat="36.8209487" lon="-3.5930877"><ele>701.0</ele><time>2026-03-07T11:26:32.981Z</time></trkpt><trkpt lat="36.8208742" lon="-3.5931376"><ele>701.0</ele><time>2026-03-07T11:26:34.984Z</time></trkpt><trkpt lat="36.8208555" lon="-3.5932495"><ele>701.0</ele><time>2026-03-07T11:26:36.991Z</time></trkpt><trkpt lat="36.8208642" lon="-3.593336"><ele>700.3333333333333</ele><time>2026-03-07T11:26:37.977Z</time></trkpt><trkpt lat="36.8208902" lon="-3.5934329"><ele>699.6666666666666</ele><time>2026-03-07T11:26:38.976Z</time></trkpt><trkpt lat="36.8209214" lon="-3.5935411"><ele>699.0</ele><time>2026-03-07T11:26:39.977Z</time></trkpt><trkpt lat="36.8209504" lon="-3.5936477"><ele>698.3333333333334</ele><time>2026-03-07T11:26:40.975Z</time></trkpt><trkpt lat="36.8209812" lon="-3.5937497"><ele>697.6666666666667</ele><time>2026-03-07T11:26:41.987Z</time></trkpt><trkpt lat="36.8210134" lon="-3.5938479"><ele>697.0</ele><time>2026-03-07T11:26:42.972Z</time></trkpt><trkpt lat="36.8210431" lon="-3.5939357"><ele>700.1428571428571</ele><time>2026-03-07T11:26:43.976Z</time></trkpt><trkpt lat="36.8210762" lon="-3.5940116"><ele>703.2857142857142</ele><time>2026-03-07T11:26:44.976Z</time></trkpt><trkpt lat="36.8211117" lon="-3.5940806"><ele>706.4285714285713</ele><time>2026-03-07T11:26:45.972Z</time></trkpt><trkpt lat="36.8211394" lon="-3.5941518"><ele>709.5714285714286</ele><time>2026-03-07T11:26:46.975Z</time></trkpt><trkpt lat="36.8211406" lon="-3.5942752"><ele>712.7142857142857</ele><time>2026-03-07T11:26:48.972Z</time></trkpt><trkpt lat="36.8210903" lon="-3.5943298"><ele>715.8571428571428</ele><time>2026-03-07T11:26:50.992Z</time></trkpt><trkpt lat="36.8210101" lon="-3.5942939"><ele>719.0</ele><time>2026-03-07T11:26:52.986Z</time></trkpt><trkpt lat="36.8209397" lon="-3.594257"><ele>719.0</ele><time>2026-03-07T11:26:53.983Z</time></trkpt><trkpt lat="36.8208571" lon="-3.5942351"><ele>719.0</ele><time>2026-03-07T11:26:54.966Z</time></trkpt><trkpt lat="36.8207707" lon="-3.5942382"><ele>719.0</ele><time>2026-03-07T11:26:55.981Z</time></trkpt><trkpt lat="36.820688" lon="-3.5942451"><ele>719.0</ele><time>2026-03-07T11:26:56.985Z</time></trkpt><trkpt lat="36.8206075" lon="-3.5942359"><ele>719.0</ele><time>2026-03-07T11:26:57.981Z</time></trkpt><trkpt lat="36.820528" lon="-3.5941964"><ele>719.0</ele><time>2026-03-07T11:26:59.014Z</time></trkpt><trkpt lat="36.8204493" lon="-3.5941673"><ele>719.0</ele><time>2026-03-07T11:26:59.997Z</time></trkpt><trkpt lat="36.820374" lon="-3.5941542"><ele>719.0</ele><time>2026-03-07T11:27:00.998Z</time></trkpt><trkpt lat="36.8202873" lon="-3.5941604"><ele>719.0</ele><time>2026-03-07T11:27:01.98Z</time></trkpt><trkpt lat="36.8201974" lon="-3.5941497"><ele>719.0</ele><time>2026-03-07T11:27:02.97Z</time></trkpt><trkpt lat="36.8200911" lon="-3.5941403"><ele>719.0</ele><time>2026-03-07T11:27:04.035Z</time></trkpt><trkpt lat="36.8199864" lon="-3.5941209"><ele>719.5</ele><time>2026-03-07T11:27:04.977Z</time></trkpt><trkpt lat="36.8198866" lon="-3.5940989"><ele>720.0</ele><time>2026-03-07T11:27:05.991Z</time></trkpt><trkpt lat="36.8198025" lon="-3.5940879"><ele>720.5</ele><time>2026-03-07T11:27:06.97Z</time></trkpt><trkpt lat="36.8197263" lon="-3.5940862"><ele>721.0</ele><time>2026-03-07T11:27:07.988Z</time></trkpt><trkpt lat="36.8196586" lon="-3.5940973"><ele>721.5</ele><time>2026-03-07T11:27:08.978Z</time></trkpt><trkpt lat="36.8195564" lon="-3.5941681"><ele>722.0</ele><time>2026-03-07T11:27:10.973Z</time></trkpt><trkpt lat="36.8195006" lon="-3.5943008"><ele>722.0</ele><time>2026-03-07T11:27:12.976Z</time></trkpt><trkpt lat="36.8194771" lon="-3.594374"><ele>722.0</ele><time>2026-03-07T11:27:13.979Z</time></trkpt><trkpt lat="36.8194555" lon="-3.594448"><ele>722.0</ele><time>2026-03-07T11:27:14.976Z</time></trkpt><trkpt lat="36.819441" lon="-3.5945266"><ele>722.0</ele><time>2026-03-07T11:27:15.966Z</time></trkpt><trkpt lat="36.8194242" lon="-3.5946201"><ele>722.0</ele><time>2026-03-07T11:27:16.983Z</time></trkpt><trkpt lat="36.8194041" lon="-3.5947457"><ele>722.0</ele><time>2026-03-07T11:27:17.975Z</time></trkpt><trkpt lat="36.8193804" lon="-3.5948764"><ele>721.8333333333333</ele><time>2026-03-07T11:27:18.974Z</time></trkpt><trkpt lat="36.8193526" lon="-3.5949877"><ele>721.6666666666666</ele><time>2026-03-07T11:27:19.993Z</time></trkpt><trkpt lat="36.8193214" lon="-3.5950807"><ele>721.5</ele><time>2026-03-07T11:27:20.987Z</time></trkpt><trkpt lat="36.8192899" lon="-3.595174"><ele>721.3333333333334</ele><time>2026-03-07T11:27:21.983Z</time></trkpt><trkpt lat="36.8192586" lon="-3.5952586"><ele>721.1666666666667</ele><time>2026-03-07T11:27:22.984Z</time></trkpt><trkpt lat="36.8192393" lon="-3.5953392"><ele>721.0</ele><time>2026-03-07T11:27:23.978Z</time></trkpt><trkpt lat="36.8192379" lon="-3.5954251"><ele>723.0</ele><time>2026-03-07T11:27:24.977Z</time></trkpt><trkpt lat="36.819243" lon="-3.5955286"><ele>725.0</ele><time>2026-03-07T11:27:25.983Z</time></trkpt><trkpt lat="36.8192505" lon="-3.5956459"><ele>727.0</ele><time>2026-03-07T11:27:26.974Z</time></trkpt><trkpt lat="36.8192581" lon="-3.5957642"><ele>729.0</ele><time>2026-03-07T11:27:27.993Z</time></trkpt><trkpt lat="36.8192759" lon="-3.5958724"><ele>731.0</ele><time>2026-03-07T11:27:28.977Z</time></trkpt><trkpt lat="36.8193031" lon="-3.5959756"><ele>733.0</ele><time>2026-03-07T11:27:29.968Z</time></trkpt><trkpt lat="36.8193321" lon="-3.5960823"><ele>740.0</ele><time>2026-03-07T11:27:30.975Z</time></trkpt><trkpt lat="36.819367" lon="-3.596187"><ele>747.0</ele><time>2026-03-07T11:27:31.979Z</time></trkpt><trkpt lat="36.8193989" lon="-3.5962866"><ele>754.0</ele><time>2026-03-07T11:27:32.969Z</time></trkpt><trkpt lat="36.819411" lon="-3.596395"><ele>761.0</ele><time>2026-03-07T11:27:33.996Z</time></trkpt><trkpt lat="36.8193888" lon="-3.5965169"><ele>768.0</ele><time>2026-03-07T11:27:34.966Z</time></trkpt><trkpt lat="36.8193601" lon="-3.5966496"><ele>768.0</ele><time>2026-03-07T11:27:35.977Z</time></trkpt><trkpt lat="36.819331" lon="-3.5967665"><ele>768.0</ele><time>2026-03-07T11:27:36.976Z</time></trkpt><trkpt lat="36.8193218" lon="-3.5968603"><ele>768.0</ele><time>2026-03-07T11:27:37.989Z</time></trkpt><trkpt lat="36.8193162" lon="-3.5969394"><ele>768.0</ele><time>2026-03-07T11:27:38.983Z</time></trkpt><trkpt lat="36.8192986" lon="-3.597016"><ele>768.0</ele><time>2026-03-07T11:27:39.967Z</time></trkpt><trkpt lat="36.8192149" lon="-3.5970953"><ele>768.0</ele><time>2026-03-07T11:27:41.971Z</time></trkpt><trkpt lat="36.8191416" lon="-3.5970824"><ele>766.2</ele><time>2026-03-07T11:27:43.968Z</time></trkpt><trkpt lat="36.8190848" lon="-3.5970088"><ele>764.4</ele><time>2026-03-07T11:27:45.992Z</time></trkpt><trkpt lat="36.8190046" lon="-3.5968642"><ele>762.6</ele><time>2026-03-07T11:27:47.975Z</time></trkpt><trkpt lat="36.818964" lon="-3.5967639"><ele>760.8000000000001</ele><time>2026-03-07T11:27:48.985Z</time></trkpt><trkpt lat="36.8189056" lon="-3.5966662"><ele>759.0</ele><time>2026-03-07T11:27:49.983Z</time></trkpt><trkpt lat="36.8188436" lon="-3.5966075"><ele>755.4000000000001</ele><time>2026-03-07T11:27:50.996Z</time></trkpt><trkpt lat="36.8187655" lon="-3.5965399"><ele>751.8</ele><time>2026-03-07T11:27:51.981Z</time></trkpt><trkpt lat="36.8186768" lon="-3.5964882"><ele>748.2</ele><time>2026-03-07T11:27:52.978Z</time></trkpt><trkpt lat="36.8185881" lon="-3.5964625"><ele>744.5999999999999</ele><time>2026-03-07T11:27:53.988Z</time></trkpt><trkpt lat="36.8185018" lon="-3.596461"><ele>741.0</ele><time>2026-03-07T11:27:54.992Z</time></trkpt><trkpt lat="36.8184282" lon="-3.5964991"><ele>740.1666666666666</ele><time>2026-03-07T11:27:55.976Z</time></trkpt><trkpt lat="36.8183641" lon="-3.5965594"><ele>739.3333333333334</ele><time>2026-03-07T11:27:56.993Z</time></trkpt><trkpt lat="36.818307" lon="-3.5966029"><ele>738.5</ele><time>2026-03-07T11:27:57.972Z</time></trkpt><trkpt lat="36.8182113" lon="-3.596631"><ele>737.6666666666667</ele><time>2026-03-07T11:27:59.99Z</time></trkpt><trkpt lat="36.8181382" lon="-3.5965458"><ele>736.8333333333334</ele><time>2026-03-07T11:28:01.993Z</time></trkpt><trkpt lat="36.818135" lon="-3.5964195"><ele>736.0</ele><time>2026-03-07T11:28:03.973Z</time></trkpt><trkpt lat="36.8181444" lon="-3.596321"><ele>736.0</ele><time>2026-03-07T11:28:04.978Z</time></trkpt><trkpt lat="36.8181284" lon="-3.5961943"><ele>736.0</ele><time>2026-03-07T11:28:05.972Z</time></trkpt><trkpt lat="36.8181162" lon="-3.5960551"><ele>736.0</ele><time>2026-03-07T11:28:06.972Z</time></trkpt><trkpt lat="36.8180901" lon="-3.5959061"><ele>736.0</ele><time>2026-03-07T11:28:07.98Z</time></trkpt><trkpt lat="36.8180582" lon="-3.5957636"><ele>733.0</ele><time>2026-03-07T11:28:08.988Z</time></trkpt><trkpt lat="36.8180284" lon="-3.5956275"><ele>730.0</ele><time>2026-03-07T11:28:09.979Z</time></trkpt><trkpt lat="36.818003" lon="-3.5954851"><ele>727.0</ele><time>2026-03-07T11:28:10.979Z</time></trkpt><trkpt lat="36.8179816" lon="-3.59534"><ele>724.0</ele><time>2026-03-07T11:28:11.98Z</time></trkpt><trkpt lat="36.8179498" lon="-3.5952148"><ele>722.1666666666667</ele><time>2026-03-07T11:28:12.986Z</time></trkpt><trkpt lat="36.8179279" lon="-3.5951187"><ele>720.3333333333334</ele><time>2026-03-07T11:28:13.969Z</time></trkpt><trkpt lat="36.8179031" lon="-3.5950353"><ele>718.5</ele><time>2026-03-07T11:28:14.984Z</time></trkpt><trkpt lat="36.8178578" lon="-3.5949598"><ele>716.6666666666666</ele><time>2026-03-07T11:28:15.969Z</time></trkpt><trkpt lat="36.8177943" lon="-3.5948992"><ele>714.8333333333333</ele><time>2026-03-07T11:28:16.991Z</time></trkpt><trkpt lat="36.817718" lon="-3.5948347"><ele>713.0</ele><time>2026-03-07T11:28:17.971Z</time></trkpt><trkpt lat="36.8176804" lon="-3.594728"><ele>717.5999999999999</ele><time>2026-03-07T11:28:18.983Z</time></trkpt><trkpt lat="36.8176431" lon="-3.5946025"><ele>722.1999999999999</ele><time>2026-03-07T11:28:19.981Z</time></trkpt><trkpt lat="36.817605" lon="-3.5944717"><ele>726.8</ele><time>2026-03-07T11:28:20.976Z</time></trkpt><trkpt lat="36.8175662" lon="-3.5943518"><ele>731.4</ele><time>2026-03-07T11:28:21.976Z</time></trkpt><trkpt lat="36.8175271" lon="-3.5942525"><ele>736.0</ele><time>2026-03-07T11:28:22.964Z</time></trkpt><trkpt lat="36.8175131" lon="-3.594172"><ele>736.0</ele><time>2026-03-07T11:28:23.973Z</time></trkpt><trkpt lat="36.8174776" lon="-3.5940658"><ele>736.0</ele><time>2026-03-07T11:28:25.98Z</time></trkpt><trkpt lat="36.8174105" lon="-3.5940336"><ele>736.0</ele><time>2026-03-07T11:28:27.978Z</time></trkpt><trkpt lat="36.8173136" lon="-3.5940616"><ele>736.0</ele><time>2026-03-07T11:28:30.998Z</time></trkpt><trkpt lat="36.8172125" lon="-3.5941413"><ele>736.0</ele><time>2026-03-07T11:28:32.994Z</time></trkpt><trkpt lat="36.8171489" lon="-3.5941975"><ele>736.0</ele><time>2026-03-07T11:28:33.986Z</time></trkpt><trkpt lat="36.8170837" lon="-3.5942652"><ele>736.0</ele><time>2026-03-07T11:28:34.979Z</time></trkpt><trkpt lat="36.8170232" lon="-3.594326"><ele>736.0</ele><time>2026-03-07T11:28:35.983Z</time></trkpt><trkpt lat="36.8169445" lon="-3.5943839"><ele>736.0</ele><time>2026-03-07T11:28:37.974Z</time></trkpt><trkpt lat="36.8168696" lon="-3.5943352"><ele>736.0</ele><time>2026-03-07T11:28:40Z</time></trkpt><trkpt lat="36.8168014" lon="-3.594331"><ele>736.0</ele><time>2026-03-07T11:28:41.99Z</time></trkpt><trkpt lat="36.8168312" lon="-3.5944796"><ele>737.6666666666667</ele><time>2026-03-07T11:28:44.978Z</time></trkpt><trkpt lat="36.8168715" lon="-3.5945712"><ele>739.3333333333334</ele><time>2026-03-07T11:28:45.978Z</time></trkpt><trkpt lat="36.8169191" lon="-3.5946541"><ele>741.0</ele><time>2026-03-07T11:28:46.98Z</time></trkpt><trkpt lat="36.8169653" lon="-3.5947279"><ele>742.6666666666666</ele><time>2026-03-07T11:28:47.978Z</time></trkpt><trkpt lat="36.817008" lon="-3.5947969"><ele>744.3333333333333</ele><time>2026-03-07T11:28:48.995Z</time></trkpt><trkpt lat="36.8170579" lon="-3.5948615"><ele>746.0</ele><time>2026-03-07T11:28:49.977Z</time></trkpt><trkpt lat="36.8171063" lon="-3.5949261"><ele>746.0</ele><time>2026-03-07T11:28:50.978Z</time></trkpt><trkpt lat="36.8171413" lon="-3.5950007"><ele>746.0</ele><time>2026-03-07T11:28:51.971Z</time></trkpt><trkpt lat="36.8171771" lon="-3.5950783"><ele>746.0</ele><time>2026-03-07T11:28:52.97Z</time></trkpt><trkpt lat="36.8172271" lon="-3.595144"><ele>746.0</ele><time>2026-03-07T11:28:53.97Z</time></trkpt><trkpt lat="36.8172775" lon="-3.595206"><ele>746.0</ele><time>2026-03-07T11:28:54.982Z</time></trkpt><trkpt lat="36.8173075" lon="-3.5952785"><ele>746.0</ele><time>2026-03-07T11:28:55.984Z</time></trkpt><trkpt lat="36.8173341" lon="-3.5953533"><ele>746.0</ele><time>2026-03-07T11:28:56.97Z</time></trkpt><trkpt lat="36.8173463" lon="-3.5954505"><ele>747.5</ele><time>2026-03-07T11:28:57.979Z</time></trkpt><trkpt lat="36.8173749" lon="-3.5955651"><ele>749.0</ele><time>2026-03-07T11:28:58.97Z</time></trkpt><trkpt lat="36.8174389" lon="-3.5956459"><ele>750.5</ele><time>2026-03-07T11:28:59.97Z</time></trkpt><trkpt lat="36.8175001" lon="-3.5957078"><ele>752.0</ele><time>2026-03-07T11:29:00.994Z</time></trkpt><trkpt lat="36.8175428" lon="-3.5957672"><ele>753.5</ele><time>2026-03-07T11:29:02.005Z</time></trkpt><trkpt lat="36.8175668" lon="-3.5958501"><ele>755.0</ele><time>2026-03-07T11:29:02.973Z</time></trkpt><trkpt lat="36.8175684" lon="-3.595975"><ele>755.0</ele><time>2026-03-07T11:29:03.974Z</time></trkpt><trkpt lat="36.8175772" lon="-3.5961088"><ele>755.0</ele><time>2026-03-07T11:29:04.99Z</time></trkpt><trkpt lat="36.8175757" lon="-3.5962341"><ele>755.0</ele><time>2026-03-07T11:29:05.97Z</time></trkpt><trkpt lat="36.8175805" lon="-3.5963443"><ele>755.0</ele><time>2026-03-07T11:29:06.984Z</time></trkpt><trkpt lat="36.8175766" lon="-3.5964462"><ele>755.0</ele><time>2026-03-07T11:29:07.978Z</time></trkpt><trkpt lat="36.8175791" lon="-3.5965432"><ele>755.7142857142857</ele><time>2026-03-07T11:29:08.972Z</time></trkpt><trkpt lat="36.8175955" lon="-3.5966334"><ele>756.4285714285714</ele><time>2026-03-07T11:29:09.985Z</time></trkpt><trkpt lat="36.8176045" lon="-3.5967207"><ele>757.1428571428571</ele><time>2026-03-07T11:29:11.045Z</time></trkpt><trkpt lat="36.817625" lon="-3.5968131"><ele>757.8571428571429</ele><time>2026-03-07T11:29:11.986Z</time></trkpt><trkpt lat="36.8176347" lon="-3.5969132"><ele>758.5714285714287</ele><time>2026-03-07T11:29:13.001Z</time></trkpt><trkpt lat="36.8176415" lon="-3.597008"><ele>759.2857142857143</ele><time>2026-03-07T11:29:13.985Z</time></trkpt><trkpt lat="36.8176373" lon="-3.5970931"><ele>760.0</ele><time>2026-03-07T11:29:14.971Z</time></trkpt><trkpt lat="36.8176158" lon="-3.5971776"><ele>761.3333333333334</ele><time>2026-03-07T11:29:15.975Z</time></trkpt><trkpt lat="36.8175842" lon="-3.5972697"><ele>762.6666666666667</ele><time>2026-03-07T11:29:16.986Z</time></trkpt><trkpt lat="36.8175791" lon="-3.5973684"><ele>764.0</ele><time>2026-03-07T11:29:17.977Z</time></trkpt><trkpt lat="36.8175829" lon="-3.5974596"><ele>765.3333333333334</ele><time>2026-03-07T11:29:18.973Z</time></trkpt><trkpt lat="36.8175728" lon="-3.5975946"><ele>766.6666666666666</ele><time>2026-03-07T11:29:20.978Z</time></trkpt><trkpt lat="36.8176246" lon="-3.597663"><ele>768.0</ele><time>2026-03-07T11:29:22.986Z</time></trkpt><trkpt lat="36.8177117" lon="-3.597687"><ele>768.0</ele><time>2026-03-07T11:29:24.987Z</time></trkpt><trkpt lat="36.8177793" lon="-3.5976579"><ele>768.0</ele><time>2026-03-07T11:29:25.983Z</time></trkpt><trkpt lat="36.8178607" lon="-3.5976255"><ele>768.0</ele><time>2026-03-07T11:29:27.019Z</time></trkpt><trkpt lat="36.8179541" lon="-3.5976025"><ele>768.0</ele><time>2026-03-07T11:29:27.994Z</time></trkpt><trkpt lat="36.8180578" lon="-3.5976014"><ele>768.0</ele><time>2026-03-07T11:29:28.978Z</time></trkpt><trkpt lat="36.8181697" lon="-3.5975927"><ele>768.0</ele><time>2026-03-07T11:29:29.976Z</time></trkpt><trkpt lat="36.8182674" lon="-3.597562"><ele>768.0</ele><time>2026-03-07T11:29:30.984Z</time></trkpt><trkpt lat="36.8183437" lon="-3.5975233"><ele>768.0</ele><time>2026-03-07T11:29:31.977Z</time></trkpt><trkpt lat="36.8184082" lon="-3.5974992"><ele>768.0</ele><time>2026-03-07T11:29:32.988Z</time></trkpt><trkpt lat="36.8184735" lon="-3.5975057"><ele>768.0</ele><time>2026-03-07T11:29:34.003Z</time></trkpt><trkpt lat="36.8185738" lon="-3.5975876"><ele>768.0</ele><time>2026-03-07T11:29:35.97Z</time></trkpt><trkpt lat="36.8186053" lon="-3.597657"><ele>766.2</ele><time>2026-03-07T11:29:36.975Z</time></trkpt><trkpt lat="36.8186301" lon="-3.5977474"><ele>764.4</ele><time>2026-03-07T11:29:37.973Z</time></trkpt><trkpt lat="36.8186577" lon="-3.5978604"><ele>762.6</ele><time>2026-03-07T11:29:38.979Z</time></trkpt><trkpt lat="36.8186917" lon="-3.5979972"><ele>760.8000000000001</ele><time>2026-03-07T11:29:39.972Z</time></trkpt><trkpt lat="36.8187213" lon="-3.5981352"><ele>759.0</ele><time>2026-03-07T11:29:40.986Z</time></trkpt><trkpt lat="36.8187401" lon="-3.5982563"><ele>764.4000000000001</ele><time>2026-03-07T11:29:41.976Z</time></trkpt><trkpt lat="36.8187664" lon="-3.598377"><ele>769.8</ele><time>2026-03-07T11:29:42.987Z</time></trkpt><trkpt lat="36.8187954" lon="-3.5984927"><ele>775.2</ele><time>2026-03-07T11:29:43.993Z</time></trkpt><trkpt lat="36.8188223" lon="-3.5985842"><ele>780.5999999999999</ele><time>2026-03-07T11:29:44.989Z</time></trkpt><trkpt lat="36.8188412" lon="-3.5987209"><ele>786.0</ele><time>2026-03-07T11:29:46.994Z</time></trkpt><trkpt lat="36.8189045" lon="-3.5987795"><ele>786.0</ele><time>2026-03-07T11:29:48.975Z</time></trkpt><trkpt lat="36.819011" lon="-3.5987049"><ele>786.0</ele><time>2026-03-07T11:29:50.983Z</time></trkpt><trkpt lat="36.8190781" lon="-3.5986229"><ele>786.0</ele><time>2026-03-07T11:29:51.995Z</time></trkpt><trkpt lat="36.8191735" lon="-3.5985518"><ele>786.0</ele><time>2026-03-07T11:29:52.98Z</time></trkpt><trkpt lat="36.8192667" lon="-3.5985238"><ele>786.0</ele><time>2026-03-07T11:29:53.983Z</time></trkpt><trkpt lat="36.8193427" lon="-3.598535"><ele>790.5</ele><time>2026-03-07T11:29:54.982Z</time></trkpt><trkpt lat="36.8194008" lon="-3.5985655"><ele>795.0</ele><time>2026-03-07T11:29:55.981Z</time></trkpt><trkpt lat="36.819504" lon="-3.5985821"><ele>799.5</ele><time>2026-03-07T11:29:57.977Z</time></trkpt><trkpt lat="36.8195594" lon="-3.5985"><ele>804.0</ele><time>2026-03-07T11:29:59.99Z</time></trkpt><trkpt lat="36.8195965" lon="-3.5984219"><ele>808.5</ele><time>2026-03-07T11:30:00.972Z</time></trkpt><trkpt lat="36.8196403" lon="-3.5983145"><ele>813.0</ele><time>2026-03-07T11:30:01.977Z</time></trkpt><trkpt lat="36.8196827" lon="-3.5982009"><ele>813.0</ele><time>2026-03-07T11:30:02.979Z</time></trkpt><trkpt lat="36.8197289" lon="-3.5980972"><ele>813.0</ele><time>2026-03-07T11:30:03.975Z</time></trkpt><trkpt lat="36.8197693" lon="-3.5980148"><ele>813.0</ele><time>2026-03-07T11:30:04.986Z</time></trkpt><trkpt lat="36.8198361" lon="-3.5979035"><ele>813.0</ele><time>2026-03-07T11:30:06.969Z</time></trkpt><trkpt lat="36.8199453" lon="-3.5978719"><ele>813.0</ele><time>2026-03-07T11:30:08.98Z</time></trkpt><trkpt lat="36.8200245" lon="-3.5978655"><ele>813.0</ele><time>2026-03-07T11:30:09.983Z</time></trkpt><trkpt lat="36.8201127" lon="-3.5978394"><ele>813.0</ele><time>2026-03-07T11:30:10.97Z</time></trkpt><trkpt lat="36.8201974" lon="-3.5978024"><ele>813.0</ele><time>2026-03-07T11:30:11.981Z</time></trkpt><trkpt lat="36.820274" lon="-3.597755"><ele>813.0</ele><time>2026-03-07T11:30:12.974Z</time></trkpt><trkpt lat="36.8203345" lon="-3.5977054"><ele>813.0</ele><time>2026-03-07T11:30:13.998Z</time></trkpt><trkpt lat="36.8204029" lon="-3.5976423"><ele>813.0</ele><time>2026-03-07T11:30:14.97Z</time></trkpt><trkpt lat="36.8204683" lon="-3.5975885"><ele>812.6666666666666</ele><time>2026-03-07T11:30:15.975Z</time></trkpt><trkpt lat="36.8205333" lon="-3.597547"><ele>812.3333333333333</ele><time>2026-03-07T11:30:16.997Z</time></trkpt><trkpt lat="36.820612" lon="-3.5975254"><ele>812.0</ele><time>2026-03-07T11:30:17.982Z</time></trkpt><trkpt lat="36.8206995" lon="-3.5975144"><ele>811.6666666666666</ele><time>2026-03-07T11:30:18.97Z</time></trkpt><trkpt lat="36.8207808" lon="-3.5975156"><ele>811.3333333333333</ele><time>2026-03-07T11:30:19.974Z</time></trkpt><trkpt lat="36.8208593" lon="-3.5975166"><ele>811.0</ele><time>2026-03-07T11:30:20.984Z</time></trkpt><trkpt lat="36.8209343" lon="-3.597536"><ele>808.6666666666666</ele><time>2026-03-07T11:30:21.976Z</time></trkpt><trkpt lat="36.821011" lon="-3.5975365"><ele>806.3333333333333</ele><time>2026-03-07T11:30:22.97Z</time></trkpt><trkpt lat="36.8210774" lon="-3.5975184"><ele>804.0</ele><time>2026-03-07T11:30:23.997Z</time></trkpt><trkpt lat="36.8211889" lon="-3.597486"><ele>801.6666666666667</ele><time>2026-03-07T11:30:25.995Z</time></trkpt><trkpt lat="36.8212847" lon="-3.597518"><ele>799.3333333333334</ele><time>2026-03-07T11:30:27.986Z</time></trkpt><trkpt lat="36.8213322" lon="-3.597605"><ele>797.0</ele><time>2026-03-07T11:30:31.028Z</time></trkpt><trkpt lat="36.821331" lon="-3.5977008"><ele>797.0</ele><time>2026-03-07T11:30:33.99Z</time></trkpt><trkpt lat="36.821258" lon="-3.5977702"><ele>797.0</ele><time>2026-03-07T11:30:36.005Z</time></trkpt><trkpt lat="36.8211948" lon="-3.5977973"><ele>797.0</ele><time>2026-03-07T11:30:37.01Z</time></trkpt><trkpt lat="36.8211037" lon="-3.5978594"><ele>797.0</ele><time>2026-03-07T11:30:39.006Z</time></trkpt><trkpt lat="36.8210275" lon="-3.5979927"><ele>797.0</ele><time>2026-03-07T11:30:41.012Z</time></trkpt><trkpt lat="36.8209841" lon="-3.5980758"><ele>800.5000000000001</ele><time>2026-03-07T11:30:42.003Z</time></trkpt><trkpt lat="36.8209441" lon="-3.5981447"><ele>804.0</ele><time>2026-03-07T11:30:43.002Z</time></trkpt><trkpt lat="36.8208651" lon="-3.5982226"><ele>807.5</ele><time>2026-03-07T11:30:44.993Z</time></trkpt><trkpt lat="36.8208397" lon="-3.5983134"><ele>811.0</ele><time>2026-03-07T11:30:46.993Z</time></trkpt><trkpt lat="36.8209105" lon="-3.5984304"><ele>814.5000000000001</ele><time>2026-03-07T11:30:48.978Z</time></trkpt><trkpt lat="36.8209719" lon="-3.5984506"><ele>818.0</ele><time>2026-03-07T11:30:49.972Z</time></trkpt><trkpt lat="36.8210431" lon="-3.5984513"><ele>818.0000000000001</ele><time>2026-03-07T11:30:50.984Z</time></trkpt><trkpt lat="36.8211161" lon="-3.5984469"><ele>818.0</ele><time>2026-03-07T11:30:52.014Z</time></trkpt><trkpt lat="36.8211949" lon="-3.5984692"><ele>818.0</ele><time>2026-03-07T11:30:53.981Z</time></trkpt><trkpt lat="36.8212142" lon="-3.5985795"><ele>818.0</ele><time>2026-03-07T11:30:56.99Z</time></trkpt><trkpt lat="36.8211756" lon="-3.5986777"><ele>818.0000000000001</ele><time>2026-03-07T11:30:58.995Z</time></trkpt><trkpt lat="36.821128" lon="-3.5987332"><ele>818.0</ele><time>2026-03-07T11:31:00.052Z</time></trkpt><trkpt lat="36.8210917" lon="-3.5988465"><ele>823.0</ele><time>2026-03-07T11:31:01.988Z</time></trkpt><trkpt lat="36.8211501" lon="-3.5989806"><ele>828.0</ele><time>2026-03-07T11:31:03.97Z</time></trkpt><trkpt lat="36.8211913" lon="-3.5990575"><ele>833.0</ele><time>2026-03-07T11:31:04.973Z</time></trkpt><trkpt lat="36.8212321" lon="-3.5991321"><ele>838.0</ele><time>2026-03-07T11:31:05.993Z</time></trkpt><trkpt lat="36.8212708" lon="-3.5991972"><ele>843.0</ele><time>2026-03-07T11:31:07.036Z</time></trkpt><trkpt lat="36.821316" lon="-3.5993462"><ele>843.0</ele><time>2026-03-07T11:31:09.009Z</time></trkpt><trkpt lat="36.8213182" lon="-3.5994316"><ele>843.0</ele><time>2026-03-07T11:31:09.974Z</time></trkpt><trkpt lat="36.8213335" lon="-3.5995089"><ele>843.0</ele><time>2026-03-07T11:31:10.969Z</time></trkpt><trkpt lat="36.8214011" lon="-3.5996185"><ele>843.0</ele><time>2026-03-07T11:31:12.977Z</time></trkpt><trkpt lat="36.8214058" lon="-3.5997146"><ele>843.0</ele><time>2026-03-07T11:31:14.977Z</time></trkpt><trkpt lat="36.8213335" lon="-3.5997084"><ele>843.0</ele><time>2026-03-07T11:31:16.985Z</time></trkpt><trkpt lat="36.821258" lon="-3.5995507"><ele>843.0</ele><time>2026-03-07T11:31:18.972Z</time></trkpt><trkpt lat="36.8212115" lon="-3.5994717"><ele>843.0</ele><time>2026-03-07T11:31:19.975Z</time></trkpt><trkpt lat="36.8211626" lon="-3.5994097"><ele>843.0</ele><time>2026-03-07T11:31:20.969Z</time></trkpt><trkpt lat="36.8210622" lon="-3.5994021"><ele>843.0</ele><time>2026-03-07T11:31:22.974Z</time></trkpt><trkpt lat="36.8209471" lon="-3.5994928"><ele>843.0</ele><time>2026-03-07T11:31:24.989Z</time></trkpt><trkpt lat="36.8208804" lon="-3.5995578"><ele>848.5</ele><time>2026-03-07T11:31:25.97Z</time></trkpt><trkpt lat="36.8208077" lon="-3.5996188"><ele>854.0</ele><time>2026-03-07T11:31:26.976Z</time></trkpt><trkpt lat="36.8207229" lon="-3.5996428"><ele>859.5</ele><time>2026-03-07T11:31:27.975Z</time></trkpt><trkpt lat="36.8206412" lon="-3.5996616"><ele>865.0</ele><time>2026-03-07T11:31:28.988Z</time></trkpt><trkpt lat="36.8205727" lon="-3.5996893"><ele>870.5</ele><time>2026-03-07T11:31:29.994Z</time></trkpt><trkpt lat="36.8205181" lon="-3.599732"><ele>876.0</ele><time>2026-03-07T11:31:30.988Z</time></trkpt><trkpt lat="36.8204691" lon="-3.5997856"><ele>876.0</ele><time>2026-03-07T11:31:31.988Z</time></trkpt><trkpt lat="36.8204265" lon="-3.5998538"><ele>876.0</ele><time>2026-03-07T11:31:32.972Z</time></trkpt><trkpt lat="36.8203762" lon="-3.5999448"><ele>876.0</ele><time>2026-03-07T11:31:35.002Z</time></trkpt><trkpt lat="36.82038" lon="-3.600034"><ele>876.0</ele><time>2026-03-07T11:31:38.013Z</time></trkpt><trkpt lat="36.8203918" lon="-3.6001288"><ele>876.0</ele><time>2026-03-07T11:31:41.018Z</time></trkpt><trkpt lat="36.8203826" lon="-3.6002326"><ele>876.0</ele><time>2026-03-07T11:31:44.002Z</time></trkpt><trkpt lat="36.8203433" lon="-3.600306"><ele>874.5999999999999</ele><time>2026-03-07T11:31:45.993Z</time></trkpt><trkpt lat="36.8203004" lon="-3.60039"><ele>873.1999999999999</ele><time>2026-03-07T11:31:49.044Z</time></trkpt><trkpt lat="36.8202212" lon="-3.6004253"><ele>871.8000000000001</ele><time>2026-03-07T11:31:51.031Z</time></trkpt><trkpt lat="36.8201095" lon="-3.6003805"><ele>870.4000000000001</ele><time>2026-03-07T11:31:53.038Z</time></trkpt><trkpt lat="36.819983" lon="-3.6003317"><ele>869.0</ele><time>2026-03-07T11:31:54.978Z</time></trkpt><trkpt lat="36.8199119" lon="-3.6003093"><ele>869.0</ele><time>2026-03-07T11:31:56.011Z</time></trkpt><trkpt lat="36.8198482" lon="-3.6002961"><ele>869.0000000000001</ele><time>2026-03-07T11:31:57.001Z</time></trkpt><trkpt lat="36.8197341" lon="-3.6002753"><ele>869.0000000000001</ele><time>2026-03-07T11:31:58.983Z</time></trkpt><trkpt lat="36.8196201" lon="-3.6002629"><ele>869.0</ele><time>2026-03-07T11:32:01.001Z</time></trkpt><trkpt lat="36.8195507" lon="-3.6002603"><ele>869.0</ele><time>2026-03-07T11:32:01.995Z</time></trkpt><trkpt lat="36.8194605" lon="-3.6002972"><ele>874.8333333333334</ele><time>2026-03-07T11:32:03.984Z</time></trkpt><trkpt lat="36.819392" lon="-3.6003422"><ele>880.6666666666667</ele><time>2026-03-07T11:32:06.041Z</time></trkpt><trkpt lat="36.8192982" lon="-3.60036"><ele>886.5</ele><time>2026-03-07T11:32:08.014Z</time></trkpt><trkpt lat="36.8192234" lon="-3.6003773"><ele>892.3333333333333</ele><time>2026-03-07T11:32:12.019Z</time></trkpt><trkpt lat="36.8192497" lon="-3.6004755"><ele>898.1666666666666</ele><time>2026-03-07T11:33:03.012Z</time></trkpt><trkpt lat="36.8193212" lon="-3.6004798"><ele>904.0</ele><time>2026-03-07T11:33:05.017Z</time></trkpt><trkpt lat="36.8193859" lon="-3.6004843"><ele>905.4000000000001</ele><time>2026-03-07T11:33:06.007Z</time></trkpt><trkpt lat="36.8194613" lon="-3.6004823"><ele>906.8000000000001</ele><time>2026-03-07T11:33:07.004Z</time></trkpt><trkpt lat="36.8195781" lon="-3.6004895"><ele>908.1999999999999</ele><time>2026-03-07T11:33:09.057Z</time></trkpt><trkpt lat="36.81967" lon="-3.6005008"><ele>909.5999999999999</ele><time>2026-03-07T11:33:10.981Z</time></trkpt><trkpt lat="36.819739" lon="-3.6005659"><ele>911.0</ele><time>2026-03-07T11:33:12.99Z</time></trkpt><trkpt lat="36.8198308" lon="-3.6006639"><ele>911.0</ele><time>2026-03-07T11:33:15.031Z</time></trkpt><trkpt lat="36.8198871" lon="-3.6007301"><ele>910.9999999999999</ele><time>2026-03-07T11:33:15.988Z</time></trkpt><trkpt lat="36.8199666" lon="-3.6008201"><ele>910.9999999999999</ele><time>2026-03-07T11:33:17.979Z</time></trkpt><trkpt lat="36.8200822" lon="-3.600896"><ele>911.0</ele><time>2026-03-07T11:33:19.994Z</time></trkpt><trkpt lat="36.8201979" lon="-3.6009247"><ele>911.0</ele><time>2026-03-07T11:33:21.982Z</time></trkpt><trkpt lat="36.820279" lon="-3.6009316"><ele>910.0</ele><time>2026-03-07T11:33:23.984Z</time></trkpt><trkpt lat="36.8203644" lon="-3.6009717"><ele>908.9999999999999</ele><time>2026-03-07T11:33:25.986Z</time></trkpt><trkpt lat="36.8205075" lon="-3.6009749"><ele>907.9999999999999</ele><time>2026-03-07T11:33:27.984Z</time></trkpt><trkpt lat="36.8205912" lon="-3.6009874"><ele>907.0</ele><time>2026-03-07T11:33:28.999Z</time></trkpt><trkpt lat="36.8206559" lon="-3.6009945"><ele>906.0</ele><time>2026-03-07T11:33:30.001Z</time></trkpt><trkpt lat="36.8207346" lon="-3.601087"><ele>907.8</ele><time>2026-03-07T11:33:31.994Z</time></trkpt><trkpt lat="36.8207642" lon="-3.6011868"><ele>909.5999999999999</ele><time>2026-03-07T11:33:33Z</time></trkpt><trkpt lat="36.8207936" lon="-3.6012863"><ele>911.4</ele><time>2026-03-07T11:33:33.971Z</time></trkpt><trkpt lat="36.8208131" lon="-3.6013652"><ele>913.2</ele><time>2026-03-07T11:33:35.004Z</time></trkpt><trkpt lat="36.8208844" lon="-3.6014856"><ele>915.0</ele><time>2026-03-07T11:33:36.989Z</time></trkpt><trkpt lat="36.8209835" lon="-3.6015364"><ele>915.0</ele><time>2026-03-07T11:33:38.978Z</time></trkpt><trkpt lat="36.8210379" lon="-3.6015984"><ele>915.0</ele><time>2026-03-07T11:33:39.986Z</time></trkpt><trkpt lat="36.8210964" lon="-3.6016762"><ele>915.0</ele><time>2026-03-07T11:33:40.993Z</time></trkpt><trkpt lat="36.8211461" lon="-3.601772"><ele>915.0</ele><time>2026-03-07T11:33:41.997Z</time></trkpt><trkpt lat="36.8211702" lon="-3.6018724"><ele>915.0</ele><time>2026-03-07T11:33:42.998Z</time></trkpt><trkpt lat="36.8211947" lon="-3.6019817"><ele>915.0</ele><time>2026-03-07T11:33:43.989Z</time></trkpt><trkpt lat="36.821251" lon="-3.6020747"><ele>917.4</ele><time>2026-03-07T11:33:44.999Z</time></trkpt><trkpt lat="36.821319" lon="-3.6021513"><ele>919.8</ele><time>2026-03-07T11:33:45.973Z</time></trkpt><trkpt lat="36.82137" lon="-3.6022561"><ele>922.2</ele><time>2026-03-07T11:33:46.977Z</time></trkpt><trkpt lat="36.82142" lon="-3.6023627"><ele>924.6</ele><time>2026-03-07T11:33:47.983Z</time></trkpt><trkpt lat="36.8214742" lon="-3.6024598"><ele>927.0</ele><time>2026-03-07T11:33:49.004Z</time></trkpt><trkpt lat="36.8215264" lon="-3.6025527"><ele>927.0</ele><time>2026-03-07T11:33:49.994Z</time></trkpt><trkpt lat="36.8215762" lon="-3.6026453"><ele>927.0</ele><time>2026-03-07T11:33:50.988Z</time></trkpt><trkpt lat="36.8216201" lon="-3.6027449"><ele>927.0</ele><time>2026-03-07T11:33:51.989Z</time></trkpt><trkpt lat="36.8216516" lon="-3.6028623"><ele>927.0</ele><time>2026-03-07T11:33:52.988Z</time></trkpt><trkpt lat="36.8216751" lon="-3.6029887"><ele>927.0</ele><time>2026-03-07T11:33:54.002Z</time></trkpt><trkpt lat="36.8216812" lon="-3.6031192"><ele>928.1666666666666</ele><time>2026-03-07T11:33:54.997Z</time></trkpt><trkpt lat="36.8216869" lon="-3.6032489"><ele>929.3333333333333</ele><time>2026-03-07T11:33:56.003Z</time></trkpt><trkpt lat="36.8216973" lon="-3.6033543"><ele>930.5</ele><time>2026-03-07T11:33:56.993Z</time></trkpt><trkpt lat="36.8217189" lon="-3.6034311"><ele>931.6666666666666</ele><time>2026-03-07T11:33:57.995Z</time></trkpt><trkpt lat="36.8217818" lon="-3.6035321"><ele>932.8333333333333</ele><time>2026-03-07T11:33:59.988Z</time></trkpt><trkpt lat="36.821842" lon="-3.6035687"><ele>934.0</ele><time>2026-03-07T11:34:00.976Z</time></trkpt><trkpt lat="36.8219222" lon="-3.6035868"><ele>934.0</ele><time>2026-03-07T11:34:01.996Z</time></trkpt><trkpt lat="36.8220125" lon="-3.6036044"><ele>934.0000000000001</ele><time>2026-03-07T11:34:02.998Z</time></trkpt><trkpt lat="36.8221079" lon="-3.6036191"><ele>934.0000000000001</ele><time>2026-03-07T11:34:04.05Z</time></trkpt><trkpt lat="36.822202" lon="-3.603644"><ele>934.0</ele><time>2026-03-07T11:34:05.035Z</time></trkpt><trkpt lat="36.8222938" lon="-3.6036732"><ele>934.0</ele><time>2026-03-07T11:34:06.008Z</time></trkpt><trkpt lat="36.8223812" lon="-3.6037007"><ele>932.9999999999999</ele><time>2026-03-07T11:34:07.016Z</time></trkpt><trkpt lat="36.8224557" lon="-3.6037195"><ele>932.0</ele><time>2026-03-07T11:34:07.994Z</time></trkpt><trkpt lat="36.8225404" lon="-3.6037112"><ele>931.0</ele><time>2026-03-07T11:34:09.003Z</time></trkpt><trkpt lat="36.8226315" lon="-3.6036862"><ele>930.0</ele><time>2026-03-07T11:34:10.009Z</time></trkpt><trkpt lat="36.8227203" lon="-3.603646"><ele>928.9999999999999</ele><time>2026-03-07T11:34:10.999Z</time></trkpt><trkpt lat="36.8228021" lon="-3.6036007"><ele>928.0</ele><time>2026-03-07T11:34:11.985Z</time></trkpt><trkpt lat="36.8228702" lon="-3.6035804"><ele>927.9999999999999</ele><time>2026-03-07T11:34:13.014Z</time></trkpt><trkpt lat="36.8229421" lon="-3.6035929"><ele>928.0</ele><time>2026-03-07T11:34:14.016Z</time></trkpt><trkpt lat="36.8230184" lon="-3.6036196"><ele>928.0</ele><time>2026-03-07T11:34:14.978Z</time></trkpt><trkpt lat="36.8230936" lon="-3.6036382"><ele>928.0</ele><time>2026-03-07T11:34:15.987Z</time></trkpt><trkpt lat="36.8231715" lon="-3.6036596"><ele>927.9999999999999</ele><time>2026-03-07T11:34:17.027Z</time></trkpt><trkpt lat="36.8232504" lon="-3.6037062"><ele>928.0</ele><time>2026-03-07T11:34:18.012Z</time></trkpt><trkpt lat="36.8233161" lon="-3.6037514"><ele>927.4999999999999</ele><time>2026-03-07T11:34:18.994Z</time></trkpt><trkpt lat="36.8233729" lon="-3.6037893"><ele>927.0</ele><time>2026-03-07T11:34:20.022Z</time></trkpt><trkpt lat="36.823464" lon="-3.6038137"><ele>926.5</ele><time>2026-03-07T11:34:21.997Z</time></trkpt><trkpt lat="36.8235353" lon="-3.6038499"><ele>926.0</ele><time>2026-03-07T11:34:26.028Z</time></trkpt><trkpt lat="36.8236306" lon="-3.6038931"><ele>925.4999999999999</ele><time>2026-03-07T11:34:29.021Z</time></trkpt><trkpt lat="36.8237076" lon="-3.6039613"><ele>925.0</ele><time>2026-03-07T11:34:30.988Z</time></trkpt><trkpt lat="36.8237876" lon="-3.604046"><ele>925.0</ele><time>2026-03-07T11:34:33.032Z</time></trkpt><trkpt lat="36.823831" lon="-3.6041468"><ele>925.0</ele><time>2026-03-07T11:34:34.992Z</time></trkpt><trkpt lat="36.8238304" lon="-3.6042647"><ele>925.0</ele><time>2026-03-07T11:35:16.995Z</time></trkpt><trkpt lat="36.823797" lon="-3.6043525"><ele>925.0</ele><time>2026-03-07T11:35:20.012Z</time></trkpt><trkpt lat="36.8237882" lon="-3.6044789"><ele>925.0</ele><time>2026-03-07T11:35:21.982Z</time></trkpt><trkpt lat="36.8237352" lon="-3.6046351"><ele>927.3333333333333</ele><time>2026-03-07T11:35:24.002Z</time></trkpt><trkpt lat="36.8237136" lon="-3.6047166"><ele>929.6666666666666</ele><time>2026-03-07T11:35:24.995Z</time></trkpt><trkpt lat="36.8236934" lon="-3.6048581"><ele>932.0</ele><time>2026-03-07T11:35:26.993Z</time></trkpt><trkpt lat="36.8236668" lon="-3.6050046"><ele>934.3333333333333</ele><time>2026-03-07T11:35:28.996Z</time></trkpt><trkpt lat="36.8236401" lon="-3.6050803"><ele>936.6666666666666</ele><time>2026-03-07T11:35:29.98Z</time></trkpt><trkpt lat="36.8235997" lon="-3.6051409"><ele>939.0</ele><time>2026-03-07T11:35:30.97Z</time></trkpt><trkpt lat="36.8234987" lon="-3.6052419"><ele>939.0</ele><time>2026-03-07T11:35:32.991Z</time></trkpt><trkpt lat="36.8234256" lon="-3.6053425"><ele>939.0000000000001</ele><time>2026-03-07T11:35:34.985Z</time></trkpt><trkpt lat="36.823425" lon="-3.6054399"><ele>939.0000000000001</ele><time>2026-03-07T11:35:36.972Z</time></trkpt><trkpt lat="36.8234636" lon="-3.605535"><ele>939.0</ele><time>2026-03-07T11:35:39.066Z</time></trkpt><trkpt lat="36.8235166" lon="-3.6056613"><ele>939.0</ele><time>2026-03-07T11:35:40.999Z</time></trkpt><trkpt lat="36.8235269" lon="-3.6057518"><ele>939.0</ele><time>2026-03-07T11:35:41.978Z</time></trkpt><trkpt lat="36.8234993" lon="-3.6058545"><ele>939.0000000000001</ele><time>2026-03-07T11:35:42.98Z</time></trkpt><trkpt lat="36.8234562" lon="-3.6059694"><ele>939.0000000000001</ele><time>2026-03-07T11:35:43.973Z</time></trkpt><trkpt lat="36.8234059" lon="-3.6060917"><ele>939.0</ele><time>2026-03-07T11:35:44.987Z</time></trkpt><trkpt lat="36.8233655" lon="-3.6061994"><ele>939.0</ele><time>2026-03-07T11:35:45.974Z</time></trkpt><trkpt lat="36.823355" lon="-3.6063135"><ele>944.2</ele><time>2026-03-07T11:35:46.981Z</time></trkpt><trkpt lat="36.8233597" lon="-3.6064342"><ele>949.4000000000001</ele><time>2026-03-07T11:35:47.994Z</time></trkpt><trkpt lat="36.8233681" lon="-3.6065534"><ele>954.6</ele><time>2026-03-07T11:35:48.973Z</time></trkpt><trkpt lat="36.8233608" lon="-3.6066608"><ele>959.8</ele><time>2026-03-07T11:35:49.976Z</time></trkpt><trkpt lat="36.8233164" lon="-3.6067609"><ele>965.0</ele><time>2026-03-07T11:35:50.982Z</time></trkpt><trkpt lat="36.8232771" lon="-3.6068702"><ele>965.0</ele><time>2026-03-07T11:35:51.973Z</time></trkpt><trkpt lat="36.8232477" lon="-3.6069763"><ele>965.0</ele><time>2026-03-07T11:35:52.992Z</time></trkpt><trkpt lat="36.823231" lon="-3.6070676"><ele>965.0</ele><time>2026-03-07T11:35:54.007Z</time></trkpt><trkpt lat="36.8232283" lon="-3.6071648"><ele>965.0</ele><time>2026-03-07T11:35:55.973Z</time></trkpt><trkpt lat="36.8232884" lon="-3.6072645"><ele>965.0</ele><time>2026-03-07T11:35:57.978Z</time></trkpt><trkpt lat="36.8233051" lon="-3.6074101"><ele>964.6666666666667</ele><time>2026-03-07T11:35:59.971Z</time></trkpt><trkpt lat="36.8232677" lon="-3.6074767"><ele>964.3333333333334</ele><time>2026-03-07T11:36:00.975Z</time></trkpt><trkpt lat="36.8232124" lon="-3.60753"><ele>964.0</ele><time>2026-03-07T11:36:01.97Z</time></trkpt><trkpt lat="36.823151" lon="-3.6075512"><ele>963.6666666666667</ele><time>2026-03-07T11:36:02.972Z</time></trkpt><trkpt lat="36.82305" lon="-3.6075043"><ele>963.3333333333334</ele><time>2026-03-07T11:36:04.985Z</time></trkpt><trkpt lat="36.8229955" lon="-3.6074392"><ele>963.0</ele><time>2026-03-07T11:36:05.984Z</time></trkpt><trkpt lat="36.822937" lon="-3.6073483"><ele>963.0</ele><time>2026-03-07T11:36:06.985Z</time></trkpt><trkpt lat="36.8228826" lon="-3.6072462"><ele>963.0</ele><time>2026-03-07T11:36:08.001Z</time></trkpt><trkpt lat="36.8228436" lon="-3.6071455"><ele>963.0</ele><time>2026-03-07T11:36:09Z</time></trkpt><trkpt lat="36.8228131" lon="-3.6070689"><ele>963.0</ele><time>2026-03-07T11:36:09.995Z</time></trkpt><trkpt lat="36.8227515" lon="-3.6069946"><ele>963.0</ele><time>2026-03-07T11:36:11.994Z</time></trkpt><trkpt lat="36.8226281" lon="-3.6069281"><ele>966.8333333333334</ele><time>2026-03-07T11:36:14.003Z</time></trkpt><trkpt lat="36.8225606" lon="-3.6068867"><ele>970.6666666666667</ele><time>2026-03-07T11:36:14.98Z</time></trkpt><trkpt lat="36.8224993" lon="-3.606831"><ele>974.5</ele><time>2026-03-07T11:36:15.974Z</time></trkpt><trkpt lat="36.8224549" lon="-3.6067681"><ele>978.3333333333334</ele><time>2026-03-07T11:36:17.006Z</time></trkpt><trkpt lat="36.8223834" lon="-3.6066578"><ele>982.1666666666667</ele><time>2026-03-07T11:36:18.982Z</time></trkpt><trkpt lat="36.8223281" lon="-3.6066182"><ele>986.0</ele><time>2026-03-07T11:36:21.055Z</time></trkpt><trkpt lat="36.8222714" lon="-3.6066704"><ele>986.0</ele><time>2026-03-07T11:36:23.999Z</time></trkpt><trkpt lat="36.8222042" lon="-3.6067655"><ele>985.9999999999999</ele><time>2026-03-07T11:36:26.011Z</time></trkpt><trkpt lat="36.8221182" lon="-3.606831"><ele>985.9999999999999</ele><time>2026-03-07T11:36:28.008Z</time></trkpt><trkpt lat="36.8220558" lon="-3.6069083"><ele>986.0</ele><time>2026-03-07T11:36:29.997Z</time></trkpt><trkpt lat="36.8220148" lon="-3.6070199"><ele>986.0</ele><time>2026-03-07T11:36:31.999Z</time></trkpt><trkpt lat="36.8219931" lon="-3.6071"><ele>986.5000000000001</ele><time>2026-03-07T11:36:33.005Z</time></trkpt><trkpt lat="36.821966" lon="-3.6071884"><ele>987.0</ele><time>2026-03-07T11:36:34.001Z</time></trkpt><trkpt lat="36.8219352" lon="-3.6072786"><ele>987.5</ele><time>2026-03-07T11:36:35.007Z</time></trkpt><trkpt lat="36.8219096" lon="-3.6073728"><ele>988.0</ele><time>2026-03-07T11:36:36.014Z</time></trkpt><trkpt lat="36.8218898" lon="-3.6074702"><ele>988.5000000000001</ele><time>2026-03-07T11:36:37.002Z</time></trkpt><trkpt lat="36.8218701" lon="-3.607559"><ele>989.0</ele><time>2026-03-07T11:36:37.983Z</time></trkpt><trkpt lat="36.8218504" lon="-3.6076392"><ele>991.1428571428571</ele><time>2026-03-07T11:36:39.015Z</time></trkpt><trkpt lat="36.8218103" lon="-3.6077027"><ele>993.2857142857142</ele><time>2026-03-07T11:36:39.971Z</time></trkpt><trkpt lat="36.8217565" lon="-3.607752"><ele>995.4285714285713</ele><time>2026-03-07T11:36:40.986Z</time></trkpt><trkpt lat="36.8217032" lon="-3.6078086"><ele>997.5714285714284</ele><time>2026-03-07T11:36:41.993Z</time></trkpt><trkpt lat="36.8216619" lon="-3.6078829"><ele>999.7142857142857</ele><time>2026-03-07T11:36:42.992Z</time></trkpt><trkpt lat="36.8216423" lon="-3.607974"><ele>1001.8571428571427</ele><time>2026-03-07T11:36:43.974Z</time></trkpt><trkpt lat="36.8216235" lon="-3.6080763"><ele>1003.9999999999999</ele><time>2026-03-07T11:36:44.989Z</time></trkpt><trkpt lat="36.8215965" lon="-3.6081764"><ele>1005.0</ele><time>2026-03-07T11:36:46.007Z</time></trkpt><trkpt lat="36.821571" lon="-3.6082646"><ele>1006.0000000000001</ele><time>2026-03-07T11:36:46.985Z</time></trkpt><trkpt lat="36.8215394" lon="-3.6083395"><ele>1007.0000000000001</ele><time>2026-03-07T11:36:47.973Z</time></trkpt><trkpt lat="36.8214723" lon="-3.6084515"><ele>1008.0</ele><time>2026-03-07T11:36:50.014Z</time></trkpt><trkpt lat="36.821413" lon="-3.6085441"><ele>1009.0</ele><time>2026-03-07T11:36:51.996Z</time></trkpt><trkpt lat="36.8213321" lon="-3.6086446"><ele>1009.8333333333333</ele><time>2026-03-07T11:36:53.993Z</time></trkpt><trkpt lat="36.8212231" lon="-3.6086945"><ele>1010.6666666666666</ele><time>2026-03-07T11:36:55.999Z</time></trkpt><trkpt lat="36.8211528" lon="-3.6086892"><ele>1011.5</ele><time>2026-03-07T11:36:56.997Z</time></trkpt><trkpt lat="36.8210853" lon="-3.6086956"><ele>1012.3333333333333</ele><time>2026-03-07T11:36:58.001Z</time></trkpt><trkpt lat="36.8210085" lon="-3.6087468"><ele>1013.1666666666666</ele><time>2026-03-07T11:37:00.044Z</time></trkpt><trkpt lat="36.8210057" lon="-3.6088262"><ele>1014.0</ele><time>2026-03-07T11:37:02.026Z</time></trkpt><trkpt lat="36.8210626" lon="-3.6088929"><ele>1014.0</ele><time>2026-03-07T11:37:03.991Z</time></trkpt><trkpt lat="36.8211459" lon="-3.6089852"><ele>1014.0000000000001</ele><time>2026-03-07T11:37:05.989Z</time></trkpt><trkpt lat="36.8211643" lon="-3.6091079"><ele>1014.0000000000001</ele><time>2026-03-07T11:37:08.005Z</time></trkpt><trkpt lat="36.8210904" lon="-3.6092324"><ele>1014.0</ele><time>2026-03-07T11:37:10.005Z</time></trkpt><trkpt lat="36.8210468" lon="-3.6093051"><ele>1014.0</ele><time>2026-03-07T11:37:11.004Z</time></trkpt><trkpt lat="36.8209841" lon="-3.6093637"><ele>1015.3333333333334</ele><time>2026-03-07T11:37:12.008Z</time></trkpt><trkpt lat="36.8209215" lon="-3.6094143"><ele>1016.6666666666667</ele><time>2026-03-07T11:37:13.024Z</time></trkpt><trkpt lat="36.8208254" lon="-3.6094842"><ele>1018.0</ele><time>2026-03-07T11:37:14.994Z</time></trkpt><trkpt lat="36.8208093" lon="-3.6095619"><ele>1019.3333333333334</ele><time>2026-03-07T11:37:17.027Z</time></trkpt><trkpt lat="36.8208544" lon="-3.6096348"><ele>1020.6666666666667</ele><time>2026-03-07T11:37:19.008Z</time></trkpt><trkpt lat="36.8209518" lon="-3.6096276"><ele>1022.0</ele><time>2026-03-07T11:37:22.017Z</time></trkpt><trkpt lat="36.8210435" lon="-3.60965"><ele>1022.0000000000001</ele><time>2026-03-07T11:37:24.063Z</time></trkpt><trkpt lat="36.8211298" lon="-3.6096877"><ele>1022.0</ele><time>2026-03-07T11:37:26.047Z</time></trkpt><trkpt lat="36.8211894" lon="-3.6097201"><ele>1022.0</ele><time>2026-03-07T11:37:28.004Z</time></trkpt><trkpt lat="36.8212441" lon="-3.6097738"><ele>1022.0</ele><time>2026-03-07T11:37:30.029Z</time></trkpt><trkpt lat="36.8213301" lon="-3.6098456"><ele>1022.0000000000001</ele><time>2026-03-07T11:37:32.034Z</time></trkpt><trkpt lat="36.8214057" lon="-3.60993"><ele>1022.0</ele><time>2026-03-07T11:37:33.98Z</time></trkpt><trkpt lat="36.8214802" lon="-3.6100219"><ele>1022.0000000000001</ele><time>2026-03-07T11:37:35.995Z</time></trkpt><trkpt lat="36.8215316" lon="-3.6100978"><ele>1022.0</ele><time>2026-03-07T11:37:39.005Z</time></trkpt><trkpt lat="36.8216017" lon="-3.6102125"><ele>1022.0</ele><time>2026-03-07T11:37:41.019Z</time></trkpt><trkpt lat="36.8216155" lon="-3.610291"><ele>1022.0</ele><time>2026-03-07T11:37:41.981Z</time></trkpt><trkpt lat="36.821603" lon="-3.6103813"><ele>1022.0000000000001</ele><time>2026-03-07T11:37:43.006Z</time></trkpt><trkpt lat="36.8216524" lon="-3.6104594"><ele>1022.0</ele><time>2026-03-07T11:38:08.004Z</time></trkpt><trkpt lat="36.8217096" lon="-3.6105524"><ele>1022.8333333333334</ele><time>2026-03-07T11:38:11.104Z</time></trkpt><trkpt lat="36.8217866" lon="-3.610689"><ele>1023.6666666666667</ele><time>2026-03-07T11:38:13.007Z</time></trkpt><trkpt lat="36.8218362" lon="-3.6107568"><ele>1024.5</ele><time>2026-03-07T11:38:14Z</time></trkpt><trkpt lat="36.821887" lon="-3.6108182"><ele>1025.3333333333333</ele><time>2026-03-07T11:38:14.99Z</time></trkpt><trkpt lat="36.8219448" lon="-3.6108766"><ele>1026.1666666666665</ele><time>2026-03-07T11:38:15.98Z</time></trkpt><trkpt lat="36.8220034" lon="-3.6109295"><ele>1027.0</ele><time>2026-03-07T11:38:16.981Z</time></trkpt><trkpt lat="36.8220595" lon="-3.6109876"><ele>1023.4999999999999</ele><time>2026-03-07T11:38:17.987Z</time></trkpt><trkpt lat="36.8221209" lon="-3.6110436"><ele>1020.0</ele><time>2026-03-07T11:38:18.977Z</time></trkpt><trkpt lat="36.8221728" lon="-3.6111051"><ele>1016.5</ele><time>2026-03-07T11:38:19.998Z</time></trkpt><trkpt lat="36.8222144" lon="-3.6111721"><ele>1013.0</ele><time>2026-03-07T11:38:20.975Z</time></trkpt><trkpt lat="36.8222491" lon="-3.6112378"><ele>1009.4999999999999</ele><time>2026-03-07T11:38:21.992Z</time></trkpt><trkpt lat="36.8222595" lon="-3.6113739"><ele>1006.0</ele><time>2026-03-07T11:38:23.983Z</time></trkpt><trkpt lat="36.822196" lon="-3.6115032"><ele>1005.9999999999999</ele><time>2026-03-07T11:38:25.998Z</time></trkpt><trkpt lat="36.8221529" lon="-3.6115711"><ele>1006.0</ele><time>2026-03-07T11:38:26.984Z</time></trkpt><trkpt lat="36.822122" lon="-3.6116521"><ele>1006.0</ele><time>2026-03-07T11:38:28.005Z</time></trkpt><trkpt lat="36.822106" lon="-3.6117471"><ele>1006.0</ele><time>2026-03-07T11:38:28.985Z</time></trkpt><trkpt lat="36.8221093" lon="-3.6118448"><ele>1005.9999999999999</ele><time>2026-03-07T11:38:29.976Z</time></trkpt><trkpt lat="36.8221081" lon="-3.6119398"><ele>1006.0</ele><time>2026-03-07T11:38:31.02Z</time></trkpt><trkpt lat="36.8220555" lon="-3.6120624"><ele>1006.1428571428572</ele><time>2026-03-07T11:38:32.969Z</time></trkpt><trkpt lat="36.8219894" lon="-3.6121229"><ele>1006.2857142857144</ele><time>2026-03-07T11:38:34.992Z</time></trkpt><trkpt lat="36.8220498" lon="-3.6121808"><ele>1006.4285714285714</ele><time>2026-03-07T11:38:38.997Z</time></trkpt><trkpt lat="36.8221165" lon="-3.612175"><ele>1006.5714285714287</ele><time>2026-03-07T11:38:40.004Z</time></trkpt><trkpt lat="36.8221852" lon="-3.6121602"><ele>1006.7142857142858</ele><time>2026-03-07T11:38:41.001Z</time></trkpt><trkpt lat="36.8222525" lon="-3.6121662"><ele>1006.8571428571429</ele><time>2026-03-07T11:38:41.984Z</time></trkpt><trkpt lat="36.8223188" lon="-3.6121836"><ele>1007.0</ele><time>2026-03-07T11:38:42.984Z</time></trkpt><trkpt lat="36.8223915" lon="-3.6122028"><ele>1007.0000000000001</ele><time>2026-03-07T11:38:43.997Z</time></trkpt><trkpt lat="36.8224715" lon="-3.6122293"><ele>1007.0</ele><time>2026-03-07T11:38:45.002Z</time></trkpt><trkpt lat="36.8225572" lon="-3.6122508"><ele>1007.0</ele><time>2026-03-07T11:38:45.992Z</time></trkpt><trkpt lat="36.8226445" lon="-3.6122682"><ele>1007.0</ele><time>2026-03-07T11:38:46.99Z</time></trkpt><trkpt lat="36.8227242" lon="-3.6122821"><ele>1007.0000000000001</ele><time>2026-03-07T11:38:48.003Z</time></trkpt><trkpt lat="36.8227928" lon="-3.6122907"><ele>1007.0</ele><time>2026-03-07T11:38:49.024Z</time></trkpt><trkpt lat="36.8228686" lon="-3.6123048"><ele>1002.8</ele><time>2026-03-07T11:38:49.988Z</time></trkpt><trkpt lat="36.8229567" lon="-3.6123368"><ele>998.6</ele><time>2026-03-07T11:38:51.015Z</time></trkpt><trkpt lat="36.8230401" lon="-3.6123954"><ele>994.3999999999999</ele><time>2026-03-07T11:38:51.988Z</time></trkpt><trkpt lat="36.8231173" lon="-3.6124559"><ele>990.1999999999999</ele><time>2026-03-07T11:38:53.031Z</time></trkpt><trkpt lat="36.8232048" lon="-3.6124945"><ele>986.0</ele><time>2026-03-07T11:38:54.018Z</time></trkpt><trkpt lat="36.8232869" lon="-3.6125289"><ele>986.0000000000001</ele><time>2026-03-07T11:38:54.991Z</time></trkpt><trkpt lat="36.8233661" lon="-3.6125644"><ele>986.0</ele><time>2026-03-07T11:38:56.038Z</time></trkpt><trkpt lat="36.8234472" lon="-3.6125932"><ele>986.0</ele><time>2026-03-07T11:38:57.015Z</time></trkpt><trkpt lat="36.8235267" lon="-3.6126137"><ele>986.0</ele><time>2026-03-07T11:38:58.005Z</time></trkpt><trkpt lat="36.8236017" lon="-3.6126289"><ele>986.0000000000001</ele><time>2026-03-07T11:38:59.013Z</time></trkpt><trkpt lat="36.8236726" lon="-3.6126368"><ele>986.0</ele><time>2026-03-07T11:38:59.978Z</time></trkpt><trkpt lat="36.823737" lon="-3.6126437"><ele>983.8</ele><time>2026-03-07T11:39:01.019Z</time></trkpt><trkpt lat="36.8238541" lon="-3.612652"><ele>981.5999999999999</ele><time>2026-03-07T11:39:02.985Z</time></trkpt><trkpt lat="36.8239707" lon="-3.6126538"><ele>979.4</ele><time>2026-03-07T11:39:05.009Z</time></trkpt><trkpt lat="36.8240619" lon="-3.6126456"><ele>977.2</ele><time>2026-03-07T11:39:07.034Z</time></trkpt><trkpt lat="36.8241396" lon="-3.6126479"><ele>975.0</ele><time>2026-03-07T11:39:09.005Z</time></trkpt><trkpt lat="36.8242077" lon="-3.612739"><ele>974.3333333333334</ele><time>2026-03-07T11:39:11.998Z</time></trkpt><trkpt lat="36.8242571" lon="-3.6128257"><ele>973.6666666666667</ele><time>2026-03-07T11:39:14.018Z</time></trkpt><trkpt lat="36.824303" lon="-3.6128967"><ele>973.0</ele><time>2026-03-07T11:39:16.004Z</time></trkpt><trkpt lat="36.8243496" lon="-3.6129545"><ele>972.3333333333334</ele><time>2026-03-07T11:39:18.007Z</time></trkpt><trkpt lat="36.8244067" lon="-3.6130333"><ele>971.6666666666667</ele><time>2026-03-07T11:39:20.017Z</time></trkpt><trkpt lat="36.8244828" lon="-3.6131269"><ele>971.0</ele><time>2026-03-07T11:39:21.978Z</time></trkpt><trkpt lat="36.824554" lon="-3.6132393"><ele>968.8333333333334</ele><time>2026-03-07T11:39:23.994Z</time></trkpt><trkpt lat="36.8245799" lon="-3.6133961"><ele>966.6666666666667</ele><time>2026-03-07T11:39:25.987Z</time></trkpt><trkpt lat="36.8245777" lon="-3.6134834"><ele>964.5</ele><time>2026-03-07T11:39:26.984Z</time></trkpt><trkpt lat="36.824569" lon="-3.6135801"><ele>962.3333333333333</ele><time>2026-03-07T11:39:27.982Z</time></trkpt><trkpt lat="36.8245432" lon="-3.6136774"><ele>960.1666666666666</ele><time>2026-03-07T11:39:28.989Z</time></trkpt><trkpt lat="36.824514" lon="-3.6137787"><ele>958.0</ele><time>2026-03-07T11:39:30.002Z</time></trkpt><trkpt lat="36.8244867" lon="-3.6138716"><ele>957.1666666666666</ele><time>2026-03-07T11:39:31.004Z</time></trkpt><trkpt lat="36.8244511" lon="-3.6139528"><ele>956.3333333333333</ele><time>2026-03-07T11:39:32.001Z</time></trkpt><trkpt lat="36.8244088" lon="-3.6140145"><ele>955.5</ele><time>2026-03-07T11:39:32.992Z</time></trkpt><trkpt lat="36.8243679" lon="-3.6140961"><ele>954.6666666666667</ele><time>2026-03-07T11:39:35Z</time></trkpt><trkpt lat="36.8244221" lon="-3.6141751"><ele>953.8333333333334</ele><time>2026-03-07T11:39:36.993Z</time></trkpt><trkpt lat="36.8245425" lon="-3.614241"><ele>953.0</ele><time>2026-03-07T11:39:39.046Z</time></trkpt><trkpt lat="36.8246256" lon="-3.6142699"><ele>953.0000000000001</ele><time>2026-03-07T11:39:40.003Z</time></trkpt><trkpt lat="36.8247122" lon="-3.6142965"><ele>953.0</ele><time>2026-03-07T11:39:40.995Z</time></trkpt><trkpt lat="36.8247867" lon="-3.6143069"><ele>953.0</ele><time>2026-03-07T11:39:42.005Z</time></trkpt><trkpt lat="36.8248787" lon="-3.6143434"><ele>953.0</ele><time>2026-03-07T11:39:44.028Z</time></trkpt><trkpt lat="36.8249232" lon="-3.6144522"><ele>953.0000000000001</ele><time>2026-03-07T11:39:46.014Z</time></trkpt><trkpt lat="36.8249152" lon="-3.6145485"><ele>953.0</ele><time>2026-03-07T11:39:47.038Z</time></trkpt><trkpt lat="36.8249096" lon="-3.614654"><ele>952.1666666666667</ele><time>2026-03-07T11:39:48.016Z</time></trkpt><trkpt lat="36.8249006" lon="-3.6147458"><ele>951.3333333333334</ele><time>2026-03-07T11:39:48.993Z</time></trkpt><trkpt lat="36.8248712" lon="-3.6148252"><ele>950.5</ele><time>2026-03-07T11:39:50.023Z</time></trkpt><trkpt lat="36.8248269" lon="-3.6148985"><ele>949.6666666666667</ele><time>2026-03-07T11:39:51.011Z</time></trkpt><trkpt lat="36.8247755" lon="-3.6149758"><ele>948.8333333333334</ele><time>2026-03-07T11:39:52.037Z</time></trkpt><trkpt lat="36.8247004" lon="-3.6150386"><ele>948.0</ele><time>2026-03-07T11:39:53.003Z</time></trkpt><trkpt lat="36.8246273" lon="-3.6150883"><ele>948.0</ele><time>2026-03-07T11:39:54.013Z</time></trkpt><trkpt lat="36.8245591" lon="-3.6151269"><ele>948.0</ele><time>2026-03-07T11:39:55.016Z</time></trkpt><trkpt lat="36.8244703" lon="-3.6151601"><ele>948.0</ele><time>2026-03-07T11:39:57.002Z</time></trkpt><trkpt lat="36.824459" lon="-3.6152652"><ele>948.0</ele><time>2026-03-07T11:40:00.013Z</time></trkpt><trkpt lat="36.8245194" lon="-3.6153593"><ele>948.0</ele><time>2026-03-07T11:40:02.017Z</time></trkpt><trkpt lat="36.8245326" lon="-3.615514"><ele>946.6666666666666</ele><time>2026-03-07T11:40:04.01Z</time></trkpt><trkpt lat="36.8245143" lon="-3.615605"><ele>945.3333333333333</ele><time>2026-03-07T11:40:05.016Z</time></trkpt><trkpt lat="36.8244847" lon="-3.6157062"><ele>944.0</ele><time>2026-03-07T11:40:06.006Z</time></trkpt><trkpt lat="36.8244585" lon="-3.6158201"><ele>942.6666666666666</ele><time>2026-03-07T11:40:07.022Z</time></trkpt><trkpt lat="36.8244336" lon="-3.6159401"><ele>941.3333333333333</ele><time>2026-03-07T11:40:08.006Z</time></trkpt><trkpt lat="36.8244161" lon="-3.6160453"><ele>940.0</ele><time>2026-03-07T11:40:09Z</time></trkpt><trkpt lat="36.8244045" lon="-3.616136"><ele>939.1666666666666</ele><time>2026-03-07T11:40:10.01Z</time></trkpt><trkpt lat="36.8243914" lon="-3.6162251"><ele>938.3333333333333</ele><time>2026-03-07T11:40:10.998Z</time></trkpt><trkpt lat="36.8243872" lon="-3.6163044"><ele>937.5</ele><time>2026-03-07T11:40:12.022Z</time></trkpt><trkpt lat="36.8243676" lon="-3.6164541"><ele>936.6666666666667</ele><time>2026-03-07T11:40:14Z</time></trkpt><trkpt lat="36.8243557" lon="-3.6165349"><ele>935.8333333333334</ele><time>2026-03-07T11:40:14.989Z</time></trkpt><trkpt lat="36.8243166" lon="-3.616668"><ele>935.0</ele><time>2026-03-07T11:40:16.978Z</time></trkpt><trkpt lat="36.824302" lon="-3.6167827"><ele>935.0000000000001</ele><time>2026-03-07T11:40:18.99Z</time></trkpt><trkpt lat="36.8243471" lon="-3.6169269"><ele>935.0</ele><time>2026-03-07T11:40:20.992Z</time></trkpt><trkpt lat="36.8243848" lon="-3.6169986"><ele>935.0</ele><time>2026-03-07T11:40:21.989Z</time></trkpt><trkpt lat="36.8244309" lon="-3.6171147"><ele>935.0</ele><time>2026-03-07T11:40:24.006Z</time></trkpt><trkpt lat="36.8243998" lon="-3.6172161"><ele>935.0000000000001</ele><time>2026-03-07T11:40:26.074Z</time></trkpt><trkpt lat="36.8243673" lon="-3.617286"><ele>935.0</ele><time>2026-03-07T11:40:28.008Z</time></trkpt><trkpt lat="36.8244099" lon="-3.6174233"><ele>932.8333333333334</ele><time>2026-03-07T11:40:29.994Z</time></trkpt><trkpt lat="36.8244459" lon="-3.6174952"><ele>930.6666666666667</ele><time>2026-03-07T11:40:31.017Z</time></trkpt><trkpt lat="36.8244841" lon="-3.6175674"><ele>928.5</ele><time>2026-03-07T11:40:32.013Z</time></trkpt><trkpt lat="36.8245202" lon="-3.6176515"><ele>926.3333333333333</ele><time>2026-03-07T11:40:32.979Z</time></trkpt><trkpt lat="36.8245459" lon="-3.6177489"><ele>924.1666666666666</ele><time>2026-03-07T11:40:33.993Z</time></trkpt><trkpt lat="36.8245532" lon="-3.617848"><ele>922.0</ele><time>2026-03-07T11:40:35.052Z</time></trkpt><trkpt lat="36.8245457" lon="-3.6179461"><ele>921.4000000000001</ele><time>2026-03-07T11:40:36.001Z</time></trkpt><trkpt lat="36.8245222" lon="-3.6180371"><ele>920.8000000000001</ele><time>2026-03-07T11:40:37.003Z</time></trkpt><trkpt lat="36.8244827" lon="-3.6181586"><ele>920.2</ele><time>2026-03-07T11:40:38.976Z</time></trkpt><trkpt lat="36.8245034" lon="-3.6182519"><ele>919.6</ele><time>2026-03-07T11:40:41.009Z</time></trkpt><trkpt lat="36.8245659" lon="-3.618341"><ele>919.0</ele><time>2026-03-07T11:40:43.019Z</time></trkpt><trkpt lat="36.8246415" lon="-3.6184398"><ele>919.0</ele><time>2026-03-07T11:40:45.03Z</time></trkpt><trkpt lat="36.8247095" lon="-3.6185328"><ele>919.0000000000001</ele><time>2026-03-07T11:40:47.039Z</time></trkpt><trkpt lat="36.8247705" lon="-3.6186504"><ele>919.0000000000001</ele><time>2026-03-07T11:40:49.002Z</time></trkpt><trkpt lat="36.8248257" lon="-3.6187593"><ele>919.0</ele><time>2026-03-07T11:40:51.024Z</time></trkpt><trkpt lat="36.8248605" lon="-3.618844"><ele>919.0</ele><time>2026-03-07T11:40:52.011Z</time></trkpt><trkpt lat="36.8248956" lon="-3.6189299"><ele>920.8000000000001</ele><time>2026-03-07T11:40:53.083Z</time></trkpt><trkpt lat="36.8249195" lon="-3.6190625"><ele>922.6000000000001</ele><time>2026-03-07T11:40:54.963Z</time></trkpt><trkpt lat="36.8249071" lon="-3.6191493"><ele>924.4</ele><time>2026-03-07T11:40:55.981Z</time></trkpt><trkpt lat="36.8248763" lon="-3.6192863"><ele>926.2</ele><time>2026-03-07T11:40:57.96Z</time></trkpt><trkpt lat="36.8248804" lon="-3.6194058"><ele>928.0</ele><time>2026-03-07T11:40:59.988Z</time></trkpt><trkpt lat="36.8249346" lon="-3.619514"><ele>925.8333333333333</ele><time>2026-03-07T11:41:01.996Z</time></trkpt><trkpt lat="36.8249817" lon="-3.6195766"><ele>923.6666666666666</ele><time>2026-03-07T11:41:03.009Z</time></trkpt><trkpt lat="36.8250396" lon="-3.6196463"><ele>921.5</ele><time>2026-03-07T11:41:04.048Z</time></trkpt><trkpt lat="36.8251047" lon="-3.6197284"><ele>919.3333333333333</ele><time>2026-03-07T11:41:05.025Z</time></trkpt><trkpt lat="36.8251716" lon="-3.619806"><ele>917.1666666666666</ele><time>2026-03-07T11:41:06.002Z</time></trkpt><trkpt lat="36.8252333" lon="-3.6198916"><ele>915.0</ele><time>2026-03-07T11:41:07.014Z</time></trkpt><trkpt lat="36.8252821" lon="-3.6199655"><ele>915.0</ele><time>2026-03-07T11:41:08.011Z</time></trkpt><trkpt lat="36.8253381" lon="-3.6200285"><ele>915.0</ele><time>2026-03-07T11:41:08.99Z</time></trkpt><trkpt lat="36.8254035" lon="-3.6200753"><ele>915.0</ele><time>2026-03-07T11:41:10.045Z</time></trkpt><trkpt lat="36.8254787" lon="-3.620116"><ele>915.0</ele><time>2026-03-07T11:41:10.989Z</time></trkpt><trkpt lat="36.8255622" lon="-3.6201578"><ele>915.0</ele><time>2026-03-07T11:41:12.008Z</time></trkpt><trkpt lat="36.8256363" lon="-3.6202155"><ele>915.0</ele><time>2026-03-07T11:41:12.98Z</time></trkpt><trkpt lat="36.8256883" lon="-3.6202762"><ele>917.0</ele><time>2026-03-07T11:41:14.008Z</time></trkpt><trkpt lat="36.8257229" lon="-3.6204101"><ele>919.0</ele><time>2026-03-07T11:41:16.011Z</time></trkpt><trkpt lat="36.8257112" lon="-3.6205107"><ele>921.0</ele><time>2026-03-07T11:41:17.006Z</time></trkpt><trkpt lat="36.8257012" lon="-3.6206253"><ele>923.0</ele><time>2026-03-07T11:41:18.002Z</time></trkpt><trkpt lat="36.8256968" lon="-3.6207277"><ele>925.0</ele><time>2026-03-07T11:41:19.013Z</time></trkpt><trkpt lat="36.8257056" lon="-3.6208143"><ele>927.0</ele><time>2026-03-07T11:41:20.018Z</time></trkpt><trkpt lat="36.8257238" lon="-3.6208991"><ele>927.0</ele><time>2026-03-07T11:41:21.002Z</time></trkpt><trkpt lat="36.82576" lon="-3.6209813"><ele>927.0</ele><time>2026-03-07T11:41:22.023Z</time></trkpt><trkpt lat="36.825797" lon="-3.6210558"><ele>927.0</ele><time>2026-03-07T11:41:23.006Z</time></trkpt><trkpt lat="36.8258231" lon="-3.6211291"><ele>927.0</ele><time>2026-03-07T11:41:23.992Z</time></trkpt><trkpt lat="36.8258116" lon="-3.6212845"><ele>927.0</ele><time>2026-03-07T11:41:26Z</time></trkpt><trkpt lat="36.8257871" lon="-3.6213698"><ele>927.0</ele><time>2026-03-07T11:41:26.985Z</time></trkpt><trkpt lat="36.8257455" lon="-3.6214562"><ele>927.1666666666666</ele><time>2026-03-07T11:41:28.02Z</time></trkpt><trkpt lat="36.8257105" lon="-3.6215405"><ele>927.3333333333333</ele><time>2026-03-07T11:41:29.023Z</time></trkpt><trkpt lat="36.8256776" lon="-3.6216131"><ele>927.5</ele><time>2026-03-07T11:41:29.996Z</time></trkpt><trkpt lat="36.8256204" lon="-3.6217341"><ele>927.6666666666666</ele><time>2026-03-07T11:41:32Z</time></trkpt><trkpt lat="36.8255831" lon="-3.621839"><ele>927.8333333333333</ele><time>2026-03-07T11:41:33.983Z</time></trkpt><trkpt lat="36.8255779" lon="-3.6219187"><ele>928.0</ele><time>2026-03-07T11:41:53.991Z</time></trkpt><trkpt lat="36.8255065" lon="-3.6219225"><ele>928.0</ele><time>2026-03-07T11:41:55.994Z</time></trkpt><trkpt lat="36.8253862" lon="-3.6218656"><ele>928.0</ele><time>2026-03-07T11:41:58.002Z</time></trkpt><trkpt lat="36.8253045" lon="-3.6217941"><ele>928.0</ele><time>2026-03-07T11:41:58.982Z</time></trkpt><trkpt lat="36.8252232" lon="-3.6217253"><ele>928.0</ele><time>2026-03-07T11:41:59.987Z</time></trkpt><trkpt lat="36.8251436" lon="-3.6216583"><ele>928.0</ele><time>2026-03-07T11:42:00.977Z</time></trkpt><trkpt lat="36.8250645" lon="-3.6215963"><ele>928.0</ele><time>2026-03-07T11:42:01.994Z</time></trkpt><trkpt lat="36.8249851" lon="-3.6215398"><ele>928.0</ele><time>2026-03-07T11:42:02.979Z</time></trkpt><trkpt lat="36.8249091" lon="-3.6215013"><ele>928.0</ele><time>2026-03-07T11:42:03.979Z</time></trkpt><trkpt lat="36.82482" lon="-3.6214778"><ele>928.0</ele><time>2026-03-07T11:42:04.99Z</time></trkpt><trkpt lat="36.8247207" lon="-3.6214655"><ele>928.0</ele><time>2026-03-07T11:42:05.995Z</time></trkpt><trkpt lat="36.8246279" lon="-3.6214625"><ele>927.9999999999999</ele><time>2026-03-07T11:42:06.98Z</time></trkpt><trkpt lat="36.8245449" lon="-3.6214642"><ele>928.0</ele><time>2026-03-07T11:42:07.979Z</time></trkpt><trkpt lat="36.8244663" lon="-3.621481"><ele>928.0</ele><time>2026-03-07T11:42:08.979Z</time></trkpt><trkpt lat="36.8243848" lon="-3.6215248"><ele>928.0</ele><time>2026-03-07T11:42:09.991Z</time></trkpt><trkpt lat="36.8242946" lon="-3.6215763"><ele>927.9999999999999</ele><time>2026-03-07T11:42:10.986Z</time></trkpt><trkpt lat="36.8242084" lon="-3.621634"><ele>928.0</ele><time>2026-03-07T11:42:11.991Z</time></trkpt><trkpt lat="36.8241318" lon="-3.6216906"><ele>926.5999999999999</ele><time>2026-03-07T11:42:12.982Z</time></trkpt><trkpt lat="36.8240617" lon="-3.6217397"><ele>925.1999999999999</ele><time>2026-03-07T11:42:13.988Z</time></trkpt><trkpt lat="36.8239894" lon="-3.6217773"><ele>923.8</ele><time>2026-03-07T11:42:14.992Z</time></trkpt><trkpt lat="36.8239024" lon="-3.6218074"><ele>922.4</ele><time>2026-03-07T11:42:15.985Z</time></trkpt><trkpt lat="36.8237988" lon="-3.6218341"><ele>921.0</ele><time>2026-03-07T11:42:16.986Z</time></trkpt><trkpt lat="36.8236916" lon="-3.6218656"><ele>921.0</ele><time>2026-03-07T11:42:17.986Z</time></trkpt><trkpt lat="36.8235934" lon="-3.6219037"><ele>921.0</ele><time>2026-03-07T11:42:18.99Z</time></trkpt><trkpt lat="36.8235052" lon="-3.6219201"><ele>921.0</ele><time>2026-03-07T11:42:19.987Z</time></trkpt><trkpt lat="36.8234338" lon="-3.6219134"><ele>921.0</ele><time>2026-03-07T11:42:20.995Z</time></trkpt><trkpt lat="36.8233825" lon="-3.621867"><ele>921.0</ele><time>2026-03-07T11:42:21.978Z</time></trkpt><trkpt lat="36.8233427" lon="-3.6217493"><ele>921.0</ele><time>2026-03-07T11:42:23.997Z</time></trkpt><trkpt lat="36.8233471" lon="-3.621661"><ele>919.6666666666666</ele><time>2026-03-07T11:42:25Z</time></trkpt><trkpt lat="36.8233473" lon="-3.6215588"><ele>918.3333333333333</ele><time>2026-03-07T11:42:25.996Z</time></trkpt><trkpt lat="36.8233008" lon="-3.6214671"><ele>917.0</ele><time>2026-03-07T11:42:26.993Z</time></trkpt><trkpt lat="36.8232447" lon="-3.6213767"><ele>915.6666666666666</ele><time>2026-03-07T11:42:28.023Z</time></trkpt><trkpt lat="36.8231742" lon="-3.6212988"><ele>914.3333333333333</ele><time>2026-03-07T11:42:28.977Z</time></trkpt><trkpt lat="36.8231022" lon="-3.621257"><ele>913.0</ele><time>2026-03-07T11:42:29.985Z</time></trkpt><trkpt lat="36.8230359" lon="-3.6212635"><ele>912.9999999999999</ele><time>2026-03-07T11:42:30.989Z</time></trkpt><trkpt lat="36.8229716" lon="-3.6212561"><ele>913.0</ele><time>2026-03-07T11:42:31.999Z</time></trkpt><trkpt lat="36.8229115" lon="-3.6211274"><ele>913.0</ele><time>2026-03-07T11:42:33.984Z</time></trkpt><trkpt lat="36.8229052" lon="-3.6210417"><ele>913.0</ele><time>2026-03-07T11:42:34.989Z</time></trkpt><trkpt lat="36.8228754" lon="-3.620957"><ele>912.9999999999999</ele><time>2026-03-07T11:42:35.988Z</time></trkpt><trkpt lat="36.8228255" lon="-3.6208786"><ele>913.0</ele><time>2026-03-07T11:42:36.98Z</time></trkpt><trkpt lat="36.8227533" lon="-3.6208337"><ele>913.3333333333333</ele><time>2026-03-07T11:42:37.978Z</time></trkpt><trkpt lat="36.822674" lon="-3.6208071"><ele>913.6666666666666</ele><time>2026-03-07T11:42:38.992Z</time></trkpt><trkpt lat="36.82258" lon="-3.6207763"><ele>914.0</ele><time>2026-03-07T11:42:39.985Z</time></trkpt><trkpt lat="36.822497" lon="-3.6207417"><ele>914.3333333333333</ele><time>2026-03-07T11:42:40.98Z</time></trkpt><trkpt lat="36.822426" lon="-3.6207308"><ele>914.6666666666666</ele><time>2026-03-07T11:42:41.991Z</time></trkpt><trkpt lat="36.8223556" lon="-3.6207649"><ele>915.0</ele><time>2026-03-07T11:42:43.014Z</time></trkpt><trkpt lat="36.8222773" lon="-3.620806"><ele>915.0</ele><time>2026-03-07T11:42:44.003Z</time></trkpt><trkpt lat="36.8221905" lon="-3.6208525"><ele>915.0</ele><time>2026-03-07T11:42:44.986Z</time></trkpt><trkpt lat="36.8221182" lon="-3.6209067"><ele>915.0</ele><time>2026-03-07T11:42:46.005Z</time></trkpt><trkpt lat="36.8220561" lon="-3.6209663"><ele>915.0</ele><time>2026-03-07T11:42:46.986Z</time></trkpt><trkpt lat="36.8219766" lon="-3.6210227"><ele>915.0</ele><time>2026-03-07T11:42:48.006Z</time></trkpt><trkpt lat="36.8218765" lon="-3.6210627"><ele>914.6666666666666</ele><time>2026-03-07T11:42:48.988Z</time></trkpt><trkpt lat="36.8217829" lon="-3.6210941"><ele>914.3333333333333</ele><time>2026-03-07T11:42:50.023Z</time></trkpt><trkpt lat="36.8217086" lon="-3.6210628"><ele>914.0</ele><time>2026-03-07T11:42:51.016Z</time></trkpt><trkpt lat="36.8216404" lon="-3.6210234"><ele>913.6666666666666</ele><time>2026-03-07T11:42:51.992Z</time></trkpt><trkpt lat="36.8215563" lon="-3.621003"><ele>913.3333333333333</ele><time>2026-03-07T11:42:52.994Z</time></trkpt><trkpt lat="36.8214593" lon="-3.6209916"><ele>913.0</ele><time>2026-03-07T11:42:54Z</time></trkpt><trkpt lat="36.8213526" lon="-3.6209891"><ele>912.9999999999999</ele><time>2026-03-07T11:42:54.99Z</time></trkpt><trkpt lat="36.8212528" lon="-3.6209615"><ele>913.0</ele><time>2026-03-07T11:42:55.995Z</time></trkpt><trkpt lat="36.8211723" lon="-3.6209216"><ele>913.0</ele><time>2026-03-07T11:42:57.021Z</time></trkpt><trkpt lat="36.8211088" lon="-3.6208759"><ele>913.0</ele><time>2026-03-07T11:42:58.002Z</time></trkpt><trkpt lat="36.8210516" lon="-3.6208286"><ele>912.9999999999999</ele><time>2026-03-07T11:42:58.981Z</time></trkpt><trkpt lat="36.8210041" lon="-3.620733"><ele>913.0</ele><time>2026-03-07T11:43:01.011Z</time></trkpt><trkpt lat="36.8210321" lon="-3.6206286"><ele>912.9999999999999</ele><time>2026-03-07T11:43:03.014Z</time></trkpt><trkpt lat="36.8210084" lon="-3.620523"><ele>913.0</ele><time>2026-03-07T11:43:05.005Z</time></trkpt><trkpt lat="36.8209419" lon="-3.6205126"><ele>913.0</ele><time>2026-03-07T11:43:06.988Z</time></trkpt><trkpt lat="36.8208446" lon="-3.6205643"><ele>913.0</ele><time>2026-03-07T11:43:09.018Z</time></trkpt><trkpt lat="36.8207899" lon="-3.6206124"><ele>912.9999999999999</ele><time>2026-03-07T11:43:10.009Z</time></trkpt><trkpt lat="36.8207377" lon="-3.6206689"><ele>913.0</ele><time>2026-03-07T11:43:10.984Z</time></trkpt><trkpt lat="36.8206635" lon="-3.6207988"><ele>910.3333333333333</ele><time>2026-03-07T11:43:13.008Z</time></trkpt><trkpt lat="36.8205664" lon="-3.6208768"><ele>907.6666666666666</ele><time>2026-03-07T11:43:15.023Z</time></trkpt><trkpt lat="36.8204938" lon="-3.6208785"><ele>905.0</ele><time>2026-03-07T11:43:16.001Z</time></trkpt><trkpt lat="36.82041" lon="-3.6208733"><ele>902.3333333333333</ele><time>2026-03-07T11:43:16.989Z</time></trkpt><trkpt lat="36.8203385" lon="-3.62086"><ele>899.6666666666666</ele><time>2026-03-07T11:43:17.986Z</time></trkpt><trkpt lat="36.8202822" lon="-3.6208088"><ele>897.0</ele><time>2026-03-07T11:43:18.991Z</time></trkpt><trkpt lat="36.8202265" lon="-3.6207301"><ele>896.1666666666666</ele><time>2026-03-07T11:43:21.012Z</time></trkpt><trkpt lat="36.8201336" lon="-3.6206919"><ele>895.3333333333333</ele><time>2026-03-07T11:43:22.022Z</time></trkpt><trkpt lat="36.8200343" lon="-3.6207072"><ele>894.5</ele><time>2026-03-07T11:43:22.988Z</time></trkpt><trkpt lat="36.8199614" lon="-3.6207623"><ele>893.6666666666666</ele><time>2026-03-07T11:43:23.988Z</time></trkpt><trkpt lat="36.8199062" lon="-3.6208406"><ele>892.8333333333333</ele><time>2026-03-07T11:43:24.997Z</time></trkpt><trkpt lat="36.8198509" lon="-3.6208986"><ele>892.0</ele><time>2026-03-07T11:43:26.021Z</time></trkpt><trkpt lat="36.8197953" lon="-3.6209721"><ele>891.9999999999999</ele><time>2026-03-07T11:43:26.98Z</time></trkpt><trkpt lat="36.819734" lon="-3.6210388"><ele>892.0</ele><time>2026-03-07T11:43:27.998Z</time></trkpt><trkpt lat="36.8196653" lon="-3.6210896"><ele>892.0</ele><time>2026-03-07T11:43:29.019Z</time></trkpt><trkpt lat="36.819597" lon="-3.6211207"><ele>892.0</ele><time>2026-03-07T11:43:30.034Z</time></trkpt><trkpt lat="36.819526" lon="-3.6211262"><ele>891.9999999999999</ele><time>2026-03-07T11:43:30.999Z</time></trkpt><trkpt lat="36.8194696" lon="-3.6210371"><ele>892.0</ele><time>2026-03-07T11:43:33.011Z</time></trkpt><trkpt lat="36.8194043" lon="-3.6208883"><ele>892.0</ele><time>2026-03-07T11:43:35.023Z</time></trkpt><trkpt lat="36.8193292" lon="-3.6208186"><ele>892.0</ele><time>2026-03-07T11:43:36.025Z</time></trkpt><trkpt lat="36.8192302" lon="-3.6207709"><ele>892.0</ele><time>2026-03-07T11:43:37.041Z</time></trkpt><trkpt lat="36.8191206" lon="-3.6207446"><ele>892.0</ele><time>2026-03-07T11:43:38.019Z</time></trkpt><trkpt lat="36.8190066" lon="-3.6207156"><ele>892.0</ele><time>2026-03-07T11:43:39.026Z</time></trkpt><trkpt lat="36.8188982" lon="-3.6207152"><ele>887.0</ele><time>2026-03-07T11:43:40.004Z</time></trkpt><trkpt lat="36.8187876" lon="-3.620723"><ele>882.0</ele><time>2026-03-07T11:43:41.003Z</time></trkpt><trkpt lat="36.8187265" lon="-3.6207726"><ele>877.0</ele><time>2026-03-07T11:43:42.015Z</time></trkpt><trkpt lat="36.8187343" lon="-3.620629"><ele>872.0</ele><time>2026-03-07T11:43:47.004Z</time></trkpt><trkpt lat="36.8187662" lon="-3.6205313"><ele>867.0</ele><time>2026-03-07T11:43:49.015Z</time></trkpt><trkpt lat="36.818731" lon="-3.6204374"><ele>867.0</ele><time>2026-03-07T11:43:51.008Z</time></trkpt><trkpt lat="36.8186104" lon="-3.6203951"><ele>867.0</ele><time>2026-03-07T11:43:53.008Z</time></trkpt><trkpt lat="36.8185064" lon="-3.6204809"><ele>867.0</ele><time>2026-03-07T11:43:55.02Z</time></trkpt><trkpt lat="36.8184587" lon="-3.6205348"><ele>867.0</ele><time>2026-03-07T11:43:56.001Z</time></trkpt><trkpt lat="36.8183954" lon="-3.6205693"><ele>867.0</ele><time>2026-03-07T11:43:57.001Z</time></trkpt><trkpt lat="36.8183328" lon="-3.6206088"><ele>863.6666666666666</ele><time>2026-03-07T11:43:58.022Z</time></trkpt><trkpt lat="36.8182587" lon="-3.6206312"><ele>860.3333333333333</ele><time>2026-03-07T11:43:59.008Z</time></trkpt><trkpt lat="36.8181771" lon="-3.620648"><ele>857.0</ele><time>2026-03-07T11:43:59.979Z</time></trkpt><trkpt lat="36.8180862" lon="-3.6206532"><ele>853.6666666666666</ele><time>2026-03-07T11:44:00.992Z</time></trkpt><trkpt lat="36.8179847" lon="-3.6206519"><ele>850.3333333333333</ele><time>2026-03-07T11:44:01.982Z</time></trkpt><trkpt lat="36.8178936" lon="-3.6206487"><ele>847.0</ele><time>2026-03-07T11:44:02.995Z</time></trkpt><trkpt lat="36.8178169" lon="-3.6206551"><ele>846.9999999999999</ele><time>2026-03-07T11:44:03.989Z</time></trkpt><trkpt lat="36.8177545" lon="-3.6206797"><ele>847.0</ele><time>2026-03-07T11:44:04.982Z</time></trkpt><trkpt lat="36.8177054" lon="-3.6207388"><ele>847.0</ele><time>2026-03-07T11:44:05.992Z</time></trkpt><trkpt lat="36.8176537" lon="-3.6208067"><ele>847.0</ele><time>2026-03-07T11:44:06.997Z</time></trkpt><trkpt lat="36.8175748" lon="-3.6208603"><ele>846.9999999999999</ele><time>2026-03-07T11:44:08.006Z</time></trkpt><trkpt lat="36.8174927" lon="-3.620911"><ele>847.0</ele><time>2026-03-07T11:44:09.004Z</time></trkpt><trkpt lat="36.8174248" lon="-3.6209577"><ele>848.6</ele><time>2026-03-07T11:44:09.988Z</time></trkpt><trkpt lat="36.8173723" lon="-3.6210255"><ele>850.2</ele><time>2026-03-07T11:44:10.984Z</time></trkpt><trkpt lat="36.8173416" lon="-3.6211675"><ele>851.8</ele><time>2026-03-07T11:44:12.987Z</time></trkpt><trkpt lat="36.8173324" lon="-3.6212696"><ele>853.4</ele><time>2026-03-07T11:44:13.998Z</time></trkpt><trkpt lat="36.8173337" lon="-3.6213927"><ele>855.0</ele><time>2026-03-07T11:44:14.978Z</time></trkpt><trkpt lat="36.817334" lon="-3.6214871"><ele>855.0</ele><time>2026-03-07T11:44:16.004Z</time></trkpt><trkpt lat="36.8172682" lon="-3.6215827"><ele>855.0</ele><time>2026-03-07T11:44:17.979Z</time></trkpt><trkpt lat="36.8171923" lon="-3.6216154"><ele>855.0</ele><time>2026-03-07T11:44:20.026Z</time></trkpt><trkpt lat="36.8170917" lon="-3.6216669"><ele>855.0</ele><time>2026-03-07T11:44:21.988Z</time></trkpt><trkpt lat="36.8170366" lon="-3.6217265"><ele>855.0</ele><time>2026-03-07T11:44:23.985Z</time></trkpt><trkpt lat="36.8171" lon="-3.6217322"><ele>855.0</ele><time>2026-03-07T11:44:40.988Z</time></trkpt><trkpt lat="36.8172193" lon="-3.6216687"><ele>855.0</ele><time>2026-03-07T11:44:43.014Z</time></trkpt><trkpt lat="36.817286" lon="-3.6216496"><ele>855.0</ele><time>2026-03-07T11:44:44.009Z</time></trkpt><trkpt lat="36.8173527" lon="-3.62163"><ele>855.0</ele><time>2026-03-07T11:44:44.992Z</time></trkpt><trkpt lat="36.8174534" lon="-3.6215921"><ele>855.0</ele><time>2026-03-07T11:44:46.982Z</time></trkpt><trkpt lat="36.8175103" lon="-3.6215137"><ele>855.0</ele><time>2026-03-07T11:44:48.985Z</time></trkpt><trkpt lat="36.8175254" lon="-3.6214279"><ele>855.0</ele><time>2026-03-07T11:44:49.992Z</time></trkpt><trkpt lat="36.8175258" lon="-3.6213214"><ele>855.0</ele><time>2026-03-07T11:44:50.986Z</time></trkpt><trkpt lat="36.8175246" lon="-3.6212327"><ele>855.0</ele><time>2026-03-07T11:44:51.994Z</time></trkpt><trkpt lat="36.817569" lon="-3.6211034"><ele>855.0</ele><time>2026-03-07T11:44:53.987Z</time></trkpt><trkpt lat="36.8176258" lon="-3.6210361"><ele>855.0</ele><time>2026-03-07T11:44:54.996Z</time></trkpt><trkpt lat="36.8176856" lon="-3.6209613"><ele>855.0</ele><time>2026-03-07T11:44:55.979Z</time></trkpt><trkpt lat="36.8177433" lon="-3.6208875"><ele>855.0</ele><time>2026-03-07T11:44:56.979Z</time></trkpt><trkpt lat="36.817787" lon="-3.6208164"><ele>853.4</ele><time>2026-03-07T11:44:57.991Z</time></trkpt><trkpt lat="36.8178274" lon="-3.6207545"><ele>851.8</ele><time>2026-03-07T11:44:58.986Z</time></trkpt><trkpt lat="36.817916" lon="-3.6206773"><ele>850.2</ele><time>2026-03-07T11:45:00.983Z</time></trkpt><trkpt lat="36.8180185" lon="-3.6206639"><ele>848.6</ele><time>2026-03-07T11:45:03.005Z</time></trkpt><trkpt lat="36.8181173" lon="-3.6206643"><ele>847.0</ele><time>2026-03-07T11:45:04.993Z</time></trkpt><trkpt lat="36.8182243" lon="-3.6206453"><ele>846.9999999999999</ele><time>2026-03-07T11:45:06.995Z</time></trkpt><trkpt lat="36.8183229" lon="-3.6205878"><ele>847.0</ele><time>2026-03-07T11:45:08.974Z</time></trkpt><trkpt lat="36.8183934" lon="-3.6204717"><ele>847.0</ele><time>2026-03-07T11:45:10.987Z</time></trkpt><trkpt lat="36.8184323" lon="-3.6203768"><ele>847.0</ele><time>2026-03-07T11:45:13.004Z</time></trkpt><trkpt lat="36.8184988" lon="-3.620371"><ele>846.9999999999999</ele><time>2026-03-07T11:45:15.988Z</time></trkpt><trkpt lat="36.8185209" lon="-3.620453"><ele>847.0</ele><time>2026-03-07T11:45:18.009Z</time></trkpt><trkpt lat="36.818512" lon="-3.6206217"><ele>845.9999999999999</ele><time>2026-03-07T11:45:20.002Z</time></trkpt><trkpt lat="36.8185111" lon="-3.6207211"><ele>845.0</ele><time>2026-03-07T11:45:20.994Z</time></trkpt><trkpt lat="36.8185176" lon="-3.6208142"><ele>844.0</ele><time>2026-03-07T11:45:21.992Z</time></trkpt><trkpt lat="36.8185311" lon="-3.620909"><ele>843.0</ele><time>2026-03-07T11:45:22.992Z</time></trkpt><trkpt lat="36.8185393" lon="-3.6210084"><ele>841.9999999999999</ele><time>2026-03-07T11:45:23.998Z</time></trkpt><trkpt lat="36.8185258" lon="-3.6211057"><ele>841.0</ele><time>2026-03-07T11:45:24.998Z</time></trkpt><trkpt lat="36.8185111" lon="-3.6211891"><ele>841.0</ele><time>2026-03-07T11:45:26.012Z</time></trkpt><trkpt lat="36.818545" lon="-3.6213209"><ele>841.0</ele><time>2026-03-07T11:45:27.996Z</time></trkpt><trkpt lat="36.8186178" lon="-3.6213797"><ele>841.0</ele><time>2026-03-07T11:45:28.996Z</time></trkpt><trkpt lat="36.8187048" lon="-3.6214343"><ele>841.0</ele><time>2026-03-07T11:45:29.991Z</time></trkpt><trkpt lat="36.8187848" lon="-3.6215093"><ele>841.0</ele><time>2026-03-07T11:45:30.98Z</time></trkpt><trkpt lat="36.8188417" lon="-3.6216075"><ele>841.0</ele><time>2026-03-07T11:45:31.993Z</time></trkpt><trkpt lat="36.8188687" lon="-3.6217278"><ele>841.0</ele><time>2026-03-07T11:45:32.982Z</time></trkpt><trkpt lat="36.8188918" lon="-3.6218668"><ele>841.0</ele><time>2026-03-07T11:45:33.986Z</time></trkpt><trkpt lat="36.8189308" lon="-3.6220139"><ele>841.0</ele><time>2026-03-07T11:45:34.995Z</time></trkpt><trkpt lat="36.8189852" lon="-3.6221566"><ele>836.5</ele><time>2026-03-07T11:45:35.993Z</time></trkpt><trkpt lat="36.8190244" lon="-3.6222989"><ele>832.0</ele><time>2026-03-07T11:45:36.985Z</time></trkpt><trkpt lat="36.819059" lon="-3.6224332"><ele>827.5</ele><time>2026-03-07T11:45:37.983Z</time></trkpt><trkpt lat="36.8190926" lon="-3.6225651"><ele>823.0</ele><time>2026-03-07T11:45:38.977Z</time></trkpt><trkpt lat="36.8191339" lon="-3.6226869"><ele>819.5999999999999</ele><time>2026-03-07T11:45:39.987Z</time></trkpt><trkpt lat="36.819152" lon="-3.6228174"><ele>816.1999999999999</ele><time>2026-03-07T11:45:40.98Z</time></trkpt><trkpt lat="36.8191625" lon="-3.6229477"><ele>812.8</ele><time>2026-03-07T11:45:41.99Z</time></trkpt><trkpt lat="36.819168" lon="-3.6230735"><ele>809.4</ele><time>2026-03-07T11:45:42.973Z</time></trkpt><trkpt lat="36.8191714" lon="-3.6231968"><ele>806.0</ele><time>2026-03-07T11:45:43.998Z</time></trkpt><trkpt lat="36.8191695" lon="-3.6233255"><ele>806.0</ele><time>2026-03-07T11:45:44.988Z</time></trkpt><trkpt lat="36.8191581" lon="-3.6234571"><ele>806.0</ele><time>2026-03-07T11:45:45.995Z</time></trkpt><trkpt lat="36.8191493" lon="-3.62359"><ele>806.0</ele><time>2026-03-07T11:45:46.987Z</time></trkpt><trkpt lat="36.8191593" lon="-3.6237213"><ele>806.0</ele><time>2026-03-07T11:45:47.983Z</time></trkpt><trkpt lat="36.8191795" lon="-3.6238444"><ele>806.0</ele><time>2026-03-07T11:45:48.977Z</time></trkpt><trkpt lat="36.8192003" lon="-3.6239706"><ele>803.1999999999999</ele><time>2026-03-07T11:45:50.049Z</time></trkpt><trkpt lat="36.819201" lon="-3.6241033"><ele>800.4</ele><time>2026-03-07T11:45:50.99Z</time></trkpt><trkpt lat="36.8191751" lon="-3.6242388"><ele>797.6</ele><time>2026-03-07T11:45:51.979Z</time></trkpt><trkpt lat="36.8191493" lon="-3.6243814"><ele>794.8</ele><time>2026-03-07T11:45:52.983Z</time></trkpt><trkpt lat="36.8191235" lon="-3.6245126"><ele>792.0</ele><time>2026-03-07T11:45:53.988Z</time></trkpt><trkpt lat="36.8191089" lon="-3.6246291"><ele>789.6</ele><time>2026-03-07T11:45:54.992Z</time></trkpt><trkpt lat="36.819098" lon="-3.6247294"><ele>787.2</ele><time>2026-03-07T11:45:55.998Z</time></trkpt><trkpt lat="36.8191008" lon="-3.6248394"><ele>784.8</ele><time>2026-03-07T11:45:57Z</time></trkpt><trkpt lat="36.8191223" lon="-3.6249639"><ele>782.4</ele><time>2026-03-07T11:45:57.974Z</time></trkpt><trkpt lat="36.8191307" lon="-3.6250917"><ele>780.0</ele><time>2026-03-07T11:45:58.99Z</time></trkpt><trkpt lat="36.8191338" lon="-3.62522"><ele>777.8</ele><time>2026-03-07T11:45:59.989Z</time></trkpt><trkpt lat="36.8191328" lon="-3.625349"><ele>775.6</ele><time>2026-03-07T11:46:00.993Z</time></trkpt><trkpt lat="36.8191315" lon="-3.6254842"><ele>773.4000000000001</ele><time>2026-03-07T11:46:01.983Z</time></trkpt><trkpt lat="36.8191396" lon="-3.6256216"><ele>771.2</ele><time>2026-03-07T11:46:02.983Z</time></trkpt><trkpt lat="36.8191545" lon="-3.6257597"><ele>769.0</ele><time>2026-03-07T11:46:03.989Z</time></trkpt><trkpt lat="36.819166" lon="-3.6258997"><ele>768.9999999999999</ele><time>2026-03-07T11:46:04.993Z</time></trkpt><trkpt lat="36.8191768" lon="-3.6260282"><ele>769.0</ele><time>2026-03-07T11:46:05.989Z</time></trkpt><trkpt lat="36.8191864" lon="-3.62613"><ele>769.0</ele><time>2026-03-07T11:46:06.99Z</time></trkpt><trkpt lat="36.8191759" lon="-3.626213"><ele>769.0</ele><time>2026-03-07T11:46:08.009Z</time></trkpt><trkpt lat="36.8191346" lon="-3.6262759"><ele>768.9999999999999</ele><time>2026-03-07T11:46:08.982Z</time></trkpt><trkpt lat="36.8190705" lon="-3.6263036"><ele>769.0</ele><time>2026-03-07T11:46:09.988Z</time></trkpt><trkpt lat="36.818993" lon="-3.6263057"><ele>767.9999999999999</ele><time>2026-03-07T11:46:10.971Z</time></trkpt><trkpt lat="36.8189166" lon="-3.6262807"><ele>767.0</ele><time>2026-03-07T11:46:11.986Z</time></trkpt><trkpt lat="36.8188413" lon="-3.6262371"><ele>766.0</ele><time>2026-03-07T11:46:12.984Z</time></trkpt><trkpt lat="36.8187743" lon="-3.6262241"><ele>765.0</ele><time>2026-03-07T11:46:13.99Z</time></trkpt><trkpt lat="36.8186804" lon="-3.6263046"><ele>764.0</ele><time>2026-03-07T11:46:15.982Z</time></trkpt><trkpt lat="36.8186676" lon="-3.6263867"><ele>763.0</ele><time>2026-03-07T11:46:16.992Z</time></trkpt><trkpt lat="36.818672" lon="-3.6265111"><ele>763.0</ele><time>2026-03-07T11:46:17.991Z</time></trkpt><trkpt lat="36.818693" lon="-3.6266331"><ele>763.0</ele><time>2026-03-07T11:46:18.984Z</time></trkpt><trkpt lat="36.8186974" lon="-3.6267526"><ele>763.0</ele><time>2026-03-07T11:46:19.989Z</time></trkpt><trkpt lat="36.8186916" lon="-3.6268668"><ele>763.0</ele><time>2026-03-07T11:46:21.003Z</time></trkpt><trkpt lat="36.8186597" lon="-3.6269859"><ele>763.0</ele><time>2026-03-07T11:46:21.975Z</time></trkpt><trkpt lat="36.8186229" lon="-3.6271176"><ele>759.8333333333334</ele><time>2026-03-07T11:46:22.975Z</time></trkpt><trkpt lat="36.8185875" lon="-3.6272376"><ele>756.6666666666667</ele><time>2026-03-07T11:46:23.975Z</time></trkpt><trkpt lat="36.8185471" lon="-3.6273373"><ele>753.5</ele><time>2026-03-07T11:46:24.975Z</time></trkpt><trkpt lat="36.8185149" lon="-3.6274114"><ele>750.3333333333334</ele><time>2026-03-07T11:46:25.975Z</time></trkpt><trkpt lat="36.8184711" lon="-3.62748"><ele>747.1666666666666</ele><time>2026-03-07T11:46:27.977Z</time></trkpt><trkpt lat="36.8183914" lon="-3.6274077"><ele>744.0</ele><time>2026-03-07T11:46:29.985Z</time></trkpt><trkpt lat="36.8183449" lon="-3.6273209"><ele>743.3333333333334</ele><time>2026-03-07T11:46:30.993Z</time></trkpt><trkpt lat="36.8183018" lon="-3.6272331"><ele>742.6666666666666</ele><time>2026-03-07T11:46:31.994Z</time></trkpt><trkpt lat="36.8182554" lon="-3.6271468"><ele>742.0</ele><time>2026-03-07T11:46:33.006Z</time></trkpt><trkpt lat="36.8182043" lon="-3.6270578"><ele>741.3333333333333</ele><time>2026-03-07T11:46:34.002Z</time></trkpt><trkpt lat="36.8181579" lon="-3.6269729"><ele>740.6666666666666</ele><time>2026-03-07T11:46:35.022Z</time></trkpt><trkpt lat="36.8181137" lon="-3.6268886"><ele>740.0</ele><time>2026-03-07T11:46:36.004Z</time></trkpt><trkpt lat="36.8180749" lon="-3.626803"><ele>742.0</ele><time>2026-03-07T11:46:37.002Z</time></trkpt><trkpt lat="36.8180741" lon="-3.6267179"><ele>744.0</ele><time>2026-03-07T11:46:38.039Z</time></trkpt><trkpt lat="36.8180701" lon="-3.6266394"><ele>746.0</ele><time>2026-03-07T11:46:39.137Z</time></trkpt><trkpt lat="36.8180072" lon="-3.626565"><ele>748.0</ele><time>2026-03-07T11:46:41.005Z</time></trkpt><trkpt lat="36.8179078" lon="-3.6266143"><ele>750.0</ele><time>2026-03-07T11:46:43.122Z</time></trkpt><trkpt lat="36.8178102" lon="-3.6267933"><ele>750.0</ele><time>2026-03-07T11:46:45.014Z</time></trkpt><trkpt lat="36.8177632" lon="-3.6269047"><ele>750.0</ele><time>2026-03-07T11:46:46.026Z</time></trkpt><trkpt lat="36.8177115" lon="-3.6270334"><ele>750.0</ele><time>2026-03-07T11:46:46.994Z</time></trkpt><trkpt lat="36.8176583" lon="-3.6271663"><ele>750.0</ele><time>2026-03-07T11:46:47.998Z</time></trkpt><trkpt lat="36.8176125" lon="-3.6272916"><ele>750.0</ele><time>2026-03-07T11:46:49.018Z</time></trkpt><trkpt lat="36.8175754" lon="-3.6274059"><ele>747.6666666666666</ele><time>2026-03-07T11:46:50.014Z</time></trkpt><trkpt lat="36.8175325" lon="-3.6275096"><ele>745.3333333333334</ele><time>2026-03-07T11:46:51.004Z</time></trkpt><trkpt lat="36.8174848" lon="-3.6276098"><ele>743.0</ele><time>2026-03-07T11:46:52.051Z</time></trkpt><trkpt lat="36.8174205" lon="-3.6276851"><ele>740.6666666666667</ele><time>2026-03-07T11:46:53.031Z</time></trkpt><trkpt lat="36.817352" lon="-3.6277549"><ele>738.3333333333334</ele><time>2026-03-07T11:46:54.022Z</time></trkpt><trkpt lat="36.817295" lon="-3.6278262"><ele>736.0</ele><time>2026-03-07T11:46:55.011Z</time></trkpt><trkpt lat="36.8172318" lon="-3.6278969"><ele>734.6666666666667</ele><time>2026-03-07T11:46:56.009Z</time></trkpt><trkpt lat="36.8171642" lon="-3.627963"><ele>733.3333333333334</ele><time>2026-03-07T11:46:57.007Z</time></trkpt><trkpt lat="36.8170934" lon="-3.6280182"><ele>732.0</ele><time>2026-03-07T11:46:57.998Z</time></trkpt><trkpt lat="36.8170228" lon="-3.6280745"><ele>730.6666666666666</ele><time>2026-03-07T11:46:58.982Z</time></trkpt><trkpt lat="36.8169677" lon="-3.628152"><ele>729.3333333333333</ele><time>2026-03-07T11:47:00.002Z</time></trkpt><trkpt lat="36.8169122" lon="-3.6282401"><ele>728.0</ele><time>2026-03-07T11:47:01.012Z</time></trkpt><trkpt lat="36.8168631" lon="-3.6283183"><ele>727.25</ele><time>2026-03-07T11:47:02.014Z</time></trkpt><trkpt lat="36.8168143" lon="-3.6283872"><ele>726.5</ele><time>2026-03-07T11:47:03.05Z</time></trkpt><trkpt lat="36.816751" lon="-3.6284594"><ele>725.75</ele><time>2026-03-07T11:47:04.029Z</time></trkpt><trkpt lat="36.8166614" lon="-3.6285121"><ele>725.0</ele><time>2026-03-07T11:47:05.106Z</time></trkpt><trkpt lat="36.8164526" lon="-3.6285195"><ele>725.0</ele><time>2026-03-07T11:47:06.997Z</time></trkpt><trkpt lat="36.816336" lon="-3.6285042"><ele>725.0</ele><time>2026-03-07T11:47:07.998Z</time></trkpt><trkpt lat="36.8162132" lon="-3.6285088"><ele>725.0</ele><time>2026-03-07T11:47:09.142Z</time></trkpt><trkpt lat="36.8160404" lon="-3.6285725"><ele>725.0</ele><time>2026-03-07T11:47:11.003Z</time></trkpt><trkpt lat="36.8159517" lon="-3.6286215"><ele>721.0</ele><time>2026-03-07T11:47:12.028Z</time></trkpt><trkpt lat="36.8158581" lon="-3.6286837"><ele>717.0</ele><time>2026-03-07T11:47:12.988Z</time></trkpt><trkpt lat="36.8157734" lon="-3.6287482"><ele>713.0</ele><time>2026-03-07T11:47:13.991Z</time></trkpt><trkpt lat="36.8157197" lon="-3.6288284"><ele>709.0</ele><time>2026-03-07T11:47:15.013Z</time></trkpt><trkpt lat="36.8156763" lon="-3.6289081"><ele>705.0</ele><time>2026-03-07T11:47:16.032Z</time></trkpt><trkpt lat="36.8156302" lon="-3.6289958"><ele>705.0</ele><time>2026-03-07T11:47:16.993Z</time></trkpt><trkpt lat="36.8155828" lon="-3.6291091"><ele>705.0</ele><time>2026-03-07T11:47:17.995Z</time></trkpt><trkpt lat="36.8155236" lon="-3.6292348"><ele>705.0</ele><time>2026-03-07T11:47:18.997Z</time></trkpt><trkpt lat="36.8154688" lon="-3.62936"><ele>705.0</ele><time>2026-03-07T11:47:19.985Z</time></trkpt><trkpt lat="36.8154197" lon="-3.6294836"><ele>705.0</ele><time>2026-03-07T11:47:20.992Z</time></trkpt><trkpt lat="36.8153831" lon="-3.6296028"><ele>702.5</ele><time>2026-03-07T11:47:22.01Z</time></trkpt><trkpt lat="36.8153408" lon="-3.6297085"><ele>700.0</ele><time>2026-03-07T11:47:22.988Z</time></trkpt><trkpt lat="36.8152748" lon="-3.6297711"><ele>697.5</ele><time>2026-03-07T11:47:23.992Z</time></trkpt><trkpt lat="36.8151972" lon="-3.6298119"><ele>695.0</ele><time>2026-03-07T11:47:25.008Z</time></trkpt><trkpt lat="36.8151232" lon="-3.6298565"><ele>692.5</ele><time>2026-03-07T11:47:26.052Z</time></trkpt><trkpt lat="36.8150515" lon="-3.6298906"><ele>690.0</ele><time>2026-03-07T11:47:26.994Z</time></trkpt><trkpt lat="36.8149944" lon="-3.6299323"><ele>690.0</ele><time>2026-03-07T11:47:28.028Z</time></trkpt><trkpt lat="36.8149222" lon="-3.6300137"><ele>690.0</ele><time>2026-03-07T11:47:29.981Z</time></trkpt><trkpt lat="36.8149255" lon="-3.6301129"><ele>690.0</ele><time>2026-03-07T11:47:32.054Z</time></trkpt><trkpt lat="36.815028" lon="-3.6302254"><ele>690.0</ele><time>2026-03-07T11:47:33.999Z</time></trkpt><trkpt lat="36.8151096" lon="-3.630292"><ele>690.0</ele><time>2026-03-07T11:47:35.029Z</time></trkpt><trkpt lat="36.8151992" lon="-3.6303683"><ele>687.2</ele><time>2026-03-07T11:47:36.004Z</time></trkpt><trkpt lat="36.8152818" lon="-3.6304522"><ele>684.4</ele><time>2026-03-07T11:47:37.03Z</time></trkpt><trkpt lat="36.8153701" lon="-3.6305058"><ele>681.5999999999999</ele><time>2026-03-07T11:47:38.021Z</time></trkpt><trkpt lat="36.8154574" lon="-3.6305433"><ele>678.8</ele><time>2026-03-07T11:47:39.005Z</time></trkpt><trkpt lat="36.8155503" lon="-3.6305638"><ele>676.0</ele><time>2026-03-07T11:47:39.995Z</time></trkpt><trkpt lat="36.8156372" lon="-3.630568"><ele>676.0</ele><time>2026-03-07T11:47:40.98Z</time></trkpt><trkpt lat="36.8157048" lon="-3.6305883"><ele>676.0</ele><time>2026-03-07T11:47:42.015Z</time></trkpt><trkpt lat="36.8157845" lon="-3.6306973"><ele>676.0</ele><time>2026-03-07T11:47:43.986Z</time></trkpt><trkpt lat="36.8158128" lon="-3.630782"><ele>676.0</ele><time>2026-03-07T11:47:45.02Z</time></trkpt><trkpt lat="36.8158349" lon="-3.6308839"><ele>676.0</ele><time>2026-03-07T11:47:45.982Z</time></trkpt><trkpt lat="36.8158477" lon="-3.6309846"><ele>676.0</ele><time>2026-03-07T11:47:46.995Z</time></trkpt><trkpt lat="36.8158517" lon="-3.6310858"><ele>676.3333333333334</ele><time>2026-03-07T11:47:48.012Z</time></trkpt><trkpt lat="36.8158508" lon="-3.6311866"><ele>676.6666666666667</ele><time>2026-03-07T11:47:48.99Z</time></trkpt><trkpt lat="36.8158496" lon="-3.6312869"><ele>677.0</ele><time>2026-03-07T11:47:49.991Z</time></trkpt><trkpt lat="36.8158447" lon="-3.6313865"><ele>677.3333333333334</ele><time>2026-03-07T11:47:51.009Z</time></trkpt><trkpt lat="36.8158318" lon="-3.6314732"><ele>677.6666666666666</ele><time>2026-03-07T11:47:52Z</time></trkpt><trkpt lat="36.8157906" lon="-3.6316275"><ele>678.0</ele><time>2026-03-07T11:47:53.99Z</time></trkpt><trkpt lat="36.8157573" lon="-3.6317517"><ele>678.0</ele><time>2026-03-07T11:47:56.003Z</time></trkpt><trkpt lat="36.8157254" lon="-3.6318439"><ele>678.0</ele><time>2026-03-07T11:47:58.017Z</time></trkpt><trkpt lat="36.8156819" lon="-3.6319162"><ele>678.0</ele><time>2026-03-07T11:48:00.016Z</time></trkpt><trkpt lat="36.8156064" lon="-3.6319391"><ele>678.0</ele><time>2026-03-07T11:48:02.995Z</time></trkpt><trkpt lat="36.8154917" lon="-3.6319284"><ele>678.0</ele><time>2026-03-07T11:48:04.986Z</time></trkpt><trkpt lat="36.8154212" lon="-3.6319221"><ele>678.0</ele><time>2026-03-07T11:48:06.01Z</time></trkpt><trkpt lat="36.8153401" lon="-3.6319059"><ele>678.0</ele><time>2026-03-07T11:48:07.002Z</time></trkpt><trkpt lat="36.8152434" lon="-3.6318873"><ele>678.0</ele><time>2026-03-07T11:48:07.983Z</time></trkpt><trkpt lat="36.8151392" lon="-3.6318721"><ele>678.0</ele><time>2026-03-07T11:48:09.019Z</time></trkpt><trkpt lat="36.8150318" lon="-3.6318581"><ele>678.0</ele><time>2026-03-07T11:48:10.004Z</time></trkpt><trkpt lat="36.8149225" lon="-3.6318562"><ele>678.0</ele><time>2026-03-07T11:48:10.984Z</time></trkpt><trkpt lat="36.814839" lon="-3.6318635"><ele>679.8</ele><time>2026-03-07T11:48:11.983Z</time></trkpt><trkpt lat="36.8147398" lon="-3.6318842"><ele>681.5999999999999</ele><time>2026-03-07T11:48:12.983Z</time></trkpt><trkpt lat="36.8146488" lon="-3.6319209"><ele>683.4000000000001</ele><time>2026-03-07T11:48:14.025Z</time></trkpt><trkpt lat="36.814572" lon="-3.6319909"><ele>685.2</ele><time>2026-03-07T11:48:15.051Z</time></trkpt><trkpt lat="36.8145108" lon="-3.6320853"><ele>687.0</ele><time>2026-03-07T11:48:16.006Z</time></trkpt><trkpt lat="36.8144511" lon="-3.6321846"><ele>687.0</ele><time>2026-03-07T11:48:17.01Z</time></trkpt><trkpt lat="36.8143924" lon="-3.6322699"><ele>687.0</ele><time>2026-03-07T11:48:18.021Z</time></trkpt><trkpt lat="36.8143288" lon="-3.632353"><ele>687.0</ele><time>2026-03-07T11:48:19.021Z</time></trkpt><trkpt lat="36.8142623" lon="-3.6324432"><ele>687.0</ele><time>2026-03-07T11:48:19.994Z</time></trkpt><trkpt lat="36.8141969" lon="-3.6325426"><ele>687.0</ele><time>2026-03-07T11:48:21.012Z</time></trkpt><trkpt lat="36.814127" lon="-3.6326484"><ele>683.2</ele><time>2026-03-07T11:48:22.026Z</time></trkpt><trkpt lat="36.8140613" lon="-3.6327488"><ele>679.4000000000001</ele><time>2026-03-07T11:48:22.98Z</time></trkpt><trkpt lat="36.8140199" lon="-3.6328598"><ele>675.5999999999999</ele><time>2026-03-07T11:48:23.996Z</time></trkpt><trkpt lat="36.8140068" lon="-3.6329715"><ele>671.8</ele><time>2026-03-07T11:48:25.019Z</time></trkpt><trkpt lat="36.8140109" lon="-3.633091"><ele>668.0</ele><time>2026-03-07T11:48:26.011Z</time></trkpt><trkpt lat="36.8140106" lon="-3.6331961"><ele>668.0</ele><time>2026-03-07T11:48:27.002Z</time></trkpt><trkpt lat="36.8139878" lon="-3.6332919"><ele>668.0</ele><time>2026-03-07T11:48:27.994Z</time></trkpt><trkpt lat="36.8139566" lon="-3.6333973"><ele>668.0</ele><time>2026-03-07T11:48:28.989Z</time></trkpt><trkpt lat="36.8139226" lon="-3.6335184"><ele>668.0</ele><time>2026-03-07T11:48:29.978Z</time></trkpt><trkpt lat="36.8138907" lon="-3.6336417"><ele>668.0</ele><time>2026-03-07T11:48:30.992Z</time></trkpt><trkpt lat="36.8138606" lon="-3.6337617"><ele>672.4</ele><time>2026-03-07T11:48:31.995Z</time></trkpt><trkpt lat="36.8138298" lon="-3.6338652"><ele>676.8</ele><time>2026-03-07T11:48:33.023Z</time></trkpt><trkpt lat="36.8137843" lon="-3.6339637"><ele>681.2</ele><time>2026-03-07T11:48:34.005Z</time></trkpt><trkpt lat="36.8137195" lon="-3.6340552"><ele>685.6</ele><time>2026-03-07T11:48:35.007Z</time></trkpt><trkpt lat="36.8136491" lon="-3.6341374"><ele>690.0</ele><time>2026-03-07T11:48:36.038Z</time></trkpt><trkpt lat="36.8135852" lon="-3.6342017"><ele>690.0</ele><time>2026-03-07T11:48:37.038Z</time></trkpt><trkpt lat="36.8135312" lon="-3.6342645"><ele>690.0</ele><time>2026-03-07T11:48:37.996Z</time></trkpt><trkpt lat="36.8134796" lon="-3.6343253"><ele>690.0</ele><time>2026-03-07T11:48:38.998Z</time></trkpt><trkpt lat="36.813378" lon="-3.6343863"><ele>690.0</ele><time>2026-03-07T11:48:40.996Z</time></trkpt><trkpt lat="36.8132556" lon="-3.6343474"><ele>690.0</ele><time>2026-03-07T11:48:42.99Z</time></trkpt><trkpt lat="36.8131471" lon="-3.6343093"><ele>683.3333333333334</ele><time>2026-03-07T11:48:44.998Z</time></trkpt><trkpt lat="36.8130201" lon="-3.6342714"><ele>676.6666666666666</ele><time>2026-03-07T11:48:46.975Z</time></trkpt><trkpt lat="36.8129555" lon="-3.6342786"><ele>670.0</ele><time>2026-03-07T11:48:47.982Z</time></trkpt><trkpt lat="36.8128912" lon="-3.6342962"><ele>663.3333333333333</ele><time>2026-03-07T11:48:48.988Z</time></trkpt><trkpt lat="36.8127707" lon="-3.6343053"><ele>656.6666666666666</ele><time>2026-03-07T11:48:50.98Z</time></trkpt><trkpt lat="36.8127151" lon="-3.6342681"><ele>650.0</ele><time>2026-03-07T11:48:51.981Z</time></trkpt><trkpt lat="36.8126178" lon="-3.6342174"><ele>646.3333333333333</ele><time>2026-03-07T11:48:53.978Z</time></trkpt><trkpt lat="36.8125125" lon="-3.6342137"><ele>642.6666666666666</ele><time>2026-03-07T11:48:55.992Z</time></trkpt><trkpt lat="36.8124449" lon="-3.6342232"><ele>639.0</ele><time>2026-03-07T11:48:57.014Z</time></trkpt><trkpt lat="36.8123744" lon="-3.6342341"><ele>635.3333333333334</ele><time>2026-03-07T11:48:58.013Z</time></trkpt><trkpt lat="36.8123016" lon="-3.6342465"><ele>631.6666666666667</ele><time>2026-03-07T11:48:58.995Z</time></trkpt><trkpt lat="36.812224" lon="-3.6342792"><ele>628.0</ele><time>2026-03-07T11:48:59.997Z</time></trkpt><trkpt lat="36.8121359" lon="-3.6343306"><ele>628.0</ele><time>2026-03-07T11:49:00.984Z</time></trkpt><trkpt lat="36.8120435" lon="-3.6343958"><ele>628.0</ele><time>2026-03-07T11:49:01.988Z</time></trkpt><trkpt lat="36.811942" lon="-3.6344624"><ele>628.0</ele><time>2026-03-07T11:49:02.988Z</time></trkpt><trkpt lat="36.8118459" lon="-3.6345071"><ele>628.0</ele><time>2026-03-07T11:49:04.004Z</time></trkpt><trkpt lat="36.8117495" lon="-3.6345508"><ele>628.0</ele><time>2026-03-07T11:49:04.987Z</time></trkpt><trkpt lat="36.811665" lon="-3.6345798"><ele>631.0</ele><time>2026-03-07T11:49:05.967Z</time></trkpt><trkpt lat="36.8115897" lon="-3.6345865"><ele>634.0</ele><time>2026-03-07T11:49:06.989Z</time></trkpt><trkpt lat="36.811503" lon="-3.6345829"><ele>637.0</ele><time>2026-03-07T11:49:08.004Z</time></trkpt><trkpt lat="36.8114258" lon="-3.6345851"><ele>640.0</ele><time>2026-03-07T11:49:08.99Z</time></trkpt><trkpt lat="36.8113541" lon="-3.634611"><ele>643.0</ele><time>2026-03-07T11:49:09.969Z</time></trkpt><trkpt lat="36.8112835" lon="-3.6346586"><ele>646.0</ele><time>2026-03-07T11:49:10.987Z</time></trkpt><trkpt lat="36.8112175" lon="-3.6347164"><ele>646.0</ele><time>2026-03-07T11:49:11.993Z</time></trkpt><trkpt lat="36.8111405" lon="-3.6347503"><ele>646.0</ele><time>2026-03-07T11:49:13.01Z</time></trkpt><trkpt lat="36.8110642" lon="-3.6347773"><ele>646.0</ele><time>2026-03-07T11:49:14.005Z</time></trkpt><trkpt lat="36.8109864" lon="-3.6347944"><ele>646.0</ele><time>2026-03-07T11:49:15.009Z</time></trkpt><trkpt lat="36.8109077" lon="-3.6348042"><ele>646.0</ele><time>2026-03-07T11:49:16Z</time></trkpt><trkpt lat="36.810822" lon="-3.6347965"><ele>646.0</ele><time>2026-03-07T11:49:17.001Z</time></trkpt><trkpt lat="36.8107413" lon="-3.6347813"><ele>641.1666666666667</ele><time>2026-03-07T11:49:18.041Z</time></trkpt><trkpt lat="36.8106627" lon="-3.634779"><ele>636.3333333333334</ele><time>2026-03-07T11:49:19.022Z</time></trkpt><trkpt lat="36.8105864" lon="-3.6347817"><ele>631.5</ele><time>2026-03-07T11:49:19.985Z</time></trkpt><trkpt lat="36.8105089" lon="-3.6347874"><ele>626.6666666666666</ele><time>2026-03-07T11:49:21.055Z</time></trkpt><trkpt lat="36.8104292" lon="-3.6347974"><ele>621.8333333333333</ele><time>2026-03-07T11:49:22.005Z</time></trkpt><trkpt lat="36.8103505" lon="-3.6348043"><ele>617.0</ele><time>2026-03-07T11:49:22.979Z</time></trkpt><trkpt lat="36.8102695" lon="-3.6348047"><ele>617.0</ele><time>2026-03-07T11:49:23.989Z</time></trkpt><trkpt lat="36.8101997" lon="-3.6347848"><ele>617.0</ele><time>2026-03-07T11:49:25.021Z</time></trkpt><trkpt lat="36.8101331" lon="-3.6347643"><ele>617.0</ele><time>2026-03-07T11:49:26.018Z</time></trkpt><trkpt lat="36.8100565" lon="-3.6347766"><ele>617.0</ele><time>2026-03-07T11:49:27.02Z</time></trkpt><trkpt lat="36.8099762" lon="-3.6348098"><ele>617.0</ele><time>2026-03-07T11:49:27.99Z</time></trkpt><trkpt lat="36.8098878" lon="-3.6348507"><ele>617.0</ele><time>2026-03-07T11:49:29.008Z</time></trkpt><trkpt lat="36.8098037" lon="-3.6348779"><ele>614.1428571428572</ele><time>2026-03-07T11:49:30.003Z</time></trkpt><trkpt lat="36.8097338" lon="-3.6349066"><ele>611.2857142857142</ele><time>2026-03-07T11:49:31.007Z</time></trkpt><trkpt lat="36.8096586" lon="-3.634937"><ele>608.4285714285714</ele><time>2026-03-07T11:49:31.986Z</time></trkpt><trkpt lat="36.8095841" lon="-3.6349593"><ele>605.5714285714287</ele><time>2026-03-07T11:49:32.996Z</time></trkpt><trkpt lat="36.8095041" lon="-3.6349662"><ele>602.7142857142858</ele><time>2026-03-07T11:49:34.01Z</time></trkpt><trkpt lat="36.8094382" lon="-3.6349536"><ele>599.8571428571429</ele><time>2026-03-07T11:49:34.99Z</time></trkpt><trkpt lat="36.8093725" lon="-3.6349285"><ele>597.0</ele><time>2026-03-07T11:49:36.013Z</time></trkpt><trkpt lat="36.809301" lon="-3.6349084"><ele>594.5</ele><time>2026-03-07T11:49:37.002Z</time></trkpt><trkpt lat="36.8092282" lon="-3.6349012"><ele>592.0</ele><time>2026-03-07T11:49:37.994Z</time></trkpt><trkpt lat="36.8091518" lon="-3.6349138"><ele>589.5</ele><time>2026-03-07T11:49:39.007Z</time></trkpt><trkpt lat="36.8090818" lon="-3.6349423"><ele>587.0</ele><time>2026-03-07T11:49:40.036Z</time></trkpt><trkpt lat="36.8090109" lon="-3.634969"><ele>584.5</ele><time>2026-03-07T11:49:41.037Z</time></trkpt><trkpt lat="36.808951" lon="-3.6350317"><ele>582.0</ele><time>2026-03-07T11:49:42.006Z</time></trkpt><trkpt lat="36.8088996" lon="-3.635123"><ele>582.0</ele><time>2026-03-07T11:49:43.017Z</time></trkpt><trkpt lat="36.8088639" lon="-3.6352304"><ele>582.0</ele><time>2026-03-07T11:49:44.024Z</time></trkpt><trkpt lat="36.8088231" lon="-3.6353372"><ele>582.0</ele><time>2026-03-07T11:49:45.002Z</time></trkpt><trkpt lat="36.8087721" lon="-3.6354265"><ele>582.0</ele><time>2026-03-07T11:49:46.006Z</time></trkpt><trkpt lat="36.8087133" lon="-3.6355055"><ele>582.0</ele><time>2026-03-07T11:49:46.993Z</time></trkpt><trkpt lat="36.8086357" lon="-3.6355734"><ele>579.6</ele><time>2026-03-07T11:49:48.016Z</time></trkpt><trkpt lat="36.8085542" lon="-3.635642"><ele>577.2</ele><time>2026-03-07T11:49:48.995Z</time></trkpt><trkpt lat="36.8084681" lon="-3.6357247"><ele>574.8</ele><time>2026-03-07T11:49:49.997Z</time></trkpt><trkpt lat="36.8083885" lon="-3.6358071"><ele>572.4</ele><time>2026-03-07T11:49:50.989Z</time></trkpt><trkpt lat="36.8083186" lon="-3.6358883"><ele>570.0</ele><time>2026-03-07T11:49:51.989Z</time></trkpt><trkpt lat="36.8082461" lon="-3.6359802"><ele>570.0</ele><time>2026-03-07T11:49:53.011Z</time></trkpt><trkpt lat="36.8081945" lon="-3.6360823"><ele>570.0</ele><time>2026-03-07T11:49:54.005Z</time></trkpt><trkpt lat="36.808163" lon="-3.6361971"><ele>570.0</ele><time>2026-03-07T11:49:54.999Z</time></trkpt><trkpt lat="36.8081409" lon="-3.6363186"><ele>570.0</ele><time>2026-03-07T11:49:55.999Z</time></trkpt><trkpt lat="36.8081344" lon="-3.636443"><ele>570.0</ele><time>2026-03-07T11:49:56.995Z</time></trkpt><trkpt lat="36.8081075" lon="-3.6365567"><ele>570.5</ele><time>2026-03-07T11:49:58.003Z</time></trkpt><trkpt lat="36.8080724" lon="-3.63666"><ele>571.0</ele><time>2026-03-07T11:49:58.975Z</time></trkpt><trkpt lat="36.8080493" lon="-3.6367487"><ele>571.5</ele><time>2026-03-07T11:50:00.002Z</time></trkpt><trkpt lat="36.8080291" lon="-3.6368366"><ele>572.0</ele><time>2026-03-07T11:50:00.992Z</time></trkpt><trkpt lat="36.8080344" lon="-3.6369348"><ele>572.5</ele><time>2026-03-07T11:50:01.984Z</time></trkpt><trkpt lat="36.8080618" lon="-3.637032"><ele>573.0</ele><time>2026-03-07T11:50:03.038Z</time></trkpt><trkpt lat="36.8081001" lon="-3.6371249"><ele>573.0</ele><time>2026-03-07T11:50:03.995Z</time></trkpt><trkpt lat="36.8081377" lon="-3.637209"><ele>573.0</ele><time>2026-03-07T11:50:04.984Z</time></trkpt><trkpt lat="36.8081663" lon="-3.6372906"><ele>573.0</ele><time>2026-03-07T11:50:05.984Z</time></trkpt><trkpt lat="36.8081944" lon="-3.6373659"><ele>573.0</ele><time>2026-03-07T11:50:06.987Z</time></trkpt><trkpt lat="36.8082257" lon="-3.6375189"><ele>573.0</ele><time>2026-03-07T11:50:08.991Z</time></trkpt><trkpt lat="36.8082238" lon="-3.6376109"><ele>573.0</ele><time>2026-03-07T11:50:10.004Z</time></trkpt><trkpt lat="36.8082365" lon="-3.6377119"><ele>573.0</ele><time>2026-03-07T11:50:11.001Z</time></trkpt><trkpt lat="36.8082812" lon="-3.6377957"><ele>573.0</ele><time>2026-03-07T11:50:11.998Z</time></trkpt><trkpt lat="36.8083485" lon="-3.6378703"><ele>573.0</ele><time>2026-03-07T11:50:12.991Z</time></trkpt><trkpt lat="36.8084273" lon="-3.6379335"><ele>573.0</ele><time>2026-03-07T11:50:13.99Z</time></trkpt><trkpt lat="36.8085056" lon="-3.6379832"><ele>573.0</ele><time>2026-03-07T11:50:14.986Z</time></trkpt><trkpt lat="36.8085683" lon="-3.6380313"><ele>573.0</ele><time>2026-03-07T11:50:16.004Z</time></trkpt><trkpt lat="36.8086017" lon="-3.6381093"><ele>579.1999999999999</ele><time>2026-03-07T11:50:16.994Z</time></trkpt><trkpt lat="36.808614" lon="-3.6382171"><ele>585.4</ele><time>2026-03-07T11:50:17.986Z</time></trkpt><trkpt lat="36.8086236" lon="-3.6383415"><ele>591.5999999999999</ele><time>2026-03-07T11:50:18.974Z</time></trkpt><trkpt lat="36.8086343" lon="-3.6384727"><ele>597.8</ele><time>2026-03-07T11:50:19.988Z</time></trkpt><trkpt lat="36.8086436" lon="-3.6386085"><ele>604.0</ele><time>2026-03-07T11:50:20.999Z</time></trkpt><trkpt lat="36.8086477" lon="-3.6387458"><ele>604.2</ele><time>2026-03-07T11:50:21.994Z</time></trkpt><trkpt lat="36.8086411" lon="-3.6388753"><ele>604.4</ele><time>2026-03-07T11:50:22.98Z</time></trkpt><trkpt lat="36.8086179" lon="-3.6389964"><ele>604.6</ele><time>2026-03-07T11:50:23.981Z</time></trkpt><trkpt lat="36.8085805" lon="-3.6391129"><ele>604.8</ele><time>2026-03-07T11:50:24.978Z</time></trkpt><trkpt lat="36.8085545" lon="-3.6392284"><ele>605.0</ele><time>2026-03-07T11:50:25.986Z</time></trkpt><trkpt lat="36.8085311" lon="-3.6393297"><ele>605.0</ele><time>2026-03-07T11:50:26.986Z</time></trkpt><trkpt lat="36.8085101" lon="-3.6394254"><ele>605.0</ele><time>2026-03-07T11:50:27.988Z</time></trkpt><trkpt lat="36.8084941" lon="-3.6395303"><ele>605.0</ele><time>2026-03-07T11:50:28.989Z</time></trkpt><trkpt lat="36.8084998" lon="-3.6396342"><ele>605.0</ele><time>2026-03-07T11:50:29.998Z</time></trkpt><trkpt lat="36.8085009" lon="-3.6397356"><ele>605.0</ele><time>2026-03-07T11:50:30.99Z</time></trkpt><trkpt lat="36.8085018" lon="-3.6398448"><ele>605.0</ele><time>2026-03-07T11:50:31.973Z</time></trkpt><trkpt lat="36.8085096" lon="-3.6399675"><ele>605.4</ele><time>2026-03-07T11:50:33.005Z</time></trkpt><trkpt lat="36.80852" lon="-3.6400882"><ele>605.8</ele><time>2026-03-07T11:50:33.984Z</time></trkpt><trkpt lat="36.8085362" lon="-3.6402004"><ele>606.2</ele><time>2026-03-07T11:50:34.989Z</time></trkpt><trkpt lat="36.8085582" lon="-3.6403062"><ele>606.6</ele><time>2026-03-07T11:50:35.988Z</time></trkpt><trkpt lat="36.8085876" lon="-3.6404146"><ele>607.0</ele><time>2026-03-07T11:50:37.001Z</time></trkpt><trkpt lat="36.808624" lon="-3.6405283"><ele>607.0</ele><time>2026-03-07T11:50:37.987Z</time></trkpt><trkpt lat="36.8086512" lon="-3.6406368"><ele>607.0</ele><time>2026-03-07T11:50:38.991Z</time></trkpt><trkpt lat="36.8086621" lon="-3.6407379"><ele>607.0</ele><time>2026-03-07T11:50:39.974Z</time></trkpt><trkpt lat="36.8086646" lon="-3.6408319"><ele>607.0</ele><time>2026-03-07T11:50:40.988Z</time></trkpt><trkpt lat="36.8086585" lon="-3.6409181"><ele>607.0</ele><time>2026-03-07T11:50:41.984Z</time></trkpt><trkpt lat="36.8087104" lon="-3.6410482"><ele>607.0</ele><time>2026-03-07T11:50:43.987Z</time></trkpt><trkpt lat="36.8087688" lon="-3.6410884"><ele>607.0</ele><time>2026-03-07T11:50:44.982Z</time></trkpt><trkpt lat="36.8088506" lon="-3.641102"><ele>607.0</ele><time>2026-03-07T11:50:45.996Z</time></trkpt><trkpt lat="36.8089332" lon="-3.6411141"><ele>607.0</ele><time>2026-03-07T11:50:46.986Z</time></trkpt><trkpt lat="36.8090097" lon="-3.6411492"><ele>607.0</ele><time>2026-03-07T11:50:47.993Z</time></trkpt><trkpt lat="36.8090605" lon="-3.6412147"><ele>607.0</ele><time>2026-03-07T11:50:48.987Z</time></trkpt><trkpt lat="36.8090749" lon="-3.6413043"><ele>607.0</ele><time>2026-03-07T11:50:49.994Z</time></trkpt><trkpt lat="36.8090833" lon="-3.6413944"><ele>607.0</ele><time>2026-03-07T11:50:51Z</time></trkpt><trkpt lat="36.8091035" lon="-3.6414889"><ele>607.0</ele><time>2026-03-07T11:50:51.967Z</time></trkpt><trkpt lat="36.8091367" lon="-3.6415768"><ele>607.0</ele><time>2026-03-07T11:50:52.978Z</time></trkpt><trkpt lat="36.8091677" lon="-3.6416664"><ele>607.0</ele><time>2026-03-07T11:50:53.98Z</time></trkpt><trkpt lat="36.809197" lon="-3.6417542"><ele>607.0</ele><time>2026-03-07T11:50:54.986Z</time></trkpt><trkpt lat="36.8092099" lon="-3.6418505"><ele>607.0</ele><time>2026-03-07T11:50:55.994Z</time></trkpt><trkpt lat="36.8092158" lon="-3.6419451"><ele>608.1428571428571</ele><time>2026-03-07T11:50:57.004Z</time></trkpt><trkpt lat="36.8092185" lon="-3.6420401"><ele>609.2857142857142</ele><time>2026-03-07T11:50:58.009Z</time></trkpt><trkpt lat="36.8092188" lon="-3.642134"><ele>610.4285714285713</ele><time>2026-03-07T11:50:58.99Z</time></trkpt><trkpt lat="36.8091875" lon="-3.6422253"><ele>611.5714285714286</ele><time>2026-03-07T11:51:00Z</time></trkpt><trkpt lat="36.8091484" lon="-3.6423083"><ele>612.7142857142858</ele><time>2026-03-07T11:51:00.986Z</time></trkpt><trkpt lat="36.8091076" lon="-3.6423829"><ele>613.8571428571428</ele><time>2026-03-07T11:51:01.995Z</time></trkpt><trkpt lat="36.809087" lon="-3.6424647"><ele>615.0</ele><time>2026-03-07T11:51:02.985Z</time></trkpt><trkpt lat="36.8090684" lon="-3.6425564"><ele>615.0</ele><time>2026-03-07T11:51:04.021Z</time></trkpt><trkpt lat="36.8090653" lon="-3.642663"><ele>615.0</ele><time>2026-03-07T11:51:04.988Z</time></trkpt><trkpt lat="36.8090752" lon="-3.6427788"><ele>615.0</ele><time>2026-03-07T11:51:05.984Z</time></trkpt><trkpt lat="36.809095" lon="-3.6428955"><ele>615.0</ele><time>2026-03-07T11:51:06.996Z</time></trkpt><trkpt lat="36.809129" lon="-3.6430051"><ele>615.0</ele><time>2026-03-07T11:51:07.974Z</time></trkpt><trkpt lat="36.8091661" lon="-3.6431028"><ele>616.3333333333334</ele><time>2026-03-07T11:51:08.992Z</time></trkpt><trkpt lat="36.8091844" lon="-3.6432039"><ele>617.6666666666666</ele><time>2026-03-07T11:51:09.981Z</time></trkpt><trkpt lat="36.8091853" lon="-3.6433047"><ele>619.0</ele><time>2026-03-07T11:51:10.992Z</time></trkpt><trkpt lat="36.8091675" lon="-3.6434027"><ele>620.3333333333333</ele><time>2026-03-07T11:51:11.969Z</time></trkpt><trkpt lat="36.8091232" lon="-3.6434998"><ele>621.6666666666666</ele><time>2026-03-07T11:51:12.99Z</time></trkpt><trkpt lat="36.8090815" lon="-3.6436055"><ele>623.0</ele><time>2026-03-07T11:51:13.983Z</time></trkpt><trkpt lat="36.8090434" lon="-3.6437019"><ele>623.5</ele><time>2026-03-07T11:51:15.01Z</time></trkpt><trkpt lat="36.8090113" lon="-3.6437937"><ele>624.0</ele><time>2026-03-07T11:51:15.981Z</time></trkpt><trkpt lat="36.8089835" lon="-3.6438848"><ele>624.5</ele><time>2026-03-07T11:51:16.987Z</time></trkpt><trkpt lat="36.8089617" lon="-3.6439703"><ele>625.0</ele><time>2026-03-07T11:51:17.989Z</time></trkpt><trkpt lat="36.8089359" lon="-3.6440453"><ele>625.5</ele><time>2026-03-07T11:51:19.003Z</time></trkpt><trkpt lat="36.8088432" lon="-3.644107"><ele>626.0</ele><time>2026-03-07T11:51:21.002Z</time></trkpt><trkpt lat="36.8087675" lon="-3.6441649"><ele>626.0</ele><time>2026-03-07T11:51:22.989Z</time></trkpt><trkpt lat="36.8086743" lon="-3.6442328"><ele>626.0</ele><time>2026-03-07T11:51:24.988Z</time></trkpt><trkpt lat="36.8085934" lon="-3.6442658"><ele>626.0</ele><time>2026-03-07T11:51:25.995Z</time></trkpt><trkpt lat="36.8085024" lon="-3.6442979"><ele>626.0</ele><time>2026-03-07T11:51:26.995Z</time></trkpt><trkpt lat="36.8084049" lon="-3.6443319"><ele>626.0</ele><time>2026-03-07T11:51:27.992Z</time></trkpt><trkpt lat="36.8083145" lon="-3.6443693"><ele>623.4</ele><time>2026-03-07T11:51:29.067Z</time></trkpt><trkpt lat="36.8082294" lon="-3.6444093"><ele>620.8</ele><time>2026-03-07T11:51:29.991Z</time></trkpt><trkpt lat="36.8081351" lon="-3.644446"><ele>618.1999999999999</ele><time>2026-03-07T11:51:30.971Z</time></trkpt><trkpt lat="36.8080443" lon="-3.6444666"><ele>615.6</ele><time>2026-03-07T11:51:31.986Z</time></trkpt><trkpt lat="36.8079496" lon="-3.6444839"><ele>613.0</ele><time>2026-03-07T11:51:32.978Z</time></trkpt><trkpt lat="36.8078468" lon="-3.6445046"><ele>610.8</ele><time>2026-03-07T11:51:33.964Z</time></trkpt><trkpt lat="36.8077433" lon="-3.6445325"><ele>608.5999999999999</ele><time>2026-03-07T11:51:35.068Z</time></trkpt><trkpt lat="36.8076421" lon="-3.644547"><ele>606.4000000000001</ele><time>2026-03-07T11:51:36.096Z</time></trkpt><trkpt lat="36.8075499" lon="-3.6445657"><ele>604.2</ele><time>2026-03-07T11:51:37.053Z</time></trkpt><trkpt lat="36.8074734" lon="-3.6445836"><ele>602.0</ele><time>2026-03-07T11:51:38.06Z</time></trkpt><trkpt lat="36.8074012" lon="-3.6446037"><ele>601.8333333333333</ele><time>2026-03-07T11:51:39.036Z</time></trkpt><trkpt lat="36.8073342" lon="-3.6446475"><ele>601.6666666666666</ele><time>2026-03-07T11:51:40.087Z</time></trkpt><trkpt lat="36.8072657" lon="-3.6446805"><ele>601.5</ele><time>2026-03-07T11:51:41.052Z</time></trkpt><trkpt lat="36.807203" lon="-3.6447348"><ele>601.3333333333334</ele><time>2026-03-07T11:51:42.01Z</time></trkpt><trkpt lat="36.8071413" lon="-3.6448056"><ele>601.1666666666667</ele><time>2026-03-07T11:51:43.016Z</time></trkpt><trkpt lat="36.8070856" lon="-3.6448915"><ele>601.0</ele><time>2026-03-07T11:51:43.988Z</time></trkpt><trkpt lat="36.8070324" lon="-3.6449867"><ele>601.0</ele><time>2026-03-07T11:51:44.996Z</time></trkpt><trkpt lat="36.8069846" lon="-3.645092"><ele>601.0</ele><time>2026-03-07T11:51:46.007Z</time></trkpt><trkpt lat="36.8069373" lon="-3.6451948"><ele>601.0</ele><time>2026-03-07T11:51:46.995Z</time></trkpt><trkpt lat="36.8068861" lon="-3.6452871"><ele>601.0</ele><time>2026-03-07T11:51:48Z</time></trkpt><trkpt lat="36.8068357" lon="-3.6453941"><ele>601.0</ele><time>2026-03-07T11:51:49.003Z</time></trkpt><trkpt lat="36.8067709" lon="-3.6454931"><ele>597.6</ele><time>2026-03-07T11:51:49.999Z</time></trkpt><trkpt lat="36.8067017" lon="-3.6455902"><ele>594.2</ele><time>2026-03-07T11:51:51.01Z</time></trkpt><trkpt lat="36.8066235" lon="-3.6456624"><ele>590.8</ele><time>2026-03-07T11:51:51.993Z</time></trkpt><trkpt lat="36.8065337" lon="-3.6457136"><ele>587.4</ele><time>2026-03-07T11:51:52.996Z</time></trkpt><trkpt lat="36.8064384" lon="-3.6457602"><ele>584.0</ele><time>2026-03-07T11:51:54.011Z</time></trkpt><trkpt lat="36.8063328" lon="-3.6458031"><ele>584.0</ele><time>2026-03-07T11:51:55.005Z</time></trkpt><trkpt lat="36.806239" lon="-3.6458564"><ele>584.0</ele><time>2026-03-07T11:51:56.005Z</time></trkpt><trkpt lat="36.8061542" lon="-3.6459102"><ele>584.0</ele><time>2026-03-07T11:51:56.994Z</time></trkpt><trkpt lat="36.8060692" lon="-3.645967"><ele>584.0</ele><time>2026-03-07T11:51:58.021Z</time></trkpt><trkpt lat="36.8059775" lon="-3.6460307"><ele>584.0</ele><time>2026-03-07T11:51:59.009Z</time></trkpt><trkpt lat="36.8058851" lon="-3.6461051"><ele>582.6</ele><time>2026-03-07T11:51:59.988Z</time></trkpt><trkpt lat="36.8057953" lon="-3.6461799"><ele>581.2</ele><time>2026-03-07T11:52:00.996Z</time></trkpt><trkpt lat="36.805715" lon="-3.6462467"><ele>579.8000000000001</ele><time>2026-03-07T11:52:02.005Z</time></trkpt><trkpt lat="36.8056336" lon="-3.6462971"><ele>578.4</ele><time>2026-03-07T11:52:03.007Z</time></trkpt><trkpt lat="36.8055453" lon="-3.6463396"><ele>577.0</ele><time>2026-03-07T11:52:04.007Z</time></trkpt><trkpt lat="36.8054654" lon="-3.6464018"><ele>577.0</ele><time>2026-03-07T11:52:05.009Z</time></trkpt><trkpt lat="36.8054143" lon="-3.6464986"><ele>577.0</ele><time>2026-03-07T11:52:05.991Z</time></trkpt><trkpt lat="36.8053651" lon="-3.6465993"><ele>577.0</ele><time>2026-03-07T11:52:07.028Z</time></trkpt><trkpt lat="36.8052956" lon="-3.6466929"><ele>577.0</ele><time>2026-03-07T11:52:07.992Z</time></trkpt><trkpt lat="36.8052053" lon="-3.64677"><ele>577.0</ele><time>2026-03-07T11:52:08.997Z</time></trkpt><trkpt lat="36.8051089" lon="-3.646822"><ele>576.4285714285714</ele><time>2026-03-07T11:52:09.983Z</time></trkpt><trkpt lat="36.8050271" lon="-3.6468711"><ele>575.8571428571429</ele><time>2026-03-07T11:52:10.994Z</time></trkpt><trkpt lat="36.8049624" lon="-3.6469101"><ele>575.2857142857143</ele><time>2026-03-07T11:52:12.008Z</time></trkpt><trkpt lat="36.8049031" lon="-3.64694"><ele>574.7142857142858</ele><time>2026-03-07T11:52:12.994Z</time></trkpt><trkpt lat="36.8048437" lon="-3.6469719"><ele>574.1428571428572</ele><time>2026-03-07T11:52:13.979Z</time></trkpt><trkpt lat="36.8047741" lon="-3.6470004"><ele>573.5714285714286</ele><time>2026-03-07T11:52:14.982Z</time></trkpt><trkpt lat="36.8046987" lon="-3.6470377"><ele>573.0</ele><time>2026-03-07T11:52:15.978Z</time></trkpt><trkpt lat="36.8046154" lon="-3.6470761"><ele>573.0</ele><time>2026-03-07T11:52:16.997Z</time></trkpt><trkpt lat="36.8045229" lon="-3.647103"><ele>573.0</ele><time>2026-03-07T11:52:17.985Z</time></trkpt><trkpt lat="36.8044303" lon="-3.6471254"><ele>573.0</ele><time>2026-03-07T11:52:18.979Z</time></trkpt><trkpt lat="36.8043406" lon="-3.6471422"><ele>573.0</ele><time>2026-03-07T11:52:19.992Z</time></trkpt><trkpt lat="36.8042616" lon="-3.6471563"><ele>573.0</ele><time>2026-03-07T11:52:20.995Z</time></trkpt><trkpt lat="36.8041914" lon="-3.6471543"><ele>573.0</ele><time>2026-03-07T11:52:22.008Z</time></trkpt><trkpt lat="36.8040778" lon="-3.6471452"><ele>574.1999999999999</ele><time>2026-03-07T11:52:23.992Z</time></trkpt><trkpt lat="36.8039684" lon="-3.6471356"><ele>575.4</ele><time>2026-03-07T11:52:26.02Z</time></trkpt><trkpt lat="36.8038665" lon="-3.6471454"><ele>576.5999999999999</ele><time>2026-03-07T11:52:28.021Z</time></trkpt><trkpt lat="36.803773" lon="-3.6472003"><ele>577.8</ele><time>2026-03-07T11:52:29.999Z</time></trkpt><trkpt lat="36.8036932" lon="-3.6472958"><ele>579.0</ele><time>2026-03-07T11:52:32.005Z</time></trkpt><trkpt lat="36.8036403" lon="-3.6473535"><ele>579.0</ele><time>2026-03-07T11:52:33.006Z</time></trkpt><trkpt lat="36.8035783" lon="-3.6474344"><ele>579.0</ele><time>2026-03-07T11:52:33.978Z</time></trkpt><trkpt lat="36.8035074" lon="-3.6475163"><ele>579.0</ele><time>2026-03-07T11:52:34.989Z</time></trkpt><trkpt lat="36.8034411" lon="-3.6475932"><ele>579.0</ele><time>2026-03-07T11:52:36.032Z</time></trkpt><trkpt lat="36.803378" lon="-3.6476635"><ele>579.0</ele><time>2026-03-07T11:52:37Z</time></trkpt><trkpt lat="36.8033134" lon="-3.6477269"><ele>579.0</ele><time>2026-03-07T11:52:38.007Z</time></trkpt><trkpt lat="36.8032443" lon="-3.6477843"><ele>575.2</ele><time>2026-03-07T11:52:38.993Z</time></trkpt><trkpt lat="36.8031759" lon="-3.6478512"><ele>571.4</ele><time>2026-03-07T11:52:39.984Z</time></trkpt><trkpt lat="36.8031015" lon="-3.6479125"><ele>567.6</ele><time>2026-03-07T11:52:41.012Z</time></trkpt><trkpt lat="36.803016" lon="-3.6479537"><ele>563.8</ele><time>2026-03-07T11:52:42.002Z</time></trkpt><trkpt lat="36.8029429" lon="-3.6479857"><ele>560.0</ele><time>2026-03-07T11:52:43.007Z</time></trkpt><trkpt lat="36.802869" lon="-3.6480781"><ele>560.0</ele><time>2026-03-07T11:52:45.002Z</time></trkpt><trkpt lat="36.8029265" lon="-3.6481835"><ele>560.0</ele><time>2026-03-07T11:52:46.989Z</time></trkpt><trkpt lat="36.8029872" lon="-3.6482292"><ele>560.0</ele><time>2026-03-07T11:52:47.993Z</time></trkpt><trkpt lat="36.8030585" lon="-3.6482507"><ele>560.0</ele><time>2026-03-07T11:52:48.993Z</time></trkpt><trkpt lat="36.803132" lon="-3.6482586"><ele>560.0</ele><time>2026-03-07T11:52:49.981Z</time></trkpt><trkpt lat="36.8032002" lon="-3.6482743"><ele>560.0</ele><time>2026-03-07T11:52:51Z</time></trkpt><trkpt lat="36.8032678" lon="-3.6483677"><ele>560.0</ele><time>2026-03-07T11:52:52.996Z</time></trkpt><trkpt lat="36.80321" lon="-3.6484939"><ele>560.0</ele><time>2026-03-07T11:52:55.008Z</time></trkpt><trkpt lat="36.8031392" lon="-3.6485461"><ele>560.0</ele><time>2026-03-07T11:52:55.984Z</time></trkpt><trkpt lat="36.8030737" lon="-3.6485867"><ele>560.0</ele><time>2026-03-07T11:52:56.996Z</time></trkpt><trkpt lat="36.8030115" lon="-3.6486121"><ele>560.0</ele><time>2026-03-07T11:52:57.997Z</time></trkpt><trkpt lat="36.8028987" lon="-3.6486257"><ele>555.8</ele><time>2026-03-07T11:52:59.996Z</time></trkpt><trkpt lat="36.8028199" lon="-3.6487046"><ele>551.6</ele><time>2026-03-07T11:53:01.989Z</time></trkpt><trkpt lat="36.8028639" lon="-3.6488482"><ele>547.4</ele><time>2026-03-07T11:53:04.009Z</time></trkpt><trkpt lat="36.8029145" lon="-3.6489305"><ele>543.2</ele><time>2026-03-07T11:53:04.996Z</time></trkpt><trkpt lat="36.8029508" lon="-3.6490185"><ele>539.0</ele><time>2026-03-07T11:53:05.978Z</time></trkpt><trkpt lat="36.8029589" lon="-3.649121"><ele>539.0</ele><time>2026-03-07T11:53:07.009Z</time></trkpt><trkpt lat="36.8029396" lon="-3.6492302"><ele>539.0</ele><time>2026-03-07T11:53:07.982Z</time></trkpt><trkpt lat="36.8029003" lon="-3.6493314"><ele>539.0</ele><time>2026-03-07T11:53:08.995Z</time></trkpt><trkpt lat="36.802857" lon="-3.649436"><ele>539.0</ele><time>2026-03-07T11:53:09.981Z</time></trkpt><trkpt lat="36.8028043" lon="-3.6495372"><ele>539.0</ele><time>2026-03-07T11:53:10.995Z</time></trkpt><trkpt lat="36.8027341" lon="-3.6496428"><ele>539.0</ele><time>2026-03-07T11:53:11.992Z</time></trkpt><trkpt lat="36.802665" lon="-3.6497334"><ele>539.0</ele><time>2026-03-07T11:53:12.985Z</time></trkpt><trkpt lat="36.8026077" lon="-3.6498152"><ele>539.0</ele><time>2026-03-07T11:53:13.98Z</time></trkpt><trkpt lat="36.8025592" lon="-3.6498856"><ele>539.0</ele><time>2026-03-07T11:53:14.995Z</time></trkpt><trkpt lat="36.8025122" lon="-3.649946"><ele>539.0</ele><time>2026-03-07T11:53:15.99Z</time></trkpt><trkpt lat="36.8024585" lon="-3.6500085"><ele>539.0</ele><time>2026-03-07T11:53:16.982Z</time></trkpt><trkpt lat="36.8024067" lon="-3.6500744"><ele>539.0</ele><time>2026-03-07T11:53:18.003Z</time></trkpt><trkpt lat="36.802346" lon="-3.650145"><ele>539.0</ele><time>2026-03-07T11:53:18.997Z</time></trkpt><trkpt lat="36.8022746" lon="-3.6502025"><ele>539.0</ele><time>2026-03-07T11:53:19.999Z</time></trkpt><trkpt lat="36.8021974" lon="-3.6502571"><ele>539.0</ele><time>2026-03-07T11:53:20.995Z</time></trkpt><trkpt lat="36.8021062" lon="-3.6502881"><ele>539.0</ele><time>2026-03-07T11:53:21.989Z</time></trkpt><trkpt lat="36.8020101" lon="-3.6503234"><ele>537.6</ele><time>2026-03-07T11:53:22.982Z</time></trkpt><trkpt lat="36.8019122" lon="-3.6503511"><ele>536.2</ele><time>2026-03-07T11:53:23.99Z</time></trkpt><trkpt lat="36.8018194" lon="-3.6503801"><ele>534.8000000000001</ele><time>2026-03-07T11:53:24.981Z</time></trkpt><trkpt lat="36.8017338" lon="-3.6504211"><ele>533.4</ele><time>2026-03-07T11:53:25.984Z</time></trkpt><trkpt lat="36.8016526" lon="-3.6504848"><ele>532.0</ele><time>2026-03-07T11:53:26.989Z</time></trkpt><trkpt lat="36.8015788" lon="-3.6505757"><ele>532.0</ele><time>2026-03-07T11:53:27.996Z</time></trkpt><trkpt lat="36.8015055" lon="-3.6506689"><ele>532.0</ele><time>2026-03-07T11:53:28.989Z</time></trkpt><trkpt lat="36.8014398" lon="-3.6507561"><ele>532.0</ele><time>2026-03-07T11:53:29.995Z</time></trkpt><trkpt lat="36.8013817" lon="-3.6508379"><ele>532.0</ele><time>2026-03-07T11:53:31.005Z</time></trkpt><trkpt lat="36.8013208" lon="-3.6509021"><ele>532.0</ele><time>2026-03-07T11:53:31.985Z</time></trkpt><trkpt lat="36.801264" lon="-3.6509519"><ele>532.0</ele><time>2026-03-07T11:53:32.991Z</time></trkpt><trkpt lat="36.8011494" lon="-3.6509878"><ele>532.0</ele><time>2026-03-07T11:53:35.003Z</time></trkpt><trkpt lat="36.801088" lon="-3.6509552"><ele>532.0</ele><time>2026-03-07T11:53:35.994Z</time></trkpt><trkpt lat="36.8010193" lon="-3.6508977"><ele>532.0</ele><time>2026-03-07T11:53:36.973Z</time></trkpt><trkpt lat="36.8009473" lon="-3.6508244"><ele>532.0</ele><time>2026-03-07T11:53:37.971Z</time></trkpt><trkpt lat="36.8008785" lon="-3.6507514"><ele>532.0</ele><time>2026-03-07T11:53:38.974Z</time></trkpt><trkpt lat="36.800817" lon="-3.6506896"><ele>532.0</ele><time>2026-03-07T11:53:39.977Z</time></trkpt><trkpt lat="36.8007525" lon="-3.6506296"><ele>532.2</ele><time>2026-03-07T11:53:40.984Z</time></trkpt><trkpt lat="36.8006671" lon="-3.6505922"><ele>532.4000000000001</ele><time>2026-03-07T11:53:41.973Z</time></trkpt><trkpt lat="36.8005684" lon="-3.650556"><ele>532.5999999999999</ele><time>2026-03-07T11:53:42.98Z</time></trkpt><trkpt lat="36.8004623" lon="-3.6505353"><ele>532.8</ele><time>2026-03-07T11:53:43.988Z</time></trkpt><trkpt lat="36.800362" lon="-3.6505189"><ele>533.0</ele><time>2026-03-07T11:53:45.011Z</time></trkpt><trkpt lat="36.8002638" lon="-3.6505006"><ele>533.0</ele><time>2026-03-07T11:53:46.009Z</time></trkpt><trkpt lat="36.8001679" lon="-3.6504889"><ele>533.0</ele><time>2026-03-07T11:53:46.986Z</time></trkpt><trkpt lat="36.8000829" lon="-3.6504764"><ele>533.0</ele><time>2026-03-07T11:53:47.994Z</time></trkpt><trkpt lat="36.8000083" lon="-3.6504579"><ele>533.0</ele><time>2026-03-07T11:53:49.007Z</time></trkpt><trkpt lat="36.7999372" lon="-3.6504467"><ele>533.0</ele><time>2026-03-07T11:53:49.994Z</time></trkpt><trkpt lat="36.7998621" lon="-3.6504382"><ele>533.0</ele><time>2026-03-07T11:53:50.981Z</time></trkpt><trkpt lat="36.7997741" lon="-3.6504225"><ele>532.6</ele><time>2026-03-07T11:53:51.997Z</time></trkpt><trkpt lat="36.7996801" lon="-3.6504068"><ele>532.1999999999999</ele><time>2026-03-07T11:53:52.999Z</time></trkpt><trkpt lat="36.7995779" lon="-3.6503969"><ele>531.8</ele><time>2026-03-07T11:53:53.992Z</time></trkpt><trkpt lat="36.7994734" lon="-3.6503853"><ele>531.4</ele><time>2026-03-07T11:53:54.998Z</time></trkpt><trkpt lat="36.7993749" lon="-3.6503737"><ele>531.0</ele><time>2026-03-07T11:53:56.009Z</time></trkpt><trkpt lat="36.7992805" lon="-3.6503584"><ele>528.0</ele><time>2026-03-07T11:53:57.008Z</time></trkpt><trkpt lat="36.7991848" lon="-3.6503512"><ele>525.0</ele><time>2026-03-07T11:53:57.999Z</time></trkpt><trkpt lat="36.7990836" lon="-3.6503425"><ele>522.0</ele><time>2026-03-07T11:53:59.007Z</time></trkpt><trkpt lat="36.7989811" lon="-3.6503398"><ele>519.0</ele><time>2026-03-07T11:53:59.992Z</time></trkpt><trkpt lat="36.7988788" lon="-3.6503467"><ele>516.0</ele><time>2026-03-07T11:54:01.003Z</time></trkpt><trkpt lat="36.798775" lon="-3.6503502"><ele>516.0</ele><time>2026-03-07T11:54:01.993Z</time></trkpt><trkpt lat="36.7986727" lon="-3.6503561"><ele>516.0</ele><time>2026-03-07T11:54:02.998Z</time></trkpt><trkpt lat="36.7985695" lon="-3.6503613"><ele>516.0</ele><time>2026-03-07T11:54:03.992Z</time></trkpt><trkpt lat="36.7984646" lon="-3.6503577"><ele>516.0</ele><time>2026-03-07T11:54:04.993Z</time></trkpt><trkpt lat="36.7983641" lon="-3.6503472"><ele>516.0</ele><time>2026-03-07T11:54:06.002Z</time></trkpt><trkpt lat="36.7982656" lon="-3.6503389"><ele>515.2</ele><time>2026-03-07T11:54:06.987Z</time></trkpt><trkpt lat="36.7981652" lon="-3.650327"><ele>514.4000000000001</ele><time>2026-03-07T11:54:07.998Z</time></trkpt><trkpt lat="36.7980659" lon="-3.6503139"><ele>513.6</ele><time>2026-03-07T11:54:08.986Z</time></trkpt><trkpt lat="36.7979706" lon="-3.6503006"><ele>512.8000000000001</ele><time>2026-03-07T11:54:09.992Z</time></trkpt><trkpt lat="36.7978839" lon="-3.650295"><ele>512.0</ele><time>2026-03-07T11:54:10.999Z</time></trkpt><trkpt lat="36.7978032" lon="-3.6503"><ele>512.0</ele><time>2026-03-07T11:54:12.003Z</time></trkpt><trkpt lat="36.7977212" lon="-3.6503103"><ele>512.0</ele><time>2026-03-07T11:54:12.982Z</time></trkpt><trkpt lat="36.7976348" lon="-3.6503185"><ele>512.0</ele><time>2026-03-07T11:54:13.998Z</time></trkpt><trkpt lat="36.7975443" lon="-3.6503253"><ele>512.0</ele><time>2026-03-07T11:54:15.018Z</time></trkpt><trkpt lat="36.7974452" lon="-3.6503154"><ele>512.0</ele><time>2026-03-07T11:54:16Z</time></trkpt><trkpt lat="36.7973442" lon="-3.6503091"><ele>511.8</ele><time>2026-03-07T11:54:17.016Z</time></trkpt><trkpt lat="36.7972438" lon="-3.6503061"><ele>511.6</ele><time>2026-03-07T11:54:18.001Z</time></trkpt><trkpt lat="36.7971437" lon="-3.6503046"><ele>511.40000000000003</ele><time>2026-03-07T11:54:19.005Z</time></trkpt><trkpt lat="36.7970466" lon="-3.6502979"><ele>511.20000000000005</ele><time>2026-03-07T11:54:20.007Z</time></trkpt><trkpt lat="36.7969489" lon="-3.6502993"><ele>511.0</ele><time>2026-03-07T11:54:21.01Z</time></trkpt><trkpt lat="36.7968538" lon="-3.6503026"><ele>511.20000000000005</ele><time>2026-03-07T11:54:22.004Z</time></trkpt><trkpt lat="36.7967597" lon="-3.6503168"><ele>511.40000000000003</ele><time>2026-03-07T11:54:22.997Z</time></trkpt><trkpt lat="36.7966673" lon="-3.6503362"><ele>511.6</ele><time>2026-03-07T11:54:23.998Z</time></trkpt><trkpt lat="36.7965742" lon="-3.6503581"><ele>511.8</ele><time>2026-03-07T11:54:25.011Z</time></trkpt><trkpt lat="36.7964822" lon="-3.650373"><ele>512.0</ele><time>2026-03-07T11:54:26.003Z</time></trkpt><trkpt lat="36.7963874" lon="-3.6503894"><ele>512.0</ele><time>2026-03-07T11:54:26.983Z</time></trkpt><trkpt lat="36.7962928" lon="-3.6504023"><ele>512.0</ele><time>2026-03-07T11:54:28.025Z</time></trkpt><trkpt lat="36.7961986" lon="-3.6504106"><ele>512.0</ele><time>2026-03-07T11:54:28.983Z</time></trkpt><trkpt lat="36.7961067" lon="-3.6503976"><ele>512.0</ele><time>2026-03-07T11:54:30.037Z</time></trkpt><trkpt lat="36.7960184" lon="-3.6503783"><ele>512.0</ele><time>2026-03-07T11:54:30.988Z</time></trkpt><trkpt lat="36.7959361" lon="-3.6503569"><ele>511.49999999999994</ele><time>2026-03-07T11:54:32.011Z</time></trkpt><trkpt lat="36.7958587" lon="-3.650335"><ele>511.0</ele><time>2026-03-07T11:54:32.988Z</time></trkpt><trkpt lat="36.7957831" lon="-3.6503196"><ele>510.5</ele><time>2026-03-07T11:54:34Z</time></trkpt><trkpt lat="36.7957001" lon="-3.6503087"><ele>510.0</ele><time>2026-03-07T11:54:35.038Z</time></trkpt><trkpt lat="36.7956095" lon="-3.6503064"><ele>509.49999999999994</ele><time>2026-03-07T11:54:36.018Z</time></trkpt><trkpt lat="36.7955205" lon="-3.6502999"><ele>509.0</ele><time>2026-03-07T11:54:37.003Z</time></trkpt><trkpt lat="36.7954324" lon="-3.6502991"><ele>509.0</ele><time>2026-03-07T11:54:37.981Z</time></trkpt><trkpt lat="36.7953403" lon="-3.6503064"><ele>509.0</ele><time>2026-03-07T11:54:38.996Z</time></trkpt><trkpt lat="36.7952434" lon="-3.6503401"><ele>509.0</ele><time>2026-03-07T11:54:40.001Z</time></trkpt><trkpt lat="36.7951424" lon="-3.6503884"><ele>509.0</ele><time>2026-03-07T11:54:40.983Z</time></trkpt><trkpt lat="36.7950393" lon="-3.6504315"><ele>509.0</ele><time>2026-03-07T11:54:41.994Z</time></trkpt><trkpt lat="36.7949412" lon="-3.6504694"><ele>509.2</ele><time>2026-03-07T11:54:42.977Z</time></trkpt><trkpt lat="36.7948458" lon="-3.6505026"><ele>509.4</ele><time>2026-03-07T11:54:43.988Z</time></trkpt><trkpt lat="36.7947484" lon="-3.6505346"><ele>509.6</ele><time>2026-03-07T11:54:45.001Z</time></trkpt><trkpt lat="36.7946504" lon="-3.6505658"><ele>509.8</ele><time>2026-03-07T11:54:46.008Z</time></trkpt><trkpt lat="36.7945575" lon="-3.650595"><ele>510.0</ele><time>2026-03-07T11:54:46.997Z</time></trkpt><trkpt lat="36.794471" lon="-3.6506286"><ele>510.0</ele><time>2026-03-07T11:54:48.014Z</time></trkpt><trkpt lat="36.7943839" lon="-3.6506691"><ele>510.0</ele><time>2026-03-07T11:54:49.008Z</time></trkpt><trkpt lat="36.7942993" lon="-3.6507219"><ele>510.0</ele><time>2026-03-07T11:54:50.006Z</time></trkpt><trkpt lat="36.7942253" lon="-3.650796"><ele>510.0</ele><time>2026-03-07T11:54:50.991Z</time></trkpt><trkpt lat="36.7941567" lon="-3.6508826"><ele>510.0</ele><time>2026-03-07T11:54:52.005Z</time></trkpt><trkpt lat="36.7940819" lon="-3.6509801"><ele>510.0</ele><time>2026-03-07T11:54:53.024Z</time></trkpt><trkpt lat="36.7940015" lon="-3.6510812"><ele>510.0</ele><time>2026-03-07T11:54:54.019Z</time></trkpt><trkpt lat="36.7939268" lon="-3.6511731"><ele>510.0</ele><time>2026-03-07T11:54:55.014Z</time></trkpt><trkpt lat="36.7938633" lon="-3.6512552"><ele>510.0</ele><time>2026-03-07T11:54:56.018Z</time></trkpt><trkpt lat="36.7938126" lon="-3.6513376"><ele>510.0</ele><time>2026-03-07T11:54:56.986Z</time></trkpt><trkpt lat="36.793775" lon="-3.6514071"><ele>508.8</ele><time>2026-03-07T11:54:58.016Z</time></trkpt><trkpt lat="36.7937329" lon="-3.6515386"><ele>507.6</ele><time>2026-03-07T11:55:00.011Z</time></trkpt><trkpt lat="36.7936768" lon="-3.651668"><ele>506.4</ele><time>2026-03-07T11:55:02.017Z</time></trkpt><trkpt lat="36.7936325" lon="-3.6517775"><ele>505.2</ele><time>2026-03-07T11:55:04.015Z</time></trkpt><trkpt lat="36.7935752" lon="-3.6518269"><ele>504.0</ele><time>2026-03-07T11:55:06Z</time></trkpt><trkpt lat="36.7934954" lon="-3.6517395"><ele>504.0</ele><time>2026-03-07T11:55:08.07Z</time></trkpt><trkpt lat="36.7934605" lon="-3.6516513"><ele>504.0</ele><time>2026-03-07T11:55:09.018Z</time></trkpt><trkpt lat="36.7934516" lon="-3.6515523"><ele>504.0</ele><time>2026-03-07T11:55:09.984Z</time></trkpt><trkpt lat="36.7934792" lon="-3.6514609"><ele>504.0</ele><time>2026-03-07T11:55:11.007Z</time></trkpt><trkpt lat="36.7935189" lon="-3.6513803"><ele>504.0</ele><time>2026-03-07T11:55:12.008Z</time></trkpt><trkpt lat="36.7935585" lon="-3.6513113"><ele>504.0</ele><time>2026-03-07T11:55:13.018Z</time></trkpt><trkpt lat="36.7936021" lon="-3.6512139"><ele>504.0</ele><time>2026-03-07T11:55:14.99Z</time></trkpt><trkpt lat="36.793629" lon="-3.6511321"><ele>504.0</ele><time>2026-03-07T11:55:17.022Z</time></trkpt><trkpt lat="36.793618" lon="-3.6510251"><ele>504.0</ele><time>2026-03-07T11:55:20.009Z</time></trkpt><trkpt lat="36.7935216" lon="-3.6510758"><ele>504.0</ele><time>2026-03-07T11:55:23.011Z</time></trkpt><trkpt lat="36.7934574" lon="-3.6511545"><ele>504.0</ele><time>2026-03-07T11:55:25.028Z</time></trkpt><trkpt lat="36.7933907" lon="-3.6512167"><ele>504.0</ele><time>2026-03-07T11:55:28.025Z</time></trkpt><trkpt lat="36.7933101" lon="-3.6512208"><ele>504.0</ele><time>2026-03-07T11:56:22.016Z</time></trkpt><trkpt lat="36.793267" lon="-3.6512997"><ele>504.0</ele><time>2026-03-07T12:01:52Z</time></trkpt><trkpt lat="36.7932302" lon="-3.6513654"><ele>504.0</ele><time>2026-03-07T12:01:53.027Z</time></trkpt><trkpt lat="36.793175" lon="-3.6514296"><ele>504.0</ele><time>2026-03-07T12:01:53.994Z</time></trkpt><trkpt lat="36.7931137" lon="-3.651474"><ele>504.0</ele><time>2026-03-07T12:01:55Z</time></trkpt><trkpt lat="36.7930502" lon="-3.6515109"><ele>504.0</ele><time>2026-03-07T12:01:55.999Z</time></trkpt><trkpt lat="36.7929873" lon="-3.6515376"><ele>504.0</ele><time>2026-03-07T12:01:56.994Z</time></trkpt><trkpt lat="36.7929096" lon="-3.651537"><ele>504.0</ele><time>2026-03-07T12:01:57.997Z</time></trkpt><trkpt lat="36.7928172" lon="-3.6515342"><ele>504.0</ele><time>2026-03-07T12:01:59.01Z</time></trkpt><trkpt lat="36.7927247" lon="-3.6515238"><ele>504.0</ele><time>2026-03-07T12:02:00Z</time></trkpt><trkpt lat="36.7926373" lon="-3.6515233"><ele>504.0</ele><time>2026-03-07T12:02:00.994Z</time></trkpt><trkpt lat="36.7925575" lon="-3.6515186"><ele>504.0</ele><time>2026-03-07T12:02:02.02Z</time></trkpt><trkpt lat="36.7924802" lon="-3.6515326"><ele>504.0</ele><time>2026-03-07T12:02:03.011Z</time></trkpt><trkpt lat="36.7923956" lon="-3.6515555"><ele>502.0</ele><time>2026-03-07T12:02:04.017Z</time></trkpt><trkpt lat="36.7923064" lon="-3.6515899"><ele>500.0</ele><time>2026-03-07T12:02:04.991Z</time></trkpt><trkpt lat="36.7922083" lon="-3.6516336"><ele>498.0</ele><time>2026-03-07T12:02:06.011Z</time></trkpt><trkpt lat="36.7921122" lon="-3.6516887"><ele>496.0</ele><time>2026-03-07T12:02:07.02Z</time></trkpt><trkpt lat="36.7920209" lon="-3.6517421"><ele>494.0</ele><time>2026-03-07T12:02:08.006Z</time></trkpt><trkpt lat="36.7919278" lon="-3.6517771"><ele>493.4</ele><time>2026-03-07T12:02:08.995Z</time></trkpt><trkpt lat="36.7918339" lon="-3.6517998"><ele>492.79999999999995</ele><time>2026-03-07T12:02:10.061Z</time></trkpt><trkpt lat="36.7917376" lon="-3.6518137"><ele>492.20000000000005</ele><time>2026-03-07T12:02:11.005Z</time></trkpt><trkpt lat="36.7916427" lon="-3.6518238"><ele>491.6</ele><time>2026-03-07T12:02:12.019Z</time></trkpt><trkpt lat="36.7915506" lon="-3.6518471"><ele>491.0</ele><time>2026-03-07T12:02:12.993Z</time></trkpt><trkpt lat="36.7914589" lon="-3.651868"><ele>490.99999999999994</ele><time>2026-03-07T12:02:14.005Z</time></trkpt><trkpt lat="36.7913711" lon="-3.6519025"><ele>491.0</ele><time>2026-03-07T12:02:15.026Z</time></trkpt><trkpt lat="36.7912872" lon="-3.651933"><ele>491.0</ele><time>2026-03-07T12:02:16.009Z</time></trkpt><trkpt lat="36.7912219" lon="-3.651957"><ele>491.0</ele><time>2026-03-07T12:02:17.011Z</time></trkpt><trkpt lat="36.7911446" lon="-3.6520091"><ele>490.99999999999994</ele><time>2026-03-07T12:02:19.022Z</time></trkpt><trkpt lat="36.7910732" lon="-3.6520629"><ele>491.0</ele><time>2026-03-07T12:02:21.995Z</time></trkpt><trkpt lat="36.790958" lon="-3.6520903"><ele>489.4</ele><time>2026-03-07T12:02:24.129Z</time></trkpt><trkpt lat="36.7908004" lon="-3.6520888"><ele>487.8</ele><time>2026-03-07T12:02:25.998Z</time></trkpt><trkpt lat="36.7907231" lon="-3.6520803"><ele>486.19999999999993</ele><time>2026-03-07T12:02:26.997Z</time></trkpt><trkpt lat="36.7906392" lon="-3.6520774"><ele>484.59999999999997</ele><time>2026-03-07T12:02:28.006Z</time></trkpt><trkpt lat="36.7905515" lon="-3.6520911"><ele>483.0</ele><time>2026-03-07T12:02:29.005Z</time></trkpt><trkpt lat="36.7904691" lon="-3.6521258"><ele>483.0</ele><time>2026-03-07T12:02:29.985Z</time></trkpt><trkpt lat="36.7903864" lon="-3.6521736"><ele>482.99999999999994</ele><time>2026-03-07T12:02:31Z</time></trkpt><trkpt lat="36.790296" lon="-3.652227"><ele>482.99999999999994</ele><time>2026-03-07T12:02:32.031Z</time></trkpt><trkpt lat="36.7901977" lon="-3.6522836"><ele>483.0</ele><time>2026-03-07T12:02:33Z</time></trkpt><trkpt lat="36.7901079" lon="-3.6523373"><ele>483.0</ele><time>2026-03-07T12:02:34.011Z</time></trkpt><trkpt lat="36.7900293" lon="-3.6523908"><ele>484.6666666666667</ele><time>2026-03-07T12:02:35.002Z</time></trkpt><trkpt lat="36.7899543" lon="-3.6524378"><ele>486.33333333333337</ele><time>2026-03-07T12:02:36.004Z</time></trkpt><trkpt lat="36.7898853" lon="-3.6524829"><ele>488.0</ele><time>2026-03-07T12:02:37.016Z</time></trkpt><trkpt lat="36.7898154" lon="-3.6524986"><ele>489.6666666666667</ele><time>2026-03-07T12:02:38.011Z</time></trkpt><trkpt lat="36.7897404" lon="-3.652496"><ele>491.33333333333337</ele><time>2026-03-07T12:02:38.983Z</time></trkpt><trkpt lat="36.789659" lon="-3.6524694"><ele>493.0</ele><time>2026-03-07T12:02:39.992Z</time></trkpt><trkpt lat="36.7895723" lon="-3.6524224"><ele>493.0</ele><time>2026-03-07T12:02:41.015Z</time></trkpt><trkpt lat="36.7894905" lon="-3.6523594"><ele>492.99999999999994</ele><time>2026-03-07T12:02:41.996Z</time></trkpt><trkpt lat="36.7894053" lon="-3.6523075"><ele>492.99999999999994</ele><time>2026-03-07T12:02:43.026Z</time></trkpt><trkpt lat="36.7893122" lon="-3.652255"><ele>493.0</ele><time>2026-03-07T12:02:44.002Z</time></trkpt><trkpt lat="36.7892152" lon="-3.6521982"><ele>493.0</ele><time>2026-03-07T12:02:44.99Z</time></trkpt><trkpt lat="36.789129" lon="-3.6521508"><ele>493.00000000000006</ele><time>2026-03-07T12:02:46.008Z</time></trkpt><trkpt lat="36.7890593" lon="-3.6521103"><ele>493.0</ele><time>2026-03-07T12:02:46.999Z</time></trkpt><trkpt lat="36.7889833" lon="-3.6521067"><ele>493.0</ele><time>2026-03-07T12:02:48.03Z</time></trkpt><trkpt lat="36.7889005" lon="-3.6521407"><ele>493.0</ele><time>2026-03-07T12:02:49.002Z</time></trkpt><trkpt lat="36.7888215" lon="-3.652186"><ele>493.00000000000006</ele><time>2026-03-07T12:02:50.013Z</time></trkpt><trkpt lat="36.7887578" lon="-3.6522304"><ele>493.0</ele><time>2026-03-07T12:02:50.989Z</time></trkpt><trkpt lat="36.7886868" lon="-3.6522493"><ele>493.00000000000006</ele><time>2026-03-07T12:02:51.998Z</time></trkpt><trkpt lat="36.7886009" lon="-3.6522726"><ele>493.0</ele><time>2026-03-07T12:02:52.992Z</time></trkpt><trkpt lat="36.7885071" lon="-3.6522864"><ele>493.0</ele><time>2026-03-07T12:02:53.987Z</time></trkpt><trkpt lat="36.7884249" lon="-3.6522844"><ele>493.0</ele><time>2026-03-07T12:02:55.012Z</time></trkpt><trkpt lat="36.7883568" lon="-3.6522536"><ele>493.00000000000006</ele><time>2026-03-07T12:02:56.007Z</time></trkpt><trkpt lat="36.788293" lon="-3.6522057"><ele>493.0</ele><time>2026-03-07T12:02:57.013Z</time></trkpt><trkpt lat="36.7882145" lon="-3.6521557"><ele>492.0</ele><time>2026-03-07T12:02:58Z</time></trkpt><trkpt lat="36.7881255" lon="-3.6521216"><ele>490.99999999999994</ele><time>2026-03-07T12:02:58.979Z</time></trkpt><trkpt lat="36.7880424" lon="-3.6521038"><ele>489.99999999999994</ele><time>2026-03-07T12:03:00.049Z</time></trkpt><trkpt lat="36.78797" lon="-3.6520906"><ele>489.0</ele><time>2026-03-07T12:03:01.033Z</time></trkpt><trkpt lat="36.7878687" lon="-3.6520861"><ele>488.0</ele><time>2026-03-07T12:03:03.014Z</time></trkpt><trkpt lat="36.7877783" lon="-3.6522021"><ele>487.99999999999994</ele><time>2026-03-07T12:03:05.021Z</time></trkpt><trkpt lat="36.7877246" lon="-3.6522913"><ele>488.0</ele><time>2026-03-07T12:03:05.985Z</time></trkpt><trkpt lat="36.7876771" lon="-3.6523582"><ele>488.0</ele><time>2026-03-07T12:03:07.006Z</time></trkpt><trkpt lat="36.7875655" lon="-3.6523882"><ele>488.0</ele><time>2026-03-07T12:03:08.987Z</time></trkpt><trkpt lat="36.7874853" lon="-3.6523643"><ele>487.99999999999994</ele><time>2026-03-07T12:03:10.004Z</time></trkpt><trkpt lat="36.7873966" lon="-3.6523426"><ele>488.0</ele><time>2026-03-07T12:03:11.021Z</time></trkpt><trkpt lat="36.7873114" lon="-3.6523269"><ele>487.3333333333333</ele><time>2026-03-07T12:03:11.984Z</time></trkpt><trkpt lat="36.7872447" lon="-3.6523109"><ele>486.66666666666663</ele><time>2026-03-07T12:03:13.02Z</time></trkpt><trkpt lat="36.787185" lon="-3.6522837"><ele>486.0</ele><time>2026-03-07T12:03:13.993Z</time></trkpt><trkpt lat="36.7870964" lon="-3.6522123"><ele>485.33333333333337</ele><time>2026-03-07T12:03:15.994Z</time></trkpt><trkpt lat="36.7869964" lon="-3.6522606"><ele>484.6666666666667</ele><time>2026-03-07T12:03:18.021Z</time></trkpt><trkpt lat="36.7869545" lon="-3.6523247"><ele>484.0</ele><time>2026-03-07T12:03:19.001Z</time></trkpt><trkpt lat="36.7869088" lon="-3.6523865"><ele>484.1666666666667</ele><time>2026-03-07T12:03:19.986Z</time></trkpt><trkpt lat="36.786807" lon="-3.6524415"><ele>484.33333333333337</ele><time>2026-03-07T12:03:22.004Z</time></trkpt><trkpt lat="36.7867404" lon="-3.6524434"><ele>484.5</ele><time>2026-03-07T12:03:23.028Z</time></trkpt><trkpt lat="36.7866686" lon="-3.6524182"><ele>484.66666666666663</ele><time>2026-03-07T12:03:24Z</time></trkpt><trkpt lat="36.7866027" lon="-3.6523784"><ele>484.8333333333333</ele><time>2026-03-07T12:03:25.005Z</time></trkpt><trkpt lat="36.7865509" lon="-3.6523215"><ele>485.0</ele><time>2026-03-07T12:03:26.012Z</time></trkpt><trkpt lat="36.7864377" lon="-3.6523022"><ele>484.99999999999994</ele><time>2026-03-07T12:03:28.007Z</time></trkpt><trkpt lat="36.786382" lon="-3.6523493"><ele>485.0</ele><time>2026-03-07T12:03:29.005Z</time></trkpt><trkpt lat="36.7863387" lon="-3.6524202"><ele>485.0</ele><time>2026-03-07T12:03:30.045Z</time></trkpt><trkpt lat="36.7863103" lon="-3.6525041"><ele>485.0</ele><time>2026-03-07T12:03:30.991Z</time></trkpt><trkpt lat="36.7862773" lon="-3.6525991"><ele>484.99999999999994</ele><time>2026-03-07T12:03:32.02Z</time></trkpt><trkpt lat="36.7862359" lon="-3.6527097"><ele>485.0</ele><time>2026-03-07T12:03:33.019Z</time></trkpt><trkpt lat="36.7861938" lon="-3.6528435"><ele>484.5</ele><time>2026-03-07T12:03:34.019Z</time></trkpt><trkpt lat="36.7861197" lon="-3.6529617"><ele>484.0</ele><time>2026-03-07T12:03:35.029Z</time></trkpt><trkpt lat="36.7860509" lon="-3.6530809"><ele>483.5</ele><time>2026-03-07T12:03:35.99Z</time></trkpt><trkpt lat="36.7859781" lon="-3.6531923"><ele>483.0</ele><time>2026-03-07T12:03:36.988Z</time></trkpt><trkpt lat="36.7859064" lon="-3.6533166"><ele>483.0</ele><time>2026-03-07T12:03:38Z</time></trkpt><trkpt lat="36.7858402" lon="-3.6534532"><ele>482.99999999999994</ele><time>2026-03-07T12:03:39.013Z</time></trkpt><trkpt lat="36.7857795" lon="-3.6535821"><ele>482.99999999999994</ele><time>2026-03-07T12:03:39.995Z</time></trkpt><trkpt lat="36.7857327" lon="-3.6536921"><ele>483.0</ele><time>2026-03-07T12:03:40.99Z</time></trkpt><trkpt lat="36.7856964" lon="-3.6537737"><ele>483.0</ele><time>2026-03-07T12:03:42.001Z</time></trkpt><trkpt lat="36.785645" lon="-3.6538293"><ele>476.59999999999997</ele><time>2026-03-07T12:03:42.989Z</time></trkpt><trkpt lat="36.7855352" lon="-3.6538668"><ele>470.19999999999993</ele><time>2026-03-07T12:03:44.991Z</time></trkpt><trkpt lat="36.7854175" lon="-3.6538658"><ele>463.8</ele><time>2026-03-07T12:03:46.982Z</time></trkpt><trkpt lat="36.7853664" lon="-3.6539236"><ele>457.4</ele><time>2026-03-07T12:03:48.023Z</time></trkpt><trkpt lat="36.7853144" lon="-3.6540042"><ele>451.0</ele><time>2026-03-07T12:03:49.008Z</time></trkpt><trkpt lat="36.7852583" lon="-3.6540896"><ele>451.00000000000006</ele><time>2026-03-07T12:03:50.002Z</time></trkpt><trkpt lat="36.7852043" lon="-3.654178"><ele>451.0</ele><time>2026-03-07T12:03:51Z</time></trkpt><trkpt lat="36.785166" lon="-3.654264"><ele>451.0</ele><time>2026-03-07T12:03:52.004Z</time></trkpt><trkpt lat="36.785142" lon="-3.6543461"><ele>451.0</ele><time>2026-03-07T12:03:52.988Z</time></trkpt><trkpt lat="36.7851083" lon="-3.6544907"><ele>451.00000000000006</ele><time>2026-03-07T12:03:54.993Z</time></trkpt><trkpt lat="36.7851051" lon="-3.6545766"><ele>451.0</ele><time>2026-03-07T12:03:55.992Z</time></trkpt><trkpt lat="36.7851139" lon="-3.6546636"><ele>449.7142857142857</ele><time>2026-03-07T12:03:57.018Z</time></trkpt><trkpt lat="36.7851335" lon="-3.6547432"><ele>448.42857142857144</ele><time>2026-03-07T12:03:57.991Z</time></trkpt><trkpt lat="36.7851784" lon="-3.6548164"><ele>447.14285714285717</ele><time>2026-03-07T12:03:58.986Z</time></trkpt><trkpt lat="36.7852141" lon="-3.6548988"><ele>445.8571428571429</ele><time>2026-03-07T12:03:59.997Z</time></trkpt><trkpt lat="36.7852303" lon="-3.6549892"><ele>444.57142857142856</ele><time>2026-03-07T12:04:01Z</time></trkpt><trkpt lat="36.7852292" lon="-3.6550868"><ele>443.28571428571433</ele><time>2026-03-07T12:04:01.998Z</time></trkpt><trkpt lat="36.7852157" lon="-3.6551853"><ele>442.0</ele><time>2026-03-07T12:04:02.999Z</time></trkpt><trkpt lat="36.7852049" lon="-3.6552859"><ele>442.6</ele><time>2026-03-07T12:04:03.997Z</time></trkpt><trkpt lat="36.785183" lon="-3.6553899"><ele>443.20000000000005</ele><time>2026-03-07T12:04:04.993Z</time></trkpt><trkpt lat="36.7851571" lon="-3.6554952"><ele>443.8</ele><time>2026-03-07T12:04:05.987Z</time></trkpt><trkpt lat="36.7851413" lon="-3.6556023"><ele>444.4</ele><time>2026-03-07T12:04:06.981Z</time></trkpt><trkpt lat="36.7851322" lon="-3.6557149"><ele>445.0</ele><time>2026-03-07T12:04:07.972Z</time></trkpt><trkpt lat="36.7851322" lon="-3.6558377"><ele>447.4</ele><time>2026-03-07T12:04:08.997Z</time></trkpt><trkpt lat="36.7851246" lon="-3.6559549"><ele>449.8</ele><time>2026-03-07T12:04:10.002Z</time></trkpt><trkpt lat="36.7851137" lon="-3.656064"><ele>452.20000000000005</ele><time>2026-03-07T12:04:10.982Z</time></trkpt><trkpt lat="36.785097" lon="-3.6561674"><ele>454.6</ele><time>2026-03-07T12:04:11.992Z</time></trkpt><trkpt lat="36.7850642" lon="-3.6562695"><ele>457.0</ele><time>2026-03-07T12:04:12.982Z</time></trkpt><trkpt lat="36.7849983" lon="-3.6563664"><ele>457.0</ele><time>2026-03-07T12:04:13.987Z</time></trkpt><trkpt lat="36.784931" lon="-3.6564676"><ele>457.00000000000006</ele><time>2026-03-07T12:04:14.983Z</time></trkpt><trkpt lat="36.7848685" lon="-3.6565739"><ele>457.00000000000006</ele><time>2026-03-07T12:04:15.989Z</time></trkpt><trkpt lat="36.7848048" lon="-3.6566849"><ele>457.0</ele><time>2026-03-07T12:04:16.983Z</time></trkpt><trkpt lat="36.7847411" lon="-3.6567914"><ele>457.0</ele><time>2026-03-07T12:04:17.976Z</time></trkpt><trkpt lat="36.7846898" lon="-3.6569039"><ele>453.33333333333337</ele><time>2026-03-07T12:04:19.004Z</time></trkpt><trkpt lat="36.7846499" lon="-3.6570017"><ele>449.6666666666667</ele><time>2026-03-07T12:04:20Z</time></trkpt><trkpt lat="36.784618" lon="-3.6570832"><ele>446.0</ele><time>2026-03-07T12:04:20.996Z</time></trkpt><trkpt lat="36.7845817" lon="-3.6571642"><ele>442.33333333333337</ele><time>2026-03-07T12:04:22.004Z</time></trkpt><trkpt lat="36.7845248" lon="-3.6572485"><ele>438.6666666666667</ele><time>2026-03-07T12:04:22.985Z</time></trkpt><trkpt lat="36.78446" lon="-3.6573333"><ele>435.0</ele><time>2026-03-07T12:04:23.987Z</time></trkpt><trkpt lat="36.7843897" lon="-3.6574087"><ele>438.8333333333333</ele><time>2026-03-07T12:04:24.984Z</time></trkpt><trkpt lat="36.7843158" lon="-3.6574691"><ele>442.66666666666663</ele><time>2026-03-07T12:04:25.991Z</time></trkpt><trkpt lat="36.7842423" lon="-3.6575279"><ele>446.5</ele><time>2026-03-07T12:04:26.988Z</time></trkpt><trkpt lat="36.7841883" lon="-3.6576018"><ele>450.3333333333333</ele><time>2026-03-07T12:04:27.994Z</time></trkpt><trkpt lat="36.7841397" lon="-3.6576668"><ele>454.16666666666663</ele><time>2026-03-07T12:04:28.995Z</time></trkpt><trkpt lat="36.7840871" lon="-3.6577195"><ele>458.0</ele><time>2026-03-07T12:04:29.985Z</time></trkpt><trkpt lat="36.7840111" lon="-3.6577503"><ele>457.99999999999994</ele><time>2026-03-07T12:04:30.997Z</time></trkpt><trkpt lat="36.7839168" lon="-3.6577664"><ele>458.0</ele><time>2026-03-07T12:04:32.011Z</time></trkpt><trkpt lat="36.7838206" lon="-3.6577776"><ele>458.0</ele><time>2026-03-07T12:04:32.985Z</time></trkpt><trkpt lat="36.7837335" lon="-3.6577928"><ele>458.0</ele><time>2026-03-07T12:04:33.996Z</time></trkpt><trkpt lat="36.7836581" lon="-3.6577791"><ele>457.99999999999994</ele><time>2026-03-07T12:04:34.977Z</time></trkpt><trkpt lat="36.7835863" lon="-3.6577317"><ele>458.0</ele><time>2026-03-07T12:04:35.99Z</time></trkpt><trkpt lat="36.7835223" lon="-3.6576699"><ele>453.79999999999995</ele><time>2026-03-07T12:04:36.988Z</time></trkpt><trkpt lat="36.7834859" lon="-3.6575631"><ele>449.59999999999997</ele><time>2026-03-07T12:04:37.993Z</time></trkpt><trkpt lat="36.7834638" lon="-3.6574491"><ele>445.40000000000003</ele><time>2026-03-07T12:04:38.98Z</time></trkpt><trkpt lat="36.7834738" lon="-3.6573363"><ele>441.20000000000005</ele><time>2026-03-07T12:04:39.999Z</time></trkpt><trkpt lat="36.7834757" lon="-3.6572274"><ele>437.0</ele><time>2026-03-07T12:04:41.002Z</time></trkpt><trkpt lat="36.7834467" lon="-3.6571263"><ele>437.0</ele><time>2026-03-07T12:04:42.02Z</time></trkpt><trkpt lat="36.7833968" lon="-3.6570379"><ele>437.00000000000006</ele><time>2026-03-07T12:04:42.991Z</time></trkpt><trkpt lat="36.7833393" lon="-3.6569542"><ele>437.00000000000006</ele><time>2026-03-07T12:04:43.984Z</time></trkpt><trkpt lat="36.783291" lon="-3.6568955"><ele>437.0</ele><time>2026-03-07T12:04:44.991Z</time></trkpt><trkpt lat="36.7832137" lon="-3.6568124"><ele>437.0</ele><time>2026-03-07T12:04:46.995Z</time></trkpt><trkpt lat="36.7831094" lon="-3.6568453"><ele>436.99999999999994</ele><time>2026-03-07T12:04:48.982Z</time></trkpt><trkpt lat="36.7830755" lon="-3.6569177"><ele>437.0</ele><time>2026-03-07T12:04:50Z</time></trkpt><trkpt lat="36.7830498" lon="-3.6570117"><ele>437.0</ele><time>2026-03-07T12:04:50.99Z</time></trkpt><trkpt lat="36.7830308" lon="-3.657108"><ele>437.0</ele><time>2026-03-07T12:04:51.985Z</time></trkpt><trkpt lat="36.7830065" lon="-3.657204"><ele>436.99999999999994</ele><time>2026-03-07T12:04:52.982Z</time></trkpt><trkpt lat="36.7829663" lon="-3.6573024"><ele>437.0</ele><time>2026-03-07T12:04:53.978Z</time></trkpt><trkpt lat="36.7829236" lon="-3.6573858"><ele>437.0</ele><time>2026-03-07T12:04:54.992Z</time></trkpt><trkpt lat="36.7828225" lon="-3.6574382"><ele>437.00000000000006</ele><time>2026-03-07T12:04:56.98Z</time></trkpt><trkpt lat="36.7827221" lon="-3.6574277"><ele>437.00000000000006</ele><time>2026-03-07T12:04:58.987Z</time></trkpt><trkpt lat="36.7826624" lon="-3.6575475"><ele>437.0</ele><time>2026-03-07T12:05:00.988Z</time></trkpt><trkpt lat="36.7826409" lon="-3.6576433"><ele>437.0</ele><time>2026-03-07T12:05:01.992Z</time></trkpt><trkpt lat="36.7826301" lon="-3.6577451"><ele>434.7142857142857</ele><time>2026-03-07T12:05:02.982Z</time></trkpt><trkpt lat="36.7826265" lon="-3.6578367"><ele>432.42857142857144</ele><time>2026-03-07T12:05:03.976Z</time></trkpt><trkpt lat="36.7826225" lon="-3.657923"><ele>430.14285714285717</ele><time>2026-03-07T12:05:04.997Z</time></trkpt><trkpt lat="36.7826018" lon="-3.658011"><ele>427.8571428571429</ele><time>2026-03-07T12:05:06.012Z</time></trkpt><trkpt lat="36.7825581" lon="-3.6580793"><ele>425.57142857142856</ele><time>2026-03-07T12:05:06.99Z</time></trkpt><trkpt lat="36.7824989" lon="-3.6581221"><ele>423.28571428571433</ele><time>2026-03-07T12:05:07.996Z</time></trkpt><trkpt lat="36.7824193" lon="-3.6581376"><ele>421.0</ele><time>2026-03-07T12:05:08.989Z</time></trkpt><trkpt lat="36.7823233" lon="-3.6581463"><ele>421.00000000000006</ele><time>2026-03-07T12:05:09.991Z</time></trkpt><trkpt lat="36.7822312" lon="-3.658168"><ele>421.0</ele><time>2026-03-07T12:05:10.993Z</time></trkpt><trkpt lat="36.7821543" lon="-3.6582005"><ele>421.0</ele><time>2026-03-07T12:05:11.984Z</time></trkpt><trkpt lat="36.7820835" lon="-3.6582457"><ele>421.0</ele><time>2026-03-07T12:05:12.986Z</time></trkpt><trkpt lat="36.7820104" lon="-3.658305"><ele>421.00000000000006</ele><time>2026-03-07T12:05:13.983Z</time></trkpt><trkpt lat="36.7819462" lon="-3.658366"><ele>421.0</ele><time>2026-03-07T12:05:14.984Z</time></trkpt><trkpt lat="36.7818901" lon="-3.6584026"><ele>421.00000000000006</ele><time>2026-03-07T12:05:16.002Z</time></trkpt><trkpt lat="36.7818528" lon="-3.6585175"><ele>421.0</ele><time>2026-03-07T12:05:17.978Z</time></trkpt><trkpt lat="36.781836" lon="-3.6586052"><ele>421.0</ele><time>2026-03-07T12:05:18.98Z</time></trkpt><trkpt lat="36.7818002" lon="-3.6586845"><ele>421.0</ele><time>2026-03-07T12:05:19.968Z</time></trkpt><trkpt lat="36.7817453" lon="-3.6587341"><ele>421.00000000000006</ele><time>2026-03-07T12:05:20.988Z</time></trkpt><trkpt lat="36.7816753" lon="-3.6587639"><ele>421.0</ele><time>2026-03-07T12:05:22Z</time></trkpt><trkpt lat="36.7815912" lon="-3.6588009"><ele>420.33333333333337</ele><time>2026-03-07T12:05:22.988Z</time></trkpt><trkpt lat="36.7815156" lon="-3.6588517"><ele>419.6666666666667</ele><time>2026-03-07T12:05:23.982Z</time></trkpt><trkpt lat="36.7814625" lon="-3.6589205"><ele>419.0</ele><time>2026-03-07T12:05:25.011Z</time></trkpt><trkpt lat="36.7814341" lon="-3.6590117"><ele>418.33333333333337</ele><time>2026-03-07T12:05:25.999Z</time></trkpt><trkpt lat="36.7814242" lon="-3.659107"><ele>417.6666666666667</ele><time>2026-03-07T12:05:26.976Z</time></trkpt><trkpt lat="36.7813835" lon="-3.6591856"><ele>417.0</ele><time>2026-03-07T12:05:28.001Z</time></trkpt><trkpt lat="36.7813161" lon="-3.659244"><ele>417.0</ele><time>2026-03-07T12:05:28.97Z</time></trkpt><trkpt lat="36.7812266" lon="-3.6592589"><ele>417.0</ele><time>2026-03-07T12:05:29.997Z</time></trkpt><trkpt lat="36.7811294" lon="-3.6592674"><ele>417.0</ele><time>2026-03-07T12:05:30.991Z</time></trkpt><trkpt lat="36.7810142" lon="-3.6592618"><ele>417.0</ele><time>2026-03-07T12:05:31.989Z</time></trkpt><trkpt lat="36.7808991" lon="-3.659251"><ele>417.0</ele><time>2026-03-07T12:05:32.978Z</time></trkpt><trkpt lat="36.7808064" lon="-3.6592468"><ele>416.5</ele><time>2026-03-07T12:05:33.975Z</time></trkpt><trkpt lat="36.7807291" lon="-3.6592572"><ele>416.0</ele><time>2026-03-07T12:05:34.976Z</time></trkpt><trkpt lat="36.780659" lon="-3.6593"><ele>415.5</ele><time>2026-03-07T12:05:35.979Z</time></trkpt><trkpt lat="36.7805887" lon="-3.6593656"><ele>415.0</ele><time>2026-03-07T12:05:36.985Z</time></trkpt><trkpt lat="36.7805316" lon="-3.6594482"><ele>414.5</ele><time>2026-03-07T12:05:37.999Z</time></trkpt><trkpt lat="36.7804728" lon="-3.6595284"><ele>414.0</ele><time>2026-03-07T12:05:38.986Z</time></trkpt><trkpt lat="36.780419" lon="-3.6596059"><ele>414.0</ele><time>2026-03-07T12:05:39.982Z</time></trkpt><trkpt lat="36.7803646" lon="-3.6596799"><ele>414.0</ele><time>2026-03-07T12:05:40.987Z</time></trkpt><trkpt lat="36.7803066" lon="-3.6597467"><ele>414.0</ele><time>2026-03-07T12:05:41.997Z</time></trkpt><trkpt lat="36.7802596" lon="-3.6598013"><ele>414.0</ele><time>2026-03-07T12:05:42.998Z</time></trkpt><trkpt lat="36.7801404" lon="-3.6598126"><ele>414.0</ele><time>2026-03-07T12:05:44.988Z</time></trkpt><trkpt lat="36.7800618" lon="-3.6598151"><ele>414.0</ele><time>2026-03-07T12:05:45.986Z</time></trkpt><trkpt lat="36.7799829" lon="-3.6598263"><ele>414.6666666666667</ele><time>2026-03-07T12:05:46.993Z</time></trkpt><trkpt lat="36.779909" lon="-3.6598604"><ele>415.33333333333337</ele><time>2026-03-07T12:05:47.99Z</time></trkpt><trkpt lat="36.7798227" lon="-3.6598957"><ele>416.0</ele><time>2026-03-07T12:05:48.982Z</time></trkpt><trkpt lat="36.7797385" lon="-3.6599419"><ele>416.6666666666667</ele><time>2026-03-07T12:05:50.005Z</time></trkpt><trkpt lat="36.7796528" lon="-3.6599813"><ele>417.33333333333337</ele><time>2026-03-07T12:05:50.993Z</time></trkpt><trkpt lat="36.7795609" lon="-3.6600099"><ele>418.0</ele><time>2026-03-07T12:05:51.98Z</time></trkpt><trkpt lat="36.7794724" lon="-3.6600376"><ele>418.0</ele><time>2026-03-07T12:05:53.008Z</time></trkpt><trkpt lat="36.7793783" lon="-3.6600527"><ele>418.0</ele><time>2026-03-07T12:05:53.994Z</time></trkpt><trkpt lat="36.7792883" lon="-3.6600548"><ele>418.0</ele><time>2026-03-07T12:05:54.983Z</time></trkpt><trkpt lat="36.7792261" lon="-3.6600715"><ele>418.0</ele><time>2026-03-07T12:05:55.972Z</time></trkpt><trkpt lat="36.7791669" lon="-3.660166"><ele>418.0</ele><time>2026-03-07T12:05:57.987Z</time></trkpt><trkpt lat="36.7791834" lon="-3.6603275"><ele>415.50000000000006</ele><time>2026-03-07T12:05:59.996Z</time></trkpt><trkpt lat="36.7792113" lon="-3.6604194"><ele>413.0</ele><time>2026-03-07T12:06:00.979Z</time></trkpt><trkpt lat="36.7792406" lon="-3.6605035"><ele>410.5</ele><time>2026-03-07T12:06:01.993Z</time></trkpt><trkpt lat="36.7792575" lon="-3.6605819"><ele>408.0</ele><time>2026-03-07T12:06:03.002Z</time></trkpt><trkpt lat="36.7792468" lon="-3.6606702"><ele>405.50000000000006</ele><time>2026-03-07T12:06:03.978Z</time></trkpt><trkpt lat="36.7792155" lon="-3.6607689"><ele>403.0</ele><time>2026-03-07T12:06:04.992Z</time></trkpt><trkpt lat="36.7791742" lon="-3.6608726"><ele>403.00000000000006</ele><time>2026-03-07T12:06:05.976Z</time></trkpt><trkpt lat="36.7791109" lon="-3.6609478"><ele>403.0</ele><time>2026-03-07T12:06:06.985Z</time></trkpt><trkpt lat="36.7790432" lon="-3.661026"><ele>403.0</ele><time>2026-03-07T12:06:08.002Z</time></trkpt><trkpt lat="36.7789773" lon="-3.6610876"><ele>403.0</ele><time>2026-03-07T12:06:08.989Z</time></trkpt><trkpt lat="36.7788988" lon="-3.661127"><ele>403.00000000000006</ele><time>2026-03-07T12:06:09.988Z</time></trkpt><trkpt lat="36.778822" lon="-3.6611719"><ele>403.0</ele><time>2026-03-07T12:06:10.986Z</time></trkpt><trkpt lat="36.7787485" lon="-3.661231"><ele>402.4</ele><time>2026-03-07T12:06:11.998Z</time></trkpt><trkpt lat="36.7786862" lon="-3.6613218"><ele>401.79999999999995</ele><time>2026-03-07T12:06:12.982Z</time></trkpt><trkpt lat="36.7786206" lon="-3.6614141"><ele>401.2</ele><time>2026-03-07T12:06:13.989Z</time></trkpt><trkpt lat="36.7785454" lon="-3.6614904"><ele>400.6</ele><time>2026-03-07T12:06:14.984Z</time></trkpt><trkpt lat="36.7784754" lon="-3.6615759"><ele>400.0</ele><time>2026-03-07T12:06:15.991Z</time></trkpt><trkpt lat="36.7783973" lon="-3.6616621"><ele>400.0</ele><time>2026-03-07T12:06:16.985Z</time></trkpt><trkpt lat="36.7783177" lon="-3.6617407"><ele>400.0</ele><time>2026-03-07T12:06:17.978Z</time></trkpt><trkpt lat="36.7782434" lon="-3.6618066"><ele>400.0</ele><time>2026-03-07T12:06:18.975Z</time></trkpt><trkpt lat="36.7781584" lon="-3.6618318"><ele>400.0</ele><time>2026-03-07T12:06:19.973Z</time></trkpt><trkpt lat="36.7780638" lon="-3.6618443"><ele>400.0</ele><time>2026-03-07T12:06:20.984Z</time></trkpt><trkpt lat="36.7779694" lon="-3.6618811"><ele>400.0</ele><time>2026-03-07T12:06:22.03Z</time></trkpt><trkpt lat="36.7778751" lon="-3.661921"><ele>400.0</ele><time>2026-03-07T12:06:22.991Z</time></trkpt><trkpt lat="36.7777813" lon="-3.6619613"><ele>400.0</ele><time>2026-03-07T12:06:23.986Z</time></trkpt><trkpt lat="36.7776811" lon="-3.6619875"><ele>400.0</ele><time>2026-03-07T12:06:24.978Z</time></trkpt><trkpt lat="36.7775791" lon="-3.6620037"><ele>400.0</ele><time>2026-03-07T12:06:26.004Z</time></trkpt><trkpt lat="36.7774835" lon="-3.6620036"><ele>400.6666666666667</ele><time>2026-03-07T12:06:26.986Z</time></trkpt><trkpt lat="36.7773933" lon="-3.6619977"><ele>401.33333333333337</ele><time>2026-03-07T12:06:27.991Z</time></trkpt><trkpt lat="36.7773044" lon="-3.6619939"><ele>402.0</ele><time>2026-03-07T12:06:28.994Z</time></trkpt><trkpt lat="36.7772168" lon="-3.6619898"><ele>402.66666666666663</ele><time>2026-03-07T12:06:29.989Z</time></trkpt><trkpt lat="36.7771369" lon="-3.6619979"><ele>403.3333333333333</ele><time>2026-03-07T12:06:30.991Z</time></trkpt><trkpt lat="36.7770763" lon="-3.6620336"><ele>404.0</ele><time>2026-03-07T12:06:31.983Z</time></trkpt><trkpt lat="36.7770293" lon="-3.6621342"><ele>404.0</ele><time>2026-03-07T12:06:33.988Z</time></trkpt><trkpt lat="36.7770488" lon="-3.662217"><ele>404.0</ele><time>2026-03-07T12:06:34.976Z</time></trkpt><trkpt lat="36.777068" lon="-3.66233"><ele>404.0</ele><time>2026-03-07T12:06:35.978Z</time></trkpt><trkpt lat="36.7770718" lon="-3.6624576"><ele>404.0</ele><time>2026-03-07T12:06:36.975Z</time></trkpt><trkpt lat="36.7770855" lon="-3.662591"><ele>404.0</ele><time>2026-03-07T12:06:37.985Z</time></trkpt><trkpt lat="36.7771007" lon="-3.6627119"><ele>401.99999999999994</ele><time>2026-03-07T12:06:38.983Z</time></trkpt><trkpt lat="36.7771105" lon="-3.6628274"><ele>400.0</ele><time>2026-03-07T12:06:39.98Z</time></trkpt><trkpt lat="36.7771007" lon="-3.6629308"><ele>398.0</ele><time>2026-03-07T12:06:40.984Z</time></trkpt><trkpt lat="36.7770731" lon="-3.6630282"><ele>396.0</ele><time>2026-03-07T12:06:41.982Z</time></trkpt><trkpt lat="36.777022" lon="-3.6631247"><ele>393.99999999999994</ele><time>2026-03-07T12:06:42.978Z</time></trkpt><trkpt lat="36.7769703" lon="-3.6632058"><ele>392.0</ele><time>2026-03-07T12:06:43.977Z</time></trkpt><trkpt lat="36.7769368" lon="-3.6633431"><ele>391.99999999999994</ele><time>2026-03-07T12:06:45.979Z</time></trkpt><trkpt lat="36.7769629" lon="-3.6634858"><ele>392.0</ele><time>2026-03-07T12:06:47.987Z</time></trkpt><trkpt lat="36.7769981" lon="-3.66357"><ele>392.0</ele><time>2026-03-07T12:06:48.983Z</time></trkpt><trkpt lat="36.7770339" lon="-3.663662"><ele>392.0</ele><time>2026-03-07T12:06:49.999Z</time></trkpt><trkpt lat="36.7770735" lon="-3.6637435"><ele>391.99999999999994</ele><time>2026-03-07T12:06:50.983Z</time></trkpt><trkpt lat="36.7771152" lon="-3.6638225"><ele>392.0</ele><time>2026-03-07T12:06:51.986Z</time></trkpt><trkpt lat="36.7771478" lon="-3.6638967"><ele>389.3333333333333</ele><time>2026-03-07T12:06:52.996Z</time></trkpt><trkpt lat="36.7771662" lon="-3.6639863"><ele>386.66666666666663</ele><time>2026-03-07T12:06:53.978Z</time></trkpt><trkpt lat="36.7771595" lon="-3.6640859"><ele>384.0</ele><time>2026-03-07T12:06:54.998Z</time></trkpt><trkpt lat="36.7771378" lon="-3.6642059"><ele>381.3333333333333</ele><time>2026-03-07T12:06:55.981Z</time></trkpt><trkpt lat="36.7771266" lon="-3.6643089"><ele>378.66666666666663</ele><time>2026-03-07T12:06:56.991Z</time></trkpt><trkpt lat="36.7771078" lon="-3.6643975"><ele>376.0</ele><time>2026-03-07T12:06:57.979Z</time></trkpt><trkpt lat="36.7770786" lon="-3.6644739"><ele>376.16666666666663</ele><time>2026-03-07T12:06:58.989Z</time></trkpt><trkpt lat="36.7770164" lon="-3.6645342"><ele>376.3333333333333</ele><time>2026-03-07T12:06:59.99Z</time></trkpt><trkpt lat="36.7769384" lon="-3.6645731"><ele>376.5</ele><time>2026-03-07T12:07:00.982Z</time></trkpt><trkpt lat="36.7768722" lon="-3.6646227"><ele>376.6666666666667</ele><time>2026-03-07T12:07:01.991Z</time></trkpt><trkpt lat="36.7768264" lon="-3.6646821"><ele>376.83333333333337</ele><time>2026-03-07T12:07:02.991Z</time></trkpt><trkpt lat="36.7767491" lon="-3.6648117"><ele>377.0</ele><time>2026-03-07T12:07:04.998Z</time></trkpt><trkpt lat="36.7766893" lon="-3.6648911"><ele>377.0</ele><time>2026-03-07T12:07:05.99Z</time></trkpt><trkpt lat="36.7766226" lon="-3.6649783"><ele>377.0</ele><time>2026-03-07T12:07:06.996Z</time></trkpt><trkpt lat="36.7765534" lon="-3.6650664"><ele>377.0</ele><time>2026-03-07T12:07:07.999Z</time></trkpt><trkpt lat="36.7764907" lon="-3.6651515"><ele>377.0</ele><time>2026-03-07T12:07:08.996Z</time></trkpt><trkpt lat="36.7764375" lon="-3.6652303"><ele>377.0</ele><time>2026-03-07T12:07:09.992Z</time></trkpt><trkpt lat="36.7763838" lon="-3.6653014"><ele>377.0</ele><time>2026-03-07T12:07:10.984Z</time></trkpt><trkpt lat="36.7763312" lon="-3.6653797"><ele>375.20000000000005</ele><time>2026-03-07T12:07:11.993Z</time></trkpt><trkpt lat="36.7762789" lon="-3.665462"><ele>373.4</ele><time>2026-03-07T12:07:12.986Z</time></trkpt><trkpt lat="36.7762505" lon="-3.6655637"><ele>371.6</ele><time>2026-03-07T12:07:14.009Z</time></trkpt><trkpt lat="36.7762381" lon="-3.6656869"><ele>369.79999999999995</ele><time>2026-03-07T12:07:14.996Z</time></trkpt><trkpt lat="36.7762318" lon="-3.6658407"><ele>368.0</ele><time>2026-03-07T12:07:15.997Z</time></trkpt><trkpt lat="36.7762339" lon="-3.6659854"><ele>367.2</ele><time>2026-03-07T12:07:16.985Z</time></trkpt><trkpt lat="36.7762335" lon="-3.6661129"><ele>366.4</ele><time>2026-03-07T12:07:17.987Z</time></trkpt><trkpt lat="36.7762106" lon="-3.6662255"><ele>365.59999999999997</ele><time>2026-03-07T12:07:19Z</time></trkpt><trkpt lat="36.7761783" lon="-3.6663374"><ele>364.79999999999995</ele><time>2026-03-07T12:07:20.027Z</time></trkpt><trkpt lat="36.7761373" lon="-3.6664444"><ele>364.0</ele><time>2026-03-07T12:07:21.006Z</time></trkpt><trkpt lat="36.7761009" lon="-3.6665449"><ele>364.0</ele><time>2026-03-07T12:07:22.009Z</time></trkpt><trkpt lat="36.7760661" lon="-3.6666425"><ele>364.0</ele><time>2026-03-07T12:07:22.972Z</time></trkpt><trkpt lat="36.7760258" lon="-3.6667428"><ele>364.0</ele><time>2026-03-07T12:07:23.975Z</time></trkpt><trkpt lat="36.7759852" lon="-3.6668434"><ele>364.0</ele><time>2026-03-07T12:07:24.988Z</time></trkpt><trkpt lat="36.775949" lon="-3.666932"><ele>364.0</ele><time>2026-03-07T12:07:25.987Z</time></trkpt><trkpt lat="36.7759096" lon="-3.6669997"><ele>364.0</ele><time>2026-03-07T12:07:26.98Z</time></trkpt><trkpt lat="36.7758207" lon="-3.6670924"><ele>368.16666666666663</ele><time>2026-03-07T12:07:28.994Z</time></trkpt><trkpt lat="36.7757634" lon="-3.6671257"><ele>372.3333333333333</ele><time>2026-03-07T12:07:30.004Z</time></trkpt><trkpt lat="36.7756793" lon="-3.6672008"><ele>376.5</ele><time>2026-03-07T12:07:32Z</time></trkpt><trkpt lat="36.7756419" lon="-3.6673165"><ele>380.66666666666663</ele><time>2026-03-07T12:07:34.018Z</time></trkpt><trkpt lat="36.775629" lon="-3.6674119"><ele>384.8333333333333</ele><time>2026-03-07T12:07:34.997Z</time></trkpt><trkpt lat="36.7756166" lon="-3.6675358"><ele>389.0</ele><time>2026-03-07T12:07:35.989Z</time></trkpt><trkpt lat="36.7755956" lon="-3.6676334"><ele>388.99999999999994</ele><time>2026-03-07T12:07:36.987Z</time></trkpt><trkpt lat="36.7755768" lon="-3.6677176"><ele>389.0</ele><time>2026-03-07T12:07:38.003Z</time></trkpt><trkpt lat="36.7755775" lon="-3.6678129"><ele>389.0</ele><time>2026-03-07T12:07:38.987Z</time></trkpt><trkpt lat="36.7756221" lon="-3.6679606"><ele>389.0</ele><time>2026-03-07T12:07:41.005Z</time></trkpt><trkpt lat="36.7756314" lon="-3.6680526"><ele>388.99999999999994</ele><time>2026-03-07T12:07:42.001Z</time></trkpt><trkpt lat="36.7756066" lon="-3.6681541"><ele>389.0</ele><time>2026-03-07T12:07:42.998Z</time></trkpt><trkpt lat="36.7755615" lon="-3.6682675"><ele>389.4</ele><time>2026-03-07T12:07:43.988Z</time></trkpt><trkpt lat="36.7755128" lon="-3.6683897"><ele>389.79999999999995</ele><time>2026-03-07T12:07:44.978Z</time></trkpt><trkpt lat="36.7754633" lon="-3.6685039"><ele>390.20000000000005</ele><time>2026-03-07T12:07:45.988Z</time></trkpt><trkpt lat="36.7754052" lon="-3.6685941"><ele>390.6</ele><time>2026-03-07T12:07:46.993Z</time></trkpt><trkpt lat="36.7753278" lon="-3.6686592"><ele>391.0</ele><time>2026-03-07T12:07:48.001Z</time></trkpt><trkpt lat="36.7752272" lon="-3.6687024"><ele>389.6</ele><time>2026-03-07T12:07:49.008Z</time></trkpt><trkpt lat="36.7751295" lon="-3.6687473"><ele>388.20000000000005</ele><time>2026-03-07T12:07:50.014Z</time></trkpt><trkpt lat="36.775045" lon="-3.6688005"><ele>386.79999999999995</ele><time>2026-03-07T12:07:50.997Z</time></trkpt><trkpt lat="36.7749707" lon="-3.6688778"><ele>385.4</ele><time>2026-03-07T12:07:51.981Z</time></trkpt><trkpt lat="36.774903" lon="-3.6689729"><ele>384.0</ele><time>2026-03-07T12:07:52.997Z</time></trkpt><trkpt lat="36.7748367" lon="-3.6690641"><ele>383.99999999999994</ele><time>2026-03-07T12:07:53.996Z</time></trkpt><trkpt lat="36.7747851" lon="-3.6691343"><ele>384.0</ele><time>2026-03-07T12:07:54.999Z</time></trkpt><trkpt lat="36.7747223" lon="-3.6691805"><ele>384.0</ele><time>2026-03-07T12:07:55.995Z</time></trkpt><trkpt lat="36.7746437" lon="-3.6692071"><ele>384.0</ele><time>2026-03-07T12:07:56.99Z</time></trkpt><trkpt lat="36.7745707" lon="-3.6692316"><ele>384.0</ele><time>2026-03-07T12:07:57.986Z</time></trkpt><trkpt lat="36.7745048" lon="-3.6692599"><ele>383.99999999999994</ele><time>2026-03-07T12:07:58.989Z</time></trkpt><trkpt lat="36.7744439" lon="-3.6692953"><ele>384.0</ele><time>2026-03-07T12:07:59.999Z</time></trkpt><trkpt lat="36.774384" lon="-3.6693282"><ele>382.0</ele><time>2026-03-07T12:08:01.008Z</time></trkpt><trkpt lat="36.774319" lon="-3.6693582"><ele>380.0</ele><time>2026-03-07T12:08:01.997Z</time></trkpt><trkpt lat="36.7742527" lon="-3.6693982"><ele>378.0</ele><time>2026-03-07T12:08:03.015Z</time></trkpt><trkpt lat="36.7741718" lon="-3.6694412"><ele>376.0</ele><time>2026-03-07T12:08:03.989Z</time></trkpt><trkpt lat="36.7740787" lon="-3.6694906"><ele>374.0</ele><time>2026-03-07T12:08:05.007Z</time></trkpt><trkpt lat="36.7739827" lon="-3.6695412"><ele>372.0</ele><time>2026-03-07T12:08:05.994Z</time></trkpt><trkpt lat="36.7738904" lon="-3.6695844"><ele>370.3333333333333</ele><time>2026-03-07T12:08:06.985Z</time></trkpt><trkpt lat="36.7738064" lon="-3.6696239"><ele>368.6666666666667</ele><time>2026-03-07T12:08:07.986Z</time></trkpt><trkpt lat="36.773727" lon="-3.6696661"><ele>367.0</ele><time>2026-03-07T12:08:08.98Z</time></trkpt><trkpt lat="36.7736546" lon="-3.6697065"><ele>365.33333333333337</ele><time>2026-03-07T12:08:09.985Z</time></trkpt><trkpt lat="36.7735813" lon="-3.6697382"><ele>363.6666666666667</ele><time>2026-03-07T12:08:11.004Z</time></trkpt><trkpt lat="36.7735085" lon="-3.6697888"><ele>362.0</ele><time>2026-03-07T12:08:12.001Z</time></trkpt><trkpt lat="36.7734268" lon="-3.6698445"><ele>362.0</ele><time>2026-03-07T12:08:12.973Z</time></trkpt><trkpt lat="36.7733373" lon="-3.6698919"><ele>362.0</ele><time>2026-03-07T12:08:14.023Z</time></trkpt><trkpt lat="36.7732435" lon="-3.6699379"><ele>362.0</ele><time>2026-03-07T12:08:14.999Z</time></trkpt><trkpt lat="36.7731472" lon="-3.6699713"><ele>362.0</ele><time>2026-03-07T12:08:16.01Z</time></trkpt><trkpt lat="36.7730584" lon="-3.6700044"><ele>362.0</ele><time>2026-03-07T12:08:16.996Z</time></trkpt><trkpt lat="36.7729819" lon="-3.6700192"><ele>362.0</ele><time>2026-03-07T12:08:18.002Z</time></trkpt><trkpt lat="36.7729127" lon="-3.6700329"><ele>362.0</ele><time>2026-03-07T12:08:19.012Z</time></trkpt><trkpt lat="36.7728485" lon="-3.6700387"><ele>362.0</ele><time>2026-03-07T12:08:20.01Z</time></trkpt><trkpt lat="36.7727777" lon="-3.670024"><ele>362.0</ele><time>2026-03-07T12:08:21.009Z</time></trkpt><trkpt lat="36.7726982" lon="-3.6699964"><ele>362.0</ele><time>2026-03-07T12:08:22.01Z</time></trkpt><trkpt lat="36.7726168" lon="-3.6699746"><ele>362.0</ele><time>2026-03-07T12:08:23.013Z</time></trkpt><trkpt lat="36.7725387" lon="-3.6699503"><ele>363.0</ele><time>2026-03-07T12:08:24.021Z</time></trkpt><trkpt lat="36.7724665" lon="-3.6699454"><ele>364.0</ele><time>2026-03-07T12:08:25.028Z</time></trkpt><trkpt lat="36.7723904" lon="-3.6699488"><ele>365.0</ele><time>2026-03-07T12:08:26.006Z</time></trkpt><trkpt lat="36.7723151" lon="-3.6699563"><ele>366.0</ele><time>2026-03-07T12:08:26.984Z</time></trkpt><trkpt lat="36.7722389" lon="-3.6699705"><ele>367.0</ele><time>2026-03-07T12:08:28.011Z</time></trkpt><trkpt lat="36.7721556" lon="-3.6699807"><ele>368.0</ele><time>2026-03-07T12:08:29.028Z</time></trkpt><trkpt lat="36.7720806" lon="-3.67001"><ele>368.0</ele><time>2026-03-07T12:08:30.018Z</time></trkpt><trkpt lat="36.7720301" lon="-3.670062"><ele>368.0</ele><time>2026-03-07T12:08:31.013Z</time></trkpt><trkpt lat="36.7719475" lon="-3.6701731"><ele>368.0</ele><time>2026-03-07T12:08:33.002Z</time></trkpt><trkpt lat="36.7719049" lon="-3.6702526"><ele>368.0</ele><time>2026-03-07T12:08:33.996Z</time></trkpt><trkpt lat="36.7718566" lon="-3.6703456"><ele>368.0</ele><time>2026-03-07T12:08:35.021Z</time></trkpt><trkpt lat="36.7717976" lon="-3.6704371"><ele>368.0</ele><time>2026-03-07T12:08:36.02Z</time></trkpt><trkpt lat="36.7717328" lon="-3.6705199"><ele>368.0</ele><time>2026-03-07T12:08:37.012Z</time></trkpt><trkpt lat="36.7716691" lon="-3.6705857"><ele>368.0</ele><time>2026-03-07T12:08:38Z</time></trkpt><trkpt lat="36.7716068" lon="-3.6706376"><ele>368.0</ele><time>2026-03-07T12:08:38.987Z</time></trkpt><trkpt lat="36.7715472" lon="-3.6706791"><ele>368.0</ele><time>2026-03-07T12:08:40.057Z</time></trkpt><trkpt lat="36.7714553" lon="-3.6707533"><ele>368.0</ele><time>2026-03-07T12:08:42.016Z</time></trkpt><trkpt lat="36.7713526" lon="-3.6708315"><ele>368.0</ele><time>2026-03-07T12:08:43.996Z</time></trkpt><trkpt lat="36.77129" lon="-3.6708804"><ele>368.0</ele><time>2026-03-07T12:08:44.971Z</time></trkpt><trkpt lat="36.7712228" lon="-3.6709309"><ele>368.0</ele><time>2026-03-07T12:08:45.986Z</time></trkpt><trkpt lat="36.7711646" lon="-3.6709877"><ele>368.0</ele><time>2026-03-07T12:08:47.025Z</time></trkpt><trkpt lat="36.7711094" lon="-3.6710585"><ele>368.0</ele><time>2026-03-07T12:08:48.001Z</time></trkpt><trkpt lat="36.7710537" lon="-3.6711212"><ele>368.0</ele><time>2026-03-07T12:08:49.006Z</time></trkpt><trkpt lat="36.7710009" lon="-3.6711884"><ele>364.0</ele><time>2026-03-07T12:08:50.041Z</time></trkpt><trkpt lat="36.7709595" lon="-3.6712644"><ele>360.0</ele><time>2026-03-07T12:08:51.018Z</time></trkpt><trkpt lat="36.7709058" lon="-3.6713312"><ele>356.0</ele><time>2026-03-07T12:08:52.025Z</time></trkpt><trkpt lat="36.7708548" lon="-3.6714151"><ele>352.0</ele><time>2026-03-07T12:08:52.998Z</time></trkpt><trkpt lat="36.7707894" lon="-3.6714896"><ele>348.0</ele><time>2026-03-07T12:08:53.997Z</time></trkpt><trkpt lat="36.77072" lon="-3.6715576"><ele>344.0</ele><time>2026-03-07T12:08:55.002Z</time></trkpt><trkpt lat="36.7706394" lon="-3.6716078"><ele>344.0</ele><time>2026-03-07T12:08:56.001Z</time></trkpt><trkpt lat="36.770556" lon="-3.6716585"><ele>344.0</ele><time>2026-03-07T12:08:57.018Z</time></trkpt><trkpt lat="36.7704761" lon="-3.6717165"><ele>344.0</ele><time>2026-03-07T12:08:58.011Z</time></trkpt><trkpt lat="36.7704006" lon="-3.6717797"><ele>344.0</ele><time>2026-03-07T12:08:58.998Z</time></trkpt><trkpt lat="36.7703327" lon="-3.6718324"><ele>344.0</ele><time>2026-03-07T12:09:00.015Z</time></trkpt><trkpt lat="36.770273" lon="-3.6718789"><ele>344.0</ele><time>2026-03-07T12:09:01.017Z</time></trkpt><trkpt lat="36.7701608" lon="-3.6719674"><ele>341.1666666666667</ele><time>2026-03-07T12:09:03.008Z</time></trkpt><trkpt lat="36.7700881" lon="-3.6719966"><ele>338.33333333333337</ele><time>2026-03-07T12:09:04.001Z</time></trkpt><trkpt lat="36.770014" lon="-3.6720213"><ele>335.5</ele><time>2026-03-07T12:09:05.002Z</time></trkpt><trkpt lat="36.7699264" lon="-3.6720548"><ele>332.6666666666667</ele><time>2026-03-07T12:09:06.013Z</time></trkpt><trkpt lat="36.7698425" lon="-3.6720981"><ele>329.8333333333333</ele><time>2026-03-07T12:09:07.011Z</time></trkpt><trkpt lat="36.769758" lon="-3.6721341"><ele>327.0</ele><time>2026-03-07T12:09:08.014Z</time></trkpt><trkpt lat="36.7696687" lon="-3.6721726"><ele>327.0</ele><time>2026-03-07T12:09:09.006Z</time></trkpt><trkpt lat="36.769582" lon="-3.6722103"><ele>327.0</ele><time>2026-03-07T12:09:10.014Z</time></trkpt><trkpt lat="36.7694937" lon="-3.6722333"><ele>327.0</ele><time>2026-03-07T12:09:11.004Z</time></trkpt><trkpt lat="36.7694186" lon="-3.6722697"><ele>327.0</ele><time>2026-03-07T12:09:12.012Z</time></trkpt><trkpt lat="36.7693561" lon="-3.6723018"><ele>327.0</ele><time>2026-03-07T12:09:13.011Z</time></trkpt><trkpt lat="36.7692781" lon="-3.6723631"><ele>327.0</ele><time>2026-03-07T12:09:15.011Z</time></trkpt><trkpt lat="36.7692757" lon="-3.6724667"><ele>327.0</ele><time>2026-03-07T12:09:18.033Z</time></trkpt><trkpt lat="36.7693502" lon="-3.6724948"><ele>327.0</ele><time>2026-03-07T12:09:20.006Z</time></trkpt><trkpt lat="36.7694167" lon="-3.6724779"><ele>327.0</ele><time>2026-03-07T12:09:21.007Z</time></trkpt><trkpt lat="36.7694947" lon="-3.6724447"><ele>327.0</ele><time>2026-03-07T12:09:22.008Z</time></trkpt><trkpt lat="36.7695835" lon="-3.6724066"><ele>327.0</ele><time>2026-03-07T12:09:23.016Z</time></trkpt><trkpt lat="36.7696693" lon="-3.6723765"><ele>327.0</ele><time>2026-03-07T12:09:23.995Z</time></trkpt><trkpt lat="36.7697502" lon="-3.6723578"><ele>327.0</ele><time>2026-03-07T12:09:25.011Z</time></trkpt><trkpt lat="36.7698422" lon="-3.6723425"><ele>327.0</ele><time>2026-03-07T12:09:26.015Z</time></trkpt><trkpt lat="36.7699296" lon="-3.6723324"><ele>327.0</ele><time>2026-03-07T12:09:27.002Z</time></trkpt><trkpt lat="36.7700128" lon="-3.6723252"><ele>327.0</ele><time>2026-03-07T12:09:27.985Z</time></trkpt><trkpt lat="36.7700978" lon="-3.6723148"><ele>327.0</ele><time>2026-03-07T12:09:29.001Z</time></trkpt><trkpt lat="36.7701755" lon="-3.6723097"><ele>327.0</ele><time>2026-03-07T12:09:30.02Z</time></trkpt><trkpt lat="36.7702509" lon="-3.6723235"><ele>325.0</ele><time>2026-03-07T12:09:31.022Z</time></trkpt><trkpt lat="36.7703216" lon="-3.6723483"><ele>323.0</ele><time>2026-03-07T12:09:31.989Z</time></trkpt><trkpt lat="36.7703916" lon="-3.6723705"><ele>321.0</ele><time>2026-03-07T12:09:33.041Z</time></trkpt><trkpt lat="36.7704578" lon="-3.6723839"><ele>319.0</ele><time>2026-03-07T12:09:33.999Z</time></trkpt><trkpt lat="36.7705671" lon="-3.6723982"><ele>317.0</ele><time>2026-03-07T12:09:36.014Z</time></trkpt><trkpt lat="36.7706545" lon="-3.6724375"><ele>315.0</ele><time>2026-03-07T12:09:38.023Z</time></trkpt><trkpt lat="36.7706901" lon="-3.672545"><ele>315.0</ele><time>2026-03-07T12:09:41.017Z</time></trkpt><trkpt lat="36.7705912" lon="-3.6726218"><ele>315.0</ele><time>2026-03-07T12:09:42.991Z</time></trkpt><trkpt lat="36.770504" lon="-3.6726088"><ele>315.0</ele><time>2026-03-07T12:09:44.048Z</time></trkpt><trkpt lat="36.7704001" lon="-3.6725913"><ele>315.0</ele><time>2026-03-07T12:09:44.998Z</time></trkpt><trkpt lat="36.7703033" lon="-3.6725731"><ele>315.0</ele><time>2026-03-07T12:09:46.014Z</time></trkpt><trkpt lat="36.7702116" lon="-3.6725683"><ele>317.0</ele><time>2026-03-07T12:09:47.014Z</time></trkpt><trkpt lat="36.770125" lon="-3.6725857"><ele>319.0</ele><time>2026-03-07T12:09:48.009Z</time></trkpt><trkpt lat="36.7700437" lon="-3.6726133"><ele>321.0</ele><time>2026-03-07T12:09:49.01Z</time></trkpt><trkpt lat="36.7699716" lon="-3.6726551"><ele>323.0</ele><time>2026-03-07T12:09:50.001Z</time></trkpt><trkpt lat="36.7699056" lon="-3.6726979"><ele>325.0</ele><time>2026-03-07T12:09:50.998Z</time></trkpt><trkpt lat="36.7698509" lon="-3.6727577"><ele>327.0</ele><time>2026-03-07T12:09:51.996Z</time></trkpt><trkpt lat="36.769789" lon="-3.6728198"><ele>323.0</ele><time>2026-03-07T12:09:52.997Z</time></trkpt><trkpt lat="36.7697272" lon="-3.6728866"><ele>319.0</ele><time>2026-03-07T12:09:53.994Z</time></trkpt><trkpt lat="36.7696688" lon="-3.6729523"><ele>315.0</ele><time>2026-03-07T12:09:55.009Z</time></trkpt><trkpt lat="36.7696106" lon="-3.6730166"><ele>311.0</ele><time>2026-03-07T12:09:56.018Z</time></trkpt><trkpt lat="36.7695646" lon="-3.6730767"><ele>307.0</ele><time>2026-03-07T12:09:57.021Z</time></trkpt><trkpt lat="36.7695219" lon="-3.6731385"><ele>303.0</ele><time>2026-03-07T12:09:58.018Z</time></trkpt><trkpt lat="36.7694853" lon="-3.6732035"><ele>299.0</ele><time>2026-03-07T12:09:58.99Z</time></trkpt><trkpt lat="36.7694493" lon="-3.6732754"><ele>299.0</ele><time>2026-03-07T12:09:59.997Z</time></trkpt><trkpt lat="36.7694072" lon="-3.6733515"><ele>299.0</ele><time>2026-03-07T12:10:01.007Z</time></trkpt><trkpt lat="36.7693607" lon="-3.673437"><ele>299.0</ele><time>2026-03-07T12:10:02.002Z</time></trkpt><trkpt lat="36.7693149" lon="-3.6735228"><ele>299.0</ele><time>2026-03-07T12:10:03.008Z</time></trkpt><trkpt lat="36.7692676" lon="-3.6736135"><ele>299.0</ele><time>2026-03-07T12:10:04.027Z</time></trkpt><trkpt lat="36.7692213" lon="-3.6736984"><ele>299.0</ele><time>2026-03-07T12:10:05.024Z</time></trkpt><trkpt lat="36.7691732" lon="-3.6737656"><ele>297.2</ele><time>2026-03-07T12:10:06.058Z</time></trkpt><trkpt lat="36.7690532" lon="-3.6738535"><ele>295.4</ele><time>2026-03-07T12:10:08.02Z</time></trkpt><trkpt lat="36.7689759" lon="-3.6739093"><ele>293.6</ele><time>2026-03-07T12:10:09.021Z</time></trkpt><trkpt lat="36.7689034" lon="-3.6739787"><ele>291.8</ele><time>2026-03-07T12:10:10Z</time></trkpt><trkpt lat="36.7688445" lon="-3.6740411"><ele>290.0</ele><time>2026-03-07T12:10:10.987Z</time></trkpt><trkpt lat="36.7687486" lon="-3.6740744"><ele>290.0</ele><time>2026-03-07T12:10:13.002Z</time></trkpt><trkpt lat="36.7686878" lon="-3.6740344"><ele>290.0</ele><time>2026-03-07T12:10:13.99Z</time></trkpt><trkpt lat="36.7686135" lon="-3.6739931"><ele>290.0</ele><time>2026-03-07T12:10:15.012Z</time></trkpt><trkpt lat="36.7685291" lon="-3.6739602"><ele>290.0</ele><time>2026-03-07T12:10:16.015Z</time></trkpt><trkpt lat="36.7684385" lon="-3.6739692"><ele>290.0</ele><time>2026-03-07T12:10:17.008Z</time></trkpt><trkpt lat="36.7683535" lon="-3.6739978"><ele>290.0</ele><time>2026-03-07T12:10:18.033Z</time></trkpt><trkpt lat="36.7682762" lon="-3.6740326"><ele>289.83333333333337</ele><time>2026-03-07T12:10:18.994Z</time></trkpt><trkpt lat="36.7682035" lon="-3.674073"><ele>289.6666666666667</ele><time>2026-03-07T12:10:20.011Z</time></trkpt><trkpt lat="36.7681259" lon="-3.6741054"><ele>289.5</ele><time>2026-03-07T12:10:20.98Z</time></trkpt><trkpt lat="36.7680412" lon="-3.6741314"><ele>289.3333333333333</ele><time>2026-03-07T12:10:22.019Z</time></trkpt><trkpt lat="36.7679578" lon="-3.6741488"><ele>289.16666666666663</ele><time>2026-03-07T12:10:22.992Z</time></trkpt><trkpt lat="36.7678855" lon="-3.6741798"><ele>289.0</ele><time>2026-03-07T12:10:24.005Z</time></trkpt><trkpt lat="36.7678115" lon="-3.6742075"><ele>289.0</ele><time>2026-03-07T12:10:25.002Z</time></trkpt><trkpt lat="36.7677411" lon="-3.6742191"><ele>289.0</ele><time>2026-03-07T12:10:25.993Z</time></trkpt><trkpt lat="36.7676721" lon="-3.6742203"><ele>289.0</ele><time>2026-03-07T12:10:26.985Z</time></trkpt><trkpt lat="36.7676126" lon="-3.6741886"><ele>289.0</ele><time>2026-03-07T12:10:27.98Z</time></trkpt><trkpt lat="36.7675102" lon="-3.6741607"><ele>289.0</ele><time>2026-03-07T12:10:29.996Z</time></trkpt><trkpt lat="36.7673872" lon="-3.674211"><ele>289.0</ele><time>2026-03-07T12:10:31.977Z</time></trkpt><trkpt lat="36.7673121" lon="-3.6742837"><ele>287.14285714285717</ele><time>2026-03-07T12:10:32.984Z</time></trkpt><trkpt lat="36.7672438" lon="-3.67434"><ele>285.2857142857143</ele><time>2026-03-07T12:10:34.052Z</time></trkpt><trkpt lat="36.7671676" lon="-3.67435"><ele>283.42857142857144</ele><time>2026-03-07T12:10:34.994Z</time></trkpt><trkpt lat="36.767094" lon="-3.6743457"><ele>281.57142857142856</ele><time>2026-03-07T12:10:35.992Z</time></trkpt><trkpt lat="36.7670184" lon="-3.67434"><ele>279.7142857142857</ele><time>2026-03-07T12:10:36.997Z</time></trkpt><trkpt lat="36.76695" lon="-3.6743463"><ele>277.8571428571429</ele><time>2026-03-07T12:10:37.989Z</time></trkpt><trkpt lat="36.7668903" lon="-3.6743729"><ele>276.0</ele><time>2026-03-07T12:10:39.005Z</time></trkpt><trkpt lat="36.7668413" lon="-3.6744426"><ele>274.2</ele><time>2026-03-07T12:10:39.996Z</time></trkpt><trkpt lat="36.7668023" lon="-3.6745436"><ele>272.40000000000003</ele><time>2026-03-07T12:10:40.994Z</time></trkpt><trkpt lat="36.7667684" lon="-3.6746526"><ele>270.6</ele><time>2026-03-07T12:10:41.985Z</time></trkpt><trkpt lat="36.7667294" lon="-3.674754"><ele>268.8</ele><time>2026-03-07T12:10:42.997Z</time></trkpt><trkpt lat="36.7666971" lon="-3.674861"><ele>267.0</ele><time>2026-03-07T12:10:43.999Z</time></trkpt><trkpt lat="36.7666683" lon="-3.6749669"><ele>267.0</ele><time>2026-03-07T12:10:45.012Z</time></trkpt><trkpt lat="36.766609" lon="-3.6750466"><ele>267.0</ele><time>2026-03-07T12:10:45.998Z</time></trkpt><trkpt lat="36.7665255" lon="-3.6751072"><ele>267.0</ele><time>2026-03-07T12:10:46.997Z</time></trkpt><trkpt lat="36.766439" lon="-3.675159"><ele>267.0</ele><time>2026-03-07T12:10:48.006Z</time></trkpt><trkpt lat="36.7663777" lon="-3.6752143"><ele>267.0</ele><time>2026-03-07T12:10:49.001Z</time></trkpt><trkpt lat="36.7663279" lon="-3.6752742"><ele>267.0</ele><time>2026-03-07T12:10:49.996Z</time></trkpt><trkpt lat="36.7663063" lon="-3.6753548"><ele>266.4</ele><time>2026-03-07T12:10:50.985Z</time></trkpt><trkpt lat="36.7662922" lon="-3.6754504"><ele>265.79999999999995</ele><time>2026-03-07T12:10:51.985Z</time></trkpt><trkpt lat="36.7662805" lon="-3.6755523"><ele>265.2</ele><time>2026-03-07T12:10:52.997Z</time></trkpt><trkpt lat="36.7662491" lon="-3.6756668"><ele>264.59999999999997</ele><time>2026-03-07T12:10:53.982Z</time></trkpt><trkpt lat="36.7662084" lon="-3.675791"><ele>264.0</ele><time>2026-03-07T12:10:54.986Z</time></trkpt><trkpt lat="36.7661392" lon="-3.6759137"><ele>264.0</ele><time>2026-03-07T12:10:55.982Z</time></trkpt><trkpt lat="36.7660565" lon="-3.676027"><ele>264.0</ele><time>2026-03-07T12:10:57.005Z</time></trkpt><trkpt lat="36.7659618" lon="-3.6761301"><ele>264.0</ele><time>2026-03-07T12:10:57.987Z</time></trkpt><trkpt lat="36.7658658" lon="-3.6762268"><ele>264.0</ele><time>2026-03-07T12:10:59Z</time></trkpt><trkpt lat="36.7657775" lon="-3.6763237"><ele>263.8</ele><time>2026-03-07T12:10:59.992Z</time></trkpt><trkpt lat="36.7656932" lon="-3.6764144"><ele>263.59999999999997</ele><time>2026-03-07T12:11:00.993Z</time></trkpt><trkpt lat="36.7656148" lon="-3.6765073"><ele>263.4</ele><time>2026-03-07T12:11:01.999Z</time></trkpt><trkpt lat="36.7655456" lon="-3.6766111"><ele>263.2</ele><time>2026-03-07T12:11:03.006Z</time></trkpt><trkpt lat="36.7654765" lon="-3.6767272"><ele>263.0</ele><time>2026-03-07T12:11:03.994Z</time></trkpt><trkpt lat="36.7654074" lon="-3.6768414"><ele>262.6</ele><time>2026-03-07T12:11:04.995Z</time></trkpt><trkpt lat="36.7653344" lon="-3.6769442"><ele>262.20000000000005</ele><time>2026-03-07T12:11:06.002Z</time></trkpt><trkpt lat="36.7652555" lon="-3.6770374"><ele>261.8</ele><time>2026-03-07T12:11:06.997Z</time></trkpt><trkpt lat="36.7651719" lon="-3.6771292"><ele>261.40000000000003</ele><time>2026-03-07T12:11:07.996Z</time></trkpt><trkpt lat="36.7651072" lon="-3.6772365"><ele>261.0</ele><time>2026-03-07T12:11:09.014Z</time></trkpt><trkpt lat="36.76506" lon="-3.6773357"><ele>261.0</ele><time>2026-03-07T12:11:09.998Z</time></trkpt><trkpt lat="36.7650073" lon="-3.6774171"><ele>261.0</ele><time>2026-03-07T12:11:10.989Z</time></trkpt><trkpt lat="36.7649485" lon="-3.6774956"><ele>261.0</ele><time>2026-03-07T12:11:11.986Z</time></trkpt><trkpt lat="36.7648719" lon="-3.6775549"><ele>261.0</ele><time>2026-03-07T12:11:12.994Z</time></trkpt><trkpt lat="36.7647835" lon="-3.6775943"><ele>261.0</ele><time>2026-03-07T12:11:13.984Z</time></trkpt><trkpt lat="36.7647006" lon="-3.6776282"><ele>261.0</ele><time>2026-03-07T12:11:14.994Z</time></trkpt><trkpt lat="36.7646162" lon="-3.677618"><ele>261.0</ele><time>2026-03-07T12:11:15.993Z</time></trkpt><trkpt lat="36.7645251" lon="-3.6775672"><ele>261.0</ele><time>2026-03-07T12:11:16.983Z</time></trkpt><trkpt lat="36.7644226" lon="-3.6774978"><ele>261.0</ele><time>2026-03-07T12:11:18.004Z</time></trkpt><trkpt lat="36.7643142" lon="-3.67745"><ele>261.0</ele><time>2026-03-07T12:11:18.985Z</time></trkpt><trkpt lat="36.7642106" lon="-3.6774428"><ele>261.0</ele><time>2026-03-07T12:11:19.986Z</time></trkpt><trkpt lat="36.7641132" lon="-3.6774521"><ele>259.8</ele><time>2026-03-07T12:11:21.007Z</time></trkpt><trkpt lat="36.7640187" lon="-3.6774826"><ele>258.6</ele><time>2026-03-07T12:11:21.981Z</time></trkpt><trkpt lat="36.7639191" lon="-3.6775189"><ele>257.4</ele><time>2026-03-07T12:11:22.995Z</time></trkpt><trkpt lat="36.7638167" lon="-3.6775575"><ele>256.2</ele><time>2026-03-07T12:11:23.99Z</time></trkpt><trkpt lat="36.7637108" lon="-3.677572"><ele>255.0</ele><time>2026-03-07T12:11:24.975Z</time></trkpt><trkpt lat="36.7636085" lon="-3.677605"><ele>253.0</ele><time>2026-03-07T12:11:25.98Z</time></trkpt><trkpt lat="36.7635237" lon="-3.6776739"><ele>251.0</ele><time>2026-03-07T12:11:27.033Z</time></trkpt><trkpt lat="36.7634377" lon="-3.6777703"><ele>249.0</ele><time>2026-03-07T12:11:27.982Z</time></trkpt><trkpt lat="36.7633491" lon="-3.6778794"><ele>247.0</ele><time>2026-03-07T12:11:29.004Z</time></trkpt><trkpt lat="36.7632577" lon="-3.6779816"><ele>241.25</ele><time>2026-03-07T12:11:29.988Z</time></trkpt><trkpt lat="36.7631659" lon="-3.6780749"><ele>235.5</ele><time>2026-03-07T12:11:30.98Z</time></trkpt><trkpt lat="36.7630668" lon="-3.6781589"><ele>229.75</ele><time>2026-03-07T12:11:31.999Z</time></trkpt><trkpt lat="36.76296" lon="-3.6782436"><ele>224.0</ele><time>2026-03-07T12:11:32.986Z</time></trkpt><trkpt lat="36.7628523" lon="-3.6783471"><ele>224.0</ele><time>2026-03-07T12:11:33.993Z</time></trkpt><trkpt lat="36.7627396" lon="-3.67844"><ele>224.0</ele><time>2026-03-07T12:11:34.992Z</time></trkpt><trkpt lat="36.7626228" lon="-3.6785244"><ele>224.0</ele><time>2026-03-07T12:11:35.991Z</time></trkpt><trkpt lat="36.762518" lon="-3.6786256"><ele>224.0</ele><time>2026-03-07T12:11:36.985Z</time></trkpt><trkpt lat="36.762425" lon="-3.6787274"><ele>221.6</ele><time>2026-03-07T12:11:37.994Z</time></trkpt><trkpt lat="36.7623358" lon="-3.6788253"><ele>219.2</ele><time>2026-03-07T12:11:38.985Z</time></trkpt><trkpt lat="36.7622472" lon="-3.6789209"><ele>216.79999999999998</ele><time>2026-03-07T12:11:39.989Z</time></trkpt><trkpt lat="36.7621766" lon="-3.6790259"><ele>214.39999999999998</ele><time>2026-03-07T12:11:40.993Z</time></trkpt><trkpt lat="36.7621044" lon="-3.6791185"><ele>212.0</ele><time>2026-03-07T12:11:41.989Z</time></trkpt><trkpt lat="36.7620345" lon="-3.6791909"><ele>212.00000000000003</ele><time>2026-03-07T12:11:42.992Z</time></trkpt><trkpt lat="36.7619555" lon="-3.6792398"><ele>212.0</ele><time>2026-03-07T12:11:43.98Z</time></trkpt><trkpt lat="36.761869" lon="-3.6792712"><ele>212.0</ele><time>2026-03-07T12:11:44.994Z</time></trkpt><trkpt lat="36.7617816" lon="-3.6792944"><ele>212.0</ele><time>2026-03-07T12:11:45.985Z</time></trkpt><trkpt lat="36.7617004" lon="-3.6792993"><ele>212.00000000000003</ele><time>2026-03-07T12:11:46.997Z</time></trkpt><trkpt lat="36.7616295" lon="-3.6793225"><ele>212.0</ele><time>2026-03-07T12:11:47.994Z</time></trkpt><trkpt lat="36.7615785" lon="-3.6793867"><ele>211.16666666666669</ele><time>2026-03-07T12:11:48.987Z</time></trkpt><trkpt lat="36.7615389" lon="-3.6794491"><ele>210.33333333333334</ele><time>2026-03-07T12:11:50.007Z</time></trkpt><trkpt lat="36.7615158" lon="-3.6795353"><ele>209.5</ele><time>2026-03-07T12:11:51.012Z</time></trkpt><trkpt lat="36.7615052" lon="-3.6796307"><ele>208.66666666666669</ele><time>2026-03-07T12:11:51.998Z</time></trkpt><trkpt lat="36.7615002" lon="-3.6797317"><ele>207.83333333333334</ele><time>2026-03-07T12:11:53.068Z</time></trkpt><trkpt lat="36.7614753" lon="-3.6798292"><ele>207.0</ele><time>2026-03-07T12:11:54.019Z</time></trkpt><trkpt lat="36.7614509" lon="-3.6799282"><ele>207.0</ele><time>2026-03-07T12:11:55.078Z</time></trkpt><trkpt lat="36.7614171" lon="-3.6800207"><ele>207.0</ele><time>2026-03-07T12:11:56.043Z</time></trkpt><trkpt lat="36.761372" lon="-3.6801068"><ele>207.0</ele><time>2026-03-07T12:11:57.015Z</time></trkpt><trkpt lat="36.7613125" lon="-3.6801821"><ele>207.0</ele><time>2026-03-07T12:11:58.005Z</time></trkpt><trkpt lat="36.7612381" lon="-3.6802515"><ele>207.0</ele><time>2026-03-07T12:11:59.032Z</time></trkpt><trkpt lat="36.7611647" lon="-3.6803381"><ele>207.0</ele><time>2026-03-07T12:12:00.107Z</time></trkpt><trkpt lat="36.7610409" lon="-3.6805675"><ele>205.39999999999998</ele><time>2026-03-07T12:12:02.006Z</time></trkpt><trkpt lat="36.7609835" lon="-3.6806836"><ele>203.79999999999998</ele><time>2026-03-07T12:12:02.983Z</time></trkpt><trkpt lat="36.7609271" lon="-3.6807863"><ele>202.2</ele><time>2026-03-07T12:12:04.02Z</time></trkpt><trkpt lat="36.7608712" lon="-3.6808742"><ele>200.6</ele><time>2026-03-07T12:12:05.027Z</time></trkpt><trkpt lat="36.760806" lon="-3.6809313"><ele>199.0</ele><time>2026-03-07T12:12:05.996Z</time></trkpt><trkpt lat="36.7607315" lon="-3.6809606"><ele>199.0</ele><time>2026-03-07T12:12:06.997Z</time></trkpt><trkpt lat="36.7606386" lon="-3.6809571"><ele>199.0</ele><time>2026-03-07T12:12:08.008Z</time></trkpt><trkpt lat="36.76053" lon="-3.6809399"><ele>199.0</ele><time>2026-03-07T12:12:09.043Z</time></trkpt><trkpt lat="36.7604193" lon="-3.6809181"><ele>199.0</ele><time>2026-03-07T12:12:10.01Z</time></trkpt><trkpt lat="36.7603092" lon="-3.680894"><ele>199.0</ele><time>2026-03-07T12:12:11.009Z</time></trkpt><trkpt lat="36.7602005" lon="-3.6808801"><ele>196.39999999999998</ele><time>2026-03-07T12:12:12.009Z</time></trkpt><trkpt lat="36.7600975" lon="-3.6808809"><ele>193.8</ele><time>2026-03-07T12:12:12.99Z</time></trkpt><trkpt lat="36.7600036" lon="-3.6808881"><ele>191.2</ele><time>2026-03-07T12:12:14.017Z</time></trkpt><trkpt lat="36.7599168" lon="-3.6808999"><ele>188.60000000000002</ele><time>2026-03-07T12:12:15.009Z</time></trkpt><trkpt lat="36.7598314" lon="-3.6808965"><ele>186.0</ele><time>2026-03-07T12:12:15.983Z</time></trkpt><trkpt lat="36.7597301" lon="-3.680871"><ele>186.0</ele><time>2026-03-07T12:12:16.999Z</time></trkpt><trkpt lat="36.7596228" lon="-3.6808241"><ele>186.0</ele><time>2026-03-07T12:12:17.993Z</time></trkpt><trkpt lat="36.7595204" lon="-3.6807747"><ele>186.0</ele><time>2026-03-07T12:12:18.995Z</time></trkpt><trkpt lat="36.7594279" lon="-3.6807294"><ele>186.0</ele><time>2026-03-07T12:12:19.996Z</time></trkpt><trkpt lat="36.7593426" lon="-3.6806885"><ele>186.0</ele><time>2026-03-07T12:12:20.999Z</time></trkpt><trkpt lat="36.7592609" lon="-3.6806281"><ele>180.60000000000002</ele><time>2026-03-07T12:12:22.007Z</time></trkpt><trkpt lat="36.7591935" lon="-3.6805706"><ele>175.20000000000002</ele><time>2026-03-07T12:12:22.985Z</time></trkpt><trkpt lat="36.7591286" lon="-3.6805237"><ele>169.8</ele><time>2026-03-07T12:12:23.985Z</time></trkpt><trkpt lat="36.7590637" lon="-3.6804861"><ele>164.4</ele><time>2026-03-07T12:12:25.018Z</time></trkpt><trkpt lat="36.7589654" lon="-3.6804099"><ele>159.0</ele><time>2026-03-07T12:12:27.035Z</time></trkpt><trkpt lat="36.7588714" lon="-3.6803491"><ele>159.0</ele><time>2026-03-07T12:12:28.996Z</time></trkpt><trkpt lat="36.7587828" lon="-3.6803904"><ele>159.0</ele><time>2026-03-07T12:12:30.993Z</time></trkpt><trkpt lat="36.7587452" lon="-3.6805257"><ele>159.0</ele><time>2026-03-07T12:12:33Z</time></trkpt><trkpt lat="36.7587212" lon="-3.6806068"><ele>159.0</ele><time>2026-03-07T12:12:34.021Z</time></trkpt><trkpt lat="36.7586833" lon="-3.6806783"><ele>159.0</ele><time>2026-03-07T12:12:35.022Z</time></trkpt><trkpt lat="36.7585849" lon="-3.6807592"><ele>154.8</ele><time>2026-03-07T12:12:36.993Z</time></trkpt><trkpt lat="36.7584845" lon="-3.6807212"><ele>150.60000000000002</ele><time>2026-03-07T12:12:39.006Z</time></trkpt><trkpt lat="36.7584169" lon="-3.6806546"><ele>146.4</ele><time>2026-03-07T12:12:40.997Z</time></trkpt><trkpt lat="36.7583236" lon="-3.6806264"><ele>142.20000000000002</ele><time>2026-03-07T12:12:43.009Z</time></trkpt><trkpt lat="36.7581992" lon="-3.6807048"><ele>138.0</ele><time>2026-03-07T12:12:45.001Z</time></trkpt><trkpt lat="36.7581229" lon="-3.6807347"><ele>138.0</ele><time>2026-03-07T12:12:45.997Z</time></trkpt><trkpt lat="36.7580578" lon="-3.6807598"><ele>138.0</ele><time>2026-03-07T12:12:46.992Z</time></trkpt><trkpt lat="36.7579964" lon="-3.6808064"><ele>138.0</ele><time>2026-03-07T12:12:47.989Z</time></trkpt><trkpt lat="36.7579377" lon="-3.6808685"><ele>138.0</ele><time>2026-03-07T12:12:49.001Z</time></trkpt><trkpt lat="36.7578868" lon="-3.6809361"><ele>138.0</ele><time>2026-03-07T12:12:50.025Z</time></trkpt><trkpt lat="36.7578501" lon="-3.6810117"><ele>138.0</ele><time>2026-03-07T12:12:51.015Z</time></trkpt><trkpt lat="36.7577802" lon="-3.6811419"><ele>135.33333333333334</ele><time>2026-03-07T12:12:53.036Z</time></trkpt><trkpt lat="36.7577427" lon="-3.6812163"><ele>132.66666666666666</ele><time>2026-03-07T12:12:54.006Z</time></trkpt><trkpt lat="36.7577067" lon="-3.6813013"><ele>130.0</ele><time>2026-03-07T12:12:55.016Z</time></trkpt><trkpt lat="36.7576791" lon="-3.6813871"><ele>127.33333333333333</ele><time>2026-03-07T12:12:56.034Z</time></trkpt><trkpt lat="36.7576561" lon="-3.6814657"><ele>124.66666666666666</ele><time>2026-03-07T12:12:57.038Z</time></trkpt><trkpt lat="36.7576261" lon="-3.6815766"><ele>122.0</ele><time>2026-03-07T12:12:58.986Z</time></trkpt><trkpt lat="36.757556" lon="-3.6815971"><ele>119.5</ele><time>2026-03-07T12:13:02.086Z</time></trkpt><trkpt lat="36.7574754" lon="-3.6814297"><ele>117.0</ele><time>2026-03-07T12:13:04.07Z</time></trkpt><trkpt lat="36.7574317" lon="-3.6812843"><ele>114.5</ele><time>2026-03-07T12:13:05.052Z</time></trkpt><trkpt lat="36.7573827" lon="-3.6811454"><ele>112.0</ele><time>2026-03-07T12:13:06.054Z</time></trkpt><trkpt lat="36.7573275" lon="-3.6810216"><ele>110.8</ele><time>2026-03-07T12:13:07.088Z</time></trkpt><trkpt lat="36.7572627" lon="-3.6809158"><ele>109.6</ele><time>2026-03-07T12:13:08.076Z</time></trkpt><trkpt lat="36.7571841" lon="-3.6808196"><ele>108.39999999999999</ele><time>2026-03-07T12:13:09.17Z</time></trkpt><trkpt lat="36.7570935" lon="-3.6807484"><ele>107.19999999999999</ele><time>2026-03-07T12:13:10.087Z</time></trkpt><trkpt lat="36.7569999" lon="-3.6806758"><ele>106.0</ele><time>2026-03-07T12:13:11.084Z</time></trkpt><trkpt lat="36.7569049" lon="-3.680604"><ele>97.5</ele><time>2026-03-07T12:13:12.097Z</time></trkpt><trkpt lat="36.756812" lon="-3.6805382"><ele>89.0</ele><time>2026-03-07T12:13:13.116Z</time></trkpt><trkpt lat="36.7567069" lon="-3.6804738"><ele>80.5</ele><time>2026-03-07T12:13:14.086Z</time></trkpt><trkpt lat="36.7566032" lon="-3.6803946"><ele>72.0</ele><time>2026-03-07T12:13:15.099Z</time></trkpt><trkpt lat="36.7564939" lon="-3.680316"><ele>74.25</ele><time>2026-03-07T12:13:16.062Z</time></trkpt><trkpt lat="36.756402" lon="-3.6802216"><ele>76.5</ele><time>2026-03-07T12:13:17.111Z</time></trkpt><trkpt lat="36.7563207" lon="-3.6801141"><ele>78.75</ele><time>2026-03-07T12:13:18.085Z</time></trkpt><trkpt lat="36.7562389" lon="-3.679997"><ele>81.0</ele><time>2026-03-07T12:13:19.083Z</time></trkpt><trkpt lat="36.7561707" lon="-3.6798809"><ele>81.0</ele><time>2026-03-07T12:13:20.065Z</time></trkpt><trkpt lat="36.7560997" lon="-3.679785"><ele>81.0</ele><time>2026-03-07T12:13:21.062Z</time></trkpt><trkpt lat="36.7560242" lon="-3.6797114"><ele>81.0</ele><time>2026-03-07T12:13:22.022Z</time></trkpt><trkpt lat="36.7559802" lon="-3.67963"><ele>81.0</ele><time>2026-03-07T12:13:23.039Z</time></trkpt><trkpt lat="36.755938" lon="-3.6795705"><ele>81.0</ele><time>2026-03-07T12:13:24.06Z</time></trkpt><trkpt lat="36.7559425" lon="-3.679428"><ele>79.0</ele><time>2026-03-07T12:13:25.996Z</time></trkpt><trkpt lat="36.7560022" lon="-3.6793254"><ele>77.0</ele><time>2026-03-07T12:13:27.026Z</time></trkpt><trkpt lat="36.7560823" lon="-3.6792223"><ele>75.0</ele><time>2026-03-07T12:13:27.995Z</time></trkpt><trkpt lat="36.756151" lon="-3.6791265"><ele>73.0</ele><time>2026-03-07T12:13:28.996Z</time></trkpt><trkpt lat="36.7562288" lon="-3.6790384"><ele>71.0</ele><time>2026-03-07T12:13:30.019Z</time></trkpt><trkpt lat="36.756306" lon="-3.6789702"><ele>71.0</ele><time>2026-03-07T12:13:31.027Z</time></trkpt><trkpt lat="36.7563829" lon="-3.67892"><ele>71.0</ele><time>2026-03-07T12:13:32.028Z</time></trkpt><trkpt lat="36.7564586" lon="-3.6788812"><ele>71.0</ele><time>2026-03-07T12:13:33.043Z</time></trkpt><trkpt lat="36.7565406" lon="-3.6788412"><ele>71.0</ele><time>2026-03-07T12:13:34.019Z</time></trkpt><trkpt lat="36.756627" lon="-3.6787985"><ele>71.0</ele><time>2026-03-07T12:13:35.019Z</time></trkpt><trkpt lat="36.7566953" lon="-3.6787611"><ele>71.0</ele><time>2026-03-07T12:13:36.011Z</time></trkpt><trkpt lat="36.7567768" lon="-3.67866"><ele>69.0</ele><time>2026-03-07T12:13:38.051Z</time></trkpt><trkpt lat="36.756752" lon="-3.6785116"><ele>67.0</ele><time>2026-03-07T12:13:40.132Z</time></trkpt><trkpt lat="36.7566973" lon="-3.6784293"><ele>65.0</ele><time>2026-03-07T12:13:41.067Z</time></trkpt><trkpt lat="36.7566428" lon="-3.678349"><ele>63.0</ele><time>2026-03-07T12:13:42.093Z</time></trkpt><trkpt lat="36.7565945" lon="-3.6782624"><ele>61.0</ele><time>2026-03-07T12:13:43.042Z</time></trkpt><trkpt lat="36.7565683" lon="-3.6781654"><ele>61.0</ele><time>2026-03-07T12:13:44.098Z</time></trkpt><trkpt lat="36.7565673" lon="-3.6780658"><ele>60.99999999999999</ele><time>2026-03-07T12:13:45.021Z</time></trkpt><trkpt lat="36.7565894" lon="-3.6779579"><ele>60.99999999999999</ele><time>2026-03-07T12:13:46.05Z</time></trkpt><trkpt lat="36.7566421" lon="-3.6778424"><ele>61.0</ele><time>2026-03-07T12:13:47.047Z</time></trkpt><trkpt lat="36.756723" lon="-3.6777416"><ele>61.0</ele><time>2026-03-07T12:13:47.981Z</time></trkpt><trkpt lat="36.7567915" lon="-3.6776449"><ele>60.166666666666664</ele><time>2026-03-07T12:13:48.985Z</time></trkpt><trkpt lat="36.7568522" lon="-3.6775606"><ele>59.33333333333333</ele><time>2026-03-07T12:13:50.007Z</time></trkpt><trkpt lat="36.7568961" lon="-3.6774938"><ele>58.5</ele><time>2026-03-07T12:13:51.038Z</time></trkpt><trkpt lat="36.7569202" lon="-3.6773667"><ele>57.66666666666667</ele><time>2026-03-07T12:13:53.017Z</time></trkpt><trkpt lat="36.7568767" lon="-3.6773046"><ele>56.833333333333336</ele><time>2026-03-07T12:13:54.028Z</time></trkpt><trkpt lat="36.756822" lon="-3.6772307"><ele>56.0</ele><time>2026-03-07T12:13:55.019Z</time></trkpt><trkpt lat="36.7567682" lon="-3.6771384"><ele>56.00000000000001</ele><time>2026-03-07T12:13:56.026Z</time></trkpt><trkpt lat="36.7567107" lon="-3.6770541"><ele>56.0</ele><time>2026-03-07T12:13:56.995Z</time></trkpt><trkpt lat="36.756655" lon="-3.6769736"><ele>56.0</ele><time>2026-03-07T12:13:57.978Z</time></trkpt><trkpt lat="36.7565968" lon="-3.6768926"><ele>56.0</ele><time>2026-03-07T12:13:58.989Z</time></trkpt><trkpt lat="36.7565357" lon="-3.6768097"><ele>56.00000000000001</ele><time>2026-03-07T12:13:59.981Z</time></trkpt><trkpt lat="36.7564779" lon="-3.6767312"><ele>56.0</ele><time>2026-03-07T12:14:00.975Z</time></trkpt><trkpt lat="36.7564217" lon="-3.6766725"><ele>55.599999999999994</ele><time>2026-03-07T12:14:01.993Z</time></trkpt><trkpt lat="36.7563325" lon="-3.6766123"><ele>55.199999999999996</ele><time>2026-03-07T12:14:03.989Z</time></trkpt><trkpt lat="36.7562657" lon="-3.6766531"><ele>54.800000000000004</ele><time>2026-03-07T12:14:06.015Z</time></trkpt><trkpt lat="36.7561935" lon="-3.6767354"><ele>54.400000000000006</ele><time>2026-03-07T12:14:07.998Z</time></trkpt><trkpt lat="36.7561257" lon="-3.676823"><ele>54.0</ele><time>2026-03-07T12:14:09.994Z</time></trkpt><trkpt lat="36.7560461" lon="-3.6768994"><ele>53.0</ele><time>2026-03-07T12:14:12.009Z</time></trkpt><trkpt lat="36.7559351" lon="-3.6769592"><ele>52.00000000000001</ele><time>2026-03-07T12:14:14.008Z</time></trkpt><trkpt lat="36.7558433" lon="-3.677032"><ele>51.0</ele><time>2026-03-07T12:14:15.991Z</time></trkpt><trkpt lat="36.7557416" lon="-3.6771238"><ele>50.0</ele><time>2026-03-07T12:14:17.997Z</time></trkpt><trkpt lat="36.7556887" lon="-3.6771737"><ele>49.0</ele><time>2026-03-07T12:14:18.985Z</time></trkpt><trkpt lat="36.7556364" lon="-3.6772398"><ele>48.99999999999999</ele><time>2026-03-07T12:14:20.001Z</time></trkpt><trkpt lat="36.7555808" lon="-3.6773107"><ele>49.0</ele><time>2026-03-07T12:14:20.991Z</time></trkpt><trkpt lat="36.7555199" lon="-3.6773931"><ele>49.0</ele><time>2026-03-07T12:14:21.995Z</time></trkpt><trkpt lat="36.7554649" lon="-3.6774664"><ele>49.0</ele><time>2026-03-07T12:14:22.986Z</time></trkpt><trkpt lat="36.7554246" lon="-3.6775422"><ele>48.99999999999999</ele><time>2026-03-07T12:14:24.002Z</time></trkpt><trkpt lat="36.7553631" lon="-3.6776659"><ele>49.0</ele><time>2026-03-07T12:14:26.005Z</time></trkpt><trkpt lat="36.7553013" lon="-3.6778048"><ele>49.49999999999999</ele><time>2026-03-07T12:14:28.002Z</time></trkpt><trkpt lat="36.755261" lon="-3.6779205"><ele>50.0</ele><time>2026-03-07T12:14:29.98Z</time></trkpt><trkpt lat="36.7552318" lon="-3.6779957"><ele>50.5</ele><time>2026-03-07T12:14:30.991Z</time></trkpt><trkpt lat="36.7551964" lon="-3.6780747"><ele>51.0</ele><time>2026-03-07T12:14:31.998Z</time></trkpt><trkpt lat="36.7551639" lon="-3.6781517"><ele>51.49999999999999</ele><time>2026-03-07T12:14:32.977Z</time></trkpt><trkpt lat="36.7551302" lon="-3.6782285"><ele>52.0</ele><time>2026-03-07T12:14:33.985Z</time></trkpt><trkpt lat="36.7550936" lon="-3.6783083"><ele>50.99999999999999</ele><time>2026-03-07T12:14:34.993Z</time></trkpt><trkpt lat="36.7550561" lon="-3.6783959"><ele>50.0</ele><time>2026-03-07T12:14:35.99Z</time></trkpt><trkpt lat="36.75502" lon="-3.6784784"><ele>49.0</ele><time>2026-03-07T12:14:36.988Z</time></trkpt><trkpt lat="36.7549916" lon="-3.6785553"><ele>48.0</ele><time>2026-03-07T12:14:37.996Z</time></trkpt><trkpt lat="36.7549579" lon="-3.6786389"><ele>47.0</ele><time>2026-03-07T12:14:38.984Z</time></trkpt><trkpt lat="36.7549069" lon="-3.6787192"><ele>46.0</ele><time>2026-03-07T12:14:39.991Z</time></trkpt><trkpt lat="36.75486" lon="-3.6788024"><ele>45.5</ele><time>2026-03-07T12:14:40.991Z</time></trkpt><trkpt lat="36.7548205" lon="-3.678886"><ele>45.0</ele><time>2026-03-07T12:14:42.016Z</time></trkpt><trkpt lat="36.7547834" lon="-3.6789671"><ele>44.5</ele><time>2026-03-07T12:14:43.034Z</time></trkpt><trkpt lat="36.7547354" lon="-3.6790519"><ele>44.0</ele><time>2026-03-07T12:14:44.002Z</time></trkpt><trkpt lat="36.7546666" lon="-3.6791174"><ele>43.5</ele><time>2026-03-07T12:14:45.003Z</time></trkpt><trkpt lat="36.7545836" lon="-3.6791746"><ele>43.0</ele><time>2026-03-07T12:14:45.996Z</time></trkpt><trkpt lat="36.7545027" lon="-3.6792344"><ele>43.0</ele><time>2026-03-07T12:14:46.995Z</time></trkpt><trkpt lat="36.7544103" lon="-3.6792902"><ele>43.0</ele><time>2026-03-07T12:14:48.029Z</time></trkpt><trkpt lat="36.754309" lon="-3.6793489"><ele>43.0</ele><time>2026-03-07T12:14:49.049Z</time></trkpt><trkpt lat="36.7542079" lon="-3.6794025"><ele>43.0</ele><time>2026-03-07T12:14:49.998Z</time></trkpt><trkpt lat="36.7541174" lon="-3.6794645"><ele>43.0</ele><time>2026-03-07T12:14:51.008Z</time></trkpt><trkpt lat="36.7540327" lon="-3.6795293"><ele>42.333333333333336</ele><time>2026-03-07T12:14:52.005Z</time></trkpt><trkpt lat="36.7539493" lon="-3.6795949"><ele>41.66666666666667</ele><time>2026-03-07T12:14:53.027Z</time></trkpt><trkpt lat="36.7538782" lon="-3.6796626"><ele>41.0</ele><time>2026-03-07T12:14:53.994Z</time></trkpt><trkpt lat="36.753808" lon="-3.6797284"><ele>40.333333333333336</ele><time>2026-03-07T12:14:54.988Z</time></trkpt><trkpt lat="36.7537412" lon="-3.679783"><ele>39.666666666666664</ele><time>2026-03-07T12:14:55.999Z</time></trkpt><trkpt lat="36.7536795" lon="-3.6798294"><ele>39.0</ele><time>2026-03-07T12:14:57.004Z</time></trkpt><trkpt lat="36.7536261" lon="-3.6798729"><ele>39.0</ele><time>2026-03-07T12:14:57.986Z</time></trkpt><trkpt lat="36.7535441" lon="-3.6799074"><ele>39.0</ele><time>2026-03-07T12:14:59Z</time></trkpt><trkpt lat="36.7534375" lon="-3.6799729"><ele>39.0</ele><time>2026-03-07T12:15:01.006Z</time></trkpt><trkpt lat="36.753321" lon="-3.6800328"><ele>39.0</ele><time>2026-03-07T12:15:03.004Z</time></trkpt><trkpt lat="36.7532469" lon="-3.6800568"><ele>39.0</ele><time>2026-03-07T12:15:04.019Z</time></trkpt><trkpt lat="36.7531732" lon="-3.6800815"><ele>38.85714285714286</ele><time>2026-03-07T12:15:05.021Z</time></trkpt><trkpt lat="36.7530998" lon="-3.6800991"><ele>38.71428571428571</ele><time>2026-03-07T12:15:05.995Z</time></trkpt><trkpt lat="36.7530287" lon="-3.6801183"><ele>38.57142857142857</ele><time>2026-03-07T12:15:07.006Z</time></trkpt><trkpt lat="36.7529594" lon="-3.6801373"><ele>38.42857142857143</ele><time>2026-03-07T12:15:08.01Z</time></trkpt><trkpt lat="36.752891" lon="-3.6801492"><ele>38.28571428571429</ele><time>2026-03-07T12:15:09.014Z</time></trkpt><trkpt lat="36.7528251" lon="-3.6801545"><ele>38.14285714285714</ele><time>2026-03-07T12:15:10.03Z</time></trkpt><trkpt lat="36.7527571" lon="-3.6801629"><ele>38.0</ele><time>2026-03-07T12:15:11.012Z</time></trkpt><trkpt lat="36.7526901" lon="-3.6801746"><ele>37.0</ele><time>2026-03-07T12:15:12.011Z</time></trkpt><trkpt lat="36.7525732" lon="-3.6801857"><ele>36.0</ele><time>2026-03-07T12:15:14.008Z</time></trkpt><trkpt lat="36.7524542" lon="-3.6801954"><ele>35.0</ele><time>2026-03-07T12:15:15.999Z</time></trkpt><trkpt lat="36.7523898" lon="-3.6801983"><ele>34.0</ele><time>2026-03-07T12:15:17.007Z</time></trkpt><trkpt lat="36.7523252" lon="-3.6801984"><ele>33.0</ele><time>2026-03-07T12:15:18.024Z</time></trkpt><trkpt lat="36.7522571" lon="-3.6802079"><ele>32.0</ele><time>2026-03-07T12:15:19.022Z</time></trkpt><trkpt lat="36.7521869" lon="-3.6802249"><ele>32.0</ele><time>2026-03-07T12:15:20.029Z</time></trkpt><trkpt lat="36.7521168" lon="-3.6802399"><ele>31.999999999999996</ele><time>2026-03-07T12:15:21.035Z</time></trkpt><trkpt lat="36.7520486" lon="-3.6802471"><ele>32.0</ele><time>2026-03-07T12:15:22.006Z</time></trkpt><trkpt lat="36.7519788" lon="-3.6802573"><ele>32.0</ele><time>2026-03-07T12:15:23.012Z</time></trkpt><trkpt lat="36.7518994" lon="-3.6802717"><ele>31.999999999999996</ele><time>2026-03-07T12:15:24.035Z</time></trkpt><trkpt lat="36.7518224" lon="-3.6802854"><ele>32.0</ele><time>2026-03-07T12:15:25.018Z</time></trkpt><trkpt lat="36.751752" lon="-3.6802948"><ele>32.0</ele><time>2026-03-07T12:15:26.012Z</time></trkpt><trkpt lat="36.7516813" lon="-3.6803036"><ele>31.499999999999996</ele><time>2026-03-07T12:15:27.037Z</time></trkpt><trkpt lat="36.7515862" lon="-3.6803253"><ele>31.0</ele><time>2026-03-07T12:15:28.979Z</time></trkpt><trkpt lat="36.7514996" lon="-3.6803705"><ele>30.5</ele><time>2026-03-07T12:15:30.988Z</time></trkpt><trkpt lat="36.7514001" lon="-3.6804165"><ele>30.0</ele><time>2026-03-07T12:15:32.987Z</time></trkpt><trkpt lat="36.7513347" lon="-3.680441"><ele>29.499999999999996</ele><time>2026-03-07T12:15:33.994Z</time></trkpt><trkpt lat="36.7512586" lon="-3.6804593"><ele>29.0</ele><time>2026-03-07T12:15:35.005Z</time></trkpt><trkpt lat="36.7511803" lon="-3.6804824"><ele>29.0</ele><time>2026-03-07T12:15:35.997Z</time></trkpt><trkpt lat="36.7510959" lon="-3.6805119"><ele>29.0</ele><time>2026-03-07T12:15:37.001Z</time></trkpt><trkpt lat="36.7510136" lon="-3.6805418"><ele>29.0</ele><time>2026-03-07T12:15:38.018Z</time></trkpt><trkpt lat="36.7509484" lon="-3.6805685"><ele>29.0</ele><time>2026-03-07T12:15:38.99Z</time></trkpt><trkpt lat="36.7508487" lon="-3.680597"><ele>29.0</ele><time>2026-03-07T12:15:40.996Z</time></trkpt><trkpt lat="36.7507222" lon="-3.6806335"><ele>28.71428571428572</ele><time>2026-03-07T12:15:42.99Z</time></trkpt><trkpt lat="36.7506476" lon="-3.6806647"><ele>28.42857142857143</ele><time>2026-03-07T12:15:44.006Z</time></trkpt><trkpt lat="36.7505795" lon="-3.680698"><ele>28.142857142857146</ele><time>2026-03-07T12:15:44.995Z</time></trkpt><trkpt lat="36.7505175" lon="-3.6807247"><ele>27.85714285714286</ele><time>2026-03-07T12:15:46.028Z</time></trkpt><trkpt lat="36.7504433" lon="-3.6807244"><ele>27.57142857142857</ele><time>2026-03-07T12:16:15.989Z</time></trkpt><trkpt lat="36.7503673" lon="-3.6807444"><ele>27.285714285714285</ele><time>2026-03-07T12:16:39.994Z</time></trkpt><trkpt lat="36.7502921" lon="-3.680735"><ele>27.0</ele><time>2026-03-07T12:16:42.016Z</time></trkpt><trkpt lat="36.7502134" lon="-3.6806369"><ele>26.666666666666668</ele><time>2026-03-07T12:16:44.031Z</time></trkpt><trkpt lat="36.75016" lon="-3.6805775"><ele>26.333333333333336</ele><time>2026-03-07T12:16:45.042Z</time></trkpt><trkpt lat="36.7500668" lon="-3.680519"><ele>26.0</ele><time>2026-03-07T12:16:47.08Z</time></trkpt><trkpt lat="36.7500017" lon="-3.6805575"><ele>25.666666666666668</ele><time>2026-03-07T12:16:49.065Z</time></trkpt><trkpt lat="36.7499636" lon="-3.6806839"><ele>25.333333333333336</ele><time>2026-03-07T12:16:51.058Z</time></trkpt><trkpt lat="36.7499417" lon="-3.6807899"><ele>25.0</ele><time>2026-03-07T12:16:52.026Z</time></trkpt><trkpt lat="36.7499093" lon="-3.6809038"><ele>25.0</ele><time>2026-03-07T12:16:53.05Z</time></trkpt><trkpt lat="36.7498641" lon="-3.6810179"><ele>25.0</ele><time>2026-03-07T12:16:54.025Z</time></trkpt><trkpt lat="36.7498164" lon="-3.6811228"><ele>25.0</ele><time>2026-03-07T12:16:54.996Z</time></trkpt><trkpt lat="36.7497642" lon="-3.6812167"><ele>25.0</ele><time>2026-03-07T12:16:56.042Z</time></trkpt><trkpt lat="36.7497158" lon="-3.6813079"><ele>25.0</ele><time>2026-03-07T12:16:57.024Z</time></trkpt><trkpt lat="36.7496612" lon="-3.6813879"><ele>25.166666666666668</ele><time>2026-03-07T12:16:58.032Z</time></trkpt><trkpt lat="36.7495973" lon="-3.6814419"><ele>25.333333333333336</ele><time>2026-03-07T12:16:59.024Z</time></trkpt><trkpt lat="36.7495325" lon="-3.6814678"><ele>25.5</ele><time>2026-03-07T12:17:00.065Z</time></trkpt><trkpt lat="36.7494172" lon="-3.6814557"><ele>25.666666666666664</ele><time>2026-03-07T12:17:02.026Z</time></trkpt><trkpt lat="36.7493348" lon="-3.6813814"><ele>25.833333333333332</ele><time>2026-03-07T12:17:04.021Z</time></trkpt><trkpt lat="36.7492771" lon="-3.6813424"><ele>26.0</ele><time>2026-03-07T12:17:04.991Z</time></trkpt><trkpt lat="36.7492037" lon="-3.6813125"><ele>26.0</ele><time>2026-03-07T12:17:06.021Z</time></trkpt><trkpt lat="36.7491125" lon="-3.6812847"><ele>26.0</ele><time>2026-03-07T12:17:07.023Z</time></trkpt><trkpt lat="36.7490174" lon="-3.6812661"><ele>26.0</ele><time>2026-03-07T12:17:08.012Z</time></trkpt><trkpt lat="36.7489176" lon="-3.6812597"><ele>26.0</ele><time>2026-03-07T12:17:09.016Z</time></trkpt><trkpt lat="36.7488143" lon="-3.6812515"><ele>26.0</ele><time>2026-03-07T12:17:10.049Z</time></trkpt><trkpt lat="36.7487083" lon="-3.6812405"><ele>26.0</ele><time>2026-03-07T12:17:11.052Z</time></trkpt><trkpt lat="36.748601" lon="-3.6812365"><ele>26.0</ele><time>2026-03-07T12:17:12.034Z</time></trkpt><trkpt lat="36.7484914" lon="-3.6812371"><ele>26.0</ele><time>2026-03-07T12:17:13.014Z</time></trkpt><trkpt lat="36.7483661" lon="-3.6812527"><ele>26.0</ele><time>2026-03-07T12:17:14.01Z</time></trkpt><trkpt lat="36.7482313" lon="-3.6812713"><ele>26.0</ele><time>2026-03-07T12:17:15.01Z</time></trkpt><trkpt lat="36.748088" lon="-3.6812776"><ele>26.0</ele><time>2026-03-07T12:17:15.989Z</time></trkpt><trkpt lat="36.7479589" lon="-3.6812869"><ele>26.0</ele><time>2026-03-07T12:17:16.986Z</time></trkpt><trkpt lat="36.7478536" lon="-3.6812992"><ele>26.0</ele><time>2026-03-07T12:17:18.01Z</time></trkpt><trkpt lat="36.7477627" lon="-3.6813355"><ele>25.5</ele><time>2026-03-07T12:17:19Z</time></trkpt><trkpt lat="36.7476757" lon="-3.6813808"><ele>25.0</ele><time>2026-03-07T12:17:20.055Z</time></trkpt><trkpt lat="36.7475735" lon="-3.6814229"><ele>24.5</ele><time>2026-03-07T12:17:20.99Z</time></trkpt><trkpt lat="36.7474513" lon="-3.6814619"><ele>24.0</ele><time>2026-03-07T12:17:22.063Z</time></trkpt><trkpt lat="36.7473171" lon="-3.6814912"><ele>24.0</ele><time>2026-03-07T12:17:22.984Z</time></trkpt><trkpt lat="36.7471841" lon="-3.6815228"><ele>24.0</ele><time>2026-03-07T12:17:24.002Z</time></trkpt><trkpt lat="36.7470529" lon="-3.6815598"><ele>24.0</ele><time>2026-03-07T12:17:25.011Z</time></trkpt><trkpt lat="36.7469116" lon="-3.6816072"><ele>24.0</ele><time>2026-03-07T12:17:26.019Z</time></trkpt><trkpt lat="36.7467659" lon="-3.681656"><ele>23.5</ele><time>2026-03-07T12:17:27.011Z</time></trkpt><trkpt lat="36.7466313" lon="-3.6817"><ele>23.0</ele><time>2026-03-07T12:17:28.003Z</time></trkpt><trkpt lat="36.7465127" lon="-3.6817416"><ele>22.5</ele><time>2026-03-07T12:17:29.082Z</time></trkpt><trkpt lat="36.7463961" lon="-3.6817879"><ele>22.0</ele><time>2026-03-07T12:17:30.02Z</time></trkpt><trkpt lat="36.7462744" lon="-3.6818345"><ele>22.0</ele><time>2026-03-07T12:17:30.97Z</time></trkpt><trkpt lat="36.7461446" lon="-3.6818854"><ele>22.0</ele><time>2026-03-07T12:17:31.979Z</time></trkpt><trkpt lat="36.7460065" lon="-3.6819381"><ele>22.0</ele><time>2026-03-07T12:17:32.987Z</time></trkpt><trkpt lat="36.7458625" lon="-3.6819798"><ele>22.0</ele><time>2026-03-07T12:17:33.983Z</time></trkpt><trkpt lat="36.7457238" lon="-3.6820277"><ele>21.5</ele><time>2026-03-07T12:17:34.989Z</time></trkpt><trkpt lat="36.7455894" lon="-3.6820815"><ele>21.0</ele><time>2026-03-07T12:17:35.992Z</time></trkpt><trkpt lat="36.7454506" lon="-3.6821374"><ele>20.5</ele><time>2026-03-07T12:17:36.991Z</time></trkpt><trkpt lat="36.7453094" lon="-3.6822062"><ele>20.0</ele><time>2026-03-07T12:17:37.994Z</time></trkpt><trkpt lat="36.7451702" lon="-3.6822798"><ele>19.75</ele><time>2026-03-07T12:17:38.992Z</time></trkpt><trkpt lat="36.7450268" lon="-3.6823549"><ele>19.5</ele><time>2026-03-07T12:17:39.992Z</time></trkpt><trkpt lat="36.7448946" lon="-3.682427"><ele>19.25</ele><time>2026-03-07T12:17:40.977Z</time></trkpt><trkpt lat="36.7447782" lon="-3.6825027"><ele>19.0</ele><time>2026-03-07T12:17:42.02Z</time></trkpt><trkpt lat="36.7446743" lon="-3.6825735"><ele>19.0</ele><time>2026-03-07T12:17:42.996Z</time></trkpt><trkpt lat="36.7445915" lon="-3.6826548"><ele>19.0</ele><time>2026-03-07T12:17:44.009Z</time></trkpt><trkpt lat="36.7445056" lon="-3.6827031"><ele>19.0</ele><time>2026-03-07T12:17:44.992Z</time></trkpt><trkpt lat="36.7444117" lon="-3.682741"><ele>19.0</ele><time>2026-03-07T12:17:45.98Z</time></trkpt><trkpt lat="36.7443126" lon="-3.6827929"><ele>19.0</ele><time>2026-03-07T12:17:46.997Z</time></trkpt><trkpt lat="36.7442071" lon="-3.6828464"><ele>18.75</ele><time>2026-03-07T12:17:47.994Z</time></trkpt><trkpt lat="36.7440992" lon="-3.682899"><ele>18.5</ele><time>2026-03-07T12:17:49.023Z</time></trkpt><trkpt lat="36.7439958" lon="-3.6829615"><ele>18.25</ele><time>2026-03-07T12:17:49.989Z</time></trkpt><trkpt lat="36.743901" lon="-3.6830459"><ele>18.0</ele><time>2026-03-07T12:17:50.983Z</time></trkpt><trkpt lat="36.7438067" lon="-3.6831272"><ele>18.0</ele><time>2026-03-07T12:17:51.986Z</time></trkpt><trkpt lat="36.7437098" lon="-3.6831883"><ele>18.0</ele><time>2026-03-07T12:17:52.983Z</time></trkpt><trkpt lat="36.7436067" lon="-3.6832094"><ele>18.0</ele><time>2026-03-07T12:17:53.993Z</time></trkpt><trkpt lat="36.7434998" lon="-3.6832158"><ele>18.0</ele><time>2026-03-07T12:17:54.987Z</time></trkpt><trkpt lat="36.7433892" lon="-3.6832208"><ele>18.0</ele><time>2026-03-07T12:17:55.994Z</time></trkpt><trkpt lat="36.7432763" lon="-3.6832274"><ele>18.0</ele><time>2026-03-07T12:17:56.974Z</time></trkpt><trkpt lat="36.743158" lon="-3.6832391"><ele>18.0</ele><time>2026-03-07T12:17:57.989Z</time></trkpt><trkpt lat="36.7430392" lon="-3.6832604"><ele>18.0</ele><time>2026-03-07T12:17:59.006Z</time></trkpt><trkpt lat="36.7429192" lon="-3.68328"><ele>18.0</ele><time>2026-03-07T12:17:59.991Z</time></trkpt><trkpt lat="36.7427967" lon="-3.683299"><ele>17.666666666666668</ele><time>2026-03-07T12:18:00.997Z</time></trkpt><trkpt lat="36.7426787" lon="-3.6833117"><ele>17.333333333333332</ele><time>2026-03-07T12:18:01.984Z</time></trkpt><trkpt lat="36.742578" lon="-3.683323"><ele>17.0</ele><time>2026-03-07T12:18:02.982Z</time></trkpt><trkpt lat="36.7425005" lon="-3.6833297"><ele>16.666666666666664</ele><time>2026-03-07T12:18:03.979Z</time></trkpt><trkpt lat="36.7424358" lon="-3.6833627"><ele>16.333333333333332</ele><time>2026-03-07T12:18:04.992Z</time></trkpt><trkpt lat="36.7423622" lon="-3.6834031"><ele>16.0</ele><time>2026-03-07T12:18:05.996Z</time></trkpt><trkpt lat="36.7422789" lon="-3.6834561"><ele>15.999999999999998</ele><time>2026-03-07T12:18:06.988Z</time></trkpt><trkpt lat="36.742193" lon="-3.6835051"><ele>16.0</ele><time>2026-03-07T12:18:07.99Z</time></trkpt><trkpt lat="36.7421095" lon="-3.6835442"><ele>16.0</ele><time>2026-03-07T12:18:09.014Z</time></trkpt><trkpt lat="36.7420381" lon="-3.6835873"><ele>16.0</ele><time>2026-03-07T12:18:09.995Z</time></trkpt><trkpt lat="36.741971" lon="-3.6836349"><ele>15.999999999999998</ele><time>2026-03-07T12:18:10.983Z</time></trkpt><trkpt lat="36.7419009" lon="-3.6836786"><ele>16.0</ele><time>2026-03-07T12:18:11.991Z</time></trkpt><trkpt lat="36.7418255" lon="-3.6837267"><ele>15.666666666666666</ele><time>2026-03-07T12:18:12.988Z</time></trkpt><trkpt lat="36.7417492" lon="-3.683773"><ele>15.333333333333332</ele><time>2026-03-07T12:18:13.997Z</time></trkpt><trkpt lat="36.7416706" lon="-3.683812"><ele>15.0</ele><time>2026-03-07T12:18:14.996Z</time></trkpt><trkpt lat="36.7415934" lon="-3.6838582"><ele>14.666666666666668</ele><time>2026-03-07T12:18:15.972Z</time></trkpt><trkpt lat="36.7415215" lon="-3.6838869"><ele>14.333333333333334</ele><time>2026-03-07T12:18:16.992Z</time></trkpt><trkpt lat="36.7414572" lon="-3.6839189"><ele>14.0</ele><time>2026-03-07T12:18:17.982Z</time></trkpt><trkpt lat="36.7413961" lon="-3.6839544"><ele>14.000000000000002</ele><time>2026-03-07T12:18:18.983Z</time></trkpt><trkpt lat="36.7413416" lon="-3.6840074"><ele>14.0</ele><time>2026-03-07T12:18:19.99Z</time></trkpt><trkpt lat="36.7412902" lon="-3.6840541"><ele>14.0</ele><time>2026-03-07T12:18:21.01Z</time></trkpt><trkpt lat="36.7412056" lon="-3.6841436"><ele>14.0</ele><time>2026-03-07T12:18:22.991Z</time></trkpt><trkpt lat="36.7411465" lon="-3.6842039"><ele>14.000000000000002</ele><time>2026-03-07T12:18:24.994Z</time></trkpt><trkpt lat="36.7410695" lon="-3.6842879"><ele>14.0</ele><time>2026-03-07T12:18:27.009Z</time></trkpt><trkpt lat="36.7410125" lon="-3.6843543"><ele>13.5</ele><time>2026-03-07T12:18:27.995Z</time></trkpt><trkpt lat="36.7409401" lon="-3.6844453"><ele>13.0</ele><time>2026-03-07T12:18:28.991Z</time></trkpt><trkpt lat="36.7408517" lon="-3.6845556"><ele>12.5</ele><time>2026-03-07T12:18:29.991Z</time></trkpt><trkpt lat="36.7407535" lon="-3.684663"><ele>12.0</ele><time>2026-03-07T12:18:31.016Z</time></trkpt><trkpt lat="36.7406508" lon="-3.6847611"><ele>12.0</ele><time>2026-03-07T12:18:31.986Z</time></trkpt><trkpt lat="36.7405448" lon="-3.6848503"><ele>12.0</ele><time>2026-03-07T12:18:32.984Z</time></trkpt><trkpt lat="36.7404381" lon="-3.6849423"><ele>12.0</ele><time>2026-03-07T12:18:34.032Z</time></trkpt><trkpt lat="36.7403431" lon="-3.6850247"><ele>12.0</ele><time>2026-03-07T12:18:34.996Z</time></trkpt><trkpt lat="36.7402437" lon="-3.6850929"><ele>12.0</ele><time>2026-03-07T12:18:36.015Z</time></trkpt><trkpt lat="36.7401325" lon="-3.6851328"><ele>12.0</ele><time>2026-03-07T12:18:37.009Z</time></trkpt><trkpt lat="36.7400274" lon="-3.6851741"><ele>12.0</ele><time>2026-03-07T12:18:38Z</time></trkpt><trkpt lat="36.739932" lon="-3.6852241"><ele>12.0</ele><time>2026-03-07T12:18:39.006Z</time></trkpt><trkpt lat="36.7398537" lon="-3.6852843"><ele>12.0</ele><time>2026-03-07T12:18:39.989Z</time></trkpt><trkpt lat="36.7397885" lon="-3.6853514"><ele>12.399999999999999</ele><time>2026-03-07T12:18:40.988Z</time></trkpt><trkpt lat="36.7397424" lon="-3.6854383"><ele>12.799999999999999</ele><time>2026-03-07T12:18:41.999Z</time></trkpt><trkpt lat="36.7396957" lon="-3.6855402"><ele>13.2</ele><time>2026-03-07T12:18:43.019Z</time></trkpt><trkpt lat="36.7396146" lon="-3.6856427"><ele>13.6</ele><time>2026-03-07T12:18:43.974Z</time></trkpt><trkpt lat="36.7395203" lon="-3.6857485"><ele>14.0</ele><time>2026-03-07T12:18:45.017Z</time></trkpt><trkpt lat="36.7394229" lon="-3.6858556"><ele>13.75</ele><time>2026-03-07T12:18:45.988Z</time></trkpt><trkpt lat="36.73933" lon="-3.6859644"><ele>13.5</ele><time>2026-03-07T12:18:47.003Z</time></trkpt><trkpt lat="36.7392359" lon="-3.6860594"><ele>13.25</ele><time>2026-03-07T12:18:47.999Z</time></trkpt><trkpt lat="36.7391551" lon="-3.686165"><ele>13.0</ele><time>2026-03-07T12:18:48.993Z</time></trkpt><trkpt lat="36.7390739" lon="-3.6862676"><ele>13.0</ele><time>2026-03-07T12:18:50.009Z</time></trkpt><trkpt lat="36.7389883" lon="-3.6863614"><ele>13.0</ele><time>2026-03-07T12:18:51.031Z</time></trkpt><trkpt lat="36.7389087" lon="-3.6864397"><ele>13.0</ele><time>2026-03-07T12:18:51.998Z</time></trkpt><trkpt lat="36.7388166" lon="-3.6864888"><ele>13.0</ele><time>2026-03-07T12:18:53.047Z</time></trkpt><trkpt lat="36.7387095" lon="-3.6865171"><ele>13.0</ele><time>2026-03-07T12:18:54.008Z</time></trkpt><trkpt lat="36.738598" lon="-3.6865392"><ele>12.600000000000001</ele><time>2026-03-07T12:18:54.985Z</time></trkpt><trkpt lat="36.7384959" lon="-3.6865458"><ele>12.200000000000001</ele><time>2026-03-07T12:18:56.001Z</time></trkpt><trkpt lat="36.7384108" lon="-3.6865581"><ele>11.8</ele><time>2026-03-07T12:18:57.001Z</time></trkpt><trkpt lat="36.7383358" lon="-3.6866"><ele>11.4</ele><time>2026-03-07T12:18:58.018Z</time></trkpt><trkpt lat="36.7382594" lon="-3.6866617"><ele>11.0</ele><time>2026-03-07T12:18:59.006Z</time></trkpt><trkpt lat="36.7381684" lon="-3.6867204"><ele>11.0</ele><time>2026-03-07T12:19:00.037Z</time></trkpt><trkpt lat="36.7380695" lon="-3.6867898"><ele>11.0</ele><time>2026-03-07T12:19:01.001Z</time></trkpt><trkpt lat="36.7379661" lon="-3.6868464"><ele>11.0</ele><time>2026-03-07T12:19:02.023Z</time></trkpt><trkpt lat="36.7378607" lon="-3.6869102"><ele>11.0</ele><time>2026-03-07T12:19:03.006Z</time></trkpt><trkpt lat="36.7377487" lon="-3.6869691"><ele>11.200000000000001</ele><time>2026-03-07T12:19:03.977Z</time></trkpt><trkpt lat="36.7376455" lon="-3.6870293"><ele>11.4</ele><time>2026-03-07T12:19:05.023Z</time></trkpt><trkpt lat="36.7375525" lon="-3.6870806"><ele>11.6</ele><time>2026-03-07T12:19:06.03Z</time></trkpt><trkpt lat="36.7374716" lon="-3.687128"><ele>11.8</ele><time>2026-03-07T12:19:07.039Z</time></trkpt><trkpt lat="36.7373998" lon="-3.687167"><ele>12.0</ele><time>2026-03-07T12:19:08.046Z</time></trkpt><trkpt lat="36.7373205" lon="-3.687221"><ele>12.0</ele><time>2026-03-07T12:19:10.02Z</time></trkpt><trkpt lat="36.7372131" lon="-3.6871711"><ele>12.0</ele><time>2026-03-07T12:19:19.056Z</time></trkpt><trkpt lat="36.737142" lon="-3.6870687"><ele>12.0</ele><time>2026-03-07T12:19:45.038Z</time></trkpt><trkpt lat="36.73706" lon="-3.6871329"><ele>12.0</ele><time>2026-03-07T12:21:11.009Z</time></trkpt><trkpt lat="36.7370045" lon="-3.6871831"><ele>12.0</ele><time>2026-03-07T12:24:53.997Z</time></trkpt><trkpt lat="36.7370629" lon="-3.6872267"><ele>12.0</ele><time>2026-03-07T12:26:34.034Z</time></trkpt><trkpt lat="36.7369923" lon="-3.6871621"><ele>12.0</ele><time>2026-03-07T12:27:31.994Z</time></trkpt><trkpt lat="36.7369555" lon="-3.6872521"><ele>12.0</ele><time>2026-03-07T12:27:37.99Z</time></trkpt><trkpt lat="36.7369793" lon="-3.6873336"><ele>12.0</ele><time>2026-03-07T12:27:41.021Z</time></trkpt><trkpt lat="36.7370022" lon="-3.6874182"><ele>12.0</ele><time>2026-03-07T12:27:43.999Z</time></trkpt><trkpt lat="36.7370316" lon="-3.6875102"><ele>12.0</ele><time>2026-03-07T12:27:48.058Z</time></trkpt><trkpt lat="36.7370512" lon="-3.6876098"><ele>12.0</ele><time>2026-03-07T12:27:50.022Z</time></trkpt><trkpt lat="36.7370669" lon="-3.6877141"><ele>12.0</ele><time>2026-03-07T12:27:52.011Z</time></trkpt><trkpt lat="36.7370872" lon="-3.6878185"><ele>12.0</ele><time>2026-03-07T12:27:54.019Z</time></trkpt><trkpt lat="36.7371068" lon="-3.6879102"><ele>12.0</ele><time>2026-03-07T12:27:56.026Z</time></trkpt><trkpt lat="36.7371252" lon="-3.6880263"><ele>12.0</ele><time>2026-03-07T12:27:58.033Z</time></trkpt><trkpt lat="36.7371366" lon="-3.6881098"><ele>12.0</ele><time>2026-03-07T12:27:59Z</time></trkpt><trkpt lat="36.7371613" lon="-3.688227"><ele>12.6</ele><time>2026-03-07T12:28:01.009Z</time></trkpt><trkpt lat="36.7371342" lon="-3.6883207"><ele>13.2</ele><time>2026-03-07T12:28:46.069Z</time></trkpt><trkpt lat="36.7370678" lon="-3.6883849"><ele>13.8</ele><time>2026-03-07T12:28:49.051Z</time></trkpt><trkpt lat="36.7369806" lon="-3.6883878"><ele>14.4</ele><time>2026-03-07T12:28:51.036Z</time></trkpt><trkpt lat="36.7369261" lon="-3.6882958"><ele>15.0</ele><time>2026-03-07T12:28:53.991Z</time></trkpt><trkpt lat="36.7369286" lon="-3.6881295"><ele>15.0</ele><time>2026-03-07T12:28:56.033Z</time></trkpt><trkpt lat="36.7369349" lon="-3.6880418"><ele>15.0</ele><time>2026-03-07T12:28:57.011Z</time></trkpt><trkpt lat="36.7369376" lon="-3.6879516"><ele>15.0</ele><time>2026-03-07T12:28:58.042Z</time></trkpt><trkpt lat="36.7369348" lon="-3.6878577"><ele>15.0</ele><time>2026-03-07T12:28:59.001Z</time></trkpt><trkpt lat="36.7369245" lon="-3.6877526"><ele>15.0</ele><time>2026-03-07T12:29:00.01Z</time></trkpt><trkpt lat="36.7369109" lon="-3.6876506"><ele>15.0</ele><time>2026-03-07T12:29:01.019Z</time></trkpt><trkpt lat="36.7368907" lon="-3.6875533"><ele>14.714285714285715</ele><time>2026-03-07T12:29:02.008Z</time></trkpt><trkpt lat="36.7368717" lon="-3.6874526"><ele>14.428571428571427</ele><time>2026-03-07T12:29:03.012Z</time></trkpt><trkpt lat="36.7368588" lon="-3.6873711"><ele>14.142857142857142</ele><time>2026-03-07T12:29:04.011Z</time></trkpt><trkpt lat="36.7368443" lon="-3.6872762"><ele>13.857142857142858</ele><time>2026-03-07T12:29:05.017Z</time></trkpt><trkpt lat="36.7368316" lon="-3.6871848"><ele>13.571428571428573</ele><time>2026-03-07T12:29:05.998Z</time></trkpt><trkpt lat="36.7368147" lon="-3.6870947"><ele>13.285714285714285</ele><time>2026-03-07T12:29:07.006Z</time></trkpt><trkpt lat="36.7367951" lon="-3.6870172"><ele>13.0</ele><time>2026-03-07T12:29:08.005Z</time></trkpt><trkpt lat="36.7367779" lon="-3.6869234"><ele>12.666666666666666</ele><time>2026-03-07T12:29:10.022Z</time></trkpt><trkpt lat="36.7367605" lon="-3.6868267"><ele>12.333333333333332</ele><time>2026-03-07T12:29:12.004Z</time></trkpt><trkpt lat="36.7367511" lon="-3.686747"><ele>12.0</ele><time>2026-03-07T12:29:14.013Z</time></trkpt><trkpt lat="36.7367381" lon="-3.68667"><ele>11.666666666666666</ele><time>2026-03-07T12:29:17.003Z</time></trkpt><trkpt lat="36.7367137" lon="-3.6865378"><ele>11.333333333333332</ele><time>2026-03-07T12:29:19.999Z</time></trkpt><trkpt lat="36.7366865" lon="-3.6863886"><ele>11.0</ele><time>2026-03-07T12:29:21.999Z</time></trkpt><trkpt lat="36.7366698" lon="-3.686295"><ele>11.0</ele><time>2026-03-07T12:29:23Z</time></trkpt><trkpt lat="36.7366511" lon="-3.6861882"><ele>11.0</ele><time>2026-03-07T12:29:24.003Z</time></trkpt><trkpt lat="36.7366288" lon="-3.6860554"><ele>11.0</ele><time>2026-03-07T12:29:24.99Z</time></trkpt><trkpt lat="36.7366061" lon="-3.6859088"><ele>11.0</ele><time>2026-03-07T12:29:25.998Z</time></trkpt><trkpt lat="36.7365817" lon="-3.6857462"><ele>11.0</ele><time>2026-03-07T12:29:27.046Z</time></trkpt><trkpt lat="36.7365559" lon="-3.6855718"><ele>11.0</ele><time>2026-03-07T12:29:28.046Z</time></trkpt><trkpt lat="36.7365279" lon="-3.685397"><ele>11.0</ele><time>2026-03-07T12:29:29.047Z</time></trkpt><trkpt lat="36.7365007" lon="-3.6852352"><ele>11.0</ele><time>2026-03-07T12:29:30.038Z</time></trkpt><trkpt lat="36.7364812" lon="-3.685089"><ele>11.0</ele><time>2026-03-07T12:29:31.037Z</time></trkpt><trkpt lat="36.7364604" lon="-3.6849619"><ele>11.0</ele><time>2026-03-07T12:29:32.044Z</time></trkpt><trkpt lat="36.73644" lon="-3.6848488"><ele>11.0</ele><time>2026-03-07T12:29:33.035Z</time></trkpt><trkpt lat="36.7364228" lon="-3.684749"><ele>11.0</ele><time>2026-03-07T12:29:34.001Z</time></trkpt><trkpt lat="36.7364082" lon="-3.6846699"><ele>11.0</ele><time>2026-03-07T12:29:35.022Z</time></trkpt><trkpt lat="36.7363856" lon="-3.684545"><ele>11.0</ele><time>2026-03-07T12:29:37.01Z</time></trkpt><trkpt lat="36.7363597" lon="-3.6844324"><ele>11.0</ele><time>2026-03-07T12:29:39.034Z</time></trkpt><trkpt lat="36.7363418" lon="-3.6843384"><ele>10.666666666666666</ele><time>2026-03-07T12:29:41.04Z</time></trkpt><trkpt lat="36.7363222" lon="-3.684258"><ele>10.333333333333332</ele><time>2026-03-07T12:30:23.037Z</time></trkpt><trkpt lat="36.7363086" lon="-3.6841738"><ele>10.0</ele><time>2026-03-07T12:30:25.037Z</time></trkpt><trkpt lat="36.7362541" lon="-3.684068"><ele>9.666666666666666</ele><time>2026-03-07T12:30:26.99Z</time></trkpt><trkpt lat="36.7361636" lon="-3.6840045"><ele>9.333333333333334</ele><time>2026-03-07T12:30:28.99Z</time></trkpt><trkpt lat="36.7361017" lon="-3.6839799"><ele>9.0</ele><time>2026-03-07T12:30:31.016Z</time></trkpt><trkpt lat="36.7360302" lon="-3.6839678"><ele>8.833333333333334</ele><time>2026-03-07T12:30:34.011Z</time></trkpt><trkpt lat="36.7359515" lon="-3.6839727"><ele>8.666666666666666</ele><time>2026-03-07T12:30:56.011Z</time></trkpt><trkpt lat="36.7358588" lon="-3.6840124"><ele>8.5</ele><time>2026-03-07T12:30:58.067Z</time></trkpt><trkpt lat="36.7357675" lon="-3.6840506"><ele>8.333333333333332</ele><time>2026-03-07T12:31:00.019Z</time></trkpt><trkpt lat="36.7356867" lon="-3.6840693"><ele>8.166666666666666</ele><time>2026-03-07T12:31:02.075Z</time></trkpt><trkpt lat="36.7356122" lon="-3.6840609"><ele>8.0</ele><time>2026-03-07T12:31:04.032Z</time></trkpt><trkpt lat="36.7355212" lon="-3.6839359"><ele>7.999999999999999</ele><time>2026-03-07T12:31:06.005Z</time></trkpt><trkpt lat="36.735482" lon="-3.683851"><ele>8.0</ele><time>2026-03-07T12:31:07.003Z</time></trkpt><trkpt lat="36.7354458" lon="-3.6837642"><ele>8.0</ele><time>2026-03-07T12:31:07.996Z</time></trkpt><trkpt lat="36.7354127" lon="-3.683674"><ele>8.0</ele><time>2026-03-07T12:31:09.009Z</time></trkpt><trkpt lat="36.7353794" lon="-3.6835824"><ele>7.999999999999999</ele><time>2026-03-07T12:31:10.04Z</time></trkpt><trkpt lat="36.7353467" lon="-3.6834816"><ele>8.0</ele><time>2026-03-07T12:31:10.996Z</time></trkpt><trkpt lat="36.7353148" lon="-3.6833798"><ele>8.166666666666666</ele><time>2026-03-07T12:31:12.024Z</time></trkpt><trkpt lat="36.7352862" lon="-3.6832799"><ele>8.333333333333332</ele><time>2026-03-07T12:31:13.015Z</time></trkpt><trkpt lat="36.7352546" lon="-3.6831901"><ele>8.5</ele><time>2026-03-07T12:31:14.01Z</time></trkpt><trkpt lat="36.7352182" lon="-3.6830987"><ele>8.666666666666666</ele><time>2026-03-07T12:31:15.023Z</time></trkpt><trkpt lat="36.7351738" lon="-3.683007"><ele>8.833333333333334</ele><time>2026-03-07T12:31:16.019Z</time></trkpt><trkpt lat="36.7351168" lon="-3.6829311"><ele>9.0</ele><time>2026-03-07T12:31:17.016Z</time></trkpt><trkpt lat="36.7350509" lon="-3.6828686"><ele>9.0</ele><time>2026-03-07T12:31:18.019Z</time></trkpt><trkpt lat="36.7349705" lon="-3.6828321"><ele>9.0</ele><time>2026-03-07T12:31:19.001Z</time></trkpt><trkpt lat="36.7348849" lon="-3.6828011"><ele>9.0</ele><time>2026-03-07T12:31:20.018Z</time></trkpt><trkpt lat="36.7347931" lon="-3.6827847"><ele>9.0</ele><time>2026-03-07T12:31:21.038Z</time></trkpt><trkpt lat="36.7347021" lon="-3.682776"><ele>9.0</ele><time>2026-03-07T12:31:22.016Z</time></trkpt><trkpt lat="36.7346008" lon="-3.682792"><ele>9.0</ele><time>2026-03-07T12:31:23.018Z</time></trkpt><trkpt lat="36.7345031" lon="-3.6828318"><ele>9.0</ele><time>2026-03-07T12:31:24.001Z</time></trkpt><trkpt lat="36.734398" lon="-3.6828898"><ele>9.0</ele><time>2026-03-07T12:31:25.01Z</time></trkpt><trkpt lat="36.7342927" lon="-3.6829532"><ele>9.0</ele><time>2026-03-07T12:31:26.008Z</time></trkpt><trkpt lat="36.7341924" lon="-3.6830154"><ele>9.0</ele><time>2026-03-07T12:31:27.024Z</time></trkpt><trkpt lat="36.7341004" lon="-3.6830746"><ele>8.6</ele><time>2026-03-07T12:31:28.012Z</time></trkpt><trkpt lat="36.734016" lon="-3.6831284"><ele>8.2</ele><time>2026-03-07T12:31:29.025Z</time></trkpt><trkpt lat="36.7339313" lon="-3.6831839"><ele>7.799999999999999</ele><time>2026-03-07T12:31:30.015Z</time></trkpt><trkpt lat="36.7338436" lon="-3.6832392"><ele>7.3999999999999995</ele><time>2026-03-07T12:31:31.04Z</time></trkpt><trkpt lat="36.7337562" lon="-3.6832937"><ele>7.0</ele><time>2026-03-07T12:31:32.008Z</time></trkpt><trkpt lat="36.7336703" lon="-3.6833502"><ele>7.000000000000001</ele><time>2026-03-07T12:31:33.046Z</time></trkpt><trkpt lat="36.7335845" lon="-3.683406"><ele>7.0</ele><time>2026-03-07T12:31:34.034Z</time></trkpt><trkpt lat="36.7335006" lon="-3.6834573"><ele>7.0</ele><time>2026-03-07T12:31:35.011Z</time></trkpt><trkpt lat="36.7334228" lon="-3.6835049"><ele>7.0</ele><time>2026-03-07T12:31:35.983Z</time></trkpt><trkpt lat="36.7333488" lon="-3.6835502"><ele>7.000000000000001</ele><time>2026-03-07T12:31:37.024Z</time></trkpt><trkpt lat="36.7332784" lon="-3.6835934"><ele>7.0</ele><time>2026-03-07T12:31:38.03Z</time></trkpt><trkpt lat="36.7332101" lon="-3.6836336"><ele>6.500000000000001</ele><time>2026-03-07T12:31:39.004Z</time></trkpt><trkpt lat="36.7331452" lon="-3.6836725"><ele>6.0</ele><time>2026-03-07T12:31:39.996Z</time></trkpt><trkpt lat="36.7330414" lon="-3.6837318"><ele>5.5</ele><time>2026-03-07T12:31:42.04Z</time></trkpt><trkpt lat="36.7329617" lon="-3.6837774"><ele>5.0</ele><time>2026-03-07T12:31:44.038Z</time></trkpt><trkpt lat="36.7328806" lon="-3.6838249"><ele>4.5</ele><time>2026-03-07T12:31:47.021Z</time></trkpt><trkpt lat="36.7328085" lon="-3.6838594"><ele>4.0</ele><time>2026-03-07T12:31:50.012Z</time></trkpt><trkpt lat="36.732722" lon="-3.6838029"><ele>3.833333333333333</ele><time>2026-03-07T12:31:52.011Z</time></trkpt><trkpt lat="36.7326899" lon="-3.6837196"><ele>3.6666666666666665</ele><time>2026-03-07T12:31:53.042Z</time></trkpt><trkpt lat="36.7326579" lon="-3.6836339"><ele>3.5</ele><time>2026-03-07T12:31:54.031Z</time></trkpt><trkpt lat="36.7326305" lon="-3.6835483"><ele>3.333333333333333</ele><time>2026-03-07T12:31:55.035Z</time></trkpt><trkpt lat="36.7326023" lon="-3.6834554"><ele>3.1666666666666665</ele><time>2026-03-07T12:31:56.021Z</time></trkpt><trkpt lat="36.7325731" lon="-3.6833593"><ele>3.0</ele><time>2026-03-07T12:31:57.032Z</time></trkpt><trkpt lat="36.7325454" lon="-3.6832561"><ele>3.5</ele><time>2026-03-07T12:31:58.009Z</time></trkpt><trkpt lat="36.7325238" lon="-3.6831591"><ele>4.0</ele><time>2026-03-07T12:31:59.035Z</time></trkpt><trkpt lat="36.7325015" lon="-3.6830691"><ele>4.5</ele><time>2026-03-07T12:32:00.078Z</time></trkpt><trkpt lat="36.7324737" lon="-3.6829708"><ele>5.0</ele><time>2026-03-07T12:32:00.999Z</time></trkpt><trkpt lat="36.732447" lon="-3.6828749"><ele>5.5</ele><time>2026-03-07T12:32:02.019Z</time></trkpt><trkpt lat="36.7324223" lon="-3.6827813"><ele>6.0</ele><time>2026-03-07T12:32:03.052Z</time></trkpt><trkpt lat="36.732384" lon="-3.6827014"><ele>7.0</ele><time>2026-03-07T12:32:04.026Z</time></trkpt><trkpt lat="36.7323309" lon="-3.6826429"><ele>8.0</ele><time>2026-03-07T12:32:05.003Z</time></trkpt><trkpt lat="36.7322655" lon="-3.6826107"><ele>9.0</ele><time>2026-03-07T12:32:05.997Z</time></trkpt><trkpt lat="36.7322024" lon="-3.6825714"><ele>10.0</ele><time>2026-03-07T12:32:07.028Z</time></trkpt><trkpt lat="36.732133" lon="-3.6825391"><ele>11.0</ele><time>2026-03-07T12:32:08Z</time></trkpt><trkpt lat="36.7320134" lon="-3.6825288"><ele>12.0</ele><time>2026-03-07T12:32:09.989Z</time></trkpt><trkpt lat="36.7319448" lon="-3.6825273"><ele>12.142857142857142</ele><time>2026-03-07T12:32:11.02Z</time></trkpt><trkpt lat="36.7318758" lon="-3.6825391"><ele>12.285714285714285</ele><time>2026-03-07T12:32:12.02Z</time></trkpt><trkpt lat="36.7318047" lon="-3.6825386"><ele>12.428571428571427</ele><time>2026-03-07T12:32:12.997Z</time></trkpt><trkpt lat="36.7317386" lon="-3.682535"><ele>12.571428571428571</ele><time>2026-03-07T12:32:13.999Z</time></trkpt><trkpt lat="36.731667" lon="-3.6825205"><ele>12.714285714285715</ele><time>2026-03-07T12:32:15.023Z</time></trkpt><trkpt lat="36.7315909" lon="-3.6825234"><ele>12.857142857142856</ele><time>2026-03-07T12:32:16.052Z</time></trkpt><trkpt lat="36.7315055" lon="-3.6825234"><ele>13.0</ele><time>2026-03-07T12:32:16.988Z</time></trkpt><trkpt lat="36.73143" lon="-3.6825216"><ele>12.999999999999998</ele><time>2026-03-07T12:32:18.04Z</time></trkpt><trkpt lat="36.7313667" lon="-3.6825335"><ele>13.0</ele><time>2026-03-07T12:32:19.006Z</time></trkpt><trkpt lat="36.7312582" lon="-3.6825482"><ele>13.0</ele><time>2026-03-07T12:32:20.993Z</time></trkpt><trkpt lat="36.7311675" lon="-3.6825701"><ele>13.0</ele><time>2026-03-07T12:32:23.025Z</time></trkpt><trkpt lat="36.7310901" lon="-3.6825849"><ele>12.999999999999998</ele><time>2026-03-07T12:32:26.026Z</time></trkpt><trkpt lat="36.7310233" lon="-3.6826015"><ele>13.0</ele><time>2026-03-07T12:32:36.996Z</time></trkpt><trkpt lat="36.7309744" lon="-3.6825137"><ele>13.166666666666666</ele><time>2026-03-07T12:32:40.009Z</time></trkpt><trkpt lat="36.7309611" lon="-3.6823556"><ele>13.333333333333332</ele><time>2026-03-07T12:32:41.995Z</time></trkpt><trkpt lat="36.7309449" lon="-3.6822658"><ele>13.5</ele><time>2026-03-07T12:32:43.005Z</time></trkpt><trkpt lat="36.7309273" lon="-3.6821756"><ele>13.666666666666668</ele><time>2026-03-07T12:32:43.999Z</time></trkpt><trkpt lat="36.7309077" lon="-3.6820885"><ele>13.833333333333334</ele><time>2026-03-07T12:32:44.998Z</time></trkpt><trkpt lat="36.7308833" lon="-3.6820052"><ele>14.0</ele><time>2026-03-07T12:32:45.999Z</time></trkpt><trkpt lat="36.7308607" lon="-3.6819285"><ele>14.0</ele><time>2026-03-07T12:32:47.008Z</time></trkpt><trkpt lat="36.7308379" lon="-3.6818492"><ele>14.0</ele><time>2026-03-07T12:32:47.986Z</time></trkpt><trkpt lat="36.7308147" lon="-3.6817755"><ele>14.0</ele><time>2026-03-07T12:32:49Z</time></trkpt><trkpt lat="36.7307912" lon="-3.6817003"><ele>14.0</ele><time>2026-03-07T12:32:50.001Z</time></trkpt><trkpt lat="36.7307675" lon="-3.6816253"><ele>14.0</ele><time>2026-03-07T12:32:50.999Z</time></trkpt><trkpt lat="36.7307461" lon="-3.6815481"><ele>14.0</ele><time>2026-03-07T12:32:51.998Z</time></trkpt><trkpt lat="36.7307221" lon="-3.681474"><ele>14.0</ele><time>2026-03-07T12:32:52.981Z</time></trkpt><trkpt lat="36.7306938" lon="-3.6813989"><ele>14.0</ele><time>2026-03-07T12:32:53.999Z</time></trkpt><trkpt lat="36.7306636" lon="-3.6813182"><ele>14.0</ele><time>2026-03-07T12:32:55.004Z</time></trkpt><trkpt lat="36.7306341" lon="-3.6812321"><ele>14.0</ele><time>2026-03-07T12:32:56.005Z</time></trkpt><trkpt lat="36.7306051" lon="-3.6811473"><ele>14.0</ele><time>2026-03-07T12:32:57Z</time></trkpt><trkpt lat="36.7305745" lon="-3.6810659"><ele>14.0</ele><time>2026-03-07T12:32:57.993Z</time></trkpt><trkpt lat="36.7305487" lon="-3.6809775"><ele>14.0</ele><time>2026-03-07T12:32:58.99Z</time></trkpt><trkpt lat="36.7305214" lon="-3.6808858"><ele>14.0</ele><time>2026-03-07T12:32:59.996Z</time></trkpt><trkpt lat="36.7304979" lon="-3.6807957"><ele>15.500000000000002</ele><time>2026-03-07T12:33:01.006Z</time></trkpt><trkpt lat="36.7304735" lon="-3.6807058"><ele>17.0</ele><time>2026-03-07T12:33:01.998Z</time></trkpt><trkpt lat="36.7304496" lon="-3.6806159"><ele>18.5</ele><time>2026-03-07T12:33:02.995Z</time></trkpt><trkpt lat="36.7304305" lon="-3.6805162"><ele>20.0</ele><time>2026-03-07T12:33:04.009Z</time></trkpt><trkpt lat="36.7304151" lon="-3.6804091"><ele>21.5</ele><time>2026-03-07T12:33:05.002Z</time></trkpt><trkpt lat="36.7303904" lon="-3.6803093"><ele>23.0</ele><time>2026-03-07T12:33:06.003Z</time></trkpt><trkpt lat="36.7303733" lon="-3.6802107"><ele>21.333333333333336</ele><time>2026-03-07T12:33:06.987Z</time></trkpt><trkpt lat="36.7303428" lon="-3.680114"><ele>19.666666666666668</ele><time>2026-03-07T12:33:08.008Z</time></trkpt><trkpt lat="36.7303174" lon="-3.6800158"><ele>18.0</ele><time>2026-03-07T12:33:08.996Z</time></trkpt><trkpt lat="36.7302902" lon="-3.679911"><ele>16.333333333333332</ele><time>2026-03-07T12:33:10.002Z</time></trkpt><trkpt lat="36.7302598" lon="-3.6798145"><ele>14.666666666666666</ele><time>2026-03-07T12:33:10.992Z</time></trkpt><trkpt lat="36.730236" lon="-3.6797213"><ele>13.0</ele><time>2026-03-07T12:33:11.998Z</time></trkpt><trkpt lat="36.730219" lon="-3.6796269"><ele>12.999999999999998</ele><time>2026-03-07T12:33:12.992Z</time></trkpt><trkpt lat="36.7302012" lon="-3.6795245"><ele>13.0</ele><time>2026-03-07T12:33:14.003Z</time></trkpt><trkpt lat="36.7301822" lon="-3.6794208"><ele>13.0</ele><time>2026-03-07T12:33:15.005Z</time></trkpt><trkpt lat="36.730168" lon="-3.6793213"><ele>13.0</ele><time>2026-03-07T12:33:15.992Z</time></trkpt><trkpt lat="36.7301616" lon="-3.6792278"><ele>12.999999999999998</ele><time>2026-03-07T12:33:17.003Z</time></trkpt><trkpt lat="36.7301507" lon="-3.679141"><ele>13.0</ele><time>2026-03-07T12:33:17.99Z</time></trkpt><trkpt lat="36.7301522" lon="-3.6790496"><ele>12.714285714285714</ele><time>2026-03-07T12:33:19.004Z</time></trkpt><trkpt lat="36.7301405" lon="-3.6789621"><ele>12.428571428571429</ele><time>2026-03-07T12:33:20.002Z</time></trkpt><trkpt lat="36.7301302" lon="-3.6788793"><ele>12.142857142857142</ele><time>2026-03-07T12:33:20.994Z</time></trkpt><trkpt lat="36.7301217" lon="-3.6787993"><ele>11.857142857142858</ele><time>2026-03-07T12:33:22.006Z</time></trkpt><trkpt lat="36.7301192" lon="-3.6787185"><ele>11.571428571428571</ele><time>2026-03-07T12:33:23.003Z</time></trkpt><trkpt lat="36.7301124" lon="-3.6786368"><ele>11.285714285714286</ele><time>2026-03-07T12:33:24.006Z</time></trkpt><trkpt lat="36.7301095" lon="-3.6785565"><ele>11.0</ele><time>2026-03-07T12:33:24.996Z</time></trkpt><trkpt lat="36.7301074" lon="-3.6784055"><ele>11.0</ele><time>2026-03-07T12:33:26.988Z</time></trkpt><trkpt lat="36.7301017" lon="-3.6783249"><ele>11.0</ele><time>2026-03-07T12:33:27.997Z</time></trkpt><trkpt lat="36.7300989" lon="-3.6782361"><ele>11.0</ele><time>2026-03-07T12:33:29Z</time></trkpt><trkpt lat="36.7300957" lon="-3.6781396"><ele>11.0</ele><time>2026-03-07T12:33:30.004Z</time></trkpt><trkpt lat="36.7300888" lon="-3.6780393"><ele>11.0</ele><time>2026-03-07T12:33:31.008Z</time></trkpt><trkpt lat="36.7300894" lon="-3.6779426"><ele>11.0</ele><time>2026-03-07T12:33:31.99Z</time></trkpt><trkpt lat="36.7300863" lon="-3.6778498"><ele>11.0</ele><time>2026-03-07T12:33:33.016Z</time></trkpt><trkpt lat="36.7300945" lon="-3.6777553"><ele>11.0</ele><time>2026-03-07T12:33:33.994Z</time></trkpt><trkpt lat="36.7301013" lon="-3.6776664"><ele>11.0</ele><time>2026-03-07T12:33:34.994Z</time></trkpt><trkpt lat="36.7301169" lon="-3.6775855"><ele>11.0</ele><time>2026-03-07T12:33:36.001Z</time></trkpt><trkpt lat="36.7301371" lon="-3.6775095"><ele>11.0</ele><time>2026-03-07T12:33:36.993Z</time></trkpt><trkpt lat="36.7301861" lon="-3.6773717"><ele>11.0</ele><time>2026-03-07T12:33:38.984Z</time></trkpt><trkpt lat="36.7302437" lon="-3.6772302"><ele>12.285714285714286</ele><time>2026-03-07T12:33:41.002Z</time></trkpt><trkpt lat="36.7302818" lon="-3.6771574"><ele>13.571428571428571</ele><time>2026-03-07T12:33:42.002Z</time></trkpt><trkpt lat="36.7303218" lon="-3.6770862"><ele>14.857142857142858</ele><time>2026-03-07T12:33:42.988Z</time></trkpt><trkpt lat="36.730363" lon="-3.6770188"><ele>16.142857142857142</ele><time>2026-03-07T12:33:44.003Z</time></trkpt><trkpt lat="36.7303969" lon="-3.6769521"><ele>17.42857142857143</ele><time>2026-03-07T12:33:45.006Z</time></trkpt><trkpt lat="36.7304352" lon="-3.6768846"><ele>18.714285714285715</ele><time>2026-03-07T12:33:45.993Z</time></trkpt><trkpt lat="36.7304795" lon="-3.6768155"><ele>20.0</ele><time>2026-03-07T12:33:46.992Z</time></trkpt><trkpt lat="36.7305284" lon="-3.6767504"><ele>20.0</ele><time>2026-03-07T12:33:48.005Z</time></trkpt><trkpt lat="36.7305712" lon="-3.676679"><ele>20.0</ele><time>2026-03-07T12:33:49Z</time></trkpt><trkpt lat="36.730613" lon="-3.6766177"><ele>20.0</ele><time>2026-03-07T12:33:49.991Z</time></trkpt><trkpt lat="36.7306879" lon="-3.676499"><ele>20.0</ele><time>2026-03-07T12:33:52Z</time></trkpt><trkpt lat="36.7307623" lon="-3.676371"><ele>20.0</ele><time>2026-03-07T12:33:53.993Z</time></trkpt><trkpt lat="36.7308051" lon="-3.6763079"><ele>20.0</ele><time>2026-03-07T12:33:54.995Z</time></trkpt><trkpt lat="36.7308478" lon="-3.6762402"><ele>20.0</ele><time>2026-03-07T12:33:55.996Z</time></trkpt><trkpt lat="36.7308922" lon="-3.6761732"><ele>20.0</ele><time>2026-03-07T12:33:57.003Z</time></trkpt><trkpt lat="36.7309333" lon="-3.6761063"><ele>20.0</ele><time>2026-03-07T12:33:58.005Z</time></trkpt><trkpt lat="36.7309683" lon="-3.6760346"><ele>20.0</ele><time>2026-03-07T12:33:58.989Z</time></trkpt><trkpt lat="36.7310387" lon="-3.675914"><ele>20.0</ele><time>2026-03-07T12:34:00.993Z</time></trkpt><trkpt lat="36.7311114" lon="-3.6757962"><ele>21.833333333333336</ele><time>2026-03-07T12:34:03.006Z</time></trkpt><trkpt lat="36.7311505" lon="-3.6757318"><ele>23.666666666666668</ele><time>2026-03-07T12:34:04Z</time></trkpt><trkpt lat="36.7311868" lon="-3.6756625"><ele>25.5</ele><time>2026-03-07T12:34:04.998Z</time></trkpt><trkpt lat="36.731251" lon="-3.6755358"><ele>27.333333333333336</ele><time>2026-03-07T12:34:06.999Z</time></trkpt><trkpt lat="36.7313097" lon="-3.6754152"><ele>29.166666666666668</ele><time>2026-03-07T12:34:08.999Z</time></trkpt><trkpt lat="36.7313467" lon="-3.6753496"><ele>31.0</ele><time>2026-03-07T12:34:10.002Z</time></trkpt><trkpt lat="36.7313906" lon="-3.6752887"><ele>28.28571428571429</ele><time>2026-03-07T12:34:10.99Z</time></trkpt><trkpt lat="36.7314362" lon="-3.6752186"><ele>25.571428571428573</ele><time>2026-03-07T12:34:11.984Z</time></trkpt><trkpt lat="36.7314802" lon="-3.6751465"><ele>22.857142857142858</ele><time>2026-03-07T12:34:12.999Z</time></trkpt><trkpt lat="36.7315244" lon="-3.6750735"><ele>20.142857142857142</ele><time>2026-03-07T12:34:14.008Z</time></trkpt><trkpt lat="36.7315691" lon="-3.6750072"><ele>17.42857142857143</ele><time>2026-03-07T12:34:15.005Z</time></trkpt><trkpt lat="36.7316132" lon="-3.6749433"><ele>14.714285714285714</ele><time>2026-03-07T12:34:16.002Z</time></trkpt><trkpt lat="36.7316569" lon="-3.674883"><ele>12.0</ele><time>2026-03-07T12:34:17.022Z</time></trkpt><trkpt lat="36.731697" lon="-3.6748212"><ele>12.0</ele><time>2026-03-07T12:34:17.99Z</time></trkpt><trkpt lat="36.7317794" lon="-3.6747044"><ele>12.0</ele><time>2026-03-07T12:34:19.995Z</time></trkpt><trkpt lat="36.7318186" lon="-3.6746423"><ele>12.0</ele><time>2026-03-07T12:34:20.984Z</time></trkpt><trkpt lat="36.7318597" lon="-3.6745736"><ele>12.0</ele><time>2026-03-07T12:34:21.991Z</time></trkpt><trkpt lat="36.7319055" lon="-3.6745094"><ele>12.0</ele><time>2026-03-07T12:34:22.992Z</time></trkpt><trkpt lat="36.7319506" lon="-3.674449"><ele>12.0</ele><time>2026-03-07T12:34:23.998Z</time></trkpt><trkpt lat="36.7319895" lon="-3.674387"><ele>13.0</ele><time>2026-03-07T12:34:25.008Z</time></trkpt><trkpt lat="36.7320718" lon="-3.6742679"><ele>14.0</ele><time>2026-03-07T12:34:26.996Z</time></trkpt><trkpt lat="36.7321154" lon="-3.6742075"><ele>15.0</ele><time>2026-03-07T12:34:27.995Z</time></trkpt><trkpt lat="36.7321615" lon="-3.6741474"><ele>16.0</ele><time>2026-03-07T12:34:29.001Z</time></trkpt><trkpt lat="36.7322054" lon="-3.6740829"><ele>17.0</ele><time>2026-03-07T12:34:29.997Z</time></trkpt><trkpt lat="36.7322834" lon="-3.6739803"><ele>18.0</ele><time>2026-03-07T12:34:32.008Z</time></trkpt><trkpt lat="36.7323672" lon="-3.6738579"><ele>18.0</ele><time>2026-03-07T12:34:34.002Z</time></trkpt><trkpt lat="36.7324092" lon="-3.673798"><ele>18.0</ele><time>2026-03-07T12:34:34.993Z</time></trkpt><trkpt lat="36.7324784" lon="-3.6737022"><ele>18.0</ele><time>2026-03-07T12:34:36.989Z</time></trkpt><trkpt lat="36.7325571" lon="-3.6736208"><ele>18.0</ele><time>2026-03-07T12:34:39.005Z</time></trkpt><trkpt lat="36.7326482" lon="-3.6735289"><ele>18.0</ele><time>2026-03-07T12:34:40.992Z</time></trkpt><trkpt lat="36.7327546" lon="-3.6734548"><ele>16.8</ele><time>2026-03-07T12:34:42.988Z</time></trkpt><trkpt lat="36.7328554" lon="-3.6733983"><ele>15.600000000000001</ele><time>2026-03-07T12:34:44.997Z</time></trkpt><trkpt lat="36.732963" lon="-3.6733817"><ele>14.399999999999999</ele><time>2026-03-07T12:34:46.992Z</time></trkpt><trkpt lat="36.733026" lon="-3.6733799"><ele>13.2</ele><time>2026-03-07T12:34:47.999Z</time></trkpt><trkpt lat="36.7330939" lon="-3.6733725"><ele>12.0</ele><time>2026-03-07T12:34:48.996Z</time></trkpt><trkpt lat="36.733204" lon="-3.6733774"><ele>12.0</ele><time>2026-03-07T12:34:50.991Z</time></trkpt><trkpt lat="36.7333177" lon="-3.6733958"><ele>12.0</ele><time>2026-03-07T12:34:52.999Z</time></trkpt><trkpt lat="36.7334381" lon="-3.6734101"><ele>12.0</ele><time>2026-03-07T12:34:54.99Z</time></trkpt><trkpt lat="36.7335313" lon="-3.6733742"><ele>12.0</ele><time>2026-03-07T12:34:56.997Z</time></trkpt><trkpt lat="36.7336202" lon="-3.6733219"><ele>12.0</ele><time>2026-03-07T12:34:58.997Z</time></trkpt><trkpt lat="36.733736" lon="-3.673255"><ele>13.8</ele><time>2026-03-07T12:35:00.988Z</time></trkpt><trkpt lat="36.733793" lon="-3.6732202"><ele>15.6</ele><time>2026-03-07T12:35:02.004Z</time></trkpt><trkpt lat="36.7339003" lon="-3.6731547"><ele>17.400000000000002</ele><time>2026-03-07T12:35:03.984Z</time></trkpt><trkpt lat="36.7340011" lon="-3.673104"><ele>19.2</ele><time>2026-03-07T12:35:05.994Z</time></trkpt><trkpt lat="36.734096" lon="-3.6730575"><ele>21.0</ele><time>2026-03-07T12:35:07.992Z</time></trkpt><trkpt lat="36.7341851" lon="-3.6729836"><ele>21.0</ele><time>2026-03-07T12:35:09.994Z</time></trkpt><trkpt lat="36.7342404" lon="-3.6729393"><ele>21.0</ele><time>2026-03-07T12:35:11Z</time></trkpt><trkpt lat="36.7342994" lon="-3.6728958"><ele>21.0</ele><time>2026-03-07T12:35:12.006Z</time></trkpt><trkpt lat="36.7343594" lon="-3.6728506"><ele>21.0</ele><time>2026-03-07T12:35:12.994Z</time></trkpt><trkpt lat="36.7344138" lon="-3.6728094"><ele>21.0</ele><time>2026-03-07T12:35:13.986Z</time></trkpt><trkpt lat="36.7345097" lon="-3.6727397"><ele>21.0</ele><time>2026-03-07T12:35:15.995Z</time></trkpt><trkpt lat="36.734598" lon="-3.6726994"><ele>18.8</ele><time>2026-03-07T12:35:18.022Z</time></trkpt><trkpt lat="36.734691" lon="-3.6726618"><ele>16.6</ele><time>2026-03-07T12:35:20.006Z</time></trkpt><trkpt lat="36.7347716" lon="-3.6726175"><ele>14.4</ele><time>2026-03-07T12:35:21.997Z</time></trkpt><trkpt lat="36.7348469" lon="-3.6725703"><ele>12.2</ele><time>2026-03-07T12:35:24.024Z</time></trkpt><trkpt lat="36.7349281" lon="-3.6725197"><ele>10.0</ele><time>2026-03-07T12:35:26.02Z</time></trkpt><trkpt lat="36.7350262" lon="-3.6724567"><ele>10.0</ele><time>2026-03-07T12:35:28.002Z</time></trkpt><trkpt lat="36.7351125" lon="-3.6723972"><ele>10.0</ele><time>2026-03-07T12:35:30Z</time></trkpt><trkpt lat="36.7351834" lon="-3.6723549"><ele>10.0</ele><time>2026-03-07T12:35:31.996Z</time></trkpt><trkpt lat="36.7352587" lon="-3.6723238"><ele>10.0</ele><time>2026-03-07T12:35:33.985Z</time></trkpt><trkpt lat="36.7353322" lon="-3.6722743"><ele>10.0</ele><time>2026-03-07T12:35:35.992Z</time></trkpt><trkpt lat="36.7354237" lon="-3.6721966"><ele>9.2</ele><time>2026-03-07T12:35:37.993Z</time></trkpt><trkpt lat="36.7355199" lon="-3.6721279"><ele>8.4</ele><time>2026-03-07T12:35:39.99Z</time></trkpt><trkpt lat="36.7355893" lon="-3.6720606"><ele>7.6</ele><time>2026-03-07T12:35:41.994Z</time></trkpt><trkpt lat="36.7356774" lon="-3.6719812"><ele>6.8</ele><time>2026-03-07T12:35:43.987Z</time></trkpt><trkpt lat="36.7357592" lon="-3.6719062"><ele>6.0</ele><time>2026-03-07T12:35:45.988Z</time></trkpt><trkpt lat="36.7358257" lon="-3.6718407"><ele>6.0</ele><time>2026-03-07T12:35:47.993Z</time></trkpt><trkpt lat="36.735896" lon="-3.671767"><ele>6.0</ele><time>2026-03-07T12:35:49.999Z</time></trkpt><trkpt lat="36.7359723" lon="-3.6717008"><ele>6.0</ele><time>2026-03-07T12:35:52Z</time></trkpt><trkpt lat="36.736029" lon="-3.6716526"><ele>6.0</ele><time>2026-03-07T12:35:53.995Z</time></trkpt><trkpt lat="36.7360981" lon="-3.6715838"><ele>6.0</ele><time>2026-03-07T12:35:55.988Z</time></trkpt><trkpt lat="36.736166" lon="-3.6715122"><ele>6.0</ele><time>2026-03-07T12:35:57.99Z</time></trkpt><trkpt lat="36.736231" lon="-3.67146"><ele>6.166666666666667</ele><time>2026-03-07T12:35:59.999Z</time></trkpt><trkpt lat="36.7362855" lon="-3.6713932"><ele>6.333333333333334</ele><time>2026-03-07T12:36:02.028Z</time></trkpt><trkpt lat="36.73634" lon="-3.6713237"><ele>6.5</ele><time>2026-03-07T12:36:03.995Z</time></trkpt><trkpt lat="36.7363947" lon="-3.6712539"><ele>6.666666666666667</ele><time>2026-03-07T12:36:06.008Z</time></trkpt><trkpt lat="36.7364753" lon="-3.6711792"><ele>6.833333333333334</ele><time>2026-03-07T12:36:09.005Z</time></trkpt><trkpt lat="36.7365648" lon="-3.6711051"><ele>7.0</ele><time>2026-03-07T12:36:11.003Z</time></trkpt><trkpt lat="36.7366695" lon="-3.671024"><ele>7.0</ele><time>2026-03-07T12:36:12.999Z</time></trkpt><trkpt lat="36.7367745" lon="-3.6709547"><ele>6.999999999999999</ele><time>2026-03-07T12:36:14.995Z</time></trkpt><trkpt lat="36.7368666" lon="-3.6708829"><ele>6.999999999999999</ele><time>2026-03-07T12:36:17.006Z</time></trkpt><trkpt lat="36.7369511" lon="-3.67081"><ele>7.0</ele><time>2026-03-07T12:36:18.991Z</time></trkpt><trkpt lat="36.7370245" lon="-3.6707329"><ele>7.0</ele><time>2026-03-07T12:36:20.997Z</time></trkpt><trkpt lat="36.7370912" lon="-3.6706498"><ele>6.8</ele><time>2026-03-07T12:36:22.989Z</time></trkpt><trkpt lat="36.7371794" lon="-3.6705497"><ele>6.6</ele><time>2026-03-07T12:36:24.986Z</time></trkpt><trkpt lat="36.7372269" lon="-3.6704976"><ele>6.3999999999999995</ele><time>2026-03-07T12:36:25.992Z</time></trkpt><trkpt lat="36.7373188" lon="-3.6703903"><ele>6.199999999999999</ele><time>2026-03-07T12:36:28.008Z</time></trkpt><trkpt lat="36.7373673" lon="-3.6703382"><ele>6.0</ele><time>2026-03-07T12:36:28.999Z</time></trkpt><trkpt lat="36.7374661" lon="-3.6702373"><ele>6.0</ele><time>2026-03-07T12:36:31.116Z</time></trkpt><trkpt lat="36.7375539" lon="-3.6701333"><ele>6.0</ele><time>2026-03-07T12:36:32.991Z</time></trkpt><trkpt lat="36.7376389" lon="-3.6700264"><ele>6.0</ele><time>2026-03-07T12:36:34.986Z</time></trkpt><trkpt lat="36.7376834" lon="-3.6699704"><ele>6.0</ele><time>2026-03-07T12:36:35.988Z</time></trkpt><trkpt lat="36.7377787" lon="-3.6698797"><ele>6.0</ele><time>2026-03-07T12:36:37.988Z</time></trkpt><trkpt lat="36.7378681" lon="-3.6697967"><ele>9.5</ele><time>2026-03-07T12:36:40.007Z</time></trkpt><trkpt lat="36.7379496" lon="-3.6697082"><ele>13.0</ele><time>2026-03-07T12:36:41.992Z</time></trkpt><trkpt lat="36.7380456" lon="-3.669624"><ele>16.5</ele><time>2026-03-07T12:36:43.989Z</time></trkpt><trkpt lat="36.7381375" lon="-3.6695362"><ele>20.0</ele><time>2026-03-07T12:36:46.016Z</time></trkpt><trkpt lat="36.738225" lon="-3.6694519"><ele>19.6</ele><time>2026-03-07T12:36:47.986Z</time></trkpt><trkpt lat="36.7382896" lon="-3.6693956"><ele>19.2</ele><time>2026-03-07T12:36:49.996Z</time></trkpt><trkpt lat="36.7383699" lon="-3.6693305"><ele>18.8</ele><time>2026-03-07T12:36:52.997Z</time></trkpt><trkpt lat="36.738433" lon="-3.6692568"><ele>18.4</ele><time>2026-03-07T12:36:55Z</time></trkpt><trkpt lat="36.7385116" lon="-3.6691631"><ele>18.0</ele><time>2026-03-07T12:36:57Z</time></trkpt><trkpt lat="36.7386116" lon="-3.6690876"><ele>18.0</ele><time>2026-03-07T12:36:58.998Z</time></trkpt><trkpt lat="36.7387134" lon="-3.6690034"><ele>18.0</ele><time>2026-03-07T12:37:00.99Z</time></trkpt><trkpt lat="36.7388161" lon="-3.6689132"><ele>18.0</ele><time>2026-03-07T12:37:02.994Z</time></trkpt><trkpt lat="36.7388701" lon="-3.6688705"><ele>18.0</ele><time>2026-03-07T12:37:04.022Z</time></trkpt><trkpt lat="36.7389246" lon="-3.6688254"><ele>18.0</ele><time>2026-03-07T12:37:05.004Z</time></trkpt><trkpt lat="36.7389817" lon="-3.6687821"><ele>18.0</ele><time>2026-03-07T12:37:05.999Z</time></trkpt><trkpt lat="36.7390378" lon="-3.6687447"><ele>18.0</ele><time>2026-03-07T12:37:06.996Z</time></trkpt><trkpt lat="36.7391561" lon="-3.6686814"><ele>18.0</ele><time>2026-03-07T12:37:08.999Z</time></trkpt><trkpt lat="36.7392191" lon="-3.6686421"><ele>18.0</ele><time>2026-03-07T12:37:09.985Z</time></trkpt><trkpt lat="36.7392803" lon="-3.6685949"><ele>18.0</ele><time>2026-03-07T12:37:10.994Z</time></trkpt><trkpt lat="36.7393305" lon="-3.6685426"><ele>18.0</ele><time>2026-03-07T12:37:11.993Z</time></trkpt><trkpt lat="36.7394484" lon="-3.6684733"><ele>16.857142857142858</ele><time>2026-03-07T12:37:14.001Z</time></trkpt><trkpt lat="36.739515" lon="-3.6684386"><ele>15.714285714285715</ele><time>2026-03-07T12:37:15.007Z</time></trkpt><trkpt lat="36.739571" lon="-3.6683818"><ele>14.571428571428573</ele><time>2026-03-07T12:37:15.994Z</time></trkpt><trkpt lat="36.7396319" lon="-3.6683295"><ele>13.42857142857143</ele><time>2026-03-07T12:37:17.01Z</time></trkpt><trkpt lat="36.7396967" lon="-3.6682807"><ele>12.285714285714286</ele><time>2026-03-07T12:37:18.002Z</time></trkpt><trkpt lat="36.7397589" lon="-3.6682292"><ele>11.142857142857142</ele><time>2026-03-07T12:37:18.998Z</time></trkpt><trkpt lat="36.7398176" lon="-3.6681794"><ele>10.0</ele><time>2026-03-07T12:37:19.99Z</time></trkpt><trkpt lat="36.7398742" lon="-3.6681386"><ele>10.0</ele><time>2026-03-07T12:37:20.985Z</time></trkpt><trkpt lat="36.7399756" lon="-3.6680657"><ele>10.0</ele><time>2026-03-07T12:37:22.995Z</time></trkpt><trkpt lat="36.7400716" lon="-3.6679921"><ele>10.0</ele><time>2026-03-07T12:37:25.056Z</time></trkpt><trkpt lat="36.7401281" lon="-3.6679546"><ele>10.0</ele><time>2026-03-07T12:37:26.002Z</time></trkpt><trkpt lat="36.7401891" lon="-3.6679135"><ele>10.0</ele><time>2026-03-07T12:37:27.028Z</time></trkpt><trkpt lat="36.7402475" lon="-3.6678706"><ele>10.0</ele><time>2026-03-07T12:37:28.058Z</time></trkpt><trkpt lat="36.7403052" lon="-3.6678289"><ele>9.5</ele><time>2026-03-07T12:37:28.975Z</time></trkpt><trkpt lat="36.7403534" lon="-3.6677752"><ele>9.0</ele><time>2026-03-07T12:37:29.994Z</time></trkpt><trkpt lat="36.7404473" lon="-3.6676613"><ele>8.5</ele><time>2026-03-07T12:37:32Z</time></trkpt><trkpt lat="36.7405021" lon="-3.6676098"><ele>8.0</ele><time>2026-03-07T12:37:33.006Z</time></trkpt><trkpt lat="36.7405593" lon="-3.6675605"><ele>7.500000000000001</ele><time>2026-03-07T12:37:34.006Z</time></trkpt><trkpt lat="36.7406126" lon="-3.6675039"><ele>7.0</ele><time>2026-03-07T12:37:35.004Z</time></trkpt><trkpt lat="36.7406613" lon="-3.6674379"><ele>7.000000000000001</ele><time>2026-03-07T12:37:35.992Z</time></trkpt><trkpt lat="36.7407136" lon="-3.6673708"><ele>7.0</ele><time>2026-03-07T12:37:36.986Z</time></trkpt><trkpt lat="36.7407669" lon="-3.6673047"><ele>7.0</ele><time>2026-03-07T12:37:37.996Z</time></trkpt><trkpt lat="36.7408189" lon="-3.6672416"><ele>7.0</ele><time>2026-03-07T12:37:38.998Z</time></trkpt><trkpt lat="36.7408706" lon="-3.6671894"><ele>7.000000000000001</ele><time>2026-03-07T12:37:39.987Z</time></trkpt><trkpt lat="36.740919" lon="-3.667139"><ele>7.0</ele><time>2026-03-07T12:37:40.984Z</time></trkpt><trkpt lat="36.7410142" lon="-3.6670388"><ele>7.0</ele><time>2026-03-07T12:37:42.995Z</time></trkpt><trkpt lat="36.741057" lon="-3.666973"><ele>7.0</ele><time>2026-03-07T12:37:43.993Z</time></trkpt><trkpt lat="36.7411103" lon="-3.6669168"><ele>7.0</ele><time>2026-03-07T12:37:44.995Z</time></trkpt><trkpt lat="36.7411625" lon="-3.6668519"><ele>7.0</ele><time>2026-03-07T12:37:45.995Z</time></trkpt><trkpt lat="36.7412157" lon="-3.666784"><ele>7.0</ele><time>2026-03-07T12:37:46.996Z</time></trkpt><trkpt lat="36.7412655" lon="-3.666712"><ele>7.0</ele><time>2026-03-07T12:37:47.99Z</time></trkpt><trkpt lat="36.741321" lon="-3.6666506"><ele>7.0</ele><time>2026-03-07T12:37:49Z</time></trkpt><trkpt lat="36.7413709" lon="-3.6665855"><ele>7.0</ele><time>2026-03-07T12:37:49.99Z</time></trkpt><trkpt lat="36.741423" lon="-3.6665272"><ele>7.0</ele><time>2026-03-07T12:37:50.992Z</time></trkpt><trkpt lat="36.741474" lon="-3.6664692"><ele>7.0</ele><time>2026-03-07T12:37:52.011Z</time></trkpt><trkpt lat="36.7415235" lon="-3.6664106"><ele>7.0</ele><time>2026-03-07T12:37:52.984Z</time></trkpt><trkpt lat="36.7415774" lon="-3.6663577"><ele>7.0</ele><time>2026-03-07T12:37:53.987Z</time></trkpt><trkpt lat="36.7416251" lon="-3.666292"><ele>7.0</ele><time>2026-03-07T12:37:54.993Z</time></trkpt><trkpt lat="36.7416676" lon="-3.6662188"><ele>7.0</ele><time>2026-03-07T12:37:55.987Z</time></trkpt><trkpt lat="36.7417188" lon="-3.6661547"><ele>7.0</ele><time>2026-03-07T12:37:56.996Z</time></trkpt><trkpt lat="36.7417744" lon="-3.6660961"><ele>7.0</ele><time>2026-03-07T12:37:58.013Z</time></trkpt><trkpt lat="36.7418396" lon="-3.6660526"><ele>7.0</ele><time>2026-03-07T12:37:59Z</time></trkpt><trkpt lat="36.7419013" lon="-3.6660045"><ele>7.0</ele><time>2026-03-07T12:38:00.003Z</time></trkpt><trkpt lat="36.7419646" lon="-3.6659561"><ele>7.0</ele><time>2026-03-07T12:38:00.998Z</time></trkpt><trkpt lat="36.742018" lon="-3.6658927"><ele>7.0</ele><time>2026-03-07T12:38:02.006Z</time></trkpt><trkpt lat="36.7420676" lon="-3.665824"><ele>7.0</ele><time>2026-03-07T12:38:03.048Z</time></trkpt><trkpt lat="36.7421194" lon="-3.6657566"><ele>7.0</ele><time>2026-03-07T12:38:03.993Z</time></trkpt><trkpt lat="36.7421715" lon="-3.6656894"><ele>7.0</ele><time>2026-03-07T12:38:04.995Z</time></trkpt><trkpt lat="36.7422211" lon="-3.6656183"><ele>7.0</ele><time>2026-03-07T12:38:06.056Z</time></trkpt><trkpt lat="36.742274" lon="-3.6655522"><ele>7.0</ele><time>2026-03-07T12:38:06.984Z</time></trkpt><trkpt lat="36.7423254" lon="-3.6654848"><ele>7.0</ele><time>2026-03-07T12:38:07.988Z</time></trkpt><trkpt lat="36.742379" lon="-3.6654191"><ele>7.0</ele><time>2026-03-07T12:38:09.003Z</time></trkpt><trkpt lat="36.7424347" lon="-3.6653596"><ele>7.0</ele><time>2026-03-07T12:38:09.983Z</time></trkpt><trkpt lat="36.7424893" lon="-3.6652992"><ele>7.571428571428571</ele><time>2026-03-07T12:38:10.998Z</time></trkpt><trkpt lat="36.7425495" lon="-3.6652491"><ele>8.142857142857142</ele><time>2026-03-07T12:38:11.996Z</time></trkpt><trkpt lat="36.7426016" lon="-3.6651932"><ele>8.714285714285715</ele><time>2026-03-07T12:38:12.994Z</time></trkpt><trkpt lat="36.7426457" lon="-3.6651314"><ele>9.285714285714285</ele><time>2026-03-07T12:38:13.987Z</time></trkpt><trkpt lat="36.7426889" lon="-3.6650727"><ele>9.857142857142858</ele><time>2026-03-07T12:38:14.993Z</time></trkpt><trkpt lat="36.7427376" lon="-3.6650153"><ele>10.428571428571429</ele><time>2026-03-07T12:38:16.01Z</time></trkpt><trkpt lat="36.7427967" lon="-3.6649572"><ele>11.0</ele><time>2026-03-07T12:38:17.013Z</time></trkpt><trkpt lat="36.7428565" lon="-3.6648959"><ele>11.428571428571429</ele><time>2026-03-07T12:38:17.998Z</time></trkpt><trkpt lat="36.7429148" lon="-3.6648324"><ele>11.857142857142858</ele><time>2026-03-07T12:38:18.996Z</time></trkpt><trkpt lat="36.7429648" lon="-3.6647628"><ele>12.285714285714285</ele><time>2026-03-07T12:38:19.989Z</time></trkpt><trkpt lat="36.74301" lon="-3.6646958"><ele>12.714285714285715</ele><time>2026-03-07T12:38:21.017Z</time></trkpt><trkpt lat="36.7430412" lon="-3.6646227"><ele>13.142857142857142</ele><time>2026-03-07T12:38:22.002Z</time></trkpt><trkpt lat="36.7430651" lon="-3.6645431"><ele>13.571428571428571</ele><time>2026-03-07T12:38:23.003Z</time></trkpt><trkpt lat="36.7430915" lon="-3.6644604"><ele>14.0</ele><time>2026-03-07T12:38:24.014Z</time></trkpt><trkpt lat="36.7431162" lon="-3.6643794"><ele>14.0</ele><time>2026-03-07T12:38:25.018Z</time></trkpt><trkpt lat="36.7431647" lon="-3.6643151"><ele>14.0</ele><time>2026-03-07T12:38:26.04Z</time></trkpt><trkpt lat="36.7432142" lon="-3.6642513"><ele>14.0</ele><time>2026-03-07T12:38:27.005Z</time></trkpt><trkpt lat="36.7432598" lon="-3.6641873"><ele>14.0</ele><time>2026-03-07T12:38:28.014Z</time></trkpt><trkpt lat="36.7432984" lon="-3.6641131"><ele>14.0</ele><time>2026-03-07T12:38:28.997Z</time></trkpt><trkpt lat="36.743336" lon="-3.6640327"><ele>14.0</ele><time>2026-03-07T12:38:30.015Z</time></trkpt><trkpt lat="36.7433718" lon="-3.6639552"><ele>14.0</ele><time>2026-03-07T12:38:31.032Z</time></trkpt><trkpt lat="36.7434184" lon="-3.6638955"><ele>14.0</ele><time>2026-03-07T12:38:32.001Z</time></trkpt><trkpt lat="36.7434658" lon="-3.6638386"><ele>13.999999999999998</ele><time>2026-03-07T12:38:33.068Z</time></trkpt><trkpt lat="36.7435104" lon="-3.6637815"><ele>13.999999999999998</ele><time>2026-03-07T12:38:34.083Z</time></trkpt><trkpt lat="36.7435587" lon="-3.6637263"><ele>14.0</ele><time>2026-03-07T12:38:35.071Z</time></trkpt><trkpt lat="36.7436885" lon="-3.6636809"><ele>14.0</ele><time>2026-03-07T12:38:36.984Z</time></trkpt><trkpt lat="36.7438177" lon="-3.6636745"><ele>13.714285714285714</ele><time>2026-03-07T12:38:39.014Z</time></trkpt><trkpt lat="36.7438943" lon="-3.6636758"><ele>13.428571428571429</ele><time>2026-03-07T12:38:40.044Z</time></trkpt><trkpt lat="36.7439669" lon="-3.6636743"><ele>13.142857142857142</ele><time>2026-03-07T12:38:41.008Z</time></trkpt><trkpt lat="36.7440356" lon="-3.6636729"><ele>12.857142857142858</ele><time>2026-03-07T12:38:42.017Z</time></trkpt><trkpt lat="36.7441046" lon="-3.6636668"><ele>12.571428571428571</ele><time>2026-03-07T12:38:43.009Z</time></trkpt><trkpt lat="36.7441749" lon="-3.6636382"><ele>12.285714285714285</ele><time>2026-03-07T12:38:43.99Z</time></trkpt><trkpt lat="36.7442435" lon="-3.6635907"><ele>12.0</ele><time>2026-03-07T12:38:45.034Z</time></trkpt><trkpt lat="36.744306" lon="-3.663526"><ele>12.0</ele><time>2026-03-07T12:38:46.056Z</time></trkpt><trkpt lat="36.7443618" lon="-3.6634517"><ele>12.0</ele><time>2026-03-07T12:38:46.998Z</time></trkpt><trkpt lat="36.7444217" lon="-3.6633867"><ele>12.0</ele><time>2026-03-07T12:38:48.061Z</time></trkpt><trkpt lat="36.7444844" lon="-3.6633295"><ele>12.0</ele><time>2026-03-07T12:38:49.057Z</time></trkpt><trkpt lat="36.7445345" lon="-3.6632648"><ele>12.0</ele><time>2026-03-07T12:38:50.065Z</time></trkpt><trkpt lat="36.7445827" lon="-3.6631961"><ele>12.0</ele><time>2026-03-07T12:38:51.027Z</time></trkpt><trkpt lat="36.7446301" lon="-3.6631208"><ele>11.833333333333334</ele><time>2026-03-07T12:38:52.065Z</time></trkpt><trkpt lat="36.7446791" lon="-3.6630469"><ele>11.666666666666666</ele><time>2026-03-07T12:38:53.002Z</time></trkpt><trkpt lat="36.7447242" lon="-3.6629718"><ele>11.5</ele><time>2026-03-07T12:38:54.004Z</time></trkpt><trkpt lat="36.7447735" lon="-3.6629044"><ele>11.333333333333332</ele><time>2026-03-07T12:38:55.017Z</time></trkpt><trkpt lat="36.7448226" lon="-3.6628383"><ele>11.166666666666666</ele><time>2026-03-07T12:38:55.992Z</time></trkpt><trkpt lat="36.7448848" lon="-3.6627816"><ele>11.0</ele><time>2026-03-07T12:38:57.011Z</time></trkpt><trkpt lat="36.744959" lon="-3.6627391"><ele>11.0</ele><time>2026-03-07T12:38:58.006Z</time></trkpt><trkpt lat="36.7450382" lon="-3.6627046"><ele>11.0</ele><time>2026-03-07T12:38:59.013Z</time></trkpt><trkpt lat="36.7451184" lon="-3.6626685"><ele>11.0</ele><time>2026-03-07T12:38:59.999Z</time></trkpt><trkpt lat="36.7451945" lon="-3.6626265"><ele>11.0</ele><time>2026-03-07T12:39:01.015Z</time></trkpt><trkpt lat="36.7452688" lon="-3.6625851"><ele>11.0</ele><time>2026-03-07T12:39:02.021Z</time></trkpt><trkpt lat="36.7453442" lon="-3.6625561"><ele>11.0</ele><time>2026-03-07T12:39:03.008Z</time></trkpt><trkpt lat="36.7454168" lon="-3.6625204"><ele>11.0</ele><time>2026-03-07T12:39:04.035Z</time></trkpt><trkpt lat="36.7454876" lon="-3.662483"><ele>11.0</ele><time>2026-03-07T12:39:05.05Z</time></trkpt><trkpt lat="36.7455545" lon="-3.6624485"><ele>11.0</ele><time>2026-03-07T12:39:06.001Z</time></trkpt><trkpt lat="36.7456084" lon="-3.6623945"><ele>11.0</ele><time>2026-03-07T12:39:07.001Z</time></trkpt><trkpt lat="36.7456558" lon="-3.6623257"><ele>11.0</ele><time>2026-03-07T12:39:08.029Z</time></trkpt><trkpt lat="36.7456958" lon="-3.6622431"><ele>11.0</ele><time>2026-03-07T12:39:09.032Z</time></trkpt><trkpt lat="36.7457274" lon="-3.6621565"><ele>11.0</ele><time>2026-03-07T12:39:10Z</time></trkpt><trkpt lat="36.7457586" lon="-3.6620718"><ele>11.0</ele><time>2026-03-07T12:39:11.049Z</time></trkpt><trkpt lat="36.7457887" lon="-3.6619886"><ele>11.0</ele><time>2026-03-07T12:39:12.014Z</time></trkpt><trkpt lat="36.7458237" lon="-3.6619099"><ele>11.0</ele><time>2026-03-07T12:39:13.016Z</time></trkpt><trkpt lat="36.7458644" lon="-3.6618351"><ele>11.0</ele><time>2026-03-07T12:39:14.017Z</time></trkpt><trkpt lat="36.7459019" lon="-3.6617593"><ele>11.0</ele><time>2026-03-07T12:39:15.029Z</time></trkpt><trkpt lat="36.7459384" lon="-3.6616863"><ele>11.0</ele><time>2026-03-07T12:39:15.976Z</time></trkpt><trkpt lat="36.7459631" lon="-3.6616111"><ele>11.0</ele><time>2026-03-07T12:39:17.037Z</time></trkpt><trkpt lat="36.7460071" lon="-3.6614729"><ele>10.666666666666666</ele><time>2026-03-07T12:39:19.001Z</time></trkpt><trkpt lat="36.7460475" lon="-3.6613578"><ele>10.333333333333332</ele><time>2026-03-07T12:39:21.02Z</time></trkpt><trkpt lat="36.7460799" lon="-3.6612724"><ele>10.0</ele><time>2026-03-07T12:39:34.022Z</time></trkpt><trkpt lat="36.7461222" lon="-3.6611987"><ele>9.666666666666666</ele><time>2026-03-07T12:39:38.011Z</time></trkpt><trkpt lat="36.7461653" lon="-3.6611192"><ele>9.333333333333334</ele><time>2026-03-07T12:39:48.991Z</time></trkpt><trkpt lat="36.7461998" lon="-3.6610292"><ele>9.0</ele><time>2026-03-07T12:39:58.026Z</time></trkpt><trkpt lat="36.7461723" lon="-3.6608842"><ele>9.000000000000002</ele><time>2026-03-07T12:43:01.961Z</time></trkpt><trkpt lat="36.7461071" lon="-3.6608817"><ele>9.0</ele><time>2026-03-07T12:43:06.978Z</time></trkpt><trkpt lat="36.7461621" lon="-3.660947"><ele>9.0</ele><time>2026-03-07T12:43:32.963Z</time></trkpt><trkpt lat="36.7461923" lon="-3.6610224"><ele>9.0</ele><time>2026-03-07T12:43:35.969Z</time></trkpt><trkpt lat="36.7462471" lon="-3.6610915"><ele>9.0</ele><time>2026-03-07T12:43:46.98Z</time></trkpt><trkpt lat="36.7463098" lon="-3.661125"><ele>9.000000000000002</ele><time>2026-03-07T12:43:52.952Z</time></trkpt><trkpt lat="36.7463787" lon="-3.661148"><ele>9.0</ele><time>2026-03-07T12:43:59.982Z</time></trkpt><trkpt lat="36.7464903" lon="-3.661163"><ele>8.333333333333334</ele><time>2026-03-07T12:44:27.959Z</time></trkpt><trkpt lat="36.7465772" lon="-3.6612254"><ele>7.666666666666667</ele><time>2026-03-07T12:45:07.996Z</time></trkpt><trkpt lat="36.7464898" lon="-3.6611688"><ele>7.0</ele><time>2026-03-07T12:45:30.031Z</time></trkpt><trkpt lat="36.7464839" lon="-3.6612476"><ele>6.333333333333334</ele><time>2026-03-07T12:46:03.99Z</time></trkpt><trkpt lat="36.7465482" lon="-3.661233"><ele>5.666666666666667</ele><time>2026-03-07T12:47:01Z</time></trkpt><trkpt lat="36.7465559" lon="-3.6611399"><ele>5.0</ele><time>2026-03-07T12:47:09.99Z</time></trkpt><trkpt lat="36.7465312" lon="-3.6612301"><ele>5.0</ele><time>2026-03-07T12:47:33.98Z</time></trkpt><trkpt lat="36.7464771" lon="-3.661189"><ele>5.0</ele><time>2026-03-07T12:50:38.017Z</time></trkpt><trkpt lat="36.7464617" lon="-3.661107"><ele>5.0</ele><time>2026-03-07T12:54:51.009Z</time></trkpt><trkpt lat="36.7464598" lon="-3.6611938"><ele>5.0</ele><time>2026-03-07T12:55:17.003Z</time></trkpt><trkpt lat="36.7464134" lon="-3.6612574"><ele>5.0</ele><time>2026-03-07T13:15:16.01Z</time></trkpt><trkpt lat="36.7463531" lon="-3.6612171"><ele>5.0</ele><time>2026-03-07T13:16:08.006Z</time></trkpt><trkpt lat="36.746289" lon="-3.6611897"><ele>5.0</ele><time>2026-03-07T13:16:14.975Z</time></trkpt><trkpt lat="36.7462297" lon="-3.6611517"><ele>5.0</ele><time>2026-03-07T13:16:20.006Z</time></trkpt><trkpt lat="36.7461955" lon="-3.6610815"><ele>5.0</ele><time>2026-03-07T13:16:27.003Z</time></trkpt><trkpt lat="36.7461971" lon="-3.6609896"><ele>5.0</ele><time>2026-03-07T13:16:30.996Z</time></trkpt><trkpt lat="36.7461861" lon="-3.6609031"><ele>5.0</ele><time>2026-03-07T13:23:31.048Z</time></trkpt><trkpt lat="36.7461418" lon="-3.6609955"><ele>5.0</ele><time>2026-03-07T13:24:43Z</time></trkpt><trkpt lat="36.7461236" lon="-3.6610712"><ele>5.0</ele><time>2026-03-07T13:24:45.007Z</time></trkpt><trkpt lat="36.7460977" lon="-3.6611799"><ele>5.0</ele><time>2026-03-07T13:24:46.993Z</time></trkpt><trkpt lat="36.7460642" lon="-3.6613092"><ele>5.0</ele><time>2026-03-07T13:24:49.004Z</time></trkpt><trkpt lat="36.7460336" lon="-3.6613999"><ele>5.0</ele><time>2026-03-07T13:24:51.011Z</time></trkpt><trkpt lat="36.7459964" lon="-3.6615183"><ele>5.0</ele><time>2026-03-07T13:24:53.001Z</time></trkpt><trkpt lat="36.7459803" lon="-3.6616143"><ele>5.0</ele><time>2026-03-07T13:24:55.002Z</time></trkpt><trkpt lat="36.7459554" lon="-3.6617085"><ele>5.0</ele><time>2026-03-07T13:24:56.998Z</time></trkpt><trkpt lat="36.7459579" lon="-3.6618257"><ele>5.0</ele><time>2026-03-07T13:24:59.032Z</time></trkpt><trkpt lat="36.746023" lon="-3.6619203"><ele>5.0</ele><time>2026-03-07T13:25:00.997Z</time></trkpt><trkpt lat="36.7461207" lon="-3.6619919"><ele>5.0</ele><time>2026-03-07T13:25:03.045Z</time></trkpt><trkpt lat="36.7462267" lon="-3.6620538"><ele>5.0</ele><time>2026-03-07T13:25:04.999Z</time></trkpt><trkpt lat="36.7463314" lon="-3.6621176"><ele>5.0</ele><time>2026-03-07T13:25:07.066Z</time></trkpt><trkpt lat="36.7463891" lon="-3.6621591"><ele>5.833333333333334</ele><time>2026-03-07T13:25:08.06Z</time></trkpt><trkpt lat="36.7464456" lon="-3.6622022"><ele>6.666666666666667</ele><time>2026-03-07T13:25:08.992Z</time></trkpt><trkpt lat="36.7465513" lon="-3.6622231"><ele>7.5</ele><time>2026-03-07T13:25:11.004Z</time></trkpt><trkpt lat="36.7466523" lon="-3.6621758"><ele>8.333333333333334</ele><time>2026-03-07T13:25:12.999Z</time></trkpt><trkpt lat="36.7467058" lon="-3.6621285"><ele>9.166666666666668</ele><time>2026-03-07T13:25:14.011Z</time></trkpt><trkpt lat="36.746758" lon="-3.6620761"><ele>10.0</ele><time>2026-03-07T13:25:15.005Z</time></trkpt><trkpt lat="36.7468535" lon="-3.6619731"><ele>10.142857142857142</ele><time>2026-03-07T13:25:17.052Z</time></trkpt><trkpt lat="36.7469036" lon="-3.6619095"><ele>10.285714285714286</ele><time>2026-03-07T13:25:18.004Z</time></trkpt><trkpt lat="36.7469495" lon="-3.6618428"><ele>10.428571428571429</ele><time>2026-03-07T13:25:18.998Z</time></trkpt><trkpt lat="36.7469966" lon="-3.661776"><ele>10.571428571428571</ele><time>2026-03-07T13:25:19.987Z</time></trkpt><trkpt lat="36.747044" lon="-3.6617098"><ele>10.714285714285714</ele><time>2026-03-07T13:25:20.996Z</time></trkpt><trkpt lat="36.7470932" lon="-3.6616405"><ele>10.857142857142858</ele><time>2026-03-07T13:25:21.999Z</time></trkpt><trkpt lat="36.7471483" lon="-3.661562"><ele>11.0</ele><time>2026-03-07T13:25:23.001Z</time></trkpt><trkpt lat="36.7472136" lon="-3.6614743"><ele>11.0</ele><time>2026-03-07T13:25:24.006Z</time></trkpt><trkpt lat="36.7472902" lon="-3.6613842"><ele>11.0</ele><time>2026-03-07T13:25:24.989Z</time></trkpt><trkpt lat="36.7473773" lon="-3.6613042"><ele>11.0</ele><time>2026-03-07T13:25:26.009Z</time></trkpt><trkpt lat="36.7474588" lon="-3.6612414"><ele>11.0</ele><time>2026-03-07T13:25:26.997Z</time></trkpt><trkpt lat="36.747537" lon="-3.6611781"><ele>11.0</ele><time>2026-03-07T13:25:27.996Z</time></trkpt><trkpt lat="36.747613" lon="-3.6611154"><ele>11.200000000000001</ele><time>2026-03-07T13:25:28.993Z</time></trkpt><trkpt lat="36.7476867" lon="-3.6610487"><ele>11.4</ele><time>2026-03-07T13:25:29.997Z</time></trkpt><trkpt lat="36.7477626" lon="-3.6609698"><ele>11.6</ele><time>2026-03-07T13:25:30.999Z</time></trkpt><trkpt lat="36.747837" lon="-3.6608867"><ele>11.8</ele><time>2026-03-07T13:25:31.986Z</time></trkpt><trkpt lat="36.74791" lon="-3.6607897"><ele>12.0</ele><time>2026-03-07T13:25:32.997Z</time></trkpt><trkpt lat="36.7479803" lon="-3.660677"><ele>14.0</ele><time>2026-03-07T13:25:34.004Z</time></trkpt><trkpt lat="36.7480467" lon="-3.660555"><ele>16.0</ele><time>2026-03-07T13:25:34.995Z</time></trkpt><trkpt lat="36.7481101" lon="-3.6604351"><ele>18.0</ele><time>2026-03-07T13:25:36Z</time></trkpt><trkpt lat="36.7481681" lon="-3.6603274"><ele>20.0</ele><time>2026-03-07T13:25:37.005Z</time></trkpt><trkpt lat="36.7482235" lon="-3.6602299"><ele>22.0</ele><time>2026-03-07T13:25:38.005Z</time></trkpt><trkpt lat="36.7482961" lon="-3.6601207"><ele>22.0</ele><time>2026-03-07T13:25:39.005Z</time></trkpt><trkpt lat="36.7483753" lon="-3.6600297"><ele>22.0</ele><time>2026-03-07T13:25:40.074Z</time></trkpt><trkpt lat="36.7484657" lon="-3.6599506"><ele>22.0</ele><time>2026-03-07T13:25:41.001Z</time></trkpt><trkpt lat="36.7485588" lon="-3.6598861"><ele>22.0</ele><time>2026-03-07T13:25:41.983Z</time></trkpt><trkpt lat="36.7486539" lon="-3.659833"><ele>22.0</ele><time>2026-03-07T13:25:43Z</time></trkpt><trkpt lat="36.7487558" lon="-3.6597855"><ele>24.0</ele><time>2026-03-07T13:25:43.992Z</time></trkpt><trkpt lat="36.7488501" lon="-3.6597539"><ele>26.0</ele><time>2026-03-07T13:25:44.983Z</time></trkpt><trkpt lat="36.7489511" lon="-3.65972"><ele>28.000000000000004</ele><time>2026-03-07T13:25:46.005Z</time></trkpt><trkpt lat="36.7490372" lon="-3.6596573"><ele>30.0</ele><time>2026-03-07T13:25:47Z</time></trkpt><trkpt lat="36.7491087" lon="-3.6595987"><ele>32.0</ele><time>2026-03-07T13:25:47.998Z</time></trkpt><trkpt lat="36.7491507" lon="-3.6595183"><ele>33.0</ele><time>2026-03-07T13:25:49Z</time></trkpt><trkpt lat="36.7491669" lon="-3.659437"><ele>34.0</ele><time>2026-03-07T13:25:50.009Z</time></trkpt><trkpt lat="36.749161" lon="-3.6592964"><ele>35.0</ele><time>2026-03-07T13:25:51.995Z</time></trkpt><trkpt lat="36.7491412" lon="-3.6592204"><ele>36.0</ele><time>2026-03-07T13:25:52.992Z</time></trkpt><trkpt lat="36.7491177" lon="-3.6591459"><ele>37.0</ele><time>2026-03-07T13:25:54.001Z</time></trkpt><trkpt lat="36.7490888" lon="-3.6590671"><ele>38.0</ele><time>2026-03-07T13:25:54.992Z</time></trkpt><trkpt lat="36.7490505" lon="-3.6589939"><ele>39.0</ele><time>2026-03-07T13:25:56.002Z</time></trkpt><trkpt lat="36.7490098" lon="-3.658918"><ele>39.0</ele><time>2026-03-07T13:25:56.998Z</time></trkpt><trkpt lat="36.7489667" lon="-3.6588506"><ele>39.0</ele><time>2026-03-07T13:25:58.006Z</time></trkpt><trkpt lat="36.7489207" lon="-3.6587953"><ele>39.0</ele><time>2026-03-07T13:25:59.004Z</time></trkpt><trkpt lat="36.7489041" lon="-3.6587122"><ele>39.0</ele><time>2026-03-07T13:25:59.998Z</time></trkpt><trkpt lat="36.7488733" lon="-3.6585756"><ele>39.0</ele><time>2026-03-07T13:26:01.998Z</time></trkpt><trkpt lat="36.7488675" lon="-3.6584468"><ele>39.0</ele><time>2026-03-07T13:26:04.016Z</time></trkpt><trkpt lat="36.7489408" lon="-3.6584123"><ele>39.666666666666664</ele><time>2026-03-07T13:26:06.007Z</time></trkpt><trkpt lat="36.7490058" lon="-3.6583933"><ele>40.333333333333336</ele><time>2026-03-07T13:26:07.006Z</time></trkpt><trkpt lat="36.7490793" lon="-3.6583929"><ele>41.0</ele><time>2026-03-07T13:26:08.007Z</time></trkpt><trkpt lat="36.7491597" lon="-3.6584307"><ele>41.66666666666667</ele><time>2026-03-07T13:26:09.004Z</time></trkpt><trkpt lat="36.7492319" lon="-3.6584654"><ele>42.333333333333336</ele><time>2026-03-07T13:26:10.007Z</time></trkpt><trkpt lat="36.7492961" lon="-3.6584926"><ele>43.0</ele><time>2026-03-07T13:26:11.003Z</time></trkpt><trkpt lat="36.7493808" lon="-3.6584964"><ele>44.66666666666667</ele><time>2026-03-07T13:26:13.001Z</time></trkpt><trkpt lat="36.7494624" lon="-3.6584582"><ele>46.333333333333336</ele><time>2026-03-07T13:26:15.007Z</time></trkpt><trkpt lat="36.7495276" lon="-3.6584209"><ele>48.0</ele><time>2026-03-07T13:26:15.999Z</time></trkpt><trkpt lat="36.7496063" lon="-3.658374"><ele>49.66666666666667</ele><time>2026-03-07T13:26:17.011Z</time></trkpt><trkpt lat="36.7496881" lon="-3.6583201"><ele>51.333333333333336</ele><time>2026-03-07T13:26:17.996Z</time></trkpt><trkpt lat="36.7497663" lon="-3.6582751"><ele>53.0</ele><time>2026-03-07T13:26:18.998Z</time></trkpt><trkpt lat="36.7498451" lon="-3.6582439"><ele>53.0</ele><time>2026-03-07T13:26:19.996Z</time></trkpt><trkpt lat="36.7499273" lon="-3.6582176"><ele>53.0</ele><time>2026-03-07T13:26:20.993Z</time></trkpt><trkpt lat="36.7500201" lon="-3.6582047"><ele>53.0</ele><time>2026-03-07T13:26:21.989Z</time></trkpt><trkpt lat="36.7501195" lon="-3.6582077"><ele>53.0</ele><time>2026-03-07T13:26:23.002Z</time></trkpt><trkpt lat="36.7502208" lon="-3.6582171"><ele>53.0</ele><time>2026-03-07T13:26:23.997Z</time></trkpt><trkpt lat="36.7503218" lon="-3.658231"><ele>53.50000000000001</ele><time>2026-03-07T13:26:24.994Z</time></trkpt><trkpt lat="36.7504189" lon="-3.6582467"><ele>54.0</ele><time>2026-03-07T13:26:25.982Z</time></trkpt><trkpt lat="36.7505081" lon="-3.6582629"><ele>54.5</ele><time>2026-03-07T13:26:27.001Z</time></trkpt><trkpt lat="36.7505838" lon="-3.6582805"><ele>55.0</ele><time>2026-03-07T13:26:28.007Z</time></trkpt><trkpt lat="36.7506591" lon="-3.658299"><ele>55.50000000000001</ele><time>2026-03-07T13:26:28.999Z</time></trkpt><trkpt lat="36.7507493" lon="-3.658313"><ele>56.0</ele><time>2026-03-07T13:26:30.003Z</time></trkpt><trkpt lat="36.7508677" lon="-3.6583126"><ele>56.0</ele><time>2026-03-07T13:26:30.989Z</time></trkpt><trkpt lat="36.7510058" lon="-3.6583107"><ele>56.0</ele><time>2026-03-07T13:26:32.009Z</time></trkpt><trkpt lat="36.7511573" lon="-3.6582946"><ele>56.0</ele><time>2026-03-07T13:26:33.005Z</time></trkpt><trkpt lat="36.7513135" lon="-3.6582585"><ele>56.0</ele><time>2026-03-07T13:26:33.996Z</time></trkpt><trkpt lat="36.7514696" lon="-3.6581954"><ele>58.66666666666667</ele><time>2026-03-07T13:26:34.991Z</time></trkpt><trkpt lat="36.7516253" lon="-3.6581088"><ele>61.33333333333333</ele><time>2026-03-07T13:26:35.998Z</time></trkpt><trkpt lat="36.751774" lon="-3.6580047"><ele>64.0</ele><time>2026-03-07T13:26:36.993Z</time></trkpt><trkpt lat="36.7519263" lon="-3.6578798"><ele>62.666666666666664</ele><time>2026-03-07T13:26:37.994Z</time></trkpt><trkpt lat="36.7520775" lon="-3.6577507"><ele>61.33333333333333</ele><time>2026-03-07T13:26:38.984Z</time></trkpt><trkpt lat="36.7522251" lon="-3.6576155"><ele>60.0</ele><time>2026-03-07T13:26:39.998Z</time></trkpt><trkpt lat="36.7523633" lon="-3.6574831"><ele>60.0</ele><time>2026-03-07T13:26:41.017Z</time></trkpt><trkpt lat="36.752486" lon="-3.6573443"><ele>60.0</ele><time>2026-03-07T13:26:41.999Z</time></trkpt><trkpt lat="36.7526031" lon="-3.6572025"><ele>60.0</ele><time>2026-03-07T13:26:42.996Z</time></trkpt><trkpt lat="36.7527138" lon="-3.6570556"><ele>59.66666666666667</ele><time>2026-03-07T13:26:44Z</time></trkpt><trkpt lat="36.752821" lon="-3.6568983"><ele>59.333333333333336</ele><time>2026-03-07T13:26:44.996Z</time></trkpt><trkpt lat="36.752923" lon="-3.6567379"><ele>59.0</ele><time>2026-03-07T13:26:45.997Z</time></trkpt><trkpt lat="36.7530212" lon="-3.6565771"><ele>59.0</ele><time>2026-03-07T13:26:47.013Z</time></trkpt><trkpt lat="36.7531197" lon="-3.6564186"><ele>59.0</ele><time>2026-03-07T13:26:47.999Z</time></trkpt><trkpt lat="36.7532248" lon="-3.6562642"><ele>59.0</ele><time>2026-03-07T13:26:48.999Z</time></trkpt><trkpt lat="36.7533328" lon="-3.6561128"><ele>58.0</ele><time>2026-03-07T13:26:49.999Z</time></trkpt><trkpt lat="36.7534527" lon="-3.655971"><ele>57.0</ele><time>2026-03-07T13:26:50.995Z</time></trkpt><trkpt lat="36.7535867" lon="-3.6558425"><ele>56.0</ele><time>2026-03-07T13:26:51.999Z</time></trkpt><trkpt lat="36.7537237" lon="-3.655726"><ele>60.0</ele><time>2026-03-07T13:26:53.014Z</time></trkpt><trkpt lat="36.7538714" lon="-3.6556192"><ele>64.0</ele><time>2026-03-07T13:26:54.003Z</time></trkpt><trkpt lat="36.7540198" lon="-3.6555149"><ele>68.0</ele><time>2026-03-07T13:26:55Z</time></trkpt><trkpt lat="36.7541671" lon="-3.6554111"><ele>68.0</ele><time>2026-03-07T13:26:56.003Z</time></trkpt><trkpt lat="36.7543105" lon="-3.6553059"><ele>68.0</ele><time>2026-03-07T13:26:57.003Z</time></trkpt><trkpt lat="36.7544505" lon="-3.6551986"><ele>68.0</ele><time>2026-03-07T13:26:57.99Z</time></trkpt><trkpt lat="36.7545866" lon="-3.6550829"><ele>67.66666666666667</ele><time>2026-03-07T13:26:59.001Z</time></trkpt><trkpt lat="36.7547138" lon="-3.6549575"><ele>67.33333333333333</ele><time>2026-03-07T13:27:00.016Z</time></trkpt><trkpt lat="36.7548261" lon="-3.6548231"><ele>67.0</ele><time>2026-03-07T13:27:01.001Z</time></trkpt><trkpt lat="36.7549333" lon="-3.6546862"><ele>67.0</ele><time>2026-03-07T13:27:02.001Z</time></trkpt><trkpt lat="36.7550202" lon="-3.6545313"><ele>67.0</ele><time>2026-03-07T13:27:02.99Z</time></trkpt><trkpt lat="36.7550922" lon="-3.65436"><ele>67.0</ele><time>2026-03-07T13:27:03.994Z</time></trkpt><trkpt lat="36.7551408" lon="-3.6541784"><ele>67.25</ele><time>2026-03-07T13:27:05.003Z</time></trkpt><trkpt lat="36.755173" lon="-3.6539984"><ele>67.5</ele><time>2026-03-07T13:27:06.001Z</time></trkpt><trkpt lat="36.7551906" lon="-3.6538339"><ele>67.75</ele><time>2026-03-07T13:27:06.993Z</time></trkpt><trkpt lat="36.7551997" lon="-3.6536898"><ele>68.0</ele><time>2026-03-07T13:27:08.002Z</time></trkpt><trkpt lat="36.7551832" lon="-3.6535743"><ele>67.66666666666667</ele><time>2026-03-07T13:27:08.999Z</time></trkpt><trkpt lat="36.755155" lon="-3.6534791"><ele>67.33333333333334</ele><time>2026-03-07T13:27:10.021Z</time></trkpt><trkpt lat="36.7551161" lon="-3.6533945"><ele>67.0</ele><time>2026-03-07T13:27:11.061Z</time></trkpt><trkpt lat="36.7550694" lon="-3.6533022"><ele>66.66666666666667</ele><time>2026-03-07T13:27:12.005Z</time></trkpt><trkpt lat="36.7550269" lon="-3.6532036"><ele>66.33333333333333</ele><time>2026-03-07T13:27:13.004Z</time></trkpt><trkpt lat="36.7549982" lon="-3.6531002"><ele>66.0</ele><time>2026-03-07T13:27:14.003Z</time></trkpt><trkpt lat="36.7549946" lon="-3.6529981"><ele>66.0</ele><time>2026-03-07T13:27:15.014Z</time></trkpt><trkpt lat="36.7550256" lon="-3.6529013"><ele>66.0</ele><time>2026-03-07T13:27:16.007Z</time></trkpt><trkpt lat="36.7550738" lon="-3.6528121"><ele>66.0</ele><time>2026-03-07T13:27:16.99Z</time></trkpt><trkpt lat="36.7551429" lon="-3.6527452"><ele>66.0</ele><time>2026-03-07T13:27:17.999Z</time></trkpt><trkpt lat="36.7552073" lon="-3.6527059"><ele>66.0</ele><time>2026-03-07T13:27:18.998Z</time></trkpt><trkpt lat="36.755317" lon="-3.6526951"><ele>66.0</ele><time>2026-03-07T13:27:21.009Z</time></trkpt><trkpt lat="36.7553968" lon="-3.6526834"><ele>68.83333333333333</ele><time>2026-03-07T13:27:23.01Z</time></trkpt><trkpt lat="36.7554592" lon="-3.6526612"><ele>71.66666666666667</ele><time>2026-03-07T13:27:35.007Z</time></trkpt><trkpt lat="36.7555649" lon="-3.6527458"><ele>74.5</ele><time>2026-03-07T13:27:36.999Z</time></trkpt><trkpt lat="36.755627" lon="-3.6528027"><ele>77.33333333333334</ele><time>2026-03-07T13:27:37.99Z</time></trkpt><trkpt lat="36.7556972" lon="-3.6528653"><ele>80.16666666666667</ele><time>2026-03-07T13:27:39Z</time></trkpt><trkpt lat="36.7557753" lon="-3.6529239"><ele>83.0</ele><time>2026-03-07T13:27:40.009Z</time></trkpt><trkpt lat="36.7558534" lon="-3.6529862"><ele>83.60000000000001</ele><time>2026-03-07T13:27:40.982Z</time></trkpt><trkpt lat="36.75593" lon="-3.6530514"><ele>84.2</ele><time>2026-03-07T13:27:41.995Z</time></trkpt><trkpt lat="36.7559966" lon="-3.6531364"><ele>84.8</ele><time>2026-03-07T13:27:42.997Z</time></trkpt><trkpt lat="36.7560521" lon="-3.6532332"><ele>85.4</ele><time>2026-03-07T13:27:43.994Z</time></trkpt><trkpt lat="36.7560909" lon="-3.6533416"><ele>86.0</ele><time>2026-03-07T13:27:45.027Z</time></trkpt><trkpt lat="36.7561156" lon="-3.6534456"><ele>86.66666666666667</ele><time>2026-03-07T13:27:45.997Z</time></trkpt><trkpt lat="36.7561386" lon="-3.6535381"><ele>87.33333333333334</ele><time>2026-03-07T13:27:47.005Z</time></trkpt><trkpt lat="36.7561532" lon="-3.6536209"><ele>88.0</ele><time>2026-03-07T13:27:47.994Z</time></trkpt><trkpt lat="36.7561776" lon="-3.6537008"><ele>88.66666666666667</ele><time>2026-03-07T13:27:50.012Z</time></trkpt><trkpt lat="36.7562525" lon="-3.6537073"><ele>89.33333333333333</ele><time>2026-03-07T13:27:53.008Z</time></trkpt><trkpt lat="36.756265" lon="-3.6536178"><ele>90.0</ele><time>2026-03-07T13:27:54.99Z</time></trkpt><trkpt lat="36.7562554" lon="-3.6534656"><ele>93.66666666666667</ele><time>2026-03-07T13:27:57.005Z</time></trkpt><trkpt lat="36.7562582" lon="-3.6533795"><ele>97.33333333333334</ele><time>2026-03-07T13:27:58.006Z</time></trkpt><trkpt lat="36.7562657" lon="-3.6532967"><ele>101.0</ele><time>2026-03-07T13:27:59.015Z</time></trkpt><trkpt lat="36.7562795" lon="-3.6531768"><ele>104.66666666666667</ele><time>2026-03-07T13:28:00.997Z</time></trkpt><trkpt lat="36.7563147" lon="-3.6531101"><ele>108.33333333333334</ele><time>2026-03-07T13:28:02.995Z</time></trkpt><trkpt lat="36.7563899" lon="-3.653131"><ele>112.0</ele><time>2026-03-07T13:28:05.009Z</time></trkpt><trkpt lat="36.756416" lon="-3.6532488"><ele>112.0</ele><time>2026-03-07T13:28:06.998Z</time></trkpt><trkpt lat="36.7564341" lon="-3.6533754"><ele>111.99999999999999</ele><time>2026-03-07T13:28:08.988Z</time></trkpt><trkpt lat="36.7565096" lon="-3.6534558"><ele>111.99999999999999</ele><time>2026-03-07T13:28:10.996Z</time></trkpt><trkpt lat="36.7566122" lon="-3.6534868"><ele>112.0</ele><time>2026-03-07T13:28:12.999Z</time></trkpt><trkpt lat="36.7567373" lon="-3.6535205"><ele>112.0</ele><time>2026-03-07T13:28:15.007Z</time></trkpt><trkpt lat="36.7568187" lon="-3.6535442"><ele>114.66666666666667</ele><time>2026-03-07T13:28:16.002Z</time></trkpt><trkpt lat="36.7569034" lon="-3.6535594"><ele>117.33333333333334</ele><time>2026-03-07T13:28:16.991Z</time></trkpt><trkpt lat="36.7569788" lon="-3.6535675"><ele>120.0</ele><time>2026-03-07T13:28:17.998Z</time></trkpt><trkpt lat="36.7570585" lon="-3.653573"><ele>122.66666666666666</ele><time>2026-03-07T13:28:19.001Z</time></trkpt><trkpt lat="36.7571507" lon="-3.6535582"><ele>125.33333333333333</ele><time>2026-03-07T13:28:20.004Z</time></trkpt><trkpt lat="36.7572418" lon="-3.6535268"><ele>128.0</ele><time>2026-03-07T13:28:20.989Z</time></trkpt><trkpt lat="36.7573263" lon="-3.6534809"><ele>128.0</ele><time>2026-03-07T13:28:22.011Z</time></trkpt><trkpt lat="36.7574127" lon="-3.6534351"><ele>128.0</ele><time>2026-03-07T13:28:23.005Z</time></trkpt><trkpt lat="36.7574977" lon="-3.6533946"><ele>128.0</ele><time>2026-03-07T13:28:24.001Z</time></trkpt><trkpt lat="36.7575879" lon="-3.6533624"><ele>128.0</ele><time>2026-03-07T13:28:25.01Z</time></trkpt><trkpt lat="36.7576813" lon="-3.6533279"><ele>128.0</ele><time>2026-03-07T13:28:25.995Z</time></trkpt><trkpt lat="36.7577718" lon="-3.6532895"><ele>127.16666666666666</ele><time>2026-03-07T13:28:26.999Z</time></trkpt><trkpt lat="36.757864" lon="-3.6532471"><ele>126.33333333333333</ele><time>2026-03-07T13:28:27.998Z</time></trkpt><trkpt lat="36.7579521" lon="-3.653211"><ele>125.5</ele><time>2026-03-07T13:28:29Z</time></trkpt><trkpt lat="36.7580257" lon="-3.6531788"><ele>124.66666666666666</ele><time>2026-03-07T13:28:29.996Z</time></trkpt><trkpt lat="36.7581011" lon="-3.6531571"><ele>123.83333333333333</ele><time>2026-03-07T13:28:30.99Z</time></trkpt><trkpt lat="36.7581785" lon="-3.6531425"><ele>123.0</ele><time>2026-03-07T13:28:32.003Z</time></trkpt><trkpt lat="36.7582524" lon="-3.6531393"><ele>123.0</ele><time>2026-03-07T13:28:33.008Z</time></trkpt><trkpt lat="36.7583227" lon="-3.6531442"><ele>123.00000000000001</ele><time>2026-03-07T13:28:34Z</time></trkpt><trkpt lat="36.7583863" lon="-3.6531562"><ele>123.00000000000001</ele><time>2026-03-07T13:28:34.989Z</time></trkpt><trkpt lat="36.7584885" lon="-3.653128"><ele>123.0</ele><time>2026-03-07T13:28:37.003Z</time></trkpt><trkpt lat="36.7585593" lon="-3.6529776"><ele>123.0</ele><time>2026-03-07T13:28:38.984Z</time></trkpt><trkpt lat="36.7585915" lon="-3.6528772"><ele>126.0</ele><time>2026-03-07T13:28:40.008Z</time></trkpt><trkpt lat="36.758624" lon="-3.6527879"><ele>129.0</ele><time>2026-03-07T13:28:41.021Z</time></trkpt><trkpt lat="36.758668" lon="-3.6527054"><ele>132.0</ele><time>2026-03-07T13:28:42.01Z</time></trkpt><trkpt lat="36.758725" lon="-3.6526285"><ele>135.0</ele><time>2026-03-07T13:28:42.994Z</time></trkpt><trkpt lat="36.7587958" lon="-3.6525572"><ele>138.0</ele><time>2026-03-07T13:28:44.013Z</time></trkpt><trkpt lat="36.7588787" lon="-3.6524857"><ele>141.0</ele><time>2026-03-07T13:28:45.012Z</time></trkpt><trkpt lat="36.7589592" lon="-3.65243"><ele>141.0</ele><time>2026-03-07T13:28:46.049Z</time></trkpt><trkpt lat="36.7590442" lon="-3.6523802"><ele>141.0</ele><time>2026-03-07T13:28:46.98Z</time></trkpt><trkpt lat="36.7591233" lon="-3.6523406"><ele>141.0</ele><time>2026-03-07T13:28:48.001Z</time></trkpt><trkpt lat="36.7591993" lon="-3.6523039"><ele>141.0</ele><time>2026-03-07T13:28:49.019Z</time></trkpt><trkpt lat="36.7592742" lon="-3.6522654"><ele>141.0</ele><time>2026-03-07T13:28:49.988Z</time></trkpt><trkpt lat="36.7593399" lon="-3.6522169"><ele>141.0</ele><time>2026-03-07T13:28:51.003Z</time></trkpt><trkpt lat="36.7593915" lon="-3.6521492"><ele>142.5</ele><time>2026-03-07T13:28:52.003Z</time></trkpt><trkpt lat="36.7594227" lon="-3.6520698"><ele>144.0</ele><time>2026-03-07T13:28:53.003Z</time></trkpt><trkpt lat="36.7594442" lon="-3.6519748"><ele>145.5</ele><time>2026-03-07T13:28:54.001Z</time></trkpt><trkpt lat="36.7594619" lon="-3.6518575"><ele>147.0</ele><time>2026-03-07T13:28:54.994Z</time></trkpt><trkpt lat="36.7594783" lon="-3.6517502"><ele>148.5</ele><time>2026-03-07T13:28:55.991Z</time></trkpt><trkpt lat="36.7594937" lon="-3.6516385"><ele>150.0</ele><time>2026-03-07T13:28:57.007Z</time></trkpt><trkpt lat="36.7595077" lon="-3.6515325"><ele>150.0</ele><time>2026-03-07T13:28:58.026Z</time></trkpt><trkpt lat="36.7595181" lon="-3.6514264"><ele>150.0</ele><time>2026-03-07T13:28:59.001Z</time></trkpt><trkpt lat="36.7595242" lon="-3.6513186"><ele>150.0</ele><time>2026-03-07T13:28:59.969Z</time></trkpt><trkpt lat="36.7595332" lon="-3.651215"><ele>150.0</ele><time>2026-03-07T13:29:00.984Z</time></trkpt><trkpt lat="36.7595609" lon="-3.6510995"><ele>150.0</ele><time>2026-03-07T13:29:01.982Z</time></trkpt><trkpt lat="36.7595997" lon="-3.6509944"><ele>150.0</ele><time>2026-03-07T13:29:02.966Z</time></trkpt><trkpt lat="36.7596334" lon="-3.6509057"><ele>150.5</ele><time>2026-03-07T13:29:03.997Z</time></trkpt><trkpt lat="36.7596592" lon="-3.6508318"><ele>151.0</ele><time>2026-03-07T13:29:05.019Z</time></trkpt><trkpt lat="36.7597469" lon="-3.6507285"><ele>151.5</ele><time>2026-03-07T13:29:07.007Z</time></trkpt><trkpt lat="36.7598145" lon="-3.6507156"><ele>152.0</ele><time>2026-03-07T13:29:08.029Z</time></trkpt><trkpt lat="36.7598903" lon="-3.6507173"><ele>152.5</ele><time>2026-03-07T13:29:09.054Z</time></trkpt><trkpt lat="36.7599678" lon="-3.6507251"><ele>153.0</ele><time>2026-03-07T13:29:10.012Z</time></trkpt><trkpt lat="36.7600313" lon="-3.6507332"><ele>153.0</ele><time>2026-03-07T13:29:11.013Z</time></trkpt><trkpt lat="36.7601169" lon="-3.6507165"><ele>153.0</ele><time>2026-03-07T13:29:13.058Z</time></trkpt><trkpt lat="36.7601778" lon="-3.6506512"><ele>153.0</ele><time>2026-03-07T13:29:16.013Z</time></trkpt><trkpt lat="36.7602036" lon="-3.6505413"><ele>153.0</ele><time>2026-03-07T13:29:18.008Z</time></trkpt><trkpt lat="36.7602085" lon="-3.6503749"><ele>153.0</ele><time>2026-03-07T13:29:20.004Z</time></trkpt><trkpt lat="36.7602081" lon="-3.6502776"><ele>158.42857142857142</ele><time>2026-03-07T13:29:20.998Z</time></trkpt><trkpt lat="36.7602091" lon="-3.6501882"><ele>163.85714285714286</ele><time>2026-03-07T13:29:22.006Z</time></trkpt><trkpt lat="36.760216" lon="-3.6501077"><ele>169.28571428571428</ele><time>2026-03-07T13:29:23.011Z</time></trkpt><trkpt lat="36.7602508" lon="-3.6500326"><ele>174.71428571428572</ele><time>2026-03-07T13:29:23.996Z</time></trkpt><trkpt lat="36.7602956" lon="-3.6499517"><ele>180.14285714285714</ele><time>2026-03-07T13:29:25.003Z</time></trkpt><trkpt lat="36.7603455" lon="-3.649872"><ele>185.57142857142858</ele><time>2026-03-07T13:29:25.995Z</time></trkpt><trkpt lat="36.7603855" lon="-3.6498008"><ele>191.0</ele><time>2026-03-07T13:29:27.005Z</time></trkpt><trkpt lat="36.7604224" lon="-3.6496556"><ele>191.0</ele><time>2026-03-07T13:29:29.009Z</time></trkpt><trkpt lat="36.7603994" lon="-3.6495718"><ele>191.0</ele><time>2026-03-07T13:29:30.01Z</time></trkpt><trkpt lat="36.7603529" lon="-3.6494975"><ele>191.0</ele><time>2026-03-07T13:29:30.991Z</time></trkpt><trkpt lat="36.7603041" lon="-3.6494287"><ele>191.0</ele><time>2026-03-07T13:29:32.001Z</time></trkpt><trkpt lat="36.7602585" lon="-3.6493648"><ele>191.0</ele><time>2026-03-07T13:29:33.008Z</time></trkpt><trkpt lat="36.7602185" lon="-3.6493036"><ele>191.0</ele><time>2026-03-07T13:29:34.004Z</time></trkpt><trkpt lat="36.7601868" lon="-3.6492354"><ele>191.0</ele><time>2026-03-07T13:29:35Z</time></trkpt><trkpt lat="36.7601614" lon="-3.6491584"><ele>192.4</ele><time>2026-03-07T13:29:36.003Z</time></trkpt><trkpt lat="36.7601393" lon="-3.6490129"><ele>193.8</ele><time>2026-03-07T13:29:38.008Z</time></trkpt><trkpt lat="36.7601699" lon="-3.6488703"><ele>195.20000000000002</ele><time>2026-03-07T13:29:40.006Z</time></trkpt><trkpt lat="36.7602001" lon="-3.6488002"><ele>196.60000000000002</ele><time>2026-03-07T13:29:41.004Z</time></trkpt><trkpt lat="36.7602995" lon="-3.6487078"><ele>198.0</ele><time>2026-03-07T13:29:42.998Z</time></trkpt><trkpt lat="36.7604006" lon="-3.6486284"><ele>196.33333333333334</ele><time>2026-03-07T13:29:45.001Z</time></trkpt><trkpt lat="36.7604739" lon="-3.6485339"><ele>194.66666666666666</ele><time>2026-03-07T13:29:47.006Z</time></trkpt><trkpt lat="36.7605225" lon="-3.6484142"><ele>193.0</ele><time>2026-03-07T13:29:49Z</time></trkpt><trkpt lat="36.760536" lon="-3.648335"><ele>191.33333333333331</ele><time>2026-03-07T13:29:50.001Z</time></trkpt><trkpt lat="36.7605458" lon="-3.6482561"><ele>189.66666666666666</ele><time>2026-03-07T13:29:50.998Z</time></trkpt><trkpt lat="36.7605419" lon="-3.648174"><ele>188.0</ele><time>2026-03-07T13:29:51.991Z</time></trkpt><trkpt lat="36.7605304" lon="-3.6480896"><ele>188.0</ele><time>2026-03-07T13:29:53.049Z</time></trkpt><trkpt lat="36.7605108" lon="-3.648003"><ele>188.0</ele><time>2026-03-07T13:29:54.006Z</time></trkpt><trkpt lat="36.7604835" lon="-3.6479199"><ele>188.0</ele><time>2026-03-07T13:29:55.003Z</time></trkpt><trkpt lat="36.76046" lon="-3.6478441"><ele>188.0</ele><time>2026-03-07T13:29:56.018Z</time></trkpt><trkpt lat="36.7604341" lon="-3.647772"><ele>188.0</ele><time>2026-03-07T13:29:56.997Z</time></trkpt><trkpt lat="36.7603773" lon="-3.6476422"><ele>188.0</ele><time>2026-03-07T13:29:59.004Z</time></trkpt><trkpt lat="36.7603286" lon="-3.6475148"><ele>186.66666666666666</ele><time>2026-03-07T13:30:01.013Z</time></trkpt><trkpt lat="36.760316" lon="-3.6474355"><ele>185.33333333333331</ele><time>2026-03-07T13:30:01.999Z</time></trkpt><trkpt lat="36.7603275" lon="-3.6473379"><ele>184.0</ele><time>2026-03-07T13:30:03.009Z</time></trkpt><trkpt lat="36.7603717" lon="-3.6472515"><ele>182.66666666666666</ele><time>2026-03-07T13:30:03.995Z</time></trkpt><trkpt lat="36.7604279" lon="-3.6471742"><ele>181.33333333333334</ele><time>2026-03-07T13:30:05.001Z</time></trkpt><trkpt lat="36.7604979" lon="-3.6471181"><ele>180.0</ele><time>2026-03-07T13:30:06.005Z</time></trkpt><trkpt lat="36.760586" lon="-3.6470607"><ele>180.0</ele><time>2026-03-07T13:30:06.999Z</time></trkpt><trkpt lat="36.7606645" lon="-3.6470074"><ele>180.0</ele><time>2026-03-07T13:30:08.001Z</time></trkpt><trkpt lat="36.7607257" lon="-3.6469424"><ele>180.0</ele><time>2026-03-07T13:30:08.996Z</time></trkpt><trkpt lat="36.7607735" lon="-3.6468484"><ele>180.0</ele><time>2026-03-07T13:30:09.998Z</time></trkpt><trkpt lat="36.7608108" lon="-3.6467342"><ele>180.0</ele><time>2026-03-07T13:30:10.999Z</time></trkpt><trkpt lat="36.7608531" lon="-3.6466145"><ele>179.4</ele><time>2026-03-07T13:30:12.007Z</time></trkpt><trkpt lat="36.760908" lon="-3.6464895"><ele>178.8</ele><time>2026-03-07T13:30:12.996Z</time></trkpt><trkpt lat="36.7609739" lon="-3.6463691"><ele>178.2</ele><time>2026-03-07T13:30:14.024Z</time></trkpt><trkpt lat="36.7610339" lon="-3.6462551"><ele>177.6</ele><time>2026-03-07T13:30:15.007Z</time></trkpt><trkpt lat="36.761096" lon="-3.6461626"><ele>177.0</ele><time>2026-03-07T13:30:16.005Z</time></trkpt><trkpt lat="36.761155" lon="-3.6460837"><ele>181.2</ele><time>2026-03-07T13:30:16.994Z</time></trkpt><trkpt lat="36.7612124" lon="-3.646029"><ele>185.39999999999998</ele><time>2026-03-07T13:30:17.993Z</time></trkpt><trkpt lat="36.7612964" lon="-3.6459367"><ele>189.60000000000002</ele><time>2026-03-07T13:30:20.007Z</time></trkpt><trkpt lat="36.7612998" lon="-3.6458452"><ele>193.8</ele><time>2026-03-07T13:30:22Z</time></trkpt><trkpt lat="36.7612177" lon="-3.6457291"><ele>198.0</ele><time>2026-03-07T13:30:23.992Z</time></trkpt><trkpt lat="36.7611516" lon="-3.6456697"><ele>198.0</ele><time>2026-03-07T13:30:24.996Z</time></trkpt><trkpt lat="36.7610921" lon="-3.6456124"><ele>198.0</ele><time>2026-03-07T13:30:26.005Z</time></trkpt><trkpt lat="36.7610434" lon="-3.6455389"><ele>198.0</ele><time>2026-03-07T13:30:27.007Z</time></trkpt><trkpt lat="36.7610179" lon="-3.6454441"><ele>198.0</ele><time>2026-03-07T13:30:28.013Z</time></trkpt><trkpt lat="36.7610238" lon="-3.6453336"><ele>198.0</ele><time>2026-03-07T13:30:29.002Z</time></trkpt><trkpt lat="36.7610452" lon="-3.6452202"><ele>198.0</ele><time>2026-03-07T13:30:30.003Z</time></trkpt><trkpt lat="36.7610865" lon="-3.6451145"><ele>198.0</ele><time>2026-03-07T13:30:31.015Z</time></trkpt><trkpt lat="36.7611486" lon="-3.6450125"><ele>198.0</ele><time>2026-03-07T13:30:31.999Z</time></trkpt><trkpt lat="36.7612217" lon="-3.644942"><ele>198.0</ele><time>2026-03-07T13:30:33.001Z</time></trkpt><trkpt lat="36.7613083" lon="-3.6449119"><ele>198.0</ele><time>2026-03-07T13:30:34.028Z</time></trkpt><trkpt lat="36.7614029" lon="-3.6449031"><ele>198.0</ele><time>2026-03-07T13:30:35.006Z</time></trkpt><trkpt lat="36.7614954" lon="-3.6449041"><ele>198.0</ele><time>2026-03-07T13:30:36.005Z</time></trkpt><trkpt lat="36.7615834" lon="-3.6448921"><ele>198.0</ele><time>2026-03-07T13:30:37.002Z</time></trkpt><trkpt lat="36.7616528" lon="-3.6448608"><ele>198.0</ele><time>2026-03-07T13:30:38Z</time></trkpt><trkpt lat="36.761714" lon="-3.6448341"><ele>198.0</ele><time>2026-03-07T13:30:39.004Z</time></trkpt><trkpt lat="36.7617884" lon="-3.6447775"><ele>198.0</ele><time>2026-03-07T13:30:41.041Z</time></trkpt><trkpt lat="36.7618444" lon="-3.6447032"><ele>198.0</ele><time>2026-03-07T13:30:43.054Z</time></trkpt><trkpt lat="36.7619023" lon="-3.6446215"><ele>199.33333333333334</ele><time>2026-03-07T13:30:45.022Z</time></trkpt><trkpt lat="36.7619742" lon="-3.6444952"><ele>200.66666666666669</ele><time>2026-03-07T13:30:46.995Z</time></trkpt><trkpt lat="36.7620062" lon="-3.6444135"><ele>202.0</ele><time>2026-03-07T13:30:48.009Z</time></trkpt><trkpt lat="36.762017" lon="-3.6443253"><ele>203.33333333333334</ele><time>2026-03-07T13:30:49.992Z</time></trkpt><trkpt lat="36.7620189" lon="-3.6444175"><ele>204.66666666666669</ele><time>2026-03-07T13:30:59.035Z</time></trkpt><trkpt lat="36.7619963" lon="-3.6445459"><ele>206.0</ele><time>2026-03-07T13:31:02.043Z</time></trkpt><trkpt lat="36.761931" lon="-3.6445581"><ele>206.00000000000003</ele><time>2026-03-07T13:31:03.071Z</time></trkpt><trkpt lat="36.7618711" lon="-3.6446304"><ele>206.0</ele><time>2026-03-07T13:31:04.018Z</time></trkpt><trkpt lat="36.7617924" lon="-3.6446833"><ele>206.0</ele><time>2026-03-07T13:31:05.003Z</time></trkpt><trkpt lat="36.761712" lon="-3.6447315"><ele>206.0</ele><time>2026-03-07T13:31:06.01Z</time></trkpt><trkpt lat="36.7616308" lon="-3.6447635"><ele>206.00000000000003</ele><time>2026-03-07T13:31:07.054Z</time></trkpt><trkpt lat="36.7615481" lon="-3.6447935"><ele>206.0</ele><time>2026-03-07T13:31:08.029Z</time></trkpt><trkpt lat="36.7614683" lon="-3.6448157"><ele>204.4</ele><time>2026-03-07T13:31:09.052Z</time></trkpt><trkpt lat="36.7613811" lon="-3.6448371"><ele>202.8</ele><time>2026-03-07T13:31:10.088Z</time></trkpt><trkpt lat="36.7612968" lon="-3.6448502"><ele>201.20000000000002</ele><time>2026-03-07T13:31:11.083Z</time></trkpt><trkpt lat="36.761215" lon="-3.6449074"><ele>199.60000000000002</ele><time>2026-03-07T13:31:12.088Z</time></trkpt><trkpt lat="36.76114" lon="-3.6449858"><ele>198.0</ele><time>2026-03-07T13:31:13.074Z</time></trkpt><trkpt lat="36.761081" lon="-3.6450657"><ele>198.0</ele><time>2026-03-07T13:31:14.094Z</time></trkpt><trkpt lat="36.7610527" lon="-3.6451494"><ele>198.0</ele><time>2026-03-07T13:31:15.071Z</time></trkpt><trkpt lat="36.7610419" lon="-3.6452371"><ele>198.0</ele><time>2026-03-07T13:31:16.059Z</time></trkpt><trkpt lat="36.7610473" lon="-3.6453328"><ele>198.0</ele><time>2026-03-07T13:31:17.076Z</time></trkpt><trkpt lat="36.7610635" lon="-3.6454237"><ele>198.0</ele><time>2026-03-07T13:31:18.121Z</time></trkpt><trkpt lat="36.7611059" lon="-3.6455738"><ele>198.0</ele><time>2026-03-07T13:31:20.055Z</time></trkpt><trkpt lat="36.7610768" lon="-3.6456927"><ele>198.0</ele><time>2026-03-07T13:31:22.008Z</time></trkpt><trkpt lat="36.7610455" lon="-3.6457712"><ele>198.0</ele><time>2026-03-07T13:31:23.049Z</time></trkpt><trkpt lat="36.7609854" lon="-3.6458582"><ele>198.0</ele><time>2026-03-07T13:31:24.047Z</time></trkpt><trkpt lat="36.7609089" lon="-3.645941"><ele>198.0</ele><time>2026-03-07T13:31:25.074Z</time></trkpt><trkpt lat="36.76084" lon="-3.6460152"><ele>198.0</ele><time>2026-03-07T13:31:26.026Z</time></trkpt><trkpt lat="36.7607789" lon="-3.6460749"><ele>198.0</ele><time>2026-03-07T13:31:27.002Z</time></trkpt><trkpt lat="36.760685" lon="-3.6461351"><ele>196.0</ele><time>2026-03-07T13:31:29.015Z</time></trkpt><trkpt lat="36.7605774" lon="-3.6461095"><ele>194.0</ele><time>2026-03-07T13:31:31.006Z</time></trkpt><trkpt lat="36.7605291" lon="-3.6460576"><ele>192.0</ele><time>2026-03-07T13:31:32.005Z</time></trkpt><trkpt lat="36.7604949" lon="-3.6459747"><ele>190.0</ele><time>2026-03-07T13:31:32.999Z</time></trkpt><trkpt lat="36.7604479" lon="-3.6458969"><ele>188.0</ele><time>2026-03-07T13:31:33.999Z</time></trkpt><trkpt lat="36.7603982" lon="-3.6458261"><ele>186.0</ele><time>2026-03-07T13:31:34.999Z</time></trkpt><trkpt lat="36.7603405" lon="-3.6457563"><ele>186.0</ele><time>2026-03-07T13:31:36.01Z</time></trkpt><trkpt lat="36.7602871" lon="-3.6456976"><ele>186.0</ele><time>2026-03-07T13:31:37.013Z</time></trkpt><trkpt lat="36.7602374" lon="-3.645644"><ele>186.0</ele><time>2026-03-07T13:31:38.024Z</time></trkpt><trkpt lat="36.7601556" lon="-3.6455469"><ele>186.0</ele><time>2026-03-07T13:31:40.003Z</time></trkpt><trkpt lat="36.7600841" lon="-3.6455221"><ele>186.0</ele><time>2026-03-07T13:31:41.999Z</time></trkpt><trkpt lat="36.7600266" lon="-3.645655"><ele>186.0</ele><time>2026-03-07T13:31:44.008Z</time></trkpt><trkpt lat="36.7600013" lon="-3.6457675"><ele>188.20000000000002</ele><time>2026-03-07T13:31:45.007Z</time></trkpt><trkpt lat="36.7599761" lon="-3.645883"><ele>190.4</ele><time>2026-03-07T13:31:46.004Z</time></trkpt><trkpt lat="36.7599526" lon="-3.6459822"><ele>192.6</ele><time>2026-03-07T13:31:47.003Z</time></trkpt><trkpt lat="36.7599244" lon="-3.6461139"><ele>194.8</ele><time>2026-03-07T13:31:49.002Z</time></trkpt><trkpt lat="36.7598552" lon="-3.6461781"><ele>197.0</ele><time>2026-03-07T13:31:51.009Z</time></trkpt><trkpt lat="36.7597458" lon="-3.646201"><ele>197.00000000000003</ele><time>2026-03-07T13:31:52.993Z</time></trkpt><trkpt lat="36.7596796" lon="-3.646201"><ele>197.0</ele><time>2026-03-07T13:31:54.001Z</time></trkpt><trkpt lat="36.7596144" lon="-3.6461978"><ele>197.0</ele><time>2026-03-07T13:31:55.002Z</time></trkpt><trkpt lat="36.7595479" lon="-3.6461892"><ele>197.0</ele><time>2026-03-07T13:31:56.001Z</time></trkpt><trkpt lat="36.7594769" lon="-3.6461498"><ele>197.00000000000003</ele><time>2026-03-07T13:31:57Z</time></trkpt><trkpt lat="36.7593917" lon="-3.6460882"><ele>197.0</ele><time>2026-03-07T13:31:58.007Z</time></trkpt><trkpt lat="36.7593016" lon="-3.6460158"><ele>197.39999999999998</ele><time>2026-03-07T13:31:59.009Z</time></trkpt><trkpt lat="36.7592269" lon="-3.6459561"><ele>197.79999999999998</ele><time>2026-03-07T13:32:00.017Z</time></trkpt><trkpt lat="36.7591665" lon="-3.6459181"><ele>198.2</ele><time>2026-03-07T13:32:01.01Z</time></trkpt><trkpt lat="36.7591024" lon="-3.6459095"><ele>198.6</ele><time>2026-03-07T13:32:02.006Z</time></trkpt><trkpt lat="36.7589913" lon="-3.6459573"><ele>199.0</ele><time>2026-03-07T13:32:04.005Z</time></trkpt><trkpt lat="36.7589003" lon="-3.6460406"><ele>198.99999999999997</ele><time>2026-03-07T13:32:06.001Z</time></trkpt><trkpt lat="36.7588501" lon="-3.6460995"><ele>199.0</ele><time>2026-03-07T13:32:07.002Z</time></trkpt><trkpt lat="36.75879" lon="-3.6461554"><ele>199.0</ele><time>2026-03-07T13:32:08.012Z</time></trkpt><trkpt lat="36.758723" lon="-3.6462143"><ele>199.0</ele><time>2026-03-07T13:32:09.002Z</time></trkpt><trkpt lat="36.7586516" lon="-3.6462665"><ele>198.99999999999997</ele><time>2026-03-07T13:32:09.995Z</time></trkpt><trkpt lat="36.7585858" lon="-3.6463316"><ele>199.0</ele><time>2026-03-07T13:32:10.999Z</time></trkpt><trkpt lat="36.7585358" lon="-3.6463907"><ele>198.99999999999997</ele><time>2026-03-07T13:32:12.002Z</time></trkpt><trkpt lat="36.7584625" lon="-3.6464173"><ele>199.0</ele><time>2026-03-07T13:32:15.008Z</time></trkpt><trkpt lat="36.7585005" lon="-3.64632"><ele>199.0</ele><time>2026-03-07T13:32:17.006Z</time></trkpt><trkpt lat="36.7585468" lon="-3.6462459"><ele>199.0</ele><time>2026-03-07T13:32:18.011Z</time></trkpt><trkpt lat="36.7585839" lon="-3.6461822"><ele>198.99999999999997</ele><time>2026-03-07T13:32:19.009Z</time></trkpt><trkpt lat="36.7586633" lon="-3.6460526"><ele>199.0</ele><time>2026-03-07T13:32:21.001Z</time></trkpt><trkpt lat="36.7587162" lon="-3.6459773"><ele>198.99999999999997</ele><time>2026-03-07T13:32:21.999Z</time></trkpt><trkpt lat="36.7587808" lon="-3.6458826"><ele>199.0</ele><time>2026-03-07T13:32:23.004Z</time></trkpt><trkpt lat="36.7588449" lon="-3.6457796"><ele>199.0</ele><time>2026-03-07T13:32:24.005Z</time></trkpt><trkpt lat="36.7588961" lon="-3.6456882"><ele>199.0</ele><time>2026-03-07T13:32:25.052Z</time></trkpt><trkpt lat="36.7589367" lon="-3.6456079"><ele>198.99999999999997</ele><time>2026-03-07T13:32:26.004Z</time></trkpt><trkpt lat="36.758976" lon="-3.6455438"><ele>199.0</ele><time>2026-03-07T13:32:27.002Z</time></trkpt><trkpt lat="36.7590861" lon="-3.6455068"><ele>198.99999999999997</ele><time>2026-03-07T13:32:28.998Z</time></trkpt><trkpt lat="36.7591615" lon="-3.6455135"><ele>199.0</ele><time>2026-03-07T13:32:29.988Z</time></trkpt><trkpt lat="36.7592403" lon="-3.6455111"><ele>199.0</ele><time>2026-03-07T13:32:30.994Z</time></trkpt><trkpt lat="36.7593166" lon="-3.6454994"><ele>199.0</ele><time>2026-03-07T13:32:31.999Z</time></trkpt><trkpt lat="36.7593883" lon="-3.6454908"><ele>198.99999999999997</ele><time>2026-03-07T13:32:33Z</time></trkpt><trkpt lat="36.7594666" lon="-3.6454798"><ele>199.0</ele><time>2026-03-07T13:32:34.003Z</time></trkpt><trkpt lat="36.7595493" lon="-3.6454669"><ele>198.6</ele><time>2026-03-07T13:32:35.067Z</time></trkpt><trkpt lat="36.7596528" lon="-3.6454164"><ele>198.2</ele><time>2026-03-07T13:32:37.005Z</time></trkpt><trkpt lat="36.7597324" lon="-3.6452754"><ele>197.79999999999998</ele><time>2026-03-07T13:32:38.997Z</time></trkpt><trkpt lat="36.7597751" lon="-3.6451706"><ele>197.39999999999998</ele><time>2026-03-07T13:32:40.006Z</time></trkpt><trkpt lat="36.7598114" lon="-3.6450734"><ele>197.0</ele><time>2026-03-07T13:32:41.004Z</time></trkpt><trkpt lat="36.7598458" lon="-3.6449791"><ele>200.00000000000003</ele><time>2026-03-07T13:32:42.012Z</time></trkpt><trkpt lat="36.7598817" lon="-3.6448914"><ele>203.0</ele><time>2026-03-07T13:32:43.011Z</time></trkpt><trkpt lat="36.7599192" lon="-3.6448083"><ele>206.0</ele><time>2026-03-07T13:32:44Z</time></trkpt><trkpt lat="36.7599698" lon="-3.6447289"><ele>209.0</ele><time>2026-03-07T13:32:45Z</time></trkpt><trkpt lat="36.7600335" lon="-3.6446646"><ele>212.00000000000003</ele><time>2026-03-07T13:32:46.006Z</time></trkpt><trkpt lat="36.7601001" lon="-3.6446123"><ele>215.0</ele><time>2026-03-07T13:32:46.998Z</time></trkpt><trkpt lat="36.7601628" lon="-3.6445779"><ele>214.0</ele><time>2026-03-07T13:32:47.99Z</time></trkpt><trkpt lat="36.7602811" lon="-3.644545"><ele>213.0</ele><time>2026-03-07T13:32:50.008Z</time></trkpt><trkpt lat="36.7603759" lon="-3.6445174"><ele>212.0</ele><time>2026-03-07T13:32:52.011Z</time></trkpt><trkpt lat="36.7604679" lon="-3.6445262"><ele>211.0</ele><time>2026-03-07T13:32:54Z</time></trkpt><trkpt lat="36.7605695" lon="-3.6446008"><ele>210.0</ele><time>2026-03-07T13:32:56Z</time></trkpt><trkpt lat="36.7606185" lon="-3.6446521"><ele>210.0</ele><time>2026-03-07T13:32:57.007Z</time></trkpt><trkpt lat="36.7607112" lon="-3.6446998"><ele>210.0</ele><time>2026-03-07T13:32:59.003Z</time></trkpt><trkpt lat="36.760798" lon="-3.6446416"><ele>210.0</ele><time>2026-03-07T13:33:00.994Z</time></trkpt><trkpt lat="36.7608845" lon="-3.6445376"><ele>210.0</ele><time>2026-03-07T13:33:03.007Z</time></trkpt><trkpt lat="36.7609807" lon="-3.644441"><ele>210.0</ele><time>2026-03-07T13:33:04.999Z</time></trkpt><trkpt lat="36.7610332" lon="-3.6443788"><ele>211.57142857142858</ele><time>2026-03-07T13:33:05.994Z</time></trkpt><trkpt lat="36.7610798" lon="-3.644323"><ele>213.14285714285714</ele><time>2026-03-07T13:33:07.009Z</time></trkpt><trkpt lat="36.7611346" lon="-3.6442764"><ele>214.71428571428572</ele><time>2026-03-07T13:33:08.002Z</time></trkpt><trkpt lat="36.7611931" lon="-3.6442389"><ele>216.28571428571428</ele><time>2026-03-07T13:33:09.002Z</time></trkpt><trkpt lat="36.7612524" lon="-3.6441981"><ele>217.85714285714286</ele><time>2026-03-07T13:33:10.005Z</time></trkpt><trkpt lat="36.761309" lon="-3.6441561"><ele>219.42857142857144</ele><time>2026-03-07T13:33:11.01Z</time></trkpt><trkpt lat="36.7613643" lon="-3.6441117"><ele>221.0</ele><time>2026-03-07T13:33:12.004Z</time></trkpt><trkpt lat="36.7614281" lon="-3.6440093"><ele>221.00000000000003</ele><time>2026-03-07T13:33:13.005Z</time></trkpt><trkpt lat="36.7614612" lon="-3.643914"><ele>221.0</ele><time>2026-03-07T13:33:14.008Z</time></trkpt><trkpt lat="36.7614955" lon="-3.6438212"><ele>221.0</ele><time>2026-03-07T13:33:14.993Z</time></trkpt><trkpt lat="36.7615246" lon="-3.6437405"><ele>221.0</ele><time>2026-03-07T13:33:16.005Z</time></trkpt><trkpt lat="36.7615397" lon="-3.6436563"><ele>221.00000000000003</ele><time>2026-03-07T13:33:17.017Z</time></trkpt><trkpt lat="36.7615524" lon="-3.6435631"><ele>221.0</ele><time>2026-03-07T13:33:18.01Z</time></trkpt><trkpt lat="36.7615692" lon="-3.6434657"><ele>225.83333333333334</ele><time>2026-03-07T13:33:18.991Z</time></trkpt><trkpt lat="36.7615839" lon="-3.6433738"><ele>230.66666666666669</ele><time>2026-03-07T13:33:19.99Z</time></trkpt><trkpt lat="36.7615983" lon="-3.6432846"><ele>235.5</ele><time>2026-03-07T13:33:21.004Z</time></trkpt><trkpt lat="36.7616142" lon="-3.6431925"><ele>240.33333333333331</ele><time>2026-03-07T13:33:22.001Z</time></trkpt><trkpt lat="36.7616355" lon="-3.6430992"><ele>245.16666666666666</ele><time>2026-03-07T13:33:23.01Z</time></trkpt><trkpt lat="36.7616627" lon="-3.6430051"><ele>250.0</ele><time>2026-03-07T13:33:24.004Z</time></trkpt><trkpt lat="36.761695" lon="-3.6429146"><ele>250.0</ele><time>2026-03-07T13:33:25.006Z</time></trkpt><trkpt lat="36.7617292" lon="-3.642832"><ele>250.0</ele><time>2026-03-07T13:33:25.992Z</time></trkpt><trkpt lat="36.7617699" lon="-3.6427654"><ele>250.0</ele><time>2026-03-07T13:33:27.019Z</time></trkpt><trkpt lat="36.7618196" lon="-3.6426984"><ele>250.0</ele><time>2026-03-07T13:33:28.009Z</time></trkpt><trkpt lat="36.7618571" lon="-3.6426184"><ele>250.0</ele><time>2026-03-07T13:33:29.033Z</time></trkpt><trkpt lat="36.7618784" lon="-3.6425248"><ele>250.0</ele><time>2026-03-07T13:33:30.004Z</time></trkpt><trkpt lat="36.7618896" lon="-3.6424411"><ele>250.0</ele><time>2026-03-07T13:33:31.007Z</time></trkpt><trkpt lat="36.761905" lon="-3.6423167"><ele>249.0</ele><time>2026-03-07T13:33:33.002Z</time></trkpt><trkpt lat="36.7618692" lon="-3.6421626"><ele>248.0</ele><time>2026-03-07T13:33:35Z</time></trkpt><trkpt lat="36.7618345" lon="-3.6420551"><ele>247.0</ele><time>2026-03-07T13:33:36.007Z</time></trkpt><trkpt lat="36.7618079" lon="-3.6419607"><ele>246.0</ele><time>2026-03-07T13:33:37.004Z</time></trkpt><trkpt lat="36.7617895" lon="-3.641885"><ele>245.0</ele><time>2026-03-07T13:33:38.004Z</time></trkpt><trkpt lat="36.7617592" lon="-3.641759"><ele>249.0</ele><time>2026-03-07T13:33:40.004Z</time></trkpt><trkpt lat="36.7617981" lon="-3.6416525"><ele>253.0</ele><time>2026-03-07T13:33:43.016Z</time></trkpt><trkpt lat="36.7619037" lon="-3.641616"><ele>257.0</ele><time>2026-03-07T13:33:45.008Z</time></trkpt><trkpt lat="36.7619884" lon="-3.6415444"><ele>261.0</ele><time>2026-03-07T13:33:47.008Z</time></trkpt><trkpt lat="36.7620247" lon="-3.6414178"><ele>265.0</ele><time>2026-03-07T13:33:48.998Z</time></trkpt><trkpt lat="36.7621178" lon="-3.641318"><ele>265.0</ele><time>2026-03-07T13:33:51.006Z</time></trkpt><trkpt lat="36.7621739" lon="-3.6412768"><ele>265.0</ele><time>2026-03-07T13:33:52.004Z</time></trkpt><trkpt lat="36.7622323" lon="-3.6412243"><ele>265.0</ele><time>2026-03-07T13:33:53.007Z</time></trkpt><trkpt lat="36.7622835" lon="-3.6411768"><ele>265.0</ele><time>2026-03-07T13:33:53.998Z</time></trkpt><trkpt lat="36.7623501" lon="-3.6410774"><ele>265.0</ele><time>2026-03-07T13:33:55.991Z</time></trkpt><trkpt lat="36.7624006" lon="-3.6410136"><ele>265.0</ele><time>2026-03-07T13:33:58.002Z</time></trkpt><trkpt lat="36.7624694" lon="-3.6410469"><ele>264.99999999999994</ele><time>2026-03-07T13:33:59.998Z</time></trkpt><trkpt lat="36.7625031" lon="-3.6411135"><ele>265.0</ele><time>2026-03-07T13:34:00.992Z</time></trkpt><trkpt lat="36.7625444" lon="-3.6411884"><ele>265.0</ele><time>2026-03-07T13:34:02.009Z</time></trkpt><trkpt lat="36.7625905" lon="-3.6412615"><ele>265.0</ele><time>2026-03-07T13:34:03.008Z</time></trkpt><trkpt lat="36.762634" lon="-3.6413247"><ele>265.0</ele><time>2026-03-07T13:34:04.002Z</time></trkpt><trkpt lat="36.7626991" lon="-3.6413393"><ele>264.99999999999994</ele><time>2026-03-07T13:34:06.024Z</time></trkpt><trkpt lat="36.7627401" lon="-3.6412523"><ele>265.0</ele><time>2026-03-07T13:34:09.005Z</time></trkpt><trkpt lat="36.7626768" lon="-3.6411481"><ele>270.16666666666663</ele><time>2026-03-07T13:34:10.997Z</time></trkpt><trkpt lat="36.7626213" lon="-3.6410822"><ele>275.3333333333333</ele><time>2026-03-07T13:34:12.004Z</time></trkpt><trkpt lat="36.7625656" lon="-3.6410069"><ele>280.5</ele><time>2026-03-07T13:34:13.002Z</time></trkpt><trkpt lat="36.7625191" lon="-3.6409394"><ele>285.6666666666667</ele><time>2026-03-07T13:34:13.996Z</time></trkpt><trkpt lat="36.7624346" lon="-3.6408542"><ele>290.83333333333337</ele><time>2026-03-07T13:34:15.997Z</time></trkpt><trkpt lat="36.7623529" lon="-3.6408182"><ele>296.0</ele><time>2026-03-07T13:34:18.009Z</time></trkpt><trkpt lat="36.7622948" lon="-3.6408861"><ele>296.0</ele><time>2026-03-07T13:34:20.012Z</time></trkpt><trkpt lat="36.7622568" lon="-3.6409636"><ele>296.0</ele><time>2026-03-07T13:34:21.011Z</time></trkpt><trkpt lat="36.7622191" lon="-3.6410358"><ele>296.0</ele><time>2026-03-07T13:34:22.003Z</time></trkpt><trkpt lat="36.7621737" lon="-3.6411102"><ele>296.0</ele><time>2026-03-07T13:34:23.005Z</time></trkpt><trkpt lat="36.7621146" lon="-3.641164"><ele>296.0</ele><time>2026-03-07T13:34:24.004Z</time></trkpt><trkpt lat="36.7620475" lon="-3.6411708"><ele>296.0</ele><time>2026-03-07T13:34:24.997Z</time></trkpt><trkpt lat="36.7619843" lon="-3.6411688"><ele>296.0</ele><time>2026-03-07T13:34:26.033Z</time></trkpt><trkpt lat="36.7618745" lon="-3.6411912"><ele>294.1666666666667</ele><time>2026-03-07T13:34:28.02Z</time></trkpt><trkpt lat="36.7617883" lon="-3.6413095"><ele>292.33333333333337</ele><time>2026-03-07T13:34:29.999Z</time></trkpt><trkpt lat="36.7617363" lon="-3.641369"><ele>290.5</ele><time>2026-03-07T13:34:30.995Z</time></trkpt><trkpt lat="36.7616808" lon="-3.6414115"><ele>288.6666666666667</ele><time>2026-03-07T13:34:32.009Z</time></trkpt><trkpt lat="36.7616161" lon="-3.6414121"><ele>286.8333333333333</ele><time>2026-03-07T13:34:33.005Z</time></trkpt><trkpt lat="36.7614995" lon="-3.6414365"><ele>285.0</ele><time>2026-03-07T13:34:34.999Z</time></trkpt><trkpt lat="36.761442" lon="-3.6414784"><ele>285.0</ele><time>2026-03-07T13:34:36.995Z</time></trkpt><trkpt lat="36.7614363" lon="-3.6415584"><ele>285.0</ele><time>2026-03-07T13:34:39.01Z</time></trkpt><trkpt lat="36.7614419" lon="-3.6416547"><ele>285.0</ele><time>2026-03-07T13:34:41.062Z</time></trkpt><trkpt lat="36.7614654" lon="-3.6417953"><ele>285.0</ele><time>2026-03-07T13:34:43.055Z</time></trkpt><trkpt lat="36.7614728" lon="-3.641941"><ele>285.0</ele><time>2026-03-07T13:34:44.997Z</time></trkpt><trkpt lat="36.7614814" lon="-3.6420829"><ele>285.0</ele><time>2026-03-07T13:34:47.106Z</time></trkpt><trkpt lat="36.7614732" lon="-3.6422094"><ele>285.0</ele><time>2026-03-07T13:34:49.032Z</time></trkpt><trkpt lat="36.7614225" lon="-3.6422576"><ele>285.0</ele><time>2026-03-07T13:34:51.008Z</time></trkpt><trkpt lat="36.7613776" lon="-3.6421649"><ele>285.0</ele><time>2026-03-07T13:34:54.021Z</time></trkpt><trkpt lat="36.7613748" lon="-3.6420253"><ele>285.0</ele><time>2026-03-07T13:34:56.006Z</time></trkpt><trkpt lat="36.7613607" lon="-3.6419342"><ele>285.0</ele><time>2026-03-07T13:34:57.008Z</time></trkpt><trkpt lat="36.7613526" lon="-3.6418337"><ele>285.0</ele><time>2026-03-07T13:34:58.004Z</time></trkpt><trkpt lat="36.7613406" lon="-3.6417403"><ele>285.0</ele><time>2026-03-07T13:34:59.009Z</time></trkpt><trkpt lat="36.7613283" lon="-3.6416536"><ele>285.0</ele><time>2026-03-07T13:35:00.085Z</time></trkpt><trkpt lat="36.7613069" lon="-3.6415656"><ele>285.0</ele><time>2026-03-07T13:35:01.026Z</time></trkpt><trkpt lat="36.7612851" lon="-3.6414838"><ele>285.0</ele><time>2026-03-07T13:35:02.007Z</time></trkpt><trkpt lat="36.7612768" lon="-3.6413537"><ele>285.0</ele><time>2026-03-07T13:35:04.011Z</time></trkpt><trkpt lat="36.7613455" lon="-3.6412596"><ele>285.0</ele><time>2026-03-07T13:35:06.01Z</time></trkpt><trkpt lat="36.7614066" lon="-3.6412168"><ele>285.0</ele><time>2026-03-07T13:35:07.001Z</time></trkpt><trkpt lat="36.7614701" lon="-3.6411795"><ele>285.0</ele><time>2026-03-07T13:35:08.049Z</time></trkpt><trkpt lat="36.7615257" lon="-3.6411416"><ele>285.0</ele><time>2026-03-07T13:35:09.011Z</time></trkpt><trkpt lat="36.7615759" lon="-3.641081"><ele>285.0</ele><time>2026-03-07T13:35:10.016Z</time></trkpt><trkpt lat="36.7616192" lon="-3.641019"><ele>285.0</ele><time>2026-03-07T13:35:11.023Z</time></trkpt><trkpt lat="36.7616534" lon="-3.6409"><ele>285.0</ele><time>2026-03-07T13:35:13.001Z</time></trkpt><trkpt lat="36.7616441" lon="-3.6408079"><ele>289.5</ele><time>2026-03-07T13:35:14.003Z</time></trkpt><trkpt lat="36.7616309" lon="-3.6407212"><ele>294.0</ele><time>2026-03-07T13:35:15.017Z</time></trkpt><trkpt lat="36.7616357" lon="-3.6406171"><ele>298.5</ele><time>2026-03-07T13:35:17.043Z</time></trkpt><trkpt lat="36.7616675" lon="-3.6405333"><ele>303.0</ele><time>2026-03-07T13:35:18.996Z</time></trkpt><trkpt lat="36.7617543" lon="-3.6404975"><ele>307.5</ele><time>2026-03-07T13:35:21.039Z</time></trkpt><trkpt lat="36.7618099" lon="-3.6404522"><ele>312.0</ele><time>2026-03-07T13:35:22.002Z</time></trkpt><trkpt lat="36.7618601" lon="-3.6404012"><ele>309.3333333333333</ele><time>2026-03-07T13:35:22.988Z</time></trkpt><trkpt lat="36.7619039" lon="-3.6403276"><ele>306.6666666666667</ele><time>2026-03-07T13:35:23.99Z</time></trkpt><trkpt lat="36.7619344" lon="-3.6402407"><ele>304.0</ele><time>2026-03-07T13:35:25Z</time></trkpt><trkpt lat="36.7619544" lon="-3.6401586"><ele>301.33333333333337</ele><time>2026-03-07T13:35:25.999Z</time></trkpt><trkpt lat="36.7619668" lon="-3.6400735"><ele>298.6666666666667</ele><time>2026-03-07T13:35:27.026Z</time></trkpt><trkpt lat="36.7619728" lon="-3.6399844"><ele>296.0</ele><time>2026-03-07T13:35:28.007Z</time></trkpt><trkpt lat="36.7619788" lon="-3.6398578"><ele>302.6</ele><time>2026-03-07T13:35:29.999Z</time></trkpt><trkpt lat="36.762046" lon="-3.6398036"><ele>309.20000000000005</ele><time>2026-03-07T13:35:32.017Z</time></trkpt><trkpt lat="36.7621478" lon="-3.6398012"><ele>315.79999999999995</ele><time>2026-03-07T13:35:34.025Z</time></trkpt><trkpt lat="36.7622472" lon="-3.6398569"><ele>322.4</ele><time>2026-03-07T13:35:36.045Z</time></trkpt><trkpt lat="36.7623674" lon="-3.6399015"><ele>329.0</ele><time>2026-03-07T13:35:38.007Z</time></trkpt><trkpt lat="36.7624394" lon="-3.6399188"><ele>329.0</ele><time>2026-03-07T13:35:39.01Z</time></trkpt><trkpt lat="36.762508" lon="-3.6399233"><ele>329.0</ele><time>2026-03-07T13:35:40.011Z</time></trkpt><trkpt lat="36.7625856" lon="-3.6399079"><ele>329.0</ele><time>2026-03-07T13:35:41.013Z</time></trkpt><trkpt lat="36.7626585" lon="-3.6398785"><ele>329.0</ele><time>2026-03-07T13:35:42.018Z</time></trkpt><trkpt lat="36.7627254" lon="-3.6398435"><ele>329.0</ele><time>2026-03-07T13:35:43.036Z</time></trkpt><trkpt lat="36.7627923" lon="-3.6398047"><ele>329.0</ele><time>2026-03-07T13:35:44.005Z</time></trkpt><trkpt lat="36.7628772" lon="-3.6397162"><ele>327.79999999999995</ele><time>2026-03-07T13:35:46.032Z</time></trkpt><trkpt lat="36.7629193" lon="-3.6396534"><ele>326.59999999999997</ele><time>2026-03-07T13:35:48.997Z</time></trkpt><trkpt lat="36.763017" lon="-3.6395966"><ele>325.4</ele><time>2026-03-07T13:35:52.028Z</time></trkpt><trkpt lat="36.7631157" lon="-3.639533"><ele>324.2</ele><time>2026-03-07T13:35:54.015Z</time></trkpt><trkpt lat="36.7632011" lon="-3.6394671"><ele>323.0</ele><time>2026-03-07T13:35:56.004Z</time></trkpt><trkpt lat="36.7632811" lon="-3.6393982"><ele>323.0</ele><time>2026-03-07T13:35:58.01Z</time></trkpt><trkpt lat="36.7633705" lon="-3.6393334"><ele>323.0</ele><time>2026-03-07T13:36:00Z</time></trkpt><trkpt lat="36.7632836" lon="-3.6393859"><ele>323.0</ele><time>2026-03-07T13:36:14.027Z</time></trkpt><trkpt lat="36.7632015" lon="-3.639441"><ele>323.0</ele><time>2026-03-07T13:36:16.016Z</time></trkpt><trkpt lat="36.7631131" lon="-3.6395013"><ele>323.0</ele><time>2026-03-07T13:36:18.041Z</time></trkpt><trkpt lat="36.7630221" lon="-3.639571"><ele>323.0</ele><time>2026-03-07T13:36:20.005Z</time></trkpt><trkpt lat="36.7629416" lon="-3.6396374"><ele>323.0</ele><time>2026-03-07T13:36:21.999Z</time></trkpt><trkpt lat="36.7628913" lon="-3.6396847"><ele>323.0</ele><time>2026-03-07T13:36:24.002Z</time></trkpt><trkpt lat="36.7628253" lon="-3.6396805"><ele>323.0</ele><time>2026-03-07T13:36:27.004Z</time></trkpt><trkpt lat="36.7627434" lon="-3.6396981"><ele>323.0</ele><time>2026-03-07T13:36:31.017Z</time></trkpt><trkpt lat="36.7626698" lon="-3.6397376"><ele>323.0</ele><time>2026-03-07T13:36:33.003Z</time></trkpt><trkpt lat="36.7625464" lon="-3.6397749"><ele>324.2</ele><time>2026-03-07T13:36:35.003Z</time></trkpt><trkpt lat="36.7624834" lon="-3.6397752"><ele>325.4</ele><time>2026-03-07T13:36:36.018Z</time></trkpt><trkpt lat="36.7624195" lon="-3.6397616"><ele>326.59999999999997</ele><time>2026-03-07T13:36:37.016Z</time></trkpt><trkpt lat="36.7623036" lon="-3.639718"><ele>327.79999999999995</ele><time>2026-03-07T13:36:39.027Z</time></trkpt><trkpt lat="36.762214" lon="-3.6396348"><ele>329.0</ele><time>2026-03-07T13:36:41.002Z</time></trkpt><trkpt lat="36.7621291" lon="-3.6395888"><ele>329.0</ele><time>2026-03-07T13:36:43.004Z</time></trkpt><trkpt lat="36.7620473" lon="-3.6395588"><ele>329.0</ele><time>2026-03-07T13:36:45.002Z</time></trkpt><trkpt lat="36.761968" lon="-3.6395294"><ele>329.0</ele><time>2026-03-07T13:36:48.054Z</time></trkpt><trkpt lat="36.761903" lon="-3.639559"><ele>329.0</ele><time>2026-03-07T13:36:51.01Z</time></trkpt><trkpt lat="36.7618625" lon="-3.6396202"><ele>329.0</ele><time>2026-03-07T13:36:53.003Z</time></trkpt><trkpt lat="36.7617938" lon="-3.6397159"><ele>329.0</ele><time>2026-03-07T13:36:55.003Z</time></trkpt><trkpt lat="36.7617465" lon="-3.6397695"><ele>330.57142857142856</ele><time>2026-03-07T13:36:56.003Z</time></trkpt><trkpt lat="36.7616896" lon="-3.6398107"><ele>332.1428571428571</ele><time>2026-03-07T13:36:57.001Z</time></trkpt><trkpt lat="36.7616252" lon="-3.6398324"><ele>333.7142857142857</ele><time>2026-03-07T13:36:58.001Z</time></trkpt><trkpt lat="36.7615582" lon="-3.639819"><ele>335.2857142857143</ele><time>2026-03-07T13:36:58.999Z</time></trkpt><trkpt lat="36.7614898" lon="-3.6398011"><ele>336.85714285714283</ele><time>2026-03-07T13:37:00.002Z</time></trkpt><trkpt lat="36.7614251" lon="-3.6397892"><ele>338.42857142857144</ele><time>2026-03-07T13:37:01.015Z</time></trkpt><trkpt lat="36.7613181" lon="-3.6398266"><ele>340.0</ele><time>2026-03-07T13:37:03.009Z</time></trkpt><trkpt lat="36.7612423" lon="-3.6398784"><ele>340.0</ele><time>2026-03-07T13:37:05.009Z</time></trkpt><trkpt lat="36.761152" lon="-3.6399628"><ele>340.0</ele><time>2026-03-07T13:37:07.012Z</time></trkpt><trkpt lat="36.7610647" lon="-3.6400562"><ele>340.0</ele><time>2026-03-07T13:37:08.998Z</time></trkpt><trkpt lat="36.7609911" lon="-3.6401423"><ele>340.0</ele><time>2026-03-07T13:37:11.007Z</time></trkpt><trkpt lat="36.7609125" lon="-3.6402578"><ele>340.8333333333333</ele><time>2026-03-07T13:37:13.002Z</time></trkpt><trkpt lat="36.7608665" lon="-3.6403196"><ele>341.66666666666663</ele><time>2026-03-07T13:37:14.013Z</time></trkpt><trkpt lat="36.7608043" lon="-3.6403722"><ele>342.5</ele><time>2026-03-07T13:37:15.018Z</time></trkpt><trkpt lat="36.760729" lon="-3.6404103"><ele>343.3333333333333</ele><time>2026-03-07T13:37:16.001Z</time></trkpt><trkpt lat="36.760645" lon="-3.640446"><ele>344.1666666666667</ele><time>2026-03-07T13:37:16.999Z</time></trkpt><trkpt lat="36.7605633" lon="-3.6404788"><ele>345.0</ele><time>2026-03-07T13:37:18.009Z</time></trkpt><trkpt lat="36.7604883" lon="-3.6405089"><ele>345.0</ele><time>2026-03-07T13:37:19.011Z</time></trkpt><trkpt lat="36.7604232" lon="-3.6405407"><ele>345.0</ele><time>2026-03-07T13:37:20.01Z</time></trkpt><trkpt lat="36.7603629" lon="-3.6405781"><ele>345.0</ele><time>2026-03-07T13:37:21.006Z</time></trkpt><trkpt lat="36.760314" lon="-3.6406439"><ele>345.0</ele><time>2026-03-07T13:37:22.008Z</time></trkpt><trkpt lat="36.7602668" lon="-3.6407113"><ele>345.0</ele><time>2026-03-07T13:37:23.012Z</time></trkpt><trkpt lat="36.760189" lon="-3.6408229"><ele>345.0</ele><time>2026-03-07T13:37:25.014Z</time></trkpt><trkpt lat="36.7601528" lon="-3.6408887"><ele>348.5</ele><time>2026-03-07T13:37:26.018Z</time></trkpt><trkpt lat="36.7600906" lon="-3.6409982"><ele>352.0</ele><time>2026-03-07T13:37:28.029Z</time></trkpt><trkpt lat="36.7600141" lon="-3.6410411"><ele>355.5</ele><time>2026-03-07T13:37:30.008Z</time></trkpt><trkpt lat="36.7599608" lon="-3.6409873"><ele>359.0</ele><time>2026-03-07T13:37:32.016Z</time></trkpt><trkpt lat="36.7599414" lon="-3.6408851"><ele>362.5</ele><time>2026-03-07T13:37:34.011Z</time></trkpt><trkpt lat="36.7599729" lon="-3.6407854"><ele>366.0</ele><time>2026-03-07T13:37:36.043Z</time></trkpt><trkpt lat="36.7600103" lon="-3.6407176"><ele>366.0</ele><time>2026-03-07T13:37:37.004Z</time></trkpt><trkpt lat="36.7600493" lon="-3.6406416"><ele>366.0</ele><time>2026-03-07T13:37:37.998Z</time></trkpt><trkpt lat="36.7600888" lon="-3.6405437"><ele>366.0</ele><time>2026-03-07T13:37:39.012Z</time></trkpt><trkpt lat="36.7601337" lon="-3.6404268"><ele>366.0</ele><time>2026-03-07T13:37:40.01Z</time></trkpt><trkpt lat="36.7601849" lon="-3.6403317"><ele>366.0</ele><time>2026-03-07T13:37:41.006Z</time></trkpt><trkpt lat="36.7602484" lon="-3.6402327"><ele>366.20000000000005</ele><time>2026-03-07T13:37:42.008Z</time></trkpt><trkpt lat="36.760311" lon="-3.6401404"><ele>366.40000000000003</ele><time>2026-03-07T13:37:43.007Z</time></trkpt><trkpt lat="36.7603667" lon="-3.6400529"><ele>366.6</ele><time>2026-03-07T13:37:43.997Z</time></trkpt><trkpt lat="36.7604131" lon="-3.6399663"><ele>366.8</ele><time>2026-03-07T13:37:45.017Z</time></trkpt><trkpt lat="36.7604932" lon="-3.6398618"><ele>367.0</ele><time>2026-03-07T13:37:47.004Z</time></trkpt><trkpt lat="36.7605872" lon="-3.6397519"><ele>367.0</ele><time>2026-03-07T13:37:49.008Z</time></trkpt><trkpt lat="36.7606328" lon="-3.6396928"><ele>367.0</ele><time>2026-03-07T13:37:50.009Z</time></trkpt><trkpt lat="36.7606763" lon="-3.6396339"><ele>367.0</ele><time>2026-03-07T13:37:50.995Z</time></trkpt><trkpt lat="36.7607139" lon="-3.6395488"><ele>367.0</ele><time>2026-03-07T13:37:51.996Z</time></trkpt><trkpt lat="36.7607567" lon="-3.6394564"><ele>367.0</ele><time>2026-03-07T13:37:53.008Z</time></trkpt><trkpt lat="36.7608017" lon="-3.6393775"><ele>367.0</ele><time>2026-03-07T13:37:54.002Z</time></trkpt><trkpt lat="36.7608503" lon="-3.6393115"><ele>367.0</ele><time>2026-03-07T13:37:55.007Z</time></trkpt><trkpt lat="36.7609085" lon="-3.6392531"><ele>368.66666666666663</ele><time>2026-03-07T13:37:56.003Z</time></trkpt><trkpt lat="36.7609779" lon="-3.6391971"><ele>370.3333333333333</ele><time>2026-03-07T13:37:57.011Z</time></trkpt><trkpt lat="36.7610458" lon="-3.6391373"><ele>372.0</ele><time>2026-03-07T13:37:58.002Z</time></trkpt><trkpt lat="36.7611185" lon="-3.6390814"><ele>373.6666666666667</ele><time>2026-03-07T13:37:59.004Z</time></trkpt><trkpt lat="36.7611916" lon="-3.6390255"><ele>375.33333333333337</ele><time>2026-03-07T13:38:00.011Z</time></trkpt><trkpt lat="36.7612603" lon="-3.6389753"><ele>377.0</ele><time>2026-03-07T13:38:01.012Z</time></trkpt><trkpt lat="36.761324" lon="-3.6389257"><ele>377.0</ele><time>2026-03-07T13:38:02.034Z</time></trkpt><trkpt lat="36.7613793" lon="-3.6388764"><ele>377.0</ele><time>2026-03-07T13:38:03.001Z</time></trkpt><trkpt lat="36.7614343" lon="-3.6388196"><ele>377.0</ele><time>2026-03-07T13:38:04.034Z</time></trkpt><trkpt lat="36.761495" lon="-3.6387619"><ele>377.0</ele><time>2026-03-07T13:38:05.001Z</time></trkpt><trkpt lat="36.7615685" lon="-3.6387093"><ele>377.0</ele><time>2026-03-07T13:38:06.002Z</time></trkpt><trkpt lat="36.7616459" lon="-3.6386544"><ele>377.0</ele><time>2026-03-07T13:38:07.011Z</time></trkpt><trkpt lat="36.7617223" lon="-3.6386087"><ele>381.1666666666667</ele><time>2026-03-07T13:38:07.997Z</time></trkpt><trkpt lat="36.7617916" lon="-3.6385691"><ele>385.33333333333337</ele><time>2026-03-07T13:38:08.996Z</time></trkpt><trkpt lat="36.7618576" lon="-3.6385333"><ele>389.5</ele><time>2026-03-07T13:38:10.013Z</time></trkpt><trkpt lat="36.7619224" lon="-3.6384984"><ele>393.6666666666667</ele><time>2026-03-07T13:38:11.01Z</time></trkpt><trkpt lat="36.7619914" lon="-3.6384645"><ele>397.8333333333333</ele><time>2026-03-07T13:38:12.002Z</time></trkpt><trkpt lat="36.7620736" lon="-3.6384221"><ele>402.0</ele><time>2026-03-07T13:38:13Z</time></trkpt><trkpt lat="36.7621576" lon="-3.6383725"><ele>402.0</ele><time>2026-03-07T13:38:14.038Z</time></trkpt><trkpt lat="36.7622507" lon="-3.6383389"><ele>402.0</ele><time>2026-03-07T13:38:15Z</time></trkpt><trkpt lat="36.7623389" lon="-3.6383111"><ele>402.0</ele><time>2026-03-07T13:38:16.001Z</time></trkpt><trkpt lat="36.7624239" lon="-3.6383001"><ele>402.0</ele><time>2026-03-07T13:38:17.01Z</time></trkpt><trkpt lat="36.7625032" lon="-3.6382873"><ele>402.0</ele><time>2026-03-07T13:38:18Z</time></trkpt><trkpt lat="36.7625792" lon="-3.6382697"><ele>402.0</ele><time>2026-03-07T13:38:19.048Z</time></trkpt><trkpt lat="36.7626395" lon="-3.6382457"><ele>402.0</ele><time>2026-03-07T13:38:20.008Z</time></trkpt><trkpt lat="36.7626926" lon="-3.6381905"><ele>402.0</ele><time>2026-03-07T13:38:21.024Z</time></trkpt><trkpt lat="36.7627533" lon="-3.6381276"><ele>402.0</ele><time>2026-03-07T13:38:22.004Z</time></trkpt><trkpt lat="36.7628181" lon="-3.6380533"><ele>402.0</ele><time>2026-03-07T13:38:23.021Z</time></trkpt><trkpt lat="36.7628856" lon="-3.6379588"><ele>402.0</ele><time>2026-03-07T13:38:24.011Z</time></trkpt><trkpt lat="36.7629512" lon="-3.6378525"><ele>402.0</ele><time>2026-03-07T13:38:24.998Z</time></trkpt><trkpt lat="36.763013" lon="-3.6377522"><ele>405.3333333333333</ele><time>2026-03-07T13:38:26.007Z</time></trkpt><trkpt lat="36.7630718" lon="-3.6376555"><ele>408.66666666666663</ele><time>2026-03-07T13:38:27.012Z</time></trkpt><trkpt lat="36.7631311" lon="-3.637567"><ele>412.0</ele><time>2026-03-07T13:38:28.013Z</time></trkpt><trkpt lat="36.7631846" lon="-3.6374859"><ele>415.3333333333333</ele><time>2026-03-07T13:38:29.001Z</time></trkpt><trkpt lat="36.7632355" lon="-3.6374136"><ele>418.66666666666663</ele><time>2026-03-07T13:38:30.009Z</time></trkpt><trkpt lat="36.7632891" lon="-3.6373456"><ele>422.0</ele><time>2026-03-07T13:38:31.008Z</time></trkpt><trkpt lat="36.763348" lon="-3.6373151"><ele>421.99999999999994</ele><time>2026-03-07T13:38:31.999Z</time></trkpt><trkpt lat="36.7634153" lon="-3.6372737"><ele>422.0</ele><time>2026-03-07T13:38:33.007Z</time></trkpt><trkpt lat="36.7634962" lon="-3.6372274"><ele>422.0</ele><time>2026-03-07T13:38:34Z</time></trkpt><trkpt lat="36.7635864" lon="-3.6371574"><ele>422.0</ele><time>2026-03-07T13:38:35.014Z</time></trkpt><trkpt lat="36.7636697" lon="-3.637101"><ele>421.99999999999994</ele><time>2026-03-07T13:38:36.008Z</time></trkpt><trkpt lat="36.7637466" lon="-3.6370649"><ele>422.0</ele><time>2026-03-07T13:38:37.005Z</time></trkpt><trkpt lat="36.7638191" lon="-3.6370446"><ele>421.99999999999994</ele><time>2026-03-07T13:38:38.005Z</time></trkpt><trkpt lat="36.7638963" lon="-3.6370262"><ele>422.0</ele><time>2026-03-07T13:38:39.007Z</time></trkpt><trkpt lat="36.763969" lon="-3.6370055"><ele>422.0</ele><time>2026-03-07T13:38:40.007Z</time></trkpt><trkpt lat="36.7640424" lon="-3.636981"><ele>422.0</ele><time>2026-03-07T13:38:41.014Z</time></trkpt><trkpt lat="36.7641236" lon="-3.6369524"><ele>421.99999999999994</ele><time>2026-03-07T13:38:42.016Z</time></trkpt><trkpt lat="36.7641992" lon="-3.6369181"><ele>422.0</ele><time>2026-03-07T13:38:42.998Z</time></trkpt><trkpt lat="36.7642746" lon="-3.6368669"><ele>425.16666666666663</ele><time>2026-03-07T13:38:44.011Z</time></trkpt><trkpt lat="36.7643519" lon="-3.6368178"><ele>428.3333333333333</ele><time>2026-03-07T13:38:45.012Z</time></trkpt><trkpt lat="36.7644171" lon="-3.6367717"><ele>431.5</ele><time>2026-03-07T13:38:46.004Z</time></trkpt><trkpt lat="36.7644879" lon="-3.636724"><ele>434.66666666666663</ele><time>2026-03-07T13:38:47.008Z</time></trkpt><trkpt lat="36.764553" lon="-3.6366707"><ele>437.8333333333333</ele><time>2026-03-07T13:38:48.004Z</time></trkpt><trkpt lat="36.7646119" lon="-3.6366252"><ele>441.0</ele><time>2026-03-07T13:38:48.995Z</time></trkpt><trkpt lat="36.7646676" lon="-3.6365805"><ele>441.0</ele><time>2026-03-07T13:38:49.998Z</time></trkpt><trkpt lat="36.7647412" lon="-3.6364853"><ele>441.0</ele><time>2026-03-07T13:38:52.007Z</time></trkpt><trkpt lat="36.764769" lon="-3.6364038"><ele>441.0</ele><time>2026-03-07T13:38:53Z</time></trkpt><trkpt lat="36.7648068" lon="-3.6363117"><ele>441.0</ele><time>2026-03-07T13:38:54.008Z</time></trkpt><trkpt lat="36.7648438" lon="-3.6362247"><ele>441.0</ele><time>2026-03-07T13:38:55.009Z</time></trkpt><trkpt lat="36.76487" lon="-3.6361505"><ele>441.0</ele><time>2026-03-07T13:38:56.001Z</time></trkpt><trkpt lat="36.7649145" lon="-3.6360572"><ele>447.6666666666667</ele><time>2026-03-07T13:38:58.022Z</time></trkpt><trkpt lat="36.7649536" lon="-3.6359877"><ele>454.33333333333337</ele><time>2026-03-07T13:38:59.004Z</time></trkpt><trkpt lat="36.7650446" lon="-3.635952"><ele>461.0</ele><time>2026-03-07T13:39:01.016Z</time></trkpt><trkpt lat="36.7651458" lon="-3.6359999"><ele>467.6666666666667</ele><time>2026-03-07T13:39:03.012Z</time></trkpt><trkpt lat="36.7652064" lon="-3.636026"><ele>474.33333333333337</ele><time>2026-03-07T13:39:04.007Z</time></trkpt><trkpt lat="36.7652801" lon="-3.6360357"><ele>481.0</ele><time>2026-03-07T13:39:05.017Z</time></trkpt><trkpt lat="36.7653622" lon="-3.6360387"><ele>481.50000000000006</ele><time>2026-03-07T13:39:06.004Z</time></trkpt><trkpt lat="36.7654475" lon="-3.6360356"><ele>482.0</ele><time>2026-03-07T13:39:06.997Z</time></trkpt><trkpt lat="36.7655377" lon="-3.6360211"><ele>482.5</ele><time>2026-03-07T13:39:08.007Z</time></trkpt><trkpt lat="36.7656271" lon="-3.6360281"><ele>483.0</ele><time>2026-03-07T13:39:09.009Z</time></trkpt><trkpt lat="36.765708" lon="-3.63606"><ele>483.50000000000006</ele><time>2026-03-07T13:39:10.005Z</time></trkpt><trkpt lat="36.7657889" lon="-3.6360939"><ele>484.0</ele><time>2026-03-07T13:39:11.01Z</time></trkpt><trkpt lat="36.7658801" lon="-3.6361053"><ele>484.0</ele><time>2026-03-07T13:39:12.002Z</time></trkpt><trkpt lat="36.7659807" lon="-3.6361096"><ele>484.0</ele><time>2026-03-07T13:39:13.003Z</time></trkpt><trkpt lat="36.7660835" lon="-3.6361146"><ele>484.0</ele><time>2026-03-07T13:39:14.001Z</time></trkpt><trkpt lat="36.7661847" lon="-3.6361253"><ele>484.0</ele><time>2026-03-07T13:39:15Z</time></trkpt><trkpt lat="36.7662793" lon="-3.6361528"><ele>484.0</ele><time>2026-03-07T13:39:16.005Z</time></trkpt><trkpt lat="36.7663649" lon="-3.6361929"><ele>482.1666666666667</ele><time>2026-03-07T13:39:17.011Z</time></trkpt><trkpt lat="36.7664463" lon="-3.6362224"><ele>480.33333333333337</ele><time>2026-03-07T13:39:18.001Z</time></trkpt><trkpt lat="36.7665097" lon="-3.636264"><ele>478.5</ele><time>2026-03-07T13:39:18.993Z</time></trkpt><trkpt lat="36.7665654" lon="-3.6363233"><ele>476.66666666666663</ele><time>2026-03-07T13:39:20.012Z</time></trkpt><trkpt lat="36.7666212" lon="-3.6363926"><ele>474.8333333333333</ele><time>2026-03-07T13:39:20.995Z</time></trkpt><trkpt lat="36.7666827" lon="-3.6364562"><ele>473.0</ele><time>2026-03-07T13:39:21.997Z</time></trkpt><trkpt lat="36.7667479" lon="-3.6364948"><ele>472.99999999999994</ele><time>2026-03-07T13:39:23.001Z</time></trkpt><trkpt lat="36.7668316" lon="-3.6365051"><ele>473.0</ele><time>2026-03-07T13:39:24.002Z</time></trkpt><trkpt lat="36.766913" lon="-3.6365013"><ele>473.0</ele><time>2026-03-07T13:39:25.003Z</time></trkpt><trkpt lat="36.7669991" lon="-3.6364877"><ele>473.0</ele><time>2026-03-07T13:39:25.995Z</time></trkpt><trkpt lat="36.7670907" lon="-3.6364772"><ele>472.99999999999994</ele><time>2026-03-07T13:39:27Z</time></trkpt><trkpt lat="36.7671831" lon="-3.636471"><ele>473.0</ele><time>2026-03-07T13:39:28.007Z</time></trkpt><trkpt lat="36.7672804" lon="-3.6364782"><ele>475.79999999999995</ele><time>2026-03-07T13:39:29Z</time></trkpt><trkpt lat="36.7673766" lon="-3.6364915"><ele>478.59999999999997</ele><time>2026-03-07T13:39:30.002Z</time></trkpt><trkpt lat="36.7674752" lon="-3.6365039"><ele>481.40000000000003</ele><time>2026-03-07T13:39:31.009Z</time></trkpt><trkpt lat="36.7675703" lon="-3.6365209"><ele>484.20000000000005</ele><time>2026-03-07T13:39:32.012Z</time></trkpt><trkpt lat="36.7676469" lon="-3.6365329"><ele>487.0</ele><time>2026-03-07T13:39:33.014Z</time></trkpt><trkpt lat="36.7677739" lon="-3.6365445"><ele>487.6</ele><time>2026-03-07T13:39:35.003Z</time></trkpt><trkpt lat="36.7678427" lon="-3.6365594"><ele>488.20000000000005</ele><time>2026-03-07T13:39:36.006Z</time></trkpt><trkpt lat="36.767924" lon="-3.6366084"><ele>488.8</ele><time>2026-03-07T13:39:37.013Z</time></trkpt><trkpt lat="36.7680142" lon="-3.6366802"><ele>489.4</ele><time>2026-03-07T13:39:38.001Z</time></trkpt><trkpt lat="36.7681098" lon="-3.6367566"><ele>490.0</ele><time>2026-03-07T13:39:39.024Z</time></trkpt><trkpt lat="36.768209" lon="-3.6368372"><ele>490.0</ele><time>2026-03-07T13:39:39.992Z</time></trkpt><trkpt lat="36.7683073" lon="-3.6369236"><ele>490.0</ele><time>2026-03-07T13:39:41.007Z</time></trkpt><trkpt lat="36.7683918" lon="-3.6370133"><ele>490.0</ele><time>2026-03-07T13:39:42.006Z</time></trkpt><trkpt lat="36.7684694" lon="-3.6370953"><ele>490.0</ele><time>2026-03-07T13:39:43.015Z</time></trkpt><trkpt lat="36.768543" lon="-3.6371724"><ele>490.0</ele><time>2026-03-07T13:39:43.998Z</time></trkpt><trkpt lat="36.7686099" lon="-3.6372447"><ele>491.6</ele><time>2026-03-07T13:39:45.067Z</time></trkpt><trkpt lat="36.7686825" lon="-3.63732"><ele>493.2</ele><time>2026-03-07T13:39:46.003Z</time></trkpt><trkpt lat="36.7687558" lon="-3.6373935"><ele>494.79999999999995</ele><time>2026-03-07T13:39:46.991Z</time></trkpt><trkpt lat="36.768834" lon="-3.6374725"><ele>496.4</ele><time>2026-03-07T13:39:48.01Z</time></trkpt><trkpt lat="36.7689216" lon="-3.6375566"><ele>498.0</ele><time>2026-03-07T13:39:48.999Z</time></trkpt><trkpt lat="36.769003" lon="-3.6376354"><ele>498.0</ele><time>2026-03-07T13:39:49.998Z</time></trkpt><trkpt lat="36.769083" lon="-3.6377101"><ele>497.99999999999994</ele><time>2026-03-07T13:39:51.004Z</time></trkpt><trkpt lat="36.7691598" lon="-3.6377873"><ele>497.99999999999994</ele><time>2026-03-07T13:39:51.986Z</time></trkpt><trkpt lat="36.7692306" lon="-3.6378654"><ele>498.0</ele><time>2026-03-07T13:39:53.001Z</time></trkpt><trkpt lat="36.7693042" lon="-3.637951"><ele>498.0</ele><time>2026-03-07T13:39:54.005Z</time></trkpt><trkpt lat="36.7693757" lon="-3.6380366"><ele>498.0</ele><time>2026-03-07T13:39:55.005Z</time></trkpt><trkpt lat="36.7694537" lon="-3.6381163"><ele>497.99999999999994</ele><time>2026-03-07T13:39:55.998Z</time></trkpt><trkpt lat="36.7695343" lon="-3.6381994"><ele>497.99999999999994</ele><time>2026-03-07T13:39:57.002Z</time></trkpt><trkpt lat="36.7696083" lon="-3.6382918"><ele>498.0</ele><time>2026-03-07T13:39:58.019Z</time></trkpt><trkpt lat="36.7696731" lon="-3.6383943"><ele>498.0</ele><time>2026-03-07T13:39:59.002Z</time></trkpt><trkpt lat="36.769735" lon="-3.6385092"><ele>498.0</ele><time>2026-03-07T13:40:00.016Z</time></trkpt><trkpt lat="36.7697897" lon="-3.6386262"><ele>498.0</ele><time>2026-03-07T13:40:00.996Z</time></trkpt><trkpt lat="36.7698374" lon="-3.6387337"><ele>498.0</ele><time>2026-03-07T13:40:01.998Z</time></trkpt><trkpt lat="36.7698838" lon="-3.6388196"><ele>498.0</ele><time>2026-03-07T13:40:03.009Z</time></trkpt><trkpt lat="36.7699328" lon="-3.6388939"><ele>498.0</ele><time>2026-03-07T13:40:04.002Z</time></trkpt><trkpt lat="36.7699878" lon="-3.6389686"><ele>498.0</ele><time>2026-03-07T13:40:04.994Z</time></trkpt><trkpt lat="36.7700554" lon="-3.6390315"><ele>499.0</ele><time>2026-03-07T13:40:06Z</time></trkpt><trkpt lat="36.7701358" lon="-3.6390917"><ele>499.99999999999994</ele><time>2026-03-07T13:40:06.997Z</time></trkpt><trkpt lat="36.7702195" lon="-3.6391561"><ele>500.99999999999994</ele><time>2026-03-07T13:40:07.994Z</time></trkpt><trkpt lat="36.770309" lon="-3.6392188"><ele>502.0</ele><time>2026-03-07T13:40:09.001Z</time></trkpt><trkpt lat="36.7703783" lon="-3.6392823"><ele>503.0</ele><time>2026-03-07T13:40:10Z</time></trkpt><trkpt lat="36.7704376" lon="-3.6393337"><ele>502.99999999999994</ele><time>2026-03-07T13:40:10.999Z</time></trkpt><trkpt lat="36.7704923" lon="-3.6393804"><ele>503.0</ele><time>2026-03-07T13:40:11.995Z</time></trkpt><trkpt lat="36.7706006" lon="-3.6394449"><ele>503.0</ele><time>2026-03-07T13:40:14.004Z</time></trkpt><trkpt lat="36.770676" lon="-3.6394664"><ele>503.0</ele><time>2026-03-07T13:40:14.997Z</time></trkpt><trkpt lat="36.7707601" lon="-3.6394832"><ele>502.99999999999994</ele><time>2026-03-07T13:40:16Z</time></trkpt><trkpt lat="36.7708416" lon="-3.6395022"><ele>503.0</ele><time>2026-03-07T13:40:17Z</time></trkpt><trkpt lat="36.7709223" lon="-3.6395177"><ele>502.66666666666663</ele><time>2026-03-07T13:40:18Z</time></trkpt><trkpt lat="36.7710013" lon="-3.639551"><ele>502.3333333333333</ele><time>2026-03-07T13:40:18.987Z</time></trkpt><trkpt lat="36.771078" lon="-3.6395881"><ele>502.0</ele><time>2026-03-07T13:40:20.011Z</time></trkpt><trkpt lat="36.7711594" lon="-3.6396299"><ele>501.66666666666663</ele><time>2026-03-07T13:40:21.002Z</time></trkpt><trkpt lat="36.7712396" lon="-3.6396881"><ele>501.3333333333333</ele><time>2026-03-07T13:40:22.015Z</time></trkpt><trkpt lat="36.7713147" lon="-3.6397489"><ele>501.0</ele><time>2026-03-07T13:40:23.001Z</time></trkpt><trkpt lat="36.7713888" lon="-3.6398093"><ele>504.1666666666667</ele><time>2026-03-07T13:40:24.011Z</time></trkpt><trkpt lat="36.7714548" lon="-3.6398634"><ele>507.33333333333337</ele><time>2026-03-07T13:40:25.002Z</time></trkpt><trkpt lat="36.7715234" lon="-3.6399151"><ele>510.5</ele><time>2026-03-07T13:40:25.996Z</time></trkpt><trkpt lat="36.7716052" lon="-3.6399567"><ele>513.6666666666667</ele><time>2026-03-07T13:40:27.008Z</time></trkpt><trkpt lat="36.7716773" lon="-3.6399792"><ele>516.8333333333334</ele><time>2026-03-07T13:40:28.01Z</time></trkpt><trkpt lat="36.7717532" lon="-3.6399995"><ele>520.0</ele><time>2026-03-07T13:40:28.994Z</time></trkpt><trkpt lat="36.7718287" lon="-3.6400029"><ele>523.5</ele><time>2026-03-07T13:40:30.005Z</time></trkpt><trkpt lat="36.7719022" lon="-3.6400054"><ele>527.0</ele><time>2026-03-07T13:40:31.012Z</time></trkpt><trkpt lat="36.7719877" lon="-3.6400044"><ele>530.5</ele><time>2026-03-07T13:40:31.999Z</time></trkpt><trkpt lat="36.772073" lon="-3.6400128"><ele>534.0</ele><time>2026-03-07T13:40:33.008Z</time></trkpt><trkpt lat="36.7721467" lon="-3.6400281"><ele>537.5</ele><time>2026-03-07T13:40:34.007Z</time></trkpt><trkpt lat="36.7722242" lon="-3.6400462"><ele>541.0</ele><time>2026-03-07T13:40:35.008Z</time></trkpt><trkpt lat="36.7722993" lon="-3.6400789"><ele>541.0</ele><time>2026-03-07T13:40:35.995Z</time></trkpt><trkpt lat="36.7723713" lon="-3.6401123"><ele>541.0</ele><time>2026-03-07T13:40:37.007Z</time></trkpt><trkpt lat="36.7724457" lon="-3.6401466"><ele>541.0</ele><time>2026-03-07T13:40:38.008Z</time></trkpt><trkpt lat="36.7725193" lon="-3.6401787"><ele>541.0</ele><time>2026-03-07T13:40:38.993Z</time></trkpt><trkpt lat="36.7725998" lon="-3.6402028"><ele>541.0</ele><time>2026-03-07T13:40:40.008Z</time></trkpt><trkpt lat="36.7726764" lon="-3.640206"><ele>541.0</ele><time>2026-03-07T13:40:40.999Z</time></trkpt><trkpt lat="36.7727503" lon="-3.6401924"><ele>544.5</ele><time>2026-03-07T13:40:41.995Z</time></trkpt><trkpt lat="36.7728243" lon="-3.6401986"><ele>548.0</ele><time>2026-03-07T13:40:43Z</time></trkpt><trkpt lat="36.7728894" lon="-3.640205"><ele>551.5</ele><time>2026-03-07T13:40:44.008Z</time></trkpt><trkpt lat="36.7729532" lon="-3.640235"><ele>555.0</ele><time>2026-03-07T13:40:44.995Z</time></trkpt><trkpt lat="36.7730057" lon="-3.640311"><ele>558.5</ele><time>2026-03-07T13:40:45.999Z</time></trkpt><trkpt lat="36.7730604" lon="-3.6403997"><ele>562.0</ele><time>2026-03-07T13:40:47.005Z</time></trkpt><trkpt lat="36.7731232" lon="-3.6404873"><ele>564.5</ele><time>2026-03-07T13:40:48.018Z</time></trkpt><trkpt lat="36.7731863" lon="-3.640574"><ele>567.0</ele><time>2026-03-07T13:40:49.002Z</time></trkpt><trkpt lat="36.7732422" lon="-3.6406606"><ele>569.5</ele><time>2026-03-07T13:40:49.999Z</time></trkpt><trkpt lat="36.7732952" lon="-3.640744"><ele>572.0</ele><time>2026-03-07T13:40:51.002Z</time></trkpt><trkpt lat="36.7733307" lon="-3.6408146"><ele>574.5</ele><time>2026-03-07T13:40:52.009Z</time></trkpt><trkpt lat="36.7733559" lon="-3.6409262"><ele>577.0</ele><time>2026-03-07T13:40:54Z</time></trkpt><trkpt lat="36.7733471" lon="-3.6410286"><ele>577.0</ele><time>2026-03-07T13:40:56.006Z</time></trkpt><trkpt lat="36.7733349" lon="-3.6411426"><ele>577.0</ele><time>2026-03-07T13:40:58.016Z</time></trkpt><trkpt lat="36.7733514" lon="-3.6412319"><ele>577.0</ele><time>2026-03-07T13:41:00.996Z</time></trkpt><trkpt lat="36.7734187" lon="-3.6412066"><ele>577.0</ele><time>2026-03-07T13:41:04.011Z</time></trkpt><trkpt lat="36.7734272" lon="-3.6410891"><ele>577.0</ele><time>2026-03-07T13:41:06.016Z</time></trkpt><trkpt lat="36.7734535" lon="-3.6409739"><ele>577.0</ele><time>2026-03-07T13:41:08.004Z</time></trkpt><trkpt lat="36.773474" lon="-3.6408275"><ele>577.0</ele><time>2026-03-07T13:41:10.004Z</time></trkpt><trkpt lat="36.7734916" lon="-3.6407021"><ele>577.0</ele><time>2026-03-07T13:41:12.008Z</time></trkpt><trkpt lat="36.7735477" lon="-3.6406062"><ele>577.0</ele><time>2026-03-07T13:41:14.019Z</time></trkpt><trkpt lat="36.7736401" lon="-3.6405228"><ele>577.0</ele><time>2026-03-07T13:41:16.009Z</time></trkpt><trkpt lat="36.7737384" lon="-3.640447"><ele>577.0</ele><time>2026-03-07T13:41:18.002Z</time></trkpt><trkpt lat="36.7738106" lon="-3.6403939"><ele>579.25</ele><time>2026-03-07T13:41:20.006Z</time></trkpt><trkpt lat="36.7738868" lon="-3.640334"><ele>581.5</ele><time>2026-03-07T13:41:22.006Z</time></trkpt><trkpt lat="36.7740105" lon="-3.6402518"><ele>583.75</ele><time>2026-03-07T13:41:24.003Z</time></trkpt><trkpt lat="36.7741161" lon="-3.6402005"><ele>586.0</ele><time>2026-03-07T13:41:26.028Z</time></trkpt><trkpt lat="36.7742209" lon="-3.6402433"><ele>586.0</ele><time>2026-03-07T13:41:27.987Z</time></trkpt><trkpt lat="36.7742958" lon="-3.6402777"><ele>586.0</ele><time>2026-03-07T13:41:29.008Z</time></trkpt><trkpt lat="36.7743768" lon="-3.6403188"><ele>586.0</ele><time>2026-03-07T13:41:30.009Z</time></trkpt><trkpt lat="36.7744653" lon="-3.6403715"><ele>586.0</ele><time>2026-03-07T13:41:31.008Z</time></trkpt><trkpt lat="36.7745469" lon="-3.6404322"><ele>586.0</ele><time>2026-03-07T13:41:31.994Z</time></trkpt><trkpt lat="36.7746185" lon="-3.6404932"><ele>586.0</ele><time>2026-03-07T13:41:33Z</time></trkpt><trkpt lat="36.7746751" lon="-3.6405519"><ele>587.5</ele><time>2026-03-07T13:41:33.992Z</time></trkpt><trkpt lat="36.7747384" lon="-3.6406584"><ele>589.0</ele><time>2026-03-07T13:41:35.996Z</time></trkpt><trkpt lat="36.7746934" lon="-3.6407591"><ele>590.5</ele><time>2026-03-07T13:41:39.01Z</time></trkpt><trkpt lat="36.7746531" lon="-3.6408201"><ele>592.0</ele><time>2026-03-07T13:41:39.995Z</time></trkpt><trkpt lat="36.7746108" lon="-3.6408893"><ele>593.5</ele><time>2026-03-07T13:41:40.991Z</time></trkpt><trkpt lat="36.7745672" lon="-3.6409595"><ele>595.0</ele><time>2026-03-07T13:41:41.999Z</time></trkpt><trkpt lat="36.7745149" lon="-3.6410294"><ele>595.0</ele><time>2026-03-07T13:41:43.006Z</time></trkpt><trkpt lat="36.7744625" lon="-3.6410982"><ele>595.0</ele><time>2026-03-07T13:41:43.994Z</time></trkpt><trkpt lat="36.774418" lon="-3.6411751"><ele>595.0</ele><time>2026-03-07T13:41:45.004Z</time></trkpt><trkpt lat="36.7743732" lon="-3.6412538"><ele>595.0</ele><time>2026-03-07T13:41:46.046Z</time></trkpt><trkpt lat="36.7743293" lon="-3.6413408"><ele>595.0</ele><time>2026-03-07T13:41:47.012Z</time></trkpt><trkpt lat="36.7743013" lon="-3.6414241"><ele>595.0</ele><time>2026-03-07T13:41:48.007Z</time></trkpt><trkpt lat="36.7742967" lon="-3.6415721"><ele>595.6666666666667</ele><time>2026-03-07T13:41:50.001Z</time></trkpt><trkpt lat="36.774304" lon="-3.6416514"><ele>596.3333333333334</ele><time>2026-03-07T13:41:51.002Z</time></trkpt><trkpt lat="36.7743164" lon="-3.6417392"><ele>597.0</ele><time>2026-03-07T13:41:51.997Z</time></trkpt><trkpt lat="36.7743455" lon="-3.6418173"><ele>597.6666666666666</ele><time>2026-03-07T13:41:53.01Z</time></trkpt><trkpt lat="36.7744058" lon="-3.641964"><ele>598.3333333333333</ele><time>2026-03-07T13:41:55.003Z</time></trkpt><trkpt lat="36.7744377" lon="-3.6420343"><ele>599.0</ele><time>2026-03-07T13:41:56Z</time></trkpt><trkpt lat="36.774506" lon="-3.642144"><ele>599.5</ele><time>2026-03-07T13:41:57.997Z</time></trkpt><trkpt lat="36.7746192" lon="-3.6421654"><ele>600.0</ele><time>2026-03-07T13:42:00Z</time></trkpt><trkpt lat="36.7746841" lon="-3.6421854"><ele>600.5</ele><time>2026-03-07T13:42:01.009Z</time></trkpt><trkpt lat="36.7747563" lon="-3.6422213"><ele>601.0</ele><time>2026-03-07T13:42:02.006Z</time></trkpt><trkpt lat="36.7748263" lon="-3.6422692"><ele>601.5</ele><time>2026-03-07T13:42:03.006Z</time></trkpt><trkpt lat="36.7748948" lon="-3.6423243"><ele>602.0</ele><time>2026-03-07T13:42:04.018Z</time></trkpt><trkpt lat="36.7749597" lon="-3.6423904"><ele>602.0</ele><time>2026-03-07T13:42:05.021Z</time></trkpt><trkpt lat="36.7750212" lon="-3.6424689"><ele>602.0</ele><time>2026-03-07T13:42:06.016Z</time></trkpt><trkpt lat="36.7750823" lon="-3.6425482"><ele>602.0</ele><time>2026-03-07T13:42:07.01Z</time></trkpt><trkpt lat="36.7751415" lon="-3.6426233"><ele>602.0</ele><time>2026-03-07T13:42:08Z</time></trkpt><trkpt lat="36.775194" lon="-3.6426915"><ele>602.0</ele><time>2026-03-07T13:42:09.005Z</time></trkpt><trkpt lat="36.7752495" lon="-3.6427558"><ele>602.0</ele><time>2026-03-07T13:42:10.004Z</time></trkpt><trkpt lat="36.7753067" lon="-3.6428273"><ele>601.0</ele><time>2026-03-07T13:42:11.012Z</time></trkpt><trkpt lat="36.7753449" lon="-3.642918"><ele>600.0</ele><time>2026-03-07T13:42:12.013Z</time></trkpt><trkpt lat="36.7753637" lon="-3.6430234"><ele>599.0</ele><time>2026-03-07T13:42:13.039Z</time></trkpt><trkpt lat="36.7753749" lon="-3.6431382"><ele>598.0</ele><time>2026-03-07T13:42:14.006Z</time></trkpt><trkpt lat="36.7753893" lon="-3.6432509"><ele>597.0</ele><time>2026-03-07T13:42:14.992Z</time></trkpt><trkpt lat="36.7754035" lon="-3.6433582"><ele>596.0</ele><time>2026-03-07T13:42:15.994Z</time></trkpt><trkpt lat="36.7754222" lon="-3.6434656"><ele>596.0</ele><time>2026-03-07T13:42:17.009Z</time></trkpt><trkpt lat="36.7754358" lon="-3.6435593"><ele>596.0</ele><time>2026-03-07T13:42:17.998Z</time></trkpt><trkpt lat="36.775452" lon="-3.6436399"><ele>596.0</ele><time>2026-03-07T13:42:18.988Z</time></trkpt><trkpt lat="36.7754706" lon="-3.6437157"><ele>596.0</ele><time>2026-03-07T13:42:19.996Z</time></trkpt><trkpt lat="36.7755231" lon="-3.6439079"><ele>596.0</ele><time>2026-03-07T13:42:23.002Z</time></trkpt><trkpt lat="36.7755507" lon="-3.6440269"><ele>597.8333333333333</ele><time>2026-03-07T13:42:25Z</time></trkpt><trkpt lat="36.7755648" lon="-3.6441764"><ele>599.6666666666666</ele><time>2026-03-07T13:42:26.989Z</time></trkpt><trkpt lat="36.7755695" lon="-3.6442649"><ele>601.5</ele><time>2026-03-07T13:42:28.066Z</time></trkpt><trkpt lat="36.7755736" lon="-3.6443448"><ele>603.3333333333334</ele><time>2026-03-07T13:42:29.005Z</time></trkpt><trkpt lat="36.775587" lon="-3.644484"><ele>605.1666666666667</ele><time>2026-03-07T13:42:30.997Z</time></trkpt><trkpt lat="36.7756185" lon="-3.6445722"><ele>607.0</ele><time>2026-03-07T13:42:33Z</time></trkpt><trkpt lat="36.775705" lon="-3.6446475"><ele>607.7142857142857</ele><time>2026-03-07T13:42:35.021Z</time></trkpt><trkpt lat="36.7757624" lon="-3.6446924"><ele>608.4285714285714</ele><time>2026-03-07T13:42:36.006Z</time></trkpt><trkpt lat="36.775821" lon="-3.6447358"><ele>609.1428571428571</ele><time>2026-03-07T13:42:37.013Z</time></trkpt><trkpt lat="36.7758814" lon="-3.6447836"><ele>609.8571428571429</ele><time>2026-03-07T13:42:38.016Z</time></trkpt><trkpt lat="36.7759387" lon="-3.6448382"><ele>610.5714285714286</ele><time>2026-03-07T13:42:39.005Z</time></trkpt><trkpt lat="36.775996" lon="-3.6449113"><ele>611.2857142857142</ele><time>2026-03-07T13:42:40.017Z</time></trkpt><trkpt lat="36.7760478" lon="-3.645"><ele>612.0</ele><time>2026-03-07T13:42:41.002Z</time></trkpt><trkpt lat="36.7761041" lon="-3.6450928"><ele>612.0</ele><time>2026-03-07T13:42:41.996Z</time></trkpt><trkpt lat="36.7761609" lon="-3.6451894"><ele>612.0</ele><time>2026-03-07T13:42:43.007Z</time></trkpt><trkpt lat="36.7762173" lon="-3.6452871"><ele>612.0</ele><time>2026-03-07T13:42:44.016Z</time></trkpt><trkpt lat="36.7762739" lon="-3.6453869"><ele>612.0</ele><time>2026-03-07T13:42:45.008Z</time></trkpt><trkpt lat="36.7763428" lon="-3.6454904"><ele>612.0</ele><time>2026-03-07T13:42:46.002Z</time></trkpt><trkpt lat="36.7764007" lon="-3.6455709"><ele>618.2</ele><time>2026-03-07T13:42:47.01Z</time></trkpt><trkpt lat="36.7764635" lon="-3.6456643"><ele>624.4000000000001</ele><time>2026-03-07T13:42:48.005Z</time></trkpt><trkpt lat="36.7765235" lon="-3.6457521"><ele>630.5999999999999</ele><time>2026-03-07T13:42:48.999Z</time></trkpt><trkpt lat="36.7765803" lon="-3.6458354"><ele>636.8</ele><time>2026-03-07T13:42:50Z</time></trkpt><trkpt lat="36.7766371" lon="-3.6459255"><ele>643.0</ele><time>2026-03-07T13:42:51.01Z</time></trkpt><trkpt lat="36.7766911" lon="-3.6460112"><ele>643.0</ele><time>2026-03-07T13:42:52.006Z</time></trkpt><trkpt lat="36.7767384" lon="-3.6460886"><ele>643.0</ele><time>2026-03-07T13:42:53.02Z</time></trkpt><trkpt lat="36.7767965" lon="-3.6461547"><ele>643.0</ele><time>2026-03-07T13:42:54.016Z</time></trkpt><trkpt lat="36.7768607" lon="-3.6462114"><ele>643.0</ele><time>2026-03-07T13:42:55.007Z</time></trkpt><trkpt lat="36.7769359" lon="-3.6462502"><ele>643.0</ele><time>2026-03-07T13:42:56.015Z</time></trkpt><trkpt lat="36.7770202" lon="-3.6462743"><ele>643.0</ele><time>2026-03-07T13:42:57.003Z</time></trkpt><trkpt lat="36.7771003" lon="-3.6462783"><ele>643.2</ele><time>2026-03-07T13:42:58.013Z</time></trkpt><trkpt lat="36.7771688" lon="-3.6462656"><ele>643.4</ele><time>2026-03-07T13:42:58.997Z</time></trkpt><trkpt lat="36.7772812" lon="-3.6462828"><ele>643.6</ele><time>2026-03-07T13:43:01.011Z</time></trkpt><trkpt lat="36.7773599" lon="-3.6464039"><ele>643.8000000000001</ele><time>2026-03-07T13:43:03.011Z</time></trkpt><trkpt lat="36.7774209" lon="-3.6465362"><ele>644.0</ele><time>2026-03-07T13:43:05.005Z</time></trkpt><trkpt lat="36.7774847" lon="-3.6466826"><ele>644.0</ele><time>2026-03-07T13:43:07.02Z</time></trkpt><trkpt lat="36.7775249" lon="-3.6467855"><ele>644.0</ele><time>2026-03-07T13:43:08.009Z</time></trkpt><trkpt lat="36.7775527" lon="-3.6468969"><ele>644.0</ele><time>2026-03-07T13:43:09.012Z</time></trkpt><trkpt lat="36.7775831" lon="-3.647039"><ele>644.0</ele><time>2026-03-07T13:43:09.999Z</time></trkpt><trkpt lat="36.7776022" lon="-3.6471632"><ele>644.0</ele><time>2026-03-07T13:43:11.014Z</time></trkpt><trkpt lat="36.7776244" lon="-3.647282"><ele>643.0</ele><time>2026-03-07T13:43:12.019Z</time></trkpt><trkpt lat="36.7776553" lon="-3.647392"><ele>642.0</ele><time>2026-03-07T13:43:13.01Z</time></trkpt><trkpt lat="36.7776875" lon="-3.6474961"><ele>641.0</ele><time>2026-03-07T13:43:14.004Z</time></trkpt><trkpt lat="36.7777169" lon="-3.6475913"><ele>640.0</ele><time>2026-03-07T13:43:15.01Z</time></trkpt><trkpt lat="36.7777386" lon="-3.6476891"><ele>639.0</ele><time>2026-03-07T13:43:16.006Z</time></trkpt><trkpt lat="36.7777566" lon="-3.6477971"><ele>638.0</ele><time>2026-03-07T13:43:17.021Z</time></trkpt><trkpt lat="36.7777812" lon="-3.6479144"><ele>641.6666666666666</ele><time>2026-03-07T13:43:18.011Z</time></trkpt><trkpt lat="36.777829" lon="-3.6480204"><ele>645.3333333333333</ele><time>2026-03-07T13:43:18.999Z</time></trkpt><trkpt lat="36.7778728" lon="-3.6481122"><ele>649.0</ele><time>2026-03-07T13:43:20.007Z</time></trkpt><trkpt lat="36.7779216" lon="-3.6482088"><ele>652.6666666666666</ele><time>2026-03-07T13:43:21.013Z</time></trkpt><trkpt lat="36.7779826" lon="-3.6482733"><ele>656.3333333333334</ele><time>2026-03-07T13:43:22.009Z</time></trkpt><trkpt lat="36.7780427" lon="-3.6483304"><ele>660.0</ele><time>2026-03-07T13:43:23.013Z</time></trkpt><trkpt lat="36.7781048" lon="-3.6483916"><ele>660.0</ele><time>2026-03-07T13:43:24.007Z</time></trkpt><trkpt lat="36.7781774" lon="-3.6484519"><ele>660.0</ele><time>2026-03-07T13:43:25.007Z</time></trkpt><trkpt lat="36.7782546" lon="-3.6485149"><ele>660.0</ele><time>2026-03-07T13:43:26.006Z</time></trkpt><trkpt lat="36.778336" lon="-3.6485628"><ele>660.0</ele><time>2026-03-07T13:43:26.995Z</time></trkpt><trkpt lat="36.7784162" lon="-3.6486155"><ele>660.0</ele><time>2026-03-07T13:43:28.014Z</time></trkpt><trkpt lat="36.7784964" lon="-3.6486794"><ele>661.8</ele><time>2026-03-07T13:43:29.011Z</time></trkpt><trkpt lat="36.7785708" lon="-3.6487529"><ele>663.6</ele><time>2026-03-07T13:43:30.01Z</time></trkpt><trkpt lat="36.7786524" lon="-3.6488329"><ele>665.4000000000001</ele><time>2026-03-07T13:43:31.011Z</time></trkpt><trkpt lat="36.7787344" lon="-3.6489167"><ele>667.2</ele><time>2026-03-07T13:43:32.014Z</time></trkpt><trkpt lat="36.7788175" lon="-3.6490078"><ele>669.0</ele><time>2026-03-07T13:43:33.001Z</time></trkpt><trkpt lat="36.7789038" lon="-3.6490924"><ele>669.0</ele><time>2026-03-07T13:43:33.994Z</time></trkpt><trkpt lat="36.7789909" lon="-3.6491806"><ele>669.0</ele><time>2026-03-07T13:43:35.028Z</time></trkpt><trkpt lat="36.7790868" lon="-3.6492585"><ele>669.0</ele><time>2026-03-07T13:43:36Z</time></trkpt><trkpt lat="36.7791804" lon="-3.6493384"><ele>669.0</ele><time>2026-03-07T13:43:36.999Z</time></trkpt><trkpt lat="36.7792709" lon="-3.6494203"><ele>671.2</ele><time>2026-03-07T13:43:38.011Z</time></trkpt><trkpt lat="36.7793624" lon="-3.6495035"><ele>673.4000000000001</ele><time>2026-03-07T13:43:38.997Z</time></trkpt><trkpt lat="36.7794473" lon="-3.6495883"><ele>675.6</ele><time>2026-03-07T13:43:40.016Z</time></trkpt><trkpt lat="36.7795294" lon="-3.6496726"><ele>677.8</ele><time>2026-03-07T13:43:41.012Z</time></trkpt><trkpt lat="36.7796113" lon="-3.6497467"><ele>680.0</ele><time>2026-03-07T13:43:42.028Z</time></trkpt><trkpt lat="36.7797002" lon="-3.6498149"><ele>680.0</ele><time>2026-03-07T13:43:43.028Z</time></trkpt><trkpt lat="36.7797843" lon="-3.6498586"><ele>680.0</ele><time>2026-03-07T13:43:44.005Z</time></trkpt><trkpt lat="36.7798671" lon="-3.6498796"><ele>680.0</ele><time>2026-03-07T13:43:45.011Z</time></trkpt><trkpt lat="36.7799407" lon="-3.6498926"><ele>680.0</ele><time>2026-03-07T13:43:46.008Z</time></trkpt><trkpt lat="36.7800197" lon="-3.6498923"><ele>680.0</ele><time>2026-03-07T13:43:47.02Z</time></trkpt><trkpt lat="36.7800909" lon="-3.6498871"><ele>680.0</ele><time>2026-03-07T13:43:48.01Z</time></trkpt><trkpt lat="36.7801505" lon="-3.6498505"><ele>680.6666666666666</ele><time>2026-03-07T13:43:49.01Z</time></trkpt><trkpt lat="36.7801963" lon="-3.6497714"><ele>681.3333333333333</ele><time>2026-03-07T13:43:50.001Z</time></trkpt><trkpt lat="36.7802385" lon="-3.6496596"><ele>682.0</ele><time>2026-03-07T13:43:51.012Z</time></trkpt><trkpt lat="36.7802678" lon="-3.6495517"><ele>682.6666666666666</ele><time>2026-03-07T13:43:52.012Z</time></trkpt><trkpt lat="36.7802976" lon="-3.6494507"><ele>683.3333333333334</ele><time>2026-03-07T13:43:53.011Z</time></trkpt><trkpt lat="36.7803359" lon="-3.6493601"><ele>684.0</ele><time>2026-03-07T13:43:54.007Z</time></trkpt><trkpt lat="36.7803978" lon="-3.6493005"><ele>684.0</ele><time>2026-03-07T13:43:55.014Z</time></trkpt><trkpt lat="36.7804706" lon="-3.6492458"><ele>684.0</ele><time>2026-03-07T13:43:56.018Z</time></trkpt><trkpt lat="36.7805539" lon="-3.6492261"><ele>684.0</ele><time>2026-03-07T13:43:56.996Z</time></trkpt><trkpt lat="36.7806449" lon="-3.6492383"><ele>684.0</ele><time>2026-03-07T13:43:58.014Z</time></trkpt><trkpt lat="36.7807272" lon="-3.6492368"><ele>684.0</ele><time>2026-03-07T13:43:59.007Z</time></trkpt><trkpt lat="36.7807986" lon="-3.6492066"><ele>684.0</ele><time>2026-03-07T13:43:59.996Z</time></trkpt><trkpt lat="36.7808583" lon="-3.649131"><ele>684.0</ele><time>2026-03-07T13:44:01.012Z</time></trkpt><trkpt lat="36.7809153" lon="-3.6490376"><ele>684.0</ele><time>2026-03-07T13:44:02.008Z</time></trkpt><trkpt lat="36.7809634" lon="-3.6489299"><ele>684.0</ele><time>2026-03-07T13:44:03.013Z</time></trkpt><trkpt lat="36.7810129" lon="-3.6488219"><ele>684.0</ele><time>2026-03-07T13:44:04.007Z</time></trkpt><trkpt lat="36.7810502" lon="-3.6487136"><ele>684.0</ele><time>2026-03-07T13:44:04.999Z</time></trkpt><trkpt lat="36.7810866" lon="-3.648601"><ele>679.8000000000001</ele><time>2026-03-07T13:44:06.002Z</time></trkpt><trkpt lat="36.7811132" lon="-3.6484871"><ele>675.6</ele><time>2026-03-07T13:44:07.005Z</time></trkpt><trkpt lat="36.7811355" lon="-3.6483856"><ele>671.4</ele><time>2026-03-07T13:44:08.001Z</time></trkpt><trkpt lat="36.781165" lon="-3.6483137"><ele>667.2</ele><time>2026-03-07T13:44:09.014Z</time></trkpt><trkpt lat="36.781211" lon="-3.6482185"><ele>663.0</ele><time>2026-03-07T13:44:11.002Z</time></trkpt><trkpt lat="36.7813505" lon="-3.6482896"><ele>663.0</ele><time>2026-03-07T13:44:13.007Z</time></trkpt><trkpt lat="36.7814288" lon="-3.6484251"><ele>663.0</ele><time>2026-03-07T13:44:14.004Z</time></trkpt><trkpt lat="36.7815163" lon="-3.6485477"><ele>663.0</ele><time>2026-03-07T13:44:15.007Z</time></trkpt><trkpt lat="36.7816001" lon="-3.6486473"><ele>663.0</ele><time>2026-03-07T13:44:16.02Z</time></trkpt><trkpt lat="36.7816881" lon="-3.6487334"><ele>660.2</ele><time>2026-03-07T13:44:17.019Z</time></trkpt><trkpt lat="36.7817791" lon="-3.6488171"><ele>657.4</ele><time>2026-03-07T13:44:18.001Z</time></trkpt><trkpt lat="36.7818636" lon="-3.6488997"><ele>654.6</ele><time>2026-03-07T13:44:19.002Z</time></trkpt><trkpt lat="36.7819431" lon="-3.6490037"><ele>651.8000000000001</ele><time>2026-03-07T13:44:20.004Z</time></trkpt><trkpt lat="36.7820218" lon="-3.6490997"><ele>649.0</ele><time>2026-03-07T13:44:21.016Z</time></trkpt><trkpt lat="36.7821011" lon="-3.6491859"><ele>649.0</ele><time>2026-03-07T13:44:22.014Z</time></trkpt><trkpt lat="36.7821825" lon="-3.6492638"><ele>649.0</ele><time>2026-03-07T13:44:23.028Z</time></trkpt><trkpt lat="36.7822603" lon="-3.6493384"><ele>649.0</ele><time>2026-03-07T13:44:24.018Z</time></trkpt><trkpt lat="36.782335" lon="-3.6494128"><ele>649.0</ele><time>2026-03-07T13:44:25.003Z</time></trkpt><trkpt lat="36.782397" lon="-3.6494833"><ele>649.0</ele><time>2026-03-07T13:44:26.008Z</time></trkpt><trkpt lat="36.7824368" lon="-3.6495693"><ele>646.6666666666667</ele><time>2026-03-07T13:44:27.012Z</time></trkpt><trkpt lat="36.782461" lon="-3.6496715"><ele>644.3333333333334</ele><time>2026-03-07T13:44:28.006Z</time></trkpt><trkpt lat="36.7824958" lon="-3.6497723"><ele>642.0</ele><time>2026-03-07T13:44:28.998Z</time></trkpt><trkpt lat="36.7825453" lon="-3.6498516"><ele>639.6666666666666</ele><time>2026-03-07T13:44:30.017Z</time></trkpt><trkpt lat="36.7826032" lon="-3.6499275"><ele>637.3333333333333</ele><time>2026-03-07T13:44:30.999Z</time></trkpt><trkpt lat="36.7826669" lon="-3.6499893"><ele>635.0</ele><time>2026-03-07T13:44:31.992Z</time></trkpt><trkpt lat="36.782733" lon="-3.6500494"><ele>635.0</ele><time>2026-03-07T13:44:33.01Z</time></trkpt><trkpt lat="36.7828012" lon="-3.6501045"><ele>635.0</ele><time>2026-03-07T13:44:34.03Z</time></trkpt><trkpt lat="36.782875" lon="-3.6501572"><ele>635.0</ele><time>2026-03-07T13:44:35.022Z</time></trkpt><trkpt lat="36.7829544" lon="-3.6502069"><ele>635.0</ele><time>2026-03-07T13:44:36.011Z</time></trkpt><trkpt lat="36.7830489" lon="-3.6502252"><ele>635.0</ele><time>2026-03-07T13:44:37.004Z</time></trkpt><trkpt lat="36.7831393" lon="-3.6502565"><ele>635.0</ele><time>2026-03-07T13:44:38.012Z</time></trkpt><trkpt lat="36.7832187" lon="-3.6502831"><ele>633.5</ele><time>2026-03-07T13:44:39.002Z</time></trkpt><trkpt lat="36.7832941" lon="-3.6503073"><ele>632.0</ele><time>2026-03-07T13:44:40.006Z</time></trkpt><trkpt lat="36.7833745" lon="-3.6503275"><ele>630.5</ele><time>2026-03-07T13:44:41.004Z</time></trkpt><trkpt lat="36.7834633" lon="-3.6503494"><ele>629.0</ele><time>2026-03-07T13:44:42Z</time></trkpt><trkpt lat="36.7835533" lon="-3.6503794"><ele>627.5</ele><time>2026-03-07T13:44:43.006Z</time></trkpt><trkpt lat="36.7836442" lon="-3.6504197"><ele>626.0</ele><time>2026-03-07T13:44:44.009Z</time></trkpt><trkpt lat="36.7837339" lon="-3.6504675"><ele>626.0</ele><time>2026-03-07T13:44:45.016Z</time></trkpt><trkpt lat="36.7838192" lon="-3.6505164"><ele>626.0</ele><time>2026-03-07T13:44:45.995Z</time></trkpt><trkpt lat="36.7838966" lon="-3.6505597"><ele>626.0</ele><time>2026-03-07T13:44:47.006Z</time></trkpt><trkpt lat="36.7839698" lon="-3.6506006"><ele>626.0</ele><time>2026-03-07T13:44:48.007Z</time></trkpt><trkpt lat="36.7840511" lon="-3.6506285"><ele>626.0</ele><time>2026-03-07T13:44:49.01Z</time></trkpt><trkpt lat="36.7841349" lon="-3.6506494"><ele>626.0</ele><time>2026-03-07T13:44:50.006Z</time></trkpt><trkpt lat="36.7842229" lon="-3.6506637"><ele>626.0</ele><time>2026-03-07T13:44:51.011Z</time></trkpt><trkpt lat="36.7843033" lon="-3.6506704"><ele>626.0</ele><time>2026-03-07T13:44:52.016Z</time></trkpt><trkpt lat="36.7843794" lon="-3.650667"><ele>626.0</ele><time>2026-03-07T13:44:53.03Z</time></trkpt><trkpt lat="36.7844495" lon="-3.6506664"><ele>626.0</ele><time>2026-03-07T13:44:54.016Z</time></trkpt><trkpt lat="36.7845216" lon="-3.6506694"><ele>626.0</ele><time>2026-03-07T13:44:55.002Z</time></trkpt><trkpt lat="36.7846324" lon="-3.6506863"><ele>626.0</ele><time>2026-03-07T13:44:57.008Z</time></trkpt><trkpt lat="36.78471" lon="-3.6506981"><ele>621.4</ele><time>2026-03-07T13:45:00.003Z</time></trkpt><trkpt lat="36.7847097" lon="-3.6505994"><ele>616.8</ele><time>2026-03-07T13:45:02.022Z</time></trkpt><trkpt lat="36.7846377" lon="-3.6504748"><ele>612.1999999999999</ele><time>2026-03-07T13:45:04.004Z</time></trkpt><trkpt lat="36.7845898" lon="-3.6504122"><ele>607.6</ele><time>2026-03-07T13:45:05.006Z</time></trkpt><trkpt lat="36.784558" lon="-3.6502873"><ele>603.0</ele><time>2026-03-07T13:45:07.003Z</time></trkpt><trkpt lat="36.7846104" lon="-3.6502188"><ele>603.0</ele><time>2026-03-07T13:45:09.016Z</time></trkpt><trkpt lat="36.7847306" lon="-3.6502777"><ele>603.0</ele><time>2026-03-07T13:45:11.028Z</time></trkpt><trkpt lat="36.7848115" lon="-3.650319"><ele>603.0</ele><time>2026-03-07T13:45:12.001Z</time></trkpt><trkpt lat="36.7848929" lon="-3.6503676"><ele>603.0</ele><time>2026-03-07T13:45:13.008Z</time></trkpt><trkpt lat="36.7849642" lon="-3.6504041"><ele>603.0</ele><time>2026-03-07T13:45:14.004Z</time></trkpt><trkpt lat="36.785027" lon="-3.650431"><ele>603.0</ele><time>2026-03-07T13:45:14.988Z</time></trkpt><trkpt lat="36.7851017" lon="-3.6504313"><ele>603.0</ele><time>2026-03-07T13:45:17.006Z</time></trkpt><trkpt lat="36.7850737" lon="-3.6503212"><ele>603.0</ele><time>2026-03-07T13:45:19.005Z</time></trkpt><trkpt lat="36.7850358" lon="-3.6502561"><ele>603.0</ele><time>2026-03-07T13:45:19.992Z</time></trkpt><trkpt lat="36.784995" lon="-3.6501904"><ele>603.0</ele><time>2026-03-07T13:45:20.985Z</time></trkpt><trkpt lat="36.7849736" lon="-3.6500788"><ele>603.0</ele><time>2026-03-07T13:45:23.003Z</time></trkpt><trkpt lat="36.7850371" lon="-3.6500714"><ele>602.1666666666666</ele><time>2026-03-07T13:45:25.002Z</time></trkpt><trkpt lat="36.7851646" lon="-3.6501446"><ele>601.3333333333334</ele><time>2026-03-07T13:45:27.02Z</time></trkpt><trkpt lat="36.7852315" lon="-3.65019"><ele>600.5</ele><time>2026-03-07T13:45:27.996Z</time></trkpt><trkpt lat="36.7852879" lon="-3.6502343"><ele>599.6666666666667</ele><time>2026-03-07T13:45:29.015Z</time></trkpt><trkpt lat="36.7853485" lon="-3.6503021"><ele>598.8333333333334</ele><time>2026-03-07T13:45:29.997Z</time></trkpt><trkpt lat="36.7853923" lon="-3.6503828"><ele>598.0</ele><time>2026-03-07T13:45:30.993Z</time></trkpt><trkpt lat="36.7854286" lon="-3.6504524"><ele>593.8333333333334</ele><time>2026-03-07T13:45:32.004Z</time></trkpt><trkpt lat="36.7855295" lon="-3.6504974"><ele>589.6666666666667</ele><time>2026-03-07T13:45:33.994Z</time></trkpt><trkpt lat="36.7855986" lon="-3.6504916"><ele>585.5</ele><time>2026-03-07T13:45:35.008Z</time></trkpt><trkpt lat="36.7856747" lon="-3.6504723"><ele>581.3333333333334</ele><time>2026-03-07T13:45:36.001Z</time></trkpt><trkpt lat="36.7857536" lon="-3.6504481"><ele>577.1666666666666</ele><time>2026-03-07T13:45:37.01Z</time></trkpt><trkpt lat="36.7858299" lon="-3.6504355"><ele>573.0</ele><time>2026-03-07T13:45:38.001Z</time></trkpt><trkpt lat="36.7859023" lon="-3.6504282"><ele>573.0</ele><time>2026-03-07T13:45:39Z</time></trkpt><trkpt lat="36.7859813" lon="-3.6504162"><ele>573.0</ele><time>2026-03-07T13:45:40.003Z</time></trkpt><trkpt lat="36.7860632" lon="-3.650403"><ele>573.0</ele><time>2026-03-07T13:45:41.005Z</time></trkpt><trkpt lat="36.786142" lon="-3.6503823"><ele>573.0</ele><time>2026-03-07T13:45:42.003Z</time></trkpt><trkpt lat="36.7862237" lon="-3.6503664"><ele>573.0</ele><time>2026-03-07T13:45:43.009Z</time></trkpt><trkpt lat="36.7863066" lon="-3.6503461"><ele>573.0</ele><time>2026-03-07T13:45:43.996Z</time></trkpt><trkpt lat="36.7863909" lon="-3.6503226"><ele>573.5</ele><time>2026-03-07T13:45:44.995Z</time></trkpt><trkpt lat="36.7864756" lon="-3.6503027"><ele>574.0</ele><time>2026-03-07T13:45:45.997Z</time></trkpt><trkpt lat="36.7865566" lon="-3.6502869"><ele>574.5</ele><time>2026-03-07T13:45:46.998Z</time></trkpt><trkpt lat="36.7866276" lon="-3.6502977"><ele>575.0</ele><time>2026-03-07T13:45:48.012Z</time></trkpt><trkpt lat="36.7866962" lon="-3.6503173"><ele>575.5</ele><time>2026-03-07T13:45:49.01Z</time></trkpt><trkpt lat="36.7867697" lon="-3.6503373"><ele>576.0</ele><time>2026-03-07T13:45:50.012Z</time></trkpt><trkpt lat="36.7868497" lon="-3.6503448"><ele>573.0</ele><time>2026-03-07T13:45:51.036Z</time></trkpt><trkpt lat="36.7869287" lon="-3.6503357"><ele>570.0</ele><time>2026-03-07T13:45:52.01Z</time></trkpt><trkpt lat="36.7870073" lon="-3.6503117"><ele>567.0</ele><time>2026-03-07T13:45:52.998Z</time></trkpt><trkpt lat="36.7870896" lon="-3.6502827"><ele>564.0</ele><time>2026-03-07T13:45:54.005Z</time></trkpt><trkpt lat="36.7871757" lon="-3.6502561"><ele>561.0</ele><time>2026-03-07T13:45:54.994Z</time></trkpt><trkpt lat="36.7872642" lon="-3.650228"><ele>558.0</ele><time>2026-03-07T13:45:55.998Z</time></trkpt><trkpt lat="36.7873558" lon="-3.6502005"><ele>558.0</ele><time>2026-03-07T13:45:57Z</time></trkpt><trkpt lat="36.7874512" lon="-3.6501873"><ele>558.0</ele><time>2026-03-07T13:45:58.024Z</time></trkpt><trkpt lat="36.7875413" lon="-3.6501802"><ele>558.0</ele><time>2026-03-07T13:45:59.01Z</time></trkpt><trkpt lat="36.7876266" lon="-3.6501866"><ele>558.0</ele><time>2026-03-07T13:46:00.014Z</time></trkpt><trkpt lat="36.7877184" lon="-3.6502086"><ele>558.0</ele><time>2026-03-07T13:46:01.001Z</time></trkpt><trkpt lat="36.7878128" lon="-3.6502443"><ele>554.4</ele><time>2026-03-07T13:46:01.994Z</time></trkpt><trkpt lat="36.7879027" lon="-3.650273"><ele>550.8</ele><time>2026-03-07T13:46:02.992Z</time></trkpt><trkpt lat="36.7879981" lon="-3.6502881"><ele>547.2</ele><time>2026-03-07T13:46:04.002Z</time></trkpt><trkpt lat="36.7880963" lon="-3.6502863"><ele>543.6</ele><time>2026-03-07T13:46:04.99Z</time></trkpt><trkpt lat="36.7881931" lon="-3.6502832"><ele>540.0</ele><time>2026-03-07T13:46:06.013Z</time></trkpt><trkpt lat="36.7882768" lon="-3.6502844"><ele>540.2</ele><time>2026-03-07T13:46:07.002Z</time></trkpt><trkpt lat="36.7883532" lon="-3.6503108"><ele>540.4</ele><time>2026-03-07T13:46:08.006Z</time></trkpt><trkpt lat="36.7884343" lon="-3.6503617"><ele>540.6</ele><time>2026-03-07T13:46:09Z</time></trkpt><trkpt lat="36.7885006" lon="-3.6504435"><ele>540.8</ele><time>2026-03-07T13:46:10.005Z</time></trkpt><trkpt lat="36.7885657" lon="-3.6505405"><ele>541.0</ele><time>2026-03-07T13:46:11.014Z</time></trkpt><trkpt lat="36.7886324" lon="-3.6506422"><ele>538.4</ele><time>2026-03-07T13:46:12.013Z</time></trkpt><trkpt lat="36.7886977" lon="-3.65074"><ele>535.8</ele><time>2026-03-07T13:46:13.001Z</time></trkpt><trkpt lat="36.7887635" lon="-3.6508354"><ele>533.1999999999999</ele><time>2026-03-07T13:46:14.011Z</time></trkpt><trkpt lat="36.7888367" lon="-3.6509156"><ele>530.6</ele><time>2026-03-07T13:46:14.997Z</time></trkpt><trkpt lat="36.7889071" lon="-3.6509883"><ele>528.0</ele><time>2026-03-07T13:46:15.999Z</time></trkpt><trkpt lat="36.7889732" lon="-3.6510541"><ele>528.0</ele><time>2026-03-07T13:46:17.003Z</time></trkpt><trkpt lat="36.7890354" lon="-3.6511159"><ele>528.0</ele><time>2026-03-07T13:46:18.005Z</time></trkpt><trkpt lat="36.7890906" lon="-3.6511893"><ele>528.0</ele><time>2026-03-07T13:46:18.989Z</time></trkpt><trkpt lat="36.7891435" lon="-3.651255"><ele>528.0</ele><time>2026-03-07T13:46:20.004Z</time></trkpt><trkpt lat="36.7891946" lon="-3.6513206"><ele>528.0</ele><time>2026-03-07T13:46:21.023Z</time></trkpt><trkpt lat="36.7892455" lon="-3.6513857"><ele>528.0</ele><time>2026-03-07T13:46:22.032Z</time></trkpt><trkpt lat="36.7892983" lon="-3.6514386"><ele>528.0</ele><time>2026-03-07T13:46:23.006Z</time></trkpt><trkpt lat="36.7894017" lon="-3.6514959"><ele>525.1666666666666</ele><time>2026-03-07T13:46:25.004Z</time></trkpt><trkpt lat="36.7894561" lon="-3.6514416"><ele>522.3333333333334</ele><time>2026-03-07T13:46:26.004Z</time></trkpt><trkpt lat="36.7895631" lon="-3.6513737"><ele>519.5</ele><time>2026-03-07T13:46:28.006Z</time></trkpt><trkpt lat="36.7896324" lon="-3.651352"><ele>516.6666666666667</ele><time>2026-03-07T13:46:29.006Z</time></trkpt><trkpt lat="36.7897061" lon="-3.651398"><ele>513.8333333333334</ele><time>2026-03-07T13:46:30.003Z</time></trkpt><trkpt lat="36.7897813" lon="-3.6514648"><ele>511.0</ele><time>2026-03-07T13:46:31.007Z</time></trkpt><trkpt lat="36.7898614" lon="-3.6515433"><ele>511.00000000000006</ele><time>2026-03-07T13:46:32.007Z</time></trkpt><trkpt lat="36.7899352" lon="-3.6516124"><ele>511.0</ele><time>2026-03-07T13:46:33.037Z</time></trkpt><trkpt lat="36.7900054" lon="-3.6516722"><ele>511.0</ele><time>2026-03-07T13:46:34.011Z</time></trkpt><trkpt lat="36.7900767" lon="-3.6517191"><ele>511.0</ele><time>2026-03-07T13:46:34.999Z</time></trkpt><trkpt lat="36.7901507" lon="-3.6517638"><ele>511.00000000000006</ele><time>2026-03-07T13:46:36Z</time></trkpt><trkpt lat="36.7902346" lon="-3.6518043"><ele>511.0</ele><time>2026-03-07T13:46:36.999Z</time></trkpt><trkpt lat="36.7903284" lon="-3.65184"><ele>508.20000000000005</ele><time>2026-03-07T13:46:38.001Z</time></trkpt><trkpt lat="36.7904282" lon="-3.6518775"><ele>505.40000000000003</ele><time>2026-03-07T13:46:39.003Z</time></trkpt><trkpt lat="36.7905304" lon="-3.6519069"><ele>502.6</ele><time>2026-03-07T13:46:40.006Z</time></trkpt><trkpt lat="36.7906296" lon="-3.651933"><ele>499.8</ele><time>2026-03-07T13:46:41.005Z</time></trkpt><trkpt lat="36.7907292" lon="-3.6519526"><ele>497.0</ele><time>2026-03-07T13:46:42Z</time></trkpt><trkpt lat="36.7908263" lon="-3.6519733"><ele>494.20000000000005</ele><time>2026-03-07T13:46:42.996Z</time></trkpt><trkpt lat="36.7909206" lon="-3.6519971"><ele>491.40000000000003</ele><time>2026-03-07T13:46:44.007Z</time></trkpt><trkpt lat="36.7910146" lon="-3.6520204"><ele>488.59999999999997</ele><time>2026-03-07T13:46:45.035Z</time></trkpt><trkpt lat="36.7911109" lon="-3.6520419"><ele>485.79999999999995</ele><time>2026-03-07T13:46:46.002Z</time></trkpt><trkpt lat="36.7912089" lon="-3.6520526"><ele>483.0</ele><time>2026-03-07T13:46:47.002Z</time></trkpt><trkpt lat="36.7913089" lon="-3.6520452"><ele>484.59999999999997</ele><time>2026-03-07T13:46:48.004Z</time></trkpt><trkpt lat="36.791406" lon="-3.6520151"><ele>486.19999999999993</ele><time>2026-03-07T13:46:48.997Z</time></trkpt><trkpt lat="36.7915024" lon="-3.6519765"><ele>487.8</ele><time>2026-03-07T13:46:50.001Z</time></trkpt><trkpt lat="36.7916179" lon="-3.6519515"><ele>489.4</ele><time>2026-03-07T13:46:50.98Z</time></trkpt><trkpt lat="36.7917218" lon="-3.6519298"><ele>491.0</ele><time>2026-03-07T13:46:51.989Z</time></trkpt><trkpt lat="36.7918367" lon="-3.6519102"><ele>491.6</ele><time>2026-03-07T13:46:53.001Z</time></trkpt><trkpt lat="36.7919361" lon="-3.651892"><ele>492.20000000000005</ele><time>2026-03-07T13:46:53.998Z</time></trkpt><trkpt lat="36.792042" lon="-3.6518612"><ele>492.79999999999995</ele><time>2026-03-07T13:46:54.996Z</time></trkpt><trkpt lat="36.7921382" lon="-3.6518183"><ele>493.4</ele><time>2026-03-07T13:46:55.999Z</time></trkpt><trkpt lat="36.7922398" lon="-3.6517529"><ele>494.0</ele><time>2026-03-07T13:46:57.012Z</time></trkpt><trkpt lat="36.7923459" lon="-3.651685"><ele>494.0</ele><time>2026-03-07T13:46:57.996Z</time></trkpt><trkpt lat="36.7924486" lon="-3.6516236"><ele>494.0</ele><time>2026-03-07T13:46:59.006Z</time></trkpt><trkpt lat="36.7925434" lon="-3.6515707"><ele>494.0</ele><time>2026-03-07T13:47:00.034Z</time></trkpt><trkpt lat="36.7926397" lon="-3.651538"><ele>494.0</ele><time>2026-03-07T13:47:01.011Z</time></trkpt><trkpt lat="36.7927368" lon="-3.6515182"><ele>494.0</ele><time>2026-03-07T13:47:02.015Z</time></trkpt><trkpt lat="36.7928222" lon="-3.6515137"><ele>495.66666666666663</ele><time>2026-03-07T13:47:03.016Z</time></trkpt><trkpt lat="36.7929035" lon="-3.6515171"><ele>497.3333333333333</ele><time>2026-03-07T13:47:04.012Z</time></trkpt><trkpt lat="36.7929731" lon="-3.6515276"><ele>499.0</ele><time>2026-03-07T13:47:05.007Z</time></trkpt><trkpt lat="36.7930879" lon="-3.6515279"><ele>500.66666666666663</ele><time>2026-03-07T13:47:07.003Z</time></trkpt><trkpt lat="36.7931856" lon="-3.6514781"><ele>502.3333333333333</ele><time>2026-03-07T13:47:09.001Z</time></trkpt><trkpt lat="36.793248" lon="-3.6514259"><ele>504.0</ele><time>2026-03-07T13:47:10.005Z</time></trkpt><trkpt lat="36.7933117" lon="-3.6513511"><ele>504.0</ele><time>2026-03-07T13:47:11.014Z</time></trkpt><trkpt lat="36.7933792" lon="-3.6512665"><ele>504.0</ele><time>2026-03-07T13:47:11.999Z</time></trkpt><trkpt lat="36.7934601" lon="-3.6511759"><ele>504.0</ele><time>2026-03-07T13:47:13.006Z</time></trkpt><trkpt lat="36.7935512" lon="-3.6510695"><ele>504.0</ele><time>2026-03-07T13:47:14.003Z</time></trkpt><trkpt lat="36.7936501" lon="-3.65095"><ele>505.5</ele><time>2026-03-07T13:47:14.994Z</time></trkpt><trkpt lat="36.7937468" lon="-3.6508298"><ele>507.0</ele><time>2026-03-07T13:47:16Z</time></trkpt><trkpt lat="36.7938428" lon="-3.6507131"><ele>508.5</ele><time>2026-03-07T13:47:17.016Z</time></trkpt><trkpt lat="36.7939407" lon="-3.6505979"><ele>510.0</ele><time>2026-03-07T13:47:18.002Z</time></trkpt><trkpt lat="36.7940493" lon="-3.6504848"><ele>510.0</ele><time>2026-03-07T13:47:19.001Z</time></trkpt><trkpt lat="36.7941584" lon="-3.6503718"><ele>510.0</ele><time>2026-03-07T13:47:20.001Z</time></trkpt><trkpt lat="36.7942609" lon="-3.6502626"><ele>510.0</ele><time>2026-03-07T13:47:21.006Z</time></trkpt><trkpt lat="36.7943713" lon="-3.6501722"><ele>510.0</ele><time>2026-03-07T13:47:21.996Z</time></trkpt><trkpt lat="36.7944849" lon="-3.6501009"><ele>510.0</ele><time>2026-03-07T13:47:23.006Z</time></trkpt><trkpt lat="36.794598" lon="-3.6500376"><ele>510.0</ele><time>2026-03-07T13:47:24.036Z</time></trkpt><trkpt lat="36.7947203" lon="-3.6499798"><ele>510.0</ele><time>2026-03-07T13:47:25.01Z</time></trkpt><trkpt lat="36.7948432" lon="-3.6499196"><ele>510.0</ele><time>2026-03-07T13:47:26.011Z</time></trkpt><trkpt lat="36.7949641" lon="-3.6498414"><ele>510.0</ele><time>2026-03-07T13:47:27.006Z</time></trkpt><trkpt lat="36.7950772" lon="-3.6497403"><ele>510.0</ele><time>2026-03-07T13:47:28.013Z</time></trkpt><trkpt lat="36.7951869" lon="-3.6496318"><ele>510.0</ele><time>2026-03-07T13:47:29.004Z</time></trkpt><trkpt lat="36.7952953" lon="-3.6495228"><ele>510.0</ele><time>2026-03-07T13:47:30.004Z</time></trkpt><trkpt lat="36.7954043" lon="-3.6494243"><ele>505.75</ele><time>2026-03-07T13:47:31.005Z</time></trkpt><trkpt lat="36.7955204" lon="-3.6493458"><ele>501.5</ele><time>2026-03-07T13:47:32.007Z</time></trkpt><trkpt lat="36.7956358" lon="-3.6492853"><ele>497.25</ele><time>2026-03-07T13:47:33.014Z</time></trkpt><trkpt lat="36.7957607" lon="-3.6492461"><ele>493.0</ele><time>2026-03-07T13:47:34.006Z</time></trkpt><trkpt lat="36.7958898" lon="-3.6492247"><ele>493.5</ele><time>2026-03-07T13:47:35.014Z</time></trkpt><trkpt lat="36.7960218" lon="-3.6492164"><ele>494.0</ele><time>2026-03-07T13:47:36.001Z</time></trkpt><trkpt lat="36.796156" lon="-3.649205"><ele>494.5</ele><time>2026-03-07T13:47:37.002Z</time></trkpt><trkpt lat="36.7962838" lon="-3.6491754"><ele>495.0</ele><time>2026-03-07T13:47:38.01Z</time></trkpt><trkpt lat="36.7964123" lon="-3.6491143"><ele>495.0</ele><time>2026-03-07T13:47:39.004Z</time></trkpt><trkpt lat="36.7965309" lon="-3.6490195"><ele>495.0</ele><time>2026-03-07T13:47:40.005Z</time></trkpt><trkpt lat="36.7966333" lon="-3.6488987"><ele>495.0</ele><time>2026-03-07T13:47:41.004Z</time></trkpt><trkpt lat="36.7967182" lon="-3.648765"><ele>495.0</ele><time>2026-03-07T13:47:42Z</time></trkpt><trkpt lat="36.7967786" lon="-3.6486158"><ele>492.5</ele><time>2026-03-07T13:47:43.019Z</time></trkpt><trkpt lat="36.796801" lon="-3.6484498"><ele>490.0</ele><time>2026-03-07T13:47:44.021Z</time></trkpt><trkpt lat="36.7967968" lon="-3.6482669"><ele>487.5</ele><time>2026-03-07T13:47:45.001Z</time></trkpt><trkpt lat="36.796785" lon="-3.6480783"><ele>485.0</ele><time>2026-03-07T13:47:46.013Z</time></trkpt><trkpt lat="36.7967797" lon="-3.6478849"><ele>483.0</ele><time>2026-03-07T13:47:47.002Z</time></trkpt><trkpt lat="36.7967853" lon="-3.6477029"><ele>481.0</ele><time>2026-03-07T13:47:48.007Z</time></trkpt><trkpt lat="36.7968232" lon="-3.6475229"><ele>479.0</ele><time>2026-03-07T13:47:49.011Z</time></trkpt><trkpt lat="36.7968852" lon="-3.6473475"><ele>477.0</ele><time>2026-03-07T13:47:49.995Z</time></trkpt><trkpt lat="36.7969704" lon="-3.6471855"><ele>477.0</ele><time>2026-03-07T13:47:51.003Z</time></trkpt><trkpt lat="36.7970833" lon="-3.6470499"><ele>477.0</ele><time>2026-03-07T13:47:52.025Z</time></trkpt><trkpt lat="36.7972117" lon="-3.6469373"><ele>477.0</ele><time>2026-03-07T13:47:53.003Z</time></trkpt><trkpt lat="36.7973487" lon="-3.6468302"><ele>471.66666666666663</ele><time>2026-03-07T13:47:54.013Z</time></trkpt><trkpt lat="36.7974864" lon="-3.6467349"><ele>466.3333333333333</ele><time>2026-03-07T13:47:55.014Z</time></trkpt><trkpt lat="36.7976261" lon="-3.6466499"><ele>461.0</ele><time>2026-03-07T13:47:55.997Z</time></trkpt><trkpt lat="36.7977641" lon="-3.6465717"><ele>461.0</ele><time>2026-03-07T13:47:57Z</time></trkpt><trkpt lat="36.7979129" lon="-3.6464905"><ele>461.0</ele><time>2026-03-07T13:47:58.001Z</time></trkpt><trkpt lat="36.7980719" lon="-3.6464296"><ele>461.0</ele><time>2026-03-07T13:47:59.002Z</time></trkpt><trkpt lat="36.7982425" lon="-3.6463988"><ele>461.0</ele><time>2026-03-07T13:48:00.014Z</time></trkpt><trkpt lat="36.7984152" lon="-3.6463849"><ele>461.0</ele><time>2026-03-07T13:48:01Z</time></trkpt><trkpt lat="36.7985781" lon="-3.6463689"><ele>461.0</ele><time>2026-03-07T13:48:02.002Z</time></trkpt><trkpt lat="36.7987399" lon="-3.6463301"><ele>460.66666666666663</ele><time>2026-03-07T13:48:02.999Z</time></trkpt><trkpt lat="36.7988842" lon="-3.6462409"><ele>460.33333333333337</ele><time>2026-03-07T13:48:04.004Z</time></trkpt><trkpt lat="36.7990154" lon="-3.6461114"><ele>460.0</ele><time>2026-03-07T13:48:05Z</time></trkpt><trkpt lat="36.7991211" lon="-3.6459467"><ele>457.0</ele><time>2026-03-07T13:48:06.002Z</time></trkpt><trkpt lat="36.7992094" lon="-3.6457692"><ele>454.0</ele><time>2026-03-07T13:48:07.007Z</time></trkpt><trkpt lat="36.7992874" lon="-3.6455781"><ele>451.0</ele><time>2026-03-07T13:48:08.011Z</time></trkpt><trkpt lat="36.7993403" lon="-3.6453864"><ele>456.0</ele><time>2026-03-07T13:48:09.006Z</time></trkpt><trkpt lat="36.799389" lon="-3.6451866"><ele>461.0</ele><time>2026-03-07T13:48:10.013Z</time></trkpt><trkpt lat="36.7994343" lon="-3.6449954"><ele>466.0</ele><time>2026-03-07T13:48:11.007Z</time></trkpt><trkpt lat="36.7994836" lon="-3.6448085"><ele>466.0</ele><time>2026-03-07T13:48:12.011Z</time></trkpt><trkpt lat="36.7995372" lon="-3.6446312"><ele>466.0</ele><time>2026-03-07T13:48:13.01Z</time></trkpt><trkpt lat="36.7995972" lon="-3.6444594"><ele>466.0</ele><time>2026-03-07T13:48:13.998Z</time></trkpt><trkpt lat="36.7996626" lon="-3.6443018"><ele>466.0</ele><time>2026-03-07T13:48:14.998Z</time></trkpt><trkpt lat="36.7997536" lon="-3.6441568"><ele>463.0</ele><time>2026-03-07T13:48:16.008Z</time></trkpt><trkpt lat="36.7998487" lon="-3.6440295"><ele>460.0</ele><time>2026-03-07T13:48:16.989Z</time></trkpt><trkpt lat="36.7999487" lon="-3.6439034"><ele>457.0</ele><time>2026-03-07T13:48:18Z</time></trkpt><trkpt lat="36.80005" lon="-3.6437729"><ele>454.0</ele><time>2026-03-07T13:48:19.002Z</time></trkpt><trkpt lat="36.8001508" lon="-3.6436314"><ele>455.75</ele><time>2026-03-07T13:48:20.002Z</time></trkpt><trkpt lat="36.8002162" lon="-3.6434623"><ele>457.5</ele><time>2026-03-07T13:48:21.002Z</time></trkpt><trkpt lat="36.8002629" lon="-3.6432859"><ele>459.25</ele><time>2026-03-07T13:48:22.007Z</time></trkpt><trkpt lat="36.8002947" lon="-3.6431102"><ele>461.0</ele><time>2026-03-07T13:48:23.008Z</time></trkpt><trkpt lat="36.8003128" lon="-3.6429427"><ele>455.25</ele><time>2026-03-07T13:48:24.002Z</time></trkpt><trkpt lat="36.8003183" lon="-3.6427803"><ele>449.5</ele><time>2026-03-07T13:48:24.992Z</time></trkpt><trkpt lat="36.8003218" lon="-3.6426208"><ele>443.75</ele><time>2026-03-07T13:48:25.997Z</time></trkpt><trkpt lat="36.8003244" lon="-3.6424598"><ele>438.0</ele><time>2026-03-07T13:48:27.028Z</time></trkpt><trkpt lat="36.8003214" lon="-3.6423028"><ele>438.0</ele><time>2026-03-07T13:48:27.992Z</time></trkpt><trkpt lat="36.8003087" lon="-3.6421531"><ele>437.99999999999994</ele><time>2026-03-07T13:48:28.998Z</time></trkpt><trkpt lat="36.8002955" lon="-3.6420193"><ele>437.99999999999994</ele><time>2026-03-07T13:48:30.003Z</time></trkpt><trkpt lat="36.8002822" lon="-3.6418972"><ele>438.0</ele><time>2026-03-07T13:48:30.998Z</time></trkpt><trkpt lat="36.8002716" lon="-3.641806"><ele>438.0</ele><time>2026-03-07T13:48:32.009Z</time></trkpt><trkpt lat="36.8002815" lon="-3.6416765"><ele>438.0</ele><time>2026-03-07T13:48:34.014Z</time></trkpt><trkpt lat="36.8003716" lon="-3.6416575"><ele>437.99999999999994</ele><time>2026-03-07T13:48:36.008Z</time></trkpt><trkpt lat="36.8004444" lon="-3.6417192"><ele>437.99999999999994</ele><time>2026-03-07T13:48:36.999Z</time></trkpt><trkpt lat="36.8005129" lon="-3.6418095"><ele>438.0</ele><time>2026-03-07T13:48:38.006Z</time></trkpt><trkpt lat="36.8005765" lon="-3.6419014"><ele>438.0</ele><time>2026-03-07T13:48:38.997Z</time></trkpt><trkpt lat="36.8006422" lon="-3.6419925"><ele>438.0</ele><time>2026-03-07T13:48:40.006Z</time></trkpt><trkpt lat="36.8007164" lon="-3.6420681"><ele>438.0</ele><time>2026-03-07T13:48:41.007Z</time></trkpt><trkpt lat="36.8007888" lon="-3.6421148"><ele>438.0</ele><time>2026-03-07T13:48:42.005Z</time></trkpt><trkpt lat="36.8008506" lon="-3.6421385"><ele>438.0</ele><time>2026-03-07T13:48:43.003Z</time></trkpt><trkpt lat="36.8009537" lon="-3.642148"><ele>438.0</ele><time>2026-03-07T13:48:45.01Z</time></trkpt><trkpt lat="36.801041" lon="-3.6421428"><ele>438.0</ele><time>2026-03-07T13:48:47Z</time></trkpt><trkpt lat="36.8011454" lon="-3.6421451"><ele>438.75</ele><time>2026-03-07T13:48:49.004Z</time></trkpt><trkpt lat="36.801265" lon="-3.6421407"><ele>439.5</ele><time>2026-03-07T13:48:51.01Z</time></trkpt><trkpt lat="36.8013834" lon="-3.6421183"><ele>440.25</ele><time>2026-03-07T13:48:53.016Z</time></trkpt><trkpt lat="36.8014432" lon="-3.6420303"><ele>441.0</ele><time>2026-03-07T13:48:55.008Z</time></trkpt><trkpt lat="36.8013649" lon="-3.6419068"><ele>439.0</ele><time>2026-03-07T13:48:57.014Z</time></trkpt><trkpt lat="36.8012652" lon="-3.6418665"><ele>437.0</ele><time>2026-03-07T13:48:59.003Z</time></trkpt><trkpt lat="36.8011729" lon="-3.6417861"><ele>435.0</ele><time>2026-03-07T13:49:01.004Z</time></trkpt><trkpt lat="36.8010647" lon="-3.6416577"><ele>433.0</ele><time>2026-03-07T13:49:04.003Z</time></trkpt><trkpt lat="36.8010211" lon="-3.6415577"><ele>431.00000000000006</ele><time>2026-03-07T13:49:06.008Z</time></trkpt><trkpt lat="36.8009812" lon="-3.6414828"><ele>429.0</ele><time>2026-03-07T13:49:08.006Z</time></trkpt><trkpt lat="36.8009521" lon="-3.6414056"><ele>427.0</ele><time>2026-03-07T13:49:10.016Z</time></trkpt><trkpt lat="36.8008988" lon="-3.6413093"><ele>425.0</ele><time>2026-03-07T13:49:13.022Z</time></trkpt><trkpt lat="36.8008562" lon="-3.6412321"><ele>423.00000000000006</ele><time>2026-03-07T13:49:15.011Z</time></trkpt><trkpt lat="36.8008207" lon="-3.6411576"><ele>421.0</ele><time>2026-03-07T13:49:17.054Z</time></trkpt><trkpt lat="36.8007986" lon="-3.6410654"><ele>420.50000000000006</ele><time>2026-03-07T13:49:19.019Z</time></trkpt><trkpt lat="36.8007947" lon="-3.6409464"><ele>420.0</ele><time>2026-03-07T13:49:20.998Z</time></trkpt><trkpt lat="36.8008238" lon="-3.6408337"><ele>419.5</ele><time>2026-03-07T13:49:23.011Z</time></trkpt><trkpt lat="36.8008414" lon="-3.6407355"><ele>419.0</ele><time>2026-03-07T13:49:25.001Z</time></trkpt><trkpt lat="36.8008501" lon="-3.6406541"><ele>418.50000000000006</ele><time>2026-03-07T13:49:27.025Z</time></trkpt><trkpt lat="36.8009302" lon="-3.6406051"><ele>418.0</ele><time>2026-03-07T13:49:30.011Z</time></trkpt><trkpt lat="36.8009873" lon="-3.6406703"><ele>419.0</ele><time>2026-03-07T13:49:32.008Z</time></trkpt><trkpt lat="36.8010124" lon="-3.6407864"><ele>420.0</ele><time>2026-03-07T13:49:34.01Z</time></trkpt><trkpt lat="36.8010623" lon="-3.6408705"><ele>421.0</ele><time>2026-03-07T13:49:35.01Z</time></trkpt><trkpt lat="36.8011022" lon="-3.6409472"><ele>422.0</ele><time>2026-03-07T13:49:36.015Z</time></trkpt><trkpt lat="36.8011738" lon="-3.6410449"><ele>423.0</ele><time>2026-03-07T13:49:38.02Z</time></trkpt><trkpt lat="36.8012708" lon="-3.6410822"><ele>423.0</ele><time>2026-03-07T13:49:40.017Z</time></trkpt><trkpt lat="36.8013419" lon="-3.6411146"><ele>423.0</ele><time>2026-03-07T13:49:42.032Z</time></trkpt><trkpt lat="36.8014488" lon="-3.6411302"><ele>423.0</ele><time>2026-03-07T13:49:45.064Z</time></trkpt><trkpt lat="36.8015433" lon="-3.6411949"><ele>423.0</ele><time>2026-03-07T13:49:47.014Z</time></trkpt><trkpt lat="36.8016705" lon="-3.6411802"><ele>423.0</ele><time>2026-03-07T13:49:49.014Z</time></trkpt><trkpt lat="36.8017818" lon="-3.6411956"><ele>426.0</ele><time>2026-03-07T13:49:51.011Z</time></trkpt><trkpt lat="36.8018885" lon="-3.6412425"><ele>429.0</ele><time>2026-03-07T13:49:52.996Z</time></trkpt><trkpt lat="36.8019538" lon="-3.6412507"><ele>432.0</ele><time>2026-03-07T13:49:55.004Z</time></trkpt><trkpt lat="36.802022" lon="-3.6412523"><ele>435.0</ele><time>2026-03-07T13:50:04.009Z</time></trkpt><trkpt lat="36.8021088" lon="-3.6412928"><ele>438.0</ele><time>2026-03-07T13:50:06.026Z</time></trkpt><trkpt lat="36.8022085" lon="-3.6413157"><ele>441.0</ele><time>2026-03-07T13:50:08.01Z</time></trkpt><trkpt lat="36.8023019" lon="-3.6413268"><ele>441.0</ele><time>2026-03-07T13:50:10.011Z</time></trkpt><trkpt lat="36.8024087" lon="-3.6413314"><ele>441.0</ele><time>2026-03-07T13:50:12Z</time></trkpt><trkpt lat="36.8025105" lon="-3.6413084"><ele>441.0</ele><time>2026-03-07T13:50:14.008Z</time></trkpt><trkpt lat="36.8025997" lon="-3.6412274"><ele>441.0</ele><time>2026-03-07T13:50:16.007Z</time></trkpt><trkpt lat="36.8026674" lon="-3.6411466"><ele>441.0</ele><time>2026-03-07T13:50:18.007Z</time></trkpt><trkpt lat="36.8027719" lon="-3.6410911"><ele>441.3333333333333</ele><time>2026-03-07T13:50:20.004Z</time></trkpt><trkpt lat="36.8028378" lon="-3.6410783"><ele>441.66666666666663</ele><time>2026-03-07T13:50:21.007Z</time></trkpt><trkpt lat="36.8029037" lon="-3.6410827"><ele>442.0</ele><time>2026-03-07T13:50:22.001Z</time></trkpt><trkpt lat="36.8029668" lon="-3.6410929"><ele>442.3333333333333</ele><time>2026-03-07T13:50:22.999Z</time></trkpt><trkpt lat="36.8030808" lon="-3.641119"><ele>442.66666666666663</ele><time>2026-03-07T13:50:25.015Z</time></trkpt><trkpt lat="36.8032166" lon="-3.6411196"><ele>443.0</ele><time>2026-03-07T13:50:27Z</time></trkpt><trkpt lat="36.8033318" lon="-3.6410576"><ele>443.0</ele><time>2026-03-07T13:50:29.011Z</time></trkpt><trkpt lat="36.803373" lon="-3.6409964"><ele>442.99999999999994</ele><time>2026-03-07T13:50:29.999Z</time></trkpt><trkpt lat="36.8033966" lon="-3.6408289"><ele>442.99999999999994</ele><time>2026-03-07T13:50:32Z</time></trkpt><trkpt lat="36.8033941" lon="-3.6407331"><ele>443.0</ele><time>2026-03-07T13:50:33.007Z</time></trkpt><trkpt lat="36.8033983" lon="-3.6406484"><ele>443.0</ele><time>2026-03-07T13:50:34.004Z</time></trkpt><trkpt lat="36.8034344" lon="-3.6405137"><ele>445.59999999999997</ele><time>2026-03-07T13:50:36Z</time></trkpt><trkpt lat="36.8035014" lon="-3.6404359"><ele>448.19999999999993</ele><time>2026-03-07T13:50:38.021Z</time></trkpt><trkpt lat="36.803598" lon="-3.6403521"><ele>450.8</ele><time>2026-03-07T13:50:40.009Z</time></trkpt><trkpt lat="36.8036512" lon="-3.6403013"><ele>453.4</ele><time>2026-03-07T13:50:41.006Z</time></trkpt><trkpt lat="36.8037377" lon="-3.6401912"><ele>456.0</ele><time>2026-03-07T13:50:43.011Z</time></trkpt><trkpt lat="36.8038042" lon="-3.6400652"><ele>456.1666666666667</ele><time>2026-03-07T13:50:45.026Z</time></trkpt><trkpt lat="36.803898" lon="-3.6400239"><ele>456.33333333333337</ele><time>2026-03-07T13:50:47.015Z</time></trkpt><trkpt lat="36.8040219" lon="-3.6400606"><ele>456.5</ele><time>2026-03-07T13:50:49.004Z</time></trkpt><trkpt lat="36.8040895" lon="-3.6400822"><ele>456.6666666666667</ele><time>2026-03-07T13:50:49.997Z</time></trkpt><trkpt lat="36.8041585" lon="-3.6400805"><ele>456.83333333333337</ele><time>2026-03-07T13:50:51.004Z</time></trkpt><trkpt lat="36.8042241" lon="-3.6400704"><ele>457.0</ele><time>2026-03-07T13:50:51.998Z</time></trkpt><trkpt lat="36.8042842" lon="-3.6400361"><ele>459.83333333333337</ele><time>2026-03-07T13:50:53.009Z</time></trkpt><trkpt lat="36.8043699" lon="-3.6399898"><ele>462.6666666666667</ele><time>2026-03-07T13:50:54.003Z</time></trkpt><trkpt lat="36.8044536" lon="-3.6399434"><ele>465.5</ele><time>2026-03-07T13:50:55.013Z</time></trkpt><trkpt lat="36.8045172" lon="-3.6398923"><ele>468.33333333333337</ele><time>2026-03-07T13:50:56.03Z</time></trkpt><trkpt lat="36.8045739" lon="-3.6398376"><ele>471.1666666666667</ele><time>2026-03-07T13:50:57.001Z</time></trkpt><trkpt lat="36.8046183" lon="-3.6397611"><ele>474.0</ele><time>2026-03-07T13:50:58.009Z</time></trkpt><trkpt lat="36.804637" lon="-3.6396802"><ele>474.0</ele><time>2026-03-07T13:50:59.014Z</time></trkpt><trkpt lat="36.8046462" lon="-3.6395855"><ele>474.0</ele><time>2026-03-07T13:51:00.021Z</time></trkpt><trkpt lat="36.8046523" lon="-3.6394757"><ele>474.0</ele><time>2026-03-07T13:51:01.009Z</time></trkpt><trkpt lat="36.804652" lon="-3.6393624"><ele>474.0</ele><time>2026-03-07T13:51:02.002Z</time></trkpt><trkpt lat="36.8046479" lon="-3.6392538"><ele>474.0</ele><time>2026-03-07T13:51:03Z</time></trkpt><trkpt lat="36.8046492" lon="-3.6391527"><ele>474.0</ele><time>2026-03-07T13:51:04.011Z</time></trkpt><trkpt lat="36.8046619" lon="-3.639068"><ele>475.0</ele><time>2026-03-07T13:51:05.011Z</time></trkpt><trkpt lat="36.8046952" lon="-3.6389985"><ele>476.0</ele><time>2026-03-07T13:51:07.032Z</time></trkpt><trkpt lat="36.804791" lon="-3.6390199"><ele>477.0</ele><time>2026-03-07T13:51:09.045Z</time></trkpt><trkpt lat="36.8048646" lon="-3.6390337"><ele>478.0</ele><time>2026-03-07T13:51:10Z</time></trkpt><trkpt lat="36.8049452" lon="-3.639021"><ele>479.0</ele><time>2026-03-07T13:51:11.005Z</time></trkpt><trkpt lat="36.8050174" lon="-3.639009"><ele>480.0</ele><time>2026-03-07T13:51:12.015Z</time></trkpt><trkpt lat="36.8050927" lon="-3.6389904"><ele>480.0</ele><time>2026-03-07T13:51:13.014Z</time></trkpt><trkpt lat="36.8051622" lon="-3.6389817"><ele>480.0</ele><time>2026-03-07T13:51:14.006Z</time></trkpt><trkpt lat="36.8052429" lon="-3.6389539"><ele>480.0</ele><time>2026-03-07T13:51:15.005Z</time></trkpt><trkpt lat="36.8053142" lon="-3.6389183"><ele>480.0</ele><time>2026-03-07T13:51:16.01Z</time></trkpt><trkpt lat="36.8053683" lon="-3.6388575"><ele>480.0</ele><time>2026-03-07T13:51:17.001Z</time></trkpt><trkpt lat="36.8054248" lon="-3.6387823"><ele>480.0</ele><time>2026-03-07T13:51:18.02Z</time></trkpt><trkpt lat="36.8054848" lon="-3.6387027"><ele>484.4</ele><time>2026-03-07T13:51:19.007Z</time></trkpt><trkpt lat="36.8055577" lon="-3.6386258"><ele>488.8</ele><time>2026-03-07T13:51:20.009Z</time></trkpt><trkpt lat="36.8056366" lon="-3.6385589"><ele>493.20000000000005</ele><time>2026-03-07T13:51:21.007Z</time></trkpt><trkpt lat="36.8057151" lon="-3.6384922"><ele>497.6</ele><time>2026-03-07T13:51:22.015Z</time></trkpt><trkpt lat="36.805792" lon="-3.6384245"><ele>502.0</ele><time>2026-03-07T13:51:22.998Z</time></trkpt><trkpt lat="36.8058665" lon="-3.6383393"><ele>501.99999999999994</ele><time>2026-03-07T13:51:23.996Z</time></trkpt><trkpt lat="36.8059345" lon="-3.6382937"><ele>502.0</ele><time>2026-03-07T13:51:25.009Z</time></trkpt><trkpt lat="36.805999" lon="-3.6382527"><ele>501.99999999999994</ele><time>2026-03-07T13:51:26.008Z</time></trkpt><trkpt lat="36.8060776" lon="-3.6382472"><ele>501.99999999999994</ele><time>2026-03-07T13:51:27.005Z</time></trkpt><trkpt lat="36.8061555" lon="-3.638246"><ele>502.0</ele><time>2026-03-07T13:51:28.007Z</time></trkpt><trkpt lat="36.8062248" lon="-3.6382438"><ele>501.99999999999994</ele><time>2026-03-07T13:51:29.033Z</time></trkpt><trkpt lat="36.8062836" lon="-3.638207"><ele>501.99999999999994</ele><time>2026-03-07T13:51:29.995Z</time></trkpt><trkpt lat="36.8063343" lon="-3.6381359"><ele>505.6666666666667</ele><time>2026-03-07T13:51:31.011Z</time></trkpt><trkpt lat="36.8063896" lon="-3.6380564"><ele>509.33333333333337</ele><time>2026-03-07T13:51:32.008Z</time></trkpt><trkpt lat="36.8064528" lon="-3.6379885"><ele>513.0</ele><time>2026-03-07T13:51:33.003Z</time></trkpt><trkpt lat="36.806518" lon="-3.6379294"><ele>516.6666666666666</ele><time>2026-03-07T13:51:34.003Z</time></trkpt><trkpt lat="36.8065876" lon="-3.6378792"><ele>520.3333333333333</ele><time>2026-03-07T13:51:35.01Z</time></trkpt><trkpt lat="36.806649" lon="-3.6378399"><ele>524.0</ele><time>2026-03-07T13:51:36.006Z</time></trkpt><trkpt lat="36.8067145" lon="-3.6378265"><ele>524.0</ele><time>2026-03-07T13:51:37.009Z</time></trkpt><trkpt lat="36.8068144" lon="-3.6378403"><ele>524.0</ele><time>2026-03-07T13:51:38.996Z</time></trkpt><trkpt lat="36.8068355" lon="-3.6379271"><ele>524.0</ele><time>2026-03-07T13:51:40.003Z</time></trkpt><trkpt lat="36.8068965" lon="-3.6380356"><ele>524.0</ele><time>2026-03-07T13:51:41.002Z</time></trkpt><trkpt lat="36.8070158" lon="-3.6381512"><ele>524.0</ele><time>2026-03-07T13:51:42.017Z</time></trkpt><trkpt lat="36.8071289" lon="-3.638243"><ele>528.0</ele><time>2026-03-07T13:51:43.014Z</time></trkpt><trkpt lat="36.8072261" lon="-3.6383224"><ele>532.0</ele><time>2026-03-07T13:51:44.003Z</time></trkpt><trkpt lat="36.8072972" lon="-3.638411"><ele>536.0</ele><time>2026-03-07T13:51:45.014Z</time></trkpt><trkpt lat="36.8073588" lon="-3.6385048"><ele>540.0</ele><time>2026-03-07T13:51:46.011Z</time></trkpt><trkpt lat="36.8074098" lon="-3.6385887"><ele>544.0</ele><time>2026-03-07T13:51:47Z</time></trkpt><trkpt lat="36.8074623" lon="-3.6386428"><ele>545.1666666666667</ele><time>2026-03-07T13:51:48.008Z</time></trkpt><trkpt lat="36.8075317" lon="-3.6386496"><ele>546.3333333333334</ele><time>2026-03-07T13:51:49.003Z</time></trkpt><trkpt lat="36.8076032" lon="-3.6386364"><ele>547.5</ele><time>2026-03-07T13:51:50.01Z</time></trkpt><trkpt lat="36.8076657" lon="-3.6385736"><ele>548.6666666666666</ele><time>2026-03-07T13:51:51.024Z</time></trkpt><trkpt lat="36.8077131" lon="-3.638468"><ele>549.8333333333333</ele><time>2026-03-07T13:51:52.006Z</time></trkpt><trkpt lat="36.8077439" lon="-3.6383518"><ele>551.0</ele><time>2026-03-07T13:51:53.011Z</time></trkpt><trkpt lat="36.8077773" lon="-3.6382272"><ele>553.6666666666666</ele><time>2026-03-07T13:51:54.007Z</time></trkpt><trkpt lat="36.8077875" lon="-3.6381359"><ele>556.3333333333333</ele><time>2026-03-07T13:51:55.009Z</time></trkpt><trkpt lat="36.8078006" lon="-3.6380328"><ele>559.0</ele><time>2026-03-07T13:51:56.009Z</time></trkpt><trkpt lat="36.8078164" lon="-3.6379507"><ele>561.6666666666666</ele><time>2026-03-07T13:51:57.016Z</time></trkpt><trkpt lat="36.8078453" lon="-3.6378718"><ele>564.3333333333334</ele><time>2026-03-07T13:51:58.009Z</time></trkpt><trkpt lat="36.8078863" lon="-3.6377925"><ele>567.0</ele><time>2026-03-07T13:51:59.033Z</time></trkpt><trkpt lat="36.8079371" lon="-3.6377155"><ele>568.0</ele><time>2026-03-07T13:52:00.021Z</time></trkpt><trkpt lat="36.8079792" lon="-3.6376393"><ele>569.0</ele><time>2026-03-07T13:52:01.001Z</time></trkpt><trkpt lat="36.8080221" lon="-3.6375657"><ele>570.0</ele><time>2026-03-07T13:52:02.006Z</time></trkpt><trkpt lat="36.8080939" lon="-3.6374282"><ele>571.0</ele><time>2026-03-07T13:52:04.005Z</time></trkpt><trkpt lat="36.8081168" lon="-3.6373532"><ele>572.0</ele><time>2026-03-07T13:52:05.007Z</time></trkpt><trkpt lat="36.8081446" lon="-3.6372486"><ele>573.0</ele><time>2026-03-07T13:52:06.999Z</time></trkpt><trkpt lat="36.8082183" lon="-3.6372803"><ele>573.0</ele><time>2026-03-07T13:52:10.013Z</time></trkpt><trkpt lat="36.8082064" lon="-3.6374541"><ele>573.0</ele><time>2026-03-07T13:52:12.013Z</time></trkpt><trkpt lat="36.8082168" lon="-3.6375656"><ele>573.0</ele><time>2026-03-07T13:52:12.999Z</time></trkpt><trkpt lat="36.8082574" lon="-3.637679"><ele>573.0</ele><time>2026-03-07T13:52:13.998Z</time></trkpt><trkpt lat="36.8083218" lon="-3.637782"><ele>573.0</ele><time>2026-03-07T13:52:15.002Z</time></trkpt><trkpt lat="36.8083995" lon="-3.6378588"><ele>572.0</ele><time>2026-03-07T13:52:16Z</time></trkpt><trkpt lat="36.8084808" lon="-3.6379206"><ele>571.0</ele><time>2026-03-07T13:52:16.998Z</time></trkpt><trkpt lat="36.8085559" lon="-3.6379829"><ele>570.0</ele><time>2026-03-07T13:52:18.012Z</time></trkpt><trkpt lat="36.8086273" lon="-3.6380491"><ele>569.0</ele><time>2026-03-07T13:52:19.002Z</time></trkpt><trkpt lat="36.808677" lon="-3.6381128"><ele>568.0</ele><time>2026-03-07T13:52:20.001Z</time></trkpt><trkpt lat="36.8086894" lon="-3.6382242"><ele>567.0</ele><time>2026-03-07T13:52:21.005Z</time></trkpt><trkpt lat="36.8087018" lon="-3.6383533"><ele>574.4</ele><time>2026-03-07T13:52:22.003Z</time></trkpt><trkpt lat="36.8087064" lon="-3.6384966"><ele>581.8000000000001</ele><time>2026-03-07T13:52:23.002Z</time></trkpt><trkpt lat="36.8087138" lon="-3.638621"><ele>589.2</ele><time>2026-03-07T13:52:24.01Z</time></trkpt><trkpt lat="36.8087145" lon="-3.6387474"><ele>596.6</ele><time>2026-03-07T13:52:25.006Z</time></trkpt><trkpt lat="36.8087016" lon="-3.638871"><ele>604.0</ele><time>2026-03-07T13:52:26.001Z</time></trkpt><trkpt lat="36.8086767" lon="-3.6389853"><ele>604.2</ele><time>2026-03-07T13:52:27.003Z</time></trkpt><trkpt lat="36.808649" lon="-3.6390973"><ele>604.4</ele><time>2026-03-07T13:52:28.012Z</time></trkpt><trkpt lat="36.8086224" lon="-3.6392085"><ele>604.6</ele><time>2026-03-07T13:52:29.002Z</time></trkpt><trkpt lat="36.8086046" lon="-3.6393241"><ele>604.8</ele><time>2026-03-07T13:52:30.009Z</time></trkpt><trkpt lat="36.8085911" lon="-3.639442"><ele>605.0</ele><time>2026-03-07T13:52:31.001Z</time></trkpt><trkpt lat="36.8085822" lon="-3.6395578"><ele>606.0</ele><time>2026-03-07T13:52:32.001Z</time></trkpt><trkpt lat="36.8085905" lon="-3.639668"><ele>607.0</ele><time>2026-03-07T13:52:33.033Z</time></trkpt><trkpt lat="36.8086033" lon="-3.6397719"><ele>608.0</ele><time>2026-03-07T13:52:34.016Z</time></trkpt><trkpt lat="36.8086153" lon="-3.6398894"><ele>609.0</ele><time>2026-03-07T13:52:34.998Z</time></trkpt><trkpt lat="36.8086288" lon="-3.6400108"><ele>610.0</ele><time>2026-03-07T13:52:36.005Z</time></trkpt><trkpt lat="36.8086404" lon="-3.6401261"><ele>610.0</ele><time>2026-03-07T13:52:36.995Z</time></trkpt><trkpt lat="36.8086541" lon="-3.6402319"><ele>610.0</ele><time>2026-03-07T13:52:38.002Z</time></trkpt><trkpt lat="36.8086769" lon="-3.6403296"><ele>610.0</ele><time>2026-03-07T13:52:39.014Z</time></trkpt><trkpt lat="36.8087104" lon="-3.6404161"><ele>610.0</ele><time>2026-03-07T13:52:40.021Z</time></trkpt><trkpt lat="36.8087405" lon="-3.6405081"><ele>610.0</ele><time>2026-03-07T13:52:40.993Z</time></trkpt><trkpt lat="36.8087691" lon="-3.6405977"><ele>610.0</ele><time>2026-03-07T13:52:41.997Z</time></trkpt><trkpt lat="36.8087856" lon="-3.6406906"><ele>609.4</ele><time>2026-03-07T13:52:42.996Z</time></trkpt><trkpt lat="36.8087854" lon="-3.6407758"><ele>608.8</ele><time>2026-03-07T13:52:44.001Z</time></trkpt><trkpt lat="36.8087886" lon="-3.6408931"><ele>608.2</ele><time>2026-03-07T13:52:46Z</time></trkpt><trkpt lat="36.8088788" lon="-3.6409659"><ele>607.6</ele><time>2026-03-07T13:52:47.998Z</time></trkpt><trkpt lat="36.8090039" lon="-3.6409849"><ele>607.0</ele><time>2026-03-07T13:52:50.012Z</time></trkpt><trkpt lat="36.809098" lon="-3.6410374"><ele>606.9999999999999</ele><time>2026-03-07T13:52:52.012Z</time></trkpt><trkpt lat="36.8091448" lon="-3.6410953"><ele>607.0</ele><time>2026-03-07T13:52:53.001Z</time></trkpt><trkpt lat="36.8091495" lon="-3.6411884"><ele>607.0</ele><time>2026-03-07T13:52:54.013Z</time></trkpt><trkpt lat="36.8091535" lon="-3.6412762"><ele>607.0</ele><time>2026-03-07T13:52:55.019Z</time></trkpt><trkpt lat="36.8091647" lon="-3.6413622"><ele>607.0</ele><time>2026-03-07T13:52:56.01Z</time></trkpt><trkpt lat="36.8092088" lon="-3.6414393"><ele>606.9999999999999</ele><time>2026-03-07T13:52:57.014Z</time></trkpt><trkpt lat="36.8092461" lon="-3.6415186"><ele>607.0</ele><time>2026-03-07T13:52:58.012Z</time></trkpt><trkpt lat="36.8092942" lon="-3.6416046"><ele>607.0</ele><time>2026-03-07T13:52:59.004Z</time></trkpt><trkpt lat="36.809301" lon="-3.6416937"><ele>607.0</ele><time>2026-03-07T13:53:00Z</time></trkpt><trkpt lat="36.8093062" lon="-3.6417911"><ele>607.0</ele><time>2026-03-07T13:53:00.998Z</time></trkpt><trkpt lat="36.809311" lon="-3.6418894"><ele>607.0</ele><time>2026-03-07T13:53:02.002Z</time></trkpt><trkpt lat="36.8093113" lon="-3.6419909"><ele>607.0</ele><time>2026-03-07T13:53:03.002Z</time></trkpt><trkpt lat="36.8092969" lon="-3.6420874"><ele>607.0</ele><time>2026-03-07T13:53:04.004Z</time></trkpt><trkpt lat="36.8092556" lon="-3.6421706"><ele>608.3333333333334</ele><time>2026-03-07T13:53:05Z</time></trkpt><trkpt lat="36.8092161" lon="-3.6422373"><ele>609.6666666666667</ele><time>2026-03-07T13:53:06.002Z</time></trkpt><trkpt lat="36.8091943" lon="-3.6423214"><ele>611.0</ele><time>2026-03-07T13:53:07.009Z</time></trkpt><trkpt lat="36.8091893" lon="-3.642422"><ele>612.3333333333334</ele><time>2026-03-07T13:53:08.004Z</time></trkpt><trkpt lat="36.8091941" lon="-3.6425402"><ele>613.6666666666666</ele><time>2026-03-07T13:53:09.004Z</time></trkpt><trkpt lat="36.8092023" lon="-3.6426659"><ele>615.0</ele><time>2026-03-07T13:53:10.005Z</time></trkpt><trkpt lat="36.8092256" lon="-3.642793"><ele>616.3333333333334</ele><time>2026-03-07T13:53:11.004Z</time></trkpt><trkpt lat="36.8092556" lon="-3.6429012"><ele>617.6666666666666</ele><time>2026-03-07T13:53:11.999Z</time></trkpt><trkpt lat="36.8092822" lon="-3.643004"><ele>619.0</ele><time>2026-03-07T13:53:13Z</time></trkpt><trkpt lat="36.8093079" lon="-3.6431165"><ele>620.3333333333333</ele><time>2026-03-07T13:53:14Z</time></trkpt><trkpt lat="36.8093177" lon="-3.6432209"><ele>621.6666666666666</ele><time>2026-03-07T13:53:15.004Z</time></trkpt><trkpt lat="36.8092962" lon="-3.6433251"><ele>623.0</ele><time>2026-03-07T13:53:16.006Z</time></trkpt><trkpt lat="36.8092635" lon="-3.6434209"><ele>623.0</ele><time>2026-03-07T13:53:17.006Z</time></trkpt><trkpt lat="36.8092252" lon="-3.6435231"><ele>623.0</ele><time>2026-03-07T13:53:17.999Z</time></trkpt><trkpt lat="36.8091822" lon="-3.6436242"><ele>623.0</ele><time>2026-03-07T13:53:19.012Z</time></trkpt><trkpt lat="36.8091389" lon="-3.6437266"><ele>623.0</ele><time>2026-03-07T13:53:20.03Z</time></trkpt><trkpt lat="36.8091021" lon="-3.6438119"><ele>623.0</ele><time>2026-03-07T13:53:20.998Z</time></trkpt><trkpt lat="36.8090665" lon="-3.643888"><ele>623.0</ele><time>2026-03-07T13:53:22.017Z</time></trkpt><trkpt lat="36.8090153" lon="-3.6439414"><ele>623.5</ele><time>2026-03-07T13:53:23.017Z</time></trkpt><trkpt lat="36.808922" lon="-3.6439921"><ele>624.0</ele><time>2026-03-07T13:53:25.012Z</time></trkpt><trkpt lat="36.8088494" lon="-3.644018"><ele>624.5</ele><time>2026-03-07T13:53:27.007Z</time></trkpt><trkpt lat="36.8087786" lon="-3.644055"><ele>625.0</ele><time>2026-03-07T13:53:39.006Z</time></trkpt><trkpt lat="36.8088492" lon="-3.6440357"><ele>625.5</ele><time>2026-03-07T13:53:40.994Z</time></trkpt><trkpt lat="36.8089245" lon="-3.643983"><ele>626.0</ele><time>2026-03-07T13:53:42.003Z</time></trkpt><trkpt lat="36.8090141" lon="-3.6439297"><ele>626.0</ele><time>2026-03-07T13:53:43.007Z</time></trkpt><trkpt lat="36.8091015" lon="-3.6438641"><ele>626.0</ele><time>2026-03-07T13:53:43.998Z</time></trkpt><trkpt lat="36.8091828" lon="-3.6438023"><ele>626.0</ele><time>2026-03-07T13:53:45.004Z</time></trkpt><trkpt lat="36.8092533" lon="-3.6437515"><ele>626.0</ele><time>2026-03-07T13:53:46.016Z</time></trkpt><trkpt lat="36.8093177" lon="-3.6437171"><ele>626.0</ele><time>2026-03-07T13:53:46.993Z</time></trkpt><trkpt lat="36.8093906" lon="-3.6437098"><ele>626.0</ele><time>2026-03-07T13:53:48Z</time></trkpt><trkpt lat="36.8094583" lon="-3.6437194"><ele>625.1666666666666</ele><time>2026-03-07T13:53:48.993Z</time></trkpt><trkpt lat="36.8095186" lon="-3.6437429"><ele>624.3333333333333</ele><time>2026-03-07T13:53:50.011Z</time></trkpt><trkpt lat="36.8095828" lon="-3.6437739"><ele>623.5</ele><time>2026-03-07T13:53:51.009Z</time></trkpt><trkpt lat="36.8096927" lon="-3.6438267"><ele>622.6666666666666</ele><time>2026-03-07T13:53:53Z</time></trkpt><trkpt lat="36.8098164" lon="-3.6438275"><ele>621.8333333333334</ele><time>2026-03-07T13:53:55.002Z</time></trkpt><trkpt lat="36.8098918" lon="-3.6438218"><ele>621.0</ele><time>2026-03-07T13:53:55.996Z</time></trkpt><trkpt lat="36.8099663" lon="-3.6438125"><ele>621.0</ele><time>2026-03-07T13:53:57.006Z</time></trkpt><trkpt lat="36.8100502" lon="-3.6438013"><ele>621.0</ele><time>2026-03-07T13:53:58.013Z</time></trkpt><trkpt lat="36.8101395" lon="-3.6437977"><ele>621.0</ele><time>2026-03-07T13:53:59.009Z</time></trkpt><trkpt lat="36.81022" lon="-3.6438231"><ele>621.0</ele><time>2026-03-07T13:54:00.052Z</time></trkpt><trkpt lat="36.810291" lon="-3.6438683"><ele>621.0</ele><time>2026-03-07T13:54:01.016Z</time></trkpt><trkpt lat="36.8103489" lon="-3.6439022"><ele>621.0</ele><time>2026-03-07T13:54:02.009Z</time></trkpt><trkpt lat="36.8104591" lon="-3.6439188"><ele>619.6666666666666</ele><time>2026-03-07T13:54:03.993Z</time></trkpt><trkpt lat="36.8105311" lon="-3.6439113"><ele>618.3333333333334</ele><time>2026-03-07T13:54:05.01Z</time></trkpt><trkpt lat="36.8106171" lon="-3.6438766"><ele>617.0</ele><time>2026-03-07T13:54:06.005Z</time></trkpt><trkpt lat="36.810699" lon="-3.643843"><ele>615.6666666666667</ele><time>2026-03-07T13:54:07.004Z</time></trkpt><trkpt lat="36.8107851" lon="-3.6438094"><ele>614.3333333333334</ele><time>2026-03-07T13:54:08.007Z</time></trkpt><trkpt lat="36.8108721" lon="-3.64378"><ele>613.0</ele><time>2026-03-07T13:54:09.012Z</time></trkpt><trkpt lat="36.8109619" lon="-3.6437648"><ele>613.8</ele><time>2026-03-07T13:54:10.003Z</time></trkpt><trkpt lat="36.8110601" lon="-3.6437787"><ele>614.5999999999999</ele><time>2026-03-07T13:54:11Z</time></trkpt><trkpt lat="36.8111596" lon="-3.6437999"><ele>615.4000000000001</ele><time>2026-03-07T13:54:12.005Z</time></trkpt><trkpt lat="36.8112563" lon="-3.6438192"><ele>616.2</ele><time>2026-03-07T13:54:13.006Z</time></trkpt><trkpt lat="36.8113519" lon="-3.6438275"><ele>617.0</ele><time>2026-03-07T13:54:14.009Z</time></trkpt><trkpt lat="36.8114622" lon="-3.6438226"><ele>617.0</ele><time>2026-03-07T13:54:15.017Z</time></trkpt><trkpt lat="36.8115619" lon="-3.6438141"><ele>617.0</ele><time>2026-03-07T13:54:16.009Z</time></trkpt><trkpt lat="36.8116757" lon="-3.6438172"><ele>617.0</ele><time>2026-03-07T13:54:16.997Z</time></trkpt><trkpt lat="36.811784" lon="-3.6438226"><ele>617.0</ele><time>2026-03-07T13:54:18.005Z</time></trkpt><trkpt lat="36.8118928" lon="-3.6438302"><ele>617.0</ele><time>2026-03-07T13:54:19.011Z</time></trkpt><trkpt lat="36.8119993" lon="-3.6438348"><ele>617.0</ele><time>2026-03-07T13:54:20Z</time></trkpt><trkpt lat="36.8120945" lon="-3.6438332"><ele>617.0</ele><time>2026-03-07T13:54:21.006Z</time></trkpt><trkpt lat="36.8121909" lon="-3.6438092"><ele>617.0</ele><time>2026-03-07T13:54:22.004Z</time></trkpt><trkpt lat="36.8122739" lon="-3.6437709"><ele>617.0</ele><time>2026-03-07T13:54:23.003Z</time></trkpt><trkpt lat="36.8123452" lon="-3.6437293"><ele>617.0</ele><time>2026-03-07T13:54:24.006Z</time></trkpt><trkpt lat="36.8124181" lon="-3.6436936"><ele>617.0</ele><time>2026-03-07T13:54:25.003Z</time></trkpt><trkpt lat="36.812502" lon="-3.6436778"><ele>617.0</ele><time>2026-03-07T13:54:26.005Z</time></trkpt><trkpt lat="36.8125814" lon="-3.6436702"><ele>617.0</ele><time>2026-03-07T13:54:27.009Z</time></trkpt><trkpt lat="36.8126661" lon="-3.6436866"><ele>617.0</ele><time>2026-03-07T13:54:28.003Z</time></trkpt><trkpt lat="36.8127258" lon="-3.6437569"><ele>617.0</ele><time>2026-03-07T13:54:29.017Z</time></trkpt><trkpt lat="36.8127885" lon="-3.6438487"><ele>617.0</ele><time>2026-03-07T13:54:30.01Z</time></trkpt><trkpt lat="36.8128452" lon="-3.6439364"><ele>617.0</ele><time>2026-03-07T13:54:30.991Z</time></trkpt><trkpt lat="36.8129155" lon="-3.6439845"><ele>617.2</ele><time>2026-03-07T13:54:32.004Z</time></trkpt><trkpt lat="36.8129977" lon="-3.6440316"><ele>617.4000000000001</ele><time>2026-03-07T13:54:32.999Z</time></trkpt><trkpt lat="36.8130846" lon="-3.6440856"><ele>617.5999999999999</ele><time>2026-03-07T13:54:34.009Z</time></trkpt><trkpt lat="36.8131717" lon="-3.6441444"><ele>617.8</ele><time>2026-03-07T13:54:35.005Z</time></trkpt><trkpt lat="36.8132597" lon="-3.6441975"><ele>618.0</ele><time>2026-03-07T13:54:36.006Z</time></trkpt><trkpt lat="36.8133504" lon="-3.6442391"><ele>618.0</ele><time>2026-03-07T13:54:37.001Z</time></trkpt><trkpt lat="36.8134403" lon="-3.6442799"><ele>618.0</ele><time>2026-03-07T13:54:38.007Z</time></trkpt><trkpt lat="36.8135294" lon="-3.6443168"><ele>618.0</ele><time>2026-03-07T13:54:39.004Z</time></trkpt><trkpt lat="36.8136147" lon="-3.6443512"><ele>618.0</ele><time>2026-03-07T13:54:40.008Z</time></trkpt><trkpt lat="36.8136993" lon="-3.6443976"><ele>618.0</ele><time>2026-03-07T13:54:41.021Z</time></trkpt><trkpt lat="36.8137792" lon="-3.6444385"><ele>618.6666666666666</ele><time>2026-03-07T13:54:41.994Z</time></trkpt><trkpt lat="36.8138486" lon="-3.6444696"><ele>619.3333333333334</ele><time>2026-03-07T13:54:43.003Z</time></trkpt><trkpt lat="36.8139527" lon="-3.644536"><ele>620.0</ele><time>2026-03-07T13:54:45.02Z</time></trkpt><trkpt lat="36.814017" lon="-3.6446434"><ele>620.6666666666667</ele><time>2026-03-07T13:54:47.004Z</time></trkpt><trkpt lat="36.8140359" lon="-3.6447401"><ele>621.3333333333334</ele><time>2026-03-07T13:54:48.993Z</time></trkpt><trkpt lat="36.8140336" lon="-3.6448202"><ele>622.0</ele><time>2026-03-07T13:54:51.012Z</time></trkpt><trkpt lat="36.8140352" lon="-3.6449231"><ele>622.0</ele><time>2026-03-07T13:54:53.067Z</time></trkpt><trkpt lat="36.8140598" lon="-3.6450609"><ele>622.0</ele><time>2026-03-07T13:54:54.993Z</time></trkpt><trkpt lat="36.8140865" lon="-3.6451556"><ele>622.0</ele><time>2026-03-07T13:54:56.03Z</time></trkpt><trkpt lat="36.8141188" lon="-3.6452545"><ele>622.0</ele><time>2026-03-07T13:54:56.998Z</time></trkpt><trkpt lat="36.8141485" lon="-3.6453514"><ele>622.0</ele><time>2026-03-07T13:54:58.007Z</time></trkpt><trkpt lat="36.8141779" lon="-3.6454485"><ele>622.0</ele><time>2026-03-07T13:54:59.003Z</time></trkpt><trkpt lat="36.8142177" lon="-3.6455338"><ele>621.0</ele><time>2026-03-07T13:55:00.012Z</time></trkpt><trkpt lat="36.8142754" lon="-3.6455859"><ele>620.0</ele><time>2026-03-07T13:55:01Z</time></trkpt><trkpt lat="36.8143393" lon="-3.6455982"><ele>619.0</ele><time>2026-03-07T13:55:02.004Z</time></trkpt><trkpt lat="36.8144423" lon="-3.6456034"><ele>618.0</ele><time>2026-03-07T13:55:04.011Z</time></trkpt><trkpt lat="36.8144955" lon="-3.6456968"><ele>617.0</ele><time>2026-03-07T13:55:06.007Z</time></trkpt><trkpt lat="36.8144873" lon="-3.6457752"><ele>616.0</ele><time>2026-03-07T13:55:07.003Z</time></trkpt><trkpt lat="36.8144851" lon="-3.6458609"><ele>618.8333333333334</ele><time>2026-03-07T13:55:08.008Z</time></trkpt><trkpt lat="36.8144928" lon="-3.6459429"><ele>621.6666666666667</ele><time>2026-03-07T13:55:09.014Z</time></trkpt><trkpt lat="36.8145364" lon="-3.6460669"><ele>624.5</ele><time>2026-03-07T13:55:11.003Z</time></trkpt><trkpt lat="36.8146372" lon="-3.6461219"><ele>627.3333333333334</ele><time>2026-03-07T13:55:13.003Z</time></trkpt><trkpt lat="36.8147048" lon="-3.6461569"><ele>630.1666666666666</ele><time>2026-03-07T13:55:14.01Z</time></trkpt><trkpt lat="36.8147605" lon="-3.6462042"><ele>633.0</ele><time>2026-03-07T13:55:15.012Z</time></trkpt><trkpt lat="36.8148439" lon="-3.6463198"><ele>633.0</ele><time>2026-03-07T13:55:17.009Z</time></trkpt><trkpt lat="36.8148873" lon="-3.6463768"><ele>633.0</ele><time>2026-03-07T13:55:18.004Z</time></trkpt><trkpt lat="36.8149319" lon="-3.6464414"><ele>633.0</ele><time>2026-03-07T13:55:19.009Z</time></trkpt><trkpt lat="36.8149708" lon="-3.6465122"><ele>633.0</ele><time>2026-03-07T13:55:19.999Z</time></trkpt><trkpt lat="36.8149937" lon="-3.6465876"><ele>633.0</ele><time>2026-03-07T13:55:21Z</time></trkpt><trkpt lat="36.8150107" lon="-3.6466702"><ele>633.0</ele><time>2026-03-07T13:55:21.999Z</time></trkpt><trkpt lat="36.8150286" lon="-3.64675"><ele>633.0</ele><time>2026-03-07T13:55:23.008Z</time></trkpt><trkpt lat="36.8150641" lon="-3.6468193"><ele>633.0</ele><time>2026-03-07T13:55:24.003Z</time></trkpt><trkpt lat="36.81511" lon="-3.6468811"><ele>633.0</ele><time>2026-03-07T13:55:25.012Z</time></trkpt><trkpt lat="36.8151759" lon="-3.646966"><ele>633.0</ele><time>2026-03-07T13:55:27.008Z</time></trkpt><trkpt lat="36.815299" lon="-3.6469787"><ele>633.0</ele><time>2026-03-07T13:55:29.007Z</time></trkpt><trkpt lat="36.8153605" lon="-3.6469961"><ele>633.0</ele><time>2026-03-07T13:55:30.011Z</time></trkpt><trkpt lat="36.8154744" lon="-3.6470252"><ele>631.0</ele><time>2026-03-07T13:55:32.001Z</time></trkpt><trkpt lat="36.8155485" lon="-3.6470257"><ele>629.0</ele><time>2026-03-07T13:55:33.007Z</time></trkpt><trkpt lat="36.8156163" lon="-3.6470162"><ele>627.0</ele><time>2026-03-07T13:55:33.999Z</time></trkpt><trkpt lat="36.8156861" lon="-3.6470052"><ele>625.0</ele><time>2026-03-07T13:55:35.015Z</time></trkpt><trkpt lat="36.8157629" lon="-3.6469798"><ele>623.0</ele><time>2026-03-07T13:55:36.001Z</time></trkpt><trkpt lat="36.8158319" lon="-3.6469627"><ele>621.0</ele><time>2026-03-07T13:55:37.007Z</time></trkpt><trkpt lat="36.8159484" lon="-3.6469883"><ele>625.1666666666666</ele><time>2026-03-07T13:55:39.001Z</time></trkpt><trkpt lat="36.8159967" lon="-3.6470465"><ele>629.3333333333334</ele><time>2026-03-07T13:55:39.995Z</time></trkpt><trkpt lat="36.8160339" lon="-3.6471219"><ele>633.5</ele><time>2026-03-07T13:55:41Z</time></trkpt><trkpt lat="36.8160441" lon="-3.6472097"><ele>637.6666666666667</ele><time>2026-03-07T13:55:42.042Z</time></trkpt><trkpt lat="36.8160505" lon="-3.6473075"><ele>641.8333333333334</ele><time>2026-03-07T13:55:43.007Z</time></trkpt><trkpt lat="36.8160679" lon="-3.6474134"><ele>646.0</ele><time>2026-03-07T13:55:43.997Z</time></trkpt><trkpt lat="36.8160911" lon="-3.6475096"><ele>646.0000000000001</ele><time>2026-03-07T13:55:44.991Z</time></trkpt><trkpt lat="36.8161246" lon="-3.6475786"><ele>646.0</ele><time>2026-03-07T13:55:46.024Z</time></trkpt><trkpt lat="36.8161702" lon="-3.6476459"><ele>646.0</ele><time>2026-03-07T13:55:47.003Z</time></trkpt><trkpt lat="36.8162201" lon="-3.6477248"><ele>646.0</ele><time>2026-03-07T13:55:48.007Z</time></trkpt><trkpt lat="36.8162746" lon="-3.6477894"><ele>646.0</ele><time>2026-03-07T13:55:49Z</time></trkpt><trkpt lat="36.8163382" lon="-3.6478387"><ele>646.0000000000001</ele><time>2026-03-07T13:55:50.004Z</time></trkpt><trkpt lat="36.8164094" lon="-3.6478742"><ele>646.0</ele><time>2026-03-07T13:55:51.006Z</time></trkpt><trkpt lat="36.8164806" lon="-3.6478935"><ele>643.1666666666667</ele><time>2026-03-07T13:55:52.008Z</time></trkpt><trkpt lat="36.8165469" lon="-3.6479018"><ele>640.3333333333334</ele><time>2026-03-07T13:55:52.999Z</time></trkpt><trkpt lat="36.8166402" lon="-3.6479061"><ele>637.5</ele><time>2026-03-07T13:55:55.014Z</time></trkpt><trkpt lat="36.8167137" lon="-3.6479054"><ele>634.6666666666666</ele><time>2026-03-07T13:55:57.014Z</time></trkpt><trkpt lat="36.8168112" lon="-3.6479043"><ele>631.8333333333333</ele><time>2026-03-07T13:55:59.013Z</time></trkpt><trkpt lat="36.8169045" lon="-3.6479379"><ele>629.0</ele><time>2026-03-07T13:56:01Z</time></trkpt><trkpt lat="36.8169844" lon="-3.6479974"><ele>629.0</ele><time>2026-03-07T13:56:03.004Z</time></trkpt><trkpt lat="36.8170529" lon="-3.6480778"><ele>629.0</ele><time>2026-03-07T13:56:04.996Z</time></trkpt><trkpt lat="36.8170545" lon="-3.6482173"><ele>629.0</ele><time>2026-03-07T13:56:07.031Z</time></trkpt><trkpt lat="36.8170067" lon="-3.6482877"><ele>629.0</ele><time>2026-03-07T13:56:08.023Z</time></trkpt><trkpt lat="36.8169505" lon="-3.6483619"><ele>629.0</ele><time>2026-03-07T13:56:09.006Z</time></trkpt><trkpt lat="36.816883" lon="-3.6484308"><ele>629.0</ele><time>2026-03-07T13:56:10.007Z</time></trkpt><trkpt lat="36.8168096" lon="-3.648494"><ele>629.0</ele><time>2026-03-07T13:56:10.996Z</time></trkpt><trkpt lat="36.8167421" lon="-3.648552"><ele>629.0</ele><time>2026-03-07T13:56:12Z</time></trkpt><trkpt lat="36.816676" lon="-3.6486071"><ele>629.0</ele><time>2026-03-07T13:56:13Z</time></trkpt><trkpt lat="36.8166192" lon="-3.6486596"><ele>629.0</ele><time>2026-03-07T13:56:14.01Z</time></trkpt><trkpt lat="36.816569" lon="-3.648716"><ele>629.0</ele><time>2026-03-07T13:56:15.007Z</time></trkpt><trkpt lat="36.816517" lon="-3.6487683"><ele>629.0</ele><time>2026-03-07T13:56:16.003Z</time></trkpt><trkpt lat="36.8164166" lon="-3.6488455"><ele>633.5</ele><time>2026-03-07T13:56:18.002Z</time></trkpt><trkpt lat="36.8163468" lon="-3.64891"><ele>638.0</ele><time>2026-03-07T13:56:19.998Z</time></trkpt><trkpt lat="36.8163791" lon="-3.6490085"><ele>642.5</ele><time>2026-03-07T13:56:21.999Z</time></trkpt><trkpt lat="36.8164556" lon="-3.6490629"><ele>647.0</ele><time>2026-03-07T13:56:23.986Z</time></trkpt><trkpt lat="36.816528" lon="-3.649046"><ele>651.5</ele><time>2026-03-07T13:56:24.996Z</time></trkpt><trkpt lat="36.8166167" lon="-3.6490356"><ele>656.0</ele><time>2026-03-07T13:56:26.004Z</time></trkpt><trkpt lat="36.8167071" lon="-3.6490308"><ele>656.0</ele><time>2026-03-07T13:56:27.001Z</time></trkpt><trkpt lat="36.8167907" lon="-3.6490322"><ele>656.0</ele><time>2026-03-07T13:56:28.006Z</time></trkpt><trkpt lat="36.8168616" lon="-3.6490361"><ele>656.0</ele><time>2026-03-07T13:56:29Z</time></trkpt><trkpt lat="36.8169259" lon="-3.6490303"><ele>656.0</ele><time>2026-03-07T13:56:29.992Z</time></trkpt><trkpt lat="36.8170152" lon="-3.6490166"><ele>656.0</ele><time>2026-03-07T13:56:31.995Z</time></trkpt><trkpt lat="36.8169679" lon="-3.6490936"><ele>656.0</ele><time>2026-03-07T13:56:35.001Z</time></trkpt><trkpt lat="36.8169089" lon="-3.6491298"><ele>655.9999999999999</ele><time>2026-03-07T13:56:36.002Z</time></trkpt><trkpt lat="36.8168467" lon="-3.6491731"><ele>656.0</ele><time>2026-03-07T13:56:36.995Z</time></trkpt><trkpt lat="36.8168004" lon="-3.6492349"><ele>656.0</ele><time>2026-03-07T13:56:37.991Z</time></trkpt><trkpt lat="36.8167808" lon="-3.6493179"><ele>656.0</ele><time>2026-03-07T13:56:39.066Z</time></trkpt><trkpt lat="36.8167879" lon="-3.6494146"><ele>656.0</ele><time>2026-03-07T13:56:40Z</time></trkpt><trkpt lat="36.816804" lon="-3.6495108"><ele>655.9999999999999</ele><time>2026-03-07T13:56:40.993Z</time></trkpt><trkpt lat="36.8168045" lon="-3.6496061"><ele>656.0</ele><time>2026-03-07T13:56:41.989Z</time></trkpt><trkpt lat="36.8167851" lon="-3.6496876"><ele>658.5</ele><time>2026-03-07T13:56:42.991Z</time></trkpt><trkpt lat="36.8167555" lon="-3.6497571"><ele>661.0</ele><time>2026-03-07T13:56:44Z</time></trkpt><trkpt lat="36.8167281" lon="-3.6498393"><ele>663.5</ele><time>2026-03-07T13:56:44.996Z</time></trkpt><trkpt lat="36.816703" lon="-3.6499156"><ele>666.0</ele><time>2026-03-07T13:56:45.995Z</time></trkpt><trkpt lat="36.8166815" lon="-3.6499912"><ele>668.5</ele><time>2026-03-07T13:56:46.998Z</time></trkpt><trkpt lat="36.8166432" lon="-3.6501265"><ele>671.0</ele><time>2026-03-07T13:56:48.996Z</time></trkpt><trkpt lat="36.8166912" lon="-3.6502409"><ele>669.5</ele><time>2026-03-07T13:56:50.995Z</time></trkpt><trkpt lat="36.8167443" lon="-3.6503047"><ele>668.0</ele><time>2026-03-07T13:56:51.992Z</time></trkpt><trkpt lat="36.8168122" lon="-3.6503723"><ele>666.5</ele><time>2026-03-07T13:56:53.001Z</time></trkpt><trkpt lat="36.8168704" lon="-3.6504368"><ele>665.0</ele><time>2026-03-07T13:56:53.996Z</time></trkpt><trkpt lat="36.8169243" lon="-3.650499"><ele>663.5</ele><time>2026-03-07T13:56:54.998Z</time></trkpt><trkpt lat="36.816978" lon="-3.650637"><ele>662.0</ele><time>2026-03-07T13:56:56.995Z</time></trkpt><trkpt lat="36.8170162" lon="-3.6507757"><ele>668.6</ele><time>2026-03-07T13:56:58.994Z</time></trkpt><trkpt lat="36.8170847" lon="-3.6508846"><ele>675.2</ele><time>2026-03-07T13:57:00.991Z</time></trkpt><trkpt lat="36.8171358" lon="-3.6509794"><ele>681.8</ele><time>2026-03-07T13:57:02.999Z</time></trkpt><trkpt lat="36.8171875" lon="-3.6510529"><ele>688.4</ele><time>2026-03-07T13:57:04.992Z</time></trkpt><trkpt lat="36.8172881" lon="-3.6511208"><ele>695.0</ele><time>2026-03-07T13:57:06.991Z</time></trkpt><trkpt lat="36.8173712" lon="-3.6512359"><ele>695.0</ele><time>2026-03-07T13:57:08.997Z</time></trkpt><trkpt lat="36.8173941" lon="-3.6513263"><ele>695.0</ele><time>2026-03-07T13:57:09.982Z</time></trkpt><trkpt lat="36.8174206" lon="-3.6514054"><ele>695.0</ele><time>2026-03-07T13:57:10.991Z</time></trkpt><trkpt lat="36.8174548" lon="-3.6514729"><ele>695.0</ele><time>2026-03-07T13:57:12.003Z</time></trkpt><trkpt lat="36.8175523" lon="-3.6516048"><ele>695.0</ele><time>2026-03-07T13:57:14.004Z</time></trkpt><trkpt lat="36.8176172" lon="-3.6516586"><ele>695.0</ele><time>2026-03-07T13:57:15.005Z</time></trkpt><trkpt lat="36.8176709" lon="-3.6517102"><ele>705.4</ele><time>2026-03-07T13:57:15.997Z</time></trkpt><trkpt lat="36.8177197" lon="-3.6517945"><ele>715.8</ele><time>2026-03-07T13:57:18.005Z</time></trkpt><trkpt lat="36.8177088" lon="-3.6519367"><ele>726.2</ele><time>2026-03-07T13:57:19.992Z</time></trkpt><trkpt lat="36.8176954" lon="-3.6520394"><ele>736.6</ele><time>2026-03-07T13:57:21.001Z</time></trkpt><trkpt lat="36.8176979" lon="-3.6521512"><ele>747.0</ele><time>2026-03-07T13:57:22.005Z</time></trkpt><trkpt lat="36.8177038" lon="-3.6522636"><ele>747.0</ele><time>2026-03-07T13:57:22.994Z</time></trkpt><trkpt lat="36.8177073" lon="-3.6523834"><ele>747.0</ele><time>2026-03-07T13:57:24.003Z</time></trkpt><trkpt lat="36.8177023" lon="-3.6524935"><ele>747.0</ele><time>2026-03-07T13:57:24.999Z</time></trkpt><trkpt lat="36.8176855" lon="-3.6526002"><ele>747.0</ele><time>2026-03-07T13:57:25.999Z</time></trkpt><trkpt lat="36.8176606" lon="-3.6527148"><ele>747.0</ele><time>2026-03-07T13:57:26.977Z</time></trkpt><trkpt lat="36.8176533" lon="-3.6528219"><ele>744.2</ele><time>2026-03-07T13:57:28.008Z</time></trkpt><trkpt lat="36.8176639" lon="-3.6529289"><ele>741.4000000000001</ele><time>2026-03-07T13:57:28.992Z</time></trkpt><trkpt lat="36.8177016" lon="-3.653048"><ele>738.5999999999999</ele><time>2026-03-07T13:57:30.009Z</time></trkpt><trkpt lat="36.817754" lon="-3.6531645"><ele>735.8</ele><time>2026-03-07T13:57:30.989Z</time></trkpt><trkpt lat="36.8178157" lon="-3.6532802"><ele>733.0</ele><time>2026-03-07T13:57:31.988Z</time></trkpt><trkpt lat="36.8178723" lon="-3.6533801"><ele>733.0</ele><time>2026-03-07T13:57:33.024Z</time></trkpt><trkpt lat="36.8179226" lon="-3.6534576"><ele>733.0</ele><time>2026-03-07T13:57:34.002Z</time></trkpt><trkpt lat="36.8179728" lon="-3.6535125"><ele>733.0</ele><time>2026-03-07T13:57:35.003Z</time></trkpt><trkpt lat="36.8180922" lon="-3.6535857"><ele>733.0</ele><time>2026-03-07T13:57:37.039Z</time></trkpt><trkpt lat="36.8181714" lon="-3.6536107"><ele>733.0</ele><time>2026-03-07T13:57:37.992Z</time></trkpt><trkpt lat="36.8182564" lon="-3.653641"><ele>730.8</ele><time>2026-03-07T13:57:38.996Z</time></trkpt><trkpt lat="36.8183275" lon="-3.6536745"><ele>728.5999999999999</ele><time>2026-03-07T13:57:39.994Z</time></trkpt><trkpt lat="36.8184268" lon="-3.6537464"><ele>726.4000000000001</ele><time>2026-03-07T13:57:41.996Z</time></trkpt><trkpt lat="36.8185287" lon="-3.6538241"><ele>724.2</ele><time>2026-03-07T13:57:43.992Z</time></trkpt><trkpt lat="36.8186549" lon="-3.6538515"><ele>722.0</ele><time>2026-03-07T13:57:46.006Z</time></trkpt><trkpt lat="36.8187392" lon="-3.6538807"><ele>722.0</ele><time>2026-03-07T13:57:47.995Z</time></trkpt><trkpt lat="36.8188319" lon="-3.6539373"><ele>722.0</ele><time>2026-03-07T13:57:50.001Z</time></trkpt><trkpt lat="36.8189289" lon="-3.6540087"><ele>722.0</ele><time>2026-03-07T13:57:51.997Z</time></trkpt><trkpt lat="36.8190153" lon="-3.6540801"><ele>722.0</ele><time>2026-03-07T13:57:54.001Z</time></trkpt><trkpt lat="36.8191084" lon="-3.6541053"><ele>722.0</ele><time>2026-03-07T13:57:56.001Z</time></trkpt><trkpt lat="36.8192174" lon="-3.6541268"><ele>722.0</ele><time>2026-03-07T13:57:57.985Z</time></trkpt><trkpt lat="36.8192994" lon="-3.6542038"><ele>722.0</ele><time>2026-03-07T13:58:00.001Z</time></trkpt><trkpt lat="36.8193647" lon="-3.6543353"><ele>722.0</ele><time>2026-03-07T13:58:01.999Z</time></trkpt><trkpt lat="36.8193707" lon="-3.6544176"><ele>722.0</ele><time>2026-03-07T13:58:03.006Z</time></trkpt><trkpt lat="36.819339" lon="-3.6544991"><ele>722.0</ele><time>2026-03-07T13:58:03.997Z</time></trkpt><trkpt lat="36.8193008" lon="-3.6545963"><ele>720.0</ele><time>2026-03-07T13:58:04.994Z</time></trkpt><trkpt lat="36.8192687" lon="-3.6546881"><ele>718.0</ele><time>2026-03-07T13:58:05.987Z</time></trkpt><trkpt lat="36.8192383" lon="-3.6547755"><ele>716.0</ele><time>2026-03-07T13:58:07Z</time></trkpt><trkpt lat="36.8192084" lon="-3.6548632"><ele>714.0</ele><time>2026-03-07T13:58:07.993Z</time></trkpt><trkpt lat="36.8191835" lon="-3.6549494"><ele>712.0</ele><time>2026-03-07T13:58:08.997Z</time></trkpt><trkpt lat="36.8191653" lon="-3.6550305"><ele>710.0</ele><time>2026-03-07T13:58:09.995Z</time></trkpt><trkpt lat="36.8191524" lon="-3.6551816"><ele>710.0</ele><time>2026-03-07T13:58:11.984Z</time></trkpt><trkpt lat="36.819131" lon="-3.6552556"><ele>710.0</ele><time>2026-03-07T13:58:12.992Z</time></trkpt><trkpt lat="36.8190992" lon="-3.6553274"><ele>710.0</ele><time>2026-03-07T13:58:13.996Z</time></trkpt><trkpt lat="36.8190668" lon="-3.6553952"><ele>710.0</ele><time>2026-03-07T13:58:15.007Z</time></trkpt><trkpt lat="36.8189874" lon="-3.6555165"><ele>710.0</ele><time>2026-03-07T13:58:16.991Z</time></trkpt><trkpt lat="36.8189464" lon="-3.6555824"><ele>710.0</ele><time>2026-03-07T13:58:18.005Z</time></trkpt><trkpt lat="36.8188658" lon="-3.6557045"><ele>709.3333333333333</ele><time>2026-03-07T13:58:19.983Z</time></trkpt><trkpt lat="36.8188176" lon="-3.6558451"><ele>708.6666666666666</ele><time>2026-03-07T13:58:21.996Z</time></trkpt><trkpt lat="36.8188045" lon="-3.6559233"><ele>708.0</ele><time>2026-03-07T13:58:22.998Z</time></trkpt><trkpt lat="36.8188115" lon="-3.6560084"><ele>707.3333333333334</ele><time>2026-03-07T13:58:23.997Z</time></trkpt><trkpt lat="36.8188184" lon="-3.6561023"><ele>706.6666666666667</ele><time>2026-03-07T13:58:24.994Z</time></trkpt><trkpt lat="36.8188161" lon="-3.6562046"><ele>706.0</ele><time>2026-03-07T13:58:25.999Z</time></trkpt><trkpt lat="36.8188089" lon="-3.6563067"><ele>704.3333333333334</ele><time>2026-03-07T13:58:26.994Z</time></trkpt><trkpt lat="36.8188024" lon="-3.6564057"><ele>702.6666666666667</ele><time>2026-03-07T13:58:27.997Z</time></trkpt><trkpt lat="36.8187994" lon="-3.6565002"><ele>701.0</ele><time>2026-03-07T13:58:28.997Z</time></trkpt><trkpt lat="36.8188421" lon="-3.6566297"><ele>699.3333333333334</ele><time>2026-03-07T13:58:30.993Z</time></trkpt><trkpt lat="36.8188897" lon="-3.6566982"><ele>697.6666666666666</ele><time>2026-03-07T13:58:31.995Z</time></trkpt><trkpt lat="36.8189567" lon="-3.656765"><ele>696.0</ele><time>2026-03-07T13:58:32.998Z</time></trkpt><trkpt lat="36.8190242" lon="-3.6568362"><ele>696.0</ele><time>2026-03-07T13:58:33.997Z</time></trkpt><trkpt lat="36.8190798" lon="-3.656917"><ele>696.0</ele><time>2026-03-07T13:58:34.995Z</time></trkpt><trkpt lat="36.8191247" lon="-3.6570022"><ele>696.0</ele><time>2026-03-07T13:58:35.998Z</time></trkpt><trkpt lat="36.8191613" lon="-3.6570831"><ele>696.0</ele><time>2026-03-07T13:58:36.998Z</time></trkpt><trkpt lat="36.8191876" lon="-3.6572254"><ele>696.0</ele><time>2026-03-07T13:58:39Z</time></trkpt><trkpt lat="36.8191466" lon="-3.6573811"><ele>695.3333333333334</ele><time>2026-03-07T13:58:40.991Z</time></trkpt><trkpt lat="36.8191228" lon="-3.6574773"><ele>694.6666666666666</ele><time>2026-03-07T13:58:41.996Z</time></trkpt><trkpt lat="36.8190977" lon="-3.6575719"><ele>694.0</ele><time>2026-03-07T13:58:43.005Z</time></trkpt><trkpt lat="36.8190641" lon="-3.6576544"><ele>693.3333333333333</ele><time>2026-03-07T13:58:44.009Z</time></trkpt><trkpt lat="36.8190126" lon="-3.6577296"><ele>692.6666666666666</ele><time>2026-03-07T13:58:44.993Z</time></trkpt><trkpt lat="36.8189553" lon="-3.6578048"><ele>692.0</ele><time>2026-03-07T13:58:45.982Z</time></trkpt><trkpt lat="36.8188843" lon="-3.6578548"><ele>695.2</ele><time>2026-03-07T13:58:46.997Z</time></trkpt><trkpt lat="36.8188056" lon="-3.6578849"><ele>698.4000000000001</ele><time>2026-03-07T13:58:47.99Z</time></trkpt><trkpt lat="36.8187415" lon="-3.6578979"><ele>701.5999999999999</ele><time>2026-03-07T13:58:48.996Z</time></trkpt><trkpt lat="36.8186607" lon="-3.6579427"><ele>704.8</ele><time>2026-03-07T13:58:50.996Z</time></trkpt><trkpt lat="36.8186088" lon="-3.6580551"><ele>708.0</ele><time>2026-03-07T13:58:52.995Z</time></trkpt><trkpt lat="36.8185841" lon="-3.6582131"><ele>708.0</ele><time>2026-03-07T13:58:55.003Z</time></trkpt><trkpt lat="36.818579" lon="-3.6583165"><ele>708.0</ele><time>2026-03-07T13:58:55.993Z</time></trkpt><trkpt lat="36.8185794" lon="-3.6584173"><ele>708.0</ele><time>2026-03-07T13:58:57.007Z</time></trkpt><trkpt lat="36.8185667" lon="-3.6585266"><ele>708.0</ele><time>2026-03-07T13:58:58.001Z</time></trkpt><trkpt lat="36.8185501" lon="-3.6586465"><ele>708.0</ele><time>2026-03-07T13:58:58.994Z</time></trkpt><trkpt lat="36.8185426" lon="-3.6587715"><ele>710.8</ele><time>2026-03-07T13:58:59.994Z</time></trkpt><trkpt lat="36.8185402" lon="-3.6588882"><ele>713.5999999999999</ele><time>2026-03-07T13:59:00.996Z</time></trkpt><trkpt lat="36.8185389" lon="-3.6590063"><ele>716.4000000000001</ele><time>2026-03-07T13:59:02.002Z</time></trkpt><trkpt lat="36.8185303" lon="-3.6591206"><ele>719.2</ele><time>2026-03-07T13:59:03.031Z</time></trkpt><trkpt lat="36.8185089" lon="-3.6592276"><ele>722.0</ele><time>2026-03-07T13:59:04.02Z</time></trkpt><trkpt lat="36.8184845" lon="-3.6593264"><ele>717.0</ele><time>2026-03-07T13:59:04.993Z</time></trkpt><trkpt lat="36.8184502" lon="-3.6594164"><ele>712.0</ele><time>2026-03-07T13:59:06.008Z</time></trkpt><trkpt lat="36.8184105" lon="-3.6595105"><ele>707.0</ele><time>2026-03-07T13:59:06.998Z</time></trkpt><trkpt lat="36.8183632" lon="-3.6596116"><ele>702.0</ele><time>2026-03-07T13:59:07.999Z</time></trkpt><trkpt lat="36.8183164" lon="-3.6597188"><ele>697.0</ele><time>2026-03-07T13:59:08.996Z</time></trkpt><trkpt lat="36.8182691" lon="-3.659825"><ele>697.0</ele><time>2026-03-07T13:59:10.002Z</time></trkpt><trkpt lat="36.818222" lon="-3.6599231"><ele>697.0</ele><time>2026-03-07T13:59:11.001Z</time></trkpt><trkpt lat="36.8181871" lon="-3.6600146"><ele>697.0</ele><time>2026-03-07T13:59:12.002Z</time></trkpt><trkpt lat="36.8181629" lon="-3.66011"><ele>697.0</ele><time>2026-03-07T13:59:12.981Z</time></trkpt><trkpt lat="36.8181445" lon="-3.6602159"><ele>697.0</ele><time>2026-03-07T13:59:13.999Z</time></trkpt><trkpt lat="36.8181255" lon="-3.6603249"><ele>697.0</ele><time>2026-03-07T13:59:15.002Z</time></trkpt><trkpt lat="36.8181033" lon="-3.6604259"><ele>698.8571428571429</ele><time>2026-03-07T13:59:15.994Z</time></trkpt><trkpt lat="36.8180673" lon="-3.6605068"><ele>700.7142857142857</ele><time>2026-03-07T13:59:17.001Z</time></trkpt><trkpt lat="36.8180374" lon="-3.6606001"><ele>702.5714285714286</ele><time>2026-03-07T13:59:18.001Z</time></trkpt><trkpt lat="36.8180161" lon="-3.660692"><ele>704.4285714285714</ele><time>2026-03-07T13:59:18.996Z</time></trkpt><trkpt lat="36.8179895" lon="-3.660775"><ele>706.2857142857143</ele><time>2026-03-07T13:59:20Z</time></trkpt><trkpt lat="36.8179437" lon="-3.6608412"><ele>708.1428571428571</ele><time>2026-03-07T13:59:21.002Z</time></trkpt><trkpt lat="36.8178966" lon="-3.6609109"><ele>710.0</ele><time>2026-03-07T13:59:22.007Z</time></trkpt><trkpt lat="36.8178563" lon="-3.6609898"><ele>710.0</ele><time>2026-03-07T13:59:23.002Z</time></trkpt><trkpt lat="36.8178456" lon="-3.6610773"><ele>710.0</ele><time>2026-03-07T13:59:23.992Z</time></trkpt><trkpt lat="36.8178399" lon="-3.6611781"><ele>710.0</ele><time>2026-03-07T13:59:25.003Z</time></trkpt><trkpt lat="36.8178219" lon="-3.6612869"><ele>710.0</ele><time>2026-03-07T13:59:25.999Z</time></trkpt><trkpt lat="36.8177981" lon="-3.6613912"><ele>710.0</ele><time>2026-03-07T13:59:27.022Z</time></trkpt><trkpt lat="36.8177918" lon="-3.6615"><ele>710.0</ele><time>2026-03-07T13:59:27.993Z</time></trkpt><trkpt lat="36.8178046" lon="-3.6616097"><ele>712.2</ele><time>2026-03-07T13:59:28.975Z</time></trkpt><trkpt lat="36.8178108" lon="-3.6617355"><ele>714.4</ele><time>2026-03-07T13:59:29.976Z</time></trkpt><trkpt lat="36.8177986" lon="-3.6618621"><ele>716.5999999999999</ele><time>2026-03-07T13:59:30.979Z</time></trkpt><trkpt lat="36.8177659" lon="-3.6619796"><ele>718.8</ele><time>2026-03-07T13:59:31.966Z</time></trkpt><trkpt lat="36.817723" lon="-3.6620953"><ele>721.0</ele><time>2026-03-07T13:59:33.006Z</time></trkpt><trkpt lat="36.8176538" lon="-3.6621857"><ele>718.0</ele><time>2026-03-07T13:59:34.021Z</time></trkpt><trkpt lat="36.8175828" lon="-3.6622697"><ele>715.0</ele><time>2026-03-07T13:59:35.001Z</time></trkpt><trkpt lat="36.8175098" lon="-3.6623392"><ele>712.0</ele><time>2026-03-07T13:59:35.997Z</time></trkpt><trkpt lat="36.8174403" lon="-3.6623994"><ele>709.0</ele><time>2026-03-07T13:59:36.999Z</time></trkpt><trkpt lat="36.8173696" lon="-3.6624475"><ele>706.0</ele><time>2026-03-07T13:59:38.002Z</time></trkpt><trkpt lat="36.8172962" lon="-3.6624983"><ele>703.0</ele><time>2026-03-07T13:59:39.009Z</time></trkpt><trkpt lat="36.817235" lon="-3.6625472"><ele>703.0</ele><time>2026-03-07T13:59:39.993Z</time></trkpt><trkpt lat="36.8171855" lon="-3.6626118"><ele>703.0</ele><time>2026-03-07T13:59:40.998Z</time></trkpt><trkpt lat="36.8171255" lon="-3.6627483"><ele>703.0</ele><time>2026-03-07T13:59:43.006Z</time></trkpt><trkpt lat="36.8171205" lon="-3.6628395"><ele>703.0</ele><time>2026-03-07T13:59:43.999Z</time></trkpt><trkpt lat="36.817134" lon="-3.6629229"><ele>703.0</ele><time>2026-03-07T13:59:45.004Z</time></trkpt><trkpt lat="36.8171617" lon="-3.6629999"><ele>703.0</ele><time>2026-03-07T13:59:46.008Z</time></trkpt><trkpt lat="36.8171928" lon="-3.6630748"><ele>700.5</ele><time>2026-03-07T13:59:47.01Z</time></trkpt><trkpt lat="36.8172804" lon="-3.6631771"><ele>698.0</ele><time>2026-03-07T13:59:48.995Z</time></trkpt><trkpt lat="36.8173501" lon="-3.6632205"><ele>695.5</ele><time>2026-03-07T13:59:49.992Z</time></trkpt><trkpt lat="36.817424" lon="-3.6632728"><ele>693.0</ele><time>2026-03-07T13:59:50.994Z</time></trkpt><trkpt lat="36.8174926" lon="-3.6633206"><ele>690.5</ele><time>2026-03-07T13:59:51.989Z</time></trkpt><trkpt lat="36.8175686" lon="-3.6633579"><ele>688.0</ele><time>2026-03-07T13:59:53.005Z</time></trkpt><trkpt lat="36.8176492" lon="-3.663395"><ele>691.0</ele><time>2026-03-07T13:59:54.001Z</time></trkpt><trkpt lat="36.8177289" lon="-3.6634299"><ele>694.0</ele><time>2026-03-07T13:59:55.054Z</time></trkpt><trkpt lat="36.8178038" lon="-3.6634554"><ele>697.0</ele><time>2026-03-07T13:59:56.005Z</time></trkpt><trkpt lat="36.8178743" lon="-3.6634782"><ele>700.0</ele><time>2026-03-07T13:59:57.039Z</time></trkpt><trkpt lat="36.8179415" lon="-3.6634994"><ele>703.0</ele><time>2026-03-07T13:59:58.06Z</time></trkpt><trkpt lat="36.818014" lon="-3.6635266"><ele>706.0</ele><time>2026-03-07T13:59:59.014Z</time></trkpt><trkpt lat="36.8180898" lon="-3.6635618"><ele>706.0</ele><time>2026-03-07T14:00:00.067Z</time></trkpt><trkpt lat="36.818162" lon="-3.663609"><ele>706.0</ele><time>2026-03-07T14:00:01.008Z</time></trkpt><trkpt lat="36.8182123" lon="-3.6636685"><ele>706.0</ele><time>2026-03-07T14:00:02.084Z</time></trkpt><trkpt lat="36.8182629" lon="-3.6637316"><ele>706.0</ele><time>2026-03-07T14:00:03.089Z</time></trkpt><trkpt lat="36.8182954" lon="-3.6637991"><ele>706.0</ele><time>2026-03-07T14:00:04.02Z</time></trkpt><trkpt lat="36.8182958" lon="-3.6639474"><ele>706.0</ele><time>2026-03-07T14:00:06.006Z</time></trkpt><trkpt lat="36.818269" lon="-3.6640343"><ele>703.6666666666667</ele><time>2026-03-07T14:00:07.003Z</time></trkpt><trkpt lat="36.8182388" lon="-3.6641218"><ele>701.3333333333334</ele><time>2026-03-07T14:00:08.014Z</time></trkpt><trkpt lat="36.8182295" lon="-3.6642165"><ele>699.0</ele><time>2026-03-07T14:00:08.992Z</time></trkpt><trkpt lat="36.8182373" lon="-3.6643329"><ele>696.6666666666666</ele><time>2026-03-07T14:00:10.079Z</time></trkpt><trkpt lat="36.8182479" lon="-3.6644575"><ele>694.3333333333333</ele><time>2026-03-07T14:00:11.011Z</time></trkpt><trkpt lat="36.8182587" lon="-3.6645713"><ele>692.0</ele><time>2026-03-07T14:00:12.022Z</time></trkpt><trkpt lat="36.8182788" lon="-3.6646709"><ele>690.4000000000001</ele><time>2026-03-07T14:00:13.004Z</time></trkpt><trkpt lat="36.8183039" lon="-3.6647781"><ele>688.8000000000001</ele><time>2026-03-07T14:00:14.018Z</time></trkpt><trkpt lat="36.8183514" lon="-3.66489"><ele>687.2</ele><time>2026-03-07T14:00:15.005Z</time></trkpt><trkpt lat="36.8184125" lon="-3.6650136"><ele>685.6</ele><time>2026-03-07T14:00:16.001Z</time></trkpt><trkpt lat="36.8184686" lon="-3.6651346"><ele>684.0</ele><time>2026-03-07T14:00:16.994Z</time></trkpt><trkpt lat="36.818515" lon="-3.6652388"><ele>684.9999999999999</ele><time>2026-03-07T14:00:18.005Z</time></trkpt><trkpt lat="36.8185438" lon="-3.6653307"><ele>686.0</ele><time>2026-03-07T14:00:18.999Z</time></trkpt><trkpt lat="36.8185644" lon="-3.6654057"><ele>687.0</ele><time>2026-03-07T14:00:20.002Z</time></trkpt><trkpt lat="36.8186012" lon="-3.6654742"><ele>688.0</ele><time>2026-03-07T14:00:21.012Z</time></trkpt><trkpt lat="36.8186502" lon="-3.6655392"><ele>689.0</ele><time>2026-03-07T14:00:22.021Z</time></trkpt><trkpt lat="36.8187079" lon="-3.6656088"><ele>689.9999999999999</ele><time>2026-03-07T14:00:22.994Z</time></trkpt><trkpt lat="36.8187655" lon="-3.6656649"><ele>691.0</ele><time>2026-03-07T14:00:24.002Z</time></trkpt><trkpt lat="36.8188931" lon="-3.6657206"><ele>691.0</ele><time>2026-03-07T14:00:25.999Z</time></trkpt><trkpt lat="36.818989" lon="-3.6657481"><ele>691.0</ele><time>2026-03-07T14:00:26.999Z</time></trkpt><trkpt lat="36.8190955" lon="-3.6657842"><ele>691.0</ele><time>2026-03-07T14:00:28.003Z</time></trkpt><trkpt lat="36.8191943" lon="-3.6658187"><ele>691.0</ele><time>2026-03-07T14:00:29Z</time></trkpt><trkpt lat="36.8192726" lon="-3.6658726"><ele>691.0</ele><time>2026-03-07T14:00:29.99Z</time></trkpt><trkpt lat="36.8193415" lon="-3.665934"><ele>692.5</ele><time>2026-03-07T14:00:30.998Z</time></trkpt><trkpt lat="36.819413" lon="-3.665996"><ele>694.0</ele><time>2026-03-07T14:00:31.998Z</time></trkpt><trkpt lat="36.8194796" lon="-3.6660628"><ele>695.5</ele><time>2026-03-07T14:00:33.005Z</time></trkpt><trkpt lat="36.8195585" lon="-3.6661115"><ele>697.0</ele><time>2026-03-07T14:00:33.997Z</time></trkpt><trkpt lat="36.8196408" lon="-3.6661482"><ele>698.5</ele><time>2026-03-07T14:00:35.001Z</time></trkpt><trkpt lat="36.8197116" lon="-3.6661831"><ele>700.0</ele><time>2026-03-07T14:00:36.003Z</time></trkpt><trkpt lat="36.8197765" lon="-3.6662175"><ele>695.8571428571429</ele><time>2026-03-07T14:00:37.024Z</time></trkpt><trkpt lat="36.8198406" lon="-3.6662522"><ele>691.7142857142858</ele><time>2026-03-07T14:00:37.996Z</time></trkpt><trkpt lat="36.8199054" lon="-3.6662861"><ele>687.5714285714286</ele><time>2026-03-07T14:00:38.995Z</time></trkpt><trkpt lat="36.8199689" lon="-3.6663218"><ele>683.4285714285714</ele><time>2026-03-07T14:00:40.025Z</time></trkpt><trkpt lat="36.8200291" lon="-3.6663547"><ele>679.2857142857143</ele><time>2026-03-07T14:00:41.005Z</time></trkpt><trkpt lat="36.8200907" lon="-3.6663896"><ele>675.1428571428571</ele><time>2026-03-07T14:00:42.001Z</time></trkpt><trkpt lat="36.820148" lon="-3.6664289"><ele>671.0</ele><time>2026-03-07T14:00:43.006Z</time></trkpt><trkpt lat="36.8202084" lon="-3.6664678"><ele>670.5</ele><time>2026-03-07T14:00:43.996Z</time></trkpt><trkpt lat="36.8202839" lon="-3.6665118"><ele>670.0</ele><time>2026-03-07T14:00:45.009Z</time></trkpt><trkpt lat="36.8203675" lon="-3.6665395"><ele>669.5</ele><time>2026-03-07T14:00:45.998Z</time></trkpt><trkpt lat="36.8204525" lon="-3.6665602"><ele>669.0</ele><time>2026-03-07T14:00:47.001Z</time></trkpt><trkpt lat="36.8205374" lon="-3.666568"><ele>668.5</ele><time>2026-03-07T14:00:47.994Z</time></trkpt><trkpt lat="36.8206228" lon="-3.6665693"><ele>668.0</ele><time>2026-03-07T14:00:49.007Z</time></trkpt><trkpt lat="36.8207182" lon="-3.6665654"><ele>668.0</ele><time>2026-03-07T14:00:50.003Z</time></trkpt><trkpt lat="36.8208203" lon="-3.6665296"><ele>668.0</ele><time>2026-03-07T14:00:51.002Z</time></trkpt><trkpt lat="36.820916" lon="-3.666493"><ele>668.0</ele><time>2026-03-07T14:00:52.004Z</time></trkpt><trkpt lat="36.8210067" lon="-3.6664786"><ele>668.0</ele><time>2026-03-07T14:00:52.998Z</time></trkpt><trkpt lat="36.8211016" lon="-3.6664942"><ele>668.0</ele><time>2026-03-07T14:00:54.009Z</time></trkpt><trkpt lat="36.8212" lon="-3.6665283"><ele>667.2</ele><time>2026-03-07T14:00:54.994Z</time></trkpt><trkpt lat="36.821297" lon="-3.6665589"><ele>666.4</ele><time>2026-03-07T14:00:55.994Z</time></trkpt><trkpt lat="36.8213936" lon="-3.666583"><ele>665.6</ele><time>2026-03-07T14:00:57.002Z</time></trkpt><trkpt lat="36.8214864" lon="-3.6666024"><ele>664.8000000000001</ele><time>2026-03-07T14:00:58.005Z</time></trkpt><trkpt lat="36.8215826" lon="-3.6666187"><ele>664.0</ele><time>2026-03-07T14:00:58.997Z</time></trkpt><trkpt lat="36.8216807" lon="-3.666636"><ele>664.0</ele><time>2026-03-07T14:00:59.984Z</time></trkpt><trkpt lat="36.8217771" lon="-3.6666589"><ele>664.0</ele><time>2026-03-07T14:01:01.014Z</time></trkpt><trkpt lat="36.8218628" lon="-3.6666811"><ele>664.0</ele><time>2026-03-07T14:01:02.036Z</time></trkpt><trkpt lat="36.821923" lon="-3.666708"><ele>664.0</ele><time>2026-03-07T14:01:03.016Z</time></trkpt><trkpt lat="36.8220017" lon="-3.6667634"><ele>664.0</ele><time>2026-03-07T14:01:05.005Z</time></trkpt><trkpt lat="36.8219883" lon="-3.6668411"><ele>664.0</ele><time>2026-03-07T14:01:07.006Z</time></trkpt><trkpt lat="36.8219111" lon="-3.6669042"><ele>663.6</ele><time>2026-03-07T14:01:09.012Z</time></trkpt><trkpt lat="36.8219562" lon="-3.666985"><ele>663.2</ele><time>2026-03-07T14:01:11.006Z</time></trkpt><trkpt lat="36.8219791" lon="-3.6671101"><ele>662.8000000000001</ele><time>2026-03-07T14:01:13.004Z</time></trkpt><trkpt lat="36.8219709" lon="-3.667209"><ele>662.4000000000001</ele><time>2026-03-07T14:01:15.006Z</time></trkpt><trkpt lat="36.8218527" lon="-3.6672631"><ele>662.0</ele><time>2026-03-07T14:01:16.981Z</time></trkpt><trkpt lat="36.8217522" lon="-3.6672941"><ele>662.0</ele><time>2026-03-07T14:01:17.993Z</time></trkpt><trkpt lat="36.8216782" lon="-3.6673413"><ele>662.0</ele><time>2026-03-07T14:01:19.001Z</time></trkpt><trkpt lat="36.821609" lon="-3.6674119"><ele>662.0</ele><time>2026-03-07T14:01:21Z</time></trkpt><trkpt lat="36.8216931" lon="-3.667473"><ele>662.0</ele><time>2026-03-07T14:01:22.985Z</time></trkpt><trkpt lat="36.8217643" lon="-3.6675115"><ele>662.0</ele><time>2026-03-07T14:01:24.029Z</time></trkpt><trkpt lat="36.8218318" lon="-3.6675631"><ele>662.0</ele><time>2026-03-07T14:01:25.02Z</time></trkpt><trkpt lat="36.8218937" lon="-3.6676478"><ele>662.0</ele><time>2026-03-07T14:01:26.002Z</time></trkpt><trkpt lat="36.821939" lon="-3.6677586"><ele>662.0</ele><time>2026-03-07T14:01:26.997Z</time></trkpt><trkpt lat="36.821971" lon="-3.6678951"><ele>662.0</ele><time>2026-03-07T14:01:28.003Z</time></trkpt><trkpt lat="36.8220066" lon="-3.6680343"><ele>662.0</ele><time>2026-03-07T14:01:29.001Z</time></trkpt><trkpt lat="36.8220375" lon="-3.668174"><ele>662.0</ele><time>2026-03-07T14:01:30.031Z</time></trkpt><trkpt lat="36.8220687" lon="-3.6683099"><ele>657.2</ele><time>2026-03-07T14:01:31.002Z</time></trkpt><trkpt lat="36.8221" lon="-3.6684458"><ele>652.4000000000001</ele><time>2026-03-07T14:01:31.992Z</time></trkpt><trkpt lat="36.8221266" lon="-3.6685783"><ele>647.5999999999999</ele><time>2026-03-07T14:01:33Z</time></trkpt><trkpt lat="36.8221508" lon="-3.6687156"><ele>642.8</ele><time>2026-03-07T14:01:34.016Z</time></trkpt><trkpt lat="36.8221735" lon="-3.6688476"><ele>638.0</ele><time>2026-03-07T14:01:34.998Z</time></trkpt><trkpt lat="36.8221994" lon="-3.6689577"><ele>634.3333333333333</ele><time>2026-03-07T14:01:36.007Z</time></trkpt><trkpt lat="36.8222279" lon="-3.6690532"><ele>630.6666666666666</ele><time>2026-03-07T14:01:37.006Z</time></trkpt><trkpt lat="36.8222609" lon="-3.6691449"><ele>627.0</ele><time>2026-03-07T14:01:38.002Z</time></trkpt><trkpt lat="36.8223057" lon="-3.6692215"><ele>623.3333333333334</ele><time>2026-03-07T14:01:38.995Z</time></trkpt><trkpt lat="36.8224143" lon="-3.6692817"><ele>619.6666666666667</ele><time>2026-03-07T14:01:41.009Z</time></trkpt><trkpt lat="36.8224675" lon="-3.6693362"><ele>616.0</ele><time>2026-03-07T14:01:43.004Z</time></trkpt><trkpt lat="36.8224219" lon="-3.6693952"><ele>616.0</ele><time>2026-03-07T14:01:45.006Z</time></trkpt><trkpt lat="36.8223052" lon="-3.6694318"><ele>616.0</ele><time>2026-03-07T14:01:47.028Z</time></trkpt><trkpt lat="36.8222088" lon="-3.6694304"><ele>616.0</ele><time>2026-03-07T14:01:47.99Z</time></trkpt><trkpt lat="36.8221178" lon="-3.6694213"><ele>616.0</ele><time>2026-03-07T14:01:49Z</time></trkpt><trkpt lat="36.8220448" lon="-3.6694221"><ele>616.0</ele><time>2026-03-07T14:01:50.004Z</time></trkpt><trkpt lat="36.8219542" lon="-3.6695167"><ele>612.5</ele><time>2026-03-07T14:01:51.993Z</time></trkpt><trkpt lat="36.8219646" lon="-3.6696016"><ele>609.0</ele><time>2026-03-07T14:01:53.004Z</time></trkpt><trkpt lat="36.8219916" lon="-3.6696919"><ele>605.5</ele><time>2026-03-07T14:01:54.001Z</time></trkpt><trkpt lat="36.8220344" lon="-3.6697654"><ele>602.0</ele><time>2026-03-07T14:01:55.003Z</time></trkpt><trkpt lat="36.8221248" lon="-3.6698713"><ele>598.5</ele><time>2026-03-07T14:01:57.006Z</time></trkpt><trkpt lat="36.8221838" lon="-3.6699097"><ele>595.0</ele><time>2026-03-07T14:01:58.005Z</time></trkpt><trkpt lat="36.8222761" lon="-3.6699741"><ele>595.0</ele><time>2026-03-07T14:02:00.006Z</time></trkpt><trkpt lat="36.8221995" lon="-3.6701004"><ele>595.0</ele><time>2026-03-07T14:02:05.996Z</time></trkpt><trkpt lat="36.8221251" lon="-3.6702431"><ele>595.0</ele><time>2026-03-07T14:02:06.999Z</time></trkpt><trkpt lat="36.8220531" lon="-3.6704186"><ele>595.0</ele><time>2026-03-07T14:02:08.004Z</time></trkpt><trkpt lat="36.8219947" lon="-3.6705708"><ele>593.8</ele><time>2026-03-07T14:02:08.986Z</time></trkpt><trkpt lat="36.8219467" lon="-3.6706899"><ele>592.6</ele><time>2026-03-07T14:02:09.994Z</time></trkpt><trkpt lat="36.8218717" lon="-3.6708087"><ele>591.4</ele><time>2026-03-07T14:02:10.99Z</time></trkpt><trkpt lat="36.8217963" lon="-3.6709011"><ele>590.2</ele><time>2026-03-07T14:02:11.997Z</time></trkpt><trkpt lat="36.8217173" lon="-3.6709707"><ele>589.0</ele><time>2026-03-07T14:02:13.009Z</time></trkpt><trkpt lat="36.8216507" lon="-3.6710184"><ele>589.0</ele><time>2026-03-07T14:02:14.019Z</time></trkpt><trkpt lat="36.8215839" lon="-3.6710565"><ele>589.0</ele><time>2026-03-07T14:02:15.005Z</time></trkpt><trkpt lat="36.8214813" lon="-3.6711291"><ele>589.0</ele><time>2026-03-07T14:02:17.016Z</time></trkpt><trkpt lat="36.8214332" lon="-3.6712224"><ele>589.0</ele><time>2026-03-07T14:02:18.988Z</time></trkpt><trkpt lat="36.8214836" lon="-3.6712772"><ele>589.0</ele><time>2026-03-07T14:02:21Z</time></trkpt><trkpt lat="36.8215889" lon="-3.6713692"><ele>586.2</ele><time>2026-03-07T14:02:23.002Z</time></trkpt><trkpt lat="36.8216608" lon="-3.6714254"><ele>583.4</ele><time>2026-03-07T14:02:23.999Z</time></trkpt><trkpt lat="36.8217174" lon="-3.6714823"><ele>580.6</ele><time>2026-03-07T14:02:24.993Z</time></trkpt><trkpt lat="36.8217435" lon="-3.6716117"><ele>577.8</ele><time>2026-03-07T14:02:26.994Z</time></trkpt><trkpt lat="36.8216811" lon="-3.6717148"><ele>575.0</ele><time>2026-03-07T14:02:29.004Z</time></trkpt><trkpt lat="36.8216101" lon="-3.6717832"><ele>575.0</ele><time>2026-03-07T14:02:30.002Z</time></trkpt><trkpt lat="36.8215348" lon="-3.6718566"><ele>575.0</ele><time>2026-03-07T14:02:31.002Z</time></trkpt><trkpt lat="36.8214555" lon="-3.671928"><ele>575.0</ele><time>2026-03-07T14:02:32.006Z</time></trkpt><trkpt lat="36.8213692" lon="-3.6719977"><ele>575.0</ele><time>2026-03-07T14:02:32.998Z</time></trkpt><trkpt lat="36.8212828" lon="-3.6720684"><ele>575.0</ele><time>2026-03-07T14:02:34.008Z</time></trkpt><trkpt lat="36.8211953" lon="-3.6721466"><ele>571.4</ele><time>2026-03-07T14:02:34.997Z</time></trkpt><trkpt lat="36.8211105" lon="-3.672234"><ele>567.8</ele><time>2026-03-07T14:02:35.991Z</time></trkpt><trkpt lat="36.8210225" lon="-3.6723259"><ele>564.2</ele><time>2026-03-07T14:02:36.997Z</time></trkpt><trkpt lat="36.8209333" lon="-3.6724099"><ele>560.6</ele><time>2026-03-07T14:02:37.991Z</time></trkpt><trkpt lat="36.8208516" lon="-3.672483"><ele>557.0</ele><time>2026-03-07T14:02:38.996Z</time></trkpt><trkpt lat="36.8207803" lon="-3.6725483"><ele>557.0</ele><time>2026-03-07T14:02:39.997Z</time></trkpt><trkpt lat="36.8207077" lon="-3.6726137"><ele>557.0</ele><time>2026-03-07T14:02:41.001Z</time></trkpt><trkpt lat="36.820637" lon="-3.6726801"><ele>557.0</ele><time>2026-03-07T14:02:41.99Z</time></trkpt><trkpt lat="36.8205668" lon="-3.6727502"><ele>557.0</ele><time>2026-03-07T14:02:42.996Z</time></trkpt><trkpt lat="36.8205033" lon="-3.6728183"><ele>557.0</ele><time>2026-03-07T14:02:43.998Z</time></trkpt><trkpt lat="36.8204408" lon="-3.6728757"><ele>557.0</ele><time>2026-03-07T14:02:44.999Z</time></trkpt><trkpt lat="36.8203746" lon="-3.672932"><ele>554.0</ele><time>2026-03-07T14:02:45.994Z</time></trkpt><trkpt lat="36.820299" lon="-3.6729805"><ele>551.0</ele><time>2026-03-07T14:02:46.993Z</time></trkpt><trkpt lat="36.8202221" lon="-3.6730235"><ele>548.0</ele><time>2026-03-07T14:02:47.988Z</time></trkpt><trkpt lat="36.8201553" lon="-3.6730562"><ele>545.0</ele><time>2026-03-07T14:02:49.002Z</time></trkpt><trkpt lat="36.8200465" lon="-3.6730456"><ele>542.0</ele><time>2026-03-07T14:02:51.008Z</time></trkpt><trkpt lat="36.819976" lon="-3.6730075"><ele>539.0</ele><time>2026-03-07T14:02:54.008Z</time></trkpt><trkpt lat="36.8199057" lon="-3.6730689"><ele>539.0</ele><time>2026-03-07T14:02:58.009Z</time></trkpt><trkpt lat="36.8199701" lon="-3.6731276"><ele>539.0</ele><time>2026-03-07T14:03:09.083Z</time></trkpt><trkpt lat="36.8200542" lon="-3.6731494"><ele>539.0</ele><time>2026-03-07T14:03:10.024Z</time></trkpt><trkpt lat="36.8201338" lon="-3.6731619"><ele>539.0</ele><time>2026-03-07T14:03:11.089Z</time></trkpt><trkpt lat="36.8202301" lon="-3.6731579"><ele>539.0</ele><time>2026-03-07T14:03:12.003Z</time></trkpt><trkpt lat="36.8203285" lon="-3.6731362"><ele>539.0</ele><time>2026-03-07T14:03:13Z</time></trkpt><trkpt lat="36.8204422" lon="-3.6730938"><ele>538.75</ele><time>2026-03-07T14:03:14.013Z</time></trkpt><trkpt lat="36.8205488" lon="-3.673036"><ele>538.5</ele><time>2026-03-07T14:03:15.011Z</time></trkpt><trkpt lat="36.8206727" lon="-3.6729731"><ele>538.25</ele><time>2026-03-07T14:03:15.992Z</time></trkpt><trkpt lat="36.8208004" lon="-3.672896"><ele>538.0</ele><time>2026-03-07T14:03:17.002Z</time></trkpt><trkpt lat="36.8209346" lon="-3.6727981"><ele>541.6666666666667</ele><time>2026-03-07T14:03:18Z</time></trkpt><trkpt lat="36.8210631" lon="-3.672696"><ele>545.3333333333334</ele><time>2026-03-07T14:03:18.997Z</time></trkpt><trkpt lat="36.8211938" lon="-3.6725912"><ele>549.0</ele><time>2026-03-07T14:03:19.998Z</time></trkpt><trkpt lat="36.8213151" lon="-3.6724986"><ele>549.0</ele><time>2026-03-07T14:03:20.986Z</time></trkpt><trkpt lat="36.8214233" lon="-3.6724351"><ele>549.0</ele><time>2026-03-07T14:03:21.992Z</time></trkpt><trkpt lat="36.8215279" lon="-3.6723762"><ele>549.0</ele><time>2026-03-07T14:03:22.994Z</time></trkpt><trkpt lat="36.8216401" lon="-3.6723361"><ele>549.0</ele><time>2026-03-07T14:03:23.992Z</time></trkpt><trkpt lat="36.8217661" lon="-3.6723043"><ele>549.25</ele><time>2026-03-07T14:03:24.991Z</time></trkpt><trkpt lat="36.8219025" lon="-3.6722813"><ele>549.5</ele><time>2026-03-07T14:03:26.003Z</time></trkpt><trkpt lat="36.8220364" lon="-3.6722676"><ele>549.75</ele><time>2026-03-07T14:03:27.008Z</time></trkpt><trkpt lat="36.8221675" lon="-3.6722598"><ele>550.0</ele><time>2026-03-07T14:03:28.015Z</time></trkpt><trkpt lat="36.8222888" lon="-3.6722712"><ele>550.0</ele><time>2026-03-07T14:03:28.993Z</time></trkpt><trkpt lat="36.8224055" lon="-3.6722814"><ele>550.0</ele><time>2026-03-07T14:03:30.007Z</time></trkpt><trkpt lat="36.8225094" lon="-3.67229"><ele>550.0</ele><time>2026-03-07T14:03:30.997Z</time></trkpt><trkpt lat="36.8225905" lon="-3.6722934"><ele>550.0</ele><time>2026-03-07T14:03:32.006Z</time></trkpt><trkpt lat="36.822654" lon="-3.672294"><ele>550.0</ele><time>2026-03-07T14:03:33.003Z</time></trkpt><trkpt lat="36.8227596" lon="-3.6723442"><ele>552.4</ele><time>2026-03-07T14:03:35.006Z</time></trkpt><trkpt lat="36.8227888" lon="-3.672494"><ele>554.8</ele><time>2026-03-07T14:03:36.988Z</time></trkpt><trkpt lat="36.8227678" lon="-3.6725955"><ele>557.2</ele><time>2026-03-07T14:03:37.987Z</time></trkpt><trkpt lat="36.8227577" lon="-3.6726923"><ele>559.6</ele><time>2026-03-07T14:03:38.987Z</time></trkpt><trkpt lat="36.8227745" lon="-3.6727916"><ele>562.0</ele><time>2026-03-07T14:03:39.986Z</time></trkpt><trkpt lat="36.8228161" lon="-3.6728813"><ele>562.0</ele><time>2026-03-07T14:03:40.986Z</time></trkpt><trkpt lat="36.8228792" lon="-3.6729733"><ele>562.0</ele><time>2026-03-07T14:03:41.999Z</time></trkpt><trkpt lat="36.8229645" lon="-3.6730572"><ele>562.0</ele><time>2026-03-07T14:03:43.002Z</time></trkpt><trkpt lat="36.8230564" lon="-3.6731409"><ele>562.0</ele><time>2026-03-07T14:03:44.008Z</time></trkpt><trkpt lat="36.8231482" lon="-3.6732139"><ele>562.0</ele><time>2026-03-07T14:03:44.998Z</time></trkpt><trkpt lat="36.8232395" lon="-3.6732585"><ele>562.0</ele><time>2026-03-07T14:03:45.992Z</time></trkpt><trkpt lat="36.8233257" lon="-3.6732628"><ele>562.0</ele><time>2026-03-07T14:03:47.012Z</time></trkpt><trkpt lat="36.8234174" lon="-3.6732412"><ele>562.0</ele><time>2026-03-07T14:03:47.998Z</time></trkpt><trkpt lat="36.8235183" lon="-3.6732123"><ele>562.0</ele><time>2026-03-07T14:03:48.993Z</time></trkpt><trkpt lat="36.8236128" lon="-3.673177"><ele>562.0</ele><time>2026-03-07T14:03:50.027Z</time></trkpt><trkpt lat="36.8236756" lon="-3.6731643"><ele>562.0</ele><time>2026-03-07T14:03:50.992Z</time></trkpt><trkpt lat="36.8237387" lon="-3.6731976"><ele>564.0</ele><time>2026-03-07T14:03:52.999Z</time></trkpt><trkpt lat="36.8237039" lon="-3.6733189"><ele>566.0</ele><time>2026-03-07T14:03:54.994Z</time></trkpt><trkpt lat="36.8236356" lon="-3.6733964"><ele>568.0</ele><time>2026-03-07T14:03:55.994Z</time></trkpt><trkpt lat="36.8235516" lon="-3.6734931"><ele>570.0</ele><time>2026-03-07T14:03:56.999Z</time></trkpt><trkpt lat="36.8234586" lon="-3.6736085"><ele>572.0</ele><time>2026-03-07T14:03:58.007Z</time></trkpt><trkpt lat="36.8233586" lon="-3.6737298"><ele>572.0</ele><time>2026-03-07T14:03:59.001Z</time></trkpt><trkpt lat="36.8232631" lon="-3.6738384"><ele>572.0</ele><time>2026-03-07T14:03:59.993Z</time></trkpt><trkpt lat="36.8231705" lon="-3.6739435"><ele>572.0</ele><time>2026-03-07T14:04:00.989Z</time></trkpt><trkpt lat="36.823099" lon="-3.6740268"><ele>572.0</ele><time>2026-03-07T14:04:02.007Z</time></trkpt><trkpt lat="36.8230494" lon="-3.6741199"><ele>572.0</ele><time>2026-03-07T14:04:03.016Z</time></trkpt><trkpt lat="36.8230157" lon="-3.6742139"><ele>572.0</ele><time>2026-03-07T14:04:04Z</time></trkpt><trkpt lat="36.8230055" lon="-3.6743256"><ele>572.0</ele><time>2026-03-07T14:04:04.993Z</time></trkpt><trkpt lat="36.8230362" lon="-3.6744211"><ele>572.0</ele><time>2026-03-07T14:04:06Z</time></trkpt><trkpt lat="36.8230929" lon="-3.6744899"><ele>572.0</ele><time>2026-03-07T14:04:06.999Z</time></trkpt><trkpt lat="36.8231679" lon="-3.674535"><ele>572.0</ele><time>2026-03-07T14:04:08.005Z</time></trkpt><trkpt lat="36.8232543" lon="-3.6745639"><ele>572.0</ele><time>2026-03-07T14:04:09.005Z</time></trkpt><trkpt lat="36.8233544" lon="-3.674584"><ele>573.0</ele><time>2026-03-07T14:04:09.982Z</time></trkpt><trkpt lat="36.823467" lon="-3.674603"><ele>574.0</ele><time>2026-03-07T14:04:10.995Z</time></trkpt><trkpt lat="36.8235665" lon="-3.6746277"><ele>575.0</ele><time>2026-03-07T14:04:11.998Z</time></trkpt><trkpt lat="36.823639" lon="-3.6746787"><ele>576.0</ele><time>2026-03-07T14:04:13.004Z</time></trkpt><trkpt lat="36.8237054" lon="-3.6747485"><ele>577.0</ele><time>2026-03-07T14:04:13.996Z</time></trkpt><trkpt lat="36.8237733" lon="-3.6748354"><ele>580.0</ele><time>2026-03-07T14:04:15.006Z</time></trkpt><trkpt lat="36.8238324" lon="-3.6749719"><ele>583.0</ele><time>2026-03-07T14:04:16Z</time></trkpt><trkpt lat="36.8238964" lon="-3.675125"><ele>586.0</ele><time>2026-03-07T14:04:17.018Z</time></trkpt><trkpt lat="36.8239542" lon="-3.6752681"><ele>589.0</ele><time>2026-03-07T14:04:18Z</time></trkpt><trkpt lat="36.8240116" lon="-3.6754022"><ele>589.0</ele><time>2026-03-07T14:04:18.999Z</time></trkpt><trkpt lat="36.824072" lon="-3.6755233"><ele>589.0</ele><time>2026-03-07T14:04:19.994Z</time></trkpt><trkpt lat="36.8241383" lon="-3.675616"><ele>589.0</ele><time>2026-03-07T14:04:20.999Z</time></trkpt><trkpt lat="36.8242145" lon="-3.675688"><ele>589.0</ele><time>2026-03-07T14:04:22.001Z</time></trkpt><trkpt lat="36.8242935" lon="-3.6757449"><ele>589.0</ele><time>2026-03-07T14:04:22.995Z</time></trkpt><trkpt lat="36.8243736" lon="-3.6757843"><ele>590.3333333333334</ele><time>2026-03-07T14:04:24.019Z</time></trkpt><trkpt lat="36.8244372" lon="-3.675802"><ele>591.6666666666667</ele><time>2026-03-07T14:04:24.998Z</time></trkpt><trkpt lat="36.8245284" lon="-3.6757965"><ele>593.0</ele><time>2026-03-07T14:04:26.989Z</time></trkpt><trkpt lat="36.8245504" lon="-3.6756837"><ele>594.3333333333334</ele><time>2026-03-07T14:04:28.993Z</time></trkpt><trkpt lat="36.8245663" lon="-3.6755994"><ele>595.6666666666666</ele><time>2026-03-07T14:04:30.014Z</time></trkpt><trkpt lat="36.8246195" lon="-3.6755127"><ele>597.0</ele><time>2026-03-07T14:04:30.997Z</time></trkpt><trkpt lat="36.8247084" lon="-3.6754461"><ele>597.0</ele><time>2026-03-07T14:04:31.989Z</time></trkpt><trkpt lat="36.824807" lon="-3.675376"><ele>597.0</ele><time>2026-03-07T14:04:32.992Z</time></trkpt><trkpt lat="36.8249166" lon="-3.6753157"><ele>597.0</ele><time>2026-03-07T14:04:34Z</time></trkpt><trkpt lat="36.8250298" lon="-3.6752799"><ele>597.0</ele><time>2026-03-07T14:04:34.995Z</time></trkpt><trkpt lat="36.8251554" lon="-3.6752857"><ele>599.0</ele><time>2026-03-07T14:04:36.001Z</time></trkpt><trkpt lat="36.8252892" lon="-3.6753186"><ele>601.0</ele><time>2026-03-07T14:04:37.001Z</time></trkpt><trkpt lat="36.8254286" lon="-3.675367"><ele>603.0</ele><time>2026-03-07T14:04:37.996Z</time></trkpt><trkpt lat="36.8255636" lon="-3.6754216"><ele>605.0</ele><time>2026-03-07T14:04:38.992Z</time></trkpt><trkpt lat="36.8256906" lon="-3.675474"><ele>605.0</ele><time>2026-03-07T14:04:40.005Z</time></trkpt><trkpt lat="36.8258093" lon="-3.6755074"><ele>605.0</ele><time>2026-03-07T14:04:40.994Z</time></trkpt><trkpt lat="36.825925" lon="-3.6754954"><ele>605.0</ele><time>2026-03-07T14:04:42.001Z</time></trkpt><trkpt lat="36.8260418" lon="-3.6754499"><ele>605.0</ele><time>2026-03-07T14:04:42.995Z</time></trkpt><trkpt lat="36.826172" lon="-3.6753964"><ele>606.3333333333333</ele><time>2026-03-07T14:04:43.996Z</time></trkpt><trkpt lat="36.8263061" lon="-3.6753406"><ele>607.6666666666666</ele><time>2026-03-07T14:04:45.018Z</time></trkpt><trkpt lat="36.8264663" lon="-3.6752998"><ele>609.0</ele><time>2026-03-07T14:04:46Z</time></trkpt><trkpt lat="36.8266423" lon="-3.6752527"><ele>616.6666666666666</ele><time>2026-03-07T14:04:47.001Z</time></trkpt><trkpt lat="36.8268169" lon="-3.6751963"><ele>624.3333333333333</ele><time>2026-03-07T14:04:48.004Z</time></trkpt><trkpt lat="36.8269938" lon="-3.6751071"><ele>632.0</ele><time>2026-03-07T14:04:49.003Z</time></trkpt><trkpt lat="36.8271633" lon="-3.6750127"><ele>632.0</ele><time>2026-03-07T14:04:49.999Z</time></trkpt><trkpt lat="36.8273289" lon="-3.6749234"><ele>632.0</ele><time>2026-03-07T14:04:50.995Z</time></trkpt><trkpt lat="36.8274891" lon="-3.6748354"><ele>632.0</ele><time>2026-03-07T14:04:51.998Z</time></trkpt><trkpt lat="36.8276382" lon="-3.6747493"><ele>633.3333333333333</ele><time>2026-03-07T14:04:52.993Z</time></trkpt><trkpt lat="36.8277829" lon="-3.6746635"><ele>634.6666666666666</ele><time>2026-03-07T14:04:53.991Z</time></trkpt><trkpt lat="36.8279135" lon="-3.6745646"><ele>636.0</ele><time>2026-03-07T14:04:54.994Z</time></trkpt><trkpt lat="36.8280313" lon="-3.6744638"><ele>639.5</ele><time>2026-03-07T14:04:55.998Z</time></trkpt><trkpt lat="36.8281423" lon="-3.6743553"><ele>643.0</ele><time>2026-03-07T14:04:56.985Z</time></trkpt><trkpt lat="36.8282642" lon="-3.6742645"><ele>646.5</ele><time>2026-03-07T14:04:57.997Z</time></trkpt><trkpt lat="36.8283995" lon="-3.6741999"><ele>650.0</ele><time>2026-03-07T14:04:59.005Z</time></trkpt><trkpt lat="36.8285464" lon="-3.6741422"><ele>650.0</ele><time>2026-03-07T14:04:59.996Z</time></trkpt><trkpt lat="36.8286965" lon="-3.6740808"><ele>650.0</ele><time>2026-03-07T14:05:01Z</time></trkpt><trkpt lat="36.8288492" lon="-3.6740197"><ele>650.0</ele><time>2026-03-07T14:05:01.997Z</time></trkpt><trkpt lat="36.8289996" lon="-3.6739601"><ele>650.0</ele><time>2026-03-07T14:05:03.005Z</time></trkpt><trkpt lat="36.8291418" lon="-3.6739043"><ele>650.0</ele><time>2026-03-07T14:05:03.991Z</time></trkpt><trkpt lat="36.829271" lon="-3.6738492"><ele>650.0</ele><time>2026-03-07T14:05:05.007Z</time></trkpt><trkpt lat="36.8294005" lon="-3.6738178"><ele>650.0</ele><time>2026-03-07T14:05:06.004Z</time></trkpt><trkpt lat="36.829528" lon="-3.6738332"><ele>649.0</ele><time>2026-03-07T14:05:07.017Z</time></trkpt><trkpt lat="36.8296446" lon="-3.6738577"><ele>648.0</ele><time>2026-03-07T14:05:08.025Z</time></trkpt><trkpt lat="36.8297573" lon="-3.6738379"><ele>647.0</ele><time>2026-03-07T14:05:09Z</time></trkpt><trkpt lat="36.8298586" lon="-3.6737712"><ele>646.0</ele><time>2026-03-07T14:05:10.01Z</time></trkpt><trkpt lat="36.829947" lon="-3.6736556"><ele>650.0</ele><time>2026-03-07T14:05:11.007Z</time></trkpt><trkpt lat="36.8300224" lon="-3.6735113"><ele>654.0</ele><time>2026-03-07T14:05:12.008Z</time></trkpt><trkpt lat="36.8300741" lon="-3.6733511"><ele>658.0</ele><time>2026-03-07T14:05:12.999Z</time></trkpt><trkpt lat="36.8301338" lon="-3.6732022"><ele>662.0</ele><time>2026-03-07T14:05:14.002Z</time></trkpt><trkpt lat="36.8302027" lon="-3.673064"><ele>662.0</ele><time>2026-03-07T14:05:15Z</time></trkpt><trkpt lat="36.83029" lon="-3.6729626"><ele>662.0</ele><time>2026-03-07T14:05:15.993Z</time></trkpt><trkpt lat="36.8303931" lon="-3.6728973"><ele>662.0</ele><time>2026-03-07T14:05:17.004Z</time></trkpt><trkpt lat="36.830491" lon="-3.6728644"><ele>662.0</ele><time>2026-03-07T14:05:18.013Z</time></trkpt><trkpt lat="36.8305881" lon="-3.6728428"><ele>662.0</ele><time>2026-03-07T14:05:18.992Z</time></trkpt><trkpt lat="36.8306651" lon="-3.6728165"><ele>666.8</ele><time>2026-03-07T14:05:20.016Z</time></trkpt><trkpt lat="36.8307133" lon="-3.6727539"><ele>671.6</ele><time>2026-03-07T14:05:21.002Z</time></trkpt><trkpt lat="36.8307347" lon="-3.6726225"><ele>676.4</ele><time>2026-03-07T14:05:22.998Z</time></trkpt><trkpt lat="36.8306755" lon="-3.6725122"><ele>681.1999999999999</ele><time>2026-03-07T14:05:25.01Z</time></trkpt><trkpt lat="36.8306099" lon="-3.6724628"><ele>686.0</ele><time>2026-03-07T14:05:25.995Z</time></trkpt><trkpt lat="36.8305193" lon="-3.672413"><ele>686.0</ele><time>2026-03-07T14:05:27.005Z</time></trkpt><trkpt lat="36.8304129" lon="-3.672378"><ele>686.0</ele><time>2026-03-07T14:05:27.997Z</time></trkpt><trkpt lat="36.8302874" lon="-3.6723247"><ele>686.0</ele><time>2026-03-07T14:05:28.998Z</time></trkpt><trkpt lat="36.8301491" lon="-3.6722564"><ele>686.0</ele><time>2026-03-07T14:05:29.997Z</time></trkpt><trkpt lat="36.8300054" lon="-3.6721887"><ele>684.75</ele><time>2026-03-07T14:05:30.997Z</time></trkpt><trkpt lat="36.8298592" lon="-3.6721222"><ele>683.5</ele><time>2026-03-07T14:05:31.998Z</time></trkpt><trkpt lat="36.8297261" lon="-3.6720605"><ele>682.25</ele><time>2026-03-07T14:05:32.995Z</time></trkpt><trkpt lat="36.8296058" lon="-3.6720092"><ele>681.0</ele><time>2026-03-07T14:05:33.992Z</time></trkpt><trkpt lat="36.8295009" lon="-3.671968"><ele>682.5999999999999</ele><time>2026-03-07T14:05:35.01Z</time></trkpt><trkpt lat="36.8293942" lon="-3.6719184"><ele>684.2</ele><time>2026-03-07T14:05:36.009Z</time></trkpt><trkpt lat="36.8292982" lon="-3.6718666"><ele>685.8</ele><time>2026-03-07T14:05:36.999Z</time></trkpt><trkpt lat="36.8292282" lon="-3.6718097"><ele>687.4000000000001</ele><time>2026-03-07T14:05:38.004Z</time></trkpt><trkpt lat="36.829171" lon="-3.6717358"><ele>689.0</ele><time>2026-03-07T14:05:38.992Z</time></trkpt><trkpt lat="36.8291404" lon="-3.6716147"><ele>689.0</ele><time>2026-03-07T14:05:39.999Z</time></trkpt><trkpt lat="36.8291443" lon="-3.6714835"><ele>689.0</ele><time>2026-03-07T14:05:40.996Z</time></trkpt><trkpt lat="36.829171" lon="-3.6713597"><ele>689.0</ele><time>2026-03-07T14:05:41.997Z</time></trkpt><trkpt lat="36.8292067" lon="-3.6712571"><ele>689.0</ele><time>2026-03-07T14:05:43.008Z</time></trkpt><trkpt lat="36.8292622" lon="-3.6711681"><ele>689.0</ele><time>2026-03-07T14:05:44.002Z</time></trkpt><trkpt lat="36.8293377" lon="-3.6710829"><ele>692.25</ele><time>2026-03-07T14:05:45.005Z</time></trkpt><trkpt lat="36.8294256" lon="-3.6709807"><ele>695.5</ele><time>2026-03-07T14:05:46.012Z</time></trkpt><trkpt lat="36.8295068" lon="-3.6708739"><ele>698.75</ele><time>2026-03-07T14:05:47.018Z</time></trkpt><trkpt lat="36.8295871" lon="-3.6707521"><ele>702.0</ele><time>2026-03-07T14:05:47.997Z</time></trkpt><trkpt lat="36.8296605" lon="-3.6706167"><ele>702.0</ele><time>2026-03-07T14:05:48.996Z</time></trkpt><trkpt lat="36.8297299" lon="-3.6704796"><ele>702.0</ele><time>2026-03-07T14:05:50.006Z</time></trkpt><trkpt lat="36.8297988" lon="-3.6703416"><ele>702.0</ele><time>2026-03-07T14:05:51.004Z</time></trkpt><trkpt lat="36.8298663" lon="-3.6702151"><ele>702.0</ele><time>2026-03-07T14:05:52.015Z</time></trkpt><trkpt lat="36.8299474" lon="-3.6701119"><ele>706.5</ele><time>2026-03-07T14:05:53.004Z</time></trkpt><trkpt lat="36.8300454" lon="-3.6700374"><ele>711.0</ele><time>2026-03-07T14:05:54.006Z</time></trkpt><trkpt lat="36.8301656" lon="-3.6700032"><ele>715.5</ele><time>2026-03-07T14:05:55.002Z</time></trkpt><trkpt lat="36.8302998" lon="-3.6699822"><ele>720.0</ele><time>2026-03-07T14:05:56.005Z</time></trkpt><trkpt lat="36.830437" lon="-3.6699688"><ele>721.0</ele><time>2026-03-07T14:05:56.996Z</time></trkpt><trkpt lat="36.830575" lon="-3.6699526"><ele>722.0</ele><time>2026-03-07T14:05:58.014Z</time></trkpt><trkpt lat="36.8306954" lon="-3.6699388"><ele>723.0</ele><time>2026-03-07T14:05:58.991Z</time></trkpt><trkpt lat="36.8307937" lon="-3.6699193"><ele>724.0</ele><time>2026-03-07T14:05:59.999Z</time></trkpt><trkpt lat="36.830889" lon="-3.669866"><ele>726.4000000000001</ele><time>2026-03-07T14:06:00.991Z</time></trkpt><trkpt lat="36.8309827" lon="-3.6697935"><ele>728.8</ele><time>2026-03-07T14:06:02.002Z</time></trkpt><trkpt lat="36.8310685" lon="-3.6697211"><ele>731.2</ele><time>2026-03-07T14:06:03.006Z</time></trkpt><trkpt lat="36.831145" lon="-3.6696692"><ele>733.5999999999999</ele><time>2026-03-07T14:06:04.001Z</time></trkpt><trkpt lat="36.8312282" lon="-3.6696459"><ele>736.0</ele><time>2026-03-07T14:06:05.011Z</time></trkpt><trkpt lat="36.8313212" lon="-3.6696619"><ele>736.0</ele><time>2026-03-07T14:06:06.011Z</time></trkpt><trkpt lat="36.8314121" lon="-3.6697055"><ele>736.0</ele><time>2026-03-07T14:06:07.001Z</time></trkpt><trkpt lat="36.8315044" lon="-3.6697644"><ele>736.0</ele><time>2026-03-07T14:06:08.004Z</time></trkpt><trkpt lat="36.8316097" lon="-3.6698376"><ele>736.0</ele><time>2026-03-07T14:06:09.003Z</time></trkpt><trkpt lat="36.831714" lon="-3.6699143"><ele>736.0</ele><time>2026-03-07T14:06:10.004Z</time></trkpt><trkpt lat="36.831821" lon="-3.66999"><ele>737.3333333333334</ele><time>2026-03-07T14:06:11.016Z</time></trkpt><trkpt lat="36.8319143" lon="-3.6700374"><ele>738.6666666666667</ele><time>2026-03-07T14:06:12.012Z</time></trkpt><trkpt lat="36.8319985" lon="-3.6700618"><ele>740.0</ele><time>2026-03-07T14:06:12.998Z</time></trkpt><trkpt lat="36.8320855" lon="-3.6700523"><ele>741.3333333333334</ele><time>2026-03-07T14:06:14.006Z</time></trkpt><trkpt lat="36.8321737" lon="-3.6700192"><ele>742.6666666666666</ele><time>2026-03-07T14:06:15.008Z</time></trkpt><trkpt lat="36.8322469" lon="-3.6699718"><ele>744.0</ele><time>2026-03-07T14:06:16.011Z</time></trkpt><trkpt lat="36.8323038" lon="-3.6699174"><ele>744.0</ele><time>2026-03-07T14:06:17.029Z</time></trkpt><trkpt lat="36.832343" lon="-3.6698394"><ele>744.0</ele><time>2026-03-07T14:06:18.011Z</time></trkpt><trkpt lat="36.8323587" lon="-3.6697427"><ele>744.0</ele><time>2026-03-07T14:06:19.016Z</time></trkpt><trkpt lat="36.8323536" lon="-3.669663"><ele>744.0</ele><time>2026-03-07T14:06:20.001Z</time></trkpt><trkpt lat="36.8323207" lon="-3.669581"><ele>744.0</ele><time>2026-03-07T14:06:21.017Z</time></trkpt><trkpt lat="36.8322667" lon="-3.6694847"><ele>744.0</ele><time>2026-03-07T14:06:22.004Z</time></trkpt><trkpt lat="36.8321838" lon="-3.6693368"><ele>748.0</ele><time>2026-03-07T14:06:23.005Z</time></trkpt><trkpt lat="36.832112" lon="-3.6692129"><ele>752.0</ele><time>2026-03-07T14:06:24.002Z</time></trkpt><trkpt lat="36.8320296" lon="-3.6690917"><ele>756.0</ele><time>2026-03-07T14:06:25.001Z</time></trkpt><trkpt lat="36.8319417" lon="-3.6689836"><ele>760.0</ele><time>2026-03-07T14:06:25.998Z</time></trkpt><trkpt lat="36.831843" lon="-3.6688799"><ele>758.8</ele><time>2026-03-07T14:06:27.004Z</time></trkpt><trkpt lat="36.8317432" lon="-3.6687967"><ele>757.6</ele><time>2026-03-07T14:06:28Z</time></trkpt><trkpt lat="36.8316672" lon="-3.6687339"><ele>756.4000000000001</ele><time>2026-03-07T14:06:29.008Z</time></trkpt><trkpt lat="36.8316073" lon="-3.6686637"><ele>755.2</ele><time>2026-03-07T14:06:29.995Z</time></trkpt><trkpt lat="36.831541" lon="-3.6685479"><ele>754.0</ele><time>2026-03-07T14:06:31.996Z</time></trkpt><trkpt lat="36.8315657" lon="-3.6684503"><ele>760.25</ele><time>2026-03-07T14:06:32.991Z</time></trkpt><trkpt lat="36.8316515" lon="-3.668371"><ele>766.5</ele><time>2026-03-07T14:06:33.998Z</time></trkpt><trkpt lat="36.8317888" lon="-3.6683162"><ele>772.75</ele><time>2026-03-07T14:06:34.992Z</time></trkpt><trkpt lat="36.831939" lon="-3.6682778"><ele>779.0</ele><time>2026-03-07T14:06:35.985Z</time></trkpt><trkpt lat="36.8320904" lon="-3.6682467"><ele>779.25</ele><time>2026-03-07T14:06:36.999Z</time></trkpt><trkpt lat="36.8322315" lon="-3.6682275"><ele>779.5</ele><time>2026-03-07T14:06:38.002Z</time></trkpt><trkpt lat="36.8323621" lon="-3.6682097"><ele>779.75</ele><time>2026-03-07T14:06:39.009Z</time></trkpt><trkpt lat="36.8324757" lon="-3.6681681"><ele>780.0</ele><time>2026-03-07T14:06:40.013Z</time></trkpt><trkpt lat="36.8325934" lon="-3.6681012"><ele>781.0</ele><time>2026-03-07T14:06:41.01Z</time></trkpt><trkpt lat="36.8327111" lon="-3.6680363"><ele>782.0</ele><time>2026-03-07T14:06:42.003Z</time></trkpt><trkpt lat="36.8328312" lon="-3.6679666"><ele>783.0</ele><time>2026-03-07T14:06:43.001Z</time></trkpt><trkpt lat="36.8329398" lon="-3.6678996"><ele>784.0</ele><time>2026-03-07T14:06:44.007Z</time></trkpt><trkpt lat="36.8330411" lon="-3.6678156"><ele>788.4000000000001</ele><time>2026-03-07T14:06:45.003Z</time></trkpt><trkpt lat="36.833139" lon="-3.6677357"><ele>792.8</ele><time>2026-03-07T14:06:46.002Z</time></trkpt><trkpt lat="36.833219" lon="-3.667659"><ele>797.2</ele><time>2026-03-07T14:06:47.004Z</time></trkpt><trkpt lat="36.8332814" lon="-3.6675798"><ele>801.5999999999999</ele><time>2026-03-07T14:06:48.006Z</time></trkpt><trkpt lat="36.8333538" lon="-3.6675001"><ele>806.0</ele><time>2026-03-07T14:06:48.997Z</time></trkpt><trkpt lat="36.8334407" lon="-3.6674657"><ele>807.8</ele><time>2026-03-07T14:06:49.995Z</time></trkpt><trkpt lat="36.8335336" lon="-3.6674478"><ele>809.5999999999999</ele><time>2026-03-07T14:06:50.995Z</time></trkpt><trkpt lat="36.833642" lon="-3.6674447"><ele>811.4</ele><time>2026-03-07T14:06:52.012Z</time></trkpt><trkpt lat="36.8337485" lon="-3.6675026"><ele>813.2</ele><time>2026-03-07T14:06:52.997Z</time></trkpt><trkpt lat="36.833851" lon="-3.6675756"><ele>815.0</ele><time>2026-03-07T14:06:54.014Z</time></trkpt><trkpt lat="36.8339524" lon="-3.6676419"><ele>815.0</ele><time>2026-03-07T14:06:54.994Z</time></trkpt><trkpt lat="36.8340532" lon="-3.6676938"><ele>815.0</ele><time>2026-03-07T14:06:56.002Z</time></trkpt><trkpt lat="36.8341717" lon="-3.6677335"><ele>815.0</ele><time>2026-03-07T14:06:56.995Z</time></trkpt><trkpt lat="36.8342996" lon="-3.66777"><ele>815.0</ele><time>2026-03-07T14:06:58.004Z</time></trkpt><trkpt lat="36.8344301" lon="-3.667801"><ele>811.5</ele><time>2026-03-07T14:06:59.008Z</time></trkpt><trkpt lat="36.8345552" lon="-3.6678231"><ele>808.0</ele><time>2026-03-07T14:07:00.009Z</time></trkpt><trkpt lat="36.8346761" lon="-3.667833"><ele>804.5</ele><time>2026-03-07T14:07:00.995Z</time></trkpt><trkpt lat="36.8347945" lon="-3.6678293"><ele>801.0</ele><time>2026-03-07T14:07:02.002Z</time></trkpt><trkpt lat="36.8349142" lon="-3.6678224"><ele>801.0</ele><time>2026-03-07T14:07:03.005Z</time></trkpt><trkpt lat="36.8350356" lon="-3.6678062"><ele>801.0</ele><time>2026-03-07T14:07:04.009Z</time></trkpt><trkpt lat="36.8351596" lon="-3.6677952"><ele>801.0</ele><time>2026-03-07T14:07:05.014Z</time></trkpt><trkpt lat="36.8352859" lon="-3.6678078"><ele>801.0</ele><time>2026-03-07T14:07:06.006Z</time></trkpt><trkpt lat="36.8354158" lon="-3.6678311"><ele>804.5</ele><time>2026-03-07T14:07:07.01Z</time></trkpt><trkpt lat="36.8355403" lon="-3.6678582"><ele>808.0</ele><time>2026-03-07T14:07:08Z</time></trkpt><trkpt lat="36.8356653" lon="-3.6678905"><ele>811.5</ele><time>2026-03-07T14:07:08.999Z</time></trkpt><trkpt lat="36.8357863" lon="-3.6679326"><ele>815.0</ele><time>2026-03-07T14:07:10.01Z</time></trkpt><trkpt lat="36.8358965" lon="-3.6679778"><ele>815.3333333333334</ele><time>2026-03-07T14:07:11.001Z</time></trkpt><trkpt lat="36.8359807" lon="-3.6680189"><ele>815.6666666666667</ele><time>2026-03-07T14:07:12.004Z</time></trkpt><trkpt lat="36.8360519" lon="-3.6680404"><ele>816.0</ele><time>2026-03-07T14:07:13.002Z</time></trkpt><trkpt lat="36.8361208" lon="-3.6680214"><ele>816.3333333333333</ele><time>2026-03-07T14:07:14.01Z</time></trkpt><trkpt lat="36.8361816" lon="-3.6679546"><ele>816.6666666666666</ele><time>2026-03-07T14:07:15.016Z</time></trkpt><trkpt lat="36.8362236" lon="-3.6678701"><ele>817.0</ele><time>2026-03-07T14:07:16.017Z</time></trkpt><trkpt lat="36.8362505" lon="-3.6677774"><ele>820.9999999999999</ele><time>2026-03-07T14:07:17.004Z</time></trkpt><trkpt lat="36.8362624" lon="-3.6676912"><ele>825.0</ele><time>2026-03-07T14:07:18.003Z</time></trkpt><trkpt lat="36.8362781" lon="-3.6676063"><ele>829.0</ele><time>2026-03-07T14:07:19.004Z</time></trkpt><trkpt lat="36.8363056" lon="-3.6675231"><ele>833.0</ele><time>2026-03-07T14:07:20.003Z</time></trkpt><trkpt lat="36.8363803" lon="-3.6674622"><ele>836.9999999999999</ele><time>2026-03-07T14:07:21.002Z</time></trkpt><trkpt lat="36.8364864" lon="-3.6674433"><ele>841.0</ele><time>2026-03-07T14:07:22.005Z</time></trkpt><trkpt lat="36.8365988" lon="-3.6674074"><ele>841.0</ele><time>2026-03-07T14:07:23.007Z</time></trkpt><trkpt lat="36.8367124" lon="-3.6673966"><ele>841.0</ele><time>2026-03-07T14:07:24.004Z</time></trkpt><trkpt lat="36.8368276" lon="-3.6673963"><ele>841.0</ele><time>2026-03-07T14:07:24.988Z</time></trkpt><trkpt lat="36.8369479" lon="-3.6674151"><ele>841.0</ele><time>2026-03-07T14:07:26.017Z</time></trkpt><trkpt lat="36.8370538" lon="-3.6674582"><ele>842.1666666666666</ele><time>2026-03-07T14:07:27.012Z</time></trkpt><trkpt lat="36.8371515" lon="-3.6675034"><ele>843.3333333333333</ele><time>2026-03-07T14:07:28.011Z</time></trkpt><trkpt lat="36.8372397" lon="-3.6675165"><ele>844.5</ele><time>2026-03-07T14:07:29.015Z</time></trkpt><trkpt lat="36.8373161" lon="-3.6674947"><ele>845.6666666666667</ele><time>2026-03-07T14:07:29.992Z</time></trkpt><trkpt lat="36.8373808" lon="-3.6674515"><ele>846.8333333333334</ele><time>2026-03-07T14:07:31.008Z</time></trkpt><trkpt lat="36.8374354" lon="-3.6673813"><ele>848.0</ele><time>2026-03-07T14:07:32.01Z</time></trkpt><trkpt lat="36.8374749" lon="-3.6672834"><ele>848.0000000000001</ele><time>2026-03-07T14:07:33.02Z</time></trkpt><trkpt lat="36.8374985" lon="-3.6671765"><ele>848.0</ele><time>2026-03-07T14:07:34.011Z</time></trkpt><trkpt lat="36.8375101" lon="-3.6670783"><ele>848.0</ele><time>2026-03-07T14:07:34.998Z</time></trkpt><trkpt lat="36.8374926" lon="-3.6669995"><ele>848.0</ele><time>2026-03-07T14:07:36.005Z</time></trkpt><trkpt lat="36.8374397" lon="-3.6669509"><ele>848.0000000000001</ele><time>2026-03-07T14:07:37.008Z</time></trkpt><trkpt lat="36.837354" lon="-3.666929"><ele>848.0</ele><time>2026-03-07T14:07:38.007Z</time></trkpt><trkpt lat="36.8372445" lon="-3.6669262"><ele>853.25</ele><time>2026-03-07T14:07:39.008Z</time></trkpt><trkpt lat="36.8371282" lon="-3.6669185"><ele>858.5</ele><time>2026-03-07T14:07:39.998Z</time></trkpt><trkpt lat="36.8370169" lon="-3.6668742"><ele>863.75</ele><time>2026-03-07T14:07:41.005Z</time></trkpt><trkpt lat="36.8369141" lon="-3.6668173"><ele>869.0</ele><time>2026-03-07T14:07:42.002Z</time></trkpt><trkpt lat="36.8368068" lon="-3.666756"><ele>867.6</ele><time>2026-03-07T14:07:43.001Z</time></trkpt><trkpt lat="36.8367186" lon="-3.6666891"><ele>866.2</ele><time>2026-03-07T14:07:44.013Z</time></trkpt><trkpt lat="36.8366513" lon="-3.6666013"><ele>864.8000000000001</ele><time>2026-03-07T14:07:45.003Z</time></trkpt><trkpt lat="36.8366194" lon="-3.6664798"><ele>863.4000000000001</ele><time>2026-03-07T14:07:45.999Z</time></trkpt><trkpt lat="36.8365736" lon="-3.6663543"><ele>862.0</ele><time>2026-03-07T14:07:47.003Z</time></trkpt><trkpt lat="36.8365199" lon="-3.6662349"><ele>862.0</ele><time>2026-03-07T14:07:47.991Z</time></trkpt><trkpt lat="36.8364298" lon="-3.6661568"><ele>862.0</ele><time>2026-03-07T14:07:48.998Z</time></trkpt><trkpt lat="36.8363179" lon="-3.6660784"><ele>862.0</ele><time>2026-03-07T14:07:50.008Z</time></trkpt><trkpt lat="36.8361995" lon="-3.6659952"><ele>862.0</ele><time>2026-03-07T14:07:50.996Z</time></trkpt><trkpt lat="36.836088" lon="-3.6659035"><ele>864.25</ele><time>2026-03-07T14:07:52.001Z</time></trkpt><trkpt lat="36.835987" lon="-3.6658076"><ele>866.5</ele><time>2026-03-07T14:07:52.994Z</time></trkpt><trkpt lat="36.8358936" lon="-3.6657144"><ele>868.75</ele><time>2026-03-07T14:07:54.011Z</time></trkpt><trkpt lat="36.8358057" lon="-3.6656297"><ele>871.0</ele><time>2026-03-07T14:07:55.017Z</time></trkpt><trkpt lat="36.835722" lon="-3.6655642"><ele>871.0</ele><time>2026-03-07T14:07:56.047Z</time></trkpt><trkpt lat="36.8356284" lon="-3.6655235"><ele>871.0</ele><time>2026-03-07T14:07:57.005Z</time></trkpt><trkpt lat="36.8355161" lon="-3.6655042"><ele>871.0</ele><time>2026-03-07T14:07:58.007Z</time></trkpt><trkpt lat="36.8353847" lon="-3.6654992"><ele>871.0</ele><time>2026-03-07T14:07:59.005Z</time></trkpt><trkpt lat="36.8352499" lon="-3.6654936"><ele>870.75</ele><time>2026-03-07T14:07:59.991Z</time></trkpt><trkpt lat="36.8351151" lon="-3.6654887"><ele>870.5</ele><time>2026-03-07T14:08:01.004Z</time></trkpt><trkpt lat="36.8349696" lon="-3.6654902"><ele>870.25</ele><time>2026-03-07T14:08:02.003Z</time></trkpt><trkpt lat="36.8348157" lon="-3.6654935"><ele>870.0</ele><time>2026-03-07T14:08:02.991Z</time></trkpt><trkpt lat="36.8346724" lon="-3.6655061"><ele>870.0</ele><time>2026-03-07T14:08:04.001Z</time></trkpt><trkpt lat="36.8345533" lon="-3.6655141"><ele>870.0</ele><time>2026-03-07T14:08:04.997Z</time></trkpt><trkpt lat="36.8344363" lon="-3.6655234"><ele>870.0</ele><time>2026-03-07T14:08:05.997Z</time></trkpt><trkpt lat="36.8343278" lon="-3.6654923"><ele>870.0</ele><time>2026-03-07T14:08:07.005Z</time></trkpt><trkpt lat="36.8342173" lon="-3.6654483"><ele>870.0</ele><time>2026-03-07T14:08:08.01Z</time></trkpt><trkpt lat="36.834108" lon="-3.6654167"><ele>870.0</ele><time>2026-03-07T14:08:09.003Z</time></trkpt><trkpt lat="36.8340127" lon="-3.6654013"><ele>870.0</ele><time>2026-03-07T14:08:09.993Z</time></trkpt><trkpt lat="36.8339277" lon="-3.6653857"><ele>870.0</ele><time>2026-03-07T14:08:10.997Z</time></trkpt><trkpt lat="36.8338549" lon="-3.6653573"><ele>870.0</ele><time>2026-03-07T14:08:11.995Z</time></trkpt><trkpt lat="36.833744" lon="-3.6652977"><ele>875.4</ele><time>2026-03-07T14:08:14.006Z</time></trkpt><trkpt lat="36.8337108" lon="-3.6652271"><ele>880.8</ele><time>2026-03-07T14:08:15.007Z</time></trkpt><trkpt lat="36.8336965" lon="-3.6651098"><ele>886.2</ele><time>2026-03-07T14:08:15.992Z</time></trkpt><trkpt lat="36.8336911" lon="-3.6649792"><ele>891.6</ele><time>2026-03-07T14:08:17.001Z</time></trkpt><trkpt lat="36.8336879" lon="-3.6648598"><ele>897.0</ele><time>2026-03-07T14:08:18.008Z</time></trkpt><trkpt lat="36.8336698" lon="-3.6647351"><ele>897.0</ele><time>2026-03-07T14:08:18.991Z</time></trkpt><trkpt lat="36.8336434" lon="-3.6646205"><ele>897.0</ele><time>2026-03-07T14:08:19.999Z</time></trkpt><trkpt lat="36.8336073" lon="-3.6645425"><ele>897.0</ele><time>2026-03-07T14:08:20.994Z</time></trkpt><trkpt lat="36.8334978" lon="-3.6644688"><ele>897.0</ele><time>2026-03-07T14:08:23.014Z</time></trkpt><trkpt lat="36.8334194" lon="-3.664443"><ele>897.0</ele><time>2026-03-07T14:08:23.996Z</time></trkpt><trkpt lat="36.8333462" lon="-3.6643968"><ele>899.6</ele><time>2026-03-07T14:08:24.997Z</time></trkpt><trkpt lat="36.8332698" lon="-3.664334"><ele>902.2</ele><time>2026-03-07T14:08:26.011Z</time></trkpt><trkpt lat="36.8331862" lon="-3.6642469"><ele>904.8</ele><time>2026-03-07T14:08:27.005Z</time></trkpt><trkpt lat="36.8331003" lon="-3.6641675"><ele>907.4</ele><time>2026-03-07T14:08:27.997Z</time></trkpt><trkpt lat="36.8330167" lon="-3.6640964"><ele>910.0</ele><time>2026-03-07T14:08:29.01Z</time></trkpt><trkpt lat="36.8329343" lon="-3.6640568"><ele>910.0</ele><time>2026-03-07T14:08:30.01Z</time></trkpt><trkpt lat="36.8328392" lon="-3.6640683"><ele>910.0</ele><time>2026-03-07T14:08:31.013Z</time></trkpt><trkpt lat="36.8327425" lon="-3.6640871"><ele>910.0</ele><time>2026-03-07T14:08:32.009Z</time></trkpt><trkpt lat="36.8326461" lon="-3.6640997"><ele>910.0</ele><time>2026-03-07T14:08:33.012Z</time></trkpt><trkpt lat="36.8325575" lon="-3.6641093"><ele>910.0</ele><time>2026-03-07T14:08:34.006Z</time></trkpt><trkpt lat="36.8324824" lon="-3.6641159"><ele>909.6</ele><time>2026-03-07T14:08:35.003Z</time></trkpt><trkpt lat="36.8324171" lon="-3.664111"><ele>909.2</ele><time>2026-03-07T14:08:36Z</time></trkpt><trkpt lat="36.8323239" lon="-3.6640783"><ele>908.8</ele><time>2026-03-07T14:08:38.034Z</time></trkpt><trkpt lat="36.8323771" lon="-3.6640061"><ele>908.4</ele><time>2026-03-07T14:08:41.016Z</time></trkpt><trkpt lat="36.8324689" lon="-3.6639537"><ele>908.0</ele><time>2026-03-07T14:08:42Z</time></trkpt><trkpt lat="36.8325876" lon="-3.6638845"><ele>908.5</ele><time>2026-03-07T14:08:43.006Z</time></trkpt><trkpt lat="36.8327157" lon="-3.6638153"><ele>909.0</ele><time>2026-03-07T14:08:44.021Z</time></trkpt><trkpt lat="36.8328486" lon="-3.6637541"><ele>909.5</ele><time>2026-03-07T14:08:44.999Z</time></trkpt><trkpt lat="36.8329901" lon="-3.6637048"><ele>910.0</ele><time>2026-03-07T14:08:45.995Z</time></trkpt><trkpt lat="36.8331317" lon="-3.6636539"><ele>916.0</ele><time>2026-03-07T14:08:47.001Z</time></trkpt><trkpt lat="36.8332771" lon="-3.6635905"><ele>922.0</ele><time>2026-03-07T14:08:48.009Z</time></trkpt><trkpt lat="36.8334029" lon="-3.6635309"><ele>928.0</ele><time>2026-03-07T14:08:49.01Z</time></trkpt><trkpt lat="36.833523" lon="-3.6634943"><ele>934.0</ele><time>2026-03-07T14:08:50.005Z</time></trkpt><trkpt lat="36.8336404" lon="-3.6634846"><ele>936.25</ele><time>2026-03-07T14:08:51.002Z</time></trkpt><trkpt lat="36.8337535" lon="-3.6635148"><ele>938.5</ele><time>2026-03-07T14:08:52.008Z</time></trkpt><trkpt lat="36.8338781" lon="-3.6635658"><ele>940.75</ele><time>2026-03-07T14:08:52.999Z</time></trkpt><trkpt lat="36.8339971" lon="-3.6636344"><ele>943.0</ele><time>2026-03-07T14:08:54.003Z</time></trkpt><trkpt lat="36.8341162" lon="-3.663694"><ele>944.3333333333333</ele><time>2026-03-07T14:08:55Z</time></trkpt><trkpt lat="36.8342251" lon="-3.6637371"><ele>945.6666666666666</ele><time>2026-03-07T14:08:56.011Z</time></trkpt><trkpt lat="36.8343247" lon="-3.6637518"><ele>947.0</ele><time>2026-03-07T14:08:57.005Z</time></trkpt><trkpt lat="36.8344025" lon="-3.6637484"><ele>948.3333333333333</ele><time>2026-03-07T14:08:58.009Z</time></trkpt><trkpt lat="36.8344682" lon="-3.663708"><ele>949.6666666666666</ele><time>2026-03-07T14:08:59.002Z</time></trkpt><trkpt lat="36.8345186" lon="-3.6636478"><ele>951.0</ele><time>2026-03-07T14:08:59.992Z</time></trkpt><trkpt lat="36.8345544" lon="-3.6635516"><ele>951.0</ele><time>2026-03-07T14:09:01.013Z</time></trkpt><trkpt lat="36.8345645" lon="-3.6634441"><ele>950.9999999999999</ele><time>2026-03-07T14:09:02.074Z</time></trkpt><trkpt lat="36.8345651" lon="-3.6633395"><ele>950.9999999999999</ele><time>2026-03-07T14:09:03.002Z</time></trkpt><trkpt lat="36.8345742" lon="-3.6632541"><ele>951.0</ele><time>2026-03-07T14:09:04.012Z</time></trkpt><trkpt lat="36.834689" lon="-3.66317"><ele>951.0</ele><time>2026-03-07T14:09:05.995Z</time></trkpt><trkpt lat="36.8347811" lon="-3.6631509"><ele>951.0</ele><time>2026-03-07T14:09:06.981Z</time></trkpt><trkpt lat="36.8348726" lon="-3.6631536"><ele>951.0</ele><time>2026-03-07T14:09:08Z</time></trkpt><trkpt lat="36.8349608" lon="-3.6631463"><ele>951.0</ele><time>2026-03-07T14:09:09.002Z</time></trkpt><trkpt lat="36.8350265" lon="-3.6631356"><ele>951.0</ele><time>2026-03-07T14:09:09.99Z</time></trkpt><trkpt lat="36.8351066" lon="-3.6630613"><ele>951.0</ele><time>2026-03-07T14:09:11.995Z</time></trkpt><trkpt lat="36.8351166" lon="-3.6629473"><ele>951.0</ele><time>2026-03-07T14:09:14.013Z</time></trkpt><trkpt lat="36.8350265" lon="-3.6628818"><ele>951.0</ele><time>2026-03-07T14:09:16Z</time></trkpt><trkpt lat="36.8349532" lon="-3.6628722"><ele>950.9999999999999</ele><time>2026-03-07T14:09:17.001Z</time></trkpt><trkpt lat="36.834855" lon="-3.66289"><ele>950.9999999999999</ele><time>2026-03-07T14:09:17.987Z</time></trkpt><trkpt lat="36.8347362" lon="-3.6629126"><ele>951.0</ele><time>2026-03-07T14:09:19.01Z</time></trkpt><trkpt lat="36.8346113" lon="-3.662921"><ele>951.0</ele><time>2026-03-07T14:09:20.011Z</time></trkpt><trkpt lat="36.8344948" lon="-3.6629188"><ele>951.0</ele><time>2026-03-07T14:09:21.007Z</time></trkpt><trkpt lat="36.8344055" lon="-3.6629002"><ele>950.9999999999999</ele><time>2026-03-07T14:09:22Z</time></trkpt><trkpt lat="36.8343401" lon="-3.6628917"><ele>950.9999999999999</ele><time>2026-03-07T14:09:23.013Z</time></trkpt><trkpt lat="36.8343139" lon="-3.6627323"><ele>951.0</ele><time>2026-03-07T14:09:25.004Z</time></trkpt><trkpt lat="36.8343174" lon="-3.6626263"><ele>951.0</ele><time>2026-03-07T14:09:26.011Z</time></trkpt><trkpt lat="36.8342996" lon="-3.6625229"><ele>953.4</ele><time>2026-03-07T14:09:27.012Z</time></trkpt><trkpt lat="36.8342602" lon="-3.662446"><ele>955.8</ele><time>2026-03-07T14:09:27.993Z</time></trkpt><trkpt lat="36.8341901" lon="-3.6624081"><ele>958.1999999999999</ele><time>2026-03-07T14:09:28.997Z</time></trkpt><trkpt lat="36.8341055" lon="-3.6623977"><ele>960.5999999999999</ele><time>2026-03-07T14:09:29.993Z</time></trkpt><trkpt lat="36.8340012" lon="-3.6624189"><ele>963.0</ele><time>2026-03-07T14:09:31.007Z</time></trkpt><trkpt lat="36.8338789" lon="-3.6624493"><ele>963.0</ele><time>2026-03-07T14:09:32.008Z</time></trkpt><trkpt lat="36.8337399" lon="-3.662475"><ele>963.0</ele><time>2026-03-07T14:09:33.009Z</time></trkpt><trkpt lat="36.833594" lon="-3.6624706"><ele>963.0</ele><time>2026-03-07T14:09:33.996Z</time></trkpt><trkpt lat="36.8334486" lon="-3.6624678"><ele>963.0</ele><time>2026-03-07T14:09:34.997Z</time></trkpt><trkpt lat="36.8333014" lon="-3.662466"><ele>965.0</ele><time>2026-03-07T14:09:36.001Z</time></trkpt><trkpt lat="36.8331469" lon="-3.6624635"><ele>967.0</ele><time>2026-03-07T14:09:36.991Z</time></trkpt><trkpt lat="36.8329962" lon="-3.6624626"><ele>969.0</ele><time>2026-03-07T14:09:38.004Z</time></trkpt><trkpt lat="36.8328501" lon="-3.662464"><ele>969.0</ele><time>2026-03-07T14:09:39.02Z</time></trkpt><trkpt lat="36.8327083" lon="-3.6624778"><ele>969.0</ele><time>2026-03-07T14:09:40.018Z</time></trkpt><trkpt lat="36.8325746" lon="-3.6624811"><ele>969.0</ele><time>2026-03-07T14:09:41.002Z</time></trkpt><trkpt lat="36.8324495" lon="-3.662474"><ele>969.0</ele><time>2026-03-07T14:09:41.999Z</time></trkpt><trkpt lat="36.8323295" lon="-3.6624582"><ele>969.2</ele><time>2026-03-07T14:09:43.009Z</time></trkpt><trkpt lat="36.8322144" lon="-3.6624338"><ele>969.4000000000001</ele><time>2026-03-07T14:09:44.021Z</time></trkpt><trkpt lat="36.8321229" lon="-3.6623886"><ele>969.6</ele><time>2026-03-07T14:09:45.007Z</time></trkpt><trkpt lat="36.8320528" lon="-3.6623405"><ele>969.8</ele><time>2026-03-07T14:09:46.004Z</time></trkpt><trkpt lat="36.8319719" lon="-3.6622468"><ele>970.0</ele><time>2026-03-07T14:09:48.002Z</time></trkpt><trkpt lat="36.8320197" lon="-3.6621786"><ele>970.0</ele><time>2026-03-07T14:09:50.002Z</time></trkpt><trkpt lat="36.832108" lon="-3.6621837"><ele>970.0</ele><time>2026-03-07T14:09:50.982Z</time></trkpt><trkpt lat="36.8322164" lon="-3.6621904"><ele>970.0</ele><time>2026-03-07T14:09:52.001Z</time></trkpt><trkpt lat="36.8323444" lon="-3.6621906"><ele>970.0</ele><time>2026-03-07T14:09:52.996Z</time></trkpt><trkpt lat="36.8324634" lon="-3.6621842"><ele>970.0</ele><time>2026-03-07T14:09:54.005Z</time></trkpt><trkpt lat="36.8325755" lon="-3.6621764"><ele>969.8</ele><time>2026-03-07T14:09:55.017Z</time></trkpt><trkpt lat="36.8326756" lon="-3.6621707"><ele>969.6</ele><time>2026-03-07T14:09:55.998Z</time></trkpt><trkpt lat="36.8327649" lon="-3.662163"><ele>969.4000000000001</ele><time>2026-03-07T14:09:56.996Z</time></trkpt><trkpt lat="36.8328468" lon="-3.6621419"><ele>969.2</ele><time>2026-03-07T14:09:58.014Z</time></trkpt><trkpt lat="36.8329308" lon="-3.6620643"><ele>969.0</ele><time>2026-03-07T14:10:00.018Z</time></trkpt><trkpt lat="36.8329148" lon="-3.6619378"><ele>974.4000000000001</ele><time>2026-03-07T14:10:01.999Z</time></trkpt><trkpt lat="36.8328577" lon="-3.6618975"><ele>979.8000000000001</ele><time>2026-03-07T14:10:03.013Z</time></trkpt><trkpt lat="36.832771" lon="-3.6618623"><ele>985.1999999999999</ele><time>2026-03-07T14:10:04.008Z</time></trkpt><trkpt lat="36.8326719" lon="-3.6618157"><ele>990.5999999999999</ele><time>2026-03-07T14:10:04.999Z</time></trkpt><trkpt lat="36.8325628" lon="-3.661757"><ele>996.0</ele><time>2026-03-07T14:10:06.009Z</time></trkpt><trkpt lat="36.8324475" lon="-3.6616865"><ele>996.0</ele><time>2026-03-07T14:10:07Z</time></trkpt><trkpt lat="36.8323263" lon="-3.6615967"><ele>996.0</ele><time>2026-03-07T14:10:08.008Z</time></trkpt><trkpt lat="36.832207" lon="-3.6614836"><ele>996.0</ele><time>2026-03-07T14:10:09.002Z</time></trkpt><trkpt lat="36.832089" lon="-3.6613625"><ele>996.0</ele><time>2026-03-07T14:10:10.01Z</time></trkpt><trkpt lat="36.8319781" lon="-3.6612389"><ele>996.0</ele><time>2026-03-07T14:10:11Z</time></trkpt><trkpt lat="36.8318735" lon="-3.6611284"><ele>995.9999999999999</ele><time>2026-03-07T14:10:12.01Z</time></trkpt><trkpt lat="36.83179" lon="-3.6610326"><ele>995.9999999999999</ele><time>2026-03-07T14:10:13.01Z</time></trkpt><trkpt lat="36.8317166" lon="-3.6609491"><ele>996.0</ele><time>2026-03-07T14:10:14.001Z</time></trkpt><trkpt lat="36.8316658" lon="-3.6608498"><ele>996.0</ele><time>2026-03-07T14:10:14.997Z</time></trkpt><trkpt lat="36.8316422" lon="-3.6607333"><ele>996.0</ele><time>2026-03-07T14:10:15.999Z</time></trkpt><trkpt lat="36.8316572" lon="-3.6606055"><ele>996.0</ele><time>2026-03-07T14:10:17.001Z</time></trkpt><trkpt lat="36.8317017" lon="-3.6604643"><ele>996.0</ele><time>2026-03-07T14:10:18.003Z</time></trkpt><trkpt lat="36.831754" lon="-3.6603161"><ele>996.0</ele><time>2026-03-07T14:10:19.006Z</time></trkpt><trkpt lat="36.8317987" lon="-3.6601633"><ele>997.25</ele><time>2026-03-07T14:10:20.003Z</time></trkpt><trkpt lat="36.8318353" lon="-3.66"><ele>998.5</ele><time>2026-03-07T14:10:21Z</time></trkpt><trkpt lat="36.8318428" lon="-3.6598285"><ele>999.75</ele><time>2026-03-07T14:10:22.007Z</time></trkpt><trkpt lat="36.8318211" lon="-3.6596829"><ele>1001.0</ele><time>2026-03-07T14:10:22.997Z</time></trkpt><trkpt lat="36.8317815" lon="-3.6595246"><ele>1003.25</ele><time>2026-03-07T14:10:24.009Z</time></trkpt><trkpt lat="36.8317353" lon="-3.6593667"><ele>1005.5</ele><time>2026-03-07T14:10:25.004Z</time></trkpt><trkpt lat="36.8316839" lon="-3.6592016"><ele>1007.75</ele><time>2026-03-07T14:10:26Z</time></trkpt><trkpt lat="36.8316384" lon="-3.6590488"><ele>1010.0</ele><time>2026-03-07T14:10:27.017Z</time></trkpt><trkpt lat="36.8316184" lon="-3.6588933"><ele>1010.0</ele><time>2026-03-07T14:10:28.006Z</time></trkpt><trkpt lat="36.8316054" lon="-3.6587515"><ele>1010.0</ele><time>2026-03-07T14:10:29.01Z</time></trkpt><trkpt lat="36.8315868" lon="-3.6586246"><ele>1010.0</ele><time>2026-03-07T14:10:30.008Z</time></trkpt><trkpt lat="36.8315597" lon="-3.6585169"><ele>1010.0</ele><time>2026-03-07T14:10:31.016Z</time></trkpt><trkpt lat="36.8315118" lon="-3.658444"><ele>1010.0</ele><time>2026-03-07T14:10:32.002Z</time></trkpt><trkpt lat="36.8314211" lon="-3.6584203"><ele>1009.5</ele><time>2026-03-07T14:10:32.994Z</time></trkpt><trkpt lat="36.8312982" lon="-3.65841"><ele>1009.0</ele><time>2026-03-07T14:10:34.006Z</time></trkpt><trkpt lat="36.831169" lon="-3.6583801"><ele>1008.5</ele><time>2026-03-07T14:10:35.008Z</time></trkpt><trkpt lat="36.8310488" lon="-3.6583435"><ele>1008.0</ele><time>2026-03-07T14:10:36.011Z</time></trkpt><trkpt lat="36.830938" lon="-3.6582916"><ele>1008.0</ele><time>2026-03-07T14:10:37.015Z</time></trkpt><trkpt lat="36.8308485" lon="-3.6582323"><ele>1008.0</ele><time>2026-03-07T14:10:38.005Z</time></trkpt><trkpt lat="36.830785" lon="-3.6581622"><ele>1008.0</ele><time>2026-03-07T14:10:39.011Z</time></trkpt><trkpt lat="36.8307384" lon="-3.6580767"><ele>1008.0</ele><time>2026-03-07T14:10:40.009Z</time></trkpt><trkpt lat="36.8307352" lon="-3.657962"><ele>1008.0</ele><time>2026-03-07T14:10:41.005Z</time></trkpt><trkpt lat="36.8307078" lon="-3.6578209"><ele>1011.2</ele><time>2026-03-07T14:10:42.002Z</time></trkpt><trkpt lat="36.8306751" lon="-3.6577079"><ele>1014.4</ele><time>2026-03-07T14:10:43.02Z</time></trkpt><trkpt lat="36.8306032" lon="-3.6576353"><ele>1017.6000000000001</ele><time>2026-03-07T14:10:44.011Z</time></trkpt><trkpt lat="36.830502" lon="-3.6575798"><ele>1020.8000000000001</ele><time>2026-03-07T14:10:44.995Z</time></trkpt><trkpt lat="36.8303814" lon="-3.6575305"><ele>1024.0</ele><time>2026-03-07T14:10:46.009Z</time></trkpt><trkpt lat="36.8302684" lon="-3.6574756"><ele>1024.0</ele><time>2026-03-07T14:10:47Z</time></trkpt><trkpt lat="36.8301639" lon="-3.6574235"><ele>1024.0</ele><time>2026-03-07T14:10:48.001Z</time></trkpt><trkpt lat="36.8300749" lon="-3.6573664"><ele>1024.0</ele><time>2026-03-07T14:10:49.013Z</time></trkpt><trkpt lat="36.8299894" lon="-3.657295"><ele>1024.0</ele><time>2026-03-07T14:10:50.004Z</time></trkpt><trkpt lat="36.829922" lon="-3.6571772"><ele>1024.0</ele><time>2026-03-07T14:10:51.006Z</time></trkpt><trkpt lat="36.8298495" lon="-3.6570518"><ele>1024.5</ele><time>2026-03-07T14:10:52.004Z</time></trkpt><trkpt lat="36.8297569" lon="-3.6569144"><ele>1025.0</ele><time>2026-03-07T14:10:53.006Z</time></trkpt><trkpt lat="36.8296588" lon="-3.6567811"><ele>1025.5</ele><time>2026-03-07T14:10:53.998Z</time></trkpt><trkpt lat="36.8295706" lon="-3.6566517"><ele>1026.0</ele><time>2026-03-07T14:10:54.996Z</time></trkpt><trkpt lat="36.8294982" lon="-3.6565474"><ele>1026.0</ele><time>2026-03-07T14:10:56.013Z</time></trkpt><trkpt lat="36.8294424" lon="-3.6564572"><ele>1026.0</ele><time>2026-03-07T14:10:57.04Z</time></trkpt><trkpt lat="36.8294002" lon="-3.656378"><ele>1026.0</ele><time>2026-03-07T14:10:58.028Z</time></trkpt><trkpt lat="36.8293661" lon="-3.656302"><ele>1026.0</ele><time>2026-03-07T14:10:59.028Z</time></trkpt><trkpt lat="36.8293589" lon="-3.6562197"><ele>1026.0</ele><time>2026-03-07T14:11:00.016Z</time></trkpt><trkpt lat="36.8293603" lon="-3.6561238"><ele>1026.0</ele><time>2026-03-07T14:11:01.002Z</time></trkpt><trkpt lat="36.8293853" lon="-3.6560046"><ele>1027.2</ele><time>2026-03-07T14:11:02.006Z</time></trkpt><trkpt lat="36.8294163" lon="-3.6558805"><ele>1028.3999999999999</ele><time>2026-03-07T14:11:03.012Z</time></trkpt><trkpt lat="36.8294415" lon="-3.6557546"><ele>1029.6</ele><time>2026-03-07T14:11:03.996Z</time></trkpt><trkpt lat="36.8294523" lon="-3.6556319"><ele>1030.8</ele><time>2026-03-07T14:11:05.009Z</time></trkpt><trkpt lat="36.8294313" lon="-3.6555179"><ele>1032.0</ele><time>2026-03-07T14:11:05.993Z</time></trkpt><trkpt lat="36.8294048" lon="-3.6554071"><ele>1032.0</ele><time>2026-03-07T14:11:07.008Z</time></trkpt><trkpt lat="36.8293797" lon="-3.655315"><ele>1032.0</ele><time>2026-03-07T14:11:08.012Z</time></trkpt><trkpt lat="36.8293564" lon="-3.6552246"><ele>1032.0</ele><time>2026-03-07T14:11:10.004Z</time></trkpt><trkpt lat="36.8294481" lon="-3.6553154"><ele>1032.0</ele><time>2026-03-07T14:11:15.009Z</time></trkpt><trkpt lat="36.8294948" lon="-3.6554118"><ele>1032.0</ele><time>2026-03-07T14:11:16.027Z</time></trkpt><trkpt lat="36.8295145" lon="-3.6555192"><ele>1032.0</ele><time>2026-03-07T14:11:17.008Z</time></trkpt><trkpt lat="36.8295298" lon="-3.655631"><ele>1032.0</ele><time>2026-03-07T14:11:18.041Z</time></trkpt><trkpt lat="36.829522" lon="-3.65574"><ele>1032.0</ele><time>2026-03-07T14:11:19.004Z</time></trkpt><trkpt lat="36.8294877" lon="-3.6558615"><ele>1032.0</ele><time>2026-03-07T14:11:19.99Z</time></trkpt><trkpt lat="36.8294552" lon="-3.6559791"><ele>1032.0</ele><time>2026-03-07T14:11:21.003Z</time></trkpt><trkpt lat="36.8294357" lon="-3.6560751"><ele>1032.0</ele><time>2026-03-07T14:11:22.011Z</time></trkpt><trkpt lat="36.8294304" lon="-3.6561651"><ele>1032.0</ele><time>2026-03-07T14:11:23.007Z</time></trkpt><trkpt lat="36.829471" lon="-3.65624"><ele>1030.5</ele><time>2026-03-07T14:11:24.001Z</time></trkpt><trkpt lat="36.829544" lon="-3.6563116"><ele>1029.0</ele><time>2026-03-07T14:11:24.998Z</time></trkpt><trkpt lat="36.8296334" lon="-3.6563878"><ele>1027.5</ele><time>2026-03-07T14:11:26.002Z</time></trkpt><trkpt lat="36.8297359" lon="-3.6564684"><ele>1026.0</ele><time>2026-03-07T14:11:27.018Z</time></trkpt><trkpt lat="36.8298591" lon="-3.6565533"><ele>1026.0</ele><time>2026-03-07T14:11:28.002Z</time></trkpt><trkpt lat="36.8299724" lon="-3.656626"><ele>1026.0</ele><time>2026-03-07T14:11:29.044Z</time></trkpt><trkpt lat="36.8300656" lon="-3.656711"><ele>1026.0</ele><time>2026-03-07T14:11:30.01Z</time></trkpt><trkpt lat="36.8301459" lon="-3.6567945"><ele>1026.0</ele><time>2026-03-07T14:11:31.011Z</time></trkpt><trkpt lat="36.8302375" lon="-3.656852"><ele>1029.5</ele><time>2026-03-07T14:11:32.001Z</time></trkpt><trkpt lat="36.8303899" lon="-3.6569019"><ele>1033.0</ele><time>2026-03-07T14:11:32.996Z</time></trkpt><trkpt lat="36.8304789" lon="-3.6569102"><ele>1036.5</ele><time>2026-03-07T14:11:33.999Z</time></trkpt><trkpt lat="36.8305714" lon="-3.6568802"><ele>1040.0</ele><time>2026-03-07T14:11:35.009Z</time></trkpt><trkpt lat="36.8306671" lon="-3.6568045"><ele>1040.0</ele><time>2026-03-07T14:11:36Z</time></trkpt><trkpt lat="36.8307565" lon="-3.6567327"><ele>1040.0</ele><time>2026-03-07T14:11:37.001Z</time></trkpt><trkpt lat="36.830854" lon="-3.6566938"><ele>1040.0</ele><time>2026-03-07T14:11:38Z</time></trkpt><trkpt lat="36.8309492" lon="-3.6567048"><ele>1040.0</ele><time>2026-03-07T14:11:39.008Z</time></trkpt><trkpt lat="36.8310407" lon="-3.6567533"><ele>1040.0</ele><time>2026-03-07T14:11:40.004Z</time></trkpt><trkpt lat="36.8311249" lon="-3.6568365"><ele>1039.25</ele><time>2026-03-07T14:11:40.998Z</time></trkpt><trkpt lat="36.83122" lon="-3.6569324"><ele>1038.5</ele><time>2026-03-07T14:11:42.005Z</time></trkpt><trkpt lat="36.8313234" lon="-3.6570323"><ele>1037.75</ele><time>2026-03-07T14:11:43.001Z</time></trkpt><trkpt lat="36.8314267" lon="-3.6571319"><ele>1037.0</ele><time>2026-03-07T14:11:43.983Z</time></trkpt><trkpt lat="36.8315291" lon="-3.6572311"><ele>1037.0</ele><time>2026-03-07T14:11:45.006Z</time></trkpt><trkpt lat="36.8316219" lon="-3.6573175"><ele>1037.0</ele><time>2026-03-07T14:11:46.011Z</time></trkpt><trkpt lat="36.8317223" lon="-3.6574044"><ele>1037.0</ele><time>2026-03-07T14:11:46.995Z</time></trkpt><trkpt lat="36.8318214" lon="-3.657484"><ele>1037.0</ele><time>2026-03-07T14:11:48.026Z</time></trkpt><trkpt lat="36.8319151" lon="-3.6575737"><ele>1039.6</ele><time>2026-03-07T14:11:48.998Z</time></trkpt><trkpt lat="36.8320091" lon="-3.6576638"><ele>1042.2</ele><time>2026-03-07T14:11:49.991Z</time></trkpt><trkpt lat="36.8320982" lon="-3.657754"><ele>1044.8</ele><time>2026-03-07T14:11:51.011Z</time></trkpt><trkpt lat="36.8321801" lon="-3.6578466"><ele>1047.4</ele><time>2026-03-07T14:11:52.001Z</time></trkpt><trkpt lat="36.8322499" lon="-3.6579322"><ele>1050.0</ele><time>2026-03-07T14:11:53.007Z</time></trkpt><trkpt lat="36.8323175" lon="-3.6580288"><ele>1050.8</ele><time>2026-03-07T14:11:54.011Z</time></trkpt><trkpt lat="36.8323771" lon="-3.6581352"><ele>1051.6</ele><time>2026-03-07T14:11:55.053Z</time></trkpt><trkpt lat="36.8324325" lon="-3.6582439"><ele>1052.4</ele><time>2026-03-07T14:11:56.001Z</time></trkpt><trkpt lat="36.832489" lon="-3.6583642"><ele>1053.2</ele><time>2026-03-07T14:11:57.016Z</time></trkpt><trkpt lat="36.8325462" lon="-3.658491"><ele>1054.0</ele><time>2026-03-07T14:11:58.006Z</time></trkpt><trkpt lat="36.832609" lon="-3.6586302"><ele>1057.25</ele><time>2026-03-07T14:11:59.003Z</time></trkpt><trkpt lat="36.8326944" lon="-3.6587995"><ele>1060.5</ele><time>2026-03-07T14:12:00.031Z</time></trkpt><trkpt lat="36.8327527" lon="-3.6589381"><ele>1063.75</ele><time>2026-03-07T14:12:01.006Z</time></trkpt><trkpt lat="36.832814" lon="-3.6590798"><ele>1067.0</ele><time>2026-03-07T14:12:02.001Z</time></trkpt><trkpt lat="36.8328694" lon="-3.6592045"><ele>1067.0</ele><time>2026-03-07T14:12:03.005Z</time></trkpt><trkpt lat="36.8329225" lon="-3.6593037"><ele>1067.0</ele><time>2026-03-07T14:12:04.004Z</time></trkpt><trkpt lat="36.8329971" lon="-3.6593882"><ele>1067.0</ele><time>2026-03-07T14:12:05.011Z</time></trkpt><trkpt lat="36.8330824" lon="-3.6594608"><ele>1067.0</ele><time>2026-03-07T14:12:06.001Z</time></trkpt><trkpt lat="36.8331794" lon="-3.65952"><ele>1067.0</ele><time>2026-03-07T14:12:07.01Z</time></trkpt><trkpt lat="36.8332798" lon="-3.6595724"><ele>1066.8</ele><time>2026-03-07T14:12:08.004Z</time></trkpt><trkpt lat="36.8333792" lon="-3.6596112"><ele>1066.6</ele><time>2026-03-07T14:12:08.998Z</time></trkpt><trkpt lat="36.8334847" lon="-3.6596436"><ele>1066.3999999999999</ele><time>2026-03-07T14:12:09.998Z</time></trkpt><trkpt lat="36.833585" lon="-3.6596678"><ele>1066.2</ele><time>2026-03-07T14:12:11.012Z</time></trkpt><trkpt lat="36.8336719" lon="-3.659672"><ele>1066.0</ele><time>2026-03-07T14:12:12.008Z</time></trkpt><trkpt lat="36.8337557" lon="-3.6596703"><ele>1066.0</ele><time>2026-03-07T14:12:12.996Z</time></trkpt><trkpt lat="36.8338336" lon="-3.6596832"><ele>1066.0</ele><time>2026-03-07T14:12:14.004Z</time></trkpt><trkpt lat="36.8339387" lon="-3.6597646"><ele>1066.0</ele><time>2026-03-07T14:12:15.999Z</time></trkpt><trkpt lat="36.8339561" lon="-3.6598491"><ele>1066.0</ele><time>2026-03-07T14:12:17.01Z</time></trkpt><trkpt lat="36.8339864" lon="-3.6599294"><ele>1066.0</ele><time>2026-03-07T14:12:18.001Z</time></trkpt><trkpt lat="36.834028" lon="-3.66"><ele>1066.0</ele><time>2026-03-07T14:12:19Z</time></trkpt><trkpt lat="36.8340857" lon="-3.6600602"><ele>1066.0</ele><time>2026-03-07T14:12:20.009Z</time></trkpt><trkpt lat="36.8341591" lon="-3.6601082"><ele>1066.0</ele><time>2026-03-07T14:12:21.006Z</time></trkpt><trkpt lat="36.8342512" lon="-3.6601556"><ele>1066.0</ele><time>2026-03-07T14:12:21.994Z</time></trkpt><trkpt lat="36.8343532" lon="-3.6602087"><ele>1066.0</ele><time>2026-03-07T14:12:23.004Z</time></trkpt><trkpt lat="36.8344509" lon="-3.6602681"><ele>1066.0</ele><time>2026-03-07T14:12:24.001Z</time></trkpt><trkpt lat="36.8345487" lon="-3.660334"><ele>1062.3999999999999</ele><time>2026-03-07T14:12:25.005Z</time></trkpt><trkpt lat="36.8346483" lon="-3.6603795"><ele>1058.8</ele><time>2026-03-07T14:12:26.004Z</time></trkpt><trkpt lat="36.8347478" lon="-3.6604083"><ele>1055.1999999999998</ele><time>2026-03-07T14:12:27.01Z</time></trkpt><trkpt lat="36.8348434" lon="-3.6604444"><ele>1051.6</ele><time>2026-03-07T14:12:28.008Z</time></trkpt><trkpt lat="36.8349325" lon="-3.660502"><ele>1048.0</ele><time>2026-03-07T14:12:29.01Z</time></trkpt><trkpt lat="36.8350185" lon="-3.6605707"><ele>1048.0</ele><time>2026-03-07T14:12:30.006Z</time></trkpt><trkpt lat="36.8350934" lon="-3.6606373"><ele>1048.0</ele><time>2026-03-07T14:12:30.995Z</time></trkpt><trkpt lat="36.8351541" lon="-3.6606762"><ele>1048.0</ele><time>2026-03-07T14:12:31.996Z</time></trkpt><trkpt lat="36.8352819" lon="-3.6606524"><ele>1048.0</ele><time>2026-03-07T14:12:34.006Z</time></trkpt><trkpt lat="36.8353535" lon="-3.6605921"><ele>1048.0</ele><time>2026-03-07T14:12:34.998Z</time></trkpt><trkpt lat="36.8354228" lon="-3.6604998"><ele>1047.4</ele><time>2026-03-07T14:12:36.006Z</time></trkpt><trkpt lat="36.8354914" lon="-3.6603981"><ele>1046.8</ele><time>2026-03-07T14:12:37.002Z</time></trkpt><trkpt lat="36.8355674" lon="-3.6603204"><ele>1046.2</ele><time>2026-03-07T14:12:38.017Z</time></trkpt><trkpt lat="36.835653" lon="-3.6602979"><ele>1045.6</ele><time>2026-03-07T14:12:39.003Z</time></trkpt><trkpt lat="36.8357341" lon="-3.6603047"><ele>1045.0</ele><time>2026-03-07T14:12:40.001Z</time></trkpt><trkpt lat="36.8358219" lon="-3.6603248"><ele>1045.0</ele><time>2026-03-07T14:12:41.006Z</time></trkpt><trkpt lat="36.8359215" lon="-3.6603505"><ele>1045.0</ele><time>2026-03-07T14:12:42Z</time></trkpt><trkpt lat="36.8360305" lon="-3.6603773"><ele>1045.0</ele><time>2026-03-07T14:12:43.004Z</time></trkpt><trkpt lat="36.8361433" lon="-3.6603973"><ele>1045.0</ele><time>2026-03-07T14:12:44.01Z</time></trkpt><trkpt lat="36.8362454" lon="-3.660406"><ele>1045.0</ele><time>2026-03-07T14:12:45.005Z</time></trkpt><trkpt lat="36.8363461" lon="-3.6604019"><ele>1045.4</ele><time>2026-03-07T14:12:46.002Z</time></trkpt><trkpt lat="36.8364484" lon="-3.6603909"><ele>1045.8</ele><time>2026-03-07T14:12:46.997Z</time></trkpt><trkpt lat="36.8365548" lon="-3.6603775"><ele>1046.2</ele><time>2026-03-07T14:12:48.029Z</time></trkpt><trkpt lat="36.8366578" lon="-3.6603628"><ele>1046.6</ele><time>2026-03-07T14:12:49.004Z</time></trkpt><trkpt lat="36.8367558" lon="-3.6603486"><ele>1047.0</ele><time>2026-03-07T14:12:49.989Z</time></trkpt><trkpt lat="36.8368517" lon="-3.6603127"><ele>1047.0</ele><time>2026-03-07T14:12:51.005Z</time></trkpt><trkpt lat="36.8369302" lon="-3.6602366"><ele>1047.0</ele><time>2026-03-07T14:12:51.997Z</time></trkpt><trkpt lat="36.8369941" lon="-3.6601588"><ele>1047.0</ele><time>2026-03-07T14:12:52.995Z</time></trkpt><trkpt lat="36.837047" lon="-3.6600726"><ele>1047.0</ele><time>2026-03-07T14:12:54.012Z</time></trkpt><trkpt lat="36.8370862" lon="-3.6599749"><ele>1047.0</ele><time>2026-03-07T14:12:55.001Z</time></trkpt><trkpt lat="36.8371172" lon="-3.6598595"><ele>1047.0</ele><time>2026-03-07T14:12:55.998Z</time></trkpt><trkpt lat="36.8371451" lon="-3.6597244"><ele>1047.0</ele><time>2026-03-07T14:12:57.014Z</time></trkpt><trkpt lat="36.8371632" lon="-3.6595815"><ele>1047.0</ele><time>2026-03-07T14:12:58.007Z</time></trkpt><trkpt lat="36.8371772" lon="-3.6594296"><ele>1047.0</ele><time>2026-03-07T14:12:58.987Z</time></trkpt><trkpt lat="36.8371879" lon="-3.659257"><ele>1048.25</ele><time>2026-03-07T14:13:00.002Z</time></trkpt><trkpt lat="36.8371893" lon="-3.6590921"><ele>1049.5</ele><time>2026-03-07T14:13:01.009Z</time></trkpt><trkpt lat="36.8371822" lon="-3.6589518"><ele>1050.75</ele><time>2026-03-07T14:13:01.999Z</time></trkpt><trkpt lat="36.8371594" lon="-3.6588209"><ele>1052.0</ele><time>2026-03-07T14:13:02.993Z</time></trkpt><trkpt lat="36.8371279" lon="-3.6587016"><ele>1052.2</ele><time>2026-03-07T14:13:04.001Z</time></trkpt><trkpt lat="36.8370877" lon="-3.6585901"><ele>1052.4</ele><time>2026-03-07T14:13:05Z</time></trkpt><trkpt lat="36.8370234" lon="-3.6584849"><ele>1052.6</ele><time>2026-03-07T14:13:06.001Z</time></trkpt><trkpt lat="36.8369486" lon="-3.6583844"><ele>1052.8</ele><time>2026-03-07T14:13:07.002Z</time></trkpt><trkpt lat="36.836884" lon="-3.6582842"><ele>1053.0</ele><time>2026-03-07T14:13:07.993Z</time></trkpt><trkpt lat="36.8368527" lon="-3.658168"><ele>1053.0</ele><time>2026-03-07T14:13:09.01Z</time></trkpt><trkpt lat="36.8368526" lon="-3.6580547"><ele>1053.0</ele><time>2026-03-07T14:13:09.99Z</time></trkpt><trkpt lat="36.8368899" lon="-3.6579249"><ele>1053.0</ele><time>2026-03-07T14:13:10.996Z</time></trkpt><trkpt lat="36.8369536" lon="-3.6578027"><ele>1053.0</ele><time>2026-03-07T14:13:11.998Z</time></trkpt><trkpt lat="36.8370183" lon="-3.657669"><ele>1053.0</ele><time>2026-03-07T14:13:13.016Z</time></trkpt><trkpt lat="36.8370832" lon="-3.6575277"><ele>1055.25</ele><time>2026-03-07T14:13:14.018Z</time></trkpt><trkpt lat="36.83714" lon="-3.6573802"><ele>1057.5</ele><time>2026-03-07T14:13:15.007Z</time></trkpt><trkpt lat="36.8371895" lon="-3.657229"><ele>1059.75</ele><time>2026-03-07T14:13:15.997Z</time></trkpt><trkpt lat="36.8372353" lon="-3.6570678"><ele>1062.0</ele><time>2026-03-07T14:13:16.998Z</time></trkpt><trkpt lat="36.8372832" lon="-3.6569149"><ele>1064.8</ele><time>2026-03-07T14:13:18.016Z</time></trkpt><trkpt lat="36.8373197" lon="-3.6567877"><ele>1067.6</ele><time>2026-03-07T14:13:18.998Z</time></trkpt><trkpt lat="36.8373551" lon="-3.6566899"><ele>1070.3999999999999</ele><time>2026-03-07T14:13:20.059Z</time></trkpt><trkpt lat="36.8373849" lon="-3.6565945"><ele>1073.2</ele><time>2026-03-07T14:13:21.054Z</time></trkpt><trkpt lat="36.8374032" lon="-3.656493"><ele>1076.0</ele><time>2026-03-07T14:13:22.08Z</time></trkpt><trkpt lat="36.8373873" lon="-3.6563714"><ele>1076.0</ele><time>2026-03-07T14:13:23.063Z</time></trkpt><trkpt lat="36.8373744" lon="-3.6562285"><ele>1076.0</ele><time>2026-03-07T14:13:24.087Z</time></trkpt><trkpt lat="36.8373547" lon="-3.6560702"><ele>1076.0</ele><time>2026-03-07T14:13:25.069Z</time></trkpt><trkpt lat="36.8373418" lon="-3.6559126"><ele>1076.0</ele><time>2026-03-07T14:13:26.067Z</time></trkpt><trkpt lat="36.8373441" lon="-3.6557495"><ele>1078.2</ele><time>2026-03-07T14:13:27.072Z</time></trkpt><trkpt lat="36.8373481" lon="-3.6555937"><ele>1080.3999999999999</ele><time>2026-03-07T14:13:28.099Z</time></trkpt><trkpt lat="36.8373498" lon="-3.6554563"><ele>1082.6</ele><time>2026-03-07T14:13:29.025Z</time></trkpt><trkpt lat="36.8373604" lon="-3.6553473"><ele>1084.8</ele><time>2026-03-07T14:13:30.042Z</time></trkpt><trkpt lat="36.837403" lon="-3.6552439"><ele>1087.0</ele><time>2026-03-07T14:13:31.044Z</time></trkpt><trkpt lat="36.8374606" lon="-3.6551548"><ele>1087.6</ele><time>2026-03-07T14:13:32.042Z</time></trkpt><trkpt lat="36.8375363" lon="-3.6550744"><ele>1088.2</ele><time>2026-03-07T14:13:33.067Z</time></trkpt><trkpt lat="36.8376222" lon="-3.654997"><ele>1088.8</ele><time>2026-03-07T14:13:34.02Z</time></trkpt><trkpt lat="36.8377111" lon="-3.6549123"><ele>1089.4</ele><time>2026-03-07T14:13:35.011Z</time></trkpt><trkpt lat="36.8377994" lon="-3.6548309"><ele>1090.0</ele><time>2026-03-07T14:13:36.006Z</time></trkpt><trkpt lat="36.837885" lon="-3.6547603"><ele>1090.0</ele><time>2026-03-07T14:13:37.052Z</time></trkpt><trkpt lat="36.8379855" lon="-3.6547413"><ele>1090.0</ele><time>2026-03-07T14:13:38.056Z</time></trkpt><trkpt lat="36.8380807" lon="-3.6547967"><ele>1090.0</ele><time>2026-03-07T14:13:39.059Z</time></trkpt><trkpt lat="36.8381679" lon="-3.6548806"><ele>1090.0</ele><time>2026-03-07T14:13:40.048Z</time></trkpt><trkpt lat="36.8382552" lon="-3.6549686"><ele>1090.0</ele><time>2026-03-07T14:13:41.067Z</time></trkpt><trkpt lat="36.8383532" lon="-3.6550481"><ele>1090.0</ele><time>2026-03-07T14:13:42.035Z</time></trkpt><trkpt lat="36.8384527" lon="-3.6551175"><ele>1090.0</ele><time>2026-03-07T14:13:43.057Z</time></trkpt><trkpt lat="36.8385582" lon="-3.6551845"><ele>1090.0</ele><time>2026-03-07T14:13:44.071Z</time></trkpt><trkpt lat="36.8386679" lon="-3.655243"><ele>1090.0</ele><time>2026-03-07T14:13:45.072Z</time></trkpt><trkpt lat="36.8387723" lon="-3.6552915"><ele>1089.8</ele><time>2026-03-07T14:13:46.067Z</time></trkpt><trkpt lat="36.8388709" lon="-3.6553262"><ele>1089.6</ele><time>2026-03-07T14:13:47.042Z</time></trkpt><trkpt lat="36.8389686" lon="-3.6553408"><ele>1089.4</ele><time>2026-03-07T14:13:48.056Z</time></trkpt><trkpt lat="36.8390737" lon="-3.655314"><ele>1089.2</ele><time>2026-03-07T14:13:49.034Z</time></trkpt><trkpt lat="36.8391806" lon="-3.6552764"><ele>1089.0</ele><time>2026-03-07T14:13:49.991Z</time></trkpt><trkpt lat="36.8393032" lon="-3.6552411"><ele>1092.0</ele><time>2026-03-07T14:13:51.054Z</time></trkpt><trkpt lat="36.8394294" lon="-3.6552125"><ele>1095.0</ele><time>2026-03-07T14:13:52.008Z</time></trkpt><trkpt lat="36.8395583" lon="-3.6551944"><ele>1098.0</ele><time>2026-03-07T14:13:52.998Z</time></trkpt><trkpt lat="36.8396934" lon="-3.6551843"><ele>1101.0</ele><time>2026-03-07T14:13:54.003Z</time></trkpt><trkpt lat="36.8398229" lon="-3.655173"><ele>1101.0</ele><time>2026-03-07T14:13:55.007Z</time></trkpt><trkpt lat="36.8399455" lon="-3.6551399"><ele>1101.0</ele><time>2026-03-07T14:13:56.012Z</time></trkpt><trkpt lat="36.8400487" lon="-3.6550798"><ele>1101.0</ele><time>2026-03-07T14:13:57.003Z</time></trkpt><trkpt lat="36.8401419" lon="-3.6550053"><ele>1101.0</ele><time>2026-03-07T14:13:58.011Z</time></trkpt><trkpt lat="36.8402363" lon="-3.6549434"><ele>1100.75</ele><time>2026-03-07T14:13:59.002Z</time></trkpt><trkpt lat="36.840341" lon="-3.6549152"><ele>1100.5</ele><time>2026-03-07T14:14:00.011Z</time></trkpt><trkpt lat="36.8404597" lon="-3.6549339"><ele>1100.25</ele><time>2026-03-07T14:14:01.018Z</time></trkpt><trkpt lat="36.8405833" lon="-3.6549684"><ele>1100.0</ele><time>2026-03-07T14:14:01.996Z</time></trkpt><trkpt lat="36.8406931" lon="-3.6550017"><ele>1100.0</ele><time>2026-03-07T14:14:03.015Z</time></trkpt><trkpt lat="36.8407932" lon="-3.6550331"><ele>1100.0</ele><time>2026-03-07T14:14:03.997Z</time></trkpt><trkpt lat="36.8408714" lon="-3.6550568"><ele>1100.0</ele><time>2026-03-07T14:14:05.016Z</time></trkpt><trkpt lat="36.8409416" lon="-3.6550645"><ele>1100.0</ele><time>2026-03-07T14:14:05.991Z</time></trkpt><trkpt lat="36.8410028" lon="-3.6550358"><ele>1100.0</ele><time>2026-03-07T14:14:06.997Z</time></trkpt><trkpt lat="36.8410417" lon="-3.6549732"><ele>1100.0</ele><time>2026-03-07T14:14:08.005Z</time></trkpt><trkpt lat="36.8410748" lon="-3.654903"><ele>1100.0</ele><time>2026-03-07T14:14:08.999Z</time></trkpt><trkpt lat="36.8410958" lon="-3.6548176"><ele>1097.2</ele><time>2026-03-07T14:14:10Z</time></trkpt><trkpt lat="36.8410903" lon="-3.6547189"><ele>1094.4</ele><time>2026-03-07T14:14:11.006Z</time></trkpt><trkpt lat="36.8410598" lon="-3.6546052"><ele>1091.6</ele><time>2026-03-07T14:14:12.009Z</time></trkpt><trkpt lat="36.8410309" lon="-3.6544865"><ele>1088.8</ele><time>2026-03-07T14:14:12.999Z</time></trkpt><trkpt lat="36.8410073" lon="-3.6543688"><ele>1086.0</ele><time>2026-03-07T14:14:13.994Z</time></trkpt><trkpt lat="36.8409973" lon="-3.6542483"><ele>1083.8333333333333</ele><time>2026-03-07T14:14:14.999Z</time></trkpt><trkpt lat="36.8409951" lon="-3.6541345"><ele>1081.6666666666667</ele><time>2026-03-07T14:14:16.012Z</time></trkpt><trkpt lat="36.8409986" lon="-3.6540276"><ele>1079.5</ele><time>2026-03-07T14:14:16.998Z</time></trkpt><trkpt lat="36.8410075" lon="-3.6539225"><ele>1077.3333333333335</ele><time>2026-03-07T14:14:17.989Z</time></trkpt><trkpt lat="36.8410189" lon="-3.653815"><ele>1075.1666666666667</ele><time>2026-03-07T14:14:19.006Z</time></trkpt><trkpt lat="36.8410478" lon="-3.6537138"><ele>1073.0</ele><time>2026-03-07T14:14:20.01Z</time></trkpt><trkpt lat="36.8410859" lon="-3.6536185"><ele>1073.0</ele><time>2026-03-07T14:14:20.988Z</time></trkpt><trkpt lat="36.8411306" lon="-3.6535312"><ele>1073.0</ele><time>2026-03-07T14:14:22.032Z</time></trkpt><trkpt lat="36.8411788" lon="-3.653444"><ele>1073.0</ele><time>2026-03-07T14:14:22.993Z</time></trkpt><trkpt lat="36.8412289" lon="-3.6533543"><ele>1073.0</ele><time>2026-03-07T14:14:24.003Z</time></trkpt><trkpt lat="36.8412819" lon="-3.6532627"><ele>1073.0</ele><time>2026-03-07T14:14:25.021Z</time></trkpt><trkpt lat="36.8413402" lon="-3.6531692"><ele>1073.0</ele><time>2026-03-07T14:14:26.008Z</time></trkpt><trkpt lat="36.841415" lon="-3.6530827"><ele>1073.0</ele><time>2026-03-07T14:14:27.008Z</time></trkpt><trkpt lat="36.8414907" lon="-3.6530144"><ele>1073.0</ele><time>2026-03-07T14:14:28.056Z</time></trkpt><trkpt lat="36.841575" lon="-3.6529471"><ele>1073.0</ele><time>2026-03-07T14:14:29.006Z</time></trkpt><trkpt lat="36.8416628" lon="-3.652887"><ele>1073.0</ele><time>2026-03-07T14:14:29.995Z</time></trkpt><trkpt lat="36.8417576" lon="-3.652853"><ele>1073.0</ele><time>2026-03-07T14:14:30.998Z</time></trkpt><trkpt lat="36.8418601" lon="-3.6528391"><ele>1071.2</ele><time>2026-03-07T14:14:32.004Z</time></trkpt><trkpt lat="36.8419643" lon="-3.6528178"><ele>1069.4</ele><time>2026-03-07T14:14:33.005Z</time></trkpt><trkpt lat="36.8420778" lon="-3.6527977"><ele>1067.6000000000001</ele><time>2026-03-07T14:14:34.007Z</time></trkpt><trkpt lat="36.8421818" lon="-3.6527746"><ele>1065.8</ele><time>2026-03-07T14:14:34.994Z</time></trkpt><trkpt lat="36.8422633" lon="-3.6527296"><ele>1064.0</ele><time>2026-03-07T14:14:36.02Z</time></trkpt><trkpt lat="36.8423295" lon="-3.6526729"><ele>1064.0</ele><time>2026-03-07T14:14:37.031Z</time></trkpt><trkpt lat="36.8423775" lon="-3.6526042"><ele>1064.0</ele><time>2026-03-07T14:14:38.004Z</time></trkpt><trkpt lat="36.8424087" lon="-3.6525187"><ele>1064.0</ele><time>2026-03-07T14:14:38.991Z</time></trkpt><trkpt lat="36.8424231" lon="-3.6524336"><ele>1064.0</ele><time>2026-03-07T14:14:40.01Z</time></trkpt><trkpt lat="36.8424054" lon="-3.652348"><ele>1064.0</ele><time>2026-03-07T14:14:41.009Z</time></trkpt><trkpt lat="36.84237" lon="-3.6522557"><ele>1064.0</ele><time>2026-03-07T14:14:42.001Z</time></trkpt><trkpt lat="36.8423332" lon="-3.6521562"><ele>1064.0</ele><time>2026-03-07T14:14:43.02Z</time></trkpt><trkpt lat="36.8422994" lon="-3.6520651"><ele>1064.0</ele><time>2026-03-07T14:14:44.001Z</time></trkpt><trkpt lat="36.8422648" lon="-3.6519745"><ele>1064.0</ele><time>2026-03-07T14:14:45.005Z</time></trkpt><trkpt lat="36.8422312" lon="-3.6518843"><ele>1064.0</ele><time>2026-03-07T14:14:46.002Z</time></trkpt><trkpt lat="36.8422039" lon="-3.6518003"><ele>1064.0</ele><time>2026-03-07T14:14:47.01Z</time></trkpt><trkpt lat="36.8421388" lon="-3.6516857"><ele>1064.0</ele><time>2026-03-07T14:14:49.008Z</time></trkpt><trkpt lat="36.8420738" lon="-3.6516682"><ele>1062.6666666666667</ele><time>2026-03-07T14:14:50.003Z</time></trkpt><trkpt lat="36.8419974" lon="-3.6516575"><ele>1061.3333333333335</ele><time>2026-03-07T14:14:51.007Z</time></trkpt><trkpt lat="36.8419174" lon="-3.6516535"><ele>1060.0</ele><time>2026-03-07T14:14:51.999Z</time></trkpt><trkpt lat="36.8418353" lon="-3.6516487"><ele>1058.6666666666667</ele><time>2026-03-07T14:14:53.006Z</time></trkpt><trkpt lat="36.8417554" lon="-3.6516471"><ele>1057.3333333333333</ele><time>2026-03-07T14:14:54.01Z</time></trkpt><trkpt lat="36.8416781" lon="-3.6516475"><ele>1056.0</ele><time>2026-03-07T14:14:55.01Z</time></trkpt><trkpt lat="36.8416057" lon="-3.6516715"><ele>1055.142857142857</ele><time>2026-03-07T14:14:56.011Z</time></trkpt><trkpt lat="36.8415422" lon="-3.6517096"><ele>1054.2857142857142</ele><time>2026-03-07T14:14:57.017Z</time></trkpt><trkpt lat="36.8414803" lon="-3.6517646"><ele>1053.4285714285716</ele><time>2026-03-07T14:14:58.014Z</time></trkpt><trkpt lat="36.841434" lon="-3.6518248"><ele>1052.5714285714284</ele><time>2026-03-07T14:14:59.001Z</time></trkpt><trkpt lat="36.8413945" lon="-3.651913"><ele>1051.7142857142858</ele><time>2026-03-07T14:15:00.059Z</time></trkpt><trkpt lat="36.8413566" lon="-3.6519978"><ele>1050.857142857143</ele><time>2026-03-07T14:15:01.022Z</time></trkpt><trkpt lat="36.8413078" lon="-3.6520595"><ele>1050.0</ele><time>2026-03-07T14:15:02.003Z</time></trkpt><trkpt lat="36.841255" lon="-3.6521043"><ele>1050.0</ele><time>2026-03-07T14:15:03.004Z</time></trkpt><trkpt lat="36.8411412" lon="-3.6521274"><ele>1050.0</ele><time>2026-03-07T14:15:05.008Z</time></trkpt><trkpt lat="36.8410473" lon="-3.6520468"><ele>1050.0</ele><time>2026-03-07T14:15:06.999Z</time></trkpt><trkpt lat="36.8410319" lon="-3.6519655"><ele>1050.0</ele><time>2026-03-07T14:15:08.006Z</time></trkpt><trkpt lat="36.8410028" lon="-3.6518859"><ele>1050.0</ele><time>2026-03-07T14:15:09.005Z</time></trkpt><trkpt lat="36.8409632" lon="-3.6518139"><ele>1050.0</ele><time>2026-03-07T14:15:10.003Z</time></trkpt><trkpt lat="36.8409172" lon="-3.6517212"><ele>1048.2</ele><time>2026-03-07T14:15:11.007Z</time></trkpt><trkpt lat="36.8408859" lon="-3.6516137"><ele>1046.4</ele><time>2026-03-07T14:15:12.009Z</time></trkpt><trkpt lat="36.8408604" lon="-3.651482"><ele>1044.6</ele><time>2026-03-07T14:15:13.02Z</time></trkpt><trkpt lat="36.8408408" lon="-3.651367"><ele>1042.8</ele><time>2026-03-07T14:15:14.011Z</time></trkpt><trkpt lat="36.8408093" lon="-3.6512769"><ele>1041.0</ele><time>2026-03-07T14:15:14.995Z</time></trkpt><trkpt lat="36.8407564" lon="-3.6511792"><ele>1037.3999999999999</ele><time>2026-03-07T14:15:16.015Z</time></trkpt><trkpt lat="36.8406886" lon="-3.6510893"><ele>1033.8</ele><time>2026-03-07T14:15:16.995Z</time></trkpt><trkpt lat="36.8406264" lon="-3.6510056"><ele>1030.1999999999998</ele><time>2026-03-07T14:15:17.999Z</time></trkpt><trkpt lat="36.8405647" lon="-3.6509242"><ele>1026.6</ele><time>2026-03-07T14:15:19.002Z</time></trkpt><trkpt lat="36.8405033" lon="-3.650852"><ele>1023.0</ele><time>2026-03-07T14:15:20.012Z</time></trkpt><trkpt lat="36.8404359" lon="-3.6507867"><ele>1023.0</ele><time>2026-03-07T14:15:21.01Z</time></trkpt><trkpt lat="36.8403696" lon="-3.6507288"><ele>1023.0</ele><time>2026-03-07T14:15:22.004Z</time></trkpt><trkpt lat="36.8402989" lon="-3.6506712"><ele>1023.0</ele><time>2026-03-07T14:15:23.003Z</time></trkpt><trkpt lat="36.8402183" lon="-3.6506272"><ele>1023.0</ele><time>2026-03-07T14:15:24.012Z</time></trkpt><trkpt lat="36.8401379" lon="-3.6505958"><ele>1023.0</ele><time>2026-03-07T14:15:24.998Z</time></trkpt><trkpt lat="36.8400684" lon="-3.6505823"><ele>1023.0</ele><time>2026-03-07T14:15:26.007Z</time></trkpt><trkpt lat="36.8400006" lon="-3.6505775"><ele>1022.6666666666666</ele><time>2026-03-07T14:15:27.011Z</time></trkpt><trkpt lat="36.8399338" lon="-3.6506009"><ele>1022.3333333333333</ele><time>2026-03-07T14:15:28.007Z</time></trkpt><trkpt lat="36.8398815" lon="-3.650669"><ele>1022.0</ele><time>2026-03-07T14:15:29.008Z</time></trkpt><trkpt lat="36.8398459" lon="-3.6507603"><ele>1021.6666666666666</ele><time>2026-03-07T14:15:30.006Z</time></trkpt><trkpt lat="36.8398013" lon="-3.6508697"><ele>1021.3333333333333</ele><time>2026-03-07T14:15:30.996Z</time></trkpt><trkpt lat="36.8397557" lon="-3.6509821"><ele>1021.0</ele><time>2026-03-07T14:15:32Z</time></trkpt><trkpt lat="36.8397147" lon="-3.6510966"><ele>1023.5999999999999</ele><time>2026-03-07T14:15:33.01Z</time></trkpt><trkpt lat="36.8396914" lon="-3.6512189"><ele>1026.1999999999998</ele><time>2026-03-07T14:15:34.01Z</time></trkpt><trkpt lat="36.8396741" lon="-3.6513372"><ele>1028.8000000000002</ele><time>2026-03-07T14:15:35.007Z</time></trkpt><trkpt lat="36.8396629" lon="-3.6514513"><ele>1031.4</ele><time>2026-03-07T14:15:36.006Z</time></trkpt><trkpt lat="36.8396655" lon="-3.6515557"><ele>1034.0</ele><time>2026-03-07T14:15:37.019Z</time></trkpt><trkpt lat="36.8396374" lon="-3.6516564"><ele>1034.0</ele><time>2026-03-07T14:15:39.01Z</time></trkpt><trkpt lat="36.8395613" lon="-3.6515842"><ele>1034.0</ele><time>2026-03-07T14:15:41.01Z</time></trkpt><trkpt lat="36.8395343" lon="-3.6515097"><ele>1034.0</ele><time>2026-03-07T14:15:42.005Z</time></trkpt><trkpt lat="36.839508" lon="-3.6514051"><ele>1034.0</ele><time>2026-03-07T14:15:43.004Z</time></trkpt><trkpt lat="36.8394877" lon="-3.6512534"><ele>1034.0</ele><time>2026-03-07T14:15:44.01Z</time></trkpt><trkpt lat="36.8394937" lon="-3.6510969"><ele>1031.8333333333335</ele><time>2026-03-07T14:15:45.008Z</time></trkpt><trkpt lat="36.8394968" lon="-3.650959"><ele>1029.6666666666667</ele><time>2026-03-07T14:15:45.99Z</time></trkpt><trkpt lat="36.8394997" lon="-3.6508341"><ele>1027.5</ele><time>2026-03-07T14:15:47.01Z</time></trkpt><trkpt lat="36.8395011" lon="-3.6507259"><ele>1025.3333333333333</ele><time>2026-03-07T14:15:48.008Z</time></trkpt><trkpt lat="36.8395018" lon="-3.6506297"><ele>1023.1666666666666</ele><time>2026-03-07T14:15:49.008Z</time></trkpt><trkpt lat="36.8395037" lon="-3.6505454"><ele>1021.0</ele><time>2026-03-07T14:15:50.005Z</time></trkpt><trkpt lat="36.8395106" lon="-3.6503917"><ele>1020.9999999999999</ele><time>2026-03-07T14:15:52.001Z</time></trkpt><trkpt lat="36.8395149" lon="-3.6503132"><ele>1021.0</ele><time>2026-03-07T14:15:53.02Z</time></trkpt><trkpt lat="36.8395276" lon="-3.6502343"><ele>1021.0</ele><time>2026-03-07T14:15:54.008Z</time></trkpt><trkpt lat="36.8395841" lon="-3.6501402"><ele>1021.0</ele><time>2026-03-07T14:15:56.006Z</time></trkpt><trkpt lat="36.8396651" lon="-3.6500992"><ele>1020.9999999999999</ele><time>2026-03-07T14:15:58.012Z</time></trkpt><trkpt lat="36.8397544" lon="-3.6499698"><ele>1021.0</ele><time>2026-03-07T14:15:59.995Z</time></trkpt><trkpt lat="36.8397957" lon="-3.6498929"><ele>1016.0</ele><time>2026-03-07T14:16:01.022Z</time></trkpt><trkpt lat="36.839836" lon="-3.6498232"><ele>1010.9999999999999</ele><time>2026-03-07T14:16:01.997Z</time></trkpt><trkpt lat="36.8399098" lon="-3.6497439"><ele>1005.9999999999999</ele><time>2026-03-07T14:16:03.997Z</time></trkpt><trkpt lat="36.8400373" lon="-3.6497996"><ele>1001.0</ele><time>2026-03-07T14:16:05.996Z</time></trkpt><trkpt lat="36.8401331" lon="-3.6498768"><ele>996.0</ele><time>2026-03-07T14:16:07.017Z</time></trkpt><trkpt lat="36.8402154" lon="-3.6499239"><ele>994.5999999999999</ele><time>2026-03-07T14:16:08.011Z</time></trkpt><trkpt lat="36.8403031" lon="-3.6499532"><ele>993.1999999999999</ele><time>2026-03-07T14:16:09.008Z</time></trkpt><trkpt lat="36.8403909" lon="-3.649981"><ele>991.8000000000001</ele><time>2026-03-07T14:16:10.01Z</time></trkpt><trkpt lat="36.8404853" lon="-3.6500067"><ele>990.4000000000001</ele><time>2026-03-07T14:16:11.009Z</time></trkpt><trkpt lat="36.8405923" lon="-3.6500838"><ele>989.0</ele><time>2026-03-07T14:16:12.003Z</time></trkpt><trkpt lat="36.840674" lon="-3.6501659"><ele>989.0</ele><time>2026-03-07T14:16:13Z</time></trkpt><trkpt lat="36.8407453" lon="-3.6502372"><ele>989.0000000000001</ele><time>2026-03-07T14:16:13.998Z</time></trkpt><trkpt lat="36.8407999" lon="-3.6503076"><ele>989.0000000000001</ele><time>2026-03-07T14:16:15.005Z</time></trkpt><trkpt lat="36.840845" lon="-3.6503701"><ele>989.0</ele><time>2026-03-07T14:16:16.001Z</time></trkpt><trkpt lat="36.840932" lon="-3.6504496"><ele>989.0</ele><time>2026-03-07T14:16:18.007Z</time></trkpt><trkpt lat="36.8410377" lon="-3.6504286"><ele>990.1666666666667</ele><time>2026-03-07T14:16:20.005Z</time></trkpt><trkpt lat="36.8411119" lon="-3.6503124"><ele>991.3333333333334</ele><time>2026-03-07T14:16:22.008Z</time></trkpt><trkpt lat="36.8411599" lon="-3.6502584"><ele>992.5</ele><time>2026-03-07T14:16:23.005Z</time></trkpt><trkpt lat="36.8412184" lon="-3.6502173"><ele>993.6666666666667</ele><time>2026-03-07T14:16:24.009Z</time></trkpt><trkpt lat="36.8412821" lon="-3.6501966"><ele>994.8333333333334</ele><time>2026-03-07T14:16:24.997Z</time></trkpt><trkpt lat="36.8413465" lon="-3.6501883"><ele>996.0</ele><time>2026-03-07T14:16:26.013Z</time></trkpt><trkpt lat="36.8414134" lon="-3.6502149"><ele>996.0</ele><time>2026-03-07T14:16:27.024Z</time></trkpt><trkpt lat="36.8414875" lon="-3.6502455"><ele>996.0</ele><time>2026-03-07T14:16:28.002Z</time></trkpt><trkpt lat="36.841563" lon="-3.6502704"><ele>996.0</ele><time>2026-03-07T14:16:29.004Z</time></trkpt><trkpt lat="36.841639" lon="-3.650294"><ele>996.0</ele><time>2026-03-07T14:16:30.017Z</time></trkpt><trkpt lat="36.8417041" lon="-3.6503172"><ele>996.0</ele><time>2026-03-07T14:16:31.004Z</time></trkpt><trkpt lat="36.841813" lon="-3.650337"><ele>996.0</ele><time>2026-03-07T14:16:33.005Z</time></trkpt><trkpt lat="36.8419001" lon="-3.6502463"><ele>1000.4</ele><time>2026-03-07T14:16:35.001Z</time></trkpt><trkpt lat="36.8419078" lon="-3.6501475"><ele>1004.8</ele><time>2026-03-07T14:16:36.012Z</time></trkpt><trkpt lat="36.8419378" lon="-3.6500185"><ele>1009.1999999999999</ele><time>2026-03-07T14:16:37.006Z</time></trkpt><trkpt lat="36.841976" lon="-3.6499016"><ele>1013.5999999999999</ele><time>2026-03-07T14:16:38.012Z</time></trkpt><trkpt lat="36.8420298" lon="-3.649797"><ele>1018.0</ele><time>2026-03-07T14:16:39.004Z</time></trkpt><trkpt lat="36.8420868" lon="-3.6497032"><ele>1018.0</ele><time>2026-03-07T14:16:39.996Z</time></trkpt><trkpt lat="36.8421613" lon="-3.6496362"><ele>1018.0</ele><time>2026-03-07T14:16:41.005Z</time></trkpt><trkpt lat="36.8422511" lon="-3.6495675"><ele>1018.0</ele><time>2026-03-07T14:16:41.993Z</time></trkpt><trkpt lat="36.8423326" lon="-3.6495133"><ele>1018.0</ele><time>2026-03-07T14:16:43.004Z</time></trkpt><trkpt lat="36.8424105" lon="-3.6494667"><ele>1018.0</ele><time>2026-03-07T14:16:43.998Z</time></trkpt><trkpt lat="36.8424991" lon="-3.6494482"><ele>1015.4</ele><time>2026-03-07T14:16:45.008Z</time></trkpt><trkpt lat="36.8425911" lon="-3.6494446"><ele>1012.8</ele><time>2026-03-07T14:16:46.001Z</time></trkpt><trkpt lat="36.8426905" lon="-3.6494271"><ele>1010.2</ele><time>2026-03-07T14:16:47.003Z</time></trkpt><trkpt lat="36.8427941" lon="-3.649393"><ele>1007.6</ele><time>2026-03-07T14:16:48.015Z</time></trkpt><trkpt lat="36.8428963" lon="-3.6493537"><ele>1005.0</ele><time>2026-03-07T14:16:49.002Z</time></trkpt><trkpt lat="36.8430026" lon="-3.6492984"><ele>1005.0</ele><time>2026-03-07T14:16:50.007Z</time></trkpt><trkpt lat="36.8431015" lon="-3.6492304"><ele>1005.0</ele><time>2026-03-07T14:16:51.009Z</time></trkpt><trkpt lat="36.8431937" lon="-3.6491499"><ele>1005.0</ele><time>2026-03-07T14:16:52.005Z</time></trkpt><trkpt lat="36.8432846" lon="-3.6490685"><ele>1005.0</ele><time>2026-03-07T14:16:53.001Z</time></trkpt><trkpt lat="36.8433641" lon="-3.6489865"><ele>1005.0</ele><time>2026-03-07T14:16:54Z</time></trkpt><trkpt lat="36.843437" lon="-3.6489065"><ele>1003.4</ele><time>2026-03-07T14:16:55Z</time></trkpt><trkpt lat="36.8435112" lon="-3.648828"><ele>1001.8</ele><time>2026-03-07T14:16:56.007Z</time></trkpt><trkpt lat="36.8435965" lon="-3.6487487"><ele>1000.2</ele><time>2026-03-07T14:16:57.027Z</time></trkpt><trkpt lat="36.8436912" lon="-3.6486675"><ele>998.6</ele><time>2026-03-07T14:16:58.007Z</time></trkpt><trkpt lat="36.8437829" lon="-3.6485892"><ele>997.0</ele><time>2026-03-07T14:16:59.01Z</time></trkpt><trkpt lat="36.8438643" lon="-3.6485112"><ele>996.3333333333333</ele><time>2026-03-07T14:17:00.008Z</time></trkpt><trkpt lat="36.8439339" lon="-3.6484366"><ele>995.6666666666666</ele><time>2026-03-07T14:17:01.004Z</time></trkpt><trkpt lat="36.844003" lon="-3.6483572"><ele>995.0</ele><time>2026-03-07T14:17:02.015Z</time></trkpt><trkpt lat="36.8440723" lon="-3.6482826"><ele>994.3333333333333</ele><time>2026-03-07T14:17:03Z</time></trkpt><trkpt lat="36.8441372" lon="-3.6482129"><ele>993.6666666666666</ele><time>2026-03-07T14:17:04.004Z</time></trkpt><trkpt lat="36.8442047" lon="-3.6481529"><ele>993.0</ele><time>2026-03-07T14:17:05.006Z</time></trkpt><trkpt lat="36.8442791" lon="-3.6480989"><ele>990.5</ele><time>2026-03-07T14:17:06.009Z</time></trkpt><trkpt lat="36.8443588" lon="-3.6480621"><ele>988.0</ele><time>2026-03-07T14:17:07.013Z</time></trkpt><trkpt lat="36.8444361" lon="-3.6480233"><ele>985.5</ele><time>2026-03-07T14:17:07.997Z</time></trkpt><trkpt lat="36.844499" lon="-3.647992"><ele>983.0</ele><time>2026-03-07T14:17:09.006Z</time></trkpt><trkpt lat="36.844561" lon="-3.6479783"><ele>980.5</ele><time>2026-03-07T14:17:10.006Z</time></trkpt><trkpt lat="36.8446323" lon="-3.647974"><ele>978.0</ele><time>2026-03-07T14:17:11.001Z</time></trkpt><trkpt lat="36.8447048" lon="-3.6480139"><ele>978.0</ele><time>2026-03-07T14:17:12.043Z</time></trkpt><trkpt lat="36.844762" lon="-3.6480751"><ele>978.0000000000001</ele><time>2026-03-07T14:17:13.002Z</time></trkpt><trkpt lat="36.8447831" lon="-3.6481513"><ele>978.0</ele><time>2026-03-07T14:17:14Z</time></trkpt><trkpt lat="36.8448002" lon="-3.6482276"><ele>978.0</ele><time>2026-03-07T14:17:14.998Z</time></trkpt><trkpt lat="36.8448077" lon="-3.648307"><ele>978.0000000000001</ele><time>2026-03-07T14:17:16.018Z</time></trkpt><trkpt lat="36.8447993" lon="-3.6483979"><ele>978.0</ele><time>2026-03-07T14:17:17.007Z</time></trkpt><trkpt lat="36.8447629" lon="-3.6485092"><ele>978.0</ele><time>2026-03-07T14:17:18.01Z</time></trkpt><trkpt lat="36.8447072" lon="-3.6486338"><ele>975.4</ele><time>2026-03-07T14:17:19.007Z</time></trkpt><trkpt lat="36.8446666" lon="-3.6487631"><ele>972.8</ele><time>2026-03-07T14:17:20.005Z</time></trkpt><trkpt lat="36.8446485" lon="-3.6488911"><ele>970.2</ele><time>2026-03-07T14:17:21.018Z</time></trkpt><trkpt lat="36.8446388" lon="-3.6490273"><ele>967.6</ele><time>2026-03-07T14:17:22.009Z</time></trkpt><trkpt lat="36.8446284" lon="-3.6491743"><ele>965.0</ele><time>2026-03-07T14:17:23.022Z</time></trkpt><trkpt lat="36.8446095" lon="-3.6493351"><ele>965.0</ele><time>2026-03-07T14:17:24.01Z</time></trkpt><trkpt lat="36.8445963" lon="-3.6494893"><ele>965.0</ele><time>2026-03-07T14:17:25.006Z</time></trkpt><trkpt lat="36.8445931" lon="-3.6496283"><ele>965.0</ele><time>2026-03-07T14:17:26.007Z</time></trkpt><trkpt lat="36.844594" lon="-3.6497561"><ele>965.0</ele><time>2026-03-07T14:17:27.004Z</time></trkpt><trkpt lat="36.8446012" lon="-3.6498752"><ele>965.0</ele><time>2026-03-07T14:17:28.013Z</time></trkpt><trkpt lat="36.8446188" lon="-3.6499851"><ele>965.0000000000001</ele><time>2026-03-07T14:17:28.996Z</time></trkpt><trkpt lat="36.8446551" lon="-3.6500798"><ele>965.0</ele><time>2026-03-07T14:17:30.01Z</time></trkpt><trkpt lat="36.8447105" lon="-3.6501649"><ele>965.0</ele><time>2026-03-07T14:17:31Z</time></trkpt><trkpt lat="36.8447763" lon="-3.6502411"><ele>965.0</ele><time>2026-03-07T14:17:32.003Z</time></trkpt><trkpt lat="36.8448409" lon="-3.6503163"><ele>965.0000000000001</ele><time>2026-03-07T14:17:33.01Z</time></trkpt><trkpt lat="36.8449058" lon="-3.6503874"><ele>965.0</ele><time>2026-03-07T14:17:34.009Z</time></trkpt><trkpt lat="36.8449624" lon="-3.6504478"><ele>966.4</ele><time>2026-03-07T14:17:35.003Z</time></trkpt><trkpt lat="36.8450093" lon="-3.6505022"><ele>967.8</ele><time>2026-03-07T14:17:36.011Z</time></trkpt><trkpt lat="36.8450817" lon="-3.650598"><ele>969.2</ele><time>2026-03-07T14:17:38.019Z</time></trkpt><trkpt lat="36.8451459" lon="-3.6505915"><ele>970.6</ele><time>2026-03-07T14:17:39.993Z</time></trkpt><trkpt lat="36.8451584" lon="-3.6504854"><ele>972.0</ele><time>2026-03-07T14:17:42.003Z</time></trkpt><trkpt lat="36.8451233" lon="-3.6503263"><ele>970.6</ele><time>2026-03-07T14:17:43.997Z</time></trkpt><trkpt lat="36.8450922" lon="-3.6502259"><ele>969.2</ele><time>2026-03-07T14:17:45Z</time></trkpt><trkpt lat="36.845053" lon="-3.6501228"><ele>967.8</ele><time>2026-03-07T14:17:46.008Z</time></trkpt><trkpt lat="36.8450061" lon="-3.6500245"><ele>966.4</ele><time>2026-03-07T14:17:47.01Z</time></trkpt><trkpt lat="36.8449555" lon="-3.6499197"><ele>965.0</ele><time>2026-03-07T14:17:48.006Z</time></trkpt><trkpt lat="36.8449207" lon="-3.6498011"><ele>965.0</ele><time>2026-03-07T14:17:49.004Z</time></trkpt><trkpt lat="36.8449068" lon="-3.6496719"><ele>965.0</ele><time>2026-03-07T14:17:50.002Z</time></trkpt><trkpt lat="36.8449092" lon="-3.6495311"><ele>965.0</ele><time>2026-03-07T14:17:51.01Z</time></trkpt><trkpt lat="36.844924" lon="-3.6493846"><ele>965.0</ele><time>2026-03-07T14:17:52.013Z</time></trkpt><trkpt lat="36.8449398" lon="-3.64925"><ele>965.0</ele><time>2026-03-07T14:17:52.999Z</time></trkpt><trkpt lat="36.844979" lon="-3.6491522"><ele>965.0000000000001</ele><time>2026-03-07T14:17:54.001Z</time></trkpt><trkpt lat="36.8450384" lon="-3.6490865"><ele>965.0</ele><time>2026-03-07T14:17:55.012Z</time></trkpt><trkpt lat="36.845098" lon="-3.6490413"><ele>965.0</ele><time>2026-03-07T14:17:56Z</time></trkpt><trkpt lat="36.8451632" lon="-3.6490288"><ele>965.0</ele><time>2026-03-07T14:17:57.002Z</time></trkpt><trkpt lat="36.8452358" lon="-3.6490244"><ele>965.0000000000001</ele><time>2026-03-07T14:17:57.994Z</time></trkpt><trkpt lat="36.8453366" lon="-3.6490255"><ele>965.0</ele><time>2026-03-07T14:17:59.995Z</time></trkpt><trkpt lat="36.8454209" lon="-3.6489985"><ele>961.4285714285713</ele><time>2026-03-07T14:18:01.994Z</time></trkpt><trkpt lat="36.8454545" lon="-3.6489273"><ele>957.8571428571429</ele><time>2026-03-07T14:18:03.005Z</time></trkpt><trkpt lat="36.8454959" lon="-3.6488508"><ele>954.2857142857142</ele><time>2026-03-07T14:18:04.012Z</time></trkpt><trkpt lat="36.8455393" lon="-3.6487715"><ele>950.7142857142857</ele><time>2026-03-07T14:18:05.01Z</time></trkpt><trkpt lat="36.845585" lon="-3.6487047"><ele>947.1428571428571</ele><time>2026-03-07T14:18:05.999Z</time></trkpt><trkpt lat="36.8456349" lon="-3.648639"><ele>943.5714285714286</ele><time>2026-03-07T14:18:07.013Z</time></trkpt><trkpt lat="36.845676" lon="-3.6485794"><ele>940.0</ele><time>2026-03-07T14:18:08.013Z</time></trkpt><trkpt lat="36.8457559" lon="-3.6484917"><ele>940.0</ele><time>2026-03-07T14:18:10.036Z</time></trkpt><trkpt lat="36.8458509" lon="-3.648465"><ele>940.0</ele><time>2026-03-07T14:18:12.011Z</time></trkpt><trkpt lat="36.8458968" lon="-3.6485797"><ele>940.0</ele><time>2026-03-07T14:18:14.01Z</time></trkpt><trkpt lat="36.8458424" lon="-3.6487048"><ele>940.0</ele><time>2026-03-07T14:18:16.014Z</time></trkpt><trkpt lat="36.8457888" lon="-3.6487779"><ele>940.0</ele><time>2026-03-07T14:18:17.007Z</time></trkpt><trkpt lat="36.8457354" lon="-3.6488683"><ele>938.6</ele><time>2026-03-07T14:18:18.008Z</time></trkpt><trkpt lat="36.8456884" lon="-3.6489783"><ele>937.2</ele><time>2026-03-07T14:18:19.004Z</time></trkpt><trkpt lat="36.8456496" lon="-3.6491019"><ele>935.8</ele><time>2026-03-07T14:18:20.004Z</time></trkpt><trkpt lat="36.8456123" lon="-3.6492138"><ele>934.4</ele><time>2026-03-07T14:18:20.996Z</time></trkpt><trkpt lat="36.845577" lon="-3.6493108"><ele>933.0</ele><time>2026-03-07T14:18:22.005Z</time></trkpt><trkpt lat="36.8455377" lon="-3.6493794"><ele>933.0</ele><time>2026-03-07T14:18:23.004Z</time></trkpt><trkpt lat="36.8454891" lon="-3.6494365"><ele>933.0</ele><time>2026-03-07T14:18:24.02Z</time></trkpt><trkpt lat="36.8454335" lon="-3.6494806"><ele>933.0</ele><time>2026-03-07T14:18:25.002Z</time></trkpt><trkpt lat="36.8453825" lon="-3.6495311"><ele>933.0</ele><time>2026-03-07T14:18:26.005Z</time></trkpt><trkpt lat="36.8453427" lon="-3.6496615"><ele>933.0</ele><time>2026-03-07T14:18:28.003Z</time></trkpt><trkpt lat="36.8454164" lon="-3.6497795"><ele>933.0</ele><time>2026-03-07T14:18:29.997Z</time></trkpt><trkpt lat="36.8454881" lon="-3.6498304"><ele>932.3333333333334</ele><time>2026-03-07T14:18:31.014Z</time></trkpt><trkpt lat="36.8455769" lon="-3.6498675"><ele>931.6666666666667</ele><time>2026-03-07T14:18:32.019Z</time></trkpt><trkpt lat="36.8456622" lon="-3.6498891"><ele>931.0</ele><time>2026-03-07T14:18:33Z</time></trkpt><trkpt lat="36.8457414" lon="-3.6499069"><ele>930.3333333333334</ele><time>2026-03-07T14:18:33.999Z</time></trkpt><trkpt lat="36.8458148" lon="-3.6499414"><ele>929.6666666666667</ele><time>2026-03-07T14:18:35.009Z</time></trkpt><trkpt lat="36.8458735" lon="-3.6499759"><ele>929.0</ele><time>2026-03-07T14:18:36.016Z</time></trkpt><trkpt lat="36.8459401" lon="-3.6500926"><ele>929.0</ele><time>2026-03-07T14:18:38.011Z</time></trkpt><trkpt lat="36.8459459" lon="-3.6502429"><ele>929.0000000000001</ele><time>2026-03-07T14:18:40.003Z</time></trkpt><trkpt lat="36.84594" lon="-3.6503251"><ele>929.0000000000001</ele><time>2026-03-07T14:18:41.059Z</time></trkpt><trkpt lat="36.8459508" lon="-3.6504635"><ele>929.0</ele><time>2026-03-07T14:18:43.005Z</time></trkpt><trkpt lat="36.8460274" lon="-3.6505104"><ele>929.0</ele><time>2026-03-07T14:18:45.003Z</time></trkpt><trkpt lat="36.8460766" lon="-3.650449"><ele>930.5000000000001</ele><time>2026-03-07T14:18:47.01Z</time></trkpt><trkpt lat="36.8461008" lon="-3.6503199"><ele>932.0</ele><time>2026-03-07T14:18:49.006Z</time></trkpt><trkpt lat="36.8461182" lon="-3.650231"><ele>933.5</ele><time>2026-03-07T14:18:50.017Z</time></trkpt><trkpt lat="36.8461322" lon="-3.6501423"><ele>935.0</ele><time>2026-03-07T14:18:51.011Z</time></trkpt><trkpt lat="36.8461548" lon="-3.6500506"><ele>936.5000000000001</ele><time>2026-03-07T14:18:52.007Z</time></trkpt><trkpt lat="36.8461716" lon="-3.6499617"><ele>938.0</ele><time>2026-03-07T14:18:52.993Z</time></trkpt><trkpt lat="36.8461848" lon="-3.6498622"><ele>934.1666666666667</ele><time>2026-03-07T14:18:54.002Z</time></trkpt><trkpt lat="36.8461871" lon="-3.6497596"><ele>930.3333333333334</ele><time>2026-03-07T14:18:55.011Z</time></trkpt><trkpt lat="36.8461729" lon="-3.6496606"><ele>926.5</ele><time>2026-03-07T14:18:55.995Z</time></trkpt><trkpt lat="36.8461679" lon="-3.649568"><ele>922.6666666666667</ele><time>2026-03-07T14:18:57.019Z</time></trkpt><trkpt lat="36.8461725" lon="-3.6494775"><ele>918.8333333333334</ele><time>2026-03-07T14:18:58.006Z</time></trkpt><trkpt lat="36.8462049" lon="-3.6493938"><ele>915.0</ele><time>2026-03-07T14:18:59.021Z</time></trkpt><trkpt lat="36.8462488" lon="-3.6493299"><ele>913.1666666666666</ele><time>2026-03-07T14:19:00.022Z</time></trkpt><trkpt lat="36.8463407" lon="-3.6492456"><ele>911.3333333333333</ele><time>2026-03-07T14:19:01.996Z</time></trkpt><trkpt lat="36.846408" lon="-3.6492125"><ele>909.5</ele><time>2026-03-07T14:19:02.998Z</time></trkpt><trkpt lat="36.8464777" lon="-3.6491821"><ele>907.6666666666666</ele><time>2026-03-07T14:19:04.007Z</time></trkpt><trkpt lat="36.8465547" lon="-3.6491503"><ele>905.8333333333333</ele><time>2026-03-07T14:19:05.01Z</time></trkpt><trkpt lat="36.8466263" lon="-3.6491122"><ele>904.0</ele><time>2026-03-07T14:19:05.995Z</time></trkpt><trkpt lat="36.8466906" lon="-3.6490495"><ele>903.9999999999999</ele><time>2026-03-07T14:19:07.009Z</time></trkpt><trkpt lat="36.8467425" lon="-3.6489905"><ele>904.0</ele><time>2026-03-07T14:19:08.003Z</time></trkpt><trkpt lat="36.8467978" lon="-3.6489105"><ele>904.0</ele><time>2026-03-07T14:19:09.004Z</time></trkpt><trkpt lat="36.8468399" lon="-3.6488304"><ele>904.0</ele><time>2026-03-07T14:19:09.998Z</time></trkpt><trkpt lat="36.8468661" lon="-3.6487477"><ele>903.9999999999999</ele><time>2026-03-07T14:19:11.009Z</time></trkpt><trkpt lat="36.8468631" lon="-3.6486036"><ele>904.0</ele><time>2026-03-07T14:19:13.003Z</time></trkpt><trkpt lat="36.8468313" lon="-3.6484982"><ele>901.0</ele><time>2026-03-07T14:19:15.007Z</time></trkpt><trkpt lat="36.8468485" lon="-3.6484035"><ele>898.0000000000001</ele><time>2026-03-07T14:19:17.012Z</time></trkpt><trkpt lat="36.846929" lon="-3.648533"><ele>895.0000000000001</ele><time>2026-03-07T14:19:21.008Z</time></trkpt><trkpt lat="36.8469786" lon="-3.6486697"><ele>892.0</ele><time>2026-03-07T14:19:23.008Z</time></trkpt><trkpt lat="36.8469606" lon="-3.6487568"><ele>889.0</ele><time>2026-03-07T14:19:24.008Z</time></trkpt><trkpt lat="36.8469321" lon="-3.6488497"><ele>889.0</ele><time>2026-03-07T14:19:25.002Z</time></trkpt><trkpt lat="36.846894" lon="-3.6489358"><ele>889.0000000000001</ele><time>2026-03-07T14:19:26.004Z</time></trkpt><trkpt lat="36.8468616" lon="-3.6490183"><ele>889.0000000000001</ele><time>2026-03-07T14:19:26.995Z</time></trkpt><trkpt lat="36.8468208" lon="-3.6491375"><ele>889.0</ele><time>2026-03-07T14:19:29.008Z</time></trkpt><trkpt lat="36.8469029" lon="-3.6490822"><ele>889.0</ele><time>2026-03-07T14:19:33.008Z</time></trkpt><trkpt lat="36.8469564" lon="-3.648966"><ele>888.9999999999999</ele><time>2026-03-07T14:19:34.006Z</time></trkpt><trkpt lat="36.8470057" lon="-3.6488504"><ele>889.0</ele><time>2026-03-07T14:19:35.006Z</time></trkpt><trkpt lat="36.8470558" lon="-3.6487395"><ele>889.0</ele><time>2026-03-07T14:19:36.013Z</time></trkpt><trkpt lat="36.8470995" lon="-3.6486433"><ele>889.0</ele><time>2026-03-07T14:19:37.011Z</time></trkpt><trkpt lat="36.8471332" lon="-3.6485649"><ele>888.9999999999999</ele><time>2026-03-07T14:19:38.007Z</time></trkpt><trkpt lat="36.8471628" lon="-3.6484919"><ele>889.0</ele><time>2026-03-07T14:19:39.009Z</time></trkpt><trkpt lat="36.8471814" lon="-3.6483591"><ele>885.4000000000001</ele><time>2026-03-07T14:19:41.038Z</time></trkpt><trkpt lat="36.8470938" lon="-3.6482631"><ele>881.8000000000001</ele><time>2026-03-07T14:19:43Z</time></trkpt><trkpt lat="36.8470073" lon="-3.6481896"><ele>878.1999999999999</ele><time>2026-03-07T14:19:44.989Z</time></trkpt><trkpt lat="36.8469469" lon="-3.6481373"><ele>874.5999999999999</ele><time>2026-03-07T14:19:46.016Z</time></trkpt><trkpt lat="36.8468778" lon="-3.6480851"><ele>871.0</ele><time>2026-03-07T14:19:47.001Z</time></trkpt><trkpt lat="36.8468129" lon="-3.6480381"><ele>873.8</ele><time>2026-03-07T14:19:48.001Z</time></trkpt><trkpt lat="36.8467576" lon="-3.6479962"><ele>876.5999999999999</ele><time>2026-03-07T14:19:49.012Z</time></trkpt><trkpt lat="36.8467061" lon="-3.6478784"><ele>879.4</ele><time>2026-03-07T14:19:50.998Z</time></trkpt><trkpt lat="36.8467332" lon="-3.647739"><ele>882.2</ele><time>2026-03-07T14:19:53.012Z</time></trkpt><trkpt lat="36.846783" lon="-3.6476574"><ele>885.0</ele><time>2026-03-07T14:19:53.998Z</time></trkpt><trkpt lat="36.8468377" lon="-3.6475715"><ele>878.0</ele><time>2026-03-07T14:19:55.004Z</time></trkpt><trkpt lat="36.846883" lon="-3.6474929"><ele>871.0</ele><time>2026-03-07T14:19:56.003Z</time></trkpt><trkpt lat="36.8469168" lon="-3.647416"><ele>864.0</ele><time>2026-03-07T14:19:57.008Z</time></trkpt><trkpt lat="36.8469377" lon="-3.6473415"><ele>857.0</ele><time>2026-03-07T14:19:58.01Z</time></trkpt><trkpt lat="36.8469564" lon="-3.6472139"><ele>850.0</ele><time>2026-03-07T14:20:00.001Z</time></trkpt><trkpt lat="36.8470168" lon="-3.6473002"><ele>843.0</ele><time>2026-03-07T14:20:05.009Z</time></trkpt><trkpt lat="36.8470109" lon="-3.6474629"><ele>843.0</ele><time>2026-03-07T14:20:07.028Z</time></trkpt><trkpt lat="36.846993" lon="-3.647555"><ele>843.0</ele><time>2026-03-07T14:20:08.009Z</time></trkpt><trkpt lat="36.8469733" lon="-3.6476421"><ele>843.0</ele><time>2026-03-07T14:20:08.997Z</time></trkpt><trkpt lat="36.8469558" lon="-3.647722"><ele>843.0</ele><time>2026-03-07T14:20:10.01Z</time></trkpt><trkpt lat="36.8469498" lon="-3.6478276"><ele>843.0</ele><time>2026-03-07T14:20:12.005Z</time></trkpt><trkpt lat="36.8469956" lon="-3.6478982"><ele>843.0</ele><time>2026-03-07T14:20:14.011Z</time></trkpt><trkpt lat="36.8471033" lon="-3.647921"><ele>847.6666666666666</ele><time>2026-03-07T14:20:16.005Z</time></trkpt><trkpt lat="36.8471858" lon="-3.647931"><ele>852.3333333333333</ele><time>2026-03-07T14:20:17.017Z</time></trkpt><trkpt lat="36.8472744" lon="-3.6479439"><ele>857.0</ele><time>2026-03-07T14:20:18Z</time></trkpt><trkpt lat="36.847368" lon="-3.6479523"><ele>861.6666666666666</ele><time>2026-03-07T14:20:18.998Z</time></trkpt><trkpt lat="36.8474598" lon="-3.6479468"><ele>866.3333333333333</ele><time>2026-03-07T14:20:19.996Z</time></trkpt><trkpt lat="36.8475471" lon="-3.6479361"><ele>871.0</ele><time>2026-03-07T14:20:21.007Z</time></trkpt><trkpt lat="36.8476204" lon="-3.6479281"><ele>873.1999999999999</ele><time>2026-03-07T14:20:22.004Z</time></trkpt><trkpt lat="36.8477188" lon="-3.6479292"><ele>875.3999999999999</ele><time>2026-03-07T14:20:24.012Z</time></trkpt><trkpt lat="36.8477146" lon="-3.6478095"><ele>877.6</ele><time>2026-03-07T14:20:27.007Z</time></trkpt><trkpt lat="36.8476358" lon="-3.6477622"><ele>879.8</ele><time>2026-03-07T14:20:29.101Z</time></trkpt><trkpt lat="36.8475163" lon="-3.6477546"><ele>882.0</ele><time>2026-03-07T14:20:31.015Z</time></trkpt><trkpt lat="36.8474525" lon="-3.64776"><ele>874.2</ele><time>2026-03-07T14:20:32.003Z</time></trkpt><trkpt lat="36.8473491" lon="-3.6477021"><ele>866.4000000000001</ele><time>2026-03-07T14:20:34.012Z</time></trkpt><trkpt lat="36.8473257" lon="-3.6475682"><ele>858.5999999999999</ele><time>2026-03-07T14:20:36.001Z</time></trkpt><trkpt lat="36.8473451" lon="-3.6474728"><ele>850.8</ele><time>2026-03-07T14:20:36.987Z</time></trkpt><trkpt lat="36.847358" lon="-3.6473561"><ele>843.0</ele><time>2026-03-07T14:20:38.005Z</time></trkpt><trkpt lat="36.8473687" lon="-3.6472338"><ele>843.0</ele><time>2026-03-07T14:20:39.004Z</time></trkpt><trkpt lat="36.8473724" lon="-3.6471203"><ele>843.0</ele><time>2026-03-07T14:20:40.001Z</time></trkpt><trkpt lat="36.8473632" lon="-3.6470252"><ele>843.0</ele><time>2026-03-07T14:20:41.031Z</time></trkpt><trkpt lat="36.8473312" lon="-3.6469272"><ele>843.0</ele><time>2026-03-07T14:20:42.005Z</time></trkpt><trkpt lat="36.8472963" lon="-3.6468228"><ele>843.0</ele><time>2026-03-07T14:20:42.993Z</time></trkpt><trkpt lat="36.8472715" lon="-3.6467217"><ele>843.0</ele><time>2026-03-07T14:20:44.018Z</time></trkpt><trkpt lat="36.8472706" lon="-3.6466167"><ele>840.8</ele><time>2026-03-07T14:20:44.998Z</time></trkpt><trkpt lat="36.8472805" lon="-3.6465015"><ele>838.5999999999999</ele><time>2026-03-07T14:20:46.011Z</time></trkpt><trkpt lat="36.8472857" lon="-3.6463774"><ele>836.4000000000001</ele><time>2026-03-07T14:20:46.998Z</time></trkpt><trkpt lat="36.847288" lon="-3.6462481"><ele>834.2</ele><time>2026-03-07T14:20:48.046Z</time></trkpt><trkpt lat="36.8472734" lon="-3.6461271"><ele>832.0</ele><time>2026-03-07T14:20:48.998Z</time></trkpt><trkpt lat="36.8472564" lon="-3.6460332"><ele>830.6</ele><time>2026-03-07T14:20:50.007Z</time></trkpt><trkpt lat="36.847259" lon="-3.6459498"><ele>829.2</ele><time>2026-03-07T14:20:50.999Z</time></trkpt><trkpt lat="36.8472817" lon="-3.6457832"><ele>827.8</ele><time>2026-03-07T14:20:53.004Z</time></trkpt><trkpt lat="36.8473115" lon="-3.6456874"><ele>826.4</ele><time>2026-03-07T14:20:54.014Z</time></trkpt><trkpt lat="36.8473465" lon="-3.6455893"><ele>825.0</ele><time>2026-03-07T14:20:55.003Z</time></trkpt><trkpt lat="36.8473785" lon="-3.6454878"><ele>825.0</ele><time>2026-03-07T14:20:56.005Z</time></trkpt><trkpt lat="36.8474047" lon="-3.6453962"><ele>825.0</ele><time>2026-03-07T14:20:56.998Z</time></trkpt><trkpt lat="36.847433" lon="-3.6453188"><ele>825.0</ele><time>2026-03-07T14:20:58.008Z</time></trkpt><trkpt lat="36.8474718" lon="-3.6452461"><ele>825.0</ele><time>2026-03-07T14:20:59.006Z</time></trkpt><trkpt lat="36.8475017" lon="-3.6451639"><ele>825.0</ele><time>2026-03-07T14:21:00.006Z</time></trkpt><trkpt lat="36.8475283" lon="-3.6450835"><ele>825.0</ele><time>2026-03-07T14:21:01.003Z</time></trkpt><trkpt lat="36.8475566" lon="-3.6450094"><ele>825.0</ele><time>2026-03-07T14:21:02.005Z</time></trkpt><trkpt lat="36.847639" lon="-3.6449079"><ele>815.6</ele><time>2026-03-07T14:21:04.004Z</time></trkpt><trkpt lat="36.8476971" lon="-3.6448768"><ele>806.2</ele><time>2026-03-07T14:21:05.006Z</time></trkpt><trkpt lat="36.847809" lon="-3.6448162"><ele>796.8</ele><time>2026-03-07T14:21:07.016Z</time></trkpt><trkpt lat="36.8478734" lon="-3.6447459"><ele>787.4</ele><time>2026-03-07T14:21:09.038Z</time></trkpt><trkpt lat="36.8478828" lon="-3.6445791"><ele>778.0</ele><time>2026-03-07T14:21:11.01Z</time></trkpt><trkpt lat="36.8478712" lon="-3.6444752"><ele>776.6666666666666</ele><time>2026-03-07T14:21:12.038Z</time></trkpt><trkpt lat="36.8478456" lon="-3.6443886"><ele>775.3333333333333</ele><time>2026-03-07T14:21:13.007Z</time></trkpt><trkpt lat="36.8478068" lon="-3.6443227"><ele>774.0</ele><time>2026-03-07T14:21:14.005Z</time></trkpt><trkpt lat="36.8477648" lon="-3.644247"><ele>772.6666666666667</ele><time>2026-03-07T14:21:15.013Z</time></trkpt><trkpt lat="36.8477332" lon="-3.6441525"><ele>771.3333333333334</ele><time>2026-03-07T14:21:15.998Z</time></trkpt><trkpt lat="36.8477119" lon="-3.644056"><ele>770.0</ele><time>2026-03-07T14:21:17.005Z</time></trkpt><trkpt lat="36.8476981" lon="-3.6439579"><ele>770.0</ele><time>2026-03-07T14:21:18.028Z</time></trkpt><trkpt lat="36.8476825" lon="-3.643866"><ele>770.0</ele><time>2026-03-07T14:21:19.01Z</time></trkpt><trkpt lat="36.8476645" lon="-3.6437779"><ele>770.0</ele><time>2026-03-07T14:21:20.008Z</time></trkpt><trkpt lat="36.8476319" lon="-3.6436989"><ele>770.0</ele><time>2026-03-07T14:21:21.013Z</time></trkpt><trkpt lat="36.847592" lon="-3.6436197"><ele>770.0</ele><time>2026-03-07T14:21:21.998Z</time></trkpt><trkpt lat="36.8475517" lon="-3.6435392"><ele>770.0</ele><time>2026-03-07T14:21:23.017Z</time></trkpt><trkpt lat="36.8475126" lon="-3.6434549"><ele>770.0</ele><time>2026-03-07T14:21:24.01Z</time></trkpt><trkpt lat="36.8474749" lon="-3.6433713"><ele>774.6666666666667</ele><time>2026-03-07T14:21:25.006Z</time></trkpt><trkpt lat="36.8474169" lon="-3.6432779"><ele>779.3333333333334</ele><time>2026-03-07T14:21:27.006Z</time></trkpt><trkpt lat="36.8473499" lon="-3.6432612"><ele>784.0</ele><time>2026-03-07T14:21:28.001Z</time></trkpt><trkpt lat="36.8472753" lon="-3.6432804"><ele>788.6666666666667</ele><time>2026-03-07T14:21:29.008Z</time></trkpt><trkpt lat="36.8471933" lon="-3.6432895"><ele>793.3333333333334</ele><time>2026-03-07T14:21:30.007Z</time></trkpt><trkpt lat="36.8471171" lon="-3.643284"><ele>798.0</ele><time>2026-03-07T14:21:31.009Z</time></trkpt><trkpt lat="36.8470455" lon="-3.6432538"><ele>798.0</ele><time>2026-03-07T14:21:32.007Z</time></trkpt><trkpt lat="36.8469717" lon="-3.643193"><ele>798.0</ele><time>2026-03-07T14:21:33.01Z</time></trkpt><trkpt lat="36.8469097" lon="-3.6431315"><ele>798.0</ele><time>2026-03-07T14:21:34.006Z</time></trkpt><trkpt lat="36.8468623" lon="-3.6430787"><ele>798.0</ele><time>2026-03-07T14:21:34.994Z</time></trkpt><trkpt lat="36.8468319" lon="-3.6430084"><ele>798.0</ele><time>2026-03-07T14:21:36.006Z</time></trkpt><trkpt lat="36.8468536" lon="-3.6428499"><ele>798.0</ele><time>2026-03-07T14:21:38.012Z</time></trkpt><trkpt lat="36.8468809" lon="-3.642752"><ele>793.2</ele><time>2026-03-07T14:21:39.002Z</time></trkpt><trkpt lat="36.8468934" lon="-3.6426354"><ele>788.4</ele><time>2026-03-07T14:21:40Z</time></trkpt><trkpt lat="36.8468885" lon="-3.6425149"><ele>783.6</ele><time>2026-03-07T14:21:41.002Z</time></trkpt><trkpt lat="36.8468863" lon="-3.6424045"><ele>778.8000000000001</ele><time>2026-03-07T14:21:42.01Z</time></trkpt><trkpt lat="36.8468779" lon="-3.6422963"><ele>774.0</ele><time>2026-03-07T14:21:43.011Z</time></trkpt><trkpt lat="36.8468711" lon="-3.6421877"><ele>774.0</ele><time>2026-03-07T14:21:44.006Z</time></trkpt><trkpt lat="36.8468496" lon="-3.6420719"><ele>774.0</ele><time>2026-03-07T14:21:45.023Z</time></trkpt><trkpt lat="36.8468275" lon="-3.6419554"><ele>774.0</ele><time>2026-03-07T14:21:46.005Z</time></trkpt><trkpt lat="36.8467983" lon="-3.6418517"><ele>774.0</ele><time>2026-03-07T14:21:46.99Z</time></trkpt><trkpt lat="36.8467754" lon="-3.6417639"><ele>774.0</ele><time>2026-03-07T14:21:48.012Z</time></trkpt><trkpt lat="36.8467542" lon="-3.6416853"><ele>774.0</ele><time>2026-03-07T14:21:49.021Z</time></trkpt><trkpt lat="36.8467163" lon="-3.6415803"><ele>770.3333333333334</ele><time>2026-03-07T14:21:51.021Z</time></trkpt><trkpt lat="36.8467269" lon="-3.64144"><ele>766.6666666666666</ele><time>2026-03-07T14:21:53.017Z</time></trkpt><trkpt lat="36.8467668" lon="-3.6413733"><ele>763.0</ele><time>2026-03-07T14:21:54.003Z</time></trkpt><trkpt lat="36.8468144" lon="-3.6413005"><ele>759.3333333333333</ele><time>2026-03-07T14:21:55.002Z</time></trkpt><trkpt lat="36.8468607" lon="-3.6412039"><ele>755.6666666666666</ele><time>2026-03-07T14:21:56.007Z</time></trkpt><trkpt lat="36.8469001" lon="-3.6410939"><ele>752.0</ele><time>2026-03-07T14:21:57.009Z</time></trkpt><trkpt lat="36.8469318" lon="-3.6409842"><ele>751.6</ele><time>2026-03-07T14:21:58.03Z</time></trkpt><trkpt lat="36.846963" lon="-3.6408746"><ele>751.2</ele><time>2026-03-07T14:21:59.004Z</time></trkpt><trkpt lat="36.846987" lon="-3.6407613"><ele>750.8</ele><time>2026-03-07T14:22:00.016Z</time></trkpt><trkpt lat="36.8470064" lon="-3.6406462"><ele>750.4</ele><time>2026-03-07T14:22:01.002Z</time></trkpt><trkpt lat="36.847019" lon="-3.6405315"><ele>750.0</ele><time>2026-03-07T14:22:02.013Z</time></trkpt><trkpt lat="36.8470259" lon="-3.6404201"><ele>750.0</ele><time>2026-03-07T14:22:03.007Z</time></trkpt><trkpt lat="36.8470417" lon="-3.6403094"><ele>750.0</ele><time>2026-03-07T14:22:04Z</time></trkpt><trkpt lat="36.8470671" lon="-3.6402007"><ele>750.0</ele><time>2026-03-07T14:22:05Z</time></trkpt><trkpt lat="36.8470905" lon="-3.6400913"><ele>750.0</ele><time>2026-03-07T14:22:06.001Z</time></trkpt><trkpt lat="36.8471085" lon="-3.6399959"><ele>750.0</ele><time>2026-03-07T14:22:07.014Z</time></trkpt><trkpt lat="36.8471193" lon="-3.6399053"><ele>750.0</ele><time>2026-03-07T14:22:08.022Z</time></trkpt><trkpt lat="36.8471111" lon="-3.6398154"><ele>749.5</ele><time>2026-03-07T14:22:08.999Z</time></trkpt><trkpt lat="36.8470914" lon="-3.6397335"><ele>749.0</ele><time>2026-03-07T14:22:10.014Z</time></trkpt><trkpt lat="36.8470354" lon="-3.63962"><ele>748.5</ele><time>2026-03-07T14:22:12.019Z</time></trkpt><trkpt lat="36.8469552" lon="-3.6395228"><ele>748.0</ele><time>2026-03-07T14:22:14.003Z</time></trkpt><trkpt lat="36.8468984" lon="-3.6394721"><ele>747.5</ele><time>2026-03-07T14:22:14.999Z</time></trkpt><trkpt lat="36.8468298" lon="-3.639419"><ele>747.0</ele><time>2026-03-07T14:22:16.013Z</time></trkpt><trkpt lat="36.8467546" lon="-3.6393481"><ele>749.6</ele><time>2026-03-07T14:22:17.01Z</time></trkpt><trkpt lat="36.8466893" lon="-3.6392673"><ele>752.2</ele><time>2026-03-07T14:22:18.012Z</time></trkpt><trkpt lat="36.8466402" lon="-3.6391842"><ele>754.8</ele><time>2026-03-07T14:22:19.036Z</time></trkpt><trkpt lat="36.8465915" lon="-3.6390808"><ele>757.4</ele><time>2026-03-07T14:22:20.032Z</time></trkpt><trkpt lat="36.8465416" lon="-3.638987"><ele>760.0</ele><time>2026-03-07T14:22:21.012Z</time></trkpt><trkpt lat="36.8464916" lon="-3.6388893"><ele>760.0</ele><time>2026-03-07T14:22:22.018Z</time></trkpt><trkpt lat="36.8464262" lon="-3.6387858"><ele>760.0</ele><time>2026-03-07T14:22:23.015Z</time></trkpt><trkpt lat="36.8463617" lon="-3.6386985"><ele>760.0</ele><time>2026-03-07T14:22:24.009Z</time></trkpt><trkpt lat="36.8463047" lon="-3.6386349"><ele>760.0</ele><time>2026-03-07T14:22:25.027Z</time></trkpt><trkpt lat="36.8462567" lon="-3.6385819"><ele>760.0</ele><time>2026-03-07T14:22:26.002Z</time></trkpt><trkpt lat="36.8461972" lon="-3.6385187"><ele>760.0</ele><time>2026-03-07T14:22:28.01Z</time></trkpt><trkpt lat="36.8461721" lon="-3.6384447"><ele>755.6</ele><time>2026-03-07T14:22:30.016Z</time></trkpt><trkpt lat="36.846248" lon="-3.6384124"><ele>751.2</ele><time>2026-03-07T14:22:33.003Z</time></trkpt><trkpt lat="36.8463596" lon="-3.6384847"><ele>746.8</ele><time>2026-03-07T14:22:35.022Z</time></trkpt><trkpt lat="36.8464539" lon="-3.6385056"><ele>742.4</ele><time>2026-03-07T14:22:36.021Z</time></trkpt><trkpt lat="36.8465456" lon="-3.6385117"><ele>738.0</ele><time>2026-03-07T14:22:37.008Z</time></trkpt><trkpt lat="36.8466333" lon="-3.6385158"><ele>738.0</ele><time>2026-03-07T14:22:38.001Z</time></trkpt><trkpt lat="36.8467283" lon="-3.6385276"><ele>738.0</ele><time>2026-03-07T14:22:39.007Z</time></trkpt><trkpt lat="36.8468285" lon="-3.6385463"><ele>738.0</ele><time>2026-03-07T14:22:40.005Z</time></trkpt><trkpt lat="36.8469337" lon="-3.6385851"><ele>738.0</ele><time>2026-03-07T14:22:41.031Z</time></trkpt><trkpt lat="36.8470316" lon="-3.6386484"><ele>738.0</ele><time>2026-03-07T14:22:42.041Z</time></trkpt><trkpt lat="36.8471199" lon="-3.6387051"><ele>735.5</ele><time>2026-03-07T14:22:43.012Z</time></trkpt><trkpt lat="36.8471839" lon="-3.6387457"><ele>733.0</ele><time>2026-03-07T14:22:44.005Z</time></trkpt><trkpt lat="36.8472466" lon="-3.6387825"><ele>730.5</ele><time>2026-03-07T14:22:45.013Z</time></trkpt><trkpt lat="36.8473301" lon="-3.638885"><ele>728.0</ele><time>2026-03-07T14:22:47.017Z</time></trkpt><trkpt lat="36.8473735" lon="-3.6389709"><ele>725.5</ele><time>2026-03-07T14:22:48.013Z</time></trkpt><trkpt lat="36.8474107" lon="-3.6390689"><ele>723.0</ele><time>2026-03-07T14:22:49.004Z</time></trkpt><trkpt lat="36.8474429" lon="-3.6391494"><ele>723.0</ele><time>2026-03-07T14:22:50.006Z</time></trkpt><trkpt lat="36.8474905" lon="-3.6392129"><ele>723.0</ele><time>2026-03-07T14:22:51.013Z</time></trkpt><trkpt lat="36.847547" lon="-3.6392741"><ele>723.0</ele><time>2026-03-07T14:22:52.021Z</time></trkpt><trkpt lat="36.8476008" lon="-3.6393444"><ele>723.0</ele><time>2026-03-07T14:22:53.008Z</time></trkpt><trkpt lat="36.8476456" lon="-3.6394424"><ele>723.0</ele><time>2026-03-07T14:22:54.009Z</time></trkpt><trkpt lat="36.8476847" lon="-3.639545"><ele>723.0</ele><time>2026-03-07T14:22:55.012Z</time></trkpt><trkpt lat="36.847719" lon="-3.6396668"><ele>723.0</ele><time>2026-03-07T14:22:56.005Z</time></trkpt><trkpt lat="36.8477569" lon="-3.6397938"><ele>723.0</ele><time>2026-03-07T14:22:57.018Z</time></trkpt><trkpt lat="36.8478014" lon="-3.6399245"><ele>723.0</ele><time>2026-03-07T14:22:58.009Z</time></trkpt><trkpt lat="36.8478417" lon="-3.6400514"><ele>723.0</ele><time>2026-03-07T14:22:59.019Z</time></trkpt><trkpt lat="36.8478699" lon="-3.6401779"><ele>723.0</ele><time>2026-03-07T14:23:00.02Z</time></trkpt><trkpt lat="36.8478941" lon="-3.6403019"><ele>723.0</ele><time>2026-03-07T14:23:01.024Z</time></trkpt><trkpt lat="36.8479053" lon="-3.6404302"><ele>723.0</ele><time>2026-03-07T14:23:02.007Z</time></trkpt><trkpt lat="36.8479186" lon="-3.6405568"><ele>723.0</ele><time>2026-03-07T14:23:03.036Z</time></trkpt><trkpt lat="36.8479327" lon="-3.6406712"><ele>723.0</ele><time>2026-03-07T14:23:04.025Z</time></trkpt><trkpt lat="36.847946" lon="-3.6407752"><ele>723.0</ele><time>2026-03-07T14:23:04.993Z</time></trkpt><trkpt lat="36.8479545" lon="-3.6408663"><ele>723.0</ele><time>2026-03-07T14:23:06.017Z</time></trkpt><trkpt lat="36.8479537" lon="-3.6409508"><ele>723.0</ele><time>2026-03-07T14:23:07.007Z</time></trkpt><trkpt lat="36.8479291" lon="-3.6410872"><ele>723.0</ele><time>2026-03-07T14:23:09.018Z</time></trkpt><trkpt lat="36.8478909" lon="-3.6411583"><ele>723.0</ele><time>2026-03-07T14:23:10.013Z</time></trkpt><trkpt lat="36.8478496" lon="-3.6412251"><ele>723.0</ele><time>2026-03-07T14:23:11.005Z</time></trkpt><trkpt lat="36.8478143" lon="-3.641325"><ele>723.0</ele><time>2026-03-07T14:23:13.021Z</time></trkpt><trkpt lat="36.8478752" lon="-3.6413518"><ele>724.6666666666666</ele><time>2026-03-07T14:23:15.007Z</time></trkpt><trkpt lat="36.8479502" lon="-3.6413746"><ele>726.3333333333334</ele><time>2026-03-07T14:23:16.005Z</time></trkpt><trkpt lat="36.8480325" lon="-3.641395"><ele>728.0</ele><time>2026-03-07T14:23:16.991Z</time></trkpt><trkpt lat="36.8481041" lon="-3.6414159"><ele>729.6666666666667</ele><time>2026-03-07T14:23:18.013Z</time></trkpt><trkpt lat="36.8481731" lon="-3.6414361"><ele>731.3333333333334</ele><time>2026-03-07T14:23:19.062Z</time></trkpt><trkpt lat="36.8482358" lon="-3.6414887"><ele>733.0</ele><time>2026-03-07T14:23:20.013Z</time></trkpt><trkpt lat="36.8482898" lon="-3.6415672"><ele>733.0</ele><time>2026-03-07T14:23:21.016Z</time></trkpt><trkpt lat="36.8483338" lon="-3.6416446"><ele>733.0</ele><time>2026-03-07T14:23:22.01Z</time></trkpt><trkpt lat="36.8483735" lon="-3.6417182"><ele>733.0</ele><time>2026-03-07T14:23:23.009Z</time></trkpt><trkpt lat="36.8484478" lon="-3.6418114"><ele>733.0</ele><time>2026-03-07T14:23:25.007Z</time></trkpt><trkpt lat="36.8485264" lon="-3.6417351"><ele>733.0</ele><time>2026-03-07T14:23:28.037Z</time></trkpt><trkpt lat="36.8485096" lon="-3.6416197"><ele>733.0</ele><time>2026-03-07T14:23:30.021Z</time></trkpt><trkpt lat="36.8484126" lon="-3.6414904"><ele>733.0</ele><time>2026-03-07T14:23:32.026Z</time></trkpt><trkpt lat="36.8483517" lon="-3.641402"><ele>733.0</ele><time>2026-03-07T14:23:33.007Z</time></trkpt><trkpt lat="36.8482674" lon="-3.6413017"><ele>733.0</ele><time>2026-03-07T14:23:34.01Z</time></trkpt><trkpt lat="36.848211" lon="-3.6412081"><ele>733.0</ele><time>2026-03-07T14:23:35Z</time></trkpt><trkpt lat="36.8481709" lon="-3.6411117"><ele>733.0</ele><time>2026-03-07T14:23:36.039Z</time></trkpt><trkpt lat="36.8481621" lon="-3.6410225"><ele>731.0</ele><time>2026-03-07T14:23:37.013Z</time></trkpt><trkpt lat="36.8481706" lon="-3.6409094"><ele>729.0</ele><time>2026-03-07T14:23:38.004Z</time></trkpt><trkpt lat="36.8481744" lon="-3.6407948"><ele>727.0</ele><time>2026-03-07T14:23:39.014Z</time></trkpt><trkpt lat="36.848153" lon="-3.6406741"><ele>725.0</ele><time>2026-03-07T14:23:40.009Z</time></trkpt><trkpt lat="36.848133" lon="-3.6405508"><ele>723.0</ele><time>2026-03-07T14:23:41.008Z</time></trkpt><trkpt lat="36.8481085" lon="-3.6404304"><ele>723.0</ele><time>2026-03-07T14:23:42.003Z</time></trkpt><trkpt lat="36.8480938" lon="-3.6403004"><ele>723.0</ele><time>2026-03-07T14:23:43.007Z</time></trkpt><trkpt lat="36.8480957" lon="-3.640181"><ele>723.0</ele><time>2026-03-07T14:23:44.001Z</time></trkpt><trkpt lat="36.8480995" lon="-3.6400659"><ele>723.0</ele><time>2026-03-07T14:23:45.015Z</time></trkpt><trkpt lat="36.8481055" lon="-3.6399438"><ele>723.0</ele><time>2026-03-07T14:23:46.011Z</time></trkpt><trkpt lat="36.848098" lon="-3.6398211"><ele>720.8</ele><time>2026-03-07T14:23:47.017Z</time></trkpt><trkpt lat="36.8480716" lon="-3.6396967"><ele>718.5999999999999</ele><time>2026-03-07T14:23:48.005Z</time></trkpt><trkpt lat="36.8480412" lon="-3.6395781"><ele>716.4000000000001</ele><time>2026-03-07T14:23:49.009Z</time></trkpt><trkpt lat="36.8480166" lon="-3.6394556"><ele>714.2</ele><time>2026-03-07T14:23:50.009Z</time></trkpt><trkpt lat="36.8480028" lon="-3.6393311"><ele>712.0</ele><time>2026-03-07T14:23:51.007Z</time></trkpt><trkpt lat="36.8479868" lon="-3.6392075"><ele>710.8333333333334</ele><time>2026-03-07T14:23:52.007Z</time></trkpt><trkpt lat="36.8479622" lon="-3.6390888"><ele>709.6666666666667</ele><time>2026-03-07T14:23:53.005Z</time></trkpt><trkpt lat="36.8479345" lon="-3.638977"><ele>708.5</ele><time>2026-03-07T14:23:54.004Z</time></trkpt><trkpt lat="36.8479084" lon="-3.6388749"><ele>707.3333333333334</ele><time>2026-03-07T14:23:55.016Z</time></trkpt><trkpt lat="36.847889" lon="-3.6387809"><ele>706.1666666666666</ele><time>2026-03-07T14:23:56.007Z</time></trkpt><trkpt lat="36.8478661" lon="-3.6386883"><ele>705.0</ele><time>2026-03-07T14:23:57.013Z</time></trkpt><trkpt lat="36.8478488" lon="-3.6385915"><ele>704.4285714285713</ele><time>2026-03-07T14:23:58.013Z</time></trkpt><trkpt lat="36.8478345" lon="-3.6384849"><ele>703.8571428571429</ele><time>2026-03-07T14:23:59.003Z</time></trkpt><trkpt lat="36.8478296" lon="-3.6383834"><ele>703.2857142857142</ele><time>2026-03-07T14:24:00.018Z</time></trkpt><trkpt lat="36.8478363" lon="-3.6382861"><ele>702.7142857142857</ele><time>2026-03-07T14:24:01.018Z</time></trkpt><trkpt lat="36.847837" lon="-3.6382009"><ele>702.1428571428571</ele><time>2026-03-07T14:24:02.005Z</time></trkpt><trkpt lat="36.8478377" lon="-3.6381148"><ele>701.5714285714286</ele><time>2026-03-07T14:24:03.024Z</time></trkpt><trkpt lat="36.8478327" lon="-3.638034"><ele>701.0</ele><time>2026-03-07T14:24:04.016Z</time></trkpt><trkpt lat="36.8478297" lon="-3.6379473"><ele>701.0</ele><time>2026-03-07T14:24:05.008Z</time></trkpt><trkpt lat="36.8478242" lon="-3.6378162"><ele>701.0</ele><time>2026-03-07T14:24:07.014Z</time></trkpt><trkpt lat="36.8477924" lon="-3.637746"><ele>701.0</ele><time>2026-03-07T14:24:08.015Z</time></trkpt><trkpt lat="36.8477503" lon="-3.6376841"><ele>701.0</ele><time>2026-03-07T14:24:09Z</time></trkpt><trkpt lat="36.8476633" lon="-3.6375633"><ele>701.0</ele><time>2026-03-07T14:24:11.003Z</time></trkpt><trkpt lat="36.8476013" lon="-3.6374796"><ele>698.1999999999999</ele><time>2026-03-07T14:24:12.015Z</time></trkpt><trkpt lat="36.84753" lon="-3.6373819"><ele>695.4</ele><time>2026-03-07T14:24:13.01Z</time></trkpt><trkpt lat="36.8474506" lon="-3.6372893"><ele>692.6</ele><time>2026-03-07T14:24:14.017Z</time></trkpt><trkpt lat="36.8473796" lon="-3.6371935"><ele>689.8</ele><time>2026-03-07T14:24:15.015Z</time></trkpt><trkpt lat="36.8473223" lon="-3.6370995"><ele>687.0</ele><time>2026-03-07T14:24:16.01Z</time></trkpt><trkpt lat="36.8472746" lon="-3.6369994"><ele>683.8</ele><time>2026-03-07T14:24:17.006Z</time></trkpt><trkpt lat="36.8472452" lon="-3.6368874"><ele>680.6</ele><time>2026-03-07T14:24:18.011Z</time></trkpt><trkpt lat="36.8472201" lon="-3.636765"><ele>677.4</ele><time>2026-03-07T14:24:19.005Z</time></trkpt><trkpt lat="36.847218" lon="-3.6366508"><ele>674.1999999999999</ele><time>2026-03-07T14:24:20.008Z</time></trkpt><trkpt lat="36.8472386" lon="-3.636538"><ele>671.0</ele><time>2026-03-07T14:24:21.013Z</time></trkpt><trkpt lat="36.847262" lon="-3.6364329"><ele>671.0</ele><time>2026-03-07T14:24:22.006Z</time></trkpt><trkpt lat="36.8472794" lon="-3.6363297"><ele>671.0</ele><time>2026-03-07T14:24:23.005Z</time></trkpt><trkpt lat="36.8472844" lon="-3.6362422"><ele>671.0</ele><time>2026-03-07T14:24:24.007Z</time></trkpt><trkpt lat="36.8472851" lon="-3.6361597"><ele>671.0</ele><time>2026-03-07T14:24:25.009Z</time></trkpt><trkpt lat="36.8472928" lon="-3.6360775"><ele>671.0</ele><time>2026-03-07T14:24:26.253Z</time></trkpt><trkpt lat="36.847333" lon="-3.6358904"><ele>671.0</ele><time>2026-03-07T14:24:28.005Z</time></trkpt><trkpt lat="36.8473673" lon="-3.6357561"><ele>667.8333333333333</ele><time>2026-03-07T14:24:30.01Z</time></trkpt><trkpt lat="36.8473451" lon="-3.6356331"><ele>664.6666666666666</ele><time>2026-03-07T14:24:32.017Z</time></trkpt><trkpt lat="36.8473045" lon="-3.6355"><ele>661.5</ele><time>2026-03-07T14:24:34.014Z</time></trkpt><trkpt lat="36.8472679" lon="-3.6354266"><ele>658.3333333333334</ele><time>2026-03-07T14:24:35.03Z</time></trkpt><trkpt lat="36.847234" lon="-3.6353435"><ele>655.1666666666667</ele><time>2026-03-07T14:24:36.006Z</time></trkpt><trkpt lat="36.8471956" lon="-3.6352513"><ele>652.0</ele><time>2026-03-07T14:24:37.014Z</time></trkpt><trkpt lat="36.8471598" lon="-3.635168"><ele>648.0</ele><time>2026-03-07T14:24:38.006Z</time></trkpt><trkpt lat="36.8471088" lon="-3.6350373"><ele>644.0</ele><time>2026-03-07T14:24:40.005Z</time></trkpt><trkpt lat="36.8470281" lon="-3.6349088"><ele>640.0</ele><time>2026-03-07T14:24:42.013Z</time></trkpt><trkpt lat="36.8469721" lon="-3.6348526"><ele>636.0</ele><time>2026-03-07T14:24:43.01Z</time></trkpt><trkpt lat="36.846915" lon="-3.6348031"><ele>632.0</ele><time>2026-03-07T14:24:44.004Z</time></trkpt><trkpt lat="36.8468507" lon="-3.6347596"><ele>635.1666666666666</ele><time>2026-03-07T14:24:45.008Z</time></trkpt><trkpt lat="36.8467762" lon="-3.6347338"><ele>638.3333333333333</ele><time>2026-03-07T14:24:46.012Z</time></trkpt><trkpt lat="36.846691" lon="-3.634717"><ele>641.5</ele><time>2026-03-07T14:24:47.018Z</time></trkpt><trkpt lat="36.8466057" lon="-3.6347131"><ele>644.6666666666666</ele><time>2026-03-07T14:24:48.006Z</time></trkpt><trkpt lat="36.8465188" lon="-3.634705"><ele>647.8333333333334</ele><time>2026-03-07T14:24:49.009Z</time></trkpt><trkpt lat="36.8464375" lon="-3.6346969"><ele>651.0</ele><time>2026-03-07T14:24:50.006Z</time></trkpt><trkpt lat="36.8463698" lon="-3.6346889"><ele>651.0</ele><time>2026-03-07T14:24:51.016Z</time></trkpt><trkpt lat="36.8463039" lon="-3.634639"><ele>651.0</ele><time>2026-03-07T14:24:53.008Z</time></trkpt><trkpt lat="36.8462841" lon="-3.6345438"><ele>651.0</ele><time>2026-03-07T14:24:55.021Z</time></trkpt><trkpt lat="36.8462962" lon="-3.6344385"><ele>651.0</ele><time>2026-03-07T14:24:57.023Z</time></trkpt><trkpt lat="36.8464122" lon="-3.6343234"><ele>651.0</ele><time>2026-03-07T14:24:59.007Z</time></trkpt><trkpt lat="36.8464893" lon="-3.6342391"><ele>647.0</ele><time>2026-03-07T14:25:00.049Z</time></trkpt><trkpt lat="36.8465529" lon="-3.6341553"><ele>643.0</ele><time>2026-03-07T14:25:01.012Z</time></trkpt><trkpt lat="36.8466119" lon="-3.634071"><ele>639.0</ele><time>2026-03-07T14:25:02.004Z</time></trkpt><trkpt lat="36.8466679" lon="-3.6339972"><ele>635.0</ele><time>2026-03-07T14:25:03.013Z</time></trkpt><trkpt lat="36.8467141" lon="-3.6339251"><ele>631.0</ele><time>2026-03-07T14:25:04.015Z</time></trkpt><trkpt lat="36.8467901" lon="-3.6338388"><ele>627.0</ele><time>2026-03-07T14:25:06.008Z</time></trkpt><trkpt lat="36.8468624" lon="-3.6338923"><ele>625.8000000000001</ele><time>2026-03-07T14:25:09.007Z</time></trkpt><trkpt lat="36.8468671" lon="-3.6339862"><ele>624.6</ele><time>2026-03-07T14:25:11.012Z</time></trkpt><trkpt lat="36.8468567" lon="-3.634092"><ele>623.4000000000001</ele><time>2026-03-07T14:25:13.012Z</time></trkpt><trkpt lat="36.8469043" lon="-3.6341947"><ele>622.2</ele><time>2026-03-07T14:25:15.013Z</time></trkpt><trkpt lat="36.8469963" lon="-3.6343015"><ele>621.0</ele><time>2026-03-07T14:25:17.016Z</time></trkpt><trkpt lat="36.8470632" lon="-3.6343482"><ele>621.0</ele><time>2026-03-07T14:25:18.01Z</time></trkpt><trkpt lat="36.8471327" lon="-3.6344032"><ele>621.0</ele><time>2026-03-07T14:25:18.999Z</time></trkpt><trkpt lat="36.8472067" lon="-3.6344583"><ele>621.0</ele><time>2026-03-07T14:25:20.004Z</time></trkpt><trkpt lat="36.8472812" lon="-3.6345155"><ele>621.0</ele><time>2026-03-07T14:25:21.007Z</time></trkpt><trkpt lat="36.8473468" lon="-3.6345674"><ele>621.0</ele><time>2026-03-07T14:25:22Z</time></trkpt><trkpt lat="36.8474066" lon="-3.6346905"><ele>621.0</ele><time>2026-03-07T14:25:24.024Z</time></trkpt><trkpt lat="36.8474636" lon="-3.6347477"><ele>621.0</ele><time>2026-03-07T14:25:26.017Z</time></trkpt><trkpt lat="36.847532" lon="-3.6347186"><ele>621.0</ele><time>2026-03-07T14:25:29.007Z</time></trkpt><trkpt lat="36.8474805" lon="-3.6346196"><ele>621.0</ele><time>2026-03-07T14:25:31.012Z</time></trkpt><trkpt lat="36.8474261" lon="-3.634471"><ele>621.0</ele><time>2026-03-07T14:25:33.006Z</time></trkpt><trkpt lat="36.8473888" lon="-3.6343878"><ele>621.0</ele><time>2026-03-07T14:25:34.005Z</time></trkpt><trkpt lat="36.847362" lon="-3.634304"><ele>621.0</ele><time>2026-03-07T14:25:35.016Z</time></trkpt><trkpt lat="36.8473524" lon="-3.6342101"><ele>621.0</ele><time>2026-03-07T14:25:36.01Z</time></trkpt><trkpt lat="36.8473514" lon="-3.6341096"><ele>621.0</ele><time>2026-03-07T14:25:37.018Z</time></trkpt><trkpt lat="36.8473648" lon="-3.6340151"><ele>621.0</ele><time>2026-03-07T14:25:38.006Z</time></trkpt><trkpt lat="36.8473868" lon="-3.6339182"><ele>621.0</ele><time>2026-03-07T14:25:39.014Z</time></trkpt><trkpt lat="36.8474138" lon="-3.6338221"><ele>621.0</ele><time>2026-03-07T14:25:40.007Z</time></trkpt><trkpt lat="36.8474598" lon="-3.6337266"><ele>621.0</ele><time>2026-03-07T14:25:41.005Z</time></trkpt><trkpt lat="36.8475322" lon="-3.6336451"><ele>617.4</ele><time>2026-03-07T14:25:42.013Z</time></trkpt><trkpt lat="36.8476044" lon="-3.6335758"><ele>613.8</ele><time>2026-03-07T14:25:43.009Z</time></trkpt><trkpt lat="36.8476634" lon="-3.6335004"><ele>610.1999999999999</ele><time>2026-03-07T14:25:44.026Z</time></trkpt><trkpt lat="36.8477134" lon="-3.6334119"><ele>606.6</ele><time>2026-03-07T14:25:45.017Z</time></trkpt><trkpt lat="36.8477445" lon="-3.6333002"><ele>603.0</ele><time>2026-03-07T14:25:46.013Z</time></trkpt><trkpt lat="36.8477814" lon="-3.6331773"><ele>603.0</ele><time>2026-03-07T14:25:47.004Z</time></trkpt><trkpt lat="36.8478105" lon="-3.6330542"><ele>603.0</ele><time>2026-03-07T14:25:48.009Z</time></trkpt><trkpt lat="36.8478284" lon="-3.6329411"><ele>603.0</ele><time>2026-03-07T14:25:49.009Z</time></trkpt><trkpt lat="36.8478485" lon="-3.6328229"><ele>603.0</ele><time>2026-03-07T14:25:50.012Z</time></trkpt><trkpt lat="36.8478799" lon="-3.6327295"><ele>603.0</ele><time>2026-03-07T14:25:51.008Z</time></trkpt><trkpt lat="36.8479129" lon="-3.6326272"><ele>600.8333333333334</ele><time>2026-03-07T14:25:52.009Z</time></trkpt><trkpt lat="36.8479477" lon="-3.6325232"><ele>598.6666666666666</ele><time>2026-03-07T14:25:53.017Z</time></trkpt><trkpt lat="36.8479844" lon="-3.6324169"><ele>596.5</ele><time>2026-03-07T14:25:54.016Z</time></trkpt><trkpt lat="36.8480268" lon="-3.6323199"><ele>594.3333333333333</ele><time>2026-03-07T14:25:55.006Z</time></trkpt><trkpt lat="36.848067" lon="-3.6322276"><ele>592.1666666666666</ele><time>2026-03-07T14:25:56.012Z</time></trkpt><trkpt lat="36.8480774" lon="-3.6321213"><ele>590.0</ele><time>2026-03-07T14:25:57.003Z</time></trkpt><trkpt lat="36.8480715" lon="-3.6320086"><ele>589.2</ele><time>2026-03-07T14:25:58.004Z</time></trkpt><trkpt lat="36.8480544" lon="-3.6318848"><ele>588.4</ele><time>2026-03-07T14:25:59.001Z</time></trkpt><trkpt lat="36.8480387" lon="-3.6317692"><ele>587.6</ele><time>2026-03-07T14:25:59.999Z</time></trkpt><trkpt lat="36.8480309" lon="-3.63163"><ele>586.8</ele><time>2026-03-07T14:26:01.012Z</time></trkpt><trkpt lat="36.8480303" lon="-3.6314907"><ele>586.0</ele><time>2026-03-07T14:26:02.007Z</time></trkpt><trkpt lat="36.8480362" lon="-3.6313627"><ele>586.0</ele><time>2026-03-07T14:26:03.007Z</time></trkpt><trkpt lat="36.8480527" lon="-3.6312454"><ele>586.0</ele><time>2026-03-07T14:26:04.015Z</time></trkpt><trkpt lat="36.8480722" lon="-3.6311312"><ele>586.0</ele><time>2026-03-07T14:26:05.002Z</time></trkpt><trkpt lat="36.8480857" lon="-3.6310161"><ele>586.0</ele><time>2026-03-07T14:26:06.006Z</time></trkpt><trkpt lat="36.8481085" lon="-3.6309104"><ele>586.0</ele><time>2026-03-07T14:26:07.003Z</time></trkpt><trkpt lat="36.8481291" lon="-3.6308105"><ele>585.8</ele><time>2026-03-07T14:26:08.013Z</time></trkpt><trkpt lat="36.8481441" lon="-3.6307204"><ele>585.6</ele><time>2026-03-07T14:26:09.001Z</time></trkpt><trkpt lat="36.8481948" lon="-3.6305866"><ele>585.4</ele><time>2026-03-07T14:26:11.001Z</time></trkpt><trkpt lat="36.8482536" lon="-3.6305169"><ele>585.2</ele><time>2026-03-07T14:26:12.002Z</time></trkpt><trkpt lat="36.8483183" lon="-3.6304312"><ele>585.0</ele><time>2026-03-07T14:26:13.003Z</time></trkpt><trkpt lat="36.8483893" lon="-3.6303484"><ele>583.8333333333334</ele><time>2026-03-07T14:26:14Z</time></trkpt><trkpt lat="36.8484537" lon="-3.6302742"><ele>582.6666666666666</ele><time>2026-03-07T14:26:15.007Z</time></trkpt><trkpt lat="36.8485163" lon="-3.6302031"><ele>581.5</ele><time>2026-03-07T14:26:16.012Z</time></trkpt><trkpt lat="36.8485721" lon="-3.6301321"><ele>580.3333333333333</ele><time>2026-03-07T14:26:17.013Z</time></trkpt><trkpt lat="36.8486219" lon="-3.6300707"><ele>579.1666666666666</ele><time>2026-03-07T14:26:18.011Z</time></trkpt><trkpt lat="36.848668" lon="-3.6300114"><ele>578.0</ele><time>2026-03-07T14:26:19.012Z</time></trkpt><trkpt lat="36.8487044" lon="-3.6299418"><ele>577.8333333333333</ele><time>2026-03-07T14:26:20.014Z</time></trkpt><trkpt lat="36.8486987" lon="-3.6300973"><ele>577.6666666666666</ele><time>2026-03-07T14:26:27.009Z</time></trkpt><trkpt lat="36.8486692" lon="-3.6301691"><ele>577.5</ele><time>2026-03-07T14:26:28.017Z</time></trkpt><trkpt lat="36.8486431" lon="-3.6302426"><ele>577.3333333333334</ele><time>2026-03-07T14:26:29.01Z</time></trkpt><trkpt lat="36.8486149" lon="-3.6303152"><ele>577.1666666666667</ele><time>2026-03-07T14:26:30.007Z</time></trkpt><trkpt lat="36.8486028" lon="-3.6304034"><ele>577.0</ele><time>2026-03-07T14:26:31.023Z</time></trkpt><trkpt lat="36.848612" lon="-3.6304948"><ele>575.2</ele><time>2026-03-07T14:26:32.009Z</time></trkpt><trkpt lat="36.8486267" lon="-3.6306012"><ele>573.4000000000001</ele><time>2026-03-07T14:26:33.029Z</time></trkpt><trkpt lat="36.848637" lon="-3.6307173"><ele>571.5999999999999</ele><time>2026-03-07T14:26:34.011Z</time></trkpt><trkpt lat="36.8486439" lon="-3.630835"><ele>569.8</ele><time>2026-03-07T14:26:35.01Z</time></trkpt><trkpt lat="36.8486479" lon="-3.6309489"><ele>568.0</ele><time>2026-03-07T14:26:36.007Z</time></trkpt><trkpt lat="36.8486541" lon="-3.631056"><ele>569.6666666666667</ele><time>2026-03-07T14:26:37.015Z</time></trkpt><trkpt lat="36.8486632" lon="-3.6311595"><ele>571.3333333333334</ele><time>2026-03-07T14:26:38.017Z</time></trkpt><trkpt lat="36.8486862" lon="-3.6312623"><ele>573.0</ele><time>2026-03-07T14:26:39.025Z</time></trkpt><trkpt lat="36.8487105" lon="-3.6313578"><ele>574.6666666666666</ele><time>2026-03-07T14:26:40.037Z</time></trkpt><trkpt lat="36.8487332" lon="-3.631443"><ele>576.3333333333333</ele><time>2026-03-07T14:26:41.011Z</time></trkpt><trkpt lat="36.848764" lon="-3.6315459"><ele>578.0</ele><time>2026-03-07T14:26:43.006Z</time></trkpt><trkpt lat="36.8488323" lon="-3.6315825"><ele>578.0</ele><time>2026-03-07T14:26:45.019Z</time></trkpt><trkpt lat="36.8489461" lon="-3.6314983"><ele>578.0</ele><time>2026-03-07T14:26:47.008Z</time></trkpt><trkpt lat="36.8490175" lon="-3.6314393"><ele>578.0</ele><time>2026-03-07T14:26:48.02Z</time></trkpt><trkpt lat="36.8490983" lon="-3.6313882"><ele>578.0</ele><time>2026-03-07T14:26:49.011Z</time></trkpt><trkpt lat="36.8491802" lon="-3.6313584"><ele>578.0</ele><time>2026-03-07T14:26:50.028Z</time></trkpt><trkpt lat="36.8492637" lon="-3.6313449"><ele>574.6666666666666</ele><time>2026-03-07T14:26:51.01Z</time></trkpt><trkpt lat="36.8493433" lon="-3.6313407"><ele>571.3333333333333</ele><time>2026-03-07T14:26:52.004Z</time></trkpt><trkpt lat="36.8494147" lon="-3.6313301"><ele>568.0</ele><time>2026-03-07T14:26:53.016Z</time></trkpt><trkpt lat="36.8494779" lon="-3.6313434"><ele>564.6666666666666</ele><time>2026-03-07T14:26:54.011Z</time></trkpt><trkpt lat="36.8495361" lon="-3.631399"><ele>561.3333333333334</ele><time>2026-03-07T14:26:55.002Z</time></trkpt><trkpt lat="36.8495898" lon="-3.6314793"><ele>558.0</ele><time>2026-03-07T14:26:56.006Z</time></trkpt><trkpt lat="36.8496234" lon="-3.6315914"><ele>558.0</ele><time>2026-03-07T14:26:57.006Z</time></trkpt><trkpt lat="36.8496483" lon="-3.6317173"><ele>558.0</ele><time>2026-03-07T14:26:58.014Z</time></trkpt><trkpt lat="36.8496561" lon="-3.6318538"><ele>558.0</ele><time>2026-03-07T14:26:59.025Z</time></trkpt><trkpt lat="36.8496514" lon="-3.631981"><ele>558.0</ele><time>2026-03-07T14:27:00.03Z</time></trkpt><trkpt lat="36.8496345" lon="-3.6321159"><ele>558.0</ele><time>2026-03-07T14:27:01.023Z</time></trkpt><trkpt lat="36.8496231" lon="-3.6322461"><ele>560.0</ele><time>2026-03-07T14:27:02.006Z</time></trkpt><trkpt lat="36.8496462" lon="-3.6323727"><ele>562.0</ele><time>2026-03-07T14:27:03.01Z</time></trkpt><trkpt lat="36.849692" lon="-3.6324782"><ele>564.0</ele><time>2026-03-07T14:27:04.027Z</time></trkpt><trkpt lat="36.8497422" lon="-3.6325522"><ele>566.0</ele><time>2026-03-07T14:27:05.008Z</time></trkpt><trkpt lat="36.8498374" lon="-3.632641"><ele>568.0</ele><time>2026-03-07T14:27:07.002Z</time></trkpt><trkpt lat="36.8499631" lon="-3.6326372"><ele>568.0</ele><time>2026-03-07T14:27:09.001Z</time></trkpt><trkpt lat="36.8500279" lon="-3.6326027"><ele>568.0</ele><time>2026-03-07T14:27:10.007Z</time></trkpt><trkpt lat="36.8500911" lon="-3.6325628"><ele>568.0</ele><time>2026-03-07T14:27:11.007Z</time></trkpt><trkpt lat="36.8501933" lon="-3.6325114"><ele>568.0</ele><time>2026-03-07T14:27:13.003Z</time></trkpt><trkpt lat="36.8502648" lon="-3.6325211"><ele>568.0</ele><time>2026-03-07T14:27:15.015Z</time></trkpt><trkpt lat="36.8503703" lon="-3.6325141"><ele>568.0</ele><time>2026-03-07T14:27:17.02Z</time></trkpt><trkpt lat="36.8504453" lon="-3.6324572"><ele>568.6666666666667</ele><time>2026-03-07T14:27:18.011Z</time></trkpt><trkpt lat="36.850487" lon="-3.6323778"><ele>569.3333333333334</ele><time>2026-03-07T14:27:19.008Z</time></trkpt><trkpt lat="36.8505274" lon="-3.6323036"><ele>570.0</ele><time>2026-03-07T14:27:20.011Z</time></trkpt><trkpt lat="36.8505551" lon="-3.632225"><ele>570.6666666666666</ele><time>2026-03-07T14:27:21.008Z</time></trkpt><trkpt lat="36.850572" lon="-3.6321307"><ele>571.3333333333333</ele><time>2026-03-07T14:27:22.003Z</time></trkpt><trkpt lat="36.850598" lon="-3.6320348"><ele>572.0</ele><time>2026-03-07T14:27:23.007Z</time></trkpt><trkpt lat="36.8506389" lon="-3.6319407"><ele>572.0</ele><time>2026-03-07T14:27:24.013Z</time></trkpt><trkpt lat="36.8506786" lon="-3.631847"><ele>572.0</ele><time>2026-03-07T14:27:25.012Z</time></trkpt><trkpt lat="36.8507198" lon="-3.6317599"><ele>572.0</ele><time>2026-03-07T14:27:26.016Z</time></trkpt><trkpt lat="36.850762" lon="-3.6316746"><ele>572.0</ele><time>2026-03-07T14:27:27.019Z</time></trkpt><trkpt lat="36.8508243" lon="-3.6315831"><ele>572.0</ele><time>2026-03-07T14:27:28.003Z</time></trkpt><trkpt lat="36.8508912" lon="-3.6315027"><ele>572.0</ele><time>2026-03-07T14:27:28.998Z</time></trkpt><trkpt lat="36.8509677" lon="-3.6314025"><ele>572.6666666666666</ele><time>2026-03-07T14:27:30.008Z</time></trkpt><trkpt lat="36.8510378" lon="-3.6313174"><ele>573.3333333333333</ele><time>2026-03-07T14:27:31.02Z</time></trkpt><trkpt lat="36.8511064" lon="-3.6312473"><ele>574.0</ele><time>2026-03-07T14:27:32.009Z</time></trkpt><trkpt lat="36.8511733" lon="-3.6311797"><ele>574.6666666666666</ele><time>2026-03-07T14:27:33.02Z</time></trkpt><trkpt lat="36.8512274" lon="-3.6311188"><ele>575.3333333333334</ele><time>2026-03-07T14:27:34.025Z</time></trkpt><trkpt lat="36.8512823" lon="-3.6310612"><ele>576.0</ele><time>2026-03-07T14:27:35.041Z</time></trkpt><trkpt lat="36.8513691" lon="-3.630985"><ele>576.0</ele><time>2026-03-07T14:27:37.004Z</time></trkpt><trkpt lat="36.8514588" lon="-3.6310144"><ele>576.0</ele><time>2026-03-07T14:27:39.025Z</time></trkpt><trkpt lat="36.8515473" lon="-3.6311737"><ele>576.0</ele><time>2026-03-07T14:27:41.019Z</time></trkpt><trkpt lat="36.851622" lon="-3.631284"><ele>576.0</ele><time>2026-03-07T14:27:42.011Z</time></trkpt><trkpt lat="36.8517137" lon="-3.6314032"><ele>576.25</ele><time>2026-03-07T14:27:43.005Z</time></trkpt><trkpt lat="36.8518078" lon="-3.6315038"><ele>576.5</ele><time>2026-03-07T14:27:44.017Z</time></trkpt><trkpt lat="36.851899" lon="-3.6315896"><ele>576.75</ele><time>2026-03-07T14:27:45.004Z</time></trkpt><trkpt lat="36.8519872" lon="-3.6316684"><ele>577.0</ele><time>2026-03-07T14:27:46.017Z</time></trkpt><trkpt lat="36.8520787" lon="-3.6317363"><ele>577.0</ele><time>2026-03-07T14:27:47.012Z</time></trkpt><trkpt lat="36.8521723" lon="-3.6318108"><ele>577.0</ele><time>2026-03-07T14:27:48.001Z</time></trkpt><trkpt lat="36.8522671" lon="-3.6318724"><ele>577.0</ele><time>2026-03-07T14:27:49.007Z</time></trkpt><trkpt lat="36.8523556" lon="-3.6319228"><ele>577.0</ele><time>2026-03-07T14:27:50.007Z</time></trkpt><trkpt lat="36.8524395" lon="-3.6319729"><ele>577.0</ele><time>2026-03-07T14:27:51.007Z</time></trkpt><trkpt lat="36.8525196" lon="-3.6320267"><ele>577.0</ele><time>2026-03-07T14:27:52.005Z</time></trkpt><trkpt lat="36.8525912" lon="-3.6320754"><ele>577.0</ele><time>2026-03-07T14:27:53.012Z</time></trkpt><trkpt lat="36.8526478" lon="-3.6321199"><ele>577.0</ele><time>2026-03-07T14:27:54.016Z</time></trkpt><trkpt lat="36.8527029" lon="-3.6321608"><ele>577.0</ele><time>2026-03-07T14:27:55.013Z</time></trkpt><trkpt lat="36.8527635" lon="-3.6322024"><ele>577.0</ele><time>2026-03-07T14:27:56.007Z</time></trkpt><trkpt lat="36.8528353" lon="-3.6322337"><ele>577.0</ele><time>2026-03-07T14:27:57.011Z</time></trkpt><trkpt lat="36.8529125" lon="-3.6322707"><ele>577.0</ele><time>2026-03-07T14:27:58.007Z</time></trkpt><trkpt lat="36.8529915" lon="-3.6323004"><ele>577.0</ele><time>2026-03-07T14:27:59.007Z</time></trkpt><trkpt lat="36.853069" lon="-3.6323328"><ele>577.0</ele><time>2026-03-07T14:28:00.028Z</time></trkpt><trkpt lat="36.8531375" lon="-3.6323677"><ele>577.0</ele><time>2026-03-07T14:28:01.012Z</time></trkpt><trkpt lat="36.8531947" lon="-3.6324007"><ele>577.0</ele><time>2026-03-07T14:28:02.013Z</time></trkpt><trkpt lat="36.8532807" lon="-3.6324635"><ele>577.0</ele><time>2026-03-07T14:28:04.009Z</time></trkpt><trkpt lat="36.8533841" lon="-3.6325118"><ele>577.0</ele><time>2026-03-07T14:28:06.011Z</time></trkpt><trkpt lat="36.853491" lon="-3.6325556"><ele>575.8000000000001</ele><time>2026-03-07T14:28:08.01Z</time></trkpt><trkpt lat="36.8535932" lon="-3.6326454"><ele>574.6</ele><time>2026-03-07T14:28:10.015Z</time></trkpt><trkpt lat="36.8536995" lon="-3.6327188"><ele>573.4000000000001</ele><time>2026-03-07T14:28:12.009Z</time></trkpt><trkpt lat="36.8538269" lon="-3.6327485"><ele>572.2</ele><time>2026-03-07T14:28:14.005Z</time></trkpt><trkpt lat="36.8538984" lon="-3.6327583"><ele>571.0</ele><time>2026-03-07T14:28:14.994Z</time></trkpt><trkpt lat="36.8539685" lon="-3.6327437"><ele>571.0</ele><time>2026-03-07T14:28:16.022Z</time></trkpt><trkpt lat="36.8540324" lon="-3.632723"><ele>571.0</ele><time>2026-03-07T14:28:17.01Z</time></trkpt><trkpt lat="36.8540965" lon="-3.6327103"><ele>571.0</ele><time>2026-03-07T14:28:18.009Z</time></trkpt><trkpt lat="36.8541638" lon="-3.6327323"><ele>571.0</ele><time>2026-03-07T14:28:19.004Z</time></trkpt><trkpt lat="36.8542318" lon="-3.6327679"><ele>571.0</ele><time>2026-03-07T14:28:20.015Z</time></trkpt><trkpt lat="36.8542933" lon="-3.6328309"><ele>571.0</ele><time>2026-03-07T14:28:21.014Z</time></trkpt><trkpt lat="36.854357" lon="-3.6329007"><ele>571.0</ele><time>2026-03-07T14:28:22.031Z</time></trkpt><trkpt lat="36.8544052" lon="-3.632976"><ele>574.6666666666667</ele><time>2026-03-07T14:28:23.02Z</time></trkpt><trkpt lat="36.8544378" lon="-3.6330648"><ele>578.3333333333334</ele><time>2026-03-07T14:28:24.001Z</time></trkpt><trkpt lat="36.8544639" lon="-3.6331666"><ele>582.0</ele><time>2026-03-07T14:28:25.013Z</time></trkpt><trkpt lat="36.8544845" lon="-3.6332744"><ele>585.6666666666666</ele><time>2026-03-07T14:28:26.019Z</time></trkpt><trkpt lat="36.8545015" lon="-3.6333639"><ele>589.3333333333333</ele><time>2026-03-07T14:28:27.018Z</time></trkpt><trkpt lat="36.8545305" lon="-3.6334382"><ele>593.0</ele><time>2026-03-07T14:28:28.015Z</time></trkpt><trkpt lat="36.8546231" lon="-3.6335026"><ele>593.0</ele><time>2026-03-07T14:28:30.024Z</time></trkpt><trkpt lat="36.8547364" lon="-3.6334859"><ele>593.0</ele><time>2026-03-07T14:28:32.009Z</time></trkpt><trkpt lat="36.8548001" lon="-3.6334765"><ele>593.0</ele><time>2026-03-07T14:28:33.075Z</time></trkpt><trkpt lat="36.8549034" lon="-3.6334519"><ele>593.0</ele><time>2026-03-07T14:28:35.001Z</time></trkpt><trkpt lat="36.8549802" lon="-3.6333393"><ele>593.0</ele><time>2026-03-07T14:28:36.999Z</time></trkpt><trkpt lat="36.8550201" lon="-3.6332268"><ele>593.0</ele><time>2026-03-07T14:28:38.02Z</time></trkpt><trkpt lat="36.8550482" lon="-3.6331366"><ele>593.0</ele><time>2026-03-07T14:28:39.01Z</time></trkpt><trkpt lat="36.8551147" lon="-3.6330401"><ele>593.0</ele><time>2026-03-07T14:28:41.005Z</time></trkpt><trkpt lat="36.8552257" lon="-3.6330434"><ele>593.0</ele><time>2026-03-07T14:28:43.007Z</time></trkpt><trkpt lat="36.8553474" lon="-3.6330307"><ele>593.0</ele><time>2026-03-07T14:28:45.005Z</time></trkpt><trkpt lat="36.8554179" lon="-3.6330156"><ele>593.5714285714286</ele><time>2026-03-07T14:28:46.012Z</time></trkpt><trkpt lat="36.8554829" lon="-3.6330242"><ele>594.1428571428571</ele><time>2026-03-07T14:28:47.013Z</time></trkpt><trkpt lat="36.8555474" lon="-3.6330544"><ele>594.7142857142858</ele><time>2026-03-07T14:28:48.006Z</time></trkpt><trkpt lat="36.8556113" lon="-3.6330975"><ele>595.2857142857142</ele><time>2026-03-07T14:28:49.013Z</time></trkpt><trkpt lat="36.8556749" lon="-3.6331423"><ele>595.8571428571429</ele><time>2026-03-07T14:28:50.021Z</time></trkpt><trkpt lat="36.8557429" lon="-3.6331778"><ele>596.4285714285714</ele><time>2026-03-07T14:28:51.012Z</time></trkpt><trkpt lat="36.8558095" lon="-3.6331994"><ele>597.0</ele><time>2026-03-07T14:28:52.006Z</time></trkpt><trkpt lat="36.855879" lon="-3.6331977"><ele>597.0</ele><time>2026-03-07T14:28:53.004Z</time></trkpt><trkpt lat="36.8559507" lon="-3.6331781"><ele>597.0</ele><time>2026-03-07T14:28:54.005Z</time></trkpt><trkpt lat="36.8560233" lon="-3.6330698"><ele>597.0</ele><time>2026-03-07T14:28:56.008Z</time></trkpt><trkpt lat="36.8560331" lon="-3.6329843"><ele>597.0</ele><time>2026-03-07T14:28:57.012Z</time></trkpt><trkpt lat="36.8560502" lon="-3.6329013"><ele>597.0</ele><time>2026-03-07T14:28:58.017Z</time></trkpt><trkpt lat="36.8560923" lon="-3.6328183"><ele>597.0</ele><time>2026-03-07T14:28:59.01Z</time></trkpt><trkpt lat="36.8561393" lon="-3.632756"><ele>594.0</ele><time>2026-03-07T14:29:00.015Z</time></trkpt><trkpt lat="36.8561963" lon="-3.6327153"><ele>591.0</ele><time>2026-03-07T14:29:01.022Z</time></trkpt><trkpt lat="36.8562871" lon="-3.6326764"><ele>588.0</ele><time>2026-03-07T14:29:03.022Z</time></trkpt><trkpt lat="36.8563609" lon="-3.6326072"><ele>585.0</ele><time>2026-03-07T14:29:23.027Z</time></trkpt><trkpt lat="36.8562966" lon="-3.6325793"><ele>582.0</ele><time>2026-03-07T14:29:36.012Z</time></trkpt><trkpt lat="36.8562186" lon="-3.6326092"><ele>579.0</ele><time>2026-03-07T14:29:37.025Z</time></trkpt><trkpt lat="36.8561521" lon="-3.6326495"><ele>579.0</ele><time>2026-03-07T14:29:38.036Z</time></trkpt><trkpt lat="36.856085" lon="-3.6327659"><ele>579.0</ele><time>2026-03-07T14:29:40.015Z</time></trkpt><trkpt lat="36.8560658" lon="-3.6328714"><ele>579.0</ele><time>2026-03-07T14:29:41.008Z</time></trkpt><trkpt lat="36.8560537" lon="-3.632949"><ele>579.0</ele><time>2026-03-07T14:29:42.017Z</time></trkpt><trkpt lat="36.8560536" lon="-3.6330544"><ele>579.0</ele><time>2026-03-07T14:29:44.002Z</time></trkpt><trkpt lat="36.8559965" lon="-3.6331066"><ele>579.0</ele><time>2026-03-07T14:29:47.013Z</time></trkpt><trkpt lat="36.8559444" lon="-3.6330354"><ele>579.0</ele><time>2026-03-07T14:29:50.017Z</time></trkpt><trkpt lat="36.8559377" lon="-3.6329212"><ele>579.0</ele><time>2026-03-07T14:29:52.011Z</time></trkpt><trkpt lat="36.8559511" lon="-3.6327607"><ele>579.0</ele><time>2026-03-07T14:29:54.017Z</time></trkpt><trkpt lat="36.8559565" lon="-3.6326745"><ele>579.0</ele><time>2026-03-07T14:29:55.005Z</time></trkpt><trkpt lat="36.8559739" lon="-3.6325402"><ele>579.0</ele><time>2026-03-07T14:29:57.014Z</time></trkpt><trkpt lat="36.8559912" lon="-3.6324212"><ele>579.0</ele><time>2026-03-07T14:29:59.036Z</time></trkpt><trkpt lat="36.8559935" lon="-3.6323162"><ele>579.0</ele><time>2026-03-07T14:30:01.073Z</time></trkpt><trkpt lat="36.8559791" lon="-3.6322237"><ele>579.0</ele><time>2026-03-07T14:30:02.987Z</time></trkpt><trkpt lat="36.8559314" lon="-3.6321206"><ele>579.0</ele><time>2026-03-07T14:30:04.99Z</time></trkpt><trkpt lat="36.8558906" lon="-3.6319988"><ele>579.0</ele><time>2026-03-07T14:30:07.048Z</time></trkpt><trkpt lat="36.8558778" lon="-3.6318902"><ele>579.0</ele><time>2026-03-07T14:30:09.04Z</time></trkpt><trkpt lat="36.8558703" lon="-3.6317841"><ele>575.0</ele><time>2026-03-07T14:30:11.065Z</time></trkpt><trkpt lat="36.8558495" lon="-3.631706"><ele>571.0</ele><time>2026-03-07T14:30:13.013Z</time></trkpt><trkpt lat="36.8557807" lon="-3.631636"><ele>567.0</ele><time>2026-03-07T14:30:17.065Z</time></trkpt><trkpt lat="36.8556984" lon="-3.6316088"><ele>563.0</ele><time>2026-03-07T14:30:19.045Z</time></trkpt><trkpt lat="36.8556238" lon="-3.6315564"><ele>559.0</ele><time>2026-03-07T14:30:22.039Z</time></trkpt><trkpt lat="36.8555893" lon="-3.6314505"><ele>555.0</ele><time>2026-03-07T14:30:26.01Z</time></trkpt><trkpt lat="36.8556074" lon="-3.6313551"><ele>555.0</ele><time>2026-03-07T14:30:29.011Z</time></trkpt><trkpt lat="36.8555931" lon="-3.6312697"><ele>555.0</ele><time>2026-03-07T14:30:32.018Z</time></trkpt><trkpt lat="36.8555136" lon="-3.6312055"><ele>555.0</ele><time>2026-03-07T14:30:34.029Z</time></trkpt><trkpt lat="36.8554812" lon="-3.6310557"><ele>555.0</ele><time>2026-03-07T14:30:36.038Z</time></trkpt><trkpt lat="36.8554588" lon="-3.6309533"><ele>555.0</ele><time>2026-03-07T14:30:37.027Z</time></trkpt><trkpt lat="36.8554321" lon="-3.6308504"><ele>552.5</ele><time>2026-03-07T14:30:38.022Z</time></trkpt><trkpt lat="36.8554097" lon="-3.6307531"><ele>550.0</ele><time>2026-03-07T14:30:39.032Z</time></trkpt><trkpt lat="36.8553845" lon="-3.6306453"><ele>547.5</ele><time>2026-03-07T14:30:40.016Z</time></trkpt><trkpt lat="36.8553588" lon="-3.6305394"><ele>545.0</ele><time>2026-03-07T14:30:41.029Z</time></trkpt><trkpt lat="36.8553244" lon="-3.6304315"><ele>542.5</ele><time>2026-03-07T14:30:42.007Z</time></trkpt><trkpt lat="36.8552723" lon="-3.6303516"><ele>540.0</ele><time>2026-03-07T14:30:43.014Z</time></trkpt><trkpt lat="36.8552055" lon="-3.630295"><ele>537.8333333333334</ele><time>2026-03-07T14:30:44.011Z</time></trkpt><trkpt lat="36.8551504" lon="-3.6302486"><ele>535.6666666666666</ele><time>2026-03-07T14:30:45.014Z</time></trkpt><trkpt lat="36.8550924" lon="-3.6301879"><ele>533.5</ele><time>2026-03-07T14:30:46.027Z</time></trkpt><trkpt lat="36.8550356" lon="-3.6301016"><ele>531.3333333333333</ele><time>2026-03-07T14:30:47.006Z</time></trkpt><trkpt lat="36.8549804" lon="-3.6300148"><ele>529.1666666666666</ele><time>2026-03-07T14:30:48.029Z</time></trkpt><trkpt lat="36.8549387" lon="-3.6299177"><ele>527.0</ele><time>2026-03-07T14:30:49.009Z</time></trkpt><trkpt lat="36.8549073" lon="-3.6298007"><ele>526.6666666666666</ele><time>2026-03-07T14:30:49.992Z</time></trkpt><trkpt lat="36.8548837" lon="-3.6296831"><ele>526.3333333333333</ele><time>2026-03-07T14:30:51.012Z</time></trkpt><trkpt lat="36.8548907" lon="-3.6295792"><ele>526.0</ele><time>2026-03-07T14:30:52.025Z</time></trkpt><trkpt lat="36.8549064" lon="-3.6294945"><ele>525.6666666666666</ele><time>2026-03-07T14:30:53.01Z</time></trkpt><trkpt lat="36.8549095" lon="-3.6294124"><ele>525.3333333333334</ele><time>2026-03-07T14:30:55.017Z</time></trkpt><trkpt lat="36.8548425" lon="-3.6294319"><ele>525.0</ele><time>2026-03-07T14:30:57.02Z</time></trkpt><trkpt lat="36.8547619" lon="-3.6295642"><ele>525.0</ele><time>2026-03-07T14:30:59.042Z</time></trkpt><trkpt lat="36.8546592" lon="-3.6296129"><ele>525.0</ele><time>2026-03-07T14:31:01.014Z</time></trkpt><trkpt lat="36.8545668" lon="-3.6295361"><ele>525.0</ele><time>2026-03-07T14:31:03.011Z</time></trkpt><trkpt lat="36.8545147" lon="-3.6294096"><ele>525.0</ele><time>2026-03-07T14:31:05.023Z</time></trkpt><trkpt lat="36.8544705" lon="-3.6293373"><ele>525.0</ele><time>2026-03-07T14:31:07.001Z</time></trkpt><trkpt lat="36.854361" lon="-3.6293392"><ele>525.1666666666666</ele><time>2026-03-07T14:31:08.998Z</time></trkpt><trkpt lat="36.8542914" lon="-3.6293732"><ele>525.3333333333334</ele><time>2026-03-07T14:31:10.01Z</time></trkpt><trkpt lat="36.8542215" lon="-3.629423"><ele>525.5</ele><time>2026-03-07T14:31:11.007Z</time></trkpt><trkpt lat="36.8541493" lon="-3.6294902"><ele>525.6666666666667</ele><time>2026-03-07T14:31:12.024Z</time></trkpt><trkpt lat="36.8540784" lon="-3.6295519"><ele>525.8333333333334</ele><time>2026-03-07T14:31:13.014Z</time></trkpt><trkpt lat="36.8540129" lon="-3.6295961"><ele>526.0</ele><time>2026-03-07T14:31:14.004Z</time></trkpt><trkpt lat="36.8539535" lon="-3.6296248"><ele>526.0</ele><time>2026-03-07T14:31:15.009Z</time></trkpt><trkpt lat="36.853845" lon="-3.6295721"><ele>526.0</ele><time>2026-03-07T14:31:16.998Z</time></trkpt><trkpt lat="36.8537925" lon="-3.6294827"><ele>526.0</ele><time>2026-03-07T14:31:18.013Z</time></trkpt><trkpt lat="36.8537574" lon="-3.6293825"><ele>526.0</ele><time>2026-03-07T14:31:19.024Z</time></trkpt><trkpt lat="36.853741" lon="-3.6292626"><ele>526.0</ele><time>2026-03-07T14:31:20.04Z</time></trkpt><trkpt lat="36.8537393" lon="-3.6291323"><ele>523.4</ele><time>2026-03-07T14:31:21.006Z</time></trkpt><trkpt lat="36.8537402" lon="-3.6290014"><ele>520.8</ele><time>2026-03-07T14:31:22.001Z</time></trkpt><trkpt lat="36.8537354" lon="-3.6288725"><ele>518.1999999999999</ele><time>2026-03-07T14:31:23.004Z</time></trkpt><trkpt lat="36.8537218" lon="-3.6287553"><ele>515.6</ele><time>2026-03-07T14:31:24.009Z</time></trkpt><trkpt lat="36.8537066" lon="-3.6286448"><ele>513.0</ele><time>2026-03-07T14:31:25.016Z</time></trkpt><trkpt lat="36.8536936" lon="-3.6285366"><ele>511.5</ele><time>2026-03-07T14:31:26.006Z</time></trkpt><trkpt lat="36.853681" lon="-3.6284287"><ele>510.0</ele><time>2026-03-07T14:31:27.017Z</time></trkpt><trkpt lat="36.8536619" lon="-3.6283204"><ele>508.5</ele><time>2026-03-07T14:31:28.014Z</time></trkpt><trkpt lat="36.8536374" lon="-3.6282208"><ele>507.0</ele><time>2026-03-07T14:31:29.013Z</time></trkpt><trkpt lat="36.8536377" lon="-3.6281354"><ele>505.5</ele><time>2026-03-07T14:31:30.008Z</time></trkpt><trkpt lat="36.8536709" lon="-3.6280685"><ele>504.0</ele><time>2026-03-07T14:31:31.019Z</time></trkpt><trkpt lat="36.8537205" lon="-3.6280132"><ele>504.0</ele><time>2026-03-07T14:31:32.014Z</time></trkpt><trkpt lat="36.8537848" lon="-3.6279192"><ele>504.0</ele><time>2026-03-07T14:31:34.013Z</time></trkpt><trkpt lat="36.8537837" lon="-3.6277599"><ele>504.0</ele><time>2026-03-07T14:31:36.003Z</time></trkpt><trkpt lat="36.8537624" lon="-3.6276719"><ele>504.0</ele><time>2026-03-07T14:31:36.998Z</time></trkpt><trkpt lat="36.8537262" lon="-3.6275897"><ele>504.0</ele><time>2026-03-07T14:31:38.014Z</time></trkpt><trkpt lat="36.8536788" lon="-3.6275114"><ele>504.79999999999995</ele><time>2026-03-07T14:31:39.013Z</time></trkpt><trkpt lat="36.8536091" lon="-3.627436"><ele>505.59999999999997</ele><time>2026-03-07T14:31:40.007Z</time></trkpt><trkpt lat="36.85353" lon="-3.6273576"><ele>506.4</ele><time>2026-03-07T14:31:41.003Z</time></trkpt><trkpt lat="36.853446" lon="-3.627279"><ele>507.2</ele><time>2026-03-07T14:31:42.024Z</time></trkpt><trkpt lat="36.8533729" lon="-3.6271981"><ele>508.0</ele><time>2026-03-07T14:31:43.006Z</time></trkpt><trkpt lat="36.8533025" lon="-3.6271219"><ele>508.0</ele><time>2026-03-07T14:31:44.005Z</time></trkpt><trkpt lat="36.8532375" lon="-3.6270474"><ele>507.99999999999994</ele><time>2026-03-07T14:31:45.014Z</time></trkpt><trkpt lat="36.8531792" lon="-3.626968"><ele>507.99999999999994</ele><time>2026-03-07T14:31:46.018Z</time></trkpt><trkpt lat="36.8531219" lon="-3.6268861"><ele>508.0</ele><time>2026-03-07T14:31:47.032Z</time></trkpt><trkpt lat="36.8530552" lon="-3.626804"><ele>508.0</ele><time>2026-03-07T14:31:48.021Z</time></trkpt><trkpt lat="36.8529711" lon="-3.6267201"><ele>505.33333333333337</ele><time>2026-03-07T14:31:49.009Z</time></trkpt><trkpt lat="36.8529109" lon="-3.6266275"><ele>502.6666666666667</ele><time>2026-03-07T14:31:50.012Z</time></trkpt><trkpt lat="36.8528548" lon="-3.6265382"><ele>500.0</ele><time>2026-03-07T14:31:51.022Z</time></trkpt><trkpt lat="36.8528021" lon="-3.6264508"><ele>497.33333333333337</ele><time>2026-03-07T14:31:52.012Z</time></trkpt><trkpt lat="36.8527612" lon="-3.626359"><ele>494.6666666666667</ele><time>2026-03-07T14:31:53.027Z</time></trkpt><trkpt lat="36.8527328" lon="-3.6262554"><ele>492.0</ele><time>2026-03-07T14:31:54.005Z</time></trkpt><trkpt lat="36.8527169" lon="-3.6261381"><ele>489.3333333333333</ele><time>2026-03-07T14:31:55.029Z</time></trkpt><trkpt lat="36.8527003" lon="-3.6260178"><ele>486.66666666666663</ele><time>2026-03-07T14:31:56.01Z</time></trkpt><trkpt lat="36.8526824" lon="-3.6259086"><ele>484.0</ele><time>2026-03-07T14:31:57.016Z</time></trkpt><trkpt lat="36.8526689" lon="-3.6257992"><ele>481.3333333333333</ele><time>2026-03-07T14:31:57.999Z</time></trkpt><trkpt lat="36.8526449" lon="-3.6257013"><ele>478.66666666666663</ele><time>2026-03-07T14:31:59.012Z</time></trkpt><trkpt lat="36.8526418" lon="-3.6256107"><ele>476.0</ele><time>2026-03-07T14:32:00.038Z</time></trkpt><trkpt lat="36.8526587" lon="-3.62552"><ele>475.99999999999994</ele><time>2026-03-07T14:32:01.014Z</time></trkpt><trkpt lat="36.8526804" lon="-3.625431"><ele>476.0</ele><time>2026-03-07T14:32:02.001Z</time></trkpt><trkpt lat="36.852705" lon="-3.6253488"><ele>476.0</ele><time>2026-03-07T14:32:03.004Z</time></trkpt><trkpt lat="36.8527318" lon="-3.6252771"><ele>476.0</ele><time>2026-03-07T14:32:04.014Z</time></trkpt><trkpt lat="36.852784" lon="-3.6251314"><ele>475.99999999999994</ele><time>2026-03-07T14:32:06.03Z</time></trkpt><trkpt lat="36.8528315" lon="-3.6250074"><ele>476.0</ele><time>2026-03-07T14:32:08.005Z</time></trkpt><trkpt lat="36.8528754" lon="-3.6249426"><ele>474.16666666666663</ele><time>2026-03-07T14:32:10.045Z</time></trkpt><trkpt lat="36.8529223" lon="-3.62489"><ele>472.3333333333333</ele><time>2026-03-07T14:32:12.018Z</time></trkpt><trkpt lat="36.8530049" lon="-3.6248996"><ele>470.5</ele><time>2026-03-07T14:32:16.022Z</time></trkpt><trkpt lat="36.8530893" lon="-3.6249154"><ele>468.66666666666663</ele><time>2026-03-07T14:32:19.008Z</time></trkpt><trkpt lat="36.853165" lon="-3.6249466"><ele>466.8333333333333</ele><time>2026-03-07T14:32:22.023Z</time></trkpt><trkpt lat="36.8532199" lon="-3.6250168"><ele>465.0</ele><time>2026-03-07T14:32:25.025Z</time></trkpt><trkpt lat="36.8532888" lon="-3.6250241"><ele>465.0</ele><time>2026-03-07T14:32:32.062Z</time></trkpt><trkpt lat="36.8532467" lon="-3.6249203"><ele>465.0</ele><time>2026-03-07T14:32:41.011Z</time></trkpt><trkpt lat="36.8531728" lon="-3.6248381"><ele>465.0</ele><time>2026-03-07T14:32:43.013Z</time></trkpt><trkpt lat="36.8531066" lon="-3.6247413"><ele>465.0</ele><time>2026-03-07T14:32:45.021Z</time></trkpt><trkpt lat="36.8531827" lon="-3.6247008"><ele>465.0</ele><time>2026-03-07T14:32:49.005Z</time></trkpt><trkpt lat="36.8532645" lon="-3.6247324"><ele>465.0</ele><time>2026-03-07T14:32:52.019Z</time></trkpt><trkpt lat="36.8533327" lon="-3.6247597"><ele>465.0</ele><time>2026-03-07T14:32:54.012Z</time></trkpt><trkpt lat="36.8534373" lon="-3.6248135"><ele>465.0</ele><time>2026-03-07T14:32:56.02Z</time></trkpt><trkpt lat="36.8534987" lon="-3.6248377"><ele>465.0</ele><time>2026-03-07T14:32:57.01Z</time></trkpt><trkpt lat="36.8535678" lon="-3.6248538"><ele>465.0</ele><time>2026-03-07T14:32:58.026Z</time></trkpt><trkpt lat="36.8536562" lon="-3.6248554"><ele>465.0</ele><time>2026-03-07T14:32:59.02Z</time></trkpt><trkpt lat="36.8537347" lon="-3.6248652"><ele>464.5</ele><time>2026-03-07T14:33:00.053Z</time></trkpt><trkpt lat="36.853816" lon="-3.6249019"><ele>464.0</ele><time>2026-03-07T14:33:01.006Z</time></trkpt><trkpt lat="36.8538991" lon="-3.6249551"><ele>463.5</ele><time>2026-03-07T14:33:02.013Z</time></trkpt><trkpt lat="36.8539746" lon="-3.6250092"><ele>463.0</ele><time>2026-03-07T14:33:03.025Z</time></trkpt><trkpt lat="36.8540506" lon="-3.6250542"><ele>462.5</ele><time>2026-03-07T14:33:04.008Z</time></trkpt><trkpt lat="36.8541252" lon="-3.6250938"><ele>462.0</ele><time>2026-03-07T14:33:05.009Z</time></trkpt><trkpt lat="36.854199" lon="-3.6251166"><ele>462.0</ele><time>2026-03-07T14:33:06.006Z</time></trkpt><trkpt lat="36.854266" lon="-3.6251282"><ele>462.00000000000006</ele><time>2026-03-07T14:33:07.014Z</time></trkpt><trkpt lat="36.8543698" lon="-3.6251366"><ele>462.00000000000006</ele><time>2026-03-07T14:33:09.013Z</time></trkpt><trkpt lat="36.8544859" lon="-3.6251039"><ele>462.0</ele><time>2026-03-07T14:33:11.013Z</time></trkpt><trkpt lat="36.8545637" lon="-3.6250904"><ele>462.0</ele><time>2026-03-07T14:33:12.015Z</time></trkpt><trkpt lat="36.8546431" lon="-3.6250657"><ele>462.0</ele><time>2026-03-07T14:33:12.996Z</time></trkpt><trkpt lat="36.8547177" lon="-3.6250278"><ele>462.0</ele><time>2026-03-07T14:33:14.012Z</time></trkpt><trkpt lat="36.8547928" lon="-3.624982"><ele>462.0</ele><time>2026-03-07T14:33:15.005Z</time></trkpt><trkpt lat="36.8548637" lon="-3.6249409"><ele>462.0</ele><time>2026-03-07T14:33:16.002Z</time></trkpt><trkpt lat="36.8549395" lon="-3.6249182"><ele>462.0</ele><time>2026-03-07T14:33:17.005Z</time></trkpt><trkpt lat="36.855023" lon="-3.6249036"><ele>462.0</ele><time>2026-03-07T14:33:18.02Z</time></trkpt><trkpt lat="36.8551127" lon="-3.6248966"><ele>458.75</ele><time>2026-03-07T14:33:19.019Z</time></trkpt><trkpt lat="36.855211" lon="-3.624897"><ele>455.5</ele><time>2026-03-07T14:33:20Z</time></trkpt><trkpt lat="36.8553155" lon="-3.6249277"><ele>452.25</ele><time>2026-03-07T14:33:21.015Z</time></trkpt><trkpt lat="36.8554288" lon="-3.6249858"><ele>449.0</ele><time>2026-03-07T14:33:22.007Z</time></trkpt><trkpt lat="36.8555335" lon="-3.6250673"><ele>449.0</ele><time>2026-03-07T14:33:23.018Z</time></trkpt><trkpt lat="36.8556307" lon="-3.6251555"><ele>449.0</ele><time>2026-03-07T14:33:24.01Z</time></trkpt><trkpt lat="36.8557188" lon="-3.6252386"><ele>449.0</ele><time>2026-03-07T14:33:25.003Z</time></trkpt><trkpt lat="36.8558038" lon="-3.6253166"><ele>449.0</ele><time>2026-03-07T14:33:26.01Z</time></trkpt><trkpt lat="36.8558751" lon="-3.6254017"><ele>449.0</ele><time>2026-03-07T14:33:27.005Z</time></trkpt><trkpt lat="36.8559516" lon="-3.6254737"><ele>451.6</ele><time>2026-03-07T14:33:28.058Z</time></trkpt><trkpt lat="36.8560274" lon="-3.6255322"><ele>454.2</ele><time>2026-03-07T14:33:29.014Z</time></trkpt><trkpt lat="36.8561119" lon="-3.6255576"><ele>456.80000000000007</ele><time>2026-03-07T14:33:30.01Z</time></trkpt><trkpt lat="36.8561989" lon="-3.6255524"><ele>459.40000000000003</ele><time>2026-03-07T14:33:31.006Z</time></trkpt><trkpt lat="36.8562937" lon="-3.6255566"><ele>462.0</ele><time>2026-03-07T14:33:32.015Z</time></trkpt><trkpt lat="36.8563891" lon="-3.6255585"><ele>462.0</ele><time>2026-03-07T14:33:33.008Z</time></trkpt><trkpt lat="36.8564751" lon="-3.6255804"><ele>462.0</ele><time>2026-03-07T14:33:34Z</time></trkpt><trkpt lat="36.8565544" lon="-3.625602"><ele>462.0</ele><time>2026-03-07T14:33:35.005Z</time></trkpt><trkpt lat="36.856633" lon="-3.6256297"><ele>462.0</ele><time>2026-03-07T14:33:36.008Z</time></trkpt><trkpt lat="36.8567104" lon="-3.6256782"><ele>462.0</ele><time>2026-03-07T14:33:37.014Z</time></trkpt><trkpt lat="36.8567865" lon="-3.6257389"><ele>462.0</ele><time>2026-03-07T14:33:38.014Z</time></trkpt><trkpt lat="36.8568557" lon="-3.6258121"><ele>459.85714285714283</ele><time>2026-03-07T14:33:39Z</time></trkpt><trkpt lat="36.8569134" lon="-3.6258831"><ele>457.7142857142857</ele><time>2026-03-07T14:33:40.008Z</time></trkpt><trkpt lat="36.856944" lon="-3.62596"><ele>455.57142857142856</ele><time>2026-03-07T14:33:41.01Z</time></trkpt><trkpt lat="36.8569476" lon="-3.6260486"><ele>453.42857142857144</ele><time>2026-03-07T14:33:42.003Z</time></trkpt><trkpt lat="36.8569199" lon="-3.6261412"><ele>451.2857142857143</ele><time>2026-03-07T14:33:43.012Z</time></trkpt><trkpt lat="36.8568837" lon="-3.6262157"><ele>449.1428571428571</ele><time>2026-03-07T14:33:44.021Z</time></trkpt><trkpt lat="36.8568623" lon="-3.6262906"><ele>447.0</ele><time>2026-03-07T14:33:45.024Z</time></trkpt><trkpt lat="36.8568682" lon="-3.6264175"><ele>447.0</ele><time>2026-03-07T14:33:47.008Z</time></trkpt><trkpt lat="36.8569439" lon="-3.626483"><ele>447.00000000000006</ele><time>2026-03-07T14:33:49.062Z</time></trkpt><trkpt lat="36.8570686" lon="-3.6265383"><ele>447.00000000000006</ele><time>2026-03-07T14:33:51.003Z</time></trkpt><trkpt lat="36.8571178" lon="-3.6266063"><ele>447.0</ele><time>2026-03-07T14:33:52.014Z</time></trkpt><trkpt lat="36.8571661" lon="-3.6266987"><ele>447.0</ele><time>2026-03-07T14:33:53.005Z</time></trkpt><trkpt lat="36.8572209" lon="-3.6267985"><ele>447.0</ele><time>2026-03-07T14:33:54.087Z</time></trkpt><trkpt lat="36.8572808" lon="-3.6269088"><ele>447.00000000000006</ele><time>2026-03-07T14:33:55.009Z</time></trkpt><trkpt lat="36.8573384" lon="-3.6270165"><ele>447.00000000000006</ele><time>2026-03-07T14:33:56.008Z</time></trkpt><trkpt lat="36.8573848" lon="-3.6271181"><ele>447.0</ele><time>2026-03-07T14:33:57.016Z</time></trkpt><trkpt lat="36.8574381" lon="-3.6272026"><ele>447.0</ele><time>2026-03-07T14:33:58.016Z</time></trkpt><trkpt lat="36.8575051" lon="-3.6272575"><ele>451.0</ele><time>2026-03-07T14:33:59.01Z</time></trkpt><trkpt lat="36.8575774" lon="-3.6272683"><ele>455.0</ele><time>2026-03-07T14:34:00.013Z</time></trkpt><trkpt lat="36.8576518" lon="-3.6272314"><ele>459.0</ele><time>2026-03-07T14:34:01.008Z</time></trkpt><trkpt lat="36.857717" lon="-3.6271536"><ele>463.0</ele><time>2026-03-07T14:34:02.003Z</time></trkpt><trkpt lat="36.8577836" lon="-3.627092"><ele>467.0</ele><time>2026-03-07T14:34:03.022Z</time></trkpt><trkpt lat="36.8578544" lon="-3.6270573"><ele>471.0</ele><time>2026-03-07T14:34:03.998Z</time></trkpt><trkpt lat="36.8579422" lon="-3.6270768"><ele>471.0</ele><time>2026-03-07T14:34:05.009Z</time></trkpt><trkpt lat="36.8580307" lon="-3.6271217"><ele>471.0</ele><time>2026-03-07T14:34:06Z</time></trkpt><trkpt lat="36.8581162" lon="-3.6271541"><ele>471.0</ele><time>2026-03-07T14:34:07.005Z</time></trkpt><trkpt lat="36.8581928" lon="-3.6271888"><ele>471.0</ele><time>2026-03-07T14:34:08.007Z</time></trkpt><trkpt lat="36.8582616" lon="-3.6272029"><ele>471.0</ele><time>2026-03-07T14:34:09.01Z</time></trkpt><trkpt lat="36.858328" lon="-3.6272144"><ele>471.0</ele><time>2026-03-07T14:34:09.999Z</time></trkpt><trkpt lat="36.8583974" lon="-3.6272339"><ele>470.0</ele><time>2026-03-07T14:34:11.033Z</time></trkpt><trkpt lat="36.8584773" lon="-3.627243"><ele>469.0</ele><time>2026-03-07T14:34:11.999Z</time></trkpt><trkpt lat="36.8585615" lon="-3.6272417"><ele>468.0</ele><time>2026-03-07T14:34:12.998Z</time></trkpt><trkpt lat="36.8586354" lon="-3.6272399"><ele>467.0</ele><time>2026-03-07T14:34:14.007Z</time></trkpt><trkpt lat="36.8587052" lon="-3.6272338"><ele>466.0</ele><time>2026-03-07T14:34:15.001Z</time></trkpt><trkpt lat="36.8587753" lon="-3.6272298"><ele>465.0</ele><time>2026-03-07T14:34:16.005Z</time></trkpt><trkpt lat="36.858851" lon="-3.6272219"><ele>465.0</ele><time>2026-03-07T14:34:17.009Z</time></trkpt><trkpt lat="36.8589281" lon="-3.6272028"><ele>465.0</ele><time>2026-03-07T14:34:17.998Z</time></trkpt><trkpt lat="36.858995" lon="-3.6271745"><ele>465.0</ele><time>2026-03-07T14:34:18.993Z</time></trkpt><trkpt lat="36.859064" lon="-3.6271426"><ele>465.0</ele><time>2026-03-07T14:34:19.998Z</time></trkpt><trkpt lat="36.8591392" lon="-3.6271146"><ele>465.0</ele><time>2026-03-07T14:34:21.006Z</time></trkpt><trkpt lat="36.8592095" lon="-3.6270668"><ele>465.0</ele><time>2026-03-07T14:34:22.013Z</time></trkpt><trkpt lat="36.8592569" lon="-3.6269947"><ele>464.5</ele><time>2026-03-07T14:34:23.005Z</time></trkpt><trkpt lat="36.859308" lon="-3.6269265"><ele>464.0</ele><time>2026-03-07T14:34:24.016Z</time></trkpt><trkpt lat="36.8593779" lon="-3.6268968"><ele>463.5</ele><time>2026-03-07T14:34:25.015Z</time></trkpt><trkpt lat="36.8594588" lon="-3.6269015"><ele>463.0</ele><time>2026-03-07T14:34:26.007Z</time></trkpt><trkpt lat="36.8595343" lon="-3.6269418"><ele>462.5</ele><time>2026-03-07T14:34:26.997Z</time></trkpt><trkpt lat="36.859601" lon="-3.6270055"><ele>462.0</ele><time>2026-03-07T14:34:28Z</time></trkpt><trkpt lat="36.8596582" lon="-3.6270882"><ele>462.0</ele><time>2026-03-07T14:34:29.014Z</time></trkpt><trkpt lat="36.8596856" lon="-3.6271946"><ele>462.00000000000006</ele><time>2026-03-07T14:34:30.01Z</time></trkpt><trkpt lat="36.8596772" lon="-3.6273198"><ele>462.00000000000006</ele><time>2026-03-07T14:34:31.006Z</time></trkpt><trkpt lat="36.8596241" lon="-3.6274501"><ele>462.0</ele><time>2026-03-07T14:34:32.002Z</time></trkpt><trkpt lat="36.8595686" lon="-3.6276023"><ele>462.0</ele><time>2026-03-07T14:34:32.994Z</time></trkpt><trkpt lat="36.8595101" lon="-3.6277585"><ele>463.0</ele><time>2026-03-07T14:34:34Z</time></trkpt><trkpt lat="36.8594523" lon="-3.6279122"><ele>464.0</ele><time>2026-03-07T14:34:35.017Z</time></trkpt><trkpt lat="36.8594046" lon="-3.6280647"><ele>465.0</ele><time>2026-03-07T14:34:36.023Z</time></trkpt><trkpt lat="36.859348" lon="-3.6282091"><ele>466.0</ele><time>2026-03-07T14:34:36.996Z</time></trkpt><trkpt lat="36.85928" lon="-3.6283423"><ele>466.0</ele><time>2026-03-07T14:34:38.001Z</time></trkpt><trkpt lat="36.8592133" lon="-3.6284698"><ele>466.0</ele><time>2026-03-07T14:34:38.992Z</time></trkpt><trkpt lat="36.8591512" lon="-3.6285895"><ele>466.0</ele><time>2026-03-07T14:34:40.011Z</time></trkpt><trkpt lat="36.8591049" lon="-3.628708"><ele>466.0</ele><time>2026-03-07T14:34:41.009Z</time></trkpt><trkpt lat="36.8590658" lon="-3.6288276"><ele>466.0</ele><time>2026-03-07T14:34:41.998Z</time></trkpt><trkpt lat="36.8590328" lon="-3.6289521"><ele>464.6</ele><time>2026-03-07T14:34:43.003Z</time></trkpt><trkpt lat="36.8590082" lon="-3.6290777"><ele>463.20000000000005</ele><time>2026-03-07T14:34:44.005Z</time></trkpt><trkpt lat="36.8590001" lon="-3.6291926"><ele>461.79999999999995</ele><time>2026-03-07T14:34:45.007Z</time></trkpt><trkpt lat="36.8590079" lon="-3.6292946"><ele>460.4</ele><time>2026-03-07T14:34:46.007Z</time></trkpt><trkpt lat="36.8590388" lon="-3.6293901"><ele>459.0</ele><time>2026-03-07T14:34:47.004Z</time></trkpt><trkpt lat="36.8591102" lon="-3.6294745"><ele>460.25</ele><time>2026-03-07T14:34:48.013Z</time></trkpt><trkpt lat="36.8592101" lon="-3.6295567"><ele>461.5</ele><time>2026-03-07T14:34:49.031Z</time></trkpt><trkpt lat="36.859315" lon="-3.6296431"><ele>462.75</ele><time>2026-03-07T14:34:50.019Z</time></trkpt><trkpt lat="36.859417" lon="-3.6297161"><ele>464.0</ele><time>2026-03-07T14:34:51.006Z</time></trkpt><trkpt lat="36.8595199" lon="-3.6297681"><ele>464.0</ele><time>2026-03-07T14:34:52.019Z</time></trkpt><trkpt lat="36.8596248" lon="-3.6298117"><ele>464.0</ele><time>2026-03-07T14:34:53.008Z</time></trkpt><trkpt lat="36.8597299" lon="-3.6298446"><ele>464.0</ele><time>2026-03-07T14:34:54.003Z</time></trkpt><trkpt lat="36.8598334" lon="-3.6298551"><ele>464.0</ele><time>2026-03-07T14:34:55.011Z</time></trkpt><trkpt lat="36.8599272" lon="-3.6298487"><ele>464.0</ele><time>2026-03-07T14:34:56.012Z</time></trkpt><trkpt lat="36.8600092" lon="-3.6298207"><ele>464.0</ele><time>2026-03-07T14:34:57.012Z</time></trkpt><trkpt lat="36.860079" lon="-3.6297392"><ele>464.0</ele><time>2026-03-07T14:34:58.004Z</time></trkpt><trkpt lat="36.860146" lon="-3.629632"><ele>464.0</ele><time>2026-03-07T14:34:59.003Z</time></trkpt><trkpt lat="36.8602193" lon="-3.6295244"><ele>464.0</ele><time>2026-03-07T14:35:00.029Z</time></trkpt><trkpt lat="36.860304" lon="-3.6294735"><ele>464.0</ele><time>2026-03-07T14:35:00.998Z</time></trkpt><trkpt lat="36.8603771" lon="-3.6294618"><ele>465.3333333333333</ele><time>2026-03-07T14:35:02.002Z</time></trkpt><trkpt lat="36.8604666" lon="-3.6294567"><ele>466.66666666666663</ele><time>2026-03-07T14:35:04.03Z</time></trkpt><trkpt lat="36.8605371" lon="-3.6294777"><ele>468.0</ele><time>2026-03-07T14:35:41.999Z</time></trkpt><trkpt lat="36.860623" lon="-3.6294698"><ele>469.33333333333337</ele><time>2026-03-07T14:35:44.005Z</time></trkpt><trkpt lat="36.8606916" lon="-3.6294641"><ele>470.6666666666667</ele><time>2026-03-07T14:35:45.023Z</time></trkpt><trkpt lat="36.8607741" lon="-3.6294496"><ele>472.0</ele><time>2026-03-07T14:35:46.06Z</time></trkpt><trkpt lat="36.8608861" lon="-3.6294937"><ele>472.00000000000006</ele><time>2026-03-07T14:35:48.004Z</time></trkpt><trkpt lat="36.8609448" lon="-3.6295366"><ele>472.0</ele><time>2026-03-07T14:35:49.002Z</time></trkpt><trkpt lat="36.8610066" lon="-3.6295808"><ele>472.0</ele><time>2026-03-07T14:35:49.997Z</time></trkpt><trkpt lat="36.8610827" lon="-3.6296178"><ele>472.0</ele><time>2026-03-07T14:35:51.011Z</time></trkpt><trkpt lat="36.8611739" lon="-3.6296311"><ele>472.00000000000006</ele><time>2026-03-07T14:35:52.002Z</time></trkpt><trkpt lat="36.8612501" lon="-3.6296676"><ele>472.0</ele><time>2026-03-07T14:35:53.013Z</time></trkpt><trkpt lat="36.8613199" lon="-3.6297409"><ele>475.20000000000005</ele><time>2026-03-07T14:35:54.002Z</time></trkpt><trkpt lat="36.8613976" lon="-3.6298229"><ele>478.40000000000003</ele><time>2026-03-07T14:35:55Z</time></trkpt><trkpt lat="36.8614828" lon="-3.6298987"><ele>481.59999999999997</ele><time>2026-03-07T14:35:56.018Z</time></trkpt><trkpt lat="36.8615737" lon="-3.6299858"><ele>484.79999999999995</ele><time>2026-03-07T14:35:57.008Z</time></trkpt><trkpt lat="36.861656" lon="-3.6300807"><ele>488.0</ele><time>2026-03-07T14:35:57.997Z</time></trkpt><trkpt lat="36.8617377" lon="-3.6301687"><ele>487.59999999999997</ele><time>2026-03-07T14:35:59.004Z</time></trkpt><trkpt lat="36.8618153" lon="-3.6302639"><ele>487.19999999999993</ele><time>2026-03-07T14:36:00.008Z</time></trkpt><trkpt lat="36.8618903" lon="-3.6303493"><ele>486.8</ele><time>2026-03-07T14:36:00.991Z</time></trkpt><trkpt lat="36.8619756" lon="-3.6304134"><ele>486.4</ele><time>2026-03-07T14:36:02.003Z</time></trkpt><trkpt lat="36.8620692" lon="-3.6304554"><ele>486.0</ele><time>2026-03-07T14:36:03.002Z</time></trkpt><trkpt lat="36.8621611" lon="-3.6304738"><ele>486.0</ele><time>2026-03-07T14:36:04.001Z</time></trkpt><trkpt lat="36.8622456" lon="-3.6304807"><ele>486.0</ele><time>2026-03-07T14:36:05Z</time></trkpt><trkpt lat="36.8623177" lon="-3.6304736"><ele>486.0</ele><time>2026-03-07T14:36:06.009Z</time></trkpt><trkpt lat="36.8623832" lon="-3.6304424"><ele>486.0</ele><time>2026-03-07T14:36:07.014Z</time></trkpt><trkpt lat="36.8624569" lon="-3.6304414"><ele>486.0</ele><time>2026-03-07T14:36:08.002Z</time></trkpt><trkpt lat="36.8625267" lon="-3.6304717"><ele>486.0</ele><time>2026-03-07T14:36:08.998Z</time></trkpt><trkpt lat="36.8625866" lon="-3.6305355"><ele>490.20000000000005</ele><time>2026-03-07T14:36:10.011Z</time></trkpt><trkpt lat="36.8626489" lon="-3.6306094"><ele>494.40000000000003</ele><time>2026-03-07T14:36:11.007Z</time></trkpt><trkpt lat="36.8627276" lon="-3.6306708"><ele>498.6</ele><time>2026-03-07T14:36:12.008Z</time></trkpt><trkpt lat="36.862822" lon="-3.6307203"><ele>502.8</ele><time>2026-03-07T14:36:12.997Z</time></trkpt><trkpt lat="36.8629271" lon="-3.6307572"><ele>507.0</ele><time>2026-03-07T14:36:14.002Z</time></trkpt><trkpt lat="36.8630483" lon="-3.6307719"><ele>507.0</ele><time>2026-03-07T14:36:15.026Z</time></trkpt><trkpt lat="36.8631795" lon="-3.6307737"><ele>507.00000000000006</ele><time>2026-03-07T14:36:16.003Z</time></trkpt><trkpt lat="36.8632999" lon="-3.630754"><ele>507.00000000000006</ele><time>2026-03-07T14:36:17.009Z</time></trkpt><trkpt lat="36.8633922" lon="-3.6307453"><ele>507.0</ele><time>2026-03-07T14:36:18Z</time></trkpt><trkpt lat="36.8634719" lon="-3.6307361"><ele>507.0</ele><time>2026-03-07T14:36:18.997Z</time></trkpt><trkpt lat="36.8635443" lon="-3.6307323"><ele>511.1666666666667</ele><time>2026-03-07T14:36:19.991Z</time></trkpt><trkpt lat="36.8636323" lon="-3.6307537"><ele>515.3333333333334</ele><time>2026-03-07T14:36:22Z</time></trkpt><trkpt lat="36.8636752" lon="-3.6308306"><ele>519.5</ele><time>2026-03-07T14:36:24.001Z</time></trkpt><trkpt lat="36.8636824" lon="-3.6309273"><ele>523.6666666666667</ele><time>2026-03-07T14:36:26.011Z</time></trkpt><trkpt lat="36.8636447" lon="-3.6310017"><ele>527.8333333333334</ele><time>2026-03-07T14:36:27.001Z</time></trkpt><trkpt lat="36.8635962" lon="-3.6310963"><ele>532.0</ele><time>2026-03-07T14:36:27.999Z</time></trkpt><trkpt lat="36.8635637" lon="-3.6312025"><ele>533.8000000000001</ele><time>2026-03-07T14:36:29.001Z</time></trkpt><trkpt lat="36.8635424" lon="-3.6313015"><ele>535.6</ele><time>2026-03-07T14:36:30.003Z</time></trkpt><trkpt lat="36.8635488" lon="-3.631413"><ele>537.4000000000001</ele><time>2026-03-07T14:36:31.032Z</time></trkpt><trkpt lat="36.8635815" lon="-3.6315403"><ele>539.2</ele><time>2026-03-07T14:36:32.018Z</time></trkpt><trkpt lat="36.8636181" lon="-3.6316756"><ele>541.0</ele><time>2026-03-07T14:36:33.032Z</time></trkpt><trkpt lat="36.8636473" lon="-3.6318037"><ele>541.0</ele><time>2026-03-07T14:36:34.011Z</time></trkpt><trkpt lat="36.863666" lon="-3.6319272"><ele>541.0</ele><time>2026-03-07T14:36:35.024Z</time></trkpt><trkpt lat="36.8637155" lon="-3.632034"><ele>541.0</ele><time>2026-03-07T14:36:36Z</time></trkpt><trkpt lat="36.8637876" lon="-3.6321281"><ele>541.0</ele><time>2026-03-07T14:36:37.002Z</time></trkpt><trkpt lat="36.8638834" lon="-3.6322013"><ele>541.0</ele><time>2026-03-07T14:36:38.002Z</time></trkpt><trkpt lat="36.8639865" lon="-3.6322705"><ele>538.2</ele><time>2026-03-07T14:36:39.005Z</time></trkpt><trkpt lat="36.8640824" lon="-3.6323363"><ele>535.4000000000001</ele><time>2026-03-07T14:36:40.008Z</time></trkpt><trkpt lat="36.8641649" lon="-3.6324047"><ele>532.6</ele><time>2026-03-07T14:36:41.005Z</time></trkpt><trkpt lat="36.8642429" lon="-3.6324901"><ele>529.8000000000001</ele><time>2026-03-07T14:36:42Z</time></trkpt><trkpt lat="36.8643284" lon="-3.6326027"><ele>527.0</ele><time>2026-03-07T14:36:43.004Z</time></trkpt><trkpt lat="36.8644124" lon="-3.6327237"><ele>533.0</ele><time>2026-03-07T14:36:44.01Z</time></trkpt><trkpt lat="36.86451" lon="-3.6328141"><ele>539.0</ele><time>2026-03-07T14:36:44.995Z</time></trkpt><trkpt lat="36.8646011" lon="-3.6328927"><ele>545.0</ele><time>2026-03-07T14:36:46.007Z</time></trkpt><trkpt lat="36.8646921" lon="-3.6329519"><ele>551.0</ele><time>2026-03-07T14:36:47.014Z</time></trkpt><trkpt lat="36.8647583" lon="-3.6330243"><ele>557.0</ele><time>2026-03-07T14:36:48.001Z</time></trkpt><trkpt lat="36.8647937" lon="-3.6331273"><ele>557.0</ele><time>2026-03-07T14:36:49.009Z</time></trkpt><trkpt lat="36.8647859" lon="-3.6332552"><ele>557.0</ele><time>2026-03-07T14:36:50.007Z</time></trkpt><trkpt lat="36.8647811" lon="-3.6333938"><ele>557.0</ele><time>2026-03-07T14:36:50.999Z</time></trkpt><trkpt lat="36.8647937" lon="-3.6335318"><ele>557.0</ele><time>2026-03-07T14:36:52.017Z</time></trkpt><trkpt lat="36.8648299" lon="-3.63366"><ele>557.0</ele><time>2026-03-07T14:36:53.009Z</time></trkpt><trkpt lat="36.8648798" lon="-3.6337816"><ele>555.4</ele><time>2026-03-07T14:36:54Z</time></trkpt><trkpt lat="36.8649245" lon="-3.6339024"><ele>553.8000000000001</ele><time>2026-03-07T14:36:55.007Z</time></trkpt><trkpt lat="36.8649596" lon="-3.6340188"><ele>552.2</ele><time>2026-03-07T14:36:55.997Z</time></trkpt><trkpt lat="36.8649929" lon="-3.6341271"><ele>550.6</ele><time>2026-03-07T14:36:56.998Z</time></trkpt><trkpt lat="36.8650345" lon="-3.6342338"><ele>549.0</ele><time>2026-03-07T14:36:58.001Z</time></trkpt><trkpt lat="36.8650776" lon="-3.6343434"><ele>553.6</ele><time>2026-03-07T14:36:59.006Z</time></trkpt><trkpt lat="36.8651147" lon="-3.6344553"><ele>558.2</ele><time>2026-03-07T14:36:59.996Z</time></trkpt><trkpt lat="36.8651504" lon="-3.6345613"><ele>562.8000000000001</ele><time>2026-03-07T14:37:00.985Z</time></trkpt><trkpt lat="36.8651894" lon="-3.6346645"><ele>567.4</ele><time>2026-03-07T14:37:01.997Z</time></trkpt><trkpt lat="36.865232" lon="-3.6347597"><ele>572.0</ele><time>2026-03-07T14:37:02.995Z</time></trkpt><trkpt lat="36.8652873" lon="-3.6348375"><ele>572.0</ele><time>2026-03-07T14:37:03.997Z</time></trkpt><trkpt lat="36.8653687" lon="-3.6348754"><ele>572.0</ele><time>2026-03-07T14:37:05.001Z</time></trkpt><trkpt lat="36.8654617" lon="-3.6348926"><ele>572.0</ele><time>2026-03-07T14:37:06.007Z</time></trkpt><trkpt lat="36.8655436" lon="-3.6349312"><ele>572.0</ele><time>2026-03-07T14:37:07.009Z</time></trkpt><trkpt lat="36.8656153" lon="-3.6349524"><ele>572.0</ele><time>2026-03-07T14:37:07.995Z</time></trkpt><trkpt lat="36.8656732" lon="-3.6350181"><ele>572.0</ele><time>2026-03-07T14:37:09.006Z</time></trkpt><trkpt lat="36.8657523" lon="-3.6351069"><ele>572.0</ele><time>2026-03-07T14:37:10.997Z</time></trkpt><trkpt lat="36.8657951" lon="-3.6350333"><ele>572.0</ele><time>2026-03-07T14:37:13.003Z</time></trkpt><trkpt lat="36.8657812" lon="-3.634952"><ele>572.0</ele><time>2026-03-07T14:37:14.006Z</time></trkpt><trkpt lat="36.8657349" lon="-3.6348334"><ele>572.0</ele><time>2026-03-07T14:37:15.007Z</time></trkpt><trkpt lat="36.8656534" lon="-3.6347114"><ele>572.0</ele><time>2026-03-07T14:37:15.995Z</time></trkpt><trkpt lat="36.8655523" lon="-3.634606"><ele>572.0</ele><time>2026-03-07T14:37:17.003Z</time></trkpt><trkpt lat="36.8654547" lon="-3.6345034"><ele>572.0</ele><time>2026-03-07T14:37:17.994Z</time></trkpt><trkpt lat="36.8653764" lon="-3.6343891"><ele>572.0</ele><time>2026-03-07T14:37:19.054Z</time></trkpt><trkpt lat="36.865338" lon="-3.6342566"><ele>572.0</ele><time>2026-03-07T14:37:20.008Z</time></trkpt><trkpt lat="36.8653164" lon="-3.6341494"><ele>572.0</ele><time>2026-03-07T14:37:20.986Z</time></trkpt><trkpt lat="36.8653256" lon="-3.6340661"><ele>575.1666666666666</ele><time>2026-03-07T14:37:22.002Z</time></trkpt><trkpt lat="36.8653865" lon="-3.6339929"><ele>578.3333333333333</ele><time>2026-03-07T14:37:23.006Z</time></trkpt><trkpt lat="36.8654669" lon="-3.6339343"><ele>581.5</ele><time>2026-03-07T14:37:23.996Z</time></trkpt><trkpt lat="36.865524" lon="-3.6338604"><ele>584.6666666666666</ele><time>2026-03-07T14:37:25.006Z</time></trkpt><trkpt lat="36.8655574" lon="-3.6337757"><ele>587.8333333333334</ele><time>2026-03-07T14:37:25.999Z</time></trkpt><trkpt lat="36.8655494" lon="-3.6336668"><ele>591.0</ele><time>2026-03-07T14:37:27.002Z</time></trkpt><trkpt lat="36.8655181" lon="-3.6335527"><ele>592.75</ele><time>2026-03-07T14:37:27.994Z</time></trkpt><trkpt lat="36.865489" lon="-3.6334319"><ele>594.5</ele><time>2026-03-07T14:37:28.998Z</time></trkpt><trkpt lat="36.865489" lon="-3.6333094"><ele>596.25</ele><time>2026-03-07T14:37:29.999Z</time></trkpt><trkpt lat="36.8655256" lon="-3.6331887"><ele>598.0</ele><time>2026-03-07T14:37:31.112Z</time></trkpt><trkpt lat="36.8656525" lon="-3.6329554"><ele>598.0</ele><time>2026-03-07T14:37:33.014Z</time></trkpt><trkpt lat="36.8657062" lon="-3.6328512"><ele>598.0</ele><time>2026-03-07T14:37:34.067Z</time></trkpt><trkpt lat="36.8657268" lon="-3.6327536"><ele>598.0</ele><time>2026-03-07T14:37:35.096Z</time></trkpt><trkpt lat="36.8657363" lon="-3.632652"><ele>598.0</ele><time>2026-03-07T14:37:36.003Z</time></trkpt><trkpt lat="36.8657229" lon="-3.6325514"><ele>598.0</ele><time>2026-03-07T14:37:36.996Z</time></trkpt><trkpt lat="36.8656939" lon="-3.6324638"><ele>598.0</ele><time>2026-03-07T14:37:38.007Z</time></trkpt><trkpt lat="36.865641" lon="-3.6324159"><ele>599.5</ele><time>2026-03-07T14:37:39.026Z</time></trkpt><trkpt lat="36.8655984" lon="-3.6323085"><ele>601.0</ele><time>2026-03-07T14:37:40.998Z</time></trkpt><trkpt lat="36.8656232" lon="-3.6324681"><ele>602.5</ele><time>2026-03-07T14:37:47.964Z</time></trkpt><trkpt lat="36.8655978" lon="-3.632592"><ele>604.0</ele><time>2026-03-07T14:37:49.053Z</time></trkpt><trkpt lat="36.8655779" lon="-3.6327584"><ele>602.5</ele><time>2026-03-07T14:37:50.057Z</time></trkpt><trkpt lat="36.8656087" lon="-3.6329354"><ele>601.0</ele><time>2026-03-07T14:37:51.072Z</time></trkpt><trkpt lat="36.8656764" lon="-3.6330461"><ele>599.5</ele><time>2026-03-07T14:37:52.054Z</time></trkpt><trkpt lat="36.8657643" lon="-3.6331321"><ele>598.0</ele><time>2026-03-07T14:37:53.089Z</time></trkpt><trkpt lat="36.8658606" lon="-3.6332303"><ele>598.0</ele><time>2026-03-07T14:37:54.096Z</time></trkpt><trkpt lat="36.8659399" lon="-3.6333565"><ele>598.0</ele><time>2026-03-07T14:37:55.069Z</time></trkpt><trkpt lat="36.8659829" lon="-3.6334604"><ele>598.0</ele><time>2026-03-07T14:37:56.068Z</time></trkpt><trkpt lat="36.8660013" lon="-3.6335482"><ele>598.0</ele><time>2026-03-07T14:37:57.068Z</time></trkpt><trkpt lat="36.8659815" lon="-3.6336271"><ele>598.0</ele><time>2026-03-07T14:37:58.059Z</time></trkpt><trkpt lat="36.8659576" lon="-3.6337217"><ele>598.0</ele><time>2026-03-07T14:37:59.044Z</time></trkpt><trkpt lat="36.8659344" lon="-3.633799"><ele>603.6</ele><time>2026-03-07T14:38:00.09Z</time></trkpt><trkpt lat="36.8659458" lon="-3.6339429"><ele>609.1999999999999</ele><time>2026-03-07T14:38:02.086Z</time></trkpt><trkpt lat="36.8659878" lon="-3.6340363"><ele>614.8</ele><time>2026-03-07T14:38:03.005Z</time></trkpt><trkpt lat="36.8660422" lon="-3.6341332"><ele>620.4</ele><time>2026-03-07T14:38:04.024Z</time></trkpt><trkpt lat="36.8661165" lon="-3.6342368"><ele>626.0</ele><time>2026-03-07T14:38:05.049Z</time></trkpt><trkpt lat="36.8662037" lon="-3.6343402"><ele>626.0</ele><time>2026-03-07T14:38:05.997Z</time></trkpt><trkpt lat="36.8662894" lon="-3.6344407"><ele>626.0</ele><time>2026-03-07T14:38:07.003Z</time></trkpt><trkpt lat="36.866364" lon="-3.6345237"><ele>626.0</ele><time>2026-03-07T14:38:07.996Z</time></trkpt><trkpt lat="36.8664467" lon="-3.6345877"><ele>626.0</ele><time>2026-03-07T14:38:09.002Z</time></trkpt><trkpt lat="36.8665509" lon="-3.6346281"><ele>626.0</ele><time>2026-03-07T14:38:09.991Z</time></trkpt><trkpt lat="36.8666694" lon="-3.6346553"><ele>629.8</ele><time>2026-03-07T14:38:10.993Z</time></trkpt><trkpt lat="36.8667852" lon="-3.6346621"><ele>633.6</ele><time>2026-03-07T14:38:12.016Z</time></trkpt><trkpt lat="36.8668824" lon="-3.6346796"><ele>637.4</ele><time>2026-03-07T14:38:12.994Z</time></trkpt><trkpt lat="36.8669651" lon="-3.6347007"><ele>641.2</ele><time>2026-03-07T14:38:13.998Z</time></trkpt><trkpt lat="36.8670386" lon="-3.6347374"><ele>645.0</ele><time>2026-03-07T14:38:14.989Z</time></trkpt><trkpt lat="36.8671078" lon="-3.6348006"><ele>645.0</ele><time>2026-03-07T14:38:15.995Z</time></trkpt><trkpt lat="36.8671655" lon="-3.6348774"><ele>645.0</ele><time>2026-03-07T14:38:16.986Z</time></trkpt><trkpt lat="36.8672056" lon="-3.6349518"><ele>645.0</ele><time>2026-03-07T14:38:18.004Z</time></trkpt><trkpt lat="36.8672279" lon="-3.6350395"><ele>645.0</ele><time>2026-03-07T14:38:18.998Z</time></trkpt><trkpt lat="36.8671857" lon="-3.635127"><ele>645.0</ele><time>2026-03-07T14:38:20.007Z</time></trkpt><trkpt lat="36.8671509" lon="-3.6352345"><ele>645.0</ele><time>2026-03-07T14:38:20.994Z</time></trkpt><trkpt lat="36.8671424" lon="-3.6353454"><ele>644.25</ele><time>2026-03-07T14:38:21.998Z</time></trkpt><trkpt lat="36.8671805" lon="-3.635467"><ele>643.5</ele><time>2026-03-07T14:38:22.993Z</time></trkpt><trkpt lat="36.8672283" lon="-3.6356146"><ele>642.75</ele><time>2026-03-07T14:38:23.996Z</time></trkpt><trkpt lat="36.8672753" lon="-3.6357727"><ele>642.0</ele><time>2026-03-07T14:38:25.002Z</time></trkpt><trkpt lat="36.8673161" lon="-3.6359278"><ele>642.0</ele><time>2026-03-07T14:38:25.995Z</time></trkpt><trkpt lat="36.8673609" lon="-3.6360665"><ele>642.0</ele><time>2026-03-07T14:38:27.003Z</time></trkpt><trkpt lat="36.8674264" lon="-3.6361787"><ele>642.0</ele><time>2026-03-07T14:38:28.003Z</time></trkpt><trkpt lat="36.867484" lon="-3.6362847"><ele>642.0</ele><time>2026-03-07T14:38:28.994Z</time></trkpt><trkpt lat="36.8675275" lon="-3.6363926"><ele>642.0</ele><time>2026-03-07T14:38:29.995Z</time></trkpt><trkpt lat="36.8675502" lon="-3.6365091"><ele>641.1666666666666</ele><time>2026-03-07T14:38:31.014Z</time></trkpt><trkpt lat="36.8675622" lon="-3.6366318"><ele>640.3333333333334</ele><time>2026-03-07T14:38:31.996Z</time></trkpt><trkpt lat="36.8675672" lon="-3.6367433"><ele>639.5</ele><time>2026-03-07T14:38:33.021Z</time></trkpt><trkpt lat="36.8675476" lon="-3.6368429"><ele>638.6666666666667</ele><time>2026-03-07T14:38:33.996Z</time></trkpt><trkpt lat="36.8675182" lon="-3.6369425"><ele>637.8333333333334</ele><time>2026-03-07T14:38:35Z</time></trkpt><trkpt lat="36.8674888" lon="-3.6370361"><ele>637.0</ele><time>2026-03-07T14:38:36.003Z</time></trkpt><trkpt lat="36.8674958" lon="-3.6371786"><ele>635.0</ele><time>2026-03-07T14:38:37.99Z</time></trkpt><trkpt lat="36.8675411" lon="-3.6372613"><ele>633.0</ele><time>2026-03-07T14:38:39.002Z</time></trkpt><trkpt lat="36.8676052" lon="-3.637332"><ele>631.0</ele><time>2026-03-07T14:38:40.002Z</time></trkpt><trkpt lat="36.8676924" lon="-3.6373714"><ele>629.0</ele><time>2026-03-07T14:38:41.002Z</time></trkpt><trkpt lat="36.8677951" lon="-3.6373885"><ele>627.0</ele><time>2026-03-07T14:38:42Z</time></trkpt><trkpt lat="36.867877" lon="-3.6374445"><ele>631.8</ele><time>2026-03-07T14:38:43.001Z</time></trkpt><trkpt lat="36.8679352" lon="-3.6375215"><ele>636.6</ele><time>2026-03-07T14:38:44.006Z</time></trkpt><trkpt lat="36.868011" lon="-3.6375916"><ele>641.4</ele><time>2026-03-07T14:38:45.002Z</time></trkpt><trkpt lat="36.8680965" lon="-3.6376643"><ele>646.1999999999999</ele><time>2026-03-07T14:38:45.993Z</time></trkpt><trkpt lat="36.8681863" lon="-3.6377472"><ele>651.0</ele><time>2026-03-07T14:38:47.007Z</time></trkpt><trkpt lat="36.8682668" lon="-3.6378692"><ele>651.0</ele><time>2026-03-07T14:38:47.999Z</time></trkpt><trkpt lat="36.8683497" lon="-3.6380094"><ele>651.0</ele><time>2026-03-07T14:38:49.002Z</time></trkpt><trkpt lat="36.8684269" lon="-3.6381305"><ele>651.0</ele><time>2026-03-07T14:38:50.006Z</time></trkpt><trkpt lat="36.8684848" lon="-3.6382204"><ele>651.0</ele><time>2026-03-07T14:38:50.989Z</time></trkpt><trkpt lat="36.8685303" lon="-3.6382945"><ele>651.0</ele><time>2026-03-07T14:38:51.998Z</time></trkpt><trkpt lat="36.8685437" lon="-3.6383861"><ele>658.8</ele><time>2026-03-07T14:38:53Z</time></trkpt><trkpt lat="36.868545" lon="-3.6384961"><ele>666.5999999999999</ele><time>2026-03-07T14:38:54.002Z</time></trkpt><trkpt lat="36.8685183" lon="-3.6386178"><ele>674.4</ele><time>2026-03-07T14:38:54.999Z</time></trkpt><trkpt lat="36.8685046" lon="-3.6387447"><ele>682.2</ele><time>2026-03-07T14:38:56.003Z</time></trkpt><trkpt lat="36.8685249" lon="-3.638872"><ele>690.0</ele><time>2026-03-07T14:38:56.981Z</time></trkpt><trkpt lat="36.8685669" lon="-3.6390045"><ele>690.0</ele><time>2026-03-07T14:38:57.989Z</time></trkpt><trkpt lat="36.8686114" lon="-3.6391257"><ele>690.0</ele><time>2026-03-07T14:38:58.999Z</time></trkpt><trkpt lat="36.8686612" lon="-3.6392206"><ele>690.0</ele><time>2026-03-07T14:38:59.995Z</time></trkpt><trkpt lat="36.8687072" lon="-3.6393192"><ele>690.0</ele><time>2026-03-07T14:39:00.989Z</time></trkpt><trkpt lat="36.8687106" lon="-3.6394304"><ele>690.0</ele><time>2026-03-07T14:39:01.986Z</time></trkpt><trkpt lat="36.8686787" lon="-3.6395365"><ele>691.0</ele><time>2026-03-07T14:39:03.001Z</time></trkpt><trkpt lat="36.8686307" lon="-3.6396392"><ele>692.0</ele><time>2026-03-07T14:39:03.998Z</time></trkpt><trkpt lat="36.8685762" lon="-3.6397413"><ele>693.0</ele><time>2026-03-07T14:39:04.998Z</time></trkpt><trkpt lat="36.8685301" lon="-3.6398643"><ele>694.0</ele><time>2026-03-07T14:39:06.008Z</time></trkpt><trkpt lat="36.8685033" lon="-3.640025"><ele>695.0</ele><time>2026-03-07T14:39:07.006Z</time></trkpt><trkpt lat="36.868484" lon="-3.6401945"><ele>697.0</ele><time>2026-03-07T14:39:08.001Z</time></trkpt><trkpt lat="36.8684758" lon="-3.6403617"><ele>699.0</ele><time>2026-03-07T14:39:08.998Z</time></trkpt><trkpt lat="36.8684729" lon="-3.6405321"><ele>701.0</ele><time>2026-03-07T14:39:10.002Z</time></trkpt><trkpt lat="36.8684624" lon="-3.6407052"><ele>703.0</ele><time>2026-03-07T14:39:10.999Z</time></trkpt><trkpt lat="36.8684477" lon="-3.6408752"><ele>703.0</ele><time>2026-03-07T14:39:12Z</time></trkpt><trkpt lat="36.8684525" lon="-3.6410344"><ele>703.0</ele><time>2026-03-07T14:39:12.993Z</time></trkpt><trkpt lat="36.8684698" lon="-3.6411766"><ele>703.0</ele><time>2026-03-07T14:39:14.001Z</time></trkpt><trkpt lat="36.8684984" lon="-3.6413079"><ele>703.0</ele><time>2026-03-07T14:39:15.009Z</time></trkpt><trkpt lat="36.8685191" lon="-3.6414275"><ele>703.0</ele><time>2026-03-07T14:39:16.006Z</time></trkpt><trkpt lat="36.8685446" lon="-3.6415307"><ele>699.0</ele><time>2026-03-07T14:39:16.989Z</time></trkpt><trkpt lat="36.8685956" lon="-3.6416209"><ele>695.0</ele><time>2026-03-07T14:39:18.002Z</time></trkpt><trkpt lat="36.8686939" lon="-3.6416817"><ele>691.0</ele><time>2026-03-07T14:39:18.996Z</time></trkpt><trkpt lat="36.8688177" lon="-3.6417301"><ele>687.0</ele><time>2026-03-07T14:39:20Z</time></trkpt><trkpt lat="36.868939" lon="-3.6418024"><ele>687.0</ele><time>2026-03-07T14:39:21.008Z</time></trkpt><trkpt lat="36.8690577" lon="-3.6418752"><ele>687.0</ele><time>2026-03-07T14:39:21.99Z</time></trkpt><trkpt lat="36.8691674" lon="-3.641967"><ele>687.0</ele><time>2026-03-07T14:39:22.995Z</time></trkpt><trkpt lat="36.8692678" lon="-3.6420842"><ele>687.0</ele><time>2026-03-07T14:39:23.995Z</time></trkpt><trkpt lat="36.8693723" lon="-3.6422061"><ele>692.0</ele><time>2026-03-07T14:39:25.003Z</time></trkpt><trkpt lat="36.8694761" lon="-3.6423295"><ele>697.0</ele><time>2026-03-07T14:39:25.999Z</time></trkpt><trkpt lat="36.8695753" lon="-3.6424515"><ele>702.0</ele><time>2026-03-07T14:39:26.991Z</time></trkpt><trkpt lat="36.8696647" lon="-3.6425683"><ele>707.0</ele><time>2026-03-07T14:39:27.99Z</time></trkpt><trkpt lat="36.8697493" lon="-3.6426793"><ele>707.0</ele><time>2026-03-07T14:39:29.008Z</time></trkpt><trkpt lat="36.8698189" lon="-3.6427931"><ele>707.0</ele><time>2026-03-07T14:39:29.995Z</time></trkpt><trkpt lat="36.8698676" lon="-3.6428852"><ele>707.0</ele><time>2026-03-07T14:39:30.991Z</time></trkpt><trkpt lat="36.8699311" lon="-3.6429699"><ele>707.0</ele><time>2026-03-07T14:39:32.994Z</time></trkpt><trkpt lat="36.8699604" lon="-3.642879"><ele>707.0</ele><time>2026-03-07T14:39:36.011Z</time></trkpt><trkpt lat="36.869919" lon="-3.6427888"><ele>707.0</ele><time>2026-03-07T14:39:37.012Z</time></trkpt><trkpt lat="36.8698589" lon="-3.642668"><ele>707.0</ele><time>2026-03-07T14:39:37.989Z</time></trkpt><trkpt lat="36.8697842" lon="-3.6425135"><ele>707.0</ele><time>2026-03-07T14:39:38.977Z</time></trkpt><trkpt lat="36.869711" lon="-3.6423252"><ele>707.0</ele><time>2026-03-07T14:39:39.969Z</time></trkpt><trkpt lat="36.8696523" lon="-3.6421249"><ele>713.5</ele><time>2026-03-07T14:39:40.971Z</time></trkpt><trkpt lat="36.8696086" lon="-3.6419458"><ele>720.0</ele><time>2026-03-07T14:39:42.01Z</time></trkpt><trkpt lat="36.8695615" lon="-3.6417993"><ele>726.5</ele><time>2026-03-07T14:39:43.042Z</time></trkpt><trkpt lat="36.8695122" lon="-3.641671"><ele>733.0</ele><time>2026-03-07T14:39:44.008Z</time></trkpt><trkpt lat="36.8694361" lon="-3.6415662"><ele>733.0</ele><time>2026-03-07T14:39:45.014Z</time></trkpt><trkpt lat="36.8693494" lon="-3.641478"><ele>733.0</ele><time>2026-03-07T14:39:46.021Z</time></trkpt><trkpt lat="36.8692706" lon="-3.6413954"><ele>733.0</ele><time>2026-03-07T14:39:47Z</time></trkpt><trkpt lat="36.8692111" lon="-3.6413044"><ele>733.0</ele><time>2026-03-07T14:39:48.004Z</time></trkpt><trkpt lat="36.8691847" lon="-3.6411883"><ele>733.0</ele><time>2026-03-07T14:39:48.984Z</time></trkpt><trkpt lat="36.8692039" lon="-3.6410609"><ele>734.2</ele><time>2026-03-07T14:39:50.017Z</time></trkpt><trkpt lat="36.8692425" lon="-3.6409488"><ele>735.4</ele><time>2026-03-07T14:39:51.009Z</time></trkpt><trkpt lat="36.8693126" lon="-3.6408481"><ele>736.6</ele><time>2026-03-07T14:39:52.037Z</time></trkpt><trkpt lat="36.8694" lon="-3.6407522"><ele>737.8000000000001</ele><time>2026-03-07T14:39:52.994Z</time></trkpt><trkpt lat="36.8694877" lon="-3.6406551"><ele>739.0</ele><time>2026-03-07T14:39:53.983Z</time></trkpt><trkpt lat="36.8695755" lon="-3.6405602"><ele>739.0</ele><time>2026-03-07T14:39:54.985Z</time></trkpt><trkpt lat="36.8696673" lon="-3.6404816"><ele>739.0</ele><time>2026-03-07T14:39:56.025Z</time></trkpt><trkpt lat="36.8697597" lon="-3.6404253"><ele>739.0</ele><time>2026-03-07T14:39:57.128Z</time></trkpt><trkpt lat="36.8698459" lon="-3.6403527"><ele>739.0</ele><time>2026-03-07T14:39:58.057Z</time></trkpt><trkpt lat="36.8699278" lon="-3.6402555"><ele>739.0</ele><time>2026-03-07T14:39:59.075Z</time></trkpt><trkpt lat="36.8699945" lon="-3.6401387"><ele>735.5</ele><time>2026-03-07T14:40:00.088Z</time></trkpt><trkpt lat="36.8700447" lon="-3.640021"><ele>732.0</ele><time>2026-03-07T14:40:01.039Z</time></trkpt><trkpt lat="36.870077" lon="-3.6398858"><ele>728.5</ele><time>2026-03-07T14:40:02.03Z</time></trkpt><trkpt lat="36.8700845" lon="-3.6397396"><ele>725.0</ele><time>2026-03-07T14:40:03.061Z</time></trkpt><trkpt lat="36.8700853" lon="-3.6395964"><ele>725.0</ele><time>2026-03-07T14:40:04.071Z</time></trkpt><trkpt lat="36.8700778" lon="-3.6394598"><ele>725.0</ele><time>2026-03-07T14:40:04.993Z</time></trkpt><trkpt lat="36.8700596" lon="-3.6393146"><ele>725.0</ele><time>2026-03-07T14:40:06.01Z</time></trkpt><trkpt lat="36.8700285" lon="-3.6391648"><ele>725.0</ele><time>2026-03-07T14:40:07.093Z</time></trkpt><trkpt lat="36.8700123" lon="-3.6390203"><ele>725.0</ele><time>2026-03-07T14:40:08.007Z</time></trkpt><trkpt lat="36.8699871" lon="-3.6388541"><ele>725.0</ele><time>2026-03-07T14:40:08.986Z</time></trkpt><trkpt lat="36.8699873" lon="-3.6386785"><ele>725.0</ele><time>2026-03-07T14:40:09.993Z</time></trkpt><trkpt lat="36.8699944" lon="-3.6385161"><ele>725.0</ele><time>2026-03-07T14:40:10.997Z</time></trkpt><trkpt lat="36.870008" lon="-3.638379"><ele>725.0</ele><time>2026-03-07T14:40:11.99Z</time></trkpt><trkpt lat="36.8700307" lon="-3.6382615"><ele>725.0</ele><time>2026-03-07T14:40:13.018Z</time></trkpt><trkpt lat="36.8700742" lon="-3.6381828"><ele>725.0</ele><time>2026-03-07T14:40:13.995Z</time></trkpt><trkpt lat="36.8701401" lon="-3.63813"><ele>725.0</ele><time>2026-03-07T14:40:15.004Z</time></trkpt><trkpt lat="36.8702289" lon="-3.6380853"><ele>725.0</ele><time>2026-03-07T14:40:15.996Z</time></trkpt><trkpt lat="36.870309" lon="-3.6380663"><ele>725.0</ele><time>2026-03-07T14:40:16.997Z</time></trkpt><trkpt lat="36.8704019" lon="-3.6380113"><ele>726.0</ele><time>2026-03-07T14:40:18.989Z</time></trkpt><trkpt lat="36.8704239" lon="-3.6379122"><ele>727.0</ele><time>2026-03-07T14:40:20.998Z</time></trkpt><trkpt lat="36.8703957" lon="-3.6378332"><ele>728.0</ele><time>2026-03-07T14:40:21.997Z</time></trkpt><trkpt lat="36.8703407" lon="-3.6377595"><ele>729.0</ele><time>2026-03-07T14:40:22.986Z</time></trkpt><trkpt lat="36.870258" lon="-3.6377023"><ele>730.0</ele><time>2026-03-07T14:40:24Z</time></trkpt><trkpt lat="36.8701618" lon="-3.6376269"><ele>731.0</ele><time>2026-03-07T14:40:25.009Z</time></trkpt><trkpt lat="36.870075" lon="-3.6375285"><ele>731.0</ele><time>2026-03-07T14:40:26.032Z</time></trkpt><trkpt lat="36.8699985" lon="-3.637451"><ele>731.0</ele><time>2026-03-07T14:40:27.001Z</time></trkpt><trkpt lat="36.8699365" lon="-3.6373765"><ele>731.0</ele><time>2026-03-07T14:40:27.996Z</time></trkpt><trkpt lat="36.8698935" lon="-3.6372811"><ele>731.0</ele><time>2026-03-07T14:40:28.998Z</time></trkpt><trkpt lat="36.8698629" lon="-3.637145"><ele>731.0</ele><time>2026-03-07T14:40:30Z</time></trkpt><trkpt lat="36.8698477" lon="-3.6369905"><ele>734.8</ele><time>2026-03-07T14:40:31Z</time></trkpt><trkpt lat="36.869827" lon="-3.6368485"><ele>738.5999999999999</ele><time>2026-03-07T14:40:32.033Z</time></trkpt><trkpt lat="36.8698102" lon="-3.636724"><ele>742.4</ele><time>2026-03-07T14:40:33.022Z</time></trkpt><trkpt lat="36.8697954" lon="-3.6366108"><ele>746.2</ele><time>2026-03-07T14:40:33.986Z</time></trkpt><trkpt lat="36.869792" lon="-3.63651"><ele>750.0</ele><time>2026-03-07T14:40:35.002Z</time></trkpt><trkpt lat="36.8698091" lon="-3.6364067"><ele>750.0</ele><time>2026-03-07T14:40:36.017Z</time></trkpt><trkpt lat="36.8698586" lon="-3.636321"><ele>750.0</ele><time>2026-03-07T14:40:36.995Z</time></trkpt><trkpt lat="36.8699114" lon="-3.6362482"><ele>750.0</ele><time>2026-03-07T14:40:37.997Z</time></trkpt><trkpt lat="36.8699623" lon="-3.6361941"><ele>750.0</ele><time>2026-03-07T14:40:39.009Z</time></trkpt><trkpt lat="36.8700385" lon="-3.6361088"><ele>750.0</ele><time>2026-03-07T14:40:41.001Z</time></trkpt><trkpt lat="36.8701017" lon="-3.6361778"><ele>750.0</ele><time>2026-03-07T14:40:43.998Z</time></trkpt><trkpt lat="36.8700932" lon="-3.6363478"><ele>750.0</ele><time>2026-03-07T14:40:45.994Z</time></trkpt><trkpt lat="36.8700654" lon="-3.6364626"><ele>750.0</ele><time>2026-03-07T14:40:46.993Z</time></trkpt><trkpt lat="36.8700456" lon="-3.6365868"><ele>750.0</ele><time>2026-03-07T14:40:48.008Z</time></trkpt><trkpt lat="36.8700475" lon="-3.6367032"><ele>750.0</ele><time>2026-03-07T14:40:49.018Z</time></trkpt><trkpt lat="36.870066" lon="-3.6368005"><ele>750.0</ele><time>2026-03-07T14:40:49.996Z</time></trkpt><trkpt lat="36.8701085" lon="-3.6368869"><ele>750.6</ele><time>2026-03-07T14:40:50.998Z</time></trkpt><trkpt lat="36.8701873" lon="-3.6369758"><ele>751.2</ele><time>2026-03-07T14:40:52.01Z</time></trkpt><trkpt lat="36.8702817" lon="-3.637061"><ele>751.8</ele><time>2026-03-07T14:40:53.014Z</time></trkpt><trkpt lat="36.8703752" lon="-3.6371392"><ele>752.4</ele><time>2026-03-07T14:40:53.997Z</time></trkpt><trkpt lat="36.8704571" lon="-3.6371998"><ele>753.0</ele><time>2026-03-07T14:40:54.997Z</time></trkpt><trkpt lat="36.8705371" lon="-3.6372486"><ele>753.0</ele><time>2026-03-07T14:40:55.986Z</time></trkpt><trkpt lat="36.870625" lon="-3.6372576"><ele>753.0</ele><time>2026-03-07T14:40:56.996Z</time></trkpt><trkpt lat="36.8707184" lon="-3.6372433"><ele>753.0</ele><time>2026-03-07T14:40:57.983Z</time></trkpt><trkpt lat="36.8708145" lon="-3.6372078"><ele>753.0</ele><time>2026-03-07T14:40:58.997Z</time></trkpt><trkpt lat="36.8709155" lon="-3.6371847"><ele>753.0</ele><time>2026-03-07T14:40:59.996Z</time></trkpt><trkpt lat="36.8710133" lon="-3.6371972"><ele>759.1666666666666</ele><time>2026-03-07T14:41:01.001Z</time></trkpt><trkpt lat="36.8711011" lon="-3.6372234"><ele>765.3333333333333</ele><time>2026-03-07T14:41:01.994Z</time></trkpt><trkpt lat="36.8711718" lon="-3.637257"><ele>771.5</ele><time>2026-03-07T14:41:02.997Z</time></trkpt><trkpt lat="36.8712282" lon="-3.6372933"><ele>777.6666666666666</ele><time>2026-03-07T14:41:03.983Z</time></trkpt><trkpt lat="36.871267" lon="-3.6373567"><ele>783.8333333333333</ele><time>2026-03-07T14:41:04.991Z</time></trkpt><trkpt lat="36.8712623" lon="-3.6375132"><ele>790.0</ele><time>2026-03-07T14:41:06.992Z</time></trkpt><trkpt lat="36.87124" lon="-3.6375938"><ele>790.0</ele><time>2026-03-07T14:41:07.996Z</time></trkpt><trkpt lat="36.8711987" lon="-3.637668"><ele>790.0</ele><time>2026-03-07T14:41:08.991Z</time></trkpt><trkpt lat="36.8711626" lon="-3.6377697"><ele>790.0</ele><time>2026-03-07T14:41:10.057Z</time></trkpt><trkpt lat="36.8711273" lon="-3.637894"><ele>790.0</ele><time>2026-03-07T14:41:11Z</time></trkpt><trkpt lat="36.8710972" lon="-3.6380301"><ele>790.0</ele><time>2026-03-07T14:41:11.997Z</time></trkpt><trkpt lat="36.8710962" lon="-3.638175"><ele>789.8333333333333</ele><time>2026-03-07T14:41:13Z</time></trkpt><trkpt lat="36.8710854" lon="-3.638312"><ele>789.6666666666666</ele><time>2026-03-07T14:41:13.991Z</time></trkpt><trkpt lat="36.8710691" lon="-3.6384354"><ele>789.5</ele><time>2026-03-07T14:41:14.995Z</time></trkpt><trkpt lat="36.871065" lon="-3.6385422"><ele>789.3333333333333</ele><time>2026-03-07T14:41:15.998Z</time></trkpt><trkpt lat="36.871069" lon="-3.6386379"><ele>789.1666666666666</ele><time>2026-03-07T14:41:16.995Z</time></trkpt><trkpt lat="36.8711002" lon="-3.6387237"><ele>789.0</ele><time>2026-03-07T14:41:18.006Z</time></trkpt><trkpt lat="36.8711438" lon="-3.6388039"><ele>789.0</ele><time>2026-03-07T14:41:18.986Z</time></trkpt><trkpt lat="36.871203" lon="-3.6388732"><ele>789.0</ele><time>2026-03-07T14:41:19.994Z</time></trkpt><trkpt lat="36.8712849" lon="-3.6389347"><ele>789.0</ele><time>2026-03-07T14:41:20.998Z</time></trkpt><trkpt lat="36.8713678" lon="-3.6389809"><ele>789.0</ele><time>2026-03-07T14:41:21.998Z</time></trkpt><trkpt lat="36.8714275" lon="-3.6390298"><ele>789.0</ele><time>2026-03-07T14:41:22.999Z</time></trkpt><trkpt lat="36.8714715" lon="-3.6391776"><ele>789.0</ele><time>2026-03-07T14:41:24.991Z</time></trkpt><trkpt lat="36.871459" lon="-3.6392955"><ele>789.0</ele><time>2026-03-07T14:41:25.995Z</time></trkpt><trkpt lat="36.8714558" lon="-3.6394326"><ele>789.0</ele><time>2026-03-07T14:41:26.991Z</time></trkpt><trkpt lat="36.8714565" lon="-3.6395918"><ele>789.0</ele><time>2026-03-07T14:41:28.008Z</time></trkpt><trkpt lat="36.8714437" lon="-3.6397384"><ele>790.5</ele><time>2026-03-07T14:41:28.995Z</time></trkpt><trkpt lat="36.8714117" lon="-3.6398823"><ele>792.0</ele><time>2026-03-07T14:41:29.987Z</time></trkpt><trkpt lat="36.8713522" lon="-3.6400166"><ele>793.5</ele><time>2026-03-07T14:41:31.003Z</time></trkpt><trkpt lat="36.871281" lon="-3.6401265"><ele>795.0</ele><time>2026-03-07T14:41:32Z</time></trkpt><trkpt lat="36.8712143" lon="-3.640245"><ele>794.75</ele><time>2026-03-07T14:41:32.991Z</time></trkpt><trkpt lat="36.8711571" lon="-3.6403697"><ele>794.5</ele><time>2026-03-07T14:41:33.994Z</time></trkpt><trkpt lat="36.8711182" lon="-3.6405013"><ele>794.25</ele><time>2026-03-07T14:41:34.994Z</time></trkpt><trkpt lat="36.8710911" lon="-3.6406432"><ele>794.0</ele><time>2026-03-07T14:41:35.984Z</time></trkpt><trkpt lat="36.8710961" lon="-3.6407961"><ele>794.0</ele><time>2026-03-07T14:41:36.989Z</time></trkpt><trkpt lat="36.8711292" lon="-3.6409497"><ele>794.0</ele><time>2026-03-07T14:41:37.99Z</time></trkpt><trkpt lat="36.8711821" lon="-3.6410997"><ele>794.0</ele><time>2026-03-07T14:41:38.982Z</time></trkpt><trkpt lat="36.8712499" lon="-3.6412334"><ele>794.0</ele><time>2026-03-07T14:41:40.038Z</time></trkpt><trkpt lat="36.8713209" lon="-3.6413544"><ele>793.4000000000001</ele><time>2026-03-07T14:41:41.001Z</time></trkpt><trkpt lat="36.8713875" lon="-3.6414549"><ele>792.8</ele><time>2026-03-07T14:41:42Z</time></trkpt><trkpt lat="36.871455" lon="-3.6415444"><ele>792.2</ele><time>2026-03-07T14:41:42.999Z</time></trkpt><trkpt lat="36.8715409" lon="-3.6416161"><ele>791.5999999999999</ele><time>2026-03-07T14:41:43.992Z</time></trkpt><trkpt lat="36.8716344" lon="-3.6416708"><ele>791.0</ele><time>2026-03-07T14:41:44.992Z</time></trkpt><trkpt lat="36.8717166" lon="-3.6417388"><ele>793.0</ele><time>2026-03-07T14:41:45.992Z</time></trkpt><trkpt lat="36.8717883" lon="-3.6418229"><ele>795.0</ele><time>2026-03-07T14:41:46.984Z</time></trkpt><trkpt lat="36.8718313" lon="-3.6419296"><ele>797.0</ele><time>2026-03-07T14:41:48Z</time></trkpt><trkpt lat="36.8718598" lon="-3.6420529"><ele>799.0</ele><time>2026-03-07T14:41:48.98Z</time></trkpt><trkpt lat="36.8718731" lon="-3.642175"><ele>801.0</ele><time>2026-03-07T14:41:49.996Z</time></trkpt><trkpt lat="36.8718833" lon="-3.6422805"><ele>801.0</ele><time>2026-03-07T14:41:50.987Z</time></trkpt><trkpt lat="36.871915" lon="-3.6423696"><ele>801.0</ele><time>2026-03-07T14:41:51.996Z</time></trkpt><trkpt lat="36.8719738" lon="-3.6424535"><ele>801.0</ele><time>2026-03-07T14:41:53.004Z</time></trkpt><trkpt lat="36.8720607" lon="-3.6425379"><ele>801.0</ele><time>2026-03-07T14:41:54.003Z</time></trkpt><trkpt lat="36.8721398" lon="-3.6426466"><ele>801.0</ele><time>2026-03-07T14:41:55.009Z</time></trkpt><trkpt lat="36.8722153" lon="-3.6427491"><ele>797.4</ele><time>2026-03-07T14:41:56.001Z</time></trkpt><trkpt lat="36.8722897" lon="-3.6428348"><ele>793.8</ele><time>2026-03-07T14:41:57.013Z</time></trkpt><trkpt lat="36.8723752" lon="-3.642895"><ele>790.1999999999999</ele><time>2026-03-07T14:41:58.005Z</time></trkpt><trkpt lat="36.8724786" lon="-3.6429102"><ele>786.5999999999999</ele><time>2026-03-07T14:41:58.998Z</time></trkpt><trkpt lat="36.8725894" lon="-3.6429108"><ele>783.0</ele><time>2026-03-07T14:42:00.009Z</time></trkpt><trkpt lat="36.8727013" lon="-3.6428855"><ele>783.0</ele><time>2026-03-07T14:42:00.996Z</time></trkpt><trkpt lat="36.8728031" lon="-3.6428484"><ele>783.0</ele><time>2026-03-07T14:42:01.996Z</time></trkpt><trkpt lat="36.8728939" lon="-3.6427924"><ele>783.0</ele><time>2026-03-07T14:42:02.982Z</time></trkpt><trkpt lat="36.8729794" lon="-3.6427394"><ele>783.0</ele><time>2026-03-07T14:42:03.991Z</time></trkpt><trkpt lat="36.8730534" lon="-3.6427139"><ele>783.0</ele><time>2026-03-07T14:42:04.988Z</time></trkpt><trkpt lat="36.8731328" lon="-3.6427202"><ele>783.0</ele><time>2026-03-07T14:42:05.994Z</time></trkpt><trkpt lat="36.873221" lon="-3.6427558"><ele>783.0</ele><time>2026-03-07T14:42:06.989Z</time></trkpt><trkpt lat="36.8733129" lon="-3.6428012"><ele>783.0</ele><time>2026-03-07T14:42:07.987Z</time></trkpt><trkpt lat="36.8734114" lon="-3.6428557"><ele>783.0</ele><time>2026-03-07T14:42:09.004Z</time></trkpt><trkpt lat="36.8735102" lon="-3.6429245"><ele>783.0</ele><time>2026-03-07T14:42:09.985Z</time></trkpt><trkpt lat="36.8736101" lon="-3.642983"><ele>785.0</ele><time>2026-03-07T14:42:11.004Z</time></trkpt><trkpt lat="36.8737098" lon="-3.6429979"><ele>787.0</ele><time>2026-03-07T14:42:11.996Z</time></trkpt><trkpt lat="36.8738038" lon="-3.6430051"><ele>789.0</ele><time>2026-03-07T14:42:12.987Z</time></trkpt><trkpt lat="36.8738981" lon="-3.6429919"><ele>791.0</ele><time>2026-03-07T14:42:14.002Z</time></trkpt><trkpt lat="36.8739763" lon="-3.6429489"><ele>793.0</ele><time>2026-03-07T14:42:14.99Z</time></trkpt><trkpt lat="36.8740422" lon="-3.6428742"><ele>796.0</ele><time>2026-03-07T14:42:15.999Z</time></trkpt><trkpt lat="36.8741007" lon="-3.6427783"><ele>799.0</ele><time>2026-03-07T14:42:17.005Z</time></trkpt><trkpt lat="36.8741475" lon="-3.6426605"><ele>802.0</ele><time>2026-03-07T14:42:17.988Z</time></trkpt><trkpt lat="36.8741955" lon="-3.6425365"><ele>805.0</ele><time>2026-03-07T14:42:18.99Z</time></trkpt><trkpt lat="36.8742376" lon="-3.6424134"><ele>808.0</ele><time>2026-03-07T14:42:19.998Z</time></trkpt><trkpt lat="36.8742883" lon="-3.6423282"><ele>808.0</ele><time>2026-03-07T14:42:20.996Z</time></trkpt><trkpt lat="36.87434" lon="-3.6422805"><ele>808.0</ele><time>2026-03-07T14:42:21.998Z</time></trkpt><trkpt lat="36.874467" lon="-3.6422882"><ele>808.0</ele><time>2026-03-07T14:42:24.002Z</time></trkpt><trkpt lat="36.8745412" lon="-3.6423312"><ele>808.0</ele><time>2026-03-07T14:42:24.988Z</time></trkpt><trkpt lat="36.8746163" lon="-3.6423994"><ele>808.0</ele><time>2026-03-07T14:42:25.999Z</time></trkpt><trkpt lat="36.8746902" lon="-3.6424879"><ele>808.0</ele><time>2026-03-07T14:42:27Z</time></trkpt><trkpt lat="36.8747597" lon="-3.6425516"><ele>808.0</ele><time>2026-03-07T14:42:27.987Z</time></trkpt><trkpt lat="36.8748238" lon="-3.6425862"><ele>808.0</ele><time>2026-03-07T14:42:28.993Z</time></trkpt><trkpt lat="36.8749361" lon="-3.6425302"><ele>808.0</ele><time>2026-03-07T14:42:30.997Z</time></trkpt><trkpt lat="36.875007" lon="-3.6424606"><ele>808.0</ele><time>2026-03-07T14:42:31.99Z</time></trkpt><trkpt lat="36.875063" lon="-3.6423477"><ele>806.8</ele><time>2026-03-07T14:42:32.999Z</time></trkpt><trkpt lat="36.8751124" lon="-3.6422309"><ele>805.5999999999999</ele><time>2026-03-07T14:42:33.995Z</time></trkpt><trkpt lat="36.8751452" lon="-3.6421144"><ele>804.4000000000001</ele><time>2026-03-07T14:42:34.987Z</time></trkpt><trkpt lat="36.8751577" lon="-3.6419875"><ele>803.2</ele><time>2026-03-07T14:42:35.992Z</time></trkpt><trkpt lat="36.8751517" lon="-3.6418496"><ele>802.0</ele><time>2026-03-07T14:42:36.988Z</time></trkpt><trkpt lat="36.8751498" lon="-3.6417331"><ele>804.1666666666666</ele><time>2026-03-07T14:42:37.988Z</time></trkpt><trkpt lat="36.8751816" lon="-3.6415968"><ele>806.3333333333333</ele><time>2026-03-07T14:42:39.993Z</time></trkpt><trkpt lat="36.8752647" lon="-3.6415414"><ele>808.5</ele><time>2026-03-07T14:42:41.983Z</time></trkpt><trkpt lat="36.8753448" lon="-3.6415642"><ele>810.6666666666667</ele><time>2026-03-07T14:42:43.016Z</time></trkpt><trkpt lat="36.8754253" lon="-3.641569"><ele>812.8333333333334</ele><time>2026-03-07T14:42:44.076Z</time></trkpt><trkpt lat="36.8754928" lon="-3.6415391"><ele>815.0</ele><time>2026-03-07T14:42:44.982Z</time></trkpt><trkpt lat="36.8755574" lon="-3.6414823"><ele>815.0</ele><time>2026-03-07T14:42:45.996Z</time></trkpt><trkpt lat="36.8756167" lon="-3.6413907"><ele>815.0</ele><time>2026-03-07T14:42:46.999Z</time></trkpt><trkpt lat="36.8756851" lon="-3.6412695"><ele>815.0</ele><time>2026-03-07T14:42:47.994Z</time></trkpt><trkpt lat="36.8757505" lon="-3.6411168"><ele>815.0</ele><time>2026-03-07T14:42:48.997Z</time></trkpt><trkpt lat="36.8758227" lon="-3.6409535"><ele>815.25</ele><time>2026-03-07T14:42:49.995Z</time></trkpt><trkpt lat="36.8758916" lon="-3.6407906"><ele>815.5</ele><time>2026-03-07T14:42:50.996Z</time></trkpt><trkpt lat="36.875951" lon="-3.6406319"><ele>815.75</ele><time>2026-03-07T14:42:51.993Z</time></trkpt><trkpt lat="36.8760032" lon="-3.6404788"><ele>816.0</ele><time>2026-03-07T14:42:53.007Z</time></trkpt><trkpt lat="36.8760622" lon="-3.6403308"><ele>818.0</ele><time>2026-03-07T14:42:54.009Z</time></trkpt><trkpt lat="36.8761211" lon="-3.6401791"><ele>820.0</ele><time>2026-03-07T14:42:55.003Z</time></trkpt><trkpt lat="36.8761889" lon="-3.6400291"><ele>822.0</ele><time>2026-03-07T14:42:55.998Z</time></trkpt><trkpt lat="36.8762569" lon="-3.6398867"><ele>824.0</ele><time>2026-03-07T14:42:56.997Z</time></trkpt><trkpt lat="36.876331" lon="-3.6397509"><ele>824.0</ele><time>2026-03-07T14:42:58Z</time></trkpt><trkpt lat="36.8764131" lon="-3.6396258"><ele>824.0</ele><time>2026-03-07T14:42:58.997Z</time></trkpt><trkpt lat="36.876518" lon="-3.6395393"><ele>824.0</ele><time>2026-03-07T14:42:59.998Z</time></trkpt><trkpt lat="36.8766327" lon="-3.6394678"><ele>824.0</ele><time>2026-03-07T14:43:00.993Z</time></trkpt><trkpt lat="36.8767382" lon="-3.6393877"><ele>825.5</ele><time>2026-03-07T14:43:01.992Z</time></trkpt><trkpt lat="36.8768375" lon="-3.6393053"><ele>827.0</ele><time>2026-03-07T14:43:02.978Z</time></trkpt><trkpt lat="36.8769208" lon="-3.6392046"><ele>828.5</ele><time>2026-03-07T14:43:03.995Z</time></trkpt><trkpt lat="36.8769964" lon="-3.639088"><ele>830.0</ele><time>2026-03-07T14:43:04.982Z</time></trkpt><trkpt lat="36.8770641" lon="-3.6389558"><ele>830.0</ele><time>2026-03-07T14:43:05.993Z</time></trkpt><trkpt lat="36.8771299" lon="-3.6388153"><ele>830.0</ele><time>2026-03-07T14:43:06.982Z</time></trkpt><trkpt lat="36.877192" lon="-3.6386733"><ele>830.0</ele><time>2026-03-07T14:43:07.998Z</time></trkpt><trkpt lat="36.877248" lon="-3.6385301"><ele>830.0</ele><time>2026-03-07T14:43:09.011Z</time></trkpt><trkpt lat="36.8773096" lon="-3.6383885"><ele>832.25</ele><time>2026-03-07T14:43:09.996Z</time></trkpt><trkpt lat="36.8774041" lon="-3.6382709"><ele>834.5</ele><time>2026-03-07T14:43:10.98Z</time></trkpt><trkpt lat="36.8775014" lon="-3.6381452"><ele>836.75</ele><time>2026-03-07T14:43:11.997Z</time></trkpt><trkpt lat="36.8776046" lon="-3.6380204"><ele>839.0</ele><time>2026-03-07T14:43:12.996Z</time></trkpt><trkpt lat="36.8777027" lon="-3.6378924"><ele>840.5</ele><time>2026-03-07T14:43:14.003Z</time></trkpt><trkpt lat="36.8777957" lon="-3.6377561"><ele>842.0</ele><time>2026-03-07T14:43:14.997Z</time></trkpt><trkpt lat="36.8778917" lon="-3.6376207"><ele>843.5</ele><time>2026-03-07T14:43:15.995Z</time></trkpt><trkpt lat="36.877981" lon="-3.6374806"><ele>845.0</ele><time>2026-03-07T14:43:16.994Z</time></trkpt><trkpt lat="36.878059" lon="-3.63735"><ele>845.0</ele><time>2026-03-07T14:43:17.977Z</time></trkpt><trkpt lat="36.878123" lon="-3.637236"><ele>845.0</ele><time>2026-03-07T14:43:19.002Z</time></trkpt><trkpt lat="36.8781749" lon="-3.6371265"><ele>845.0</ele><time>2026-03-07T14:43:20.003Z</time></trkpt><trkpt lat="36.878199" lon="-3.6370155"><ele>845.0</ele><time>2026-03-07T14:43:20.986Z</time></trkpt><trkpt lat="36.8781944" lon="-3.6369245"><ele>845.0</ele><time>2026-03-07T14:43:21.993Z</time></trkpt><trkpt lat="36.878136" lon="-3.6367907"><ele>847.6</ele><time>2026-03-07T14:43:23.993Z</time></trkpt><trkpt lat="36.878092" lon="-3.6367342"><ele>850.2</ele><time>2026-03-07T14:43:24.99Z</time></trkpt><trkpt lat="36.8780711" lon="-3.6366436"><ele>852.8</ele><time>2026-03-07T14:43:26.998Z</time></trkpt><trkpt lat="36.8781289" lon="-3.6365466"><ele>855.4</ele><time>2026-03-07T14:43:28.993Z</time></trkpt><trkpt lat="36.8782309" lon="-3.6364992"><ele>858.0</ele><time>2026-03-07T14:43:30.978Z</time></trkpt><trkpt lat="36.8783552" lon="-3.6364797"><ele>858.0</ele><time>2026-03-07T14:43:33Z</time></trkpt><trkpt lat="36.8784433" lon="-3.6363515"><ele>858.0</ele><time>2026-03-07T14:43:35Z</time></trkpt><trkpt lat="36.8784919" lon="-3.6362441"><ele>858.0</ele><time>2026-03-07T14:43:35.986Z</time></trkpt><trkpt lat="36.8785476" lon="-3.6361324"><ele>858.0</ele><time>2026-03-07T14:43:36.987Z</time></trkpt><trkpt lat="36.8786148" lon="-3.6360207"><ele>858.75</ele><time>2026-03-07T14:43:37.988Z</time></trkpt><trkpt lat="36.8786941" lon="-3.6359339"><ele>859.5</ele><time>2026-03-07T14:43:38.983Z</time></trkpt><trkpt lat="36.878792" lon="-3.635859"><ele>860.25</ele><time>2026-03-07T14:43:40Z</time></trkpt><trkpt lat="36.878904" lon="-3.6357867"><ele>861.0</ele><time>2026-03-07T14:43:40.99Z</time></trkpt><trkpt lat="36.8790028" lon="-3.6357217"><ele>861.0</ele><time>2026-03-07T14:43:42.013Z</time></trkpt><trkpt lat="36.8790781" lon="-3.6356455"><ele>860.9999999999999</ele><time>2026-03-07T14:43:42.991Z</time></trkpt><trkpt lat="36.8791287" lon="-3.6355525"><ele>860.9999999999999</ele><time>2026-03-07T14:43:43.978Z</time></trkpt><trkpt lat="36.8791616" lon="-3.6354481"><ele>861.0</ele><time>2026-03-07T14:43:44.999Z</time></trkpt><trkpt lat="36.8791731" lon="-3.6353439"><ele>861.0</ele><time>2026-03-07T14:43:45.991Z</time></trkpt><trkpt lat="36.8791546" lon="-3.6352241"><ele>863.0</ele><time>2026-03-07T14:43:46.977Z</time></trkpt><trkpt lat="36.8791239" lon="-3.6350828"><ele>865.0</ele><time>2026-03-07T14:43:47.999Z</time></trkpt><trkpt lat="36.8790986" lon="-3.6349271"><ele>867.0</ele><time>2026-03-07T14:43:48.998Z</time></trkpt><trkpt lat="36.879087" lon="-3.6347663"><ele>869.0</ele><time>2026-03-07T14:43:49.999Z</time></trkpt><trkpt lat="36.8790838" lon="-3.63461"><ele>870.5</ele><time>2026-03-07T14:43:51.005Z</time></trkpt><trkpt lat="36.8790948" lon="-3.6344609"><ele>872.0</ele><time>2026-03-07T14:43:51.995Z</time></trkpt><trkpt lat="36.87911" lon="-3.6343146"><ele>873.5</ele><time>2026-03-07T14:43:52.984Z</time></trkpt><trkpt lat="36.8791219" lon="-3.6341721"><ele>875.0</ele><time>2026-03-07T14:43:53.983Z</time></trkpt><trkpt lat="36.8791351" lon="-3.63405"><ele>875.0000000000001</ele><time>2026-03-07T14:43:55.003Z</time></trkpt><trkpt lat="36.8791433" lon="-3.6339461"><ele>875.0</ele><time>2026-03-07T14:43:56.002Z</time></trkpt><trkpt lat="36.8791497" lon="-3.6338468"><ele>875.0</ele><time>2026-03-07T14:43:57.017Z</time></trkpt><trkpt lat="36.8791553" lon="-3.6337506"><ele>875.0</ele><time>2026-03-07T14:43:58.001Z</time></trkpt><trkpt lat="36.8791499" lon="-3.6336684"><ele>875.0000000000001</ele><time>2026-03-07T14:43:58.995Z</time></trkpt><trkpt lat="36.8791506" lon="-3.6335502"><ele>875.0</ele><time>2026-03-07T14:44:01.003Z</time></trkpt><trkpt lat="36.879274" lon="-3.6335385"><ele>877.1666666666667</ele><time>2026-03-07T14:44:04.003Z</time></trkpt><trkpt lat="36.8793426" lon="-3.6335789"><ele>879.3333333333334</ele><time>2026-03-07T14:44:04.98Z</time></trkpt><trkpt lat="36.8794086" lon="-3.6335937"><ele>881.5</ele><time>2026-03-07T14:44:05.992Z</time></trkpt><trkpt lat="36.8794948" lon="-3.6335187"><ele>883.6666666666667</ele><time>2026-03-07T14:44:07.992Z</time></trkpt><trkpt lat="36.8794909" lon="-3.6333937"><ele>885.8333333333334</ele><time>2026-03-07T14:44:09.996Z</time></trkpt><trkpt lat="36.8794435" lon="-3.6333246"><ele>888.0</ele><time>2026-03-07T14:44:10.995Z</time></trkpt><trkpt lat="36.8793786" lon="-3.6332474"><ele>888.0</ele><time>2026-03-07T14:44:11.999Z</time></trkpt><trkpt lat="36.8793107" lon="-3.6331496"><ele>888.0</ele><time>2026-03-07T14:44:12.993Z</time></trkpt><trkpt lat="36.8792673" lon="-3.6330218"><ele>888.0</ele><time>2026-03-07T14:44:13.998Z</time></trkpt><trkpt lat="36.8792347" lon="-3.6328769"><ele>888.0</ele><time>2026-03-07T14:44:14.996Z</time></trkpt><trkpt lat="36.8792105" lon="-3.632735"><ele>889.2</ele><time>2026-03-07T14:44:15.997Z</time></trkpt><trkpt lat="36.8791901" lon="-3.6326217"><ele>890.4</ele><time>2026-03-07T14:44:16.983Z</time></trkpt><trkpt lat="36.8791768" lon="-3.6325361"><ele>891.6000000000001</ele><time>2026-03-07T14:44:17.999Z</time></trkpt><trkpt lat="36.8792017" lon="-3.6324067"><ele>892.8000000000001</ele><time>2026-03-07T14:44:19.996Z</time></trkpt><trkpt lat="36.8792833" lon="-3.6323398"><ele>894.0</ele><time>2026-03-07T14:44:21.983Z</time></trkpt><trkpt lat="36.8793801" lon="-3.6323679"><ele>892.8000000000001</ele><time>2026-03-07T14:44:23.983Z</time></trkpt><trkpt lat="36.8794625" lon="-3.6324601"><ele>891.6000000000001</ele><time>2026-03-07T14:44:25.998Z</time></trkpt><trkpt lat="36.8795091" lon="-3.6325536"><ele>890.4</ele><time>2026-03-07T14:44:26.996Z</time></trkpt><trkpt lat="36.8795581" lon="-3.6326512"><ele>889.2</ele><time>2026-03-07T14:44:27.991Z</time></trkpt><trkpt lat="36.8796167" lon="-3.6327513"><ele>888.0</ele><time>2026-03-07T14:44:28.993Z</time></trkpt><trkpt lat="36.8796872" lon="-3.6328471"><ele>888.0</ele><time>2026-03-07T14:44:29.997Z</time></trkpt><trkpt lat="36.8797591" lon="-3.6329328"><ele>888.0</ele><time>2026-03-07T14:44:30.994Z</time></trkpt><trkpt lat="36.8798338" lon="-3.6330043"><ele>888.0</ele><time>2026-03-07T14:44:31.992Z</time></trkpt><trkpt lat="36.8799023" lon="-3.6330652"><ele>888.0</ele><time>2026-03-07T14:44:33.001Z</time></trkpt><trkpt lat="36.8799649" lon="-3.6331143"><ele>888.0</ele><time>2026-03-07T14:44:33.996Z</time></trkpt><trkpt lat="36.8800808" lon="-3.6331485"><ele>890.1666666666666</ele><time>2026-03-07T14:44:35.996Z</time></trkpt><trkpt lat="36.8801791" lon="-3.6330978"><ele>892.3333333333333</ele><time>2026-03-07T14:44:38.008Z</time></trkpt><trkpt lat="36.8802228" lon="-3.6330329"><ele>894.5</ele><time>2026-03-07T14:44:38.989Z</time></trkpt><trkpt lat="36.8802599" lon="-3.6329641"><ele>896.6666666666666</ele><time>2026-03-07T14:44:39.987Z</time></trkpt><trkpt lat="36.880277" lon="-3.6328711"><ele>898.8333333333333</ele><time>2026-03-07T14:44:40.985Z</time></trkpt><trkpt lat="36.8802855" lon="-3.6327625"><ele>901.0</ele><time>2026-03-07T14:44:41.99Z</time></trkpt><trkpt lat="36.8802918" lon="-3.6326256"><ele>903.0</ele><time>2026-03-07T14:44:42.989Z</time></trkpt><trkpt lat="36.8802968" lon="-3.6324637"><ele>905.0</ele><time>2026-03-07T14:44:44.003Z</time></trkpt><trkpt lat="36.8802929" lon="-3.6322879"><ele>907.0</ele><time>2026-03-07T14:44:45.008Z</time></trkpt><trkpt lat="36.8802862" lon="-3.6321102"><ele>909.0</ele><time>2026-03-07T14:44:45.999Z</time></trkpt><trkpt lat="36.8802804" lon="-3.6319353"><ele>910.2</ele><time>2026-03-07T14:44:47.004Z</time></trkpt><trkpt lat="36.8802721" lon="-3.6317784"><ele>911.4000000000001</ele><time>2026-03-07T14:44:48.003Z</time></trkpt><trkpt lat="36.8802589" lon="-3.6316462"><ele>912.6</ele><time>2026-03-07T14:44:48.982Z</time></trkpt><trkpt lat="36.880245" lon="-3.6315284"><ele>913.8</ele><time>2026-03-07T14:44:49.997Z</time></trkpt><trkpt lat="36.8802315" lon="-3.6314232"><ele>915.0</ele><time>2026-03-07T14:44:50.983Z</time></trkpt><trkpt lat="36.8802243" lon="-3.6313355"><ele>915.0</ele><time>2026-03-07T14:44:52.049Z</time></trkpt><trkpt lat="36.8802694" lon="-3.6312308"><ele>915.0</ele><time>2026-03-07T14:44:53.999Z</time></trkpt><trkpt lat="36.8803859" lon="-3.6312325"><ele>915.0</ele><time>2026-03-07T14:44:55.982Z</time></trkpt><trkpt lat="36.8804527" lon="-3.631259"><ele>915.0</ele><time>2026-03-07T14:44:57.001Z</time></trkpt><trkpt lat="36.8805281" lon="-3.6312993"><ele>915.0</ele><time>2026-03-07T14:44:57.991Z</time></trkpt><trkpt lat="36.8806066" lon="-3.6313251"><ele>915.0</ele><time>2026-03-07T14:44:58.993Z</time></trkpt><trkpt lat="36.8806834" lon="-3.6313194"><ele>915.0</ele><time>2026-03-07T14:44:59.986Z</time></trkpt><trkpt lat="36.8807574" lon="-3.6312798"><ele>915.0</ele><time>2026-03-07T14:45:00.998Z</time></trkpt><trkpt lat="36.8808209" lon="-3.6312171"><ele>915.0</ele><time>2026-03-07T14:45:01.991Z</time></trkpt><trkpt lat="36.8808807" lon="-3.6311199"><ele>915.0</ele><time>2026-03-07T14:45:02.989Z</time></trkpt><trkpt lat="36.8809485" lon="-3.6310084"><ele>915.0</ele><time>2026-03-07T14:45:03.984Z</time></trkpt><trkpt lat="36.8810265" lon="-3.630897"><ele>918.4</ele><time>2026-03-07T14:45:05.006Z</time></trkpt><trkpt lat="36.8811061" lon="-3.6307941"><ele>921.8</ele><time>2026-03-07T14:45:06.002Z</time></trkpt><trkpt lat="36.8811919" lon="-3.6307189"><ele>925.2</ele><time>2026-03-07T14:45:07.006Z</time></trkpt><trkpt lat="36.8812863" lon="-3.6306757"><ele>928.6</ele><time>2026-03-07T14:45:08.003Z</time></trkpt><trkpt lat="36.8813733" lon="-3.6306437"><ele>932.0</ele><time>2026-03-07T14:45:08.999Z</time></trkpt><trkpt lat="36.881454" lon="-3.6306279"><ele>932.0</ele><time>2026-03-07T14:45:09.975Z</time></trkpt><trkpt lat="36.8815295" lon="-3.6306255"><ele>932.0</ele><time>2026-03-07T14:45:11Z</time></trkpt><trkpt lat="36.8815938" lon="-3.6306331"><ele>932.0</ele><time>2026-03-07T14:45:11.999Z</time></trkpt><trkpt lat="36.8816896" lon="-3.6306875"><ele>932.0</ele><time>2026-03-07T14:45:13.987Z</time></trkpt><trkpt lat="36.8817296" lon="-3.630822"><ele>932.0</ele><time>2026-03-07T14:45:15.999Z</time></trkpt><trkpt lat="36.8816899" lon="-3.6309667"><ele>932.0</ele><time>2026-03-07T14:45:18Z</time></trkpt><trkpt lat="36.8816432" lon="-3.6310522"><ele>932.0</ele><time>2026-03-07T14:45:18.999Z</time></trkpt><trkpt lat="36.8815942" lon="-3.6311508"><ele>932.0</ele><time>2026-03-07T14:45:19.999Z</time></trkpt><trkpt lat="36.8815533" lon="-3.6312653"><ele>932.0</ele><time>2026-03-07T14:45:21.003Z</time></trkpt><trkpt lat="36.881526" lon="-3.6313913"><ele>932.0</ele><time>2026-03-07T14:45:21.997Z</time></trkpt><trkpt lat="36.881506" lon="-3.631527"><ele>932.8333333333334</ele><time>2026-03-07T14:45:22.988Z</time></trkpt><trkpt lat="36.881492" lon="-3.6316634"><ele>933.6666666666667</ele><time>2026-03-07T14:45:23.985Z</time></trkpt><trkpt lat="36.8814827" lon="-3.6317802"><ele>934.5</ele><time>2026-03-07T14:45:24.998Z</time></trkpt><trkpt lat="36.8814815" lon="-3.6318788"><ele>935.3333333333333</ele><time>2026-03-07T14:45:25.992Z</time></trkpt><trkpt lat="36.8815007" lon="-3.6319662"><ele>936.1666666666666</ele><time>2026-03-07T14:45:26.98Z</time></trkpt><trkpt lat="36.8815342" lon="-3.6320549"><ele>937.0</ele><time>2026-03-07T14:45:27.996Z</time></trkpt><trkpt lat="36.8815867" lon="-3.6321462"><ele>937.0</ele><time>2026-03-07T14:45:28.996Z</time></trkpt><trkpt lat="36.881648" lon="-3.6322435"><ele>937.0</ele><time>2026-03-07T14:45:29.994Z</time></trkpt><trkpt lat="36.881718" lon="-3.6323388"><ele>937.0</ele><time>2026-03-07T14:45:30.977Z</time></trkpt><trkpt lat="36.8817718" lon="-3.632431"><ele>937.0</ele><time>2026-03-07T14:45:31.995Z</time></trkpt><trkpt lat="36.8818051" lon="-3.6325134"><ele>937.0</ele><time>2026-03-07T14:45:33.004Z</time></trkpt><trkpt lat="36.8818948" lon="-3.6325719"><ele>939.1666666666666</ele><time>2026-03-07T14:45:34.993Z</time></trkpt><trkpt lat="36.8819573" lon="-3.6325575"><ele>941.3333333333333</ele><time>2026-03-07T14:45:35.997Z</time></trkpt><trkpt lat="36.8820327" lon="-3.6325305"><ele>943.5</ele><time>2026-03-07T14:45:36.999Z</time></trkpt><trkpt lat="36.8821204" lon="-3.6324948"><ele>945.6666666666667</ele><time>2026-03-07T14:45:37.99Z</time></trkpt><trkpt lat="36.8822055" lon="-3.6324592"><ele>947.8333333333334</ele><time>2026-03-07T14:45:38.985Z</time></trkpt><trkpt lat="36.8822833" lon="-3.6324646"><ele>950.0</ele><time>2026-03-07T14:45:39.988Z</time></trkpt><trkpt lat="36.8823459" lon="-3.6325099"><ele>950.0</ele><time>2026-03-07T14:45:40.998Z</time></trkpt><trkpt lat="36.8824049" lon="-3.6325724"><ele>950.0</ele><time>2026-03-07T14:45:41.998Z</time></trkpt><trkpt lat="36.8824602" lon="-3.6326364"><ele>950.0</ele><time>2026-03-07T14:45:42.991Z</time></trkpt><trkpt lat="36.882569" lon="-3.6326822"><ele>950.0</ele><time>2026-03-07T14:45:45.003Z</time></trkpt><trkpt lat="36.8826913" lon="-3.6326328"><ele>950.0</ele><time>2026-03-07T14:45:47.005Z</time></trkpt><trkpt lat="36.8827606" lon="-3.6325809"><ele>949.5</ele><time>2026-03-07T14:45:47.996Z</time></trkpt><trkpt lat="36.8828259" lon="-3.6324989"><ele>949.0</ele><time>2026-03-07T14:45:49.002Z</time></trkpt><trkpt lat="36.8829048" lon="-3.6323952"><ele>948.5</ele><time>2026-03-07T14:45:49.989Z</time></trkpt><trkpt lat="36.8829898" lon="-3.632282"><ele>948.0</ele><time>2026-03-07T14:45:50.995Z</time></trkpt><trkpt lat="36.8830777" lon="-3.6321694"><ele>948.0</ele><time>2026-03-07T14:45:51.995Z</time></trkpt><trkpt lat="36.8831643" lon="-3.6320482"><ele>948.0</ele><time>2026-03-07T14:45:52.998Z</time></trkpt><trkpt lat="36.8832388" lon="-3.6319172"><ele>948.0</ele><time>2026-03-07T14:45:54.009Z</time></trkpt><trkpt lat="36.8833144" lon="-3.6317889"><ele>948.0</ele><time>2026-03-07T14:45:55.039Z</time></trkpt><trkpt lat="36.8833847" lon="-3.6316705"><ele>951.6666666666666</ele><time>2026-03-07T14:45:56.067Z</time></trkpt><trkpt lat="36.8834487" lon="-3.6315731"><ele>955.3333333333333</ele><time>2026-03-07T14:45:57.144Z</time></trkpt><trkpt lat="36.8835129" lon="-3.631496"><ele>959.0</ele><time>2026-03-07T14:45:58.074Z</time></trkpt><trkpt lat="36.8835793" lon="-3.6314353"><ele>962.6666666666666</ele><time>2026-03-07T14:45:59.059Z</time></trkpt><trkpt lat="36.8836564" lon="-3.631397"><ele>966.3333333333333</ele><time>2026-03-07T14:46:00.013Z</time></trkpt><trkpt lat="36.8837426" lon="-3.6313762"><ele>970.0</ele><time>2026-03-07T14:46:00.99Z</time></trkpt><trkpt lat="36.8838325" lon="-3.631387"><ele>969.9999999999999</ele><time>2026-03-07T14:46:02.004Z</time></trkpt><trkpt lat="36.8839164" lon="-3.6314121"><ele>970.0</ele><time>2026-03-07T14:46:02.993Z</time></trkpt><trkpt lat="36.8839904" lon="-3.6314691"><ele>970.0</ele><time>2026-03-07T14:46:03.989Z</time></trkpt><trkpt lat="36.8840487" lon="-3.6315521"><ele>970.0</ele><time>2026-03-07T14:46:04.975Z</time></trkpt><trkpt lat="36.8840856" lon="-3.6316519"><ele>969.9999999999999</ele><time>2026-03-07T14:46:05.985Z</time></trkpt><trkpt lat="36.884113" lon="-3.6317547"><ele>970.0</ele><time>2026-03-07T14:46:07.006Z</time></trkpt><trkpt lat="36.884099" lon="-3.6318644"><ele>972.75</ele><time>2026-03-07T14:46:07.985Z</time></trkpt><trkpt lat="36.8840494" lon="-3.6319831"><ele>975.5</ele><time>2026-03-07T14:46:08.994Z</time></trkpt><trkpt lat="36.8840077" lon="-3.632118"><ele>978.25</ele><time>2026-03-07T14:46:09.992Z</time></trkpt><trkpt lat="36.8840001" lon="-3.6322627"><ele>981.0</ele><time>2026-03-07T14:46:11Z</time></trkpt><trkpt lat="36.8840184" lon="-3.6324175"><ele>981.0</ele><time>2026-03-07T14:46:11.998Z</time></trkpt><trkpt lat="36.8840379" lon="-3.6325819"><ele>981.0</ele><time>2026-03-07T14:46:12.998Z</time></trkpt><trkpt lat="36.8840586" lon="-3.632748"><ele>981.0</ele><time>2026-03-07T14:46:13.983Z</time></trkpt><trkpt lat="36.8840818" lon="-3.6329062"><ele>981.0</ele><time>2026-03-07T14:46:15.003Z</time></trkpt><trkpt lat="36.8841081" lon="-3.6330522"><ele>978.5</ele><time>2026-03-07T14:46:16.006Z</time></trkpt><trkpt lat="36.8841514" lon="-3.6331812"><ele>976.0</ele><time>2026-03-07T14:46:17.002Z</time></trkpt><trkpt lat="36.8842128" lon="-3.6332966"><ele>973.5</ele><time>2026-03-07T14:46:17.981Z</time></trkpt><trkpt lat="36.884297" lon="-3.6333966"><ele>971.0</ele><time>2026-03-07T14:46:18.985Z</time></trkpt><trkpt lat="36.8844007" lon="-3.6334854"><ele>970.5999999999999</ele><time>2026-03-07T14:46:19.986Z</time></trkpt><trkpt lat="36.8844952" lon="-3.6335731"><ele>970.1999999999999</ele><time>2026-03-07T14:46:20.999Z</time></trkpt><trkpt lat="36.884576" lon="-3.6336425"><ele>969.8000000000001</ele><time>2026-03-07T14:46:21.989Z</time></trkpt><trkpt lat="36.8846526" lon="-3.6337116"><ele>969.4000000000001</ele><time>2026-03-07T14:46:23.008Z</time></trkpt><trkpt lat="36.8847395" lon="-3.6337554"><ele>969.0</ele><time>2026-03-07T14:46:23.99Z</time></trkpt><trkpt lat="36.8848338" lon="-3.633799"><ele>969.0</ele><time>2026-03-07T14:46:24.991Z</time></trkpt><trkpt lat="36.8849208" lon="-3.6338368"><ele>969.0</ele><time>2026-03-07T14:46:25.987Z</time></trkpt><trkpt lat="36.8849944" lon="-3.6338566"><ele>969.0</ele><time>2026-03-07T14:46:26.992Z</time></trkpt><trkpt lat="36.8850657" lon="-3.633857"><ele>969.0</ele><time>2026-03-07T14:46:28.033Z</time></trkpt><trkpt lat="36.8851442" lon="-3.6338319"><ele>969.0</ele><time>2026-03-07T14:46:28.992Z</time></trkpt><trkpt lat="36.8852242" lon="-3.6337846"><ele>969.0</ele><time>2026-03-07T14:46:29.979Z</time></trkpt><trkpt lat="36.885302" lon="-3.6337481"><ele>973.6666666666666</ele><time>2026-03-07T14:46:30.997Z</time></trkpt><trkpt lat="36.8853741" lon="-3.6337244"><ele>978.3333333333333</ele><time>2026-03-07T14:46:31.983Z</time></trkpt><trkpt lat="36.8854483" lon="-3.6337333"><ele>983.0</ele><time>2026-03-07T14:46:32.991Z</time></trkpt><trkpt lat="36.8855155" lon="-3.633778"><ele>987.6666666666666</ele><time>2026-03-07T14:46:33.984Z</time></trkpt><trkpt lat="36.8855672" lon="-3.6338694"><ele>992.3333333333333</ele><time>2026-03-07T14:46:34.998Z</time></trkpt><trkpt lat="36.8856071" lon="-3.6339869"><ele>997.0</ele><time>2026-03-07T14:46:35.973Z</time></trkpt><trkpt lat="36.8856472" lon="-3.6340968"><ele>997.0</ele><time>2026-03-07T14:46:36.995Z</time></trkpt><trkpt lat="36.8856832" lon="-3.6341857"><ele>997.0</ele><time>2026-03-07T14:46:37.995Z</time></trkpt><trkpt lat="36.885753" lon="-3.6342978"><ele>997.0</ele><time>2026-03-07T14:46:39.995Z</time></trkpt><trkpt lat="36.8858206" lon="-3.6343356"><ele>997.0</ele><time>2026-03-07T14:46:41.002Z</time></trkpt><trkpt lat="36.8859147" lon="-3.6343798"><ele>997.0</ele><time>2026-03-07T14:46:41.988Z</time></trkpt><trkpt lat="36.8860062" lon="-3.6344218"><ele>1001.1666666666666</ele><time>2026-03-07T14:46:42.991Z</time></trkpt><trkpt lat="36.8860764" lon="-3.6344867"><ele>1005.3333333333333</ele><time>2026-03-07T14:46:43.987Z</time></trkpt><trkpt lat="36.8861296" lon="-3.6345694"><ele>1009.5</ele><time>2026-03-07T14:46:44.991Z</time></trkpt><trkpt lat="36.8861605" lon="-3.6346696"><ele>1013.6666666666667</ele><time>2026-03-07T14:46:45.994Z</time></trkpt><trkpt lat="36.8861835" lon="-3.6347864"><ele>1017.8333333333334</ele><time>2026-03-07T14:46:46.992Z</time></trkpt><trkpt lat="36.8861699" lon="-3.6349023"><ele>1022.0</ele><time>2026-03-07T14:46:47.98Z</time></trkpt><trkpt lat="36.8861358" lon="-3.6350206"><ele>1022.0</ele><time>2026-03-07T14:46:49.015Z</time></trkpt><trkpt lat="36.8861083" lon="-3.635131"><ele>1022.0</ele><time>2026-03-07T14:46:49.995Z</time></trkpt><trkpt lat="36.8860939" lon="-3.635226"><ele>1022.0</ele><time>2026-03-07T14:46:50.986Z</time></trkpt><trkpt lat="36.8860641" lon="-3.635362"><ele>1022.0</ele><time>2026-03-07T14:46:53.003Z</time></trkpt><trkpt lat="36.8859776" lon="-3.6354259"><ele>1022.0</ele><time>2026-03-07T14:46:54.994Z</time></trkpt><trkpt lat="36.885889" lon="-3.6353982"><ele>1018.0</ele><time>2026-03-07T14:46:56.987Z</time></trkpt><trkpt lat="36.8858475" lon="-3.6353301"><ele>1014.0</ele><time>2026-03-07T14:46:57.992Z</time></trkpt><trkpt lat="36.8857892" lon="-3.6352785"><ele>1010.0</ele><time>2026-03-07T14:46:59Z</time></trkpt><trkpt lat="36.8856649" lon="-3.6353104"><ele>1006.0</ele><time>2026-03-07T14:47:00.988Z</time></trkpt><trkpt lat="36.8855892" lon="-3.6353901"><ele>1002.0</ele><time>2026-03-07T14:47:01.984Z</time></trkpt><trkpt lat="36.885516" lon="-3.6354982"><ele>1002.0</ele><time>2026-03-07T14:47:03.004Z</time></trkpt><trkpt lat="36.8854448" lon="-3.6356179"><ele>1002.0</ele><time>2026-03-07T14:47:03.989Z</time></trkpt><trkpt lat="36.8853814" lon="-3.6357215"><ele>1002.0</ele><time>2026-03-07T14:47:04.994Z</time></trkpt><trkpt lat="36.8853152" lon="-3.6357851"><ele>1002.0</ele><time>2026-03-07T14:47:06.023Z</time></trkpt><trkpt lat="36.8852294" lon="-3.6358176"><ele>1002.0</ele><time>2026-03-07T14:47:07.011Z</time></trkpt><trkpt lat="36.8851389" lon="-3.635823"><ele>999.6</ele><time>2026-03-07T14:47:07.982Z</time></trkpt><trkpt lat="36.8850315" lon="-3.6358176"><ele>997.2</ele><time>2026-03-07T14:47:08.996Z</time></trkpt><trkpt lat="36.8849192" lon="-3.6358009"><ele>994.8</ele><time>2026-03-07T14:47:09.992Z</time></trkpt><trkpt lat="36.884814" lon="-3.6357607"><ele>992.4</ele><time>2026-03-07T14:47:11.009Z</time></trkpt><trkpt lat="36.8847191" lon="-3.6356929"><ele>990.0</ele><time>2026-03-07T14:47:11.988Z</time></trkpt><trkpt lat="36.8846244" lon="-3.6356287"><ele>990.0</ele><time>2026-03-07T14:47:13Z</time></trkpt><trkpt lat="36.884533" lon="-3.635574"><ele>990.0</ele><time>2026-03-07T14:47:14.001Z</time></trkpt><trkpt lat="36.8844467" lon="-3.635545"><ele>990.0</ele><time>2026-03-07T14:47:15.011Z</time></trkpt><trkpt lat="36.884364" lon="-3.6355589"><ele>990.0</ele><time>2026-03-07T14:47:15.99Z</time></trkpt><trkpt lat="36.8842869" lon="-3.6356001"><ele>990.0</ele><time>2026-03-07T14:47:16.999Z</time></trkpt><trkpt lat="36.8842154" lon="-3.635657"><ele>990.0</ele><time>2026-03-07T14:47:18.004Z</time></trkpt><trkpt lat="36.8841596" lon="-3.6357164"><ele>990.0</ele><time>2026-03-07T14:47:18.996Z</time></trkpt><trkpt lat="36.8841207" lon="-3.6358479"><ele>990.0</ele><time>2026-03-07T14:47:20.997Z</time></trkpt><trkpt lat="36.8841434" lon="-3.6359295"><ele>990.0</ele><time>2026-03-07T14:47:21.993Z</time></trkpt><trkpt lat="36.8841944" lon="-3.6360244"><ele>990.0</ele><time>2026-03-07T14:47:23.002Z</time></trkpt><trkpt lat="36.8842799" lon="-3.636097"><ele>990.0</ele><time>2026-03-07T14:47:24.002Z</time></trkpt><trkpt lat="36.88437" lon="-3.6361777"><ele>990.1666666666666</ele><time>2026-03-07T14:47:24.989Z</time></trkpt><trkpt lat="36.8844553" lon="-3.6362627"><ele>990.3333333333333</ele><time>2026-03-07T14:47:25.999Z</time></trkpt><trkpt lat="36.8845141" lon="-3.6363409"><ele>990.5</ele><time>2026-03-07T14:47:26.988Z</time></trkpt><trkpt lat="36.8845609" lon="-3.6364094"><ele>990.6666666666666</ele><time>2026-03-07T14:47:28Z</time></trkpt><trkpt lat="36.8845932" lon="-3.6364896"><ele>990.8333333333333</ele><time>2026-03-07T14:47:28.999Z</time></trkpt><trkpt lat="36.8846168" lon="-3.6365913"><ele>991.0</ele><time>2026-03-07T14:47:29.997Z</time></trkpt><trkpt lat="36.8846193" lon="-3.6366975"><ele>990.9999999999999</ele><time>2026-03-07T14:47:30.999Z</time></trkpt><trkpt lat="36.8846207" lon="-3.6367885"><ele>991.0</ele><time>2026-03-07T14:47:31.996Z</time></trkpt><trkpt lat="36.8846756" lon="-3.6369061"><ele>991.0</ele><time>2026-03-07T14:47:33.986Z</time></trkpt><trkpt lat="36.8847592" lon="-3.6369011"><ele>991.0</ele><time>2026-03-07T14:47:35.999Z</time></trkpt><trkpt lat="36.8848269" lon="-3.636855"><ele>990.9999999999999</ele><time>2026-03-07T14:47:36.989Z</time></trkpt><trkpt lat="36.8849114" lon="-3.6367964"><ele>991.0</ele><time>2026-03-07T14:47:37.976Z</time></trkpt><trkpt lat="36.8850053" lon="-3.6367584"><ele>991.9999999999999</ele><time>2026-03-07T14:47:38.997Z</time></trkpt><trkpt lat="36.8850974" lon="-3.6367399"><ele>993.0</ele><time>2026-03-07T14:47:39.999Z</time></trkpt><trkpt lat="36.885182" lon="-3.6367363"><ele>994.0</ele><time>2026-03-07T14:47:40.995Z</time></trkpt><trkpt lat="36.8852557" lon="-3.6367662"><ele>995.0</ele><time>2026-03-07T14:47:41.993Z</time></trkpt><trkpt lat="36.8853195" lon="-3.6368393"><ele>995.9999999999999</ele><time>2026-03-07T14:47:43.005Z</time></trkpt><trkpt lat="36.8853593" lon="-3.636961"><ele>997.0</ele><time>2026-03-07T14:47:43.991Z</time></trkpt><trkpt lat="36.8853992" lon="-3.6371007"><ele>997.0</ele><time>2026-03-07T14:47:44.973Z</time></trkpt><trkpt lat="36.8854406" lon="-3.637234"><ele>997.0</ele><time>2026-03-07T14:47:46.002Z</time></trkpt><trkpt lat="36.8854768" lon="-3.6373533"><ele>997.0</ele><time>2026-03-07T14:47:47Z</time></trkpt><trkpt lat="36.8855286" lon="-3.6374496"><ele>997.0</ele><time>2026-03-07T14:47:47.989Z</time></trkpt><trkpt lat="36.8855759" lon="-3.6375326"><ele>997.0</ele><time>2026-03-07T14:47:49.005Z</time></trkpt><trkpt lat="36.8856599" lon="-3.6375854"><ele>997.0</ele><time>2026-03-07T14:47:50Z</time></trkpt><trkpt lat="36.8857719" lon="-3.6376336"><ele>997.0</ele><time>2026-03-07T14:47:50.993Z</time></trkpt><trkpt lat="36.885903" lon="-3.6376641"><ele>997.0</ele><time>2026-03-07T14:47:51.974Z</time></trkpt><trkpt lat="36.8860405" lon="-3.6376918"><ele>997.0</ele><time>2026-03-07T14:47:53.021Z</time></trkpt><trkpt lat="36.8861767" lon="-3.6377282"><ele>997.25</ele><time>2026-03-07T14:47:54.005Z</time></trkpt><trkpt lat="36.8863007" lon="-3.6377845"><ele>997.5</ele><time>2026-03-07T14:47:55.015Z</time></trkpt><trkpt lat="36.8864105" lon="-3.6378531"><ele>997.75</ele><time>2026-03-07T14:47:56.003Z</time></trkpt><trkpt lat="36.8865127" lon="-3.6379116"><ele>998.0</ele><time>2026-03-07T14:47:56.999Z</time></trkpt><trkpt lat="36.8866055" lon="-3.6379709"><ele>998.0</ele><time>2026-03-07T14:47:57.988Z</time></trkpt><trkpt lat="36.8866802" lon="-3.6380601"><ele>998.0</ele><time>2026-03-07T14:47:58.99Z</time></trkpt><trkpt lat="36.8867441" lon="-3.6381666"><ele>998.0</ele><time>2026-03-07T14:47:59.989Z</time></trkpt><trkpt lat="36.8867846" lon="-3.6382919"><ele>998.0</ele><time>2026-03-07T14:48:00.99Z</time></trkpt><trkpt lat="36.8867888" lon="-3.6384188"><ele>998.0</ele><time>2026-03-07T14:48:01.998Z</time></trkpt><trkpt lat="36.8867812" lon="-3.6385328"><ele>998.8333333333334</ele><time>2026-03-07T14:48:02.986Z</time></trkpt><trkpt lat="36.8867816" lon="-3.6386372"><ele>999.6666666666667</ele><time>2026-03-07T14:48:03.989Z</time></trkpt><trkpt lat="36.8867983" lon="-3.6387347"><ele>1000.5</ele><time>2026-03-07T14:48:04.996Z</time></trkpt><trkpt lat="36.8868206" lon="-3.6388108"><ele>1001.3333333333333</ele><time>2026-03-07T14:48:06.012Z</time></trkpt><trkpt lat="36.886855" lon="-3.6388816"><ele>1002.1666666666666</ele><time>2026-03-07T14:48:06.985Z</time></trkpt><trkpt lat="36.8868346" lon="-3.6390223"><ele>1003.0</ele><time>2026-03-07T14:48:08.985Z</time></trkpt><trkpt lat="36.8867407" lon="-3.6390555"><ele>1003.0</ele><time>2026-03-07T14:48:11.005Z</time></trkpt><trkpt lat="36.8866704" lon="-3.6390146"><ele>1003.0</ele><time>2026-03-07T14:48:11.986Z</time></trkpt><trkpt lat="36.886588" lon="-3.6389354"><ele>1003.0</ele><time>2026-03-07T14:48:13.003Z</time></trkpt><trkpt lat="36.8865025" lon="-3.6388447"><ele>1003.0</ele><time>2026-03-07T14:48:13.986Z</time></trkpt><trkpt lat="36.8864191" lon="-3.6387748"><ele>1003.0</ele><time>2026-03-07T14:48:14.994Z</time></trkpt><trkpt lat="36.8863386" lon="-3.6387405"><ele>1003.0</ele><time>2026-03-07T14:48:16.002Z</time></trkpt><trkpt lat="36.8862728" lon="-3.6387476"><ele>1003.0</ele><time>2026-03-07T14:48:16.971Z</time></trkpt><trkpt lat="36.8861799" lon="-3.6388367"><ele>1003.0</ele><time>2026-03-07T14:48:19.005Z</time></trkpt><trkpt lat="36.8861482" lon="-3.6389318"><ele>1003.0</ele><time>2026-03-07T14:48:19.991Z</time></trkpt><trkpt lat="36.8861031" lon="-3.6390545"><ele>1003.0</ele><time>2026-03-07T14:48:21Z</time></trkpt><trkpt lat="36.8860481" lon="-3.6391801"><ele>1003.0</ele><time>2026-03-07T14:48:21.991Z</time></trkpt><trkpt lat="36.8859578" lon="-3.6393087"><ele>1003.0</ele><time>2026-03-07T14:48:22.996Z</time></trkpt><trkpt lat="36.8858685" lon="-3.6394109"><ele>1003.0</ele><time>2026-03-07T14:48:23.989Z</time></trkpt><trkpt lat="36.8857876" lon="-3.6394932"><ele>1003.0</ele><time>2026-03-07T14:48:24.998Z</time></trkpt><trkpt lat="36.8857205" lon="-3.6395752"><ele>1001.75</ele><time>2026-03-07T14:48:25.987Z</time></trkpt><trkpt lat="36.8856774" lon="-3.6396761"><ele>1000.5</ele><time>2026-03-07T14:48:26.993Z</time></trkpt><trkpt lat="36.8856514" lon="-3.6398047"><ele>999.25</ele><time>2026-03-07T14:48:28.018Z</time></trkpt><trkpt lat="36.885639" lon="-3.6399636"><ele>998.0</ele><time>2026-03-07T14:48:28.996Z</time></trkpt><trkpt lat="36.8856443" lon="-3.640147"><ele>997.75</ele><time>2026-03-07T14:48:29.997Z</time></trkpt><trkpt lat="36.885655" lon="-3.640339"><ele>997.5</ele><time>2026-03-07T14:48:30.983Z</time></trkpt><trkpt lat="36.885661" lon="-3.6405263"><ele>997.25</ele><time>2026-03-07T14:48:32Z</time></trkpt><trkpt lat="36.8856709" lon="-3.6407059"><ele>997.0</ele><time>2026-03-07T14:48:32.978Z</time></trkpt><trkpt lat="36.8856943" lon="-3.6408726"><ele>997.0</ele><time>2026-03-07T14:48:33.994Z</time></trkpt><trkpt lat="36.8857158" lon="-3.6410234"><ele>997.0</ele><time>2026-03-07T14:48:34.981Z</time></trkpt><trkpt lat="36.8857292" lon="-3.6411662"><ele>997.0</ele><time>2026-03-07T14:48:36Z</time></trkpt><trkpt lat="36.8857302" lon="-3.6412858"><ele>997.0</ele><time>2026-03-07T14:48:36.991Z</time></trkpt><trkpt lat="36.8857067" lon="-3.6413992"><ele>997.0</ele><time>2026-03-07T14:48:37.992Z</time></trkpt><trkpt lat="36.8856762" lon="-3.6415093"><ele>995.6</ele><time>2026-03-07T14:48:38.992Z</time></trkpt><trkpt lat="36.885678" lon="-3.6416131"><ele>994.2</ele><time>2026-03-07T14:48:39.997Z</time></trkpt><trkpt lat="36.8857156" lon="-3.6417092"><ele>992.8</ele><time>2026-03-07T14:48:40.989Z</time></trkpt><trkpt lat="36.8857943" lon="-3.6417907"><ele>991.4</ele><time>2026-03-07T14:48:41.992Z</time></trkpt><trkpt lat="36.8858824" lon="-3.6418634"><ele>990.0</ele><time>2026-03-07T14:48:43.002Z</time></trkpt><trkpt lat="36.8859626" lon="-3.6419296"><ele>989.6666666666666</ele><time>2026-03-07T14:48:44.004Z</time></trkpt><trkpt lat="36.8860197" lon="-3.6420021"><ele>989.3333333333333</ele><time>2026-03-07T14:48:45.011Z</time></trkpt><trkpt lat="36.8860567" lon="-3.6420704"><ele>989.0</ele><time>2026-03-07T14:48:46.024Z</time></trkpt><trkpt lat="36.8860611" lon="-3.6422124"><ele>988.6666666666666</ele><time>2026-03-07T14:48:47.987Z</time></trkpt><trkpt lat="36.8860064" lon="-3.6422688"><ele>988.3333333333333</ele><time>2026-03-07T14:48:48.994Z</time></trkpt><trkpt lat="36.8859256" lon="-3.6423157"><ele>988.0</ele><time>2026-03-07T14:48:50.01Z</time></trkpt><trkpt lat="36.885826" lon="-3.642337"><ele>987.9999999999999</ele><time>2026-03-07T14:48:50.994Z</time></trkpt><trkpt lat="36.8857314" lon="-3.6423556"><ele>988.0</ele><time>2026-03-07T14:48:51.992Z</time></trkpt><trkpt lat="36.8856509" lon="-3.6423842"><ele>988.0</ele><time>2026-03-07T14:48:53.004Z</time></trkpt><trkpt lat="36.8855832" lon="-3.6424295"><ele>988.0</ele><time>2026-03-07T14:48:53.988Z</time></trkpt><trkpt lat="36.8855305" lon="-3.642485"><ele>987.9999999999999</ele><time>2026-03-07T14:48:54.983Z</time></trkpt><trkpt lat="36.8854956" lon="-3.642617"><ele>988.0</ele><time>2026-03-07T14:48:56.999Z</time></trkpt><trkpt lat="36.8855281" lon="-3.6426955"><ele>988.0</ele><time>2026-03-07T14:48:57.988Z</time></trkpt><trkpt lat="36.8855844" lon="-3.6427909"><ele>988.0</ele><time>2026-03-07T14:48:58.991Z</time></trkpt><trkpt lat="36.8856554" lon="-3.6428794"><ele>988.0</ele><time>2026-03-07T14:48:59.993Z</time></trkpt><trkpt lat="36.8857506" lon="-3.6429395"><ele>988.0</ele><time>2026-03-07T14:49:00.996Z</time></trkpt><trkpt lat="36.8858626" lon="-3.6429926"><ele>988.0</ele><time>2026-03-07T14:49:01.989Z</time></trkpt><trkpt lat="36.8859748" lon="-3.6430426"><ele>986.0</ele><time>2026-03-07T14:49:02.994Z</time></trkpt><trkpt lat="36.8860775" lon="-3.6430841"><ele>984.0</ele><time>2026-03-07T14:49:03.978Z</time></trkpt><trkpt lat="36.8861757" lon="-3.643121"><ele>982.0</ele><time>2026-03-07T14:49:05.004Z</time></trkpt><trkpt lat="36.8862752" lon="-3.6431624"><ele>980.0</ele><time>2026-03-07T14:49:06.002Z</time></trkpt><trkpt lat="36.8863821" lon="-3.6431948"><ele>978.0</ele><time>2026-03-07T14:49:07.001Z</time></trkpt><trkpt lat="36.8864936" lon="-3.6432148"><ele>978.0</ele><time>2026-03-07T14:49:08.001Z</time></trkpt><trkpt lat="36.8865986" lon="-3.6432293"><ele>978.0</ele><time>2026-03-07T14:49:08.988Z</time></trkpt><trkpt lat="36.8866899" lon="-3.6432293"><ele>978.0</ele><time>2026-03-07T14:49:09.988Z</time></trkpt><trkpt lat="36.8867708" lon="-3.6432129"><ele>978.0</ele><time>2026-03-07T14:49:10.987Z</time></trkpt><trkpt lat="36.8868462" lon="-3.6431701"><ele>978.0</ele><time>2026-03-07T14:49:11.997Z</time></trkpt><trkpt lat="36.8869116" lon="-3.6430944"><ele>981.8571428571429</ele><time>2026-03-07T14:49:12.994Z</time></trkpt><trkpt lat="36.8869805" lon="-3.6430364"><ele>985.7142857142858</ele><time>2026-03-07T14:49:13.988Z</time></trkpt><trkpt lat="36.8870485" lon="-3.6430191"><ele>989.5714285714287</ele><time>2026-03-07T14:49:15.005Z</time></trkpt><trkpt lat="36.8871146" lon="-3.6430379"><ele>993.4285714285716</ele><time>2026-03-07T14:49:15.987Z</time></trkpt><trkpt lat="36.8871641" lon="-3.6431014"><ele>997.2857142857143</ele><time>2026-03-07T14:49:17.003Z</time></trkpt><trkpt lat="36.8872054" lon="-3.6431735"><ele>1001.1428571428573</ele><time>2026-03-07T14:49:17.989Z</time></trkpt><trkpt lat="36.8872119" lon="-3.6432709"><ele>1005.0000000000001</ele><time>2026-03-07T14:49:18.996Z</time></trkpt><trkpt lat="36.8871976" lon="-3.6434078"><ele>1005.0</ele><time>2026-03-07T14:49:19.997Z</time></trkpt><trkpt lat="36.8871815" lon="-3.6435716"><ele>1005.0</ele><time>2026-03-07T14:49:20.99Z</time></trkpt><trkpt lat="36.8871509" lon="-3.6437404"><ele>1005.0</ele><time>2026-03-07T14:49:21.996Z</time></trkpt><trkpt lat="36.887092" lon="-3.643894"><ele>1005.0</ele><time>2026-03-07T14:49:22.993Z</time></trkpt><trkpt lat="36.8870162" lon="-3.6440258"><ele>1003.5</ele><time>2026-03-07T14:49:23.995Z</time></trkpt><trkpt lat="36.8869244" lon="-3.6441254"><ele>1002.0</ele><time>2026-03-07T14:49:24.989Z</time></trkpt><trkpt lat="36.8868386" lon="-3.6442358"><ele>1000.5</ele><time>2026-03-07T14:49:25.998Z</time></trkpt><trkpt lat="36.8867524" lon="-3.6443526"><ele>999.0</ele><time>2026-03-07T14:49:26.988Z</time></trkpt><trkpt lat="36.8866669" lon="-3.6444685"><ele>999.0</ele><time>2026-03-07T14:49:27.991Z</time></trkpt><trkpt lat="36.8865819" lon="-3.6445733"><ele>999.0</ele><time>2026-03-07T14:49:29.002Z</time></trkpt><trkpt lat="36.8864882" lon="-3.6446597"><ele>999.0</ele><time>2026-03-07T14:49:30.083Z</time></trkpt><trkpt lat="36.8863772" lon="-3.6447047"><ele>999.0</ele><time>2026-03-07T14:49:30.991Z</time></trkpt><trkpt lat="36.8862805" lon="-3.6447736"><ele>999.0</ele><time>2026-03-07T14:49:31.985Z</time></trkpt><trkpt lat="36.8862022" lon="-3.6448643"><ele>999.0000000000001</ele><time>2026-03-07T14:49:32.989Z</time></trkpt><trkpt lat="36.8861426" lon="-3.6449568"><ele>999.0000000000001</ele><time>2026-03-07T14:49:34.013Z</time></trkpt><trkpt lat="36.886107" lon="-3.6450623"><ele>999.0</ele><time>2026-03-07T14:49:34.982Z</time></trkpt><trkpt lat="36.8860969" lon="-3.6451719"><ele>999.0</ele><time>2026-03-07T14:49:35.998Z</time></trkpt><trkpt lat="36.8861196" lon="-3.6452837"><ele>997.5</ele><time>2026-03-07T14:49:36.996Z</time></trkpt><trkpt lat="36.8861683" lon="-3.6454047"><ele>996.0</ele><time>2026-03-07T14:49:37.999Z</time></trkpt><trkpt lat="36.8862094" lon="-3.6455513"><ele>994.5</ele><time>2026-03-07T14:49:38.995Z</time></trkpt><trkpt lat="36.8862619" lon="-3.645688"><ele>993.0</ele><time>2026-03-07T14:49:40.001Z</time></trkpt><trkpt lat="36.8863153" lon="-3.6458065"><ele>993.0</ele><time>2026-03-07T14:49:40.992Z</time></trkpt><trkpt lat="36.8863701" lon="-3.6459103"><ele>993.0</ele><time>2026-03-07T14:49:41.991Z</time></trkpt><trkpt lat="36.8864209" lon="-3.6459994"><ele>993.0</ele><time>2026-03-07T14:49:42.986Z</time></trkpt><trkpt lat="36.8865001" lon="-3.6460537"><ele>993.0</ele><time>2026-03-07T14:49:43.993Z</time></trkpt><trkpt lat="36.8865847" lon="-3.6461052"><ele>993.0</ele><time>2026-03-07T14:49:45.029Z</time></trkpt><trkpt lat="36.8866454" lon="-3.6461875"><ele>991.4</ele><time>2026-03-07T14:49:46Z</time></trkpt><trkpt lat="36.8866833" lon="-3.6462925"><ele>989.8</ele><time>2026-03-07T14:49:46.98Z</time></trkpt><trkpt lat="36.8866978" lon="-3.646415"><ele>988.2</ele><time>2026-03-07T14:49:47.996Z</time></trkpt><trkpt lat="36.8866784" lon="-3.6465555"><ele>986.6</ele><time>2026-03-07T14:49:48.994Z</time></trkpt><trkpt lat="36.8866506" lon="-3.6467054"><ele>985.0</ele><time>2026-03-07T14:49:49.993Z</time></trkpt><trkpt lat="36.8866231" lon="-3.6468539"><ele>985.6</ele><time>2026-03-07T14:49:51.006Z</time></trkpt><trkpt lat="36.8866007" lon="-3.6469981"><ele>986.2</ele><time>2026-03-07T14:49:51.995Z</time></trkpt><trkpt lat="36.8865708" lon="-3.6471249"><ele>986.8</ele><time>2026-03-07T14:49:52.981Z</time></trkpt><trkpt lat="36.8865385" lon="-3.6472413"><ele>987.4</ele><time>2026-03-07T14:49:54.005Z</time></trkpt><trkpt lat="36.8864915" lon="-3.6473426"><ele>988.0</ele><time>2026-03-07T14:49:54.993Z</time></trkpt><trkpt lat="36.8864601" lon="-3.6474509"><ele>988.0</ele><time>2026-03-07T14:49:55.986Z</time></trkpt><trkpt lat="36.886456" lon="-3.6475784"><ele>988.0</ele><time>2026-03-07T14:49:57.006Z</time></trkpt><trkpt lat="36.8864701" lon="-3.6477099"><ele>988.0</ele><time>2026-03-07T14:49:58.001Z</time></trkpt><trkpt lat="36.8864983" lon="-3.6478518"><ele>988.0</ele><time>2026-03-07T14:49:58.984Z</time></trkpt><trkpt lat="36.8865398" lon="-3.6480041"><ele>985.0</ele><time>2026-03-07T14:49:59.989Z</time></trkpt><trkpt lat="36.8865834" lon="-3.6481647"><ele>982.0</ele><time>2026-03-07T14:50:01.006Z</time></trkpt><trkpt lat="36.8866468" lon="-3.6483117"><ele>979.0</ele><time>2026-03-07T14:50:02.006Z</time></trkpt><trkpt lat="36.8867078" lon="-3.6484493"><ele>976.0</ele><time>2026-03-07T14:50:02.997Z</time></trkpt><trkpt lat="36.8867587" lon="-3.6485652"><ele>973.1999999999999</ele><time>2026-03-07T14:50:03.978Z</time></trkpt><trkpt lat="36.8868071" lon="-3.6486619"><ele>970.3999999999999</ele><time>2026-03-07T14:50:04.994Z</time></trkpt><trkpt lat="36.8868687" lon="-3.6487282"><ele>967.6</ele><time>2026-03-07T14:50:05.987Z</time></trkpt><trkpt lat="36.8869564" lon="-3.6487667"><ele>964.8</ele><time>2026-03-07T14:50:06.994Z</time></trkpt><trkpt lat="36.887062" lon="-3.648798"><ele>962.0</ele><time>2026-03-07T14:50:07.998Z</time></trkpt><trkpt lat="36.8871846" lon="-3.6488245"><ele>962.0</ele><time>2026-03-07T14:50:08.982Z</time></trkpt><trkpt lat="36.8873141" lon="-3.6488675"><ele>962.0</ele><time>2026-03-07T14:50:09.986Z</time></trkpt><trkpt lat="36.8874346" lon="-3.6489083"><ele>962.0</ele><time>2026-03-07T14:50:10.998Z</time></trkpt><trkpt lat="36.8875345" lon="-3.6489364"><ele>962.0</ele><time>2026-03-07T14:50:12Z</time></trkpt><trkpt lat="36.8876112" lon="-3.6489377"><ele>962.0</ele><time>2026-03-07T14:50:12.988Z</time></trkpt><trkpt lat="36.8876795" lon="-3.6489016"><ele>964.0000000000001</ele><time>2026-03-07T14:50:14.002Z</time></trkpt><trkpt lat="36.8877434" lon="-3.6488312"><ele>966.0</ele><time>2026-03-07T14:50:14.99Z</time></trkpt><trkpt lat="36.887817" lon="-3.6487419"><ele>968.0</ele><time>2026-03-07T14:50:15.989Z</time></trkpt><trkpt lat="36.8878916" lon="-3.6486642"><ele>970.0</ele><time>2026-03-07T14:50:16.997Z</time></trkpt><trkpt lat="36.8879579" lon="-3.6486126"><ele>972.0000000000001</ele><time>2026-03-07T14:50:17.998Z</time></trkpt><trkpt lat="36.8880351" lon="-3.6486104"><ele>974.0</ele><time>2026-03-07T14:50:18.995Z</time></trkpt><trkpt lat="36.8881084" lon="-3.6486723"><ele>974.0000000000001</ele><time>2026-03-07T14:50:19.972Z</time></trkpt><trkpt lat="36.8881667" lon="-3.6487608"><ele>974.0</ele><time>2026-03-07T14:50:20.989Z</time></trkpt><trkpt lat="36.8882139" lon="-3.6488479"><ele>974.0</ele><time>2026-03-07T14:50:21.992Z</time></trkpt><trkpt lat="36.888276" lon="-3.6489164"><ele>974.0</ele><time>2026-03-07T14:50:22.996Z</time></trkpt><trkpt lat="36.8883564" lon="-3.6489407"><ele>974.0000000000001</ele><time>2026-03-07T14:50:24.002Z</time></trkpt><trkpt lat="36.8884424" lon="-3.6489389"><ele>974.0</ele><time>2026-03-07T14:50:24.99Z</time></trkpt><trkpt lat="36.8885197" lon="-3.6488764"><ele>977.5000000000001</ele><time>2026-03-07T14:50:25.997Z</time></trkpt><trkpt lat="36.8885756" lon="-3.6487958"><ele>981.0</ele><time>2026-03-07T14:50:27.002Z</time></trkpt><trkpt lat="36.8886029" lon="-3.6486826"><ele>984.5</ele><time>2026-03-07T14:50:27.993Z</time></trkpt><trkpt lat="36.8886261" lon="-3.6485711"><ele>988.0</ele><time>2026-03-07T14:50:29.004Z</time></trkpt><trkpt lat="36.8886444" lon="-3.6484868"><ele>991.5000000000001</ele><time>2026-03-07T14:50:29.996Z</time></trkpt><trkpt lat="36.8886986" lon="-3.6484016"><ele>995.0</ele><time>2026-03-07T14:50:32.009Z</time></trkpt><trkpt lat="36.8888157" lon="-3.6484571"><ele>995.0000000000001</ele><time>2026-03-07T14:50:33.997Z</time></trkpt><trkpt lat="36.8888727" lon="-3.6485288"><ele>995.0</ele><time>2026-03-07T14:50:35.004Z</time></trkpt><trkpt lat="36.8889098" lon="-3.648622"><ele>995.0</ele><time>2026-03-07T14:50:35.991Z</time></trkpt><trkpt lat="36.8889598" lon="-3.6487128"><ele>995.0</ele><time>2026-03-07T14:50:36.984Z</time></trkpt><trkpt lat="36.8890157" lon="-3.6487832"><ele>995.0000000000001</ele><time>2026-03-07T14:50:37.995Z</time></trkpt><trkpt lat="36.8890836" lon="-3.6488199"><ele>995.0</ele><time>2026-03-07T14:50:39.004Z</time></trkpt><trkpt lat="36.8891359" lon="-3.6488639"><ele>995.0</ele><time>2026-03-07T14:50:40.003Z</time></trkpt><trkpt lat="36.8891926" lon="-3.648961"><ele>995.0</ele><time>2026-03-07T14:50:41.99Z</time></trkpt><trkpt lat="36.8891068" lon="-3.6491415"><ele>995.0</ele><time>2026-03-07T14:50:43.978Z</time></trkpt><trkpt lat="36.8890244" lon="-3.6492657"><ele>995.0</ele><time>2026-03-07T14:50:45.026Z</time></trkpt><trkpt lat="36.8889333" lon="-3.6493815"><ele>999.5</ele><time>2026-03-07T14:50:45.996Z</time></trkpt><trkpt lat="36.8888369" lon="-3.6494823"><ele>1004.0</ele><time>2026-03-07T14:50:46.991Z</time></trkpt><trkpt lat="36.8887338" lon="-3.6495811"><ele>1008.5</ele><time>2026-03-07T14:50:47.986Z</time></trkpt><trkpt lat="36.8886419" lon="-3.6496706"><ele>1013.0</ele><time>2026-03-07T14:50:48.999Z</time></trkpt><trkpt lat="36.8885664" lon="-3.6497585"><ele>1013.0000000000001</ele><time>2026-03-07T14:50:49.994Z</time></trkpt><trkpt lat="36.8885046" lon="-3.6498461"><ele>1013.0</ele><time>2026-03-07T14:50:51.006Z</time></trkpt><trkpt lat="36.8884464" lon="-3.649921"><ele>1013.0</ele><time>2026-03-07T14:50:51.995Z</time></trkpt><trkpt lat="36.8883779" lon="-3.6499614"><ele>1013.0</ele><time>2026-03-07T14:50:52.983Z</time></trkpt><trkpt lat="36.8883017" lon="-3.6499734"><ele>1013.0000000000001</ele><time>2026-03-07T14:50:53.996Z</time></trkpt><trkpt lat="36.8881985" lon="-3.649974"><ele>1013.0</ele><time>2026-03-07T14:50:54.983Z</time></trkpt><trkpt lat="36.8880835" lon="-3.6499768"><ele>1006.0</ele><time>2026-03-07T14:50:55.985Z</time></trkpt><trkpt lat="36.8879592" lon="-3.6500148"><ele>999.0</ele><time>2026-03-07T14:50:56.997Z</time></trkpt><trkpt lat="36.8878335" lon="-3.6500657"><ele>992.0</ele><time>2026-03-07T14:50:57.987Z</time></trkpt><trkpt lat="36.8877135" lon="-3.6501051"><ele>985.0</ele><time>2026-03-07T14:50:58.989Z</time></trkpt><trkpt lat="36.8876093" lon="-3.6501587"><ele>988.0</ele><time>2026-03-07T14:50:59.999Z</time></trkpt><trkpt lat="36.8875089" lon="-3.6502181"><ele>991.0</ele><time>2026-03-07T14:51:00.994Z</time></trkpt><trkpt lat="36.8873994" lon="-3.6502842"><ele>994.0</ele><time>2026-03-07T14:51:02.004Z</time></trkpt><trkpt lat="36.8872933" lon="-3.6503683"><ele>997.0</ele><time>2026-03-07T14:51:03.048Z</time></trkpt><trkpt lat="36.8872023" lon="-3.6504788"><ele>997.0</ele><time>2026-03-07T14:51:03.989Z</time></trkpt><trkpt lat="36.8871125" lon="-3.6506081"><ele>997.0</ele><time>2026-03-07T14:51:05.051Z</time></trkpt><trkpt lat="36.8870143" lon="-3.650745"><ele>997.0</ele><time>2026-03-07T14:51:05.994Z</time></trkpt><trkpt lat="36.8869167" lon="-3.650882"><ele>997.0</ele><time>2026-03-07T14:51:07.002Z</time></trkpt><trkpt lat="36.8868262" lon="-3.6510165"><ele>992.0</ele><time>2026-03-07T14:51:07.994Z</time></trkpt><trkpt lat="36.8867386" lon="-3.6511443"><ele>987.0</ele><time>2026-03-07T14:51:09.003Z</time></trkpt><trkpt lat="36.8866501" lon="-3.6512695"><ele>982.0</ele><time>2026-03-07T14:51:10Z</time></trkpt><trkpt lat="36.8865576" lon="-3.6513892"><ele>977.0</ele><time>2026-03-07T14:51:10.994Z</time></trkpt><trkpt lat="36.8864633" lon="-3.6514993"><ele>977.0000000000001</ele><time>2026-03-07T14:51:11.997Z</time></trkpt><trkpt lat="36.8863785" lon="-3.6516036"><ele>977.0</ele><time>2026-03-07T14:51:12.999Z</time></trkpt><trkpt lat="36.8863044" lon="-3.6516904"><ele>977.0</ele><time>2026-03-07T14:51:13.996Z</time></trkpt><trkpt lat="36.8862523" lon="-3.6517788"><ele>977.0</ele><time>2026-03-07T14:51:14.997Z</time></trkpt><trkpt lat="36.8862101" lon="-3.6518536"><ele>977.0000000000001</ele><time>2026-03-07T14:51:16.026Z</time></trkpt><trkpt lat="36.8861874" lon="-3.6519301"><ele>977.0</ele><time>2026-03-07T14:51:16.994Z</time></trkpt><trkpt lat="36.8861754" lon="-3.6520171"><ele>973.3333333333334</ele><time>2026-03-07T14:51:18.068Z</time></trkpt><trkpt lat="36.8862023" lon="-3.6520932"><ele>969.6666666666667</ele><time>2026-03-07T14:51:18.981Z</time></trkpt><trkpt lat="36.8862598" lon="-3.652154"><ele>966.0</ele><time>2026-03-07T14:51:20.044Z</time></trkpt><trkpt lat="36.8863359" lon="-3.6522022"><ele>962.3333333333333</ele><time>2026-03-07T14:51:21.016Z</time></trkpt><trkpt lat="36.8864271" lon="-3.6522267"><ele>958.6666666666666</ele><time>2026-03-07T14:51:21.991Z</time></trkpt><trkpt lat="36.8865262" lon="-3.6521968"><ele>955.0</ele><time>2026-03-07T14:51:23.01Z</time></trkpt><trkpt lat="36.8866323" lon="-3.6521484"><ele>955.0</ele><time>2026-03-07T14:51:23.98Z</time></trkpt><trkpt lat="36.8867366" lon="-3.6521066"><ele>955.0</ele><time>2026-03-07T14:51:25.061Z</time></trkpt><trkpt lat="36.886842" lon="-3.6521"><ele>955.0</ele><time>2026-03-07T14:51:26.105Z</time></trkpt><trkpt lat="36.8869513" lon="-3.6521112"><ele>955.0</ele><time>2026-03-07T14:51:27.074Z</time></trkpt><trkpt lat="36.8870595" lon="-3.6521532"><ele>955.0</ele><time>2026-03-07T14:51:28.068Z</time></trkpt><trkpt lat="36.8871573" lon="-3.6522046"><ele>957.8333333333333</ele><time>2026-03-07T14:51:29.101Z</time></trkpt><trkpt lat="36.8872374" lon="-3.6522604"><ele>960.6666666666666</ele><time>2026-03-07T14:51:30.061Z</time></trkpt><trkpt lat="36.8873046" lon="-3.65231"><ele>963.5</ele><time>2026-03-07T14:51:31.058Z</time></trkpt><trkpt lat="36.8873656" lon="-3.6523543"><ele>966.3333333333333</ele><time>2026-03-07T14:51:32.09Z</time></trkpt><trkpt lat="36.887438" lon="-3.6523751"><ele>969.1666666666666</ele><time>2026-03-07T14:51:33.073Z</time></trkpt><trkpt lat="36.8875178" lon="-3.6523701"><ele>972.0</ele><time>2026-03-07T14:51:34.095Z</time></trkpt><trkpt lat="36.8875964" lon="-3.6523469"><ele>976.0</ele><time>2026-03-07T14:51:35.088Z</time></trkpt><trkpt lat="36.8877232" lon="-3.6523497"><ele>980.0</ele><time>2026-03-07T14:51:37.057Z</time></trkpt><trkpt lat="36.8877801" lon="-3.6523936"><ele>984.0</ele><time>2026-03-07T14:51:38.013Z</time></trkpt><trkpt lat="36.8878334" lon="-3.6524753"><ele>988.0</ele><time>2026-03-07T14:51:40.009Z</time></trkpt><trkpt lat="36.887811" lon="-3.6526168"><ele>992.0</ele><time>2026-03-07T14:51:41.997Z</time></trkpt><trkpt lat="36.8877999" lon="-3.652695"><ele>990.8</ele><time>2026-03-07T14:51:43.009Z</time></trkpt><trkpt lat="36.8877013" lon="-3.6527972"><ele>989.6</ele><time>2026-03-07T14:51:45.025Z</time></trkpt><trkpt lat="36.8876255" lon="-3.6528465"><ele>988.3999999999999</ele><time>2026-03-07T14:51:45.998Z</time></trkpt><trkpt lat="36.887544" lon="-3.6529134"><ele>987.1999999999999</ele><time>2026-03-07T14:51:47.005Z</time></trkpt><trkpt lat="36.8874601" lon="-3.6529998"><ele>986.0</ele><time>2026-03-07T14:51:47.999Z</time></trkpt><trkpt lat="36.8873764" lon="-3.6530835"><ele>986.0000000000001</ele><time>2026-03-07T14:51:48.992Z</time></trkpt><trkpt lat="36.8873003" lon="-3.6531445"><ele>986.0</ele><time>2026-03-07T14:51:50.004Z</time></trkpt><trkpt lat="36.8872262" lon="-3.653185"><ele>986.0</ele><time>2026-03-07T14:51:51.008Z</time></trkpt><trkpt lat="36.8871597" lon="-3.6532386"><ele>986.0</ele><time>2026-03-07T14:51:52.013Z</time></trkpt><trkpt lat="36.8871096" lon="-3.6533111"><ele>986.0000000000001</ele><time>2026-03-07T14:51:53.013Z</time></trkpt><trkpt lat="36.8870663" lon="-3.6534027"><ele>986.0</ele><time>2026-03-07T14:51:54.012Z</time></trkpt><trkpt lat="36.8870115" lon="-3.6534883"><ele>986.0</ele><time>2026-03-07T14:51:55.064Z</time></trkpt><trkpt lat="36.886946" lon="-3.6535661"><ele>985.9999999999999</ele><time>2026-03-07T14:51:56.009Z</time></trkpt><trkpt lat="36.8868955" lon="-3.6536442"><ele>985.9999999999999</ele><time>2026-03-07T14:51:57.012Z</time></trkpt><trkpt lat="36.8868435" lon="-3.6537206"><ele>986.0</ele><time>2026-03-07T14:51:58.037Z</time></trkpt><trkpt lat="36.8868178" lon="-3.6538336"><ele>986.0</ele><time>2026-03-07T14:51:59.003Z</time></trkpt><trkpt lat="36.8868" lon="-3.6539685"><ele>982.25</ele><time>2026-03-07T14:52:00.002Z</time></trkpt><trkpt lat="36.8867799" lon="-3.654103"><ele>978.5</ele><time>2026-03-07T14:52:01.02Z</time></trkpt><trkpt lat="36.8867331" lon="-3.6542348"><ele>974.75</ele><time>2026-03-07T14:52:02.005Z</time></trkpt><trkpt lat="36.8866602" lon="-3.654361"><ele>971.0</ele><time>2026-03-07T14:52:03.014Z</time></trkpt><trkpt lat="36.88657" lon="-3.6544842"><ele>971.0</ele><time>2026-03-07T14:52:03.998Z</time></trkpt><trkpt lat="36.8864794" lon="-3.6546087"><ele>971.0</ele><time>2026-03-07T14:52:04.993Z</time></trkpt><trkpt lat="36.8864019" lon="-3.6547254"><ele>971.0</ele><time>2026-03-07T14:52:06Z</time></trkpt><trkpt lat="36.8863278" lon="-3.6548274"><ele>971.0</ele><time>2026-03-07T14:52:07.009Z</time></trkpt><trkpt lat="36.8862672" lon="-3.6549166"><ele>971.0</ele><time>2026-03-07T14:52:08.032Z</time></trkpt><trkpt lat="36.8862239" lon="-3.6549893"><ele>970.9999999999999</ele><time>2026-03-07T14:52:09.006Z</time></trkpt><trkpt lat="36.8862441" lon="-3.6551489"><ele>970.9999999999999</ele><time>2026-03-07T14:52:11.006Z</time></trkpt><trkpt lat="36.8863151" lon="-3.6552415"><ele>971.0</ele><time>2026-03-07T14:52:11.997Z</time></trkpt><trkpt lat="36.8864111" lon="-3.6553425"><ele>971.0</ele><time>2026-03-07T14:52:12.993Z</time></trkpt><trkpt lat="36.8865089" lon="-3.6554421"><ele>974.4</ele><time>2026-03-07T14:52:13.99Z</time></trkpt><trkpt lat="36.8865943" lon="-3.6555278"><ele>977.8</ele><time>2026-03-07T14:52:15.006Z</time></trkpt><trkpt lat="36.8866647" lon="-3.6555944"><ele>981.1999999999999</ele><time>2026-03-07T14:52:16Z</time></trkpt><trkpt lat="36.8867431" lon="-3.6556275"><ele>984.5999999999999</ele><time>2026-03-07T14:52:17.003Z</time></trkpt><trkpt lat="36.8868374" lon="-3.6556202"><ele>988.0</ele><time>2026-03-07T14:52:18.002Z</time></trkpt><trkpt lat="36.8869326" lon="-3.6555876"><ele>987.9999999999999</ele><time>2026-03-07T14:52:18.995Z</time></trkpt><trkpt lat="36.8870125" lon="-3.6555611"><ele>988.0</ele><time>2026-03-07T14:52:20.029Z</time></trkpt><trkpt lat="36.8871207" lon="-3.6555898"><ele>988.0</ele><time>2026-03-07T14:52:22.008Z</time></trkpt><trkpt lat="36.8871575" lon="-3.6556552"><ele>988.0</ele><time>2026-03-07T14:52:23.012Z</time></trkpt><trkpt lat="36.8871665" lon="-3.6557521"><ele>987.9999999999999</ele><time>2026-03-07T14:52:23.989Z</time></trkpt><trkpt lat="36.8871417" lon="-3.6558775"><ele>988.0</ele><time>2026-03-07T14:52:25.006Z</time></trkpt><trkpt lat="36.8871057" lon="-3.6560121"><ele>985.0</ele><time>2026-03-07T14:52:25.995Z</time></trkpt><trkpt lat="36.8870777" lon="-3.6561552"><ele>982.0</ele><time>2026-03-07T14:52:26.993Z</time></trkpt><trkpt lat="36.8870625" lon="-3.6562786"><ele>979.0</ele><time>2026-03-07T14:52:27.993Z</time></trkpt><trkpt lat="36.8870814" lon="-3.6563882"><ele>976.0</ele><time>2026-03-07T14:52:28.993Z</time></trkpt><trkpt lat="36.8871247" lon="-3.6564845"><ele>973.0</ele><time>2026-03-07T14:52:30.005Z</time></trkpt><trkpt lat="36.8871956" lon="-3.6565713"><ele>973.0</ele><time>2026-03-07T14:52:31Z</time></trkpt><trkpt lat="36.8872886" lon="-3.6566572"><ele>973.0</ele><time>2026-03-07T14:52:31.998Z</time></trkpt><trkpt lat="36.887398" lon="-3.6567425"><ele>973.0</ele><time>2026-03-07T14:52:32.993Z</time></trkpt><trkpt lat="36.8875046" lon="-3.656846"><ele>973.0</ele><time>2026-03-07T14:52:33.993Z</time></trkpt><trkpt lat="36.8876086" lon="-3.6569597"><ele>974.0</ele><time>2026-03-07T14:52:34.995Z</time></trkpt><trkpt lat="36.8877092" lon="-3.6570651"><ele>975.0</ele><time>2026-03-07T14:52:35.996Z</time></trkpt><trkpt lat="36.8878003" lon="-3.6571637"><ele>976.0</ele><time>2026-03-07T14:52:37.009Z</time></trkpt><trkpt lat="36.8878828" lon="-3.6572564"><ele>977.0</ele><time>2026-03-07T14:52:37.994Z</time></trkpt><trkpt lat="36.8879598" lon="-3.6573415"><ele>977.0</ele><time>2026-03-07T14:52:38.985Z</time></trkpt><trkpt lat="36.8880381" lon="-3.6574108"><ele>977.0</ele><time>2026-03-07T14:52:40.01Z</time></trkpt><trkpt lat="36.8881343" lon="-3.6574423"><ele>977.0</ele><time>2026-03-07T14:52:41.001Z</time></trkpt><trkpt lat="36.8882392" lon="-3.6574647"><ele>977.0</ele><time>2026-03-07T14:52:41.987Z</time></trkpt><trkpt lat="36.8883411" lon="-3.6574822"><ele>977.0</ele><time>2026-03-07T14:52:43.011Z</time></trkpt><trkpt lat="36.8884196" lon="-3.6574994"><ele>978.0</ele><time>2026-03-07T14:52:43.996Z</time></trkpt><trkpt lat="36.888496" lon="-3.6575653"><ele>979.0</ele><time>2026-03-07T14:52:45.995Z</time></trkpt><trkpt lat="36.8884998" lon="-3.6577181"><ele>980.0</ele><time>2026-03-07T14:52:48.001Z</time></trkpt><trkpt lat="36.8884412" lon="-3.6578071"><ele>981.0</ele><time>2026-03-07T14:52:48.987Z</time></trkpt><trkpt lat="36.8883535" lon="-3.6578869"><ele>982.0</ele><time>2026-03-07T14:52:50.002Z</time></trkpt><trkpt lat="36.8882648" lon="-3.6579528"><ele>981.9999999999999</ele><time>2026-03-07T14:52:51.002Z</time></trkpt><trkpt lat="36.8881968" lon="-3.6580147"><ele>982.0</ele><time>2026-03-07T14:52:51.993Z</time></trkpt><trkpt lat="36.8881575" lon="-3.6580862"><ele>982.0</ele><time>2026-03-07T14:52:52.996Z</time></trkpt><trkpt lat="36.8881336" lon="-3.6581756"><ele>982.0</ele><time>2026-03-07T14:52:53.992Z</time></trkpt><trkpt lat="36.8881508" lon="-3.658283"><ele>981.9999999999999</ele><time>2026-03-07T14:52:54.985Z</time></trkpt><trkpt lat="36.8882067" lon="-3.6583993"><ele>982.0</ele><time>2026-03-07T14:52:55.996Z</time></trkpt><trkpt lat="36.8882634" lon="-3.6585008"><ele>982.0</ele><time>2026-03-07T14:52:57.002Z</time></trkpt><trkpt lat="36.8883196" lon="-3.6585928"><ele>982.0</ele><time>2026-03-07T14:52:57.995Z</time></trkpt><trkpt lat="36.8883555" lon="-3.6586611"><ele>982.0</ele><time>2026-03-07T14:52:59Z</time></trkpt><trkpt lat="36.888372" lon="-3.6587575"><ele>982.0</ele><time>2026-03-07T14:53:00.999Z</time></trkpt><trkpt lat="36.8883553" lon="-3.6589267"><ele>982.0</ele><time>2026-03-07T14:53:05.003Z</time></trkpt><trkpt lat="36.888191" lon="-3.6588676"><ele>989.0</ele><time>2026-03-07T14:53:06.988Z</time></trkpt><trkpt lat="36.8880245" lon="-3.658818"><ele>996.0</ele><time>2026-03-07T14:53:07.991Z</time></trkpt><trkpt lat="36.8877719" lon="-3.6587386"><ele>1003.0</ele><time>2026-03-07T14:53:09.015Z</time></trkpt><trkpt lat="36.8875707" lon="-3.6586529"><ele>992.6666666666666</ele><time>2026-03-07T14:53:10.014Z</time></trkpt><trkpt lat="36.8874583" lon="-3.6585944"><ele>982.3333333333333</ele><time>2026-03-07T14:53:10.992Z</time></trkpt><trkpt lat="36.8872792" lon="-3.6585437"><ele>972.0</ele><time>2026-03-07T14:53:11.997Z</time></trkpt><trkpt lat="36.887122" lon="-3.6585256"><ele>972.0</ele><time>2026-03-07T14:53:12.991Z</time></trkpt><trkpt lat="36.8869977" lon="-3.6585274"><ele>972.0</ele><time>2026-03-07T14:53:14Z</time></trkpt><trkpt lat="36.8868689" lon="-3.6585365"><ele>972.0</ele><time>2026-03-07T14:53:15.001Z</time></trkpt><trkpt lat="36.8867306" lon="-3.6585383"><ele>972.0</ele><time>2026-03-07T14:53:16.011Z</time></trkpt><trkpt lat="36.8865934" lon="-3.6585204"><ele>973.75</ele><time>2026-03-07T14:53:17.042Z</time></trkpt><trkpt lat="36.8864611" lon="-3.6584866"><ele>975.5</ele><time>2026-03-07T14:53:18.009Z</time></trkpt><trkpt lat="36.8863292" lon="-3.6584521"><ele>977.25</ele><time>2026-03-07T14:53:18.997Z</time></trkpt><trkpt lat="36.8861984" lon="-3.6584266"><ele>979.0</ele><time>2026-03-07T14:53:19.996Z</time></trkpt><trkpt lat="36.8860796" lon="-3.6584175"><ele>979.0</ele><time>2026-03-07T14:53:21.092Z</time></trkpt><trkpt lat="36.8859711" lon="-3.6584083"><ele>979.0000000000001</ele><time>2026-03-07T14:53:21.999Z</time></trkpt><trkpt lat="36.8858714" lon="-3.658433"><ele>979.0000000000001</ele><time>2026-03-07T14:53:22.996Z</time></trkpt><trkpt lat="36.8857858" lon="-3.6584918"><ele>979.0</ele><time>2026-03-07T14:53:24.01Z</time></trkpt><trkpt lat="36.8857222" lon="-3.6585785"><ele>979.0</ele><time>2026-03-07T14:53:24.995Z</time></trkpt><trkpt lat="36.8856836" lon="-3.6586973"><ele>985.75</ele><time>2026-03-07T14:53:26.004Z</time></trkpt><trkpt lat="36.8856481" lon="-3.6588359"><ele>992.5</ele><time>2026-03-07T14:53:26.986Z</time></trkpt><trkpt lat="36.8856128" lon="-3.6589922"><ele>999.25</ele><time>2026-03-07T14:53:27.999Z</time></trkpt><trkpt lat="36.885567" lon="-3.6591655"><ele>1006.0</ele><time>2026-03-07T14:53:29.003Z</time></trkpt><trkpt lat="36.8855157" lon="-3.6593486"><ele>1008.75</ele><time>2026-03-07T14:53:29.992Z</time></trkpt><trkpt lat="36.8854611" lon="-3.6595342"><ele>1011.5</ele><time>2026-03-07T14:53:30.997Z</time></trkpt><trkpt lat="36.8854136" lon="-3.6597071"><ele>1014.25</ele><time>2026-03-07T14:53:32.003Z</time></trkpt><trkpt lat="36.885369" lon="-3.6598637"><ele>1017.0</ele><time>2026-03-07T14:53:32.994Z</time></trkpt><trkpt lat="36.8853232" lon="-3.6599939"><ele>1017.0</ele><time>2026-03-07T14:53:33.997Z</time></trkpt><trkpt lat="36.8852723" lon="-3.660104"><ele>1017.0</ele><time>2026-03-07T14:53:34.996Z</time></trkpt><trkpt lat="36.885245" lon="-3.660204"><ele>1017.0</ele><time>2026-03-07T14:53:36.005Z</time></trkpt><trkpt lat="36.8852377" lon="-3.6603098"><ele>1017.0</ele><time>2026-03-07T14:53:36.998Z</time></trkpt><trkpt lat="36.8852747" lon="-3.6604043"><ele>1017.0</ele><time>2026-03-07T14:53:38.002Z</time></trkpt><trkpt lat="36.8853396" lon="-3.6604907"><ele>1013.5</ele><time>2026-03-07T14:53:39.006Z</time></trkpt><trkpt lat="36.8854229" lon="-3.6605696"><ele>1010.0</ele><time>2026-03-07T14:53:40.001Z</time></trkpt><trkpt lat="36.8855283" lon="-3.6606292"><ele>1006.5</ele><time>2026-03-07T14:53:40.994Z</time></trkpt><trkpt lat="36.8856466" lon="-3.6606835"><ele>1003.0</ele><time>2026-03-07T14:53:41.995Z</time></trkpt><trkpt lat="36.8857664" lon="-3.6607414"><ele>1003.0</ele><time>2026-03-07T14:53:43Z</time></trkpt><trkpt lat="36.8858725" lon="-3.6608157"><ele>1003.0</ele><time>2026-03-07T14:53:43.996Z</time></trkpt><trkpt lat="36.8859595" lon="-3.6609244"><ele>1003.0</ele><time>2026-03-07T14:53:45.004Z</time></trkpt><trkpt lat="36.8860317" lon="-3.6610694"><ele>1003.0</ele><time>2026-03-07T14:53:45.996Z</time></trkpt><trkpt lat="36.8861013" lon="-3.6612306"><ele>1006.8</ele><time>2026-03-07T14:53:46.993Z</time></trkpt><trkpt lat="36.8861632" lon="-3.6613815"><ele>1010.5999999999999</ele><time>2026-03-07T14:53:47.99Z</time></trkpt><trkpt lat="36.886223" lon="-3.6615009"><ele>1014.4000000000001</ele><time>2026-03-07T14:53:49.006Z</time></trkpt><trkpt lat="36.886287" lon="-3.6615887"><ele>1018.2</ele><time>2026-03-07T14:53:50.008Z</time></trkpt><trkpt lat="36.8863626" lon="-3.6616577"><ele>1022.0</ele><time>2026-03-07T14:53:51.005Z</time></trkpt><trkpt lat="36.8864305" lon="-3.6617292"><ele>1022.0000000000001</ele><time>2026-03-07T14:53:52.001Z</time></trkpt><trkpt lat="36.8864714" lon="-3.6618154"><ele>1022.0</ele><time>2026-03-07T14:53:53.02Z</time></trkpt><trkpt lat="36.88648" lon="-3.6619135"><ele>1022.0</ele><time>2026-03-07T14:53:54.006Z</time></trkpt><trkpt lat="36.8864435" lon="-3.6620247"><ele>1022.0</ele><time>2026-03-07T14:53:55.003Z</time></trkpt><trkpt lat="36.8863816" lon="-3.6621076"><ele>1022.0000000000001</ele><time>2026-03-07T14:53:56.008Z</time></trkpt><trkpt lat="36.8863602" lon="-3.6621948"><ele>1022.0</ele><time>2026-03-07T14:53:57Z</time></trkpt><trkpt lat="36.886383" lon="-3.6623034"><ele>1021.0</ele><time>2026-03-07T14:53:58.003Z</time></trkpt><trkpt lat="36.886444" lon="-3.6624154"><ele>1020.0</ele><time>2026-03-07T14:53:59Z</time></trkpt><trkpt lat="36.8865144" lon="-3.6625261"><ele>1019.0</ele><time>2026-03-07T14:54:00.001Z</time></trkpt><trkpt lat="36.8866057" lon="-3.6626169"><ele>1018.0</ele><time>2026-03-07T14:54:00.996Z</time></trkpt><trkpt lat="36.8867155" lon="-3.6626916"><ele>1022.2</ele><time>2026-03-07T14:54:01.998Z</time></trkpt><trkpt lat="36.8868322" lon="-3.6627628"><ele>1026.4</ele><time>2026-03-07T14:54:03.019Z</time></trkpt><trkpt lat="36.8869395" lon="-3.6628224"><ele>1030.6000000000001</ele><time>2026-03-07T14:54:04.013Z</time></trkpt><trkpt lat="36.8870316" lon="-3.6628684"><ele>1034.8</ele><time>2026-03-07T14:54:05.016Z</time></trkpt><trkpt lat="36.8871125" lon="-3.6629058"><ele>1039.0</ele><time>2026-03-07T14:54:05.999Z</time></trkpt><trkpt lat="36.8871822" lon="-3.6629374"><ele>1039.0</ele><time>2026-03-07T14:54:07.018Z</time></trkpt><trkpt lat="36.8872559" lon="-3.6630328"><ele>1039.0</ele><time>2026-03-07T14:54:09.001Z</time></trkpt><trkpt lat="36.8872458" lon="-3.6631174"><ele>1039.0</ele><time>2026-03-07T14:54:09.997Z</time></trkpt><trkpt lat="36.8871956" lon="-3.6632189"><ele>1039.0</ele><time>2026-03-07T14:54:11.005Z</time></trkpt><trkpt lat="36.8871015" lon="-3.6632904"><ele>1039.0</ele><time>2026-03-07T14:54:12.002Z</time></trkpt><trkpt lat="36.8869869" lon="-3.6633389"><ele>1039.0</ele><time>2026-03-07T14:54:12.997Z</time></trkpt><trkpt lat="36.8868801" lon="-3.6633891"><ele>1039.0</ele><time>2026-03-07T14:54:13.998Z</time></trkpt><trkpt lat="36.8867933" lon="-3.6634495"><ele>1039.0</ele><time>2026-03-07T14:54:14.997Z</time></trkpt><trkpt lat="36.886738" lon="-3.6635317"><ele>1039.0</ele><time>2026-03-07T14:54:15.992Z</time></trkpt><trkpt lat="36.8867154" lon="-3.663634"><ele>1039.0</ele><time>2026-03-07T14:54:17.004Z</time></trkpt><trkpt lat="36.8867211" lon="-3.6637399"><ele>1040.2</ele><time>2026-03-07T14:54:18.006Z</time></trkpt><trkpt lat="36.8867549" lon="-3.6638478"><ele>1041.4</ele><time>2026-03-07T14:54:19.006Z</time></trkpt><trkpt lat="36.8868004" lon="-3.6639632"><ele>1042.6</ele><time>2026-03-07T14:54:19.998Z</time></trkpt><trkpt lat="36.8868782" lon="-3.6640838"><ele>1043.8</ele><time>2026-03-07T14:54:20.995Z</time></trkpt><trkpt lat="36.8869798" lon="-3.6641845"><ele>1045.0</ele><time>2026-03-07T14:54:21.989Z</time></trkpt><trkpt lat="36.8870732" lon="-3.6642782"><ele>1045.0</ele><time>2026-03-07T14:54:22.998Z</time></trkpt><trkpt lat="36.8871449" lon="-3.6643698"><ele>1045.0</ele><time>2026-03-07T14:54:24.001Z</time></trkpt><trkpt lat="36.8871849" lon="-3.664491"><ele>1045.0</ele><time>2026-03-07T14:54:25.003Z</time></trkpt><trkpt lat="36.8871944" lon="-3.6646497"><ele>1045.0</ele><time>2026-03-07T14:54:25.999Z</time></trkpt><trkpt lat="36.8871779" lon="-3.6648322"><ele>1046.5</ele><time>2026-03-07T14:54:27.006Z</time></trkpt><trkpt lat="36.8871546" lon="-3.6650032"><ele>1048.0</ele><time>2026-03-07T14:54:27.992Z</time></trkpt><trkpt lat="36.8871534" lon="-3.6651905"><ele>1049.5</ele><time>2026-03-07T14:54:28.993Z</time></trkpt><trkpt lat="36.8871321" lon="-3.6653674"><ele>1051.0</ele><time>2026-03-07T14:54:30.011Z</time></trkpt><trkpt lat="36.8870886" lon="-3.6655352"><ele>1053.5</ele><time>2026-03-07T14:54:31.003Z</time></trkpt><trkpt lat="36.8870487" lon="-3.6657047"><ele>1056.0</ele><time>2026-03-07T14:54:31.999Z</time></trkpt><trkpt lat="36.8870117" lon="-3.665873"><ele>1058.5</ele><time>2026-03-07T14:54:33.015Z</time></trkpt><trkpt lat="36.886976" lon="-3.6660424"><ele>1061.0</ele><time>2026-03-07T14:54:33.995Z</time></trkpt><trkpt lat="36.886932" lon="-3.6662099"><ele>1061.25</ele><time>2026-03-07T14:54:35.002Z</time></trkpt><trkpt lat="36.886916" lon="-3.6663877"><ele>1061.5</ele><time>2026-03-07T14:54:36.001Z</time></trkpt><trkpt lat="36.8868843" lon="-3.6665521"><ele>1061.75</ele><time>2026-03-07T14:54:37.005Z</time></trkpt><trkpt lat="36.8868578" lon="-3.6667049"><ele>1062.0</ele><time>2026-03-07T14:54:38.004Z</time></trkpt><trkpt lat="36.8868483" lon="-3.666845"><ele>1061.2</ele><time>2026-03-07T14:54:39.002Z</time></trkpt><trkpt lat="36.8868652" lon="-3.6669789"><ele>1060.4</ele><time>2026-03-07T14:54:40Z</time></trkpt><trkpt lat="36.8868734" lon="-3.6671018"><ele>1059.6</ele><time>2026-03-07T14:54:41.008Z</time></trkpt><trkpt lat="36.886868" lon="-3.6672215"><ele>1058.8</ele><time>2026-03-07T14:54:41.999Z</time></trkpt><trkpt lat="36.8868212" lon="-3.667338"><ele>1058.0</ele><time>2026-03-07T14:54:43.025Z</time></trkpt><trkpt lat="36.8867498" lon="-3.6674616"><ele>1054.5</ele><time>2026-03-07T14:54:43.999Z</time></trkpt><trkpt lat="36.8866726" lon="-3.6675971"><ele>1051.0</ele><time>2026-03-07T14:54:44.986Z</time></trkpt><trkpt lat="36.8866036" lon="-3.6677468"><ele>1047.5</ele><time>2026-03-07T14:54:46.013Z</time></trkpt><trkpt lat="36.8865345" lon="-3.6679041"><ele>1044.0</ele><time>2026-03-07T14:54:47.003Z</time></trkpt><trkpt lat="36.886461" lon="-3.668067"><ele>1044.0</ele><time>2026-03-07T14:54:47.991Z</time></trkpt><trkpt lat="36.8863932" lon="-3.6682298"><ele>1044.0</ele><time>2026-03-07T14:54:49.003Z</time></trkpt><trkpt lat="36.8863503" lon="-3.6684036"><ele>1044.0</ele><time>2026-03-07T14:54:50.009Z</time></trkpt><trkpt lat="36.8863126" lon="-3.6685779"><ele>1044.0</ele><time>2026-03-07T14:54:50.992Z</time></trkpt><trkpt lat="36.8862756" lon="-3.6687531"><ele>1046.3333333333333</ele><time>2026-03-07T14:54:52.005Z</time></trkpt><trkpt lat="36.8862334" lon="-3.6689279"><ele>1048.6666666666665</ele><time>2026-03-07T14:54:53.008Z</time></trkpt><trkpt lat="36.8861944" lon="-3.6691105"><ele>1051.0</ele><time>2026-03-07T14:54:53.992Z</time></trkpt><trkpt lat="36.8861466" lon="-3.6692929"><ele>1053.0</ele><time>2026-03-07T14:54:54.999Z</time></trkpt><trkpt lat="36.8860956" lon="-3.669478"><ele>1055.0</ele><time>2026-03-07T14:54:56.014Z</time></trkpt><trkpt lat="36.8860408" lon="-3.6696653"><ele>1057.0</ele><time>2026-03-07T14:54:57.013Z</time></trkpt><trkpt lat="36.8859639" lon="-3.6698353"><ele>1055.25</ele><time>2026-03-07T14:54:58.011Z</time></trkpt><trkpt lat="36.8858926" lon="-3.6700028"><ele>1053.5</ele><time>2026-03-07T14:54:59.001Z</time></trkpt><trkpt lat="36.8858046" lon="-3.6701498"><ele>1051.75</ele><time>2026-03-07T14:55:00.006Z</time></trkpt><trkpt lat="36.8857253" lon="-3.6702966"><ele>1050.0</ele><time>2026-03-07T14:55:00.997Z</time></trkpt><trkpt lat="36.8856396" lon="-3.6704268"><ele>1050.0</ele><time>2026-03-07T14:55:02.013Z</time></trkpt><trkpt lat="36.885551" lon="-3.6705478"><ele>1050.0</ele><time>2026-03-07T14:55:02.999Z</time></trkpt><trkpt lat="36.8854754" lon="-3.6706662"><ele>1050.0</ele><time>2026-03-07T14:55:04.003Z</time></trkpt><trkpt lat="36.8854049" lon="-3.6707714"><ele>1050.0</ele><time>2026-03-07T14:55:05.014Z</time></trkpt><trkpt lat="36.8853424" lon="-3.6708613"><ele>1050.0</ele><time>2026-03-07T14:55:06.002Z</time></trkpt><trkpt lat="36.8852904" lon="-3.6709332"><ele>1050.0</ele><time>2026-03-07T14:55:06.996Z</time></trkpt><trkpt lat="36.8852505" lon="-3.6709949"><ele>1050.0</ele><time>2026-03-07T14:55:07.998Z</time></trkpt><trkpt lat="36.8851913" lon="-3.6711016"><ele>1050.0</ele><time>2026-03-07T14:55:09.993Z</time></trkpt><trkpt lat="36.885143" lon="-3.6712056"><ele>1050.0</ele><time>2026-03-07T14:55:12Z</time></trkpt><trkpt lat="36.8851509" lon="-3.6713628"><ele>1051.0</ele><time>2026-03-07T14:55:14.002Z</time></trkpt><trkpt lat="36.8851919" lon="-3.6714591"><ele>1052.0</ele><time>2026-03-07T14:55:15.01Z</time></trkpt><trkpt lat="36.8852542" lon="-3.6715668"><ele>1053.0</ele><time>2026-03-07T14:55:15.992Z</time></trkpt><trkpt lat="36.8853183" lon="-3.6716747"><ele>1054.0</ele><time>2026-03-07T14:55:17Z</time></trkpt><trkpt lat="36.8853823" lon="-3.6717817"><ele>1055.0</ele><time>2026-03-07T14:55:17.999Z</time></trkpt><trkpt lat="36.8854369" lon="-3.6719057"><ele>1057.5</ele><time>2026-03-07T14:55:18.996Z</time></trkpt><trkpt lat="36.8854968" lon="-3.6720319"><ele>1060.0</ele><time>2026-03-07T14:55:19.993Z</time></trkpt><trkpt lat="36.8855632" lon="-3.6721581"><ele>1062.5</ele><time>2026-03-07T14:55:21.024Z</time></trkpt><trkpt lat="36.8856223" lon="-3.6722861"><ele>1065.0</ele><time>2026-03-07T14:55:21.996Z</time></trkpt><trkpt lat="36.8856729" lon="-3.6723982"><ele>1065.0</ele><time>2026-03-07T14:55:22.993Z</time></trkpt><trkpt lat="36.8857234" lon="-3.672484"><ele>1065.0</ele><time>2026-03-07T14:55:24.007Z</time></trkpt><trkpt lat="36.8857825" lon="-3.6725559"><ele>1065.0</ele><time>2026-03-07T14:55:25.004Z</time></trkpt><trkpt lat="36.8858557" lon="-3.6726011"><ele>1065.0</ele><time>2026-03-07T14:55:25.993Z</time></trkpt><trkpt lat="36.8859379" lon="-3.6726113"><ele>1065.0</ele><time>2026-03-07T14:55:26.997Z</time></trkpt><trkpt lat="36.8860218" lon="-3.6725782"><ele>1065.0</ele><time>2026-03-07T14:55:28.005Z</time></trkpt><trkpt lat="36.8861036" lon="-3.6724938"><ele>1069.5</ele><time>2026-03-07T14:55:29.016Z</time></trkpt><trkpt lat="36.8861858" lon="-3.6723622"><ele>1074.0</ele><time>2026-03-07T14:55:30.017Z</time></trkpt><trkpt lat="36.886275" lon="-3.6722195"><ele>1078.5</ele><time>2026-03-07T14:55:30.998Z</time></trkpt><trkpt lat="36.8863779" lon="-3.6720964"><ele>1083.0</ele><time>2026-03-07T14:55:32.027Z</time></trkpt><trkpt lat="36.8864946" lon="-3.6719961"><ele>1085.3333333333333</ele><time>2026-03-07T14:55:33.007Z</time></trkpt><trkpt lat="36.8866352" lon="-3.671917"><ele>1087.6666666666665</ele><time>2026-03-07T14:55:34.001Z</time></trkpt><trkpt lat="36.8867852" lon="-3.671856"><ele>1090.0</ele><time>2026-03-07T14:55:35.007Z</time></trkpt><trkpt lat="36.8869242" lon="-3.671784"><ele>1090.0</ele><time>2026-03-07T14:55:36.002Z</time></trkpt><trkpt lat="36.8870506" lon="-3.6717105"><ele>1090.0</ele><time>2026-03-07T14:55:37.013Z</time></trkpt><trkpt lat="36.8871734" lon="-3.6716263"><ele>1090.0</ele><time>2026-03-07T14:55:37.996Z</time></trkpt><trkpt lat="36.8872911" lon="-3.6715183"><ele>1090.0</ele><time>2026-03-07T14:55:39.002Z</time></trkpt><trkpt lat="36.8874062" lon="-3.671411"><ele>1090.0</ele><time>2026-03-07T14:55:40.056Z</time></trkpt><trkpt lat="36.8875138" lon="-3.671298"><ele>1090.0</ele><time>2026-03-07T14:55:40.993Z</time></trkpt><trkpt lat="36.8875912" lon="-3.6711991"><ele>1090.0</ele><time>2026-03-07T14:55:42.002Z</time></trkpt><trkpt lat="36.8876476" lon="-3.6711181"><ele>1090.0</ele><time>2026-03-07T14:55:42.994Z</time></trkpt><trkpt lat="36.8876932" lon="-3.6710342"><ele>1090.0</ele><time>2026-03-07T14:55:44.01Z</time></trkpt><trkpt lat="36.8877103" lon="-3.6709331"><ele>1087.75</ele><time>2026-03-07T14:55:45.005Z</time></trkpt><trkpt lat="36.8876996" lon="-3.670813"><ele>1085.5</ele><time>2026-03-07T14:55:46.012Z</time></trkpt><trkpt lat="36.8876509" lon="-3.6706916"><ele>1083.25</ele><time>2026-03-07T14:55:47.001Z</time></trkpt><trkpt lat="36.8875702" lon="-3.6705758"><ele>1081.0</ele><time>2026-03-07T14:55:48.003Z</time></trkpt><trkpt lat="36.8874942" lon="-3.6704546"><ele>1081.0</ele><time>2026-03-07T14:55:48.998Z</time></trkpt><trkpt lat="36.8874335" lon="-3.6703237"><ele>1081.0</ele><time>2026-03-07T14:55:50.031Z</time></trkpt><trkpt lat="36.8873906" lon="-3.6701884"><ele>1081.0</ele><time>2026-03-07T14:55:51.001Z</time></trkpt><trkpt lat="36.8873837" lon="-3.6700503"><ele>1081.0</ele><time>2026-03-07T14:55:52.027Z</time></trkpt><trkpt lat="36.8874027" lon="-3.6699106"><ele>1081.8</ele><time>2026-03-07T14:55:53.003Z</time></trkpt><trkpt lat="36.8874456" lon="-3.6697706"><ele>1082.6</ele><time>2026-03-07T14:55:53.992Z</time></trkpt><trkpt lat="36.8875113" lon="-3.6696539"><ele>1083.4</ele><time>2026-03-07T14:55:55.003Z</time></trkpt><trkpt lat="36.8875946" lon="-3.6695744"><ele>1084.2</ele><time>2026-03-07T14:55:56.012Z</time></trkpt><trkpt lat="36.8876783" lon="-3.6695214"><ele>1085.0</ele><time>2026-03-07T14:55:56.999Z</time></trkpt><trkpt lat="36.8877726" lon="-3.6695114"><ele>1089.25</ele><time>2026-03-07T14:55:57.996Z</time></trkpt><trkpt lat="36.8878929" lon="-3.6695103"><ele>1093.5</ele><time>2026-03-07T14:55:58.998Z</time></trkpt><trkpt lat="36.8880277" lon="-3.6695488"><ele>1097.75</ele><time>2026-03-07T14:56:00.016Z</time></trkpt><trkpt lat="36.8881624" lon="-3.6695873"><ele>1102.0</ele><time>2026-03-07T14:56:01.002Z</time></trkpt><trkpt lat="36.8882934" lon="-3.6696097"><ele>1102.0</ele><time>2026-03-07T14:56:02Z</time></trkpt><trkpt lat="36.8884198" lon="-3.6696293"><ele>1102.0</ele><time>2026-03-07T14:56:03.001Z</time></trkpt><trkpt lat="36.8885416" lon="-3.6696469"><ele>1102.0</ele><time>2026-03-07T14:56:03.998Z</time></trkpt><trkpt lat="36.8886723" lon="-3.6696702"><ele>1102.0</ele><time>2026-03-07T14:56:04.997Z</time></trkpt><trkpt lat="36.8888047" lon="-3.6697132"><ele>1102.75</ele><time>2026-03-07T14:56:06.014Z</time></trkpt><trkpt lat="36.8889401" lon="-3.6697782"><ele>1103.5</ele><time>2026-03-07T14:56:07.007Z</time></trkpt><trkpt lat="36.8890792" lon="-3.6698457"><ele>1104.25</ele><time>2026-03-07T14:56:07.985Z</time></trkpt><trkpt lat="36.8892146" lon="-3.6699176"><ele>1105.0</ele><time>2026-03-07T14:56:09.006Z</time></trkpt><trkpt lat="36.8893434" lon="-3.6700074"><ele>1106.0</ele><time>2026-03-07T14:56:10Z</time></trkpt><trkpt lat="36.8894684" lon="-3.6701139"><ele>1107.0</ele><time>2026-03-07T14:56:10.991Z</time></trkpt><trkpt lat="36.8895908" lon="-3.6702357"><ele>1108.0</ele><time>2026-03-07T14:56:12.002Z</time></trkpt><trkpt lat="36.8897118" lon="-3.6703797"><ele>1111.3333333333333</ele><time>2026-03-07T14:56:13.048Z</time></trkpt><trkpt lat="36.8898365" lon="-3.6705276"><ele>1114.6666666666667</ele><time>2026-03-07T14:56:13.995Z</time></trkpt><trkpt lat="36.8899533" lon="-3.6706704"><ele>1118.0</ele><time>2026-03-07T14:56:15.002Z</time></trkpt><trkpt lat="36.8900623" lon="-3.6708043"><ele>1117.75</ele><time>2026-03-07T14:56:16.009Z</time></trkpt><trkpt lat="36.8901678" lon="-3.6709369"><ele>1117.5</ele><time>2026-03-07T14:56:17.004Z</time></trkpt><trkpt lat="36.89026" lon="-3.6710647"><ele>1117.25</ele><time>2026-03-07T14:56:18.008Z</time></trkpt><trkpt lat="36.8903398" lon="-3.6711652"><ele>1117.0</ele><time>2026-03-07T14:56:19.003Z</time></trkpt><trkpt lat="36.890398" lon="-3.6712409"><ele>1117.0</ele><time>2026-03-07T14:56:19.997Z</time></trkpt><trkpt lat="36.8904642" lon="-3.6713368"><ele>1117.0</ele><time>2026-03-07T14:56:21.997Z</time></trkpt><trkpt lat="36.8905839" lon="-3.6713521"><ele>1117.0</ele><time>2026-03-07T14:56:24.005Z</time></trkpt><trkpt lat="36.890659" lon="-3.6713126"><ele>1117.0</ele><time>2026-03-07T14:56:24.994Z</time></trkpt><trkpt lat="36.890736" lon="-3.6712542"><ele>1117.0</ele><time>2026-03-07T14:56:26.009Z</time></trkpt><trkpt lat="36.8908039" lon="-3.6712018"><ele>1117.0</ele><time>2026-03-07T14:56:27.005Z</time></trkpt><trkpt lat="36.8908535" lon="-3.6711396"><ele>1117.0</ele><time>2026-03-07T14:56:27.997Z</time></trkpt><trkpt lat="36.890908" lon="-3.6710551"><ele>1117.0</ele><time>2026-03-07T14:56:28.989Z</time></trkpt><trkpt lat="36.8909389" lon="-3.6709209"><ele>1117.0</ele><time>2026-03-07T14:56:30.002Z</time></trkpt><trkpt lat="36.8909758" lon="-3.6707721"><ele>1117.0</ele><time>2026-03-07T14:56:30.992Z</time></trkpt><trkpt lat="36.8910099" lon="-3.6706211"><ele>1116.5</ele><time>2026-03-07T14:56:31.995Z</time></trkpt><trkpt lat="36.8910468" lon="-3.6704746"><ele>1116.0</ele><time>2026-03-07T14:56:33.004Z</time></trkpt><trkpt lat="36.8910858" lon="-3.6703319"><ele>1115.5</ele><time>2026-03-07T14:56:34.014Z</time></trkpt><trkpt lat="36.8911228" lon="-3.6701793"><ele>1115.0</ele><time>2026-03-07T14:56:35.005Z</time></trkpt><trkpt lat="36.8911651" lon="-3.6700195"><ele>1115.0</ele><time>2026-03-07T14:56:36.012Z</time></trkpt><trkpt lat="36.891214" lon="-3.669862"><ele>1115.0</ele><time>2026-03-07T14:56:37.004Z</time></trkpt><trkpt lat="36.8912665" lon="-3.6697134"><ele>1115.0</ele><time>2026-03-07T14:56:38.01Z</time></trkpt><trkpt lat="36.8913166" lon="-3.6695738"><ele>1115.0</ele><time>2026-03-07T14:56:38.993Z</time></trkpt><trkpt lat="36.8913664" lon="-3.6694464"><ele>1116.5</ele><time>2026-03-07T14:56:40.001Z</time></trkpt><trkpt lat="36.8913967" lon="-3.6693268"><ele>1118.0</ele><time>2026-03-07T14:56:40.998Z</time></trkpt><trkpt lat="36.8914073" lon="-3.6692225"><ele>1119.5</ele><time>2026-03-07T14:56:41.99Z</time></trkpt><trkpt lat="36.8914054" lon="-3.6691303"><ele>1121.0</ele><time>2026-03-07T14:56:42.998Z</time></trkpt><trkpt lat="36.8913664" lon="-3.6690487"><ele>1122.5</ele><time>2026-03-07T14:56:43.994Z</time></trkpt><trkpt lat="36.8913177" lon="-3.6689632"><ele>1124.0</ele><time>2026-03-07T14:56:44.991Z</time></trkpt><trkpt lat="36.8912571" lon="-3.6688765"><ele>1124.0</ele><time>2026-03-07T14:56:45.993Z</time></trkpt><trkpt lat="36.8912118" lon="-3.6687829"><ele>1124.0</ele><time>2026-03-07T14:56:47.012Z</time></trkpt><trkpt lat="36.8911743" lon="-3.668678"><ele>1124.0</ele><time>2026-03-07T14:56:48.008Z</time></trkpt><trkpt lat="36.8911624" lon="-3.6685556"><ele>1124.0</ele><time>2026-03-07T14:56:49.002Z</time></trkpt><trkpt lat="36.8911333" lon="-3.6684372"><ele>1124.0</ele><time>2026-03-07T14:56:49.993Z</time></trkpt><trkpt lat="36.8911078" lon="-3.6683188"><ele>1127.2</ele><time>2026-03-07T14:56:51.042Z</time></trkpt><trkpt lat="36.8910705" lon="-3.6682011"><ele>1130.4</ele><time>2026-03-07T14:56:52.014Z</time></trkpt><trkpt lat="36.8910797" lon="-3.6680785"><ele>1133.6</ele><time>2026-03-07T14:56:53.012Z</time></trkpt><trkpt lat="36.8911313" lon="-3.6679603"><ele>1136.8</ele><time>2026-03-07T14:56:54.022Z</time></trkpt><trkpt lat="36.8912101" lon="-3.6678419"><ele>1140.0</ele><time>2026-03-07T14:56:55.003Z</time></trkpt><trkpt lat="36.8912887" lon="-3.6677332"><ele>1141.6</ele><time>2026-03-07T14:56:56.004Z</time></trkpt><trkpt lat="36.891362" lon="-3.6676363"><ele>1143.2</ele><time>2026-03-07T14:56:57.013Z</time></trkpt><trkpt lat="36.8914299" lon="-3.6675569"><ele>1144.8</ele><time>2026-03-07T14:56:58.003Z</time></trkpt><trkpt lat="36.8915092" lon="-3.6674876"><ele>1146.4</ele><time>2026-03-07T14:56:59.012Z</time></trkpt><trkpt lat="36.8915977" lon="-3.6674266"><ele>1148.0</ele><time>2026-03-07T14:57:00.011Z</time></trkpt><trkpt lat="36.8916905" lon="-3.6673645"><ele>1145.6</ele><time>2026-03-07T14:57:01.003Z</time></trkpt><trkpt lat="36.891786" lon="-3.6673093"><ele>1143.1999999999998</ele><time>2026-03-07T14:57:01.996Z</time></trkpt><trkpt lat="36.891881" lon="-3.6672485"><ele>1140.8</ele><time>2026-03-07T14:57:02.996Z</time></trkpt><trkpt lat="36.8919672" lon="-3.6671804"><ele>1138.3999999999999</ele><time>2026-03-07T14:57:04.003Z</time></trkpt><trkpt lat="36.8920484" lon="-3.6671367"><ele>1136.0</ele><time>2026-03-07T14:57:04.984Z</time></trkpt><trkpt lat="36.8920996" lon="-3.6670783"><ele>1136.0</ele><time>2026-03-07T14:57:05.998Z</time></trkpt><trkpt lat="36.892144" lon="-3.6670105"><ele>1136.0</ele><time>2026-03-07T14:57:07.005Z</time></trkpt><trkpt lat="36.8921705" lon="-3.6669237"><ele>1136.0</ele><time>2026-03-07T14:57:07.995Z</time></trkpt><trkpt lat="36.8921744" lon="-3.6668224"><ele>1136.0</ele><time>2026-03-07T14:57:09.003Z</time></trkpt><trkpt lat="36.8921561" lon="-3.6667092"><ele>1136.0</ele><time>2026-03-07T14:57:09.998Z</time></trkpt><trkpt lat="36.892128" lon="-3.6665855"><ele>1136.0</ele><time>2026-03-07T14:57:11Z</time></trkpt><trkpt lat="36.8920918" lon="-3.6664608"><ele>1139.3333333333335</ele><time>2026-03-07T14:57:11.985Z</time></trkpt><trkpt lat="36.8920665" lon="-3.6663458"><ele>1142.6666666666667</ele><time>2026-03-07T14:57:13.004Z</time></trkpt><trkpt lat="36.8920734" lon="-3.6662482"><ele>1146.0</ele><time>2026-03-07T14:57:13.998Z</time></trkpt><trkpt lat="36.8920861" lon="-3.6661581"><ele>1149.3333333333333</ele><time>2026-03-07T14:57:15.003Z</time></trkpt><trkpt lat="36.8921288" lon="-3.6660795"><ele>1152.6666666666665</ele><time>2026-03-07T14:57:16.015Z</time></trkpt><trkpt lat="36.8921904" lon="-3.6660131"><ele>1156.0</ele><time>2026-03-07T14:57:17.005Z</time></trkpt><trkpt lat="36.8922657" lon="-3.6659707"><ele>1156.3333333333333</ele><time>2026-03-07T14:57:17.991Z</time></trkpt><trkpt lat="36.8923388" lon="-3.6659432"><ele>1156.6666666666665</ele><time>2026-03-07T14:57:18.995Z</time></trkpt><trkpt lat="36.8924146" lon="-3.6659348"><ele>1157.0</ele><time>2026-03-07T14:57:20.014Z</time></trkpt><trkpt lat="36.8924942" lon="-3.6659297"><ele>1157.3333333333333</ele><time>2026-03-07T14:57:21.002Z</time></trkpt><trkpt lat="36.8925799" lon="-3.6659128"><ele>1157.6666666666667</ele><time>2026-03-07T14:57:21.993Z</time></trkpt><trkpt lat="36.8926662" lon="-3.6658812"><ele>1158.0</ele><time>2026-03-07T14:57:23.001Z</time></trkpt><trkpt lat="36.8927506" lon="-3.6658414"><ele>1158.0</ele><time>2026-03-07T14:57:24.007Z</time></trkpt><trkpt lat="36.892826" lon="-3.6657927"><ele>1158.0</ele><time>2026-03-07T14:57:25.001Z</time></trkpt><trkpt lat="36.8928914" lon="-3.6657396"><ele>1158.0</ele><time>2026-03-07T14:57:26.008Z</time></trkpt><trkpt lat="36.8929389" lon="-3.6656612"><ele>1158.0</ele><time>2026-03-07T14:57:26.998Z</time></trkpt><trkpt lat="36.8929818" lon="-3.6655653"><ele>1158.0</ele><time>2026-03-07T14:57:28.006Z</time></trkpt><trkpt lat="36.8930253" lon="-3.6654586"><ele>1158.0</ele><time>2026-03-07T14:57:28.996Z</time></trkpt><trkpt lat="36.8930855" lon="-3.6653509"><ele>1156.75</ele><time>2026-03-07T14:57:30.008Z</time></trkpt><trkpt lat="36.8931603" lon="-3.6652467"><ele>1155.5</ele><time>2026-03-07T14:57:31Z</time></trkpt><trkpt lat="36.8932514" lon="-3.66515"><ele>1154.25</ele><time>2026-03-07T14:57:32.011Z</time></trkpt><trkpt lat="36.8933453" lon="-3.6650521"><ele>1153.0</ele><time>2026-03-07T14:57:33.004Z</time></trkpt><trkpt lat="36.8934309" lon="-3.6649591"><ele>1153.0</ele><time>2026-03-07T14:57:34.012Z</time></trkpt><trkpt lat="36.8935072" lon="-3.664881"><ele>1153.0</ele><time>2026-03-07T14:57:35.005Z</time></trkpt><trkpt lat="36.8935768" lon="-3.6648223"><ele>1153.0</ele><time>2026-03-07T14:57:36.003Z</time></trkpt><trkpt lat="36.8936443" lon="-3.66479"><ele>1153.0</ele><time>2026-03-07T14:57:37.006Z</time></trkpt><trkpt lat="36.893743" lon="-3.6647402"><ele>1153.0</ele><time>2026-03-07T14:57:39Z</time></trkpt><trkpt lat="36.8937411" lon="-3.6646366"><ele>1153.0</ele><time>2026-03-07T14:57:40.994Z</time></trkpt><trkpt lat="36.8936835" lon="-3.6645393"><ele>1152.8</ele><time>2026-03-07T14:57:42.014Z</time></trkpt><trkpt lat="36.8936259" lon="-3.664418"><ele>1152.6</ele><time>2026-03-07T14:57:42.996Z</time></trkpt><trkpt lat="36.893572" lon="-3.6642915"><ele>1152.4</ele><time>2026-03-07T14:57:44.014Z</time></trkpt><trkpt lat="36.8935388" lon="-3.6641671"><ele>1152.2</ele><time>2026-03-07T14:57:44.996Z</time></trkpt><trkpt lat="36.8935111" lon="-3.6640553"><ele>1152.0</ele><time>2026-03-07T14:57:46.002Z</time></trkpt><trkpt lat="36.8934905" lon="-3.6639537"><ele>1152.0</ele><time>2026-03-07T14:57:47.004Z</time></trkpt><trkpt lat="36.8934904" lon="-3.6638634"><ele>1152.0</ele><time>2026-03-07T14:57:48.005Z</time></trkpt><trkpt lat="36.8934986" lon="-3.6637731"><ele>1152.0</ele><time>2026-03-07T14:57:49.003Z</time></trkpt><trkpt lat="36.8935438" lon="-3.6636922"><ele>1152.0</ele><time>2026-03-07T14:57:50.003Z</time></trkpt><trkpt lat="36.8936165" lon="-3.6636216"><ele>1152.0</ele><time>2026-03-07T14:57:51.027Z</time></trkpt><trkpt lat="36.8937014" lon="-3.6635539"><ele>1152.0</ele><time>2026-03-07T14:57:52Z</time></trkpt><trkpt lat="36.8937978" lon="-3.6634921"><ele>1155.0</ele><time>2026-03-07T14:57:52.989Z</time></trkpt><trkpt lat="36.8938963" lon="-3.6634452"><ele>1158.0</ele><time>2026-03-07T14:57:54.005Z</time></trkpt><trkpt lat="36.8939879" lon="-3.6634054"><ele>1161.0</ele><time>2026-03-07T14:57:55.003Z</time></trkpt><trkpt lat="36.8940755" lon="-3.6633723"><ele>1164.0</ele><time>2026-03-07T14:57:56.003Z</time></trkpt><trkpt lat="36.8941594" lon="-3.663338"><ele>1167.0</ele><time>2026-03-07T14:57:56.997Z</time></trkpt><trkpt lat="36.894233" lon="-3.6632932"><ele>1163.1666666666667</ele><time>2026-03-07T14:57:58.006Z</time></trkpt><trkpt lat="36.8942959" lon="-3.6632378"><ele>1159.3333333333333</ele><time>2026-03-07T14:57:59.003Z</time></trkpt><trkpt lat="36.8943505" lon="-3.6631664"><ele>1155.5</ele><time>2026-03-07T14:57:59.995Z</time></trkpt><trkpt lat="36.8944014" lon="-3.6630793"><ele>1151.6666666666665</ele><time>2026-03-07T14:58:01.007Z</time></trkpt><trkpt lat="36.8944405" lon="-3.6629787"><ele>1147.8333333333333</ele><time>2026-03-07T14:58:02Z</time></trkpt><trkpt lat="36.8944834" lon="-3.6628877"><ele>1144.0</ele><time>2026-03-07T14:58:03.026Z</time></trkpt><trkpt lat="36.8945355" lon="-3.6628139"><ele>1147.8</ele><time>2026-03-07T14:58:04.002Z</time></trkpt><trkpt lat="36.8946062" lon="-3.6627554"><ele>1151.6000000000001</ele><time>2026-03-07T14:58:04.998Z</time></trkpt><trkpt lat="36.8946919" lon="-3.662699"><ele>1155.4</ele><time>2026-03-07T14:58:06.019Z</time></trkpt><trkpt lat="36.8947823" lon="-3.6626452"><ele>1159.2</ele><time>2026-03-07T14:58:06.994Z</time></trkpt><trkpt lat="36.8948701" lon="-3.6625872"><ele>1163.0</ele><time>2026-03-07T14:58:07.998Z</time></trkpt><trkpt lat="36.8949514" lon="-3.6625287"><ele>1163.0</ele><time>2026-03-07T14:58:08.99Z</time></trkpt><trkpt lat="36.8950239" lon="-3.6624587"><ele>1163.0</ele><time>2026-03-07T14:58:09.991Z</time></trkpt><trkpt lat="36.8950803" lon="-3.6623732"><ele>1163.0</ele><time>2026-03-07T14:58:11.002Z</time></trkpt><trkpt lat="36.8951277" lon="-3.6622746"><ele>1163.0</ele><time>2026-03-07T14:58:12.009Z</time></trkpt><trkpt lat="36.8951683" lon="-3.6621638"><ele>1163.0</ele><time>2026-03-07T14:58:13.008Z</time></trkpt><trkpt lat="36.895215" lon="-3.6620526"><ele>1162.5</ele><time>2026-03-07T14:58:13.997Z</time></trkpt><trkpt lat="36.895275" lon="-3.6619585"><ele>1162.0</ele><time>2026-03-07T14:58:15.001Z</time></trkpt><trkpt lat="36.8953419" lon="-3.6618777"><ele>1161.5</ele><time>2026-03-07T14:58:16.003Z</time></trkpt><trkpt lat="36.8954048" lon="-3.6618082"><ele>1161.0</ele><time>2026-03-07T14:58:17.005Z</time></trkpt><trkpt lat="36.8954537" lon="-3.6617424"><ele>1160.5</ele><time>2026-03-07T14:58:17.999Z</time></trkpt><trkpt lat="36.8954648" lon="-3.6616578"><ele>1160.0</ele><time>2026-03-07T14:58:18.991Z</time></trkpt><trkpt lat="36.8954533" lon="-3.6615539"><ele>1162.6666666666667</ele><time>2026-03-07T14:58:20.005Z</time></trkpt><trkpt lat="36.8954484" lon="-3.6614609"><ele>1165.3333333333335</ele><time>2026-03-07T14:58:21.009Z</time></trkpt><trkpt lat="36.8955045" lon="-3.6613607"><ele>1168.0</ele><time>2026-03-07T14:58:23.001Z</time></trkpt><trkpt lat="36.8955677" lon="-3.6613483"><ele>1170.6666666666667</ele><time>2026-03-07T14:58:24.006Z</time></trkpt><trkpt lat="36.8956509" lon="-3.6613528"><ele>1173.3333333333333</ele><time>2026-03-07T14:58:24.998Z</time></trkpt><trkpt lat="36.8957443" lon="-3.6613589"><ele>1176.0</ele><time>2026-03-07T14:58:25.999Z</time></trkpt><trkpt lat="36.8958458" lon="-3.6613708"><ele>1176.8333333333333</ele><time>2026-03-07T14:58:27.008Z</time></trkpt><trkpt lat="36.8959454" lon="-3.6613785"><ele>1177.6666666666667</ele><time>2026-03-07T14:58:28.001Z</time></trkpt><trkpt lat="36.8960345" lon="-3.6613806"><ele>1178.5</ele><time>2026-03-07T14:58:28.981Z</time></trkpt><trkpt lat="36.8961109" lon="-3.6613634"><ele>1179.3333333333335</ele><time>2026-03-07T14:58:30.006Z</time></trkpt><trkpt lat="36.8961792" lon="-3.6613358"><ele>1180.1666666666667</ele><time>2026-03-07T14:58:30.997Z</time></trkpt><trkpt lat="36.896235" lon="-3.661276"><ele>1181.0</ele><time>2026-03-07T14:58:32Z</time></trkpt><trkpt lat="36.8962889" lon="-3.6611993"><ele>1183.0</ele><time>2026-03-07T14:58:32.996Z</time></trkpt><trkpt lat="36.8963309" lon="-3.6611153"><ele>1185.0</ele><time>2026-03-07T14:58:34.005Z</time></trkpt><trkpt lat="36.8963597" lon="-3.6610197"><ele>1187.0</ele><time>2026-03-07T14:58:35.013Z</time></trkpt><trkpt lat="36.896371" lon="-3.6609117"><ele>1189.0</ele><time>2026-03-07T14:58:35.99Z</time></trkpt><trkpt lat="36.8963824" lon="-3.6608025"><ele>1191.0</ele><time>2026-03-07T14:58:37.004Z</time></trkpt><trkpt lat="36.8964101" lon="-3.6607057"><ele>1193.0</ele><time>2026-03-07T14:58:38Z</time></trkpt><trkpt lat="36.8964464" lon="-3.6606265"><ele>1193.0</ele><time>2026-03-07T14:58:38.994Z</time></trkpt><trkpt lat="36.8965434" lon="-3.6605604"><ele>1193.0</ele><time>2026-03-07T14:58:41.01Z</time></trkpt><trkpt lat="36.8966119" lon="-3.6605912"><ele>1193.0</ele><time>2026-03-07T14:58:41.993Z</time></trkpt><trkpt lat="36.8966931" lon="-3.6606335"><ele>1193.0</ele><time>2026-03-07T14:58:43.009Z</time></trkpt><trkpt lat="36.89678" lon="-3.660679"><ele>1193.0</ele><time>2026-03-07T14:58:44.004Z</time></trkpt><trkpt lat="36.896879" lon="-3.6607243"><ele>1194.6</ele><time>2026-03-07T14:58:44.997Z</time></trkpt><trkpt lat="36.8969804" lon="-3.6607537"><ele>1196.1999999999998</ele><time>2026-03-07T14:58:46.005Z</time></trkpt><trkpt lat="36.8970875" lon="-3.6607555"><ele>1197.8</ele><time>2026-03-07T14:58:47.002Z</time></trkpt><trkpt lat="36.8971929" lon="-3.6607372"><ele>1199.3999999999999</ele><time>2026-03-07T14:58:48.003Z</time></trkpt><trkpt lat="36.8972946" lon="-3.6607212"><ele>1201.0</ele><time>2026-03-07T14:58:49.004Z</time></trkpt><trkpt lat="36.8973907" lon="-3.6607229"><ele>1201.0</ele><time>2026-03-07T14:58:50.062Z</time></trkpt><trkpt lat="36.8974715" lon="-3.660724"><ele>1201.0</ele><time>2026-03-07T14:58:51.002Z</time></trkpt><trkpt lat="36.8975769" lon="-3.6607385"><ele>1201.0</ele><time>2026-03-07T14:58:53.007Z</time></trkpt><trkpt lat="36.8976368" lon="-3.6608459"><ele>1201.0</ele><time>2026-03-07T14:58:55.003Z</time></trkpt><trkpt lat="36.8976553" lon="-3.660942"><ele>1201.0</ele><time>2026-03-07T14:58:56.008Z</time></trkpt><trkpt lat="36.8976837" lon="-3.6610487"><ele>1200.2</ele><time>2026-03-07T14:58:57.007Z</time></trkpt><trkpt lat="36.8977369" lon="-3.6611349"><ele>1199.3999999999999</ele><time>2026-03-07T14:58:57.998Z</time></trkpt><trkpt lat="36.8978212" lon="-3.6612007"><ele>1198.6</ele><time>2026-03-07T14:58:59.004Z</time></trkpt><trkpt lat="36.8979072" lon="-3.6612523"><ele>1197.8</ele><time>2026-03-07T14:59:00.006Z</time></trkpt><trkpt lat="36.8979949" lon="-3.6612881"><ele>1197.0</ele><time>2026-03-07T14:59:01.006Z</time></trkpt><trkpt lat="36.8980799" lon="-3.6613091"><ele>1197.0</ele><time>2026-03-07T14:59:02.029Z</time></trkpt><trkpt lat="36.898161" lon="-3.6613195"><ele>1197.0</ele><time>2026-03-07T14:59:03.012Z</time></trkpt><trkpt lat="36.898232" lon="-3.6613326"><ele>1197.0</ele><time>2026-03-07T14:59:03.999Z</time></trkpt><trkpt lat="36.8982918" lon="-3.6613591"><ele>1197.0</ele><time>2026-03-07T14:59:04.999Z</time></trkpt><trkpt lat="36.8983505" lon="-3.6613899"><ele>1197.0</ele><time>2026-03-07T14:59:06.004Z</time></trkpt><trkpt lat="36.8984098" lon="-3.6614289"><ele>1197.0</ele><time>2026-03-07T14:59:07.01Z</time></trkpt><trkpt lat="36.8984602" lon="-3.6614767"><ele>1197.0</ele><time>2026-03-07T14:59:08.002Z</time></trkpt><trkpt lat="36.8985487" lon="-3.6615764"><ele>1195.4</ele><time>2026-03-07T14:59:10.004Z</time></trkpt><trkpt lat="36.8986558" lon="-3.6616036"><ele>1193.8000000000002</ele><time>2026-03-07T14:59:11.993Z</time></trkpt><trkpt lat="36.8987489" lon="-3.6615381"><ele>1192.2</ele><time>2026-03-07T14:59:14.003Z</time></trkpt><trkpt lat="36.8988243" lon="-3.6614272"><ele>1190.6000000000001</ele><time>2026-03-07T14:59:16.002Z</time></trkpt><trkpt lat="36.8989269" lon="-3.661388"><ele>1189.0</ele><time>2026-03-07T14:59:18.014Z</time></trkpt><trkpt lat="36.8990394" lon="-3.6613376"><ele>1189.0</ele><time>2026-03-07T14:59:20.001Z</time></trkpt><trkpt lat="36.8991028" lon="-3.6613037"><ele>1189.0</ele><time>2026-03-07T14:59:21.007Z</time></trkpt><trkpt lat="36.8991724" lon="-3.6612706"><ele>1189.0</ele><time>2026-03-07T14:59:22.042Z</time></trkpt><trkpt lat="36.8992446" lon="-3.6612393"><ele>1189.0</ele><time>2026-03-07T14:59:22.998Z</time></trkpt><trkpt lat="36.8993167" lon="-3.6612123"><ele>1189.0</ele><time>2026-03-07T14:59:24.002Z</time></trkpt><trkpt lat="36.8993902" lon="-3.6611971"><ele>1189.0</ele><time>2026-03-07T14:59:25.007Z</time></trkpt><trkpt lat="36.8994721" lon="-3.6611996"><ele>1186.8333333333333</ele><time>2026-03-07T14:59:26.001Z</time></trkpt><trkpt lat="36.8995564" lon="-3.6612158"><ele>1184.6666666666665</ele><time>2026-03-07T14:59:27.004Z</time></trkpt><trkpt lat="36.8996348" lon="-3.661227"><ele>1182.5</ele><time>2026-03-07T14:59:28.001Z</time></trkpt><trkpt lat="36.8997091" lon="-3.6612326"><ele>1180.3333333333333</ele><time>2026-03-07T14:59:29.014Z</time></trkpt><trkpt lat="36.8997934" lon="-3.661226"><ele>1178.1666666666667</ele><time>2026-03-07T14:59:29.998Z</time></trkpt><trkpt lat="36.8998774" lon="-3.6612169"><ele>1176.0</ele><time>2026-03-07T14:59:31.005Z</time></trkpt><trkpt lat="36.8999678" lon="-3.6612013"><ele>1176.0</ele><time>2026-03-07T14:59:32.011Z</time></trkpt><trkpt lat="36.9000517" lon="-3.6611641"><ele>1176.0</ele><time>2026-03-07T14:59:33.007Z</time></trkpt><trkpt lat="36.900128" lon="-3.6611136"><ele>1176.0</ele><time>2026-03-07T14:59:34.01Z</time></trkpt><trkpt lat="36.9001953" lon="-3.6610706"><ele>1176.0</ele><time>2026-03-07T14:59:34.997Z</time></trkpt><trkpt lat="36.9003041" lon="-3.6610379"><ele>1176.0</ele><time>2026-03-07T14:59:37.009Z</time></trkpt><trkpt lat="36.9004092" lon="-3.6611278"><ele>1174.0</ele><time>2026-03-07T14:59:38.998Z</time></trkpt><trkpt lat="36.9004687" lon="-3.6611923"><ele>1172.0</ele><time>2026-03-07T14:59:40.01Z</time></trkpt><trkpt lat="36.9005476" lon="-3.6612617"><ele>1170.0</ele><time>2026-03-07T14:59:41.012Z</time></trkpt><trkpt lat="36.9006324" lon="-3.6613292"><ele>1168.0</ele><time>2026-03-07T14:59:42.006Z</time></trkpt><trkpt lat="36.9007127" lon="-3.6613932"><ele>1166.0</ele><time>2026-03-07T14:59:43.007Z</time></trkpt><trkpt lat="36.9007815" lon="-3.6614486"><ele>1166.0</ele><time>2026-03-07T14:59:43.998Z</time></trkpt><trkpt lat="36.9008513" lon="-3.6615047"><ele>1166.0</ele><time>2026-03-07T14:59:45.005Z</time></trkpt><trkpt lat="36.9009121" lon="-3.6615426"><ele>1166.0</ele><time>2026-03-07T14:59:46.004Z</time></trkpt><trkpt lat="36.9010312" lon="-3.6615472"><ele>1166.0</ele><time>2026-03-07T14:59:48.003Z</time></trkpt><trkpt lat="36.9011004" lon="-3.6615036"><ele>1166.0</ele><time>2026-03-07T14:59:49.001Z</time></trkpt><trkpt lat="36.9011793" lon="-3.6614413"><ele>1166.0</ele><time>2026-03-07T14:59:50.001Z</time></trkpt><trkpt lat="36.9012581" lon="-3.6613752"><ele>1166.3999999999999</ele><time>2026-03-07T14:59:51.008Z</time></trkpt><trkpt lat="36.9013357" lon="-3.6613101"><ele>1166.8</ele><time>2026-03-07T14:59:52.015Z</time></trkpt><trkpt lat="36.9013994" lon="-3.6612499"><ele>1167.1999999999998</ele><time>2026-03-07T14:59:53.007Z</time></trkpt><trkpt lat="36.9014503" lon="-3.6612034"><ele>1167.6</ele><time>2026-03-07T14:59:53.999Z</time></trkpt><trkpt lat="36.9015052" lon="-3.6611009"><ele>1168.0</ele><time>2026-03-07T14:59:56.01Z</time></trkpt><trkpt lat="36.9015061" lon="-3.660936"><ele>1166.4285714285713</ele><time>2026-03-07T14:59:58.004Z</time></trkpt><trkpt lat="36.9015103" lon="-3.6608354"><ele>1164.857142857143</ele><time>2026-03-07T14:59:59.006Z</time></trkpt><trkpt lat="36.9015287" lon="-3.660741"><ele>1163.2857142857142</ele><time>2026-03-07T15:00:00.033Z</time></trkpt><trkpt lat="36.9015485" lon="-3.660652"><ele>1161.7142857142858</ele><time>2026-03-07T15:00:01.01Z</time></trkpt><trkpt lat="36.9015672" lon="-3.6605652"><ele>1160.142857142857</ele><time>2026-03-07T15:00:02Z</time></trkpt><trkpt lat="36.9015871" lon="-3.6604855"><ele>1158.5714285714284</ele><time>2026-03-07T15:00:03.004Z</time></trkpt><trkpt lat="36.9016085" lon="-3.66041"><ele>1157.0</ele><time>2026-03-07T15:00:04.004Z</time></trkpt><trkpt lat="36.901653" lon="-3.6602704"><ele>1156.0</ele><time>2026-03-07T15:00:06.006Z</time></trkpt><trkpt lat="36.9017193" lon="-3.6601698"><ele>1155.0</ele><time>2026-03-07T15:00:08.007Z</time></trkpt><trkpt lat="36.9017877" lon="-3.6601335"><ele>1154.0</ele><time>2026-03-07T15:00:09.004Z</time></trkpt><trkpt lat="36.9018708" lon="-3.6600976"><ele>1153.0</ele><time>2026-03-07T15:00:09.999Z</time></trkpt><trkpt lat="36.9019604" lon="-3.6600493"><ele>1152.0</ele><time>2026-03-07T15:00:11.004Z</time></trkpt><trkpt lat="36.9020453" lon="-3.659996"><ele>1152.0</ele><time>2026-03-07T15:00:12.003Z</time></trkpt><trkpt lat="36.9021325" lon="-3.659953"><ele>1152.0</ele><time>2026-03-07T15:00:12.999Z</time></trkpt><trkpt lat="36.9022081" lon="-3.6599172"><ele>1152.0</ele><time>2026-03-07T15:00:14.02Z</time></trkpt><trkpt lat="36.902283" lon="-3.6598757"><ele>1152.0</ele><time>2026-03-07T15:00:15.01Z</time></trkpt><trkpt lat="36.902353" lon="-3.6598253"><ele>1152.0</ele><time>2026-03-07T15:00:16.005Z</time></trkpt><trkpt lat="36.9024012" lon="-3.6597269"><ele>1152.0</ele><time>2026-03-07T15:00:17.005Z</time></trkpt><trkpt lat="36.9024414" lon="-3.6596"><ele>1152.0</ele><time>2026-03-07T15:00:18.017Z</time></trkpt><trkpt lat="36.9024994" lon="-3.6594925"><ele>1152.0</ele><time>2026-03-07T15:00:19.008Z</time></trkpt><trkpt lat="36.9025505" lon="-3.6593915"><ele>1152.0</ele><time>2026-03-07T15:00:20.005Z</time></trkpt><trkpt lat="36.9026091" lon="-3.6593056"><ele>1152.0</ele><time>2026-03-07T15:00:21.02Z</time></trkpt><trkpt lat="36.9027014" lon="-3.6592557"><ele>1152.0</ele><time>2026-03-07T15:00:22.021Z</time></trkpt><trkpt lat="36.9028028" lon="-3.6591966"><ele>1151.5</ele><time>2026-03-07T15:00:23.01Z</time></trkpt><trkpt lat="36.9029136" lon="-3.6591366"><ele>1151.0</ele><time>2026-03-07T15:00:23.993Z</time></trkpt><trkpt lat="36.9030232" lon="-3.6590677"><ele>1150.5</ele><time>2026-03-07T15:00:25.011Z</time></trkpt><trkpt lat="36.9031335" lon="-3.6590149"><ele>1150.0</ele><time>2026-03-07T15:00:26.004Z</time></trkpt><trkpt lat="36.9032385" lon="-3.6589631"><ele>1150.0</ele><time>2026-03-07T15:00:27.006Z</time></trkpt><trkpt lat="36.9033418" lon="-3.6589247"><ele>1150.0</ele><time>2026-03-07T15:00:28.012Z</time></trkpt><trkpt lat="36.903442" lon="-3.6589006"><ele>1150.0</ele><time>2026-03-07T15:00:28.992Z</time></trkpt><trkpt lat="36.9035444" lon="-3.6588862"><ele>1150.0</ele><time>2026-03-07T15:00:30.002Z</time></trkpt><trkpt lat="36.9036491" lon="-3.6588849"><ele>1150.0</ele><time>2026-03-07T15:00:31.01Z</time></trkpt><trkpt lat="36.9037521" lon="-3.6588878"><ele>1147.3333333333333</ele><time>2026-03-07T15:00:32.008Z</time></trkpt><trkpt lat="36.9038469" lon="-3.6588883"><ele>1144.6666666666665</ele><time>2026-03-07T15:00:33.001Z</time></trkpt><trkpt lat="36.9039374" lon="-3.658885"><ele>1142.0</ele><time>2026-03-07T15:00:34.028Z</time></trkpt><trkpt lat="36.9040228" lon="-3.6588859"><ele>1139.3333333333333</ele><time>2026-03-07T15:00:34.993Z</time></trkpt><trkpt lat="36.9041029" lon="-3.6588839"><ele>1136.6666666666667</ele><time>2026-03-07T15:00:36.011Z</time></trkpt><trkpt lat="36.9041791" lon="-3.6588787"><ele>1134.0</ele><time>2026-03-07T15:00:37.006Z</time></trkpt><trkpt lat="36.9042471" lon="-3.6588595"><ele>1131.0</ele><time>2026-03-07T15:00:38Z</time></trkpt><trkpt lat="36.9043078" lon="-3.6588142"><ele>1128.0</ele><time>2026-03-07T15:00:38.997Z</time></trkpt><trkpt lat="36.9043608" lon="-3.65874"><ele>1125.0</ele><time>2026-03-07T15:00:40.006Z</time></trkpt><trkpt lat="36.9044187" lon="-3.6586456"><ele>1122.0</ele><time>2026-03-07T15:00:40.997Z</time></trkpt><trkpt lat="36.9044814" lon="-3.6585331"><ele>1119.0</ele><time>2026-03-07T15:00:42.016Z</time></trkpt><trkpt lat="36.9045482" lon="-3.6584143"><ele>1118.8</ele><time>2026-03-07T15:00:42.999Z</time></trkpt><trkpt lat="36.9046102" lon="-3.6582885"><ele>1118.6000000000001</ele><time>2026-03-07T15:00:44.015Z</time></trkpt><trkpt lat="36.9046704" lon="-3.6581673"><ele>1118.4</ele><time>2026-03-07T15:00:45.001Z</time></trkpt><trkpt lat="36.9047386" lon="-3.6580603"><ele>1118.2</ele><time>2026-03-07T15:00:46.014Z</time></trkpt><trkpt lat="36.9048146" lon="-3.6579652"><ele>1118.0</ele><time>2026-03-07T15:00:47.005Z</time></trkpt><trkpt lat="36.9048923" lon="-3.6578763"><ele>1118.0</ele><time>2026-03-07T15:00:48.014Z</time></trkpt><trkpt lat="36.9049654" lon="-3.6577958"><ele>1118.0</ele><time>2026-03-07T15:00:49.005Z</time></trkpt><trkpt lat="36.9050278" lon="-3.6577329"><ele>1118.0</ele><time>2026-03-07T15:00:50.006Z</time></trkpt><trkpt lat="36.9050952" lon="-3.6577137"><ele>1118.0</ele><time>2026-03-07T15:00:51.004Z</time></trkpt><trkpt lat="36.9051693" lon="-3.6577192"><ele>1118.0</ele><time>2026-03-07T15:00:52.005Z</time></trkpt><trkpt lat="36.9052608" lon="-3.6577292"><ele>1118.0</ele><time>2026-03-07T15:00:53.001Z</time></trkpt><trkpt lat="36.9053516" lon="-3.6577196"><ele>1118.6</ele><time>2026-03-07T15:00:54.017Z</time></trkpt><trkpt lat="36.9054416" lon="-3.6576796"><ele>1119.1999999999998</ele><time>2026-03-07T15:00:55.012Z</time></trkpt><trkpt lat="36.9055333" lon="-3.6576185"><ele>1119.8</ele><time>2026-03-07T15:00:56.01Z</time></trkpt><trkpt lat="36.9056344" lon="-3.6575734"><ele>1120.3999999999999</ele><time>2026-03-07T15:00:57.012Z</time></trkpt><trkpt lat="36.9057383" lon="-3.6575594"><ele>1121.0</ele><time>2026-03-07T15:00:58.002Z</time></trkpt><trkpt lat="36.9058405" lon="-3.657537"><ele>1116.6</ele><time>2026-03-07T15:00:59.002Z</time></trkpt><trkpt lat="36.9059464" lon="-3.6574926"><ele>1112.1999999999998</ele><time>2026-03-07T15:01:00.027Z</time></trkpt><trkpt lat="36.9060474" lon="-3.6574321"><ele>1107.8000000000002</ele><time>2026-03-07T15:01:01.007Z</time></trkpt><trkpt lat="36.9061352" lon="-3.6573593"><ele>1103.4</ele><time>2026-03-07T15:01:02.031Z</time></trkpt><trkpt lat="36.9062333" lon="-3.657305"><ele>1099.0</ele><time>2026-03-07T15:01:03.065Z</time></trkpt><trkpt lat="36.9063229" lon="-3.6572486"><ele>1099.0</ele><time>2026-03-07T15:01:04.021Z</time></trkpt><trkpt lat="36.9064181" lon="-3.657214"><ele>1099.0</ele><time>2026-03-07T15:01:05.002Z</time></trkpt><trkpt lat="36.9065294" lon="-3.6571989"><ele>1099.0</ele><time>2026-03-07T15:01:06.01Z</time></trkpt><trkpt lat="36.9066441" lon="-3.6571988"><ele>1099.0</ele><time>2026-03-07T15:01:07.008Z</time></trkpt><trkpt lat="36.9067561" lon="-3.6572136"><ele>1099.0</ele><time>2026-03-07T15:01:07.997Z</time></trkpt><trkpt lat="36.9068658" lon="-3.6572377"><ele>1097.6000000000001</ele><time>2026-03-07T15:01:09.024Z</time></trkpt><trkpt lat="36.9069755" lon="-3.657257"><ele>1096.2</ele><time>2026-03-07T15:01:10.01Z</time></trkpt><trkpt lat="36.9070905" lon="-3.6572787"><ele>1094.8000000000002</ele><time>2026-03-07T15:01:11.002Z</time></trkpt><trkpt lat="36.907201" lon="-3.6572965"><ele>1093.4</ele><time>2026-03-07T15:01:12.006Z</time></trkpt><trkpt lat="36.9072971" lon="-3.6573256"><ele>1092.0</ele><time>2026-03-07T15:01:13.007Z</time></trkpt><trkpt lat="36.9073894" lon="-3.657355"><ele>1092.0</ele><time>2026-03-07T15:01:14.009Z</time></trkpt><trkpt lat="36.9074756" lon="-3.6573695"><ele>1092.0</ele><time>2026-03-07T15:01:15.015Z</time></trkpt><trkpt lat="36.9075655" lon="-3.6573712"><ele>1092.0</ele><time>2026-03-07T15:01:16.004Z</time></trkpt><trkpt lat="36.9076522" lon="-3.657347"><ele>1092.0</ele><time>2026-03-07T15:01:16.998Z</time></trkpt><trkpt lat="36.9077335" lon="-3.6573357"><ele>1092.0</ele><time>2026-03-07T15:01:18.008Z</time></trkpt><trkpt lat="36.9078151" lon="-3.6573075"><ele>1092.0</ele><time>2026-03-07T15:01:19.005Z</time></trkpt><trkpt lat="36.9078761" lon="-3.6572269"><ele>1092.0</ele><time>2026-03-07T15:01:19.996Z</time></trkpt><trkpt lat="36.9079551" lon="-3.6571596"><ele>1092.0</ele><time>2026-03-07T15:01:21.013Z</time></trkpt><trkpt lat="36.9080395" lon="-3.6570698"><ele>1092.0</ele><time>2026-03-07T15:01:22.009Z</time></trkpt><trkpt lat="36.9081233" lon="-3.6569697"><ele>1092.0</ele><time>2026-03-07T15:01:23.001Z</time></trkpt><trkpt lat="36.9082028" lon="-3.6568622"><ele>1092.0</ele><time>2026-03-07T15:01:24.006Z</time></trkpt><trkpt lat="36.9082816" lon="-3.6567441"><ele>1092.0</ele><time>2026-03-07T15:01:25.002Z</time></trkpt><trkpt lat="36.9083714" lon="-3.6566465"><ele>1092.0</ele><time>2026-03-07T15:01:26.014Z</time></trkpt><trkpt lat="36.9084556" lon="-3.6565278"><ele>1092.0</ele><time>2026-03-07T15:01:27.005Z</time></trkpt><trkpt lat="36.9085425" lon="-3.6564104"><ele>1092.0</ele><time>2026-03-07T15:01:28.006Z</time></trkpt><trkpt lat="36.908648" lon="-3.6563233"><ele>1089.75</ele><time>2026-03-07T15:01:29Z</time></trkpt><trkpt lat="36.9087496" lon="-3.6562426"><ele>1087.5</ele><time>2026-03-07T15:01:30.005Z</time></trkpt><trkpt lat="36.908849" lon="-3.6561508"><ele>1085.25</ele><time>2026-03-07T15:01:31.02Z</time></trkpt><trkpt lat="36.908956" lon="-3.6560714"><ele>1083.0</ele><time>2026-03-07T15:01:32.005Z</time></trkpt><trkpt lat="36.9090581" lon="-3.6559909"><ele>1083.0</ele><time>2026-03-07T15:01:32.998Z</time></trkpt><trkpt lat="36.9091694" lon="-3.6559142"><ele>1083.0</ele><time>2026-03-07T15:01:34.004Z</time></trkpt><trkpt lat="36.909266" lon="-3.6558377"><ele>1083.0</ele><time>2026-03-07T15:01:35.001Z</time></trkpt><trkpt lat="36.9093449" lon="-3.6557734"><ele>1083.0</ele><time>2026-03-07T15:01:35.996Z</time></trkpt><trkpt lat="36.9094072" lon="-3.6557057"><ele>1083.0</ele><time>2026-03-07T15:01:37.009Z</time></trkpt><trkpt lat="36.9094495" lon="-3.6556319"><ele>1081.4</ele><time>2026-03-07T15:01:38.018Z</time></trkpt><trkpt lat="36.9094825" lon="-3.6555554"><ele>1079.8</ele><time>2026-03-07T15:01:39.011Z</time></trkpt><trkpt lat="36.9095571" lon="-3.6554371"><ele>1078.2</ele><time>2026-03-07T15:01:41.026Z</time></trkpt><trkpt lat="36.9095925" lon="-3.6553597"><ele>1076.6</ele><time>2026-03-07T15:01:43.004Z</time></trkpt><trkpt lat="36.909578" lon="-3.6552508"><ele>1075.0</ele><time>2026-03-07T15:01:45.001Z</time></trkpt><trkpt lat="36.9095694" lon="-3.6550943"><ele>1073.2</ele><time>2026-03-07T15:01:47.011Z</time></trkpt><trkpt lat="36.9095644" lon="-3.6550023"><ele>1071.4</ele><time>2026-03-07T15:01:48.008Z</time></trkpt><trkpt lat="36.9095451" lon="-3.6548661"><ele>1069.6</ele><time>2026-03-07T15:01:50.006Z</time></trkpt><trkpt lat="36.9095537" lon="-3.6547565"><ele>1067.8</ele><time>2026-03-07T15:01:52.013Z</time></trkpt><trkpt lat="36.9096286" lon="-3.6547206"><ele>1066.0</ele><time>2026-03-07T15:01:54.018Z</time></trkpt><trkpt lat="36.9097415" lon="-3.6547462"><ele>1066.0</ele><time>2026-03-07T15:01:56.017Z</time></trkpt><trkpt lat="36.90983" lon="-3.6547739"><ele>1066.0</ele><time>2026-03-07T15:01:57.002Z</time></trkpt><trkpt lat="36.9099407" lon="-3.6547876"><ele>1066.0</ele><time>2026-03-07T15:01:58.009Z</time></trkpt><trkpt lat="36.9100474" lon="-3.654787"><ele>1066.0</ele><time>2026-03-07T15:01:59.001Z</time></trkpt><trkpt lat="36.9101515" lon="-3.6547771"><ele>1066.0</ele><time>2026-03-07T15:02:00.007Z</time></trkpt><trkpt lat="36.9102656" lon="-3.6547539"><ele>1064.25</ele><time>2026-03-07T15:02:01.018Z</time></trkpt><trkpt lat="36.9103832" lon="-3.6547153"><ele>1062.5</ele><time>2026-03-07T15:02:02.01Z</time></trkpt><trkpt lat="36.9104871" lon="-3.6546655"><ele>1060.75</ele><time>2026-03-07T15:02:03.007Z</time></trkpt><trkpt lat="36.9105903" lon="-3.6546214"><ele>1059.0</ele><time>2026-03-07T15:02:04.012Z</time></trkpt><trkpt lat="36.9106916" lon="-3.6545687"><ele>1059.0</ele><time>2026-03-07T15:02:05.025Z</time></trkpt><trkpt lat="36.9107913" lon="-3.6545272"><ele>1059.0</ele><time>2026-03-07T15:02:06Z</time></trkpt><trkpt lat="36.9108841" lon="-3.6544649"><ele>1059.0</ele><time>2026-03-07T15:02:07.005Z</time></trkpt><trkpt lat="36.9109724" lon="-3.6543838"><ele>1059.0</ele><time>2026-03-07T15:02:08Z</time></trkpt><trkpt lat="36.9110719" lon="-3.654311"><ele>1059.0</ele><time>2026-03-07T15:02:08.997Z</time></trkpt><trkpt lat="36.9111709" lon="-3.6542394"><ele>1054.25</ele><time>2026-03-07T15:02:10.009Z</time></trkpt><trkpt lat="36.9112627" lon="-3.6541564"><ele>1049.5</ele><time>2026-03-07T15:02:11.008Z</time></trkpt><trkpt lat="36.9113545" lon="-3.6540757"><ele>1044.75</ele><time>2026-03-07T15:02:12.004Z</time></trkpt><trkpt lat="36.9114534" lon="-3.6540027"><ele>1040.0</ele><time>2026-03-07T15:02:12.994Z</time></trkpt><trkpt lat="36.9115487" lon="-3.6539324"><ele>1040.0</ele><time>2026-03-07T15:02:14.005Z</time></trkpt><trkpt lat="36.9116319" lon="-3.6538394"><ele>1040.0</ele><time>2026-03-07T15:02:15.003Z</time></trkpt><trkpt lat="36.9117098" lon="-3.6537346"><ele>1040.0</ele><time>2026-03-07T15:02:16.004Z</time></trkpt><trkpt lat="36.9117833" lon="-3.6536356"><ele>1040.0</ele><time>2026-03-07T15:02:16.996Z</time></trkpt><trkpt lat="36.9118398" lon="-3.65354"><ele>1040.0</ele><time>2026-03-07T15:02:18.022Z</time></trkpt><trkpt lat="36.9118936" lon="-3.6534591"><ele>1037.6666666666667</ele><time>2026-03-07T15:02:19.018Z</time></trkpt><trkpt lat="36.9119379" lon="-3.6533692"><ele>1035.3333333333335</ele><time>2026-03-07T15:02:20.007Z</time></trkpt><trkpt lat="36.911971" lon="-3.6532737"><ele>1033.0</ele><time>2026-03-07T15:02:21.003Z</time></trkpt><trkpt lat="36.9120057" lon="-3.6531812"><ele>1030.6666666666667</ele><time>2026-03-07T15:02:22.002Z</time></trkpt><trkpt lat="36.9120329" lon="-3.6530828"><ele>1028.3333333333333</ele><time>2026-03-07T15:02:23.012Z</time></trkpt><trkpt lat="36.9120529" lon="-3.652977"><ele>1026.0</ele><time>2026-03-07T15:02:24.003Z</time></trkpt><trkpt lat="36.9120696" lon="-3.6528832"><ele>1026.0000000000002</ele><time>2026-03-07T15:02:25.001Z</time></trkpt><trkpt lat="36.9120775" lon="-3.6527899"><ele>1026.0</ele><time>2026-03-07T15:02:26.015Z</time></trkpt><trkpt lat="36.9120853" lon="-3.6526955"><ele>1026.0</ele><time>2026-03-07T15:02:27.005Z</time></trkpt><trkpt lat="36.912076" lon="-3.6525983"><ele>1026.0</ele><time>2026-03-07T15:02:28.013Z</time></trkpt><trkpt lat="36.9120745" lon="-3.6525056"><ele>1026.0</ele><time>2026-03-07T15:02:28.997Z</time></trkpt><trkpt lat="36.9120919" lon="-3.6524149"><ele>1026.0000000000002</ele><time>2026-03-07T15:02:30.002Z</time></trkpt><trkpt lat="36.9121182" lon="-3.6523331"><ele>1026.0</ele><time>2026-03-07T15:02:31.012Z</time></trkpt><trkpt lat="36.9121651" lon="-3.652261"><ele>1024.0</ele><time>2026-03-07T15:02:32.003Z</time></trkpt><trkpt lat="36.9122155" lon="-3.6521751"><ele>1021.9999999999999</ele><time>2026-03-07T15:02:33.007Z</time></trkpt><trkpt lat="36.9122708" lon="-3.6520912"><ele>1019.9999999999999</ele><time>2026-03-07T15:02:34.002Z</time></trkpt><trkpt lat="36.9123368" lon="-3.6520197"><ele>1018.0</ele><time>2026-03-07T15:02:35.007Z</time></trkpt><trkpt lat="36.9124152" lon="-3.6519435"><ele>1016.0</ele><time>2026-03-07T15:02:35.992Z</time></trkpt><trkpt lat="36.912501" lon="-3.6518451"><ele>1014.0</ele><time>2026-03-07T15:02:37.008Z</time></trkpt><trkpt lat="36.9125809" lon="-3.6517344"><ele>1011.9999999999999</ele><time>2026-03-07T15:02:38.021Z</time></trkpt><trkpt lat="36.9126479" lon="-3.6516275"><ele>1009.9999999999999</ele><time>2026-03-07T15:02:39.009Z</time></trkpt><trkpt lat="36.912711" lon="-3.6515251"><ele>1008.0</ele><time>2026-03-07T15:02:40Z</time></trkpt><trkpt lat="36.9127694" lon="-3.6514248"><ele>1006.0</ele><time>2026-03-07T15:02:41.005Z</time></trkpt><trkpt lat="36.9128207" lon="-3.6513238"><ele>1005.9999999999999</ele><time>2026-03-07T15:02:42.018Z</time></trkpt><trkpt lat="36.9128692" lon="-3.6512184"><ele>1006.0</ele><time>2026-03-07T15:02:43Z</time></trkpt><trkpt lat="36.9129023" lon="-3.6511153"><ele>1006.0</ele><time>2026-03-07T15:02:44.006Z</time></trkpt><trkpt lat="36.9129215" lon="-3.6510115"><ele>1006.0</ele><time>2026-03-07T15:02:45.008Z</time></trkpt><trkpt lat="36.9129245" lon="-3.6509011"><ele>1005.9999999999999</ele><time>2026-03-07T15:02:46.015Z</time></trkpt><trkpt lat="36.912923" lon="-3.6507909"><ele>1006.0</ele><time>2026-03-07T15:02:47Z</time></trkpt><trkpt lat="36.9129175" lon="-3.6506716"><ele>1004.5999999999999</ele><time>2026-03-07T15:02:48.005Z</time></trkpt><trkpt lat="36.9128993" lon="-3.6505544"><ele>1003.1999999999999</ele><time>2026-03-07T15:02:49.002Z</time></trkpt><trkpt lat="36.9128616" lon="-3.6504437"><ele>1001.8000000000001</ele><time>2026-03-07T15:02:49.998Z</time></trkpt><trkpt lat="36.9128131" lon="-3.6503275"><ele>1000.4000000000001</ele><time>2026-03-07T15:02:51.006Z</time></trkpt><trkpt lat="36.9127613" lon="-3.6502145"><ele>999.0</ele><time>2026-03-07T15:02:52.001Z</time></trkpt><trkpt lat="36.9127271" lon="-3.6500901"><ele>998.0</ele><time>2026-03-07T15:02:53.011Z</time></trkpt><trkpt lat="36.9127022" lon="-3.6499776"><ele>997.0000000000001</ele><time>2026-03-07T15:02:53.999Z</time></trkpt><trkpt lat="36.9126878" lon="-3.6498663"><ele>996.0000000000001</ele><time>2026-03-07T15:02:55.001Z</time></trkpt><trkpt lat="36.9126608" lon="-3.6497614"><ele>995.0</ele><time>2026-03-07T15:02:56.002Z</time></trkpt><trkpt lat="36.9126343" lon="-3.6496487"><ele>994.0</ele><time>2026-03-07T15:02:57.013Z</time></trkpt><trkpt lat="36.9126015" lon="-3.6495368"><ele>993.3333333333333</ele><time>2026-03-07T15:02:58.009Z</time></trkpt><trkpt lat="36.9125746" lon="-3.6494244"><ele>992.6666666666666</ele><time>2026-03-07T15:02:59.007Z</time></trkpt><trkpt lat="36.9125584" lon="-3.6493173"><ele>992.0</ele><time>2026-03-07T15:03:00.004Z</time></trkpt><trkpt lat="36.9125647" lon="-3.649221"><ele>991.3333333333333</ele><time>2026-03-07T15:03:01.007Z</time></trkpt><trkpt lat="36.9125874" lon="-3.6491321"><ele>990.6666666666666</ele><time>2026-03-07T15:03:02.008Z</time></trkpt><trkpt lat="36.9126241" lon="-3.6490171"><ele>990.0</ele><time>2026-03-07T15:03:03.009Z</time></trkpt><trkpt lat="36.9126703" lon="-3.6489012"><ele>990.0</ele><time>2026-03-07T15:03:04.014Z</time></trkpt><trkpt lat="36.9127009" lon="-3.6487673"><ele>990.0</ele><time>2026-03-07T15:03:04.993Z</time></trkpt><trkpt lat="36.9127246" lon="-3.6486352"><ele>990.0</ele><time>2026-03-07T15:03:06.021Z</time></trkpt><trkpt lat="36.9127351" lon="-3.6485119"><ele>990.0</ele><time>2026-03-07T15:03:07.002Z</time></trkpt><trkpt lat="36.9127206" lon="-3.6483865"><ele>990.0</ele><time>2026-03-07T15:03:08.007Z</time></trkpt><trkpt lat="36.9127101" lon="-3.6482663"><ele>988.1666666666666</ele><time>2026-03-07T15:03:09.007Z</time></trkpt><trkpt lat="36.912714" lon="-3.6481555"><ele>986.3333333333333</ele><time>2026-03-07T15:03:10.004Z</time></trkpt><trkpt lat="36.9127177" lon="-3.6480507"><ele>984.5</ele><time>2026-03-07T15:03:11.006Z</time></trkpt><trkpt lat="36.9127183" lon="-3.6479464"><ele>982.6666666666666</ele><time>2026-03-07T15:03:11.998Z</time></trkpt><trkpt lat="36.9127267" lon="-3.6478409"><ele>980.8333333333333</ele><time>2026-03-07T15:03:13.01Z</time></trkpt><trkpt lat="36.9127493" lon="-3.6477336"><ele>979.0</ele><time>2026-03-07T15:03:14.025Z</time></trkpt><trkpt lat="36.9127765" lon="-3.6476343"><ele>975.8000000000001</ele><time>2026-03-07T15:03:15.01Z</time></trkpt><trkpt lat="36.9128023" lon="-3.6475466"><ele>972.6000000000001</ele><time>2026-03-07T15:03:15.992Z</time></trkpt><trkpt lat="36.9128004" lon="-3.6474097"><ele>969.4</ele><time>2026-03-07T15:03:18.015Z</time></trkpt><trkpt lat="36.9127657" lon="-3.6472784"><ele>966.2</ele><time>2026-03-07T15:03:20.014Z</time></trkpt><trkpt lat="36.912769" lon="-3.6471602"><ele>963.0</ele><time>2026-03-07T15:03:21.997Z</time></trkpt><trkpt lat="36.9128501" lon="-3.6470533"><ele>963.0</ele><time>2026-03-07T15:03:24.011Z</time></trkpt><trkpt lat="36.9129198" lon="-3.647033"><ele>963.0</ele><time>2026-03-07T15:03:25.011Z</time></trkpt><trkpt lat="36.9130015" lon="-3.6470008"><ele>963.0</ele><time>2026-03-07T15:03:26.018Z</time></trkpt><trkpt lat="36.9130811" lon="-3.6469728"><ele>963.0</ele><time>2026-03-07T15:03:27.012Z</time></trkpt><trkpt lat="36.913154" lon="-3.6469439"><ele>963.0</ele><time>2026-03-07T15:03:28.004Z</time></trkpt><trkpt lat="36.9132231" lon="-3.6469067"><ele>963.0</ele><time>2026-03-07T15:03:29.008Z</time></trkpt><trkpt lat="36.9132813" lon="-3.6468494"><ele>961.8333333333334</ele><time>2026-03-07T15:03:30Z</time></trkpt><trkpt lat="36.9133374" lon="-3.646783"><ele>960.6666666666667</ele><time>2026-03-07T15:03:31.005Z</time></trkpt><trkpt lat="36.9134001" lon="-3.6467158"><ele>959.5</ele><time>2026-03-07T15:03:32Z</time></trkpt><trkpt lat="36.9134747" lon="-3.6466729"><ele>958.3333333333334</ele><time>2026-03-07T15:03:33.001Z</time></trkpt><trkpt lat="36.9135442" lon="-3.6466258"><ele>957.1666666666667</ele><time>2026-03-07T15:03:34.011Z</time></trkpt><trkpt lat="36.9136128" lon="-3.6465662"><ele>956.0</ele><time>2026-03-07T15:03:35.001Z</time></trkpt><trkpt lat="36.9136792" lon="-3.6464949"><ele>953.5999999999999</ele><time>2026-03-07T15:03:36.003Z</time></trkpt><trkpt lat="36.913752" lon="-3.6464283"><ele>951.1999999999999</ele><time>2026-03-07T15:03:37.003Z</time></trkpt><trkpt lat="36.9138262" lon="-3.6463609"><ele>948.8000000000001</ele><time>2026-03-07T15:03:38.008Z</time></trkpt><trkpt lat="36.913901" lon="-3.6462919"><ele>946.4000000000001</ele><time>2026-03-07T15:03:39.036Z</time></trkpt><trkpt lat="36.9139777" lon="-3.6462224"><ele>944.0</ele><time>2026-03-07T15:03:40.03Z</time></trkpt><trkpt lat="36.9140597" lon="-3.6461608"><ele>942.1666666666667</ele><time>2026-03-07T15:03:41.004Z</time></trkpt><trkpt lat="36.914132" lon="-3.6461041"><ele>940.3333333333334</ele><time>2026-03-07T15:03:41.995Z</time></trkpt><trkpt lat="36.9141935" lon="-3.6460525"><ele>938.5</ele><time>2026-03-07T15:03:43.005Z</time></trkpt><trkpt lat="36.9142465" lon="-3.6460073"><ele>936.6666666666667</ele><time>2026-03-07T15:03:44.012Z</time></trkpt><trkpt lat="36.9142843" lon="-3.6458822"><ele>934.8333333333334</ele><time>2026-03-07T15:03:46Z</time></trkpt><trkpt lat="36.9142891" lon="-3.6457982"><ele>933.0</ele><time>2026-03-07T15:03:47.002Z</time></trkpt><trkpt lat="36.9142946" lon="-3.6456752"><ele>933.0</ele><time>2026-03-07T15:03:48.005Z</time></trkpt><trkpt lat="36.9143136" lon="-3.6455451"><ele>933.0</ele><time>2026-03-07T15:03:49.001Z</time></trkpt><trkpt lat="36.9143333" lon="-3.6454089"><ele>933.0</ele><time>2026-03-07T15:03:50.005Z</time></trkpt><trkpt lat="36.9143614" lon="-3.6452802"><ele>933.0</ele><time>2026-03-07T15:03:51.009Z</time></trkpt><trkpt lat="36.9143926" lon="-3.6451643"><ele>933.0</ele><time>2026-03-07T15:03:52.016Z</time></trkpt><trkpt lat="36.9144082" lon="-3.6450519"><ele>930.3333333333334</ele><time>2026-03-07T15:03:53Z</time></trkpt><trkpt lat="36.9144365" lon="-3.6449461"><ele>927.6666666666667</ele><time>2026-03-07T15:03:54.003Z</time></trkpt><trkpt lat="36.9144741" lon="-3.6448568"><ele>925.0</ele><time>2026-03-07T15:03:55.008Z</time></trkpt><trkpt lat="36.914513" lon="-3.6447761"><ele>922.3333333333334</ele><time>2026-03-07T15:03:56.006Z</time></trkpt><trkpt lat="36.9145552" lon="-3.6447023"><ele>919.6666666666667</ele><time>2026-03-07T15:03:57.009Z</time></trkpt><trkpt lat="36.9145867" lon="-3.6446306"><ele>917.0</ele><time>2026-03-07T15:03:58.01Z</time></trkpt><trkpt lat="36.9146715" lon="-3.6445503"><ele>917.0</ele><time>2026-03-07T15:04:00.008Z</time></trkpt><trkpt lat="36.9147411" lon="-3.6445517"><ele>917.0</ele><time>2026-03-07T15:04:01.013Z</time></trkpt><trkpt lat="36.9148403" lon="-3.644552"><ele>917.0</ele><time>2026-03-07T15:04:02.037Z</time></trkpt><trkpt lat="36.9149505" lon="-3.6445502"><ele>917.0</ele><time>2026-03-07T15:04:03.029Z</time></trkpt><trkpt lat="36.9150622" lon="-3.6445394"><ele>917.0</ele><time>2026-03-07T15:04:04.009Z</time></trkpt><trkpt lat="36.9151805" lon="-3.6445197"><ele>917.75</ele><time>2026-03-07T15:04:05.011Z</time></trkpt><trkpt lat="36.9153006" lon="-3.6444929"><ele>918.5</ele><time>2026-03-07T15:04:06.009Z</time></trkpt><trkpt lat="36.9154266" lon="-3.6444627"><ele>919.25</ele><time>2026-03-07T15:04:07.005Z</time></trkpt><trkpt lat="36.9155532" lon="-3.6444255"><ele>920.0</ele><time>2026-03-07T15:04:08.001Z</time></trkpt><trkpt lat="36.915678" lon="-3.6443913"><ele>917.5</ele><time>2026-03-07T15:04:09.005Z</time></trkpt><trkpt lat="36.9157955" lon="-3.6443519"><ele>915.0</ele><time>2026-03-07T15:04:10.004Z</time></trkpt><trkpt lat="36.9159009" lon="-3.6443043"><ele>912.5</ele><time>2026-03-07T15:04:11.001Z</time></trkpt><trkpt lat="36.9160005" lon="-3.6442604"><ele>910.0</ele><time>2026-03-07T15:04:11.999Z</time></trkpt><trkpt lat="36.9161159" lon="-3.6442584"><ele>910.0</ele><time>2026-03-07T15:04:13.022Z</time></trkpt><trkpt lat="36.9162299" lon="-3.6442555"><ele>910.0</ele><time>2026-03-07T15:04:14.003Z</time></trkpt><trkpt lat="36.9163331" lon="-3.6442323"><ele>910.0</ele><time>2026-03-07T15:04:15.018Z</time></trkpt><trkpt lat="36.9164248" lon="-3.644202"><ele>910.0</ele><time>2026-03-07T15:04:16.014Z</time></trkpt><trkpt lat="36.9165122" lon="-3.6441606"><ele>910.0</ele><time>2026-03-07T15:04:17.007Z</time></trkpt><trkpt lat="36.9165901" lon="-3.6440875"><ele>910.0</ele><time>2026-03-07T15:04:18.015Z</time></trkpt><trkpt lat="36.916648" lon="-3.6439886"><ele>910.0</ele><time>2026-03-07T15:04:19.003Z</time></trkpt><trkpt lat="36.9167106" lon="-3.643892"><ele>910.0</ele><time>2026-03-07T15:04:20.005Z</time></trkpt><trkpt lat="36.9167939" lon="-3.6438165"><ele>910.0</ele><time>2026-03-07T15:04:21.009Z</time></trkpt><trkpt lat="36.9168786" lon="-3.6437476"><ele>910.0</ele><time>2026-03-07T15:04:22.001Z</time></trkpt><trkpt lat="36.9169562" lon="-3.6436795"><ele>908.4999999999999</ele><time>2026-03-07T15:04:23.033Z</time></trkpt><trkpt lat="36.9170275" lon="-3.6436119"><ele>907.0</ele><time>2026-03-07T15:04:24.015Z</time></trkpt><trkpt lat="36.9170939" lon="-3.6435427"><ele>905.5</ele><time>2026-03-07T15:04:25Z</time></trkpt><trkpt lat="36.9171469" lon="-3.643466"><ele>904.0</ele><time>2026-03-07T15:04:26.016Z</time></trkpt><trkpt lat="36.9171935" lon="-3.6433874"><ele>902.4999999999999</ele><time>2026-03-07T15:04:27.011Z</time></trkpt><trkpt lat="36.9172496" lon="-3.6433006"><ele>901.0</ele><time>2026-03-07T15:04:28.002Z</time></trkpt><trkpt lat="36.9173198" lon="-3.6431975"><ele>901.0</ele><time>2026-03-07T15:04:29.004Z</time></trkpt><trkpt lat="36.9173841" lon="-3.6430703"><ele>901.0</ele><time>2026-03-07T15:04:30.011Z</time></trkpt><trkpt lat="36.9174514" lon="-3.6429321"><ele>901.0</ele><time>2026-03-07T15:04:31.016Z</time></trkpt><trkpt lat="36.9175182" lon="-3.6427893"><ele>901.0</ele><time>2026-03-07T15:04:32.009Z</time></trkpt><trkpt lat="36.9175783" lon="-3.6426489"><ele>899.1999999999999</ele><time>2026-03-07T15:04:33.008Z</time></trkpt><trkpt lat="36.9176343" lon="-3.6425143"><ele>897.3999999999999</ele><time>2026-03-07T15:04:34.007Z</time></trkpt><trkpt lat="36.9176919" lon="-3.6423928"><ele>895.6</ele><time>2026-03-07T15:04:35.027Z</time></trkpt><trkpt lat="36.9177489" lon="-3.6422822"><ele>893.8</ele><time>2026-03-07T15:04:36.007Z</time></trkpt><trkpt lat="36.9178127" lon="-3.6421917"><ele>892.0</ele><time>2026-03-07T15:04:37Z</time></trkpt><trkpt lat="36.917892" lon="-3.6421208"><ele>891.9999999999999</ele><time>2026-03-07T15:04:38.024Z</time></trkpt><trkpt lat="36.9179779" lon="-3.642069"><ele>892.0</ele><time>2026-03-07T15:04:39.002Z</time></trkpt><trkpt lat="36.9180541" lon="-3.6420204"><ele>892.0</ele><time>2026-03-07T15:04:40.01Z</time></trkpt><trkpt lat="36.9181247" lon="-3.6419848"><ele>892.0</ele><time>2026-03-07T15:04:41.007Z</time></trkpt><trkpt lat="36.9181852" lon="-3.6419548"><ele>891.9999999999999</ele><time>2026-03-07T15:04:42.005Z</time></trkpt><trkpt lat="36.9182823" lon="-3.6419814"><ele>892.0</ele><time>2026-03-07T15:04:44.016Z</time></trkpt><trkpt lat="36.9183007" lon="-3.6420678"><ele>891.9999999999999</ele><time>2026-03-07T15:04:45.012Z</time></trkpt><trkpt lat="36.9183233" lon="-3.6421473"><ele>892.0</ele><time>2026-03-07T15:04:46.008Z</time></trkpt><trkpt lat="36.9183381" lon="-3.642243"><ele>892.0</ele><time>2026-03-07T15:04:47.008Z</time></trkpt><trkpt lat="36.9183536" lon="-3.6423399"><ele>892.0</ele><time>2026-03-07T15:04:47.999Z</time></trkpt><trkpt lat="36.9183759" lon="-3.6424268"><ele>891.9999999999999</ele><time>2026-03-07T15:04:49.006Z</time></trkpt><trkpt lat="36.9184313" lon="-3.6424957"><ele>892.0</ele><time>2026-03-07T15:04:50.004Z</time></trkpt><trkpt lat="36.9185133" lon="-3.6425504"><ele>889.9999999999999</ele><time>2026-03-07T15:04:51.001Z</time></trkpt><trkpt lat="36.9185941" lon="-3.6426029"><ele>888.0</ele><time>2026-03-07T15:04:52.01Z</time></trkpt><trkpt lat="36.9186703" lon="-3.6426576"><ele>886.0</ele><time>2026-03-07T15:04:53.014Z</time></trkpt><trkpt lat="36.9187477" lon="-3.6427197"><ele>884.0</ele><time>2026-03-07T15:04:54.009Z</time></trkpt><trkpt lat="36.9188206" lon="-3.6427869"><ele>881.9999999999999</ele><time>2026-03-07T15:04:55.006Z</time></trkpt><trkpt lat="36.9188856" lon="-3.6428524"><ele>880.0</ele><time>2026-03-07T15:04:55.997Z</time></trkpt><trkpt lat="36.9189347" lon="-3.6429197"><ele>879.4</ele><time>2026-03-07T15:04:57.009Z</time></trkpt><trkpt lat="36.9189663" lon="-3.6429905"><ele>878.8</ele><time>2026-03-07T15:04:58.001Z</time></trkpt><trkpt lat="36.9189822" lon="-3.6431491"><ele>878.2</ele><time>2026-03-07T15:05:00.007Z</time></trkpt><trkpt lat="36.9189113" lon="-3.6432907"><ele>877.6</ele><time>2026-03-07T15:05:02.008Z</time></trkpt><trkpt lat="36.9188414" lon="-3.6433691"><ele>877.0</ele><time>2026-03-07T15:05:03.02Z</time></trkpt><trkpt lat="36.9187547" lon="-3.6434632"><ele>877.0</ele><time>2026-03-07T15:05:04.006Z</time></trkpt><trkpt lat="36.9186612" lon="-3.6435618"><ele>877.0</ele><time>2026-03-07T15:05:05.009Z</time></trkpt><trkpt lat="36.9185652" lon="-3.6436379"><ele>877.0</ele><time>2026-03-07T15:05:06.007Z</time></trkpt><trkpt lat="36.9184828" lon="-3.6437031"><ele>877.0</ele><time>2026-03-07T15:05:07.006Z</time></trkpt><trkpt lat="36.9184023" lon="-3.6437567"><ele>877.0</ele><time>2026-03-07T15:05:08.006Z</time></trkpt><trkpt lat="36.9183268" lon="-3.6437974"><ele>877.6</ele><time>2026-03-07T15:05:08.996Z</time></trkpt><trkpt lat="36.9182436" lon="-3.6438646"><ele>878.2</ele><time>2026-03-07T15:05:11.023Z</time></trkpt><trkpt lat="36.9182339" lon="-3.6439485"><ele>878.8</ele><time>2026-03-07T15:05:12.004Z</time></trkpt><trkpt lat="36.9183203" lon="-3.6440641"><ele>879.4</ele><time>2026-03-07T15:05:14.008Z</time></trkpt><trkpt lat="36.9183872" lon="-3.6441433"><ele>880.0</ele><time>2026-03-07T15:05:15.004Z</time></trkpt><trkpt lat="36.9184606" lon="-3.6442075"><ele>876.1666666666666</ele><time>2026-03-07T15:05:16.006Z</time></trkpt><trkpt lat="36.9185332" lon="-3.6442724"><ele>872.3333333333333</ele><time>2026-03-07T15:05:17.001Z</time></trkpt><trkpt lat="36.9186026" lon="-3.6443415"><ele>868.5</ele><time>2026-03-07T15:05:18.001Z</time></trkpt><trkpt lat="36.9186671" lon="-3.6444155"><ele>864.6666666666667</ele><time>2026-03-07T15:05:19.012Z</time></trkpt><trkpt lat="36.918727" lon="-3.6444862"><ele>860.8333333333334</ele><time>2026-03-07T15:05:20.018Z</time></trkpt><trkpt lat="36.9187796" lon="-3.6445584"><ele>857.0</ele><time>2026-03-07T15:05:21.011Z</time></trkpt><trkpt lat="36.9188286" lon="-3.6446417"><ele>855.0000000000001</ele><time>2026-03-07T15:05:22.007Z</time></trkpt><trkpt lat="36.9188698" lon="-3.644728"><ele>853.0</ele><time>2026-03-07T15:05:23.001Z</time></trkpt><trkpt lat="36.9189013" lon="-3.6448201"><ele>851.0</ele><time>2026-03-07T15:05:24.011Z</time></trkpt><trkpt lat="36.9189265" lon="-3.644915"><ele>849.0</ele><time>2026-03-07T15:05:25.014Z</time></trkpt><trkpt lat="36.9189411" lon="-3.6450179"><ele>847.0000000000001</ele><time>2026-03-07T15:05:25.998Z</time></trkpt><trkpt lat="36.9189537" lon="-3.6451227"><ele>845.0</ele><time>2026-03-07T15:05:27.02Z</time></trkpt><trkpt lat="36.9189667" lon="-3.6452319"><ele>846.1666666666667</ele><time>2026-03-07T15:05:28.008Z</time></trkpt><trkpt lat="36.9189971" lon="-3.6453385"><ele>847.3333333333334</ele><time>2026-03-07T15:05:29.023Z</time></trkpt><trkpt lat="36.9190284" lon="-3.6454483"><ele>848.5</ele><time>2026-03-07T15:05:30.001Z</time></trkpt><trkpt lat="36.9190516" lon="-3.6455588"><ele>849.6666666666667</ele><time>2026-03-07T15:05:31.01Z</time></trkpt><trkpt lat="36.9190686" lon="-3.645657"><ele>850.8333333333334</ele><time>2026-03-07T15:05:32.006Z</time></trkpt><trkpt lat="36.9190447" lon="-3.6457493"><ele>852.0</ele><time>2026-03-07T15:05:32.998Z</time></trkpt><trkpt lat="36.9190133" lon="-3.6458498"><ele>852.0</ele><time>2026-03-07T15:05:34.015Z</time></trkpt><trkpt lat="36.9189826" lon="-3.6459518"><ele>852.0</ele><time>2026-03-07T15:05:35.007Z</time></trkpt><trkpt lat="36.9189824" lon="-3.646031"><ele>852.0</ele><time>2026-03-07T15:05:35.992Z</time></trkpt><trkpt lat="36.9190795" lon="-3.6460873"><ele>852.0</ele><time>2026-03-07T15:05:38.006Z</time></trkpt><trkpt lat="36.9191599" lon="-3.6460697"><ele>852.0</ele><time>2026-03-07T15:05:39.008Z</time></trkpt><trkpt lat="36.919243" lon="-3.6460364"><ele>852.0</ele><time>2026-03-07T15:05:40.01Z</time></trkpt><trkpt lat="36.9193182" lon="-3.6460089"><ele>845.6666666666666</ele><time>2026-03-07T15:05:40.999Z</time></trkpt><trkpt lat="36.9193882" lon="-3.6459834"><ele>839.3333333333333</ele><time>2026-03-07T15:05:41.989Z</time></trkpt><trkpt lat="36.9194547" lon="-3.6459838"><ele>833.0</ele><time>2026-03-07T15:05:43.007Z</time></trkpt><trkpt lat="36.9195135" lon="-3.6460127"><ele>826.6666666666666</ele><time>2026-03-07T15:05:44.013Z</time></trkpt><trkpt lat="36.9195575" lon="-3.6460848"><ele>820.3333333333333</ele><time>2026-03-07T15:05:45.005Z</time></trkpt><trkpt lat="36.9195774" lon="-3.6462087"><ele>814.0</ele><time>2026-03-07T15:05:45.995Z</time></trkpt><trkpt lat="36.9196023" lon="-3.6463604"><ele>814.0</ele><time>2026-03-07T15:05:47.004Z</time></trkpt><trkpt lat="36.9196273" lon="-3.6465198"><ele>814.0</ele><time>2026-03-07T15:05:48.002Z</time></trkpt><trkpt lat="36.9196441" lon="-3.6466904"><ele>814.0</ele><time>2026-03-07T15:05:48.995Z</time></trkpt><trkpt lat="36.9196557" lon="-3.6468201"><ele>814.0</ele><time>2026-03-07T15:05:50.001Z</time></trkpt><trkpt lat="36.9196487" lon="-3.646956"><ele>812.0</ele><time>2026-03-07T15:05:50.988Z</time></trkpt><trkpt lat="36.9196352" lon="-3.6471027"><ele>810.0</ele><time>2026-03-07T15:05:52.014Z</time></trkpt><trkpt lat="36.9196224" lon="-3.6472501"><ele>808.0</ele><time>2026-03-07T15:05:53.015Z</time></trkpt><trkpt lat="36.9196192" lon="-3.6473821"><ele>806.0</ele><time>2026-03-07T15:05:54.026Z</time></trkpt><trkpt lat="36.9196002" lon="-3.647508"><ele>804.0</ele><time>2026-03-07T15:05:55.011Z</time></trkpt><trkpt lat="36.91958" lon="-3.6476419"><ele>804.0</ele><time>2026-03-07T15:05:56.004Z</time></trkpt><trkpt lat="36.9195821" lon="-3.6477612"><ele>804.0</ele><time>2026-03-07T15:05:57.008Z</time></trkpt><trkpt lat="36.919581" lon="-3.6478761"><ele>804.0</ele><time>2026-03-07T15:05:58.004Z</time></trkpt><trkpt lat="36.9195656" lon="-3.6479977"><ele>804.0</ele><time>2026-03-07T15:05:59Z</time></trkpt><trkpt lat="36.9195414" lon="-3.6481315"><ele>804.0</ele><time>2026-03-07T15:06:00.006Z</time></trkpt><trkpt lat="36.9195273" lon="-3.6482732"><ele>802.8000000000001</ele><time>2026-03-07T15:06:01.009Z</time></trkpt><trkpt lat="36.9195182" lon="-3.6484041"><ele>801.6</ele><time>2026-03-07T15:06:02.009Z</time></trkpt><trkpt lat="36.9195004" lon="-3.6485107"><ele>800.4</ele><time>2026-03-07T15:06:03.007Z</time></trkpt><trkpt lat="36.9194535" lon="-3.6485957"><ele>799.2</ele><time>2026-03-07T15:06:04.009Z</time></trkpt><trkpt lat="36.9193981" lon="-3.6486885"><ele>798.0</ele><time>2026-03-07T15:06:05.006Z</time></trkpt><trkpt lat="36.9193233" lon="-3.648794"><ele>797.8</ele><time>2026-03-07T15:06:06.007Z</time></trkpt><trkpt lat="36.9192573" lon="-3.6489057"><ele>797.5999999999999</ele><time>2026-03-07T15:06:06.997Z</time></trkpt><trkpt lat="36.9191902" lon="-3.6490113"><ele>797.4000000000001</ele><time>2026-03-07T15:06:07.998Z</time></trkpt><trkpt lat="36.9191199" lon="-3.6491008"><ele>797.2</ele><time>2026-03-07T15:06:09.008Z</time></trkpt><trkpt lat="36.919046" lon="-3.6491863"><ele>797.0</ele><time>2026-03-07T15:06:10.009Z</time></trkpt><trkpt lat="36.9189934" lon="-3.6492912"><ele>798.0</ele><time>2026-03-07T15:06:11.018Z</time></trkpt><trkpt lat="36.9189522" lon="-3.6494004"><ele>799.0</ele><time>2026-03-07T15:06:12.004Z</time></trkpt><trkpt lat="36.9188815" lon="-3.6494884"><ele>800.0</ele><time>2026-03-07T15:06:13.005Z</time></trkpt><trkpt lat="36.9187965" lon="-3.6495752"><ele>801.0</ele><time>2026-03-07T15:06:14.004Z</time></trkpt><trkpt lat="36.9187059" lon="-3.6496594"><ele>802.0</ele><time>2026-03-07T15:06:15.024Z</time></trkpt><trkpt lat="36.9186274" lon="-3.6497458"><ele>802.0</ele><time>2026-03-07T15:06:16.024Z</time></trkpt><trkpt lat="36.9185594" lon="-3.64984"><ele>802.0</ele><time>2026-03-07T15:06:17.002Z</time></trkpt><trkpt lat="36.9184851" lon="-3.6499393"><ele>802.0</ele><time>2026-03-07T15:06:18.005Z</time></trkpt><trkpt lat="36.9184082" lon="-3.6500434"><ele>802.0</ele><time>2026-03-07T15:06:19.004Z</time></trkpt><trkpt lat="36.9183262" lon="-3.650139"><ele>802.0</ele><time>2026-03-07T15:06:20.004Z</time></trkpt><trkpt lat="36.9182519" lon="-3.6502266"><ele>802.6</ele><time>2026-03-07T15:06:20.996Z</time></trkpt><trkpt lat="36.9181907" lon="-3.6503202"><ele>803.2</ele><time>2026-03-07T15:06:21.994Z</time></trkpt><trkpt lat="36.9181414" lon="-3.650423"><ele>803.8</ele><time>2026-03-07T15:06:23.013Z</time></trkpt><trkpt lat="36.918103" lon="-3.6505269"><ele>804.4</ele><time>2026-03-07T15:06:24.006Z</time></trkpt><trkpt lat="36.9180775" lon="-3.650632"><ele>805.0</ele><time>2026-03-07T15:06:25.036Z</time></trkpt><trkpt lat="36.9180484" lon="-3.6507309"><ele>804.9999999999999</ele><time>2026-03-07T15:06:26.012Z</time></trkpt><trkpt lat="36.9180124" lon="-3.6508169"><ele>805.0</ele><time>2026-03-07T15:06:27.004Z</time></trkpt><trkpt lat="36.9179753" lon="-3.6508952"><ele>805.0</ele><time>2026-03-07T15:06:28.004Z</time></trkpt><trkpt lat="36.9179411" lon="-3.6509779"><ele>805.0</ele><time>2026-03-07T15:06:29.002Z</time></trkpt><trkpt lat="36.9179257" lon="-3.651078"><ele>804.9999999999999</ele><time>2026-03-07T15:06:29.997Z</time></trkpt><trkpt lat="36.9179242" lon="-3.6511903"><ele>805.0</ele><time>2026-03-07T15:06:31.009Z</time></trkpt><trkpt lat="36.9179157" lon="-3.6513074"><ele>805.75</ele><time>2026-03-07T15:06:32.007Z</time></trkpt><trkpt lat="36.9179118" lon="-3.6514275"><ele>806.5</ele><time>2026-03-07T15:06:33.002Z</time></trkpt><trkpt lat="36.9179133" lon="-3.6515636"><ele>807.25</ele><time>2026-03-07T15:06:33.997Z</time></trkpt><trkpt lat="36.9179187" lon="-3.6517208"><ele>808.0</ele><time>2026-03-07T15:06:34.996Z</time></trkpt><trkpt lat="36.9179153" lon="-3.6518879"><ele>809.75</ele><time>2026-03-07T15:06:35.996Z</time></trkpt><trkpt lat="36.9178976" lon="-3.6520515"><ele>811.5</ele><time>2026-03-07T15:06:36.999Z</time></trkpt><trkpt lat="36.9178811" lon="-3.6522019"><ele>813.25</ele><time>2026-03-07T15:06:38.008Z</time></trkpt><trkpt lat="36.9178687" lon="-3.6523419"><ele>815.0</ele><time>2026-03-07T15:06:39.008Z</time></trkpt><trkpt lat="36.9178595" lon="-3.6524783"><ele>815.0</ele><time>2026-03-07T15:06:40.001Z</time></trkpt><trkpt lat="36.9178545" lon="-3.6526116"><ele>815.0</ele><time>2026-03-07T15:06:41Z</time></trkpt><trkpt lat="36.917865" lon="-3.6527506"><ele>815.0</ele><time>2026-03-07T15:06:42.004Z</time></trkpt><trkpt lat="36.9178868" lon="-3.6529025"><ele>815.0</ele><time>2026-03-07T15:06:43.012Z</time></trkpt><trkpt lat="36.917923" lon="-3.6530561"><ele>815.0</ele><time>2026-03-07T15:06:44.001Z</time></trkpt><trkpt lat="36.9179654" lon="-3.6532118"><ele>815.0</ele><time>2026-03-07T15:06:44.99Z</time></trkpt><trkpt lat="36.918027" lon="-3.6533584"><ele>815.0</ele><time>2026-03-07T15:06:46.01Z</time></trkpt><trkpt lat="36.9180852" lon="-3.6534935"><ele>815.0</ele><time>2026-03-07T15:06:46.998Z</time></trkpt><trkpt lat="36.9181327" lon="-3.6536184"><ele>815.6</ele><time>2026-03-07T15:06:48.037Z</time></trkpt><trkpt lat="36.9181666" lon="-3.6537302"><ele>816.2</ele><time>2026-03-07T15:06:49.018Z</time></trkpt><trkpt lat="36.9181929" lon="-3.653848"><ele>816.8</ele><time>2026-03-07T15:06:49.994Z</time></trkpt><trkpt lat="36.9182026" lon="-3.6539944"><ele>817.4</ele><time>2026-03-07T15:06:50.994Z</time></trkpt><trkpt lat="36.9182116" lon="-3.6541511"><ele>818.0</ele><time>2026-03-07T15:06:52.013Z</time></trkpt><trkpt lat="36.9182266" lon="-3.6543054"><ele>819.25</ele><time>2026-03-07T15:06:53Z</time></trkpt><trkpt lat="36.9182306" lon="-3.654463"><ele>820.5</ele><time>2026-03-07T15:06:54.002Z</time></trkpt><trkpt lat="36.9182483" lon="-3.6546156"><ele>821.75</ele><time>2026-03-07T15:06:54.993Z</time></trkpt><trkpt lat="36.9182772" lon="-3.6547619"><ele>823.0</ele><time>2026-03-07T15:06:56.013Z</time></trkpt><trkpt lat="36.9182949" lon="-3.6548988"><ele>823.0</ele><time>2026-03-07T15:06:57.006Z</time></trkpt><trkpt lat="36.9182987" lon="-3.655033"><ele>823.0</ele><time>2026-03-07T15:06:58.026Z</time></trkpt><trkpt lat="36.9182905" lon="-3.6551786"><ele>823.0</ele><time>2026-03-07T15:06:58.999Z</time></trkpt><trkpt lat="36.918292" lon="-3.6553156"><ele>823.0</ele><time>2026-03-07T15:07:00.019Z</time></trkpt><trkpt lat="36.9182877" lon="-3.6554237"><ele>823.0</ele><time>2026-03-07T15:07:01.012Z</time></trkpt><trkpt lat="36.9182828" lon="-3.6555165"><ele>823.7142857142858</ele><time>2026-03-07T15:07:02.004Z</time></trkpt><trkpt lat="36.9182735" lon="-3.6555995"><ele>824.4285714285714</ele><time>2026-03-07T15:07:03.007Z</time></trkpt><trkpt lat="36.9182894" lon="-3.6557229"><ele>825.1428571428571</ele><time>2026-03-07T15:07:05.012Z</time></trkpt><trkpt lat="36.9183031" lon="-3.6557999"><ele>825.8571428571429</ele><time>2026-03-07T15:07:07.013Z</time></trkpt><trkpt lat="36.9183366" lon="-3.6558683"><ele>826.5714285714286</ele><time>2026-03-07T15:07:10Z</time></trkpt><trkpt lat="36.9183831" lon="-3.6559392"><ele>827.2857142857143</ele><time>2026-03-07T15:17:38.999Z</time></trkpt><trkpt lat="36.9184516" lon="-3.655986"><ele>828.0</ele><time>2026-03-07T15:17:43.001Z</time></trkpt><trkpt lat="36.9185391" lon="-3.6559417"><ele>832.8</ele><time>2026-03-07T15:17:44.997Z</time></trkpt><trkpt lat="36.9185934" lon="-3.6558798"><ele>837.5999999999999</ele><time>2026-03-07T15:17:45.994Z</time></trkpt><trkpt lat="36.918654" lon="-3.6557916"><ele>842.4000000000001</ele><time>2026-03-07T15:17:46.985Z</time></trkpt><trkpt lat="36.9187189" lon="-3.6556769"><ele>847.2</ele><time>2026-03-07T15:17:47.991Z</time></trkpt><trkpt lat="36.9187714" lon="-3.6555556"><ele>852.0</ele><time>2026-03-07T15:17:49Z</time></trkpt><trkpt lat="36.9188123" lon="-3.6554309"><ele>852.0</ele><time>2026-03-07T15:17:50.003Z</time></trkpt><trkpt lat="36.918846" lon="-3.6553065"><ele>852.0</ele><time>2026-03-07T15:17:50.997Z</time></trkpt><trkpt lat="36.9188635" lon="-3.6551755"><ele>852.0</ele><time>2026-03-07T15:17:51.988Z</time></trkpt><trkpt lat="36.9188811" lon="-3.6550386"><ele>852.0</ele><time>2026-03-07T15:17:53.012Z</time></trkpt><trkpt lat="36.9188952" lon="-3.6549004"><ele>852.0</ele><time>2026-03-07T15:17:53.995Z</time></trkpt><trkpt lat="36.9189034" lon="-3.6547649"><ele>852.0</ele><time>2026-03-07T15:17:55.001Z</time></trkpt><trkpt lat="36.9189046" lon="-3.6546441"><ele>852.0</ele><time>2026-03-07T15:17:56.001Z</time></trkpt><trkpt lat="36.9188984" lon="-3.6545346"><ele>852.0</ele><time>2026-03-07T15:17:56.992Z</time></trkpt><trkpt lat="36.918894" lon="-3.6544325"><ele>852.0</ele><time>2026-03-07T15:17:58.029Z</time></trkpt><trkpt lat="36.9188971" lon="-3.6543408"><ele>852.0</ele><time>2026-03-07T15:17:58.987Z</time></trkpt><trkpt lat="36.9189113" lon="-3.6542611"><ele>852.0</ele><time>2026-03-07T15:17:59.997Z</time></trkpt><trkpt lat="36.9189565" lon="-3.6541357"><ele>852.0</ele><time>2026-03-07T15:18:02Z</time></trkpt><trkpt lat="36.9189634" lon="-3.6540057"><ele>852.0</ele><time>2026-03-07T15:18:03.997Z</time></trkpt><trkpt lat="36.9189334" lon="-3.6539146"><ele>852.0</ele><time>2026-03-07T15:18:04.978Z</time></trkpt><trkpt lat="36.9188765" lon="-3.6538125"><ele>852.0</ele><time>2026-03-07T15:18:05.995Z</time></trkpt><trkpt lat="36.9188218" lon="-3.6536899"><ele>852.0</ele><time>2026-03-07T15:18:06.995Z</time></trkpt><trkpt lat="36.9187712" lon="-3.6535634"><ele>853.2</ele><time>2026-03-07T15:18:07.988Z</time></trkpt><trkpt lat="36.9187307" lon="-3.6534414"><ele>854.4000000000001</ele><time>2026-03-07T15:18:09.003Z</time></trkpt><trkpt lat="36.9186938" lon="-3.6533135"><ele>855.5999999999999</ele><time>2026-03-07T15:18:09.98Z</time></trkpt><trkpt lat="36.918662" lon="-3.6531788"><ele>856.8</ele><time>2026-03-07T15:18:10.992Z</time></trkpt><trkpt lat="36.9186361" lon="-3.6530406"><ele>858.0</ele><time>2026-03-07T15:18:11.998Z</time></trkpt><trkpt lat="36.918606" lon="-3.6529009"><ele>858.0</ele><time>2026-03-07T15:18:13.007Z</time></trkpt><trkpt lat="36.9185738" lon="-3.6527646"><ele>858.0</ele><time>2026-03-07T15:18:13.977Z</time></trkpt><trkpt lat="36.9185463" lon="-3.6526306"><ele>858.0</ele><time>2026-03-07T15:18:15.004Z</time></trkpt><trkpt lat="36.9185304" lon="-3.6524993"><ele>858.0</ele><time>2026-03-07T15:18:16.009Z</time></trkpt><trkpt lat="36.9185242" lon="-3.652363"><ele>858.0</ele><time>2026-03-07T15:18:17.011Z</time></trkpt><trkpt lat="36.9185254" lon="-3.652216"><ele>858.0</ele><time>2026-03-07T15:18:17.994Z</time></trkpt><trkpt lat="36.9185443" lon="-3.6520542"><ele>858.0</ele><time>2026-03-07T15:18:18.987Z</time></trkpt><trkpt lat="36.9185804" lon="-3.6518861"><ele>858.0</ele><time>2026-03-07T15:18:19.996Z</time></trkpt><trkpt lat="36.918624" lon="-3.6517156"><ele>858.0</ele><time>2026-03-07T15:18:20.986Z</time></trkpt><trkpt lat="36.9186685" lon="-3.651544"><ele>854.5</ele><time>2026-03-07T15:18:21.988Z</time></trkpt><trkpt lat="36.918708" lon="-3.6513789"><ele>851.0</ele><time>2026-03-07T15:18:23.001Z</time></trkpt><trkpt lat="36.9187581" lon="-3.6512329"><ele>847.5</ele><time>2026-03-07T15:18:24.006Z</time></trkpt><trkpt lat="36.9188083" lon="-3.6510923"><ele>844.0</ele><time>2026-03-07T15:18:24.982Z</time></trkpt><trkpt lat="36.9188581" lon="-3.6509462"><ele>839.25</ele><time>2026-03-07T15:18:25.989Z</time></trkpt><trkpt lat="36.9189055" lon="-3.6507944"><ele>834.5</ele><time>2026-03-07T15:18:27.001Z</time></trkpt><trkpt lat="36.9189673" lon="-3.6506541"><ele>829.75</ele><time>2026-03-07T15:18:28.006Z</time></trkpt><trkpt lat="36.919046" lon="-3.6505337"><ele>825.0</ele><time>2026-03-07T15:18:29.007Z</time></trkpt><trkpt lat="36.9191374" lon="-3.6504275"><ele>825.0</ele><time>2026-03-07T15:18:29.991Z</time></trkpt><trkpt lat="36.9192229" lon="-3.6503184"><ele>825.0</ele><time>2026-03-07T15:18:30.995Z</time></trkpt><trkpt lat="36.9193133" lon="-3.6502178"><ele>825.0</ele><time>2026-03-07T15:18:31.987Z</time></trkpt><trkpt lat="36.9194216" lon="-3.6501334"><ele>825.0</ele><time>2026-03-07T15:18:32.984Z</time></trkpt><trkpt lat="36.9195426" lon="-3.6500575"><ele>824.75</ele><time>2026-03-07T15:18:34.002Z</time></trkpt><trkpt lat="36.9196679" lon="-3.649978"><ele>824.5</ele><time>2026-03-07T15:18:35.007Z</time></trkpt><trkpt lat="36.919789" lon="-3.6498962"><ele>824.25</ele><time>2026-03-07T15:18:36.007Z</time></trkpt><trkpt lat="36.9199031" lon="-3.6498012"><ele>824.0</ele><time>2026-03-07T15:18:36.997Z</time></trkpt><trkpt lat="36.9200132" lon="-3.6497064"><ele>823.25</ele><time>2026-03-07T15:18:37.981Z</time></trkpt><trkpt lat="36.9201219" lon="-3.6496183"><ele>822.5</ele><time>2026-03-07T15:18:38.992Z</time></trkpt><trkpt lat="36.9202365" lon="-3.6495414"><ele>821.75</ele><time>2026-03-07T15:18:39.99Z</time></trkpt><trkpt lat="36.920359" lon="-3.6494838"><ele>821.0</ele><time>2026-03-07T15:18:40.989Z</time></trkpt><trkpt lat="36.9204742" lon="-3.6494273"><ele>821.0</ele><time>2026-03-07T15:18:41.993Z</time></trkpt><trkpt lat="36.920582" lon="-3.6493504"><ele>821.0</ele><time>2026-03-07T15:18:42.99Z</time></trkpt><trkpt lat="36.9206814" lon="-3.6492535"><ele>821.0</ele><time>2026-03-07T15:18:43.993Z</time></trkpt><trkpt lat="36.9207753" lon="-3.6491623"><ele>821.0</ele><time>2026-03-07T15:18:45.008Z</time></trkpt><trkpt lat="36.92086" lon="-3.6490724"><ele>827.25</ele><time>2026-03-07T15:18:45.998Z</time></trkpt><trkpt lat="36.9209326" lon="-3.6489803"><ele>833.5</ele><time>2026-03-07T15:18:46.987Z</time></trkpt><trkpt lat="36.9209899" lon="-3.6488611"><ele>839.75</ele><time>2026-03-07T15:18:47.992Z</time></trkpt><trkpt lat="36.9210352" lon="-3.6487102"><ele>846.0</ele><time>2026-03-07T15:18:48.989Z</time></trkpt><trkpt lat="36.9210641" lon="-3.6485459"><ele>846.0</ele><time>2026-03-07T15:18:49.989Z</time></trkpt><trkpt lat="36.921083" lon="-3.6483908"><ele>846.0</ele><time>2026-03-07T15:18:50.994Z</time></trkpt><trkpt lat="36.9211167" lon="-3.6482436"><ele>846.0</ele><time>2026-03-07T15:18:52.007Z</time></trkpt><trkpt lat="36.9211812" lon="-3.6481027"><ele>846.0</ele><time>2026-03-07T15:18:52.992Z</time></trkpt><trkpt lat="36.9212532" lon="-3.6479509"><ele>839.0</ele><time>2026-03-07T15:18:53.981Z</time></trkpt><trkpt lat="36.9213234" lon="-3.6477881"><ele>832.0</ele><time>2026-03-07T15:18:54.997Z</time></trkpt><trkpt lat="36.9213972" lon="-3.6476244"><ele>825.0</ele><time>2026-03-07T15:18:56.001Z</time></trkpt><trkpt lat="36.9214716" lon="-3.6474569"><ele>825.0</ele><time>2026-03-07T15:18:57.097Z</time></trkpt><trkpt lat="36.9215439" lon="-3.6472817"><ele>825.0</ele><time>2026-03-07T15:18:57.999Z</time></trkpt><trkpt lat="36.9216143" lon="-3.6471058"><ele>825.0</ele><time>2026-03-07T15:18:59.001Z</time></trkpt><trkpt lat="36.9216846" lon="-3.646933"><ele>835.3333333333333</ele><time>2026-03-07T15:18:59.998Z</time></trkpt><trkpt lat="36.9217585" lon="-3.6467646"><ele>845.6666666666666</ele><time>2026-03-07T15:19:00.991Z</time></trkpt><trkpt lat="36.9218433" lon="-3.646602"><ele>856.0</ele><time>2026-03-07T15:19:01.978Z</time></trkpt><trkpt lat="36.9219344" lon="-3.6464438"><ele>856.0</ele><time>2026-03-07T15:19:02.982Z</time></trkpt><trkpt lat="36.9220296" lon="-3.6462929"><ele>856.0</ele><time>2026-03-07T15:19:03.981Z</time></trkpt><trkpt lat="36.9221123" lon="-3.6461502"><ele>856.0</ele><time>2026-03-07T15:19:04.991Z</time></trkpt><trkpt lat="36.9221784" lon="-3.6460034"><ele>856.0</ele><time>2026-03-07T15:19:06.015Z</time></trkpt><trkpt lat="36.9222295" lon="-3.6458475"><ele>853.25</ele><time>2026-03-07T15:19:06.997Z</time></trkpt><trkpt lat="36.9222748" lon="-3.6456768"><ele>850.5</ele><time>2026-03-07T15:19:08.002Z</time></trkpt><trkpt lat="36.9223245" lon="-3.6454996"><ele>847.75</ele><time>2026-03-07T15:19:09.034Z</time></trkpt><trkpt lat="36.9223755" lon="-3.6453213"><ele>845.0</ele><time>2026-03-07T15:19:09.993Z</time></trkpt><trkpt lat="36.9224164" lon="-3.6451427"><ele>842.5</ele><time>2026-03-07T15:19:10.985Z</time></trkpt><trkpt lat="36.9224542" lon="-3.6449667"><ele>840.0</ele><time>2026-03-07T15:19:11.982Z</time></trkpt><trkpt lat="36.9224888" lon="-3.6447984"><ele>837.5</ele><time>2026-03-07T15:19:13.017Z</time></trkpt><trkpt lat="36.9225221" lon="-3.6446491"><ele>835.0</ele><time>2026-03-07T15:19:13.989Z</time></trkpt><trkpt lat="36.9225647" lon="-3.6445197"><ele>844.75</ele><time>2026-03-07T15:19:15.006Z</time></trkpt><trkpt lat="36.9226203" lon="-3.6443937"><ele>854.5</ele><time>2026-03-07T15:19:15.991Z</time></trkpt><trkpt lat="36.9227021" lon="-3.6442551"><ele>864.25</ele><time>2026-03-07T15:19:17Z</time></trkpt><trkpt lat="36.922795" lon="-3.6440999"><ele>874.0</ele><time>2026-03-07T15:19:18.019Z</time></trkpt><trkpt lat="36.9228994" lon="-3.6439471"><ele>874.0</ele><time>2026-03-07T15:19:18.983Z</time></trkpt><trkpt lat="36.9230065" lon="-3.6437922"><ele>874.0</ele><time>2026-03-07T15:19:19.987Z</time></trkpt><trkpt lat="36.9231004" lon="-3.6436382"><ele>874.0</ele><time>2026-03-07T15:19:20.984Z</time></trkpt><trkpt lat="36.9231875" lon="-3.643507"><ele>876.25</ele><time>2026-03-07T15:19:21.997Z</time></trkpt><trkpt lat="36.9232628" lon="-3.6433738"><ele>878.5</ele><time>2026-03-07T15:19:22.989Z</time></trkpt><trkpt lat="36.9233352" lon="-3.6432247"><ele>880.75</ele><time>2026-03-07T15:19:23.977Z</time></trkpt><trkpt lat="36.923412" lon="-3.6430668"><ele>883.0</ele><time>2026-03-07T15:19:25.011Z</time></trkpt><trkpt lat="36.9234717" lon="-3.6429081"><ele>878.75</ele><time>2026-03-07T15:19:26.009Z</time></trkpt><trkpt lat="36.9235174" lon="-3.6427569"><ele>874.5</ele><time>2026-03-07T15:19:26.991Z</time></trkpt><trkpt lat="36.9235486" lon="-3.6426184"><ele>870.25</ele><time>2026-03-07T15:19:27.997Z</time></trkpt><trkpt lat="36.9235764" lon="-3.6424846"><ele>866.0</ele><time>2026-03-07T15:19:29.003Z</time></trkpt><trkpt lat="36.9236043" lon="-3.6423519"><ele>866.0</ele><time>2026-03-07T15:19:30.002Z</time></trkpt><trkpt lat="36.9236365" lon="-3.6422061"><ele>866.0</ele><time>2026-03-07T15:19:30.992Z</time></trkpt><trkpt lat="36.9236626" lon="-3.6420512"><ele>866.0</ele><time>2026-03-07T15:19:32.002Z</time></trkpt><trkpt lat="36.9236967" lon="-3.6418931"><ele>866.0</ele><time>2026-03-07T15:19:32.993Z</time></trkpt><trkpt lat="36.9237369" lon="-3.6417322"><ele>860.75</ele><time>2026-03-07T15:19:34.007Z</time></trkpt><trkpt lat="36.9237812" lon="-3.6415693"><ele>855.5</ele><time>2026-03-07T15:19:35.002Z</time></trkpt><trkpt lat="36.9238301" lon="-3.6414074"><ele>850.25</ele><time>2026-03-07T15:19:35.993Z</time></trkpt><trkpt lat="36.9238928" lon="-3.6412514"><ele>845.0</ele><time>2026-03-07T15:19:36.998Z</time></trkpt><trkpt lat="36.9239446" lon="-3.6410944"><ele>841.0</ele><time>2026-03-07T15:19:37.988Z</time></trkpt><trkpt lat="36.9240067" lon="-3.6409347"><ele>837.0</ele><time>2026-03-07T15:19:39.004Z</time></trkpt><trkpt lat="36.9240676" lon="-3.640775"><ele>833.0</ele><time>2026-03-07T15:19:39.991Z</time></trkpt><trkpt lat="36.9241267" lon="-3.6406228"><ele>829.0</ele><time>2026-03-07T15:19:40.999Z</time></trkpt><trkpt lat="36.9241839" lon="-3.6404763"><ele>834.25</ele><time>2026-03-07T15:19:42.014Z</time></trkpt><trkpt lat="36.9242441" lon="-3.6403297"><ele>839.5</ele><time>2026-03-07T15:19:42.998Z</time></trkpt><trkpt lat="36.9243017" lon="-3.6401784"><ele>844.75</ele><time>2026-03-07T15:19:43.993Z</time></trkpt><trkpt lat="36.9243474" lon="-3.6400218"><ele>850.0</ele><time>2026-03-07T15:19:45.006Z</time></trkpt><trkpt lat="36.9243844" lon="-3.6398716"><ele>850.0</ele><time>2026-03-07T15:19:45.996Z</time></trkpt><trkpt lat="36.9244048" lon="-3.6397266"><ele>850.0</ele><time>2026-03-07T15:19:47.006Z</time></trkpt><trkpt lat="36.9244182" lon="-3.6395863"><ele>850.0</ele><time>2026-03-07T15:19:48Z</time></trkpt><trkpt lat="36.9244361" lon="-3.6394509"><ele>850.0</ele><time>2026-03-07T15:19:49.012Z</time></trkpt><trkpt lat="36.9244549" lon="-3.639322"><ele>850.0</ele><time>2026-03-07T15:19:49.991Z</time></trkpt><trkpt lat="36.92448" lon="-3.6391923"><ele>845.25</ele><time>2026-03-07T15:19:51.007Z</time></trkpt><trkpt lat="36.9245231" lon="-3.6390596"><ele>840.5</ele><time>2026-03-07T15:19:52.003Z</time></trkpt><trkpt lat="36.9245812" lon="-3.6389279"><ele>835.75</ele><time>2026-03-07T15:19:52.99Z</time></trkpt><trkpt lat="36.9246408" lon="-3.6387913"><ele>831.0</ele><time>2026-03-07T15:19:53.996Z</time></trkpt><trkpt lat="36.9247004" lon="-3.6386587"><ele>827.75</ele><time>2026-03-07T15:19:54.988Z</time></trkpt><trkpt lat="36.9247506" lon="-3.6385292"><ele>824.5</ele><time>2026-03-07T15:19:55.997Z</time></trkpt><trkpt lat="36.9248019" lon="-3.6384034"><ele>821.25</ele><time>2026-03-07T15:19:56.992Z</time></trkpt><trkpt lat="36.9248605" lon="-3.6382831"><ele>818.0</ele><time>2026-03-07T15:19:57.997Z</time></trkpt><trkpt lat="36.9249172" lon="-3.638164"><ele>818.0</ele><time>2026-03-07T15:19:58.989Z</time></trkpt><trkpt lat="36.9249685" lon="-3.6380413"><ele>818.0</ele><time>2026-03-07T15:19:59.998Z</time></trkpt><trkpt lat="36.925018" lon="-3.6379205"><ele>818.0</ele><time>2026-03-07T15:20:00.996Z</time></trkpt><trkpt lat="36.9250627" lon="-3.6377985"><ele>818.0</ele><time>2026-03-07T15:20:01.994Z</time></trkpt><trkpt lat="36.9251114" lon="-3.6376787"><ele>818.0</ele><time>2026-03-07T15:20:02.993Z</time></trkpt><trkpt lat="36.9251701" lon="-3.6375636"><ele>817.25</ele><time>2026-03-07T15:20:03.999Z</time></trkpt><trkpt lat="36.9252388" lon="-3.6374541"><ele>816.5</ele><time>2026-03-07T15:20:04.993Z</time></trkpt><trkpt lat="36.9253287" lon="-3.6373692"><ele>815.75</ele><time>2026-03-07T15:20:05.993Z</time></trkpt><trkpt lat="36.9254232" lon="-3.6372794"><ele>815.0</ele><time>2026-03-07T15:20:06.981Z</time></trkpt><trkpt lat="36.9255206" lon="-3.6371918"><ele>815.0</ele><time>2026-03-07T15:20:07.997Z</time></trkpt><trkpt lat="36.9256148" lon="-3.6370956"><ele>815.0</ele><time>2026-03-07T15:20:09.005Z</time></trkpt><trkpt lat="36.9257015" lon="-3.6369937"><ele>815.0</ele><time>2026-03-07T15:20:10.021Z</time></trkpt><trkpt lat="36.9257817" lon="-3.6368852"><ele>815.0</ele><time>2026-03-07T15:20:10.981Z</time></trkpt><trkpt lat="36.9258634" lon="-3.6367726"><ele>814.25</ele><time>2026-03-07T15:20:11.991Z</time></trkpt><trkpt lat="36.9259235" lon="-3.636643"><ele>813.5</ele><time>2026-03-07T15:20:12.996Z</time></trkpt><trkpt lat="36.9259688" lon="-3.6365084"><ele>812.75</ele><time>2026-03-07T15:20:13.986Z</time></trkpt><trkpt lat="36.9259918" lon="-3.6363706"><ele>812.0</ele><time>2026-03-07T15:20:14.988Z</time></trkpt><trkpt lat="36.9259985" lon="-3.6362383"><ele>809.4000000000001</ele><time>2026-03-07T15:20:15.987Z</time></trkpt><trkpt lat="36.9260115" lon="-3.6361146"><ele>806.8000000000001</ele><time>2026-03-07T15:20:16.977Z</time></trkpt><trkpt lat="36.9260344" lon="-3.6360059"><ele>804.2</ele><time>2026-03-07T15:20:18.007Z</time></trkpt><trkpt lat="36.9260756" lon="-3.6359051"><ele>801.6</ele><time>2026-03-07T15:20:19.023Z</time></trkpt><trkpt lat="36.9261332" lon="-3.6358041"><ele>799.0</ele><time>2026-03-07T15:20:20.002Z</time></trkpt><trkpt lat="36.9262037" lon="-3.6357135"><ele>799.0</ele><time>2026-03-07T15:20:20.999Z</time></trkpt><trkpt lat="36.9262867" lon="-3.6356422"><ele>799.0</ele><time>2026-03-07T15:20:21.998Z</time></trkpt><trkpt lat="36.9263714" lon="-3.6355831"><ele>799.0</ele><time>2026-03-07T15:20:22.998Z</time></trkpt><trkpt lat="36.926475" lon="-3.6355618"><ele>799.0</ele><time>2026-03-07T15:20:23.994Z</time></trkpt><trkpt lat="36.9265868" lon="-3.6356003"><ele>799.0</ele><time>2026-03-07T15:20:24.997Z</time></trkpt><trkpt lat="36.9266915" lon="-3.6356327"><ele>800.2</ele><time>2026-03-07T15:20:25.995Z</time></trkpt><trkpt lat="36.9267884" lon="-3.6356447"><ele>801.4000000000001</ele><time>2026-03-07T15:20:26.998Z</time></trkpt><trkpt lat="36.9268812" lon="-3.6356303"><ele>802.6</ele><time>2026-03-07T15:20:28Z</time></trkpt><trkpt lat="36.926975" lon="-3.6355877"><ele>803.8</ele><time>2026-03-07T15:20:29Z</time></trkpt><trkpt lat="36.9270701" lon="-3.6355169"><ele>805.0</ele><time>2026-03-07T15:20:29.984Z</time></trkpt><trkpt lat="36.9271707" lon="-3.6354393"><ele>805.0</ele><time>2026-03-07T15:20:30.991Z</time></trkpt><trkpt lat="36.9272744" lon="-3.6353612"><ele>805.0</ele><time>2026-03-07T15:20:32.001Z</time></trkpt><trkpt lat="36.92738" lon="-3.6352909"><ele>805.0</ele><time>2026-03-07T15:20:32.981Z</time></trkpt><trkpt lat="36.9274862" lon="-3.635229"><ele>805.0</ele><time>2026-03-07T15:20:34.003Z</time></trkpt><trkpt lat="36.9275916" lon="-3.6351745"><ele>804.0</ele><time>2026-03-07T15:20:34.997Z</time></trkpt><trkpt lat="36.9276955" lon="-3.635116"><ele>803.0</ele><time>2026-03-07T15:20:35.989Z</time></trkpt><trkpt lat="36.9278089" lon="-3.6350793"><ele>802.0</ele><time>2026-03-07T15:20:36.977Z</time></trkpt><trkpt lat="36.9279216" lon="-3.6350512"><ele>801.0</ele><time>2026-03-07T15:20:37.989Z</time></trkpt><trkpt lat="36.9280305" lon="-3.635031"><ele>801.0</ele><time>2026-03-07T15:20:39.01Z</time></trkpt><trkpt lat="36.9281339" lon="-3.6350209"><ele>801.0</ele><time>2026-03-07T15:20:40.004Z</time></trkpt><trkpt lat="36.9282261" lon="-3.6350126"><ele>801.0</ele><time>2026-03-07T15:20:40.99Z</time></trkpt><trkpt lat="36.9283092" lon="-3.635"><ele>801.0</ele><time>2026-03-07T15:20:41.996Z</time></trkpt><trkpt lat="36.9283863" lon="-3.6349489"><ele>801.0</ele><time>2026-03-07T15:20:43Z</time></trkpt><trkpt lat="36.9284547" lon="-3.6348572"><ele>804.25</ele><time>2026-03-07T15:20:44.002Z</time></trkpt><trkpt lat="36.9285243" lon="-3.634755"><ele>807.5</ele><time>2026-03-07T15:20:44.987Z</time></trkpt><trkpt lat="36.928603" lon="-3.634661"><ele>810.75</ele><time>2026-03-07T15:20:45.998Z</time></trkpt><trkpt lat="36.9286929" lon="-3.6345705"><ele>814.0</ele><time>2026-03-07T15:20:46.982Z</time></trkpt><trkpt lat="36.9287939" lon="-3.6344894"><ele>813.25</ele><time>2026-03-07T15:20:47.997Z</time></trkpt><trkpt lat="36.9288956" lon="-3.6344177"><ele>812.5</ele><time>2026-03-07T15:20:49Z</time></trkpt><trkpt lat="36.9290034" lon="-3.63436"><ele>811.75</ele><time>2026-03-07T15:20:49.999Z</time></trkpt><trkpt lat="36.9291172" lon="-3.6343079"><ele>811.0</ele><time>2026-03-07T15:20:50.996Z</time></trkpt><trkpt lat="36.9292301" lon="-3.6342464"><ele>811.0</ele><time>2026-03-07T15:20:51.998Z</time></trkpt><trkpt lat="36.9293444" lon="-3.634194"><ele>811.0</ele><time>2026-03-07T15:20:52.994Z</time></trkpt><trkpt lat="36.9294594" lon="-3.6341404"><ele>811.0</ele><time>2026-03-07T15:20:53.997Z</time></trkpt><trkpt lat="36.9295722" lon="-3.6340858"><ele>811.0</ele><time>2026-03-07T15:20:54.991Z</time></trkpt><trkpt lat="36.9296826" lon="-3.6340247"><ele>811.0</ele><time>2026-03-07T15:20:56.005Z</time></trkpt><trkpt lat="36.9297909" lon="-3.6339496"><ele>811.0</ele><time>2026-03-07T15:20:57.001Z</time></trkpt><trkpt lat="36.9298943" lon="-3.6338644"><ele>811.0</ele><time>2026-03-07T15:20:57.993Z</time></trkpt><trkpt lat="36.9299868" lon="-3.6337694"><ele>811.0</ele><time>2026-03-07T15:20:58.99Z</time></trkpt><trkpt lat="36.9300721" lon="-3.633664"><ele>811.5</ele><time>2026-03-07T15:20:59.982Z</time></trkpt><trkpt lat="36.930145" lon="-3.6335378"><ele>812.0</ele><time>2026-03-07T15:21:00.996Z</time></trkpt><trkpt lat="36.9302141" lon="-3.6334063"><ele>812.5</ele><time>2026-03-07T15:21:02Z</time></trkpt><trkpt lat="36.9302776" lon="-3.6332791"><ele>813.0</ele><time>2026-03-07T15:21:02.994Z</time></trkpt><trkpt lat="36.9303396" lon="-3.6331639"><ele>813.0</ele><time>2026-03-07T15:21:04.009Z</time></trkpt><trkpt lat="36.9304129" lon="-3.633054"><ele>813.0</ele><time>2026-03-07T15:21:04.992Z</time></trkpt><trkpt lat="36.9305053" lon="-3.6329486"><ele>813.0</ele><time>2026-03-07T15:21:05.985Z</time></trkpt><trkpt lat="36.9306035" lon="-3.632848"><ele>813.0</ele><time>2026-03-07T15:21:06.995Z</time></trkpt><trkpt lat="36.9307035" lon="-3.6327505"><ele>812.0</ele><time>2026-03-07T15:21:07.986Z</time></trkpt><trkpt lat="36.9307979" lon="-3.6326558"><ele>811.0</ele><time>2026-03-07T15:21:09.022Z</time></trkpt><trkpt lat="36.9308831" lon="-3.6325612"><ele>810.0</ele><time>2026-03-07T15:21:10.002Z</time></trkpt><trkpt lat="36.9309565" lon="-3.6324593"><ele>809.0</ele><time>2026-03-07T15:21:10.995Z</time></trkpt><trkpt lat="36.9310118" lon="-3.6323424"><ele>809.0</ele><time>2026-03-07T15:21:12.009Z</time></trkpt><trkpt lat="36.9310601" lon="-3.632216"><ele>809.0</ele><time>2026-03-07T15:21:13.002Z</time></trkpt><trkpt lat="36.9311074" lon="-3.6320833"><ele>809.0</ele><time>2026-03-07T15:21:13.999Z</time></trkpt><trkpt lat="36.9311415" lon="-3.6319362"><ele>809.0</ele><time>2026-03-07T15:21:15.113Z</time></trkpt><trkpt lat="36.9312255" lon="-3.6316363"><ele>809.0</ele><time>2026-03-07T15:21:16.998Z</time></trkpt><trkpt lat="36.9312806" lon="-3.6314952"><ele>809.0</ele><time>2026-03-07T15:21:18.01Z</time></trkpt><trkpt lat="36.9313447" lon="-3.6313618"><ele>809.0</ele><time>2026-03-07T15:21:18.999Z</time></trkpt><trkpt lat="36.9314069" lon="-3.6312332"><ele>809.0</ele><time>2026-03-07T15:21:20.011Z</time></trkpt><trkpt lat="36.9314616" lon="-3.631107"><ele>809.0</ele><time>2026-03-07T15:21:20.992Z</time></trkpt><trkpt lat="36.9315163" lon="-3.6309955"><ele>809.0</ele><time>2026-03-07T15:21:22.007Z</time></trkpt><trkpt lat="36.9315798" lon="-3.6309034"><ele>809.0</ele><time>2026-03-07T15:21:22.997Z</time></trkpt><trkpt lat="36.9316615" lon="-3.6308268"><ele>809.0</ele><time>2026-03-07T15:21:23.988Z</time></trkpt><trkpt lat="36.9317599" lon="-3.6307716"><ele>809.0</ele><time>2026-03-07T15:21:24.997Z</time></trkpt><trkpt lat="36.9318537" lon="-3.6307197"><ele>809.8000000000001</ele><time>2026-03-07T15:21:25.998Z</time></trkpt><trkpt lat="36.9319298" lon="-3.6306561"><ele>810.6</ele><time>2026-03-07T15:21:27.004Z</time></trkpt><trkpt lat="36.93199" lon="-3.6305662"><ele>811.4</ele><time>2026-03-07T15:21:28.01Z</time></trkpt><trkpt lat="36.9320393" lon="-3.6304516"><ele>812.2</ele><time>2026-03-07T15:21:28.994Z</time></trkpt><trkpt lat="36.9320712" lon="-3.6303156"><ele>813.0</ele><time>2026-03-07T15:21:29.999Z</time></trkpt><trkpt lat="36.932101" lon="-3.6301727"><ele>813.0</ele><time>2026-03-07T15:21:30.993Z</time></trkpt><trkpt lat="36.9321333" lon="-3.6300242"><ele>813.0</ele><time>2026-03-07T15:21:31.983Z</time></trkpt><trkpt lat="36.9321708" lon="-3.6298746"><ele>813.0</ele><time>2026-03-07T15:21:33.001Z</time></trkpt><trkpt lat="36.9322104" lon="-3.6297259"><ele>813.0</ele><time>2026-03-07T15:21:34.007Z</time></trkpt><trkpt lat="36.9322467" lon="-3.6295784"><ele>813.2</ele><time>2026-03-07T15:21:35.011Z</time></trkpt><trkpt lat="36.9322809" lon="-3.6294388"><ele>813.4</ele><time>2026-03-07T15:21:35.992Z</time></trkpt><trkpt lat="36.932314" lon="-3.629313"><ele>813.6</ele><time>2026-03-07T15:21:37.008Z</time></trkpt><trkpt lat="36.932344" lon="-3.6291993"><ele>813.8000000000001</ele><time>2026-03-07T15:21:38.006Z</time></trkpt><trkpt lat="36.9323627" lon="-3.6291018"><ele>814.0</ele><time>2026-03-07T15:21:38.996Z</time></trkpt><trkpt lat="36.9323959" lon="-3.6289724"><ele>814.0</ele><time>2026-03-07T15:21:41.001Z</time></trkpt><trkpt lat="36.9324589" lon="-3.6289554"><ele>814.0</ele><time>2026-03-07T15:21:43.009Z</time></trkpt><trkpt lat="36.9325425" lon="-3.6291013"><ele>814.0</ele><time>2026-03-07T15:21:45.008Z</time></trkpt><trkpt lat="36.9325886" lon="-3.6292149"><ele>814.0</ele><time>2026-03-07T15:21:46.001Z</time></trkpt><trkpt lat="36.9326475" lon="-3.629336"><ele>814.0</ele><time>2026-03-07T15:21:47.001Z</time></trkpt><trkpt lat="36.9327134" lon="-3.6294513"><ele>812.25</ele><time>2026-03-07T15:21:48.026Z</time></trkpt><trkpt lat="36.9327861" lon="-3.6295644"><ele>810.5</ele><time>2026-03-07T15:21:49.002Z</time></trkpt><trkpt lat="36.9328507" lon="-3.6296718"><ele>808.75</ele><time>2026-03-07T15:21:50.004Z</time></trkpt><trkpt lat="36.9329236" lon="-3.6297827"><ele>807.0</ele><time>2026-03-07T15:21:51.003Z</time></trkpt><trkpt lat="36.9329838" lon="-3.6299101"><ele>807.0</ele><time>2026-03-07T15:21:52.006Z</time></trkpt><trkpt lat="36.933036" lon="-3.6300407"><ele>807.0</ele><time>2026-03-07T15:21:52.998Z</time></trkpt><trkpt lat="36.9330822" lon="-3.6301624"><ele>807.0</ele><time>2026-03-07T15:21:53.986Z</time></trkpt><trkpt lat="36.9331259" lon="-3.6302709"><ele>807.0</ele><time>2026-03-07T15:21:55.009Z</time></trkpt><trkpt lat="36.9331702" lon="-3.6303764"><ele>807.0</ele><time>2026-03-07T15:21:56.003Z</time></trkpt><trkpt lat="36.9332158" lon="-3.6304736"><ele>806.1666666666666</ele><time>2026-03-07T15:21:56.997Z</time></trkpt><trkpt lat="36.9332646" lon="-3.6305674"><ele>805.3333333333333</ele><time>2026-03-07T15:21:58.002Z</time></trkpt><trkpt lat="36.9333197" lon="-3.6306578"><ele>804.5</ele><time>2026-03-07T15:21:58.999Z</time></trkpt><trkpt lat="36.9333833" lon="-3.6307404"><ele>803.6666666666666</ele><time>2026-03-07T15:21:59.996Z</time></trkpt><trkpt lat="36.9334451" lon="-3.6308184"><ele>802.8333333333333</ele><time>2026-03-07T15:22:01.03Z</time></trkpt><trkpt lat="36.9334994" lon="-3.6308897"><ele>802.0</ele><time>2026-03-07T15:22:02.007Z</time></trkpt><trkpt lat="36.9335424" lon="-3.6309614"><ele>798.1666666666666</ele><time>2026-03-07T15:22:02.994Z</time></trkpt><trkpt lat="36.9335779" lon="-3.6310311"><ele>794.3333333333333</ele><time>2026-03-07T15:22:04.004Z</time></trkpt><trkpt lat="36.933592" lon="-3.6311083"><ele>790.5</ele><time>2026-03-07T15:22:04.997Z</time></trkpt><trkpt lat="36.9335743" lon="-3.631243"><ele>786.6666666666667</ele><time>2026-03-07T15:22:06.992Z</time></trkpt><trkpt lat="36.9335234" lon="-3.631296"><ele>782.8333333333334</ele><time>2026-03-07T15:22:07.998Z</time></trkpt><trkpt lat="36.9334362" lon="-3.6313338"><ele>779.0</ele><time>2026-03-07T15:22:09.01Z</time></trkpt><trkpt lat="36.9333387" lon="-3.6313845"><ele>779.0</ele><time>2026-03-07T15:22:10.02Z</time></trkpt><trkpt lat="36.9332323" lon="-3.6314402"><ele>779.0</ele><time>2026-03-07T15:22:11.001Z</time></trkpt><trkpt lat="36.9331455" lon="-3.6314967"><ele>779.0</ele><time>2026-03-07T15:22:11.998Z</time></trkpt><trkpt lat="36.9330745" lon="-3.6315591"><ele>779.0</ele><time>2026-03-07T15:22:13.002Z</time></trkpt><trkpt lat="36.9330183" lon="-3.6316339"><ele>779.0</ele><time>2026-03-07T15:22:14Z</time></trkpt><trkpt lat="36.9329699" lon="-3.631727"><ele>779.0</ele><time>2026-03-07T15:22:14.992Z</time></trkpt><trkpt lat="36.9329368" lon="-3.6318251"><ele>779.0</ele><time>2026-03-07T15:22:16.002Z</time></trkpt><trkpt lat="36.9329035" lon="-3.6319327"><ele>779.0</ele><time>2026-03-07T15:22:16.996Z</time></trkpt><trkpt lat="36.9328684" lon="-3.6320461"><ele>779.0</ele><time>2026-03-07T15:22:18.002Z</time></trkpt><trkpt lat="36.932837" lon="-3.6321612"><ele>779.0</ele><time>2026-03-07T15:22:18.985Z</time></trkpt><trkpt lat="36.9328079" lon="-3.6322705"><ele>777.6666666666667</ele><time>2026-03-07T15:22:19.998Z</time></trkpt><trkpt lat="36.9327795" lon="-3.6323659"><ele>776.3333333333334</ele><time>2026-03-07T15:22:20.991Z</time></trkpt><trkpt lat="36.9327485" lon="-3.632458"><ele>775.0</ele><time>2026-03-07T15:22:21.992Z</time></trkpt><trkpt lat="36.9327061" lon="-3.6325466"><ele>773.6666666666667</ele><time>2026-03-07T15:22:22.999Z</time></trkpt><trkpt lat="36.9326593" lon="-3.6326377"><ele>772.3333333333334</ele><time>2026-03-07T15:22:24.002Z</time></trkpt><trkpt lat="36.9326302" lon="-3.6327465"><ele>771.0</ele><time>2026-03-07T15:22:24.993Z</time></trkpt><trkpt lat="36.9326033" lon="-3.6328623"><ele>771.0</ele><time>2026-03-07T15:22:25.994Z</time></trkpt><trkpt lat="36.9325674" lon="-3.6329671"><ele>771.0</ele><time>2026-03-07T15:22:27.015Z</time></trkpt><trkpt lat="36.9325261" lon="-3.6330562"><ele>771.0</ele><time>2026-03-07T15:22:28.001Z</time></trkpt><trkpt lat="36.9324841" lon="-3.6331319"><ele>771.0</ele><time>2026-03-07T15:22:28.993Z</time></trkpt><trkpt lat="36.9324508" lon="-3.6332661"><ele>771.0</ele><time>2026-03-07T15:22:31Z</time></trkpt><trkpt lat="36.932499" lon="-3.6333747"><ele>771.0</ele><time>2026-03-07T15:22:32.995Z</time></trkpt><trkpt lat="36.9326244" lon="-3.6333688"><ele>771.0</ele><time>2026-03-07T15:22:34.999Z</time></trkpt><trkpt lat="36.9326885" lon="-3.6333434"><ele>771.0</ele><time>2026-03-07T15:22:36.004Z</time></trkpt><trkpt lat="36.9327738" lon="-3.6333659"><ele>771.0</ele><time>2026-03-07T15:22:37.995Z</time></trkpt><trkpt lat="36.9328083" lon="-3.6334811"><ele>771.0</ele><time>2026-03-07T15:22:41.011Z</time></trkpt><trkpt lat="36.9328756" lon="-3.633554"><ele>771.0</ele><time>2026-03-07T15:22:42.996Z</time></trkpt><trkpt lat="36.9329472" lon="-3.6335091"><ele>771.0</ele><time>2026-03-07T15:22:45.008Z</time></trkpt><trkpt lat="36.9330421" lon="-3.6335373"><ele>771.0</ele><time>2026-03-07T15:22:46.994Z</time></trkpt><trkpt lat="36.9331628" lon="-3.633594"><ele>771.0</ele><time>2026-03-07T15:22:49.001Z</time></trkpt><trkpt lat="36.9332414" lon="-3.6336134"><ele>771.0</ele><time>2026-03-07T15:22:50.01Z</time></trkpt><trkpt lat="36.9333195" lon="-3.6336163"><ele>771.0</ele><time>2026-03-07T15:22:51.018Z</time></trkpt><trkpt lat="36.9333855" lon="-3.6336339"><ele>771.0</ele><time>2026-03-07T15:22:51.998Z</time></trkpt><trkpt lat="36.9334458" lon="-3.633689"><ele>771.0</ele><time>2026-03-07T15:22:53.002Z</time></trkpt><trkpt lat="36.9334865" lon="-3.63377"><ele>771.0</ele><time>2026-03-07T15:22:54.006Z</time></trkpt><trkpt lat="36.9334994" lon="-3.633859"><ele>771.0</ele><time>2026-03-07T15:22:55.002Z</time></trkpt><trkpt lat="36.9335157" lon="-3.6339417"><ele>771.0</ele><time>2026-03-07T15:22:56.006Z</time></trkpt><trkpt lat="36.9335868" lon="-3.6340674"><ele>772.1666666666666</ele><time>2026-03-07T15:22:58.008Z</time></trkpt><trkpt lat="36.9336417" lon="-3.6341118"><ele>773.3333333333333</ele><time>2026-03-07T15:22:59.006Z</time></trkpt><trkpt lat="36.9337074" lon="-3.6341492"><ele>774.5</ele><time>2026-03-07T15:22:59.999Z</time></trkpt><trkpt lat="36.9337699" lon="-3.6341708"><ele>775.6666666666666</ele><time>2026-03-07T15:23:00.998Z</time></trkpt><trkpt lat="36.9338826" lon="-3.6342308"><ele>776.8333333333333</ele><time>2026-03-07T15:23:02.995Z</time></trkpt><trkpt lat="36.9339345" lon="-3.6342806"><ele>778.0</ele><time>2026-03-07T15:23:03.986Z</time></trkpt><trkpt lat="36.9339877" lon="-3.6343417"><ele>777.9999999999999</ele><time>2026-03-07T15:23:04.992Z</time></trkpt><trkpt lat="36.9340359" lon="-3.6344175"><ele>778.0</ele><time>2026-03-07T15:23:06.002Z</time></trkpt><trkpt lat="36.9340815" lon="-3.63451"><ele>778.0</ele><time>2026-03-07T15:23:06.999Z</time></trkpt><trkpt lat="36.9341186" lon="-3.6346066"><ele>778.0</ele><time>2026-03-07T15:23:07.996Z</time></trkpt><trkpt lat="36.9341403" lon="-3.6347065"><ele>777.9999999999999</ele><time>2026-03-07T15:23:09.007Z</time></trkpt><trkpt lat="36.9341549" lon="-3.6348056"><ele>778.0</ele><time>2026-03-07T15:23:09.999Z</time></trkpt><trkpt lat="36.9341765" lon="-3.6348816"><ele>780.3333333333333</ele><time>2026-03-07T15:23:10.998Z</time></trkpt><trkpt lat="36.934251" lon="-3.6349728"><ele>782.6666666666666</ele><time>2026-03-07T15:23:13.002Z</time></trkpt><trkpt lat="36.9343167" lon="-3.6349908"><ele>785.0</ele><time>2026-03-07T15:23:14Z</time></trkpt><trkpt lat="36.934404" lon="-3.6349886"><ele>787.3333333333333</ele><time>2026-03-07T15:23:15.01Z</time></trkpt><trkpt lat="36.93448" lon="-3.6349924"><ele>789.6666666666666</ele><time>2026-03-07T15:23:16.002Z</time></trkpt><trkpt lat="36.9345568" lon="-3.6350717"><ele>792.0</ele><time>2026-03-07T15:23:18Z</time></trkpt><trkpt lat="36.9345813" lon="-3.6351999"><ele>792.0</ele><time>2026-03-07T15:23:20.008Z</time></trkpt><trkpt lat="36.9346559" lon="-3.6351599"><ele>792.0</ele><time>2026-03-07T15:23:23.005Z</time></trkpt><trkpt lat="36.9346663" lon="-3.6350622"><ele>792.0</ele><time>2026-03-07T15:23:24.001Z</time></trkpt><trkpt lat="36.9346903" lon="-3.6349586"><ele>792.0</ele><time>2026-03-07T15:23:24.996Z</time></trkpt><trkpt lat="36.9347391" lon="-3.6348793"><ele>792.0</ele><time>2026-03-07T15:23:25.995Z</time></trkpt><trkpt lat="36.9347897" lon="-3.6348181"><ele>792.0</ele><time>2026-03-07T15:23:26.994Z</time></trkpt><trkpt lat="36.9349144" lon="-3.6347923"><ele>792.0</ele><time>2026-03-07T15:23:29.007Z</time></trkpt><trkpt lat="36.93499" lon="-3.6347901"><ele>792.0</ele><time>2026-03-07T15:23:30.002Z</time></trkpt><trkpt lat="36.9350648" lon="-3.6347673"><ele>792.0</ele><time>2026-03-07T15:23:30.994Z</time></trkpt><trkpt lat="36.9351381" lon="-3.634736"><ele>792.0</ele><time>2026-03-07T15:23:31.993Z</time></trkpt><trkpt lat="36.935215" lon="-3.6347029"><ele>792.0</ele><time>2026-03-07T15:23:32.999Z</time></trkpt><trkpt lat="36.9352873" lon="-3.6346607"><ele>792.0</ele><time>2026-03-07T15:23:33.999Z</time></trkpt><trkpt lat="36.9353528" lon="-3.6346152"><ele>792.6666666666666</ele><time>2026-03-07T15:23:34.997Z</time></trkpt><trkpt lat="36.935414" lon="-3.6345683"><ele>793.3333333333333</ele><time>2026-03-07T15:23:36Z</time></trkpt><trkpt lat="36.9354787" lon="-3.6345303"><ele>794.0</ele><time>2026-03-07T15:23:36.999Z</time></trkpt><trkpt lat="36.9355362" lon="-3.6344728"><ele>794.6666666666666</ele><time>2026-03-07T15:23:37.993Z</time></trkpt><trkpt lat="36.9355977" lon="-3.6344047"><ele>795.3333333333333</ele><time>2026-03-07T15:23:39.011Z</time></trkpt><trkpt lat="36.9356577" lon="-3.6343271"><ele>796.0</ele><time>2026-03-07T15:23:40.008Z</time></trkpt><trkpt lat="36.935716" lon="-3.6342558"><ele>794.6666666666666</ele><time>2026-03-07T15:23:41.019Z</time></trkpt><trkpt lat="36.9357728" lon="-3.6341894"><ele>793.3333333333333</ele><time>2026-03-07T15:23:42.013Z</time></trkpt><trkpt lat="36.9358234" lon="-3.6341219"><ele>792.0</ele><time>2026-03-07T15:23:43.011Z</time></trkpt><trkpt lat="36.9358697" lon="-3.6340681"><ele>790.6666666666667</ele><time>2026-03-07T15:23:43.998Z</time></trkpt><trkpt lat="36.9359533" lon="-3.6340142"><ele>789.3333333333334</ele><time>2026-03-07T15:23:46.005Z</time></trkpt><trkpt lat="36.9360576" lon="-3.6340708"><ele>788.0</ele><time>2026-03-07T15:23:47.996Z</time></trkpt><trkpt lat="36.9361256" lon="-3.6341458"><ele>788.3333333333334</ele><time>2026-03-07T15:23:48.999Z</time></trkpt><trkpt lat="36.9362" lon="-3.6342262"><ele>788.6666666666667</ele><time>2026-03-07T15:23:49.987Z</time></trkpt><trkpt lat="36.9362778" lon="-3.6343029"><ele>789.0</ele><time>2026-03-07T15:23:51.006Z</time></trkpt><trkpt lat="36.9363508" lon="-3.6343618"><ele>789.3333333333333</ele><time>2026-03-07T15:23:52.015Z</time></trkpt><trkpt lat="36.9364165" lon="-3.6344151"><ele>789.6666666666666</ele><time>2026-03-07T15:23:53.014Z</time></trkpt><trkpt lat="36.9364808" lon="-3.6344566"><ele>790.0</ele><time>2026-03-07T15:23:54.02Z</time></trkpt><trkpt lat="36.9365886" lon="-3.6345126"><ele>790.0</ele><time>2026-03-07T15:23:55.995Z</time></trkpt><trkpt lat="36.9366773" lon="-3.6345518"><ele>790.0</ele><time>2026-03-07T15:23:58.015Z</time></trkpt><trkpt lat="36.9366409" lon="-3.6346418"><ele>790.0</ele><time>2026-03-07T15:24:36.014Z</time></trkpt><trkpt lat="36.9365758" lon="-3.634567"><ele>790.0</ele><time>2026-03-07T15:24:38.01Z</time></trkpt><trkpt lat="36.9364802" lon="-3.6345083"><ele>790.0</ele><time>2026-03-07T15:24:38.983Z</time></trkpt><trkpt lat="36.9363653" lon="-3.6344346"><ele>787.8</ele><time>2026-03-07T15:24:40.005Z</time></trkpt><trkpt lat="36.9362624" lon="-3.6343529"><ele>785.6</ele><time>2026-03-07T15:24:41.014Z</time></trkpt><trkpt lat="36.9361802" lon="-3.634275"><ele>783.4000000000001</ele><time>2026-03-07T15:24:42.005Z</time></trkpt><trkpt lat="36.9361089" lon="-3.6341984"><ele>781.2</ele><time>2026-03-07T15:24:43.008Z</time></trkpt><trkpt lat="36.9360583" lon="-3.6341399"><ele>779.0</ele><time>2026-03-07T15:24:44Z</time></trkpt><trkpt lat="36.9359692" lon="-3.6340393"><ele>779.0000000000001</ele><time>2026-03-07T15:24:46.008Z</time></trkpt><trkpt lat="36.9359017" lon="-3.6339537"><ele>779.0</ele><time>2026-03-07T15:24:47.997Z</time></trkpt><trkpt lat="36.9359035" lon="-3.6338544"><ele>779.0</ele><time>2026-03-07T15:24:50.006Z</time></trkpt><trkpt lat="36.9359467" lon="-3.6337932"><ele>779.0</ele><time>2026-03-07T15:24:51.977Z</time></trkpt><trkpt lat="36.9360519" lon="-3.6338069"><ele>779.0000000000001</ele><time>2026-03-07T15:24:54.058Z</time></trkpt><trkpt lat="36.9361191" lon="-3.633826"><ele>779.0</ele><time>2026-03-07T15:24:55.001Z</time></trkpt><trkpt lat="36.9361916" lon="-3.6338592"><ele>779.0000000000001</ele><time>2026-03-07T15:24:56.012Z</time></trkpt><trkpt lat="36.9362685" lon="-3.6338999"><ele>779.0</ele><time>2026-03-07T15:24:57.038Z</time></trkpt><trkpt lat="36.9363347" lon="-3.6339483"><ele>779.0</ele><time>2026-03-07T15:24:58.044Z</time></trkpt><trkpt lat="36.9364031" lon="-3.6339984"><ele>779.0</ele><time>2026-03-07T15:24:58.989Z</time></trkpt><trkpt lat="36.9364675" lon="-3.634042"><ele>779.0</ele><time>2026-03-07T15:25:00.02Z</time></trkpt><trkpt lat="36.936529" lon="-3.6340813"><ele>779.0000000000001</ele><time>2026-03-07T15:25:01.014Z</time></trkpt><trkpt lat="36.9365934" lon="-3.6341029"><ele>779.0</ele><time>2026-03-07T15:25:02.007Z</time></trkpt><trkpt lat="36.9366562" lon="-3.6341174"><ele>779.0</ele><time>2026-03-07T15:25:03.011Z</time></trkpt><trkpt lat="36.9367822" lon="-3.6341241"><ele>779.0</ele><time>2026-03-07T15:25:04.994Z</time></trkpt><trkpt lat="36.9368462" lon="-3.6341092"><ele>779.0</ele><time>2026-03-07T15:25:05.991Z</time></trkpt><trkpt lat="36.9369094" lon="-3.6341019"><ele>779.0</ele><time>2026-03-07T15:25:06.996Z</time></trkpt><trkpt lat="36.9370146" lon="-3.634128"><ele>779.0</ele><time>2026-03-07T15:25:09.003Z</time></trkpt><trkpt lat="36.9371012" lon="-3.6340852"><ele>779.0000000000001</ele><time>2026-03-07T15:25:11.026Z</time></trkpt><trkpt lat="36.9371149" lon="-3.6340058"><ele>779.0</ele><time>2026-03-07T15:25:13.015Z</time></trkpt><trkpt lat="36.9370557" lon="-3.6338939"><ele>779.0</ele><time>2026-03-07T15:25:15.005Z</time></trkpt><trkpt lat="36.9370182" lon="-3.6338013"><ele>779.0</ele><time>2026-03-07T15:25:16.005Z</time></trkpt><trkpt lat="36.9369825" lon="-3.6337195"><ele>779.0000000000001</ele><time>2026-03-07T15:25:17.01Z</time></trkpt><trkpt lat="36.9369465" lon="-3.6336516"><ele>779.0</ele><time>2026-03-07T15:25:18.002Z</time></trkpt><trkpt lat="36.9369053" lon="-3.6335542"><ele>779.0</ele><time>2026-03-07T15:25:27.009Z</time></trkpt><trkpt lat="36.9369682" lon="-3.6335767"><ele>779.0</ele><time>2026-03-07T15:25:30.005Z</time></trkpt><trkpt lat="36.937012" lon="-3.6337039"><ele>779.0</ele><time>2026-03-07T15:25:31.998Z</time></trkpt><trkpt lat="36.9370757" lon="-3.633808"><ele>779.0</ele><time>2026-03-07T15:25:34.008Z</time></trkpt><trkpt lat="36.937154" lon="-3.6339075"><ele>779.0</ele><time>2026-03-07T15:25:36.016Z</time></trkpt><trkpt lat="36.9372057" lon="-3.6339877"><ele>779.0000000000001</ele><time>2026-03-07T15:25:38.03Z</time></trkpt><trkpt lat="36.937251" lon="-3.634049"><ele>779.0</ele><time>2026-03-07T15:25:47.014Z</time></trkpt><trkpt lat="36.9372815" lon="-3.6341247"><ele>779.0</ele><time>2026-03-07T15:25:50.002Z</time></trkpt><trkpt lat="36.9373426" lon="-3.6341855"><ele>779.0</ele><time>2026-03-07T15:25:52.019Z</time></trkpt><trkpt lat="36.9374654" lon="-3.6342251"><ele>779.0000000000001</ele><time>2026-03-07T15:25:54.011Z</time></trkpt><trkpt lat="36.9375409" lon="-3.6342439"><ele>779.0</ele><time>2026-03-07T15:25:55.052Z</time></trkpt><trkpt lat="36.9376162" lon="-3.6342634"><ele>780.0000000000001</ele><time>2026-03-07T15:25:56.001Z</time></trkpt><trkpt lat="36.9376875" lon="-3.6342844"><ele>781.0</ele><time>2026-03-07T15:25:56.996Z</time></trkpt><trkpt lat="36.9377589" lon="-3.6343124"><ele>782.0</ele><time>2026-03-07T15:25:58.004Z</time></trkpt><trkpt lat="36.9378267" lon="-3.6343491"><ele>783.0</ele><time>2026-03-07T15:25:58.997Z</time></trkpt><trkpt lat="36.9378917" lon="-3.6343944"><ele>784.0000000000001</ele><time>2026-03-07T15:25:59.994Z</time></trkpt><trkpt lat="36.9379508" lon="-3.6344538"><ele>785.0</ele><time>2026-03-07T15:26:01.008Z</time></trkpt><trkpt lat="36.9380124" lon="-3.6345163"><ele>786.3333333333334</ele><time>2026-03-07T15:26:01.999Z</time></trkpt><trkpt lat="36.9380698" lon="-3.6345685"><ele>787.6666666666667</ele><time>2026-03-07T15:26:02.995Z</time></trkpt><trkpt lat="36.9381217" lon="-3.6346176"><ele>789.0</ele><time>2026-03-07T15:26:03.999Z</time></trkpt><trkpt lat="36.938171" lon="-3.6346709"><ele>790.3333333333333</ele><time>2026-03-07T15:26:05.007Z</time></trkpt><trkpt lat="36.9382195" lon="-3.6347227"><ele>791.6666666666666</ele><time>2026-03-07T15:26:06.003Z</time></trkpt><trkpt lat="36.938309" lon="-3.6348137"><ele>793.0</ele><time>2026-03-07T15:26:08.007Z</time></trkpt><trkpt lat="36.9384001" lon="-3.6348793"><ele>793.8</ele><time>2026-03-07T15:26:10Z</time></trkpt><trkpt lat="36.9384837" lon="-3.634921"><ele>794.5999999999999</ele><time>2026-03-07T15:26:12.007Z</time></trkpt><trkpt lat="36.9385983" lon="-3.6350028"><ele>795.4000000000001</ele><time>2026-03-07T15:26:14.001Z</time></trkpt><trkpt lat="36.9386716" lon="-3.6350738"><ele>796.2</ele><time>2026-03-07T15:26:15.004Z</time></trkpt><trkpt lat="36.9387408" lon="-3.6351431"><ele>797.0</ele><time>2026-03-07T15:26:16.01Z</time></trkpt><trkpt lat="36.9388061" lon="-3.6352124"><ele>797.0000000000001</ele><time>2026-03-07T15:26:16.999Z</time></trkpt><trkpt lat="36.9388636" lon="-3.6352873"><ele>797.0</ele><time>2026-03-07T15:26:17.996Z</time></trkpt><trkpt lat="36.938916" lon="-3.6353535"><ele>797.0</ele><time>2026-03-07T15:26:19.023Z</time></trkpt><trkpt lat="36.9389671" lon="-3.6354079"><ele>797.0</ele><time>2026-03-07T15:26:20.011Z</time></trkpt><trkpt lat="36.9390302" lon="-3.6354433"><ele>797.0000000000001</ele><time>2026-03-07T15:26:20.994Z</time></trkpt><trkpt lat="36.9391067" lon="-3.6354589"><ele>797.0</ele><time>2026-03-07T15:26:22.004Z</time></trkpt><trkpt lat="36.9391878" lon="-3.6354725"><ele>799.5000000000001</ele><time>2026-03-07T15:26:22.998Z</time></trkpt><trkpt lat="36.9392708" lon="-3.6354736"><ele>802.0</ele><time>2026-03-07T15:26:24.007Z</time></trkpt><trkpt lat="36.9393501" lon="-3.6354799"><ele>804.5</ele><time>2026-03-07T15:26:25.017Z</time></trkpt><trkpt lat="36.9394249" lon="-3.6355097"><ele>807.0</ele><time>2026-03-07T15:26:26.011Z</time></trkpt><trkpt lat="36.9394973" lon="-3.6355563"><ele>809.5000000000001</ele><time>2026-03-07T15:26:27.004Z</time></trkpt><trkpt lat="36.9395588" lon="-3.6356207"><ele>812.0</ele><time>2026-03-07T15:26:28.014Z</time></trkpt><trkpt lat="36.9396052" lon="-3.6357024"><ele>812.0000000000001</ele><time>2026-03-07T15:26:28.999Z</time></trkpt><trkpt lat="36.9396492" lon="-3.6357896"><ele>812.0</ele><time>2026-03-07T15:26:30.003Z</time></trkpt><trkpt lat="36.939696" lon="-3.6358801"><ele>812.0</ele><time>2026-03-07T15:26:31.006Z</time></trkpt><trkpt lat="36.9397465" lon="-3.635974"><ele>812.0</ele><time>2026-03-07T15:26:32.005Z</time></trkpt><trkpt lat="36.9398024" lon="-3.6360617"><ele>812.0000000000001</ele><time>2026-03-07T15:26:32.992Z</time></trkpt><trkpt lat="36.9398685" lon="-3.6361313"><ele>812.0</ele><time>2026-03-07T15:26:33.994Z</time></trkpt><trkpt lat="36.9399314" lon="-3.6361966"><ele>813.5714285714286</ele><time>2026-03-07T15:26:35.002Z</time></trkpt><trkpt lat="36.9399894" lon="-3.636263"><ele>815.1428571428571</ele><time>2026-03-07T15:26:35.998Z</time></trkpt><trkpt lat="36.9400352" lon="-3.6363294"><ele>816.7142857142858</ele><time>2026-03-07T15:26:36.99Z</time></trkpt><trkpt lat="36.9400778" lon="-3.6363988"><ele>818.2857142857142</ele><time>2026-03-07T15:26:38.009Z</time></trkpt><trkpt lat="36.9401148" lon="-3.636474"><ele>819.8571428571429</ele><time>2026-03-07T15:26:38.998Z</time></trkpt><trkpt lat="36.9401521" lon="-3.6365524"><ele>821.4285714285714</ele><time>2026-03-07T15:26:40.028Z</time></trkpt><trkpt lat="36.940191" lon="-3.6366318"><ele>823.0</ele><time>2026-03-07T15:26:41.032Z</time></trkpt><trkpt lat="36.9402191" lon="-3.6367229"><ele>824.7142857142858</ele><time>2026-03-07T15:26:41.985Z</time></trkpt><trkpt lat="36.9402619" lon="-3.6367972"><ele>826.4285714285714</ele><time>2026-03-07T15:26:42.998Z</time></trkpt><trkpt lat="36.9403214" lon="-3.6368538"><ele>828.1428571428571</ele><time>2026-03-07T15:26:44.002Z</time></trkpt><trkpt lat="36.940376" lon="-3.6369159"><ele>829.8571428571429</ele><time>2026-03-07T15:26:45.004Z</time></trkpt><trkpt lat="36.9404316" lon="-3.6369805"><ele>831.5714285714286</ele><time>2026-03-07T15:26:46.002Z</time></trkpt><trkpt lat="36.9404889" lon="-3.6370406"><ele>833.2857142857143</ele><time>2026-03-07T15:26:47.004Z</time></trkpt><trkpt lat="36.9405457" lon="-3.6370985"><ele>835.0</ele><time>2026-03-07T15:26:48.005Z</time></trkpt><trkpt lat="36.9406232" lon="-3.6371322"><ele>836.8333333333333</ele><time>2026-03-07T15:26:48.999Z</time></trkpt><trkpt lat="36.9407079" lon="-3.6371565"><ele>838.6666666666666</ele><time>2026-03-07T15:26:50.005Z</time></trkpt><trkpt lat="36.9407927" lon="-3.6371748"><ele>840.5</ele><time>2026-03-07T15:26:51.004Z</time></trkpt><trkpt lat="36.9408705" lon="-3.6372019"><ele>842.3333333333333</ele><time>2026-03-07T15:26:52.015Z</time></trkpt><trkpt lat="36.9409426" lon="-3.6372514"><ele>844.1666666666666</ele><time>2026-03-07T15:26:53.001Z</time></trkpt><trkpt lat="36.9410077" lon="-3.6373218"><ele>846.0</ele><time>2026-03-07T15:26:53.984Z</time></trkpt><trkpt lat="36.9410693" lon="-3.6374004"><ele>848.4</ele><time>2026-03-07T15:26:55.003Z</time></trkpt><trkpt lat="36.941125" lon="-3.6374908"><ele>850.8</ele><time>2026-03-07T15:26:55.99Z</time></trkpt><trkpt lat="36.9411639" lon="-3.6375964"><ele>853.1999999999999</ele><time>2026-03-07T15:26:57Z</time></trkpt><trkpt lat="36.9412031" lon="-3.6377042"><ele>855.5999999999999</ele><time>2026-03-07T15:26:58.01Z</time></trkpt><trkpt lat="36.9412519" lon="-3.6378056"><ele>858.0</ele><time>2026-03-07T15:26:59.008Z</time></trkpt><trkpt lat="36.9413013" lon="-3.6379045"><ele>859.0</ele><time>2026-03-07T15:27:00.008Z</time></trkpt><trkpt lat="36.941351" lon="-3.6379895"><ele>860.0</ele><time>2026-03-07T15:27:01Z</time></trkpt><trkpt lat="36.9413999" lon="-3.638066"><ele>861.0</ele><time>2026-03-07T15:27:01.998Z</time></trkpt><trkpt lat="36.9414486" lon="-3.638145"><ele>862.0</ele><time>2026-03-07T15:27:03.011Z</time></trkpt><trkpt lat="36.9414934" lon="-3.6382302"><ele>863.0</ele><time>2026-03-07T15:27:04.002Z</time></trkpt><trkpt lat="36.9415509" lon="-3.6383011"><ele>864.0</ele><time>2026-03-07T15:27:05.003Z</time></trkpt><trkpt lat="36.941611" lon="-3.6383743"><ele>864.0</ele><time>2026-03-07T15:27:06Z</time></trkpt><trkpt lat="36.9416715" lon="-3.6384448"><ele>864.0</ele><time>2026-03-07T15:27:07.007Z</time></trkpt><trkpt lat="36.9417349" lon="-3.6385111"><ele>864.0</ele><time>2026-03-07T15:27:08.01Z</time></trkpt><trkpt lat="36.9417958" lon="-3.6385862"><ele>864.0</ele><time>2026-03-07T15:27:09.014Z</time></trkpt><trkpt lat="36.9418699" lon="-3.6386442"><ele>864.0</ele><time>2026-03-07T15:27:10.006Z</time></trkpt><trkpt lat="36.941951" lon="-3.6387027"><ele>864.0</ele><time>2026-03-07T15:27:10.992Z</time></trkpt><trkpt lat="36.9420346" lon="-3.6387784"><ele>869.2</ele><time>2026-03-07T15:27:11.998Z</time></trkpt><trkpt lat="36.9421226" lon="-3.6388526"><ele>874.4000000000001</ele><time>2026-03-07T15:27:13.01Z</time></trkpt><trkpt lat="36.9422155" lon="-3.638914"><ele>879.6</ele><time>2026-03-07T15:27:13.998Z</time></trkpt><trkpt lat="36.9423016" lon="-3.63899"><ele>884.8</ele><time>2026-03-07T15:27:14.998Z</time></trkpt><trkpt lat="36.9423851" lon="-3.6390716"><ele>890.0</ele><time>2026-03-07T15:27:16.003Z</time></trkpt><trkpt lat="36.9424579" lon="-3.6391623"><ele>890.0000000000001</ele><time>2026-03-07T15:27:17.008Z</time></trkpt><trkpt lat="36.9425186" lon="-3.63926"><ele>890.0</ele><time>2026-03-07T15:27:18.005Z</time></trkpt><trkpt lat="36.942569" lon="-3.639356"><ele>890.0</ele><time>2026-03-07T15:27:19.002Z</time></trkpt><trkpt lat="36.9426119" lon="-3.6394342"><ele>890.0</ele><time>2026-03-07T15:27:20.004Z</time></trkpt><trkpt lat="36.9426567" lon="-3.6394952"><ele>890.0000000000001</ele><time>2026-03-07T15:27:21.005Z</time></trkpt><trkpt lat="36.942713" lon="-3.6395498"><ele>890.0</ele><time>2026-03-07T15:27:22.002Z</time></trkpt><trkpt lat="36.9427774" lon="-3.6396045"><ele>895.1428571428571</ele><time>2026-03-07T15:27:23.004Z</time></trkpt><trkpt lat="36.942829" lon="-3.6396836"><ele>900.2857142857142</ele><time>2026-03-07T15:27:24.001Z</time></trkpt><trkpt lat="36.9428875" lon="-3.6397415"><ele>905.4285714285713</ele><time>2026-03-07T15:27:24.994Z</time></trkpt><trkpt lat="36.942952" lon="-3.6397862"><ele>910.5714285714286</ele><time>2026-03-07T15:27:26Z</time></trkpt><trkpt lat="36.943006" lon="-3.6398355"><ele>915.7142857142856</ele><time>2026-03-07T15:27:27.003Z</time></trkpt><trkpt lat="36.943056" lon="-3.6398862"><ele>920.8571428571428</ele><time>2026-03-07T15:27:28.09Z</time></trkpt><trkpt lat="36.9430836" lon="-3.6399662"><ele>926.0</ele><time>2026-03-07T15:27:29.091Z</time></trkpt><trkpt lat="36.9431054" lon="-3.6400568"><ele>926.0000000000001</ele><time>2026-03-07T15:27:30.013Z</time></trkpt><trkpt lat="36.9431194" lon="-3.640142"><ele>926.0</ele><time>2026-03-07T15:27:31.064Z</time></trkpt><trkpt lat="36.9431352" lon="-3.6402201"><ele>926.0</ele><time>2026-03-07T15:27:31.987Z</time></trkpt><trkpt lat="36.9431614" lon="-3.6402952"><ele>926.0</ele><time>2026-03-07T15:27:32.974Z</time></trkpt><trkpt lat="36.9431933" lon="-3.6403659"><ele>926.0000000000001</ele><time>2026-03-07T15:27:33.978Z</time></trkpt><trkpt lat="36.9432604" lon="-3.6404648"><ele>926.0</ele><time>2026-03-07T15:27:36.073Z</time></trkpt><trkpt lat="36.9433539" lon="-3.6404807"><ele>931.4</ele><time>2026-03-07T15:27:38.024Z</time></trkpt><trkpt lat="36.9434448" lon="-3.6404306"><ele>936.8</ele><time>2026-03-07T15:27:40.018Z</time></trkpt><trkpt lat="36.9435154" lon="-3.6404812"><ele>942.1999999999999</ele><time>2026-03-07T15:27:43.034Z</time></trkpt><trkpt lat="36.9435362" lon="-3.6406564"><ele>947.5999999999999</ele><time>2026-03-07T15:27:44.995Z</time></trkpt><trkpt lat="36.9435376" lon="-3.6407686"><ele>953.0</ele><time>2026-03-07T15:27:45.997Z</time></trkpt><trkpt lat="36.9435334" lon="-3.6408638"><ele>953.0000000000001</ele><time>2026-03-07T15:27:47.004Z</time></trkpt><trkpt lat="36.9435309" lon="-3.640958"><ele>953.0</ele><time>2026-03-07T15:27:48.004Z</time></trkpt><trkpt lat="36.9435416" lon="-3.6410604"><ele>953.0</ele><time>2026-03-07T15:27:49.008Z</time></trkpt><trkpt lat="36.9435506" lon="-3.6411536"><ele>953.0</ele><time>2026-03-07T15:27:50.019Z</time></trkpt><trkpt lat="36.9435571" lon="-3.641245"><ele>953.0000000000001</ele><time>2026-03-07T15:27:51.004Z</time></trkpt><trkpt lat="36.9435596" lon="-3.6413398"><ele>953.0</ele><time>2026-03-07T15:27:52.003Z</time></trkpt><trkpt lat="36.9435638" lon="-3.6414355"><ele>952.2</ele><time>2026-03-07T15:27:53.003Z</time></trkpt><trkpt lat="36.9435865" lon="-3.6415415"><ele>951.4</ele><time>2026-03-07T15:27:54Z</time></trkpt><trkpt lat="36.94364" lon="-3.6416568"><ele>950.6000000000001</ele><time>2026-03-07T15:27:54.998Z</time></trkpt><trkpt lat="36.9436758" lon="-3.6417894"><ele>949.8000000000001</ele><time>2026-03-07T15:27:55.999Z</time></trkpt><trkpt lat="36.9437128" lon="-3.6418975"><ele>949.0</ele><time>2026-03-07T15:27:57.002Z</time></trkpt><trkpt lat="36.9437408" lon="-3.6419917"><ele>946.7142857142858</ele><time>2026-03-07T15:27:58.003Z</time></trkpt><trkpt lat="36.9437787" lon="-3.6420719"><ele>944.4285714285714</ele><time>2026-03-07T15:27:59.011Z</time></trkpt><trkpt lat="36.9438239" lon="-3.6421364"><ele>942.1428571428571</ele><time>2026-03-07T15:27:59.998Z</time></trkpt><trkpt lat="36.9438668" lon="-3.6422047"><ele>939.8571428571429</ele><time>2026-03-07T15:28:01.005Z</time></trkpt><trkpt lat="36.9439232" lon="-3.6422558"><ele>937.5714285714284</ele><time>2026-03-07T15:28:02.008Z</time></trkpt><trkpt lat="36.9439932" lon="-3.6422924"><ele>935.2857142857142</ele><time>2026-03-07T15:28:02.998Z</time></trkpt><trkpt lat="36.9440806" lon="-3.6423017"><ele>933.0</ele><time>2026-03-07T15:28:03.996Z</time></trkpt><trkpt lat="36.9441818" lon="-3.6422993"><ele>935.0</ele><time>2026-03-07T15:28:04.992Z</time></trkpt><trkpt lat="36.9442821" lon="-3.6423056"><ele>937.0</ele><time>2026-03-07T15:28:06Z</time></trkpt><trkpt lat="36.9443667" lon="-3.6423133"><ele>939.0</ele><time>2026-03-07T15:28:07.019Z</time></trkpt><trkpt lat="36.9444383" lon="-3.6423272"><ele>941.0</ele><time>2026-03-07T15:28:07.998Z</time></trkpt><trkpt lat="36.944517" lon="-3.6423217"><ele>943.0</ele><time>2026-03-07T15:28:08.998Z</time></trkpt><trkpt lat="36.9446077" lon="-3.6423"><ele>945.0</ele><time>2026-03-07T15:28:09.995Z</time></trkpt><trkpt lat="36.9447107" lon="-3.642256"><ele>945.0</ele><time>2026-03-07T15:28:11.011Z</time></trkpt><trkpt lat="36.944821" lon="-3.6422263"><ele>945.0</ele><time>2026-03-07T15:28:12.004Z</time></trkpt><trkpt lat="36.9449338" lon="-3.6422281"><ele>945.0</ele><time>2026-03-07T15:28:13.004Z</time></trkpt><trkpt lat="36.9450396" lon="-3.6422404"><ele>945.0</ele><time>2026-03-07T15:28:14.004Z</time></trkpt><trkpt lat="36.945147" lon="-3.6422595"><ele>945.0</ele><time>2026-03-07T15:28:14.997Z</time></trkpt><trkpt lat="36.9452542" lon="-3.6422717"><ele>949.6</ele><time>2026-03-07T15:28:15.996Z</time></trkpt><trkpt lat="36.9453604" lon="-3.6422871"><ele>954.2</ele><time>2026-03-07T15:28:17.001Z</time></trkpt><trkpt lat="36.9454686" lon="-3.6423102"><ele>958.8</ele><time>2026-03-07T15:28:18.001Z</time></trkpt><trkpt lat="36.9455728" lon="-3.6423291"><ele>963.4</ele><time>2026-03-07T15:28:18.99Z</time></trkpt><trkpt lat="36.9456688" lon="-3.6423869"><ele>968.0</ele><time>2026-03-07T15:28:20.011Z</time></trkpt><trkpt lat="36.9457546" lon="-3.642448"><ele>968.0</ele><time>2026-03-07T15:28:21.01Z</time></trkpt><trkpt lat="36.9458224" lon="-3.6425271"><ele>968.0</ele><time>2026-03-07T15:28:21.999Z</time></trkpt><trkpt lat="36.9458837" lon="-3.6426336"><ele>968.0</ele><time>2026-03-07T15:28:23.003Z</time></trkpt><trkpt lat="36.9459507" lon="-3.6427388"><ele>968.0</ele><time>2026-03-07T15:28:24.008Z</time></trkpt><trkpt lat="36.9460219" lon="-3.6428339"><ele>968.0</ele><time>2026-03-07T15:28:25.005Z</time></trkpt><trkpt lat="36.9460937" lon="-3.6429259"><ele>971.0</ele><time>2026-03-07T15:28:26.009Z</time></trkpt><trkpt lat="36.9461631" lon="-3.6430156"><ele>974.0</ele><time>2026-03-07T15:28:27.013Z</time></trkpt><trkpt lat="36.9462222" lon="-3.6431091"><ele>977.0</ele><time>2026-03-07T15:28:28.004Z</time></trkpt><trkpt lat="36.946274" lon="-3.6432067"><ele>980.0</ele><time>2026-03-07T15:28:29.007Z</time></trkpt><trkpt lat="36.9463304" lon="-3.6432988"><ele>983.0</ele><time>2026-03-07T15:28:30.003Z</time></trkpt><trkpt lat="36.9463889" lon="-3.6433771"><ele>983.0000000000001</ele><time>2026-03-07T15:28:31.009Z</time></trkpt><trkpt lat="36.9464476" lon="-3.6434457"><ele>983.0</ele><time>2026-03-07T15:28:31.991Z</time></trkpt><trkpt lat="36.9465137" lon="-3.6435033"><ele>983.0</ele><time>2026-03-07T15:28:33.011Z</time></trkpt><trkpt lat="36.9465754" lon="-3.6435635"><ele>983.0</ele><time>2026-03-07T15:28:33.998Z</time></trkpt><trkpt lat="36.9466373" lon="-3.6436281"><ele>983.0000000000001</ele><time>2026-03-07T15:28:34.993Z</time></trkpt><trkpt lat="36.9466944" lon="-3.6437025"><ele>983.0</ele><time>2026-03-07T15:28:36.003Z</time></trkpt><trkpt lat="36.9467367" lon="-3.6437988"><ele>985.5000000000001</ele><time>2026-03-07T15:28:37.012Z</time></trkpt><trkpt lat="36.9467743" lon="-3.6439032"><ele>988.0</ele><time>2026-03-07T15:28:38.003Z</time></trkpt><trkpt lat="36.9468159" lon="-3.6439895"><ele>990.5</ele><time>2026-03-07T15:28:38.999Z</time></trkpt><trkpt lat="36.9468572" lon="-3.6440695"><ele>993.0</ele><time>2026-03-07T15:28:40.001Z</time></trkpt><trkpt lat="36.9469013" lon="-3.6441459"><ele>995.5000000000001</ele><time>2026-03-07T15:28:41.008Z</time></trkpt><trkpt lat="36.9469509" lon="-3.6442184"><ele>998.0</ele><time>2026-03-07T15:28:41.998Z</time></trkpt><trkpt lat="36.9470169" lon="-3.6442787"><ele>998.0000000000001</ele><time>2026-03-07T15:28:43.003Z</time></trkpt><trkpt lat="36.9470893" lon="-3.6443327"><ele>998.0</ele><time>2026-03-07T15:28:44.001Z</time></trkpt><trkpt lat="36.947164" lon="-3.644372"><ele>998.0</ele><time>2026-03-07T15:28:45.005Z</time></trkpt><trkpt lat="36.9472411" lon="-3.6443833"><ele>998.0</ele><time>2026-03-07T15:28:46.001Z</time></trkpt><trkpt lat="36.94732" lon="-3.6443751"><ele>998.0000000000001</ele><time>2026-03-07T15:28:47.002Z</time></trkpt><trkpt lat="36.947389" lon="-3.6443498"><ele>998.0</ele><time>2026-03-07T15:28:48.017Z</time></trkpt><trkpt lat="36.9475002" lon="-3.644369"><ele>1000.8</ele><time>2026-03-07T15:28:50Z</time></trkpt><trkpt lat="36.9475728" lon="-3.6445175"><ele>1003.5999999999999</ele><time>2026-03-07T15:28:52.005Z</time></trkpt><trkpt lat="36.9476091" lon="-3.644589"><ele>1006.4000000000001</ele><time>2026-03-07T15:28:53.005Z</time></trkpt><trkpt lat="36.9476623" lon="-3.6446479"><ele>1009.2</ele><time>2026-03-07T15:28:53.989Z</time></trkpt><trkpt lat="36.9477367" lon="-3.6447021"><ele>1012.0</ele><time>2026-03-07T15:28:55.007Z</time></trkpt><trkpt lat="36.9478135" lon="-3.6447615"><ele>1011.9999999999999</ele><time>2026-03-07T15:28:56Z</time></trkpt><trkpt lat="36.9478858" lon="-3.6448191"><ele>1012.0</ele><time>2026-03-07T15:28:57.006Z</time></trkpt><trkpt lat="36.9479572" lon="-3.6448682"><ele>1012.0</ele><time>2026-03-07T15:28:58.007Z</time></trkpt><trkpt lat="36.9480298" lon="-3.644923"><ele>1012.0</ele><time>2026-03-07T15:28:59.003Z</time></trkpt><trkpt lat="36.9481068" lon="-3.644967"><ele>1011.9999999999999</ele><time>2026-03-07T15:29:00Z</time></trkpt><trkpt lat="36.9481833" lon="-3.6450148"><ele>1012.0</ele><time>2026-03-07T15:29:00.999Z</time></trkpt><trkpt lat="36.948257" lon="-3.6450741"><ele>1011.9999999999999</ele><time>2026-03-07T15:29:02.009Z</time></trkpt><trkpt lat="36.9483346" lon="-3.6451256"><ele>1012.0</ele><time>2026-03-07T15:29:03.012Z</time></trkpt><trkpt lat="36.948407" lon="-3.6451819"><ele>1012.0</ele><time>2026-03-07T15:29:04.002Z</time></trkpt><trkpt lat="36.9484831" lon="-3.6452379"><ele>1012.0</ele><time>2026-03-07T15:29:04.998Z</time></trkpt><trkpt lat="36.948549" lon="-3.6453128"><ele>1011.9999999999999</ele><time>2026-03-07T15:29:06.013Z</time></trkpt><trkpt lat="36.9486142" lon="-3.6453913"><ele>1012.0</ele><time>2026-03-07T15:29:07.006Z</time></trkpt><trkpt lat="36.9486783" lon="-3.6454548"><ele>1013.1666666666666</ele><time>2026-03-07T15:29:08.002Z</time></trkpt><trkpt lat="36.9487261" lon="-3.6455159"><ele>1014.3333333333333</ele><time>2026-03-07T15:29:08.995Z</time></trkpt><trkpt lat="36.9488414" lon="-3.6455519"><ele>1015.5</ele><time>2026-03-07T15:29:11.007Z</time></trkpt><trkpt lat="36.9489153" lon="-3.6455388"><ele>1016.6666666666667</ele><time>2026-03-07T15:29:12.001Z</time></trkpt><trkpt lat="36.9489896" lon="-3.6455263"><ele>1017.8333333333334</ele><time>2026-03-07T15:29:13.005Z</time></trkpt><trkpt lat="36.9490546" lon="-3.6455285"><ele>1019.0</ele><time>2026-03-07T15:29:14.004Z</time></trkpt><trkpt lat="36.9491212" lon="-3.6455453"><ele>1019.0000000000001</ele><time>2026-03-07T15:29:15.014Z</time></trkpt><trkpt lat="36.9491863" lon="-3.6455795"><ele>1019.0</ele><time>2026-03-07T15:29:16.005Z</time></trkpt><trkpt lat="36.9492531" lon="-3.6456239"><ele>1019.0</ele><time>2026-03-07T15:29:17.012Z</time></trkpt><trkpt lat="36.9493179" lon="-3.6456782"><ele>1019.0</ele><time>2026-03-07T15:29:18.025Z</time></trkpt><trkpt lat="36.9493854" lon="-3.6457357"><ele>1019.0000000000001</ele><time>2026-03-07T15:29:19.004Z</time></trkpt><trkpt lat="36.9494607" lon="-3.6458037"><ele>1019.0</ele><time>2026-03-07T15:29:20.011Z</time></trkpt><trkpt lat="36.9495387" lon="-3.6458772"><ele>1019.2</ele><time>2026-03-07T15:29:21.001Z</time></trkpt><trkpt lat="36.9496131" lon="-3.6459464"><ele>1019.4000000000001</ele><time>2026-03-07T15:29:21.997Z</time></trkpt><trkpt lat="36.9496872" lon="-3.6460155"><ele>1019.6</ele><time>2026-03-07T15:29:23.022Z</time></trkpt><trkpt lat="36.9497639" lon="-3.646088"><ele>1019.8</ele><time>2026-03-07T15:29:23.997Z</time></trkpt><trkpt lat="36.9498395" lon="-3.6461721"><ele>1020.0</ele><time>2026-03-07T15:29:24.988Z</time></trkpt><trkpt lat="36.9499133" lon="-3.6462542"><ele>1021.4</ele><time>2026-03-07T15:29:26.003Z</time></trkpt><trkpt lat="36.9499847" lon="-3.646334"><ele>1022.8</ele><time>2026-03-07T15:29:26.997Z</time></trkpt><trkpt lat="36.9500554" lon="-3.6464143"><ele>1024.2</ele><time>2026-03-07T15:29:28.007Z</time></trkpt><trkpt lat="36.9501293" lon="-3.6464806"><ele>1025.6</ele><time>2026-03-07T15:29:29.025Z</time></trkpt><trkpt lat="36.950197" lon="-3.6465494"><ele>1027.0</ele><time>2026-03-07T15:29:30.001Z</time></trkpt><trkpt lat="36.950267" lon="-3.6466105"><ele>1029.3333333333333</ele><time>2026-03-07T15:29:30.997Z</time></trkpt><trkpt lat="36.9503377" lon="-3.6466685"><ele>1031.6666666666665</ele><time>2026-03-07T15:29:31.999Z</time></trkpt><trkpt lat="36.950411" lon="-3.6467243"><ele>1034.0</ele><time>2026-03-07T15:29:33.003Z</time></trkpt><trkpt lat="36.9504858" lon="-3.6467792"><ele>1036.3333333333333</ele><time>2026-03-07T15:29:33.995Z</time></trkpt><trkpt lat="36.9505557" lon="-3.6468411"><ele>1038.6666666666667</ele><time>2026-03-07T15:29:35.001Z</time></trkpt><trkpt lat="36.9506248" lon="-3.6469062"><ele>1041.0</ele><time>2026-03-07T15:29:36.002Z</time></trkpt><trkpt lat="36.9506978" lon="-3.646977"><ele>1041.8333333333333</ele><time>2026-03-07T15:29:36.998Z</time></trkpt><trkpt lat="36.9507675" lon="-3.6470532"><ele>1042.6666666666667</ele><time>2026-03-07T15:29:38.006Z</time></trkpt><trkpt lat="36.9508369" lon="-3.6471265"><ele>1043.5</ele><time>2026-03-07T15:29:39.023Z</time></trkpt><trkpt lat="36.9509032" lon="-3.6471929"><ele>1044.3333333333335</ele><time>2026-03-07T15:29:40.007Z</time></trkpt><trkpt lat="36.9509584" lon="-3.6472611"><ele>1045.1666666666667</ele><time>2026-03-07T15:29:41.015Z</time></trkpt><trkpt lat="36.9510025" lon="-3.6473194"><ele>1046.0</ele><time>2026-03-07T15:29:42.008Z</time></trkpt><trkpt lat="36.9510493" lon="-3.6474703"><ele>1048.4285714285713</ele><time>2026-03-07T15:29:44.003Z</time></trkpt><trkpt lat="36.9510754" lon="-3.6475569"><ele>1050.857142857143</ele><time>2026-03-07T15:29:45.003Z</time></trkpt><trkpt lat="36.9510974" lon="-3.6476465"><ele>1053.2857142857142</ele><time>2026-03-07T15:29:46Z</time></trkpt><trkpt lat="36.9511154" lon="-3.6477363"><ele>1055.7142857142858</ele><time>2026-03-07T15:29:47.004Z</time></trkpt><trkpt lat="36.9511161" lon="-3.6478206"><ele>1058.142857142857</ele><time>2026-03-07T15:29:48.004Z</time></trkpt><trkpt lat="36.9511039" lon="-3.6479077"><ele>1060.5714285714284</ele><time>2026-03-07T15:29:48.998Z</time></trkpt><trkpt lat="36.9510991" lon="-3.648004"><ele>1063.0</ele><time>2026-03-07T15:29:50.028Z</time></trkpt><trkpt lat="36.9510898" lon="-3.6481144"><ele>1063.2</ele><time>2026-03-07T15:29:50.994Z</time></trkpt><trkpt lat="36.9510843" lon="-3.6482337"><ele>1063.4</ele><time>2026-03-07T15:29:52.002Z</time></trkpt><trkpt lat="36.9510813" lon="-3.6483653"><ele>1063.6000000000001</ele><time>2026-03-07T15:29:53.008Z</time></trkpt><trkpt lat="36.9510876" lon="-3.6484947"><ele>1063.8</ele><time>2026-03-07T15:29:54.007Z</time></trkpt><trkpt lat="36.9511325" lon="-3.6486046"><ele>1064.0</ele><time>2026-03-07T15:29:55.026Z</time></trkpt><trkpt lat="36.9511837" lon="-3.6487093"><ele>1064.0</ele><time>2026-03-07T15:29:56Z</time></trkpt><trkpt lat="36.9512462" lon="-3.6487964"><ele>1064.0</ele><time>2026-03-07T15:29:57.006Z</time></trkpt><trkpt lat="36.9513208" lon="-3.6488716"><ele>1064.0</ele><time>2026-03-07T15:29:58.024Z</time></trkpt><trkpt lat="36.9514022" lon="-3.6489542"><ele>1064.0</ele><time>2026-03-07T15:29:58.998Z</time></trkpt><trkpt lat="36.9514992" lon="-3.6490338"><ele>1064.0</ele><time>2026-03-07T15:30:00.01Z</time></trkpt><trkpt lat="36.9515997" lon="-3.6491128"><ele>1064.0</ele><time>2026-03-07T15:30:01.006Z</time></trkpt><trkpt lat="36.9516959" lon="-3.6491784"><ele>1064.0</ele><time>2026-03-07T15:30:02.007Z</time></trkpt><trkpt lat="36.9517841" lon="-3.6492469"><ele>1064.0</ele><time>2026-03-07T15:30:03.01Z</time></trkpt><trkpt lat="36.9518707" lon="-3.6493065"><ele>1064.0</ele><time>2026-03-07T15:30:04.022Z</time></trkpt><trkpt lat="36.9519441" lon="-3.6493758"><ele>1064.0</ele><time>2026-03-07T15:30:04.991Z</time></trkpt><trkpt lat="36.9520213" lon="-3.6494244"><ele>1064.6666666666667</ele><time>2026-03-07T15:30:06.002Z</time></trkpt><trkpt lat="36.9520959" lon="-3.6494772"><ele>1065.3333333333335</ele><time>2026-03-07T15:30:07.011Z</time></trkpt><trkpt lat="36.9521777" lon="-3.6495213"><ele>1066.0</ele><time>2026-03-07T15:30:08.003Z</time></trkpt><trkpt lat="36.9522619" lon="-3.6495673"><ele>1066.6666666666667</ele><time>2026-03-07T15:30:09.009Z</time></trkpt><trkpt lat="36.9523468" lon="-3.649611"><ele>1067.3333333333333</ele><time>2026-03-07T15:30:09.995Z</time></trkpt><trkpt lat="36.952433" lon="-3.6496433"><ele>1068.0</ele><time>2026-03-07T15:30:11.011Z</time></trkpt><trkpt lat="36.9525159" lon="-3.6496663"><ele>1068.8333333333333</ele><time>2026-03-07T15:30:12.002Z</time></trkpt><trkpt lat="36.9525912" lon="-3.6496962"><ele>1069.6666666666667</ele><time>2026-03-07T15:30:13.007Z</time></trkpt><trkpt lat="36.9526685" lon="-3.6497091"><ele>1070.5</ele><time>2026-03-07T15:30:14.007Z</time></trkpt><trkpt lat="36.9527458" lon="-3.6497217"><ele>1071.3333333333335</ele><time>2026-03-07T15:30:15.007Z</time></trkpt><trkpt lat="36.9528197" lon="-3.6497492"><ele>1072.1666666666667</ele><time>2026-03-07T15:30:16.023Z</time></trkpt><trkpt lat="36.952896" lon="-3.6497745"><ele>1073.0</ele><time>2026-03-07T15:30:17.017Z</time></trkpt><trkpt lat="36.9529743" lon="-3.6498017"><ele>1073.0</ele><time>2026-03-07T15:30:18.008Z</time></trkpt><trkpt lat="36.9530539" lon="-3.6498208"><ele>1073.0</ele><time>2026-03-07T15:30:18.995Z</time></trkpt><trkpt lat="36.9531339" lon="-3.6498415"><ele>1073.0</ele><time>2026-03-07T15:30:20.025Z</time></trkpt><trkpt lat="36.9532137" lon="-3.6498628"><ele>1073.0</ele><time>2026-03-07T15:30:21.006Z</time></trkpt><trkpt lat="36.9532901" lon="-3.6498874"><ele>1073.0</ele><time>2026-03-07T15:30:22.003Z</time></trkpt><trkpt lat="36.9533621" lon="-3.6499229"><ele>1073.0</ele><time>2026-03-07T15:30:23.004Z</time></trkpt><trkpt lat="36.953434" lon="-3.6499534"><ele>1075.2</ele><time>2026-03-07T15:30:24.02Z</time></trkpt><trkpt lat="36.9535098" lon="-3.6499788"><ele>1077.4</ele><time>2026-03-07T15:30:25.026Z</time></trkpt><trkpt lat="36.9535881" lon="-3.6500221"><ele>1079.6000000000001</ele><time>2026-03-07T15:30:26.004Z</time></trkpt><trkpt lat="36.9536751" lon="-3.6500633"><ele>1081.8</ele><time>2026-03-07T15:30:27.008Z</time></trkpt><trkpt lat="36.9537647" lon="-3.6501085"><ele>1084.0</ele><time>2026-03-07T15:30:28.053Z</time></trkpt><trkpt lat="36.9538541" lon="-3.6501561"><ele>1084.0</ele><time>2026-03-07T15:30:29.037Z</time></trkpt><trkpt lat="36.9539332" lon="-3.6502009"><ele>1084.0</ele><time>2026-03-07T15:30:30.006Z</time></trkpt><trkpt lat="36.9540065" lon="-3.6502359"><ele>1084.0</ele><time>2026-03-07T15:30:31.001Z</time></trkpt><trkpt lat="36.9540754" lon="-3.6502636"><ele>1084.0</ele><time>2026-03-07T15:30:32Z</time></trkpt><trkpt lat="36.954135" lon="-3.6503059"><ele>1084.0</ele><time>2026-03-07T15:30:33.012Z</time></trkpt><trkpt lat="36.9541745" lon="-3.6503727"><ele>1084.0</ele><time>2026-03-07T15:30:34.028Z</time></trkpt><trkpt lat="36.9542455" lon="-3.650481"><ele>1086.4</ele><time>2026-03-07T15:30:35.988Z</time></trkpt><trkpt lat="36.9543279" lon="-3.6505353"><ele>1088.8000000000002</ele><time>2026-03-07T15:30:38.01Z</time></trkpt><trkpt lat="36.9544393" lon="-3.6506041"><ele>1091.1999999999998</ele><time>2026-03-07T15:30:40.081Z</time></trkpt><trkpt lat="36.9545086" lon="-3.6506434"><ele>1093.6</ele><time>2026-03-07T15:30:41.058Z</time></trkpt><trkpt lat="36.9545829" lon="-3.6506901"><ele>1096.0</ele><time>2026-03-07T15:30:42.065Z</time></trkpt><trkpt lat="36.9546546" lon="-3.6507727"><ele>1096.0</ele><time>2026-03-07T15:30:42.992Z</time></trkpt><trkpt lat="36.9547343" lon="-3.6508678"><ele>1096.0</ele><time>2026-03-07T15:30:44.001Z</time></trkpt><trkpt lat="36.9548184" lon="-3.6509708"><ele>1096.0</ele><time>2026-03-07T15:30:44.995Z</time></trkpt><trkpt lat="36.9549057" lon="-3.6510725"><ele>1096.0</ele><time>2026-03-07T15:30:46Z</time></trkpt><trkpt lat="36.9549936" lon="-3.6511739"><ele>1097.0</ele><time>2026-03-07T15:30:46.997Z</time></trkpt><trkpt lat="36.9550693" lon="-3.65127"><ele>1098.0</ele><time>2026-03-07T15:30:48.001Z</time></trkpt><trkpt lat="36.955141" lon="-3.6513298"><ele>1099.0</ele><time>2026-03-07T15:30:49.007Z</time></trkpt><trkpt lat="36.9552173" lon="-3.65138"><ele>1100.0</ele><time>2026-03-07T15:30:49.997Z</time></trkpt><trkpt lat="36.9552976" lon="-3.6514255"><ele>1101.0</ele><time>2026-03-07T15:30:51.001Z</time></trkpt><trkpt lat="36.955381" lon="-3.6514844"><ele>1101.0</ele><time>2026-03-07T15:30:52.009Z</time></trkpt><trkpt lat="36.9554484" lon="-3.6515807"><ele>1101.0</ele><time>2026-03-07T15:30:53.007Z</time></trkpt><trkpt lat="36.9555146" lon="-3.6516794"><ele>1101.0</ele><time>2026-03-07T15:30:54.014Z</time></trkpt><trkpt lat="36.9555817" lon="-3.6517598"><ele>1101.0</ele><time>2026-03-07T15:30:55.038Z</time></trkpt><trkpt lat="36.9556457" lon="-3.6518528"><ele>1101.0</ele><time>2026-03-07T15:30:56.004Z</time></trkpt><trkpt lat="36.9557422" lon="-3.651917"><ele>1100.5</ele><time>2026-03-07T15:30:56.992Z</time></trkpt><trkpt lat="36.9558481" lon="-3.6519813"><ele>1100.0</ele><time>2026-03-07T15:30:58.005Z</time></trkpt><trkpt lat="36.9559629" lon="-3.6520355"><ele>1099.5</ele><time>2026-03-07T15:30:59.014Z</time></trkpt><trkpt lat="36.9560797" lon="-3.6520885"><ele>1099.0</ele><time>2026-03-07T15:31:00.007Z</time></trkpt><trkpt lat="36.9562058" lon="-3.6521346"><ele>1099.0</ele><time>2026-03-07T15:31:01.002Z</time></trkpt><trkpt lat="36.9563306" lon="-3.6521664"><ele>1099.0</ele><time>2026-03-07T15:31:02.027Z</time></trkpt><trkpt lat="36.9564441" lon="-3.6522064"><ele>1099.0</ele><time>2026-03-07T15:31:03.006Z</time></trkpt><trkpt lat="36.9565611" lon="-3.652235"><ele>1099.0</ele><time>2026-03-07T15:31:04.008Z</time></trkpt><trkpt lat="36.9566811" lon="-3.6522522"><ele>1098.0</ele><time>2026-03-07T15:31:05.012Z</time></trkpt><trkpt lat="36.956789" lon="-3.6522686"><ele>1097.0</ele><time>2026-03-07T15:31:06.008Z</time></trkpt><trkpt lat="36.9568925" lon="-3.6522743"><ele>1096.0</ele><time>2026-03-07T15:31:07.005Z</time></trkpt><trkpt lat="36.9569898" lon="-3.6522705"><ele>1095.0</ele><time>2026-03-07T15:31:08.003Z</time></trkpt><trkpt lat="36.9570848" lon="-3.6522696"><ele>1094.0</ele><time>2026-03-07T15:31:09.008Z</time></trkpt><trkpt lat="36.9571827" lon="-3.6522593"><ele>1094.0</ele><time>2026-03-07T15:31:10.004Z</time></trkpt><trkpt lat="36.9572776" lon="-3.6522427"><ele>1094.0</ele><time>2026-03-07T15:31:10.984Z</time></trkpt><trkpt lat="36.9573701" lon="-3.6522375"><ele>1094.0</ele><time>2026-03-07T15:31:12.006Z</time></trkpt><trkpt lat="36.9574734" lon="-3.6522257"><ele>1094.0</ele><time>2026-03-07T15:31:13.006Z</time></trkpt><trkpt lat="36.9575997" lon="-3.6522199"><ele>1094.0</ele><time>2026-03-07T15:31:14.003Z</time></trkpt><trkpt lat="36.9577422" lon="-3.652217"><ele>1095.3333333333335</ele><time>2026-03-07T15:31:15.005Z</time></trkpt><trkpt lat="36.9578905" lon="-3.6522163"><ele>1096.6666666666667</ele><time>2026-03-07T15:31:16.005Z</time></trkpt><trkpt lat="36.9580404" lon="-3.6522078"><ele>1098.0</ele><time>2026-03-07T15:31:17.004Z</time></trkpt><trkpt lat="36.9581946" lon="-3.6522"><ele>1098.0</ele><time>2026-03-07T15:31:17.999Z</time></trkpt><trkpt lat="36.9583535" lon="-3.6521799"><ele>1098.0</ele><time>2026-03-07T15:31:19.001Z</time></trkpt><trkpt lat="36.9584857" lon="-3.6521761"><ele>1098.0</ele><time>2026-03-07T15:31:20.061Z</time></trkpt><trkpt lat="36.9586047" lon="-3.6521589"><ele>1098.0</ele><time>2026-03-07T15:31:21.014Z</time></trkpt><trkpt lat="36.9587106" lon="-3.65212"><ele>1098.0</ele><time>2026-03-07T15:31:21.997Z</time></trkpt><trkpt lat="36.9588052" lon="-3.6520469"><ele>1098.0</ele><time>2026-03-07T15:31:22.996Z</time></trkpt><trkpt lat="36.9588681" lon="-3.6519523"><ele>1098.0</ele><time>2026-03-07T15:31:24.005Z</time></trkpt><trkpt lat="36.9589135" lon="-3.6518286"><ele>1098.0</ele><time>2026-03-07T15:31:24.999Z</time></trkpt><trkpt lat="36.9589401" lon="-3.6516812"><ele>1098.0</ele><time>2026-03-07T15:31:26.017Z</time></trkpt><trkpt lat="36.9589562" lon="-3.6515327"><ele>1098.0</ele><time>2026-03-07T15:31:27.062Z</time></trkpt><trkpt lat="36.9589643" lon="-3.6513964"><ele>1098.0</ele><time>2026-03-07T15:31:28.012Z</time></trkpt><trkpt lat="36.9589656" lon="-3.6512797"><ele>1098.0</ele><time>2026-03-07T15:31:29.077Z</time></trkpt><trkpt lat="36.9589742" lon="-3.6511787"><ele>1098.0</ele><time>2026-03-07T15:31:30.06Z</time></trkpt><trkpt lat="36.9590025" lon="-3.6510837"><ele>1098.0</ele><time>2026-03-07T15:31:31.074Z</time></trkpt><trkpt lat="36.959049" lon="-3.6510022"><ele>1098.0</ele><time>2026-03-07T15:31:32.047Z</time></trkpt><trkpt lat="36.9591094" lon="-3.6509387"><ele>1096.3333333333333</ele><time>2026-03-07T15:31:32.998Z</time></trkpt><trkpt lat="36.9591841" lon="-3.6509031"><ele>1094.6666666666667</ele><time>2026-03-07T15:31:34.006Z</time></trkpt><trkpt lat="36.9592688" lon="-3.6508819"><ele>1093.0</ele><time>2026-03-07T15:31:35.007Z</time></trkpt><trkpt lat="36.9593585" lon="-3.6508941"><ele>1091.3333333333335</ele><time>2026-03-07T15:31:36.006Z</time></trkpt><trkpt lat="36.9594468" lon="-3.6509178"><ele>1089.6666666666667</ele><time>2026-03-07T15:31:37.028Z</time></trkpt><trkpt lat="36.9595243" lon="-3.6509786"><ele>1088.0</ele><time>2026-03-07T15:31:38.012Z</time></trkpt><trkpt lat="36.9595965" lon="-3.6510589"><ele>1085.75</ele><time>2026-03-07T15:31:39.002Z</time></trkpt><trkpt lat="36.9596626" lon="-3.6511689"><ele>1083.5</ele><time>2026-03-07T15:31:40.005Z</time></trkpt><trkpt lat="36.9597279" lon="-3.6513029"><ele>1081.25</ele><time>2026-03-07T15:31:41.013Z</time></trkpt><trkpt lat="36.9597977" lon="-3.651434"><ele>1079.0</ele><time>2026-03-07T15:31:42.017Z</time></trkpt><trkpt lat="36.9598685" lon="-3.651568"><ele>1079.0</ele><time>2026-03-07T15:31:43.067Z</time></trkpt><trkpt lat="36.9599442" lon="-3.6516955"><ele>1079.0</ele><time>2026-03-07T15:31:44.009Z</time></trkpt><trkpt lat="36.9600251" lon="-3.6518094"><ele>1079.0</ele><time>2026-03-07T15:31:45.012Z</time></trkpt><trkpt lat="36.9601123" lon="-3.6519177"><ele>1079.0</ele><time>2026-03-07T15:31:46.013Z</time></trkpt><trkpt lat="36.9602147" lon="-3.6520148"><ele>1075.75</ele><time>2026-03-07T15:31:47.027Z</time></trkpt><trkpt lat="36.960325" lon="-3.6520908"><ele>1072.5</ele><time>2026-03-07T15:31:48.022Z</time></trkpt><trkpt lat="36.960436" lon="-3.6521617"><ele>1069.25</ele><time>2026-03-07T15:31:49.006Z</time></trkpt><trkpt lat="36.9605418" lon="-3.6522344"><ele>1066.0</ele><time>2026-03-07T15:31:50.011Z</time></trkpt><trkpt lat="36.9606404" lon="-3.6523116"><ele>1066.0</ele><time>2026-03-07T15:31:51.011Z</time></trkpt><trkpt lat="36.9607462" lon="-3.6523915"><ele>1066.0</ele><time>2026-03-07T15:31:52.013Z</time></trkpt><trkpt lat="36.9608528" lon="-3.652482"><ele>1066.0</ele><time>2026-03-07T15:31:53.021Z</time></trkpt><trkpt lat="36.9609561" lon="-3.6525798"><ele>1066.0</ele><time>2026-03-07T15:31:53.995Z</time></trkpt><trkpt lat="36.9610597" lon="-3.6526845"><ele>1061.25</ele><time>2026-03-07T15:31:55.026Z</time></trkpt><trkpt lat="36.9611659" lon="-3.652792"><ele>1056.5</ele><time>2026-03-07T15:31:56.001Z</time></trkpt><trkpt lat="36.9612643" lon="-3.652913"><ele>1051.75</ele><time>2026-03-07T15:31:57.007Z</time></trkpt><trkpt lat="36.9613689" lon="-3.6530293"><ele>1047.0</ele><time>2026-03-07T15:31:58.027Z</time></trkpt><trkpt lat="36.9614755" lon="-3.6531384"><ele>1047.0</ele><time>2026-03-07T15:31:59.012Z</time></trkpt><trkpt lat="36.9615661" lon="-3.6532634"><ele>1047.0</ele><time>2026-03-07T15:32:00.01Z</time></trkpt><trkpt lat="36.9616469" lon="-3.6533924"><ele>1047.0</ele><time>2026-03-07T15:32:01.013Z</time></trkpt><trkpt lat="36.9617279" lon="-3.6535202"><ele>1047.0</ele><time>2026-03-07T15:32:02.011Z</time></trkpt><trkpt lat="36.9617994" lon="-3.653653"><ele>1042.75</ele><time>2026-03-07T15:32:03.007Z</time></trkpt><trkpt lat="36.9618672" lon="-3.6537826"><ele>1038.5</ele><time>2026-03-07T15:32:04.01Z</time></trkpt><trkpt lat="36.9619147" lon="-3.6539203"><ele>1034.25</ele><time>2026-03-07T15:32:05.011Z</time></trkpt><trkpt lat="36.9619544" lon="-3.6540542"><ele>1030.0</ele><time>2026-03-07T15:32:06.01Z</time></trkpt><trkpt lat="36.9619984" lon="-3.6541829"><ele>1030.0</ele><time>2026-03-07T15:32:07Z</time></trkpt><trkpt lat="36.9620546" lon="-3.6543078"><ele>1030.0</ele><time>2026-03-07T15:32:08.013Z</time></trkpt><trkpt lat="36.9621378" lon="-3.654422"><ele>1030.0</ele><time>2026-03-07T15:32:09.056Z</time></trkpt><trkpt lat="36.9622394" lon="-3.6545298"><ele>1030.0</ele><time>2026-03-07T15:32:10.012Z</time></trkpt><trkpt lat="36.9623533" lon="-3.65463"><ele>1031.5</ele><time>2026-03-07T15:32:11.006Z</time></trkpt><trkpt lat="36.9624652" lon="-3.6547349"><ele>1033.0</ele><time>2026-03-07T15:32:12.014Z</time></trkpt><trkpt lat="36.9625684" lon="-3.6548507"><ele>1034.5</ele><time>2026-03-07T15:32:13.006Z</time></trkpt><trkpt lat="36.9626618" lon="-3.6549678"><ele>1036.0</ele><time>2026-03-07T15:32:14.011Z</time></trkpt><trkpt lat="36.962739" lon="-3.6551035"><ele>1031.0</ele><time>2026-03-07T15:32:14.999Z</time></trkpt><trkpt lat="36.9628064" lon="-3.655247"><ele>1026.0</ele><time>2026-03-07T15:32:16.021Z</time></trkpt><trkpt lat="36.9628724" lon="-3.6553986"><ele>1021.0</ele><time>2026-03-07T15:32:16.998Z</time></trkpt><trkpt lat="36.9629362" lon="-3.6555521"><ele>1016.0</ele><time>2026-03-07T15:32:17.996Z</time></trkpt><trkpt lat="36.9629967" lon="-3.6557017"><ele>1016.0</ele><time>2026-03-07T15:32:18.999Z</time></trkpt><trkpt lat="36.9630317" lon="-3.6558664"><ele>1016.0</ele><time>2026-03-07T15:32:20Z</time></trkpt><trkpt lat="36.9630764" lon="-3.6560075"><ele>1016.0</ele><time>2026-03-07T15:32:21.006Z</time></trkpt><trkpt lat="36.9631319" lon="-3.6561302"><ele>1016.0</ele><time>2026-03-07T15:32:22.008Z</time></trkpt><trkpt lat="36.9632098" lon="-3.6562228"><ele>1016.75</ele><time>2026-03-07T15:32:22.999Z</time></trkpt><trkpt lat="36.963304" lon="-3.6563022"><ele>1017.5</ele><time>2026-03-07T15:32:24.007Z</time></trkpt><trkpt lat="36.9634126" lon="-3.6563791"><ele>1018.25</ele><time>2026-03-07T15:32:24.998Z</time></trkpt><trkpt lat="36.9635381" lon="-3.6564291"><ele>1019.0</ele><time>2026-03-07T15:32:26.006Z</time></trkpt><trkpt lat="36.96368" lon="-3.656433"><ele>1013.6666666666667</ele><time>2026-03-07T15:32:27.001Z</time></trkpt><trkpt lat="36.9638302" lon="-3.6564065"><ele>1008.3333333333333</ele><time>2026-03-07T15:32:28.001Z</time></trkpt><trkpt lat="36.9639775" lon="-3.6563611"><ele>1003.0</ele><time>2026-03-07T15:32:29.001Z</time></trkpt><trkpt lat="36.9641231" lon="-3.6563192"><ele>999.25</ele><time>2026-03-07T15:32:30.013Z</time></trkpt><trkpt lat="36.9642639" lon="-3.656271"><ele>995.5</ele><time>2026-03-07T15:32:31.008Z</time></trkpt><trkpt lat="36.9643993" lon="-3.6562188"><ele>991.75</ele><time>2026-03-07T15:32:32.005Z</time></trkpt><trkpt lat="36.9645349" lon="-3.6561901"><ele>988.0</ele><time>2026-03-07T15:32:33.013Z</time></trkpt><trkpt lat="36.9646687" lon="-3.6562081"><ele>988.0</ele><time>2026-03-07T15:32:34.028Z</time></trkpt><trkpt lat="36.9648036" lon="-3.6562763"><ele>988.0</ele><time>2026-03-07T15:32:35Z</time></trkpt><trkpt lat="36.9649437" lon="-3.656348"><ele>988.0</ele><time>2026-03-07T15:32:36Z</time></trkpt><trkpt lat="36.9650806" lon="-3.6564222"><ele>988.0</ele><time>2026-03-07T15:32:37.022Z</time></trkpt><trkpt lat="36.9652128" lon="-3.6564889"><ele>988.5</ele><time>2026-03-07T15:32:38.009Z</time></trkpt><trkpt lat="36.9653334" lon="-3.6565439"><ele>989.0</ele><time>2026-03-07T15:32:39.031Z</time></trkpt><trkpt lat="36.9654411" lon="-3.6565921"><ele>989.5</ele><time>2026-03-07T15:32:40.013Z</time></trkpt><trkpt lat="36.965555" lon="-3.6566436"><ele>990.0</ele><time>2026-03-07T15:32:41.009Z</time></trkpt><trkpt lat="36.9656773" lon="-3.6566948"><ele>990.0</ele><time>2026-03-07T15:32:41.998Z</time></trkpt><trkpt lat="36.9658083" lon="-3.656753"><ele>990.0</ele><time>2026-03-07T15:32:43.005Z</time></trkpt><trkpt lat="36.9659403" lon="-3.6568164"><ele>990.0</ele><time>2026-03-07T15:32:44.008Z</time></trkpt><trkpt lat="36.9660678" lon="-3.6568803"><ele>990.0</ele><time>2026-03-07T15:32:44.997Z</time></trkpt><trkpt lat="36.9661899" lon="-3.6569428"><ele>987.75</ele><time>2026-03-07T15:32:46.011Z</time></trkpt><trkpt lat="36.9663066" lon="-3.6570105"><ele>985.5</ele><time>2026-03-07T15:32:47.013Z</time></trkpt><trkpt lat="36.9664212" lon="-3.6570679"><ele>983.25</ele><time>2026-03-07T15:32:48.008Z</time></trkpt><trkpt lat="36.9665348" lon="-3.6571122"><ele>981.0</ele><time>2026-03-07T15:32:49.007Z</time></trkpt><trkpt lat="36.9666458" lon="-3.6571412"><ele>977.8</ele><time>2026-03-07T15:32:49.988Z</time></trkpt><trkpt lat="36.9667582" lon="-3.6571528"><ele>974.5999999999999</ele><time>2026-03-07T15:32:51.006Z</time></trkpt><trkpt lat="36.9668667" lon="-3.6571507"><ele>971.4</ele><time>2026-03-07T15:32:52.01Z</time></trkpt><trkpt lat="36.966966" lon="-3.6571344"><ele>968.2</ele><time>2026-03-07T15:32:53.011Z</time></trkpt><trkpt lat="36.9670714" lon="-3.6571018"><ele>965.0</ele><time>2026-03-07T15:32:53.999Z</time></trkpt><trkpt lat="36.9671784" lon="-3.6570458"><ele>965.0</ele><time>2026-03-07T15:32:55.006Z</time></trkpt><trkpt lat="36.9672801" lon="-3.6569555"><ele>965.0</ele><time>2026-03-07T15:32:56.005Z</time></trkpt><trkpt lat="36.9673755" lon="-3.6568414"><ele>965.0</ele><time>2026-03-07T15:32:57.003Z</time></trkpt><trkpt lat="36.9674353" lon="-3.6567151"><ele>965.0</ele><time>2026-03-07T15:32:58.004Z</time></trkpt><trkpt lat="36.9674841" lon="-3.6565651"><ele>965.5</ele><time>2026-03-07T15:32:59.005Z</time></trkpt><trkpt lat="36.9675201" lon="-3.6564142"><ele>966.0</ele><time>2026-03-07T15:33:00.009Z</time></trkpt><trkpt lat="36.967565" lon="-3.656258"><ele>966.5</ele><time>2026-03-07T15:33:01.016Z</time></trkpt><trkpt lat="36.9676405" lon="-3.656139"><ele>967.0</ele><time>2026-03-07T15:33:02.003Z</time></trkpt><trkpt lat="36.9677362" lon="-3.6560334"><ele>967.5</ele><time>2026-03-07T15:33:03.007Z</time></trkpt><trkpt lat="36.967843" lon="-3.6559473"><ele>968.0</ele><time>2026-03-07T15:33:04.012Z</time></trkpt><trkpt lat="36.9679606" lon="-3.6558809"><ele>968.5</ele><time>2026-03-07T15:33:05.006Z</time></trkpt><trkpt lat="36.9680913" lon="-3.6558315"><ele>969.0</ele><time>2026-03-07T15:33:06.01Z</time></trkpt><trkpt lat="36.9682301" lon="-3.6557685"><ele>968.25</ele><time>2026-03-07T15:33:06.992Z</time></trkpt><trkpt lat="36.968373" lon="-3.6556915"><ele>967.5</ele><time>2026-03-07T15:33:08.007Z</time></trkpt><trkpt lat="36.9685092" lon="-3.6556064"><ele>966.75</ele><time>2026-03-07T15:33:09.008Z</time></trkpt><trkpt lat="36.9686273" lon="-3.6555165"><ele>966.0</ele><time>2026-03-07T15:33:10.007Z</time></trkpt><trkpt lat="36.9687103" lon="-3.6553996"><ele>965.75</ele><time>2026-03-07T15:33:11.005Z</time></trkpt><trkpt lat="36.9687668" lon="-3.6552566"><ele>965.5</ele><time>2026-03-07T15:33:11.997Z</time></trkpt><trkpt lat="36.9688225" lon="-3.6550917"><ele>965.25</ele><time>2026-03-07T15:33:13.001Z</time></trkpt><trkpt lat="36.9688782" lon="-3.6549166"><ele>965.0</ele><time>2026-03-07T15:33:14.005Z</time></trkpt><trkpt lat="36.9689381" lon="-3.6547256"><ele>965.0</ele><time>2026-03-07T15:33:15.001Z</time></trkpt><trkpt lat="36.9689923" lon="-3.6545375"><ele>965.0</ele><time>2026-03-07T15:33:16.011Z</time></trkpt><trkpt lat="36.9690452" lon="-3.6543576"><ele>965.0</ele><time>2026-03-07T15:33:17.012Z</time></trkpt><trkpt lat="36.9691023" lon="-3.6541824"><ele>964.0</ele><time>2026-03-07T15:33:18.01Z</time></trkpt><trkpt lat="36.9691489" lon="-3.6540041"><ele>963.0</ele><time>2026-03-07T15:33:19.002Z</time></trkpt><trkpt lat="36.9691691" lon="-3.6538226"><ele>962.0</ele><time>2026-03-07T15:33:20.009Z</time></trkpt><trkpt lat="36.9691868" lon="-3.6536342"><ele>961.0</ele><time>2026-03-07T15:33:21.008Z</time></trkpt><trkpt lat="36.9691923" lon="-3.653436"><ele>959.6666666666666</ele><time>2026-03-07T15:33:22.002Z</time></trkpt><trkpt lat="36.9691592" lon="-3.6532378"><ele>958.3333333333333</ele><time>2026-03-07T15:33:23.028Z</time></trkpt><trkpt lat="36.9691171" lon="-3.6530383"><ele>957.0</ele><time>2026-03-07T15:33:24.021Z</time></trkpt><trkpt lat="36.9690631" lon="-3.6528486"><ele>954.5</ele><time>2026-03-07T15:33:25.007Z</time></trkpt><trkpt lat="36.9690033" lon="-3.6526676"><ele>952.0</ele><time>2026-03-07T15:33:26.008Z</time></trkpt><trkpt lat="36.9689511" lon="-3.6524989"><ele>949.5</ele><time>2026-03-07T15:33:27.005Z</time></trkpt><trkpt lat="36.9689048" lon="-3.6523506"><ele>947.0</ele><time>2026-03-07T15:33:28.01Z</time></trkpt><trkpt lat="36.9688546" lon="-3.6522211"><ele>947.0</ele><time>2026-03-07T15:33:29.013Z</time></trkpt><trkpt lat="36.9688082" lon="-3.6520983"><ele>947.0</ele><time>2026-03-07T15:33:30.013Z</time></trkpt><trkpt lat="36.9687515" lon="-3.6519874"><ele>947.0</ele><time>2026-03-07T15:33:31.004Z</time></trkpt><trkpt lat="36.9687145" lon="-3.6518595"><ele>947.0</ele><time>2026-03-07T15:33:32.01Z</time></trkpt><trkpt lat="36.9686993" lon="-3.6516907"><ele>944.25</ele><time>2026-03-07T15:33:33.012Z</time></trkpt><trkpt lat="36.9687269" lon="-3.651517"><ele>941.5</ele><time>2026-03-07T15:33:34.023Z</time></trkpt><trkpt lat="36.9687763" lon="-3.6513531"><ele>938.75</ele><time>2026-03-07T15:33:35.006Z</time></trkpt><trkpt lat="36.9688477" lon="-3.6512206"><ele>936.0</ele><time>2026-03-07T15:33:36.023Z</time></trkpt><trkpt lat="36.96893" lon="-3.6511068"><ele>935.25</ele><time>2026-03-07T15:33:37.005Z</time></trkpt><trkpt lat="36.9690215" lon="-3.6510043"><ele>934.5</ele><time>2026-03-07T15:33:37.997Z</time></trkpt><trkpt lat="36.9691279" lon="-3.650926"><ele>933.75</ele><time>2026-03-07T15:33:39.011Z</time></trkpt><trkpt lat="36.969236" lon="-3.6508572"><ele>933.0</ele><time>2026-03-07T15:33:40.01Z</time></trkpt><trkpt lat="36.9693443" lon="-3.6507975"><ele>931.5999999999999</ele><time>2026-03-07T15:33:41.001Z</time></trkpt><trkpt lat="36.9694427" lon="-3.6507411"><ele>930.1999999999999</ele><time>2026-03-07T15:33:41.994Z</time></trkpt><trkpt lat="36.9695417" lon="-3.6506882"><ele>928.8</ele><time>2026-03-07T15:33:43.004Z</time></trkpt><trkpt lat="36.9696334" lon="-3.6506353"><ele>927.4</ele><time>2026-03-07T15:33:44.027Z</time></trkpt><trkpt lat="36.9697057" lon="-3.6505764"><ele>926.0</ele><time>2026-03-07T15:33:45.011Z</time></trkpt><trkpt lat="36.9698072" lon="-3.6505697"><ele>926.0</ele><time>2026-03-07T15:33:47.011Z</time></trkpt><trkpt lat="36.9698921" lon="-3.6506469"><ele>925.9999999999999</ele><time>2026-03-07T15:33:49.009Z</time></trkpt><trkpt lat="36.9699403" lon="-3.6507405"><ele>925.9999999999999</ele><time>2026-03-07T15:33:50Z</time></trkpt><trkpt lat="36.9699903" lon="-3.6508534"><ele>926.0</ele><time>2026-03-07T15:33:51.027Z</time></trkpt><trkpt lat="36.9700504" lon="-3.650957"><ele>926.0</ele><time>2026-03-07T15:33:52.016Z</time></trkpt><trkpt lat="36.9701122" lon="-3.6510525"><ele>925.8</ele><time>2026-03-07T15:33:53.011Z</time></trkpt><trkpt lat="36.9701866" lon="-3.6511332"><ele>925.5999999999999</ele><time>2026-03-07T15:33:54.008Z</time></trkpt><trkpt lat="36.9702779" lon="-3.6511839"><ele>925.4</ele><time>2026-03-07T15:33:55.018Z</time></trkpt><trkpt lat="36.970358" lon="-3.651242"><ele>925.2</ele><time>2026-03-07T15:33:56.013Z</time></trkpt><trkpt lat="36.9704241" lon="-3.6513072"><ele>925.0</ele><time>2026-03-07T15:33:57.028Z</time></trkpt><trkpt lat="36.9704953" lon="-3.6513738"><ele>925.0</ele><time>2026-03-07T15:33:58.007Z</time></trkpt><trkpt lat="36.9705529" lon="-3.6514736"><ele>925.0</ele><time>2026-03-07T15:33:59.007Z</time></trkpt><trkpt lat="36.9706123" lon="-3.651584"><ele>925.0</ele><time>2026-03-07T15:34:00.043Z</time></trkpt><trkpt lat="36.9706753" lon="-3.6516876"><ele>925.0</ele><time>2026-03-07T15:34:01.009Z</time></trkpt><trkpt lat="36.970756" lon="-3.6517588"><ele>925.0</ele><time>2026-03-07T15:34:01.971Z</time></trkpt><trkpt lat="36.9708345" lon="-3.6518442"><ele>925.2</ele><time>2026-03-07T15:34:03.002Z</time></trkpt><trkpt lat="36.9709118" lon="-3.6519202"><ele>925.4</ele><time>2026-03-07T15:34:03.997Z</time></trkpt><trkpt lat="36.97097" lon="-3.6520067"><ele>925.5999999999999</ele><time>2026-03-07T15:34:04.987Z</time></trkpt><trkpt lat="36.9710212" lon="-3.6521131"><ele>925.8</ele><time>2026-03-07T15:34:05.984Z</time></trkpt><trkpt lat="36.9710152" lon="-3.6522706"><ele>926.0</ele><time>2026-03-07T15:34:07.032Z</time></trkpt><trkpt lat="36.9710665" lon="-3.6523934"><ele>926.5999999999999</ele><time>2026-03-07T15:34:08.014Z</time></trkpt><trkpt lat="36.9711169" lon="-3.65251"><ele>927.1999999999999</ele><time>2026-03-07T15:34:09.004Z</time></trkpt><trkpt lat="36.9711617" lon="-3.6526178"><ele>927.8000000000001</ele><time>2026-03-07T15:34:10.037Z</time></trkpt><trkpt lat="36.9712101" lon="-3.6527214"><ele>928.4000000000001</ele><time>2026-03-07T15:34:11.017Z</time></trkpt><trkpt lat="36.9712648" lon="-3.6528235"><ele>929.0</ele><time>2026-03-07T15:34:12.01Z</time></trkpt><trkpt lat="36.9713254" lon="-3.6529214"><ele>929.2</ele><time>2026-03-07T15:34:13.025Z</time></trkpt><trkpt lat="36.9713872" lon="-3.6530212"><ele>929.4000000000001</ele><time>2026-03-07T15:34:14.016Z</time></trkpt><trkpt lat="36.9714439" lon="-3.6531277"><ele>929.6</ele><time>2026-03-07T15:34:15.011Z</time></trkpt><trkpt lat="36.9715001" lon="-3.6532367"><ele>929.8</ele><time>2026-03-07T15:34:16.016Z</time></trkpt><trkpt lat="36.9715558" lon="-3.65335"><ele>930.0</ele><time>2026-03-07T15:34:17.016Z</time></trkpt><trkpt lat="36.9716061" lon="-3.653478"><ele>930.0</ele><time>2026-03-07T15:34:18.006Z</time></trkpt><trkpt lat="36.9716499" lon="-3.653614"><ele>930.0</ele><time>2026-03-07T15:34:19.016Z</time></trkpt><trkpt lat="36.9716979" lon="-3.6537432"><ele>930.0</ele><time>2026-03-07T15:34:20.008Z</time></trkpt><trkpt lat="36.9717519" lon="-3.6538603"><ele>930.0</ele><time>2026-03-07T15:34:21.009Z</time></trkpt><trkpt lat="36.9718014" lon="-3.6539681"><ele>930.0</ele><time>2026-03-07T15:34:22.013Z</time></trkpt><trkpt lat="36.9718415" lon="-3.654072"><ele>930.0</ele><time>2026-03-07T15:34:23.02Z</time></trkpt><trkpt lat="36.9718781" lon="-3.6541699"><ele>930.0</ele><time>2026-03-07T15:34:24.014Z</time></trkpt><trkpt lat="36.9718878" lon="-3.6542605"><ele>930.0</ele><time>2026-03-07T15:34:25.006Z</time></trkpt><trkpt lat="36.9718732" lon="-3.6543415"><ele>930.0</ele><time>2026-03-07T15:34:26.025Z</time></trkpt><trkpt lat="36.9718479" lon="-3.6544154"><ele>930.0</ele><time>2026-03-07T15:34:27.047Z</time></trkpt><trkpt lat="36.971837" lon="-3.6545422"><ele>930.0</ele><time>2026-03-07T15:34:29.007Z</time></trkpt><trkpt lat="36.9718639" lon="-3.6546768"><ele>930.0</ele><time>2026-03-07T15:34:31.008Z</time></trkpt><trkpt lat="36.9718928" lon="-3.6547551"><ele>930.0</ele><time>2026-03-07T15:34:32.011Z</time></trkpt><trkpt lat="36.9719232" lon="-3.6548459"><ele>930.0</ele><time>2026-03-07T15:34:32.994Z</time></trkpt><trkpt lat="36.9719487" lon="-3.6549446"><ele>930.0</ele><time>2026-03-07T15:34:34.019Z</time></trkpt><trkpt lat="36.971963" lon="-3.6550445"><ele>930.0</ele><time>2026-03-07T15:34:35.005Z</time></trkpt><trkpt lat="36.971966" lon="-3.655141"><ele>930.0</ele><time>2026-03-07T15:34:36.006Z</time></trkpt><trkpt lat="36.9719655" lon="-3.6552342"><ele>928.7142857142857</ele><time>2026-03-07T15:34:37.025Z</time></trkpt><trkpt lat="36.9719675" lon="-3.6553228"><ele>927.4285714285716</ele><time>2026-03-07T15:34:38.002Z</time></trkpt><trkpt lat="36.9719713" lon="-3.6554135"><ele>926.1428571428572</ele><time>2026-03-07T15:34:39.01Z</time></trkpt><trkpt lat="36.9719782" lon="-3.6555049"><ele>924.8571428571429</ele><time>2026-03-07T15:34:40.016Z</time></trkpt><trkpt lat="36.9719845" lon="-3.6555961"><ele>923.5714285714287</ele><time>2026-03-07T15:34:41.009Z</time></trkpt><trkpt lat="36.9719875" lon="-3.6556878"><ele>922.2857142857144</ele><time>2026-03-07T15:34:42.01Z</time></trkpt><trkpt lat="36.9719846" lon="-3.6557758"><ele>921.0000000000001</ele><time>2026-03-07T15:34:43.013Z</time></trkpt><trkpt lat="36.9719825" lon="-3.6558668"><ele>921.0000000000001</ele><time>2026-03-07T15:34:44.002Z</time></trkpt><trkpt lat="36.9719802" lon="-3.6559587"><ele>921.0</ele><time>2026-03-07T15:34:45.019Z</time></trkpt><trkpt lat="36.9719806" lon="-3.65605"><ele>921.0000000000001</ele><time>2026-03-07T15:34:46.004Z</time></trkpt><trkpt lat="36.9719914" lon="-3.6561378"><ele>921.0000000000001</ele><time>2026-03-07T15:34:47.008Z</time></trkpt><trkpt lat="36.9720078" lon="-3.6562219"><ele>921.0</ele><time>2026-03-07T15:34:48.015Z</time></trkpt><trkpt lat="36.9720135" lon="-3.6563207"><ele>921.0000000000001</ele><time>2026-03-07T15:34:49.005Z</time></trkpt><trkpt lat="36.9720422" lon="-3.6564078"><ele>921.0000000000001</ele><time>2026-03-07T15:34:49.999Z</time></trkpt><trkpt lat="36.9720707" lon="-3.656501"><ele>917.1999999999999</ele><time>2026-03-07T15:34:51.005Z</time></trkpt><trkpt lat="36.9721013" lon="-3.6565966"><ele>913.3999999999999</ele><time>2026-03-07T15:34:52.003Z</time></trkpt><trkpt lat="36.9721292" lon="-3.6566908"><ele>909.6</ele><time>2026-03-07T15:34:53.007Z</time></trkpt><trkpt lat="36.9721539" lon="-3.6567686"><ele>905.8</ele><time>2026-03-07T15:34:54.018Z</time></trkpt><trkpt lat="36.9721753" lon="-3.656917"><ele>902.0</ele><time>2026-03-07T15:34:56.01Z</time></trkpt><trkpt lat="36.972197" lon="-3.6570657"><ele>900.6666666666667</ele><time>2026-03-07T15:34:58.032Z</time></trkpt><trkpt lat="36.9722065" lon="-3.6571472"><ele>899.3333333333334</ele><time>2026-03-07T15:34:59.004Z</time></trkpt><trkpt lat="36.9722257" lon="-3.6572253"><ele>898.0</ele><time>2026-03-07T15:35:00.02Z</time></trkpt><trkpt lat="36.9722207" lon="-3.6573686"><ele>896.6666666666667</ele><time>2026-03-07T15:35:02.005Z</time></trkpt><trkpt lat="36.9721913" lon="-3.657479"><ele>895.3333333333334</ele><time>2026-03-07T15:35:04.013Z</time></trkpt><trkpt lat="36.9721743" lon="-3.6575833"><ele>894.0</ele><time>2026-03-07T15:35:06.027Z</time></trkpt><trkpt lat="36.972219" lon="-3.6576664"><ele>894.0</ele><time>2026-03-07T15:35:08.012Z</time></trkpt><trkpt lat="36.9723017" lon="-3.6576696"><ele>894.0000000000001</ele><time>2026-03-07T15:35:10.007Z</time></trkpt><trkpt lat="36.9723965" lon="-3.6575691"><ele>894.0000000000001</ele><time>2026-03-07T15:35:12.002Z</time></trkpt><trkpt lat="36.9724557" lon="-3.6574549"><ele>894.0</ele><time>2026-03-07T15:35:14.008Z</time></trkpt><trkpt lat="36.9725159" lon="-3.6574098"><ele>894.0</ele><time>2026-03-07T15:35:16.022Z</time></trkpt><trkpt lat="36.972583" lon="-3.6574405"><ele>895.8333333333334</ele><time>2026-03-07T15:35:18.007Z</time></trkpt><trkpt lat="36.9726157" lon="-3.6575579"><ele>897.6666666666667</ele><time>2026-03-07T15:35:20.009Z</time></trkpt><trkpt lat="36.9726368" lon="-3.657642"><ele>899.5</ele><time>2026-03-07T15:35:21.009Z</time></trkpt><trkpt lat="36.9726581" lon="-3.6577376"><ele>901.3333333333334</ele><time>2026-03-07T15:35:22.012Z</time></trkpt><trkpt lat="36.9726745" lon="-3.6578371"><ele>903.1666666666667</ele><time>2026-03-07T15:35:23.005Z</time></trkpt><trkpt lat="36.9726931" lon="-3.6579454"><ele>905.0</ele><time>2026-03-07T15:35:24.009Z</time></trkpt><trkpt lat="36.972717" lon="-3.658057"><ele>908.0000000000001</ele><time>2026-03-07T15:35:25.019Z</time></trkpt><trkpt lat="36.9727404" lon="-3.6581599"><ele>911.0</ele><time>2026-03-07T15:35:26.011Z</time></trkpt><trkpt lat="36.9727664" lon="-3.6582517"><ele>914.0</ele><time>2026-03-07T15:35:27.007Z</time></trkpt><trkpt lat="36.9727951" lon="-3.6583384"><ele>917.0</ele><time>2026-03-07T15:35:28.009Z</time></trkpt><trkpt lat="36.9728326" lon="-3.6584186"><ele>920.0000000000001</ele><time>2026-03-07T15:35:29.009Z</time></trkpt><trkpt lat="36.9728696" lon="-3.658495"><ele>923.0</ele><time>2026-03-07T15:35:30.008Z</time></trkpt><trkpt lat="36.9729142" lon="-3.6585583"><ele>923.1666666666667</ele><time>2026-03-07T15:35:31.009Z</time></trkpt><trkpt lat="36.9729498" lon="-3.6586266"><ele>923.3333333333334</ele><time>2026-03-07T15:35:32.009Z</time></trkpt><trkpt lat="36.9729796" lon="-3.65871"><ele>923.5</ele><time>2026-03-07T15:35:33.039Z</time></trkpt><trkpt lat="36.9730059" lon="-3.6588104"><ele>923.6666666666667</ele><time>2026-03-07T15:35:34.006Z</time></trkpt><trkpt lat="36.9730308" lon="-3.6589154"><ele>923.8333333333334</ele><time>2026-03-07T15:35:35.006Z</time></trkpt><trkpt lat="36.9730489" lon="-3.6590096"><ele>924.0</ele><time>2026-03-07T15:35:36.008Z</time></trkpt><trkpt lat="36.9730582" lon="-3.6590959"><ele>924.0</ele><time>2026-03-07T15:35:37.017Z</time></trkpt><trkpt lat="36.9730659" lon="-3.6592425"><ele>924.0</ele><time>2026-03-07T15:35:39.007Z</time></trkpt><trkpt lat="36.9730939" lon="-3.6593381"><ele>924.0</ele><time>2026-03-07T15:35:41.01Z</time></trkpt><trkpt lat="36.9731669" lon="-3.6593335"><ele>924.0</ele><time>2026-03-07T15:35:43.018Z</time></trkpt><trkpt lat="36.9732017" lon="-3.6592336"><ele>924.0</ele><time>2026-03-07T15:35:45.018Z</time></trkpt><trkpt lat="36.9731864" lon="-3.6591318"><ele>924.0</ele><time>2026-03-07T15:35:46.013Z</time></trkpt><trkpt lat="36.9731753" lon="-3.659013"><ele>924.0</ele><time>2026-03-07T15:35:47.01Z</time></trkpt><trkpt lat="36.9731721" lon="-3.658887"><ele>924.0000000000001</ele><time>2026-03-07T15:35:48.008Z</time></trkpt><trkpt lat="36.9731743" lon="-3.6587538"><ele>924.0000000000001</ele><time>2026-03-07T15:35:49.008Z</time></trkpt><trkpt lat="36.9731795" lon="-3.6586252"><ele>924.0</ele><time>2026-03-07T15:35:50.022Z</time></trkpt><trkpt lat="36.9731823" lon="-3.6585051"><ele>924.0</ele><time>2026-03-07T15:35:51.016Z</time></trkpt><trkpt lat="36.9731841" lon="-3.6583842"><ele>923.8333333333334</ele><time>2026-03-07T15:35:52.017Z</time></trkpt><trkpt lat="36.9731859" lon="-3.6582618"><ele>923.6666666666667</ele><time>2026-03-07T15:35:53.017Z</time></trkpt><trkpt lat="36.973197" lon="-3.6581457"><ele>923.5</ele><time>2026-03-07T15:35:54.01Z</time></trkpt><trkpt lat="36.9732098" lon="-3.6580471"><ele>923.3333333333334</ele><time>2026-03-07T15:35:55.009Z</time></trkpt><trkpt lat="36.9732301" lon="-3.6579721"><ele>923.1666666666667</ele><time>2026-03-07T15:35:56.008Z</time></trkpt><trkpt lat="36.9732797" lon="-3.6578738"><ele>923.0</ele><time>2026-03-07T15:35:58.02Z</time></trkpt><trkpt lat="36.9733941" lon="-3.6578444"><ele>926.5000000000001</ele><time>2026-03-07T15:36:00.031Z</time></trkpt><trkpt lat="36.9734677" lon="-3.6578531"><ele>930.0</ele><time>2026-03-07T15:36:01.01Z</time></trkpt><trkpt lat="36.9735447" lon="-3.6578648"><ele>933.5</ele><time>2026-03-07T15:36:02.008Z</time></trkpt><trkpt lat="36.9736231" lon="-3.6578997"><ele>937.0</ele><time>2026-03-07T15:36:03.01Z</time></trkpt><trkpt lat="36.9737005" lon="-3.6579362"><ele>940.5000000000001</ele><time>2026-03-07T15:36:04.012Z</time></trkpt><trkpt lat="36.9737745" lon="-3.6579632"><ele>944.0</ele><time>2026-03-07T15:36:05.004Z</time></trkpt><trkpt lat="36.9738541" lon="-3.657985"><ele>944.0</ele><time>2026-03-07T15:36:06.023Z</time></trkpt><trkpt lat="36.9739396" lon="-3.6580131"><ele>944.0000000000001</ele><time>2026-03-07T15:36:07.01Z</time></trkpt><trkpt lat="36.9740356" lon="-3.6580522"><ele>944.0000000000001</ele><time>2026-03-07T15:36:08.005Z</time></trkpt><trkpt lat="36.9741371" lon="-3.6581013"><ele>944.0</ele><time>2026-03-07T15:36:09.006Z</time></trkpt><trkpt lat="36.974241" lon="-3.6581447"><ele>944.0</ele><time>2026-03-07T15:36:10.04Z</time></trkpt><trkpt lat="36.974348" lon="-3.6581833"><ele>943.0</ele><time>2026-03-07T15:36:11.013Z</time></trkpt><trkpt lat="36.9744526" lon="-3.6582151"><ele>942.0000000000001</ele><time>2026-03-07T15:36:12.007Z</time></trkpt><trkpt lat="36.9745504" lon="-3.6582402"><ele>941.0000000000001</ele><time>2026-03-07T15:36:13.012Z</time></trkpt><trkpt lat="36.9746483" lon="-3.6582691"><ele>940.0</ele><time>2026-03-07T15:36:14.004Z</time></trkpt><trkpt lat="36.9747441" lon="-3.6583101"><ele>939.0</ele><time>2026-03-07T15:36:15.011Z</time></trkpt><trkpt lat="36.9748389" lon="-3.6583622"><ele>939.0</ele><time>2026-03-07T15:36:16.004Z</time></trkpt><trkpt lat="36.9749315" lon="-3.6584249"><ele>939.0000000000001</ele><time>2026-03-07T15:36:16.995Z</time></trkpt><trkpt lat="36.9750193" lon="-3.6585063"><ele>939.0000000000001</ele><time>2026-03-07T15:36:17.989Z</time></trkpt><trkpt lat="36.9751079" lon="-3.6585896"><ele>939.0</ele><time>2026-03-07T15:36:19.009Z</time></trkpt><trkpt lat="36.9751938" lon="-3.6586692"><ele>939.0</ele><time>2026-03-07T15:36:20.01Z</time></trkpt><trkpt lat="36.9752745" lon="-3.6587535"><ele>940.6</ele><time>2026-03-07T15:36:21.007Z</time></trkpt><trkpt lat="36.9753575" lon="-3.6588374"><ele>942.2</ele><time>2026-03-07T15:36:22.012Z</time></trkpt><trkpt lat="36.9754347" lon="-3.658918"><ele>943.8000000000001</ele><time>2026-03-07T15:36:23.014Z</time></trkpt><trkpt lat="36.9754995" lon="-3.6590016"><ele>945.4000000000001</ele><time>2026-03-07T15:36:24.012Z</time></trkpt><trkpt lat="36.9755614" lon="-3.6590804"><ele>947.0</ele><time>2026-03-07T15:36:25.006Z</time></trkpt><trkpt lat="36.9756123" lon="-3.6591803"><ele>947.0000000000001</ele><time>2026-03-07T15:36:26.013Z</time></trkpt><trkpt lat="36.9756648" lon="-3.6592848"><ele>947.0</ele><time>2026-03-07T15:36:26.997Z</time></trkpt><trkpt lat="36.975709" lon="-3.6593891"><ele>947.0</ele><time>2026-03-07T15:36:28.008Z</time></trkpt><trkpt lat="36.9757508" lon="-3.6594852"><ele>947.0</ele><time>2026-03-07T15:36:29.007Z</time></trkpt><trkpt lat="36.9757832" lon="-3.6595802"><ele>947.0000000000001</ele><time>2026-03-07T15:36:30.008Z</time></trkpt><trkpt lat="36.975805" lon="-3.6596738"><ele>947.0</ele><time>2026-03-07T15:36:31.014Z</time></trkpt><trkpt lat="36.9758099" lon="-3.6597608"><ele>949.8333333333334</ele><time>2026-03-07T15:36:32.004Z</time></trkpt><trkpt lat="36.9758036" lon="-3.6598397"><ele>952.6666666666667</ele><time>2026-03-07T15:36:33.018Z</time></trkpt><trkpt lat="36.9757851" lon="-3.6599226"><ele>955.5</ele><time>2026-03-07T15:36:34.008Z</time></trkpt><trkpt lat="36.9757572" lon="-3.6600139"><ele>958.3333333333333</ele><time>2026-03-07T15:36:35.014Z</time></trkpt><trkpt lat="36.9757349" lon="-3.6600963"><ele>961.1666666666666</ele><time>2026-03-07T15:36:36.018Z</time></trkpt><trkpt lat="36.9757627" lon="-3.6602483"><ele>964.0</ele><time>2026-03-07T15:36:38.006Z</time></trkpt><trkpt lat="36.9757951" lon="-3.6603311"><ele>966.3333333333333</ele><time>2026-03-07T15:36:39.012Z</time></trkpt><trkpt lat="36.9758475" lon="-3.6604067"><ele>968.6666666666666</ele><time>2026-03-07T15:36:40.007Z</time></trkpt><trkpt lat="36.9759193" lon="-3.660466"><ele>971.0</ele><time>2026-03-07T15:36:41.013Z</time></trkpt><trkpt lat="36.975988" lon="-3.6605188"><ele>973.3333333333333</ele><time>2026-03-07T15:36:42.017Z</time></trkpt><trkpt lat="36.97606" lon="-3.6605641"><ele>975.6666666666666</ele><time>2026-03-07T15:36:43.012Z</time></trkpt><trkpt lat="36.9761352" lon="-3.6605902"><ele>978.0</ele><time>2026-03-07T15:36:44.012Z</time></trkpt><trkpt lat="36.9762026" lon="-3.6606237"><ele>979.1666666666666</ele><time>2026-03-07T15:36:45.005Z</time></trkpt><trkpt lat="36.9762678" lon="-3.660657"><ele>980.3333333333333</ele><time>2026-03-07T15:36:46.014Z</time></trkpt><trkpt lat="36.9763309" lon="-3.6606869"><ele>981.5</ele><time>2026-03-07T15:36:47Z</time></trkpt><trkpt lat="36.976399" lon="-3.6607032"><ele>982.6666666666666</ele><time>2026-03-07T15:36:48.016Z</time></trkpt><trkpt lat="36.9764612" lon="-3.6607174"><ele>983.8333333333333</ele><time>2026-03-07T15:36:48.997Z</time></trkpt><trkpt lat="36.9765598" lon="-3.6607958"><ele>985.0</ele><time>2026-03-07T15:36:51.011Z</time></trkpt><trkpt lat="36.9766249" lon="-3.6608792"><ele>986.8</ele><time>2026-03-07T15:36:53.008Z</time></trkpt><trkpt lat="36.9767005" lon="-3.6609165"><ele>988.6</ele><time>2026-03-07T15:36:55.013Z</time></trkpt><trkpt lat="36.9768099" lon="-3.6609532"><ele>990.4000000000001</ele><time>2026-03-07T15:36:57.016Z</time></trkpt><trkpt lat="36.9769106" lon="-3.6609767"><ele>992.2</ele><time>2026-03-07T15:36:59.011Z</time></trkpt><trkpt lat="36.9770106" lon="-3.6609915"><ele>994.0</ele><time>2026-03-07T15:37:01.011Z</time></trkpt><trkpt lat="36.9771373" lon="-3.6609888"><ele>994.0</ele><time>2026-03-07T15:37:03.012Z</time></trkpt><trkpt lat="36.9772616" lon="-3.6609943"><ele>994.0</ele><time>2026-03-07T15:37:05.015Z</time></trkpt><trkpt lat="36.9773816" lon="-3.6610132"><ele>994.0</ele><time>2026-03-07T15:37:07.007Z</time></trkpt><trkpt lat="36.9774894" lon="-3.6610207"><ele>994.0</ele><time>2026-03-07T15:37:09.007Z</time></trkpt><trkpt lat="36.9776032" lon="-3.6610578"><ele>994.2</ele><time>2026-03-07T15:37:11.008Z</time></trkpt><trkpt lat="36.9777041" lon="-3.6611245"><ele>994.4000000000001</ele><time>2026-03-07T15:37:13.012Z</time></trkpt><trkpt lat="36.9777978" lon="-3.6611567"><ele>994.6</ele><time>2026-03-07T15:37:15.017Z</time></trkpt><trkpt lat="36.9778693" lon="-3.6612231"><ele>994.8</ele><time>2026-03-07T15:37:17.007Z</time></trkpt><trkpt lat="36.9779207" lon="-3.6613547"><ele>995.0</ele><time>2026-03-07T15:37:19.015Z</time></trkpt><trkpt lat="36.9779534" lon="-3.6614266"><ele>995.0</ele><time>2026-03-07T15:37:20.003Z</time></trkpt><trkpt lat="36.9779972" lon="-3.6615043"><ele>995.0</ele><time>2026-03-07T15:37:21.001Z</time></trkpt><trkpt lat="36.9780441" lon="-3.6615683"><ele>995.0</ele><time>2026-03-07T15:37:22.001Z</time></trkpt><trkpt lat="36.978137" lon="-3.6616735"><ele>995.0</ele><time>2026-03-07T15:37:24.008Z</time></trkpt><trkpt lat="36.9782336" lon="-3.6617381"><ele>995.0</ele><time>2026-03-07T15:37:25.998Z</time></trkpt><trkpt lat="36.9783176" lon="-3.6618259"><ele>995.4</ele><time>2026-03-07T15:37:28.017Z</time></trkpt><trkpt lat="36.9784103" lon="-3.6619242"><ele>995.8</ele><time>2026-03-07T15:37:30.014Z</time></trkpt><trkpt lat="36.9784954" lon="-3.6619989"><ele>996.2</ele><time>2026-03-07T15:37:32.02Z</time></trkpt><trkpt lat="36.9785567" lon="-3.6620708"><ele>996.6</ele><time>2026-03-07T15:37:33.996Z</time></trkpt><trkpt lat="36.9786077" lon="-3.6621464"><ele>997.0</ele><time>2026-03-07T15:37:36.003Z</time></trkpt><trkpt lat="36.9786424" lon="-3.6622175"><ele>996.9999999999999</ele><time>2026-03-07T15:37:38.015Z</time></trkpt><trkpt lat="36.9786534" lon="-3.6623139"><ele>997.0</ele><time>2026-03-07T15:37:40.04Z</time></trkpt><trkpt lat="36.9786523" lon="-3.6624312"><ele>997.0</ele><time>2026-03-07T15:37:42.018Z</time></trkpt><trkpt lat="36.9786504" lon="-3.6625116"><ele>997.0</ele><time>2026-03-07T15:37:43.03Z</time></trkpt><trkpt lat="36.9786511" lon="-3.6625967"><ele>996.9999999999999</ele><time>2026-03-07T15:37:44.011Z</time></trkpt><trkpt lat="36.9786563" lon="-3.6626785"><ele>997.0</ele><time>2026-03-07T15:37:45.024Z</time></trkpt><trkpt lat="36.9786752" lon="-3.6628175"><ele>998.5</ele><time>2026-03-07T15:37:47.009Z</time></trkpt><trkpt lat="36.9787121" lon="-3.662952"><ele>1000.0</ele><time>2026-03-07T15:37:49.011Z</time></trkpt><trkpt lat="36.9787546" lon="-3.663079"><ele>1001.5</ele><time>2026-03-07T15:37:51.022Z</time></trkpt><trkpt lat="36.9787983" lon="-3.6632108"><ele>1003.0</ele><time>2026-03-07T15:37:53.02Z</time></trkpt><trkpt lat="36.9788559" lon="-3.663351"><ele>1002.9999999999999</ele><time>2026-03-07T15:37:55.023Z</time></trkpt><trkpt lat="36.9788848" lon="-3.6634308"><ele>1003.0</ele><time>2026-03-07T15:37:56.002Z</time></trkpt><trkpt lat="36.9789145" lon="-3.6635113"><ele>1003.0</ele><time>2026-03-07T15:37:57.002Z</time></trkpt><trkpt lat="36.9789426" lon="-3.6635901"><ele>1003.0</ele><time>2026-03-07T15:37:58.024Z</time></trkpt><trkpt lat="36.9789679" lon="-3.663667"><ele>1002.9999999999999</ele><time>2026-03-07T15:37:59.012Z</time></trkpt><trkpt lat="36.9789996" lon="-3.6638147"><ele>1003.0</ele><time>2026-03-07T15:38:01.012Z</time></trkpt><trkpt lat="36.9790143" lon="-3.6639248"><ele>1003.4999999999999</ele><time>2026-03-07T15:38:03.013Z</time></trkpt><trkpt lat="36.9790156" lon="-3.6640117"><ele>1004.0</ele><time>2026-03-07T15:38:05.004Z</time></trkpt><trkpt lat="36.9790049" lon="-3.6640999"><ele>1004.5</ele><time>2026-03-07T15:38:08.014Z</time></trkpt><trkpt lat="36.9790113" lon="-3.6641951"><ele>1005.0</ele><time>2026-03-07T15:38:16.017Z</time></trkpt><trkpt lat="36.9789868" lon="-3.6643371"><ele>1005.4999999999999</ele><time>2026-03-07T15:38:18.007Z</time></trkpt><trkpt lat="36.9789555" lon="-3.6644447"><ele>1006.0</ele><time>2026-03-07T15:38:20.022Z</time></trkpt><trkpt lat="36.9788989" lon="-3.6645154"><ele>1007.0</ele><time>2026-03-07T15:38:22.004Z</time></trkpt><trkpt lat="36.9788361" lon="-3.6645919"><ele>1007.9999999999999</ele><time>2026-03-07T15:38:24.013Z</time></trkpt><trkpt lat="36.9787724" lon="-3.6647107"><ele>1008.9999999999999</ele><time>2026-03-07T15:38:26.037Z</time></trkpt><trkpt lat="36.9787253" lon="-3.6648143"><ele>1010.0</ele><time>2026-03-07T15:38:27.998Z</time></trkpt><trkpt lat="36.9787061" lon="-3.6649255"><ele>1011.0</ele><time>2026-03-07T15:38:30.021Z</time></trkpt><trkpt lat="36.9787489" lon="-3.6649992"><ele>1011.0</ele><time>2026-03-07T15:38:31.011Z</time></trkpt><trkpt lat="36.9787983" lon="-3.6651062"><ele>1010.9999999999999</ele><time>2026-03-07T15:38:32.01Z</time></trkpt><trkpt lat="36.9788466" lon="-3.6652137"><ele>1010.9999999999999</ele><time>2026-03-07T15:38:33.012Z</time></trkpt><trkpt lat="36.9788879" lon="-3.6653146"><ele>1011.0</ele><time>2026-03-07T15:38:34Z</time></trkpt><trkpt lat="36.9789233" lon="-3.6654375"><ele>1011.0</ele><time>2026-03-07T15:38:35.008Z</time></trkpt><trkpt lat="36.9789545" lon="-3.6655503"><ele>1012.3333333333334</ele><time>2026-03-07T15:38:36.007Z</time></trkpt><trkpt lat="36.9789717" lon="-3.6656532"><ele>1013.6666666666667</ele><time>2026-03-07T15:38:37.007Z</time></trkpt><trkpt lat="36.9789938" lon="-3.6657559"><ele>1015.0</ele><time>2026-03-07T15:38:38.007Z</time></trkpt><trkpt lat="36.9790272" lon="-3.6658639"><ele>1016.3333333333334</ele><time>2026-03-07T15:38:39.016Z</time></trkpt><trkpt lat="36.9790591" lon="-3.6659679"><ele>1017.6666666666667</ele><time>2026-03-07T15:38:40.005Z</time></trkpt><trkpt lat="36.9791019" lon="-3.6660551"><ele>1019.0</ele><time>2026-03-07T15:38:41.018Z</time></trkpt><trkpt lat="36.9791439" lon="-3.6661412"><ele>1019.2</ele><time>2026-03-07T15:38:42.009Z</time></trkpt><trkpt lat="36.9791766" lon="-3.6662384"><ele>1019.4000000000001</ele><time>2026-03-07T15:38:43.002Z</time></trkpt><trkpt lat="36.9791965" lon="-3.6663498"><ele>1019.6</ele><time>2026-03-07T15:38:44.023Z</time></trkpt><trkpt lat="36.9792088" lon="-3.666472"><ele>1019.8</ele><time>2026-03-07T15:38:45.018Z</time></trkpt><trkpt lat="36.9792269" lon="-3.6665937"><ele>1020.0</ele><time>2026-03-07T15:38:46.009Z</time></trkpt><trkpt lat="36.9792379" lon="-3.6667028"><ele>1014.1666666666666</ele><time>2026-03-07T15:38:47.017Z</time></trkpt><trkpt lat="36.9792425" lon="-3.6667983"><ele>1008.3333333333333</ele><time>2026-03-07T15:38:48.009Z</time></trkpt><trkpt lat="36.9792505" lon="-3.6668933"><ele>1002.5</ele><time>2026-03-07T15:38:49.008Z</time></trkpt><trkpt lat="36.9792457" lon="-3.6669961"><ele>996.6666666666666</ele><time>2026-03-07T15:38:50.021Z</time></trkpt><trkpt lat="36.9792393" lon="-3.6671179"><ele>990.8333333333333</ele><time>2026-03-07T15:38:51.008Z</time></trkpt><trkpt lat="36.979242" lon="-3.6672488"><ele>985.0</ele><time>2026-03-07T15:38:52.026Z</time></trkpt><trkpt lat="36.9792371" lon="-3.667377"><ele>984.9999999999999</ele><time>2026-03-07T15:38:53.008Z</time></trkpt><trkpt lat="36.9792283" lon="-3.667498"><ele>985.0</ele><time>2026-03-07T15:38:54.021Z</time></trkpt><trkpt lat="36.9792269" lon="-3.6676095"><ele>985.0</ele><time>2026-03-07T15:38:55.012Z</time></trkpt><trkpt lat="36.979204" lon="-3.6677144"><ele>985.0</ele><time>2026-03-07T15:38:56.011Z</time></trkpt><trkpt lat="36.979204" lon="-3.6678156"><ele>984.9999999999999</ele><time>2026-03-07T15:38:57.022Z</time></trkpt><trkpt lat="36.979224" lon="-3.6679167"><ele>985.0</ele><time>2026-03-07T15:38:58.032Z</time></trkpt><trkpt lat="36.9792404" lon="-3.6680303"><ele>988.0</ele><time>2026-03-07T15:38:59.017Z</time></trkpt><trkpt lat="36.9792589" lon="-3.6681468"><ele>991.0</ele><time>2026-03-07T15:39:00.008Z</time></trkpt><trkpt lat="36.9792826" lon="-3.6682761"><ele>994.0</ele><time>2026-03-07T15:39:01.007Z</time></trkpt><trkpt lat="36.979305" lon="-3.6684148"><ele>997.0</ele><time>2026-03-07T15:39:02.003Z</time></trkpt><trkpt lat="36.9793318" lon="-3.668559"><ele>1000.0</ele><time>2026-03-07T15:39:03.015Z</time></trkpt><trkpt lat="36.9793568" lon="-3.6687"><ele>1002.4</ele><time>2026-03-07T15:39:04.015Z</time></trkpt><trkpt lat="36.9793891" lon="-3.668828"><ele>1004.8</ele><time>2026-03-07T15:39:05.011Z</time></trkpt><trkpt lat="36.9794182" lon="-3.6689415"><ele>1007.2</ele><time>2026-03-07T15:39:06.027Z</time></trkpt><trkpt lat="36.9794517" lon="-3.6690486"><ele>1009.6</ele><time>2026-03-07T15:39:07.029Z</time></trkpt><trkpt lat="36.9794875" lon="-3.6691507"><ele>1012.0</ele><time>2026-03-07T15:39:08.001Z</time></trkpt><trkpt lat="36.9795257" lon="-3.6692458"><ele>1011.9999999999999</ele><time>2026-03-07T15:39:09.026Z</time></trkpt><trkpt lat="36.9795543" lon="-3.6693457"><ele>1012.0</ele><time>2026-03-07T15:39:10.012Z</time></trkpt><trkpt lat="36.9795807" lon="-3.6694434"><ele>1012.0</ele><time>2026-03-07T15:39:11.017Z</time></trkpt><trkpt lat="36.9796134" lon="-3.6695419"><ele>1012.0</ele><time>2026-03-07T15:39:12.006Z</time></trkpt><trkpt lat="36.9796495" lon="-3.6696476"><ele>1011.9999999999999</ele><time>2026-03-07T15:39:13.012Z</time></trkpt><trkpt lat="36.9796869" lon="-3.6697597"><ele>1012.0</ele><time>2026-03-07T15:39:14.013Z</time></trkpt><trkpt lat="36.9797253" lon="-3.6698753"><ele>1012.6</ele><time>2026-03-07T15:39:15.005Z</time></trkpt><trkpt lat="36.9797634" lon="-3.6699946"><ele>1013.2</ele><time>2026-03-07T15:39:16.014Z</time></trkpt><trkpt lat="36.9798051" lon="-3.6701104"><ele>1013.8</ele><time>2026-03-07T15:39:17.023Z</time></trkpt><trkpt lat="36.9798533" lon="-3.6702212"><ele>1014.4</ele><time>2026-03-07T15:39:18.013Z</time></trkpt><trkpt lat="36.9798966" lon="-3.6703266"><ele>1015.0</ele><time>2026-03-07T15:39:19.028Z</time></trkpt><trkpt lat="36.9799551" lon="-3.6704188"><ele>1013.6666666666666</ele><time>2026-03-07T15:39:20.01Z</time></trkpt><trkpt lat="36.9800304" lon="-3.6704919"><ele>1012.3333333333333</ele><time>2026-03-07T15:39:21.011Z</time></trkpt><trkpt lat="36.9800981" lon="-3.6705611"><ele>1011.0</ele><time>2026-03-07T15:39:22.005Z</time></trkpt><trkpt lat="36.9801528" lon="-3.6706331"><ele>1009.6666666666667</ele><time>2026-03-07T15:39:23.012Z</time></trkpt><trkpt lat="36.980168" lon="-3.6707298"><ele>1008.3333333333334</ele><time>2026-03-07T15:39:24.014Z</time></trkpt><trkpt lat="36.9801783" lon="-3.6708281"><ele>1007.0</ele><time>2026-03-07T15:39:25.009Z</time></trkpt><trkpt lat="36.9801893" lon="-3.6709245"><ele>1007.0000000000001</ele><time>2026-03-07T15:39:26.064Z</time></trkpt><trkpt lat="36.980207" lon="-3.6710133"><ele>1007.0</ele><time>2026-03-07T15:39:27.009Z</time></trkpt><trkpt lat="36.9802226" lon="-3.6711001"><ele>1007.0</ele><time>2026-03-07T15:39:28.032Z</time></trkpt><trkpt lat="36.9802439" lon="-3.6711828"><ele>1007.0</ele><time>2026-03-07T15:39:29.008Z</time></trkpt><trkpt lat="36.9802655" lon="-3.671262"><ele>1007.0000000000001</ele><time>2026-03-07T15:39:30.011Z</time></trkpt><trkpt lat="36.9802839" lon="-3.6713382"><ele>1007.0</ele><time>2026-03-07T15:39:31.004Z</time></trkpt><trkpt lat="36.9803248" lon="-3.671475"><ele>1009.1666666666667</ele><time>2026-03-07T15:39:33.013Z</time></trkpt><trkpt lat="36.9804013" lon="-3.6715766"><ele>1011.3333333333334</ele><time>2026-03-07T15:39:35.015Z</time></trkpt><trkpt lat="36.9804814" lon="-3.6716864"><ele>1013.5</ele><time>2026-03-07T15:39:37.001Z</time></trkpt><trkpt lat="36.9805117" lon="-3.6717632"><ele>1015.6666666666667</ele><time>2026-03-07T15:39:38.021Z</time></trkpt><trkpt lat="36.9805394" lon="-3.671852"><ele>1017.8333333333334</ele><time>2026-03-07T15:39:39.032Z</time></trkpt><trkpt lat="36.9805673" lon="-3.6719382"><ele>1020.0</ele><time>2026-03-07T15:39:39.992Z</time></trkpt><trkpt lat="36.980595" lon="-3.6720306"><ele>1021.6</ele><time>2026-03-07T15:39:41.014Z</time></trkpt><trkpt lat="36.9806267" lon="-3.6721383"><ele>1023.2</ele><time>2026-03-07T15:39:42.032Z</time></trkpt><trkpt lat="36.9806565" lon="-3.6722459"><ele>1024.8</ele><time>2026-03-07T15:39:43.005Z</time></trkpt><trkpt lat="36.9806723" lon="-3.6723528"><ele>1026.4</ele><time>2026-03-07T15:39:44.01Z</time></trkpt><trkpt lat="36.980681" lon="-3.6724381"><ele>1028.0</ele><time>2026-03-07T15:39:45.017Z</time></trkpt><trkpt lat="36.9807132" lon="-3.6725736"><ele>1028.0</ele><time>2026-03-07T15:39:47.006Z</time></trkpt><trkpt lat="36.9807591" lon="-3.672657"><ele>1028.0</ele><time>2026-03-07T15:39:49.017Z</time></trkpt><trkpt lat="36.9808317" lon="-3.6727416"><ele>1028.0</ele><time>2026-03-07T15:39:51.005Z</time></trkpt><trkpt lat="36.9809227" lon="-3.6728361"><ele>1028.0</ele><time>2026-03-07T15:39:53.004Z</time></trkpt><trkpt lat="36.9810134" lon="-3.6729257"><ele>1028.0</ele><time>2026-03-07T15:39:55.009Z</time></trkpt><trkpt lat="36.9810919" lon="-3.6729965"><ele>1024.8</ele><time>2026-03-07T15:39:57.009Z</time></trkpt><trkpt lat="36.9811668" lon="-3.6730891"><ele>1021.5999999999999</ele><time>2026-03-07T15:39:59.007Z</time></trkpt><trkpt lat="36.9812066" lon="-3.6732312"><ele>1018.4000000000001</ele><time>2026-03-07T15:40:01.006Z</time></trkpt><trkpt lat="36.9812468" lon="-3.6733827"><ele>1015.2</ele><time>2026-03-07T15:40:03.018Z</time></trkpt><trkpt lat="36.9812637" lon="-3.6734604"><ele>1012.0</ele><time>2026-03-07T15:40:04.026Z</time></trkpt><trkpt lat="36.9812907" lon="-3.6736095"><ele>1011.4999999999999</ele><time>2026-03-07T15:40:06.007Z</time></trkpt><trkpt lat="36.9813028" lon="-3.673731"><ele>1011.0</ele><time>2026-03-07T15:40:08.008Z</time></trkpt><trkpt lat="36.9813411" lon="-3.6738448"><ele>1010.5</ele><time>2026-03-07T15:40:10.007Z</time></trkpt><trkpt lat="36.9814239" lon="-3.6739544"><ele>1010.0</ele><time>2026-03-07T15:40:12.006Z</time></trkpt><trkpt lat="36.9814754" lon="-3.6740077"><ele>1009.4999999999999</ele><time>2026-03-07T15:40:13.001Z</time></trkpt><trkpt lat="36.981523" lon="-3.674061"><ele>1009.0</ele><time>2026-03-07T15:40:14.009Z</time></trkpt><trkpt lat="36.9816044" lon="-3.674183"><ele>1008.9999999999999</ele><time>2026-03-07T15:40:16.001Z</time></trkpt><trkpt lat="36.9816328" lon="-3.6742633"><ele>1009.0</ele><time>2026-03-07T15:40:17.006Z</time></trkpt><trkpt lat="36.981666" lon="-3.6743435"><ele>1009.0</ele><time>2026-03-07T15:40:18.006Z</time></trkpt><trkpt lat="36.9817012" lon="-3.6744257"><ele>1009.0</ele><time>2026-03-07T15:40:19.01Z</time></trkpt><trkpt lat="36.9817373" lon="-3.6745048"><ele>1008.9999999999999</ele><time>2026-03-07T15:40:20.019Z</time></trkpt><trkpt lat="36.9817673" lon="-3.6745765"><ele>1009.0</ele><time>2026-03-07T15:40:21.03Z</time></trkpt><trkpt lat="36.981833" lon="-3.6746742"><ele>1007.0</ele><time>2026-03-07T15:40:23.023Z</time></trkpt><trkpt lat="36.9819161" lon="-3.6746996"><ele>1005.0000000000001</ele><time>2026-03-07T15:40:25.018Z</time></trkpt><trkpt lat="36.9820206" lon="-3.6746645"><ele>1003.0000000000001</ele><time>2026-03-07T15:40:27.01Z</time></trkpt><trkpt lat="36.9821352" lon="-3.6746272"><ele>1001.0</ele><time>2026-03-07T15:40:29.004Z</time></trkpt><trkpt lat="36.9822007" lon="-3.6745862"><ele>999.0</ele><time>2026-03-07T15:40:29.997Z</time></trkpt><trkpt lat="36.9822672" lon="-3.6745118"><ele>997.8333333333334</ele><time>2026-03-07T15:40:31.009Z</time></trkpt><trkpt lat="36.9823355" lon="-3.6744282"><ele>996.6666666666667</ele><time>2026-03-07T15:40:32.01Z</time></trkpt><trkpt lat="36.9823969" lon="-3.674345"><ele>995.5</ele><time>2026-03-07T15:40:33.021Z</time></trkpt><trkpt lat="36.9824539" lon="-3.6742618"><ele>994.3333333333334</ele><time>2026-03-07T15:40:33.999Z</time></trkpt><trkpt lat="36.9825072" lon="-3.6741855"><ele>993.1666666666667</ele><time>2026-03-07T15:40:35.004Z</time></trkpt><trkpt lat="36.9825568" lon="-3.6741115"><ele>992.0</ele><time>2026-03-07T15:40:36.019Z</time></trkpt><trkpt lat="36.9825929" lon="-3.6740277"><ele>991.0</ele><time>2026-03-07T15:40:37.029Z</time></trkpt><trkpt lat="36.9826123" lon="-3.6739221"><ele>990.0</ele><time>2026-03-07T15:40:38Z</time></trkpt><trkpt lat="36.9826154" lon="-3.6737986"><ele>989.0</ele><time>2026-03-07T15:40:39.039Z</time></trkpt><trkpt lat="36.9826208" lon="-3.6736705"><ele>988.0</ele><time>2026-03-07T15:40:40.035Z</time></trkpt><trkpt lat="36.9826267" lon="-3.6735478"><ele>987.0</ele><time>2026-03-07T15:40:41.036Z</time></trkpt><trkpt lat="36.9826336" lon="-3.6734337"><ele>985.8333333333334</ele><time>2026-03-07T15:40:42.012Z</time></trkpt><trkpt lat="36.9826435" lon="-3.6733283"><ele>984.6666666666667</ele><time>2026-03-07T15:40:43.012Z</time></trkpt><trkpt lat="36.9826496" lon="-3.6732263"><ele>983.5</ele><time>2026-03-07T15:40:44.002Z</time></trkpt><trkpt lat="36.9826608" lon="-3.6731332"><ele>982.3333333333334</ele><time>2026-03-07T15:40:45.017Z</time></trkpt><trkpt lat="36.9826865" lon="-3.6730517"><ele>981.1666666666667</ele><time>2026-03-07T15:40:46.005Z</time></trkpt><trkpt lat="36.9827369" lon="-3.672988"><ele>980.0</ele><time>2026-03-07T15:40:47.026Z</time></trkpt><trkpt lat="36.9827986" lon="-3.67294"><ele>980.0000000000001</ele><time>2026-03-07T15:40:48.014Z</time></trkpt><trkpt lat="36.9828606" lon="-3.6728947"><ele>980.0</ele><time>2026-03-07T15:40:49.022Z</time></trkpt><trkpt lat="36.9829237" lon="-3.6728496"><ele>980.0</ele><time>2026-03-07T15:40:50.004Z</time></trkpt><trkpt lat="36.9829951" lon="-3.6728146"><ele>980.0</ele><time>2026-03-07T15:40:51.007Z</time></trkpt><trkpt lat="36.9830606" lon="-3.6727689"><ele>980.0000000000001</ele><time>2026-03-07T15:40:52.01Z</time></trkpt><trkpt lat="36.9831335" lon="-3.6727388"><ele>980.0</ele><time>2026-03-07T15:40:53.022Z</time></trkpt><trkpt lat="36.98321" lon="-3.6727278"><ele>979.6666666666667</ele><time>2026-03-07T15:40:54.009Z</time></trkpt><trkpt lat="36.9832857" lon="-3.6727231"><ele>979.3333333333334</ele><time>2026-03-07T15:40:55.01Z</time></trkpt><trkpt lat="36.9833626" lon="-3.6727351"><ele>979.0</ele><time>2026-03-07T15:40:56.007Z</time></trkpt><trkpt lat="36.9834394" lon="-3.6727564"><ele>978.6666666666667</ele><time>2026-03-07T15:40:57.009Z</time></trkpt><trkpt lat="36.9835121" lon="-3.6727628"><ele>978.3333333333334</ele><time>2026-03-07T15:40:58.013Z</time></trkpt><trkpt lat="36.9835824" lon="-3.672778"><ele>978.0</ele><time>2026-03-07T15:40:59.008Z</time></trkpt><trkpt lat="36.9836526" lon="-3.6728249"><ele>978.0</ele><time>2026-03-07T15:41:00.002Z</time></trkpt><trkpt lat="36.9837215" lon="-3.6728831"><ele>978.0</ele><time>2026-03-07T15:41:01.008Z</time></trkpt><trkpt lat="36.9837907" lon="-3.6729284"><ele>978.0</ele><time>2026-03-07T15:41:02.012Z</time></trkpt><trkpt lat="36.983851" lon="-3.6729597"><ele>978.0</ele><time>2026-03-07T15:41:03.004Z</time></trkpt><trkpt lat="36.9839611" lon="-3.6729583"><ele>978.0</ele><time>2026-03-07T15:41:05.01Z</time></trkpt><trkpt lat="36.9840287" lon="-3.6728519"><ele>978.0</ele><time>2026-03-07T15:41:07.006Z</time></trkpt><trkpt lat="36.9840072" lon="-3.6727316"><ele>977.8</ele><time>2026-03-07T15:41:09.016Z</time></trkpt><trkpt lat="36.9839935" lon="-3.6725733"><ele>977.5999999999999</ele><time>2026-03-07T15:41:11.045Z</time></trkpt><trkpt lat="36.9840289" lon="-3.6724917"><ele>977.4000000000001</ele><time>2026-03-07T15:41:12.078Z</time></trkpt><trkpt lat="36.9840868" lon="-3.6724176"><ele>977.2</ele><time>2026-03-07T15:41:13.002Z</time></trkpt><trkpt lat="36.9841471" lon="-3.6723262"><ele>977.0</ele><time>2026-03-07T15:41:14.014Z</time></trkpt><trkpt lat="36.9841957" lon="-3.6722398"><ele>979.4000000000001</ele><time>2026-03-07T15:41:15.009Z</time></trkpt><trkpt lat="36.9842429" lon="-3.6721438"><ele>981.8000000000001</ele><time>2026-03-07T15:41:16.008Z</time></trkpt><trkpt lat="36.984287" lon="-3.672046"><ele>984.2</ele><time>2026-03-07T15:41:17.014Z</time></trkpt><trkpt lat="36.9843277" lon="-3.671941"><ele>986.6</ele><time>2026-03-07T15:41:18.005Z</time></trkpt><trkpt lat="36.9843626" lon="-3.6718315"><ele>989.0</ele><time>2026-03-07T15:41:19.002Z</time></trkpt><trkpt lat="36.9843853" lon="-3.6717017"><ele>989.5000000000001</ele><time>2026-03-07T15:41:20.011Z</time></trkpt><trkpt lat="36.9844325" lon="-3.6716261"><ele>990.0</ele><time>2026-03-07T15:41:21.003Z</time></trkpt><trkpt lat="36.9844451" lon="-3.6714821"><ele>990.5</ele><time>2026-03-07T15:41:23.005Z</time></trkpt><trkpt lat="36.9844361" lon="-3.6713949"><ele>991.0</ele><time>2026-03-07T15:41:24.013Z</time></trkpt><trkpt lat="36.9843904" lon="-3.6713089"><ele>991.5000000000001</ele><time>2026-03-07T15:41:25.004Z</time></trkpt><trkpt lat="36.9843411" lon="-3.6712172"><ele>992.0</ele><time>2026-03-07T15:41:26.009Z</time></trkpt><trkpt lat="36.9843023" lon="-3.6711202"><ele>992.5000000000001</ele><time>2026-03-07T15:41:27.002Z</time></trkpt><trkpt lat="36.9842727" lon="-3.6710231"><ele>993.0</ele><time>2026-03-07T15:41:28.004Z</time></trkpt><trkpt lat="36.9842653" lon="-3.6709241"><ele>993.5</ele><time>2026-03-07T15:41:29.013Z</time></trkpt><trkpt lat="36.9842674" lon="-3.6708236"><ele>994.0</ele><time>2026-03-07T15:41:29.997Z</time></trkpt><trkpt lat="36.9842806" lon="-3.670702"><ele>994.5000000000001</ele><time>2026-03-07T15:41:31.028Z</time></trkpt><trkpt lat="36.9843126" lon="-3.6705915"><ele>995.0</ele><time>2026-03-07T15:41:32.022Z</time></trkpt><trkpt lat="36.9843562" lon="-3.6705025"><ele>995.0</ele><time>2026-03-07T15:41:33.032Z</time></trkpt><trkpt lat="36.9843946" lon="-3.6703953"><ele>995.0</ele><time>2026-03-07T15:41:33.998Z</time></trkpt><trkpt lat="36.9844518" lon="-3.6703086"><ele>995.0</ele><time>2026-03-07T15:41:35.01Z</time></trkpt><trkpt lat="36.9845166" lon="-3.6702318"><ele>995.0</ele><time>2026-03-07T15:41:36.004Z</time></trkpt><trkpt lat="36.9845978" lon="-3.6701745"><ele>995.0</ele><time>2026-03-07T15:41:37.011Z</time></trkpt><trkpt lat="36.984684" lon="-3.6701392"><ele>995.6666666666667</ele><time>2026-03-07T15:41:38.011Z</time></trkpt><trkpt lat="36.9847678" lon="-3.6701202"><ele>996.3333333333334</ele><time>2026-03-07T15:41:39.002Z</time></trkpt><trkpt lat="36.9848422" lon="-3.6701148"><ele>997.0</ele><time>2026-03-07T15:41:40.031Z</time></trkpt><trkpt lat="36.9849148" lon="-3.6701499"><ele>997.6666666666667</ele><time>2026-03-07T15:41:41.018Z</time></trkpt><trkpt lat="36.9849988" lon="-3.6701852"><ele>998.3333333333334</ele><time>2026-03-07T15:41:42.029Z</time></trkpt><trkpt lat="36.9850903" lon="-3.6702145"><ele>999.0</ele><time>2026-03-07T15:41:43.028Z</time></trkpt><trkpt lat="36.9851819" lon="-3.6702324"><ele>999.4000000000001</ele><time>2026-03-07T15:41:44.067Z</time></trkpt><trkpt lat="36.9852655" lon="-3.6702439"><ele>999.8000000000001</ele><time>2026-03-07T15:41:45.033Z</time></trkpt><trkpt lat="36.9853469" lon="-3.6702528"><ele>1000.1999999999999</ele><time>2026-03-07T15:41:46.036Z</time></trkpt><trkpt lat="36.9854394" lon="-3.6702627"><ele>1000.5999999999999</ele><time>2026-03-07T15:41:47.002Z</time></trkpt><trkpt lat="36.9855444" lon="-3.6702785"><ele>1001.0</ele><time>2026-03-07T15:41:48.01Z</time></trkpt><trkpt lat="36.9856564" lon="-3.6702912"><ele>1001.1666666666667</ele><time>2026-03-07T15:41:49.009Z</time></trkpt><trkpt lat="36.9857616" lon="-3.6703136"><ele>1001.3333333333334</ele><time>2026-03-07T15:41:50.008Z</time></trkpt><trkpt lat="36.9858621" lon="-3.6703261"><ele>1001.5</ele><time>2026-03-07T15:41:51.002Z</time></trkpt><trkpt lat="36.985951" lon="-3.6703303"><ele>1001.6666666666667</ele><time>2026-03-07T15:41:52.013Z</time></trkpt><trkpt lat="36.9860249" lon="-3.6703327"><ele>1001.8333333333334</ele><time>2026-03-07T15:41:53.016Z</time></trkpt><trkpt lat="36.9860897" lon="-3.6703316"><ele>1002.0</ele><time>2026-03-07T15:41:54.012Z</time></trkpt><trkpt lat="36.9861963" lon="-3.670291"><ele>1003.2</ele><time>2026-03-07T15:41:56.014Z</time></trkpt><trkpt lat="36.9862294" lon="-3.6702193"><ele>1004.4000000000001</ele><time>2026-03-07T15:41:57.014Z</time></trkpt><trkpt lat="36.9862494" lon="-3.6701219"><ele>1005.5999999999999</ele><time>2026-03-07T15:41:58.066Z</time></trkpt><trkpt lat="36.9862691" lon="-3.6699921"><ele>1006.8</ele><time>2026-03-07T15:41:59.011Z</time></trkpt><trkpt lat="36.9862867" lon="-3.6698367"><ele>1008.0</ele><time>2026-03-07T15:42:00.018Z</time></trkpt><trkpt lat="36.986319" lon="-3.6696558"><ele>1008.0</ele><time>2026-03-07T15:42:01.013Z</time></trkpt><trkpt lat="36.9863544" lon="-3.6694807"><ele>1008.0</ele><time>2026-03-07T15:42:02.001Z</time></trkpt><trkpt lat="36.9863904" lon="-3.6693172"><ele>1008.0</ele><time>2026-03-07T15:42:03.021Z</time></trkpt><trkpt lat="36.9864377" lon="-3.6691597"><ele>1008.0</ele><time>2026-03-07T15:42:04.003Z</time></trkpt><trkpt lat="36.9864994" lon="-3.6690063"><ele>1007.0</ele><time>2026-03-07T15:42:05.013Z</time></trkpt><trkpt lat="36.9865605" lon="-3.6688537"><ele>1006.0</ele><time>2026-03-07T15:42:06.02Z</time></trkpt><trkpt lat="36.9866201" lon="-3.668705"><ele>1005.0</ele><time>2026-03-07T15:42:07.009Z</time></trkpt><trkpt lat="36.986669" lon="-3.6685513"><ele>1004.0</ele><time>2026-03-07T15:42:08.025Z</time></trkpt><trkpt lat="36.9867169" lon="-3.6684062"><ele>1004.0</ele><time>2026-03-07T15:42:09.003Z</time></trkpt><trkpt lat="36.9867766" lon="-3.6682894"><ele>1004.0000000000001</ele><time>2026-03-07T15:42:10.003Z</time></trkpt><trkpt lat="36.9868444" lon="-3.6681805"><ele>1004.0000000000001</ele><time>2026-03-07T15:42:11.019Z</time></trkpt><trkpt lat="36.9869134" lon="-3.66808"><ele>1004.0</ele><time>2026-03-07T15:42:12.008Z</time></trkpt><trkpt lat="36.9869647" lon="-3.6679639"><ele>1004.0</ele><time>2026-03-07T15:42:13.013Z</time></trkpt><trkpt lat="36.9870023" lon="-3.6678428"><ele>1001.0</ele><time>2026-03-07T15:42:14.012Z</time></trkpt><trkpt lat="36.9870386" lon="-3.6677276"><ele>998.0000000000001</ele><time>2026-03-07T15:42:15.02Z</time></trkpt><trkpt lat="36.9870624" lon="-3.6676145"><ele>995.0000000000001</ele><time>2026-03-07T15:42:16.029Z</time></trkpt><trkpt lat="36.9870923" lon="-3.6675061"><ele>992.0</ele><time>2026-03-07T15:42:17.025Z</time></trkpt><trkpt lat="36.9871225" lon="-3.6673979"><ele>989.0</ele><time>2026-03-07T15:42:18.006Z</time></trkpt><trkpt lat="36.9871586" lon="-3.6672882"><ele>989.0000000000001</ele><time>2026-03-07T15:42:19.004Z</time></trkpt><trkpt lat="36.9872012" lon="-3.6671872"><ele>989.0</ele><time>2026-03-07T15:42:20.025Z</time></trkpt><trkpt lat="36.9872483" lon="-3.6671033"><ele>989.0</ele><time>2026-03-07T15:42:21.028Z</time></trkpt><trkpt lat="36.9873181" lon="-3.667063"><ele>989.0</ele><time>2026-03-07T15:42:22.013Z</time></trkpt><trkpt lat="36.9874088" lon="-3.6670548"><ele>989.0000000000001</ele><time>2026-03-07T15:42:23.001Z</time></trkpt><trkpt lat="36.9875084" lon="-3.6670682"><ele>989.0</ele><time>2026-03-07T15:42:24.011Z</time></trkpt><trkpt lat="36.9876178" lon="-3.6670787"><ele>988.0</ele><time>2026-03-07T15:42:25.009Z</time></trkpt><trkpt lat="36.9877344" lon="-3.6671049"><ele>987.0</ele><time>2026-03-07T15:42:26.022Z</time></trkpt><trkpt lat="36.9878623" lon="-3.6671331"><ele>986.0</ele><time>2026-03-07T15:42:27.005Z</time></trkpt><trkpt lat="36.9880002" lon="-3.6671618"><ele>985.0</ele><time>2026-03-07T15:42:28.012Z</time></trkpt><trkpt lat="36.9881455" lon="-3.6671914"><ele>985.0</ele><time>2026-03-07T15:42:29.013Z</time></trkpt><trkpt lat="36.9883006" lon="-3.6672201"><ele>985.0</ele><time>2026-03-07T15:42:30.02Z</time></trkpt><trkpt lat="36.9884557" lon="-3.6672337"><ele>985.0</ele><time>2026-03-07T15:42:31.014Z</time></trkpt><trkpt lat="36.9886066" lon="-3.6672394"><ele>983.5</ele><time>2026-03-07T15:42:32.011Z</time></trkpt><trkpt lat="36.9887523" lon="-3.6672277"><ele>982.0</ele><time>2026-03-07T15:42:33.007Z</time></trkpt><trkpt lat="36.9888786" lon="-3.6672218"><ele>980.5</ele><time>2026-03-07T15:42:34.015Z</time></trkpt><trkpt lat="36.9889926" lon="-3.667246"><ele>979.0</ele><time>2026-03-07T15:42:35.017Z</time></trkpt><trkpt lat="36.9891056" lon="-3.6673046"><ele>979.5</ele><time>2026-03-07T15:42:36.015Z</time></trkpt><trkpt lat="36.9892128" lon="-3.667413"><ele>980.0</ele><time>2026-03-07T15:42:37.009Z</time></trkpt><trkpt lat="36.9893074" lon="-3.6675493"><ele>980.5</ele><time>2026-03-07T15:42:38.007Z</time></trkpt><trkpt lat="36.9894015" lon="-3.667675"><ele>981.0</ele><time>2026-03-07T15:42:39.033Z</time></trkpt><trkpt lat="36.9894879" lon="-3.6677987"><ele>981.0</ele><time>2026-03-07T15:42:39.993Z</time></trkpt><trkpt lat="36.9895569" lon="-3.6679219"><ele>981.0</ele><time>2026-03-07T15:42:41.089Z</time></trkpt><trkpt lat="36.9896403" lon="-3.667995"><ele>981.0</ele><time>2026-03-07T15:42:42.055Z</time></trkpt><trkpt lat="36.9897401" lon="-3.6680537"><ele>981.0</ele><time>2026-03-07T15:42:43.014Z</time></trkpt><trkpt lat="36.9898633" lon="-3.6680738"><ele>981.0</ele><time>2026-03-07T15:42:44.022Z</time></trkpt><trkpt lat="36.9899906" lon="-3.668082"><ele>980.9999999999999</ele><time>2026-03-07T15:42:45.007Z</time></trkpt><trkpt lat="36.9901075" lon="-3.6680756"><ele>980.9999999999999</ele><time>2026-03-07T15:42:45.996Z</time></trkpt><trkpt lat="36.9902133" lon="-3.6680598"><ele>981.0</ele><time>2026-03-07T15:42:47.005Z</time></trkpt><trkpt lat="36.9903063" lon="-3.668064"><ele>981.0</ele><time>2026-03-07T15:42:48.015Z</time></trkpt><trkpt lat="36.9903913" lon="-3.6681192"><ele>976.5</ele><time>2026-03-07T15:42:49.007Z</time></trkpt><trkpt lat="36.9904779" lon="-3.6682196"><ele>972.0</ele><time>2026-03-07T15:42:50Z</time></trkpt><trkpt lat="36.9905576" lon="-3.6683477"><ele>967.5</ele><time>2026-03-07T15:42:50.995Z</time></trkpt><trkpt lat="36.9906197" lon="-3.6684909"><ele>963.0</ele><time>2026-03-07T15:42:52.012Z</time></trkpt><trkpt lat="36.9906614" lon="-3.6686366"><ele>963.0</ele><time>2026-03-07T15:42:53.008Z</time></trkpt><trkpt lat="36.9906985" lon="-3.6687729"><ele>963.0</ele><time>2026-03-07T15:42:54Z</time></trkpt><trkpt lat="36.9907328" lon="-3.6689043"><ele>963.0</ele><time>2026-03-07T15:42:55.028Z</time></trkpt><trkpt lat="36.9907558" lon="-3.6690333"><ele>963.0</ele><time>2026-03-07T15:42:56.003Z</time></trkpt><trkpt lat="36.9907885" lon="-3.6691603"><ele>963.0</ele><time>2026-03-07T15:42:57.001Z</time></trkpt><trkpt lat="36.9908076" lon="-3.669285"><ele>963.0</ele><time>2026-03-07T15:42:58.001Z</time></trkpt><trkpt lat="36.9908275" lon="-3.6694115"><ele>963.0</ele><time>2026-03-07T15:42:59.019Z</time></trkpt><trkpt lat="36.9908814" lon="-3.6695109"><ele>963.0</ele><time>2026-03-07T15:42:59.999Z</time></trkpt><trkpt lat="36.9909588" lon="-3.6695888"><ele>963.0</ele><time>2026-03-07T15:43:01.012Z</time></trkpt><trkpt lat="36.9910452" lon="-3.669657"><ele>963.0</ele><time>2026-03-07T15:43:02.004Z</time></trkpt><trkpt lat="36.9911402" lon="-3.6696949"><ele>962.5</ele><time>2026-03-07T15:43:03.018Z</time></trkpt><trkpt lat="36.9912455" lon="-3.6696863"><ele>962.0</ele><time>2026-03-07T15:43:04.013Z</time></trkpt><trkpt lat="36.9913586" lon="-3.6696285"><ele>961.5</ele><time>2026-03-07T15:43:04.999Z</time></trkpt><trkpt lat="36.9914782" lon="-3.6695633"><ele>961.0</ele><time>2026-03-07T15:43:06.01Z</time></trkpt><trkpt lat="36.9915938" lon="-3.6694973"><ele>959.0</ele><time>2026-03-07T15:43:07.004Z</time></trkpt><trkpt lat="36.9917043" lon="-3.6694604"><ele>956.9999999999999</ele><time>2026-03-07T15:43:08.006Z</time></trkpt><trkpt lat="36.9918035" lon="-3.6694555"><ele>954.9999999999999</ele><time>2026-03-07T15:43:09.012Z</time></trkpt><trkpt lat="36.991894" lon="-3.6694771"><ele>953.0</ele><time>2026-03-07T15:43:10.031Z</time></trkpt><trkpt lat="36.991984" lon="-3.6695119"><ele>951.0</ele><time>2026-03-07T15:43:11.011Z</time></trkpt><trkpt lat="36.9920714" lon="-3.6695672"><ele>951.0</ele><time>2026-03-07T15:43:12.006Z</time></trkpt><trkpt lat="36.9921563" lon="-3.6696285"><ele>950.9999999999999</ele><time>2026-03-07T15:43:13.009Z</time></trkpt><trkpt lat="36.9922315" lon="-3.6697078"><ele>950.9999999999999</ele><time>2026-03-07T15:43:14.029Z</time></trkpt><trkpt lat="36.992307" lon="-3.6697775"><ele>951.0</ele><time>2026-03-07T15:43:15.008Z</time></trkpt><trkpt lat="36.9923808" lon="-3.6698429"><ele>951.0</ele><time>2026-03-07T15:43:16.011Z</time></trkpt><trkpt lat="36.9924474" lon="-3.6699161"><ele>949.8333333333334</ele><time>2026-03-07T15:43:17.014Z</time></trkpt><trkpt lat="36.9925182" lon="-3.669979"><ele>948.6666666666667</ele><time>2026-03-07T15:43:18.017Z</time></trkpt><trkpt lat="36.9925929" lon="-3.6700286"><ele>947.5</ele><time>2026-03-07T15:43:19.018Z</time></trkpt><trkpt lat="36.992678" lon="-3.6700297"><ele>946.3333333333334</ele><time>2026-03-07T15:43:20.004Z</time></trkpt><trkpt lat="36.9927589" lon="-3.6700046"><ele>945.1666666666667</ele><time>2026-03-07T15:43:21.005Z</time></trkpt><trkpt lat="36.9928323" lon="-3.6699494"><ele>944.0</ele><time>2026-03-07T15:43:22.012Z</time></trkpt><trkpt lat="36.9928831" lon="-3.6698592"><ele>944.0</ele><time>2026-03-07T15:43:23.017Z</time></trkpt><trkpt lat="36.9929062" lon="-3.6697486"><ele>944.0000000000001</ele><time>2026-03-07T15:43:24.005Z</time></trkpt><trkpt lat="36.9929049" lon="-3.6696228"><ele>944.0000000000001</ele><time>2026-03-07T15:43:25.012Z</time></trkpt><trkpt lat="36.9928678" lon="-3.6694804"><ele>944.0</ele><time>2026-03-07T15:43:26.009Z</time></trkpt><trkpt lat="36.9928159" lon="-3.6693273"><ele>944.0</ele><time>2026-03-07T15:43:27.007Z</time></trkpt><trkpt lat="36.9927571" lon="-3.6691789"><ele>946.25</ele><time>2026-03-07T15:43:28.015Z</time></trkpt><trkpt lat="36.9927052" lon="-3.6690388"><ele>948.5</ele><time>2026-03-07T15:43:29.018Z</time></trkpt><trkpt lat="36.9926646" lon="-3.6689034"><ele>950.75</ele><time>2026-03-07T15:43:30.011Z</time></trkpt><trkpt lat="36.9926515" lon="-3.668761"><ele>953.0</ele><time>2026-03-07T15:43:31.006Z</time></trkpt><trkpt lat="36.9926476" lon="-3.6686182"><ele>951.2</ele><time>2026-03-07T15:43:32.017Z</time></trkpt><trkpt lat="36.9926787" lon="-3.6684796"><ele>949.4</ele><time>2026-03-07T15:43:33.021Z</time></trkpt><trkpt lat="36.99271" lon="-3.6683394"><ele>947.6000000000001</ele><time>2026-03-07T15:43:34.029Z</time></trkpt><trkpt lat="36.9927514" lon="-3.6682173"><ele>945.8000000000001</ele><time>2026-03-07T15:43:35.008Z</time></trkpt><trkpt lat="36.9927759" lon="-3.6680946"><ele>944.0</ele><time>2026-03-07T15:43:36.024Z</time></trkpt><trkpt lat="36.9927858" lon="-3.667967"><ele>944.0</ele><time>2026-03-07T15:43:37.015Z</time></trkpt><trkpt lat="36.9927654" lon="-3.6678304"><ele>944.0</ele><time>2026-03-07T15:43:38.028Z</time></trkpt><trkpt lat="36.9927052" lon="-3.6676896"><ele>944.0</ele><time>2026-03-07T15:43:39.017Z</time></trkpt><trkpt lat="36.9926303" lon="-3.6675508"><ele>944.0</ele><time>2026-03-07T15:43:40.021Z</time></trkpt><trkpt lat="36.9925506" lon="-3.6674232"><ele>939.0</ele><time>2026-03-07T15:43:41.015Z</time></trkpt><trkpt lat="36.9924817" lon="-3.6672945"><ele>934.0</ele><time>2026-03-07T15:43:42.037Z</time></trkpt><trkpt lat="36.9924187" lon="-3.6671674"><ele>929.0</ele><time>2026-03-07T15:43:43.016Z</time></trkpt><trkpt lat="36.9923586" lon="-3.66705"><ele>924.0</ele><time>2026-03-07T15:43:44.018Z</time></trkpt><trkpt lat="36.9923137" lon="-3.6669442"><ele>922.2</ele><time>2026-03-07T15:43:45.021Z</time></trkpt><trkpt lat="36.9923014" lon="-3.6668511"><ele>920.4000000000001</ele><time>2026-03-07T15:43:46.013Z</time></trkpt><trkpt lat="36.9923241" lon="-3.6667749"><ele>918.6</ele><time>2026-03-07T15:43:47.023Z</time></trkpt><trkpt lat="36.9923924" lon="-3.6667265"><ele>916.8</ele><time>2026-03-07T15:43:48.01Z</time></trkpt><trkpt lat="36.9925021" lon="-3.6666843"><ele>915.0</ele><time>2026-03-07T15:43:49.005Z</time></trkpt><trkpt lat="36.9926346" lon="-3.6666929"><ele>913.75</ele><time>2026-03-07T15:43:50.004Z</time></trkpt><trkpt lat="36.9927715" lon="-3.6666869"><ele>912.5</ele><time>2026-03-07T15:43:51.002Z</time></trkpt><trkpt lat="36.9928981" lon="-3.6666626"><ele>911.25</ele><time>2026-03-07T15:43:52.016Z</time></trkpt><trkpt lat="36.993023" lon="-3.6666036"><ele>910.0</ele><time>2026-03-07T15:43:53.022Z</time></trkpt><trkpt lat="36.9931408" lon="-3.6665129"><ele>910.0</ele><time>2026-03-07T15:43:54.005Z</time></trkpt><trkpt lat="36.9932503" lon="-3.6663906"><ele>910.0</ele><time>2026-03-07T15:43:55.011Z</time></trkpt><trkpt lat="36.9933471" lon="-3.6662467"><ele>910.0</ele><time>2026-03-07T15:43:56.013Z</time></trkpt><trkpt lat="36.9934305" lon="-3.6660872"><ele>910.0</ele><time>2026-03-07T15:43:57.014Z</time></trkpt><trkpt lat="36.9935007" lon="-3.6659329"><ele>912.5</ele><time>2026-03-07T15:43:58.004Z</time></trkpt><trkpt lat="36.9935546" lon="-3.6657664"><ele>915.0</ele><time>2026-03-07T15:43:58.998Z</time></trkpt><trkpt lat="36.9935824" lon="-3.6656101"><ele>917.5</ele><time>2026-03-07T15:44:00.046Z</time></trkpt><trkpt lat="36.9936017" lon="-3.6654685"><ele>920.0</ele><time>2026-03-07T15:44:01.003Z</time></trkpt><trkpt lat="36.9936235" lon="-3.665334"><ele>921.5</ele><time>2026-03-07T15:44:02.012Z</time></trkpt><trkpt lat="36.9936204" lon="-3.6651854"><ele>923.0</ele><time>2026-03-07T15:44:03.026Z</time></trkpt><trkpt lat="36.9935872" lon="-3.6650309"><ele>924.5</ele><time>2026-03-07T15:44:04.007Z</time></trkpt><trkpt lat="36.9935319" lon="-3.6648869"><ele>926.0</ele><time>2026-03-07T15:44:05.017Z</time></trkpt><trkpt lat="36.9934624" lon="-3.6647594"><ele>926.0</ele><time>2026-03-07T15:44:06.008Z</time></trkpt><trkpt lat="36.9933977" lon="-3.6646317"><ele>925.9999999999999</ele><time>2026-03-07T15:44:07.012Z</time></trkpt><trkpt lat="36.9933451" lon="-3.6645072"><ele>925.9999999999999</ele><time>2026-03-07T15:44:08.005Z</time></trkpt><trkpt lat="36.9933058" lon="-3.6643856"><ele>926.0</ele><time>2026-03-07T15:44:09.001Z</time></trkpt><trkpt lat="36.9932732" lon="-3.6642595"><ele>926.0</ele><time>2026-03-07T15:44:10.002Z</time></trkpt><trkpt lat="36.993276" lon="-3.6641192"><ele>926.5</ele><time>2026-03-07T15:44:11.015Z</time></trkpt><trkpt lat="36.9933234" lon="-3.6639848"><ele>927.0</ele><time>2026-03-07T15:44:12.012Z</time></trkpt><trkpt lat="36.993406" lon="-3.6638798"><ele>927.5</ele><time>2026-03-07T15:44:13.034Z</time></trkpt><trkpt lat="36.9934953" lon="-3.6637791"><ele>928.0</ele><time>2026-03-07T15:44:14.006Z</time></trkpt><trkpt lat="36.9935966" lon="-3.6637115"><ele>928.0</ele><time>2026-03-07T15:44:15.018Z</time></trkpt><trkpt lat="36.99369" lon="-3.6636471"><ele>928.0</ele><time>2026-03-07T15:44:16.012Z</time></trkpt><trkpt lat="36.9937779" lon="-3.6635844"><ele>928.0</ele><time>2026-03-07T15:44:17.015Z</time></trkpt><trkpt lat="36.9938647" lon="-3.6635065"><ele>928.0</ele><time>2026-03-07T15:44:18.057Z</time></trkpt><trkpt lat="36.9939386" lon="-3.6634123"><ele>928.0</ele><time>2026-03-07T15:44:19.005Z</time></trkpt><trkpt lat="36.9940124" lon="-3.6633261"><ele>927.9999999999999</ele><time>2026-03-07T15:44:20.001Z</time></trkpt><trkpt lat="36.9940747" lon="-3.6632409"><ele>928.0</ele><time>2026-03-07T15:44:21.004Z</time></trkpt><trkpt lat="36.994127" lon="-3.6631608"><ele>928.0</ele><time>2026-03-07T15:44:22.002Z</time></trkpt><trkpt lat="36.9941675" lon="-3.663086"><ele>928.0</ele><time>2026-03-07T15:44:23.009Z</time></trkpt><trkpt lat="36.9942118" lon="-3.662961"><ele>927.9999999999999</ele><time>2026-03-07T15:44:25.007Z</time></trkpt><trkpt lat="36.9942825" lon="-3.6629175"><ele>928.0</ele><time>2026-03-07T15:44:27.003Z</time></trkpt><trkpt lat="36.9944303" lon="-3.6629296"><ele>927.5999999999999</ele><time>2026-03-07T15:44:29.001Z</time></trkpt><trkpt lat="36.9945281" lon="-3.6629467"><ele>927.1999999999999</ele><time>2026-03-07T15:44:30.005Z</time></trkpt><trkpt lat="36.9946293" lon="-3.66297"><ele>926.8</ele><time>2026-03-07T15:44:31.012Z</time></trkpt><trkpt lat="36.9947272" lon="-3.663008"><ele>926.4</ele><time>2026-03-07T15:44:32.004Z</time></trkpt><trkpt lat="36.9948242" lon="-3.6630568"><ele>926.0</ele><time>2026-03-07T15:44:33Z</time></trkpt><trkpt lat="36.9949241" lon="-3.6631052"><ele>926.8</ele><time>2026-03-07T15:44:34.001Z</time></trkpt><trkpt lat="36.9950237" lon="-3.6631416"><ele>927.5999999999999</ele><time>2026-03-07T15:44:35.011Z</time></trkpt><trkpt lat="36.9951172" lon="-3.6631722"><ele>928.4</ele><time>2026-03-07T15:44:36.001Z</time></trkpt><trkpt lat="36.9952046" lon="-3.6631999"><ele>929.2</ele><time>2026-03-07T15:44:37.005Z</time></trkpt><trkpt lat="36.9952911" lon="-3.6632333"><ele>930.0</ele><time>2026-03-07T15:44:38.01Z</time></trkpt><trkpt lat="36.9953728" lon="-3.6632674"><ele>930.0</ele><time>2026-03-07T15:44:39.011Z</time></trkpt><trkpt lat="36.9954393" lon="-3.6633043"><ele>930.0</ele><time>2026-03-07T15:44:40.003Z</time></trkpt><trkpt lat="36.9954942" lon="-3.6633463"><ele>930.0</ele><time>2026-03-07T15:44:41.017Z</time></trkpt><trkpt lat="36.9955387" lon="-3.6634218"><ele>930.0</ele><time>2026-03-07T15:44:42.012Z</time></trkpt><trkpt lat="36.9955743" lon="-3.6635237"><ele>930.0</ele><time>2026-03-07T15:44:43.005Z</time></trkpt><trkpt lat="36.9956017" lon="-3.663644"><ele>930.0</ele><time>2026-03-07T15:44:44.017Z</time></trkpt><trkpt lat="36.9956352" lon="-3.6637638"><ele>930.5</ele><time>2026-03-07T15:44:45.008Z</time></trkpt><trkpt lat="36.9956754" lon="-3.6638688"><ele>931.0</ele><time>2026-03-07T15:44:46.005Z</time></trkpt><trkpt lat="36.9957157" lon="-3.6639534"><ele>931.5</ele><time>2026-03-07T15:44:47.012Z</time></trkpt><trkpt lat="36.9957645" lon="-3.6640093"><ele>932.0</ele><time>2026-03-07T15:44:48.007Z</time></trkpt><trkpt lat="36.9958242" lon="-3.6640452"><ele>932.5</ele><time>2026-03-07T15:44:49.008Z</time></trkpt><trkpt lat="36.9959016" lon="-3.6640421"><ele>933.0</ele><time>2026-03-07T15:44:50.03Z</time></trkpt><trkpt lat="36.9959823" lon="-3.6640219"><ele>934.2</ele><time>2026-03-07T15:44:50.996Z</time></trkpt><trkpt lat="36.9960622" lon="-3.6639681"><ele>935.4</ele><time>2026-03-07T15:44:52.021Z</time></trkpt><trkpt lat="36.9961412" lon="-3.6639145"><ele>936.6000000000001</ele><time>2026-03-07T15:44:53.003Z</time></trkpt><trkpt lat="36.9962194" lon="-3.66387"><ele>937.8000000000001</ele><time>2026-03-07T15:44:53.998Z</time></trkpt><trkpt lat="36.9963085" lon="-3.6638483"><ele>939.0</ele><time>2026-03-07T15:44:55.003Z</time></trkpt><trkpt lat="36.9964036" lon="-3.6638268"><ele>939.0</ele><time>2026-03-07T15:44:56.01Z</time></trkpt><trkpt lat="36.9964979" lon="-3.6638111"><ele>939.0000000000001</ele><time>2026-03-07T15:44:57.005Z</time></trkpt><trkpt lat="36.9965887" lon="-3.6638037"><ele>939.0000000000001</ele><time>2026-03-07T15:44:58.011Z</time></trkpt><trkpt lat="36.996679" lon="-3.6637941"><ele>939.0</ele><time>2026-03-07T15:44:59.011Z</time></trkpt><trkpt lat="36.9967804" lon="-3.6637893"><ele>939.0</ele><time>2026-03-07T15:45:00.013Z</time></trkpt><trkpt lat="36.9968886" lon="-3.6637781"><ele>939.8000000000001</ele><time>2026-03-07T15:45:01.003Z</time></trkpt><trkpt lat="36.9969999" lon="-3.6637691"><ele>940.6000000000001</ele><time>2026-03-07T15:45:02.008Z</time></trkpt><trkpt lat="36.9971042" lon="-3.6637677"><ele>941.4</ele><time>2026-03-07T15:45:03.003Z</time></trkpt><trkpt lat="36.9971961" lon="-3.6637712"><ele>942.2</ele><time>2026-03-07T15:45:04.007Z</time></trkpt><trkpt lat="36.9972909" lon="-3.6637668"><ele>943.0</ele><time>2026-03-07T15:45:05.009Z</time></trkpt><trkpt lat="36.9973902" lon="-3.6637652"><ele>943.0</ele><time>2026-03-07T15:45:06.091Z</time></trkpt><trkpt lat="36.9974949" lon="-3.6637778"><ele>943.0</ele><time>2026-03-07T15:45:07.01Z</time></trkpt><trkpt lat="36.9976024" lon="-3.6638108"><ele>943.0</ele><time>2026-03-07T15:45:08.02Z</time></trkpt><trkpt lat="36.9977031" lon="-3.6638538"><ele>943.0</ele><time>2026-03-07T15:45:09.007Z</time></trkpt><trkpt lat="36.997793" lon="-3.6639085"><ele>943.0</ele><time>2026-03-07T15:45:10.004Z</time></trkpt><trkpt lat="36.9978702" lon="-3.6639772"><ele>943.4</ele><time>2026-03-07T15:45:11.005Z</time></trkpt><trkpt lat="36.9979373" lon="-3.6640602"><ele>943.8</ele><time>2026-03-07T15:45:12.004Z</time></trkpt><trkpt lat="36.9980007" lon="-3.6641552"><ele>944.2</ele><time>2026-03-07T15:45:13.006Z</time></trkpt><trkpt lat="36.998059" lon="-3.6642631"><ele>944.6</ele><time>2026-03-07T15:45:14.009Z</time></trkpt><trkpt lat="36.998101" lon="-3.6643878"><ele>945.0</ele><time>2026-03-07T15:45:15.004Z</time></trkpt><trkpt lat="36.9981359" lon="-3.6645284"><ele>945.0</ele><time>2026-03-07T15:45:16.017Z</time></trkpt><trkpt lat="36.9981626" lon="-3.6646741"><ele>945.0</ele><time>2026-03-07T15:45:17.001Z</time></trkpt><trkpt lat="36.9981933" lon="-3.664817"><ele>945.0</ele><time>2026-03-07T15:45:18.004Z</time></trkpt><trkpt lat="36.9982343" lon="-3.6649528"><ele>945.0</ele><time>2026-03-07T15:45:19.007Z</time></trkpt><trkpt lat="36.9982678" lon="-3.6650728"><ele>945.0</ele><time>2026-03-07T15:45:20.009Z</time></trkpt><trkpt lat="36.9982918" lon="-3.665162"><ele>945.0</ele><time>2026-03-07T15:45:21.012Z</time></trkpt><trkpt lat="36.998326" lon="-3.6652623"><ele>945.0</ele><time>2026-03-07T15:45:22.004Z</time></trkpt><trkpt lat="36.9983591" lon="-3.6653537"><ele>945.0</ele><time>2026-03-07T15:45:23.002Z</time></trkpt><trkpt lat="36.9983873" lon="-3.6654415"><ele>945.0</ele><time>2026-03-07T15:45:24.013Z</time></trkpt><trkpt lat="36.998415" lon="-3.66552"><ele>945.0</ele><time>2026-03-07T15:45:25.002Z</time></trkpt><trkpt lat="36.9984486" lon="-3.6655912"><ele>945.1666666666666</ele><time>2026-03-07T15:45:26.012Z</time></trkpt><trkpt lat="36.9984965" lon="-3.6656477"><ele>945.3333333333333</ele><time>2026-03-07T15:45:27.006Z</time></trkpt><trkpt lat="36.9985551" lon="-3.6656989"><ele>945.5</ele><time>2026-03-07T15:45:28.019Z</time></trkpt><trkpt lat="36.9986364" lon="-3.6657281"><ele>945.6666666666666</ele><time>2026-03-07T15:45:29.012Z</time></trkpt><trkpt lat="36.9987253" lon="-3.6657642"><ele>945.8333333333333</ele><time>2026-03-07T15:45:30.016Z</time></trkpt><trkpt lat="36.9988203" lon="-3.6657965"><ele>946.0</ele><time>2026-03-07T15:45:31.021Z</time></trkpt><trkpt lat="36.998922" lon="-3.6658336"><ele>946.0</ele><time>2026-03-07T15:45:32.011Z</time></trkpt><trkpt lat="36.9990284" lon="-3.6658726"><ele>945.9999999999999</ele><time>2026-03-07T15:45:33.008Z</time></trkpt><trkpt lat="36.9991401" lon="-3.6659021"><ele>945.9999999999999</ele><time>2026-03-07T15:45:34.005Z</time></trkpt><trkpt lat="36.9992477" lon="-3.6659352"><ele>946.0</ele><time>2026-03-07T15:45:34.996Z</time></trkpt><trkpt lat="36.9993458" lon="-3.665963"><ele>946.0</ele><time>2026-03-07T15:45:35.997Z</time></trkpt><trkpt lat="36.9994245" lon="-3.665998"><ele>947.1666666666666</ele><time>2026-03-07T15:45:37.011Z</time></trkpt><trkpt lat="36.9994845" lon="-3.6660501"><ele>948.3333333333333</ele><time>2026-03-07T15:45:38.01Z</time></trkpt><trkpt lat="36.9995314" lon="-3.6661197"><ele>949.5</ele><time>2026-03-07T15:45:39.023Z</time></trkpt><trkpt lat="36.9995528" lon="-3.6662186"><ele>950.6666666666667</ele><time>2026-03-07T15:45:40.001Z</time></trkpt><trkpt lat="36.9995822" lon="-3.6663294"><ele>951.8333333333334</ele><time>2026-03-07T15:45:41.001Z</time></trkpt><trkpt lat="36.9996419" lon="-3.6664337"><ele>953.0</ele><time>2026-03-07T15:45:42.011Z</time></trkpt><trkpt lat="36.9997081" lon="-3.6665398"><ele>953.0000000000001</ele><time>2026-03-07T15:45:43.01Z</time></trkpt><trkpt lat="36.99977" lon="-3.6666349"><ele>953.0</ele><time>2026-03-07T15:45:44.018Z</time></trkpt><trkpt lat="36.9998329" lon="-3.6667135"><ele>953.0</ele><time>2026-03-07T15:45:45.007Z</time></trkpt><trkpt lat="36.9998996" lon="-3.6667687"><ele>953.0</ele><time>2026-03-07T15:45:46.056Z</time></trkpt><trkpt lat="36.9999723" lon="-3.6668074"><ele>953.0000000000001</ele><time>2026-03-07T15:45:46.995Z</time></trkpt><trkpt lat="37.0000546" lon="-3.6668363"><ele>953.0</ele><time>2026-03-07T15:45:48.07Z</time></trkpt><trkpt lat="37.0001355" lon="-3.6668624"><ele>953.0000000000001</ele><time>2026-03-07T15:45:49.018Z</time></trkpt><trkpt lat="37.0001801" lon="-3.6669386"><ele>953.0</ele><time>2026-03-07T15:45:50.006Z</time></trkpt><trkpt lat="37.000217" lon="-3.6670251"><ele>953.0</ele><time>2026-03-07T15:45:51.009Z</time></trkpt><trkpt lat="37.0002403" lon="-3.6671232"><ele>953.0</ele><time>2026-03-07T15:45:52.031Z</time></trkpt><trkpt lat="37.0002633" lon="-3.6672254"><ele>953.0000000000001</ele><time>2026-03-07T15:45:53.011Z</time></trkpt><trkpt lat="37.0003007" lon="-3.6673194"><ele>953.0</ele><time>2026-03-07T15:45:54.025Z</time></trkpt><trkpt lat="37.0003445" lon="-3.6674189"><ele>951.8333333333334</ele><time>2026-03-07T15:45:55.014Z</time></trkpt><trkpt lat="37.0003958" lon="-3.6675122"><ele>950.6666666666667</ele><time>2026-03-07T15:45:55.995Z</time></trkpt><trkpt lat="37.0004537" lon="-3.6675983"><ele>949.5</ele><time>2026-03-07T15:45:57.013Z</time></trkpt><trkpt lat="37.0005083" lon="-3.6676624"><ele>948.3333333333333</ele><time>2026-03-07T15:45:58.013Z</time></trkpt><trkpt lat="37.0005534" lon="-3.667719"><ele>947.1666666666666</ele><time>2026-03-07T15:45:59.018Z</time></trkpt><trkpt lat="37.0006484" lon="-3.6678082"><ele>946.0</ele><time>2026-03-07T15:46:01.001Z</time></trkpt><trkpt lat="37.0007556" lon="-3.6678459"><ele>946.3333333333333</ele><time>2026-03-07T15:46:03.004Z</time></trkpt><trkpt lat="37.0008777" lon="-3.6678488"><ele>946.6666666666666</ele><time>2026-03-07T15:46:05.002Z</time></trkpt><trkpt lat="37.0009505" lon="-3.6678345"><ele>947.0</ele><time>2026-03-07T15:46:06.012Z</time></trkpt><trkpt lat="37.0010336" lon="-3.6678174"><ele>947.3333333333333</ele><time>2026-03-07T15:46:07.013Z</time></trkpt><trkpt lat="37.0011179" lon="-3.6678007"><ele>947.6666666666666</ele><time>2026-03-07T15:46:08.001Z</time></trkpt><trkpt lat="37.0011872" lon="-3.6677819"><ele>948.0</ele><time>2026-03-07T15:46:09.01Z</time></trkpt><trkpt lat="37.0012494" lon="-3.667744"><ele>949.1666666666666</ele><time>2026-03-07T15:46:10.002Z</time></trkpt><trkpt lat="37.0012924" lon="-3.6676861"><ele>950.3333333333333</ele><time>2026-03-07T15:46:11.014Z</time></trkpt><trkpt lat="37.0013489" lon="-3.6675313"><ele>951.5</ele><time>2026-03-07T15:46:13.009Z</time></trkpt><trkpt lat="37.0013756" lon="-3.6674382"><ele>952.6666666666666</ele><time>2026-03-07T15:46:14.006Z</time></trkpt><trkpt lat="37.0014094" lon="-3.6673565"><ele>953.8333333333333</ele><time>2026-03-07T15:46:15.013Z</time></trkpt><trkpt lat="37.0014468" lon="-3.6672837"><ele>955.0</ele><time>2026-03-07T15:46:16.008Z</time></trkpt><trkpt lat="37.0015103" lon="-3.6672499"><ele>955.0</ele><time>2026-03-07T15:46:16.998Z</time></trkpt><trkpt lat="37.0015849" lon="-3.6672326"><ele>955.0</ele><time>2026-03-07T15:46:18.013Z</time></trkpt><trkpt lat="37.0016773" lon="-3.667209"><ele>955.0</ele><time>2026-03-07T15:46:19.009Z</time></trkpt><trkpt lat="37.0017792" lon="-3.6671643"><ele>955.0</ele><time>2026-03-07T15:46:19.998Z</time></trkpt><trkpt lat="37.0018849" lon="-3.6671194"><ele>955.0</ele><time>2026-03-07T15:46:21.007Z</time></trkpt><trkpt lat="37.0019895" lon="-3.6670646"><ele>955.6666666666666</ele><time>2026-03-07T15:46:22.004Z</time></trkpt><trkpt lat="37.0020796" lon="-3.6670176"><ele>956.3333333333333</ele><time>2026-03-07T15:46:22.997Z</time></trkpt><trkpt lat="37.0021578" lon="-3.6669904"><ele>957.0</ele><time>2026-03-07T15:46:24.008Z</time></trkpt><trkpt lat="37.00224" lon="-3.6669895"><ele>957.6666666666667</ele><time>2026-03-07T15:46:25.004Z</time></trkpt><trkpt lat="37.0023249" lon="-3.6670265"><ele>958.3333333333334</ele><time>2026-03-07T15:46:26.012Z</time></trkpt><trkpt lat="37.0024125" lon="-3.6670718"><ele>959.0</ele><time>2026-03-07T15:46:27.007Z</time></trkpt><trkpt lat="37.0024927" lon="-3.6671229"><ele>960.4000000000001</ele><time>2026-03-07T15:46:28.009Z</time></trkpt><trkpt lat="37.0025858" lon="-3.6671418"><ele>961.8000000000001</ele><time>2026-03-07T15:46:28.999Z</time></trkpt><trkpt lat="37.0026885" lon="-3.6671196"><ele>963.1999999999999</ele><time>2026-03-07T15:46:30.019Z</time></trkpt><trkpt lat="37.0027987" lon="-3.6670983"><ele>964.5999999999999</ele><time>2026-03-07T15:46:31.055Z</time></trkpt><trkpt lat="37.002904" lon="-3.6670784"><ele>966.0</ele><time>2026-03-07T15:46:32.044Z</time></trkpt><trkpt lat="37.0030067" lon="-3.6670948"><ele>966.0</ele><time>2026-03-07T15:46:33.004Z</time></trkpt><trkpt lat="37.0030982" lon="-3.667154"><ele>965.9999999999999</ele><time>2026-03-07T15:46:34.008Z</time></trkpt><trkpt lat="37.0031896" lon="-3.6672116"><ele>965.9999999999999</ele><time>2026-03-07T15:46:35.017Z</time></trkpt><trkpt lat="37.0032783" lon="-3.6672424"><ele>966.0</ele><time>2026-03-07T15:46:36.009Z</time></trkpt><trkpt lat="37.0033582" lon="-3.6672594"><ele>966.0</ele><time>2026-03-07T15:46:36.995Z</time></trkpt><trkpt lat="37.0034353" lon="-3.6672749"><ele>966.5714285714286</ele><time>2026-03-07T15:46:38.011Z</time></trkpt><trkpt lat="37.0035065" lon="-3.6673108"><ele>967.1428571428571</ele><time>2026-03-07T15:46:39.008Z</time></trkpt><trkpt lat="37.0035738" lon="-3.6673475"><ele>967.7142857142858</ele><time>2026-03-07T15:46:39.998Z</time></trkpt><trkpt lat="37.0036347" lon="-3.667382"><ele>968.2857142857143</ele><time>2026-03-07T15:46:41.001Z</time></trkpt><trkpt lat="37.0036937" lon="-3.6674208"><ele>968.8571428571429</ele><time>2026-03-07T15:46:42.018Z</time></trkpt><trkpt lat="37.0037569" lon="-3.6674547"><ele>969.4285714285716</ele><time>2026-03-07T15:46:43.039Z</time></trkpt><trkpt lat="37.0038197" lon="-3.6674952"><ele>970.0000000000001</ele><time>2026-03-07T15:46:44.008Z</time></trkpt><trkpt lat="37.0038748" lon="-3.6675405"><ele>970.0</ele><time>2026-03-07T15:46:45.015Z</time></trkpt><trkpt lat="37.0039598" lon="-3.6676283"><ele>970.0</ele><time>2026-03-07T15:46:46.997Z</time></trkpt><trkpt lat="37.0040446" lon="-3.6676847"><ele>970.0</ele><time>2026-03-07T15:46:49Z</time></trkpt><trkpt lat="37.0041398" lon="-3.6676484"><ele>970.0</ele><time>2026-03-07T15:46:50.989Z</time></trkpt><trkpt lat="37.0042519" lon="-3.6675741"><ele>970.0</ele><time>2026-03-07T15:46:53.038Z</time></trkpt><trkpt lat="37.0043608" lon="-3.6675033"><ele>969.6</ele><time>2026-03-07T15:46:55.006Z</time></trkpt><trkpt lat="37.0044666" lon="-3.6674625"><ele>969.2</ele><time>2026-03-07T15:46:57.016Z</time></trkpt><trkpt lat="37.0045548" lon="-3.6675238"><ele>968.8</ele><time>2026-03-07T15:46:59.02Z</time></trkpt><trkpt lat="37.0046144" lon="-3.6675516"><ele>968.4</ele><time>2026-03-07T15:47:01.033Z</time></trkpt><trkpt lat="37.0046862" lon="-3.6675155"><ele>968.0</ele><time>2026-03-07T15:47:03.016Z</time></trkpt><trkpt lat="37.0047532" lon="-3.6674163"><ele>968.0000000000001</ele><time>2026-03-07T15:47:05.011Z</time></trkpt><trkpt lat="37.0048212" lon="-3.6673131"><ele>968.0</ele><time>2026-03-07T15:47:07.005Z</time></trkpt><trkpt lat="37.0048878" lon="-3.6671958"><ele>968.0</ele><time>2026-03-07T15:47:09.03Z</time></trkpt><trkpt lat="37.0049051" lon="-3.6671191"><ele>968.0</ele><time>2026-03-07T15:47:10.014Z</time></trkpt><trkpt lat="37.0049272" lon="-3.6670399"><ele>968.0000000000001</ele><time>2026-03-07T15:47:11.002Z</time></trkpt><trkpt lat="37.0049554" lon="-3.66696"><ele>968.0</ele><time>2026-03-07T15:47:12.012Z</time></trkpt><trkpt lat="37.004998" lon="-3.6668957"><ele>966.0000000000001</ele><time>2026-03-07T15:47:13.009Z</time></trkpt><trkpt lat="37.0050616" lon="-3.6668434"><ele>964.0</ele><time>2026-03-07T15:47:14.015Z</time></trkpt><trkpt lat="37.0051332" lon="-3.6667922"><ele>962.0</ele><time>2026-03-07T15:47:15.008Z</time></trkpt><trkpt lat="37.0052004" lon="-3.6667392"><ele>960.0</ele><time>2026-03-07T15:47:16.018Z</time></trkpt><trkpt lat="37.0052604" lon="-3.6667034"><ele>958.0000000000001</ele><time>2026-03-07T15:47:17.003Z</time></trkpt><trkpt lat="37.0053638" lon="-3.6666573"><ele>956.0</ele><time>2026-03-07T15:47:19.023Z</time></trkpt><trkpt lat="37.00543" lon="-3.666562"><ele>956.0000000000001</ele><time>2026-03-07T15:47:20.995Z</time></trkpt><trkpt lat="37.0054811" lon="-3.6664911"><ele>956.0</ele><time>2026-03-07T15:47:22.005Z</time></trkpt><trkpt lat="37.0055491" lon="-3.6664356"><ele>956.0000000000001</ele><time>2026-03-07T15:47:23.019Z</time></trkpt><trkpt lat="37.0056115" lon="-3.6663813"><ele>956.0000000000001</ele><time>2026-03-07T15:47:24.008Z</time></trkpt><trkpt lat="37.00567" lon="-3.6663257"><ele>956.0</ele><time>2026-03-07T15:47:25.025Z</time></trkpt><trkpt lat="37.0057204" lon="-3.6662689"><ele>956.0000000000001</ele><time>2026-03-07T15:47:26.012Z</time></trkpt><trkpt lat="37.0057672" lon="-3.6662051"><ele>956.0000000000001</ele><time>2026-03-07T15:47:27.027Z</time></trkpt><trkpt lat="37.0058211" lon="-3.6661413"><ele>954.8333333333334</ele><time>2026-03-07T15:47:28.007Z</time></trkpt><trkpt lat="37.0058894" lon="-3.6660883"><ele>953.6666666666667</ele><time>2026-03-07T15:47:29.008Z</time></trkpt><trkpt lat="37.0059506" lon="-3.6660239"><ele>952.5</ele><time>2026-03-07T15:47:30.017Z</time></trkpt><trkpt lat="37.0060008" lon="-3.6659533"><ele>951.3333333333333</ele><time>2026-03-07T15:47:31.007Z</time></trkpt><trkpt lat="37.0060469" lon="-3.6658736"><ele>950.1666666666666</ele><time>2026-03-07T15:47:32.023Z</time></trkpt><trkpt lat="37.0061022" lon="-3.6657889"><ele>949.0</ele><time>2026-03-07T15:47:32.999Z</time></trkpt><trkpt lat="37.0061592" lon="-3.6657006"><ele>949.0</ele><time>2026-03-07T15:47:34.003Z</time></trkpt><trkpt lat="37.006224" lon="-3.6656085"><ele>949.0000000000001</ele><time>2026-03-07T15:47:35.021Z</time></trkpt><trkpt lat="37.0062843" lon="-3.6655109"><ele>949.0000000000001</ele><time>2026-03-07T15:47:36.01Z</time></trkpt><trkpt lat="37.0063383" lon="-3.6654172"><ele>949.0</ele><time>2026-03-07T15:47:37.014Z</time></trkpt><trkpt lat="37.0063944" lon="-3.6653226"><ele>949.0</ele><time>2026-03-07T15:47:38.011Z</time></trkpt><trkpt lat="37.0064535" lon="-3.6652332"><ele>948.9999999999999</ele><time>2026-03-07T15:47:39.012Z</time></trkpt><trkpt lat="37.0065109" lon="-3.6651476"><ele>949.0</ele><time>2026-03-07T15:47:40.004Z</time></trkpt><trkpt lat="37.0065488" lon="-3.6650681"><ele>949.0</ele><time>2026-03-07T15:47:41.003Z</time></trkpt><trkpt lat="37.0065768" lon="-3.6649153"><ele>949.0</ele><time>2026-03-07T15:47:43.047Z</time></trkpt><trkpt lat="37.0065895" lon="-3.6648372"><ele>948.9999999999999</ele><time>2026-03-07T15:47:44.011Z</time></trkpt><trkpt lat="37.0066061" lon="-3.6647601"><ele>949.0</ele><time>2026-03-07T15:47:45.006Z</time></trkpt><trkpt lat="37.0066134" lon="-3.6646675"><ele>948.9999999999999</ele><time>2026-03-07T15:47:46.012Z</time></trkpt><trkpt lat="37.0066257" lon="-3.6645727"><ele>949.0</ele><time>2026-03-07T15:47:47.054Z</time></trkpt><trkpt lat="37.0066258" lon="-3.6644814"><ele>949.0</ele><time>2026-03-07T15:47:48.03Z</time></trkpt><trkpt lat="37.0066181" lon="-3.6643861"><ele>949.0</ele><time>2026-03-07T15:47:49.024Z</time></trkpt><trkpt lat="37.0066107" lon="-3.6642824"><ele>948.9999999999999</ele><time>2026-03-07T15:47:50.006Z</time></trkpt><trkpt lat="37.0066073" lon="-3.6641726"><ele>949.0</ele><time>2026-03-07T15:47:51.016Z</time></trkpt><trkpt lat="37.0066074" lon="-3.6640705"><ele>948.8000000000001</ele><time>2026-03-07T15:47:52.012Z</time></trkpt><trkpt lat="37.0066107" lon="-3.6639714"><ele>948.6000000000001</ele><time>2026-03-07T15:47:53.047Z</time></trkpt><trkpt lat="37.0066184" lon="-3.6638758"><ele>948.4</ele><time>2026-03-07T15:47:54.022Z</time></trkpt><trkpt lat="37.0066318" lon="-3.6637855"><ele>948.2</ele><time>2026-03-07T15:47:55.113Z</time></trkpt><trkpt lat="37.0066781" lon="-3.6636294"><ele>948.0</ele><time>2026-03-07T15:47:57.088Z</time></trkpt><trkpt lat="37.0067777" lon="-3.6635505"><ele>945.6666666666666</ele><time>2026-03-07T15:47:59.038Z</time></trkpt><trkpt lat="37.0068407" lon="-3.6635105"><ele>943.3333333333333</ele><time>2026-03-07T15:47:59.972Z</time></trkpt><trkpt lat="37.0069" lon="-3.6634426"><ele>941.0</ele><time>2026-03-07T15:48:01.013Z</time></trkpt><trkpt lat="37.006952" lon="-3.663371"><ele>938.6666666666666</ele><time>2026-03-07T15:48:02.029Z</time></trkpt><trkpt lat="37.0069857" lon="-3.6632993"><ele>936.3333333333333</ele><time>2026-03-07T15:48:03.004Z</time></trkpt><trkpt lat="37.0070634" lon="-3.6632035"><ele>934.0</ele><time>2026-03-07T15:48:05.006Z</time></trkpt><trkpt lat="37.0071644" lon="-3.6631545"><ele>934.0</ele><time>2026-03-07T15:48:07.002Z</time></trkpt><trkpt lat="37.0072718" lon="-3.663098"><ele>934.0000000000001</ele><time>2026-03-07T15:48:09.012Z</time></trkpt><trkpt lat="37.0073325" lon="-3.6629797"><ele>934.0000000000001</ele><time>2026-03-07T15:48:11.005Z</time></trkpt><trkpt lat="37.0073576" lon="-3.6628316"><ele>934.0</ele><time>2026-03-07T15:48:13.016Z</time></trkpt><trkpt lat="37.0074076" lon="-3.662727"><ele>934.0</ele><time>2026-03-07T15:48:15.006Z</time></trkpt><trkpt lat="37.0075138" lon="-3.6626538"><ele>931.0</ele><time>2026-03-07T15:48:17.008Z</time></trkpt><trkpt lat="37.0076144" lon="-3.6625929"><ele>928.0000000000001</ele><time>2026-03-07T15:48:19.017Z</time></trkpt><trkpt lat="37.0076898" lon="-3.6625237"><ele>925.0000000000001</ele><time>2026-03-07T15:48:21.005Z</time></trkpt><trkpt lat="37.0077165" lon="-3.6623879"><ele>922.0</ele><time>2026-03-07T15:48:23.008Z</time></trkpt><trkpt lat="37.0077299" lon="-3.662295"><ele>919.0</ele><time>2026-03-07T15:48:24.008Z</time></trkpt><trkpt lat="37.007766" lon="-3.6622"><ele>919.0</ele><time>2026-03-07T15:48:25.005Z</time></trkpt><trkpt lat="37.0078258" lon="-3.6620998"><ele>919.0</ele><time>2026-03-07T15:48:26.01Z</time></trkpt><trkpt lat="37.0078857" lon="-3.661984"><ele>919.0</ele><time>2026-03-07T15:48:26.997Z</time></trkpt><trkpt lat="37.0079386" lon="-3.6618542"><ele>919.0</ele><time>2026-03-07T15:48:28.008Z</time></trkpt><trkpt lat="37.0079941" lon="-3.6617128"><ele>919.0</ele><time>2026-03-07T15:48:29.004Z</time></trkpt><trkpt lat="37.0080459" lon="-3.6615669"><ele>919.0</ele><time>2026-03-07T15:48:30.005Z</time></trkpt><trkpt lat="37.0080936" lon="-3.6614157"><ele>919.0</ele><time>2026-03-07T15:48:31.021Z</time></trkpt><trkpt lat="37.0081338" lon="-3.6612635"><ele>919.0</ele><time>2026-03-07T15:48:32.02Z</time></trkpt><trkpt lat="37.0081536" lon="-3.6611098"><ele>918.5</ele><time>2026-03-07T15:48:33.017Z</time></trkpt><trkpt lat="37.008168" lon="-3.6609605"><ele>918.0</ele><time>2026-03-07T15:48:34.013Z</time></trkpt><trkpt lat="37.0081747" lon="-3.6608165"><ele>917.5</ele><time>2026-03-07T15:48:35.014Z</time></trkpt><trkpt lat="37.0081728" lon="-3.6606737"><ele>917.0</ele><time>2026-03-07T15:48:36.021Z</time></trkpt><trkpt lat="37.0081792" lon="-3.6605292"><ele>917.0</ele><time>2026-03-07T15:48:36.996Z</time></trkpt><trkpt lat="37.0082185" lon="-3.6603844"><ele>917.0</ele><time>2026-03-07T15:48:38.015Z</time></trkpt><trkpt lat="37.008249" lon="-3.6602423"><ele>917.0</ele><time>2026-03-07T15:48:39.004Z</time></trkpt><trkpt lat="37.0082754" lon="-3.6601039"><ele>917.0</ele><time>2026-03-07T15:48:40.03Z</time></trkpt><trkpt lat="37.0082823" lon="-3.6599605"><ele>916.0</ele><time>2026-03-07T15:48:41.012Z</time></trkpt><trkpt lat="37.008268" lon="-3.6598075"><ele>915.0</ele><time>2026-03-07T15:48:42.01Z</time></trkpt><trkpt lat="37.0082467" lon="-3.6596532"><ele>914.0</ele><time>2026-03-07T15:48:43.009Z</time></trkpt><trkpt lat="37.0082313" lon="-3.6595091"><ele>913.0</ele><time>2026-03-07T15:48:44.017Z</time></trkpt><trkpt lat="37.0082257" lon="-3.6593785"><ele>912.0</ele><time>2026-03-07T15:48:45.004Z</time></trkpt><trkpt lat="37.0082273" lon="-3.6592511"><ele>911.0</ele><time>2026-03-07T15:48:46.003Z</time></trkpt><trkpt lat="37.0082368" lon="-3.6591194"><ele>910.0</ele><time>2026-03-07T15:48:47.013Z</time></trkpt><trkpt lat="37.0082523" lon="-3.6589862"><ele>909.0</ele><time>2026-03-07T15:48:48.009Z</time></trkpt><trkpt lat="37.008262" lon="-3.658854"><ele>908.0</ele><time>2026-03-07T15:48:49.014Z</time></trkpt><trkpt lat="37.0082658" lon="-3.6587233"><ele>906.8333333333334</ele><time>2026-03-07T15:48:50.018Z</time></trkpt><trkpt lat="37.0082659" lon="-3.658607"><ele>905.6666666666667</ele><time>2026-03-07T15:48:51.001Z</time></trkpt><trkpt lat="37.0082564" lon="-3.6585064"><ele>904.5</ele><time>2026-03-07T15:48:51.998Z</time></trkpt><trkpt lat="37.0082392" lon="-3.6584093"><ele>903.3333333333333</ele><time>2026-03-07T15:48:53.017Z</time></trkpt><trkpt lat="37.0082249" lon="-3.6583061"><ele>902.1666666666666</ele><time>2026-03-07T15:48:54.015Z</time></trkpt><trkpt lat="37.0082162" lon="-3.6582013"><ele>901.0</ele><time>2026-03-07T15:48:55Z</time></trkpt><trkpt lat="37.0082081" lon="-3.6581106"><ele>900.9999999999999</ele><time>2026-03-07T15:48:56.016Z</time></trkpt><trkpt lat="37.0082023" lon="-3.6580236"><ele>901.0</ele><time>2026-03-07T15:48:57.017Z</time></trkpt><trkpt lat="37.0081981" lon="-3.6579374"><ele>901.0</ele><time>2026-03-07T15:48:58.01Z</time></trkpt><trkpt lat="37.0081872" lon="-3.6578564"><ele>901.0</ele><time>2026-03-07T15:48:59.009Z</time></trkpt><trkpt lat="37.0081573" lon="-3.657705"><ele>900.9999999999999</ele><time>2026-03-07T15:49:01.011Z</time></trkpt><trkpt lat="37.0081305" lon="-3.6575622"><ele>901.0</ele><time>2026-03-07T15:49:03.047Z</time></trkpt><trkpt lat="37.0081155" lon="-3.6574277"><ele>901.0</ele><time>2026-03-07T15:49:05.017Z</time></trkpt><trkpt lat="37.0080983" lon="-3.6573254"><ele>900.9999999999999</ele><time>2026-03-07T15:49:07.011Z</time></trkpt><trkpt lat="37.0080918" lon="-3.6574888"><ele>900.9999999999999</ele><time>2026-03-07T15:49:17.008Z</time></trkpt><trkpt lat="37.0080912" lon="-3.6575945"><ele>901.0</ele><time>2026-03-07T15:49:18.014Z</time></trkpt><trkpt lat="37.0080928" lon="-3.6577053"><ele>901.0</ele><time>2026-03-07T15:49:19.026Z</time></trkpt><trkpt lat="37.0081051" lon="-3.6578194"><ele>900.9999999999999</ele><time>2026-03-07T15:49:20.012Z</time></trkpt><trkpt lat="37.0081173" lon="-3.6579419"><ele>901.0</ele><time>2026-03-07T15:49:21.039Z</time></trkpt><trkpt lat="37.0081284" lon="-3.658064"><ele>901.0</ele><time>2026-03-07T15:49:22.028Z</time></trkpt><trkpt lat="37.0081397" lon="-3.6581754"><ele>901.0</ele><time>2026-03-07T15:49:23.01Z</time></trkpt><trkpt lat="37.0081561" lon="-3.6582744"><ele>900.9999999999999</ele><time>2026-03-07T15:49:24Z</time></trkpt><trkpt lat="37.0081707" lon="-3.6583687"><ele>901.0</ele><time>2026-03-07T15:49:25.004Z</time></trkpt><trkpt lat="37.0081833" lon="-3.6584531"><ele>900.9999999999999</ele><time>2026-03-07T15:49:26.008Z</time></trkpt><trkpt lat="37.0082111" lon="-3.6585376"><ele>901.0</ele><time>2026-03-07T15:49:28.019Z</time></trkpt><trkpt lat="37.0082906" lon="-3.6585066"><ele>901.0</ele><time>2026-03-07T15:49:31.032Z</time></trkpt><trkpt lat="37.0083251" lon="-3.6584013"><ele>901.0</ele><time>2026-03-07T15:49:33.005Z</time></trkpt><trkpt lat="37.008364" lon="-3.6582903"><ele>900.9999999999999</ele><time>2026-03-07T15:49:35.012Z</time></trkpt><trkpt lat="37.0084501" lon="-3.6582214"><ele>901.0</ele><time>2026-03-07T15:50:11.016Z</time></trkpt><trkpt lat="37.0085232" lon="-3.6582124"><ele>900.4</ele><time>2026-03-07T15:50:13.012Z</time></trkpt><trkpt lat="37.0086067" lon="-3.6582526"><ele>899.8</ele><time>2026-03-07T15:50:15.033Z</time></trkpt><trkpt lat="37.0086945" lon="-3.6582823"><ele>899.1999999999999</ele><time>2026-03-07T15:50:17.014Z</time></trkpt><trkpt lat="37.0088046" lon="-3.6583461"><ele>898.5999999999999</ele><time>2026-03-07T15:50:19.032Z</time></trkpt><trkpt lat="37.0089309" lon="-3.6584127"><ele>898.0</ele><time>2026-03-07T15:50:21.018Z</time></trkpt><trkpt lat="37.0090073" lon="-3.658455"><ele>897.9999999999999</ele><time>2026-03-07T15:50:22.016Z</time></trkpt><trkpt lat="37.0090865" lon="-3.6584905"><ele>898.0</ele><time>2026-03-07T15:50:23.007Z</time></trkpt><trkpt lat="37.0091629" lon="-3.6585212"><ele>898.0</ele><time>2026-03-07T15:50:24.025Z</time></trkpt><trkpt lat="37.0092456" lon="-3.6585351"><ele>898.0</ele><time>2026-03-07T15:50:25.007Z</time></trkpt><trkpt lat="37.0093094" lon="-3.6585158"><ele>897.9999999999999</ele><time>2026-03-07T15:50:26.011Z</time></trkpt><trkpt lat="37.0093993" lon="-3.6584276"><ele>898.0</ele><time>2026-03-07T15:50:28.014Z</time></trkpt><trkpt lat="37.0094732" lon="-3.6583934"><ele>896.3333333333333</ele><time>2026-03-07T15:50:31.012Z</time></trkpt><trkpt lat="37.0095394" lon="-3.6584009"><ele>894.6666666666666</ele><time>2026-03-07T15:50:43.029Z</time></trkpt><trkpt lat="37.009642" lon="-3.6583679"><ele>893.0</ele><time>2026-03-07T15:50:46.021Z</time></trkpt><trkpt lat="37.0097042" lon="-3.6583405"><ele>891.3333333333333</ele><time>2026-03-07T15:50:47.04Z</time></trkpt><trkpt lat="37.0097774" lon="-3.658301"><ele>889.6666666666666</ele><time>2026-03-07T15:50:48.005Z</time></trkpt><trkpt lat="37.0098542" lon="-3.6582504"><ele>888.0</ele><time>2026-03-07T15:50:49.003Z</time></trkpt><trkpt lat="37.0099321" lon="-3.6582031"><ele>887.4</ele><time>2026-03-07T15:50:50.023Z</time></trkpt><trkpt lat="37.0100187" lon="-3.6581584"><ele>886.8</ele><time>2026-03-07T15:50:51.015Z</time></trkpt><trkpt lat="37.0100971" lon="-3.6581154"><ele>886.2</ele><time>2026-03-07T15:50:52.002Z</time></trkpt><trkpt lat="37.0101923" lon="-3.6580527"><ele>885.6</ele><time>2026-03-07T15:50:53.045Z</time></trkpt><trkpt lat="37.010286" lon="-3.6580034"><ele>885.0</ele><time>2026-03-07T15:50:54.023Z</time></trkpt><trkpt lat="37.0103693" lon="-3.657961"><ele>885.0</ele><time>2026-03-07T15:50:55.014Z</time></trkpt><trkpt lat="37.0104829" lon="-3.6579624"><ele>885.0</ele><time>2026-03-07T15:50:57.014Z</time></trkpt><trkpt lat="37.010584" lon="-3.6580617"><ele>885.0</ele><time>2026-03-07T15:50:59.02Z</time></trkpt><trkpt lat="37.01062" lon="-3.6581421"><ele>885.0</ele><time>2026-03-07T15:51:00.056Z</time></trkpt><trkpt lat="37.0106389" lon="-3.6582447"><ele>885.0</ele><time>2026-03-07T15:51:01.007Z</time></trkpt><trkpt lat="37.0106471" lon="-3.6583507"><ele>885.0</ele><time>2026-03-07T15:51:02.017Z</time></trkpt><trkpt lat="37.010657" lon="-3.658452"><ele>885.0</ele><time>2026-03-07T15:51:03.006Z</time></trkpt><trkpt lat="37.0106794" lon="-3.6585443"><ele>885.0</ele><time>2026-03-07T15:51:04.016Z</time></trkpt><trkpt lat="37.010717" lon="-3.658624"><ele>885.0</ele><time>2026-03-07T15:51:05.014Z</time></trkpt><trkpt lat="37.010779" lon="-3.6586798"><ele>885.0</ele><time>2026-03-07T15:51:06.025Z</time></trkpt><trkpt lat="37.0108479" lon="-3.6587307"><ele>885.0</ele><time>2026-03-07T15:51:07.019Z</time></trkpt><trkpt lat="37.0109134" lon="-3.6587798"><ele>885.1666666666666</ele><time>2026-03-07T15:51:08.016Z</time></trkpt><trkpt lat="37.0109815" lon="-3.6588394"><ele>885.3333333333333</ele><time>2026-03-07T15:51:09.009Z</time></trkpt><trkpt lat="37.011051" lon="-3.6588955"><ele>885.5</ele><time>2026-03-07T15:51:10.011Z</time></trkpt><trkpt lat="37.0111252" lon="-3.6589587"><ele>885.6666666666666</ele><time>2026-03-07T15:51:11.006Z</time></trkpt><trkpt lat="37.0111985" lon="-3.6590274"><ele>885.8333333333333</ele><time>2026-03-07T15:51:12.017Z</time></trkpt><trkpt lat="37.011263" lon="-3.6591035"><ele>886.0</ele><time>2026-03-07T15:51:13.03Z</time></trkpt><trkpt lat="37.011324" lon="-3.6591748"><ele>885.9999999999999</ele><time>2026-03-07T15:51:14.014Z</time></trkpt><trkpt lat="37.0113867" lon="-3.6592385"><ele>886.0</ele><time>2026-03-07T15:51:15.028Z</time></trkpt><trkpt lat="37.0114503" lon="-3.6593008"><ele>886.0</ele><time>2026-03-07T15:51:16.017Z</time></trkpt><trkpt lat="37.0115147" lon="-3.6593708"><ele>886.0</ele><time>2026-03-07T15:51:17.003Z</time></trkpt><trkpt lat="37.0115838" lon="-3.6594479"><ele>885.9999999999999</ele><time>2026-03-07T15:51:18.031Z</time></trkpt><trkpt lat="37.0116513" lon="-3.6595424"><ele>886.0</ele><time>2026-03-07T15:51:19.015Z</time></trkpt><trkpt lat="37.0117247" lon="-3.6596377"><ele>885.4</ele><time>2026-03-07T15:51:20.022Z</time></trkpt><trkpt lat="37.011781" lon="-3.6597476"><ele>884.8</ele><time>2026-03-07T15:51:21.015Z</time></trkpt><trkpt lat="37.0118308" lon="-3.6598661"><ele>884.1999999999999</ele><time>2026-03-07T15:51:21.999Z</time></trkpt><trkpt lat="37.0118709" lon="-3.659975"><ele>883.5999999999999</ele><time>2026-03-07T15:51:23.001Z</time></trkpt><trkpt lat="37.0119098" lon="-3.6600698"><ele>883.0</ele><time>2026-03-07T15:51:24.01Z</time></trkpt><trkpt lat="37.0119389" lon="-3.6601606"><ele>883.0</ele><time>2026-03-07T15:51:25.014Z</time></trkpt><trkpt lat="37.0119539" lon="-3.6602556"><ele>883.0</ele><time>2026-03-07T15:51:26.006Z</time></trkpt><trkpt lat="37.0119552" lon="-3.6603629"><ele>883.0</ele><time>2026-03-07T15:51:27.008Z</time></trkpt><trkpt lat="37.0119659" lon="-3.6604795"><ele>883.0</ele><time>2026-03-07T15:51:28.009Z</time></trkpt><trkpt lat="37.011983" lon="-3.6606034"><ele>883.0</ele><time>2026-03-07T15:51:29.01Z</time></trkpt><trkpt lat="37.0119996" lon="-3.6607332"><ele>883.8</ele><time>2026-03-07T15:51:30.01Z</time></trkpt><trkpt lat="37.0120105" lon="-3.6608641"><ele>884.5999999999999</ele><time>2026-03-07T15:51:31.01Z</time></trkpt><trkpt lat="37.0120368" lon="-3.6609899"><ele>885.4000000000001</ele><time>2026-03-07T15:51:32.028Z</time></trkpt><trkpt lat="37.0120832" lon="-3.6611131"><ele>886.2</ele><time>2026-03-07T15:51:33.012Z</time></trkpt><trkpt lat="37.0121329" lon="-3.6612468"><ele>887.0</ele><time>2026-03-07T15:51:34.023Z</time></trkpt><trkpt lat="37.0121832" lon="-3.6613905"><ele>888.2</ele><time>2026-03-07T15:51:35.013Z</time></trkpt><trkpt lat="37.0122299" lon="-3.6615284"><ele>889.4000000000001</ele><time>2026-03-07T15:51:36.003Z</time></trkpt><trkpt lat="37.0122685" lon="-3.6616521"><ele>890.5999999999999</ele><time>2026-03-07T15:51:37.015Z</time></trkpt><trkpt lat="37.0123092" lon="-3.661759"><ele>891.8</ele><time>2026-03-07T15:51:38.004Z</time></trkpt><trkpt lat="37.0123677" lon="-3.6618619"><ele>893.0</ele><time>2026-03-07T15:51:39.012Z</time></trkpt><trkpt lat="37.0124348" lon="-3.6619476"><ele>893.1666666666667</ele><time>2026-03-07T15:51:40.011Z</time></trkpt><trkpt lat="37.0124878" lon="-3.6620258"><ele>893.3333333333334</ele><time>2026-03-07T15:51:41.008Z</time></trkpt><trkpt lat="37.0125267" lon="-3.6620959"><ele>893.5</ele><time>2026-03-07T15:51:42.006Z</time></trkpt><trkpt lat="37.0125457" lon="-3.6621868"><ele>893.6666666666667</ele><time>2026-03-07T15:51:43.004Z</time></trkpt><trkpt lat="37.012575" lon="-3.662294"><ele>893.8333333333334</ele><time>2026-03-07T15:51:44.019Z</time></trkpt><trkpt lat="37.0126015" lon="-3.6624042"><ele>894.0</ele><time>2026-03-07T15:51:45.04Z</time></trkpt><trkpt lat="37.0126142" lon="-3.6625049"><ele>894.0</ele><time>2026-03-07T15:51:46.036Z</time></trkpt><trkpt lat="37.0126091" lon="-3.6625985"><ele>894.0</ele><time>2026-03-07T15:51:47.017Z</time></trkpt><trkpt lat="37.0125921" lon="-3.6626898"><ele>894.0</ele><time>2026-03-07T15:51:48.015Z</time></trkpt><trkpt lat="37.0125606" lon="-3.6627811"><ele>894.0</ele><time>2026-03-07T15:51:49.03Z</time></trkpt><trkpt lat="37.0125324" lon="-3.6628767"><ele>894.0</ele><time>2026-03-07T15:51:50.005Z</time></trkpt><trkpt lat="37.0125067" lon="-3.662982"><ele>894.0</ele><time>2026-03-07T15:51:51.005Z</time></trkpt><trkpt lat="37.0124898" lon="-3.6630957"><ele>895.8000000000001</ele><time>2026-03-07T15:51:52.003Z</time></trkpt><trkpt lat="37.012467" lon="-3.6632123"><ele>897.6000000000001</ele><time>2026-03-07T15:51:53.012Z</time></trkpt><trkpt lat="37.0124463" lon="-3.6633314"><ele>899.4</ele><time>2026-03-07T15:51:54.011Z</time></trkpt><trkpt lat="37.0124293" lon="-3.6634504"><ele>901.2</ele><time>2026-03-07T15:51:55.015Z</time></trkpt><trkpt lat="37.0124195" lon="-3.6635623"><ele>903.0</ele><time>2026-03-07T15:51:56.017Z</time></trkpt><trkpt lat="37.0124256" lon="-3.6636661"><ele>903.5</ele><time>2026-03-07T15:51:57.005Z</time></trkpt><trkpt lat="37.0124354" lon="-3.663755"><ele>904.0</ele><time>2026-03-07T15:51:58.021Z</time></trkpt><trkpt lat="37.0124792" lon="-3.663861"><ele>904.5</ele><time>2026-03-07T15:52:00.04Z</time></trkpt><trkpt lat="37.0125902" lon="-3.6638638"><ele>905.0</ele><time>2026-03-07T15:52:02.004Z</time></trkpt><trkpt lat="37.012655" lon="-3.6638688"><ele>905.5</ele><time>2026-03-07T15:52:03.021Z</time></trkpt><trkpt lat="37.012719" lon="-3.663878"><ele>906.0</ele><time>2026-03-07T15:52:04.013Z</time></trkpt><trkpt lat="37.0128167" lon="-3.6639394"><ele>906.5</ele><time>2026-03-07T15:52:06.024Z</time></trkpt><trkpt lat="37.0129158" lon="-3.6640059"><ele>907.0</ele><time>2026-03-07T15:52:08.012Z</time></trkpt><trkpt lat="37.012981" lon="-3.6640258"><ele>907.5</ele><time>2026-03-07T15:52:08.999Z</time></trkpt><trkpt lat="37.0130516" lon="-3.6640473"><ele>908.0</ele><time>2026-03-07T15:52:10.013Z</time></trkpt><trkpt lat="37.0131197" lon="-3.6640676"><ele>908.5</ele><time>2026-03-07T15:52:11.008Z</time></trkpt><trkpt lat="37.0131864" lon="-3.6640877"><ele>909.0</ele><time>2026-03-07T15:52:12.015Z</time></trkpt><trkpt lat="37.0132524" lon="-3.6641091"><ele>909.5</ele><time>2026-03-07T15:52:13Z</time></trkpt><trkpt lat="37.0133302" lon="-3.6641352"><ele>910.0</ele><time>2026-03-07T15:52:14.014Z</time></trkpt><trkpt lat="37.0134079" lon="-3.6641626"><ele>910.5</ele><time>2026-03-07T15:52:15.021Z</time></trkpt><trkpt lat="37.0134787" lon="-3.6641908"><ele>911.0</ele><time>2026-03-07T15:52:16.007Z</time></trkpt><trkpt lat="37.0135512" lon="-3.6642147"><ele>911.5</ele><time>2026-03-07T15:52:17.001Z</time></trkpt><trkpt lat="37.0136303" lon="-3.6642402"><ele>912.0</ele><time>2026-03-07T15:52:18.01Z</time></trkpt><trkpt lat="37.0137157" lon="-3.6642644"><ele>912.0</ele><time>2026-03-07T15:52:19.01Z</time></trkpt><trkpt lat="37.0137974" lon="-3.6642828"><ele>912.0</ele><time>2026-03-07T15:52:20.019Z</time></trkpt><trkpt lat="37.013869" lon="-3.6643173"><ele>912.0</ele><time>2026-03-07T15:52:21.009Z</time></trkpt><trkpt lat="37.0139391" lon="-3.6643602"><ele>912.0</ele><time>2026-03-07T15:52:22.008Z</time></trkpt><trkpt lat="37.0140042" lon="-3.6644156"><ele>912.0</ele><time>2026-03-07T15:52:23.01Z</time></trkpt><trkpt lat="37.0140711" lon="-3.6644761"><ele>912.0</ele><time>2026-03-07T15:52:24.007Z</time></trkpt><trkpt lat="37.0141344" lon="-3.664537"><ele>914.3333333333334</ele><time>2026-03-07T15:52:25.009Z</time></trkpt><trkpt lat="37.0142014" lon="-3.6645896"><ele>916.6666666666667</ele><time>2026-03-07T15:52:26.01Z</time></trkpt><trkpt lat="37.0142788" lon="-3.6646321"><ele>919.0</ele><time>2026-03-07T15:52:27.013Z</time></trkpt><trkpt lat="37.0143572" lon="-3.6646817"><ele>921.3333333333334</ele><time>2026-03-07T15:52:28.002Z</time></trkpt><trkpt lat="37.0144325" lon="-3.6647475"><ele>923.6666666666667</ele><time>2026-03-07T15:52:29Z</time></trkpt><trkpt lat="37.0144911" lon="-3.6648323"><ele>926.0</ele><time>2026-03-07T15:52:30.001Z</time></trkpt><trkpt lat="37.0145452" lon="-3.6649189"><ele>926.0000000000001</ele><time>2026-03-07T15:52:31.026Z</time></trkpt><trkpt lat="37.0145945" lon="-3.6649991"><ele>926.0</ele><time>2026-03-07T15:52:32.008Z</time></trkpt><trkpt lat="37.0146285" lon="-3.6650786"><ele>926.0</ele><time>2026-03-07T15:52:33.018Z</time></trkpt><trkpt lat="37.0146497" lon="-3.6651597"><ele>926.0</ele><time>2026-03-07T15:52:34.011Z</time></trkpt><trkpt lat="37.014668" lon="-3.6653"><ele>926.0000000000001</ele><time>2026-03-07T15:52:35.993Z</time></trkpt><trkpt lat="37.0146844" lon="-3.6653811"><ele>926.0</ele><time>2026-03-07T15:52:38.043Z</time></trkpt><trkpt lat="37.0147537" lon="-3.6653722"><ele>926.5000000000001</ele><time>2026-03-07T15:52:40.033Z</time></trkpt><trkpt lat="37.0148223" lon="-3.6653467"><ele>927.0</ele><time>2026-03-07T15:52:41.015Z</time></trkpt><trkpt lat="37.0148959" lon="-3.6653211"><ele>927.5</ele><time>2026-03-07T15:52:42.01Z</time></trkpt><trkpt lat="37.0149694" lon="-3.6652995"><ele>928.0</ele><time>2026-03-07T15:52:43.002Z</time></trkpt><trkpt lat="37.0150374" lon="-3.665283"><ele>928.5000000000001</ele><time>2026-03-07T15:52:44.004Z</time></trkpt><trkpt lat="37.0151003" lon="-3.6652756"><ele>929.0</ele><time>2026-03-07T15:52:45.019Z</time></trkpt><trkpt lat="37.0152252" lon="-3.6653038"><ele>930.3333333333334</ele><time>2026-03-07T15:52:47.011Z</time></trkpt><trkpt lat="37.0152849" lon="-3.665356"><ele>931.6666666666667</ele><time>2026-03-07T15:52:48.002Z</time></trkpt><trkpt lat="37.0153368" lon="-3.6654226"><ele>933.0</ele><time>2026-03-07T15:52:49.006Z</time></trkpt><trkpt lat="37.0153896" lon="-3.6654879"><ele>934.3333333333333</ele><time>2026-03-07T15:52:50.009Z</time></trkpt><trkpt lat="37.015436" lon="-3.6655456"><ele>935.6666666666666</ele><time>2026-03-07T15:52:51.02Z</time></trkpt><trkpt lat="37.0154651" lon="-3.6656669"><ele>937.0</ele><time>2026-03-07T15:52:53.018Z</time></trkpt><trkpt lat="37.0154687" lon="-3.6657468"><ele>936.9999999999999</ele><time>2026-03-07T15:52:54.005Z</time></trkpt><trkpt lat="37.0154727" lon="-3.6658388"><ele>937.0</ele><time>2026-03-07T15:52:55.016Z</time></trkpt><trkpt lat="37.0154772" lon="-3.6659314"><ele>937.0</ele><time>2026-03-07T15:52:56.004Z</time></trkpt><trkpt lat="37.0154813" lon="-3.6660141"><ele>937.0</ele><time>2026-03-07T15:52:57.025Z</time></trkpt><trkpt lat="37.0155341" lon="-3.6661397"><ele>936.9999999999999</ele><time>2026-03-07T15:52:59.008Z</time></trkpt><trkpt lat="37.0156333" lon="-3.6662286"><ele>937.0</ele><time>2026-03-07T15:53:01.008Z</time></trkpt><trkpt lat="37.0157371" lon="-3.6663036"><ele>938.3333333333333</ele><time>2026-03-07T15:53:03.017Z</time></trkpt><trkpt lat="37.0158382" lon="-3.6663779"><ele>939.6666666666666</ele><time>2026-03-07T15:53:05.012Z</time></trkpt><trkpt lat="37.015893" lon="-3.6664201"><ele>941.0</ele><time>2026-03-07T15:53:06.011Z</time></trkpt><trkpt lat="37.01595" lon="-3.6664653"><ele>942.3333333333333</ele><time>2026-03-07T15:53:07.012Z</time></trkpt><trkpt lat="37.0160134" lon="-3.6665093"><ele>943.6666666666666</ele><time>2026-03-07T15:53:08.005Z</time></trkpt><trkpt lat="37.0160816" lon="-3.6665403"><ele>945.0</ele><time>2026-03-07T15:53:09.018Z</time></trkpt><trkpt lat="37.016146" lon="-3.6665735"><ele>945.0</ele><time>2026-03-07T15:53:10.01Z</time></trkpt><trkpt lat="37.0162031" lon="-3.6666173"><ele>945.0</ele><time>2026-03-07T15:53:11.012Z</time></trkpt><trkpt lat="37.0162611" lon="-3.6666702"><ele>945.0</ele><time>2026-03-07T15:53:12.014Z</time></trkpt><trkpt lat="37.0163151" lon="-3.6667205"><ele>945.0</ele><time>2026-03-07T15:53:13.003Z</time></trkpt><trkpt lat="37.016376" lon="-3.6667457"><ele>945.0</ele><time>2026-03-07T15:53:14.019Z</time></trkpt><trkpt lat="37.0164398" lon="-3.6667695"><ele>945.0</ele><time>2026-03-07T15:53:15.01Z</time></trkpt><trkpt lat="37.0165095" lon="-3.6668004"><ele>945.0</ele><time>2026-03-07T15:53:16.019Z</time></trkpt><trkpt lat="37.0165813" lon="-3.6668484"><ele>945.0</ele><time>2026-03-07T15:53:17.014Z</time></trkpt><trkpt lat="37.0166516" lon="-3.6669007"><ele>945.0</ele><time>2026-03-07T15:53:18.004Z</time></trkpt><trkpt lat="37.016718" lon="-3.6669525"><ele>945.0</ele><time>2026-03-07T15:53:19.01Z</time></trkpt><trkpt lat="37.0167823" lon="-3.6670075"><ele>945.0</ele><time>2026-03-07T15:53:20.012Z</time></trkpt><trkpt lat="37.016817" lon="-3.6670762"><ele>945.0</ele><time>2026-03-07T15:53:21.008Z</time></trkpt><trkpt lat="37.0168474" lon="-3.6671846"><ele>945.0</ele><time>2026-03-07T15:53:23.007Z</time></trkpt><trkpt lat="37.0168681" lon="-3.6672723"><ele>947.2</ele><time>2026-03-07T15:53:25.023Z</time></trkpt><trkpt lat="37.0169207" lon="-3.667384"><ele>949.4</ele><time>2026-03-07T15:53:27.018Z</time></trkpt><trkpt lat="37.0169823" lon="-3.667488"><ele>951.5999999999999</ele><time>2026-03-07T15:53:29.008Z</time></trkpt><trkpt lat="37.0170777" lon="-3.667542"><ele>953.8</ele><time>2026-03-07T15:53:31.002Z</time></trkpt><trkpt lat="37.0171387" lon="-3.6675684"><ele>956.0</ele><time>2026-03-07T15:53:32.007Z</time></trkpt><trkpt lat="37.0172079" lon="-3.6676186"><ele>956.0000000000001</ele><time>2026-03-07T15:53:33.01Z</time></trkpt><trkpt lat="37.0172782" lon="-3.6676785"><ele>956.0</ele><time>2026-03-07T15:53:34.008Z</time></trkpt><trkpt lat="37.0173405" lon="-3.6677355"><ele>956.0</ele><time>2026-03-07T15:53:35.01Z</time></trkpt><trkpt lat="37.0173922" lon="-3.667791"><ele>956.0</ele><time>2026-03-07T15:53:36.007Z</time></trkpt><trkpt lat="37.017451" lon="-3.667886"><ele>956.0000000000001</ele><time>2026-03-07T15:53:38.01Z</time></trkpt><trkpt lat="37.0175035" lon="-3.6679876"><ele>956.0</ele><time>2026-03-07T15:53:40.036Z</time></trkpt><trkpt lat="37.0175364" lon="-3.6680948"><ele>957.8</ele><time>2026-03-07T15:53:42.012Z</time></trkpt><trkpt lat="37.0175702" lon="-3.6682059"><ele>959.5999999999999</ele><time>2026-03-07T15:53:44.016Z</time></trkpt><trkpt lat="37.0175966" lon="-3.6683265"><ele>961.4</ele><time>2026-03-07T15:53:46.002Z</time></trkpt><trkpt lat="37.0176208" lon="-3.6684389"><ele>963.2</ele><time>2026-03-07T15:53:48.022Z</time></trkpt><trkpt lat="37.0176516" lon="-3.6685496"><ele>965.0</ele><time>2026-03-07T15:53:50.006Z</time></trkpt><trkpt lat="37.0176579" lon="-3.6686612"><ele>966.6</ele><time>2026-03-07T15:53:52.009Z</time></trkpt><trkpt lat="37.0176549" lon="-3.668794"><ele>968.2</ele><time>2026-03-07T15:53:54.01Z</time></trkpt><trkpt lat="37.0176704" lon="-3.6689264"><ele>969.8</ele><time>2026-03-07T15:53:56.006Z</time></trkpt><trkpt lat="37.0176647" lon="-3.6690382"><ele>971.4</ele><time>2026-03-07T15:53:58.046Z</time></trkpt><trkpt lat="37.01763" lon="-3.6691729"><ele>973.0</ele><time>2026-03-07T15:54:00.011Z</time></trkpt><trkpt lat="37.0176307" lon="-3.6693178"><ele>972.9999999999999</ele><time>2026-03-07T15:54:02.017Z</time></trkpt><trkpt lat="37.0176394" lon="-3.6694033"><ele>973.0</ele><time>2026-03-07T15:54:03.012Z</time></trkpt><trkpt lat="37.017646" lon="-3.6694833"><ele>973.0</ele><time>2026-03-07T15:54:04.014Z</time></trkpt><trkpt lat="37.0176559" lon="-3.6696348"><ele>973.0</ele><time>2026-03-07T15:54:06Z</time></trkpt><trkpt lat="37.0176581" lon="-3.6697173"><ele>972.9999999999999</ele><time>2026-03-07T15:54:07.006Z</time></trkpt><trkpt lat="37.0176609" lon="-3.6697972"><ele>973.0</ele><time>2026-03-07T15:54:08.01Z</time></trkpt><trkpt lat="37.0176564" lon="-3.6699453"><ele>973.8571428571429</ele><time>2026-03-07T15:54:10.017Z</time></trkpt><trkpt lat="37.0176472" lon="-3.6700291"><ele>974.7142857142858</ele><time>2026-03-07T15:54:11.01Z</time></trkpt><trkpt lat="37.017632" lon="-3.6701133"><ele>975.5714285714286</ele><time>2026-03-07T15:54:12.004Z</time></trkpt><trkpt lat="37.0176136" lon="-3.6701961"><ele>976.4285714285714</ele><time>2026-03-07T15:54:13.011Z</time></trkpt><trkpt lat="37.0175898" lon="-3.6702796"><ele>977.2857142857143</ele><time>2026-03-07T15:54:14.01Z</time></trkpt><trkpt lat="37.0175626" lon="-3.6703599"><ele>978.1428571428571</ele><time>2026-03-07T15:54:15.012Z</time></trkpt><trkpt lat="37.0175429" lon="-3.6704418"><ele>979.0</ele><time>2026-03-07T15:54:16.008Z</time></trkpt><trkpt lat="37.0175336" lon="-3.6705328"><ele>979.6666666666666</ele><time>2026-03-07T15:54:17.012Z</time></trkpt><trkpt lat="37.0175188" lon="-3.6706283"><ele>980.3333333333333</ele><time>2026-03-07T15:54:18.013Z</time></trkpt><trkpt lat="37.0175052" lon="-3.6707261"><ele>981.0</ele><time>2026-03-07T15:54:19.013Z</time></trkpt><trkpt lat="37.0174908" lon="-3.6708205"><ele>981.6666666666667</ele><time>2026-03-07T15:54:20.007Z</time></trkpt><trkpt lat="37.0174746" lon="-3.6709113"><ele>982.3333333333334</ele><time>2026-03-07T15:54:21.013Z</time></trkpt><trkpt lat="37.0174555" lon="-3.6710014"><ele>983.0</ele><time>2026-03-07T15:54:22.01Z</time></trkpt><trkpt lat="37.0174302" lon="-3.6710883"><ele>983.8333333333334</ele><time>2026-03-07T15:54:23.012Z</time></trkpt><trkpt lat="37.0174064" lon="-3.6711751"><ele>984.6666666666667</ele><time>2026-03-07T15:54:24.006Z</time></trkpt><trkpt lat="37.0173844" lon="-3.6712601"><ele>985.5</ele><time>2026-03-07T15:54:25.02Z</time></trkpt><trkpt lat="37.0173732" lon="-3.6713377"><ele>986.3333333333333</ele><time>2026-03-07T15:54:26.006Z</time></trkpt><trkpt lat="37.0173961" lon="-3.6714981"><ele>987.1666666666666</ele><time>2026-03-07T15:54:28.009Z</time></trkpt><trkpt lat="37.0174363" lon="-3.6715882"><ele>988.0</ele><time>2026-03-07T15:54:29.013Z</time></trkpt><trkpt lat="37.0174826" lon="-3.6716755"><ele>988.1666666666666</ele><time>2026-03-07T15:54:30.006Z</time></trkpt><trkpt lat="37.0175369" lon="-3.6717613"><ele>988.3333333333333</ele><time>2026-03-07T15:54:31.016Z</time></trkpt><trkpt lat="37.0176007" lon="-3.6718439"><ele>988.5</ele><time>2026-03-07T15:54:31.993Z</time></trkpt><trkpt lat="37.017668" lon="-3.6719244"><ele>988.6666666666667</ele><time>2026-03-07T15:54:33.004Z</time></trkpt><trkpt lat="37.0177247" lon="-3.6720048"><ele>988.8333333333334</ele><time>2026-03-07T15:54:34.014Z</time></trkpt><trkpt lat="37.0177637" lon="-3.6720875"><ele>989.0</ele><time>2026-03-07T15:54:35.01Z</time></trkpt><trkpt lat="37.017777" lon="-3.6721818"><ele>989.6666666666667</ele><time>2026-03-07T15:54:36.009Z</time></trkpt><trkpt lat="37.0177865" lon="-3.6722723"><ele>990.3333333333334</ele><time>2026-03-07T15:54:37.006Z</time></trkpt><trkpt lat="37.0177794" lon="-3.6723616"><ele>991.0</ele><time>2026-03-07T15:54:38.016Z</time></trkpt><trkpt lat="37.0177586" lon="-3.672452"><ele>991.6666666666667</ele><time>2026-03-07T15:54:39.011Z</time></trkpt><trkpt lat="37.0177289" lon="-3.6725428"><ele>992.3333333333334</ele><time>2026-03-07T15:54:40.013Z</time></trkpt><trkpt lat="37.017706" lon="-3.6726376"><ele>993.0</ele><time>2026-03-07T15:54:41.014Z</time></trkpt><trkpt lat="37.0176925" lon="-3.6727431"><ele>993.5</ele><time>2026-03-07T15:54:42.008Z</time></trkpt><trkpt lat="37.0177064" lon="-3.6728519"><ele>994.0</ele><time>2026-03-07T15:54:43.013Z</time></trkpt><trkpt lat="37.0177193" lon="-3.6729567"><ele>994.5</ele><time>2026-03-07T15:54:44.009Z</time></trkpt><trkpt lat="37.0177281" lon="-3.673056"><ele>995.0</ele><time>2026-03-07T15:54:45.004Z</time></trkpt><trkpt lat="37.0177462" lon="-3.6731498"><ele>995.5</ele><time>2026-03-07T15:54:46.014Z</time></trkpt><trkpt lat="37.0177731" lon="-3.6732436"><ele>996.0</ele><time>2026-03-07T15:54:47.02Z</time></trkpt><trkpt lat="37.017799" lon="-3.6733492"><ele>996.0</ele><time>2026-03-07T15:54:47.998Z</time></trkpt><trkpt lat="37.0178284" lon="-3.6734627"><ele>995.9999999999999</ele><time>2026-03-07T15:54:49.014Z</time></trkpt><trkpt lat="37.0178548" lon="-3.6735806"><ele>995.9999999999999</ele><time>2026-03-07T15:54:50.017Z</time></trkpt><trkpt lat="37.0178783" lon="-3.6736963"><ele>996.0</ele><time>2026-03-07T15:54:51.009Z</time></trkpt><trkpt lat="37.0179063" lon="-3.6738069"><ele>996.0</ele><time>2026-03-07T15:54:52.005Z</time></trkpt><trkpt lat="37.017928" lon="-3.6739194"><ele>997.0</ele><time>2026-03-07T15:54:53.016Z</time></trkpt><trkpt lat="37.0179408" lon="-3.6740358"><ele>998.0</ele><time>2026-03-07T15:54:54.008Z</time></trkpt><trkpt lat="37.0179639" lon="-3.6741477"><ele>999.0</ele><time>2026-03-07T15:54:55.009Z</time></trkpt><trkpt lat="37.0179899" lon="-3.6742539"><ele>1000.0</ele><time>2026-03-07T15:54:56.014Z</time></trkpt><trkpt lat="37.0180259" lon="-3.6743532"><ele>1001.0</ele><time>2026-03-07T15:54:57.027Z</time></trkpt><trkpt lat="37.0180617" lon="-3.674451"><ele>1002.0</ele><time>2026-03-07T15:54:58.02Z</time></trkpt><trkpt lat="37.0180903" lon="-3.6745477"><ele>1002.1666666666666</ele><time>2026-03-07T15:54:59.017Z</time></trkpt><trkpt lat="37.0181158" lon="-3.674633"><ele>1002.3333333333333</ele><time>2026-03-07T15:55:00.034Z</time></trkpt><trkpt lat="37.0181245" lon="-3.674714"><ele>1002.5</ele><time>2026-03-07T15:55:01.012Z</time></trkpt><trkpt lat="37.0181208" lon="-3.6748646"><ele>1002.6666666666666</ele><time>2026-03-07T15:55:03.02Z</time></trkpt><trkpt lat="37.018109" lon="-3.6749752"><ele>1002.8333333333333</ele><time>2026-03-07T15:55:05.012Z</time></trkpt><trkpt lat="37.0181725" lon="-3.6750421"><ele>1003.0</ele><time>2026-03-07T15:55:07.014Z</time></trkpt><trkpt lat="37.0182741" lon="-3.6750565"><ele>1002.9999999999999</ele><time>2026-03-07T15:55:09.01Z</time></trkpt><trkpt lat="37.018367" lon="-3.6751006"><ele>1003.0</ele><time>2026-03-07T15:55:11.02Z</time></trkpt><trkpt lat="37.0184615" lon="-3.6752082"><ele>1003.0</ele><time>2026-03-07T15:55:13.013Z</time></trkpt><trkpt lat="37.0185081" lon="-3.6752707"><ele>1003.0</ele><time>2026-03-07T15:55:14.009Z</time></trkpt><trkpt lat="37.018553" lon="-3.6753482"><ele>1002.9999999999999</ele><time>2026-03-07T15:55:15.011Z</time></trkpt><trkpt lat="37.0185937" lon="-3.6754211"><ele>1003.0</ele><time>2026-03-07T15:55:16.007Z</time></trkpt><trkpt lat="37.018632" lon="-3.6754843"><ele>1002.9999999999999</ele><time>2026-03-07T15:55:17.004Z</time></trkpt><trkpt lat="37.018725" lon="-3.6755757"><ele>1003.0</ele><time>2026-03-07T15:55:19.005Z</time></trkpt><trkpt lat="37.0187774" lon="-3.6756218"><ele>1003.0</ele><time>2026-03-07T15:55:20.006Z</time></trkpt><trkpt lat="37.0188318" lon="-3.6756639"><ele>1003.0</ele><time>2026-03-07T15:55:21.005Z</time></trkpt><trkpt lat="37.0188885" lon="-3.6757064"><ele>1002.9999999999999</ele><time>2026-03-07T15:55:22.001Z</time></trkpt><trkpt lat="37.0189462" lon="-3.6757435"><ele>1003.0</ele><time>2026-03-07T15:55:23.015Z</time></trkpt><trkpt lat="37.0190241" lon="-3.6758082"><ele>1003.0</ele><time>2026-03-07T15:55:25.005Z</time></trkpt><trkpt lat="37.0190484" lon="-3.6759288"><ele>1003.0</ele><time>2026-03-07T15:55:27.021Z</time></trkpt><trkpt lat="37.0190123" lon="-3.6760633"><ele>1003.0</ele><time>2026-03-07T15:55:29.006Z</time></trkpt><trkpt lat="37.0189748" lon="-3.6761571"><ele>1003.0</ele><time>2026-03-07T15:55:29.997Z</time></trkpt><trkpt lat="37.0189368" lon="-3.6762792"><ele>1003.0</ele><time>2026-03-07T15:55:31.058Z</time></trkpt><trkpt lat="37.0188826" lon="-3.6764172"><ele>1004.5</ele><time>2026-03-07T15:55:32.013Z</time></trkpt><trkpt lat="37.0188259" lon="-3.6765674"><ele>1006.0</ele><time>2026-03-07T15:55:33.001Z</time></trkpt><trkpt lat="37.0187738" lon="-3.6767149"><ele>1007.5</ele><time>2026-03-07T15:55:34.004Z</time></trkpt><trkpt lat="37.0187296" lon="-3.6768556"><ele>1009.0</ele><time>2026-03-07T15:55:35.005Z</time></trkpt><trkpt lat="37.0187026" lon="-3.6769981"><ele>1009.2</ele><time>2026-03-07T15:55:36.017Z</time></trkpt><trkpt lat="37.0186827" lon="-3.677137"><ele>1009.4000000000001</ele><time>2026-03-07T15:55:37.012Z</time></trkpt><trkpt lat="37.0186678" lon="-3.6772702"><ele>1009.6</ele><time>2026-03-07T15:55:38.001Z</time></trkpt><trkpt lat="37.0186565" lon="-3.6774042"><ele>1009.8</ele><time>2026-03-07T15:55:39.006Z</time></trkpt><trkpt lat="37.0186394" lon="-3.6775338"><ele>1010.0</ele><time>2026-03-07T15:55:40.008Z</time></trkpt><trkpt lat="37.0186309" lon="-3.6776551"><ele>1009.2</ele><time>2026-03-07T15:55:41Z</time></trkpt><trkpt lat="37.018616" lon="-3.6777721"><ele>1008.4</ele><time>2026-03-07T15:55:42.012Z</time></trkpt><trkpt lat="37.0185984" lon="-3.6778896"><ele>1007.5999999999999</ele><time>2026-03-07T15:55:43.014Z</time></trkpt><trkpt lat="37.0185763" lon="-3.6780071"><ele>1006.8</ele><time>2026-03-07T15:55:44.014Z</time></trkpt><trkpt lat="37.0185411" lon="-3.6781164"><ele>1006.0</ele><time>2026-03-07T15:55:45.006Z</time></trkpt><trkpt lat="37.0185034" lon="-3.6782232"><ele>1006.0</ele><time>2026-03-07T15:55:46.02Z</time></trkpt><trkpt lat="37.0184488" lon="-3.6783209"><ele>1005.9999999999999</ele><time>2026-03-07T15:55:47.009Z</time></trkpt><trkpt lat="37.0183849" lon="-3.6784129"><ele>1005.9999999999999</ele><time>2026-03-07T15:55:48.002Z</time></trkpt><trkpt lat="37.0182996" lon="-3.6784994"><ele>1006.0</ele><time>2026-03-07T15:55:49.004Z</time></trkpt><trkpt lat="37.0181843" lon="-3.6785486"><ele>1006.0</ele><time>2026-03-07T15:55:50.01Z</time></trkpt><trkpt lat="37.018052" lon="-3.6785867"><ele>1004.5</ele><time>2026-03-07T15:55:51.007Z</time></trkpt><trkpt lat="37.0179194" lon="-3.6786319"><ele>1003.0</ele><time>2026-03-07T15:55:52.003Z</time></trkpt><trkpt lat="37.0177904" lon="-3.6786725"><ele>1001.5</ele><time>2026-03-07T15:55:53.012Z</time></trkpt><trkpt lat="37.0176614" lon="-3.6787348"><ele>1000.0</ele><time>2026-03-07T15:55:54.007Z</time></trkpt><trkpt lat="37.0175443" lon="-3.6788232"><ele>999.75</ele><time>2026-03-07T15:55:55.007Z</time></trkpt><trkpt lat="37.0174334" lon="-3.6789209"><ele>999.5</ele><time>2026-03-07T15:55:55.997Z</time></trkpt><trkpt lat="37.0173204" lon="-3.6790191"><ele>999.25</ele><time>2026-03-07T15:55:57.016Z</time></trkpt><trkpt lat="37.0172111" lon="-3.67912"><ele>999.0</ele><time>2026-03-07T15:55:58.023Z</time></trkpt><trkpt lat="37.0171171" lon="-3.6792322"><ele>999.0</ele><time>2026-03-07T15:55:59.011Z</time></trkpt><trkpt lat="37.0170308" lon="-3.6793476"><ele>999.0</ele><time>2026-03-07T15:56:00.036Z</time></trkpt><trkpt lat="37.0169531" lon="-3.6794622"><ele>999.0</ele><time>2026-03-07T15:56:01.038Z</time></trkpt><trkpt lat="37.0168829" lon="-3.6795748"><ele>999.0</ele><time>2026-03-07T15:56:02.01Z</time></trkpt><trkpt lat="37.0168161" lon="-3.6796817"><ele>1000.4000000000001</ele><time>2026-03-07T15:56:03.005Z</time></trkpt><trkpt lat="37.0167698" lon="-3.6797944"><ele>1001.8000000000001</ele><time>2026-03-07T15:56:04.003Z</time></trkpt><trkpt lat="37.0167466" lon="-3.679912"><ele>1003.1999999999999</ele><time>2026-03-07T15:56:05.003Z</time></trkpt><trkpt lat="37.0167462" lon="-3.6800364"><ele>1004.5999999999999</ele><time>2026-03-07T15:56:06.008Z</time></trkpt><trkpt lat="37.016763" lon="-3.6801702"><ele>1006.0</ele><time>2026-03-07T15:56:07.007Z</time></trkpt><trkpt lat="37.0168083" lon="-3.6803151"><ele>1008.5</ele><time>2026-03-07T15:56:08.003Z</time></trkpt><trkpt lat="37.0168697" lon="-3.6804724"><ele>1011.0</ele><time>2026-03-07T15:56:09.005Z</time></trkpt><trkpt lat="37.0169374" lon="-3.6806287"><ele>1013.5</ele><time>2026-03-07T15:56:09.995Z</time></trkpt><trkpt lat="37.0170155" lon="-3.6807735"><ele>1016.0</ele><time>2026-03-07T15:56:10.99Z</time></trkpt><trkpt lat="37.0170987" lon="-3.6809088"><ele>1016.0</ele><time>2026-03-07T15:56:12.001Z</time></trkpt><trkpt lat="37.0171762" lon="-3.6810441"><ele>1016.0</ele><time>2026-03-07T15:56:12.999Z</time></trkpt><trkpt lat="37.0172457" lon="-3.681181"><ele>1016.0</ele><time>2026-03-07T15:56:14.008Z</time></trkpt><trkpt lat="37.0173062" lon="-3.6813213"><ele>1016.0</ele><time>2026-03-07T15:56:14.997Z</time></trkpt><trkpt lat="37.0173637" lon="-3.6814629"><ele>1017.5</ele><time>2026-03-07T15:56:16.008Z</time></trkpt><trkpt lat="37.0174189" lon="-3.6816127"><ele>1019.0</ele><time>2026-03-07T15:56:17.004Z</time></trkpt><trkpt lat="37.0174823" lon="-3.6817671"><ele>1020.5</ele><time>2026-03-07T15:56:18.004Z</time></trkpt><trkpt lat="37.0175564" lon="-3.6819205"><ele>1022.0</ele><time>2026-03-07T15:56:19.012Z</time></trkpt><trkpt lat="37.0176304" lon="-3.6820824"><ele>1024.3333333333335</ele><time>2026-03-07T15:56:20.01Z</time></trkpt><trkpt lat="37.0177074" lon="-3.6822503"><ele>1026.6666666666667</ele><time>2026-03-07T15:56:21.011Z</time></trkpt><trkpt lat="37.0177857" lon="-3.6824257"><ele>1029.0</ele><time>2026-03-07T15:56:22.022Z</time></trkpt><trkpt lat="37.017862" lon="-3.682601"><ele>1029.6666666666667</ele><time>2026-03-07T15:56:23.002Z</time></trkpt><trkpt lat="37.0179232" lon="-3.6827865"><ele>1030.3333333333335</ele><time>2026-03-07T15:56:24.002Z</time></trkpt><trkpt lat="37.017978" lon="-3.6829721"><ele>1031.0</ele><time>2026-03-07T15:56:25.003Z</time></trkpt><trkpt lat="37.0180257" lon="-3.6831615"><ele>1031.0</ele><time>2026-03-07T15:56:26.01Z</time></trkpt><trkpt lat="37.018073" lon="-3.6833462"><ele>1031.0</ele><time>2026-03-07T15:56:27.03Z</time></trkpt><trkpt lat="37.0180802" lon="-3.683525"><ele>1031.0</ele><time>2026-03-07T15:56:28.027Z</time></trkpt><trkpt lat="37.0181105" lon="-3.6837179"><ele>1031.6666666666667</ele><time>2026-03-07T15:56:29.015Z</time></trkpt><trkpt lat="37.0181317" lon="-3.6839167"><ele>1032.3333333333333</ele><time>2026-03-07T15:56:30.023Z</time></trkpt><trkpt lat="37.0181468" lon="-3.6841216"><ele>1033.0</ele><time>2026-03-07T15:56:31.012Z</time></trkpt><trkpt lat="37.0181553" lon="-3.684325"><ele>1033.25</ele><time>2026-03-07T15:56:32.002Z</time></trkpt><trkpt lat="37.0181577" lon="-3.684521"><ele>1033.5</ele><time>2026-03-07T15:56:33.017Z</time></trkpt><trkpt lat="37.018162" lon="-3.6847086"><ele>1033.75</ele><time>2026-03-07T15:56:34.003Z</time></trkpt><trkpt lat="37.0181592" lon="-3.6848823"><ele>1034.0</ele><time>2026-03-07T15:56:35.005Z</time></trkpt><trkpt lat="37.0181621" lon="-3.6850419"><ele>1034.0</ele><time>2026-03-07T15:56:35.994Z</time></trkpt><trkpt lat="37.0181716" lon="-3.6851916"><ele>1034.0</ele><time>2026-03-07T15:56:37.008Z</time></trkpt><trkpt lat="37.0181995" lon="-3.6853346"><ele>1034.0</ele><time>2026-03-07T15:56:38.01Z</time></trkpt><trkpt lat="37.0182445" lon="-3.685477"><ele>1034.0</ele><time>2026-03-07T15:56:39.023Z</time></trkpt><trkpt lat="37.0183281" lon="-3.6856186"><ele>1033.6666666666667</ele><time>2026-03-07T15:56:40.008Z</time></trkpt><trkpt lat="37.0184193" lon="-3.6857774"><ele>1033.3333333333333</ele><time>2026-03-07T15:56:41.012Z</time></trkpt><trkpt lat="37.0185343" lon="-3.6859348"><ele>1033.0</ele><time>2026-03-07T15:56:42.011Z</time></trkpt><trkpt lat="37.0186494" lon="-3.6860922"><ele>1031.3333333333333</ele><time>2026-03-07T15:56:43.021Z</time></trkpt><trkpt lat="37.0187657" lon="-3.686236"><ele>1029.6666666666667</ele><time>2026-03-07T15:56:44.007Z</time></trkpt><trkpt lat="37.0188767" lon="-3.6863697"><ele>1028.0</ele><time>2026-03-07T15:56:45.001Z</time></trkpt><trkpt lat="37.018989" lon="-3.686491"><ele>1028.0</ele><time>2026-03-07T15:56:46.007Z</time></trkpt><trkpt lat="37.0191173" lon="-3.6865842"><ele>1028.0</ele><time>2026-03-07T15:56:47.016Z</time></trkpt><trkpt lat="37.0192568" lon="-3.686664"><ele>1028.0</ele><time>2026-03-07T15:56:48.015Z</time></trkpt><trkpt lat="37.019394" lon="-3.6867288"><ele>1028.0</ele><time>2026-03-07T15:56:48.999Z</time></trkpt><trkpt lat="37.0195221" lon="-3.6867896"><ele>1027.4</ele><time>2026-03-07T15:56:50.003Z</time></trkpt><trkpt lat="37.0196271" lon="-3.6868678"><ele>1026.8</ele><time>2026-03-07T15:56:51.041Z</time></trkpt><trkpt lat="37.0196851" lon="-3.6869413"><ele>1026.2</ele><time>2026-03-07T15:56:52.036Z</time></trkpt><trkpt lat="37.019729" lon="-3.6870655"><ele>1025.6</ele><time>2026-03-07T15:56:53.004Z</time></trkpt><trkpt lat="37.0197434" lon="-3.6872144"><ele>1025.0</ele><time>2026-03-07T15:56:54.009Z</time></trkpt><trkpt lat="37.019749" lon="-3.6873848"><ele>1024.5</ele><time>2026-03-07T15:56:55.009Z</time></trkpt><trkpt lat="37.0197515" lon="-3.6875573"><ele>1024.0</ele><time>2026-03-07T15:56:56.013Z</time></trkpt><trkpt lat="37.0197496" lon="-3.6877378"><ele>1023.5</ele><time>2026-03-07T15:56:57.015Z</time></trkpt><trkpt lat="37.0197514" lon="-3.6879274"><ele>1023.0</ele><time>2026-03-07T15:56:58Z</time></trkpt><trkpt lat="37.0197617" lon="-3.6881255"><ele>1023.0</ele><time>2026-03-07T15:56:59.002Z</time></trkpt><trkpt lat="37.0197732" lon="-3.6883215"><ele>1023.0</ele><time>2026-03-07T15:57:00.009Z</time></trkpt><trkpt lat="37.0197948" lon="-3.6885198"><ele>1023.0</ele><time>2026-03-07T15:57:01.051Z</time></trkpt><trkpt lat="37.0198239" lon="-3.688708"><ele>1022.75</ele><time>2026-03-07T15:57:02.008Z</time></trkpt><trkpt lat="37.0198514" lon="-3.688887"><ele>1022.5</ele><time>2026-03-07T15:57:03.036Z</time></trkpt><trkpt lat="37.0198892" lon="-3.6890506"><ele>1022.25</ele><time>2026-03-07T15:57:04.011Z</time></trkpt><trkpt lat="37.0199318" lon="-3.6891985"><ele>1022.0</ele><time>2026-03-07T15:57:05.018Z</time></trkpt><trkpt lat="37.0199872" lon="-3.6893355"><ele>1022.25</ele><time>2026-03-07T15:57:06.012Z</time></trkpt><trkpt lat="37.0200629" lon="-3.6894501"><ele>1022.5</ele><time>2026-03-07T15:57:07.003Z</time></trkpt><trkpt lat="37.0201555" lon="-3.6895406"><ele>1022.75</ele><time>2026-03-07T15:57:08.006Z</time></trkpt><trkpt lat="37.0202536" lon="-3.68961"><ele>1023.0</ele><time>2026-03-07T15:57:09.014Z</time></trkpt><trkpt lat="37.0203387" lon="-3.6896803"><ele>1023.0</ele><time>2026-03-07T15:57:10.01Z</time></trkpt><trkpt lat="37.0204111" lon="-3.6897504"><ele>1023.0</ele><time>2026-03-07T15:57:11.028Z</time></trkpt><trkpt lat="37.0204662" lon="-3.6898183"><ele>1023.0</ele><time>2026-03-07T15:57:12.022Z</time></trkpt><trkpt lat="37.0205757" lon="-3.6898715"><ele>1023.0</ele><time>2026-03-07T15:57:14.008Z</time></trkpt><trkpt lat="37.0206588" lon="-3.6898431"><ele>1023.0</ele><time>2026-03-07T15:57:15.017Z</time></trkpt><trkpt lat="37.0207523" lon="-3.6897783"><ele>1023.25</ele><time>2026-03-07T15:57:16.012Z</time></trkpt><trkpt lat="37.0208672" lon="-3.6897158"><ele>1023.5</ele><time>2026-03-07T15:57:17.006Z</time></trkpt><trkpt lat="37.0210003" lon="-3.6896575"><ele>1023.75</ele><time>2026-03-07T15:57:18.01Z</time></trkpt><trkpt lat="37.021145" lon="-3.6896117"><ele>1024.0</ele><time>2026-03-07T15:57:19.019Z</time></trkpt><trkpt lat="37.0213008" lon="-3.6896112"><ele>1024.0</ele><time>2026-03-07T15:57:20.005Z</time></trkpt><trkpt lat="37.0214704" lon="-3.6896414"><ele>1024.0</ele><time>2026-03-07T15:57:20.999Z</time></trkpt><trkpt lat="37.0216463" lon="-3.6896989"><ele>1024.0</ele><time>2026-03-07T15:57:22.026Z</time></trkpt><trkpt lat="37.0218217" lon="-3.6897749"><ele>1024.0</ele><time>2026-03-07T15:57:23.024Z</time></trkpt><trkpt lat="37.0219957" lon="-3.6898682"><ele>1024.0</ele><time>2026-03-07T15:57:24.003Z</time></trkpt><trkpt lat="37.0221706" lon="-3.6899751"><ele>1024.0</ele><time>2026-03-07T15:57:25.02Z</time></trkpt><trkpt lat="37.0223429" lon="-3.6900994"><ele>1024.0</ele><time>2026-03-07T15:57:25.999Z</time></trkpt><trkpt lat="37.0225192" lon="-3.6902277"><ele>1024.0</ele><time>2026-03-07T15:57:27.012Z</time></trkpt><trkpt lat="37.0226953" lon="-3.6903468"><ele>1024.0</ele><time>2026-03-07T15:57:28.016Z</time></trkpt><trkpt lat="37.0228664" lon="-3.6904687"><ele>1024.0</ele><time>2026-03-07T15:57:29.009Z</time></trkpt><trkpt lat="37.0230388" lon="-3.690584"><ele>1024.0</ele><time>2026-03-07T15:57:30.01Z</time></trkpt><trkpt lat="37.0232092" lon="-3.6907018"><ele>1024.0</ele><time>2026-03-07T15:57:31.011Z</time></trkpt><trkpt lat="37.023388" lon="-3.6907997"><ele>1021.3333333333333</ele><time>2026-03-07T15:57:32.006Z</time></trkpt><trkpt lat="37.0235752" lon="-3.6908694"><ele>1018.6666666666667</ele><time>2026-03-07T15:57:33.008Z</time></trkpt><trkpt lat="37.0237726" lon="-3.6909119"><ele>1016.0</ele><time>2026-03-07T15:57:34.006Z</time></trkpt><trkpt lat="37.0239726" lon="-3.6909338"><ele>1013.6666666666667</ele><time>2026-03-07T15:57:35.005Z</time></trkpt><trkpt lat="37.024175" lon="-3.6909584"><ele>1011.3333333333333</ele><time>2026-03-07T15:57:36.016Z</time></trkpt><trkpt lat="37.0243692" lon="-3.6909894"><ele>1009.0</ele><time>2026-03-07T15:57:37.032Z</time></trkpt><trkpt lat="37.0245559" lon="-3.6910173"><ele>1009.0</ele><time>2026-03-07T15:57:38.001Z</time></trkpt><trkpt lat="37.0247358" lon="-3.6910266"><ele>1009.0</ele><time>2026-03-07T15:57:38.995Z</time></trkpt><trkpt lat="37.024917" lon="-3.6910057"><ele>1009.0</ele><time>2026-03-07T15:57:40Z</time></trkpt><trkpt lat="37.0251033" lon="-3.6909253"><ele>1006.3333333333333</ele><time>2026-03-07T15:57:40.999Z</time></trkpt><trkpt lat="37.0252777" lon="-3.6908122"><ele>1003.6666666666667</ele><time>2026-03-07T15:57:42.014Z</time></trkpt><trkpt lat="37.0254284" lon="-3.6906593"><ele>1001.0</ele><time>2026-03-07T15:57:43.001Z</time></trkpt><trkpt lat="37.0255488" lon="-3.6904653"><ele>999.3333333333334</ele><time>2026-03-07T15:57:44Z</time></trkpt><trkpt lat="37.0256418" lon="-3.6902385"><ele>997.6666666666667</ele><time>2026-03-07T15:57:44.999Z</time></trkpt><trkpt lat="37.0257163" lon="-3.6900016"><ele>996.0</ele><time>2026-03-07T15:57:46.053Z</time></trkpt><trkpt lat="37.0257794" lon="-3.6897598"><ele>997.3333333333333</ele><time>2026-03-07T15:57:47.016Z</time></trkpt><trkpt lat="37.0258437" lon="-3.6895153"><ele>998.6666666666666</ele><time>2026-03-07T15:57:48.001Z</time></trkpt><trkpt lat="37.0259128" lon="-3.689271"><ele>1000.0</ele><time>2026-03-07T15:57:49.018Z</time></trkpt><trkpt lat="37.0259825" lon="-3.689025"><ele>1000.0</ele><time>2026-03-07T15:57:50.013Z</time></trkpt><trkpt lat="37.0260502" lon="-3.6887785"><ele>1000.0</ele><time>2026-03-07T15:57:51.006Z</time></trkpt><trkpt lat="37.0261184" lon="-3.6885342"><ele>1000.0</ele><time>2026-03-07T15:57:52.009Z</time></trkpt><trkpt lat="37.0262007" lon="-3.6883025"><ele>998.0</ele><time>2026-03-07T15:57:53.014Z</time></trkpt><trkpt lat="37.0263166" lon="-3.6880859"><ele>996.0</ele><time>2026-03-07T15:57:54.015Z</time></trkpt><trkpt lat="37.026461" lon="-3.687888"><ele>994.0</ele><time>2026-03-07T15:57:55.001Z</time></trkpt><trkpt lat="37.0266243" lon="-3.6876999"><ele>993.6666666666666</ele><time>2026-03-07T15:57:56.021Z</time></trkpt><trkpt lat="37.0267923" lon="-3.6875266"><ele>993.3333333333333</ele><time>2026-03-07T15:57:57.019Z</time></trkpt><trkpt lat="37.0269717" lon="-3.6873612"><ele>993.0</ele><time>2026-03-07T15:57:58.012Z</time></trkpt><trkpt lat="37.027147" lon="-3.6871937"><ele>993.0</ele><time>2026-03-07T15:57:59.023Z</time></trkpt><trkpt lat="37.0273194" lon="-3.6870382"><ele>993.0</ele><time>2026-03-07T15:58:00.038Z</time></trkpt><trkpt lat="37.0274844" lon="-3.6868729"><ele>993.0</ele><time>2026-03-07T15:58:01.004Z</time></trkpt><trkpt lat="37.0276486" lon="-3.6867131"><ele>993.0</ele><time>2026-03-07T15:58:02.014Z</time></trkpt><trkpt lat="37.0278046" lon="-3.686542"><ele>993.0</ele><time>2026-03-07T15:58:03.013Z</time></trkpt><trkpt lat="37.027947" lon="-3.686343"><ele>993.0</ele><time>2026-03-07T15:58:04.029Z</time></trkpt><trkpt lat="37.0280559" lon="-3.6861086"><ele>993.0</ele><time>2026-03-07T15:58:05.035Z</time></trkpt><trkpt lat="37.0281326" lon="-3.6858548"><ele>993.0</ele><time>2026-03-07T15:58:06.021Z</time></trkpt><trkpt lat="37.0281998" lon="-3.6855966"><ele>993.0</ele><time>2026-03-07T15:58:07.008Z</time></trkpt><trkpt lat="37.0282758" lon="-3.6853409"><ele>991.0</ele><time>2026-03-07T15:58:08.009Z</time></trkpt><trkpt lat="37.0283591" lon="-3.685085"><ele>989.0</ele><time>2026-03-07T15:58:09.009Z</time></trkpt><trkpt lat="37.0284468" lon="-3.6848266"><ele>987.0</ele><time>2026-03-07T15:58:10.011Z</time></trkpt><trkpt lat="37.0285263" lon="-3.6845603"><ele>985.5</ele><time>2026-03-07T15:58:11.016Z</time></trkpt><trkpt lat="37.0285897" lon="-3.6842875"><ele>984.0</ele><time>2026-03-07T15:58:12.012Z</time></trkpt><trkpt lat="37.028619" lon="-3.6840034"><ele>984.0</ele><time>2026-03-07T15:58:13.007Z</time></trkpt><trkpt lat="37.0286377" lon="-3.6837166"><ele>984.0</ele><time>2026-03-07T15:58:14.009Z</time></trkpt><trkpt lat="37.0286545" lon="-3.6834287"><ele>981.5</ele><time>2026-03-07T15:58:15.026Z</time></trkpt><trkpt lat="37.0286689" lon="-3.6831359"><ele>979.0</ele><time>2026-03-07T15:58:16.012Z</time></trkpt><trkpt lat="37.0286804" lon="-3.6828399"><ele>977.5</ele><time>2026-03-07T15:58:17.029Z</time></trkpt><trkpt lat="37.0286996" lon="-3.6825411"><ele>976.0</ele><time>2026-03-07T15:58:18.022Z</time></trkpt><trkpt lat="37.0287196" lon="-3.682243"><ele>976.0</ele><time>2026-03-07T15:58:19.033Z</time></trkpt><trkpt lat="37.0287349" lon="-3.6819473"><ele>976.0</ele><time>2026-03-07T15:58:20.007Z</time></trkpt><trkpt lat="37.0287488" lon="-3.6816564"><ele>974.0</ele><time>2026-03-07T15:58:21.007Z</time></trkpt><trkpt lat="37.0287678" lon="-3.6813692"><ele>972.0</ele><time>2026-03-07T15:58:22.012Z</time></trkpt><trkpt lat="37.0287847" lon="-3.6810916"><ele>970.6666666666667</ele><time>2026-03-07T15:58:23.012Z</time></trkpt><trkpt lat="37.0288047" lon="-3.6808207"><ele>969.3333333333334</ele><time>2026-03-07T15:58:24.034Z</time></trkpt><trkpt lat="37.0288413" lon="-3.6805561"><ele>968.0</ele><time>2026-03-07T15:58:25.009Z</time></trkpt><trkpt lat="37.0288827" lon="-3.680294"><ele>966.3333333333334</ele><time>2026-03-07T15:58:26.016Z</time></trkpt><trkpt lat="37.0289326" lon="-3.6800335"><ele>964.6666666666667</ele><time>2026-03-07T15:58:27.017Z</time></trkpt><trkpt lat="37.0289907" lon="-3.6797723"><ele>963.0</ele><time>2026-03-07T15:58:28.03Z</time></trkpt><trkpt lat="37.0290505" lon="-3.679511"><ele>962.6666666666667</ele><time>2026-03-07T15:58:29.003Z</time></trkpt><trkpt lat="37.0291049" lon="-3.6792541"><ele>962.3333333333334</ele><time>2026-03-07T15:58:30.035Z</time></trkpt><trkpt lat="37.02915" lon="-3.6790054"><ele>962.0</ele><time>2026-03-07T15:58:31.015Z</time></trkpt><trkpt lat="37.0291997" lon="-3.678771"><ele>961.0</ele><time>2026-03-07T15:58:32.004Z</time></trkpt><trkpt lat="37.0292437" lon="-3.6785706"><ele>960.0</ele><time>2026-03-07T15:58:33.02Z</time></trkpt><trkpt lat="37.0292791" lon="-3.6783965"><ele>959.0</ele><time>2026-03-07T15:58:34.014Z</time></trkpt><trkpt lat="37.0293154" lon="-3.6782322"><ele>958.0</ele><time>2026-03-07T15:58:35.011Z</time></trkpt><trkpt lat="37.0293489" lon="-3.6780861"><ele>958.0</ele><time>2026-03-07T15:58:36.01Z</time></trkpt><trkpt lat="37.0293792" lon="-3.6779533"><ele>958.0</ele><time>2026-03-07T15:58:37.017Z</time></trkpt><trkpt lat="37.0294021" lon="-3.6778536"><ele>958.0</ele><time>2026-03-07T15:58:38.013Z</time></trkpt><trkpt lat="37.0293471" lon="-3.6777112"><ele>958.0</ele><time>2026-03-07T15:58:55.025Z</time></trkpt><trkpt lat="37.0293532" lon="-3.6776273"><ele>958.0</ele><time>2026-03-07T15:59:20.033Z</time></trkpt><trkpt lat="37.0293707" lon="-3.6775338"><ele>957.3333333333333</ele><time>2026-03-07T15:59:43.145Z</time></trkpt><trkpt lat="37.029395" lon="-3.6774509"><ele>956.6666666666666</ele><time>2026-03-07T15:59:44.996Z</time></trkpt><trkpt lat="37.029412" lon="-3.6773746"><ele>956.0</ele><time>2026-03-07T15:59:45.994Z</time></trkpt><trkpt lat="37.0294398" lon="-3.6772235"><ele>955.3333333333333</ele><time>2026-03-07T15:59:47.993Z</time></trkpt><trkpt lat="37.0294571" lon="-3.6771274"><ele>954.6666666666666</ele><time>2026-03-07T15:59:48.988Z</time></trkpt><trkpt lat="37.0294793" lon="-3.6770001"><ele>954.0</ele><time>2026-03-07T15:59:50.006Z</time></trkpt><trkpt lat="37.0295016" lon="-3.6768482"><ele>953.5</ele><time>2026-03-07T15:59:51.006Z</time></trkpt><trkpt lat="37.0295232" lon="-3.6766933"><ele>953.0</ele><time>2026-03-07T15:59:52.005Z</time></trkpt><trkpt lat="37.0295446" lon="-3.6765326"><ele>952.5</ele><time>2026-03-07T15:59:53.026Z</time></trkpt><trkpt lat="37.0295672" lon="-3.6763668"><ele>952.0</ele><time>2026-03-07T15:59:54.006Z</time></trkpt><trkpt lat="37.0295961" lon="-3.6761992"><ele>951.25</ele><time>2026-03-07T15:59:55.016Z</time></trkpt><trkpt lat="37.0296342" lon="-3.6760488"><ele>950.5</ele><time>2026-03-07T15:59:56.021Z</time></trkpt><trkpt lat="37.0296749" lon="-3.6759092"><ele>949.75</ele><time>2026-03-07T15:59:57.014Z</time></trkpt><trkpt lat="37.0297195" lon="-3.6757733"><ele>949.0</ele><time>2026-03-07T15:59:58.012Z</time></trkpt><trkpt lat="37.0297664" lon="-3.6756361"><ele>949.0</ele><time>2026-03-07T15:59:59.004Z</time></trkpt><trkpt lat="37.0298121" lon="-3.6754925"><ele>949.0</ele><time>2026-03-07T16:00:00.031Z</time></trkpt><trkpt lat="37.0298524" lon="-3.6753368"><ele>949.0</ele><time>2026-03-07T16:00:01.009Z</time></trkpt><trkpt lat="37.0298843" lon="-3.6751761"><ele>949.0</ele><time>2026-03-07T16:00:02.004Z</time></trkpt><trkpt lat="37.0299149" lon="-3.6750233"><ele>948.4000000000001</ele><time>2026-03-07T16:00:03.026Z</time></trkpt><trkpt lat="37.0299468" lon="-3.6748852"><ele>947.8000000000001</ele><time>2026-03-07T16:00:04.005Z</time></trkpt><trkpt lat="37.0299801" lon="-3.6747578"><ele>947.1999999999999</ele><time>2026-03-07T16:00:05.029Z</time></trkpt><trkpt lat="37.0300186" lon="-3.674633"><ele>946.5999999999999</ele><time>2026-03-07T16:00:06.016Z</time></trkpt><trkpt lat="37.030053" lon="-3.6745053"><ele>946.0</ele><time>2026-03-07T16:00:07.013Z</time></trkpt><trkpt lat="37.0300793" lon="-3.6743688"><ele>946.0</ele><time>2026-03-07T16:00:08.009Z</time></trkpt><trkpt lat="37.0300999" lon="-3.674222"><ele>945.9999999999999</ele><time>2026-03-07T16:00:09.022Z</time></trkpt><trkpt lat="37.030108" lon="-3.674084"><ele>945.9999999999999</ele><time>2026-03-07T16:00:10.013Z</time></trkpt><trkpt lat="37.0300848" lon="-3.6739574"><ele>946.0</ele><time>2026-03-07T16:00:11.014Z</time></trkpt><trkpt lat="37.030058" lon="-3.6738341"><ele>946.0</ele><time>2026-03-07T16:00:12.016Z</time></trkpt><trkpt lat="37.030037" lon="-3.6737115"><ele>945.9999999999999</ele><time>2026-03-07T16:00:13.013Z</time></trkpt><trkpt lat="37.0300789" lon="-3.6736075"><ele>946.0</ele><time>2026-03-07T16:00:14.008Z</time></trkpt><trkpt lat="37.0300903" lon="-3.6734931"><ele>946.0</ele><time>2026-03-07T16:00:15.012Z</time></trkpt><trkpt lat="37.0300965" lon="-3.67339"><ele>946.0</ele><time>2026-03-07T16:00:16.004Z</time></trkpt><trkpt lat="37.030055" lon="-3.6733026"><ele>945.9999999999999</ele><time>2026-03-07T16:00:17.018Z</time></trkpt><trkpt lat="37.029999" lon="-3.6732127"><ele>946.0</ele><time>2026-03-07T16:00:18.01Z</time></trkpt><trkpt lat="37.0299419" lon="-3.6731326"><ele>945.8333333333333</ele><time>2026-03-07T16:00:19.018Z</time></trkpt><trkpt lat="37.0299275" lon="-3.6730337"><ele>945.6666666666666</ele><time>2026-03-07T16:00:20.036Z</time></trkpt><trkpt lat="37.0299085" lon="-3.6729247"><ele>945.5</ele><time>2026-03-07T16:00:21.014Z</time></trkpt><trkpt lat="37.0298909" lon="-3.6728094"><ele>945.3333333333333</ele><time>2026-03-07T16:00:22.013Z</time></trkpt><trkpt lat="37.0299295" lon="-3.6727101"><ele>945.1666666666666</ele><time>2026-03-07T16:00:23.015Z</time></trkpt><trkpt lat="37.0299421" lon="-3.6725949"><ele>945.0</ele><time>2026-03-07T16:00:24.008Z</time></trkpt><trkpt lat="37.029959" lon="-3.6724732"><ele>944.0</ele><time>2026-03-07T16:00:25.014Z</time></trkpt><trkpt lat="37.0299781" lon="-3.6723499"><ele>943.0</ele><time>2026-03-07T16:00:26.011Z</time></trkpt><trkpt lat="37.0300173" lon="-3.6722396"><ele>942.0</ele><time>2026-03-07T16:00:27.008Z</time></trkpt><trkpt lat="37.0300421" lon="-3.6721198"><ele>941.0</ele><time>2026-03-07T16:00:28.015Z</time></trkpt><trkpt lat="37.0300631" lon="-3.6719981"><ele>940.0</ele><time>2026-03-07T16:00:29.021Z</time></trkpt><trkpt lat="37.030073" lon="-3.6718802"><ele>939.0</ele><time>2026-03-07T16:00:30.017Z</time></trkpt><trkpt lat="37.0300633" lon="-3.6717566"><ele>938.0</ele><time>2026-03-07T16:00:31.014Z</time></trkpt><trkpt lat="37.0300358" lon="-3.6716464"><ele>937.0</ele><time>2026-03-07T16:00:32.008Z</time></trkpt><trkpt lat="37.0299894" lon="-3.6715228"><ele>936.0</ele><time>2026-03-07T16:00:33.017Z</time></trkpt><trkpt lat="37.0299405" lon="-3.6714211"><ele>935.0</ele><time>2026-03-07T16:00:33.999Z</time></trkpt><trkpt lat="37.0299646" lon="-3.6713114"><ele>935.0000000000001</ele><time>2026-03-07T16:00:34.993Z</time></trkpt><trkpt lat="37.0300093" lon="-3.6712329"><ele>935.0</ele><time>2026-03-07T16:00:36.007Z</time></trkpt><trkpt lat="37.0300465" lon="-3.6711379"><ele>935.0</ele><time>2026-03-07T16:00:37.014Z</time></trkpt><trkpt lat="37.030112" lon="-3.6710728"><ele>935.0</ele><time>2026-03-07T16:00:38.009Z</time></trkpt><trkpt lat="37.0301392" lon="-3.6709579"><ele>935.0000000000001</ele><time>2026-03-07T16:00:39.011Z</time></trkpt><trkpt lat="37.0302066" lon="-3.6708597"><ele>935.0</ele><time>2026-03-07T16:00:40.013Z</time></trkpt><trkpt lat="37.0302939" lon="-3.6707955"><ele>935.2</ele><time>2026-03-07T16:00:41.014Z</time></trkpt><trkpt lat="37.0303252" lon="-3.6706847"><ele>935.4</ele><time>2026-03-07T16:00:42.01Z</time></trkpt><trkpt lat="37.0303894" lon="-3.6706597"><ele>935.5999999999999</ele><time>2026-03-07T16:00:43.016Z</time></trkpt><trkpt lat="37.0304383" lon="-3.6705777"><ele>935.8</ele><time>2026-03-07T16:00:44.03Z</time></trkpt><trkpt lat="37.0304759" lon="-3.6704491"><ele>936.0</ele><time>2026-03-07T16:00:45Z</time></trkpt><trkpt lat="37.030507" lon="-3.6702919"><ele>936.0</ele><time>2026-03-07T16:00:46.01Z</time></trkpt><trkpt lat="37.0305731" lon="-3.6701588"><ele>936.0</ele><time>2026-03-07T16:00:47.01Z</time></trkpt><trkpt lat="37.0306033" lon="-3.6699854"><ele>936.0</ele><time>2026-03-07T16:00:47.999Z</time></trkpt><trkpt lat="37.0306027" lon="-3.6698031"><ele>936.0</ele><time>2026-03-07T16:00:49.031Z</time></trkpt><trkpt lat="37.0306306" lon="-3.6696615"><ele>936.0</ele><time>2026-03-07T16:00:50.027Z</time></trkpt><trkpt lat="37.0306175" lon="-3.6695"><ele>936.0</ele><time>2026-03-07T16:00:51.004Z</time></trkpt><trkpt lat="37.030671" lon="-3.6693837"><ele>936.0</ele><time>2026-03-07T16:00:52.022Z</time></trkpt><trkpt lat="37.0306577" lon="-3.669235"><ele>936.0</ele><time>2026-03-07T16:00:52.997Z</time></trkpt><trkpt lat="37.0306474" lon="-3.6690846"><ele>935.25</ele><time>2026-03-07T16:00:54.007Z</time></trkpt><trkpt lat="37.0306472" lon="-3.6689371"><ele>934.5</ele><time>2026-03-07T16:00:55.028Z</time></trkpt><trkpt lat="37.0306601" lon="-3.6687644"><ele>933.75</ele><time>2026-03-07T16:00:56.017Z</time></trkpt><trkpt lat="37.0306796" lon="-3.6686256"><ele>933.0</ele><time>2026-03-07T16:00:57.011Z</time></trkpt><trkpt lat="37.0306833" lon="-3.6684605"><ele>932.2</ele><time>2026-03-07T16:00:58.016Z</time></trkpt><trkpt lat="37.0306868" lon="-3.6683359"><ele>931.4</ele><time>2026-03-07T16:00:59.034Z</time></trkpt><trkpt lat="37.0306778" lon="-3.6682141"><ele>930.6000000000001</ele><time>2026-03-07T16:01:00.014Z</time></trkpt><trkpt lat="37.0306542" lon="-3.6680844"><ele>929.8000000000001</ele><time>2026-03-07T16:01:01.01Z</time></trkpt><trkpt lat="37.0306318" lon="-3.667946"><ele>929.0</ele><time>2026-03-07T16:01:02.016Z</time></trkpt><trkpt lat="37.0305751" lon="-3.6678388"><ele>928.2</ele><time>2026-03-07T16:01:03.036Z</time></trkpt><trkpt lat="37.0305205" lon="-3.6677392"><ele>927.4000000000001</ele><time>2026-03-07T16:01:04.016Z</time></trkpt><trkpt lat="37.0304616" lon="-3.6676441"><ele>926.6</ele><time>2026-03-07T16:01:05.011Z</time></trkpt><trkpt lat="37.0304011" lon="-3.6675552"><ele>925.8</ele><time>2026-03-07T16:01:06.01Z</time></trkpt><trkpt lat="37.0303382" lon="-3.6674704"><ele>925.0</ele><time>2026-03-07T16:01:07.008Z</time></trkpt><trkpt lat="37.0302651" lon="-3.6674204"><ele>925.0</ele><time>2026-03-07T16:01:08.006Z</time></trkpt><trkpt lat="37.0301828" lon="-3.6673837"><ele>925.0</ele><time>2026-03-07T16:01:09.005Z</time></trkpt><trkpt lat="37.0300941" lon="-3.6673764"><ele>925.0</ele><time>2026-03-07T16:01:10.014Z</time></trkpt><trkpt lat="37.0300015" lon="-3.6673361"><ele>925.0</ele><time>2026-03-07T16:01:11.006Z</time></trkpt><trkpt lat="37.0299224" lon="-3.6672704"><ele>925.0</ele><time>2026-03-07T16:01:12.003Z</time></trkpt><trkpt lat="37.0298475" lon="-3.6672087"><ele>923.3333333333333</ele><time>2026-03-07T16:01:13.016Z</time></trkpt><trkpt lat="37.0298061" lon="-3.6671282"><ele>921.6666666666666</ele><time>2026-03-07T16:01:13.997Z</time></trkpt><trkpt lat="37.0298079" lon="-3.6670341"><ele>920.0</ele><time>2026-03-07T16:01:15.018Z</time></trkpt><trkpt lat="37.0297913" lon="-3.6669276"><ele>918.3333333333333</ele><time>2026-03-07T16:01:16.026Z</time></trkpt><trkpt lat="37.0297732" lon="-3.6668182"><ele>916.6666666666666</ele><time>2026-03-07T16:01:17.013Z</time></trkpt><trkpt lat="37.0297555" lon="-3.6667005"><ele>915.0</ele><time>2026-03-07T16:01:18.018Z</time></trkpt><trkpt lat="37.0297395" lon="-3.6665841"><ele>914.8</ele><time>2026-03-07T16:01:19.007Z</time></trkpt><trkpt lat="37.0297219" lon="-3.6664785"><ele>914.6</ele><time>2026-03-07T16:01:20.015Z</time></trkpt><trkpt lat="37.0297017" lon="-3.6663704"><ele>914.4000000000001</ele><time>2026-03-07T16:01:21.007Z</time></trkpt><trkpt lat="37.0296625" lon="-3.66626"><ele>914.2</ele><time>2026-03-07T16:01:22.021Z</time></trkpt><trkpt lat="37.0296072" lon="-3.666151"><ele>914.0</ele><time>2026-03-07T16:01:23.008Z</time></trkpt><trkpt lat="37.0295468" lon="-3.6660448"><ele>913.0</ele><time>2026-03-07T16:01:24.022Z</time></trkpt><trkpt lat="37.0294801" lon="-3.6659439"><ele>912.0000000000001</ele><time>2026-03-07T16:01:25.014Z</time></trkpt><trkpt lat="37.0294179" lon="-3.6658521"><ele>911.0000000000001</ele><time>2026-03-07T16:01:26.002Z</time></trkpt><trkpt lat="37.0293542" lon="-3.6657766"><ele>910.0</ele><time>2026-03-07T16:01:27.013Z</time></trkpt><trkpt lat="37.0292829" lon="-3.665712"><ele>909.0</ele><time>2026-03-07T16:01:28.052Z</time></trkpt><trkpt lat="37.029192" lon="-3.6656699"><ele>907.8000000000001</ele><time>2026-03-07T16:01:29.005Z</time></trkpt><trkpt lat="37.0291052" lon="-3.6656303"><ele>906.6000000000001</ele><time>2026-03-07T16:01:30.013Z</time></trkpt><trkpt lat="37.0290237" lon="-3.6656067"><ele>905.4</ele><time>2026-03-07T16:01:31.01Z</time></trkpt><trkpt lat="37.0289722" lon="-3.6654786"><ele>904.2</ele><time>2026-03-07T16:01:33.06Z</time></trkpt><trkpt lat="37.0289381" lon="-3.6653945"><ele>903.0</ele><time>2026-03-07T16:01:34.005Z</time></trkpt><trkpt lat="37.0288974" lon="-3.6652911"><ele>902.2</ele><time>2026-03-07T16:01:35.009Z</time></trkpt><trkpt lat="37.0289011" lon="-3.665175"><ele>901.4</ele><time>2026-03-07T16:01:36.01Z</time></trkpt><trkpt lat="37.0288701" lon="-3.6650591"><ele>900.6000000000001</ele><time>2026-03-07T16:01:37.016Z</time></trkpt><trkpt lat="37.0288942" lon="-3.6649427"><ele>899.8000000000001</ele><time>2026-03-07T16:01:38.027Z</time></trkpt><trkpt lat="37.0288784" lon="-3.6648304"><ele>899.0</ele><time>2026-03-07T16:01:39.006Z</time></trkpt><trkpt lat="37.028897" lon="-3.6647307"><ele>899.0000000000001</ele><time>2026-03-07T16:01:40.008Z</time></trkpt><trkpt lat="37.0289069" lon="-3.6646252"><ele>899.0</ele><time>2026-03-07T16:01:41.043Z</time></trkpt><trkpt lat="37.028939" lon="-3.6645401"><ele>899.0</ele><time>2026-03-07T16:01:42.01Z</time></trkpt><trkpt lat="37.0289052" lon="-3.6643906"><ele>899.0</ele><time>2026-03-07T16:01:43.998Z</time></trkpt><trkpt lat="37.0288781" lon="-3.664302"><ele>899.0000000000001</ele><time>2026-03-07T16:01:45.012Z</time></trkpt><trkpt lat="37.0288363" lon="-3.6642049"><ele>899.0</ele><time>2026-03-07T16:01:46.019Z</time></trkpt><trkpt lat="37.0287832" lon="-3.664117"><ele>898.2</ele><time>2026-03-07T16:01:47.014Z</time></trkpt><trkpt lat="37.0287118" lon="-3.6640136"><ele>897.4000000000001</ele><time>2026-03-07T16:01:48.008Z</time></trkpt><trkpt lat="37.0286502" lon="-3.6639254"><ele>896.6</ele><time>2026-03-07T16:01:49.019Z</time></trkpt><trkpt lat="37.0285775" lon="-3.6638294"><ele>895.8</ele><time>2026-03-07T16:01:50.014Z</time></trkpt><trkpt lat="37.0285306" lon="-3.663748"><ele>895.0</ele><time>2026-03-07T16:01:51.014Z</time></trkpt><trkpt lat="37.0284898" lon="-3.6636643"><ele>894.4285714285714</ele><time>2026-03-07T16:01:52.018Z</time></trkpt><trkpt lat="37.0284494" lon="-3.663565"><ele>893.8571428571429</ele><time>2026-03-07T16:01:53.009Z</time></trkpt><trkpt lat="37.0284026" lon="-3.6634862"><ele>893.2857142857143</ele><time>2026-03-07T16:01:54.019Z</time></trkpt><trkpt lat="37.0283582" lon="-3.663422"><ele>892.7142857142858</ele><time>2026-03-07T16:01:55.001Z</time></trkpt><trkpt lat="37.0283065" lon="-3.6633713"><ele>892.1428571428571</ele><time>2026-03-07T16:01:56.013Z</time></trkpt><trkpt lat="37.0282409" lon="-3.6633297"><ele>891.5714285714287</ele><time>2026-03-07T16:01:57.009Z</time></trkpt><trkpt lat="37.0281667" lon="-3.6633173"><ele>891.0</ele><time>2026-03-07T16:01:58.007Z</time></trkpt><trkpt lat="37.0281078" lon="-3.6632852"><ele>889.0</ele><time>2026-03-07T16:01:59.01Z</time></trkpt><trkpt lat="37.0280102" lon="-3.6632084"><ele>886.9999999999999</ele><time>2026-03-07T16:02:01.017Z</time></trkpt><trkpt lat="37.0279593" lon="-3.6630843"><ele>884.9999999999999</ele><time>2026-03-07T16:02:03.016Z</time></trkpt><trkpt lat="37.0279395" lon="-3.6629827"><ele>883.0</ele><time>2026-03-07T16:02:04.004Z</time></trkpt><trkpt lat="37.0279174" lon="-3.6628766"><ele>881.0</ele><time>2026-03-07T16:02:05.008Z</time></trkpt><trkpt lat="37.0278949" lon="-3.6627724"><ele>880.1666666666667</ele><time>2026-03-07T16:02:06.012Z</time></trkpt><trkpt lat="37.0278712" lon="-3.662668"><ele>879.3333333333334</ele><time>2026-03-07T16:02:07.008Z</time></trkpt><trkpt lat="37.0278474" lon="-3.6625617"><ele>878.5</ele><time>2026-03-07T16:02:08.009Z</time></trkpt><trkpt lat="37.0278327" lon="-3.6624524"><ele>877.6666666666667</ele><time>2026-03-07T16:02:08.996Z</time></trkpt><trkpt lat="37.0278271" lon="-3.6623375"><ele>876.8333333333334</ele><time>2026-03-07T16:02:10.009Z</time></trkpt><trkpt lat="37.0278135" lon="-3.6622272"><ele>876.0</ele><time>2026-03-07T16:02:11.003Z</time></trkpt><trkpt lat="37.0277939" lon="-3.6621048"><ele>876.0</ele><time>2026-03-07T16:02:12.002Z</time></trkpt><trkpt lat="37.0277901" lon="-3.661989"><ele>876.0</ele><time>2026-03-07T16:02:13.014Z</time></trkpt><trkpt lat="37.0277928" lon="-3.6618865"><ele>876.0</ele><time>2026-03-07T16:02:14.014Z</time></trkpt><trkpt lat="37.0278057" lon="-3.6617861"><ele>876.0</ele><time>2026-03-07T16:02:15.02Z</time></trkpt><trkpt lat="37.027814" lon="-3.6616834"><ele>876.0</ele><time>2026-03-07T16:02:16.077Z</time></trkpt><trkpt lat="37.0278087" lon="-3.6615631"><ele>876.0</ele><time>2026-03-07T16:02:17.011Z</time></trkpt><trkpt lat="37.0278034" lon="-3.6614306"><ele>874.4</ele><time>2026-03-07T16:02:18.008Z</time></trkpt><trkpt lat="37.0277856" lon="-3.6613005"><ele>872.8</ele><time>2026-03-07T16:02:19.003Z</time></trkpt><trkpt lat="37.0277634" lon="-3.6611799"><ele>871.1999999999999</ele><time>2026-03-07T16:02:20.026Z</time></trkpt><trkpt lat="37.0277447" lon="-3.6610538"><ele>869.5999999999999</ele><time>2026-03-07T16:02:21.003Z</time></trkpt><trkpt lat="37.0277346" lon="-3.6609334"><ele>868.0</ele><time>2026-03-07T16:02:22.005Z</time></trkpt><trkpt lat="37.0277278" lon="-3.6608179"><ele>867.3333333333333</ele><time>2026-03-07T16:02:23.006Z</time></trkpt><trkpt lat="37.0277341" lon="-3.6607104"><ele>866.6666666666666</ele><time>2026-03-07T16:02:24.009Z</time></trkpt><trkpt lat="37.0277424" lon="-3.6606084"><ele>866.0</ele><time>2026-03-07T16:02:25.017Z</time></trkpt><trkpt lat="37.0277588" lon="-3.6605098"><ele>865.3333333333333</ele><time>2026-03-07T16:02:25.998Z</time></trkpt><trkpt lat="37.0277655" lon="-3.6604087"><ele>864.6666666666666</ele><time>2026-03-07T16:02:26.995Z</time></trkpt><trkpt lat="37.0277737" lon="-3.6603044"><ele>864.0</ele><time>2026-03-07T16:02:28.005Z</time></trkpt><trkpt lat="37.0277809" lon="-3.6601932"><ele>862.6666666666666</ele><time>2026-03-07T16:02:29.006Z</time></trkpt><trkpt lat="37.0277902" lon="-3.6600788"><ele>861.3333333333333</ele><time>2026-03-07T16:02:30.016Z</time></trkpt><trkpt lat="37.0278096" lon="-3.6599726"><ele>860.0</ele><time>2026-03-07T16:02:31.038Z</time></trkpt><trkpt lat="37.0278533" lon="-3.6598768"><ele>858.6666666666666</ele><time>2026-03-07T16:02:32.017Z</time></trkpt><trkpt lat="37.0278998" lon="-3.6597914"><ele>857.3333333333333</ele><time>2026-03-07T16:02:32.997Z</time></trkpt><trkpt lat="37.0279468" lon="-3.6597142"><ele>856.0</ele><time>2026-03-07T16:02:34.02Z</time></trkpt><trkpt lat="37.0279725" lon="-3.6596263"><ele>855.9999999999999</ele><time>2026-03-07T16:02:35.025Z</time></trkpt><trkpt lat="37.027975" lon="-3.6595305"><ele>856.0</ele><time>2026-03-07T16:02:36.018Z</time></trkpt><trkpt lat="37.0279674" lon="-3.6594255"><ele>856.0</ele><time>2026-03-07T16:02:37.017Z</time></trkpt><trkpt lat="37.027953" lon="-3.6593164"><ele>856.0</ele><time>2026-03-07T16:02:38.018Z</time></trkpt><trkpt lat="37.0279526" lon="-3.6591969"><ele>855.9999999999999</ele><time>2026-03-07T16:02:39.013Z</time></trkpt><trkpt lat="37.0279532" lon="-3.6590721"><ele>856.0</ele><time>2026-03-07T16:02:40.004Z</time></trkpt><trkpt lat="37.0279583" lon="-3.6589469"><ele>854.4</ele><time>2026-03-07T16:02:41.007Z</time></trkpt><trkpt lat="37.0279493" lon="-3.6588219"><ele>852.8</ele><time>2026-03-07T16:02:42.001Z</time></trkpt><trkpt lat="37.027925" lon="-3.658702"><ele>851.1999999999999</ele><time>2026-03-07T16:02:43.004Z</time></trkpt><trkpt lat="37.0278964" lon="-3.658584"><ele>849.5999999999999</ele><time>2026-03-07T16:02:44.008Z</time></trkpt><trkpt lat="37.0278732" lon="-3.6584577"><ele>848.0</ele><time>2026-03-07T16:02:45.016Z</time></trkpt><trkpt lat="37.0278536" lon="-3.6583358"><ele>846.4</ele><time>2026-03-07T16:02:46.011Z</time></trkpt><trkpt lat="37.0278385" lon="-3.6582173"><ele>844.8</ele><time>2026-03-07T16:02:47.013Z</time></trkpt><trkpt lat="37.027812" lon="-3.6580998"><ele>843.2</ele><time>2026-03-07T16:02:48.002Z</time></trkpt><trkpt lat="37.0277869" lon="-3.657973"><ele>841.6</ele><time>2026-03-07T16:02:49.031Z</time></trkpt><trkpt lat="37.0277579" lon="-3.6578402"><ele>840.0</ele><time>2026-03-07T16:02:50.016Z</time></trkpt><trkpt lat="37.0277273" lon="-3.6577077"><ele>839.2</ele><time>2026-03-07T16:02:51.02Z</time></trkpt><trkpt lat="37.0276955" lon="-3.6575733"><ele>838.4</ele><time>2026-03-07T16:02:52.006Z</time></trkpt><trkpt lat="37.0276693" lon="-3.6574321"><ele>837.5999999999999</ele><time>2026-03-07T16:02:53.013Z</time></trkpt><trkpt lat="37.0276386" lon="-3.6572941"><ele>836.8</ele><time>2026-03-07T16:02:54.012Z</time></trkpt><trkpt lat="37.0275998" lon="-3.6571721"><ele>836.0</ele><time>2026-03-07T16:02:55.014Z</time></trkpt><trkpt lat="37.0275625" lon="-3.6570589"><ele>836.0</ele><time>2026-03-07T16:02:56.015Z</time></trkpt><trkpt lat="37.0275194" lon="-3.6569579"><ele>836.0</ele><time>2026-03-07T16:02:57.008Z</time></trkpt><trkpt lat="37.0274699" lon="-3.6568596"><ele>836.0</ele><time>2026-03-07T16:02:58.013Z</time></trkpt><trkpt lat="37.0274161" lon="-3.6567555"><ele>836.0</ele><time>2026-03-07T16:02:59.017Z</time></trkpt><trkpt lat="37.0273623" lon="-3.6566394"><ele>836.0</ele><time>2026-03-07T16:03:00.024Z</time></trkpt><trkpt lat="37.0273145" lon="-3.6565143"><ele>834.0</ele><time>2026-03-07T16:03:01.01Z</time></trkpt><trkpt lat="37.0272821" lon="-3.6563862"><ele>832.0</ele><time>2026-03-07T16:03:02.016Z</time></trkpt><trkpt lat="37.0272697" lon="-3.656258"><ele>830.0</ele><time>2026-03-07T16:03:03.01Z</time></trkpt><trkpt lat="37.0272662" lon="-3.6561309"><ele>828.0</ele><time>2026-03-07T16:03:04.015Z</time></trkpt><trkpt lat="37.0272596" lon="-3.6560086"><ele>826.0</ele><time>2026-03-07T16:03:05.024Z</time></trkpt><trkpt lat="37.0272565" lon="-3.6558843"><ele>825.0</ele><time>2026-03-07T16:03:06.035Z</time></trkpt><trkpt lat="37.0272542" lon="-3.6557569"><ele>824.0</ele><time>2026-03-07T16:03:07.022Z</time></trkpt><trkpt lat="37.0272556" lon="-3.6556303"><ele>823.0</ele><time>2026-03-07T16:03:08.007Z</time></trkpt><trkpt lat="37.0272584" lon="-3.6555089"><ele>822.0</ele><time>2026-03-07T16:03:09.025Z</time></trkpt><trkpt lat="37.0272492" lon="-3.6554028"><ele>821.0</ele><time>2026-03-07T16:03:10.005Z</time></trkpt><trkpt lat="37.027238" lon="-3.6552939"><ele>820.5999999999999</ele><time>2026-03-07T16:03:11.014Z</time></trkpt><trkpt lat="37.0272212" lon="-3.6551726"><ele>820.2</ele><time>2026-03-07T16:03:12.015Z</time></trkpt><trkpt lat="37.0272009" lon="-3.6550557"><ele>819.8</ele><time>2026-03-07T16:03:13.003Z</time></trkpt><trkpt lat="37.0271685" lon="-3.654923"><ele>819.4000000000001</ele><time>2026-03-07T16:03:14.013Z</time></trkpt><trkpt lat="37.0271241" lon="-3.6548043"><ele>819.0</ele><time>2026-03-07T16:03:15.007Z</time></trkpt><trkpt lat="37.0270755" lon="-3.6546863"><ele>819.0</ele><time>2026-03-07T16:03:16.002Z</time></trkpt><trkpt lat="37.0270427" lon="-3.6545607"><ele>819.0</ele><time>2026-03-07T16:03:17.036Z</time></trkpt><trkpt lat="37.0270252" lon="-3.6544249"><ele>819.0</ele><time>2026-03-07T16:03:18.02Z</time></trkpt><trkpt lat="37.0269979" lon="-3.6542872"><ele>819.0</ele><time>2026-03-07T16:03:19.01Z</time></trkpt><trkpt lat="37.0269659" lon="-3.6541572"><ele>819.0</ele><time>2026-03-07T16:03:20.012Z</time></trkpt><trkpt lat="37.0269347" lon="-3.6540341"><ele>818.25</ele><time>2026-03-07T16:03:21Z</time></trkpt><trkpt lat="37.0269142" lon="-3.6539142"><ele>817.5</ele><time>2026-03-07T16:03:22.023Z</time></trkpt><trkpt lat="37.0269015" lon="-3.6537682"><ele>816.75</ele><time>2026-03-07T16:03:23.012Z</time></trkpt><trkpt lat="37.0268863" lon="-3.6536181"><ele>816.0</ele><time>2026-03-07T16:03:24.01Z</time></trkpt><trkpt lat="37.0268675" lon="-3.6534738"><ele>815.5999999999999</ele><time>2026-03-07T16:03:25.007Z</time></trkpt><trkpt lat="37.0268585" lon="-3.6533374"><ele>815.2</ele><time>2026-03-07T16:03:26.009Z</time></trkpt><trkpt lat="37.0268677" lon="-3.6532038"><ele>814.8</ele><time>2026-03-07T16:03:27.009Z</time></trkpt><trkpt lat="37.0269018" lon="-3.6530751"><ele>814.4000000000001</ele><time>2026-03-07T16:03:28.009Z</time></trkpt><trkpt lat="37.0269343" lon="-3.6529426"><ele>814.0</ele><time>2026-03-07T16:03:29.01Z</time></trkpt><trkpt lat="37.0269606" lon="-3.6527939"><ele>814.5</ele><time>2026-03-07T16:03:30.011Z</time></trkpt><trkpt lat="37.0269776" lon="-3.6526442"><ele>815.0</ele><time>2026-03-07T16:03:30.996Z</time></trkpt><trkpt lat="37.0269874" lon="-3.6524768"><ele>815.5</ele><time>2026-03-07T16:03:32.012Z</time></trkpt><trkpt lat="37.0270135" lon="-3.6523338"><ele>816.0</ele><time>2026-03-07T16:03:33.007Z</time></trkpt><trkpt lat="37.0270373" lon="-3.6522009"><ele>816.0</ele><time>2026-03-07T16:03:34.004Z</time></trkpt><trkpt lat="37.0270669" lon="-3.6520644"><ele>816.0</ele><time>2026-03-07T16:03:35.013Z</time></trkpt><trkpt lat="37.0271089" lon="-3.6519261"><ele>816.0</ele><time>2026-03-07T16:03:36.002Z</time></trkpt><trkpt lat="37.0271623" lon="-3.6517866"><ele>816.0</ele><time>2026-03-07T16:03:36.999Z</time></trkpt><trkpt lat="37.0272318" lon="-3.6516611"><ele>816.0</ele><time>2026-03-07T16:03:38.016Z</time></trkpt><trkpt lat="37.0272837" lon="-3.6515358"><ele>816.0</ele><time>2026-03-07T16:03:39.011Z</time></trkpt><trkpt lat="37.0273336" lon="-3.651413"><ele>816.0</ele><time>2026-03-07T16:03:40.011Z</time></trkpt><trkpt lat="37.0273796" lon="-3.6512925"><ele>816.0</ele><time>2026-03-07T16:03:41.007Z</time></trkpt><trkpt lat="37.0274185" lon="-3.6511689"><ele>816.0</ele><time>2026-03-07T16:03:42.006Z</time></trkpt><trkpt lat="37.0274637" lon="-3.6510389"><ele>817.25</ele><time>2026-03-07T16:03:43.011Z</time></trkpt><trkpt lat="37.0275014" lon="-3.650886"><ele>818.5</ele><time>2026-03-07T16:03:44.009Z</time></trkpt><trkpt lat="37.0275289" lon="-3.6507248"><ele>819.75</ele><time>2026-03-07T16:03:45.004Z</time></trkpt><trkpt lat="37.027564" lon="-3.6505653"><ele>821.0</ele><time>2026-03-07T16:03:46.001Z</time></trkpt><trkpt lat="37.0276054" lon="-3.6504088"><ele>819.75</ele><time>2026-03-07T16:03:47.011Z</time></trkpt><trkpt lat="37.0276493" lon="-3.6502571"><ele>818.5</ele><time>2026-03-07T16:03:48.007Z</time></trkpt><trkpt lat="37.0276869" lon="-3.6501061"><ele>817.25</ele><time>2026-03-07T16:03:49.006Z</time></trkpt><trkpt lat="37.0277247" lon="-3.6499561"><ele>816.0</ele><time>2026-03-07T16:03:50.002Z</time></trkpt><trkpt lat="37.0277636" lon="-3.6498088"><ele>816.0</ele><time>2026-03-07T16:03:51.006Z</time></trkpt><trkpt lat="37.0278046" lon="-3.6496686"><ele>816.0</ele><time>2026-03-07T16:03:52.006Z</time></trkpt><trkpt lat="37.0278421" lon="-3.6495369"><ele>816.0</ele><time>2026-03-07T16:03:53.013Z</time></trkpt><trkpt lat="37.0278852" lon="-3.6494121"><ele>816.0</ele><time>2026-03-07T16:03:54.004Z</time></trkpt><trkpt lat="37.0279217" lon="-3.6492889"><ele>816.0</ele><time>2026-03-07T16:03:55.009Z</time></trkpt><trkpt lat="37.0279578" lon="-3.6491726"><ele>816.0</ele><time>2026-03-07T16:03:56.022Z</time></trkpt><trkpt lat="37.0279867" lon="-3.6490575"><ele>816.0</ele><time>2026-03-07T16:03:57.005Z</time></trkpt><trkpt lat="37.0280114" lon="-3.6489461"><ele>816.0</ele><time>2026-03-07T16:03:58.004Z</time></trkpt><trkpt lat="37.0280184" lon="-3.6488342"><ele>816.0</ele><time>2026-03-07T16:03:59.007Z</time></trkpt><trkpt lat="37.0280129" lon="-3.6487184"><ele>816.0</ele><time>2026-03-07T16:04:00.1Z</time></trkpt><trkpt lat="37.0279944" lon="-3.6486024"><ele>816.25</ele><time>2026-03-07T16:04:01.01Z</time></trkpt><trkpt lat="37.0279701" lon="-3.6484713"><ele>816.5</ele><time>2026-03-07T16:04:02.001Z</time></trkpt><trkpt lat="37.027929" lon="-3.6483347"><ele>816.75</ele><time>2026-03-07T16:04:03.014Z</time></trkpt><trkpt lat="37.0278921" lon="-3.6481937"><ele>817.0</ele><time>2026-03-07T16:04:04.007Z</time></trkpt><trkpt lat="37.0278534" lon="-3.6480513"><ele>817.0</ele><time>2026-03-07T16:04:05.005Z</time></trkpt><trkpt lat="37.0278147" lon="-3.6479024"><ele>817.0</ele><time>2026-03-07T16:04:05.997Z</time></trkpt><trkpt lat="37.0277734" lon="-3.6477503"><ele>817.0</ele><time>2026-03-07T16:04:07.017Z</time></trkpt><trkpt lat="37.02772" lon="-3.6476042"><ele>817.0</ele><time>2026-03-07T16:04:07.997Z</time></trkpt><trkpt lat="37.0276586" lon="-3.6474631"><ele>815.75</ele><time>2026-03-07T16:04:09.01Z</time></trkpt><trkpt lat="37.0276091" lon="-3.6473176"><ele>814.5</ele><time>2026-03-07T16:04:10.017Z</time></trkpt><trkpt lat="37.0275584" lon="-3.6471713"><ele>813.25</ele><time>2026-03-07T16:04:11.013Z</time></trkpt><trkpt lat="37.0275001" lon="-3.6470339"><ele>812.0</ele><time>2026-03-07T16:04:12.001Z</time></trkpt><trkpt lat="37.0274396" lon="-3.6469"><ele>810.75</ele><time>2026-03-07T16:04:12.995Z</time></trkpt><trkpt lat="37.027379" lon="-3.6467731"><ele>809.5</ele><time>2026-03-07T16:04:14.025Z</time></trkpt><trkpt lat="37.0273255" lon="-3.6466512"><ele>808.25</ele><time>2026-03-07T16:04:15.018Z</time></trkpt><trkpt lat="37.0272795" lon="-3.6465228"><ele>807.0</ele><time>2026-03-07T16:04:16.002Z</time></trkpt><trkpt lat="37.0272264" lon="-3.6463956"><ele>807.0</ele><time>2026-03-07T16:04:16.995Z</time></trkpt><trkpt lat="37.0271628" lon="-3.6462813"><ele>807.0</ele><time>2026-03-07T16:04:18.01Z</time></trkpt><trkpt lat="37.0270971" lon="-3.6461785"><ele>807.0</ele><time>2026-03-07T16:04:19.011Z</time></trkpt><trkpt lat="37.0270344" lon="-3.6460842"><ele>807.0</ele><time>2026-03-07T16:04:20.011Z</time></trkpt><trkpt lat="37.0269783" lon="-3.6460012"><ele>807.0</ele><time>2026-03-07T16:04:21.018Z</time></trkpt><trkpt lat="37.0269439" lon="-3.6459182"><ele>806.0</ele><time>2026-03-07T16:04:22.012Z</time></trkpt><trkpt lat="37.0269174" lon="-3.6457854"><ele>805.0</ele><time>2026-03-07T16:04:24.004Z</time></trkpt><trkpt lat="37.0270611" lon="-3.6457825"><ele>804.0</ele><time>2026-03-07T16:04:28.014Z</time></trkpt><trkpt lat="37.0271709" lon="-3.6457832"><ele>803.0</ele><time>2026-03-07T16:04:29.009Z</time></trkpt><trkpt lat="37.0272814" lon="-3.6457831"><ele>803.0</ele><time>2026-03-07T16:04:30.002Z</time></trkpt><trkpt lat="37.0273909" lon="-3.6457772"><ele>803.0</ele><time>2026-03-07T16:04:31.011Z</time></trkpt><trkpt lat="37.0275198" lon="-3.6457754"><ele>803.0</ele><time>2026-03-07T16:04:32.005Z</time></trkpt><trkpt lat="37.0276441" lon="-3.6457816"><ele>803.0</ele><time>2026-03-07T16:04:33.016Z</time></trkpt><trkpt lat="37.0277832" lon="-3.6457755"><ele>803.0</ele><time>2026-03-07T16:04:34.005Z</time></trkpt><trkpt lat="37.0279272" lon="-3.6457954"><ele>803.0</ele><time>2026-03-07T16:04:35.007Z</time></trkpt><trkpt lat="37.028069" lon="-3.6458118"><ele>803.0</ele><time>2026-03-07T16:04:36.003Z</time></trkpt><trkpt lat="37.0282056" lon="-3.6458374"><ele>803.0</ele><time>2026-03-07T16:04:37.008Z</time></trkpt><trkpt lat="37.028344" lon="-3.6458609"><ele>802.25</ele><time>2026-03-07T16:04:38.002Z</time></trkpt><trkpt lat="37.0284823" lon="-3.6458814"><ele>801.5</ele><time>2026-03-07T16:04:39.019Z</time></trkpt><trkpt lat="37.0286259" lon="-3.6459282"><ele>800.75</ele><time>2026-03-07T16:04:40.006Z</time></trkpt><trkpt lat="37.0287683" lon="-3.6459637"><ele>800.0</ele><time>2026-03-07T16:04:41.008Z</time></trkpt><trkpt lat="37.0289127" lon="-3.6459954"><ele>800.0</ele><time>2026-03-07T16:04:42.006Z</time></trkpt><trkpt lat="37.0290625" lon="-3.6460317"><ele>800.0</ele><time>2026-03-07T16:04:43.005Z</time></trkpt><trkpt lat="37.0292097" lon="-3.6460614"><ele>800.0</ele><time>2026-03-07T16:04:44.022Z</time></trkpt><trkpt lat="37.0293528" lon="-3.6460964"><ele>800.0</ele><time>2026-03-07T16:04:45.032Z</time></trkpt><trkpt lat="37.0294912" lon="-3.6461318"><ele>799.5</ele><time>2026-03-07T16:04:46.029Z</time></trkpt><trkpt lat="37.0296324" lon="-3.6461674"><ele>799.0</ele><time>2026-03-07T16:04:47.005Z</time></trkpt><trkpt lat="37.0297698" lon="-3.6462145"><ele>798.5</ele><time>2026-03-07T16:04:48.013Z</time></trkpt><trkpt lat="37.0299122" lon="-3.6462401"><ele>798.0</ele><time>2026-03-07T16:04:49.013Z</time></trkpt><trkpt lat="37.0300544" lon="-3.6462435"><ele>796.3333333333333</ele><time>2026-03-07T16:04:50.01Z</time></trkpt><trkpt lat="37.0302026" lon="-3.6462332"><ele>794.6666666666666</ele><time>2026-03-07T16:04:51.009Z</time></trkpt><trkpt lat="37.0303534" lon="-3.6462301"><ele>793.0</ele><time>2026-03-07T16:04:52.009Z</time></trkpt><trkpt lat="37.0305071" lon="-3.6462165"><ele>793.0</ele><time>2026-03-07T16:04:53.021Z</time></trkpt><trkpt lat="37.0306603" lon="-3.646202"><ele>793.0</ele><time>2026-03-07T16:04:54.014Z</time></trkpt><trkpt lat="37.0308183" lon="-3.6461832"><ele>793.0</ele><time>2026-03-07T16:04:55.014Z</time></trkpt><trkpt lat="37.0309784" lon="-3.6461694"><ele>794.0</ele><time>2026-03-07T16:04:56.012Z</time></trkpt><trkpt lat="37.0311391" lon="-3.6461478"><ele>795.0</ele><time>2026-03-07T16:04:57.007Z</time></trkpt><trkpt lat="37.0312889" lon="-3.6461346"><ele>796.0</ele><time>2026-03-07T16:04:58.01Z</time></trkpt><trkpt lat="37.0314298" lon="-3.6461263"><ele>797.5</ele><time>2026-03-07T16:04:59.01Z</time></trkpt><trkpt lat="37.0315672" lon="-3.6461163"><ele>799.0</ele><time>2026-03-07T16:05:00.023Z</time></trkpt><trkpt lat="37.0317068" lon="-3.6461035"><ele>800.5</ele><time>2026-03-07T16:05:01Z</time></trkpt><trkpt lat="37.0318473" lon="-3.646095"><ele>802.0</ele><time>2026-03-07T16:05:02.024Z</time></trkpt><trkpt lat="37.0319901" lon="-3.6460869"><ele>802.6666666666666</ele><time>2026-03-07T16:05:03.014Z</time></trkpt><trkpt lat="37.0321442" lon="-3.6460769"><ele>803.3333333333333</ele><time>2026-03-07T16:05:04.007Z</time></trkpt><trkpt lat="37.0322975" lon="-3.6460739"><ele>804.0</ele><time>2026-03-07T16:05:05.02Z</time></trkpt><trkpt lat="37.0324519" lon="-3.6460737"><ele>804.6666666666667</ele><time>2026-03-07T16:05:06.007Z</time></trkpt><trkpt lat="37.032607" lon="-3.6460741"><ele>805.3333333333334</ele><time>2026-03-07T16:05:07.013Z</time></trkpt><trkpt lat="37.0327573" lon="-3.6460797"><ele>806.0</ele><time>2026-03-07T16:05:08.013Z</time></trkpt><trkpt lat="37.0329076" lon="-3.6460874"><ele>806.0</ele><time>2026-03-07T16:05:09.006Z</time></trkpt><trkpt lat="37.0330604" lon="-3.6460953"><ele>806.0</ele><time>2026-03-07T16:05:10.001Z</time></trkpt><trkpt lat="37.0332125" lon="-3.6461023"><ele>806.0</ele><time>2026-03-07T16:05:11.01Z</time></trkpt><trkpt lat="37.033368" lon="-3.6461046"><ele>807.3333333333334</ele><time>2026-03-07T16:05:12.009Z</time></trkpt><trkpt lat="37.0335247" lon="-3.6461077"><ele>808.6666666666667</ele><time>2026-03-07T16:05:13.009Z</time></trkpt><trkpt lat="37.0336769" lon="-3.6461134"><ele>810.0</ele><time>2026-03-07T16:05:14.008Z</time></trkpt><trkpt lat="37.0338275" lon="-3.646123"><ele>810.5</ele><time>2026-03-07T16:05:15.013Z</time></trkpt><trkpt lat="37.0339798" lon="-3.6461286"><ele>811.0</ele><time>2026-03-07T16:05:16.025Z</time></trkpt><trkpt lat="37.0341288" lon="-3.6461351"><ele>811.5</ele><time>2026-03-07T16:05:17.011Z</time></trkpt><trkpt lat="37.0342747" lon="-3.646138"><ele>812.0</ele><time>2026-03-07T16:05:18.001Z</time></trkpt><trkpt lat="37.0344213" lon="-3.6461412"><ele>812.0</ele><time>2026-03-07T16:05:19.017Z</time></trkpt><trkpt lat="37.0345653" lon="-3.6461495"><ele>812.0</ele><time>2026-03-07T16:05:20.034Z</time></trkpt><trkpt lat="37.0347075" lon="-3.6461601"><ele>812.0</ele><time>2026-03-07T16:05:20.994Z</time></trkpt><trkpt lat="37.0348457" lon="-3.6461736"><ele>812.0</ele><time>2026-03-07T16:05:22.011Z</time></trkpt><trkpt lat="37.0349809" lon="-3.6461885"><ele>813.5</ele><time>2026-03-07T16:05:23.003Z</time></trkpt><trkpt lat="37.035118" lon="-3.6462118"><ele>815.0</ele><time>2026-03-07T16:05:23.995Z</time></trkpt><trkpt lat="37.035257" lon="-3.6462467"><ele>816.5</ele><time>2026-03-07T16:05:25.013Z</time></trkpt><trkpt lat="37.0354" lon="-3.6462893"><ele>818.0</ele><time>2026-03-07T16:05:26.017Z</time></trkpt><trkpt lat="37.0355448" lon="-3.6463346"><ele>818.0</ele><time>2026-03-07T16:05:27.01Z</time></trkpt><trkpt lat="37.0356876" lon="-3.6463768"><ele>818.0</ele><time>2026-03-07T16:05:28.024Z</time></trkpt><trkpt lat="37.0358222" lon="-3.646411"><ele>818.0</ele><time>2026-03-07T16:05:29.02Z</time></trkpt><trkpt lat="37.0359479" lon="-3.6464332"><ele>818.0</ele><time>2026-03-07T16:05:30.025Z</time></trkpt><trkpt lat="37.0360686" lon="-3.6464492"><ele>819.0</ele><time>2026-03-07T16:05:31.028Z</time></trkpt><trkpt lat="37.0361793" lon="-3.6464675"><ele>820.0</ele><time>2026-03-07T16:05:31.998Z</time></trkpt><trkpt lat="37.0362856" lon="-3.6464785"><ele>821.0</ele><time>2026-03-07T16:05:33.014Z</time></trkpt><trkpt lat="37.0363903" lon="-3.6464846"><ele>822.0</ele><time>2026-03-07T16:05:34.021Z</time></trkpt><trkpt lat="37.0364906" lon="-3.6464911"><ele>823.0</ele><time>2026-03-07T16:05:35.016Z</time></trkpt><trkpt lat="37.0365848" lon="-3.6465062"><ele>823.5999999999999</ele><time>2026-03-07T16:05:36.002Z</time></trkpt><trkpt lat="37.0366815" lon="-3.646529"><ele>824.1999999999999</ele><time>2026-03-07T16:05:37.011Z</time></trkpt><trkpt lat="37.0367735" lon="-3.6465623"><ele>824.8</ele><time>2026-03-07T16:05:38.012Z</time></trkpt><trkpt lat="37.0368735" lon="-3.6466085"><ele>825.4</ele><time>2026-03-07T16:05:39.013Z</time></trkpt><trkpt lat="37.036982" lon="-3.6466569"><ele>826.0</ele><time>2026-03-07T16:05:40.001Z</time></trkpt><trkpt lat="37.0370945" lon="-3.646701"><ele>826.0</ele><time>2026-03-07T16:05:41.013Z</time></trkpt><trkpt lat="37.0372049" lon="-3.6467452"><ele>826.0</ele><time>2026-03-07T16:05:42.011Z</time></trkpt><trkpt lat="37.037319" lon="-3.6467875"><ele>826.0</ele><time>2026-03-07T16:05:43.008Z</time></trkpt><trkpt lat="37.037437" lon="-3.6468273"><ele>826.0</ele><time>2026-03-07T16:05:44.009Z</time></trkpt><trkpt lat="37.0375699" lon="-3.6468703"><ele>825.0</ele><time>2026-03-07T16:05:45.013Z</time></trkpt><trkpt lat="37.0377026" lon="-3.6469204"><ele>824.0</ele><time>2026-03-07T16:05:46.006Z</time></trkpt><trkpt lat="37.0378339" lon="-3.6469691"><ele>823.0</ele><time>2026-03-07T16:05:47.021Z</time></trkpt><trkpt lat="37.0379612" lon="-3.6470168"><ele>822.0</ele><time>2026-03-07T16:05:48.008Z</time></trkpt><trkpt lat="37.0380845" lon="-3.6470593"><ele>823.75</ele><time>2026-03-07T16:05:49.007Z</time></trkpt><trkpt lat="37.0382038" lon="-3.6471015"><ele>825.5</ele><time>2026-03-07T16:05:50.015Z</time></trkpt><trkpt lat="37.038326" lon="-3.647139"><ele>827.25</ele><time>2026-03-07T16:05:51.02Z</time></trkpt><trkpt lat="37.0384518" lon="-3.6471761"><ele>829.0</ele><time>2026-03-07T16:05:52.009Z</time></trkpt><trkpt lat="37.0385731" lon="-3.6472216"><ele>829.0</ele><time>2026-03-07T16:05:53.024Z</time></trkpt><trkpt lat="37.0386888" lon="-3.6472733"><ele>829.0</ele><time>2026-03-07T16:05:54.012Z</time></trkpt><trkpt lat="37.0388025" lon="-3.6473226"><ele>829.0</ele><time>2026-03-07T16:05:55.008Z</time></trkpt><trkpt lat="37.0389163" lon="-3.6473777"><ele>829.0</ele><time>2026-03-07T16:05:56.015Z</time></trkpt><trkpt lat="37.0390287" lon="-3.6474375"><ele>828.75</ele><time>2026-03-07T16:05:57.018Z</time></trkpt><trkpt lat="37.0391413" lon="-3.6474953"><ele>828.5</ele><time>2026-03-07T16:05:58.021Z</time></trkpt><trkpt lat="37.0392619" lon="-3.6475524"><ele>828.25</ele><time>2026-03-07T16:05:59.002Z</time></trkpt><trkpt lat="37.0393891" lon="-3.6476101"><ele>828.0</ele><time>2026-03-07T16:05:59.998Z</time></trkpt><trkpt lat="37.039513" lon="-3.6476715"><ele>828.0</ele><time>2026-03-07T16:06:01.013Z</time></trkpt><trkpt lat="37.039636" lon="-3.647735"><ele>828.0</ele><time>2026-03-07T16:06:02.012Z</time></trkpt><trkpt lat="37.0397601" lon="-3.6477988"><ele>828.0</ele><time>2026-03-07T16:06:03.008Z</time></trkpt><trkpt lat="37.0398857" lon="-3.6478637"><ele>828.0</ele><time>2026-03-07T16:06:04.011Z</time></trkpt><trkpt lat="37.0400105" lon="-3.647937"><ele>828.5</ele><time>2026-03-07T16:06:05.01Z</time></trkpt><trkpt lat="37.040136" lon="-3.6480092"><ele>829.0</ele><time>2026-03-07T16:06:06.016Z</time></trkpt><trkpt lat="37.0402645" lon="-3.6480802"><ele>829.5</ele><time>2026-03-07T16:06:07.004Z</time></trkpt><trkpt lat="37.0403946" lon="-3.6481627"><ele>830.0</ele><time>2026-03-07T16:06:08.009Z</time></trkpt><trkpt lat="37.0405339" lon="-3.6482423"><ele>830.0</ele><time>2026-03-07T16:06:09Z</time></trkpt><trkpt lat="37.0406745" lon="-3.6483272"><ele>830.0</ele><time>2026-03-07T16:06:10.003Z</time></trkpt><trkpt lat="37.0407957" lon="-3.6484076"><ele>830.0</ele><time>2026-03-07T16:06:11.014Z</time></trkpt><trkpt lat="37.0409069" lon="-3.6484857"><ele>830.0</ele><time>2026-03-07T16:06:12.021Z</time></trkpt><trkpt lat="37.0410221" lon="-3.6485717"><ele>829.5</ele><time>2026-03-07T16:06:13.009Z</time></trkpt><trkpt lat="37.0411488" lon="-3.6486597"><ele>829.0</ele><time>2026-03-07T16:06:14.009Z</time></trkpt><trkpt lat="37.0412774" lon="-3.6487587"><ele>828.5</ele><time>2026-03-07T16:06:15.001Z</time></trkpt><trkpt lat="37.0414107" lon="-3.6488543"><ele>828.0</ele><time>2026-03-07T16:06:16.004Z</time></trkpt><trkpt lat="37.0415462" lon="-3.6489513"><ele>827.5</ele><time>2026-03-07T16:06:17.008Z</time></trkpt><trkpt lat="37.0416815" lon="-3.6490446"><ele>827.0</ele><time>2026-03-07T16:06:18.034Z</time></trkpt><trkpt lat="37.0418084" lon="-3.6491398"><ele>826.5</ele><time>2026-03-07T16:06:19.006Z</time></trkpt><trkpt lat="37.0419326" lon="-3.6492291"><ele>826.0</ele><time>2026-03-07T16:06:20.007Z</time></trkpt><trkpt lat="37.0420544" lon="-3.6493163"><ele>826.0</ele><time>2026-03-07T16:06:21.02Z</time></trkpt><trkpt lat="37.0421796" lon="-3.6494053"><ele>826.0</ele><time>2026-03-07T16:06:22.021Z</time></trkpt><trkpt lat="37.042308" lon="-3.6494923"><ele>826.0</ele><time>2026-03-07T16:06:23.009Z</time></trkpt><trkpt lat="37.0424384" lon="-3.6495735"><ele>826.0</ele><time>2026-03-07T16:06:24.011Z</time></trkpt><trkpt lat="37.0425488" lon="-3.64966"><ele>826.25</ele><time>2026-03-07T16:06:25.009Z</time></trkpt><trkpt lat="37.0426556" lon="-3.6497398"><ele>826.5</ele><time>2026-03-07T16:06:26.009Z</time></trkpt><trkpt lat="37.0427669" lon="-3.6498206"><ele>826.75</ele><time>2026-03-07T16:06:27.009Z</time></trkpt><trkpt lat="37.0428902" lon="-3.6498982"><ele>827.0</ele><time>2026-03-07T16:06:28.003Z</time></trkpt><trkpt lat="37.0430148" lon="-3.6499809"><ele>827.0</ele><time>2026-03-07T16:06:29.006Z</time></trkpt><trkpt lat="37.0431438" lon="-3.650068"><ele>827.0</ele><time>2026-03-07T16:06:30.004Z</time></trkpt><trkpt lat="37.0432786" lon="-3.6501617"><ele>827.0</ele><time>2026-03-07T16:06:31.019Z</time></trkpt><trkpt lat="37.0434099" lon="-3.6502703"><ele>826.6666666666667</ele><time>2026-03-07T16:06:32.008Z</time></trkpt><trkpt lat="37.0435414" lon="-3.6503767"><ele>826.3333333333333</ele><time>2026-03-07T16:06:33.021Z</time></trkpt><trkpt lat="37.0436735" lon="-3.6504759"><ele>826.0</ele><time>2026-03-07T16:06:34.019Z</time></trkpt><trkpt lat="37.0438053" lon="-3.650572"><ele>826.0</ele><time>2026-03-07T16:06:35.03Z</time></trkpt><trkpt lat="37.043936" lon="-3.650666"><ele>826.0</ele><time>2026-03-07T16:06:35.986Z</time></trkpt><trkpt lat="37.0440632" lon="-3.6507556"><ele>826.0</ele><time>2026-03-07T16:06:36.978Z</time></trkpt><trkpt lat="37.0441785" lon="-3.6508458"><ele>826.0</ele><time>2026-03-07T16:06:37.969Z</time></trkpt><trkpt lat="37.0442967" lon="-3.6509274"><ele>826.5</ele><time>2026-03-07T16:06:38.972Z</time></trkpt><trkpt lat="37.0444143" lon="-3.6510111"><ele>827.0</ele><time>2026-03-07T16:06:39.993Z</time></trkpt><trkpt lat="37.0445311" lon="-3.6510999"><ele>827.5</ele><time>2026-03-07T16:06:41.007Z</time></trkpt><trkpt lat="37.0446451" lon="-3.6511988"><ele>828.0</ele><time>2026-03-07T16:06:42.051Z</time></trkpt><trkpt lat="37.0447664" lon="-3.6512987"><ele>828.25</ele><time>2026-03-07T16:06:43.084Z</time></trkpt><trkpt lat="37.0448817" lon="-3.6514224"><ele>828.5</ele><time>2026-03-07T16:06:44.036Z</time></trkpt><trkpt lat="37.0450009" lon="-3.6515364"><ele>828.75</ele><time>2026-03-07T16:06:45.05Z</time></trkpt><trkpt lat="37.0451145" lon="-3.6516515"><ele>829.0</ele><time>2026-03-07T16:06:46.039Z</time></trkpt><trkpt lat="37.0452291" lon="-3.651773"><ele>829.3333333333333</ele><time>2026-03-07T16:06:47.038Z</time></trkpt><trkpt lat="37.0453381" lon="-3.6519094"><ele>829.6666666666667</ele><time>2026-03-07T16:06:48.016Z</time></trkpt><trkpt lat="37.0454433" lon="-3.6520505"><ele>830.0</ele><time>2026-03-07T16:06:49.025Z</time></trkpt><trkpt lat="37.04555" lon="-3.6521833"><ele>830.5</ele><time>2026-03-07T16:06:50.053Z</time></trkpt><trkpt lat="37.045658" lon="-3.6523099"><ele>831.0</ele><time>2026-03-07T16:06:51.071Z</time></trkpt><trkpt lat="37.0457622" lon="-3.6524395"><ele>831.5</ele><time>2026-03-07T16:06:52.056Z</time></trkpt><trkpt lat="37.0458635" lon="-3.6525691"><ele>832.0</ele><time>2026-03-07T16:06:53.051Z</time></trkpt><trkpt lat="37.0459603" lon="-3.6526991"><ele>832.4000000000001</ele><time>2026-03-07T16:06:54.031Z</time></trkpt><trkpt lat="37.0460477" lon="-3.6528184"><ele>832.8000000000001</ele><time>2026-03-07T16:06:55.006Z</time></trkpt><trkpt lat="37.0461253" lon="-3.6529257"><ele>833.2</ele><time>2026-03-07T16:06:56.011Z</time></trkpt><trkpt lat="37.0461939" lon="-3.6530197"><ele>833.6</ele><time>2026-03-07T16:06:57.001Z</time></trkpt><trkpt lat="37.0462584" lon="-3.653117"><ele>834.0</ele><time>2026-03-07T16:06:58.018Z</time></trkpt><trkpt lat="37.0463172" lon="-3.6532049"><ele>834.0</ele><time>2026-03-07T16:06:59.038Z</time></trkpt><trkpt lat="37.0463653" lon="-3.653297"><ele>834.0</ele><time>2026-03-07T16:07:00.043Z</time></trkpt><trkpt lat="37.0464119" lon="-3.6533825"><ele>834.0</ele><time>2026-03-07T16:07:01Z</time></trkpt><trkpt lat="37.0464535" lon="-3.6534502"><ele>834.0</ele><time>2026-03-07T16:07:02.008Z</time></trkpt><trkpt lat="37.0465019" lon="-3.6535527"><ele>834.0</ele><time>2026-03-07T16:07:04.023Z</time></trkpt><trkpt lat="37.0465135" lon="-3.6536466"><ele>834.0</ele><time>2026-03-07T16:07:17.012Z</time></trkpt><trkpt lat="37.0464776" lon="-3.6537366"><ele>834.4000000000001</ele><time>2026-03-07T16:07:19.015Z</time></trkpt><trkpt lat="37.0464142" lon="-3.6538309"><ele>834.8</ele><time>2026-03-07T16:07:21.012Z</time></trkpt><trkpt lat="37.0463845" lon="-3.6539754"><ele>835.2</ele><time>2026-03-07T16:07:23.01Z</time></trkpt><trkpt lat="37.0463927" lon="-3.6540543"><ele>835.5999999999999</ele><time>2026-03-07T16:07:24.005Z</time></trkpt><trkpt lat="37.0464278" lon="-3.6542017"><ele>836.0</ele><time>2026-03-07T16:07:26.023Z</time></trkpt><trkpt lat="37.0464528" lon="-3.6542807"><ele>836.0000000000001</ele><time>2026-03-07T16:07:27.001Z</time></trkpt><trkpt lat="37.0464535" lon="-3.6543799"><ele>836.0</ele><time>2026-03-07T16:07:28.004Z</time></trkpt><trkpt lat="37.0464442" lon="-3.6544867"><ele>836.0</ele><time>2026-03-07T16:07:29.004Z</time></trkpt><trkpt lat="37.0464375" lon="-3.6545848"><ele>836.0</ele><time>2026-03-07T16:07:30.005Z</time></trkpt><trkpt lat="37.046424" lon="-3.6546732"><ele>836.0000000000001</ele><time>2026-03-07T16:07:31.014Z</time></trkpt><trkpt lat="37.0464074" lon="-3.6548156"><ele>836.0</ele><time>2026-03-07T16:07:33.006Z</time></trkpt><trkpt lat="37.0463989" lon="-3.6549319"><ele>836.4285714285714</ele><time>2026-03-07T16:07:35.016Z</time></trkpt><trkpt lat="37.0463829" lon="-3.6550161"><ele>836.8571428571429</ele><time>2026-03-07T16:07:37.094Z</time></trkpt><trkpt lat="37.0463668" lon="-3.6551239"><ele>837.2857142857142</ele><time>2026-03-07T16:08:22.027Z</time></trkpt><trkpt lat="37.04633" lon="-3.655219"><ele>837.7142857142858</ele><time>2026-03-07T16:08:25.067Z</time></trkpt><trkpt lat="37.0463018" lon="-3.6552904"><ele>838.1428571428572</ele><time>2026-03-07T16:09:10.005Z</time></trkpt><trkpt lat="37.0463121" lon="-3.6553702"><ele>838.5714285714286</ele><time>2026-03-07T16:13:45.038Z</time></trkpt><trkpt lat="37.0462654" lon="-3.6554262"><ele>839.0</ele><time>2026-03-07T16:22:39.009Z</time></trkpt><trkpt lat="37.0461971" lon="-3.6553957"><ele>839.0000000000001</ele><time>2026-03-07T16:36:13.04Z</time></trkpt><trkpt lat="37.0462448" lon="-3.6554582"><ele>839.0</ele><time>2026-03-07T16:40:03.167Z</time></trkpt><trkpt lat="37.0463268" lon="-3.6553816"><ele>839.0</ele><time>2026-03-07T16:40:55.024Z</time></trkpt><trkpt lat="37.0463727" lon="-3.6552958"><ele>839.0</ele><time>2026-03-07T16:40:57.019Z</time></trkpt><trkpt lat="37.0464197" lon="-3.6552341"><ele>839.0000000000001</ele><time>2026-03-07T16:40:59.067Z</time></trkpt><trkpt lat="37.0464622" lon="-3.6551631"><ele>839.0</ele><time>2026-03-07T16:41:01.07Z</time></trkpt><trkpt lat="37.0464959" lon="-3.6550937"><ele>839.0</ele><time>2026-03-07T16:41:01.981Z</time></trkpt><trkpt lat="37.0465219" lon="-3.6550077"><ele>839.0</ele><time>2026-03-07T16:41:02.989Z</time></trkpt><trkpt lat="37.0465554" lon="-3.6549008"><ele>839.0</ele><time>2026-03-07T16:41:03.988Z</time></trkpt><trkpt lat="37.0465905" lon="-3.6547865"><ele>839.0</ele><time>2026-03-07T16:41:05.082Z</time></trkpt><trkpt lat="37.0466145" lon="-3.6546638"><ele>839.0</ele><time>2026-03-07T16:41:06.01Z</time></trkpt><trkpt lat="37.0466361" lon="-3.6545508"><ele>838.6666666666667</ele><time>2026-03-07T16:41:06.999Z</time></trkpt><trkpt lat="37.0466525" lon="-3.6544456"><ele>838.3333333333334</ele><time>2026-03-07T16:41:08.039Z</time></trkpt><trkpt lat="37.0466622" lon="-3.6543351"><ele>838.0</ele><time>2026-03-07T16:41:08.993Z</time></trkpt><trkpt lat="37.0466732" lon="-3.6542196"><ele>837.6666666666667</ele><time>2026-03-07T16:41:10.029Z</time></trkpt><trkpt lat="37.0466922" lon="-3.6541124"><ele>837.3333333333334</ele><time>2026-03-07T16:41:11.016Z</time></trkpt><trkpt lat="37.0467107" lon="-3.6540118"><ele>837.0</ele><time>2026-03-07T16:41:12.01Z</time></trkpt><trkpt lat="37.0467813" lon="-3.6539488"><ele>837.0</ele><time>2026-03-07T16:41:13.002Z</time></trkpt><trkpt lat="37.0468545" lon="-3.6538739"><ele>837.0</ele><time>2026-03-07T16:41:14.027Z</time></trkpt><trkpt lat="37.0469411" lon="-3.6537874"><ele>837.0</ele><time>2026-03-07T16:41:15.052Z</time></trkpt><trkpt lat="37.0470384" lon="-3.6536728"><ele>837.0</ele><time>2026-03-07T16:41:16.029Z</time></trkpt><trkpt lat="37.0471396" lon="-3.6535335"><ele>835.6666666666667</ele><time>2026-03-07T16:41:17.009Z</time></trkpt><trkpt lat="37.0472426" lon="-3.6533806"><ele>834.3333333333334</ele><time>2026-03-07T16:41:18.048Z</time></trkpt><trkpt lat="37.0473096" lon="-3.6531809"><ele>833.0</ele><time>2026-03-07T16:41:19.02Z</time></trkpt><trkpt lat="37.0473833" lon="-3.6529843"><ele>833.0</ele><time>2026-03-07T16:41:20.017Z</time></trkpt><trkpt lat="37.0474524" lon="-3.6528038"><ele>833.0</ele><time>2026-03-07T16:41:21.061Z</time></trkpt><trkpt lat="37.0475158" lon="-3.6526409"><ele>833.0</ele><time>2026-03-07T16:41:22.05Z</time></trkpt><trkpt lat="37.047574" lon="-3.652491"><ele>833.0</ele><time>2026-03-07T16:41:23.007Z</time></trkpt><trkpt lat="37.0476264" lon="-3.6523612"><ele>833.0</ele><time>2026-03-07T16:41:24.015Z</time></trkpt><trkpt lat="37.0476646" lon="-3.6522333"><ele>833.0</ele><time>2026-03-07T16:41:25.053Z</time></trkpt><trkpt lat="37.047689" lon="-3.6520993"><ele>833.0</ele><time>2026-03-07T16:41:26.056Z</time></trkpt><trkpt lat="37.0477006" lon="-3.6519548"><ele>833.0</ele><time>2026-03-07T16:41:27.017Z</time></trkpt><trkpt lat="37.0477083" lon="-3.6518146"><ele>833.0</ele><time>2026-03-07T16:41:28.008Z</time></trkpt><trkpt lat="37.0477426" lon="-3.6516972"><ele>833.0000000000001</ele><time>2026-03-07T16:41:29.047Z</time></trkpt><trkpt lat="37.0477677" lon="-3.651589"><ele>833.0</ele><time>2026-03-07T16:41:30.02Z</time></trkpt><trkpt lat="37.0478318" lon="-3.6515363"><ele>833.0</ele><time>2026-03-07T16:41:31.025Z</time></trkpt><trkpt lat="37.0478931" lon="-3.651512"><ele>833.0</ele><time>2026-03-07T16:41:32.024Z</time></trkpt><trkpt lat="37.0479606" lon="-3.6515204"><ele>833.0000000000001</ele><time>2026-03-07T16:41:33.006Z</time></trkpt><trkpt lat="37.0480266" lon="-3.6515567"><ele>833.0</ele><time>2026-03-07T16:41:34.036Z</time></trkpt><trkpt lat="37.0480805" lon="-3.6516291"><ele>833.0</ele><time>2026-03-07T16:41:35.015Z</time></trkpt><trkpt lat="37.0481144" lon="-3.6517326"><ele>833.0</ele><time>2026-03-07T16:41:36.026Z</time></trkpt><trkpt lat="37.0481565" lon="-3.6518572"><ele>833.0</ele><time>2026-03-07T16:41:37.025Z</time></trkpt><trkpt lat="37.0481823" lon="-3.652001"><ele>833.0</ele><time>2026-03-07T16:41:38.003Z</time></trkpt><trkpt lat="37.0482025" lon="-3.6521294"><ele>833.0</ele><time>2026-03-07T16:41:39.032Z</time></trkpt><trkpt lat="37.0482937" lon="-3.65223"><ele>832.3333333333334</ele><time>2026-03-07T16:41:40.005Z</time></trkpt><trkpt lat="37.0484034" lon="-3.6523383"><ele>831.6666666666667</ele><time>2026-03-07T16:41:41.053Z</time></trkpt><trkpt lat="37.0485413" lon="-3.6524866"><ele>831.0</ele><time>2026-03-07T16:41:42.013Z</time></trkpt><trkpt lat="37.0486732" lon="-3.6526669"><ele>830.0</ele><time>2026-03-07T16:41:43.014Z</time></trkpt><trkpt lat="37.0488139" lon="-3.6528514"><ele>829.0</ele><time>2026-03-07T16:41:44.011Z</time></trkpt><trkpt lat="37.0489647" lon="-3.653033"><ele>828.0</ele><time>2026-03-07T16:41:45.028Z</time></trkpt><trkpt lat="37.0491266" lon="-3.6532078"><ele>827.6666666666667</ele><time>2026-03-07T16:41:46.019Z</time></trkpt><trkpt lat="37.0493022" lon="-3.6533748"><ele>827.3333333333334</ele><time>2026-03-07T16:41:47.008Z</time></trkpt><trkpt lat="37.0494846" lon="-3.653541"><ele>827.0</ele><time>2026-03-07T16:41:48.036Z</time></trkpt><trkpt lat="37.0496686" lon="-3.6536997"><ele>827.5</ele><time>2026-03-07T16:41:49.007Z</time></trkpt><trkpt lat="37.0498534" lon="-3.6538562"><ele>828.0</ele><time>2026-03-07T16:41:50.02Z</time></trkpt><trkpt lat="37.0500486" lon="-3.6540074"><ele>828.0</ele><time>2026-03-07T16:41:51.017Z</time></trkpt><trkpt lat="37.0502566" lon="-3.6541305"><ele>828.0</ele><time>2026-03-07T16:41:52.016Z</time></trkpt><trkpt lat="37.0504682" lon="-3.6542551"><ele>828.0</ele><time>2026-03-07T16:41:53.026Z</time></trkpt><trkpt lat="37.0506854" lon="-3.654372"><ele>828.0</ele><time>2026-03-07T16:41:54.01Z</time></trkpt><trkpt lat="37.0509086" lon="-3.6544738"><ele>829.0</ele><time>2026-03-07T16:41:55.002Z</time></trkpt><trkpt lat="37.0511341" lon="-3.6545665"><ele>830.0</ele><time>2026-03-07T16:41:56.068Z</time></trkpt><trkpt lat="37.0513582" lon="-3.6546573"><ele>830.0</ele><time>2026-03-07T16:41:57.012Z</time></trkpt><trkpt lat="37.0515829" lon="-3.6547414"><ele>830.0</ele><time>2026-03-07T16:41:58.016Z</time></trkpt><trkpt lat="37.0518082" lon="-3.6548151"><ele>829.5</ele><time>2026-03-07T16:41:59.023Z</time></trkpt><trkpt lat="37.0520355" lon="-3.6548829"><ele>829.0</ele><time>2026-03-07T16:42:00.066Z</time></trkpt><trkpt lat="37.0522599" lon="-3.6549506"><ele>826.5</ele><time>2026-03-07T16:42:01.03Z</time></trkpt><trkpt lat="37.0524872" lon="-3.6550117"><ele>824.0</ele><time>2026-03-07T16:42:02.016Z</time></trkpt><trkpt lat="37.0529452" lon="-3.6551271"><ele>824.0</ele><time>2026-03-07T16:42:04.063Z</time></trkpt><trkpt lat="37.0531741" lon="-3.6551785"><ele>824.0</ele><time>2026-03-07T16:42:05.03Z</time></trkpt><trkpt lat="37.0534042" lon="-3.6552197"><ele>824.5</ele><time>2026-03-07T16:42:06.017Z</time></trkpt><trkpt lat="37.053634" lon="-3.6552553"><ele>825.0</ele><time>2026-03-07T16:42:07.022Z</time></trkpt><trkpt lat="37.0538597" lon="-3.6552888"><ele>825.5</ele><time>2026-03-07T16:42:08.008Z</time></trkpt><trkpt lat="37.0540886" lon="-3.6553061"><ele>826.0</ele><time>2026-03-07T16:42:09.003Z</time></trkpt><trkpt lat="37.0543146" lon="-3.6553109"><ele>825.0</ele><time>2026-03-07T16:42:10.046Z</time></trkpt><trkpt lat="37.0545399" lon="-3.6553222"><ele>824.0</ele><time>2026-03-07T16:42:11.037Z</time></trkpt><trkpt lat="37.0547641" lon="-3.6553469"><ele>824.0</ele><time>2026-03-07T16:42:12.007Z</time></trkpt><trkpt lat="37.0549859" lon="-3.65537"><ele>824.0</ele><time>2026-03-07T16:42:13.004Z</time></trkpt><trkpt lat="37.0552049" lon="-3.6553861"><ele>824.0</ele><time>2026-03-07T16:42:14.006Z</time></trkpt><trkpt lat="37.0554221" lon="-3.6553961"><ele>824.0</ele><time>2026-03-07T16:42:15.002Z</time></trkpt><trkpt lat="37.0556369" lon="-3.6554078"><ele>824.0</ele><time>2026-03-07T16:42:16.019Z</time></trkpt><trkpt lat="37.0558519" lon="-3.6554198"><ele>824.0</ele><time>2026-03-07T16:42:17.017Z</time></trkpt><trkpt lat="37.0560656" lon="-3.6554265"><ele>824.0</ele><time>2026-03-07T16:42:18.011Z</time></trkpt><trkpt lat="37.0562786" lon="-3.6554289"><ele>824.0</ele><time>2026-03-07T16:42:19.03Z</time></trkpt><trkpt lat="37.0564903" lon="-3.6554196"><ele>824.0</ele><time>2026-03-07T16:42:20.014Z</time></trkpt><trkpt lat="37.0567011" lon="-3.655402"><ele>824.3333333333334</ele><time>2026-03-07T16:42:21.021Z</time></trkpt><trkpt lat="37.0569137" lon="-3.6553851"><ele>824.6666666666667</ele><time>2026-03-07T16:42:22.017Z</time></trkpt><trkpt lat="37.0571277" lon="-3.6553673"><ele>825.0</ele><time>2026-03-07T16:42:23.046Z</time></trkpt><trkpt lat="37.0573432" lon="-3.6553472"><ele>825.3333333333333</ele><time>2026-03-07T16:42:24.016Z</time></trkpt><trkpt lat="37.0575598" lon="-3.6553265"><ele>825.6666666666666</ele><time>2026-03-07T16:42:25.021Z</time></trkpt><trkpt lat="37.0577774" lon="-3.6553019"><ele>826.0</ele><time>2026-03-07T16:42:26.015Z</time></trkpt><trkpt lat="37.0579948" lon="-3.6552674"><ele>827.0</ele><time>2026-03-07T16:42:27.017Z</time></trkpt><trkpt lat="37.0582111" lon="-3.6552284"><ele>828.0</ele><time>2026-03-07T16:42:28.04Z</time></trkpt><trkpt lat="37.0584265" lon="-3.6551881"><ele>829.0</ele><time>2026-03-07T16:42:29.03Z</time></trkpt><trkpt lat="37.0586428" lon="-3.6551413"><ele>829.0</ele><time>2026-03-07T16:42:30.002Z</time></trkpt><trkpt lat="37.0588606" lon="-3.6550912"><ele>829.0</ele><time>2026-03-07T16:42:31.015Z</time></trkpt><trkpt lat="37.0590782" lon="-3.6550344"><ele>829.0</ele><time>2026-03-07T16:42:32.011Z</time></trkpt><trkpt lat="37.0592981" lon="-3.6549771"><ele>828.0</ele><time>2026-03-07T16:42:33.012Z</time></trkpt><trkpt lat="37.0595135" lon="-3.6549008"><ele>827.0</ele><time>2026-03-07T16:42:34.002Z</time></trkpt><trkpt lat="37.0597316" lon="-3.654838"><ele>826.0</ele><time>2026-03-07T16:42:35.029Z</time></trkpt><trkpt lat="37.0599467" lon="-3.6547653"><ele>825.3333333333333</ele><time>2026-03-07T16:42:35.989Z</time></trkpt><trkpt lat="37.0601564" lon="-3.6546813"><ele>824.6666666666667</ele><time>2026-03-07T16:42:36.983Z</time></trkpt><trkpt lat="37.0603636" lon="-3.6545926"><ele>824.0</ele><time>2026-03-07T16:42:38.014Z</time></trkpt><trkpt lat="37.0605655" lon="-3.6544947"><ele>823.3333333333334</ele><time>2026-03-07T16:42:39.042Z</time></trkpt><trkpt lat="37.0607621" lon="-3.6543866"><ele>822.6666666666667</ele><time>2026-03-07T16:42:40.021Z</time></trkpt><trkpt lat="37.0609537" lon="-3.6542706"><ele>822.0</ele><time>2026-03-07T16:42:41.024Z</time></trkpt><trkpt lat="37.0611429" lon="-3.654139"><ele>824.0</ele><time>2026-03-07T16:42:42.021Z</time></trkpt><trkpt lat="37.0613338" lon="-3.6539996"><ele>826.0</ele><time>2026-03-07T16:42:43.071Z</time></trkpt><trkpt lat="37.0615229" lon="-3.6538548"><ele>828.0</ele><time>2026-03-07T16:42:44.021Z</time></trkpt><trkpt lat="37.0617088" lon="-3.6537088"><ele>830.0</ele><time>2026-03-07T16:42:45.021Z</time></trkpt><trkpt lat="37.0618932" lon="-3.6535619"><ele>832.0</ele><time>2026-03-07T16:42:46.014Z</time></trkpt><trkpt lat="37.0620698" lon="-3.6534102"><ele>834.0</ele><time>2026-03-07T16:42:47.023Z</time></trkpt><trkpt lat="37.0622462" lon="-3.6532651"><ele>834.0</ele><time>2026-03-07T16:42:47.983Z</time></trkpt><trkpt lat="37.0624172" lon="-3.6531166"><ele>834.0</ele><time>2026-03-07T16:42:48.987Z</time></trkpt><trkpt lat="37.0625918" lon="-3.6529959"><ele>834.0</ele><time>2026-03-07T16:42:50.002Z</time></trkpt><trkpt lat="37.06277" lon="-3.6528824"><ele>834.0</ele><time>2026-03-07T16:42:51.007Z</time></trkpt><trkpt lat="37.0629583" lon="-3.6527807"><ele>834.0</ele><time>2026-03-07T16:42:52.007Z</time></trkpt><trkpt lat="37.0631541" lon="-3.6526849"><ele>834.0</ele><time>2026-03-07T16:42:53.018Z</time></trkpt><trkpt lat="37.0633572" lon="-3.6526029"><ele>834.0</ele><time>2026-03-07T16:42:54.021Z</time></trkpt><trkpt lat="37.0635675" lon="-3.6525318"><ele>834.0</ele><time>2026-03-07T16:42:55.048Z</time></trkpt><trkpt lat="37.0637819" lon="-3.6524718"><ele>834.0</ele><time>2026-03-07T16:42:56.005Z</time></trkpt><trkpt lat="37.0640025" lon="-3.652432"><ele>836.5</ele><time>2026-03-07T16:42:57.014Z</time></trkpt><trkpt lat="37.0642289" lon="-3.6524123"><ele>839.0</ele><time>2026-03-07T16:42:58.033Z</time></trkpt><trkpt lat="37.0644578" lon="-3.6524157"><ele>839.0</ele><time>2026-03-07T16:42:59.031Z</time></trkpt><trkpt lat="37.0646912" lon="-3.6524288"><ele>839.0</ele><time>2026-03-07T16:43:00.055Z</time></trkpt><trkpt lat="37.0649255" lon="-3.6524578"><ele>838.5</ele><time>2026-03-07T16:43:01.025Z</time></trkpt><trkpt lat="37.0651602" lon="-3.6524928"><ele>838.0</ele><time>2026-03-07T16:43:02.036Z</time></trkpt><trkpt lat="37.0653966" lon="-3.6525418"><ele>838.0</ele><time>2026-03-07T16:43:03.038Z</time></trkpt><trkpt lat="37.0656297" lon="-3.6526139"><ele>838.0</ele><time>2026-03-07T16:43:04.025Z</time></trkpt><trkpt lat="37.0658608" lon="-3.6527085"><ele>838.0</ele><time>2026-03-07T16:43:05.017Z</time></trkpt><trkpt lat="37.0660812" lon="-3.6528174"><ele>838.0</ele><time>2026-03-07T16:43:06.024Z</time></trkpt><trkpt lat="37.0662948" lon="-3.6529492"><ele>838.0</ele><time>2026-03-07T16:43:07.026Z</time></trkpt><trkpt lat="37.0665082" lon="-3.6530877"><ele>838.0</ele><time>2026-03-07T16:43:08.024Z</time></trkpt><trkpt lat="37.06672" lon="-3.6532328"><ele>838.0</ele><time>2026-03-07T16:43:09.03Z</time></trkpt><trkpt lat="37.066931" lon="-3.653384"><ele>838.0</ele><time>2026-03-07T16:43:10.026Z</time></trkpt><trkpt lat="37.0671414" lon="-3.6535373"><ele>837.5</ele><time>2026-03-07T16:43:11.012Z</time></trkpt><trkpt lat="37.0673511" lon="-3.6536909"><ele>837.0</ele><time>2026-03-07T16:43:12.012Z</time></trkpt><trkpt lat="37.0675596" lon="-3.6538479"><ele>836.5</ele><time>2026-03-07T16:43:13.014Z</time></trkpt><trkpt lat="37.0677655" lon="-3.6540078"><ele>836.0</ele><time>2026-03-07T16:43:14.022Z</time></trkpt><trkpt lat="37.0679706" lon="-3.6541642"><ele>836.0</ele><time>2026-03-07T16:43:15.023Z</time></trkpt><trkpt lat="37.0681723" lon="-3.6543235"><ele>836.0</ele><time>2026-03-07T16:43:16.013Z</time></trkpt><trkpt lat="37.0683727" lon="-3.6544815"><ele>832.5</ele><time>2026-03-07T16:43:17.021Z</time></trkpt><trkpt lat="37.0685719" lon="-3.6546408"><ele>829.0</ele><time>2026-03-07T16:43:18.04Z</time></trkpt><trkpt lat="37.0687723" lon="-3.6547979"><ele>829.0</ele><time>2026-03-07T16:43:19.011Z</time></trkpt><trkpt lat="37.0689752" lon="-3.6549525"><ele>829.0</ele><time>2026-03-07T16:43:20.021Z</time></trkpt><trkpt lat="37.0691776" lon="-3.6551072"><ele>829.5</ele><time>2026-03-07T16:43:21.018Z</time></trkpt><trkpt lat="37.0693811" lon="-3.6552612"><ele>830.0</ele><time>2026-03-07T16:43:22.028Z</time></trkpt><trkpt lat="37.0695844" lon="-3.6554149"><ele>829.0</ele><time>2026-03-07T16:43:23.032Z</time></trkpt><trkpt lat="37.0697885" lon="-3.6555659"><ele>828.0</ele><time>2026-03-07T16:43:24.024Z</time></trkpt><trkpt lat="37.0699941" lon="-3.6557144"><ele>828.0</ele><time>2026-03-07T16:43:25.009Z</time></trkpt><trkpt lat="37.0701912" lon="-3.6558881"><ele>828.0</ele><time>2026-03-07T16:43:26.022Z</time></trkpt><trkpt lat="37.0703901" lon="-3.6560544"><ele>825.5</ele><time>2026-03-07T16:43:27.02Z</time></trkpt><trkpt lat="37.0705848" lon="-3.6562246"><ele>823.0</ele><time>2026-03-07T16:43:28.014Z</time></trkpt><trkpt lat="37.0707719" lon="-3.656409"><ele>825.0</ele><time>2026-03-07T16:43:29.008Z</time></trkpt><trkpt lat="37.0709455" lon="-3.6566059"><ele>827.0</ele><time>2026-03-07T16:43:30.041Z</time></trkpt><trkpt lat="37.0711196" lon="-3.6568055"><ele>825.0</ele><time>2026-03-07T16:43:31.014Z</time></trkpt><trkpt lat="37.071291" lon="-3.6570139"><ele>823.0</ele><time>2026-03-07T16:43:32.033Z</time></trkpt><trkpt lat="37.0714679" lon="-3.6572244"><ele>825.0</ele><time>2026-03-07T16:43:33.018Z</time></trkpt><trkpt lat="37.0716309" lon="-3.6574483"><ele>827.0</ele><time>2026-03-07T16:43:34.002Z</time></trkpt><trkpt lat="37.0717839" lon="-3.6576835"><ele>824.0</ele><time>2026-03-07T16:43:35.023Z</time></trkpt><trkpt lat="37.0719359" lon="-3.6579226"><ele>821.0</ele><time>2026-03-07T16:43:36.014Z</time></trkpt><trkpt lat="37.072085" lon="-3.6581662"><ele>821.0</ele><time>2026-03-07T16:43:37.029Z</time></trkpt><trkpt lat="37.0722344" lon="-3.6584073"><ele>821.0</ele><time>2026-03-07T16:43:38.012Z</time></trkpt><trkpt lat="37.0723803" lon="-3.658647"><ele>820.0</ele><time>2026-03-07T16:43:39.017Z</time></trkpt><trkpt lat="37.072527" lon="-3.6588834"><ele>819.0</ele><time>2026-03-07T16:43:40.022Z</time></trkpt><trkpt lat="37.0726771" lon="-3.6591161"><ele>819.0</ele><time>2026-03-07T16:43:41.018Z</time></trkpt><trkpt lat="37.0728326" lon="-3.6593382"><ele>819.0</ele><time>2026-03-07T16:43:42.031Z</time></trkpt><trkpt lat="37.0729909" lon="-3.6595555"><ele>818.5</ele><time>2026-03-07T16:43:43.022Z</time></trkpt><trkpt lat="37.0731537" lon="-3.6597655"><ele>818.0</ele><time>2026-03-07T16:43:44.019Z</time></trkpt><trkpt lat="37.0733188" lon="-3.6599704"><ele>818.0</ele><time>2026-03-07T16:43:45.005Z</time></trkpt><trkpt lat="37.073481" lon="-3.6601795"><ele>818.0</ele><time>2026-03-07T16:43:46.034Z</time></trkpt><trkpt lat="37.0736493" lon="-3.6603774"><ele>816.5</ele><time>2026-03-07T16:43:47.012Z</time></trkpt><trkpt lat="37.0738227" lon="-3.6605694"><ele>815.0</ele><time>2026-03-07T16:43:48.024Z</time></trkpt><trkpt lat="37.0739981" lon="-3.6607574"><ele>815.5</ele><time>2026-03-07T16:43:48.999Z</time></trkpt><trkpt lat="37.0741742" lon="-3.6609453"><ele>816.0</ele><time>2026-03-07T16:43:50.029Z</time></trkpt><trkpt lat="37.0743537" lon="-3.6611269"><ele>816.0</ele><time>2026-03-07T16:43:51.023Z</time></trkpt><trkpt lat="37.074535" lon="-3.6613072"><ele>816.0</ele><time>2026-03-07T16:43:52.022Z</time></trkpt><trkpt lat="37.0747216" lon="-3.6614783"><ele>816.0</ele><time>2026-03-07T16:43:53.018Z</time></trkpt><trkpt lat="37.0749144" lon="-3.6616366"><ele>816.0</ele><time>2026-03-07T16:43:54.007Z</time></trkpt><trkpt lat="37.0751105" lon="-3.6617911"><ele>816.0</ele><time>2026-03-07T16:43:55.041Z</time></trkpt><trkpt lat="37.0753053" lon="-3.6619453"><ele>816.0</ele><time>2026-03-07T16:43:56.018Z</time></trkpt><trkpt lat="37.0755032" lon="-3.6620906"><ele>813.0</ele><time>2026-03-07T16:43:57.004Z</time></trkpt><trkpt lat="37.075702" lon="-3.6622364"><ele>810.0</ele><time>2026-03-07T16:43:58.01Z</time></trkpt><trkpt lat="37.0759055" lon="-3.6623727"><ele>810.0</ele><time>2026-03-07T16:43:59.005Z</time></trkpt><trkpt lat="37.07611" lon="-3.6625043"><ele>810.0</ele><time>2026-03-07T16:44:00.015Z</time></trkpt><trkpt lat="37.0763192" lon="-3.662628"><ele>810.0</ele><time>2026-03-07T16:44:01.023Z</time></trkpt><trkpt lat="37.076533" lon="-3.6627432"><ele>810.0</ele><time>2026-03-07T16:44:02.027Z</time></trkpt><trkpt lat="37.0767475" lon="-3.6628566"><ele>812.0</ele><time>2026-03-07T16:44:03.026Z</time></trkpt><trkpt lat="37.0769645" lon="-3.6629643"><ele>814.0</ele><time>2026-03-07T16:44:04.079Z</time></trkpt><trkpt lat="37.0771841" lon="-3.6630665"><ele>814.0</ele><time>2026-03-07T16:44:05.01Z</time></trkpt><trkpt lat="37.0774053" lon="-3.6631653"><ele>814.0</ele><time>2026-03-07T16:44:06.012Z</time></trkpt><trkpt lat="37.0776273" lon="-3.6632621"><ele>816.5</ele><time>2026-03-07T16:44:07.003Z</time></trkpt><trkpt lat="37.0778511" lon="-3.6633528"><ele>819.0</ele><time>2026-03-07T16:44:08.017Z</time></trkpt><trkpt lat="37.0780759" lon="-3.6634387"><ele>815.5</ele><time>2026-03-07T16:44:09.009Z</time></trkpt><trkpt lat="37.0783027" lon="-3.6635133"><ele>812.0</ele><time>2026-03-07T16:44:10.011Z</time></trkpt><trkpt lat="37.0785311" lon="-3.6635751"><ele>812.0</ele><time>2026-03-07T16:44:11.015Z</time></trkpt><trkpt lat="37.0787597" lon="-3.6636304"><ele>812.0</ele><time>2026-03-07T16:44:12.008Z</time></trkpt><trkpt lat="37.0789877" lon="-3.6636823"><ele>808.0</ele><time>2026-03-07T16:44:13.036Z</time></trkpt><trkpt lat="37.079215" lon="-3.6637321"><ele>804.0</ele><time>2026-03-07T16:44:14.022Z</time></trkpt><trkpt lat="37.0794438" lon="-3.6637715"><ele>804.0</ele><time>2026-03-07T16:44:15.029Z</time></trkpt><trkpt lat="37.0796728" lon="-3.663806"><ele>804.0</ele><time>2026-03-07T16:44:16.054Z</time></trkpt><trkpt lat="37.0799022" lon="-3.6638268"><ele>802.5</ele><time>2026-03-07T16:44:17.021Z</time></trkpt><trkpt lat="37.0801329" lon="-3.6638494"><ele>801.0</ele><time>2026-03-07T16:44:18.021Z</time></trkpt><trkpt lat="37.0803619" lon="-3.6638718"><ele>801.0</ele><time>2026-03-07T16:44:19.017Z</time></trkpt><trkpt lat="37.0805914" lon="-3.66389"><ele>801.0</ele><time>2026-03-07T16:44:20.023Z</time></trkpt><trkpt lat="37.0808204" lon="-3.663915"><ele>802.5</ele><time>2026-03-07T16:44:21.012Z</time></trkpt><trkpt lat="37.0810475" lon="-3.6639359"><ele>804.0</ele><time>2026-03-07T16:44:22.019Z</time></trkpt><trkpt lat="37.0812751" lon="-3.6639561"><ele>804.0</ele><time>2026-03-07T16:44:23.029Z</time></trkpt><trkpt lat="37.0815029" lon="-3.6639799"><ele>804.0</ele><time>2026-03-07T16:44:24.034Z</time></trkpt><trkpt lat="37.0817302" lon="-3.6639979"><ele>806.0</ele><time>2026-03-07T16:44:25.028Z</time></trkpt><trkpt lat="37.081956" lon="-3.6640261"><ele>808.0</ele><time>2026-03-07T16:44:25.995Z</time></trkpt><trkpt lat="37.0821809" lon="-3.6640606"><ele>808.0</ele><time>2026-03-07T16:44:27.017Z</time></trkpt><trkpt lat="37.0824065" lon="-3.6641017"><ele>808.0</ele><time>2026-03-07T16:44:28.019Z</time></trkpt><trkpt lat="37.0826316" lon="-3.6641538"><ele>811.5</ele><time>2026-03-07T16:44:29.022Z</time></trkpt><trkpt lat="37.0828578" lon="-3.6642041"><ele>815.0</ele><time>2026-03-07T16:44:30.017Z</time></trkpt><trkpt lat="37.0830825" lon="-3.6642646"><ele>817.0</ele><time>2026-03-07T16:44:31.024Z</time></trkpt><trkpt lat="37.0833067" lon="-3.6643333"><ele>819.0</ele><time>2026-03-07T16:44:32.024Z</time></trkpt><trkpt lat="37.0835307" lon="-3.6644076"><ele>817.5</ele><time>2026-03-07T16:44:33.03Z</time></trkpt><trkpt lat="37.083754" lon="-3.6644865"><ele>816.0</ele><time>2026-03-07T16:44:34.035Z</time></trkpt><trkpt lat="37.0839783" lon="-3.6645617"><ele>815.5</ele><time>2026-03-07T16:44:35.042Z</time></trkpt><trkpt lat="37.0842006" lon="-3.6646427"><ele>815.0</ele><time>2026-03-07T16:44:36.021Z</time></trkpt><trkpt lat="37.0844172" lon="-3.6647415"><ele>815.0</ele><time>2026-03-07T16:44:37.015Z</time></trkpt><trkpt lat="37.0846325" lon="-3.6648453"><ele>815.0</ele><time>2026-03-07T16:44:38.025Z</time></trkpt><trkpt lat="37.0848469" lon="-3.6649478"><ele>813.0</ele><time>2026-03-07T16:44:39.013Z</time></trkpt><trkpt lat="37.0850581" lon="-3.6650633"><ele>811.0</ele><time>2026-03-07T16:44:40.014Z</time></trkpt><trkpt lat="37.0852702" lon="-3.6651817"><ele>812.0</ele><time>2026-03-07T16:44:41.022Z</time></trkpt><trkpt lat="37.0854826" lon="-3.6653058"><ele>813.0</ele><time>2026-03-07T16:44:42.013Z</time></trkpt><trkpt lat="37.0856936" lon="-3.6654359"><ele>808.5</ele><time>2026-03-07T16:44:43.02Z</time></trkpt><trkpt lat="37.0859017" lon="-3.6655739"><ele>804.0</ele><time>2026-03-07T16:44:44.02Z</time></trkpt><trkpt lat="37.0861085" lon="-3.665714"><ele>804.0</ele><time>2026-03-07T16:44:45.053Z</time></trkpt><trkpt lat="37.0863104" lon="-3.6658638"><ele>804.0</ele><time>2026-03-07T16:44:46.007Z</time></trkpt><trkpt lat="37.0865087" lon="-3.6660183"><ele>802.0</ele><time>2026-03-07T16:44:47.016Z</time></trkpt><trkpt lat="37.086704" lon="-3.6661771"><ele>800.0</ele><time>2026-03-07T16:44:48.029Z</time></trkpt><trkpt lat="37.0868969" lon="-3.6663383"><ele>800.0</ele><time>2026-03-07T16:44:49.018Z</time></trkpt><trkpt lat="37.0870845" lon="-3.666507"><ele>800.0</ele><time>2026-03-07T16:44:50.006Z</time></trkpt><trkpt lat="37.0872679" lon="-3.6666809"><ele>797.5</ele><time>2026-03-07T16:44:51.022Z</time></trkpt><trkpt lat="37.0874463" lon="-3.6668621"><ele>795.0</ele><time>2026-03-07T16:44:52.014Z</time></trkpt><trkpt lat="37.087627" lon="-3.6670408"><ele>794.5</ele><time>2026-03-07T16:44:53.047Z</time></trkpt><trkpt lat="37.0878053" lon="-3.6672201"><ele>794.0</ele><time>2026-03-07T16:44:54.028Z</time></trkpt><trkpt lat="37.0879759" lon="-3.6674123"><ele>794.0</ele><time>2026-03-07T16:44:55.031Z</time></trkpt><trkpt lat="37.0881465" lon="-3.6676047"><ele>794.0</ele><time>2026-03-07T16:44:56.038Z</time></trkpt><trkpt lat="37.0883137" lon="-3.6678027"><ele>791.0</ele><time>2026-03-07T16:44:57.028Z</time></trkpt><trkpt lat="37.0884758" lon="-3.6680103"><ele>788.0</ele><time>2026-03-07T16:44:58.018Z</time></trkpt><trkpt lat="37.0886387" lon="-3.6682178"><ele>788.0</ele><time>2026-03-07T16:44:59.043Z</time></trkpt><trkpt lat="37.0887967" lon="-3.6684305"><ele>788.0</ele><time>2026-03-07T16:45:00.073Z</time></trkpt><trkpt lat="37.0889502" lon="-3.6686476"><ele>787.0</ele><time>2026-03-07T16:45:01.012Z</time></trkpt><trkpt lat="37.089108" lon="-3.6688564"><ele>786.0</ele><time>2026-03-07T16:45:02.019Z</time></trkpt><trkpt lat="37.0892627" lon="-3.6690685"><ele>786.0</ele><time>2026-03-07T16:45:03.017Z</time></trkpt><trkpt lat="37.0894092" lon="-3.6692925"><ele>786.0</ele><time>2026-03-07T16:45:04.026Z</time></trkpt><trkpt lat="37.0895599" lon="-3.6695122"><ele>783.0</ele><time>2026-03-07T16:45:05.028Z</time></trkpt><trkpt lat="37.0897112" lon="-3.6697348"><ele>780.0</ele><time>2026-03-07T16:45:06.048Z</time></trkpt><trkpt lat="37.0898686" lon="-3.6699506"><ele>779.5</ele><time>2026-03-07T16:45:07.033Z</time></trkpt><trkpt lat="37.0900222" lon="-3.6701709"><ele>779.0</ele><time>2026-03-07T16:45:08.026Z</time></trkpt><trkpt lat="37.0901858" lon="-3.6703782"><ele>779.0</ele><time>2026-03-07T16:45:09.018Z</time></trkpt><trkpt lat="37.0903554" lon="-3.6705788"><ele>779.0</ele><time>2026-03-07T16:45:10.025Z</time></trkpt><trkpt lat="37.0905292" lon="-3.670775"><ele>779.0</ele><time>2026-03-07T16:45:11.03Z</time></trkpt><trkpt lat="37.0907051" lon="-3.6709678"><ele>779.0</ele><time>2026-03-07T16:45:12.02Z</time></trkpt><trkpt lat="37.0908833" lon="-3.6711549"><ele>778.5</ele><time>2026-03-07T16:45:13.028Z</time></trkpt><trkpt lat="37.0910641" lon="-3.6713362"><ele>778.0</ele><time>2026-03-07T16:45:14.011Z</time></trkpt><trkpt lat="37.0912493" lon="-3.6715102"><ele>778.0</ele><time>2026-03-07T16:45:15.007Z</time></trkpt><trkpt lat="37.0914344" lon="-3.6716843"><ele>778.0</ele><time>2026-03-07T16:45:16.013Z</time></trkpt><trkpt lat="37.0916214" lon="-3.6718514"><ele>777.0</ele><time>2026-03-07T16:45:17.006Z</time></trkpt><trkpt lat="37.0918138" lon="-3.6720083"><ele>776.0</ele><time>2026-03-07T16:45:18.018Z</time></trkpt><trkpt lat="37.0920126" lon="-3.6721564"><ele>776.0</ele><time>2026-03-07T16:45:19.022Z</time></trkpt><trkpt lat="37.0922147" lon="-3.6723001"><ele>776.0</ele><time>2026-03-07T16:45:20.029Z</time></trkpt><trkpt lat="37.0924185" lon="-3.6724411"><ele>776.5</ele><time>2026-03-07T16:45:21.01Z</time></trkpt><trkpt lat="37.0926235" lon="-3.6725774"><ele>777.0</ele><time>2026-03-07T16:45:22.013Z</time></trkpt><trkpt lat="37.0928318" lon="-3.6727043"><ele>776.5</ele><time>2026-03-07T16:45:23.025Z</time></trkpt><trkpt lat="37.0930429" lon="-3.6728237"><ele>776.0</ele><time>2026-03-07T16:45:24.025Z</time></trkpt><trkpt lat="37.0932567" lon="-3.6729395"><ele>776.0</ele><time>2026-03-07T16:45:25.061Z</time></trkpt><trkpt lat="37.0934753" lon="-3.6730407"><ele>776.0</ele><time>2026-03-07T16:45:26.021Z</time></trkpt><trkpt lat="37.0936962" lon="-3.6731392"><ele>776.0</ele><time>2026-03-07T16:45:27.025Z</time></trkpt><trkpt lat="37.0939168" lon="-3.6732355"><ele>776.0</ele><time>2026-03-07T16:45:28.032Z</time></trkpt><trkpt lat="37.0941413" lon="-3.6733205"><ele>782.5</ele><time>2026-03-07T16:45:29.059Z</time></trkpt><trkpt lat="37.0943668" lon="-3.6734003"><ele>789.0</ele><time>2026-03-07T16:45:30.01Z</time></trkpt><trkpt lat="37.0945932" lon="-3.6734745"><ele>789.0</ele><time>2026-03-07T16:45:31.013Z</time></trkpt><trkpt lat="37.0948204" lon="-3.6735391"><ele>789.0</ele><time>2026-03-07T16:45:32.014Z</time></trkpt><trkpt lat="37.095048" lon="-3.6735956"><ele>788.0</ele><time>2026-03-07T16:45:33.044Z</time></trkpt><trkpt lat="37.0952771" lon="-3.6736414"><ele>787.0</ele><time>2026-03-07T16:45:34.008Z</time></trkpt><trkpt lat="37.095507" lon="-3.6736791"><ele>787.0</ele><time>2026-03-07T16:45:35.02Z</time></trkpt><trkpt lat="37.0957386" lon="-3.6737123"><ele>787.0</ele><time>2026-03-07T16:45:36.012Z</time></trkpt><trkpt lat="37.0959702" lon="-3.6737408"><ele>788.5</ele><time>2026-03-07T16:45:37.017Z</time></trkpt><trkpt lat="37.0962025" lon="-3.6737612"><ele>790.0</ele><time>2026-03-07T16:45:38.018Z</time></trkpt><trkpt lat="37.0964382" lon="-3.673774"><ele>786.0</ele><time>2026-03-07T16:45:39.017Z</time></trkpt><trkpt lat="37.0966766" lon="-3.6737789"><ele>782.0</ele><time>2026-03-07T16:45:40.017Z</time></trkpt><trkpt lat="37.096915" lon="-3.6737753"><ele>782.0</ele><time>2026-03-07T16:45:41.003Z</time></trkpt><trkpt lat="37.0971537" lon="-3.673766"><ele>782.0</ele><time>2026-03-07T16:45:42.01Z</time></trkpt><trkpt lat="37.0973921" lon="-3.6737499"><ele>778.0</ele><time>2026-03-07T16:45:43.013Z</time></trkpt><trkpt lat="37.0976294" lon="-3.6737263"><ele>774.0</ele><time>2026-03-07T16:45:44.034Z</time></trkpt><trkpt lat="37.0978658" lon="-3.6736953"><ele>774.0</ele><time>2026-03-07T16:45:45.014Z</time></trkpt><trkpt lat="37.0981008" lon="-3.6736548"><ele>774.0</ele><time>2026-03-07T16:45:46.021Z</time></trkpt><trkpt lat="37.0983333" lon="-3.6736085"><ele>768.5</ele><time>2026-03-07T16:45:47.038Z</time></trkpt><trkpt lat="37.0985635" lon="-3.6735555"><ele>763.0</ele><time>2026-03-07T16:45:48.037Z</time></trkpt><trkpt lat="37.0987908" lon="-3.6735029"><ele>763.0</ele><time>2026-03-07T16:45:49.022Z</time></trkpt><trkpt lat="37.0990139" lon="-3.6734378"><ele>763.0</ele><time>2026-03-07T16:45:50.028Z</time></trkpt><trkpt lat="37.0992344" lon="-3.6733754"><ele>760.3333333333334</ele><time>2026-03-07T16:45:51.021Z</time></trkpt><trkpt lat="37.0994511" lon="-3.673298"><ele>757.6666666666666</ele><time>2026-03-07T16:45:52.031Z</time></trkpt><trkpt lat="37.0996674" lon="-3.6732247"><ele>755.0</ele><time>2026-03-07T16:45:53.027Z</time></trkpt><trkpt lat="37.099885" lon="-3.6731526"><ele>751.5</ele><time>2026-03-07T16:45:54.014Z</time></trkpt><trkpt lat="37.1001039" lon="-3.6730822"><ele>748.0</ele><time>2026-03-07T16:45:55.027Z</time></trkpt><trkpt lat="37.1003231" lon="-3.6730076"><ele>748.0</ele><time>2026-03-07T16:45:56.016Z</time></trkpt><trkpt lat="37.1005462" lon="-3.6729359"><ele>748.0</ele><time>2026-03-07T16:45:57.024Z</time></trkpt><trkpt lat="37.1007745" lon="-3.6728686"><ele>747.0</ele><time>2026-03-07T16:45:58.014Z</time></trkpt><trkpt lat="37.1010044" lon="-3.6728131"><ele>746.0</ele><time>2026-03-07T16:45:59.035Z</time></trkpt><trkpt lat="37.1012358" lon="-3.672757"><ele>743.5</ele><time>2026-03-07T16:46:00.046Z</time></trkpt><trkpt lat="37.1014712" lon="-3.6727068"><ele>741.0</ele><time>2026-03-07T16:46:01.066Z</time></trkpt><trkpt lat="37.1017085" lon="-3.6726633"><ele>741.0</ele><time>2026-03-07T16:46:02.06Z</time></trkpt><trkpt lat="37.1019424" lon="-3.6726301"><ele>741.0</ele><time>2026-03-07T16:46:03.047Z</time></trkpt><trkpt lat="37.1021779" lon="-3.6726055"><ele>741.0</ele><time>2026-03-07T16:46:04.023Z</time></trkpt><trkpt lat="37.1024124" lon="-3.6725929"><ele>741.0</ele><time>2026-03-07T16:46:05.013Z</time></trkpt><trkpt lat="37.1026499" lon="-3.672589"><ele>743.5</ele><time>2026-03-07T16:46:06.056Z</time></trkpt><trkpt lat="37.1028879" lon="-3.6725972"><ele>746.0</ele><time>2026-03-07T16:46:07.079Z</time></trkpt><trkpt lat="37.1031291" lon="-3.6725972"><ele>748.0</ele><time>2026-03-07T16:46:08.034Z</time></trkpt><trkpt lat="37.1033639" lon="-3.6726119"><ele>750.0</ele><time>2026-03-07T16:46:09.027Z</time></trkpt><trkpt lat="37.1035925" lon="-3.6726057"><ele>750.0</ele><time>2026-03-07T16:46:10.045Z</time></trkpt><trkpt lat="37.1038223" lon="-3.6726136"><ele>750.0</ele><time>2026-03-07T16:46:11.006Z</time></trkpt><trkpt lat="37.1040526" lon="-3.6726688"><ele>746.0</ele><time>2026-03-07T16:46:12.021Z</time></trkpt><trkpt lat="37.1042818" lon="-3.6727279"><ele>742.0</ele><time>2026-03-07T16:46:13.03Z</time></trkpt><trkpt lat="37.1045096" lon="-3.6727653"><ele>740.0</ele><time>2026-03-07T16:46:14.054Z</time></trkpt><trkpt lat="37.1047328" lon="-3.6728296"><ele>738.0</ele><time>2026-03-07T16:46:15.03Z</time></trkpt><trkpt lat="37.10495" lon="-3.6729023"><ele>736.3333333333334</ele><time>2026-03-07T16:46:16.006Z</time></trkpt><trkpt lat="37.1051647" lon="-3.6729766"><ele>734.6666666666667</ele><time>2026-03-07T16:46:17.021Z</time></trkpt><trkpt lat="37.1053755" lon="-3.6730664"><ele>733.0</ele><time>2026-03-07T16:46:18.018Z</time></trkpt><trkpt lat="37.1055862" lon="-3.6731622"><ele>736.0</ele><time>2026-03-07T16:46:19.034Z</time></trkpt><trkpt lat="37.1057994" lon="-3.6732637"><ele>739.0</ele><time>2026-03-07T16:46:20.006Z</time></trkpt><trkpt lat="37.1060183" lon="-3.6733683"><ele>739.0</ele><time>2026-03-07T16:46:21.032Z</time></trkpt><trkpt lat="37.1062375" lon="-3.6734821"><ele>739.0</ele><time>2026-03-07T16:46:22.022Z</time></trkpt><trkpt lat="37.1064553" lon="-3.6735982"><ele>737.0</ele><time>2026-03-07T16:46:23.037Z</time></trkpt><trkpt lat="37.1066704" lon="-3.6737221"><ele>735.0</ele><time>2026-03-07T16:46:24.024Z</time></trkpt><trkpt lat="37.1068815" lon="-3.6738524"><ele>735.0</ele><time>2026-03-07T16:46:25.002Z</time></trkpt><trkpt lat="37.1070892" lon="-3.6739897"><ele>735.0</ele><time>2026-03-07T16:46:26.002Z</time></trkpt><trkpt lat="37.107297" lon="-3.674131"><ele>734.5</ele><time>2026-03-07T16:46:27.01Z</time></trkpt><trkpt lat="37.1074978" lon="-3.6742809"><ele>734.0</ele><time>2026-03-07T16:46:28.011Z</time></trkpt><trkpt lat="37.1076923" lon="-3.6744367"><ele>735.0</ele><time>2026-03-07T16:46:29.014Z</time></trkpt><trkpt lat="37.107883" lon="-3.6745968"><ele>736.0</ele><time>2026-03-07T16:46:30.017Z</time></trkpt><trkpt lat="37.1080717" lon="-3.6747588"><ele>735.0</ele><time>2026-03-07T16:46:31.028Z</time></trkpt><trkpt lat="37.1082559" lon="-3.6749282"><ele>734.0</ele><time>2026-03-07T16:46:32.03Z</time></trkpt><trkpt lat="37.1084368" lon="-3.6751041"><ele>736.5</ele><time>2026-03-07T16:46:33.015Z</time></trkpt><trkpt lat="37.1086139" lon="-3.6752869"><ele>739.0</ele><time>2026-03-07T16:46:34.023Z</time></trkpt><trkpt lat="37.10879" lon="-3.6754715"><ele>739.0</ele><time>2026-03-07T16:46:35.037Z</time></trkpt><trkpt lat="37.1089656" lon="-3.6756595"><ele>739.0</ele><time>2026-03-07T16:46:36.03Z</time></trkpt><trkpt lat="37.1091347" lon="-3.6758567"><ele>739.0</ele><time>2026-03-07T16:46:37.03Z</time></trkpt><trkpt lat="37.1092969" lon="-3.6760613"><ele>739.0</ele><time>2026-03-07T16:46:38.019Z</time></trkpt><trkpt lat="37.1094557" lon="-3.6762689"><ele>739.0</ele><time>2026-03-07T16:46:39.028Z</time></trkpt><trkpt lat="37.1096094" lon="-3.6764825"><ele>739.0</ele><time>2026-03-07T16:46:40.024Z</time></trkpt><trkpt lat="37.109761" lon="-3.6766977"><ele>738.5</ele><time>2026-03-07T16:46:41.01Z</time></trkpt><trkpt lat="37.1099129" lon="-3.676913"><ele>738.0</ele><time>2026-03-07T16:46:42.034Z</time></trkpt><trkpt lat="37.1100644" lon="-3.6771284"><ele>739.5</ele><time>2026-03-07T16:46:43.033Z</time></trkpt><trkpt lat="37.1102175" lon="-3.6773389"><ele>741.0</ele><time>2026-03-07T16:46:44.021Z</time></trkpt><trkpt lat="37.1103664" lon="-3.6775535"><ele>741.0</ele><time>2026-03-07T16:46:45.019Z</time></trkpt><trkpt lat="37.1105208" lon="-3.6777607"><ele>741.0</ele><time>2026-03-07T16:46:46.017Z</time></trkpt><trkpt lat="37.1106779" lon="-3.6779638"><ele>742.6666666666666</ele><time>2026-03-07T16:46:47.022Z</time></trkpt><trkpt lat="37.1108368" lon="-3.6781612"><ele>744.3333333333333</ele><time>2026-03-07T16:46:48.034Z</time></trkpt><trkpt lat="37.1110063" lon="-3.6783423"><ele>746.0</ele><time>2026-03-07T16:46:49.029Z</time></trkpt><trkpt lat="37.1111769" lon="-3.6785199"><ele>746.0</ele><time>2026-03-07T16:46:50.028Z</time></trkpt><trkpt lat="37.1113503" lon="-3.6786922"><ele>746.0</ele><time>2026-03-07T16:46:51.089Z</time></trkpt><trkpt lat="37.1115239" lon="-3.6788639"><ele>746.0</ele><time>2026-03-07T16:46:52.024Z</time></trkpt><trkpt lat="37.1117007" lon="-3.6790284"><ele>746.0</ele><time>2026-03-07T16:46:53.014Z</time></trkpt><trkpt lat="37.1118784" lon="-3.6791881"><ele>746.0</ele><time>2026-03-07T16:46:54.019Z</time></trkpt><trkpt lat="37.1120639" lon="-3.6793315"><ele>746.0</ele><time>2026-03-07T16:46:55.022Z</time></trkpt><trkpt lat="37.1122518" lon="-3.6794697"><ele>749.3333333333333</ele><time>2026-03-07T16:46:56.014Z</time></trkpt><trkpt lat="37.1124422" lon="-3.6796018"><ele>752.6666666666666</ele><time>2026-03-07T16:46:57.017Z</time></trkpt><trkpt lat="37.1126341" lon="-3.6797329"><ele>756.0</ele><time>2026-03-07T16:46:58.026Z</time></trkpt><trkpt lat="37.1128291" lon="-3.6798574"><ele>756.0</ele><time>2026-03-07T16:46:59.039Z</time></trkpt><trkpt lat="37.1130255" lon="-3.6799805"><ele>756.0</ele><time>2026-03-07T16:47:00.084Z</time></trkpt><trkpt lat="37.1132229" lon="-3.6801"><ele>756.0</ele><time>2026-03-07T16:47:01.036Z</time></trkpt><trkpt lat="37.1134247" lon="-3.6802077"><ele>761.6666666666667</ele><time>2026-03-07T16:47:02.011Z</time></trkpt><trkpt lat="37.1136277" lon="-3.680314"><ele>767.3333333333334</ele><time>2026-03-07T16:47:03.022Z</time></trkpt><trkpt lat="37.1138336" lon="-3.6804147"><ele>773.0</ele><time>2026-03-07T16:47:04.023Z</time></trkpt><trkpt lat="37.1140446" lon="-3.6804991"><ele>776.5</ele><time>2026-03-07T16:47:05.018Z</time></trkpt><trkpt lat="37.1142625" lon="-3.6805689"><ele>780.0</ele><time>2026-03-07T16:47:06.02Z</time></trkpt><trkpt lat="37.1144791" lon="-3.6806491"><ele>780.0</ele><time>2026-03-07T16:47:07.055Z</time></trkpt><trkpt lat="37.1146977" lon="-3.6807206"><ele>780.0</ele><time>2026-03-07T16:47:08.029Z</time></trkpt><trkpt lat="37.1149205" lon="-3.6807816"><ele>782.0</ele><time>2026-03-07T16:47:09.026Z</time></trkpt><trkpt lat="37.1151422" lon="-3.6808466"><ele>784.0</ele><time>2026-03-07T16:47:10.016Z</time></trkpt><trkpt lat="37.1153646" lon="-3.6809115"><ele>784.0</ele><time>2026-03-07T16:47:11.056Z</time></trkpt><trkpt lat="37.1155883" lon="-3.6809786"><ele>784.0</ele><time>2026-03-07T16:47:12.035Z</time></trkpt><trkpt lat="37.1158112" lon="-3.6810492"><ele>781.0</ele><time>2026-03-07T16:47:13.021Z</time></trkpt><trkpt lat="37.1160359" lon="-3.6811199"><ele>778.0</ele><time>2026-03-07T16:47:14.032Z</time></trkpt><trkpt lat="37.1162638" lon="-3.6811858"><ele>778.0</ele><time>2026-03-07T16:47:15.014Z</time></trkpt><trkpt lat="37.1164906" lon="-3.6812573"><ele>778.0</ele><time>2026-03-07T16:47:16.012Z</time></trkpt><trkpt lat="37.1167184" lon="-3.6813259"><ele>776.0</ele><time>2026-03-07T16:47:17.004Z</time></trkpt><trkpt lat="37.1169469" lon="-3.6813929"><ele>774.0</ele><time>2026-03-07T16:47:18.035Z</time></trkpt><trkpt lat="37.1171754" lon="-3.6814643"><ele>774.0</ele><time>2026-03-07T16:47:19.015Z</time></trkpt><trkpt lat="37.1174018" lon="-3.6815494"><ele>774.0</ele><time>2026-03-07T16:47:20.03Z</time></trkpt><trkpt lat="37.1176269" lon="-3.6816308"><ele>769.5</ele><time>2026-03-07T16:47:21.014Z</time></trkpt><trkpt lat="37.1178516" lon="-3.6817114"><ele>765.0</ele><time>2026-03-07T16:47:22.023Z</time></trkpt><trkpt lat="37.1180764" lon="-3.6817902"><ele>764.0</ele><time>2026-03-07T16:47:23.025Z</time></trkpt><trkpt lat="37.1183012" lon="-3.6818729"><ele>763.0</ele><time>2026-03-07T16:47:24.007Z</time></trkpt><trkpt lat="37.1185253" lon="-3.681962"><ele>772.0</ele><time>2026-03-07T16:47:25.021Z</time></trkpt><trkpt lat="37.1187504" lon="-3.6820514"><ele>781.0</ele><time>2026-03-07T16:47:26.006Z</time></trkpt><trkpt lat="37.1189764" lon="-3.682142"><ele>783.5</ele><time>2026-03-07T16:47:27.02Z</time></trkpt><trkpt lat="37.1192019" lon="-3.6822396"><ele>786.0</ele><time>2026-03-07T16:47:28.023Z</time></trkpt><trkpt lat="37.119426" lon="-3.6823393"><ele>786.0</ele><time>2026-03-07T16:47:29.03Z</time></trkpt><trkpt lat="37.1196485" lon="-3.6824412"><ele>786.0</ele><time>2026-03-07T16:47:30.029Z</time></trkpt><trkpt lat="37.1198694" lon="-3.6825444"><ele>785.5</ele><time>2026-03-07T16:47:31.013Z</time></trkpt><trkpt lat="37.1200907" lon="-3.6826457"><ele>785.0</ele><time>2026-03-07T16:47:32.02Z</time></trkpt><trkpt lat="37.1203127" lon="-3.6827469"><ele>785.0</ele><time>2026-03-07T16:47:33.024Z</time></trkpt><trkpt lat="37.1205344" lon="-3.6828506"><ele>785.0</ele><time>2026-03-07T16:47:34.034Z</time></trkpt><trkpt lat="37.1207558" lon="-3.6829541"><ele>782.0</ele><time>2026-03-07T16:47:35.005Z</time></trkpt><trkpt lat="37.1209767" lon="-3.6830623"><ele>779.0</ele><time>2026-03-07T16:47:36.013Z</time></trkpt><trkpt lat="37.1211966" lon="-3.6831761"><ele>779.0</ele><time>2026-03-07T16:47:37.007Z</time></trkpt><trkpt lat="37.1214147" lon="-3.6832956"><ele>779.0</ele><time>2026-03-07T16:47:38.017Z</time></trkpt><trkpt lat="37.1216293" lon="-3.6834308"><ele>778.0</ele><time>2026-03-07T16:47:39.026Z</time></trkpt><trkpt lat="37.1218446" lon="-3.6835617"><ele>777.0</ele><time>2026-03-07T16:47:40.04Z</time></trkpt><trkpt lat="37.1220601" lon="-3.6836908"><ele>777.0</ele><time>2026-03-07T16:47:41.039Z</time></trkpt><trkpt lat="37.1222754" lon="-3.6838187"><ele>777.0</ele><time>2026-03-07T16:47:42.029Z</time></trkpt><trkpt lat="37.1224904" lon="-3.6839436"><ele>771.0</ele><time>2026-03-07T16:47:43.029Z</time></trkpt><trkpt lat="37.1227023" lon="-3.6840681"><ele>765.0</ele><time>2026-03-07T16:47:44.006Z</time></trkpt><trkpt lat="37.1229109" lon="-3.6841993"><ele>765.0</ele><time>2026-03-07T16:47:45.015Z</time></trkpt><trkpt lat="37.1231183" lon="-3.684331"><ele>765.0</ele><time>2026-03-07T16:47:46.018Z</time></trkpt><trkpt lat="37.1233227" lon="-3.6844692"><ele>762.5</ele><time>2026-03-07T16:47:47.025Z</time></trkpt><trkpt lat="37.1235268" lon="-3.6846059"><ele>760.0</ele><time>2026-03-07T16:47:48.019Z</time></trkpt><trkpt lat="37.1237334" lon="-3.6847335"><ele>760.0</ele><time>2026-03-07T16:47:49.019Z</time></trkpt><trkpt lat="37.1239337" lon="-3.6848739"><ele>760.0</ele><time>2026-03-07T16:47:50.016Z</time></trkpt><trkpt lat="37.1241328" lon="-3.6850208"><ele>757.5</ele><time>2026-03-07T16:47:51.015Z</time></trkpt><trkpt lat="37.1243348" lon="-3.6851675"><ele>755.0</ele><time>2026-03-07T16:47:52.023Z</time></trkpt><trkpt lat="37.1245364" lon="-3.6853228"><ele>755.0</ele><time>2026-03-07T16:47:53.022Z</time></trkpt><trkpt lat="37.1247389" lon="-3.685479"><ele>755.0</ele><time>2026-03-07T16:47:54.017Z</time></trkpt><trkpt lat="37.1249437" lon="-3.6856319"><ele>753.0</ele><time>2026-03-07T16:47:55.017Z</time></trkpt><trkpt lat="37.1251506" lon="-3.6857807"><ele>751.0</ele><time>2026-03-07T16:47:56.023Z</time></trkpt><trkpt lat="37.1253526" lon="-3.6859401"><ele>749.5</ele><time>2026-03-07T16:47:57.005Z</time></trkpt><trkpt lat="37.1255547" lon="-3.686102"><ele>748.0</ele><time>2026-03-07T16:47:58.024Z</time></trkpt><trkpt lat="37.1257565" lon="-3.6862667"><ele>744.5</ele><time>2026-03-07T16:47:59.023Z</time></trkpt><trkpt lat="37.1259594" lon="-3.6864313"><ele>741.0</ele><time>2026-03-07T16:48:00.072Z</time></trkpt><trkpt lat="37.126161" lon="-3.6865976"><ele>741.0</ele><time>2026-03-07T16:48:01.027Z</time></trkpt><trkpt lat="37.1263575" lon="-3.6867715"><ele>741.0</ele><time>2026-03-07T16:48:02.016Z</time></trkpt><trkpt lat="37.1265563" lon="-3.6869409"><ele>740.0</ele><time>2026-03-07T16:48:03.008Z</time></trkpt><trkpt lat="37.1267562" lon="-3.6871093"><ele>739.0</ele><time>2026-03-07T16:48:04.024Z</time></trkpt><trkpt lat="37.1269561" lon="-3.6872764"><ele>739.0</ele><time>2026-03-07T16:48:05.01Z</time></trkpt><trkpt lat="37.1271528" lon="-3.6874485"><ele>739.0</ele><time>2026-03-07T16:48:06.022Z</time></trkpt><trkpt lat="37.1273506" lon="-3.6876179"><ele>738.0</ele><time>2026-03-07T16:48:07.052Z</time></trkpt><trkpt lat="37.1275486" lon="-3.6877872"><ele>737.0</ele><time>2026-03-07T16:48:08.02Z</time></trkpt><trkpt lat="37.1277464" lon="-3.6879565"><ele>737.0</ele><time>2026-03-07T16:48:09.019Z</time></trkpt><trkpt lat="37.1279444" lon="-3.6881241"><ele>737.0</ele><time>2026-03-07T16:48:10.022Z</time></trkpt><trkpt lat="37.1281404" lon="-3.6882932"><ele>735.5</ele><time>2026-03-07T16:48:11.045Z</time></trkpt><trkpt lat="37.1283371" lon="-3.6884581"><ele>734.0</ele><time>2026-03-07T16:48:12.014Z</time></trkpt><trkpt lat="37.1285308" lon="-3.6886279"><ele>734.0</ele><time>2026-03-07T16:48:12.999Z</time></trkpt><trkpt lat="37.1287249" lon="-3.6887964"><ele>734.0</ele><time>2026-03-07T16:48:14.012Z</time></trkpt><trkpt lat="37.1289192" lon="-3.688965"><ele>733.0</ele><time>2026-03-07T16:48:15.024Z</time></trkpt><trkpt lat="37.1291149" lon="-3.6891321"><ele>732.0</ele><time>2026-03-07T16:48:16.025Z</time></trkpt><trkpt lat="37.1293113" lon="-3.6893009"><ele>735.5</ele><time>2026-03-07T16:48:17.022Z</time></trkpt><trkpt lat="37.1295123" lon="-3.6894568"><ele>739.0</ele><time>2026-03-07T16:48:18.014Z</time></trkpt><trkpt lat="37.1297093" lon="-3.6896255"><ele>736.5</ele><time>2026-03-07T16:48:19.007Z</time></trkpt><trkpt lat="37.1299124" lon="-3.6897798"><ele>734.0</ele><time>2026-03-07T16:48:20.024Z</time></trkpt><trkpt lat="37.1301122" lon="-3.689941"><ele>734.0</ele><time>2026-03-07T16:48:21.02Z</time></trkpt><trkpt lat="37.1303088" lon="-3.69011"><ele>734.0</ele><time>2026-03-07T16:48:22.019Z</time></trkpt><trkpt lat="37.1305059" lon="-3.6902801"><ele>735.5</ele><time>2026-03-07T16:48:23.032Z</time></trkpt><trkpt lat="37.1307014" lon="-3.6904549"><ele>737.0</ele><time>2026-03-07T16:48:24.022Z</time></trkpt><trkpt lat="37.1308982" lon="-3.6906285"><ele>730.5</ele><time>2026-03-07T16:48:25.007Z</time></trkpt><trkpt lat="37.131091" lon="-3.6908163"><ele>724.0</ele><time>2026-03-07T16:48:26.03Z</time></trkpt><trkpt lat="37.1312854" lon="-3.6909976"><ele>721.5</ele><time>2026-03-07T16:48:27.025Z</time></trkpt><trkpt lat="37.1314729" lon="-3.6911921"><ele>719.0</ele><time>2026-03-07T16:48:28.03Z</time></trkpt><trkpt lat="37.1316607" lon="-3.6913827"><ele>715.0</ele><time>2026-03-07T16:48:29.014Z</time></trkpt><trkpt lat="37.13185" lon="-3.6915681"><ele>711.0</ele><time>2026-03-07T16:48:30.022Z</time></trkpt><trkpt lat="37.1320376" lon="-3.6917535"><ele>712.5</ele><time>2026-03-07T16:48:31.018Z</time></trkpt><trkpt lat="37.1322213" lon="-3.691945"><ele>714.0</ele><time>2026-03-07T16:48:32.015Z</time></trkpt><trkpt lat="37.1324031" lon="-3.692139"><ele>715.5</ele><time>2026-03-07T16:48:33.005Z</time></trkpt><trkpt lat="37.1325834" lon="-3.6923358"><ele>717.0</ele><time>2026-03-07T16:48:34.013Z</time></trkpt><trkpt lat="37.1327617" lon="-3.6925344"><ele>717.0</ele><time>2026-03-07T16:48:35.03Z</time></trkpt><trkpt lat="37.1329413" lon="-3.6927285"><ele>717.0</ele><time>2026-03-07T16:48:36.027Z</time></trkpt><trkpt lat="37.1331193" lon="-3.6929259"><ele>715.5</ele><time>2026-03-07T16:48:37.021Z</time></trkpt><trkpt lat="37.1332874" lon="-3.6931387"><ele>714.0</ele><time>2026-03-07T16:48:38.013Z</time></trkpt><trkpt lat="37.1334648" lon="-3.6933405"><ele>714.0</ele><time>2026-03-07T16:48:39.017Z</time></trkpt><trkpt lat="37.133635" lon="-3.6935501"><ele>714.0</ele><time>2026-03-07T16:48:40.02Z</time></trkpt><trkpt lat="37.1338067" lon="-3.6937558"><ele>714.0</ele><time>2026-03-07T16:48:41.025Z</time></trkpt><trkpt lat="37.1339742" lon="-3.6939663"><ele>714.0</ele><time>2026-03-07T16:48:42.007Z</time></trkpt><trkpt lat="37.1341369" lon="-3.6941837"><ele>710.0</ele><time>2026-03-07T16:48:43.018Z</time></trkpt><trkpt lat="37.1342998" lon="-3.6943994"><ele>706.0</ele><time>2026-03-07T16:48:44.011Z</time></trkpt><trkpt lat="37.1344663" lon="-3.6946091"><ele>706.0</ele><time>2026-03-07T16:48:45.012Z</time></trkpt><trkpt lat="37.1346234" lon="-3.6948291"><ele>706.0</ele><time>2026-03-07T16:48:46.027Z</time></trkpt><trkpt lat="37.1347783" lon="-3.6950509"><ele>702.0</ele><time>2026-03-07T16:48:47.018Z</time></trkpt><trkpt lat="37.1349315" lon="-3.6952752"><ele>698.0</ele><time>2026-03-07T16:48:48.026Z</time></trkpt><trkpt lat="37.1350853" lon="-3.6955016"><ele>698.0</ele><time>2026-03-07T16:48:49.03Z</time></trkpt><trkpt lat="37.1352387" lon="-3.6957283"><ele>698.0</ele><time>2026-03-07T16:48:50.025Z</time></trkpt><trkpt lat="37.1353888" lon="-3.695955"><ele>698.0</ele><time>2026-03-07T16:48:51.03Z</time></trkpt><trkpt lat="37.1355329" lon="-3.6961885"><ele>698.0</ele><time>2026-03-07T16:48:52.016Z</time></trkpt><trkpt lat="37.1356747" lon="-3.6964215"><ele>695.0</ele><time>2026-03-07T16:48:53.016Z</time></trkpt><trkpt lat="37.1358237" lon="-3.696645"><ele>692.0</ele><time>2026-03-07T16:48:54.027Z</time></trkpt><trkpt lat="37.1359663" lon="-3.6968761"><ele>692.0</ele><time>2026-03-07T16:48:55.017Z</time></trkpt><trkpt lat="37.1361116" lon="-3.6971057"><ele>692.0</ele><time>2026-03-07T16:48:56.003Z</time></trkpt><trkpt lat="37.1362561" lon="-3.6973369"><ele>692.0</ele><time>2026-03-07T16:48:57.016Z</time></trkpt><trkpt lat="37.1363958" lon="-3.6975722"><ele>692.0</ele><time>2026-03-07T16:48:58.013Z</time></trkpt><trkpt lat="37.1365373" lon="-3.6978044"><ele>694.0</ele><time>2026-03-07T16:48:59.019Z</time></trkpt><trkpt lat="37.1366766" lon="-3.6980367"><ele>696.0</ele><time>2026-03-07T16:49:00.061Z</time></trkpt><trkpt lat="37.1368169" lon="-3.6982667"><ele>696.0</ele><time>2026-03-07T16:49:01.031Z</time></trkpt><trkpt lat="37.1369525" lon="-3.6985001"><ele>696.0</ele><time>2026-03-07T16:49:02.029Z</time></trkpt><trkpt lat="37.1370878" lon="-3.6987359"><ele>696.5</ele><time>2026-03-07T16:49:03.024Z</time></trkpt><trkpt lat="37.1372206" lon="-3.698976"><ele>697.0</ele><time>2026-03-07T16:49:04.045Z</time></trkpt><trkpt lat="37.1373643" lon="-3.6992049"><ele>698.0</ele><time>2026-03-07T16:49:05.035Z</time></trkpt><trkpt lat="37.1375054" lon="-3.6994363"><ele>699.0</ele><time>2026-03-07T16:49:06.016Z</time></trkpt><trkpt lat="37.1376464" lon="-3.6996668"><ele>699.0</ele><time>2026-03-07T16:49:07.021Z</time></trkpt><trkpt lat="37.1377899" lon="-3.6998939"><ele>699.0</ele><time>2026-03-07T16:49:08.004Z</time></trkpt><trkpt lat="37.1379341" lon="-3.7001203"><ele>699.0</ele><time>2026-03-07T16:49:09.007Z</time></trkpt><trkpt lat="37.1380776" lon="-3.7003467"><ele>699.0</ele><time>2026-03-07T16:49:10.012Z</time></trkpt><trkpt lat="37.1382233" lon="-3.7005696"><ele>699.0</ele><time>2026-03-07T16:49:11.024Z</time></trkpt><trkpt lat="37.1383692" lon="-3.7007921"><ele>699.0</ele><time>2026-03-07T16:49:12.022Z</time></trkpt><trkpt lat="37.1385217" lon="-3.7010086"><ele>700.5</ele><time>2026-03-07T16:49:13.018Z</time></trkpt><trkpt lat="37.1386754" lon="-3.7012248"><ele>702.0</ele><time>2026-03-07T16:49:14.054Z</time></trkpt><trkpt lat="37.1388257" lon="-3.7014458"><ele>702.0</ele><time>2026-03-07T16:49:15.049Z</time></trkpt><trkpt lat="37.1389797" lon="-3.701663"><ele>702.0</ele><time>2026-03-07T16:49:16.026Z</time></trkpt><trkpt lat="37.1391369" lon="-3.7018759"><ele>704.5</ele><time>2026-03-07T16:49:17.067Z</time></trkpt><trkpt lat="37.1392963" lon="-3.7020859"><ele>707.0</ele><time>2026-03-07T16:49:18.011Z</time></trkpt><trkpt lat="37.1394549" lon="-3.7022964"><ele>707.0</ele><time>2026-03-07T16:49:19.017Z</time></trkpt><trkpt lat="37.1396148" lon="-3.7025065"><ele>707.0</ele><time>2026-03-07T16:49:20.023Z</time></trkpt><trkpt lat="37.1397784" lon="-3.7027141"><ele>706.0</ele><time>2026-03-07T16:49:21.032Z</time></trkpt><trkpt lat="37.139943" lon="-3.7029218"><ele>705.0</ele><time>2026-03-07T16:49:22.017Z</time></trkpt><trkpt lat="37.1401106" lon="-3.7031274"><ele>705.0</ele><time>2026-03-07T16:49:23.014Z</time></trkpt><trkpt lat="37.1402813" lon="-3.703329"><ele>705.0</ele><time>2026-03-07T16:49:24.013Z</time></trkpt><trkpt lat="37.140452" lon="-3.7035295"><ele>705.0</ele><time>2026-03-07T16:49:25.026Z</time></trkpt><trkpt lat="37.1406214" lon="-3.7037288"><ele>705.0</ele><time>2026-03-07T16:49:26.038Z</time></trkpt><trkpt lat="37.1407902" lon="-3.7039251"><ele>705.0</ele><time>2026-03-07T16:49:27.057Z</time></trkpt><trkpt lat="37.1409584" lon="-3.7041215"><ele>705.0</ele><time>2026-03-07T16:49:28.032Z</time></trkpt><trkpt lat="37.1411325" lon="-3.7043097"><ele>702.0</ele><time>2026-03-07T16:49:29.018Z</time></trkpt><trkpt lat="37.1413074" lon="-3.704497"><ele>699.0</ele><time>2026-03-07T16:49:30.023Z</time></trkpt><trkpt lat="37.1414834" lon="-3.7046843"><ele>699.5</ele><time>2026-03-07T16:49:31.022Z</time></trkpt><trkpt lat="37.141664" lon="-3.7048651"><ele>700.0</ele><time>2026-03-07T16:49:32.027Z</time></trkpt><trkpt lat="37.1418457" lon="-3.7050431"><ele>700.0</ele><time>2026-03-07T16:49:33.03Z</time></trkpt><trkpt lat="37.1420261" lon="-3.7052225"><ele>700.0</ele><time>2026-03-07T16:49:34.017Z</time></trkpt><trkpt lat="37.1422114" lon="-3.7053959"><ele>697.0</ele><time>2026-03-07T16:49:35.024Z</time></trkpt><trkpt lat="37.1423943" lon="-3.7055733"><ele>694.0</ele><time>2026-03-07T16:49:36.023Z</time></trkpt><trkpt lat="37.1425793" lon="-3.7057504"><ele>694.0</ele><time>2026-03-07T16:49:37.022Z</time></trkpt><trkpt lat="37.1427692" lon="-3.7059221"><ele>694.0</ele><time>2026-03-07T16:49:38.044Z</time></trkpt><trkpt lat="37.1429587" lon="-3.7060942"><ele>692.5</ele><time>2026-03-07T16:49:39.034Z</time></trkpt><trkpt lat="37.1431499" lon="-3.7062632"><ele>691.0</ele><time>2026-03-07T16:49:40.013Z</time></trkpt><trkpt lat="37.143342" lon="-3.7064305"><ele>691.0</ele><time>2026-03-07T16:49:41.016Z</time></trkpt><trkpt lat="37.1435353" lon="-3.7065953"><ele>691.0</ele><time>2026-03-07T16:49:42.017Z</time></trkpt><trkpt lat="37.1437311" lon="-3.706754"><ele>685.5</ele><time>2026-03-07T16:49:43.028Z</time></trkpt><trkpt lat="37.1439259" lon="-3.7069141"><ele>680.0</ele><time>2026-03-07T16:49:44.026Z</time></trkpt><trkpt lat="37.1441213" lon="-3.7070729"><ele>678.5</ele><time>2026-03-07T16:49:45.035Z</time></trkpt><trkpt lat="37.1443169" lon="-3.7072296"><ele>677.0</ele><time>2026-03-07T16:49:46.006Z</time></trkpt><trkpt lat="37.1445164" lon="-3.7073801"><ele>677.0</ele><time>2026-03-07T16:49:47.03Z</time></trkpt><trkpt lat="37.1447177" lon="-3.707525"><ele>677.0</ele><time>2026-03-07T16:49:48.034Z</time></trkpt><trkpt lat="37.1449177" lon="-3.7076743"><ele>675.0</ele><time>2026-03-07T16:49:49.034Z</time></trkpt><trkpt lat="37.1451218" lon="-3.7078142"><ele>673.0</ele><time>2026-03-07T16:49:50.085Z</time></trkpt><trkpt lat="37.1453244" lon="-3.7079569"><ele>673.0</ele><time>2026-03-07T16:49:51.02Z</time></trkpt><trkpt lat="37.1455264" lon="-3.7080974"><ele>673.0</ele><time>2026-03-07T16:49:52.013Z</time></trkpt><trkpt lat="37.1457288" lon="-3.7082334"><ele>671.5</ele><time>2026-03-07T16:49:53.023Z</time></trkpt><trkpt lat="37.1459303" lon="-3.7083697"><ele>670.0</ele><time>2026-03-07T16:49:54.02Z</time></trkpt><trkpt lat="37.1461322" lon="-3.7085066"><ele>674.0</ele><time>2026-03-07T16:49:55.011Z</time></trkpt><trkpt lat="37.1463311" lon="-3.7086488"><ele>678.0</ele><time>2026-03-07T16:49:56.025Z</time></trkpt><trkpt lat="37.1465339" lon="-3.7087796"><ele>675.0</ele><time>2026-03-07T16:49:57.012Z</time></trkpt><trkpt lat="37.1467386" lon="-3.7089067"><ele>672.0</ele><time>2026-03-07T16:49:58.01Z</time></trkpt><trkpt lat="37.1469388" lon="-3.7090436"><ele>672.0</ele><time>2026-03-07T16:49:59.022Z</time></trkpt><trkpt lat="37.1471479" lon="-3.7091629"><ele>672.0</ele><time>2026-03-07T16:50:00.024Z</time></trkpt><trkpt lat="37.1473586" lon="-3.709279"><ele>670.5</ele><time>2026-03-07T16:50:01.033Z</time></trkpt><trkpt lat="37.1475739" lon="-3.7093832"><ele>669.0</ele><time>2026-03-07T16:50:02.017Z</time></trkpt><trkpt lat="37.1477813" lon="-3.7095108"><ele>669.0</ele><time>2026-03-07T16:50:03.032Z</time></trkpt><trkpt lat="37.1479989" lon="-3.7096183"><ele>669.0</ele><time>2026-03-07T16:50:04.031Z</time></trkpt><trkpt lat="37.1482165" lon="-3.7097291"><ele>668.0</ele><time>2026-03-07T16:50:05.021Z</time></trkpt><trkpt lat="37.1484309" lon="-3.7098475"><ele>667.0</ele><time>2026-03-07T16:50:06.024Z</time></trkpt><trkpt lat="37.148648" lon="-3.7099578"><ele>667.0</ele><time>2026-03-07T16:50:07.04Z</time></trkpt><trkpt lat="37.1488703" lon="-3.7100543"><ele>667.0</ele><time>2026-03-07T16:50:08.003Z</time></trkpt><trkpt lat="37.1490924" lon="-3.7101512"><ele>668.0</ele><time>2026-03-07T16:50:09.022Z</time></trkpt><trkpt lat="37.1493079" lon="-3.7102637"><ele>669.0</ele><time>2026-03-07T16:50:10.001Z</time></trkpt><trkpt lat="37.1495282" lon="-3.7103653"><ele>669.0</ele><time>2026-03-07T16:50:11.004Z</time></trkpt><trkpt lat="37.1497504" lon="-3.7104618"><ele>669.0</ele><time>2026-03-07T16:50:12.014Z</time></trkpt><trkpt lat="37.1499766" lon="-3.7105472"><ele>668.5</ele><time>2026-03-07T16:50:13.006Z</time></trkpt><trkpt lat="37.150201" lon="-3.7106362"><ele>668.0</ele><time>2026-03-07T16:50:14.028Z</time></trkpt><trkpt lat="37.1504267" lon="-3.7107201"><ele>668.0</ele><time>2026-03-07T16:50:15.021Z</time></trkpt><trkpt lat="37.1506537" lon="-3.710802"><ele>668.0</ele><time>2026-03-07T16:50:16.016Z</time></trkpt><trkpt lat="37.150881" lon="-3.7108833"><ele>665.0</ele><time>2026-03-07T16:50:17.04Z</time></trkpt><trkpt lat="37.1511075" lon="-3.7109641"><ele>662.0</ele><time>2026-03-07T16:50:18.031Z</time></trkpt><trkpt lat="37.1513359" lon="-3.7110355"><ele>661.0</ele><time>2026-03-07T16:50:19.019Z</time></trkpt><trkpt lat="37.1515653" lon="-3.7111008"><ele>660.0</ele><time>2026-03-07T16:50:20.012Z</time></trkpt><trkpt lat="37.1517944" lon="-3.7111645"><ele>660.0</ele><time>2026-03-07T16:50:21.002Z</time></trkpt><trkpt lat="37.1520223" lon="-3.7112271"><ele>660.0</ele><time>2026-03-07T16:50:22.015Z</time></trkpt><trkpt lat="37.1522471" lon="-3.7112939"><ele>660.0</ele><time>2026-03-07T16:50:23.049Z</time></trkpt><trkpt lat="37.152472" lon="-3.7113547"><ele>660.0</ele><time>2026-03-07T16:50:24.031Z</time></trkpt><trkpt lat="37.1526952" lon="-3.7114222"><ele>660.0</ele><time>2026-03-07T16:50:25.006Z</time></trkpt><trkpt lat="37.1529219" lon="-3.7114803"><ele>660.0</ele><time>2026-03-07T16:50:26.025Z</time></trkpt><trkpt lat="37.1531478" lon="-3.7115385"><ele>659.0</ele><time>2026-03-07T16:50:27.038Z</time></trkpt><trkpt lat="37.153378" lon="-3.7115826"><ele>658.0</ele><time>2026-03-07T16:50:28.024Z</time></trkpt><trkpt lat="37.1536086" lon="-3.7116303"><ele>658.0</ele><time>2026-03-07T16:50:29.026Z</time></trkpt><trkpt lat="37.1538401" lon="-3.7116713"><ele>658.0</ele><time>2026-03-07T16:50:30.02Z</time></trkpt><trkpt lat="37.1540722" lon="-3.7117136"><ele>656.0</ele><time>2026-03-07T16:50:31.018Z</time></trkpt><trkpt lat="37.1543068" lon="-3.7117544"><ele>654.0</ele><time>2026-03-07T16:50:32.028Z</time></trkpt><trkpt lat="37.1545425" lon="-3.7117914"><ele>654.0</ele><time>2026-03-07T16:50:32.995Z</time></trkpt><trkpt lat="37.1547783" lon="-3.7118211"><ele>654.0</ele><time>2026-03-07T16:50:33.997Z</time></trkpt><trkpt lat="37.1550129" lon="-3.7118544"><ele>654.0</ele><time>2026-03-07T16:50:34.998Z</time></trkpt><trkpt lat="37.1552473" lon="-3.7118838"><ele>654.0</ele><time>2026-03-07T16:50:36.016Z</time></trkpt><trkpt lat="37.1554829" lon="-3.7119084"><ele>652.5</ele><time>2026-03-07T16:50:37.007Z</time></trkpt><trkpt lat="37.1557191" lon="-3.7119342"><ele>651.0</ele><time>2026-03-07T16:50:38.037Z</time></trkpt><trkpt lat="37.1559567" lon="-3.711958"><ele>651.0</ele><time>2026-03-07T16:50:39.013Z</time></trkpt><trkpt lat="37.1561949" lon="-3.7119769"><ele>651.0</ele><time>2026-03-07T16:50:40.023Z</time></trkpt><trkpt lat="37.1564339" lon="-3.7119909"><ele>650.5</ele><time>2026-03-07T16:50:41.044Z</time></trkpt><trkpt lat="37.1566723" lon="-3.7120099"><ele>650.0</ele><time>2026-03-07T16:50:42.016Z</time></trkpt><trkpt lat="37.1569109" lon="-3.7120138"><ele>650.0</ele><time>2026-03-07T16:50:43.018Z</time></trkpt><trkpt lat="37.1571474" lon="-3.7120167"><ele>650.0</ele><time>2026-03-07T16:50:44.02Z</time></trkpt><trkpt lat="37.157382" lon="-3.712018"><ele>648.0</ele><time>2026-03-07T16:50:45.011Z</time></trkpt><trkpt lat="37.1576161" lon="-3.7120247"><ele>646.0</ele><time>2026-03-07T16:50:46.036Z</time></trkpt><trkpt lat="37.1578519" lon="-3.7120196"><ele>646.0</ele><time>2026-03-07T16:50:47.059Z</time></trkpt><trkpt lat="37.1580859" lon="-3.712018"><ele>646.0</ele><time>2026-03-07T16:50:48.008Z</time></trkpt><trkpt lat="37.1583213" lon="-3.7120079"><ele>643.0</ele><time>2026-03-07T16:50:49.041Z</time></trkpt><trkpt lat="37.1585597" lon="-3.711988"><ele>640.0</ele><time>2026-03-07T16:50:50.039Z</time></trkpt><trkpt lat="37.1587976" lon="-3.7119793"><ele>638.0</ele><time>2026-03-07T16:50:51.015Z</time></trkpt><trkpt lat="37.1590358" lon="-3.7119594"><ele>636.0</ele><time>2026-03-07T16:50:52.029Z</time></trkpt><trkpt lat="37.1592716" lon="-3.7119416"><ele>636.0</ele><time>2026-03-07T16:50:53.025Z</time></trkpt><trkpt lat="37.1595055" lon="-3.7119217"><ele>636.0</ele><time>2026-03-07T16:50:54.028Z</time></trkpt><trkpt lat="37.1597378" lon="-3.7118985"><ele>634.5</ele><time>2026-03-07T16:50:55.023Z</time></trkpt><trkpt lat="37.1599684" lon="-3.7118758"><ele>633.0</ele><time>2026-03-07T16:50:56.022Z</time></trkpt><trkpt lat="37.1601993" lon="-3.7118538"><ele>633.0</ele><time>2026-03-07T16:50:57.009Z</time></trkpt><trkpt lat="37.1604291" lon="-3.7118287"><ele>633.0</ele><time>2026-03-07T16:50:58.02Z</time></trkpt><trkpt lat="37.1606578" lon="-3.7117972"><ele>631.5</ele><time>2026-03-07T16:50:59.039Z</time></trkpt><trkpt lat="37.1608852" lon="-3.7117584"><ele>630.0</ele><time>2026-03-07T16:51:00.074Z</time></trkpt><trkpt lat="37.1611127" lon="-3.7117187"><ele>625.0</ele><time>2026-03-07T16:51:01.101Z</time></trkpt><trkpt lat="37.161569" lon="-3.7116283"><ele>625.0</ele><time>2026-03-07T16:51:02.992Z</time></trkpt><trkpt lat="37.1617975" lon="-3.7115787"><ele>625.0</ele><time>2026-03-07T16:51:03.989Z</time></trkpt><trkpt lat="37.1620255" lon="-3.7115257"><ele>625.0</ele><time>2026-03-07T16:51:04.992Z</time></trkpt><trkpt lat="37.1622542" lon="-3.7114686"><ele>625.0</ele><time>2026-03-07T16:51:05.981Z</time></trkpt><trkpt lat="37.1624854" lon="-3.7114097"><ele>621.5</ele><time>2026-03-07T16:51:06.991Z</time></trkpt><trkpt lat="37.1627164" lon="-3.7113465"><ele>618.0</ele><time>2026-03-07T16:51:07.979Z</time></trkpt><trkpt lat="37.1629472" lon="-3.7112857"><ele>618.0</ele><time>2026-03-07T16:51:08.981Z</time></trkpt><trkpt lat="37.1631777" lon="-3.7112202"><ele>618.0</ele><time>2026-03-07T16:51:10.079Z</time></trkpt><trkpt lat="37.1634071" lon="-3.7111511"><ele>618.0</ele><time>2026-03-07T16:51:10.981Z</time></trkpt><trkpt lat="37.1636348" lon="-3.7110833"><ele>618.0</ele><time>2026-03-07T16:51:11.999Z</time></trkpt><trkpt lat="37.1638617" lon="-3.7110256"><ele>617.5</ele><time>2026-03-07T16:51:12.998Z</time></trkpt><trkpt lat="37.1640859" lon="-3.7109573"><ele>617.0</ele><time>2026-03-07T16:51:14.066Z</time></trkpt><trkpt lat="37.1643091" lon="-3.7108833"><ele>617.0</ele><time>2026-03-07T16:51:15.111Z</time></trkpt><trkpt lat="37.1645298" lon="-3.7108069"><ele>617.0</ele><time>2026-03-07T16:51:16.027Z</time></trkpt><trkpt lat="37.1647507" lon="-3.7107293"><ele>617.5</ele><time>2026-03-07T16:51:17.079Z</time></trkpt><trkpt lat="37.1649698" lon="-3.7106464"><ele>618.0</ele><time>2026-03-07T16:51:17.993Z</time></trkpt><trkpt lat="37.1651869" lon="-3.7105582"><ele>618.0</ele><time>2026-03-07T16:51:18.997Z</time></trkpt><trkpt lat="37.165403" lon="-3.7104719"><ele>618.0</ele><time>2026-03-07T16:51:19.995Z</time></trkpt><trkpt lat="37.1656201" lon="-3.7103825"><ele>617.5</ele><time>2026-03-07T16:51:21.078Z</time></trkpt><trkpt lat="37.165838" lon="-3.7102929"><ele>617.0</ele><time>2026-03-07T16:51:22.046Z</time></trkpt><trkpt lat="37.1660564" lon="-3.710207"><ele>616.0</ele><time>2026-03-07T16:51:23.023Z</time></trkpt><trkpt lat="37.1662729" lon="-3.7101116"><ele>615.0</ele><time>2026-03-07T16:51:24.028Z</time></trkpt><trkpt lat="37.1664902" lon="-3.7100136"><ele>615.0</ele><time>2026-03-07T16:51:25.033Z</time></trkpt><trkpt lat="37.1667064" lon="-3.7099128"><ele>615.0</ele><time>2026-03-07T16:51:26.024Z</time></trkpt><trkpt lat="37.1669223" lon="-3.709809"><ele>615.0</ele><time>2026-03-07T16:51:27.008Z</time></trkpt><trkpt lat="37.1671369" lon="-3.7096986"><ele>615.0</ele><time>2026-03-07T16:51:28.025Z</time></trkpt><trkpt lat="37.1673512" lon="-3.70959"><ele>613.5</ele><time>2026-03-07T16:51:29.04Z</time></trkpt><trkpt lat="37.1675656" lon="-3.7094825"><ele>612.0</ele><time>2026-03-07T16:51:30.032Z</time></trkpt><trkpt lat="37.1677792" lon="-3.7093708"><ele>610.0</ele><time>2026-03-07T16:51:31.038Z</time></trkpt><trkpt lat="37.1679924" lon="-3.7092579"><ele>608.0</ele><time>2026-03-07T16:51:32.022Z</time></trkpt><trkpt lat="37.1682056" lon="-3.7091473"><ele>607.5</ele><time>2026-03-07T16:51:33.036Z</time></trkpt><trkpt lat="37.1684175" lon="-3.7090346"><ele>607.0</ele><time>2026-03-07T16:51:34.071Z</time></trkpt><trkpt lat="37.1686294" lon="-3.708921"><ele>607.0</ele><time>2026-03-07T16:51:35.075Z</time></trkpt><trkpt lat="37.1688424" lon="-3.7088061"><ele>607.0</ele><time>2026-03-07T16:51:36.119Z</time></trkpt><trkpt lat="37.1690567" lon="-3.7086957"><ele>607.5</ele><time>2026-03-07T16:51:37.019Z</time></trkpt><trkpt lat="37.1692706" lon="-3.7085812"><ele>608.0</ele><time>2026-03-07T16:51:38.018Z</time></trkpt><trkpt lat="37.1694852" lon="-3.7084708"><ele>608.0</ele><time>2026-03-07T16:51:39.023Z</time></trkpt><trkpt lat="37.169699" lon="-3.7083583"><ele>608.0</ele><time>2026-03-07T16:51:40.012Z</time></trkpt><trkpt lat="37.1699117" lon="-3.7082448"><ele>606.0</ele><time>2026-03-07T16:51:41.006Z</time></trkpt><trkpt lat="37.1701246" lon="-3.7081303"><ele>604.0</ele><time>2026-03-07T16:51:42.015Z</time></trkpt><trkpt lat="37.1703375" lon="-3.7080165"><ele>604.0</ele><time>2026-03-07T16:51:43.019Z</time></trkpt><trkpt lat="37.1705495" lon="-3.7079031"><ele>604.0</ele><time>2026-03-07T16:51:44.018Z</time></trkpt><trkpt lat="37.1707615" lon="-3.7077892"><ele>604.5</ele><time>2026-03-07T16:51:45.024Z</time></trkpt><trkpt lat="37.1709739" lon="-3.707675"><ele>605.0</ele><time>2026-03-07T16:51:46.024Z</time></trkpt><trkpt lat="37.1711852" lon="-3.7075628"><ele>605.0</ele><time>2026-03-07T16:51:47.02Z</time></trkpt><trkpt lat="37.1713946" lon="-3.7074475"><ele>605.0</ele><time>2026-03-07T16:51:48.027Z</time></trkpt><trkpt lat="37.1716042" lon="-3.707333"><ele>604.0</ele><time>2026-03-07T16:51:49.033Z</time></trkpt><trkpt lat="37.1718133" lon="-3.7072136"><ele>603.0</ele><time>2026-03-07T16:51:50.023Z</time></trkpt><trkpt lat="37.1720231" lon="-3.7070991"><ele>603.0</ele><time>2026-03-07T16:51:51.026Z</time></trkpt><trkpt lat="37.1722335" lon="-3.7069864"><ele>603.0</ele><time>2026-03-07T16:51:52.015Z</time></trkpt><trkpt lat="37.172444" lon="-3.7068758"><ele>601.5</ele><time>2026-03-07T16:51:53.021Z</time></trkpt><trkpt lat="37.172652" lon="-3.7067637"><ele>600.0</ele><time>2026-03-07T16:51:54.024Z</time></trkpt><trkpt lat="37.1728576" lon="-3.7066509"><ele>600.0</ele><time>2026-03-07T16:51:55.02Z</time></trkpt><trkpt lat="37.173064" lon="-3.7065405"><ele>600.0</ele><time>2026-03-07T16:51:56.006Z</time></trkpt><trkpt lat="37.1732703" lon="-3.7064309"><ele>600.0</ele><time>2026-03-07T16:51:57.04Z</time></trkpt><trkpt lat="37.1734767" lon="-3.7063227"><ele>599.0</ele><time>2026-03-07T16:51:58.024Z</time></trkpt><trkpt lat="37.1736841" lon="-3.7062111"><ele>598.0</ele><time>2026-03-07T16:51:59.04Z</time></trkpt><trkpt lat="37.1738929" lon="-3.7060949"><ele>596.0</ele><time>2026-03-07T16:52:00.029Z</time></trkpt><trkpt lat="37.1741105" lon="-3.7059869"><ele>594.0</ele><time>2026-03-07T16:52:01.032Z</time></trkpt><trkpt lat="37.1743264" lon="-3.7058726"><ele>594.0</ele><time>2026-03-07T16:52:02.024Z</time></trkpt><trkpt lat="37.1745422" lon="-3.7057565"><ele>594.0</ele><time>2026-03-07T16:52:03.022Z</time></trkpt><trkpt lat="37.1747584" lon="-3.7056386"><ele>594.0</ele><time>2026-03-07T16:52:04.018Z</time></trkpt><trkpt lat="37.1749739" lon="-3.7055171"><ele>594.0</ele><time>2026-03-07T16:52:05.016Z</time></trkpt><trkpt lat="37.1751907" lon="-3.705397"><ele>594.0</ele><time>2026-03-07T16:52:05.991Z</time></trkpt><trkpt lat="37.1754048" lon="-3.7052692"><ele>594.0</ele><time>2026-03-07T16:52:06.996Z</time></trkpt><trkpt lat="37.1756215" lon="-3.7051452"><ele>593.5</ele><time>2026-03-07T16:52:08.009Z</time></trkpt><trkpt lat="37.1758322" lon="-3.7050148"><ele>593.0</ele><time>2026-03-07T16:52:09.032Z</time></trkpt><trkpt lat="37.1760425" lon="-3.7048858"><ele>593.0</ele><time>2026-03-07T16:52:10.06Z</time></trkpt><trkpt lat="37.1762495" lon="-3.7047525"><ele>593.0</ele><time>2026-03-07T16:52:11.029Z</time></trkpt><trkpt lat="37.1764553" lon="-3.7046172"><ele>593.5</ele><time>2026-03-07T16:52:12.02Z</time></trkpt><trkpt lat="37.1766599" lon="-3.7044827"><ele>594.0</ele><time>2026-03-07T16:52:13.022Z</time></trkpt><trkpt lat="37.1768617" lon="-3.7043448"><ele>594.0</ele><time>2026-03-07T16:52:14.027Z</time></trkpt><trkpt lat="37.1770623" lon="-3.7042035"><ele>594.0</ele><time>2026-03-07T16:52:15.03Z</time></trkpt><trkpt lat="37.1772603" lon="-3.7040583"><ele>594.0</ele><time>2026-03-07T16:52:16.037Z</time></trkpt><trkpt lat="37.1774551" lon="-3.7039083"><ele>594.0</ele><time>2026-03-07T16:52:17.021Z</time></trkpt><trkpt lat="37.1776458" lon="-3.7037561"><ele>594.0</ele><time>2026-03-07T16:52:18.023Z</time></trkpt><trkpt lat="37.1778365" lon="-3.7035984"><ele>594.0</ele><time>2026-03-07T16:52:19.005Z</time></trkpt><trkpt lat="37.1780246" lon="-3.7034378"><ele>594.5</ele><time>2026-03-07T16:52:20.015Z</time></trkpt><trkpt lat="37.1782123" lon="-3.7032743"><ele>595.0</ele><time>2026-03-07T16:52:21.001Z</time></trkpt><trkpt lat="37.1784019" lon="-3.7031111"><ele>595.0</ele><time>2026-03-07T16:52:22.006Z</time></trkpt><trkpt lat="37.1785888" lon="-3.70294"><ele>595.0</ele><time>2026-03-07T16:52:23.01Z</time></trkpt><trkpt lat="37.1787758" lon="-3.7027655"><ele>595.5</ele><time>2026-03-07T16:52:24.009Z</time></trkpt><trkpt lat="37.1789614" lon="-3.7025892"><ele>596.0</ele><time>2026-03-07T16:52:25.029Z</time></trkpt><trkpt lat="37.1791455" lon="-3.7024123"><ele>595.0</ele><time>2026-03-07T16:52:26.02Z</time></trkpt><trkpt lat="37.1793266" lon="-3.7022318"><ele>594.0</ele><time>2026-03-07T16:52:27.026Z</time></trkpt><trkpt lat="37.1795091" lon="-3.7020519"><ele>594.0</ele><time>2026-03-07T16:52:28.044Z</time></trkpt><trkpt lat="37.1796913" lon="-3.7018705"><ele>594.0</ele><time>2026-03-07T16:52:29.038Z</time></trkpt><trkpt lat="37.1798732" lon="-3.7016872"><ele>593.0</ele><time>2026-03-07T16:52:30.047Z</time></trkpt><trkpt lat="37.1800532" lon="-3.7015011"><ele>592.0</ele><time>2026-03-07T16:52:31.075Z</time></trkpt><trkpt lat="37.1802358" lon="-3.7013171"><ele>592.0</ele><time>2026-03-07T16:52:32.003Z</time></trkpt><trkpt lat="37.1804161" lon="-3.701134"><ele>592.0</ele><time>2026-03-07T16:52:33.012Z</time></trkpt><trkpt lat="37.1805931" lon="-3.7009489"><ele>592.5</ele><time>2026-03-07T16:52:34.026Z</time></trkpt><trkpt lat="37.1807672" lon="-3.7007637"><ele>593.0</ele><time>2026-03-07T16:52:35.011Z</time></trkpt><trkpt lat="37.1809401" lon="-3.7005818"><ele>593.0</ele><time>2026-03-07T16:52:36.016Z</time></trkpt><trkpt lat="37.1811121" lon="-3.7004019"><ele>593.0</ele><time>2026-03-07T16:52:37.018Z</time></trkpt><trkpt lat="37.1812828" lon="-3.7002227"><ele>593.0</ele><time>2026-03-07T16:52:38.031Z</time></trkpt><trkpt lat="37.1814506" lon="-3.700046"><ele>593.0</ele><time>2026-03-07T16:52:39.018Z</time></trkpt><trkpt lat="37.1816164" lon="-3.6998739"><ele>593.0</ele><time>2026-03-07T16:52:40.021Z</time></trkpt><trkpt lat="37.181781" lon="-3.6997059"><ele>593.0</ele><time>2026-03-07T16:52:41.03Z</time></trkpt><trkpt lat="37.1819444" lon="-3.6995422"><ele>592.6666666666666</ele><time>2026-03-07T16:52:42.019Z</time></trkpt><trkpt lat="37.1821057" lon="-3.6993809"><ele>592.3333333333334</ele><time>2026-03-07T16:52:43.034Z</time></trkpt><trkpt lat="37.182261" lon="-3.6992184"><ele>592.0</ele><time>2026-03-07T16:52:44.024Z</time></trkpt><trkpt lat="37.1824041" lon="-3.6990495"><ele>591.6666666666667</ele><time>2026-03-07T16:52:45.058Z</time></trkpt><trkpt lat="37.1825331" lon="-3.6988693"><ele>591.3333333333334</ele><time>2026-03-07T16:52:46.021Z</time></trkpt><trkpt lat="37.1826478" lon="-3.6986716"><ele>591.0</ele><time>2026-03-07T16:52:47.027Z</time></trkpt><trkpt lat="37.1827457" lon="-3.6984628"><ele>590.6666666666666</ele><time>2026-03-07T16:52:48.01Z</time></trkpt><trkpt lat="37.182832" lon="-3.6982404"><ele>590.3333333333333</ele><time>2026-03-07T16:52:49.028Z</time></trkpt><trkpt lat="37.1829054" lon="-3.6980041"><ele>590.0</ele><time>2026-03-07T16:52:50.032Z</time></trkpt><trkpt lat="37.1829666" lon="-3.697759"><ele>590.3333333333333</ele><time>2026-03-07T16:52:51.031Z</time></trkpt><trkpt lat="37.1830279" lon="-3.6975113"><ele>590.6666666666666</ele><time>2026-03-07T16:52:52.016Z</time></trkpt><trkpt lat="37.1830915" lon="-3.6972629"><ele>591.0</ele><time>2026-03-07T16:52:53.021Z</time></trkpt><trkpt lat="37.1831611" lon="-3.6970183"><ele>592.0</ele><time>2026-03-07T16:52:54.029Z</time></trkpt><trkpt lat="37.1832558" lon="-3.6967872"><ele>593.0</ele><time>2026-03-07T16:52:55.035Z</time></trkpt><trkpt lat="37.1833737" lon="-3.6965758"><ele>594.0</ele><time>2026-03-07T16:52:56.05Z</time></trkpt><trkpt lat="37.1835102" lon="-3.6963823"><ele>594.0</ele><time>2026-03-07T16:52:57.007Z</time></trkpt><trkpt lat="37.1836526" lon="-3.6961989"><ele>594.0</ele><time>2026-03-07T16:52:58.022Z</time></trkpt><trkpt lat="37.1838025" lon="-3.6960263"><ele>594.0</ele><time>2026-03-07T16:52:59.033Z</time></trkpt><trkpt lat="37.1839678" lon="-3.6958758"><ele>592.6666666666666</ele><time>2026-03-07T16:53:00.056Z</time></trkpt><trkpt lat="37.1841372" lon="-3.6957394"><ele>591.3333333333333</ele><time>2026-03-07T16:53:01.003Z</time></trkpt><trkpt lat="37.1843205" lon="-3.6956255"><ele>590.0</ele><time>2026-03-07T16:53:02.059Z</time></trkpt><trkpt lat="37.1845137" lon="-3.6955384"><ele>590.0</ele><time>2026-03-07T16:53:03.013Z</time></trkpt><trkpt lat="37.1847154" lon="-3.6954691"><ele>590.0</ele><time>2026-03-07T16:53:04.026Z</time></trkpt><trkpt lat="37.1849218" lon="-3.6954231"><ele>590.0</ele><time>2026-03-07T16:53:05.017Z</time></trkpt><trkpt lat="37.1851309" lon="-3.6953998"><ele>590.0</ele><time>2026-03-07T16:53:05.997Z</time></trkpt><trkpt lat="37.1853457" lon="-3.6953922"><ele>590.0</ele><time>2026-03-07T16:53:07.031Z</time></trkpt><trkpt lat="37.185561" lon="-3.6954129"><ele>590.0</ele><time>2026-03-07T16:53:08.019Z</time></trkpt><trkpt lat="37.1857717" lon="-3.6954568"><ele>589.6666666666666</ele><time>2026-03-07T16:53:09.046Z</time></trkpt><trkpt lat="37.1859785" lon="-3.695511"><ele>589.3333333333334</ele><time>2026-03-07T16:53:10.027Z</time></trkpt><trkpt lat="37.1861861" lon="-3.6955552"><ele>589.0</ele><time>2026-03-07T16:53:11.041Z</time></trkpt><trkpt lat="37.1863975" lon="-3.695603"><ele>589.6666666666667</ele><time>2026-03-07T16:53:12.021Z</time></trkpt><trkpt lat="37.186605" lon="-3.6956596"><ele>590.3333333333334</ele><time>2026-03-07T16:53:13.05Z</time></trkpt><trkpt lat="37.1868099" lon="-3.695696"><ele>591.0</ele><time>2026-03-07T16:53:14.034Z</time></trkpt><trkpt lat="37.1870124" lon="-3.6957605"><ele>591.0</ele><time>2026-03-07T16:53:15.011Z</time></trkpt><trkpt lat="37.1872192" lon="-3.6958062"><ele>591.0</ele><time>2026-03-07T16:53:16.027Z</time></trkpt><trkpt lat="37.1874231" lon="-3.6958469"><ele>591.0</ele><time>2026-03-07T16:53:17.037Z</time></trkpt><trkpt lat="37.1876269" lon="-3.6958793"><ele>591.0</ele><time>2026-03-07T16:53:18.026Z</time></trkpt><trkpt lat="37.1878296" lon="-3.6959049"><ele>591.0</ele><time>2026-03-07T16:53:19.038Z</time></trkpt><trkpt lat="37.1880321" lon="-3.6959216"><ele>591.0</ele><time>2026-03-07T16:53:20.01Z</time></trkpt><trkpt lat="37.1882353" lon="-3.6959346"><ele>591.0</ele><time>2026-03-07T16:53:21.042Z</time></trkpt><trkpt lat="37.188442" lon="-3.6959456"><ele>591.0</ele><time>2026-03-07T16:53:22.016Z</time></trkpt><trkpt lat="37.1886484" lon="-3.6959447"><ele>591.0</ele><time>2026-03-07T16:53:23.001Z</time></trkpt><trkpt lat="37.1888572" lon="-3.6959311"><ele>590.0</ele><time>2026-03-07T16:53:24.037Z</time></trkpt><trkpt lat="37.1890658" lon="-3.695917"><ele>589.0</ele><time>2026-03-07T16:53:25.025Z</time></trkpt><trkpt lat="37.1892728" lon="-3.6958942"><ele>588.0</ele><time>2026-03-07T16:53:26.009Z</time></trkpt><trkpt lat="37.1894805" lon="-3.6958633"><ele>588.0</ele><time>2026-03-07T16:53:27.024Z</time></trkpt><trkpt lat="37.1896866" lon="-3.6958296"><ele>588.0</ele><time>2026-03-07T16:53:28.046Z</time></trkpt><trkpt lat="37.1898891" lon="-3.6957936"><ele>588.0</ele><time>2026-03-07T16:53:29.014Z</time></trkpt><trkpt lat="37.1900881" lon="-3.6957505"><ele>587.6666666666666</ele><time>2026-03-07T16:53:30.006Z</time></trkpt><trkpt lat="37.1902847" lon="-3.6956992"><ele>587.3333333333333</ele><time>2026-03-07T16:53:31.031Z</time></trkpt><trkpt lat="37.1904766" lon="-3.6956443"><ele>587.0</ele><time>2026-03-07T16:53:32.025Z</time></trkpt><trkpt lat="37.1906635" lon="-3.6955861"><ele>586.6666666666666</ele><time>2026-03-07T16:53:33.013Z</time></trkpt><trkpt lat="37.1908433" lon="-3.6955228"><ele>586.3333333333334</ele><time>2026-03-07T16:53:34.015Z</time></trkpt><trkpt lat="37.1910166" lon="-3.6954574"><ele>586.0</ele><time>2026-03-07T16:53:35.03Z</time></trkpt><trkpt lat="37.1911826" lon="-3.6953835"><ele>586.0</ele><time>2026-03-07T16:53:36.028Z</time></trkpt><trkpt lat="37.1913417" lon="-3.6953027"><ele>586.0</ele><time>2026-03-07T16:53:37.023Z</time></trkpt><trkpt lat="37.1914963" lon="-3.6952153"><ele>586.0</ele><time>2026-03-07T16:53:38.047Z</time></trkpt><trkpt lat="37.1916497" lon="-3.6951194"><ele>587.3333333333334</ele><time>2026-03-07T16:53:39.023Z</time></trkpt><trkpt lat="37.1918043" lon="-3.6950124"><ele>588.6666666666666</ele><time>2026-03-07T16:53:39.999Z</time></trkpt><trkpt lat="37.1919604" lon="-3.6948933"><ele>590.0</ele><time>2026-03-07T16:53:41.017Z</time></trkpt><trkpt lat="37.192089" lon="-3.6947378"><ele>590.0</ele><time>2026-03-07T16:53:42.024Z</time></trkpt><trkpt lat="37.1922003" lon="-3.6945728"><ele>590.0</ele><time>2026-03-07T16:53:43.027Z</time></trkpt><trkpt lat="37.1923009" lon="-3.6944021"><ele>590.0</ele><time>2026-03-07T16:53:44.028Z</time></trkpt><trkpt lat="37.1923875" lon="-3.6942141"><ele>590.0</ele><time>2026-03-07T16:53:45.008Z</time></trkpt><trkpt lat="37.1924749" lon="-3.6940044"><ele>590.0</ele><time>2026-03-07T16:53:46.032Z</time></trkpt><trkpt lat="37.192543" lon="-3.6937739"><ele>590.0</ele><time>2026-03-07T16:53:47.006Z</time></trkpt><trkpt lat="37.1926041" lon="-3.6935169"><ele>589.0</ele><time>2026-03-07T16:53:48.038Z</time></trkpt><trkpt lat="37.1926322" lon="-3.6932468"><ele>588.0</ele><time>2026-03-07T16:53:49.035Z</time></trkpt><trkpt lat="37.1926415" lon="-3.6929768"><ele>587.0</ele><time>2026-03-07T16:53:50.036Z</time></trkpt><trkpt lat="37.1926323" lon="-3.6927043"><ele>587.0</ele><time>2026-03-07T16:53:51.011Z</time></trkpt><trkpt lat="37.1926109" lon="-3.6924364"><ele>587.0</ele><time>2026-03-07T16:53:52.034Z</time></trkpt><trkpt lat="37.1925872" lon="-3.692173"><ele>587.0</ele><time>2026-03-07T16:53:53.02Z</time></trkpt><trkpt lat="37.192567" lon="-3.6919094"><ele>587.6666666666666</ele><time>2026-03-07T16:53:53.996Z</time></trkpt><trkpt lat="37.1925437" lon="-3.6916441"><ele>588.3333333333334</ele><time>2026-03-07T16:53:55.025Z</time></trkpt><trkpt lat="37.1925283" lon="-3.6913742"><ele>589.0</ele><time>2026-03-07T16:53:56.03Z</time></trkpt><trkpt lat="37.1925189" lon="-3.6911023"><ele>590.0</ele><time>2026-03-07T16:53:57.03Z</time></trkpt><trkpt lat="37.1925087" lon="-3.6908293"><ele>591.0</ele><time>2026-03-07T16:53:58.013Z</time></trkpt><trkpt lat="37.1924935" lon="-3.6905572"><ele>592.0</ele><time>2026-03-07T16:53:59.017Z</time></trkpt><trkpt lat="37.1924833" lon="-3.6902856"><ele>591.6666666666667</ele><time>2026-03-07T16:54:00.068Z</time></trkpt><trkpt lat="37.1924777" lon="-3.6900161"><ele>591.3333333333334</ele><time>2026-03-07T16:54:01.022Z</time></trkpt><trkpt lat="37.1924682" lon="-3.6897471"><ele>591.0</ele><time>2026-03-07T16:54:02.03Z</time></trkpt><trkpt lat="37.1924664" lon="-3.6894764"><ele>591.0</ele><time>2026-03-07T16:54:03.031Z</time></trkpt><trkpt lat="37.1924656" lon="-3.6892027"><ele>591.0</ele><time>2026-03-07T16:54:04.037Z</time></trkpt><trkpt lat="37.1924624" lon="-3.6889272"><ele>591.0</ele><time>2026-03-07T16:54:05.026Z</time></trkpt><trkpt lat="37.192454" lon="-3.6886508"><ele>591.6666666666666</ele><time>2026-03-07T16:54:06.029Z</time></trkpt><trkpt lat="37.1924511" lon="-3.688374"><ele>592.3333333333333</ele><time>2026-03-07T16:54:07.034Z</time></trkpt><trkpt lat="37.1924478" lon="-3.6880998"><ele>593.0</ele><time>2026-03-07T16:54:08.038Z</time></trkpt><trkpt lat="37.1924379" lon="-3.6878309"><ele>593.3333333333333</ele><time>2026-03-07T16:54:09.015Z</time></trkpt><trkpt lat="37.1924235" lon="-3.6875716"><ele>593.6666666666666</ele><time>2026-03-07T16:54:10.006Z</time></trkpt><trkpt lat="37.1924004" lon="-3.6873216"><ele>594.0</ele><time>2026-03-07T16:54:11.01Z</time></trkpt><trkpt lat="37.1923747" lon="-3.687072"><ele>593.6666666666666</ele><time>2026-03-07T16:54:12.013Z</time></trkpt><trkpt lat="37.1923323" lon="-3.6868144"><ele>593.3333333333333</ele><time>2026-03-07T16:54:13.009Z</time></trkpt><trkpt lat="37.1922869" lon="-3.6865682"><ele>593.0</ele><time>2026-03-07T16:54:14.024Z</time></trkpt><trkpt lat="37.192241" lon="-3.6863213"><ele>592.6666666666666</ele><time>2026-03-07T16:54:15.024Z</time></trkpt><trkpt lat="37.1922021" lon="-3.6860819"><ele>592.3333333333334</ele><time>2026-03-07T16:54:16.034Z</time></trkpt><trkpt lat="37.1921562" lon="-3.6858547"><ele>592.0</ele><time>2026-03-07T16:54:17.032Z</time></trkpt><trkpt lat="37.1921091" lon="-3.6856315"><ele>592.0</ele><time>2026-03-07T16:54:18.039Z</time></trkpt><trkpt lat="37.1920535" lon="-3.6854117"><ele>592.0</ele><time>2026-03-07T16:54:19.029Z</time></trkpt><trkpt lat="37.1920009" lon="-3.6851917"><ele>592.0</ele><time>2026-03-07T16:54:20.017Z</time></trkpt><trkpt lat="37.1919463" lon="-3.6849681"><ele>592.3333333333334</ele><time>2026-03-07T16:54:21.035Z</time></trkpt><trkpt lat="37.1918929" lon="-3.6847336"><ele>592.6666666666666</ele><time>2026-03-07T16:54:22.03Z</time></trkpt><trkpt lat="37.1918449" lon="-3.6844992"><ele>593.0</ele><time>2026-03-07T16:54:23.032Z</time></trkpt><trkpt lat="37.1917924" lon="-3.6842679"><ele>593.0</ele><time>2026-03-07T16:54:24.037Z</time></trkpt><trkpt lat="37.1917418" lon="-3.6840385"><ele>593.0</ele><time>2026-03-07T16:54:25.02Z</time></trkpt><trkpt lat="37.1916915" lon="-3.6838131"><ele>593.0</ele><time>2026-03-07T16:54:26.021Z</time></trkpt><trkpt lat="37.1916394" lon="-3.6835885"><ele>593.0</ele><time>2026-03-07T16:54:27.014Z</time></trkpt><trkpt lat="37.1915887" lon="-3.683361"><ele>593.0</ele><time>2026-03-07T16:54:28.027Z</time></trkpt><trkpt lat="37.1915346" lon="-3.6831334"><ele>593.0</ele><time>2026-03-07T16:54:29.02Z</time></trkpt><trkpt lat="37.191474" lon="-3.6829107"><ele>593.6666666666666</ele><time>2026-03-07T16:54:30.017Z</time></trkpt><trkpt lat="37.191409" lon="-3.6826942"><ele>594.3333333333334</ele><time>2026-03-07T16:54:31.03Z</time></trkpt><trkpt lat="37.1913475" lon="-3.6824863"><ele>595.0</ele><time>2026-03-07T16:54:32.03Z</time></trkpt><trkpt lat="37.1912861" lon="-3.6822872"><ele>595.0</ele><time>2026-03-07T16:54:33.039Z</time></trkpt><trkpt lat="37.1912261" lon="-3.682099"><ele>595.0</ele><time>2026-03-07T16:54:34.018Z</time></trkpt><trkpt lat="37.1911701" lon="-3.6819193"><ele>595.0</ele><time>2026-03-07T16:54:35.018Z</time></trkpt><trkpt lat="37.1911172" lon="-3.6817454"><ele>595.0</ele><time>2026-03-07T16:54:36.028Z</time></trkpt><trkpt lat="37.191064" lon="-3.6815746"><ele>595.0</ele><time>2026-03-07T16:54:37.017Z</time></trkpt><trkpt lat="37.1910124" lon="-3.6814099"><ele>595.0</ele><time>2026-03-07T16:54:38.003Z</time></trkpt><trkpt lat="37.1909573" lon="-3.6812519"><ele>595.0</ele><time>2026-03-07T16:54:39.01Z</time></trkpt><trkpt lat="37.1909061" lon="-3.681094"><ele>595.5</ele><time>2026-03-07T16:54:40.022Z</time></trkpt><trkpt lat="37.190856" lon="-3.6809311"><ele>596.0</ele><time>2026-03-07T16:54:41.015Z</time></trkpt><trkpt lat="37.1908064" lon="-3.6807665"><ele>596.5</ele><time>2026-03-07T16:54:42.039Z</time></trkpt><trkpt lat="37.1907568" lon="-3.6806032"><ele>597.0</ele><time>2026-03-07T16:54:43.024Z</time></trkpt><trkpt lat="37.1907076" lon="-3.6804409"><ele>597.5</ele><time>2026-03-07T16:54:44.007Z</time></trkpt><trkpt lat="37.1906628" lon="-3.6802814"><ele>598.0</ele><time>2026-03-07T16:54:45.024Z</time></trkpt><trkpt lat="37.1906171" lon="-3.6801264"><ele>598.5</ele><time>2026-03-07T16:54:46.017Z</time></trkpt><trkpt lat="37.1905717" lon="-3.6799739"><ele>599.0</ele><time>2026-03-07T16:54:47.021Z</time></trkpt><trkpt lat="37.1905218" lon="-3.6798237"><ele>599.0</ele><time>2026-03-07T16:54:48.04Z</time></trkpt><trkpt lat="37.190471" lon="-3.6796733"><ele>599.0</ele><time>2026-03-07T16:54:49.026Z</time></trkpt><trkpt lat="37.1904239" lon="-3.6795194"><ele>599.0</ele><time>2026-03-07T16:54:50.019Z</time></trkpt><trkpt lat="37.1903792" lon="-3.6793652"><ele>599.0</ele><time>2026-03-07T16:54:51.018Z</time></trkpt><trkpt lat="37.1903335" lon="-3.6792102"><ele>599.0</ele><time>2026-03-07T16:54:52.047Z</time></trkpt><trkpt lat="37.1902877" lon="-3.6790545"><ele>599.0</ele><time>2026-03-07T16:54:53.044Z</time></trkpt><trkpt lat="37.1902372" lon="-3.6788987"><ele>599.0</ele><time>2026-03-07T16:54:54.021Z</time></trkpt><trkpt lat="37.1901861" lon="-3.678745"><ele>599.0</ele><time>2026-03-07T16:54:55.027Z</time></trkpt><trkpt lat="37.1901382" lon="-3.6785942"><ele>599.0</ele><time>2026-03-07T16:54:56.03Z</time></trkpt><trkpt lat="37.1900889" lon="-3.6784478"><ele>599.0</ele><time>2026-03-07T16:54:57.041Z</time></trkpt><trkpt lat="37.1900413" lon="-3.6783038"><ele>599.0</ele><time>2026-03-07T16:54:58.029Z</time></trkpt><trkpt lat="37.1899916" lon="-3.6781644"><ele>599.0</ele><time>2026-03-07T16:54:59.019Z</time></trkpt><trkpt lat="37.1899382" lon="-3.6780275"><ele>599.0</ele><time>2026-03-07T16:55:00.029Z</time></trkpt><trkpt lat="37.1898852" lon="-3.6778957"><ele>599.0</ele><time>2026-03-07T16:55:01.03Z</time></trkpt><trkpt lat="37.1898324" lon="-3.6777766"><ele>599.0</ele><time>2026-03-07T16:55:02.013Z</time></trkpt><trkpt lat="37.1897844" lon="-3.6776717"><ele>599.0</ele><time>2026-03-07T16:55:03.023Z</time></trkpt><trkpt lat="37.1897439" lon="-3.6775767"><ele>599.0</ele><time>2026-03-07T16:55:04.016Z</time></trkpt><trkpt lat="37.1896974" lon="-3.6774937"><ele>599.4</ele><time>2026-03-07T16:55:05.043Z</time></trkpt><trkpt lat="37.189638" lon="-3.6774146"><ele>599.8</ele><time>2026-03-07T16:55:06.035Z</time></trkpt><trkpt lat="37.1895599" lon="-3.6773472"><ele>600.2</ele><time>2026-03-07T16:55:07.037Z</time></trkpt><trkpt lat="37.1894791" lon="-3.6772767"><ele>600.6</ele><time>2026-03-07T16:55:08.038Z</time></trkpt><trkpt lat="37.1893968" lon="-3.6771942"><ele>601.0</ele><time>2026-03-07T16:55:09.038Z</time></trkpt><trkpt lat="37.1893112" lon="-3.6770992"><ele>601.0</ele><time>2026-03-07T16:55:10.016Z</time></trkpt><trkpt lat="37.189221" lon="-3.6769983"><ele>601.0</ele><time>2026-03-07T16:55:11.038Z</time></trkpt><trkpt lat="37.1891296" lon="-3.6768901"><ele>601.0</ele><time>2026-03-07T16:55:12.02Z</time></trkpt><trkpt lat="37.1890362" lon="-3.676779"><ele>601.0</ele><time>2026-03-07T16:55:13.021Z</time></trkpt><trkpt lat="37.1889393" lon="-3.6766654"><ele>601.0</ele><time>2026-03-07T16:55:14.018Z</time></trkpt><trkpt lat="37.188843" lon="-3.6765455"><ele>601.0</ele><time>2026-03-07T16:55:15.026Z</time></trkpt><trkpt lat="37.1887451" lon="-3.6764196"><ele>601.0</ele><time>2026-03-07T16:55:16.016Z</time></trkpt><trkpt lat="37.1886401" lon="-3.6762872"><ele>601.0</ele><time>2026-03-07T16:55:17.022Z</time></trkpt><trkpt lat="37.1885241" lon="-3.6761631"><ele>601.0</ele><time>2026-03-07T16:55:18.014Z</time></trkpt><trkpt lat="37.1883981" lon="-3.6760442"><ele>601.0</ele><time>2026-03-07T16:55:19.008Z</time></trkpt><trkpt lat="37.188261" lon="-3.6759413"><ele>601.0</ele><time>2026-03-07T16:55:20.011Z</time></trkpt><trkpt lat="37.1881157" lon="-3.6758491"><ele>601.3333333333334</ele><time>2026-03-07T16:55:21Z</time></trkpt><trkpt lat="37.1879662" lon="-3.6757651"><ele>601.6666666666666</ele><time>2026-03-07T16:55:22.019Z</time></trkpt><trkpt lat="37.1878161" lon="-3.675682"><ele>602.0</ele><time>2026-03-07T16:55:23.022Z</time></trkpt><trkpt lat="37.1876688" lon="-3.6755952"><ele>602.0</ele><time>2026-03-07T16:55:24.033Z</time></trkpt><trkpt lat="37.1875167" lon="-3.6755221"><ele>602.0</ele><time>2026-03-07T16:55:25.02Z</time></trkpt><trkpt lat="37.1873774" lon="-3.675433"><ele>602.0</ele><time>2026-03-07T16:55:26.03Z</time></trkpt><trkpt lat="37.1872495" lon="-3.675338"><ele>602.3333333333333</ele><time>2026-03-07T16:55:27.013Z</time></trkpt><trkpt lat="37.1871223" lon="-3.6752269"><ele>602.6666666666666</ele><time>2026-03-07T16:55:28.023Z</time></trkpt><trkpt lat="37.1869891" lon="-3.6751056"><ele>603.0</ele><time>2026-03-07T16:55:29.01Z</time></trkpt><trkpt lat="37.1868623" lon="-3.6749727"><ele>603.0</ele><time>2026-03-07T16:55:30.032Z</time></trkpt><trkpt lat="37.1867444" lon="-3.6748283"><ele>603.0</ele><time>2026-03-07T16:55:31.022Z</time></trkpt><trkpt lat="37.1866317" lon="-3.6746758"><ele>603.0</ele><time>2026-03-07T16:55:32.022Z</time></trkpt><trkpt lat="37.1865234" lon="-3.6745149"><ele>603.0</ele><time>2026-03-07T16:55:33.026Z</time></trkpt><trkpt lat="37.1864156" lon="-3.674355"><ele>603.0</ele><time>2026-03-07T16:55:34.016Z</time></trkpt><trkpt lat="37.1863075" lon="-3.6741969"><ele>603.0</ele><time>2026-03-07T16:55:35.019Z</time></trkpt><trkpt lat="37.1862" lon="-3.6740426"><ele>603.0</ele><time>2026-03-07T16:55:36.009Z</time></trkpt><trkpt lat="37.1860931" lon="-3.673889"><ele>603.0</ele><time>2026-03-07T16:55:37.02Z</time></trkpt><trkpt lat="37.1859847" lon="-3.6737327"><ele>603.0</ele><time>2026-03-07T16:55:38.011Z</time></trkpt><trkpt lat="37.185875" lon="-3.6735769"><ele>603.0</ele><time>2026-03-07T16:55:39.019Z</time></trkpt><trkpt lat="37.1857595" lon="-3.673427"><ele>603.0</ele><time>2026-03-07T16:55:40.035Z</time></trkpt><trkpt lat="37.1856519" lon="-3.6732738"><ele>603.0</ele><time>2026-03-07T16:55:41.048Z</time></trkpt><trkpt lat="37.1855435" lon="-3.6731254"><ele>602.6666666666666</ele><time>2026-03-07T16:55:42.036Z</time></trkpt><trkpt lat="37.1854383" lon="-3.6729796"><ele>602.3333333333333</ele><time>2026-03-07T16:55:43.012Z</time></trkpt><trkpt lat="37.1853382" lon="-3.672839"><ele>602.0</ele><time>2026-03-07T16:55:44.012Z</time></trkpt><trkpt lat="37.1852397" lon="-3.6726991"><ele>602.6666666666666</ele><time>2026-03-07T16:55:45.026Z</time></trkpt><trkpt lat="37.1851367" lon="-3.6725588"><ele>603.3333333333334</ele><time>2026-03-07T16:55:46.015Z</time></trkpt><trkpt lat="37.1850232" lon="-3.6724307"><ele>604.0</ele><time>2026-03-07T16:55:47.024Z</time></trkpt><trkpt lat="37.1848955" lon="-3.6723293"><ele>604.3333333333334</ele><time>2026-03-07T16:55:48.038Z</time></trkpt><trkpt lat="37.184759" lon="-3.6722466"><ele>604.6666666666666</ele><time>2026-03-07T16:55:49.068Z</time></trkpt><trkpt lat="37.1846134" lon="-3.6721855"><ele>605.0</ele><time>2026-03-07T16:55:50.044Z</time></trkpt><trkpt lat="37.1844629" lon="-3.6721451"><ele>605.0</ele><time>2026-03-07T16:55:51.028Z</time></trkpt><trkpt lat="37.1843125" lon="-3.6721317"><ele>605.0</ele><time>2026-03-07T16:55:52.024Z</time></trkpt><trkpt lat="37.1841667" lon="-3.672147"><ele>605.0</ele><time>2026-03-07T16:55:53.034Z</time></trkpt><trkpt lat="37.1840277" lon="-3.6721833"><ele>605.0</ele><time>2026-03-07T16:55:54.032Z</time></trkpt><trkpt lat="37.183889" lon="-3.6722099"><ele>605.3333333333333</ele><time>2026-03-07T16:55:55.016Z</time></trkpt><trkpt lat="37.1837423" lon="-3.672234"><ele>605.6666666666666</ele><time>2026-03-07T16:55:56.034Z</time></trkpt><trkpt lat="37.1835894" lon="-3.6722611"><ele>606.0</ele><time>2026-03-07T16:55:57.028Z</time></trkpt><trkpt lat="37.1834361" lon="-3.6722976"><ele>606.0</ele><time>2026-03-07T16:55:58.026Z</time></trkpt><trkpt lat="37.183283" lon="-3.6723297"><ele>606.0</ele><time>2026-03-07T16:55:59.005Z</time></trkpt><trkpt lat="37.1831334" lon="-3.6723635"><ele>606.0</ele><time>2026-03-07T16:56:00.053Z</time></trkpt><trkpt lat="37.182988" lon="-3.6723827"><ele>605.75</ele><time>2026-03-07T16:56:01.023Z</time></trkpt><trkpt lat="37.1828441" lon="-3.6723934"><ele>605.5</ele><time>2026-03-07T16:56:02.061Z</time></trkpt><trkpt lat="37.1827031" lon="-3.672388"><ele>605.25</ele><time>2026-03-07T16:56:03.026Z</time></trkpt><trkpt lat="37.1825675" lon="-3.6723651"><ele>605.0</ele><time>2026-03-07T16:56:04.023Z</time></trkpt><trkpt lat="37.1824382" lon="-3.6723315"><ele>605.75</ele><time>2026-03-07T16:56:05.028Z</time></trkpt><trkpt lat="37.1823129" lon="-3.6722924"><ele>606.5</ele><time>2026-03-07T16:56:06.028Z</time></trkpt><trkpt lat="37.1821907" lon="-3.6722428"><ele>607.25</ele><time>2026-03-07T16:56:07.025Z</time></trkpt><trkpt lat="37.182072" lon="-3.6721822"><ele>608.0</ele><time>2026-03-07T16:56:08.016Z</time></trkpt><trkpt lat="37.1819556" lon="-3.6721225"><ele>608.0</ele><time>2026-03-07T16:56:09.029Z</time></trkpt><trkpt lat="37.181843" lon="-3.6720614"><ele>608.0</ele><time>2026-03-07T16:56:10.01Z</time></trkpt><trkpt lat="37.1817411" lon="-3.6720054"><ele>608.0</ele><time>2026-03-07T16:56:11.016Z</time></trkpt><trkpt lat="37.1816506" lon="-3.6719597"><ele>608.0</ele><time>2026-03-07T16:56:12.02Z</time></trkpt><trkpt lat="37.1815653" lon="-3.6719117"><ele>608.0</ele><time>2026-03-07T16:56:13.033Z</time></trkpt><trkpt lat="37.1814873" lon="-3.6718667"><ele>607.8333333333333</ele><time>2026-03-07T16:56:14.02Z</time></trkpt><trkpt lat="37.1814283" lon="-3.6718213"><ele>607.6666666666666</ele><time>2026-03-07T16:56:15.022Z</time></trkpt><trkpt lat="37.1813634" lon="-3.671693"><ele>607.5</ele><time>2026-03-07T16:56:17.027Z</time></trkpt><trkpt lat="37.1813418" lon="-3.6716162"><ele>607.3333333333334</ele><time>2026-03-07T16:56:18.012Z</time></trkpt><trkpt lat="37.1813238" lon="-3.6715314"><ele>607.1666666666667</ele><time>2026-03-07T16:56:19.021Z</time></trkpt><trkpt lat="37.1813065" lon="-3.6714381"><ele>607.0</ele><time>2026-03-07T16:56:20.015Z</time></trkpt><trkpt lat="37.1812832" lon="-3.6713424"><ele>607.0</ele><time>2026-03-07T16:56:21.023Z</time></trkpt><trkpt lat="37.1812631" lon="-3.6712421"><ele>607.0</ele><time>2026-03-07T16:56:22.002Z</time></trkpt><trkpt lat="37.1812383" lon="-3.6711475"><ele>607.0</ele><time>2026-03-07T16:56:23.053Z</time></trkpt><trkpt lat="37.1812146" lon="-3.6710649"><ele>607.0</ele><time>2026-03-07T16:56:24.033Z</time></trkpt><trkpt lat="37.1811709" lon="-3.6709366"><ele>607.0</ele><time>2026-03-07T16:56:26.045Z</time></trkpt><trkpt lat="37.1811285" lon="-3.6708258"><ele>607.0</ele><time>2026-03-07T16:56:28.026Z</time></trkpt><trkpt lat="37.1810846" lon="-3.6707142"><ele>605.0</ele><time>2026-03-07T16:56:30.031Z</time></trkpt><trkpt lat="37.1810439" lon="-3.6706339"><ele>605.0</ele><time>2026-03-07T16:56:32.031Z</time></trkpt><trkpt lat="37.1810043" lon="-3.6705035"><ele>605.0</ele><time>2026-03-07T17:01:25.022Z</time></trkpt></trkseg><trkseg><trkpt lat="39.9841087" lon="-2.0822019"><ele>981.9999999999999</ele><time>2026-03-22T11:09:15.25Z</time></trkpt><trkpt lat="39.9841464" lon="-2.082103"><ele>982.0</ele><time>2026-03-22T11:10:33.2Z</time></trkpt><trkpt lat="39.9841617" lon="-2.0820113"><ele>982.0</ele><time>2026-03-22T11:10:35.204Z</time></trkpt><trkpt lat="39.9841743" lon="-2.0819122"><ele>982.0</ele><time>2026-03-22T11:10:37.178Z</time></trkpt><trkpt lat="39.9842081" lon="-2.0818116"><ele>981.9999999999999</ele><time>2026-03-22T11:10:39.235Z</time></trkpt><trkpt lat="39.9842475" lon="-2.0817013"><ele>982.0</ele><time>2026-03-22T11:10:41.77Z</time></trkpt><trkpt lat="39.9845052" lon="-2.0817922"><ele>981.6</ele><time>2026-03-22T11:10:44.528Z</time></trkpt><trkpt lat="39.9846088" lon="-2.0818374"><ele>981.2</ele><time>2026-03-22T11:10:45.441Z</time></trkpt><trkpt lat="39.9847062" lon="-2.0818491"><ele>980.8</ele><time>2026-03-22T11:10:46.574Z</time></trkpt><trkpt lat="39.9848165" lon="-2.081823"><ele>980.4</ele><time>2026-03-22T11:10:48.787Z</time></trkpt><trkpt lat="39.9848824" lon="-2.0817967"><ele>980.0</ele><time>2026-03-22T11:10:49.959Z</time></trkpt><trkpt lat="39.9849335" lon="-2.0817469"><ele>980.0</ele><time>2026-03-22T11:10:51.212Z</time></trkpt><trkpt lat="39.9849855" lon="-2.0816563"><ele>980.0</ele><time>2026-03-22T11:10:53.176Z</time></trkpt><trkpt lat="39.9850819" lon="-2.0816473"><ele>980.0</ele><time>2026-03-22T11:10:55.262Z</time></trkpt><trkpt lat="39.9851753" lon="-2.0816583"><ele>980.0</ele><time>2026-03-22T11:10:57.278Z</time></trkpt><trkpt lat="39.9852812" lon="-2.0816511"><ele>980.0</ele><time>2026-03-22T11:10:59.222Z</time></trkpt><trkpt lat="39.9853907" lon="-2.0816193"><ele>981.3333333333334</ele><time>2026-03-22T11:11:01.576Z</time></trkpt><trkpt lat="39.9854497" lon="-2.0815063"><ele>982.6666666666667</ele><time>2026-03-22T11:11:03.94Z</time></trkpt><trkpt lat="39.9854388" lon="-2.0814007"><ele>984.0</ele><time>2026-03-22T11:11:06.026Z</time></trkpt><trkpt lat="39.9854038" lon="-2.0810531"><ele>984.0</ele><time>2026-03-22T11:11:09.18Z</time></trkpt><trkpt lat="39.9853838" lon="-2.0808843"><ele>984.0</ele><time>2026-03-22T11:11:10.183Z</time></trkpt><trkpt lat="39.9853675" lon="-2.0807287"><ele>984.0</ele><time>2026-03-22T11:11:11.237Z</time></trkpt><trkpt lat="39.9853506" lon="-2.0805699"><ele>984.0</ele><time>2026-03-22T11:11:12.192Z</time></trkpt><trkpt lat="39.985334" lon="-2.0803928"><ele>984.0</ele><time>2026-03-22T11:11:13.187Z</time></trkpt><trkpt lat="39.9853148" lon="-2.0801986"><ele>984.0</ele><time>2026-03-22T11:11:14.24Z</time></trkpt><trkpt lat="39.9852715" lon="-2.0798078"><ele>984.75</ele><time>2026-03-22T11:11:16.195Z</time></trkpt><trkpt lat="39.9852499" lon="-2.0796251"><ele>985.5</ele><time>2026-03-22T11:11:17.214Z</time></trkpt><trkpt lat="39.9852294" lon="-2.0794589"><ele>986.25</ele><time>2026-03-22T11:11:18.176Z</time></trkpt><trkpt lat="39.9852064" lon="-2.0792821"><ele>987.0</ele><time>2026-03-22T11:11:19.253Z</time></trkpt><trkpt lat="39.9851872" lon="-2.0791173"><ele>987.8</ele><time>2026-03-22T11:11:20.204Z</time></trkpt><trkpt lat="39.9851699" lon="-2.0789577"><ele>988.6</ele><time>2026-03-22T11:11:21.203Z</time></trkpt><trkpt lat="39.985151" lon="-2.0788059"><ele>989.3999999999999</ele><time>2026-03-22T11:11:22.221Z</time></trkpt><trkpt lat="39.9851317" lon="-2.0786684"><ele>990.1999999999999</ele><time>2026-03-22T11:11:23.225Z</time></trkpt><trkpt lat="39.9851151" lon="-2.078544"><ele>991.0</ele><time>2026-03-22T11:11:24.221Z</time></trkpt><trkpt lat="39.9851008" lon="-2.0784258"><ele>991.0000000000001</ele><time>2026-03-22T11:11:25.248Z</time></trkpt><trkpt lat="39.9850875" lon="-2.0783209"><ele>991.0</ele><time>2026-03-22T11:11:26.217Z</time></trkpt><trkpt lat="39.9850733" lon="-2.0782279"><ele>991.0000000000001</ele><time>2026-03-22T11:11:27.253Z</time></trkpt><trkpt lat="39.9850622" lon="-2.0781416"><ele>991.0000000000001</ele><time>2026-03-22T11:11:28.207Z</time></trkpt><trkpt lat="39.9850544" lon="-2.0780551"><ele>991.0</ele><time>2026-03-22T11:11:29.236Z</time></trkpt><trkpt lat="39.985047" lon="-2.0779616"><ele>991.0000000000001</ele><time>2026-03-22T11:11:30.272Z</time></trkpt><trkpt lat="39.985039" lon="-2.0778589"><ele>991.0000000000001</ele><time>2026-03-22T11:11:31.208Z</time></trkpt><trkpt lat="39.9850294" lon="-2.0777379"><ele>991.0</ele><time>2026-03-22T11:11:32.186Z</time></trkpt><trkpt lat="39.9850211" lon="-2.077603"><ele>991.0</ele><time>2026-03-22T11:11:33.219Z</time></trkpt><trkpt lat="39.9850055" lon="-2.0773576"><ele>991.0</ele><time>2026-03-22T11:11:35.23Z</time></trkpt><trkpt lat="39.9849823" lon="-2.0771432"><ele>989.4999999999999</ele><time>2026-03-22T11:11:37.225Z</time></trkpt><trkpt lat="39.9849651" lon="-2.0770358"><ele>988.0</ele><time>2026-03-22T11:11:38.25Z</time></trkpt><trkpt lat="39.98493" lon="-2.0769339"><ele>986.5</ele><time>2026-03-22T11:11:39.214Z</time></trkpt><trkpt lat="39.9848854" lon="-2.0768364"><ele>985.0</ele><time>2026-03-22T11:11:40.209Z</time></trkpt><trkpt lat="39.9848427" lon="-2.0767502"><ele>983.4999999999999</ele><time>2026-03-22T11:11:41.183Z</time></trkpt><trkpt lat="39.9847995" lon="-2.0766717"><ele>982.0</ele><time>2026-03-22T11:11:42.147Z</time></trkpt><trkpt lat="39.9847475" lon="-2.0766023"><ele>981.9999999999999</ele><time>2026-03-22T11:11:43.222Z</time></trkpt><trkpt lat="39.9846971" lon="-2.076539"><ele>982.0</ele><time>2026-03-22T11:11:44.202Z</time></trkpt><trkpt lat="39.9846465" lon="-2.0764667"><ele>982.0</ele><time>2026-03-22T11:11:45.197Z</time></trkpt><trkpt lat="39.9845912" lon="-2.0763782"><ele>982.0</ele><time>2026-03-22T11:11:46.211Z</time></trkpt><trkpt lat="39.9845354" lon="-2.0762788"><ele>981.9999999999999</ele><time>2026-03-22T11:11:47.235Z</time></trkpt><trkpt lat="39.9844819" lon="-2.0761724"><ele>982.0</ele><time>2026-03-22T11:11:48.164Z</time></trkpt><trkpt lat="39.9844265" lon="-2.076052"><ele>982.0</ele><time>2026-03-22T11:11:49.219Z</time></trkpt><trkpt lat="39.9843686" lon="-2.0759183"><ele>982.0</ele><time>2026-03-22T11:11:50.172Z</time></trkpt><trkpt lat="39.9843095" lon="-2.0757785"><ele>982.0</ele><time>2026-03-22T11:11:51.182Z</time></trkpt><trkpt lat="39.9842552" lon="-2.0756206"><ele>982.0</ele><time>2026-03-22T11:11:52.228Z</time></trkpt><trkpt lat="39.9842005" lon="-2.0754693"><ele>982.75</ele><time>2026-03-22T11:11:53.207Z</time></trkpt><trkpt lat="39.9841493" lon="-2.0753138"><ele>983.5</ele><time>2026-03-22T11:11:54.219Z</time></trkpt><trkpt lat="39.9841055" lon="-2.0751773"><ele>984.25</ele><time>2026-03-22T11:11:55.19Z</time></trkpt><trkpt lat="39.9840668" lon="-2.0750389"><ele>985.0</ele><time>2026-03-22T11:11:56.142Z</time></trkpt><trkpt lat="39.9840271" lon="-2.074899"><ele>985.6</ele><time>2026-03-22T11:11:57.167Z</time></trkpt><trkpt lat="39.9839926" lon="-2.0747644"><ele>986.2</ele><time>2026-03-22T11:11:58.141Z</time></trkpt><trkpt lat="39.983959" lon="-2.0746306"><ele>986.8</ele><time>2026-03-22T11:11:59.25Z</time></trkpt><trkpt lat="39.9839249" lon="-2.0745152"><ele>987.4</ele><time>2026-03-22T11:12:00.258Z</time></trkpt><trkpt lat="39.9838918" lon="-2.0744092"><ele>988.0</ele><time>2026-03-22T11:12:01.247Z</time></trkpt><trkpt lat="39.9838621" lon="-2.0743088"><ele>988.0</ele><time>2026-03-22T11:12:02.371Z</time></trkpt><trkpt lat="39.9838387" lon="-2.0742204"><ele>988.0</ele><time>2026-03-22T11:12:03.295Z</time></trkpt><trkpt lat="39.9837977" lon="-2.0740713"><ele>988.0</ele><time>2026-03-22T11:12:05.188Z</time></trkpt><trkpt lat="39.9837648" lon="-2.0739532"><ele>988.0</ele><time>2026-03-22T11:12:07.156Z</time></trkpt><trkpt lat="39.9837262" lon="-2.0738302"><ele>988.0</ele><time>2026-03-22T11:12:09.16Z</time></trkpt><trkpt lat="39.9836932" lon="-2.0737171"><ele>988.5999999999999</ele><time>2026-03-22T11:12:11.167Z</time></trkpt><trkpt lat="39.9836529" lon="-2.0735694"><ele>989.1999999999999</ele><time>2026-03-22T11:12:13.291Z</time></trkpt><trkpt lat="39.983625" lon="-2.0734599"><ele>989.8</ele><time>2026-03-22T11:12:14.272Z</time></trkpt><trkpt lat="39.9835925" lon="-2.0733319"><ele>990.4</ele><time>2026-03-22T11:12:15.258Z</time></trkpt><trkpt lat="39.9835588" lon="-2.0732021"><ele>991.0</ele><time>2026-03-22T11:12:16.377Z</time></trkpt><trkpt lat="39.9835058" lon="-2.0729936"><ele>991.4</ele><time>2026-03-22T11:12:18.243Z</time></trkpt><trkpt lat="39.9834801" lon="-2.0728897"><ele>991.8</ele><time>2026-03-22T11:12:19.369Z</time></trkpt><trkpt lat="39.9834541" lon="-2.0727435"><ele>992.1999999999999</ele><time>2026-03-22T11:12:21.278Z</time></trkpt><trkpt lat="39.983425" lon="-2.0726032"><ele>992.5999999999999</ele><time>2026-03-22T11:12:23.224Z</time></trkpt><trkpt lat="39.9833958" lon="-2.0724818"><ele>993.0</ele><time>2026-03-22T11:12:25.27Z</time></trkpt><trkpt lat="39.983304" lon="-2.0725258"><ele>992.3333333333334</ele><time>2026-03-22T11:12:56.283Z</time></trkpt><trkpt lat="39.9832353" lon="-2.072581"><ele>991.6666666666667</ele><time>2026-03-22T11:12:57.207Z</time></trkpt><trkpt lat="39.9831544" lon="-2.0726233"><ele>991.0</ele><time>2026-03-22T11:12:58.217Z</time></trkpt><trkpt lat="39.9830924" lon="-2.0726606"><ele>990.3333333333334</ele><time>2026-03-22T11:12:59.229Z</time></trkpt><trkpt lat="39.9830276" lon="-2.0726805"><ele>989.6666666666667</ele><time>2026-03-22T11:13:00.251Z</time></trkpt><trkpt lat="39.9829546" lon="-2.0727063"><ele>989.0</ele><time>2026-03-22T11:13:01.222Z</time></trkpt><trkpt lat="39.9828654" lon="-2.072758"><ele>989.0</ele><time>2026-03-22T11:13:02.24Z</time></trkpt><trkpt lat="39.982759" lon="-2.0727943"><ele>989.0000000000001</ele><time>2026-03-22T11:13:03.236Z</time></trkpt><trkpt lat="39.9826763" lon="-2.0728378"><ele>989.0000000000001</ele><time>2026-03-22T11:13:04.257Z</time></trkpt><trkpt lat="39.9825895" lon="-2.0728901"><ele>989.0</ele><time>2026-03-22T11:13:05.225Z</time></trkpt><trkpt lat="39.9825245" lon="-2.0729455"><ele>989.0</ele><time>2026-03-22T11:13:06.226Z</time></trkpt><trkpt lat="39.9824413" lon="-2.073025"><ele>988.6</ele><time>2026-03-22T11:13:07.22Z</time></trkpt><trkpt lat="39.982348" lon="-2.0730918"><ele>988.2</ele><time>2026-03-22T11:13:08.226Z</time></trkpt><trkpt lat="39.9822629" lon="-2.0731743"><ele>987.8000000000001</ele><time>2026-03-22T11:13:09.195Z</time></trkpt><trkpt lat="39.9821685" lon="-2.0732402"><ele>987.4000000000001</ele><time>2026-03-22T11:13:10.224Z</time></trkpt><trkpt lat="39.9820681" lon="-2.0732865"><ele>987.0</ele><time>2026-03-22T11:13:11.296Z</time></trkpt><trkpt lat="39.9819717" lon="-2.0733191"><ele>987.0</ele><time>2026-03-22T11:13:12.232Z</time></trkpt><trkpt lat="39.9818796" lon="-2.0733422"><ele>987.0</ele><time>2026-03-22T11:13:13.215Z</time></trkpt><trkpt lat="39.9817979" lon="-2.0733548"><ele>987.0</ele><time>2026-03-22T11:13:14.245Z</time></trkpt><trkpt lat="39.9817193" lon="-2.0733691"><ele>987.0</ele><time>2026-03-22T11:13:15.345Z</time></trkpt><trkpt lat="39.9815822" lon="-2.0733762"><ele>987.0</ele><time>2026-03-22T11:13:17.178Z</time></trkpt><trkpt lat="39.9814671" lon="-2.0733936"><ele>988.1666666666666</ele><time>2026-03-22T11:13:19.21Z</time></trkpt><trkpt lat="39.9813432" lon="-2.0734238"><ele>989.3333333333333</ele><time>2026-03-22T11:13:21.21Z</time></trkpt><trkpt lat="39.9812802" lon="-2.0734399"><ele>990.5</ele><time>2026-03-22T11:13:22.216Z</time></trkpt><trkpt lat="39.9812109" lon="-2.0734435"><ele>991.6666666666666</ele><time>2026-03-22T11:13:23.2Z</time></trkpt><trkpt lat="39.9811458" lon="-2.0734584"><ele>992.8333333333333</ele><time>2026-03-22T11:13:24.235Z</time></trkpt><trkpt lat="39.9810407" lon="-2.0734709"><ele>994.0</ele><time>2026-03-22T11:13:26.238Z</time></trkpt><trkpt lat="39.980941" lon="-2.073424"><ele>996.2</ele><time>2026-03-22T11:13:28.211Z</time></trkpt><trkpt lat="39.9808449" lon="-2.0733985"><ele>998.4000000000001</ele><time>2026-03-22T11:13:30.124Z</time></trkpt><trkpt lat="39.9807542" lon="-2.0734006"><ele>1000.6</ele><time>2026-03-22T11:13:32.19Z</time></trkpt><trkpt lat="39.9806637" lon="-2.0733925"><ele>1002.8</ele><time>2026-03-22T11:13:34.193Z</time></trkpt><trkpt lat="39.9805699" lon="-2.0733822"><ele>1005.0</ele><time>2026-03-22T11:13:36.188Z</time></trkpt><trkpt lat="39.980431" lon="-2.0733755"><ele>1005.0</ele><time>2026-03-22T11:13:39.208Z</time></trkpt><trkpt lat="39.9803522" lon="-2.0733378"><ele>1005.0</ele><time>2026-03-22T11:13:41.164Z</time></trkpt><trkpt lat="39.9802878" lon="-2.0732878"><ele>1005.0</ele><time>2026-03-22T11:13:43.217Z</time></trkpt><trkpt lat="39.9801828" lon="-2.073244"><ele>1005.0</ele><time>2026-03-22T11:13:45.17Z</time></trkpt><trkpt lat="39.9801208" lon="-2.0731951"><ele>1005.0</ele><time>2026-03-22T11:13:46.163Z</time></trkpt><trkpt lat="39.980061" lon="-2.0731454"><ele>1005.0</ele><time>2026-03-22T11:13:47.162Z</time></trkpt><trkpt lat="39.9800083" lon="-2.073098"><ele>1005.8</ele><time>2026-03-22T11:13:48.238Z</time></trkpt><trkpt lat="39.9799578" lon="-2.0730451"><ele>1006.6</ele><time>2026-03-22T11:13:49.215Z</time></trkpt><trkpt lat="39.9799127" lon="-2.0729705"><ele>1007.4000000000001</ele><time>2026-03-22T11:13:50.197Z</time></trkpt><trkpt lat="39.9798731" lon="-2.0728601"><ele>1008.2</ele><time>2026-03-22T11:13:51.204Z</time></trkpt><trkpt lat="39.9798456" lon="-2.0727209"><ele>1009.0</ele><time>2026-03-22T11:13:52.157Z</time></trkpt><trkpt lat="39.9798263" lon="-2.0725813"><ele>1009.0</ele><time>2026-03-22T11:13:53.17Z</time></trkpt><trkpt lat="39.9798104" lon="-2.0724558"><ele>1009.0000000000001</ele><time>2026-03-22T11:13:54.211Z</time></trkpt><trkpt lat="39.9798032" lon="-2.0723522"><ele>1009.0000000000001</ele><time>2026-03-22T11:13:55.239Z</time></trkpt><trkpt lat="39.9798041" lon="-2.0722564"><ele>1009.0</ele><time>2026-03-22T11:13:56.259Z</time></trkpt><trkpt lat="39.9797761" lon="-2.0721156"><ele>1009.0</ele><time>2026-03-22T11:13:58.232Z</time></trkpt><trkpt lat="39.9797544" lon="-2.071995"><ele>1008.8333333333333</ele><time>2026-03-22T11:14:00.235Z</time></trkpt><trkpt lat="39.9797446" lon="-2.0718899"><ele>1008.6666666666666</ele><time>2026-03-22T11:14:02.238Z</time></trkpt><trkpt lat="39.979743" lon="-2.0717999"><ele>1008.5</ele><time>2026-03-22T11:14:04.227Z</time></trkpt><trkpt lat="39.97974" lon="-2.071689"><ele>1008.3333333333333</ele><time>2026-03-22T11:14:06.236Z</time></trkpt><trkpt lat="39.9797208" lon="-2.071574"><ele>1008.1666666666666</ele><time>2026-03-22T11:14:08.255Z</time></trkpt><trkpt lat="39.9797056" lon="-2.0714835"><ele>1008.0</ele><time>2026-03-22T11:14:10.199Z</time></trkpt><trkpt lat="39.9796769" lon="-2.0713872"><ele>1007.3333333333334</ele><time>2026-03-22T11:14:12.171Z</time></trkpt><trkpt lat="39.9796629" lon="-2.071263"><ele>1006.6666666666667</ele><time>2026-03-22T11:14:14.199Z</time></trkpt><trkpt lat="39.9796501" lon="-2.0711804"><ele>1006.0</ele><time>2026-03-22T11:14:16.202Z</time></trkpt><trkpt lat="39.9795954" lon="-2.0710921"><ele>1005.3333333333334</ele><time>2026-03-22T11:14:18.207Z</time></trkpt><trkpt lat="39.9795245" lon="-2.0710134"><ele>1004.6666666666667</ele><time>2026-03-22T11:14:20.216Z</time></trkpt><trkpt lat="39.979455" lon="-2.0709697"><ele>1004.0</ele><time>2026-03-22T11:14:22.244Z</time></trkpt><trkpt lat="39.9793996" lon="-2.0709218"><ele>1004.0000000000001</ele><time>2026-03-22T11:14:24.178Z</time></trkpt><trkpt lat="39.9793934" lon="-2.0708343"><ele>1004.0</ele><time>2026-03-22T11:14:27.132Z</time></trkpt><trkpt lat="39.9793513" lon="-2.0707291"><ele>1004.0</ele><time>2026-03-22T11:14:29.126Z</time></trkpt><trkpt lat="39.9793064" lon="-2.0706572"><ele>1004.0</ele><time>2026-03-22T11:14:31.211Z</time></trkpt><trkpt lat="39.9792602" lon="-2.0705438"><ele>1004.0000000000001</ele><time>2026-03-22T11:14:34.227Z</time></trkpt><trkpt lat="39.9792238" lon="-2.0704683"><ele>1004.0</ele><time>2026-03-22T11:14:36.241Z</time></trkpt><trkpt lat="39.979156" lon="-2.0703923"><ele>1004.4000000000001</ele><time>2026-03-22T11:14:38.238Z</time></trkpt><trkpt lat="39.9791018" lon="-2.070305"><ele>1004.8000000000001</ele><time>2026-03-22T11:14:40.242Z</time></trkpt><trkpt lat="39.9790449" lon="-2.0701622"><ele>1005.1999999999999</ele><time>2026-03-22T11:14:42.235Z</time></trkpt><trkpt lat="39.978975" lon="-2.0700643"><ele>1005.5999999999999</ele><time>2026-03-22T11:14:44.258Z</time></trkpt><trkpt lat="39.9789474" lon="-2.0699863"><ele>1006.0</ele><time>2026-03-22T11:14:45.229Z</time></trkpt><trkpt lat="39.9789069" lon="-2.0698567"><ele>1004.9999999999999</ele><time>2026-03-22T11:14:47.226Z</time></trkpt><trkpt lat="39.9788838" lon="-2.0697452"><ele>1004.0</ele><time>2026-03-22T11:14:49.234Z</time></trkpt><trkpt lat="39.9788462" lon="-2.0696429"><ele>1003.0</ele><time>2026-03-22T11:14:51.248Z</time></trkpt><trkpt lat="39.9787969" lon="-2.0695743"><ele>1002.0</ele><time>2026-03-22T11:14:54.228Z</time></trkpt><trkpt lat="39.9787895" lon="-2.0694637"><ele>1000.9999999999999</ele><time>2026-03-22T11:15:03.187Z</time></trkpt><trkpt lat="39.9787857" lon="-2.0693789"><ele>1000.0</ele><time>2026-03-22T11:15:04.242Z</time></trkpt><trkpt lat="39.9787861" lon="-2.0692685"><ele>1000.0</ele><time>2026-03-22T11:15:05.167Z</time></trkpt><trkpt lat="39.9787975" lon="-2.0691452"><ele>1000.0</ele><time>2026-03-22T11:15:06.119Z</time></trkpt><trkpt lat="39.9788038" lon="-2.0690121"><ele>1000.0</ele><time>2026-03-22T11:15:07.135Z</time></trkpt><trkpt lat="39.9788098" lon="-2.0688775"><ele>1000.0</ele><time>2026-03-22T11:15:08.118Z</time></trkpt><trkpt lat="39.9788157" lon="-2.0687472"><ele>1000.0</ele><time>2026-03-22T11:15:09.133Z</time></trkpt><trkpt lat="39.9788217" lon="-2.0686313"><ele>999.8333333333333</ele><time>2026-03-22T11:15:10.13Z</time></trkpt><trkpt lat="39.9788231" lon="-2.0685355"><ele>999.6666666666666</ele><time>2026-03-22T11:15:11.203Z</time></trkpt><trkpt lat="39.9787853" lon="-2.0684645"><ele>999.5</ele><time>2026-03-22T11:15:12.195Z</time></trkpt><trkpt lat="39.9787331" lon="-2.0683955"><ele>999.3333333333333</ele><time>2026-03-22T11:15:13.232Z</time></trkpt><trkpt lat="39.9786702" lon="-2.0683202"><ele>999.1666666666666</ele><time>2026-03-22T11:15:14.221Z</time></trkpt><trkpt lat="39.9786148" lon="-2.0682584"><ele>999.0</ele><time>2026-03-22T11:15:15.199Z</time></trkpt><trkpt lat="39.9785525" lon="-2.0681816"><ele>999.3333333333334</ele><time>2026-03-22T11:15:16.168Z</time></trkpt><trkpt lat="39.978488" lon="-2.0680976"><ele>999.6666666666667</ele><time>2026-03-22T11:15:17.197Z</time></trkpt><trkpt lat="39.9784257" lon="-2.0680142"><ele>1000.0</ele><time>2026-03-22T11:15:18.233Z</time></trkpt><trkpt lat="39.9783709" lon="-2.0679353"><ele>1000.3333333333334</ele><time>2026-03-22T11:15:19.244Z</time></trkpt><trkpt lat="39.978339" lon="-2.0678441"><ele>1000.6666666666667</ele><time>2026-03-22T11:15:20.237Z</time></trkpt><trkpt lat="39.978342" lon="-2.0677411"><ele>1001.0</ele><time>2026-03-22T11:15:21.236Z</time></trkpt><trkpt lat="39.9783677" lon="-2.0676466"><ele>1001.5000000000001</ele><time>2026-03-22T11:15:22.199Z</time></trkpt><trkpt lat="39.9783908" lon="-2.0675428"><ele>1002.0</ele><time>2026-03-22T11:15:23.208Z</time></trkpt><trkpt lat="39.97841" lon="-2.0674279"><ele>1002.5</ele><time>2026-03-22T11:15:24.235Z</time></trkpt><trkpt lat="39.9784227" lon="-2.0673094"><ele>1003.0</ele><time>2026-03-22T11:15:25.197Z</time></trkpt><trkpt lat="39.9784248" lon="-2.067194"><ele>1003.5000000000001</ele><time>2026-03-22T11:15:26.148Z</time></trkpt><trkpt lat="39.9784233" lon="-2.0670692"><ele>1004.0</ele><time>2026-03-22T11:15:27.178Z</time></trkpt><trkpt lat="39.9784105" lon="-2.0669431"><ele>1004.0000000000001</ele><time>2026-03-22T11:15:28.2Z</time></trkpt><trkpt lat="39.9783905" lon="-2.0668212"><ele>1004.0</ele><time>2026-03-22T11:15:29.215Z</time></trkpt><trkpt lat="39.9783622" lon="-2.0667106"><ele>1004.0</ele><time>2026-03-22T11:15:30.225Z</time></trkpt><trkpt lat="39.9783183" lon="-2.0666127"><ele>1004.0</ele><time>2026-03-22T11:15:31.237Z</time></trkpt><trkpt lat="39.9782647" lon="-2.0665212"><ele>1004.0000000000001</ele><time>2026-03-22T11:15:32.266Z</time></trkpt><trkpt lat="39.9782063" lon="-2.0664407"><ele>1004.0</ele><time>2026-03-22T11:15:33.218Z</time></trkpt><trkpt lat="39.9781308" lon="-2.0663629"><ele>1004.6666666666667</ele><time>2026-03-22T11:15:34.178Z</time></trkpt><trkpt lat="39.9780716" lon="-2.0662838"><ele>1005.3333333333334</ele><time>2026-03-22T11:15:35.247Z</time></trkpt><trkpt lat="39.9780175" lon="-2.0662102"><ele>1006.0</ele><time>2026-03-22T11:15:36.241Z</time></trkpt><trkpt lat="39.9779679" lon="-2.0661319"><ele>1006.6666666666667</ele><time>2026-03-22T11:15:37.219Z</time></trkpt><trkpt lat="39.9779242" lon="-2.0660557"><ele>1007.3333333333334</ele><time>2026-03-22T11:15:38.223Z</time></trkpt><trkpt lat="39.977891" lon="-2.0659712"><ele>1008.0</ele><time>2026-03-22T11:15:39.21Z</time></trkpt><trkpt lat="39.9778466" lon="-2.0658466"><ele>1008.0</ele><time>2026-03-22T11:15:41.237Z</time></trkpt><trkpt lat="39.9778111" lon="-2.0657734"><ele>1008.0</ele><time>2026-03-22T11:15:43.221Z</time></trkpt><trkpt lat="39.9777401" lon="-2.0658294"><ele>1008.0</ele><time>2026-03-22T11:15:45.224Z</time></trkpt><trkpt lat="39.9776724" lon="-2.0659443"><ele>1008.0</ele><time>2026-03-22T11:15:47.217Z</time></trkpt><trkpt lat="39.9775867" lon="-2.0661696"><ele>1008.0</ele><time>2026-03-22T11:15:50.233Z</time></trkpt><trkpt lat="39.9775849" lon="-2.0662593"><ele>1008.0</ele><time>2026-03-22T11:15:51.208Z</time></trkpt><trkpt lat="39.9776074" lon="-2.0663395"><ele>1008.0</ele><time>2026-03-22T11:15:52.211Z</time></trkpt><trkpt lat="39.9776398" lon="-2.0664269"><ele>1008.0</ele><time>2026-03-22T11:15:53.2Z</time></trkpt><trkpt lat="39.977665" lon="-2.0665215"><ele>1008.0</ele><time>2026-03-22T11:15:54.174Z</time></trkpt><trkpt lat="39.9776804" lon="-2.0666179"><ele>1008.0</ele><time>2026-03-22T11:15:55.18Z</time></trkpt><trkpt lat="39.9776771" lon="-2.0667231"><ele>1008.0</ele><time>2026-03-22T11:15:56.209Z</time></trkpt><trkpt lat="39.9776616" lon="-2.0668252"><ele>1008.0</ele><time>2026-03-22T11:15:57.199Z</time></trkpt><trkpt lat="39.9776346" lon="-2.0669201"><ele>1008.0</ele><time>2026-03-22T11:15:58.171Z</time></trkpt><trkpt lat="39.9776067" lon="-2.0670042"><ele>1008.0</ele><time>2026-03-22T11:15:59.219Z</time></trkpt><trkpt lat="39.977555" lon="-2.0670727"><ele>1008.0</ele><time>2026-03-22T11:16:00.235Z</time></trkpt><trkpt lat="39.9774875" lon="-2.0671449"><ele>1008.0</ele><time>2026-03-22T11:16:01.215Z</time></trkpt><trkpt lat="39.9774072" lon="-2.0672097"><ele>1008.0</ele><time>2026-03-22T11:16:02.23Z</time></trkpt><trkpt lat="39.9773261" lon="-2.0672703"><ele>1008.0</ele><time>2026-03-22T11:16:03.247Z</time></trkpt><trkpt lat="39.9772364" lon="-2.0673081"><ele>1008.0</ele><time>2026-03-22T11:16:04.199Z</time></trkpt><trkpt lat="39.9771302" lon="-2.0673161"><ele>1008.0</ele><time>2026-03-22T11:16:05.222Z</time></trkpt><trkpt lat="39.9770263" lon="-2.0673329"><ele>1008.0</ele><time>2026-03-22T11:16:06.218Z</time></trkpt><trkpt lat="39.9769441" lon="-2.067341"><ele>1008.0</ele><time>2026-03-22T11:16:07.236Z</time></trkpt><trkpt lat="39.9768744" lon="-2.0673346"><ele>1008.0</ele><time>2026-03-22T11:16:08.224Z</time></trkpt><trkpt lat="39.9768079" lon="-2.0673055"><ele>1008.0</ele><time>2026-03-22T11:16:09.183Z</time></trkpt><trkpt lat="39.9767391" lon="-2.0672554"><ele>1008.0</ele><time>2026-03-22T11:16:10.208Z</time></trkpt><trkpt lat="39.9766689" lon="-2.0672019"><ele>1008.0</ele><time>2026-03-22T11:16:11.214Z</time></trkpt><trkpt lat="39.9765861" lon="-2.0671667"><ele>1008.0</ele><time>2026-03-22T11:16:12.216Z</time></trkpt><trkpt lat="39.9764998" lon="-2.0671492"><ele>1008.0</ele><time>2026-03-22T11:16:13.196Z</time></trkpt><trkpt lat="39.97642" lon="-2.0671297"><ele>1009.8333333333334</ele><time>2026-03-22T11:16:14.146Z</time></trkpt><trkpt lat="39.9763449" lon="-2.0671168"><ele>1011.6666666666667</ele><time>2026-03-22T11:16:15.194Z</time></trkpt><trkpt lat="39.976268" lon="-2.0671104"><ele>1013.5</ele><time>2026-03-22T11:16:16.183Z</time></trkpt><trkpt lat="39.9762021" lon="-2.0671072"><ele>1015.3333333333334</ele><time>2026-03-22T11:16:17.161Z</time></trkpt><trkpt lat="39.9760966" lon="-2.067174"><ele>1017.1666666666667</ele><time>2026-03-22T11:16:19.211Z</time></trkpt><trkpt lat="39.9760399" lon="-2.0672235"><ele>1019.0</ele><time>2026-03-22T11:16:20.222Z</time></trkpt><trkpt lat="39.9759792" lon="-2.0672667"><ele>1019.0000000000001</ele><time>2026-03-22T11:16:21.194Z</time></trkpt><trkpt lat="39.9759142" lon="-2.0672937"><ele>1019.0</ele><time>2026-03-22T11:16:22.208Z</time></trkpt><trkpt lat="39.9758462" lon="-2.0673082"><ele>1019.0</ele><time>2026-03-22T11:16:23.217Z</time></trkpt><trkpt lat="39.9757814" lon="-2.0673129"><ele>1019.0</ele><time>2026-03-22T11:16:24.203Z</time></trkpt><trkpt lat="39.9756661" lon="-2.06733"><ele>1019.0000000000001</ele><time>2026-03-22T11:16:26.195Z</time></trkpt><trkpt lat="39.9755512" lon="-2.0673381"><ele>1019.0</ele><time>2026-03-22T11:16:28.157Z</time></trkpt><trkpt lat="39.9754769" lon="-2.0673266"><ele>1019.5000000000001</ele><time>2026-03-22T11:16:29.167Z</time></trkpt><trkpt lat="39.975401" lon="-2.0673135"><ele>1020.0</ele><time>2026-03-22T11:16:30.199Z</time></trkpt><trkpt lat="39.9753247" lon="-2.0672883"><ele>1020.5</ele><time>2026-03-22T11:16:31.182Z</time></trkpt><trkpt lat="39.9752516" lon="-2.0672561"><ele>1021.0</ele><time>2026-03-22T11:16:32.188Z</time></trkpt><trkpt lat="39.9751675" lon="-2.0672207"><ele>1021.5000000000001</ele><time>2026-03-22T11:16:33.225Z</time></trkpt><trkpt lat="39.9750913" lon="-2.0672035"><ele>1022.0</ele><time>2026-03-22T11:16:34.194Z</time></trkpt><trkpt lat="39.9750239" lon="-2.06722"><ele>1022.0</ele><time>2026-03-22T11:16:35.219Z</time></trkpt><trkpt lat="39.9749168" lon="-2.0672724"><ele>1022.0</ele><time>2026-03-22T11:16:37.202Z</time></trkpt><trkpt lat="39.9748128" lon="-2.0672527"><ele>1022.0</ele><time>2026-03-22T11:16:39.156Z</time></trkpt><trkpt lat="39.974715" lon="-2.0671718"><ele>1022.0</ele><time>2026-03-22T11:16:41.174Z</time></trkpt><trkpt lat="39.9746458" lon="-2.067114"><ele>1022.0</ele><time>2026-03-22T11:16:42.163Z</time></trkpt><trkpt lat="39.9745546" lon="-2.0670334"><ele>1022.0</ele><time>2026-03-22T11:16:43.153Z</time></trkpt><trkpt lat="39.9744645" lon="-2.0669706"><ele>1022.0</ele><time>2026-03-22T11:16:44.186Z</time></trkpt><trkpt lat="39.9743792" lon="-2.0668927"><ele>1022.0</ele><time>2026-03-22T11:16:45.144Z</time></trkpt><trkpt lat="39.974302" lon="-2.0668178"><ele>1022.0</ele><time>2026-03-22T11:16:46.236Z</time></trkpt><trkpt lat="39.97423" lon="-2.0667538"><ele>1022.0</ele><time>2026-03-22T11:16:47.167Z</time></trkpt><trkpt lat="39.9741567" lon="-2.0666864"><ele>1023.0000000000001</ele><time>2026-03-22T11:16:48.144Z</time></trkpt><trkpt lat="39.9740895" lon="-2.0666097"><ele>1024.0</ele><time>2026-03-22T11:16:49.149Z</time></trkpt><trkpt lat="39.9740207" lon="-2.0665365"><ele>1025.0</ele><time>2026-03-22T11:16:50.184Z</time></trkpt><trkpt lat="39.9739464" lon="-2.0664878"><ele>1026.0</ele><time>2026-03-22T11:16:51.145Z</time></trkpt><trkpt lat="39.9738781" lon="-2.0664532"><ele>1027.0</ele><time>2026-03-22T11:16:52.156Z</time></trkpt><trkpt lat="39.9737948" lon="-2.0664294"><ele>1028.0</ele><time>2026-03-22T11:16:53.176Z</time></trkpt><trkpt lat="39.9736957" lon="-2.0664011"><ele>1028.0</ele><time>2026-03-22T11:16:54.14Z</time></trkpt><trkpt lat="39.9735933" lon="-2.0663867"><ele>1028.0</ele><time>2026-03-22T11:16:55.157Z</time></trkpt><trkpt lat="39.9735022" lon="-2.0663512"><ele>1028.0</ele><time>2026-03-22T11:16:56.159Z</time></trkpt><trkpt lat="39.9734142" lon="-2.0662958"><ele>1028.0</ele><time>2026-03-22T11:16:57.154Z</time></trkpt><trkpt lat="39.9733321" lon="-2.0662175"><ele>1028.0</ele><time>2026-03-22T11:16:58.142Z</time></trkpt><trkpt lat="39.973256" lon="-2.0661333"><ele>1028.0</ele><time>2026-03-22T11:16:59.181Z</time></trkpt><trkpt lat="39.9731846" lon="-2.0660689"><ele>1028.0</ele><time>2026-03-22T11:17:00.181Z</time></trkpt><trkpt lat="39.9731237" lon="-2.0660085"><ele>1028.0</ele><time>2026-03-22T11:17:01.153Z</time></trkpt><trkpt lat="39.9730563" lon="-2.0659526"><ele>1028.0</ele><time>2026-03-22T11:17:02.152Z</time></trkpt><trkpt lat="39.9729937" lon="-2.065883"><ele>1028.0</ele><time>2026-03-22T11:17:03.173Z</time></trkpt><trkpt lat="39.9729445" lon="-2.0658221"><ele>1028.0</ele><time>2026-03-22T11:17:04.157Z</time></trkpt><trkpt lat="39.972903" lon="-2.0657576"><ele>1028.8333333333335</ele><time>2026-03-22T11:17:05.156Z</time></trkpt><trkpt lat="39.9728595" lon="-2.0656889"><ele>1029.6666666666667</ele><time>2026-03-22T11:17:06.157Z</time></trkpt><trkpt lat="39.9728164" lon="-2.0656178"><ele>1030.5</ele><time>2026-03-22T11:17:07.176Z</time></trkpt><trkpt lat="39.9727571" lon="-2.0654866"><ele>1031.3333333333333</ele><time>2026-03-22T11:17:09.173Z</time></trkpt><trkpt lat="39.972706" lon="-2.0654102"><ele>1032.1666666666665</ele><time>2026-03-22T11:17:10.174Z</time></trkpt><trkpt lat="39.972652" lon="-2.065318"><ele>1033.0</ele><time>2026-03-22T11:17:11.172Z</time></trkpt><trkpt lat="39.9726027" lon="-2.0652276"><ele>1033.0</ele><time>2026-03-22T11:17:12.165Z</time></trkpt><trkpt lat="39.9725452" lon="-2.0651379"><ele>1033.0</ele><time>2026-03-22T11:17:13.178Z</time></trkpt><trkpt lat="39.9724757" lon="-2.0650712"><ele>1033.0</ele><time>2026-03-22T11:17:14.174Z</time></trkpt><trkpt lat="39.9723996" lon="-2.0650226"><ele>1033.0</ele><time>2026-03-22T11:17:15.155Z</time></trkpt><trkpt lat="39.9723141" lon="-2.0649921"><ele>1033.0</ele><time>2026-03-22T11:17:16.176Z</time></trkpt><trkpt lat="39.9722246" lon="-2.0649605"><ele>1033.0</ele><time>2026-03-22T11:17:17.2Z</time></trkpt><trkpt lat="39.9721321" lon="-2.0649196"><ele>1033.6666666666665</ele><time>2026-03-22T11:17:18.248Z</time></trkpt><trkpt lat="39.9720376" lon="-2.0648745"><ele>1034.3333333333333</ele><time>2026-03-22T11:17:19.252Z</time></trkpt><trkpt lat="39.9719625" lon="-2.064807"><ele>1035.0</ele><time>2026-03-22T11:17:20.233Z</time></trkpt><trkpt lat="39.9718848" lon="-2.0647603"><ele>1035.6666666666667</ele><time>2026-03-22T11:17:21.177Z</time></trkpt><trkpt lat="39.971817" lon="-2.0647295"><ele>1036.3333333333335</ele><time>2026-03-22T11:17:22.181Z</time></trkpt><trkpt lat="39.9717501" lon="-2.0647189"><ele>1037.0</ele><time>2026-03-22T11:17:23.171Z</time></trkpt><trkpt lat="39.9716714" lon="-2.0647077"><ele>1037.0</ele><time>2026-03-22T11:17:24.15Z</time></trkpt><trkpt lat="39.9715972" lon="-2.0646974"><ele>1037.0</ele><time>2026-03-22T11:17:25.184Z</time></trkpt><trkpt lat="39.9715257" lon="-2.0646834"><ele>1037.0</ele><time>2026-03-22T11:17:26.167Z</time></trkpt><trkpt lat="39.971461" lon="-2.0646616"><ele>1037.0</ele><time>2026-03-22T11:17:27.178Z</time></trkpt><trkpt lat="39.9714088" lon="-2.064608"><ele>1037.0</ele><time>2026-03-22T11:17:28.151Z</time></trkpt><trkpt lat="39.9713166" lon="-2.064501"><ele>1037.0</ele><time>2026-03-22T11:17:30.175Z</time></trkpt><trkpt lat="39.9712571" lon="-2.0644649"><ele>1037.0</ele><time>2026-03-22T11:17:31.147Z</time></trkpt><trkpt lat="39.9711904" lon="-2.0644428"><ele>1037.0</ele><time>2026-03-22T11:17:32.155Z</time></trkpt><trkpt lat="39.971122" lon="-2.0644151"><ele>1037.0</ele><time>2026-03-22T11:17:33.144Z</time></trkpt><trkpt lat="39.9710546" lon="-2.0643689"><ele>1037.0</ele><time>2026-03-22T11:17:34.142Z</time></trkpt><trkpt lat="39.9709785" lon="-2.064318"><ele>1037.0</ele><time>2026-03-22T11:17:35.143Z</time></trkpt><trkpt lat="39.9709062" lon="-2.0642463"><ele>1037.0</ele><time>2026-03-22T11:17:36.164Z</time></trkpt><trkpt lat="39.9708369" lon="-2.0641646"><ele>1037.6666666666667</ele><time>2026-03-22T11:17:37.156Z</time></trkpt><trkpt lat="39.9707877" lon="-2.0640807"><ele>1038.3333333333335</ele><time>2026-03-22T11:17:38.173Z</time></trkpt><trkpt lat="39.9707277" lon="-2.064"><ele>1039.0</ele><time>2026-03-22T11:17:39.153Z</time></trkpt><trkpt lat="39.9706791" lon="-2.0639194"><ele>1039.6666666666667</ele><time>2026-03-22T11:17:40.17Z</time></trkpt><trkpt lat="39.9706067" lon="-2.0638512"><ele>1040.3333333333333</ele><time>2026-03-22T11:17:41.159Z</time></trkpt><trkpt lat="39.9705245" lon="-2.0637951"><ele>1041.0</ele><time>2026-03-22T11:17:42.156Z</time></trkpt><trkpt lat="39.9704431" lon="-2.0637638"><ele>1041.0</ele><time>2026-03-22T11:17:43.148Z</time></trkpt><trkpt lat="39.9703676" lon="-2.0637182"><ele>1041.0</ele><time>2026-03-22T11:17:44.157Z</time></trkpt><trkpt lat="39.9702989" lon="-2.0636618"><ele>1041.0</ele><time>2026-03-22T11:17:45.136Z</time></trkpt><trkpt lat="39.9702635" lon="-2.0635826"><ele>1041.0</ele><time>2026-03-22T11:17:46.171Z</time></trkpt><trkpt lat="39.9702534" lon="-2.0634903"><ele>1041.0</ele><time>2026-03-22T11:17:47.159Z</time></trkpt><trkpt lat="39.9702448" lon="-2.0634049"><ele>1041.0</ele><time>2026-03-22T11:17:48.16Z</time></trkpt><trkpt lat="39.9702004" lon="-2.0633402"><ele>1041.0</ele><time>2026-03-22T11:17:49.164Z</time></trkpt><trkpt lat="39.9701576" lon="-2.0632767"><ele>1041.6666666666667</ele><time>2026-03-22T11:17:50.152Z</time></trkpt><trkpt lat="39.9700875" lon="-2.063154"><ele>1042.3333333333333</ele><time>2026-03-22T11:17:52.158Z</time></trkpt><trkpt lat="39.9700187" lon="-2.0630536"><ele>1043.0</ele><time>2026-03-22T11:17:54.148Z</time></trkpt><trkpt lat="39.9699762" lon="-2.062984"><ele>1043.6666666666665</ele><time>2026-03-22T11:17:57.17Z</time></trkpt><trkpt lat="39.9699259" lon="-2.0629076"><ele>1044.3333333333333</ele><time>2026-03-22T11:17:59.217Z</time></trkpt><trkpt lat="39.9698618" lon="-2.0628803"><ele>1045.0</ele><time>2026-03-22T11:18:01.169Z</time></trkpt><trkpt lat="39.9697955" lon="-2.0628495"><ele>1045.0</ele><time>2026-03-22T11:18:05.191Z</time></trkpt><trkpt lat="39.9698186" lon="-2.0627681"><ele>1045.0</ele><time>2026-03-22T11:18:07.24Z</time></trkpt><trkpt lat="39.9698735" lon="-2.0626502"><ele>1045.0</ele><time>2026-03-22T11:18:09.148Z</time></trkpt><trkpt lat="39.9698881" lon="-2.0625507"><ele>1045.0</ele><time>2026-03-22T11:18:11.157Z</time></trkpt><trkpt lat="39.9698376" lon="-2.0624718"><ele>1045.0</ele><time>2026-03-22T11:18:13.154Z</time></trkpt><trkpt lat="39.9697832" lon="-2.0624176"><ele>1045.0</ele><time>2026-03-22T11:18:14.141Z</time></trkpt><trkpt lat="39.9697094" lon="-2.0623705"><ele>1045.6666666666665</ele><time>2026-03-22T11:18:15.168Z</time></trkpt><trkpt lat="39.9696397" lon="-2.0623199"><ele>1046.3333333333333</ele><time>2026-03-22T11:18:16.144Z</time></trkpt><trkpt lat="39.9695792" lon="-2.0622751"><ele>1047.0</ele><time>2026-03-22T11:18:17.137Z</time></trkpt><trkpt lat="39.9695172" lon="-2.0622447"><ele>1047.6666666666667</ele><time>2026-03-22T11:18:18.149Z</time></trkpt><trkpt lat="39.9694429" lon="-2.0622418"><ele>1048.3333333333335</ele><time>2026-03-22T11:18:19.14Z</time></trkpt><trkpt lat="39.9693703" lon="-2.0622408"><ele>1049.0</ele><time>2026-03-22T11:18:20.139Z</time></trkpt><trkpt lat="39.9692543" lon="-2.06224"><ele>1049.8</ele><time>2026-03-22T11:18:22.146Z</time></trkpt><trkpt lat="39.9691293" lon="-2.0622091"><ele>1050.6000000000001</ele><time>2026-03-22T11:18:24.153Z</time></trkpt><trkpt lat="39.9690629" lon="-2.0621917"><ele>1051.4</ele><time>2026-03-22T11:18:25.156Z</time></trkpt><trkpt lat="39.9689891" lon="-2.062189"><ele>1052.2</ele><time>2026-03-22T11:18:26.154Z</time></trkpt><trkpt lat="39.9689055" lon="-2.0621748"><ele>1053.0</ele><time>2026-03-22T11:18:27.137Z</time></trkpt><trkpt lat="39.968811" lon="-2.0621256"><ele>1053.0</ele><time>2026-03-22T11:18:28.143Z</time></trkpt><trkpt lat="39.9687258" lon="-2.0620356"><ele>1053.0</ele><time>2026-03-22T11:18:29.141Z</time></trkpt><trkpt lat="39.9686487" lon="-2.0619507"><ele>1053.0</ele><time>2026-03-22T11:18:30.153Z</time></trkpt><trkpt lat="39.9685808" lon="-2.0618752"><ele>1053.0</ele><time>2026-03-22T11:18:31.157Z</time></trkpt><trkpt lat="39.9685149" lon="-2.0618216"><ele>1053.0</ele><time>2026-03-22T11:18:32.146Z</time></trkpt><trkpt lat="39.9684381" lon="-2.0617817"><ele>1053.0</ele><time>2026-03-22T11:18:33.149Z</time></trkpt><trkpt lat="39.9683706" lon="-2.0617433"><ele>1053.0</ele><time>2026-03-22T11:18:34.141Z</time></trkpt><trkpt lat="39.9682771" lon="-2.0616424"><ele>1053.0</ele><time>2026-03-22T11:18:36.14Z</time></trkpt><trkpt lat="39.9682319" lon="-2.0615774"><ele>1053.0</ele><time>2026-03-22T11:18:37.144Z</time></trkpt><trkpt lat="39.9681736" lon="-2.0615255"><ele>1053.0</ele><time>2026-03-22T11:18:38.145Z</time></trkpt><trkpt lat="39.9681085" lon="-2.0614713"><ele>1053.0</ele><time>2026-03-22T11:18:39.153Z</time></trkpt><trkpt lat="39.9680456" lon="-2.0614239"><ele>1052.6666666666667</ele><time>2026-03-22T11:18:40.144Z</time></trkpt><trkpt lat="39.9679858" lon="-2.0613763"><ele>1052.3333333333333</ele><time>2026-03-22T11:18:41.142Z</time></trkpt><trkpt lat="39.967931" lon="-2.0613268"><ele>1052.0</ele><time>2026-03-22T11:18:42.155Z</time></trkpt><trkpt lat="39.967886" lon="-2.0612666"><ele>1051.6666666666665</ele><time>2026-03-22T11:18:43.147Z</time></trkpt><trkpt lat="39.9677919" lon="-2.0611677"><ele>1051.3333333333333</ele><time>2026-03-22T11:18:45.149Z</time></trkpt><trkpt lat="39.9677248" lon="-2.0610903"><ele>1051.0</ele><time>2026-03-22T11:18:47.145Z</time></trkpt><trkpt lat="39.9676465" lon="-2.0610334"><ele>1051.0</ele><time>2026-03-22T11:18:49.156Z</time></trkpt><trkpt lat="39.9675368" lon="-2.0609613"><ele>1051.0</ele><time>2026-03-22T11:18:51.143Z</time></trkpt><trkpt lat="39.9674765" lon="-2.0609038"><ele>1051.0</ele><time>2026-03-22T11:18:52.154Z</time></trkpt><trkpt lat="39.9674182" lon="-2.0608498"><ele>1051.0</ele><time>2026-03-22T11:18:53.146Z</time></trkpt><trkpt lat="39.9673619" lon="-2.0608006"><ele>1051.0</ele><time>2026-03-22T11:18:54.141Z</time></trkpt><trkpt lat="39.9673063" lon="-2.0607558"><ele>1051.0</ele><time>2026-03-22T11:18:55.142Z</time></trkpt><trkpt lat="39.9672032" lon="-2.0606767"><ele>1052.6</ele><time>2026-03-22T11:18:57.141Z</time></trkpt><trkpt lat="39.9671035" lon="-2.060618"><ele>1054.1999999999998</ele><time>2026-03-22T11:18:59.153Z</time></trkpt><trkpt lat="39.966966" lon="-2.0606035"><ele>1055.8000000000002</ele><time>2026-03-22T11:19:01.151Z</time></trkpt><trkpt lat="39.9668933" lon="-2.0606193"><ele>1057.4</ele><time>2026-03-22T11:19:02.146Z</time></trkpt><trkpt lat="39.9668166" lon="-2.060628"><ele>1059.0</ele><time>2026-03-22T11:19:03.14Z</time></trkpt><trkpt lat="39.9666923" lon="-2.0606436"><ele>1059.2857142857142</ele><time>2026-03-22T11:19:05.155Z</time></trkpt><trkpt lat="39.9666199" lon="-2.0606897"><ele>1059.5714285714284</ele><time>2026-03-22T11:19:06.141Z</time></trkpt><trkpt lat="39.966552" lon="-2.0607443"><ele>1059.857142857143</ele><time>2026-03-22T11:19:07.139Z</time></trkpt><trkpt lat="39.9664861" lon="-2.0607788"><ele>1060.142857142857</ele><time>2026-03-22T11:19:08.146Z</time></trkpt><trkpt lat="39.966422" lon="-2.0608049"><ele>1060.4285714285716</ele><time>2026-03-22T11:19:09.147Z</time></trkpt><trkpt lat="39.966357" lon="-2.0608239"><ele>1060.7142857142858</ele><time>2026-03-22T11:19:10.144Z</time></trkpt><trkpt lat="39.9662962" lon="-2.0608598"><ele>1061.0</ele><time>2026-03-22T11:19:11.134Z</time></trkpt><trkpt lat="39.9662351" lon="-2.0609216"><ele>1061.0</ele><time>2026-03-22T11:19:12.144Z</time></trkpt><trkpt lat="39.966167" lon="-2.060968"><ele>1061.0</ele><time>2026-03-22T11:19:13.151Z</time></trkpt><trkpt lat="39.9661038" lon="-2.0610261"><ele>1061.0</ele><time>2026-03-22T11:19:14.165Z</time></trkpt><trkpt lat="39.9660413" lon="-2.0610662"><ele>1061.0</ele><time>2026-03-22T11:19:15.151Z</time></trkpt><trkpt lat="39.96598" lon="-2.0611023"><ele>1061.0</ele><time>2026-03-22T11:19:16.14Z</time></trkpt><trkpt lat="39.9658711" lon="-2.0611605"><ele>1061.0</ele><time>2026-03-22T11:19:18.153Z</time></trkpt><trkpt lat="39.9657574" lon="-2.0611936"><ele>1062.0</ele><time>2026-03-22T11:19:20.146Z</time></trkpt><trkpt lat="39.9656378" lon="-2.0612462"><ele>1063.0</ele><time>2026-03-22T11:19:22.137Z</time></trkpt><trkpt lat="39.9655701" lon="-2.0612606"><ele>1064.0</ele><time>2026-03-22T11:19:23.133Z</time></trkpt><trkpt lat="39.9654537" lon="-2.0612975"><ele>1065.0</ele><time>2026-03-22T11:19:25.157Z</time></trkpt><trkpt lat="39.9653442" lon="-2.0613139"><ele>1066.0</ele><time>2026-03-22T11:19:27.128Z</time></trkpt><trkpt lat="39.9652741" lon="-2.0613212"><ele>1066.0</ele><time>2026-03-22T11:19:28.166Z</time></trkpt><trkpt lat="39.965166" lon="-2.0613859"><ele>1066.0</ele><time>2026-03-22T11:19:30.161Z</time></trkpt><trkpt lat="39.9650533" lon="-2.0614467"><ele>1066.0</ele><time>2026-03-22T11:19:32.149Z</time></trkpt><trkpt lat="39.9649896" lon="-2.0614734"><ele>1066.0</ele><time>2026-03-22T11:19:33.152Z</time></trkpt><trkpt lat="39.9648718" lon="-2.061534"><ele>1066.0</ele><time>2026-03-22T11:19:35.157Z</time></trkpt><trkpt lat="39.9647846" lon="-2.061547"><ele>1067.5</ele><time>2026-03-22T11:19:36.15Z</time></trkpt><trkpt lat="39.9647072" lon="-2.0615681"><ele>1069.0</ele><time>2026-03-22T11:19:37.142Z</time></trkpt><trkpt lat="39.9646439" lon="-2.0615745"><ele>1070.5</ele><time>2026-03-22T11:19:38.152Z</time></trkpt><trkpt lat="39.9645218" lon="-2.0615638"><ele>1072.0</ele><time>2026-03-22T11:19:40.145Z</time></trkpt><trkpt lat="39.9644069" lon="-2.0615755"><ele>1073.5</ele><time>2026-03-22T11:19:42.144Z</time></trkpt><trkpt lat="39.9643434" lon="-2.0615879"><ele>1075.0</ele><time>2026-03-22T11:19:43.148Z</time></trkpt><trkpt lat="39.9642515" lon="-2.0615858"><ele>1076.8</ele><time>2026-03-22T11:19:45.171Z</time></trkpt><trkpt lat="39.9641568" lon="-2.0615333"><ele>1078.6</ele><time>2026-03-22T11:19:47.153Z</time></trkpt><trkpt lat="39.9640658" lon="-2.061497"><ele>1080.4</ele><time>2026-03-22T11:19:49.152Z</time></trkpt><trkpt lat="39.9639692" lon="-2.0614904"><ele>1082.2</ele><time>2026-03-22T11:19:51.145Z</time></trkpt><trkpt lat="39.9638853" lon="-2.0615359"><ele>1084.0</ele><time>2026-03-22T11:19:53.143Z</time></trkpt><trkpt lat="39.9638114" lon="-2.061544"><ele>1084.0</ele><time>2026-03-22T11:19:55.141Z</time></trkpt><trkpt lat="39.9637393" lon="-2.0615506"><ele>1084.0</ele><time>2026-03-22T11:19:57.143Z</time></trkpt><trkpt lat="39.9636719" lon="-2.0615584"><ele>1084.0</ele><time>2026-03-22T11:19:59.204Z</time></trkpt><trkpt lat="39.9635876" lon="-2.0615444"><ele>1084.0</ele><time>2026-03-22T11:20:01.155Z</time></trkpt><trkpt lat="39.9635027" lon="-2.0615477"><ele>1084.0</ele><time>2026-03-22T11:20:03.175Z</time></trkpt><trkpt lat="39.9634231" lon="-2.0615527"><ele>1084.0</ele><time>2026-03-22T11:20:05.169Z</time></trkpt><trkpt lat="39.963349" lon="-2.0615569"><ele>1084.6000000000001</ele><time>2026-03-22T11:20:07.184Z</time></trkpt><trkpt lat="39.9632541" lon="-2.061557"><ele>1085.2</ele><time>2026-03-22T11:20:09.162Z</time></trkpt><trkpt lat="39.9631623" lon="-2.0615694"><ele>1085.8000000000002</ele><time>2026-03-22T11:20:11.163Z</time></trkpt><trkpt lat="39.9630744" lon="-2.0615985"><ele>1086.4</ele><time>2026-03-22T11:20:13.219Z</time></trkpt><trkpt lat="39.9629701" lon="-2.061545"><ele>1087.0</ele><time>2026-03-22T11:20:15.193Z</time></trkpt><trkpt lat="39.962851" lon="-2.0614888"><ele>1087.0</ele><time>2026-03-22T11:20:17.166Z</time></trkpt><trkpt lat="39.9627865" lon="-2.0614482"><ele>1087.0</ele><time>2026-03-22T11:20:18.204Z</time></trkpt><trkpt lat="39.9627324" lon="-2.0613903"><ele>1087.0</ele><time>2026-03-22T11:20:19.196Z</time></trkpt><trkpt lat="39.9626366" lon="-2.0613044"><ele>1087.0</ele><time>2026-03-22T11:20:21.179Z</time></trkpt><trkpt lat="39.9625308" lon="-2.061242"><ele>1087.0</ele><time>2026-03-22T11:20:23.157Z</time></trkpt><trkpt lat="39.9624568" lon="-2.06116"><ele>1087.5</ele><time>2026-03-22T11:20:25.152Z</time></trkpt><trkpt lat="39.9623805" lon="-2.0611239"><ele>1088.0</ele><time>2026-03-22T11:20:27.214Z</time></trkpt><trkpt lat="39.9623808" lon="-2.0610219"><ele>1088.5</ele><time>2026-03-22T11:20:29.18Z</time></trkpt><trkpt lat="39.9623464" lon="-2.0608796"><ele>1089.0</ele><time>2026-03-22T11:20:31.166Z</time></trkpt><trkpt lat="39.9622989" lon="-2.0607808"><ele>1089.5</ele><time>2026-03-22T11:20:33.175Z</time></trkpt><trkpt lat="39.9622247" lon="-2.060735"><ele>1090.0</ele><time>2026-03-22T11:20:35.165Z</time></trkpt><trkpt lat="39.9621364" lon="-2.0606109"><ele>1090.2857142857142</ele><time>2026-03-22T11:20:37.168Z</time></trkpt><trkpt lat="39.9620814" lon="-2.0605597"><ele>1090.5714285714287</ele><time>2026-03-22T11:20:38.177Z</time></trkpt><trkpt lat="39.9620203" lon="-2.0605163"><ele>1090.857142857143</ele><time>2026-03-22T11:20:39.208Z</time></trkpt><trkpt lat="39.961941" lon="-2.0604555"><ele>1091.142857142857</ele><time>2026-03-22T11:20:41.197Z</time></trkpt><trkpt lat="39.9618657" lon="-2.0604394"><ele>1091.4285714285716</ele><time>2026-03-22T11:20:44.203Z</time></trkpt><trkpt lat="39.9618268" lon="-2.0605097"><ele>1091.7142857142858</ele><time>2026-03-22T11:20:45.152Z</time></trkpt><trkpt lat="39.9617846" lon="-2.0605747"><ele>1092.0</ele><time>2026-03-22T11:20:46.165Z</time></trkpt><trkpt lat="39.961717" lon="-2.0606848"><ele>1092.5</ele><time>2026-03-22T11:20:48.18Z</time></trkpt><trkpt lat="39.9616632" lon="-2.060783"><ele>1093.0</ele><time>2026-03-22T11:20:50.188Z</time></trkpt><trkpt lat="39.9616306" lon="-2.0608618"><ele>1093.5</ele><time>2026-03-22T11:20:52.161Z</time></trkpt><trkpt lat="39.9615974" lon="-2.0609386"><ele>1094.0</ele><time>2026-03-22T11:20:54.226Z</time></trkpt><trkpt lat="39.9615336" lon="-2.0610494"><ele>1094.5</ele><time>2026-03-22T11:20:56.152Z</time></trkpt><trkpt lat="39.9614967" lon="-2.0611162"><ele>1095.0</ele><time>2026-03-22T11:20:57.178Z</time></trkpt><trkpt lat="39.9614521" lon="-2.0611889"><ele>1095.0</ele><time>2026-03-22T11:20:58.162Z</time></trkpt><trkpt lat="39.961393" lon="-2.0612774"><ele>1095.0</ele><time>2026-03-22T11:20:59.165Z</time></trkpt><trkpt lat="39.9613293" lon="-2.0613451"><ele>1095.0</ele><time>2026-03-22T11:21:00.176Z</time></trkpt><trkpt lat="39.9612669" lon="-2.0614122"><ele>1095.0</ele><time>2026-03-22T11:21:01.149Z</time></trkpt><trkpt lat="39.9612005" lon="-2.0615065"><ele>1095.0</ele><time>2026-03-22T11:21:02.164Z</time></trkpt><trkpt lat="39.9611404" lon="-2.0615795"><ele>1095.0</ele><time>2026-03-22T11:21:03.175Z</time></trkpt><trkpt lat="39.9610646" lon="-2.0616491"><ele>1095.1666666666667</ele><time>2026-03-22T11:21:04.16Z</time></trkpt><trkpt lat="39.9610057" lon="-2.0617154"><ele>1095.3333333333333</ele><time>2026-03-22T11:21:05.147Z</time></trkpt><trkpt lat="39.9609442" lon="-2.0617726"><ele>1095.5</ele><time>2026-03-22T11:21:06.159Z</time></trkpt><trkpt lat="39.9608804" lon="-2.0618243"><ele>1095.6666666666665</ele><time>2026-03-22T11:21:07.215Z</time></trkpt><trkpt lat="39.9608143" lon="-2.0618767"><ele>1095.8333333333333</ele><time>2026-03-22T11:21:08.148Z</time></trkpt><trkpt lat="39.9607409" lon="-2.0619325"><ele>1096.0</ele><time>2026-03-22T11:21:09.174Z</time></trkpt><trkpt lat="39.9606613" lon="-2.0619818"><ele>1097.0000000000002</ele><time>2026-03-22T11:21:10.181Z</time></trkpt><trkpt lat="39.9605904" lon="-2.0620443"><ele>1098.0</ele><time>2026-03-22T11:21:11.149Z</time></trkpt><trkpt lat="39.9605271" lon="-2.0621013"><ele>1099.0</ele><time>2026-03-22T11:21:12.177Z</time></trkpt><trkpt lat="39.9604669" lon="-2.0621419"><ele>1100.0</ele><time>2026-03-22T11:21:13.168Z</time></trkpt><trkpt lat="39.9604026" lon="-2.0621485"><ele>1101.0</ele><time>2026-03-22T11:21:14.152Z</time></trkpt><trkpt lat="39.9603358" lon="-2.0621304"><ele>1102.0000000000002</ele><time>2026-03-22T11:21:15.165Z</time></trkpt><trkpt lat="39.9602595" lon="-2.0621164"><ele>1103.0</ele><time>2026-03-22T11:21:16.169Z</time></trkpt><trkpt lat="39.9601812" lon="-2.0621208"><ele>1103.0000000000002</ele><time>2026-03-22T11:21:17.162Z</time></trkpt><trkpt lat="39.9601143" lon="-2.0621529"><ele>1103.0</ele><time>2026-03-22T11:21:18.157Z</time></trkpt><trkpt lat="39.9600432" lon="-2.0621904"><ele>1103.0</ele><time>2026-03-22T11:21:19.144Z</time></trkpt><trkpt lat="39.9599734" lon="-2.0622135"><ele>1103.0</ele><time>2026-03-22T11:21:20.154Z</time></trkpt><trkpt lat="39.9599108" lon="-2.0622501"><ele>1103.0</ele><time>2026-03-22T11:21:21.19Z</time></trkpt><trkpt lat="39.9598433" lon="-2.0622741"><ele>1103.0000000000002</ele><time>2026-03-22T11:21:22.205Z</time></trkpt><trkpt lat="39.9597715" lon="-2.0622749"><ele>1103.0</ele><time>2026-03-22T11:21:23.155Z</time></trkpt><trkpt lat="39.9596945" lon="-2.0622605"><ele>1103.5</ele><time>2026-03-22T11:21:24.145Z</time></trkpt><trkpt lat="39.9596208" lon="-2.0622373"><ele>1104.0</ele><time>2026-03-22T11:21:25.145Z</time></trkpt><trkpt lat="39.9595527" lon="-2.0622227"><ele>1104.5</ele><time>2026-03-22T11:21:26.167Z</time></trkpt><trkpt lat="39.959483" lon="-2.0622256"><ele>1105.0</ele><time>2026-03-22T11:21:27.157Z</time></trkpt><trkpt lat="39.9594163" lon="-2.062233"><ele>1105.5</ele><time>2026-03-22T11:21:28.158Z</time></trkpt><trkpt lat="39.9593053" lon="-2.0622424"><ele>1106.0</ele><time>2026-03-22T11:21:30.158Z</time></trkpt><trkpt lat="39.9592245" lon="-2.0622437"><ele>1106.3333333333335</ele><time>2026-03-22T11:21:32.148Z</time></trkpt><trkpt lat="39.9591411" lon="-2.0622081"><ele>1106.6666666666667</ele><time>2026-03-22T11:21:34.16Z</time></trkpt><trkpt lat="39.9590991" lon="-2.0621202"><ele>1107.0</ele><time>2026-03-22T11:21:36.153Z</time></trkpt><trkpt lat="39.9591306" lon="-2.0619611"><ele>1107.3333333333333</ele><time>2026-03-22T11:21:38.198Z</time></trkpt><trkpt lat="39.9591484" lon="-2.0618736"><ele>1107.6666666666665</ele><time>2026-03-22T11:21:39.2Z</time></trkpt><trkpt lat="39.959155" lon="-2.0617627"><ele>1108.0</ele><time>2026-03-22T11:21:40.192Z</time></trkpt><trkpt lat="39.9591915" lon="-2.0616148"><ele>1108.8</ele><time>2026-03-22T11:21:42.16Z</time></trkpt><trkpt lat="39.9592123" lon="-2.0615338"><ele>1109.6</ele><time>2026-03-22T11:21:43.211Z</time></trkpt><trkpt lat="39.959253" lon="-2.0613876"><ele>1110.4</ele><time>2026-03-22T11:21:45.212Z</time></trkpt><trkpt lat="39.9592772" lon="-2.0612249"><ele>1111.2</ele><time>2026-03-22T11:21:47.163Z</time></trkpt><trkpt lat="39.9592982" lon="-2.061088"><ele>1112.0</ele><time>2026-03-22T11:21:49.167Z</time></trkpt><trkpt lat="39.9593317" lon="-2.0609411"><ele>1112.0</ele><time>2026-03-22T11:21:51.199Z</time></trkpt><trkpt lat="39.959363" lon="-2.0607939"><ele>1112.0</ele><time>2026-03-22T11:21:53.149Z</time></trkpt><trkpt lat="39.959374" lon="-2.0606267"><ele>1112.0</ele><time>2026-03-22T11:21:55.183Z</time></trkpt><trkpt lat="39.9593641" lon="-2.0604662"><ele>1112.0</ele><time>2026-03-22T11:21:57.17Z</time></trkpt><trkpt lat="39.9593536" lon="-2.0603364"><ele>1112.3333333333335</ele><time>2026-03-22T11:21:59.176Z</time></trkpt><trkpt lat="39.959318" lon="-2.0602645"><ele>1112.6666666666667</ele><time>2026-03-22T11:22:01.148Z</time></trkpt><trkpt lat="39.9592553" lon="-2.0602391"><ele>1113.0</ele><time>2026-03-22T11:22:03.164Z</time></trkpt><trkpt lat="39.9591337" lon="-2.0602706"><ele>1113.3333333333333</ele><time>2026-03-22T11:22:05.148Z</time></trkpt><trkpt lat="39.9590686" lon="-2.0602812"><ele>1113.6666666666665</ele><time>2026-03-22T11:22:06.156Z</time></trkpt><trkpt lat="39.9590046" lon="-2.0603063"><ele>1114.0</ele><time>2026-03-22T11:22:07.147Z</time></trkpt><trkpt lat="39.9589384" lon="-2.0603293"><ele>1114.0</ele><time>2026-03-22T11:22:08.157Z</time></trkpt><trkpt lat="39.9588734" lon="-2.0603586"><ele>1114.0</ele><time>2026-03-22T11:22:09.154Z</time></trkpt><trkpt lat="39.9588078" lon="-2.0603986"><ele>1114.0</ele><time>2026-03-22T11:22:10.158Z</time></trkpt><trkpt lat="39.9587449" lon="-2.0604611"><ele>1114.0</ele><time>2026-03-22T11:22:11.172Z</time></trkpt><trkpt lat="39.9586851" lon="-2.060499"><ele>1114.0</ele><time>2026-03-22T11:22:12.167Z</time></trkpt><trkpt lat="39.9585689" lon="-2.0605627"><ele>1114.0</ele><time>2026-03-22T11:22:14.156Z</time></trkpt><trkpt lat="39.9584527" lon="-2.0606261"><ele>1114.6000000000001</ele><time>2026-03-22T11:22:16.189Z</time></trkpt><trkpt lat="39.9583423" lon="-2.0606689"><ele>1115.2</ele><time>2026-03-22T11:22:18.155Z</time></trkpt><trkpt lat="39.9582356" lon="-2.0606985"><ele>1115.8000000000002</ele><time>2026-03-22T11:22:20.158Z</time></trkpt><trkpt lat="39.958101" lon="-2.0607201"><ele>1116.4</ele><time>2026-03-22T11:22:22.152Z</time></trkpt><trkpt lat="39.9580151" lon="-2.0607438"><ele>1117.0</ele><time>2026-03-22T11:22:23.181Z</time></trkpt><trkpt lat="39.957932" lon="-2.0607603"><ele>1116.5</ele><time>2026-03-22T11:22:24.192Z</time></trkpt><trkpt lat="39.957856" lon="-2.0607841"><ele>1116.0</ele><time>2026-03-22T11:22:25.189Z</time></trkpt><trkpt lat="39.9577858" lon="-2.0608166"><ele>1115.5</ele><time>2026-03-22T11:22:26.173Z</time></trkpt><trkpt lat="39.9577191" lon="-2.0608546"><ele>1115.0</ele><time>2026-03-22T11:22:27.187Z</time></trkpt><trkpt lat="39.9576517" lon="-2.0609006"><ele>1114.5</ele><time>2026-03-22T11:22:28.192Z</time></trkpt><trkpt lat="39.9575833" lon="-2.060966"><ele>1114.0</ele><time>2026-03-22T11:22:29.167Z</time></trkpt><trkpt lat="39.9575055" lon="-2.0610511"><ele>1115.1666666666665</ele><time>2026-03-22T11:22:30.144Z</time></trkpt><trkpt lat="39.9574171" lon="-2.0611323"><ele>1116.3333333333333</ele><time>2026-03-22T11:22:31.156Z</time></trkpt><trkpt lat="39.9573322" lon="-2.0611948"><ele>1117.5</ele><time>2026-03-22T11:22:32.167Z</time></trkpt><trkpt lat="39.9572622" lon="-2.0612381"><ele>1118.6666666666667</ele><time>2026-03-22T11:22:33.148Z</time></trkpt><trkpt lat="39.9571972" lon="-2.0612758"><ele>1119.8333333333335</ele><time>2026-03-22T11:22:34.143Z</time></trkpt><trkpt lat="39.9571284" lon="-2.0613062"><ele>1121.0</ele><time>2026-03-22T11:22:35.158Z</time></trkpt><trkpt lat="39.957047" lon="-2.0612899"><ele>1121.0</ele><time>2026-03-22T11:22:36.154Z</time></trkpt><trkpt lat="39.9569631" lon="-2.061256"><ele>1121.0</ele><time>2026-03-22T11:22:37.16Z</time></trkpt><trkpt lat="39.9568812" lon="-2.0612547"><ele>1121.0</ele><time>2026-03-22T11:22:38.15Z</time></trkpt><trkpt lat="39.9568103" lon="-2.0612461"><ele>1121.0</ele><time>2026-03-22T11:22:39.197Z</time></trkpt><trkpt lat="39.9566961" lon="-2.061204"><ele>1121.0</ele><time>2026-03-22T11:22:41.144Z</time></trkpt><trkpt lat="39.9566361" lon="-2.0611737"><ele>1121.0</ele><time>2026-03-22T11:22:42.219Z</time></trkpt><trkpt lat="39.9565536" lon="-2.061146"><ele>1123.0</ele><time>2026-03-22T11:22:43.186Z</time></trkpt><trkpt lat="39.9564875" lon="-2.0611012"><ele>1125.0</ele><time>2026-03-22T11:22:44.168Z</time></trkpt><trkpt lat="39.9564087" lon="-2.0610996"><ele>1127.0</ele><time>2026-03-22T11:22:45.196Z</time></trkpt><trkpt lat="39.9563238" lon="-2.0611082"><ele>1129.0</ele><time>2026-03-22T11:22:46.178Z</time></trkpt><trkpt lat="39.9562409" lon="-2.0611091"><ele>1131.0</ele><time>2026-03-22T11:22:47.185Z</time></trkpt><trkpt lat="39.9561637" lon="-2.0611216"><ele>1133.0</ele><time>2026-03-22T11:22:48.173Z</time></trkpt><trkpt lat="39.9560488" lon="-2.0610973"><ele>1133.0</ele><time>2026-03-22T11:22:50.149Z</time></trkpt><trkpt lat="39.955936" lon="-2.0610711"><ele>1133.0</ele><time>2026-03-22T11:22:52.168Z</time></trkpt><trkpt lat="39.955835" lon="-2.061048"><ele>1133.0</ele><time>2026-03-22T11:22:54.161Z</time></trkpt><trkpt lat="39.9557644" lon="-2.0610246"><ele>1133.0</ele><time>2026-03-22T11:22:57.167Z</time></trkpt><trkpt lat="39.9556823" lon="-2.0609656"><ele>1133.0</ele><time>2026-03-22T11:23:00.156Z</time></trkpt><trkpt lat="39.9556409" lon="-2.0609021"><ele>1133.0</ele><time>2026-03-22T11:23:03.15Z</time></trkpt><trkpt lat="39.9557193" lon="-2.0609982"><ele>1133.0</ele><time>2026-03-22T11:23:09.157Z</time></trkpt><trkpt lat="39.95579" lon="-2.061038"><ele>1133.0</ele><time>2026-03-22T11:23:10.147Z</time></trkpt><trkpt lat="39.9558842" lon="-2.0610687"><ele>1133.0</ele><time>2026-03-22T11:23:11.145Z</time></trkpt><trkpt lat="39.9559766" lon="-2.0610927"><ele>1133.0</ele><time>2026-03-22T11:23:12.175Z</time></trkpt><trkpt lat="39.9560681" lon="-2.0611095"><ele>1133.0</ele><time>2026-03-22T11:23:13.168Z</time></trkpt><trkpt lat="39.9561406" lon="-2.0611252"><ele>1133.0</ele><time>2026-03-22T11:23:14.156Z</time></trkpt><trkpt lat="39.9562337" lon="-2.0611351"><ele>1133.0</ele><time>2026-03-22T11:23:15.157Z</time></trkpt><trkpt lat="39.9563245" lon="-2.0611498"><ele>1133.0</ele><time>2026-03-22T11:23:16.187Z</time></trkpt><trkpt lat="39.9564081" lon="-2.06117"><ele>1133.0</ele><time>2026-03-22T11:23:17.163Z</time></trkpt><trkpt lat="39.9564822" lon="-2.0611865"><ele>1133.0</ele><time>2026-03-22T11:23:18.189Z</time></trkpt><trkpt lat="39.9565861" lon="-2.0612091"><ele>1133.0</ele><time>2026-03-22T11:23:20.164Z</time></trkpt><trkpt lat="39.9566141" lon="-2.061301"><ele>1133.0</ele><time>2026-03-22T11:23:23.111Z</time></trkpt><trkpt lat="39.9565644" lon="-2.0613975"><ele>1133.0</ele><time>2026-03-22T11:23:25.165Z</time></trkpt><trkpt lat="39.9564906" lon="-2.0615038"><ele>1133.0</ele><time>2026-03-22T11:23:27.178Z</time></trkpt><trkpt lat="39.9564434" lon="-2.0615775"><ele>1133.0</ele><time>2026-03-22T11:23:28.189Z</time></trkpt><trkpt lat="39.9563864" lon="-2.0616611"><ele>1133.0</ele><time>2026-03-22T11:23:29.161Z</time></trkpt><trkpt lat="39.9563239" lon="-2.0617459"><ele>1133.0</ele><time>2026-03-22T11:23:30.16Z</time></trkpt><trkpt lat="39.9562567" lon="-2.0618302"><ele>1132.4</ele><time>2026-03-22T11:23:31.149Z</time></trkpt><trkpt lat="39.9561804" lon="-2.0619053"><ele>1131.8</ele><time>2026-03-22T11:23:32.167Z</time></trkpt><trkpt lat="39.9561067" lon="-2.0619806"><ele>1131.2</ele><time>2026-03-22T11:23:33.159Z</time></trkpt><trkpt lat="39.956034" lon="-2.0620608"><ele>1130.6</ele><time>2026-03-22T11:23:34.195Z</time></trkpt><trkpt lat="39.9559772" lon="-2.0621316"><ele>1130.0</ele><time>2026-03-22T11:23:35.167Z</time></trkpt><trkpt lat="39.9559208" lon="-2.0622502"><ele>1130.0</ele><time>2026-03-22T11:23:37.158Z</time></trkpt><trkpt lat="39.955916" lon="-2.062336"><ele>1130.0</ele><time>2026-03-22T11:23:38.158Z</time></trkpt><trkpt lat="39.955899" lon="-2.0624386"><ele>1130.0</ele><time>2026-03-22T11:23:39.167Z</time></trkpt><trkpt lat="39.9558857" lon="-2.0625657"><ele>1130.0</ele><time>2026-03-22T11:23:40.16Z</time></trkpt><trkpt lat="39.9558723" lon="-2.0626867"><ele>1130.0</ele><time>2026-03-22T11:23:41.141Z</time></trkpt><trkpt lat="39.9558788" lon="-2.0628091"><ele>1130.0</ele><time>2026-03-22T11:23:42.156Z</time></trkpt><trkpt lat="39.9558816" lon="-2.0629132"><ele>1129.1666666666667</ele><time>2026-03-22T11:23:43.15Z</time></trkpt><trkpt lat="39.9558776" lon="-2.0630173"><ele>1128.3333333333335</ele><time>2026-03-22T11:23:44.151Z</time></trkpt><trkpt lat="39.9558712" lon="-2.0631256"><ele>1127.5</ele><time>2026-03-22T11:23:45.161Z</time></trkpt><trkpt lat="39.9558734" lon="-2.0632246"><ele>1126.6666666666667</ele><time>2026-03-22T11:23:46.166Z</time></trkpt><trkpt lat="39.9558742" lon="-2.0633089"><ele>1125.8333333333333</ele><time>2026-03-22T11:23:47.161Z</time></trkpt><trkpt lat="39.9558693" lon="-2.0634507"><ele>1125.0</ele><time>2026-03-22T11:23:49.177Z</time></trkpt><trkpt lat="39.9558009" lon="-2.0635726"><ele>1129.5</ele><time>2026-03-22T11:23:51.16Z</time></trkpt><trkpt lat="39.9557376" lon="-2.0636043"><ele>1134.0</ele><time>2026-03-22T11:23:52.154Z</time></trkpt><trkpt lat="39.9556667" lon="-2.0636375"><ele>1138.5</ele><time>2026-03-22T11:23:53.14Z</time></trkpt><trkpt lat="39.9555783" lon="-2.0636683"><ele>1143.0</ele><time>2026-03-22T11:23:54.15Z</time></trkpt><trkpt lat="39.9554814" lon="-2.0637025"><ele>1147.5</ele><time>2026-03-22T11:23:55.173Z</time></trkpt><trkpt lat="39.955399" lon="-2.0637312"><ele>1152.0</ele><time>2026-03-22T11:23:56.173Z</time></trkpt><trkpt lat="39.9553139" lon="-2.0637735"><ele>1152.0</ele><time>2026-03-22T11:23:57.158Z</time></trkpt><trkpt lat="39.955233" lon="-2.063816"><ele>1152.0</ele><time>2026-03-22T11:23:58.163Z</time></trkpt><trkpt lat="39.955146" lon="-2.0638534"><ele>1152.0</ele><time>2026-03-22T11:23:59.135Z</time></trkpt><trkpt lat="39.955064" lon="-2.0638935"><ele>1152.0</ele><time>2026-03-22T11:24:00.153Z</time></trkpt><trkpt lat="39.9549884" lon="-2.0639447"><ele>1152.0</ele><time>2026-03-22T11:24:01.141Z</time></trkpt><trkpt lat="39.9549362" lon="-2.0639944"><ele>1152.0</ele><time>2026-03-22T11:24:02.16Z</time></trkpt><trkpt lat="39.9548573" lon="-2.0640706"><ele>1154.8333333333333</ele><time>2026-03-22T11:24:04.157Z</time></trkpt><trkpt lat="39.9548075" lon="-2.0641218"><ele>1157.6666666666667</ele><time>2026-03-22T11:24:05.2Z</time></trkpt><trkpt lat="39.9547432" lon="-2.064168"><ele>1160.5</ele><time>2026-03-22T11:24:06.156Z</time></trkpt><trkpt lat="39.9546912" lon="-2.0642208"><ele>1163.3333333333335</ele><time>2026-03-22T11:24:07.152Z</time></trkpt><trkpt lat="39.9546543" lon="-2.0643066"><ele>1166.1666666666667</ele><time>2026-03-22T11:24:08.173Z</time></trkpt><trkpt lat="39.9546256" lon="-2.0644126"><ele>1169.0</ele><time>2026-03-22T11:24:09.156Z</time></trkpt><trkpt lat="39.95459" lon="-2.0645399"><ele>1169.0</ele><time>2026-03-22T11:24:10.17Z</time></trkpt><trkpt lat="39.9545532" lon="-2.0646632"><ele>1169.0</ele><time>2026-03-22T11:24:11.2Z</time></trkpt><trkpt lat="39.9545264" lon="-2.0647754"><ele>1169.0</ele><time>2026-03-22T11:24:12.183Z</time></trkpt><trkpt lat="39.9545044" lon="-2.0648746"><ele>1169.0</ele><time>2026-03-22T11:24:13.197Z</time></trkpt><trkpt lat="39.9544788" lon="-2.0649807"><ele>1169.0</ele><time>2026-03-22T11:24:14.227Z</time></trkpt><trkpt lat="39.9544611" lon="-2.0651037"><ele>1170.2</ele><time>2026-03-22T11:24:15.215Z</time></trkpt><trkpt lat="39.9544473" lon="-2.0652352"><ele>1171.4</ele><time>2026-03-22T11:24:16.155Z</time></trkpt><trkpt lat="39.9544417" lon="-2.0653745"><ele>1172.6</ele><time>2026-03-22T11:24:17.177Z</time></trkpt><trkpt lat="39.954437" lon="-2.0655008"><ele>1173.8</ele><time>2026-03-22T11:24:18.182Z</time></trkpt><trkpt lat="39.9544293" lon="-2.065628"><ele>1175.0</ele><time>2026-03-22T11:24:19.157Z</time></trkpt><trkpt lat="39.9544102" lon="-2.0657452"><ele>1177.2</ele><time>2026-03-22T11:24:20.159Z</time></trkpt><trkpt lat="39.9543855" lon="-2.0658546"><ele>1179.4</ele><time>2026-03-22T11:24:21.143Z</time></trkpt><trkpt lat="39.954336" lon="-2.0659725"><ele>1181.6</ele><time>2026-03-22T11:24:22.16Z</time></trkpt><trkpt lat="39.9542828" lon="-2.0660949"><ele>1183.8</ele><time>2026-03-22T11:24:23.187Z</time></trkpt><trkpt lat="39.9542408" lon="-2.0662128"><ele>1186.0</ele><time>2026-03-22T11:24:24.171Z</time></trkpt><trkpt lat="39.9541989" lon="-2.0663181"><ele>1188.3333333333333</ele><time>2026-03-22T11:24:25.15Z</time></trkpt><trkpt lat="39.9541538" lon="-2.0664327"><ele>1190.6666666666665</ele><time>2026-03-22T11:24:26.143Z</time></trkpt><trkpt lat="39.9541135" lon="-2.0665253"><ele>1193.0</ele><time>2026-03-22T11:24:27.183Z</time></trkpt><trkpt lat="39.9540737" lon="-2.0666012"><ele>1195.3333333333333</ele><time>2026-03-22T11:24:28.143Z</time></trkpt><trkpt lat="39.9540375" lon="-2.0666745"><ele>1197.6666666666667</ele><time>2026-03-22T11:24:29.192Z</time></trkpt><trkpt lat="39.9540033" lon="-2.0667439"><ele>1200.0</ele><time>2026-03-22T11:24:30.154Z</time></trkpt><trkpt lat="39.9539467" lon="-2.0668505"><ele>1200.0</ele><time>2026-03-22T11:24:32.153Z</time></trkpt><trkpt lat="39.9538766" lon="-2.0669141"><ele>1200.0</ele><time>2026-03-22T11:24:34.139Z</time></trkpt><trkpt lat="39.9537798" lon="-2.0668275"><ele>1200.0</ele><time>2026-03-22T11:24:36.162Z</time></trkpt><trkpt lat="39.9537015" lon="-2.0667468"><ele>1200.0</ele><time>2026-03-22T11:24:37.157Z</time></trkpt><trkpt lat="39.9536167" lon="-2.0666627"><ele>1200.0</ele><time>2026-03-22T11:24:38.148Z</time></trkpt><trkpt lat="39.9535474" lon="-2.0665789"><ele>1200.0</ele><time>2026-03-22T11:24:39.175Z</time></trkpt><trkpt lat="39.9534752" lon="-2.0664909"><ele>1200.0</ele><time>2026-03-22T11:24:40.187Z</time></trkpt><trkpt lat="39.9534023" lon="-2.0664196"><ele>1200.0</ele><time>2026-03-22T11:24:41.153Z</time></trkpt><trkpt lat="39.953325" lon="-2.066426"><ele>1200.0</ele><time>2026-03-22T11:24:43.162Z</time></trkpt><trkpt lat="39.9532672" lon="-2.0665066"><ele>1200.0</ele><time>2026-03-22T11:24:46.176Z</time></trkpt><trkpt lat="39.9532305" lon="-2.0665755"><ele>1200.0</ele><time>2026-03-22T11:24:47.151Z</time></trkpt><trkpt lat="39.9531771" lon="-2.0667113"><ele>1204.5</ele><time>2026-03-22T11:24:49.16Z</time></trkpt><trkpt lat="39.9531314" lon="-2.0668512"><ele>1209.0</ele><time>2026-03-22T11:24:51.16Z</time></trkpt><trkpt lat="39.9530667" lon="-2.0669453"><ele>1213.5</ele><time>2026-03-22T11:24:53.165Z</time></trkpt><trkpt lat="39.9529618" lon="-2.0669958"><ele>1218.0</ele><time>2026-03-22T11:24:55.159Z</time></trkpt><trkpt lat="39.9528382" lon="-2.0669374"><ele>1218.0</ele><time>2026-03-22T11:24:57.152Z</time></trkpt><trkpt lat="39.9527588" lon="-2.0669191"><ele>1218.0</ele><time>2026-03-22T11:24:58.201Z</time></trkpt><trkpt lat="39.9526871" lon="-2.0669186"><ele>1218.0</ele><time>2026-03-22T11:24:59.217Z</time></trkpt><trkpt lat="39.9526148" lon="-2.0669239"><ele>1218.0</ele><time>2026-03-22T11:25:00.2Z</time></trkpt><trkpt lat="39.9525153" lon="-2.0669577"><ele>1218.0</ele><time>2026-03-22T11:25:02.193Z</time></trkpt><trkpt lat="39.9524887" lon="-2.0670371"><ele>1218.0</ele><time>2026-03-22T11:25:04.193Z</time></trkpt><trkpt lat="39.9525026" lon="-2.0672168"><ele>1218.8</ele><time>2026-03-22T11:25:06.204Z</time></trkpt><trkpt lat="39.952511" lon="-2.0673419"><ele>1219.6</ele><time>2026-03-22T11:25:07.159Z</time></trkpt><trkpt lat="39.952494" lon="-2.067481"><ele>1220.4</ele><time>2026-03-22T11:25:08.187Z</time></trkpt><trkpt lat="39.9524684" lon="-2.0676261"><ele>1221.2</ele><time>2026-03-22T11:25:09.164Z</time></trkpt><trkpt lat="39.9524483" lon="-2.0677685"><ele>1222.0</ele><time>2026-03-22T11:25:10.183Z</time></trkpt><trkpt lat="39.9524311" lon="-2.0679042"><ele>1222.1666666666665</ele><time>2026-03-22T11:25:11.161Z</time></trkpt><trkpt lat="39.9524007" lon="-2.0680272"><ele>1222.3333333333333</ele><time>2026-03-22T11:25:12.171Z</time></trkpt><trkpt lat="39.9523714" lon="-2.068145"><ele>1222.5</ele><time>2026-03-22T11:25:13.174Z</time></trkpt><trkpt lat="39.9523441" lon="-2.0682522"><ele>1222.6666666666667</ele><time>2026-03-22T11:25:14.15Z</time></trkpt><trkpt lat="39.9523274" lon="-2.0683472"><ele>1222.8333333333335</ele><time>2026-03-22T11:25:15.171Z</time></trkpt><trkpt lat="39.952335" lon="-2.0684449"><ele>1223.0</ele><time>2026-03-22T11:25:16.169Z</time></trkpt><trkpt lat="39.9523417" lon="-2.0685481"><ele>1223.5</ele><time>2026-03-22T11:25:17.165Z</time></trkpt><trkpt lat="39.9523399" lon="-2.0686599"><ele>1224.0</ele><time>2026-03-22T11:25:18.156Z</time></trkpt><trkpt lat="39.9523248" lon="-2.0687658"><ele>1224.5</ele><time>2026-03-22T11:25:19.15Z</time></trkpt><trkpt lat="39.9523224" lon="-2.0688714"><ele>1225.0</ele><time>2026-03-22T11:25:20.144Z</time></trkpt><trkpt lat="39.9523364" lon="-2.0689572"><ele>1225.5</ele><time>2026-03-22T11:25:21.176Z</time></trkpt><trkpt lat="39.9523473" lon="-2.069046"><ele>1226.0</ele><time>2026-03-22T11:25:22.198Z</time></trkpt><trkpt lat="39.9523274" lon="-2.0691439"><ele>1226.2</ele><time>2026-03-22T11:25:23.198Z</time></trkpt><trkpt lat="39.9523024" lon="-2.0692581"><ele>1226.3999999999999</ele><time>2026-03-22T11:25:24.16Z</time></trkpt><trkpt lat="39.952286" lon="-2.0693803"><ele>1226.6</ele><time>2026-03-22T11:25:25.161Z</time></trkpt><trkpt lat="39.9522854" lon="-2.0695052"><ele>1226.8</ele><time>2026-03-22T11:25:26.186Z</time></trkpt><trkpt lat="39.9522838" lon="-2.0696315"><ele>1227.0</ele><time>2026-03-22T11:25:27.191Z</time></trkpt><trkpt lat="39.9522814" lon="-2.0697629"><ele>1227.0</ele><time>2026-03-22T11:25:28.152Z</time></trkpt><trkpt lat="39.9522777" lon="-2.0698884"><ele>1227.0</ele><time>2026-03-22T11:25:29.186Z</time></trkpt><trkpt lat="39.9522624" lon="-2.0700015"><ele>1227.0</ele><time>2026-03-22T11:25:30.149Z</time></trkpt><trkpt lat="39.9522419" lon="-2.0700978"><ele>1227.0</ele><time>2026-03-22T11:25:31.16Z</time></trkpt><trkpt lat="39.9522257" lon="-2.0701811"><ele>1227.0</ele><time>2026-03-22T11:25:32.15Z</time></trkpt><trkpt lat="39.9521648" lon="-2.070326"><ele>1227.5</ele><time>2026-03-22T11:25:34.141Z</time></trkpt><trkpt lat="39.9521098" lon="-2.0703834"><ele>1228.0</ele><time>2026-03-22T11:25:35.145Z</time></trkpt><trkpt lat="39.9520577" lon="-2.0704451"><ele>1228.5</ele><time>2026-03-22T11:25:36.151Z</time></trkpt><trkpt lat="39.9520084" lon="-2.070528"><ele>1229.0</ele><time>2026-03-22T11:25:37.147Z</time></trkpt><trkpt lat="39.9519558" lon="-2.0705991"><ele>1229.5</ele><time>2026-03-22T11:25:38.147Z</time></trkpt><trkpt lat="39.9518999" lon="-2.0706717"><ele>1230.0</ele><time>2026-03-22T11:25:39.146Z</time></trkpt><trkpt lat="39.9518289" lon="-2.0707105"><ele>1230.0</ele><time>2026-03-22T11:25:40.156Z</time></trkpt><trkpt lat="39.951755" lon="-2.0707712"><ele>1230.0</ele><time>2026-03-22T11:25:41.145Z</time></trkpt><trkpt lat="39.9516921" lon="-2.0708407"><ele>1230.0</ele><time>2026-03-22T11:25:42.148Z</time></trkpt><trkpt lat="39.9516333" lon="-2.0709156"><ele>1230.0</ele><time>2026-03-22T11:25:43.141Z</time></trkpt><trkpt lat="39.951574" lon="-2.0709966"><ele>1230.0</ele><time>2026-03-22T11:25:44.146Z</time></trkpt><trkpt lat="39.9515224" lon="-2.0710995"><ele>1230.0</ele><time>2026-03-22T11:25:45.142Z</time></trkpt><trkpt lat="39.9514655" lon="-2.0712065"><ele>1229.8</ele><time>2026-03-22T11:25:46.145Z</time></trkpt><trkpt lat="39.9514126" lon="-2.0713166"><ele>1229.6</ele><time>2026-03-22T11:25:47.143Z</time></trkpt><trkpt lat="39.9513633" lon="-2.0714242"><ele>1229.4</ele><time>2026-03-22T11:25:48.153Z</time></trkpt><trkpt lat="39.9513238" lon="-2.071526"><ele>1229.2</ele><time>2026-03-22T11:25:49.142Z</time></trkpt><trkpt lat="39.9512902" lon="-2.0716267"><ele>1229.0</ele><time>2026-03-22T11:25:50.129Z</time></trkpt><trkpt lat="39.9512556" lon="-2.0717292"><ele>1229.0000000000002</ele><time>2026-03-22T11:25:51.125Z</time></trkpt><trkpt lat="39.9512204" lon="-2.0718243"><ele>1229.0</ele><time>2026-03-22T11:25:52.148Z</time></trkpt><trkpt lat="39.951193" lon="-2.0719167"><ele>1229.0</ele><time>2026-03-22T11:25:53.134Z</time></trkpt><trkpt lat="39.9511703" lon="-2.0720144"><ele>1229.0</ele><time>2026-03-22T11:25:54.143Z</time></trkpt><trkpt lat="39.9511475" lon="-2.0721059"><ele>1229.0</ele><time>2026-03-22T11:25:55.175Z</time></trkpt><trkpt lat="39.9511207" lon="-2.0721891"><ele>1229.0000000000002</ele><time>2026-03-22T11:25:56.152Z</time></trkpt><trkpt lat="39.9511026" lon="-2.0722706"><ele>1229.0</ele><time>2026-03-22T11:25:57.163Z</time></trkpt><trkpt lat="39.9511135" lon="-2.0724187"><ele>1227.1666666666667</ele><time>2026-03-22T11:25:59.158Z</time></trkpt><trkpt lat="39.951194" lon="-2.0725497"><ele>1225.3333333333335</ele><time>2026-03-22T11:26:01.135Z</time></trkpt><trkpt lat="39.9512548" lon="-2.0726124"><ele>1223.5</ele><time>2026-03-22T11:26:02.162Z</time></trkpt><trkpt lat="39.9513237" lon="-2.0726587"><ele>1221.6666666666667</ele><time>2026-03-22T11:26:03.154Z</time></trkpt><trkpt lat="39.951394" lon="-2.0726933"><ele>1219.8333333333333</ele><time>2026-03-22T11:26:04.149Z</time></trkpt><trkpt lat="39.9514652" lon="-2.072723"><ele>1218.0</ele><time>2026-03-22T11:26:05.169Z</time></trkpt><trkpt lat="39.9515449" lon="-2.0727488"><ele>1218.0</ele><time>2026-03-22T11:26:06.18Z</time></trkpt><trkpt lat="39.9516201" lon="-2.0727463"><ele>1218.0</ele><time>2026-03-22T11:26:07.144Z</time></trkpt><trkpt lat="39.9516933" lon="-2.0727535"><ele>1218.0</ele><time>2026-03-22T11:26:08.152Z</time></trkpt><trkpt lat="39.9517654" lon="-2.0727673"><ele>1218.0</ele><time>2026-03-22T11:26:09.152Z</time></trkpt><trkpt lat="39.9518337" lon="-2.0727909"><ele>1218.0</ele><time>2026-03-22T11:26:10.163Z</time></trkpt><trkpt lat="39.9518893" lon="-2.0728367"><ele>1218.0</ele><time>2026-03-22T11:26:11.165Z</time></trkpt><trkpt lat="39.9519458" lon="-2.0729649"><ele>1218.3333333333333</ele><time>2026-03-22T11:26:13.142Z</time></trkpt><trkpt lat="39.9519633" lon="-2.0731166"><ele>1218.6666666666667</ele><time>2026-03-22T11:26:15.153Z</time></trkpt><trkpt lat="39.9519539" lon="-2.0732055"><ele>1219.0</ele><time>2026-03-22T11:26:16.154Z</time></trkpt><trkpt lat="39.951927" lon="-2.0733001"><ele>1219.3333333333335</ele><time>2026-03-22T11:26:17.151Z</time></trkpt><trkpt lat="39.9518927" lon="-2.0734003"><ele>1219.6666666666667</ele><time>2026-03-22T11:26:18.157Z</time></trkpt><trkpt lat="39.9518464" lon="-2.0735039"><ele>1220.0</ele><time>2026-03-22T11:26:19.149Z</time></trkpt><trkpt lat="39.9517965" lon="-2.0736072"><ele>1218.6</ele><time>2026-03-22T11:26:20.151Z</time></trkpt><trkpt lat="39.9517431" lon="-2.073716"><ele>1217.2</ele><time>2026-03-22T11:26:21.157Z</time></trkpt><trkpt lat="39.9516841" lon="-2.0738181"><ele>1215.8</ele><time>2026-03-22T11:26:22.146Z</time></trkpt><trkpt lat="39.9516201" lon="-2.0739191"><ele>1214.4</ele><time>2026-03-22T11:26:23.147Z</time></trkpt><trkpt lat="39.9515573" lon="-2.0740427"><ele>1213.0</ele><time>2026-03-22T11:26:24.139Z</time></trkpt><trkpt lat="39.9514791" lon="-2.0741213"><ele>1209.5</ele><time>2026-03-22T11:26:25.149Z</time></trkpt><trkpt lat="39.9514034" lon="-2.0742481"><ele>1206.0</ele><time>2026-03-22T11:26:26.161Z</time></trkpt><trkpt lat="39.951326" lon="-2.0743617"><ele>1202.5</ele><time>2026-03-22T11:26:27.15Z</time></trkpt><trkpt lat="39.9512396" lon="-2.0744521"><ele>1199.0</ele><time>2026-03-22T11:26:28.166Z</time></trkpt><trkpt lat="39.9511501" lon="-2.074539"><ele>1199.0</ele><time>2026-03-22T11:26:29.14Z</time></trkpt><trkpt lat="39.9510631" lon="-2.0746329"><ele>1199.0</ele><time>2026-03-22T11:26:30.161Z</time></trkpt><trkpt lat="39.9509653" lon="-2.0747075"><ele>1199.0</ele><time>2026-03-22T11:26:31.156Z</time></trkpt><trkpt lat="39.9508711" lon="-2.0747777"><ele>1199.0</ele><time>2026-03-22T11:26:32.147Z</time></trkpt><trkpt lat="39.9507883" lon="-2.0748536"><ele>1199.0</ele><time>2026-03-22T11:26:33.16Z</time></trkpt><trkpt lat="39.9507062" lon="-2.0749259"><ele>1197.1666666666667</ele><time>2026-03-22T11:26:34.141Z</time></trkpt><trkpt lat="39.9506253" lon="-2.0749939"><ele>1195.3333333333335</ele><time>2026-03-22T11:26:35.157Z</time></trkpt><trkpt lat="39.9505437" lon="-2.0750567"><ele>1193.5</ele><time>2026-03-22T11:26:36.143Z</time></trkpt><trkpt lat="39.9504665" lon="-2.0751126"><ele>1191.6666666666667</ele><time>2026-03-22T11:26:37.159Z</time></trkpt><trkpt lat="39.9503911" lon="-2.0751633"><ele>1189.8333333333333</ele><time>2026-03-22T11:26:38.17Z</time></trkpt><trkpt lat="39.950316" lon="-2.0752122"><ele>1188.0</ele><time>2026-03-22T11:26:39.148Z</time></trkpt><trkpt lat="39.9502401" lon="-2.0752519"><ele>1188.0</ele><time>2026-03-22T11:26:40.141Z</time></trkpt><trkpt lat="39.9501621" lon="-2.0752796"><ele>1188.0</ele><time>2026-03-22T11:26:41.159Z</time></trkpt><trkpt lat="39.9500869" lon="-2.0753084"><ele>1188.0</ele><time>2026-03-22T11:26:42.163Z</time></trkpt><trkpt lat="39.9500121" lon="-2.0753389"><ele>1188.0</ele><time>2026-03-22T11:26:43.176Z</time></trkpt><trkpt lat="39.9499368" lon="-2.0753702"><ele>1188.0</ele><time>2026-03-22T11:26:44.136Z</time></trkpt><trkpt lat="39.9498552" lon="-2.0754012"><ele>1188.0</ele><time>2026-03-22T11:26:45.149Z</time></trkpt><trkpt lat="39.9497666" lon="-2.0754273"><ele>1185.6</ele><time>2026-03-22T11:26:46.149Z</time></trkpt><trkpt lat="39.9496794" lon="-2.0754594"><ele>1183.1999999999998</ele><time>2026-03-22T11:26:47.151Z</time></trkpt><trkpt lat="39.9495798" lon="-2.0754922"><ele>1180.8</ele><time>2026-03-22T11:26:48.128Z</time></trkpt><trkpt lat="39.9494816" lon="-2.0755499"><ele>1178.3999999999999</ele><time>2026-03-22T11:26:49.161Z</time></trkpt><trkpt lat="39.9493863" lon="-2.075613"><ele>1176.0</ele><time>2026-03-22T11:26:50.131Z</time></trkpt><trkpt lat="39.9493037" lon="-2.0756931"><ele>1177.0</ele><time>2026-03-22T11:26:51.151Z</time></trkpt><trkpt lat="39.949227" lon="-2.0757912"><ele>1178.0</ele><time>2026-03-22T11:26:52.187Z</time></trkpt><trkpt lat="39.9491454" lon="-2.0758922"><ele>1179.0</ele><time>2026-03-22T11:26:53.179Z</time></trkpt><trkpt lat="39.9490578" lon="-2.0759971"><ele>1180.0</ele><time>2026-03-22T11:26:54.183Z</time></trkpt><trkpt lat="39.9489726" lon="-2.0760994"><ele>1177.2</ele><time>2026-03-22T11:26:55.183Z</time></trkpt><trkpt lat="39.9488963" lon="-2.0761964"><ele>1174.4</ele><time>2026-03-22T11:26:56.146Z</time></trkpt><trkpt lat="39.9488193" lon="-2.0762856"><ele>1171.6</ele><time>2026-03-22T11:26:57.157Z</time></trkpt><trkpt lat="39.9487416" lon="-2.0763662"><ele>1168.8</ele><time>2026-03-22T11:26:58.16Z</time></trkpt><trkpt lat="39.9486704" lon="-2.0764442"><ele>1166.0</ele><time>2026-03-22T11:26:59.184Z</time></trkpt><trkpt lat="39.948604" lon="-2.0765217"><ele>1166.6</ele><time>2026-03-22T11:27:00.175Z</time></trkpt><trkpt lat="39.9485358" lon="-2.0766046"><ele>1167.1999999999998</ele><time>2026-03-22T11:27:01.16Z</time></trkpt><trkpt lat="39.9484599" lon="-2.076688"><ele>1167.8000000000002</ele><time>2026-03-22T11:27:02.16Z</time></trkpt><trkpt lat="39.9483896" lon="-2.076773"><ele>1168.4</ele><time>2026-03-22T11:27:03.161Z</time></trkpt><trkpt lat="39.9483041" lon="-2.0768417"><ele>1169.0</ele><time>2026-03-22T11:27:04.192Z</time></trkpt><trkpt lat="39.948211" lon="-2.0769004"><ele>1166.8333333333335</ele><time>2026-03-22T11:27:05.166Z</time></trkpt><trkpt lat="39.9481215" lon="-2.0769641"><ele>1164.6666666666667</ele><time>2026-03-22T11:27:06.145Z</time></trkpt><trkpt lat="39.9480284" lon="-2.0770215"><ele>1162.5</ele><time>2026-03-22T11:27:07.147Z</time></trkpt><trkpt lat="39.9479443" lon="-2.0770765"><ele>1160.3333333333333</ele><time>2026-03-22T11:27:08.158Z</time></trkpt><trkpt lat="39.9478743" lon="-2.0771266"><ele>1158.1666666666665</ele><time>2026-03-22T11:27:09.173Z</time></trkpt><trkpt lat="39.9478152" lon="-2.0771638"><ele>1156.0</ele><time>2026-03-22T11:27:10.142Z</time></trkpt><trkpt lat="39.9477417" lon="-2.0771853"><ele>1156.0</ele><time>2026-03-22T11:27:12.157Z</time></trkpt><trkpt lat="39.9476831" lon="-2.0771543"><ele>1156.0</ele><time>2026-03-22T11:27:14.157Z</time></trkpt><trkpt lat="39.947623" lon="-2.0770693"><ele>1156.0</ele><time>2026-03-22T11:27:16.137Z</time></trkpt><trkpt lat="39.9475939" lon="-2.0769574"><ele>1156.0</ele><time>2026-03-22T11:27:17.14Z</time></trkpt><trkpt lat="39.9475426" lon="-2.0768202"><ele>1156.0</ele><time>2026-03-22T11:27:18.139Z</time></trkpt><trkpt lat="39.9474817" lon="-2.0766865"><ele>1155.0</ele><time>2026-03-22T11:27:19.152Z</time></trkpt><trkpt lat="39.947424" lon="-2.0765397"><ele>1154.0</ele><time>2026-03-22T11:27:20.146Z</time></trkpt><trkpt lat="39.9473683" lon="-2.0763863"><ele>1153.0</ele><time>2026-03-22T11:27:21.152Z</time></trkpt><trkpt lat="39.9473098" lon="-2.0762268"><ele>1152.0</ele><time>2026-03-22T11:27:22.168Z</time></trkpt><trkpt lat="39.9472528" lon="-2.0760682"><ele>1152.0</ele><time>2026-03-22T11:27:23.145Z</time></trkpt><trkpt lat="39.947194" lon="-2.0759131"><ele>1152.0</ele><time>2026-03-22T11:27:24.143Z</time></trkpt><trkpt lat="39.9471347" lon="-2.0757553"><ele>1152.0</ele><time>2026-03-22T11:27:25.151Z</time></trkpt><trkpt lat="39.9470833" lon="-2.075588"><ele>1152.0</ele><time>2026-03-22T11:27:26.138Z</time></trkpt><trkpt lat="39.9470278" lon="-2.075419"><ele>1153.75</ele><time>2026-03-22T11:27:27.151Z</time></trkpt><trkpt lat="39.9469672" lon="-2.07526"><ele>1155.5</ele><time>2026-03-22T11:27:28.151Z</time></trkpt><trkpt lat="39.9469058" lon="-2.075103"><ele>1157.25</ele><time>2026-03-22T11:27:29.145Z</time></trkpt><trkpt lat="39.9468351" lon="-2.074952"><ele>1159.0</ele><time>2026-03-22T11:27:30.156Z</time></trkpt><trkpt lat="39.9467589" lon="-2.0748092"><ele>1157.25</ele><time>2026-03-22T11:27:31.141Z</time></trkpt><trkpt lat="39.9466729" lon="-2.074677"><ele>1155.5</ele><time>2026-03-22T11:27:32.142Z</time></trkpt><trkpt lat="39.9465845" lon="-2.074539"><ele>1153.75</ele><time>2026-03-22T11:27:33.155Z</time></trkpt><trkpt lat="39.9464984" lon="-2.0744119"><ele>1152.0</ele><time>2026-03-22T11:27:34.149Z</time></trkpt><trkpt lat="39.9464138" lon="-2.0742709"><ele>1152.0</ele><time>2026-03-22T11:27:35.143Z</time></trkpt><trkpt lat="39.9463328" lon="-2.0741319"><ele>1152.0</ele><time>2026-03-22T11:27:36.138Z</time></trkpt><trkpt lat="39.9462502" lon="-2.0739985"><ele>1152.0</ele><time>2026-03-22T11:27:37.157Z</time></trkpt><trkpt lat="39.9461569" lon="-2.0738758"><ele>1152.0</ele><time>2026-03-22T11:27:38.154Z</time></trkpt><trkpt lat="39.9460514" lon="-2.0737612"><ele>1153.5</ele><time>2026-03-22T11:27:39.164Z</time></trkpt><trkpt lat="39.945943" lon="-2.0736828"><ele>1155.0</ele><time>2026-03-22T11:27:40.154Z</time></trkpt><trkpt lat="39.9458336" lon="-2.0736161"><ele>1156.5</ele><time>2026-03-22T11:27:41.149Z</time></trkpt><trkpt lat="39.9457213" lon="-2.0735486"><ele>1158.0</ele><time>2026-03-22T11:27:42.136Z</time></trkpt><trkpt lat="39.9456113" lon="-2.0734761"><ele>1155.5</ele><time>2026-03-22T11:27:43.129Z</time></trkpt><trkpt lat="39.9455044" lon="-2.0734052"><ele>1153.0</ele><time>2026-03-22T11:27:44.142Z</time></trkpt><trkpt lat="39.9453936" lon="-2.0733345"><ele>1150.5</ele><time>2026-03-22T11:27:45.143Z</time></trkpt><trkpt lat="39.9452757" lon="-2.0732673"><ele>1148.0</ele><time>2026-03-22T11:27:46.147Z</time></trkpt><trkpt lat="39.9451566" lon="-2.0731978"><ele>1145.5</ele><time>2026-03-22T11:27:47.146Z</time></trkpt><trkpt lat="39.9450389" lon="-2.0731221"><ele>1143.0</ele><time>2026-03-22T11:27:48.141Z</time></trkpt><trkpt lat="39.9449228" lon="-2.0730479"><ele>1140.5</ele><time>2026-03-22T11:27:49.139Z</time></trkpt><trkpt lat="39.9448099" lon="-2.0729653"><ele>1138.0</ele><time>2026-03-22T11:27:50.136Z</time></trkpt><trkpt lat="39.9446964" lon="-2.0728754"><ele>1138.0</ele><time>2026-03-22T11:27:51.147Z</time></trkpt><trkpt lat="39.9445839" lon="-2.0727818"><ele>1138.0</ele><time>2026-03-22T11:27:52.154Z</time></trkpt><trkpt lat="39.9444718" lon="-2.072681"><ele>1138.0</ele><time>2026-03-22T11:27:53.149Z</time></trkpt><trkpt lat="39.9443555" lon="-2.0725818"><ele>1138.0</ele><time>2026-03-22T11:27:54.13Z</time></trkpt><trkpt lat="39.9442398" lon="-2.072476"><ele>1138.0</ele><time>2026-03-22T11:27:55.184Z</time></trkpt><trkpt lat="39.9441256" lon="-2.0723673"><ele>1138.0</ele><time>2026-03-22T11:27:56.171Z</time></trkpt><trkpt lat="39.94402" lon="-2.0722594"><ele>1138.0</ele><time>2026-03-22T11:27:57.162Z</time></trkpt><trkpt lat="39.9439201" lon="-2.0721497"><ele>1138.0</ele><time>2026-03-22T11:27:58.176Z</time></trkpt><trkpt lat="39.9438274" lon="-2.072043"><ele>1138.0</ele><time>2026-03-22T11:27:59.158Z</time></trkpt><trkpt lat="39.943738" lon="-2.071942"><ele>1138.0</ele><time>2026-03-22T11:28:00.218Z</time></trkpt><trkpt lat="39.9436497" lon="-2.0718487"><ele>1138.0</ele><time>2026-03-22T11:28:01.195Z</time></trkpt><trkpt lat="39.9435628" lon="-2.0717593"><ele>1138.0</ele><time>2026-03-22T11:28:02.149Z</time></trkpt><trkpt lat="39.9434823" lon="-2.0716705"><ele>1138.0</ele><time>2026-03-22T11:28:03.158Z</time></trkpt><trkpt lat="39.9433978" lon="-2.0715902"><ele>1135.6</ele><time>2026-03-22T11:28:04.163Z</time></trkpt><trkpt lat="39.9433044" lon="-2.0715125"><ele>1133.1999999999998</ele><time>2026-03-22T11:28:05.2Z</time></trkpt><trkpt lat="39.9432075" lon="-2.0714342"><ele>1130.8</ele><time>2026-03-22T11:28:06.203Z</time></trkpt><trkpt lat="39.9431143" lon="-2.0713762"><ele>1128.3999999999999</ele><time>2026-03-22T11:28:07.158Z</time></trkpt><trkpt lat="39.9430265" lon="-2.0713172"><ele>1126.0</ele><time>2026-03-22T11:28:08.178Z</time></trkpt><trkpt lat="39.9429482" lon="-2.0712599"><ele>1126.0</ele><time>2026-03-22T11:28:09.154Z</time></trkpt><trkpt lat="39.9428779" lon="-2.0712156"><ele>1126.0</ele><time>2026-03-22T11:28:10.164Z</time></trkpt><trkpt lat="39.9427803" lon="-2.0711319"><ele>1126.0</ele><time>2026-03-22T11:28:12.176Z</time></trkpt><trkpt lat="39.9427312" lon="-2.0710004"><ele>1126.0</ele><time>2026-03-22T11:28:14.149Z</time></trkpt><trkpt lat="39.9426586" lon="-2.0708967"><ele>1126.0</ele><time>2026-03-22T11:28:16.176Z</time></trkpt><trkpt lat="39.9425797" lon="-2.0708805"><ele>1127.0</ele><time>2026-03-22T11:28:17.17Z</time></trkpt><trkpt lat="39.9424798" lon="-2.0708945"><ele>1128.0</ele><time>2026-03-22T11:28:18.155Z</time></trkpt><trkpt lat="39.9423855" lon="-2.0709294"><ele>1129.0</ele><time>2026-03-22T11:28:19.161Z</time></trkpt><trkpt lat="39.9422818" lon="-2.0709779"><ele>1130.0</ele><time>2026-03-22T11:28:20.141Z</time></trkpt><trkpt lat="39.9421464" lon="-2.0710083"><ele>1131.0</ele><time>2026-03-22T11:28:21.151Z</time></trkpt><trkpt lat="39.9420055" lon="-2.0710337"><ele>1131.0</ele><time>2026-03-22T11:28:22.149Z</time></trkpt><trkpt lat="39.941868" lon="-2.0710774"><ele>1131.0</ele><time>2026-03-22T11:28:23.171Z</time></trkpt><trkpt lat="39.9417289" lon="-2.0711173"><ele>1131.0</ele><time>2026-03-22T11:28:24.15Z</time></trkpt><trkpt lat="39.9415905" lon="-2.0711654"><ele>1131.0</ele><time>2026-03-22T11:28:25.139Z</time></trkpt><trkpt lat="39.9414538" lon="-2.0712196"><ele>1133.0</ele><time>2026-03-22T11:28:26.153Z</time></trkpt><trkpt lat="39.941311" lon="-2.0712736"><ele>1135.0</ele><time>2026-03-22T11:28:27.135Z</time></trkpt><trkpt lat="39.9411605" lon="-2.0713346"><ele>1137.0</ele><time>2026-03-22T11:28:28.156Z</time></trkpt><trkpt lat="39.9409995" lon="-2.0713954"><ele>1138.0</ele><time>2026-03-22T11:28:29.136Z</time></trkpt><trkpt lat="39.9408371" lon="-2.0714595"><ele>1139.0</ele><time>2026-03-22T11:28:30.155Z</time></trkpt><trkpt lat="39.9406728" lon="-2.0715217"><ele>1140.0</ele><time>2026-03-22T11:28:31.16Z</time></trkpt><trkpt lat="39.9405054" lon="-2.0715838"><ele>1139.6666666666667</ele><time>2026-03-22T11:28:32.138Z</time></trkpt><trkpt lat="39.940334" lon="-2.0716466"><ele>1139.3333333333335</ele><time>2026-03-22T11:28:33.135Z</time></trkpt><trkpt lat="39.9401647" lon="-2.0717161"><ele>1139.0</ele><time>2026-03-22T11:28:34.135Z</time></trkpt><trkpt lat="39.9399957" lon="-2.0717883"><ele>1139.0</ele><time>2026-03-22T11:28:35.136Z</time></trkpt><trkpt lat="39.9397948" lon="-2.0718319"><ele>1139.0</ele><time>2026-03-22T11:28:36.151Z</time></trkpt><trkpt lat="39.9396212" lon="-2.0718898"><ele>1139.0</ele><time>2026-03-22T11:28:37.144Z</time></trkpt><trkpt lat="39.9394509" lon="-2.0719503"><ele>1139.0</ele><time>2026-03-22T11:28:38.156Z</time></trkpt><trkpt lat="39.9392814" lon="-2.0720099"><ele>1139.0</ele><time>2026-03-22T11:28:39.174Z</time></trkpt><trkpt lat="39.9391171" lon="-2.0720694"><ele>1139.0</ele><time>2026-03-22T11:28:40.148Z</time></trkpt><trkpt lat="39.938954" lon="-2.0721317"><ele>1138.6666666666667</ele><time>2026-03-22T11:28:41.165Z</time></trkpt><trkpt lat="39.9387899" lon="-2.0721955"><ele>1138.3333333333333</ele><time>2026-03-22T11:28:42.139Z</time></trkpt><trkpt lat="39.9386266" lon="-2.0722636"><ele>1138.0</ele><time>2026-03-22T11:28:43.137Z</time></trkpt><trkpt lat="39.9384664" lon="-2.0723422"><ele>1138.0</ele><time>2026-03-22T11:28:44.16Z</time></trkpt><trkpt lat="39.9383005" lon="-2.0724193"><ele>1138.0</ele><time>2026-03-22T11:28:45.155Z</time></trkpt><trkpt lat="39.9381303" lon="-2.0724993"><ele>1138.0</ele><time>2026-03-22T11:28:46.157Z</time></trkpt><trkpt lat="39.937955" lon="-2.0725777"><ele>1138.3333333333333</ele><time>2026-03-22T11:28:47.157Z</time></trkpt><trkpt lat="39.9377909" lon="-2.072667"><ele>1138.6666666666667</ele><time>2026-03-22T11:28:48.154Z</time></trkpt><trkpt lat="39.9376271" lon="-2.0727503"><ele>1139.0</ele><time>2026-03-22T11:28:49.153Z</time></trkpt><trkpt lat="39.937466" lon="-2.0728307"><ele>1138.0</ele><time>2026-03-22T11:28:50.155Z</time></trkpt><trkpt lat="39.9373081" lon="-2.0729017"><ele>1137.0</ele><time>2026-03-22T11:28:51.168Z</time></trkpt><trkpt lat="39.9371535" lon="-2.0729709"><ele>1136.0</ele><time>2026-03-22T11:28:52.137Z</time></trkpt><trkpt lat="39.9370067" lon="-2.0730461"><ele>1136.0</ele><time>2026-03-22T11:28:53.168Z</time></trkpt><trkpt lat="39.9368714" lon="-2.0731232"><ele>1136.0</ele><time>2026-03-22T11:28:54.138Z</time></trkpt><trkpt lat="39.9367513" lon="-2.0731937"><ele>1136.0</ele><time>2026-03-22T11:28:55.146Z</time></trkpt><trkpt lat="39.9366447" lon="-2.073253"><ele>1136.0</ele><time>2026-03-22T11:28:56.155Z</time></trkpt><trkpt lat="39.9365358" lon="-2.073307"><ele>1134.75</ele><time>2026-03-22T11:28:57.153Z</time></trkpt><trkpt lat="39.9364249" lon="-2.0733757"><ele>1133.5</ele><time>2026-03-22T11:28:58.146Z</time></trkpt><trkpt lat="39.9363106" lon="-2.073457"><ele>1132.25</ele><time>2026-03-22T11:28:59.138Z</time></trkpt><trkpt lat="39.9361963" lon="-2.07355"><ele>1131.0</ele><time>2026-03-22T11:29:00.192Z</time></trkpt><trkpt lat="39.9360937" lon="-2.0736631"><ele>1131.0</ele><time>2026-03-22T11:29:01.147Z</time></trkpt><trkpt lat="39.9360012" lon="-2.0737751"><ele>1131.0</ele><time>2026-03-22T11:29:02.145Z</time></trkpt><trkpt lat="39.9359153" lon="-2.0738871"><ele>1131.0</ele><time>2026-03-22T11:29:03.167Z</time></trkpt><trkpt lat="39.9358335" lon="-2.0739935"><ele>1131.0</ele><time>2026-03-22T11:29:04.151Z</time></trkpt><trkpt lat="39.9357556" lon="-2.0740951"><ele>1131.0</ele><time>2026-03-22T11:29:05.134Z</time></trkpt><trkpt lat="39.935681" lon="-2.0741937"><ele>1131.0</ele><time>2026-03-22T11:29:06.152Z</time></trkpt><trkpt lat="39.9356036" lon="-2.0742841"><ele>1131.0</ele><time>2026-03-22T11:29:07.155Z</time></trkpt><trkpt lat="39.9355282" lon="-2.0743773"><ele>1131.0</ele><time>2026-03-22T11:29:08.147Z</time></trkpt><trkpt lat="39.9354528" lon="-2.0744607"><ele>1131.0</ele><time>2026-03-22T11:29:09.148Z</time></trkpt><trkpt lat="39.9353845" lon="-2.0745392"><ele>1131.0</ele><time>2026-03-22T11:29:10.155Z</time></trkpt><trkpt lat="39.9353174" lon="-2.0746126"><ele>1131.0</ele><time>2026-03-22T11:29:11.154Z</time></trkpt><trkpt lat="39.9352634" lon="-2.0746884"><ele>1131.0</ele><time>2026-03-22T11:29:12.142Z</time></trkpt><trkpt lat="39.9352174" lon="-2.0747523"><ele>1131.0</ele><time>2026-03-22T11:29:13.145Z</time></trkpt><trkpt lat="39.9351466" lon="-2.0748432"><ele>1131.0</ele><time>2026-03-22T11:29:15.143Z</time></trkpt><trkpt lat="39.9351021" lon="-2.0749471"><ele>1131.0</ele><time>2026-03-22T11:29:24.166Z</time></trkpt><trkpt lat="39.9350765" lon="-2.0750273"><ele>1130.0</ele><time>2026-03-22T11:29:25.141Z</time></trkpt><trkpt lat="39.9349907" lon="-2.0751116"><ele>1129.0</ele><time>2026-03-22T11:29:26.136Z</time></trkpt><trkpt lat="39.934913" lon="-2.0752211"><ele>1128.0</ele><time>2026-03-22T11:29:27.16Z</time></trkpt><trkpt lat="39.9348338" lon="-2.0753499"><ele>1127.0</ele><time>2026-03-22T11:29:28.15Z</time></trkpt><trkpt lat="39.9347726" lon="-2.0755154"><ele>1127.0</ele><time>2026-03-22T11:29:29.139Z</time></trkpt><trkpt lat="39.9347055" lon="-2.0756854"><ele>1127.0</ele><time>2026-03-22T11:29:30.142Z</time></trkpt><trkpt lat="39.9346331" lon="-2.075866"><ele>1127.0</ele><time>2026-03-22T11:29:31.177Z</time></trkpt><trkpt lat="39.9345518" lon="-2.0760577"><ele>1126.3333333333335</ele><time>2026-03-22T11:29:32.19Z</time></trkpt><trkpt lat="39.9344723" lon="-2.0762507"><ele>1125.6666666666667</ele><time>2026-03-22T11:29:33.139Z</time></trkpt><trkpt lat="39.9343986" lon="-2.0764354"><ele>1125.0</ele><time>2026-03-22T11:29:34.157Z</time></trkpt><trkpt lat="39.9343348" lon="-2.0766061"><ele>1124.5</ele><time>2026-03-22T11:29:35.207Z</time></trkpt><trkpt lat="39.9342762" lon="-2.0767649"><ele>1124.0</ele><time>2026-03-22T11:29:36.147Z</time></trkpt><trkpt lat="39.9342131" lon="-2.0769148"><ele>1123.5</ele><time>2026-03-22T11:29:37.173Z</time></trkpt><trkpt lat="39.9341504" lon="-2.0770602"><ele>1123.0</ele><time>2026-03-22T11:29:38.17Z</time></trkpt><trkpt lat="39.9340858" lon="-2.0771971"><ele>1123.0</ele><time>2026-03-22T11:29:39.199Z</time></trkpt><trkpt lat="39.9340259" lon="-2.0773276"><ele>1123.0</ele><time>2026-03-22T11:29:40.146Z</time></trkpt><trkpt lat="39.9339745" lon="-2.0774554"><ele>1123.0</ele><time>2026-03-22T11:29:41.159Z</time></trkpt><trkpt lat="39.9339233" lon="-2.0775774"><ele>1123.0</ele><time>2026-03-22T11:29:42.17Z</time></trkpt><trkpt lat="39.9338713" lon="-2.0776908"><ele>1123.0</ele><time>2026-03-22T11:29:43.16Z</time></trkpt><trkpt lat="39.9338246" lon="-2.0777866"><ele>1124.3333333333333</ele><time>2026-03-22T11:29:44.168Z</time></trkpt><trkpt lat="39.9337857" lon="-2.0778545"><ele>1125.6666666666665</ele><time>2026-03-22T11:29:45.183Z</time></trkpt><trkpt lat="39.9337068" lon="-2.0778893"><ele>1127.0</ele><time>2026-03-22T11:29:47.17Z</time></trkpt><trkpt lat="39.9336307" lon="-2.0778344"><ele>1128.3333333333333</ele><time>2026-03-22T11:29:49.185Z</time></trkpt><trkpt lat="39.9335724" lon="-2.0777697"><ele>1129.6666666666667</ele><time>2026-03-22T11:29:50.238Z</time></trkpt><trkpt lat="39.9335503" lon="-2.0776584"><ele>1131.0</ele><time>2026-03-22T11:29:51.177Z</time></trkpt><trkpt lat="39.9335297" lon="-2.0775451"><ele>1131.0</ele><time>2026-03-22T11:29:52.161Z</time></trkpt><trkpt lat="39.9335039" lon="-2.0774361"><ele>1131.0</ele><time>2026-03-22T11:29:53.202Z</time></trkpt><trkpt lat="39.9334657" lon="-2.0773364"><ele>1131.0</ele><time>2026-03-22T11:29:54.153Z</time></trkpt><trkpt lat="39.9334204" lon="-2.0772382"><ele>1131.0</ele><time>2026-03-22T11:29:55.238Z</time></trkpt><trkpt lat="39.9333692" lon="-2.0771533"><ele>1131.0</ele><time>2026-03-22T11:29:56.164Z</time></trkpt><trkpt lat="39.9333234" lon="-2.0770728"><ele>1131.0</ele><time>2026-03-22T11:29:57.204Z</time></trkpt><trkpt lat="39.9332288" lon="-2.0769664"><ele>1129.0</ele><time>2026-03-22T11:29:59.166Z</time></trkpt><trkpt lat="39.9331524" lon="-2.0769261"><ele>1127.0</ele><time>2026-03-22T11:30:00.166Z</time></trkpt><trkpt lat="39.9330523" lon="-2.0769009"><ele>1125.0</ele><time>2026-03-22T11:30:01.14Z</time></trkpt><trkpt lat="39.9329399" lon="-2.0768789"><ele>1123.0</ele><time>2026-03-22T11:30:02.215Z</time></trkpt><trkpt lat="39.9328311" lon="-2.0768471"><ele>1121.0</ele><time>2026-03-22T11:30:03.187Z</time></trkpt><trkpt lat="39.9327302" lon="-2.0768198"><ele>1121.0</ele><time>2026-03-22T11:30:04.16Z</time></trkpt><trkpt lat="39.9326304" lon="-2.0767981"><ele>1121.0</ele><time>2026-03-22T11:30:05.142Z</time></trkpt><trkpt lat="39.9325251" lon="-2.0767678"><ele>1121.0</ele><time>2026-03-22T11:30:06.184Z</time></trkpt><trkpt lat="39.932418" lon="-2.0767407"><ele>1121.0</ele><time>2026-03-22T11:30:07.168Z</time></trkpt><trkpt lat="39.9323254" lon="-2.0766822"><ele>1121.0</ele><time>2026-03-22T11:30:08.163Z</time></trkpt><trkpt lat="39.9322431" lon="-2.0766107"><ele>1120.2</ele><time>2026-03-22T11:30:09.152Z</time></trkpt><trkpt lat="39.9321668" lon="-2.0765436"><ele>1119.3999999999999</ele><time>2026-03-22T11:30:10.18Z</time></trkpt><trkpt lat="39.9321097" lon="-2.0764777"><ele>1118.6</ele><time>2026-03-22T11:30:11.14Z</time></trkpt><trkpt lat="39.9320647" lon="-2.0763876"><ele>1117.8</ele><time>2026-03-22T11:30:12.164Z</time></trkpt><trkpt lat="39.9320174" lon="-2.0762788"><ele>1117.0</ele><time>2026-03-22T11:30:13.155Z</time></trkpt><trkpt lat="39.9319742" lon="-2.0761459"><ele>1117.0</ele><time>2026-03-22T11:30:14.199Z</time></trkpt><trkpt lat="39.9319367" lon="-2.0760154"><ele>1117.0</ele><time>2026-03-22T11:30:15.157Z</time></trkpt><trkpt lat="39.9319104" lon="-2.0758918"><ele>1117.0</ele><time>2026-03-22T11:30:16.213Z</time></trkpt><trkpt lat="39.9318942" lon="-2.0757836"><ele>1117.0</ele><time>2026-03-22T11:30:17.148Z</time></trkpt><trkpt lat="39.9318831" lon="-2.0756726"><ele>1117.0</ele><time>2026-03-22T11:30:18.178Z</time></trkpt><trkpt lat="39.9318802" lon="-2.075571"><ele>1117.0</ele><time>2026-03-22T11:30:19.161Z</time></trkpt><trkpt lat="39.931864" lon="-2.075484"><ele>1117.0</ele><time>2026-03-22T11:30:20.143Z</time></trkpt><trkpt lat="39.9318252" lon="-2.0754116"><ele>1117.0</ele><time>2026-03-22T11:30:21.169Z</time></trkpt><trkpt lat="39.9317751" lon="-2.0753414"><ele>1117.0</ele><time>2026-03-22T11:30:22.156Z</time></trkpt><trkpt lat="39.9316947" lon="-2.0752727"><ele>1117.0</ele><time>2026-03-22T11:30:23.181Z</time></trkpt><trkpt lat="39.9316009" lon="-2.0752013"><ele>1117.0</ele><time>2026-03-22T11:30:24.151Z</time></trkpt><trkpt lat="39.9315034" lon="-2.07512"><ele>1117.6</ele><time>2026-03-22T11:30:25.132Z</time></trkpt><trkpt lat="39.9314047" lon="-2.075063"><ele>1118.2</ele><time>2026-03-22T11:30:26.143Z</time></trkpt><trkpt lat="39.9313094" lon="-2.0749963"><ele>1118.8</ele><time>2026-03-22T11:30:27.158Z</time></trkpt><trkpt lat="39.9312203" lon="-2.0749306"><ele>1119.4</ele><time>2026-03-22T11:30:28.154Z</time></trkpt><trkpt lat="39.9311356" lon="-2.0748399"><ele>1120.0</ele><time>2026-03-22T11:30:29.152Z</time></trkpt><trkpt lat="39.9310491" lon="-2.0747512"><ele>1120.5</ele><time>2026-03-22T11:30:30.154Z</time></trkpt><trkpt lat="39.9309618" lon="-2.0746581"><ele>1121.0</ele><time>2026-03-22T11:30:31.148Z</time></trkpt><trkpt lat="39.930869" lon="-2.0745622"><ele>1121.5</ele><time>2026-03-22T11:30:32.146Z</time></trkpt><trkpt lat="39.930776" lon="-2.0744543"><ele>1122.0</ele><time>2026-03-22T11:30:33.143Z</time></trkpt><trkpt lat="39.9306957" lon="-2.074344"><ele>1124.4</ele><time>2026-03-22T11:30:34.141Z</time></trkpt><trkpt lat="39.9306234" lon="-2.0742543"><ele>1126.8000000000002</ele><time>2026-03-22T11:30:35.16Z</time></trkpt><trkpt lat="39.9305409" lon="-2.0741903"><ele>1129.2</ele><time>2026-03-22T11:30:36.155Z</time></trkpt><trkpt lat="39.9304454" lon="-2.0741383"><ele>1131.6000000000001</ele><time>2026-03-22T11:30:37.148Z</time></trkpt><trkpt lat="39.9303406" lon="-2.0740905"><ele>1134.0</ele><time>2026-03-22T11:30:38.146Z</time></trkpt><trkpt lat="39.9302356" lon="-2.0740437"><ele>1134.0</ele><time>2026-03-22T11:30:39.148Z</time></trkpt><trkpt lat="39.9301331" lon="-2.0739862"><ele>1134.0</ele><time>2026-03-22T11:30:40.14Z</time></trkpt><trkpt lat="39.9300337" lon="-2.0739186"><ele>1134.0</ele><time>2026-03-22T11:30:41.161Z</time></trkpt><trkpt lat="39.929937" lon="-2.0738455"><ele>1134.0</ele><time>2026-03-22T11:30:42.139Z</time></trkpt><trkpt lat="39.9298416" lon="-2.0737685"><ele>1134.0</ele><time>2026-03-22T11:30:43.15Z</time></trkpt><trkpt lat="39.9297568" lon="-2.0737053"><ele>1136.4</ele><time>2026-03-22T11:30:44.152Z</time></trkpt><trkpt lat="39.9296695" lon="-2.0736369"><ele>1138.8000000000002</ele><time>2026-03-22T11:30:45.145Z</time></trkpt><trkpt lat="39.9295783" lon="-2.0735669"><ele>1141.1999999999998</ele><time>2026-03-22T11:30:46.14Z</time></trkpt><trkpt lat="39.9294751" lon="-2.0735102"><ele>1143.6</ele><time>2026-03-22T11:30:47.16Z</time></trkpt><trkpt lat="39.929367" lon="-2.0734522"><ele>1146.0</ele><time>2026-03-22T11:30:48.142Z</time></trkpt><trkpt lat="39.9292491" lon="-2.0734093"><ele>1148.5</ele><time>2026-03-22T11:30:49.162Z</time></trkpt><trkpt lat="39.9291294" lon="-2.0733798"><ele>1151.0</ele><time>2026-03-22T11:30:50.144Z</time></trkpt><trkpt lat="39.9290017" lon="-2.0733651"><ele>1153.5</ele><time>2026-03-22T11:30:51.137Z</time></trkpt><trkpt lat="39.9288764" lon="-2.0733349"><ele>1156.0</ele><time>2026-03-22T11:30:52.153Z</time></trkpt><trkpt lat="39.9287552" lon="-2.0732983"><ele>1154.75</ele><time>2026-03-22T11:30:53.148Z</time></trkpt><trkpt lat="39.9286257" lon="-2.0732617"><ele>1153.5</ele><time>2026-03-22T11:30:54.156Z</time></trkpt><trkpt lat="39.9284965" lon="-2.0732093"><ele>1152.25</ele><time>2026-03-22T11:30:55.147Z</time></trkpt><trkpt lat="39.9283751" lon="-2.0731518"><ele>1151.0</ele><time>2026-03-22T11:30:56.151Z</time></trkpt><trkpt lat="39.9282767" lon="-2.0730947"><ele>1153.6</ele><time>2026-03-22T11:30:57.149Z</time></trkpt><trkpt lat="39.9281856" lon="-2.0730374"><ele>1156.1999999999998</ele><time>2026-03-22T11:30:58.146Z</time></trkpt><trkpt lat="39.928132" lon="-2.0729655"><ele>1158.8000000000002</ele><time>2026-03-22T11:30:59.151Z</time></trkpt><trkpt lat="39.9280644" lon="-2.0728961"><ele>1161.4</ele><time>2026-03-22T11:31:00.159Z</time></trkpt><trkpt lat="39.9279829" lon="-2.0728285"><ele>1164.0</ele><time>2026-03-22T11:31:01.148Z</time></trkpt><trkpt lat="39.9279083" lon="-2.0727503"><ele>1164.0</ele><time>2026-03-22T11:31:02.139Z</time></trkpt><trkpt lat="39.9278139" lon="-2.0726814"><ele>1164.0</ele><time>2026-03-22T11:31:03.141Z</time></trkpt><trkpt lat="39.9277127" lon="-2.0726187"><ele>1164.0</ele><time>2026-03-22T11:31:04.145Z</time></trkpt><trkpt lat="39.9275996" lon="-2.0725625"><ele>1164.0</ele><time>2026-03-22T11:31:05.152Z</time></trkpt><trkpt lat="39.9274869" lon="-2.0725012"><ele>1165.25</ele><time>2026-03-22T11:31:06.142Z</time></trkpt><trkpt lat="39.9273651" lon="-2.0724229"><ele>1166.5</ele><time>2026-03-22T11:31:07.147Z</time></trkpt><trkpt lat="39.9272444" lon="-2.0723427"><ele>1167.75</ele><time>2026-03-22T11:31:08.139Z</time></trkpt><trkpt lat="39.927117" lon="-2.0722379"><ele>1169.0</ele><time>2026-03-22T11:31:09.145Z</time></trkpt><trkpt lat="39.9269815" lon="-2.0720921"><ele>1169.0</ele><time>2026-03-22T11:31:10.166Z</time></trkpt><trkpt lat="39.9268643" lon="-2.0719792"><ele>1169.0</ele><time>2026-03-22T11:31:11.158Z</time></trkpt><trkpt lat="39.9267467" lon="-2.0718445"><ele>1169.0</ele><time>2026-03-22T11:31:12.149Z</time></trkpt><trkpt lat="39.9266337" lon="-2.0716854"><ele>1168.5</ele><time>2026-03-22T11:31:13.154Z</time></trkpt><trkpt lat="39.926525" lon="-2.0715533"><ele>1168.0</ele><time>2026-03-22T11:31:14.165Z</time></trkpt><trkpt lat="39.9264341" lon="-2.0714109"><ele>1167.5</ele><time>2026-03-22T11:31:15.151Z</time></trkpt><trkpt lat="39.9263582" lon="-2.0712533"><ele>1167.0</ele><time>2026-03-22T11:31:16.148Z</time></trkpt><trkpt lat="39.9262887" lon="-2.0710828"><ele>1167.0</ele><time>2026-03-22T11:31:17.147Z</time></trkpt><trkpt lat="39.926227" lon="-2.0709095"><ele>1167.0</ele><time>2026-03-22T11:31:18.136Z</time></trkpt><trkpt lat="39.9261722" lon="-2.0707241"><ele>1167.0</ele><time>2026-03-22T11:31:19.135Z</time></trkpt><trkpt lat="39.9261265" lon="-2.0704939"><ele>1167.6666666666667</ele><time>2026-03-22T11:31:20.136Z</time></trkpt><trkpt lat="39.9260264" lon="-2.0702975"><ele>1168.3333333333335</ele><time>2026-03-22T11:31:21.151Z</time></trkpt><trkpt lat="39.9259262" lon="-2.0700941"><ele>1169.0</ele><time>2026-03-22T11:31:22.16Z</time></trkpt><trkpt lat="39.9258213" lon="-2.0698948"><ele>1167.3333333333335</ele><time>2026-03-22T11:31:23.167Z</time></trkpt><trkpt lat="39.9257343" lon="-2.0697146"><ele>1165.6666666666667</ele><time>2026-03-22T11:31:24.158Z</time></trkpt><trkpt lat="39.9256368" lon="-2.069535"><ele>1164.0</ele><time>2026-03-22T11:31:25.139Z</time></trkpt><trkpt lat="39.9255475" lon="-2.0693658"><ele>1164.0</ele><time>2026-03-22T11:31:26.159Z</time></trkpt><trkpt lat="39.9254715" lon="-2.0692207"><ele>1164.0</ele><time>2026-03-22T11:31:27.144Z</time></trkpt><trkpt lat="39.9254094" lon="-2.0691103"><ele>1164.0</ele><time>2026-03-22T11:31:28.139Z</time></trkpt><trkpt lat="39.9253412" lon="-2.069014"><ele>1164.0</ele><time>2026-03-22T11:31:29.143Z</time></trkpt><trkpt lat="39.9252644" lon="-2.0689288"><ele>1164.0</ele><time>2026-03-22T11:31:30.17Z</time></trkpt><trkpt lat="39.9251749" lon="-2.0688369"><ele>1164.2</ele><time>2026-03-22T11:31:31.146Z</time></trkpt><trkpt lat="39.9251016" lon="-2.068737"><ele>1164.4</ele><time>2026-03-22T11:31:32.141Z</time></trkpt><trkpt lat="39.9250252" lon="-2.0686323"><ele>1164.6</ele><time>2026-03-22T11:31:33.141Z</time></trkpt><trkpt lat="39.9249559" lon="-2.0685105"><ele>1164.8</ele><time>2026-03-22T11:31:34.138Z</time></trkpt><trkpt lat="39.9249148" lon="-2.0683812"><ele>1165.0</ele><time>2026-03-22T11:31:35.154Z</time></trkpt><trkpt lat="39.9248628" lon="-2.0682529"><ele>1166.75</ele><time>2026-03-22T11:31:36.151Z</time></trkpt><trkpt lat="39.924806" lon="-2.0681286"><ele>1168.5</ele><time>2026-03-22T11:31:37.15Z</time></trkpt><trkpt lat="39.9247208" lon="-2.0680104"><ele>1170.25</ele><time>2026-03-22T11:31:38.147Z</time></trkpt><trkpt lat="39.9246395" lon="-2.0678859"><ele>1172.0</ele><time>2026-03-22T11:31:39.155Z</time></trkpt><trkpt lat="39.9245384" lon="-2.06776"><ele>1172.0</ele><time>2026-03-22T11:31:40.142Z</time></trkpt><trkpt lat="39.92444" lon="-2.0676348"><ele>1172.0</ele><time>2026-03-22T11:31:41.153Z</time></trkpt><trkpt lat="39.9243501" lon="-2.0675068"><ele>1172.0</ele><time>2026-03-22T11:31:42.149Z</time></trkpt><trkpt lat="39.9242597" lon="-2.0674053"><ele>1172.0</ele><time>2026-03-22T11:31:43.138Z</time></trkpt><trkpt lat="39.9241711" lon="-2.067336"><ele>1173.4</ele><time>2026-03-22T11:31:44.147Z</time></trkpt><trkpt lat="39.9240734" lon="-2.0672961"><ele>1174.8000000000002</ele><time>2026-03-22T11:31:45.153Z</time></trkpt><trkpt lat="39.923966" lon="-2.0672805"><ele>1176.2</ele><time>2026-03-22T11:31:46.148Z</time></trkpt><trkpt lat="39.923856" lon="-2.0672381"><ele>1177.6000000000001</ele><time>2026-03-22T11:31:47.138Z</time></trkpt><trkpt lat="39.9237449" lon="-2.0671863"><ele>1179.0</ele><time>2026-03-22T11:31:48.14Z</time></trkpt><trkpt lat="39.9236424" lon="-2.0671293"><ele>1179.0</ele><time>2026-03-22T11:31:49.142Z</time></trkpt><trkpt lat="39.9235432" lon="-2.0670673"><ele>1179.0</ele><time>2026-03-22T11:31:50.146Z</time></trkpt><trkpt lat="39.9234381" lon="-2.067008"><ele>1179.0</ele><time>2026-03-22T11:31:51.146Z</time></trkpt><trkpt lat="39.923334" lon="-2.0669658"><ele>1179.0</ele><time>2026-03-22T11:31:52.14Z</time></trkpt><trkpt lat="39.9232359" lon="-2.0669204"><ele>1179.0</ele><time>2026-03-22T11:31:53.147Z</time></trkpt><trkpt lat="39.9231367" lon="-2.0668445"><ele>1179.25</ele><time>2026-03-22T11:31:54.131Z</time></trkpt><trkpt lat="39.9230336" lon="-2.0667541"><ele>1179.5</ele><time>2026-03-22T11:31:55.137Z</time></trkpt><trkpt lat="39.9229279" lon="-2.0666656"><ele>1179.75</ele><time>2026-03-22T11:31:56.159Z</time></trkpt><trkpt lat="39.9228122" lon="-2.0665696"><ele>1180.0</ele><time>2026-03-22T11:31:57.158Z</time></trkpt><trkpt lat="39.9226916" lon="-2.0664619"><ele>1180.5</ele><time>2026-03-22T11:31:58.138Z</time></trkpt><trkpt lat="39.9225664" lon="-2.0663527"><ele>1181.0</ele><time>2026-03-22T11:31:59.143Z</time></trkpt><trkpt lat="39.9224558" lon="-2.0662565"><ele>1181.5</ele><time>2026-03-22T11:32:00.155Z</time></trkpt><trkpt lat="39.9223463" lon="-2.0661809"><ele>1182.0</ele><time>2026-03-22T11:32:01.148Z</time></trkpt><trkpt lat="39.9222307" lon="-2.0661016"><ele>1183.6</ele><time>2026-03-22T11:32:02.146Z</time></trkpt><trkpt lat="39.9221288" lon="-2.066033"><ele>1185.2</ele><time>2026-03-22T11:32:03.143Z</time></trkpt><trkpt lat="39.9220444" lon="-2.0659496"><ele>1186.8</ele><time>2026-03-22T11:32:04.154Z</time></trkpt><trkpt lat="39.9219604" lon="-2.0658509"><ele>1188.4</ele><time>2026-03-22T11:32:05.143Z</time></trkpt><trkpt lat="39.9218828" lon="-2.0657408"><ele>1190.0</ele><time>2026-03-22T11:32:06.152Z</time></trkpt><trkpt lat="39.9218001" lon="-2.0656433"><ele>1191.5</ele><time>2026-03-22T11:32:07.16Z</time></trkpt><trkpt lat="39.9217044" lon="-2.0655582"><ele>1193.0</ele><time>2026-03-22T11:32:08.145Z</time></trkpt><trkpt lat="39.9215972" lon="-2.065495"><ele>1194.5</ele><time>2026-03-22T11:32:09.143Z</time></trkpt><trkpt lat="39.9214877" lon="-2.0654358"><ele>1196.0</ele><time>2026-03-22T11:32:10.14Z</time></trkpt><trkpt lat="39.9213858" lon="-2.0653638"><ele>1196.0</ele><time>2026-03-22T11:32:11.135Z</time></trkpt><trkpt lat="39.9212946" lon="-2.0652801"><ele>1196.0</ele><time>2026-03-22T11:32:12.16Z</time></trkpt><trkpt lat="39.9211902" lon="-2.065214"><ele>1196.0</ele><time>2026-03-22T11:32:13.139Z</time></trkpt><trkpt lat="39.9210889" lon="-2.0651253"><ele>1196.0</ele><time>2026-03-22T11:32:14.142Z</time></trkpt><trkpt lat="39.9209936" lon="-2.0650075"><ele>1195.0</ele><time>2026-03-22T11:32:15.165Z</time></trkpt><trkpt lat="39.9209176" lon="-2.0648628"><ele>1194.0</ele><time>2026-03-22T11:32:16.159Z</time></trkpt><trkpt lat="39.9208415" lon="-2.0647198"><ele>1193.0</ele><time>2026-03-22T11:32:17.143Z</time></trkpt><trkpt lat="39.9207636" lon="-2.0645778"><ele>1192.0</ele><time>2026-03-22T11:32:18.157Z</time></trkpt><trkpt lat="39.9206896" lon="-2.0644355"><ele>1194.0</ele><time>2026-03-22T11:32:19.142Z</time></trkpt><trkpt lat="39.9206186" lon="-2.0643023"><ele>1196.0</ele><time>2026-03-22T11:32:20.156Z</time></trkpt><trkpt lat="39.9205459" lon="-2.0641918"><ele>1198.0</ele><time>2026-03-22T11:32:21.17Z</time></trkpt><trkpt lat="39.9204765" lon="-2.0640868"><ele>1200.0</ele><time>2026-03-22T11:32:22.175Z</time></trkpt><trkpt lat="39.9203777" lon="-2.0640073"><ele>1200.0</ele><time>2026-03-22T11:32:23.142Z</time></trkpt><trkpt lat="39.9202847" lon="-2.0639277"><ele>1200.0</ele><time>2026-03-22T11:32:24.141Z</time></trkpt><trkpt lat="39.920167" lon="-2.0639023"><ele>1200.0</ele><time>2026-03-22T11:32:25.151Z</time></trkpt><trkpt lat="39.9200865" lon="-2.0638116"><ele>1200.0</ele><time>2026-03-22T11:32:26.148Z</time></trkpt><trkpt lat="39.9200201" lon="-2.0637371"><ele>1200.0</ele><time>2026-03-22T11:32:27.148Z</time></trkpt><trkpt lat="39.9199682" lon="-2.06366"><ele>1200.5</ele><time>2026-03-22T11:32:28.144Z</time></trkpt><trkpt lat="39.9198961" lon="-2.0636189"><ele>1201.0</ele><time>2026-03-22T11:32:31.148Z</time></trkpt><trkpt lat="39.9198323" lon="-2.0635707"><ele>1201.5</ele><time>2026-03-22T11:32:33.154Z</time></trkpt><trkpt lat="39.9197624" lon="-2.063491"><ele>1202.0</ele><time>2026-03-22T11:32:35.148Z</time></trkpt><trkpt lat="39.9196877" lon="-2.0634171"><ele>1202.5</ele><time>2026-03-22T11:32:37.139Z</time></trkpt><trkpt lat="39.9196173" lon="-2.0633419"><ele>1203.0</ele><time>2026-03-22T11:32:39.133Z</time></trkpt><trkpt lat="39.9195414" lon="-2.0632809"><ele>1202.8</ele><time>2026-03-22T11:32:41.157Z</time></trkpt><trkpt lat="39.9194593" lon="-2.0632306"><ele>1202.6</ele><time>2026-03-22T11:32:43.136Z</time></trkpt><trkpt lat="39.9193567" lon="-2.063141"><ele>1202.4</ele><time>2026-03-22T11:32:45.143Z</time></trkpt><trkpt lat="39.9192858" lon="-2.0630818"><ele>1202.2</ele><time>2026-03-22T11:32:46.145Z</time></trkpt><trkpt lat="39.9192051" lon="-2.0630079"><ele>1202.0</ele><time>2026-03-22T11:32:47.144Z</time></trkpt><trkpt lat="39.9190976" lon="-2.0629274"><ele>1202.0</ele><time>2026-03-22T11:32:48.142Z</time></trkpt><trkpt lat="39.9189927" lon="-2.0628056"><ele>1202.0</ele><time>2026-03-22T11:32:49.149Z</time></trkpt><trkpt lat="39.9188807" lon="-2.0626872"><ele>1202.0</ele><time>2026-03-22T11:32:50.151Z</time></trkpt><trkpt lat="39.9187718" lon="-2.0625666"><ele>1202.0</ele><time>2026-03-22T11:32:51.174Z</time></trkpt><trkpt lat="39.9186738" lon="-2.0624802"><ele>1201.75</ele><time>2026-03-22T11:32:52.164Z</time></trkpt><trkpt lat="39.9185978" lon="-2.062366"><ele>1201.5</ele><time>2026-03-22T11:32:53.167Z</time></trkpt><trkpt lat="39.9185467" lon="-2.0622515"><ele>1201.25</ele><time>2026-03-22T11:32:54.156Z</time></trkpt><trkpt lat="39.9184783" lon="-2.062129"><ele>1201.0</ele><time>2026-03-22T11:32:55.179Z</time></trkpt><trkpt lat="39.9183999" lon="-2.0620145"><ele>1201.0</ele><time>2026-03-22T11:32:56.184Z</time></trkpt><trkpt lat="39.9182976" lon="-2.0619284"><ele>1201.0</ele><time>2026-03-22T11:32:57.164Z</time></trkpt><trkpt lat="39.9181691" lon="-2.0618953"><ele>1201.0</ele><time>2026-03-22T11:32:58.16Z</time></trkpt><trkpt lat="39.9180507" lon="-2.0618641"><ele>1201.0</ele><time>2026-03-22T11:32:59.18Z</time></trkpt><trkpt lat="39.9179478" lon="-2.0618363"><ele>1201.0</ele><time>2026-03-22T11:33:00.191Z</time></trkpt><trkpt lat="39.9178692" lon="-2.0617827"><ele>1201.0</ele><time>2026-03-22T11:33:01.163Z</time></trkpt><trkpt lat="39.9178016" lon="-2.0617018"><ele>1201.0</ele><time>2026-03-22T11:33:02.191Z</time></trkpt><trkpt lat="39.9177353" lon="-2.061621"><ele>1201.0</ele><time>2026-03-22T11:33:03.185Z</time></trkpt><trkpt lat="39.9176806" lon="-2.061567"><ele>1201.0</ele><time>2026-03-22T11:33:04.176Z</time></trkpt><trkpt lat="39.9175909" lon="-2.061523"><ele>1201.0</ele><time>2026-03-22T11:33:05.159Z</time></trkpt><trkpt lat="39.9175082" lon="-2.0614734"><ele>1200.8</ele><time>2026-03-22T11:33:06.144Z</time></trkpt><trkpt lat="39.9174393" lon="-2.0614073"><ele>1200.6</ele><time>2026-03-22T11:33:07.156Z</time></trkpt><trkpt lat="39.917375" lon="-2.0613517"><ele>1200.4</ele><time>2026-03-22T11:33:08.14Z</time></trkpt><trkpt lat="39.9172982" lon="-2.0612921"><ele>1200.2</ele><time>2026-03-22T11:33:10.146Z</time></trkpt><trkpt lat="39.9171956" lon="-2.0613118"><ele>1200.0</ele><time>2026-03-22T11:33:12.139Z</time></trkpt><trkpt lat="39.9171024" lon="-2.0614003"><ele>1200.0</ele><time>2026-03-22T11:33:14.139Z</time></trkpt><trkpt lat="39.9170493" lon="-2.061494"><ele>1200.0</ele><time>2026-03-22T11:33:15.155Z</time></trkpt><trkpt lat="39.9169814" lon="-2.0616118"><ele>1200.0</ele><time>2026-03-22T11:33:16.151Z</time></trkpt><trkpt lat="39.9168954" lon="-2.061739"><ele>1200.0</ele><time>2026-03-22T11:33:18.156Z</time></trkpt><trkpt lat="39.9168168" lon="-2.0618887"><ele>1199.6666666666667</ele><time>2026-03-22T11:33:19.171Z</time></trkpt><trkpt lat="39.9167526" lon="-2.0620874"><ele>1199.3333333333335</ele><time>2026-03-22T11:33:20.179Z</time></trkpt><trkpt lat="39.9166533" lon="-2.0622746"><ele>1199.0</ele><time>2026-03-22T11:33:21.159Z</time></trkpt><trkpt lat="39.9165497" lon="-2.0624642"><ele>1197.6666666666667</ele><time>2026-03-22T11:33:22.144Z</time></trkpt><trkpt lat="39.9164371" lon="-2.0626418"><ele>1196.3333333333333</ele><time>2026-03-22T11:33:23.159Z</time></trkpt><trkpt lat="39.9163329" lon="-2.0628237"><ele>1195.0</ele><time>2026-03-22T11:33:24.146Z</time></trkpt><trkpt lat="39.9162574" lon="-2.0630218"><ele>1195.0</ele><time>2026-03-22T11:33:25.14Z</time></trkpt><trkpt lat="39.9161606" lon="-2.0631903"><ele>1195.0</ele><time>2026-03-22T11:33:26.152Z</time></trkpt><trkpt lat="39.9160671" lon="-2.0633542"><ele>1195.0</ele><time>2026-03-22T11:33:27.135Z</time></trkpt><trkpt lat="39.9159695" lon="-2.0635108"><ele>1194.25</ele><time>2026-03-22T11:33:28.149Z</time></trkpt><trkpt lat="39.9158727" lon="-2.0636643"><ele>1193.5</ele><time>2026-03-22T11:33:29.136Z</time></trkpt><trkpt lat="39.9157789" lon="-2.0638171"><ele>1192.75</ele><time>2026-03-22T11:33:30.142Z</time></trkpt><trkpt lat="39.9156896" lon="-2.063967"><ele>1192.0</ele><time>2026-03-22T11:33:31.133Z</time></trkpt><trkpt lat="39.9156039" lon="-2.0641162"><ele>1191.5</ele><time>2026-03-22T11:33:32.155Z</time></trkpt><trkpt lat="39.9155129" lon="-2.0642608"><ele>1191.0</ele><time>2026-03-22T11:33:33.134Z</time></trkpt><trkpt lat="39.915421" lon="-2.0644015"><ele>1190.5</ele><time>2026-03-22T11:33:34.143Z</time></trkpt><trkpt lat="39.9153284" lon="-2.0645395"><ele>1190.0</ele><time>2026-03-22T11:33:35.158Z</time></trkpt><trkpt lat="39.9152346" lon="-2.0646665"><ele>1190.0</ele><time>2026-03-22T11:33:36.152Z</time></trkpt><trkpt lat="39.9151495" lon="-2.064781"><ele>1190.0</ele><time>2026-03-22T11:33:37.155Z</time></trkpt><trkpt lat="39.9150786" lon="-2.0648831"><ele>1190.0</ele><time>2026-03-22T11:33:38.144Z</time></trkpt><trkpt lat="39.9150184" lon="-2.0649885"><ele>1190.0</ele><time>2026-03-22T11:33:39.145Z</time></trkpt><trkpt lat="39.9149555" lon="-2.0651007"><ele>1190.0</ele><time>2026-03-22T11:33:40.153Z</time></trkpt><trkpt lat="39.9149158" lon="-2.0652254"><ele>1189.75</ele><time>2026-03-22T11:33:41.147Z</time></trkpt><trkpt lat="39.9148888" lon="-2.0653762"><ele>1189.5</ele><time>2026-03-22T11:33:42.144Z</time></trkpt><trkpt lat="39.9148796" lon="-2.0655511"><ele>1189.25</ele><time>2026-03-22T11:33:43.158Z</time></trkpt><trkpt lat="39.9148797" lon="-2.0657372"><ele>1189.0</ele><time>2026-03-22T11:33:44.141Z</time></trkpt><trkpt lat="39.9148801" lon="-2.0659276"><ele>1188.75</ele><time>2026-03-22T11:33:45.157Z</time></trkpt><trkpt lat="39.914874" lon="-2.0661194"><ele>1188.5</ele><time>2026-03-22T11:33:46.151Z</time></trkpt><trkpt lat="39.9148749" lon="-2.0663097"><ele>1188.25</ele><time>2026-03-22T11:33:47.141Z</time></trkpt><trkpt lat="39.9148671" lon="-2.0665004"><ele>1188.0</ele><time>2026-03-22T11:33:48.125Z</time></trkpt><trkpt lat="39.914861" lon="-2.0666933"><ele>1187.0</ele><time>2026-03-22T11:33:49.137Z</time></trkpt><trkpt lat="39.9148553" lon="-2.066895"><ele>1186.0</ele><time>2026-03-22T11:33:50.149Z</time></trkpt><trkpt lat="39.914846" lon="-2.0670941"><ele>1185.0</ele><time>2026-03-22T11:33:51.135Z</time></trkpt><trkpt lat="39.9148273" lon="-2.0672876"><ele>1184.75</ele><time>2026-03-22T11:33:52.154Z</time></trkpt><trkpt lat="39.9148123" lon="-2.0674736"><ele>1184.5</ele><time>2026-03-22T11:33:53.152Z</time></trkpt><trkpt lat="39.9147973" lon="-2.0676569"><ele>1184.25</ele><time>2026-03-22T11:33:54.148Z</time></trkpt><trkpt lat="39.9147898" lon="-2.0678446"><ele>1184.0</ele><time>2026-03-22T11:33:55.142Z</time></trkpt><trkpt lat="39.914783" lon="-2.0680268"><ele>1184.0</ele><time>2026-03-22T11:33:56.14Z</time></trkpt><trkpt lat="39.9147679" lon="-2.0681978"><ele>1184.0</ele><time>2026-03-22T11:33:57.132Z</time></trkpt><trkpt lat="39.9147533" lon="-2.068359"><ele>1184.0</ele><time>2026-03-22T11:33:58.148Z</time></trkpt><trkpt lat="39.9147456" lon="-2.0685242"><ele>1184.0</ele><time>2026-03-22T11:33:59.137Z</time></trkpt><trkpt lat="39.9147443" lon="-2.0686903"><ele>1184.0</ele><time>2026-03-22T11:34:00.127Z</time></trkpt><trkpt lat="39.9147401" lon="-2.0688622"><ele>1184.0</ele><time>2026-03-22T11:34:01.136Z</time></trkpt><trkpt lat="39.9147348" lon="-2.0690431"><ele>1184.0</ele><time>2026-03-22T11:34:02.141Z</time></trkpt><trkpt lat="39.9147305" lon="-2.0692275"><ele>1184.0</ele><time>2026-03-22T11:34:03.135Z</time></trkpt><trkpt lat="39.914724" lon="-2.0694143"><ele>1183.75</ele><time>2026-03-22T11:34:04.141Z</time></trkpt><trkpt lat="39.9147158" lon="-2.0695969"><ele>1183.5</ele><time>2026-03-22T11:34:05.137Z</time></trkpt><trkpt lat="39.914701" lon="-2.069778"><ele>1183.25</ele><time>2026-03-22T11:34:06.144Z</time></trkpt><trkpt lat="39.9146836" lon="-2.0699501"><ele>1183.0</ele><time>2026-03-22T11:34:07.148Z</time></trkpt><trkpt lat="39.9146578" lon="-2.0701213"><ele>1182.25</ele><time>2026-03-22T11:34:08.153Z</time></trkpt><trkpt lat="39.9146218" lon="-2.0702948"><ele>1181.5</ele><time>2026-03-22T11:34:09.158Z</time></trkpt><trkpt lat="39.9145786" lon="-2.0704766"><ele>1180.75</ele><time>2026-03-22T11:34:10.135Z</time></trkpt><trkpt lat="39.9145197" lon="-2.0706556"><ele>1180.0</ele><time>2026-03-22T11:34:11.146Z</time></trkpt><trkpt lat="39.9144563" lon="-2.0708464"><ele>1179.6666666666665</ele><time>2026-03-22T11:34:12.148Z</time></trkpt><trkpt lat="39.9143945" lon="-2.0710357"><ele>1179.3333333333333</ele><time>2026-03-22T11:34:13.146Z</time></trkpt><trkpt lat="39.9143329" lon="-2.0712311"><ele>1179.0</ele><time>2026-03-22T11:34:14.141Z</time></trkpt><trkpt lat="39.9142745" lon="-2.0714251"><ele>1176.0</ele><time>2026-03-22T11:34:15.152Z</time></trkpt><trkpt lat="39.9142198" lon="-2.0716132"><ele>1173.0</ele><time>2026-03-22T11:34:16.146Z</time></trkpt><trkpt lat="39.9141734" lon="-2.0718039"><ele>1170.0</ele><time>2026-03-22T11:34:17.149Z</time></trkpt><trkpt lat="39.914132" lon="-2.0720013"><ele>1170.0</ele><time>2026-03-22T11:34:18.156Z</time></trkpt><trkpt lat="39.9141015" lon="-2.0722015"><ele>1170.0</ele><time>2026-03-22T11:34:19.14Z</time></trkpt><trkpt lat="39.9140774" lon="-2.0723955"><ele>1170.0</ele><time>2026-03-22T11:34:20.158Z</time></trkpt><trkpt lat="39.9140733" lon="-2.0725817"><ele>1170.0</ele><time>2026-03-22T11:34:21.154Z</time></trkpt><trkpt lat="39.914069" lon="-2.072765"><ele>1170.0</ele><time>2026-03-22T11:34:22.142Z</time></trkpt><trkpt lat="39.9140649" lon="-2.0729494"><ele>1170.0</ele><time>2026-03-22T11:34:23.134Z</time></trkpt><trkpt lat="39.9140577" lon="-2.0731326"><ele>1170.0</ele><time>2026-03-22T11:34:24.142Z</time></trkpt><trkpt lat="39.9140499" lon="-2.0733259"><ele>1170.0</ele><time>2026-03-22T11:34:25.168Z</time></trkpt><trkpt lat="39.9140338" lon="-2.0735233"><ele>1170.0</ele><time>2026-03-22T11:34:26.149Z</time></trkpt><trkpt lat="39.9140144" lon="-2.0737216"><ele>1170.0</ele><time>2026-03-22T11:34:27.144Z</time></trkpt><trkpt lat="39.9139993" lon="-2.07392"><ele>1169.3333333333333</ele><time>2026-03-22T11:34:28.142Z</time></trkpt><trkpt lat="39.9139886" lon="-2.0741276"><ele>1168.6666666666665</ele><time>2026-03-22T11:34:29.138Z</time></trkpt><trkpt lat="39.913979" lon="-2.074331"><ele>1168.0</ele><time>2026-03-22T11:34:30.145Z</time></trkpt><trkpt lat="39.9139732" lon="-2.0745316"><ele>1168.0</ele><time>2026-03-22T11:34:31.146Z</time></trkpt><trkpt lat="39.9139664" lon="-2.0747269"><ele>1168.0</ele><time>2026-03-22T11:34:32.145Z</time></trkpt><trkpt lat="39.9139557" lon="-2.0749303"><ele>1168.0</ele><time>2026-03-22T11:34:33.151Z</time></trkpt><trkpt lat="39.9139477" lon="-2.0751381"><ele>1167.6666666666665</ele><time>2026-03-22T11:34:34.139Z</time></trkpt><trkpt lat="39.913935" lon="-2.0753443"><ele>1167.3333333333333</ele><time>2026-03-22T11:34:35.143Z</time></trkpt><trkpt lat="39.9139011" lon="-2.0755409"><ele>1167.0</ele><time>2026-03-22T11:34:36.149Z</time></trkpt><trkpt lat="39.9138744" lon="-2.0757331"><ele>1167.3333333333333</ele><time>2026-03-22T11:34:37.153Z</time></trkpt><trkpt lat="39.9138553" lon="-2.0759261"><ele>1167.6666666666665</ele><time>2026-03-22T11:34:38.155Z</time></trkpt><trkpt lat="39.9138496" lon="-2.0761256"><ele>1168.0</ele><time>2026-03-22T11:34:39.151Z</time></trkpt><trkpt lat="39.9138416" lon="-2.0763246"><ele>1168.0</ele><time>2026-03-22T11:34:40.156Z</time></trkpt><trkpt lat="39.9138363" lon="-2.0765123"><ele>1168.0</ele><time>2026-03-22T11:34:41.14Z</time></trkpt><trkpt lat="39.9138469" lon="-2.0766864"><ele>1168.0</ele><time>2026-03-22T11:34:42.154Z</time></trkpt><trkpt lat="39.9138617" lon="-2.0768605"><ele>1168.0</ele><time>2026-03-22T11:34:43.137Z</time></trkpt><trkpt lat="39.913872" lon="-2.0770513"><ele>1168.0</ele><time>2026-03-22T11:34:44.155Z</time></trkpt><trkpt lat="39.9138835" lon="-2.0772514"><ele>1168.0</ele><time>2026-03-22T11:34:45.153Z</time></trkpt><trkpt lat="39.913899" lon="-2.0774583"><ele>1168.0</ele><time>2026-03-22T11:34:46.169Z</time></trkpt><trkpt lat="39.9139264" lon="-2.0776597"><ele>1168.0</ele><time>2026-03-22T11:34:47.171Z</time></trkpt><trkpt lat="39.9139552" lon="-2.0778535"><ele>1168.0</ele><time>2026-03-22T11:34:48.16Z</time></trkpt><trkpt lat="39.9139842" lon="-2.0780466"><ele>1168.0</ele><time>2026-03-22T11:34:49.158Z</time></trkpt><trkpt lat="39.9140136" lon="-2.0782453"><ele>1168.0</ele><time>2026-03-22T11:34:50.148Z</time></trkpt><trkpt lat="39.9140444" lon="-2.0784504"><ele>1168.0</ele><time>2026-03-22T11:34:51.178Z</time></trkpt><trkpt lat="39.9140753" lon="-2.0786672"><ele>1168.0</ele><time>2026-03-22T11:34:52.168Z</time></trkpt><trkpt lat="39.914111" lon="-2.078875"><ele>1168.0</ele><time>2026-03-22T11:34:53.158Z</time></trkpt><trkpt lat="39.9141424" lon="-2.0790799"><ele>1168.0</ele><time>2026-03-22T11:34:54.166Z</time></trkpt><trkpt lat="39.9141701" lon="-2.0792823"><ele>1168.0</ele><time>2026-03-22T11:34:55.151Z</time></trkpt><trkpt lat="39.914197" lon="-2.0794672"><ele>1167.8</ele><time>2026-03-22T11:34:56.156Z</time></trkpt><trkpt lat="39.9142194" lon="-2.0796363"><ele>1167.6</ele><time>2026-03-22T11:34:57.176Z</time></trkpt><trkpt lat="39.9142373" lon="-2.0797851"><ele>1167.4</ele><time>2026-03-22T11:34:58.161Z</time></trkpt><trkpt lat="39.9142498" lon="-2.0799039"><ele>1167.2</ele><time>2026-03-22T11:34:59.174Z</time></trkpt><trkpt lat="39.9142469" lon="-2.0800253"><ele>1167.0</ele><time>2026-03-22T11:35:00.147Z</time></trkpt><trkpt lat="39.9142335" lon="-2.0801502"><ele>1166.4</ele><time>2026-03-22T11:35:01.185Z</time></trkpt><trkpt lat="39.9142081" lon="-2.0802662"><ele>1165.8000000000002</ele><time>2026-03-22T11:35:02.137Z</time></trkpt><trkpt lat="39.9141799" lon="-2.0803751"><ele>1165.2</ele><time>2026-03-22T11:35:03.142Z</time></trkpt><trkpt lat="39.9141257" lon="-2.0804807"><ele>1164.6000000000001</ele><time>2026-03-22T11:35:04.158Z</time></trkpt><trkpt lat="39.9140673" lon="-2.0805866"><ele>1164.0</ele><time>2026-03-22T11:35:05.134Z</time></trkpt><trkpt lat="39.9139987" lon="-2.0807043"><ele>1163.5</ele><time>2026-03-22T11:35:06.137Z</time></trkpt><trkpt lat="39.9139147" lon="-2.0808177"><ele>1163.0</ele><time>2026-03-22T11:35:07.171Z</time></trkpt><trkpt lat="39.9138255" lon="-2.0809339"><ele>1162.5</ele><time>2026-03-22T11:35:08.151Z</time></trkpt><trkpt lat="39.9137291" lon="-2.0810571"><ele>1162.0</ele><time>2026-03-22T11:35:09.153Z</time></trkpt><trkpt lat="39.9136309" lon="-2.0811962"><ele>1162.0</ele><time>2026-03-22T11:35:10.136Z</time></trkpt><trkpt lat="39.913529" lon="-2.081346"><ele>1162.0</ele><time>2026-03-22T11:35:11.146Z</time></trkpt><trkpt lat="39.9134278" lon="-2.0814917"><ele>1162.0</ele><time>2026-03-22T11:35:12.158Z</time></trkpt><trkpt lat="39.9133195" lon="-2.0816425"><ele>1161.25</ele><time>2026-03-22T11:35:13.149Z</time></trkpt><trkpt lat="39.9132138" lon="-2.0817816"><ele>1160.5</ele><time>2026-03-22T11:35:14.146Z</time></trkpt><trkpt lat="39.9131104" lon="-2.0819195"><ele>1159.75</ele><time>2026-03-22T11:35:15.158Z</time></trkpt><trkpt lat="39.9130103" lon="-2.082042"><ele>1159.0</ele><time>2026-03-22T11:35:16.14Z</time></trkpt><trkpt lat="39.9129148" lon="-2.0821671"><ele>1159.0</ele><time>2026-03-22T11:35:17.138Z</time></trkpt><trkpt lat="39.9128262" lon="-2.0822889"><ele>1159.0</ele><time>2026-03-22T11:35:18.142Z</time></trkpt><trkpt lat="39.9127392" lon="-2.0824032"><ele>1159.0</ele><time>2026-03-22T11:35:19.157Z</time></trkpt><trkpt lat="39.9126568" lon="-2.0825144"><ele>1159.0</ele><time>2026-03-22T11:35:20.162Z</time></trkpt><trkpt lat="39.9125803" lon="-2.0826273"><ele>1158.4</ele><time>2026-03-22T11:35:21.15Z</time></trkpt><trkpt lat="39.9125073" lon="-2.0827382"><ele>1157.8000000000002</ele><time>2026-03-22T11:35:22.153Z</time></trkpt><trkpt lat="39.9124381" lon="-2.082844"><ele>1157.1999999999998</ele><time>2026-03-22T11:35:23.159Z</time></trkpt><trkpt lat="39.9123632" lon="-2.0829345"><ele>1156.6</ele><time>2026-03-22T11:35:24.171Z</time></trkpt><trkpt lat="39.9122812" lon="-2.0830318"><ele>1156.0</ele><time>2026-03-22T11:35:25.136Z</time></trkpt><trkpt lat="39.9121929" lon="-2.08314"><ele>1155.6666666666665</ele><time>2026-03-22T11:35:26.153Z</time></trkpt><trkpt lat="39.912101" lon="-2.0832732"><ele>1155.3333333333333</ele><time>2026-03-22T11:35:27.158Z</time></trkpt><trkpt lat="39.9120012" lon="-2.0834214"><ele>1155.0</ele><time>2026-03-22T11:35:28.144Z</time></trkpt><trkpt lat="39.9118893" lon="-2.0835771"><ele>1155.0</ele><time>2026-03-22T11:35:29.145Z</time></trkpt><trkpt lat="39.9117706" lon="-2.0837387"><ele>1155.0</ele><time>2026-03-22T11:35:30.128Z</time></trkpt><trkpt lat="39.9116517" lon="-2.0839076"><ele>1155.0</ele><time>2026-03-22T11:35:31.137Z</time></trkpt><trkpt lat="39.9115348" lon="-2.0840849"><ele>1153.6666666666667</ele><time>2026-03-22T11:35:32.162Z</time></trkpt><trkpt lat="39.9114204" lon="-2.0842555"><ele>1152.3333333333335</ele><time>2026-03-22T11:35:33.137Z</time></trkpt><trkpt lat="39.9113125" lon="-2.084413"><ele>1151.0</ele><time>2026-03-22T11:35:34.143Z</time></trkpt><trkpt lat="39.9112039" lon="-2.084556"><ele>1151.0</ele><time>2026-03-22T11:35:35.141Z</time></trkpt><trkpt lat="39.9110995" lon="-2.0846874"><ele>1151.0</ele><time>2026-03-22T11:35:36.143Z</time></trkpt><trkpt lat="39.9110012" lon="-2.084818"><ele>1151.0</ele><time>2026-03-22T11:35:37.138Z</time></trkpt><trkpt lat="39.9109015" lon="-2.0849378"><ele>1151.0</ele><time>2026-03-22T11:35:38.147Z</time></trkpt><trkpt lat="39.9108114" lon="-2.0850617"><ele>1150.25</ele><time>2026-03-22T11:35:39.15Z</time></trkpt><trkpt lat="39.9107305" lon="-2.0851848"><ele>1149.5</ele><time>2026-03-22T11:35:40.15Z</time></trkpt><trkpt lat="39.9106421" lon="-2.0853029"><ele>1148.75</ele><time>2026-03-22T11:35:41.152Z</time></trkpt><trkpt lat="39.910568" lon="-2.0854593"><ele>1148.0</ele><time>2026-03-22T11:35:42.142Z</time></trkpt><trkpt lat="39.9104543" lon="-2.0855785"><ele>1148.0</ele><time>2026-03-22T11:35:43.132Z</time></trkpt><trkpt lat="39.9103066" lon="-2.0856537"><ele>1148.0</ele><time>2026-03-22T11:35:44.137Z</time></trkpt><trkpt lat="39.9101502" lon="-2.0857282"><ele>1148.0</ele><time>2026-03-22T11:35:45.137Z</time></trkpt><trkpt lat="39.9099948" lon="-2.0857947"><ele>1147.3333333333335</ele><time>2026-03-22T11:35:46.13Z</time></trkpt><trkpt lat="39.9098453" lon="-2.0858506"><ele>1146.6666666666667</ele><time>2026-03-22T11:35:47.147Z</time></trkpt><trkpt lat="39.9097008" lon="-2.085906"><ele>1146.0</ele><time>2026-03-22T11:35:48.146Z</time></trkpt><trkpt lat="39.909562" lon="-2.0859741"><ele>1146.0</ele><time>2026-03-22T11:35:49.146Z</time></trkpt><trkpt lat="39.9094194" lon="-2.0860502"><ele>1146.0</ele><time>2026-03-22T11:35:50.139Z</time></trkpt><trkpt lat="39.9092751" lon="-2.08613"><ele>1146.0</ele><time>2026-03-22T11:35:51.173Z</time></trkpt><trkpt lat="39.9091257" lon="-2.0862092"><ele>1145.3333333333333</ele><time>2026-03-22T11:35:52.134Z</time></trkpt><trkpt lat="39.9089764" lon="-2.0862945"><ele>1144.6666666666665</ele><time>2026-03-22T11:35:53.151Z</time></trkpt><trkpt lat="39.9088248" lon="-2.0863845"><ele>1144.0</ele><time>2026-03-22T11:35:54.151Z</time></trkpt><trkpt lat="39.9086688" lon="-2.0864801"><ele>1144.0</ele><time>2026-03-22T11:35:55.168Z</time></trkpt><trkpt lat="39.9085085" lon="-2.0865806"><ele>1144.0</ele><time>2026-03-22T11:35:56.145Z</time></trkpt><trkpt lat="39.9083486" lon="-2.0866908"><ele>1144.0</ele><time>2026-03-22T11:35:57.152Z</time></trkpt><trkpt lat="39.908189" lon="-2.0868082"><ele>1145.6666666666665</ele><time>2026-03-22T11:35:58.135Z</time></trkpt><trkpt lat="39.9080368" lon="-2.0869381"><ele>1147.3333333333333</ele><time>2026-03-22T11:35:59.145Z</time></trkpt><trkpt lat="39.9078945" lon="-2.0870703"><ele>1149.0</ele><time>2026-03-22T11:36:00.17Z</time></trkpt><trkpt lat="39.9077559" lon="-2.0871871"><ele>1149.0</ele><time>2026-03-22T11:36:01.14Z</time></trkpt><trkpt lat="39.9076291" lon="-2.0872957"><ele>1149.0</ele><time>2026-03-22T11:36:02.139Z</time></trkpt><trkpt lat="39.907518" lon="-2.0873919"><ele>1149.0</ele><time>2026-03-22T11:36:03.141Z</time></trkpt><trkpt lat="39.9074046" lon="-2.0874741"><ele>1149.0</ele><time>2026-03-22T11:36:04.141Z</time></trkpt><trkpt lat="39.9072938" lon="-2.0875436"><ele>1149.5</ele><time>2026-03-22T11:36:05.138Z</time></trkpt><trkpt lat="39.9071747" lon="-2.0875905"><ele>1150.0</ele><time>2026-03-22T11:36:06.142Z</time></trkpt><trkpt lat="39.9070347" lon="-2.0875906"><ele>1150.5</ele><time>2026-03-22T11:36:07.145Z</time></trkpt><trkpt lat="39.9068841" lon="-2.0875669"><ele>1151.0</ele><time>2026-03-22T11:36:08.148Z</time></trkpt><trkpt lat="39.9067349" lon="-2.0875337"><ele>1151.0</ele><time>2026-03-22T11:36:09.164Z</time></trkpt><trkpt lat="39.9065786" lon="-2.0874831"><ele>1151.0</ele><time>2026-03-22T11:36:10.16Z</time></trkpt><trkpt lat="39.9064209" lon="-2.087434"><ele>1151.0</ele><time>2026-03-22T11:36:11.147Z</time></trkpt><trkpt lat="39.90626" lon="-2.0873901"><ele>1148.6666666666667</ele><time>2026-03-22T11:36:12.15Z</time></trkpt><trkpt lat="39.9060999" lon="-2.0873475"><ele>1146.3333333333333</ele><time>2026-03-22T11:36:13.146Z</time></trkpt><trkpt lat="39.9059353" lon="-2.087307"><ele>1144.0</ele><time>2026-03-22T11:36:14.135Z</time></trkpt><trkpt lat="39.9057829" lon="-2.0872626"><ele>1143.3333333333333</ele><time>2026-03-22T11:36:15.15Z</time></trkpt><trkpt lat="39.9056327" lon="-2.0872245"><ele>1142.6666666666667</ele><time>2026-03-22T11:36:16.149Z</time></trkpt><trkpt lat="39.9054835" lon="-2.0871837"><ele>1142.0</ele><time>2026-03-22T11:36:17.147Z</time></trkpt><trkpt lat="39.905332" lon="-2.0871505"><ele>1142.0</ele><time>2026-03-22T11:36:18.147Z</time></trkpt><trkpt lat="39.9051914" lon="-2.0871088"><ele>1142.0</ele><time>2026-03-22T11:36:19.162Z</time></trkpt><trkpt lat="39.9050471" lon="-2.0870661"><ele>1142.0</ele><time>2026-03-22T11:36:20.149Z</time></trkpt><trkpt lat="39.9048949" lon="-2.0870192"><ele>1142.0</ele><time>2026-03-22T11:36:21.15Z</time></trkpt><trkpt lat="39.9047416" lon="-2.0869686"><ele>1142.0</ele><time>2026-03-22T11:36:22.151Z</time></trkpt><trkpt lat="39.9045868" lon="-2.0869138"><ele>1142.0</ele><time>2026-03-22T11:36:23.151Z</time></trkpt><trkpt lat="39.9044312" lon="-2.0868588"><ele>1142.0</ele><time>2026-03-22T11:36:24.158Z</time></trkpt><trkpt lat="39.9042733" lon="-2.0868091"><ele>1141.6666666666667</ele><time>2026-03-22T11:36:25.151Z</time></trkpt><trkpt lat="39.9041199" lon="-2.0867447"><ele>1141.3333333333333</ele><time>2026-03-22T11:36:26.135Z</time></trkpt><trkpt lat="39.903959" lon="-2.0866853"><ele>1141.0</ele><time>2026-03-22T11:36:27.146Z</time></trkpt><trkpt lat="39.9038026" lon="-2.0866276"><ele>1137.6666666666665</ele><time>2026-03-22T11:36:28.141Z</time></trkpt><trkpt lat="39.9036459" lon="-2.0865746"><ele>1134.3333333333333</ele><time>2026-03-22T11:36:29.144Z</time></trkpt><trkpt lat="39.9034913" lon="-2.0865205"><ele>1131.0</ele><time>2026-03-22T11:36:30.176Z</time></trkpt><trkpt lat="39.9033401" lon="-2.0864678"><ele>1131.0</ele><time>2026-03-22T11:36:31.141Z</time></trkpt><trkpt lat="39.9031964" lon="-2.0864114"><ele>1131.0</ele><time>2026-03-22T11:36:32.141Z</time></trkpt><trkpt lat="39.9030609" lon="-2.0863565"><ele>1131.0</ele><time>2026-03-22T11:36:33.145Z</time></trkpt><trkpt lat="39.9029197" lon="-2.0863009"><ele>1131.0</ele><time>2026-03-22T11:36:34.153Z</time></trkpt><trkpt lat="39.9027716" lon="-2.0862412"><ele>1131.0</ele><time>2026-03-22T11:36:35.161Z</time></trkpt><trkpt lat="39.9026252" lon="-2.0861946"><ele>1131.0</ele><time>2026-03-22T11:36:36.149Z</time></trkpt><trkpt lat="39.9024929" lon="-2.086148"><ele>1131.0</ele><time>2026-03-22T11:36:37.154Z</time></trkpt><trkpt lat="39.9023617" lon="-2.0861157"><ele>1131.0</ele><time>2026-03-22T11:36:38.129Z</time></trkpt><trkpt lat="39.9022201" lon="-2.0860903"><ele>1130.6666666666667</ele><time>2026-03-22T11:36:39.151Z</time></trkpt><trkpt lat="39.9020614" lon="-2.0860877"><ele>1130.3333333333335</ele><time>2026-03-22T11:36:40.154Z</time></trkpt><trkpt lat="39.9018998" lon="-2.0860984"><ele>1130.0</ele><time>2026-03-22T11:36:41.149Z</time></trkpt><trkpt lat="39.9017474" lon="-2.0861132"><ele>1129.0</ele><time>2026-03-22T11:36:42.147Z</time></trkpt><trkpt lat="39.9016014" lon="-2.0861267"><ele>1128.0</ele><time>2026-03-22T11:36:43.15Z</time></trkpt><trkpt lat="39.901459" lon="-2.0861366"><ele>1127.0</ele><time>2026-03-22T11:36:44.166Z</time></trkpt><trkpt lat="39.9013183" lon="-2.0861477"><ele>1126.0</ele><time>2026-03-22T11:36:45.143Z</time></trkpt><trkpt lat="39.9011702" lon="-2.0861611"><ele>1126.0</ele><time>2026-03-22T11:36:46.159Z</time></trkpt><trkpt lat="39.9010165" lon="-2.0861636"><ele>1126.0</ele><time>2026-03-22T11:36:47.166Z</time></trkpt><trkpt lat="39.9008608" lon="-2.0861749"><ele>1126.0</ele><time>2026-03-22T11:36:48.192Z</time></trkpt><trkpt lat="39.9007044" lon="-2.0861937"><ele>1124.6666666666665</ele><time>2026-03-22T11:36:49.143Z</time></trkpt><trkpt lat="39.9005497" lon="-2.0862125"><ele>1123.3333333333333</ele><time>2026-03-22T11:36:50.15Z</time></trkpt><trkpt lat="39.9003933" lon="-2.0862203"><ele>1122.0</ele><time>2026-03-22T11:36:51.141Z</time></trkpt><trkpt lat="39.9002354" lon="-2.0862315"><ele>1120.0</ele><time>2026-03-22T11:36:52.173Z</time></trkpt><trkpt lat="39.9000752" lon="-2.0862432"><ele>1118.0</ele><time>2026-03-22T11:36:53.153Z</time></trkpt><trkpt lat="39.8999122" lon="-2.086239"><ele>1116.0</ele><time>2026-03-22T11:36:54.166Z</time></trkpt><trkpt lat="39.8997506" lon="-2.0862448"><ele>1116.0</ele><time>2026-03-22T11:36:55.16Z</time></trkpt><trkpt lat="39.8995954" lon="-2.086248"><ele>1116.0</ele><time>2026-03-22T11:36:56.144Z</time></trkpt><trkpt lat="39.8994497" lon="-2.0862506"><ele>1116.0</ele><time>2026-03-22T11:36:57.15Z</time></trkpt><trkpt lat="39.899313" lon="-2.0862623"><ele>1116.0</ele><time>2026-03-22T11:36:58.143Z</time></trkpt><trkpt lat="39.8991773" lon="-2.0862822"><ele>1115.25</ele><time>2026-03-22T11:36:59.134Z</time></trkpt><trkpt lat="39.8990386" lon="-2.0863075"><ele>1114.5</ele><time>2026-03-22T11:37:00.171Z</time></trkpt><trkpt lat="39.8988946" lon="-2.0863662"><ele>1113.75</ele><time>2026-03-22T11:37:01.149Z</time></trkpt><trkpt lat="39.8987427" lon="-2.0864108"><ele>1113.0</ele><time>2026-03-22T11:37:02.154Z</time></trkpt><trkpt lat="39.8986143" lon="-2.0864793"><ele>1113.0</ele><time>2026-03-22T11:37:03.149Z</time></trkpt><trkpt lat="39.8984957" lon="-2.0865443"><ele>1113.0</ele><time>2026-03-22T11:37:04.145Z</time></trkpt><trkpt lat="39.8983822" lon="-2.0866078"><ele>1113.0</ele><time>2026-03-22T11:37:05.158Z</time></trkpt><trkpt lat="39.8982774" lon="-2.0866739"><ele>1113.0</ele><time>2026-03-22T11:37:06.164Z</time></trkpt><trkpt lat="39.8981865" lon="-2.0867652"><ele>1113.0</ele><time>2026-03-22T11:37:07.143Z</time></trkpt><trkpt lat="39.8981025" lon="-2.0868738"><ele>1113.0</ele><time>2026-03-22T11:37:08.16Z</time></trkpt><trkpt lat="39.8980255" lon="-2.0869838"><ele>1113.0</ele><time>2026-03-22T11:37:09.146Z</time></trkpt><trkpt lat="39.897939" lon="-2.0870629"><ele>1113.0</ele><time>2026-03-22T11:37:10.146Z</time></trkpt><trkpt lat="39.8978349" lon="-2.0871039"><ele>1113.0</ele><time>2026-03-22T11:37:11.162Z</time></trkpt><trkpt lat="39.8977193" lon="-2.0871378"><ele>1113.0</ele><time>2026-03-22T11:37:12.167Z</time></trkpt><trkpt lat="39.8975919" lon="-2.0871785"><ele>1113.0</ele><time>2026-03-22T11:37:13.146Z</time></trkpt><trkpt lat="39.8974361" lon="-2.0872176"><ele>1113.0</ele><time>2026-03-22T11:37:14.145Z</time></trkpt><trkpt lat="39.8972596" lon="-2.087216"><ele>1112.0</ele><time>2026-03-22T11:37:15.149Z</time></trkpt><trkpt lat="39.8970853" lon="-2.0872039"><ele>1111.0</ele><time>2026-03-22T11:37:16.151Z</time></trkpt><trkpt lat="39.8969247" lon="-2.0871946"><ele>1110.0</ele><time>2026-03-22T11:37:17.138Z</time></trkpt><trkpt lat="39.8967734" lon="-2.0871904"><ele>1109.3333333333333</ele><time>2026-03-22T11:37:18.148Z</time></trkpt><trkpt lat="39.896618" lon="-2.0871873"><ele>1108.6666666666665</ele><time>2026-03-22T11:37:19.144Z</time></trkpt><trkpt lat="39.8964669" lon="-2.0871988"><ele>1108.0</ele><time>2026-03-22T11:37:20.143Z</time></trkpt><trkpt lat="39.8963196" lon="-2.0872148"><ele>1108.0</ele><time>2026-03-22T11:37:21.15Z</time></trkpt><trkpt lat="39.896181" lon="-2.0872273"><ele>1108.0</ele><time>2026-03-22T11:37:22.145Z</time></trkpt><trkpt lat="39.8960529" lon="-2.0872425"><ele>1108.0</ele><time>2026-03-22T11:37:23.163Z</time></trkpt><trkpt lat="39.8959267" lon="-2.0872602"><ele>1108.0</ele><time>2026-03-22T11:37:24.155Z</time></trkpt><trkpt lat="39.8958053" lon="-2.0872869"><ele>1107.75</ele><time>2026-03-22T11:37:25.157Z</time></trkpt><trkpt lat="39.895679" lon="-2.0873272"><ele>1107.5</ele><time>2026-03-22T11:37:26.159Z</time></trkpt><trkpt lat="39.8955508" lon="-2.0873673"><ele>1107.25</ele><time>2026-03-22T11:37:27.15Z</time></trkpt><trkpt lat="39.8954241" lon="-2.0874094"><ele>1107.0</ele><time>2026-03-22T11:37:28.152Z</time></trkpt><trkpt lat="39.8952779" lon="-2.0874485"><ele>1106.6666666666667</ele><time>2026-03-22T11:37:29.134Z</time></trkpt><trkpt lat="39.8951253" lon="-2.0875174"><ele>1106.3333333333335</ele><time>2026-03-22T11:37:30.151Z</time></trkpt><trkpt lat="39.8949731" lon="-2.0875998"><ele>1106.0</ele><time>2026-03-22T11:37:31.146Z</time></trkpt><trkpt lat="39.8948206" lon="-2.0876993"><ele>1106.0</ele><time>2026-03-22T11:37:32.181Z</time></trkpt><trkpt lat="39.894657" lon="-2.0877919"><ele>1106.0</ele><time>2026-03-22T11:37:33.153Z</time></trkpt><trkpt lat="39.8945053" lon="-2.0878945"><ele>1106.0</ele><time>2026-03-22T11:37:34.154Z</time></trkpt><trkpt lat="39.8943581" lon="-2.0879984"><ele>1106.0</ele><time>2026-03-22T11:37:35.157Z</time></trkpt><trkpt lat="39.8942156" lon="-2.0880981"><ele>1106.0</ele><time>2026-03-22T11:37:36.147Z</time></trkpt><trkpt lat="39.8940806" lon="-2.0882043"><ele>1106.0</ele><time>2026-03-22T11:37:37.141Z</time></trkpt><trkpt lat="39.8939379" lon="-2.0883051"><ele>1108.0</ele><time>2026-03-22T11:37:38.146Z</time></trkpt><trkpt lat="39.8937953" lon="-2.0884075"><ele>1110.0</ele><time>2026-03-22T11:37:39.151Z</time></trkpt><trkpt lat="39.8936516" lon="-2.0885049"><ele>1112.0</ele><time>2026-03-22T11:37:40.139Z</time></trkpt><trkpt lat="39.8935079" lon="-2.0886067"><ele>1111.6666666666667</ele><time>2026-03-22T11:37:41.148Z</time></trkpt><trkpt lat="39.8933676" lon="-2.0887034"><ele>1111.3333333333333</ele><time>2026-03-22T11:37:42.133Z</time></trkpt><trkpt lat="39.8932298" lon="-2.0888032"><ele>1111.0</ele><time>2026-03-22T11:37:43.155Z</time></trkpt><trkpt lat="39.8931081" lon="-2.0889096"><ele>1111.0</ele><time>2026-03-22T11:37:44.157Z</time></trkpt><trkpt lat="39.8929969" lon="-2.0890181"><ele>1111.0</ele><time>2026-03-22T11:37:45.145Z</time></trkpt><trkpt lat="39.8928895" lon="-2.0891335"><ele>1111.0</ele><time>2026-03-22T11:37:46.14Z</time></trkpt><trkpt lat="39.8927901" lon="-2.0892615"><ele>1111.0</ele><time>2026-03-22T11:37:47.142Z</time></trkpt><trkpt lat="39.8926891" lon="-2.0893919"><ele>1112.25</ele><time>2026-03-22T11:37:48.15Z</time></trkpt><trkpt lat="39.8926062" lon="-2.0895207"><ele>1113.5</ele><time>2026-03-22T11:37:49.132Z</time></trkpt><trkpt lat="39.8925212" lon="-2.0896265"><ele>1114.75</ele><time>2026-03-22T11:37:50.144Z</time></trkpt><trkpt lat="39.8924326" lon="-2.0897277"><ele>1116.0</ele><time>2026-03-22T11:37:51.132Z</time></trkpt><trkpt lat="39.8923691" lon="-2.089863"><ele>1116.0</ele><time>2026-03-22T11:37:52.144Z</time></trkpt><trkpt lat="39.8923223" lon="-2.0900271"><ele>1116.0</ele><time>2026-03-22T11:37:53.154Z</time></trkpt><trkpt lat="39.8922982" lon="-2.0902189"><ele>1116.0</ele><time>2026-03-22T11:37:54.126Z</time></trkpt><trkpt lat="39.8922917" lon="-2.090422"><ele>1116.0</ele><time>2026-03-22T11:37:55.142Z</time></trkpt><trkpt lat="39.8922825" lon="-2.0906228"><ele>1115.75</ele><time>2026-03-22T11:37:56.151Z</time></trkpt><trkpt lat="39.8922706" lon="-2.0908178"><ele>1115.5</ele><time>2026-03-22T11:37:57.151Z</time></trkpt><trkpt lat="39.8922553" lon="-2.0910015"><ele>1115.25</ele><time>2026-03-22T11:37:58.133Z</time></trkpt><trkpt lat="39.8922425" lon="-2.0911626"><ele>1115.0</ele><time>2026-03-22T11:37:59.144Z</time></trkpt><trkpt lat="39.892231" lon="-2.0913346"><ele>1115.0</ele><time>2026-03-22T11:38:00.149Z</time></trkpt><trkpt lat="39.8922303" lon="-2.0915045"><ele>1115.0</ele><time>2026-03-22T11:38:01.164Z</time></trkpt><trkpt lat="39.8922458" lon="-2.0916775"><ele>1115.0</ele><time>2026-03-22T11:38:02.146Z</time></trkpt><trkpt lat="39.8922825" lon="-2.0918555"><ele>1115.0</ele><time>2026-03-22T11:38:03.154Z</time></trkpt><trkpt lat="39.892341" lon="-2.0920236"><ele>1116.25</ele><time>2026-03-22T11:38:04.146Z</time></trkpt><trkpt lat="39.8924107" lon="-2.0921845"><ele>1117.5</ele><time>2026-03-22T11:38:05.137Z</time></trkpt><trkpt lat="39.8924765" lon="-2.0923409"><ele>1118.75</ele><time>2026-03-22T11:38:06.136Z</time></trkpt><trkpt lat="39.8925357" lon="-2.0925082"><ele>1120.0</ele><time>2026-03-22T11:38:07.153Z</time></trkpt><trkpt lat="39.8925954" lon="-2.0926598"><ele>1120.6</ele><time>2026-03-22T11:38:08.153Z</time></trkpt><trkpt lat="39.8926468" lon="-2.0928043"><ele>1121.2</ele><time>2026-03-22T11:38:09.136Z</time></trkpt><trkpt lat="39.8926886" lon="-2.0929248"><ele>1121.8</ele><time>2026-03-22T11:38:10.143Z</time></trkpt><trkpt lat="39.8927214" lon="-2.093032"><ele>1122.4</ele><time>2026-03-22T11:38:11.14Z</time></trkpt><trkpt lat="39.8927393" lon="-2.0931371"><ele>1123.0</ele><time>2026-03-22T11:38:12.146Z</time></trkpt><trkpt lat="39.8927539" lon="-2.0932506"><ele>1123.0</ele><time>2026-03-22T11:38:13.154Z</time></trkpt><trkpt lat="39.8927645" lon="-2.0933876"><ele>1123.0</ele><time>2026-03-22T11:38:14.147Z</time></trkpt><trkpt lat="39.8927799" lon="-2.0935269"><ele>1123.0</ele><time>2026-03-22T11:38:15.161Z</time></trkpt><trkpt lat="39.8927942" lon="-2.093678"><ele>1123.0</ele><time>2026-03-22T11:38:16.155Z</time></trkpt><trkpt lat="39.8928011" lon="-2.0938375"><ele>1123.0</ele><time>2026-03-22T11:38:17.142Z</time></trkpt><trkpt lat="39.892807" lon="-2.0940042"><ele>1123.0</ele><time>2026-03-22T11:38:18.142Z</time></trkpt><trkpt lat="39.8928064" lon="-2.0941669"><ele>1123.0</ele><time>2026-03-22T11:38:19.145Z</time></trkpt><trkpt lat="39.8928135" lon="-2.0943196"><ele>1123.0</ele><time>2026-03-22T11:38:20.145Z</time></trkpt><trkpt lat="39.8928377" lon="-2.0944472"><ele>1122.2</ele><time>2026-03-22T11:38:21.17Z</time></trkpt><trkpt lat="39.8928537" lon="-2.0945738"><ele>1121.4</ele><time>2026-03-22T11:38:22.136Z</time></trkpt><trkpt lat="39.8928494" lon="-2.094721"><ele>1120.6000000000001</ele><time>2026-03-22T11:38:23.137Z</time></trkpt><trkpt lat="39.8928424" lon="-2.0948618"><ele>1119.8</ele><time>2026-03-22T11:38:24.15Z</time></trkpt><trkpt lat="39.892844" lon="-2.0949948"><ele>1119.0</ele><time>2026-03-22T11:38:25.159Z</time></trkpt><trkpt lat="39.8928507" lon="-2.095122"><ele>1117.8</ele><time>2026-03-22T11:38:26.155Z</time></trkpt><trkpt lat="39.8928523" lon="-2.0952522"><ele>1116.6000000000001</ele><time>2026-03-22T11:38:27.138Z</time></trkpt><trkpt lat="39.8928502" lon="-2.0953843"><ele>1115.4</ele><time>2026-03-22T11:38:28.153Z</time></trkpt><trkpt lat="39.892852" lon="-2.0955017"><ele>1114.2</ele><time>2026-03-22T11:38:29.134Z</time></trkpt><trkpt lat="39.8928449" lon="-2.0956198"><ele>1113.0</ele><time>2026-03-22T11:38:30.156Z</time></trkpt><trkpt lat="39.8928199" lon="-2.0957381"><ele>1112.0</ele><time>2026-03-22T11:38:31.132Z</time></trkpt><trkpt lat="39.8927726" lon="-2.0958353"><ele>1111.0</ele><time>2026-03-22T11:38:32.144Z</time></trkpt><trkpt lat="39.8927177" lon="-2.095929"><ele>1110.0</ele><time>2026-03-22T11:38:33.149Z</time></trkpt><trkpt lat="39.8926388" lon="-2.0960081"><ele>1109.0</ele><time>2026-03-22T11:38:34.146Z</time></trkpt><trkpt lat="39.892563" lon="-2.0960895"><ele>1108.0</ele><time>2026-03-22T11:38:35.137Z</time></trkpt><trkpt lat="39.8925029" lon="-2.0961819"><ele>1108.0</ele><time>2026-03-22T11:38:36.145Z</time></trkpt><trkpt lat="39.8924835" lon="-2.0963078"><ele>1108.0</ele><time>2026-03-22T11:38:37.141Z</time></trkpt><trkpt lat="39.8924756" lon="-2.0964406"><ele>1108.0</ele><time>2026-03-22T11:38:38.144Z</time></trkpt><trkpt lat="39.8924954" lon="-2.0965961"><ele>1108.0</ele><time>2026-03-22T11:38:39.141Z</time></trkpt><trkpt lat="39.8925198" lon="-2.0967526"><ele>1108.0</ele><time>2026-03-22T11:38:40.16Z</time></trkpt><trkpt lat="39.892542" lon="-2.096916"><ele>1108.5</ele><time>2026-03-22T11:38:41.156Z</time></trkpt><trkpt lat="39.8925658" lon="-2.0970837"><ele>1109.0</ele><time>2026-03-22T11:38:42.149Z</time></trkpt><trkpt lat="39.8925876" lon="-2.0972632"><ele>1109.5</ele><time>2026-03-22T11:38:43.143Z</time></trkpt><trkpt lat="39.8926153" lon="-2.0974291"><ele>1110.0</ele><time>2026-03-22T11:38:44.158Z</time></trkpt><trkpt lat="39.8926443" lon="-2.09761"><ele>1110.0</ele><time>2026-03-22T11:38:45.131Z</time></trkpt><trkpt lat="39.8926692" lon="-2.0978044"><ele>1110.0</ele><time>2026-03-22T11:38:46.131Z</time></trkpt><trkpt lat="39.8926954" lon="-2.0980098"><ele>1110.0</ele><time>2026-03-22T11:38:47.136Z</time></trkpt><trkpt lat="39.8927221" lon="-2.0982062"><ele>1110.5</ele><time>2026-03-22T11:38:48.14Z</time></trkpt><trkpt lat="39.8927466" lon="-2.0983913"><ele>1111.0</ele><time>2026-03-22T11:38:49.164Z</time></trkpt><trkpt lat="39.8927728" lon="-2.0985724"><ele>1111.5</ele><time>2026-03-22T11:38:50.152Z</time></trkpt><trkpt lat="39.8927968" lon="-2.0987509"><ele>1112.0</ele><time>2026-03-22T11:38:51.154Z</time></trkpt><trkpt lat="39.892821" lon="-2.0989331"><ele>1111.5</ele><time>2026-03-22T11:38:52.15Z</time></trkpt><trkpt lat="39.8928466" lon="-2.0991137"><ele>1111.0</ele><time>2026-03-22T11:38:53.147Z</time></trkpt><trkpt lat="39.8928684" lon="-2.099283"><ele>1110.5</ele><time>2026-03-22T11:38:54.131Z</time></trkpt><trkpt lat="39.8928854" lon="-2.0994426"><ele>1110.0</ele><time>2026-03-22T11:38:55.148Z</time></trkpt><trkpt lat="39.8929176" lon="-2.0995865"><ele>1110.0</ele><time>2026-03-22T11:38:56.145Z</time></trkpt><trkpt lat="39.8929506" lon="-2.0997308"><ele>1110.0</ele><time>2026-03-22T11:38:57.154Z</time></trkpt><trkpt lat="39.8929948" lon="-2.0998613"><ele>1110.0</ele><time>2026-03-22T11:38:58.137Z</time></trkpt><trkpt lat="39.8930392" lon="-2.0999817"><ele>1110.0</ele><time>2026-03-22T11:38:59.143Z</time></trkpt><trkpt lat="39.8930806" lon="-2.1001057"><ele>1110.0</ele><time>2026-03-22T11:39:00.147Z</time></trkpt><trkpt lat="39.8931191" lon="-2.1002256"><ele>1109.5</ele><time>2026-03-22T11:39:01.144Z</time></trkpt><trkpt lat="39.8931285" lon="-2.1003663"><ele>1109.0</ele><time>2026-03-22T11:39:02.148Z</time></trkpt><trkpt lat="39.8930511" lon="-2.1005188"><ele>1108.5</ele><time>2026-03-22T11:39:03.141Z</time></trkpt><trkpt lat="39.8929879" lon="-2.1006854"><ele>1108.0</ele><time>2026-03-22T11:39:04.159Z</time></trkpt><trkpt lat="39.8928971" lon="-2.1008628"><ele>1106.6666666666665</ele><time>2026-03-22T11:39:05.175Z</time></trkpt><trkpt lat="39.8928069" lon="-2.1010406"><ele>1105.3333333333333</ele><time>2026-03-22T11:39:06.141Z</time></trkpt><trkpt lat="39.8927375" lon="-2.1012281"><ele>1104.0</ele><time>2026-03-22T11:39:07.134Z</time></trkpt><trkpt lat="39.8926537" lon="-2.1014028"><ele>1103.0</ele><time>2026-03-22T11:39:08.148Z</time></trkpt><trkpt lat="39.8925796" lon="-2.1015801"><ele>1102.0</ele><time>2026-03-22T11:39:09.14Z</time></trkpt><trkpt lat="39.8925119" lon="-2.1017568"><ele>1101.0</ele><time>2026-03-22T11:39:10.146Z</time></trkpt><trkpt lat="39.8924538" lon="-2.1019313"><ele>1101.0</ele><time>2026-03-22T11:39:11.136Z</time></trkpt><trkpt lat="39.892401" lon="-2.1021267"><ele>1101.0</ele><time>2026-03-22T11:39:12.155Z</time></trkpt><trkpt lat="39.8923443" lon="-2.1022942"><ele>1101.0</ele><time>2026-03-22T11:39:13.151Z</time></trkpt><trkpt lat="39.8922891" lon="-2.1024611"><ele>1101.0</ele><time>2026-03-22T11:39:14.152Z</time></trkpt><trkpt lat="39.8922322" lon="-2.1026267"><ele>1101.0</ele><time>2026-03-22T11:39:15.14Z</time></trkpt><trkpt lat="39.8921767" lon="-2.1027866"><ele>1101.0</ele><time>2026-03-22T11:39:16.142Z</time></trkpt><trkpt lat="39.8921247" lon="-2.1029398"><ele>1101.0</ele><time>2026-03-22T11:39:17.143Z</time></trkpt><trkpt lat="39.8920751" lon="-2.10308"><ele>1101.0</ele><time>2026-03-22T11:39:18.168Z</time></trkpt><trkpt lat="39.8920238" lon="-2.1032255"><ele>1101.8</ele><time>2026-03-22T11:39:19.146Z</time></trkpt><trkpt lat="39.8919788" lon="-2.1033695"><ele>1102.6</ele><time>2026-03-22T11:39:20.144Z</time></trkpt><trkpt lat="39.8919377" lon="-2.1034977"><ele>1103.4</ele><time>2026-03-22T11:39:21.153Z</time></trkpt><trkpt lat="39.8918956" lon="-2.1036243"><ele>1104.2</ele><time>2026-03-22T11:39:22.157Z</time></trkpt><trkpt lat="39.8918513" lon="-2.103756"><ele>1105.0</ele><time>2026-03-22T11:39:23.139Z</time></trkpt><trkpt lat="39.8918233" lon="-2.1038961"><ele>1105.0</ele><time>2026-03-22T11:39:24.147Z</time></trkpt><trkpt lat="39.8917948" lon="-2.1040324"><ele>1105.0</ele><time>2026-03-22T11:39:25.143Z</time></trkpt><trkpt lat="39.8917887" lon="-2.1041852"><ele>1105.0</ele><time>2026-03-22T11:39:26.148Z</time></trkpt><trkpt lat="39.8917851" lon="-2.1043493"><ele>1105.0</ele><time>2026-03-22T11:39:27.15Z</time></trkpt><trkpt lat="39.8917864" lon="-2.1045303"><ele>1105.3333333333333</ele><time>2026-03-22T11:39:28.151Z</time></trkpt><trkpt lat="39.8917768" lon="-2.1047218"><ele>1105.6666666666667</ele><time>2026-03-22T11:39:29.139Z</time></trkpt><trkpt lat="39.8917673" lon="-2.1049274"><ele>1106.0</ele><time>2026-03-22T11:39:30.155Z</time></trkpt><trkpt lat="39.8917614" lon="-2.1051285"><ele>1106.0</ele><time>2026-03-22T11:39:31.139Z</time></trkpt><trkpt lat="39.8917499" lon="-2.1053278"><ele>1106.0</ele><time>2026-03-22T11:39:32.133Z</time></trkpt><trkpt lat="39.8917454" lon="-2.1055146"><ele>1106.0</ele><time>2026-03-22T11:39:33.163Z</time></trkpt><trkpt lat="39.8917424" lon="-2.1057016"><ele>1106.0</ele><time>2026-03-22T11:39:34.139Z</time></trkpt><trkpt lat="39.8917417" lon="-2.1058778"><ele>1105.25</ele><time>2026-03-22T11:39:35.129Z</time></trkpt><trkpt lat="39.8917293" lon="-2.1060563"><ele>1104.5</ele><time>2026-03-22T11:39:36.155Z</time></trkpt><trkpt lat="39.8917158" lon="-2.1062467"><ele>1103.75</ele><time>2026-03-22T11:39:37.144Z</time></trkpt><trkpt lat="39.891703" lon="-2.1064483"><ele>1103.0</ele><time>2026-03-22T11:39:38.13Z</time></trkpt><trkpt lat="39.8916888" lon="-2.1066535"><ele>1103.0</ele><time>2026-03-22T11:39:39.144Z</time></trkpt><trkpt lat="39.8916788" lon="-2.1068706"><ele>1103.0</ele><time>2026-03-22T11:39:40.145Z</time></trkpt><trkpt lat="39.8916712" lon="-2.1070878"><ele>1103.0</ele><time>2026-03-22T11:39:41.144Z</time></trkpt><trkpt lat="39.891667" lon="-2.1073091"><ele>1103.3333333333335</ele><time>2026-03-22T11:39:42.151Z</time></trkpt><trkpt lat="39.8916564" lon="-2.1075226"><ele>1103.6666666666667</ele><time>2026-03-22T11:39:43.144Z</time></trkpt><trkpt lat="39.8916452" lon="-2.1077315"><ele>1104.0</ele><time>2026-03-22T11:39:44.136Z</time></trkpt><trkpt lat="39.8916356" lon="-2.107931"><ele>1104.0</ele><time>2026-03-22T11:39:45.148Z</time></trkpt><trkpt lat="39.8916241" lon="-2.1081177"><ele>1104.0</ele><time>2026-03-22T11:39:46.139Z</time></trkpt><trkpt lat="39.8916129" lon="-2.1082835"><ele>1104.0</ele><time>2026-03-22T11:39:47.158Z</time></trkpt><trkpt lat="39.8916059" lon="-2.1084315"><ele>1104.0</ele><time>2026-03-22T11:39:48.155Z</time></trkpt><trkpt lat="39.8915884" lon="-2.1085611"><ele>1104.6000000000001</ele><time>2026-03-22T11:39:49.14Z</time></trkpt><trkpt lat="39.891575" lon="-2.1086858"><ele>1105.2</ele><time>2026-03-22T11:39:50.155Z</time></trkpt><trkpt lat="39.8915718" lon="-2.1088141"><ele>1105.8000000000002</ele><time>2026-03-22T11:39:51.147Z</time></trkpt><trkpt lat="39.8915753" lon="-2.1089581"><ele>1106.4</ele><time>2026-03-22T11:39:52.148Z</time></trkpt><trkpt lat="39.8915723" lon="-2.1091297"><ele>1107.0</ele><time>2026-03-22T11:39:53.154Z</time></trkpt><trkpt lat="39.8915668" lon="-2.1093172"><ele>1108.0</ele><time>2026-03-22T11:39:54.148Z</time></trkpt><trkpt lat="39.89155" lon="-2.1095078"><ele>1109.0</ele><time>2026-03-22T11:39:55.144Z</time></trkpt><trkpt lat="39.8915234" lon="-2.1096998"><ele>1110.0</ele><time>2026-03-22T11:39:56.149Z</time></trkpt><trkpt lat="39.8915054" lon="-2.1098882"><ele>1111.0</ele><time>2026-03-22T11:39:57.149Z</time></trkpt><trkpt lat="39.8914912" lon="-2.1100692"><ele>1111.25</ele><time>2026-03-22T11:39:58.135Z</time></trkpt><trkpt lat="39.8914874" lon="-2.1102446"><ele>1111.5</ele><time>2026-03-22T11:39:59.133Z</time></trkpt><trkpt lat="39.8914786" lon="-2.1104217"><ele>1111.75</ele><time>2026-03-22T11:40:00.17Z</time></trkpt><trkpt lat="39.8914643" lon="-2.1106056"><ele>1112.0</ele><time>2026-03-22T11:40:01.147Z</time></trkpt><trkpt lat="39.891456" lon="-2.1107948"><ele>1112.0</ele><time>2026-03-22T11:40:02.157Z</time></trkpt><trkpt lat="39.8914457" lon="-2.110986"><ele>1112.0</ele><time>2026-03-22T11:40:03.171Z</time></trkpt><trkpt lat="39.8914335" lon="-2.1111742"><ele>1112.0</ele><time>2026-03-22T11:40:04.136Z</time></trkpt><trkpt lat="39.8914201" lon="-2.1113665"><ele>1112.0</ele><time>2026-03-22T11:40:05.133Z</time></trkpt><trkpt lat="39.8914068" lon="-2.1115436"><ele>1111.25</ele><time>2026-03-22T11:40:06.153Z</time></trkpt><trkpt lat="39.8913999" lon="-2.1117048"><ele>1110.5</ele><time>2026-03-22T11:40:07.14Z</time></trkpt><trkpt lat="39.8913919" lon="-2.1118591"><ele>1109.75</ele><time>2026-03-22T11:40:08.143Z</time></trkpt><trkpt lat="39.8913747" lon="-2.1120108"><ele>1109.0</ele><time>2026-03-22T11:40:09.138Z</time></trkpt><trkpt lat="39.8913602" lon="-2.1121649"><ele>1109.0</ele><time>2026-03-22T11:40:10.136Z</time></trkpt><trkpt lat="39.8913487" lon="-2.1123253"><ele>1109.0</ele><time>2026-03-22T11:40:11.148Z</time></trkpt><trkpt lat="39.89134" lon="-2.1124856"><ele>1109.0</ele><time>2026-03-22T11:40:12.141Z</time></trkpt><trkpt lat="39.8913283" lon="-2.1126428"><ele>1109.0</ele><time>2026-03-22T11:40:13.154Z</time></trkpt><trkpt lat="39.891324" lon="-2.1128042"><ele>1109.5</ele><time>2026-03-22T11:40:14.135Z</time></trkpt><trkpt lat="39.8913127" lon="-2.1129675"><ele>1110.0</ele><time>2026-03-22T11:40:15.152Z</time></trkpt><trkpt lat="39.8913031" lon="-2.1131342"><ele>1110.5</ele><time>2026-03-22T11:40:16.141Z</time></trkpt><trkpt lat="39.891295" lon="-2.1133033"><ele>1111.0</ele><time>2026-03-22T11:40:17.134Z</time></trkpt><trkpt lat="39.8912839" lon="-2.1134808"><ele>1111.5</ele><time>2026-03-22T11:40:18.151Z</time></trkpt><trkpt lat="39.8912798" lon="-2.113667"><ele>1112.0</ele><time>2026-03-22T11:40:19.144Z</time></trkpt><trkpt lat="39.8912637" lon="-2.1138566"><ele>1112.5</ele><time>2026-03-22T11:40:20.141Z</time></trkpt><trkpt lat="39.8912561" lon="-2.1140605"><ele>1113.0</ele><time>2026-03-22T11:40:21.13Z</time></trkpt><trkpt lat="39.8912446" lon="-2.1142713"><ele>1113.0</ele><time>2026-03-22T11:40:22.152Z</time></trkpt><trkpt lat="39.8912268" lon="-2.1144768"><ele>1113.0</ele><time>2026-03-22T11:40:23.138Z</time></trkpt><trkpt lat="39.8912227" lon="-2.1146823"><ele>1113.0</ele><time>2026-03-22T11:40:24.172Z</time></trkpt><trkpt lat="39.8912147" lon="-2.1148781"><ele>1114.25</ele><time>2026-03-22T11:40:25.141Z</time></trkpt><trkpt lat="39.8912057" lon="-2.1150666"><ele>1115.5</ele><time>2026-03-22T11:40:26.143Z</time></trkpt><trkpt lat="39.891197" lon="-2.1152536"><ele>1116.75</ele><time>2026-03-22T11:40:27.152Z</time></trkpt><trkpt lat="39.891187" lon="-2.1154386"><ele>1118.0</ele><time>2026-03-22T11:40:28.131Z</time></trkpt><trkpt lat="39.8911748" lon="-2.1156283"><ele>1119.0</ele><time>2026-03-22T11:40:29.123Z</time></trkpt><trkpt lat="39.8911635" lon="-2.1158163"><ele>1120.0</ele><time>2026-03-22T11:40:30.134Z</time></trkpt><trkpt lat="39.8911427" lon="-2.1160006"><ele>1121.0</ele><time>2026-03-22T11:40:31.131Z</time></trkpt><trkpt lat="39.8911254" lon="-2.1161854"><ele>1122.0</ele><time>2026-03-22T11:40:32.125Z</time></trkpt><trkpt lat="39.8911101" lon="-2.1163698"><ele>1122.0</ele><time>2026-03-22T11:40:33.147Z</time></trkpt><trkpt lat="39.8910947" lon="-2.1165479"><ele>1122.0</ele><time>2026-03-22T11:40:34.147Z</time></trkpt><trkpt lat="39.891079" lon="-2.1167226"><ele>1122.0</ele><time>2026-03-22T11:40:35.158Z</time></trkpt><trkpt lat="39.8910685" lon="-2.1168925"><ele>1122.0</ele><time>2026-03-22T11:40:36.136Z</time></trkpt><trkpt lat="39.8910595" lon="-2.1170617"><ele>1121.75</ele><time>2026-03-22T11:40:37.14Z</time></trkpt><trkpt lat="39.8910436" lon="-2.1172365"><ele>1121.5</ele><time>2026-03-22T11:40:38.151Z</time></trkpt><trkpt lat="39.8910314" lon="-2.1174241"><ele>1121.25</ele><time>2026-03-22T11:40:39.131Z</time></trkpt><trkpt lat="39.8910215" lon="-2.1176108"><ele>1121.0</ele><time>2026-03-22T11:40:40.135Z</time></trkpt><trkpt lat="39.8910104" lon="-2.11779"><ele>1120.0</ele><time>2026-03-22T11:40:41.129Z</time></trkpt><trkpt lat="39.8910002" lon="-2.1179568"><ele>1119.0</ele><time>2026-03-22T11:40:42.141Z</time></trkpt><trkpt lat="39.8909993" lon="-2.1181195"><ele>1118.0</ele><time>2026-03-22T11:40:43.157Z</time></trkpt><trkpt lat="39.890993" lon="-2.1182779"><ele>1117.0</ele><time>2026-03-22T11:40:44.151Z</time></trkpt><trkpt lat="39.8909744" lon="-2.118437"><ele>1116.25</ele><time>2026-03-22T11:40:45.144Z</time></trkpt><trkpt lat="39.8909649" lon="-2.1185999"><ele>1115.5</ele><time>2026-03-22T11:40:46.144Z</time></trkpt><trkpt lat="39.8909608" lon="-2.1187635"><ele>1114.75</ele><time>2026-03-22T11:40:47.171Z</time></trkpt><trkpt lat="39.8909498" lon="-2.1189159"><ele>1114.0</ele><time>2026-03-22T11:40:48.141Z</time></trkpt><trkpt lat="39.8909493" lon="-2.1190657"><ele>1113.75</ele><time>2026-03-22T11:40:49.179Z</time></trkpt><trkpt lat="39.8909454" lon="-2.1192129"><ele>1113.5</ele><time>2026-03-22T11:40:50.146Z</time></trkpt><trkpt lat="39.8909728" lon="-2.1193652"><ele>1113.25</ele><time>2026-03-22T11:40:51.149Z</time></trkpt><trkpt lat="39.8910077" lon="-2.1195201"><ele>1113.0</ele><time>2026-03-22T11:40:52.16Z</time></trkpt><trkpt lat="39.8910398" lon="-2.1196764"><ele>1113.0</ele><time>2026-03-22T11:40:53.166Z</time></trkpt><trkpt lat="39.8910778" lon="-2.1198285"><ele>1113.0</ele><time>2026-03-22T11:40:54.147Z</time></trkpt><trkpt lat="39.8911229" lon="-2.1199661"><ele>1113.0</ele><time>2026-03-22T11:40:55.166Z</time></trkpt><trkpt lat="39.8911588" lon="-2.120081"><ele>1113.0</ele><time>2026-03-22T11:40:56.183Z</time></trkpt><trkpt lat="39.8911855" lon="-2.1201832"><ele>1113.0</ele><time>2026-03-22T11:40:57.162Z</time></trkpt><trkpt lat="39.8912089" lon="-2.1202776"><ele>1112.3333333333333</ele><time>2026-03-22T11:40:58.156Z</time></trkpt><trkpt lat="39.8912246" lon="-2.1203622"><ele>1111.6666666666667</ele><time>2026-03-22T11:40:59.188Z</time></trkpt><trkpt lat="39.89121" lon="-2.1205041"><ele>1111.0</ele><time>2026-03-22T11:41:01.172Z</time></trkpt><trkpt lat="39.8911564" lon="-2.1206267"><ele>1110.3333333333335</ele><time>2026-03-22T11:41:03.14Z</time></trkpt><trkpt lat="39.8910901" lon="-2.1206564"><ele>1109.6666666666667</ele><time>2026-03-22T11:41:04.147Z</time></trkpt><trkpt lat="39.8910035" lon="-2.1206622"><ele>1109.0</ele><time>2026-03-22T11:41:05.154Z</time></trkpt><trkpt lat="39.8909065" lon="-2.1206636"><ele>1109.0</ele><time>2026-03-22T11:41:06.14Z</time></trkpt><trkpt lat="39.8908016" lon="-2.1206613"><ele>1109.0</ele><time>2026-03-22T11:41:07.14Z</time></trkpt><trkpt lat="39.8906776" lon="-2.1206634"><ele>1109.0</ele><time>2026-03-22T11:41:08.141Z</time></trkpt><trkpt lat="39.8905347" lon="-2.1206726"><ele>1109.0</ele><time>2026-03-22T11:41:09.147Z</time></trkpt><trkpt lat="39.8903795" lon="-2.120683"><ele>1109.0</ele><time>2026-03-22T11:41:10.168Z</time></trkpt><trkpt lat="39.8902216" lon="-2.1207"><ele>1109.0</ele><time>2026-03-22T11:41:11.146Z</time></trkpt><trkpt lat="39.8900583" lon="-2.1207239"><ele>1109.0</ele><time>2026-03-22T11:41:12.137Z</time></trkpt><trkpt lat="39.8898868" lon="-2.1207569"><ele>1110.0</ele><time>2026-03-22T11:41:13.152Z</time></trkpt><trkpt lat="39.8897106" lon="-2.1207834"><ele>1111.0</ele><time>2026-03-22T11:41:14.14Z</time></trkpt><trkpt lat="39.8895343" lon="-2.1208095"><ele>1112.0</ele><time>2026-03-22T11:41:15.139Z</time></trkpt><trkpt lat="39.8893641" lon="-2.1208454"><ele>1111.6666666666667</ele><time>2026-03-22T11:41:16.143Z</time></trkpt><trkpt lat="39.8891905" lon="-2.120905"><ele>1111.3333333333333</ele><time>2026-03-22T11:41:17.142Z</time></trkpt><trkpt lat="39.8890092" lon="-2.120986"><ele>1111.0</ele><time>2026-03-22T11:41:18.158Z</time></trkpt><trkpt lat="39.8888317" lon="-2.1210761"><ele>1111.0</ele><time>2026-03-22T11:41:19.128Z</time></trkpt><trkpt lat="39.8886595" lon="-2.121175"><ele>1111.0</ele><time>2026-03-22T11:41:20.146Z</time></trkpt><trkpt lat="39.8884863" lon="-2.1212746"><ele>1111.0</ele><time>2026-03-22T11:41:21.143Z</time></trkpt><trkpt lat="39.8883101" lon="-2.1213756"><ele>1111.0</ele><time>2026-03-22T11:41:22.154Z</time></trkpt><trkpt lat="39.8881381" lon="-2.1214803"><ele>1111.0</ele><time>2026-03-22T11:41:23.122Z</time></trkpt><trkpt lat="39.8879553" lon="-2.1215787"><ele>1111.0</ele><time>2026-03-22T11:41:24.156Z</time></trkpt><trkpt lat="39.8877662" lon="-2.1216781"><ele>1110.0</ele><time>2026-03-22T11:41:25.157Z</time></trkpt><trkpt lat="39.8875803" lon="-2.121788"><ele>1109.0</ele><time>2026-03-22T11:41:26.133Z</time></trkpt><trkpt lat="39.8874077" lon="-2.1219529"><ele>1108.0</ele><time>2026-03-22T11:41:27.156Z</time></trkpt><trkpt lat="39.8872227" lon="-2.1220897"><ele>1108.0</ele><time>2026-03-22T11:41:28.143Z</time></trkpt><trkpt lat="39.8870329" lon="-2.1222165"><ele>1108.0</ele><time>2026-03-22T11:41:29.14Z</time></trkpt><trkpt lat="39.8868361" lon="-2.1223419"><ele>1108.0</ele><time>2026-03-22T11:41:30.134Z</time></trkpt><trkpt lat="39.8866362" lon="-2.1224696"><ele>1108.3333333333333</ele><time>2026-03-22T11:41:31.214Z</time></trkpt><trkpt lat="39.8864359" lon="-2.1225967"><ele>1108.6666666666667</ele><time>2026-03-22T11:41:32.153Z</time></trkpt><trkpt lat="39.8862375" lon="-2.1227214"><ele>1109.0</ele><time>2026-03-22T11:41:33.144Z</time></trkpt><trkpt lat="39.886036" lon="-2.1228283"><ele>1109.0</ele><time>2026-03-22T11:41:34.137Z</time></trkpt><trkpt lat="39.8858382" lon="-2.1229317"><ele>1109.0</ele><time>2026-03-22T11:41:35.146Z</time></trkpt><trkpt lat="39.8856479" lon="-2.1230341"><ele>1109.0</ele><time>2026-03-22T11:41:36.143Z</time></trkpt><trkpt lat="39.8854791" lon="-2.1231754"><ele>1109.0</ele><time>2026-03-22T11:41:37.138Z</time></trkpt><trkpt lat="39.885312" lon="-2.1233099"><ele>1109.0</ele><time>2026-03-22T11:41:38.132Z</time></trkpt><trkpt lat="39.8851391" lon="-2.1234329"><ele>1109.0</ele><time>2026-03-22T11:41:39.144Z</time></trkpt><trkpt lat="39.8849662" lon="-2.123571"><ele>1109.0</ele><time>2026-03-22T11:41:40.146Z</time></trkpt><trkpt lat="39.884808" lon="-2.1237474"><ele>1109.0</ele><time>2026-03-22T11:41:41.16Z</time></trkpt><trkpt lat="39.884645" lon="-2.1239154"><ele>1109.0</ele><time>2026-03-22T11:41:42.137Z</time></trkpt><trkpt lat="39.8844816" lon="-2.1240823"><ele>1109.0</ele><time>2026-03-22T11:41:43.129Z</time></trkpt><trkpt lat="39.884319" lon="-2.124247"><ele>1109.0</ele><time>2026-03-22T11:41:44.149Z</time></trkpt><trkpt lat="39.88416" lon="-2.1244149"><ele>1109.0</ele><time>2026-03-22T11:41:45.16Z</time></trkpt><trkpt lat="39.8840039" lon="-2.1245843"><ele>1108.3333333333335</ele><time>2026-03-22T11:41:46.17Z</time></trkpt><trkpt lat="39.8838485" lon="-2.1247511"><ele>1107.6666666666667</ele><time>2026-03-22T11:41:47.139Z</time></trkpt><trkpt lat="39.8836924" lon="-2.1249205"><ele>1107.0</ele><time>2026-03-22T11:41:48.135Z</time></trkpt><trkpt lat="39.8835345" lon="-2.1250904"><ele>1105.3333333333333</ele><time>2026-03-22T11:41:49.151Z</time></trkpt><trkpt lat="39.8833746" lon="-2.1252585"><ele>1103.6666666666665</ele><time>2026-03-22T11:41:50.163Z</time></trkpt><trkpt lat="39.8832127" lon="-2.1254288"><ele>1102.0</ele><time>2026-03-22T11:41:51.144Z</time></trkpt><trkpt lat="39.8830495" lon="-2.1255999"><ele>1102.3333333333333</ele><time>2026-03-22T11:41:52.133Z</time></trkpt><trkpt lat="39.8828897" lon="-2.125774"><ele>1102.6666666666667</ele><time>2026-03-22T11:41:53.148Z</time></trkpt><trkpt lat="39.8827282" lon="-2.1259445"><ele>1103.0</ele><time>2026-03-22T11:41:54.134Z</time></trkpt><trkpt lat="39.882567" lon="-2.126115"><ele>1103.0</ele><time>2026-03-22T11:41:55.144Z</time></trkpt><trkpt lat="39.8824052" lon="-2.126284"><ele>1103.0</ele><time>2026-03-22T11:41:56.139Z</time></trkpt><trkpt lat="39.882241" lon="-2.1264486"><ele>1103.0</ele><time>2026-03-22T11:41:57.141Z</time></trkpt><trkpt lat="39.8820753" lon="-2.1266151"><ele>1103.0</ele><time>2026-03-22T11:41:58.141Z</time></trkpt><trkpt lat="39.8819066" lon="-2.1267819"><ele>1103.0</ele><time>2026-03-22T11:41:59.156Z</time></trkpt><trkpt lat="39.88174" lon="-2.1269517"><ele>1103.0</ele><time>2026-03-22T11:42:00.15Z</time></trkpt><trkpt lat="39.8815756" lon="-2.1271231"><ele>1102.0</ele><time>2026-03-22T11:42:01.142Z</time></trkpt><trkpt lat="39.8814099" lon="-2.1272984"><ele>1101.0</ele><time>2026-03-22T11:42:02.149Z</time></trkpt><trkpt lat="39.8812448" lon="-2.1274678"><ele>1100.0</ele><time>2026-03-22T11:42:03.138Z</time></trkpt><trkpt lat="39.8810802" lon="-2.1276328"><ele>1099.3333333333335</ele><time>2026-03-22T11:42:04.129Z</time></trkpt><trkpt lat="39.8809109" lon="-2.1277842"><ele>1098.6666666666667</ele><time>2026-03-22T11:42:05.14Z</time></trkpt><trkpt lat="39.8807444" lon="-2.1279377"><ele>1098.0</ele><time>2026-03-22T11:42:06.137Z</time></trkpt><trkpt lat="39.8805852" lon="-2.1280971"><ele>1099.0</ele><time>2026-03-22T11:42:07.151Z</time></trkpt><trkpt lat="39.8804302" lon="-2.1282561"><ele>1100.0</ele><time>2026-03-22T11:42:08.141Z</time></trkpt><trkpt lat="39.8802784" lon="-2.1284132"><ele>1101.0</ele><time>2026-03-22T11:42:09.141Z</time></trkpt><trkpt lat="39.8801288" lon="-2.1285689"><ele>1100.6666666666667</ele><time>2026-03-22T11:42:10.135Z</time></trkpt><trkpt lat="39.8799813" lon="-2.128728"><ele>1100.3333333333335</ele><time>2026-03-22T11:42:11.143Z</time></trkpt><trkpt lat="39.879832" lon="-2.1288848"><ele>1100.0</ele><time>2026-03-22T11:42:12.144Z</time></trkpt><trkpt lat="39.8796826" lon="-2.1290437"><ele>1100.3333333333335</ele><time>2026-03-22T11:42:13.131Z</time></trkpt><trkpt lat="39.8795284" lon="-2.1292007"><ele>1100.6666666666667</ele><time>2026-03-22T11:42:14.15Z</time></trkpt><trkpt lat="39.8793762" lon="-2.1293595"><ele>1101.0</ele><time>2026-03-22T11:42:15.129Z</time></trkpt><trkpt lat="39.879222" lon="-2.1295157"><ele>1100.6666666666667</ele><time>2026-03-22T11:42:16.138Z</time></trkpt><trkpt lat="39.8790684" lon="-2.129675"><ele>1100.3333333333335</ele><time>2026-03-22T11:42:17.16Z</time></trkpt><trkpt lat="39.8789122" lon="-2.1298312"><ele>1100.0</ele><time>2026-03-22T11:42:18.149Z</time></trkpt><trkpt lat="39.8787579" lon="-2.1299893"><ele>1100.0</ele><time>2026-03-22T11:42:19.14Z</time></trkpt><trkpt lat="39.8786077" lon="-2.1301518"><ele>1100.0</ele><time>2026-03-22T11:42:20.138Z</time></trkpt><trkpt lat="39.8784576" lon="-2.130314"><ele>1100.0</ele><time>2026-03-22T11:42:21.138Z</time></trkpt><trkpt lat="39.8783072" lon="-2.1304726"><ele>1100.0</ele><time>2026-03-22T11:42:22.157Z</time></trkpt><trkpt lat="39.8781575" lon="-2.1306275"><ele>1100.0</ele><time>2026-03-22T11:42:23.132Z</time></trkpt><trkpt lat="39.8780097" lon="-2.1307795"><ele>1100.0</ele><time>2026-03-22T11:42:24.162Z</time></trkpt><trkpt lat="39.8778648" lon="-2.1309298"><ele>1100.0</ele><time>2026-03-22T11:42:25.145Z</time></trkpt><trkpt lat="39.8777207" lon="-2.1310749"><ele>1100.0</ele><time>2026-03-22T11:42:26.14Z</time></trkpt><trkpt lat="39.8775778" lon="-2.1312179"><ele>1100.0</ele><time>2026-03-22T11:42:27.175Z</time></trkpt><trkpt lat="39.8774345" lon="-2.1313562"><ele>1099.0</ele><time>2026-03-22T11:42:28.165Z</time></trkpt><trkpt lat="39.8772999" lon="-2.1315041"><ele>1098.0</ele><time>2026-03-22T11:42:29.141Z</time></trkpt><trkpt lat="39.8771662" lon="-2.1316516"><ele>1097.0</ele><time>2026-03-22T11:42:30.148Z</time></trkpt><trkpt lat="39.877031" lon="-2.1317973"><ele>1097.0</ele><time>2026-03-22T11:42:31.163Z</time></trkpt><trkpt lat="39.8768921" lon="-2.1319414"><ele>1097.0</ele><time>2026-03-22T11:42:32.162Z</time></trkpt><trkpt lat="39.8767512" lon="-2.1320867"><ele>1097.0</ele><time>2026-03-22T11:42:33.136Z</time></trkpt><trkpt lat="39.876611" lon="-2.13223"><ele>1096.6666666666667</ele><time>2026-03-22T11:42:34.154Z</time></trkpt><trkpt lat="39.8764751" lon="-2.1323726"><ele>1096.3333333333333</ele><time>2026-03-22T11:42:35.162Z</time></trkpt><trkpt lat="39.8763416" lon="-2.1325066"><ele>1096.0</ele><time>2026-03-22T11:42:36.134Z</time></trkpt><trkpt lat="39.8762114" lon="-2.1326339"><ele>1096.0</ele><time>2026-03-22T11:42:37.138Z</time></trkpt><trkpt lat="39.8760885" lon="-2.1327576"><ele>1096.0</ele><time>2026-03-22T11:42:38.146Z</time></trkpt><trkpt lat="39.875974" lon="-2.1328722"><ele>1096.0</ele><time>2026-03-22T11:42:39.142Z</time></trkpt><trkpt lat="39.8758655" lon="-2.1329745"><ele>1096.0</ele><time>2026-03-22T11:42:40.152Z</time></trkpt><trkpt lat="39.8757646" lon="-2.1330816"><ele>1096.0</ele><time>2026-03-22T11:42:41.14Z</time></trkpt><trkpt lat="39.8756662" lon="-2.1331805"><ele>1096.0</ele><time>2026-03-22T11:42:42.149Z</time></trkpt><trkpt lat="39.8755736" lon="-2.1332736"><ele>1096.0</ele><time>2026-03-22T11:42:43.167Z</time></trkpt><trkpt lat="39.8754903" lon="-2.1333589"><ele>1096.0</ele><time>2026-03-22T11:42:44.155Z</time></trkpt><trkpt lat="39.8754256" lon="-2.1334317"><ele>1096.0</ele><time>2026-03-22T11:42:45.149Z</time></trkpt><trkpt lat="39.8753545" lon="-2.1335594"><ele>1095.3333333333333</ele><time>2026-03-22T11:42:47.131Z</time></trkpt><trkpt lat="39.8753363" lon="-2.1336385"><ele>1094.6666666666665</ele><time>2026-03-22T11:42:48.142Z</time></trkpt><trkpt lat="39.8753415" lon="-2.1337353"><ele>1094.0</ele><time>2026-03-22T11:42:49.151Z</time></trkpt><trkpt lat="39.8753491" lon="-2.1338433"><ele>1093.3333333333333</ele><time>2026-03-22T11:42:50.13Z</time></trkpt><trkpt lat="39.8753475" lon="-2.1339465"><ele>1092.6666666666667</ele><time>2026-03-22T11:42:51.132Z</time></trkpt><trkpt lat="39.8753488" lon="-2.1340328"><ele>1092.0</ele><time>2026-03-22T11:42:52.133Z</time></trkpt><trkpt lat="39.8753693" lon="-2.1341727"><ele>1091.4</ele><time>2026-03-22T11:42:54.152Z</time></trkpt><trkpt lat="39.8754615" lon="-2.1343012"><ele>1090.8000000000002</ele><time>2026-03-22T11:42:56.169Z</time></trkpt><trkpt lat="39.8755222" lon="-2.13438"><ele>1090.2</ele><time>2026-03-22T11:42:57.158Z</time></trkpt><trkpt lat="39.8755698" lon="-2.1344639"><ele>1089.6000000000001</ele><time>2026-03-22T11:42:58.149Z</time></trkpt><trkpt lat="39.8756225" lon="-2.1345459"><ele>1089.0</ele><time>2026-03-22T11:42:59.156Z</time></trkpt><trkpt lat="39.8756755" lon="-2.1346521"><ele>1089.0</ele><time>2026-03-22T11:43:00.154Z</time></trkpt><trkpt lat="39.8757326" lon="-2.1347571"><ele>1089.0</ele><time>2026-03-22T11:43:01.182Z</time></trkpt><trkpt lat="39.8757867" lon="-2.1348694"><ele>1089.0</ele><time>2026-03-22T11:43:02.167Z</time></trkpt><trkpt lat="39.8758544" lon="-2.1349766"><ele>1089.0</ele><time>2026-03-22T11:43:03.179Z</time></trkpt><trkpt lat="39.8759435" lon="-2.1350822"><ele>1089.0</ele><time>2026-03-22T11:43:04.138Z</time></trkpt><trkpt lat="39.8760299" lon="-2.1351808"><ele>1088.0</ele><time>2026-03-22T11:43:05.134Z</time></trkpt><trkpt lat="39.8761103" lon="-2.1352777"><ele>1087.0</ele><time>2026-03-22T11:43:06.168Z</time></trkpt><trkpt lat="39.8761835" lon="-2.1353746"><ele>1086.0</ele><time>2026-03-22T11:43:07.152Z</time></trkpt><trkpt lat="39.8762523" lon="-2.1354631"><ele>1085.0</ele><time>2026-03-22T11:43:08.161Z</time></trkpt><trkpt lat="39.8763156" lon="-2.1355291"><ele>1084.0</ele><time>2026-03-22T11:43:09.196Z</time></trkpt><trkpt lat="39.876379" lon="-2.1355889"><ele>1084.0</ele><time>2026-03-22T11:43:10.17Z</time></trkpt><trkpt lat="39.8764376" lon="-2.1356579"><ele>1084.0</ele><time>2026-03-22T11:43:11.178Z</time></trkpt><trkpt lat="39.8764913" lon="-2.1357056"><ele>1084.0</ele><time>2026-03-22T11:43:12.144Z</time></trkpt><trkpt lat="39.8765911" lon="-2.1358166"><ele>1084.0</ele><time>2026-03-22T11:43:14.155Z</time></trkpt><trkpt lat="39.876648" lon="-2.1359002"><ele>1084.0</ele><time>2026-03-22T11:43:15.167Z</time></trkpt><trkpt lat="39.8767116" lon="-2.135995"><ele>1083.6000000000001</ele><time>2026-03-22T11:43:16.175Z</time></trkpt><trkpt lat="39.8767863" lon="-2.1360926"><ele>1083.2</ele><time>2026-03-22T11:43:17.159Z</time></trkpt><trkpt lat="39.8768495" lon="-2.1362049"><ele>1082.8000000000002</ele><time>2026-03-22T11:43:18.144Z</time></trkpt><trkpt lat="39.8769052" lon="-2.1363093"><ele>1082.4</ele><time>2026-03-22T11:43:19.144Z</time></trkpt><trkpt lat="39.876956" lon="-2.1364085"><ele>1082.0</ele><time>2026-03-22T11:43:20.153Z</time></trkpt><trkpt lat="39.8770012" lon="-2.1364969"><ele>1081.5</ele><time>2026-03-22T11:43:21.138Z</time></trkpt><trkpt lat="39.8770417" lon="-2.1365757"><ele>1081.0</ele><time>2026-03-22T11:43:22.136Z</time></trkpt><trkpt lat="39.8770843" lon="-2.1366618"><ele>1080.5</ele><time>2026-03-22T11:43:23.136Z</time></trkpt><trkpt lat="39.8771189" lon="-2.1367463"><ele>1080.0</ele><time>2026-03-22T11:43:24.141Z</time></trkpt><trkpt lat="39.8771401" lon="-2.1368324"><ele>1079.5</ele><time>2026-03-22T11:43:25.151Z</time></trkpt><trkpt lat="39.8771786" lon="-2.1369818"><ele>1079.0</ele><time>2026-03-22T11:43:27.139Z</time></trkpt><trkpt lat="39.8771929" lon="-2.1370637"><ele>1079.0</ele><time>2026-03-22T11:43:28.153Z</time></trkpt><trkpt lat="39.8772002" lon="-2.1371589"><ele>1079.0</ele><time>2026-03-22T11:43:29.13Z</time></trkpt><trkpt lat="39.8771957" lon="-2.1372655"><ele>1079.0</ele><time>2026-03-22T11:43:30.149Z</time></trkpt><trkpt lat="39.8771724" lon="-2.1373959"><ele>1079.0</ele><time>2026-03-22T11:43:31.15Z</time></trkpt><trkpt lat="39.8771359" lon="-2.1375383"><ele>1079.0</ele><time>2026-03-22T11:43:32.135Z</time></trkpt><trkpt lat="39.8770899" lon="-2.1376673"><ele>1079.2</ele><time>2026-03-22T11:43:33.134Z</time></trkpt><trkpt lat="39.8770499" lon="-2.1377794"><ele>1079.4</ele><time>2026-03-22T11:43:34.148Z</time></trkpt><trkpt lat="39.8770157" lon="-2.1378869"><ele>1079.6</ele><time>2026-03-22T11:43:35.132Z</time></trkpt><trkpt lat="39.8769733" lon="-2.1379904"><ele>1079.8</ele><time>2026-03-22T11:43:36.15Z</time></trkpt><trkpt lat="39.8769232" lon="-2.1381154"><ele>1080.0</ele><time>2026-03-22T11:43:37.136Z</time></trkpt><trkpt lat="39.8768628" lon="-2.1382463"><ele>1080.5</ele><time>2026-03-22T11:43:38.145Z</time></trkpt><trkpt lat="39.8767921" lon="-2.1383732"><ele>1081.0</ele><time>2026-03-22T11:43:39.141Z</time></trkpt><trkpt lat="39.8767197" lon="-2.13849"><ele>1081.5</ele><time>2026-03-22T11:43:40.139Z</time></trkpt><trkpt lat="39.8766506" lon="-2.138597"><ele>1082.0</ele><time>2026-03-22T11:43:41.143Z</time></trkpt><trkpt lat="39.87658" lon="-2.1387136"><ele>1082.2</ele><time>2026-03-22T11:43:42.155Z</time></trkpt><trkpt lat="39.876508" lon="-2.1388144"><ele>1082.4</ele><time>2026-03-22T11:43:43.138Z</time></trkpt><trkpt lat="39.8764393" lon="-2.1389262"><ele>1082.6</ele><time>2026-03-22T11:43:44.129Z</time></trkpt><trkpt lat="39.8763737" lon="-2.1390299"><ele>1082.8</ele><time>2026-03-22T11:43:45.14Z</time></trkpt><trkpt lat="39.8763155" lon="-2.1391252"><ele>1083.0</ele><time>2026-03-22T11:43:46.154Z</time></trkpt><trkpt lat="39.8762622" lon="-2.1392353"><ele>1083.25</ele><time>2026-03-22T11:43:47.15Z</time></trkpt><trkpt lat="39.8761946" lon="-2.1393599"><ele>1083.5</ele><time>2026-03-22T11:43:48.15Z</time></trkpt><trkpt lat="39.8761234" lon="-2.1394992"><ele>1083.75</ele><time>2026-03-22T11:43:49.148Z</time></trkpt><trkpt lat="39.8760425" lon="-2.13965"><ele>1084.0</ele><time>2026-03-22T11:43:50.149Z</time></trkpt><trkpt lat="39.8759513" lon="-2.1398028"><ele>1084.5</ele><time>2026-03-22T11:43:51.14Z</time></trkpt><trkpt lat="39.8758665" lon="-2.139939"><ele>1085.0</ele><time>2026-03-22T11:43:52.15Z</time></trkpt><trkpt lat="39.8757824" lon="-2.1400575"><ele>1085.5</ele><time>2026-03-22T11:43:53.145Z</time></trkpt><trkpt lat="39.8757063" lon="-2.1401643"><ele>1086.0</ele><time>2026-03-22T11:43:54.145Z</time></trkpt><trkpt lat="39.8756384" lon="-2.1402642"><ele>1086.0</ele><time>2026-03-22T11:43:55.162Z</time></trkpt><trkpt lat="39.8755832" lon="-2.1403644"><ele>1086.0</ele><time>2026-03-22T11:43:56.137Z</time></trkpt><trkpt lat="39.8755462" lon="-2.1404676"><ele>1086.0</ele><time>2026-03-22T11:43:57.16Z</time></trkpt><trkpt lat="39.8755476" lon="-2.1405767"><ele>1086.0</ele><time>2026-03-22T11:43:58.14Z</time></trkpt><trkpt lat="39.8755658" lon="-2.1406934"><ele>1086.0</ele><time>2026-03-22T11:43:59.139Z</time></trkpt><trkpt lat="39.8756091" lon="-2.140823"><ele>1086.6</ele><time>2026-03-22T11:44:00.144Z</time></trkpt><trkpt lat="39.8756659" lon="-2.1409483"><ele>1087.1999999999998</ele><time>2026-03-22T11:44:01.141Z</time></trkpt><trkpt lat="39.8757222" lon="-2.1410672"><ele>1087.8000000000002</ele><time>2026-03-22T11:44:02.146Z</time></trkpt><trkpt lat="39.8757881" lon="-2.1411619"><ele>1088.4</ele><time>2026-03-22T11:44:03.133Z</time></trkpt><trkpt lat="39.8758572" lon="-2.1412443"><ele>1089.0</ele><time>2026-03-22T11:44:04.14Z</time></trkpt><trkpt lat="39.8759372" lon="-2.1413236"><ele>1089.0</ele><time>2026-03-22T11:44:05.138Z</time></trkpt><trkpt lat="39.8760255" lon="-2.1413957"><ele>1089.0</ele><time>2026-03-22T11:44:06.152Z</time></trkpt><trkpt lat="39.8761176" lon="-2.1414582"><ele>1089.0</ele><time>2026-03-22T11:44:07.156Z</time></trkpt><trkpt lat="39.8762147" lon="-2.1415287"><ele>1089.0</ele><time>2026-03-22T11:44:08.144Z</time></trkpt><trkpt lat="39.8762929" lon="-2.1416319"><ele>1089.0</ele><time>2026-03-22T11:44:09.137Z</time></trkpt><trkpt lat="39.8763589" lon="-2.1417395"><ele>1090.0</ele><time>2026-03-22T11:44:10.117Z</time></trkpt><trkpt lat="39.8764174" lon="-2.1418597"><ele>1091.0</ele><time>2026-03-22T11:44:11.135Z</time></trkpt><trkpt lat="39.8764732" lon="-2.1419882"><ele>1092.0</ele><time>2026-03-22T11:44:12.149Z</time></trkpt><trkpt lat="39.8765502" lon="-2.1420897"><ele>1093.0</ele><time>2026-03-22T11:44:13.147Z</time></trkpt><trkpt lat="39.8766337" lon="-2.142177"><ele>1094.0</ele><time>2026-03-22T11:44:14.147Z</time></trkpt><trkpt lat="39.8767362" lon="-2.1422402"><ele>1094.4</ele><time>2026-03-22T11:44:15.145Z</time></trkpt><trkpt lat="39.8768434" lon="-2.1423135"><ele>1094.8000000000002</ele><time>2026-03-22T11:44:16.149Z</time></trkpt><trkpt lat="39.8769434" lon="-2.1423828"><ele>1095.1999999999998</ele><time>2026-03-22T11:44:17.156Z</time></trkpt><trkpt lat="39.8770338" lon="-2.142454"><ele>1095.6</ele><time>2026-03-22T11:44:18.137Z</time></trkpt><trkpt lat="39.8771153" lon="-2.1425337"><ele>1096.0</ele><time>2026-03-22T11:44:19.152Z</time></trkpt><trkpt lat="39.8771918" lon="-2.1425989"><ele>1096.0</ele><time>2026-03-22T11:44:20.136Z</time></trkpt><trkpt lat="39.8772589" lon="-2.1427017"><ele>1096.0</ele><time>2026-03-22T11:44:21.136Z</time></trkpt><trkpt lat="39.8773169" lon="-2.1428325"><ele>1096.0</ele><time>2026-03-22T11:44:22.157Z</time></trkpt><trkpt lat="39.8773673" lon="-2.1429854"><ele>1096.0</ele><time>2026-03-22T11:44:23.134Z</time></trkpt><trkpt lat="39.8774143" lon="-2.1431413"><ele>1096.75</ele><time>2026-03-22T11:44:24.154Z</time></trkpt><trkpt lat="39.8774669" lon="-2.1432914"><ele>1097.5</ele><time>2026-03-22T11:44:25.135Z</time></trkpt><trkpt lat="39.877527" lon="-2.1434286"><ele>1098.25</ele><time>2026-03-22T11:44:26.147Z</time></trkpt><trkpt lat="39.8775799" lon="-2.1435548"><ele>1099.0</ele><time>2026-03-22T11:44:27.139Z</time></trkpt><trkpt lat="39.8776265" lon="-2.143679"><ele>1099.0</ele><time>2026-03-22T11:44:28.152Z</time></trkpt><trkpt lat="39.8776637" lon="-2.1438172"><ele>1099.0</ele><time>2026-03-22T11:44:29.137Z</time></trkpt><trkpt lat="39.8776854" lon="-2.1439771"><ele>1099.0</ele><time>2026-03-22T11:44:30.138Z</time></trkpt><trkpt lat="39.8777066" lon="-2.1441413"><ele>1099.0</ele><time>2026-03-22T11:44:31.137Z</time></trkpt><trkpt lat="39.8777292" lon="-2.1443037"><ele>1099.25</ele><time>2026-03-22T11:44:32.15Z</time></trkpt><trkpt lat="39.8777451" lon="-2.1444824"><ele>1099.5</ele><time>2026-03-22T11:44:33.148Z</time></trkpt><trkpt lat="39.8777778" lon="-2.1446348"><ele>1099.75</ele><time>2026-03-22T11:44:34.129Z</time></trkpt><trkpt lat="39.8778073" lon="-2.1447896"><ele>1100.0</ele><time>2026-03-22T11:44:35.145Z</time></trkpt><trkpt lat="39.8778193" lon="-2.1449325"><ele>1100.0</ele><time>2026-03-22T11:44:36.138Z</time></trkpt><trkpt lat="39.877814" lon="-2.1450648"><ele>1100.0</ele><time>2026-03-22T11:44:37.152Z</time></trkpt><trkpt lat="39.8777876" lon="-2.1451946"><ele>1100.0</ele><time>2026-03-22T11:44:38.155Z</time></trkpt><trkpt lat="39.8777398" lon="-2.1453283"><ele>1100.0</ele><time>2026-03-22T11:44:39.135Z</time></trkpt><trkpt lat="39.8776828" lon="-2.1454568"><ele>1100.0</ele><time>2026-03-22T11:44:40.148Z</time></trkpt><trkpt lat="39.8776235" lon="-2.1455831"><ele>1102.5</ele><time>2026-03-22T11:44:41.151Z</time></trkpt><trkpt lat="39.877577" lon="-2.1457126"><ele>1105.0</ele><time>2026-03-22T11:44:42.13Z</time></trkpt><trkpt lat="39.8775577" lon="-2.1458504"><ele>1107.5</ele><time>2026-03-22T11:44:43.14Z</time></trkpt><trkpt lat="39.8775506" lon="-2.1459988"><ele>1110.0</ele><time>2026-03-22T11:44:44.143Z</time></trkpt><trkpt lat="39.8775488" lon="-2.1461577"><ele>1110.0</ele><time>2026-03-22T11:44:45.13Z</time></trkpt><trkpt lat="39.8775504" lon="-2.1463106"><ele>1110.0</ele><time>2026-03-22T11:44:46.148Z</time></trkpt><trkpt lat="39.8775553" lon="-2.1464522"><ele>1110.0</ele><time>2026-03-22T11:44:47.154Z</time></trkpt><trkpt lat="39.8775638" lon="-2.1465897"><ele>1110.0</ele><time>2026-03-22T11:44:48.137Z</time></trkpt><trkpt lat="39.8775996" lon="-2.1467261"><ele>1110.0</ele><time>2026-03-22T11:44:49.127Z</time></trkpt><trkpt lat="39.8776444" lon="-2.1468678"><ele>1110.0</ele><time>2026-03-22T11:44:50.188Z</time></trkpt><trkpt lat="39.8776992" lon="-2.1470214"><ele>1110.0</ele><time>2026-03-22T11:44:51.146Z</time></trkpt><trkpt lat="39.8777638" lon="-2.1471769"><ele>1110.0</ele><time>2026-03-22T11:44:52.147Z</time></trkpt><trkpt lat="39.8778392" lon="-2.1473263"><ele>1110.0</ele><time>2026-03-22T11:44:53.151Z</time></trkpt><trkpt lat="39.8779141" lon="-2.147458"><ele>1110.0</ele><time>2026-03-22T11:44:54.189Z</time></trkpt><trkpt lat="39.8780017" lon="-2.147581"><ele>1110.0</ele><time>2026-03-22T11:44:55.167Z</time></trkpt><trkpt lat="39.8780954" lon="-2.1476915"><ele>1110.0</ele><time>2026-03-22T11:44:56.166Z</time></trkpt><trkpt lat="39.8781893" lon="-2.1478056"><ele>1110.0</ele><time>2026-03-22T11:44:57.183Z</time></trkpt><trkpt lat="39.8782799" lon="-2.1479287"><ele>1110.0</ele><time>2026-03-22T11:44:58.153Z</time></trkpt><trkpt lat="39.8783679" lon="-2.1480565"><ele>1110.0</ele><time>2026-03-22T11:44:59.151Z</time></trkpt><trkpt lat="39.8784546" lon="-2.1481913"><ele>1110.0</ele><time>2026-03-22T11:45:00.202Z</time></trkpt><trkpt lat="39.8785392" lon="-2.1483251"><ele>1110.0</ele><time>2026-03-22T11:45:01.174Z</time></trkpt><trkpt lat="39.8786206" lon="-2.1484594"><ele>1108.8</ele><time>2026-03-22T11:45:02.135Z</time></trkpt><trkpt lat="39.8786983" lon="-2.1485906"><ele>1107.6</ele><time>2026-03-22T11:45:03.199Z</time></trkpt><trkpt lat="39.8787607" lon="-2.1487146"><ele>1106.4</ele><time>2026-03-22T11:45:04.192Z</time></trkpt><trkpt lat="39.878823" lon="-2.1488224"><ele>1105.2</ele><time>2026-03-22T11:45:05.157Z</time></trkpt><trkpt lat="39.8788787" lon="-2.1489239"><ele>1104.0</ele><time>2026-03-22T11:45:06.146Z</time></trkpt><trkpt lat="39.8789105" lon="-2.1490274"><ele>1104.6000000000001</ele><time>2026-03-22T11:45:07.15Z</time></trkpt><trkpt lat="39.8789238" lon="-2.1491361"><ele>1105.2</ele><time>2026-03-22T11:45:08.157Z</time></trkpt><trkpt lat="39.8789202" lon="-2.1492543"><ele>1105.8000000000002</ele><time>2026-03-22T11:45:09.135Z</time></trkpt><trkpt lat="39.8788926" lon="-2.149395"><ele>1106.4</ele><time>2026-03-22T11:45:10.129Z</time></trkpt><trkpt lat="39.8788534" lon="-2.1495533"><ele>1107.0</ele><time>2026-03-22T11:45:11.126Z</time></trkpt><trkpt lat="39.8788187" lon="-2.1497223"><ele>1108.0</ele><time>2026-03-22T11:45:12.124Z</time></trkpt><trkpt lat="39.8787813" lon="-2.1498924"><ele>1109.0</ele><time>2026-03-22T11:45:13.134Z</time></trkpt><trkpt lat="39.8787394" lon="-2.1500536"><ele>1110.0</ele><time>2026-03-22T11:45:14.136Z</time></trkpt><trkpt lat="39.8786871" lon="-2.1502049"><ele>1111.0</ele><time>2026-03-22T11:45:15.142Z</time></trkpt><trkpt lat="39.878621" lon="-2.1503516"><ele>1111.0</ele><time>2026-03-22T11:45:16.134Z</time></trkpt><trkpt lat="39.8785492" lon="-2.1505021"><ele>1111.0</ele><time>2026-03-22T11:45:17.145Z</time></trkpt><trkpt lat="39.8784735" lon="-2.1506675"><ele>1111.0</ele><time>2026-03-22T11:45:18.123Z</time></trkpt><trkpt lat="39.8783893" lon="-2.1508199"><ele>1111.0</ele><time>2026-03-22T11:45:19.144Z</time></trkpt><trkpt lat="39.8783147" lon="-2.1509632"><ele>1110.75</ele><time>2026-03-22T11:45:20.141Z</time></trkpt><trkpt lat="39.8782535" lon="-2.1511017"><ele>1110.5</ele><time>2026-03-22T11:45:21.143Z</time></trkpt><trkpt lat="39.8781912" lon="-2.1512396"><ele>1110.25</ele><time>2026-03-22T11:45:22.132Z</time></trkpt><trkpt lat="39.8781648" lon="-2.1514131"><ele>1110.0</ele><time>2026-03-22T11:45:23.164Z</time></trkpt><trkpt lat="39.8781279" lon="-2.1515678"><ele>1110.75</ele><time>2026-03-22T11:45:24.145Z</time></trkpt><trkpt lat="39.878097" lon="-2.151713"><ele>1111.5</ele><time>2026-03-22T11:45:25.14Z</time></trkpt><trkpt lat="39.8780359" lon="-2.1518477"><ele>1112.25</ele><time>2026-03-22T11:45:26.149Z</time></trkpt><trkpt lat="39.8779562" lon="-2.1519713"><ele>1113.0</ele><time>2026-03-22T11:45:27.128Z</time></trkpt><trkpt lat="39.8778775" lon="-2.1520906"><ele>1113.0</ele><time>2026-03-22T11:45:28.119Z</time></trkpt><trkpt lat="39.8777934" lon="-2.1521913"><ele>1113.0</ele><time>2026-03-22T11:45:29.134Z</time></trkpt><trkpt lat="39.8777363" lon="-2.1523133"><ele>1113.0</ele><time>2026-03-22T11:45:30.156Z</time></trkpt><trkpt lat="39.8776947" lon="-2.1524403"><ele>1113.0</ele><time>2026-03-22T11:45:31.145Z</time></trkpt><trkpt lat="39.87766" lon="-2.1525563"><ele>1113.0</ele><time>2026-03-22T11:45:32.134Z</time></trkpt><trkpt lat="39.8776497" lon="-2.1526775"><ele>1112.8</ele><time>2026-03-22T11:45:33.137Z</time></trkpt><trkpt lat="39.8776501" lon="-2.1527977"><ele>1112.6</ele><time>2026-03-22T11:45:34.139Z</time></trkpt><trkpt lat="39.8776728" lon="-2.1529109"><ele>1112.4</ele><time>2026-03-22T11:45:35.149Z</time></trkpt><trkpt lat="39.8777174" lon="-2.1530199"><ele>1112.2</ele><time>2026-03-22T11:45:36.144Z</time></trkpt><trkpt lat="39.8777584" lon="-2.153126"><ele>1112.0</ele><time>2026-03-22T11:45:37.141Z</time></trkpt><trkpt lat="39.8778173" lon="-2.1532249"><ele>1111.5</ele><time>2026-03-22T11:45:38.138Z</time></trkpt><trkpt lat="39.8778841" lon="-2.1533157"><ele>1111.0</ele><time>2026-03-22T11:45:39.139Z</time></trkpt><trkpt lat="39.877974" lon="-2.153406"><ele>1110.5</ele><time>2026-03-22T11:45:40.141Z</time></trkpt><trkpt lat="39.878085" lon="-2.1535021"><ele>1110.0</ele><time>2026-03-22T11:45:41.136Z</time></trkpt><trkpt lat="39.8782101" lon="-2.1535909"><ele>1110.0</ele><time>2026-03-22T11:45:42.138Z</time></trkpt><trkpt lat="39.8783238" lon="-2.1536919"><ele>1110.0</ele><time>2026-03-22T11:45:43.148Z</time></trkpt><trkpt lat="39.8784301" lon="-2.1538004"><ele>1110.0</ele><time>2026-03-22T11:45:44.156Z</time></trkpt><trkpt lat="39.8785293" lon="-2.1539187"><ele>1110.0</ele><time>2026-03-22T11:45:45.149Z</time></trkpt><trkpt lat="39.878626" lon="-2.1540492"><ele>1109.0</ele><time>2026-03-22T11:45:46.145Z</time></trkpt><trkpt lat="39.8787243" lon="-2.1541873"><ele>1108.0</ele><time>2026-03-22T11:45:47.128Z</time></trkpt><trkpt lat="39.8788274" lon="-2.1543205"><ele>1107.0</ele><time>2026-03-22T11:45:48.145Z</time></trkpt><trkpt lat="39.8789139" lon="-2.1544591"><ele>1106.0</ele><time>2026-03-22T11:45:49.141Z</time></trkpt><trkpt lat="39.8789844" lon="-2.1545943"><ele>1106.0</ele><time>2026-03-22T11:45:50.139Z</time></trkpt><trkpt lat="39.8790501" lon="-2.1547128"><ele>1106.0</ele><time>2026-03-22T11:45:51.14Z</time></trkpt><trkpt lat="39.8791121" lon="-2.1548095"><ele>1106.0</ele><time>2026-03-22T11:45:52.147Z</time></trkpt><trkpt lat="39.8791765" lon="-2.1549037"><ele>1106.0</ele><time>2026-03-22T11:45:53.142Z</time></trkpt><trkpt lat="39.8792606" lon="-2.1549754"><ele>1106.0</ele><time>2026-03-22T11:45:54.132Z</time></trkpt><trkpt lat="39.8793506" lon="-2.1550244"><ele>1106.5</ele><time>2026-03-22T11:45:55.146Z</time></trkpt><trkpt lat="39.8794409" lon="-2.1550598"><ele>1107.0</ele><time>2026-03-22T11:45:56.159Z</time></trkpt><trkpt lat="39.8795251" lon="-2.1551042"><ele>1107.5</ele><time>2026-03-22T11:45:57.157Z</time></trkpt><trkpt lat="39.8796018" lon="-2.155155"><ele>1108.0</ele><time>2026-03-22T11:45:58.151Z</time></trkpt><trkpt lat="39.879671" lon="-2.1552077"><ele>1108.5</ele><time>2026-03-22T11:45:59.149Z</time></trkpt><trkpt lat="39.8797322" lon="-2.1552752"><ele>1109.0</ele><time>2026-03-22T11:46:00.154Z</time></trkpt><trkpt lat="39.8797875" lon="-2.1553371"><ele>1109.0</ele><time>2026-03-22T11:46:01.139Z</time></trkpt><trkpt lat="39.8798412" lon="-2.1554075"><ele>1109.0</ele><time>2026-03-22T11:46:02.139Z</time></trkpt><trkpt lat="39.8798626" lon="-2.1555156"><ele>1109.0</ele><time>2026-03-22T11:46:03.147Z</time></trkpt><trkpt lat="39.8798722" lon="-2.1556579"><ele>1109.0</ele><time>2026-03-22T11:46:04.149Z</time></trkpt><trkpt lat="39.8798789" lon="-2.1558057"><ele>1109.0</ele><time>2026-03-22T11:46:05.143Z</time></trkpt><trkpt lat="39.8798883" lon="-2.1559495"><ele>1108.75</ele><time>2026-03-22T11:46:06.138Z</time></trkpt><trkpt lat="39.8799115" lon="-2.1560896"><ele>1108.5</ele><time>2026-03-22T11:46:07.146Z</time></trkpt><trkpt lat="39.8799398" lon="-2.1562347"><ele>1108.25</ele><time>2026-03-22T11:46:08.14Z</time></trkpt><trkpt lat="39.8799831" lon="-2.1563832"><ele>1108.0</ele><time>2026-03-22T11:46:09.151Z</time></trkpt><trkpt lat="39.880036" lon="-2.1565334"><ele>1108.6</ele><time>2026-03-22T11:46:10.147Z</time></trkpt><trkpt lat="39.8800905" lon="-2.1566807"><ele>1109.1999999999998</ele><time>2026-03-22T11:46:11.129Z</time></trkpt><trkpt lat="39.8801511" lon="-2.1567981"><ele>1109.8</ele><time>2026-03-22T11:46:12.138Z</time></trkpt><trkpt lat="39.8802092" lon="-2.1568972"><ele>1110.3999999999999</ele><time>2026-03-22T11:46:13.163Z</time></trkpt><trkpt lat="39.8802711" lon="-2.1569766"><ele>1111.0</ele><time>2026-03-22T11:46:14.14Z</time></trkpt><trkpt lat="39.8803327" lon="-2.1570345"><ele>1109.8333333333333</ele><time>2026-03-22T11:46:15.138Z</time></trkpt><trkpt lat="39.8804025" lon="-2.1570886"><ele>1108.6666666666665</ele><time>2026-03-22T11:46:16.157Z</time></trkpt><trkpt lat="39.8804837" lon="-2.1571211"><ele>1107.5</ele><time>2026-03-22T11:46:17.127Z</time></trkpt><trkpt lat="39.8805725" lon="-2.1571435"><ele>1106.3333333333333</ele><time>2026-03-22T11:46:18.158Z</time></trkpt><trkpt lat="39.8806604" lon="-2.1571667"><ele>1105.1666666666667</ele><time>2026-03-22T11:46:19.139Z</time></trkpt><trkpt lat="39.8807401" lon="-2.1571929"><ele>1104.0</ele><time>2026-03-22T11:46:20.145Z</time></trkpt><trkpt lat="39.8808012" lon="-2.1572532"><ele>1104.0</ele><time>2026-03-22T11:46:21.144Z</time></trkpt><trkpt lat="39.8808687" lon="-2.1573148"><ele>1104.0</ele><time>2026-03-22T11:46:22.136Z</time></trkpt><trkpt lat="39.880921" lon="-2.1574137"><ele>1104.0</ele><time>2026-03-22T11:46:23.129Z</time></trkpt><trkpt lat="39.8809628" lon="-2.1575309"><ele>1104.0</ele><time>2026-03-22T11:46:24.127Z</time></trkpt><trkpt lat="39.8810015" lon="-2.1576548"><ele>1104.0</ele><time>2026-03-22T11:46:25.135Z</time></trkpt><trkpt lat="39.8810328" lon="-2.1577861"><ele>1103.6000000000001</ele><time>2026-03-22T11:46:26.147Z</time></trkpt><trkpt lat="39.8810632" lon="-2.1579149"><ele>1103.2</ele><time>2026-03-22T11:46:27.142Z</time></trkpt><trkpt lat="39.8810928" lon="-2.1580353"><ele>1102.8000000000002</ele><time>2026-03-22T11:46:28.161Z</time></trkpt><trkpt lat="39.8811114" lon="-2.158147"><ele>1102.4</ele><time>2026-03-22T11:46:29.124Z</time></trkpt><trkpt lat="39.881109" lon="-2.1582525"><ele>1102.0</ele><time>2026-03-22T11:46:30.13Z</time></trkpt><trkpt lat="39.881105" lon="-2.1583584"><ele>1100.4</ele><time>2026-03-22T11:46:31.14Z</time></trkpt><trkpt lat="39.8811121" lon="-2.1584747"><ele>1098.8000000000002</ele><time>2026-03-22T11:46:32.136Z</time></trkpt><trkpt lat="39.8811321" lon="-2.1586084"><ele>1097.2</ele><time>2026-03-22T11:46:33.137Z</time></trkpt><trkpt lat="39.8811699" lon="-2.1587449"><ele>1095.6000000000001</ele><time>2026-03-22T11:46:34.143Z</time></trkpt><trkpt lat="39.8812232" lon="-2.1588824"><ele>1094.0</ele><time>2026-03-22T11:46:35.145Z</time></trkpt><trkpt lat="39.8812961" lon="-2.1590169"><ele>1095.0</ele><time>2026-03-22T11:46:36.151Z</time></trkpt><trkpt lat="39.8813754" lon="-2.1591603"><ele>1096.0</ele><time>2026-03-22T11:46:37.15Z</time></trkpt><trkpt lat="39.8814567" lon="-2.1593043"><ele>1097.0</ele><time>2026-03-22T11:46:38.137Z</time></trkpt><trkpt lat="39.8815306" lon="-2.1594487"><ele>1098.0</ele><time>2026-03-22T11:46:39.135Z</time></trkpt><trkpt lat="39.8816005" lon="-2.1595864"><ele>1098.0</ele><time>2026-03-22T11:46:40.152Z</time></trkpt><trkpt lat="39.8816715" lon="-2.1597138"><ele>1098.0</ele><time>2026-03-22T11:46:41.129Z</time></trkpt><trkpt lat="39.8817395" lon="-2.1598405"><ele>1098.0</ele><time>2026-03-22T11:46:42.133Z</time></trkpt><trkpt lat="39.8818024" lon="-2.1599478"><ele>1098.0</ele><time>2026-03-22T11:46:43.156Z</time></trkpt><trkpt lat="39.8818537" lon="-2.1600244"><ele>1098.0</ele><time>2026-03-22T11:46:44.134Z</time></trkpt><trkpt lat="39.8819119" lon="-2.1600815"><ele>1098.0</ele><time>2026-03-22T11:46:45.137Z</time></trkpt><trkpt lat="39.8819817" lon="-2.1601289"><ele>1098.0</ele><time>2026-03-22T11:46:46.142Z</time></trkpt><trkpt lat="39.8820633" lon="-2.160168"><ele>1098.0</ele><time>2026-03-22T11:46:47.129Z</time></trkpt><trkpt lat="39.8821502" lon="-2.1602119"><ele>1098.0</ele><time>2026-03-22T11:46:48.172Z</time></trkpt><trkpt lat="39.8822301" lon="-2.1602723"><ele>1098.0</ele><time>2026-03-22T11:46:49.135Z</time></trkpt><trkpt lat="39.8823057" lon="-2.1603172"><ele>1098.0</ele><time>2026-03-22T11:46:50.136Z</time></trkpt><trkpt lat="39.8823692" lon="-2.1603904"><ele>1098.0</ele><time>2026-03-22T11:46:51.15Z</time></trkpt><trkpt lat="39.8824391" lon="-2.1604401"><ele>1098.0</ele><time>2026-03-22T11:46:52.136Z</time></trkpt><trkpt lat="39.8825073" lon="-2.1604943"><ele>1098.0</ele><time>2026-03-22T11:46:53.14Z</time></trkpt><trkpt lat="39.8825779" lon="-2.1605495"><ele>1098.0</ele><time>2026-03-22T11:46:54.149Z</time></trkpt><trkpt lat="39.8826505" lon="-2.1606053"><ele>1098.0</ele><time>2026-03-22T11:46:55.128Z</time></trkpt><trkpt lat="39.8827279" lon="-2.1606657"><ele>1098.0</ele><time>2026-03-22T11:46:56.153Z</time></trkpt><trkpt lat="39.8828158" lon="-2.1607159"><ele>1095.6</ele><time>2026-03-22T11:46:57.15Z</time></trkpt><trkpt lat="39.882908" lon="-2.1607656"><ele>1093.1999999999998</ele><time>2026-03-22T11:46:58.163Z</time></trkpt><trkpt lat="39.8829944" lon="-2.1608526"><ele>1090.8</ele><time>2026-03-22T11:46:59.13Z</time></trkpt><trkpt lat="39.8830846" lon="-2.1609353"><ele>1088.3999999999999</ele><time>2026-03-22T11:47:00.165Z</time></trkpt><trkpt lat="39.8831794" lon="-2.1610051"><ele>1086.0</ele><time>2026-03-22T11:47:01.147Z</time></trkpt><trkpt lat="39.883286" lon="-2.1610511"><ele>1086.0</ele><time>2026-03-22T11:47:02.147Z</time></trkpt><trkpt lat="39.8833982" lon="-2.1610818"><ele>1086.0</ele><time>2026-03-22T11:47:03.13Z</time></trkpt><trkpt lat="39.8835074" lon="-2.1611001"><ele>1086.0</ele><time>2026-03-22T11:47:04.144Z</time></trkpt><trkpt lat="39.8836165" lon="-2.1611115"><ele>1086.0</ele><time>2026-03-22T11:47:05.14Z</time></trkpt><trkpt lat="39.8837263" lon="-2.1611392"><ele>1086.0</ele><time>2026-03-22T11:47:06.128Z</time></trkpt><trkpt lat="39.8838387" lon="-2.1611899"><ele>1085.3999999999999</ele><time>2026-03-22T11:47:07.138Z</time></trkpt><trkpt lat="39.883948" lon="-2.1612573"><ele>1084.8</ele><time>2026-03-22T11:47:08.126Z</time></trkpt><trkpt lat="39.8840395" lon="-2.1613371"><ele>1084.1999999999998</ele><time>2026-03-22T11:47:09.131Z</time></trkpt><trkpt lat="39.8841215" lon="-2.1614258"><ele>1083.6</ele><time>2026-03-22T11:47:10.142Z</time></trkpt><trkpt lat="39.8841958" lon="-2.161514"><ele>1083.0</ele><time>2026-03-22T11:47:11.145Z</time></trkpt><trkpt lat="39.8842583" lon="-2.1615922"><ele>1081.8333333333333</ele><time>2026-03-22T11:47:12.161Z</time></trkpt><trkpt lat="39.8843213" lon="-2.1616468"><ele>1080.6666666666667</ele><time>2026-03-22T11:47:13.147Z</time></trkpt><trkpt lat="39.8843823" lon="-2.1617157"><ele>1079.5</ele><time>2026-03-22T11:47:14.14Z</time></trkpt><trkpt lat="39.8844439" lon="-2.1617994"><ele>1078.3333333333335</ele><time>2026-03-22T11:47:15.148Z</time></trkpt><trkpt lat="39.8845009" lon="-2.1619003"><ele>1077.1666666666667</ele><time>2026-03-22T11:47:16.143Z</time></trkpt><trkpt lat="39.8845562" lon="-2.1620114"><ele>1076.0</ele><time>2026-03-22T11:47:17.126Z</time></trkpt><trkpt lat="39.8846151" lon="-2.1621289"><ele>1076.0</ele><time>2026-03-22T11:47:18.148Z</time></trkpt><trkpt lat="39.8846725" lon="-2.1622448"><ele>1076.0</ele><time>2026-03-22T11:47:19.158Z</time></trkpt><trkpt lat="39.8847332" lon="-2.1623563"><ele>1076.0</ele><time>2026-03-22T11:47:20.163Z</time></trkpt><trkpt lat="39.8847907" lon="-2.1624693"><ele>1076.0</ele><time>2026-03-22T11:47:21.131Z</time></trkpt><trkpt lat="39.8848468" lon="-2.1625876"><ele>1076.0</ele><time>2026-03-22T11:47:22.139Z</time></trkpt><trkpt lat="39.8849051" lon="-2.1627014"><ele>1074.8</ele><time>2026-03-22T11:47:23.156Z</time></trkpt><trkpt lat="39.8849706" lon="-2.1628095"><ele>1073.6</ele><time>2026-03-22T11:47:24.132Z</time></trkpt><trkpt lat="39.8850376" lon="-2.1629162"><ele>1072.4</ele><time>2026-03-22T11:47:25.144Z</time></trkpt><trkpt lat="39.8851142" lon="-2.1630133"><ele>1071.2</ele><time>2026-03-22T11:47:26.146Z</time></trkpt><trkpt lat="39.8851988" lon="-2.1631065"><ele>1070.0</ele><time>2026-03-22T11:47:27.141Z</time></trkpt><trkpt lat="39.8852852" lon="-2.1632029"><ele>1068.0</ele><time>2026-03-22T11:47:28.139Z</time></trkpt><trkpt lat="39.8853741" lon="-2.1632951"><ele>1066.0</ele><time>2026-03-22T11:47:29.129Z</time></trkpt><trkpt lat="39.8854621" lon="-2.1633913"><ele>1064.0</ele><time>2026-03-22T11:47:30.13Z</time></trkpt><trkpt lat="39.8855515" lon="-2.1634835"><ele>1062.0</ele><time>2026-03-22T11:47:31.146Z</time></trkpt><trkpt lat="39.8856347" lon="-2.1635683"><ele>1060.0</ele><time>2026-03-22T11:47:32.131Z</time></trkpt><trkpt lat="39.885708" lon="-2.1636456"><ele>1060.0</ele><time>2026-03-22T11:47:33.14Z</time></trkpt><trkpt lat="39.8857701" lon="-2.163728"><ele>1060.0</ele><time>2026-03-22T11:47:34.141Z</time></trkpt><trkpt lat="39.8858226" lon="-2.1638224"><ele>1060.0</ele><time>2026-03-22T11:47:35.134Z</time></trkpt><trkpt lat="39.8858635" lon="-2.1639073"><ele>1060.0</ele><time>2026-03-22T11:47:36.152Z</time></trkpt><trkpt lat="39.8858764" lon="-2.1639932"><ele>1060.0</ele><time>2026-03-22T11:47:37.156Z</time></trkpt><trkpt lat="39.8858664" lon="-2.1640899"><ele>1060.0</ele><time>2026-03-22T11:47:38.137Z</time></trkpt><trkpt lat="39.8858418" lon="-2.1641805"><ele>1060.0</ele><time>2026-03-22T11:47:39.156Z</time></trkpt><trkpt lat="39.8857853" lon="-2.1642716"><ele>1060.0</ele><time>2026-03-22T11:47:40.142Z</time></trkpt><trkpt lat="39.8857464" lon="-2.1643599"><ele>1060.0</ele><time>2026-03-22T11:47:41.126Z</time></trkpt><trkpt lat="39.8857132" lon="-2.1644376"><ele>1060.0</ele><time>2026-03-22T11:47:42.144Z</time></trkpt><trkpt lat="39.8856866" lon="-2.1645142"><ele>1060.0</ele><time>2026-03-22T11:47:43.145Z</time></trkpt><trkpt lat="39.8856912" lon="-2.1646448"><ele>1060.0</ele><time>2026-03-22T11:47:45.136Z</time></trkpt><trkpt lat="39.885766" lon="-2.1647503"><ele>1059.9999999999998</ele><time>2026-03-22T11:47:47.143Z</time></trkpt><trkpt lat="39.8858091" lon="-2.1648315"><ele>1060.0</ele><time>2026-03-22T11:47:48.15Z</time></trkpt><trkpt lat="39.8858423" lon="-2.164913"><ele>1060.0</ele><time>2026-03-22T11:47:49.159Z</time></trkpt><trkpt lat="39.8858687" lon="-2.1650009"><ele>1060.0</ele><time>2026-03-22T11:47:50.136Z</time></trkpt><trkpt lat="39.8858827" lon="-2.165095"><ele>1060.0</ele><time>2026-03-22T11:47:51.14Z</time></trkpt><trkpt lat="39.8858895" lon="-2.1651944"><ele>1059.9999999999998</ele><time>2026-03-22T11:47:52.131Z</time></trkpt><trkpt lat="39.8859047" lon="-2.1652784"><ele>1060.0</ele><time>2026-03-22T11:47:53.134Z</time></trkpt><trkpt lat="39.885947" lon="-2.1653436"><ele>1063.1666666666665</ele><time>2026-03-22T11:47:54.139Z</time></trkpt><trkpt lat="39.886011" lon="-2.165395"><ele>1066.3333333333333</ele><time>2026-03-22T11:47:55.141Z</time></trkpt><trkpt lat="39.8860808" lon="-2.1654569"><ele>1069.5</ele><time>2026-03-22T11:47:56.157Z</time></trkpt><trkpt lat="39.8861571" lon="-2.1655165"><ele>1072.6666666666667</ele><time>2026-03-22T11:47:57.137Z</time></trkpt><trkpt lat="39.8862328" lon="-2.1655806"><ele>1075.8333333333335</ele><time>2026-03-22T11:47:58.149Z</time></trkpt><trkpt lat="39.8863051" lon="-2.1656463"><ele>1079.0</ele><time>2026-03-22T11:47:59.156Z</time></trkpt><trkpt lat="39.8863661" lon="-2.1657358"><ele>1079.6666666666667</ele><time>2026-03-22T11:48:00.156Z</time></trkpt><trkpt lat="39.8864235" lon="-2.1658191"><ele>1080.3333333333335</ele><time>2026-03-22T11:48:01.141Z</time></trkpt><trkpt lat="39.8864773" lon="-2.1658966"><ele>1081.0</ele><time>2026-03-22T11:48:02.166Z</time></trkpt><trkpt lat="39.8865171" lon="-2.1659827"><ele>1081.6666666666667</ele><time>2026-03-22T11:48:03.144Z</time></trkpt><trkpt lat="39.8865535" lon="-2.1660614"><ele>1082.3333333333333</ele><time>2026-03-22T11:48:04.131Z</time></trkpt><trkpt lat="39.8865803" lon="-2.1661438"><ele>1083.0</ele><time>2026-03-22T11:48:05.124Z</time></trkpt><trkpt lat="39.8865924" lon="-2.1662404"><ele>1083.0</ele><time>2026-03-22T11:48:06.137Z</time></trkpt><trkpt lat="39.8866161" lon="-2.1663275"><ele>1083.0</ele><time>2026-03-22T11:48:07.114Z</time></trkpt><trkpt lat="39.8866562" lon="-2.1663955"><ele>1083.0</ele><time>2026-03-22T11:48:08.126Z</time></trkpt><trkpt lat="39.8866961" lon="-2.1664689"><ele>1083.0</ele><time>2026-03-22T11:48:09.157Z</time></trkpt><trkpt lat="39.8867464" lon="-2.1665451"><ele>1083.0</ele><time>2026-03-22T11:48:10.138Z</time></trkpt><trkpt lat="39.8867961" lon="-2.166634"><ele>1083.0</ele><time>2026-03-22T11:48:11.154Z</time></trkpt><trkpt lat="39.8868545" lon="-2.1667301"><ele>1082.6</ele><time>2026-03-22T11:48:12.131Z</time></trkpt><trkpt lat="39.886921" lon="-2.1668258"><ele>1082.1999999999998</ele><time>2026-03-22T11:48:13.153Z</time></trkpt><trkpt lat="39.8869944" lon="-2.1669187"><ele>1081.8</ele><time>2026-03-22T11:48:14.139Z</time></trkpt><trkpt lat="39.8870726" lon="-2.1670133"><ele>1081.3999999999999</ele><time>2026-03-22T11:48:15.145Z</time></trkpt><trkpt lat="39.8871565" lon="-2.167107"><ele>1081.0</ele><time>2026-03-22T11:48:16.128Z</time></trkpt><trkpt lat="39.8872382" lon="-2.1671991"><ele>1081.0</ele><time>2026-03-22T11:48:17.145Z</time></trkpt><trkpt lat="39.8873228" lon="-2.1672866"><ele>1081.0</ele><time>2026-03-22T11:48:18.153Z</time></trkpt><trkpt lat="39.8874131" lon="-2.1673717"><ele>1081.0</ele><time>2026-03-22T11:48:19.136Z</time></trkpt><trkpt lat="39.8875064" lon="-2.1674507"><ele>1081.0</ele><time>2026-03-22T11:48:20.144Z</time></trkpt><trkpt lat="39.8875993" lon="-2.1675226"><ele>1081.0</ele><time>2026-03-22T11:48:21.137Z</time></trkpt><trkpt lat="39.8876893" lon="-2.1675806"><ele>1080.0</ele><time>2026-03-22T11:48:22.155Z</time></trkpt><trkpt lat="39.8877729" lon="-2.1676391"><ele>1079.0</ele><time>2026-03-22T11:48:23.137Z</time></trkpt><trkpt lat="39.8878493" lon="-2.1676963"><ele>1078.0</ele><time>2026-03-22T11:48:24.153Z</time></trkpt><trkpt lat="39.8879133" lon="-2.1677522"><ele>1077.0</ele><time>2026-03-22T11:48:25.129Z</time></trkpt><trkpt lat="39.8879691" lon="-2.1678179"><ele>1076.0</ele><time>2026-03-22T11:48:26.139Z</time></trkpt><trkpt lat="39.8880195" lon="-2.1679039"><ele>1075.0</ele><time>2026-03-22T11:48:27.153Z</time></trkpt><trkpt lat="39.8880624" lon="-2.1680078"><ele>1075.0</ele><time>2026-03-22T11:48:28.14Z</time></trkpt><trkpt lat="39.8881026" lon="-2.1681106"><ele>1075.0</ele><time>2026-03-22T11:48:29.127Z</time></trkpt><trkpt lat="39.8881472" lon="-2.1682069"><ele>1075.0</ele><time>2026-03-22T11:48:30.141Z</time></trkpt><trkpt lat="39.8881945" lon="-2.1683025"><ele>1075.0</ele><time>2026-03-22T11:48:31.153Z</time></trkpt><trkpt lat="39.8882454" lon="-2.1683979"><ele>1075.0</ele><time>2026-03-22T11:48:32.152Z</time></trkpt><trkpt lat="39.8883018" lon="-2.168498"><ele>1075.0</ele><time>2026-03-22T11:48:33.125Z</time></trkpt><trkpt lat="39.8883571" lon="-2.1686073"><ele>1075.0</ele><time>2026-03-22T11:48:34.154Z</time></trkpt><trkpt lat="39.8884119" lon="-2.1687137"><ele>1075.0</ele><time>2026-03-22T11:48:35.133Z</time></trkpt><trkpt lat="39.8884668" lon="-2.1688167"><ele>1075.0</ele><time>2026-03-22T11:48:36.154Z</time></trkpt><trkpt lat="39.888522" lon="-2.1689185"><ele>1075.0</ele><time>2026-03-22T11:48:37.153Z</time></trkpt><trkpt lat="39.8885832" lon="-2.1690248"><ele>1075.0</ele><time>2026-03-22T11:48:38.145Z</time></trkpt><trkpt lat="39.8886471" lon="-2.1691401"><ele>1074.0</ele><time>2026-03-22T11:48:39.139Z</time></trkpt><trkpt lat="39.8887106" lon="-2.169255"><ele>1073.0</ele><time>2026-03-22T11:48:40.13Z</time></trkpt><trkpt lat="39.8887733" lon="-2.1693718"><ele>1072.0</ele><time>2026-03-22T11:48:41.14Z</time></trkpt><trkpt lat="39.8888339" lon="-2.1694748"><ele>1071.0</ele><time>2026-03-22T11:48:42.144Z</time></trkpt><trkpt lat="39.8888939" lon="-2.169579"><ele>1070.0</ele><time>2026-03-22T11:48:43.156Z</time></trkpt><trkpt lat="39.888951" lon="-2.169681"><ele>1070.0</ele><time>2026-03-22T11:48:44.157Z</time></trkpt><trkpt lat="39.8890044" lon="-2.1697875"><ele>1070.0</ele><time>2026-03-22T11:48:45.149Z</time></trkpt><trkpt lat="39.8890608" lon="-2.1698943"><ele>1070.0</ele><time>2026-03-22T11:48:46.141Z</time></trkpt><trkpt lat="39.8891196" lon="-2.1700005"><ele>1070.0</ele><time>2026-03-22T11:48:47.139Z</time></trkpt><trkpt lat="39.8891811" lon="-2.1701012"><ele>1070.0</ele><time>2026-03-22T11:48:48.132Z</time></trkpt><trkpt lat="39.8892622" lon="-2.1701758"><ele>1068.8</ele><time>2026-03-22T11:48:49.149Z</time></trkpt><trkpt lat="39.8893433" lon="-2.1702585"><ele>1067.6</ele><time>2026-03-22T11:48:50.128Z</time></trkpt><trkpt lat="39.8894179" lon="-2.1703595"><ele>1066.4</ele><time>2026-03-22T11:48:51.159Z</time></trkpt><trkpt lat="39.8895018" lon="-2.1704599"><ele>1065.2</ele><time>2026-03-22T11:48:52.156Z</time></trkpt><trkpt lat="39.8895856" lon="-2.1705537"><ele>1064.0</ele><time>2026-03-22T11:48:53.141Z</time></trkpt><trkpt lat="39.8896647" lon="-2.1706434"><ele>1060.2</ele><time>2026-03-22T11:48:54.151Z</time></trkpt><trkpt lat="39.8897359" lon="-2.1707388"><ele>1056.4</ele><time>2026-03-22T11:48:55.142Z</time></trkpt><trkpt lat="39.8898083" lon="-2.1708259"><ele>1052.6</ele><time>2026-03-22T11:48:56.155Z</time></trkpt><trkpt lat="39.8898856" lon="-2.1709035"><ele>1048.8</ele><time>2026-03-22T11:48:57.131Z</time></trkpt><trkpt lat="39.8899708" lon="-2.17098"><ele>1045.0</ele><time>2026-03-22T11:48:58.147Z</time></trkpt><trkpt lat="39.8900616" lon="-2.1710549"><ele>1043.6</ele><time>2026-03-22T11:48:59.141Z</time></trkpt><trkpt lat="39.8901609" lon="-2.1711306"><ele>1042.2</ele><time>2026-03-22T11:49:00.165Z</time></trkpt><trkpt lat="39.8902681" lon="-2.1711942"><ele>1040.8</ele><time>2026-03-22T11:49:01.131Z</time></trkpt><trkpt lat="39.8903714" lon="-2.1712408"><ele>1039.4</ele><time>2026-03-22T11:49:02.143Z</time></trkpt><trkpt lat="39.8904721" lon="-2.1712702"><ele>1038.0</ele><time>2026-03-22T11:49:03.158Z</time></trkpt><trkpt lat="39.890571" lon="-2.1713013"><ele>1038.0</ele><time>2026-03-22T11:49:04.162Z</time></trkpt><trkpt lat="39.8906547" lon="-2.1713469"><ele>1038.0</ele><time>2026-03-22T11:49:05.142Z</time></trkpt><trkpt lat="39.8907295" lon="-2.1714266"><ele>1038.0</ele><time>2026-03-22T11:49:06.151Z</time></trkpt><trkpt lat="39.8908047" lon="-2.1715143"><ele>1038.0</ele><time>2026-03-22T11:49:07.138Z</time></trkpt><trkpt lat="39.8908654" lon="-2.1715987"><ele>1038.0</ele><time>2026-03-22T11:49:08.136Z</time></trkpt><trkpt lat="39.8908978" lon="-2.1716953"><ele>1037.2</ele><time>2026-03-22T11:49:09.139Z</time></trkpt><trkpt lat="39.8909145" lon="-2.1718192"><ele>1036.4</ele><time>2026-03-22T11:49:10.141Z</time></trkpt><trkpt lat="39.890935" lon="-2.1719685"><ele>1035.6000000000001</ele><time>2026-03-22T11:49:11.139Z</time></trkpt><trkpt lat="39.8909455" lon="-2.1721164"><ele>1034.8</ele><time>2026-03-22T11:49:12.141Z</time></trkpt><trkpt lat="39.8909804" lon="-2.1722382"><ele>1034.0</ele><time>2026-03-22T11:49:13.127Z</time></trkpt><trkpt lat="39.8910251" lon="-2.1723581"><ele>1034.0</ele><time>2026-03-22T11:49:14.136Z</time></trkpt><trkpt lat="39.8910783" lon="-2.1724752"><ele>1034.0</ele><time>2026-03-22T11:49:15.128Z</time></trkpt><trkpt lat="39.8911438" lon="-2.1725749"><ele>1034.0</ele><time>2026-03-22T11:49:16.143Z</time></trkpt><trkpt lat="39.8912152" lon="-2.1726646"><ele>1034.0</ele><time>2026-03-22T11:49:17.12Z</time></trkpt><trkpt lat="39.8912865" lon="-2.1727564"><ele>1034.0</ele><time>2026-03-22T11:49:18.139Z</time></trkpt><trkpt lat="39.8913581" lon="-2.172856"><ele>1034.0</ele><time>2026-03-22T11:49:19.152Z</time></trkpt><trkpt lat="39.8914267" lon="-2.1729703"><ele>1034.0</ele><time>2026-03-22T11:49:20.137Z</time></trkpt><trkpt lat="39.891486" lon="-2.1730971"><ele>1034.0</ele><time>2026-03-22T11:49:21.158Z</time></trkpt><trkpt lat="39.8915417" lon="-2.1732151"><ele>1034.0</ele><time>2026-03-22T11:49:22.159Z</time></trkpt><trkpt lat="39.8915989" lon="-2.173315"><ele>1034.0</ele><time>2026-03-22T11:49:23.137Z</time></trkpt><trkpt lat="39.8916627" lon="-2.1733858"><ele>1034.8333333333335</ele><time>2026-03-22T11:49:24.128Z</time></trkpt><trkpt lat="39.8917323" lon="-2.1734335"><ele>1035.6666666666667</ele><time>2026-03-22T11:49:25.151Z</time></trkpt><trkpt lat="39.8918201" lon="-2.1734707"><ele>1036.5</ele><time>2026-03-22T11:49:26.136Z</time></trkpt><trkpt lat="39.8919108" lon="-2.1734873"><ele>1037.3333333333333</ele><time>2026-03-22T11:49:27.124Z</time></trkpt><trkpt lat="39.8920035" lon="-2.1735013"><ele>1038.1666666666665</ele><time>2026-03-22T11:49:28.133Z</time></trkpt><trkpt lat="39.8920832" lon="-2.1735404"><ele>1039.0</ele><time>2026-03-22T11:49:29.138Z</time></trkpt><trkpt lat="39.89214" lon="-2.173592"><ele>1041.6666666666665</ele><time>2026-03-22T11:49:30.129Z</time></trkpt><trkpt lat="39.8921813" lon="-2.1736718"><ele>1044.3333333333333</ele><time>2026-03-22T11:49:31.126Z</time></trkpt><trkpt lat="39.8922028" lon="-2.1737764"><ele>1047.0</ele><time>2026-03-22T11:49:32.125Z</time></trkpt><trkpt lat="39.8922196" lon="-2.1738899"><ele>1049.6666666666667</ele><time>2026-03-22T11:49:33.145Z</time></trkpt><trkpt lat="39.8922542" lon="-2.1740091"><ele>1052.3333333333335</ele><time>2026-03-22T11:49:34.142Z</time></trkpt><trkpt lat="39.8923024" lon="-2.1741218"><ele>1055.0</ele><time>2026-03-22T11:49:35.139Z</time></trkpt><trkpt lat="39.8923593" lon="-2.1742181"><ele>1055.0</ele><time>2026-03-22T11:49:36.125Z</time></trkpt><trkpt lat="39.8924146" lon="-2.17432"><ele>1055.0</ele><time>2026-03-22T11:49:37.14Z</time></trkpt><trkpt lat="39.8924624" lon="-2.1744369"><ele>1055.0</ele><time>2026-03-22T11:49:38.132Z</time></trkpt><trkpt lat="39.8925107" lon="-2.1745471"><ele>1055.0</ele><time>2026-03-22T11:49:39.124Z</time></trkpt><trkpt lat="39.8925573" lon="-2.1746393"><ele>1055.0</ele><time>2026-03-22T11:49:40.152Z</time></trkpt><trkpt lat="39.8926052" lon="-2.1747025"><ele>1055.0</ele><time>2026-03-22T11:49:41.125Z</time></trkpt><trkpt lat="39.8927107" lon="-2.1747877"><ele>1055.6666666666667</ele><time>2026-03-22T11:49:43.133Z</time></trkpt><trkpt lat="39.892823" lon="-2.1748756"><ele>1056.3333333333335</ele><time>2026-03-22T11:49:45.152Z</time></trkpt><trkpt lat="39.8928901" lon="-2.1749237"><ele>1057.0</ele><time>2026-03-22T11:49:46.148Z</time></trkpt><trkpt lat="39.8929554" lon="-2.1749781"><ele>1057.6666666666667</ele><time>2026-03-22T11:49:47.129Z</time></trkpt><trkpt lat="39.8930208" lon="-2.1750288"><ele>1058.3333333333333</ele><time>2026-03-22T11:49:48.139Z</time></trkpt><trkpt lat="39.8930805" lon="-2.175105"><ele>1059.0</ele><time>2026-03-22T11:49:49.133Z</time></trkpt><trkpt lat="39.8931288" lon="-2.1752024"><ele>1059.0</ele><time>2026-03-22T11:49:50.154Z</time></trkpt><trkpt lat="39.8931767" lon="-2.1752995"><ele>1059.0</ele><time>2026-03-22T11:49:51.125Z</time></trkpt><trkpt lat="39.8932316" lon="-2.1754088"><ele>1059.0</ele><time>2026-03-22T11:49:52.141Z</time></trkpt><trkpt lat="39.8932764" lon="-2.1755026"><ele>1059.0</ele><time>2026-03-22T11:49:53.125Z</time></trkpt><trkpt lat="39.8933219" lon="-2.1755946"><ele>1059.0</ele><time>2026-03-22T11:49:54.138Z</time></trkpt><trkpt lat="39.8933749" lon="-2.1756736"><ele>1059.0</ele><time>2026-03-22T11:49:55.158Z</time></trkpt><trkpt lat="39.893442" lon="-2.1757461"><ele>1057.6000000000001</ele><time>2026-03-22T11:49:56.139Z</time></trkpt><trkpt lat="39.893518" lon="-2.1758152"><ele>1056.2</ele><time>2026-03-22T11:49:57.154Z</time></trkpt><trkpt lat="39.8935989" lon="-2.1758794"><ele>1054.8000000000002</ele><time>2026-03-22T11:49:58.142Z</time></trkpt><trkpt lat="39.8936818" lon="-2.1759448"><ele>1053.4</ele><time>2026-03-22T11:49:59.144Z</time></trkpt><trkpt lat="39.8937606" lon="-2.1760327"><ele>1052.0</ele><time>2026-03-22T11:50:00.158Z</time></trkpt><trkpt lat="39.8938393" lon="-2.1761174"><ele>1052.0</ele><time>2026-03-22T11:50:01.143Z</time></trkpt><trkpt lat="39.8939214" lon="-2.1761801"><ele>1052.0</ele><time>2026-03-22T11:50:02.144Z</time></trkpt><trkpt lat="39.8939972" lon="-2.176257"><ele>1052.0</ele><time>2026-03-22T11:50:03.151Z</time></trkpt><trkpt lat="39.894069" lon="-2.1763478"><ele>1052.0</ele><time>2026-03-22T11:50:04.143Z</time></trkpt><trkpt lat="39.8941332" lon="-2.1764488"><ele>1052.0</ele><time>2026-03-22T11:50:05.139Z</time></trkpt><trkpt lat="39.8941919" lon="-2.176542"><ele>1050.8</ele><time>2026-03-22T11:50:06.148Z</time></trkpt><trkpt lat="39.8942494" lon="-2.1766366"><ele>1049.6</ele><time>2026-03-22T11:50:07.145Z</time></trkpt><trkpt lat="39.8943183" lon="-2.1767361"><ele>1048.3999999999999</ele><time>2026-03-22T11:50:08.162Z</time></trkpt><trkpt lat="39.8944043" lon="-2.1768342"><ele>1047.2</ele><time>2026-03-22T11:50:09.143Z</time></trkpt><trkpt lat="39.8945043" lon="-2.176932"><ele>1046.0</ele><time>2026-03-22T11:50:10.161Z</time></trkpt><trkpt lat="39.8946061" lon="-2.1770202"><ele>1046.0</ele><time>2026-03-22T11:50:11.145Z</time></trkpt><trkpt lat="39.8947019" lon="-2.1770986"><ele>1046.0</ele><time>2026-03-22T11:50:12.131Z</time></trkpt><trkpt lat="39.894789" lon="-2.1771747"><ele>1046.0</ele><time>2026-03-22T11:50:13.14Z</time></trkpt><trkpt lat="39.8948778" lon="-2.1772515"><ele>1046.0</ele><time>2026-03-22T11:50:14.149Z</time></trkpt><trkpt lat="39.8949658" lon="-2.1773511"><ele>1046.0</ele><time>2026-03-22T11:50:15.164Z</time></trkpt><trkpt lat="39.8950646" lon="-2.1774216"><ele>1044.0</ele><time>2026-03-22T11:50:16.141Z</time></trkpt><trkpt lat="39.8951601" lon="-2.1774884"><ele>1042.0</ele><time>2026-03-22T11:50:17.141Z</time></trkpt><trkpt lat="39.8952475" lon="-2.177547"><ele>1040.0</ele><time>2026-03-22T11:50:18.141Z</time></trkpt><trkpt lat="39.8953231" lon="-2.1776075"><ele>1038.0</ele><time>2026-03-22T11:50:19.154Z</time></trkpt><trkpt lat="39.8953985" lon="-2.1776496"><ele>1036.0</ele><time>2026-03-22T11:50:20.155Z</time></trkpt><trkpt lat="39.895471" lon="-2.1776812"><ele>1036.0</ele><time>2026-03-22T11:50:21.154Z</time></trkpt><trkpt lat="39.8955408" lon="-2.1777272"><ele>1036.0</ele><time>2026-03-22T11:50:22.14Z</time></trkpt><trkpt lat="39.8956106" lon="-2.1777942"><ele>1036.0</ele><time>2026-03-22T11:50:23.136Z</time></trkpt><trkpt lat="39.8956771" lon="-2.1778608"><ele>1036.0</ele><time>2026-03-22T11:50:24.127Z</time></trkpt><trkpt lat="39.8957556" lon="-2.1779101"><ele>1036.0</ele><time>2026-03-22T11:50:25.142Z</time></trkpt><trkpt lat="39.8958444" lon="-2.177957"><ele>1036.0</ele><time>2026-03-22T11:50:26.144Z</time></trkpt><trkpt lat="39.8959376" lon="-2.1779951"><ele>1035.0</ele><time>2026-03-22T11:50:27.144Z</time></trkpt><trkpt lat="39.8960289" lon="-2.1780381"><ele>1034.0</ele><time>2026-03-22T11:50:28.154Z</time></trkpt><trkpt lat="39.8961167" lon="-2.1780979"><ele>1033.0</ele><time>2026-03-22T11:50:29.13Z</time></trkpt><trkpt lat="39.8961922" lon="-2.1781544"><ele>1032.0</ele><time>2026-03-22T11:50:30.14Z</time></trkpt><trkpt lat="39.8962652" lon="-2.1782146"><ele>1031.0</ele><time>2026-03-22T11:50:31.153Z</time></trkpt><trkpt lat="39.8963332" lon="-2.1782803"><ele>1031.0</ele><time>2026-03-22T11:50:32.129Z</time></trkpt><trkpt lat="39.8963931" lon="-2.1783468"><ele>1031.0</ele><time>2026-03-22T11:50:33.159Z</time></trkpt><trkpt lat="39.8964372" lon="-2.1784291"><ele>1031.0</ele><time>2026-03-22T11:50:34.137Z</time></trkpt><trkpt lat="39.8964737" lon="-2.1785284"><ele>1031.0</ele><time>2026-03-22T11:50:35.131Z</time></trkpt><trkpt lat="39.8964963" lon="-2.1786431"><ele>1031.0</ele><time>2026-03-22T11:50:36.139Z</time></trkpt><trkpt lat="39.896511" lon="-2.1787658"><ele>1031.0</ele><time>2026-03-22T11:50:37.132Z</time></trkpt><trkpt lat="39.896516" lon="-2.1788846"><ele>1031.0</ele><time>2026-03-22T11:50:38.14Z</time></trkpt><trkpt lat="39.8965247" lon="-2.1790006"><ele>1031.0</ele><time>2026-03-22T11:50:39.141Z</time></trkpt><trkpt lat="39.8965451" lon="-2.1791091"><ele>1031.0</ele><time>2026-03-22T11:50:40.141Z</time></trkpt><trkpt lat="39.8965888" lon="-2.1792045"><ele>1031.0</ele><time>2026-03-22T11:50:41.134Z</time></trkpt><trkpt lat="39.8966538" lon="-2.1793032"><ele>1031.0</ele><time>2026-03-22T11:50:42.137Z</time></trkpt><trkpt lat="39.8967259" lon="-2.179403"><ele>1030.3333333333335</ele><time>2026-03-22T11:50:43.142Z</time></trkpt><trkpt lat="39.8967896" lon="-2.1794964"><ele>1029.6666666666667</ele><time>2026-03-22T11:50:44.149Z</time></trkpt><trkpt lat="39.8968383" lon="-2.1795884"><ele>1029.0</ele><time>2026-03-22T11:50:45.147Z</time></trkpt><trkpt lat="39.8968794" lon="-2.1796787"><ele>1028.3333333333333</ele><time>2026-03-22T11:50:46.143Z</time></trkpt><trkpt lat="39.8969066" lon="-2.1797711"><ele>1027.6666666666665</ele><time>2026-03-22T11:50:47.158Z</time></trkpt><trkpt lat="39.8969269" lon="-2.1798618"><ele>1027.0</ele><time>2026-03-22T11:50:48.135Z</time></trkpt><trkpt lat="39.8969373" lon="-2.1799497"><ele>1024.0</ele><time>2026-03-22T11:50:49.146Z</time></trkpt><trkpt lat="39.89693" lon="-2.1800397"><ele>1021.0</ele><time>2026-03-22T11:50:50.126Z</time></trkpt><trkpt lat="39.8969273" lon="-2.1801281"><ele>1018.0</ele><time>2026-03-22T11:50:51.14Z</time></trkpt><trkpt lat="39.8969533" lon="-2.1802803"><ele>1015.0</ele><time>2026-03-22T11:50:53.134Z</time></trkpt><trkpt lat="39.8970392" lon="-2.1803695"><ele>1012.0</ele><time>2026-03-22T11:50:55.133Z</time></trkpt><trkpt lat="39.8971541" lon="-2.180378"><ele>1012.0000000000001</ele><time>2026-03-22T11:50:57.152Z</time></trkpt><trkpt lat="39.8972122" lon="-2.1803314"><ele>1012.0</ele><time>2026-03-22T11:50:58.133Z</time></trkpt><trkpt lat="39.897274" lon="-2.1802804"><ele>1012.0000000000001</ele><time>2026-03-22T11:50:59.131Z</time></trkpt><trkpt lat="39.8973351" lon="-2.1802234"><ele>1012.0000000000001</ele><time>2026-03-22T11:51:00.18Z</time></trkpt><trkpt lat="39.897395" lon="-2.1801855"><ele>1012.0</ele><time>2026-03-22T11:51:01.14Z</time></trkpt><trkpt lat="39.8974634" lon="-2.180163"><ele>1012.0000000000001</ele><time>2026-03-22T11:51:02.136Z</time></trkpt><trkpt lat="39.8975371" lon="-2.1801611"><ele>1012.0000000000001</ele><time>2026-03-22T11:51:03.137Z</time></trkpt><trkpt lat="39.8976089" lon="-2.1801832"><ele>1011.2</ele><time>2026-03-22T11:51:04.129Z</time></trkpt><trkpt lat="39.8976804" lon="-2.1802277"><ele>1010.4000000000001</ele><time>2026-03-22T11:51:05.15Z</time></trkpt><trkpt lat="39.8977651" lon="-2.1803056"><ele>1009.5999999999999</ele><time>2026-03-22T11:51:06.143Z</time></trkpt><trkpt lat="39.8978626" lon="-2.1803883"><ele>1008.8</ele><time>2026-03-22T11:51:07.139Z</time></trkpt><trkpt lat="39.8979407" lon="-2.1804521"><ele>1008.0</ele><time>2026-03-22T11:51:08.146Z</time></trkpt><trkpt lat="39.8980116" lon="-2.1804945"><ele>1008.0</ele><time>2026-03-22T11:51:09.147Z</time></trkpt><trkpt lat="39.8980823" lon="-2.1805345"><ele>1008.0</ele><time>2026-03-22T11:51:10.132Z</time></trkpt><trkpt lat="39.8981583" lon="-2.1805736"><ele>1008.0</ele><time>2026-03-22T11:51:11.131Z</time></trkpt><trkpt lat="39.8982301" lon="-2.1805932"><ele>1008.0</ele><time>2026-03-22T11:51:12.133Z</time></trkpt><trkpt lat="39.8983042" lon="-2.1805958"><ele>1008.0</ele><time>2026-03-22T11:51:13.133Z</time></trkpt><trkpt lat="39.8983823" lon="-2.1805632"><ele>1008.0</ele><time>2026-03-22T11:51:14.13Z</time></trkpt><trkpt lat="39.898459" lon="-2.1805117"><ele>1007.8333333333334</ele><time>2026-03-22T11:51:15.149Z</time></trkpt><trkpt lat="39.8985266" lon="-2.1804568"><ele>1007.6666666666667</ele><time>2026-03-22T11:51:16.155Z</time></trkpt><trkpt lat="39.898587" lon="-2.1804213"><ele>1007.5</ele><time>2026-03-22T11:51:17.133Z</time></trkpt><trkpt lat="39.8986613" lon="-2.1804313"><ele>1007.3333333333334</ele><time>2026-03-22T11:51:18.138Z</time></trkpt><trkpt lat="39.8987411" lon="-2.1804688"><ele>1007.1666666666667</ele><time>2026-03-22T11:51:19.136Z</time></trkpt><trkpt lat="39.8988204" lon="-2.1805113"><ele>1007.0</ele><time>2026-03-22T11:51:20.15Z</time></trkpt><trkpt lat="39.8988945" lon="-2.180554"><ele>1007.0</ele><time>2026-03-22T11:51:21.148Z</time></trkpt><trkpt lat="39.8989666" lon="-2.1805775"><ele>1007.0</ele><time>2026-03-22T11:51:22.14Z</time></trkpt><trkpt lat="39.8990452" lon="-2.1805645"><ele>1007.0</ele><time>2026-03-22T11:51:23.135Z</time></trkpt><trkpt lat="39.8991234" lon="-2.1805094"><ele>1007.0</ele><time>2026-03-22T11:51:24.137Z</time></trkpt><trkpt lat="39.8992239" lon="-2.1804698"><ele>1007.0</ele><time>2026-03-22T11:51:25.144Z</time></trkpt><trkpt lat="39.8993267" lon="-2.1804571"><ele>1006.8</ele><time>2026-03-22T11:51:26.134Z</time></trkpt><trkpt lat="39.8994198" lon="-2.1804638"><ele>1006.6</ele><time>2026-03-22T11:51:27.127Z</time></trkpt><trkpt lat="39.8995058" lon="-2.1804732"><ele>1006.3999999999999</ele><time>2026-03-22T11:51:28.144Z</time></trkpt><trkpt lat="39.8995982" lon="-2.1804917"><ele>1006.1999999999999</ele><time>2026-03-22T11:51:29.141Z</time></trkpt><trkpt lat="39.8996989" lon="-2.1805028"><ele>1006.0</ele><time>2026-03-22T11:51:30.128Z</time></trkpt><trkpt lat="39.899797" lon="-2.1805117"><ele>1005.9999999999999</ele><time>2026-03-22T11:51:31.13Z</time></trkpt><trkpt lat="39.8998895" lon="-2.1805172"><ele>1006.0</ele><time>2026-03-22T11:51:32.147Z</time></trkpt><trkpt lat="39.8999745" lon="-2.1805224"><ele>1006.0</ele><time>2026-03-22T11:51:33.142Z</time></trkpt><trkpt lat="39.9000551" lon="-2.1805407"><ele>1006.0</ele><time>2026-03-22T11:51:34.14Z</time></trkpt><trkpt lat="39.9001383" lon="-2.1805714"><ele>1005.9999999999999</ele><time>2026-03-22T11:51:35.144Z</time></trkpt><trkpt lat="39.9002337" lon="-2.180618"><ele>1006.0</ele><time>2026-03-22T11:51:36.151Z</time></trkpt><trkpt lat="39.9003323" lon="-2.1806854"><ele>1003.0</ele><time>2026-03-22T11:51:37.133Z</time></trkpt><trkpt lat="39.9004296" lon="-2.1807536"><ele>999.9999999999999</ele><time>2026-03-22T11:51:38.128Z</time></trkpt><trkpt lat="39.900521" lon="-2.1808165"><ele>996.9999999999999</ele><time>2026-03-22T11:51:39.139Z</time></trkpt><trkpt lat="39.9006091" lon="-2.1808642"><ele>994.0</ele><time>2026-03-22T11:51:40.137Z</time></trkpt><trkpt lat="39.9006931" lon="-2.1808979"><ele>991.0</ele><time>2026-03-22T11:51:41.151Z</time></trkpt><trkpt lat="39.9007721" lon="-2.1809258"><ele>991.0</ele><time>2026-03-22T11:51:42.143Z</time></trkpt><trkpt lat="39.9008543" lon="-2.18095"><ele>990.9999999999999</ele><time>2026-03-22T11:51:43.15Z</time></trkpt><trkpt lat="39.9009394" lon="-2.1809756"><ele>990.9999999999999</ele><time>2026-03-22T11:51:44.132Z</time></trkpt><trkpt lat="39.9010118" lon="-2.1810203"><ele>991.0</ele><time>2026-03-22T11:51:45.139Z</time></trkpt><trkpt lat="39.9010926" lon="-2.1811472"><ele>991.0</ele><time>2026-03-22T11:51:47.138Z</time></trkpt><trkpt lat="39.9011115" lon="-2.1812486"><ele>990.8</ele><time>2026-03-22T11:51:48.126Z</time></trkpt><trkpt lat="39.9011048" lon="-2.1813649"><ele>990.5999999999999</ele><time>2026-03-22T11:51:49.151Z</time></trkpt><trkpt lat="39.9010739" lon="-2.1814876"><ele>990.4</ele><time>2026-03-22T11:51:50.131Z</time></trkpt><trkpt lat="39.9010252" lon="-2.1816179"><ele>990.2</ele><time>2026-03-22T11:51:51.148Z</time></trkpt><trkpt lat="39.9009697" lon="-2.1817355"><ele>990.0</ele><time>2026-03-22T11:51:52.131Z</time></trkpt><trkpt lat="39.9008978" lon="-2.1818382"><ele>990.4</ele><time>2026-03-22T11:51:53.142Z</time></trkpt><trkpt lat="39.9008229" lon="-2.181927"><ele>990.8</ele><time>2026-03-22T11:51:54.14Z</time></trkpt><trkpt lat="39.9007508" lon="-2.1820097"><ele>991.2</ele><time>2026-03-22T11:51:55.166Z</time></trkpt><trkpt lat="39.9006941" lon="-2.1821137"><ele>991.6</ele><time>2026-03-22T11:51:56.145Z</time></trkpt><trkpt lat="39.9006492" lon="-2.1822321"><ele>992.0</ele><time>2026-03-22T11:51:57.139Z</time></trkpt><trkpt lat="39.9006041" lon="-2.1823534"><ele>993.6</ele><time>2026-03-22T11:51:58.142Z</time></trkpt><trkpt lat="39.9005569" lon="-2.1824773"><ele>995.2</ele><time>2026-03-22T11:51:59.155Z</time></trkpt><trkpt lat="39.9004977" lon="-2.1825918"><ele>996.8</ele><time>2026-03-22T11:52:00.159Z</time></trkpt><trkpt lat="39.9004187" lon="-2.1826995"><ele>998.4</ele><time>2026-03-22T11:52:01.143Z</time></trkpt><trkpt lat="39.9003391" lon="-2.1828135"><ele>1000.0</ele><time>2026-03-22T11:52:02.146Z</time></trkpt><trkpt lat="39.9002602" lon="-2.1829209"><ele>1000.0</ele><time>2026-03-22T11:52:03.136Z</time></trkpt><trkpt lat="39.9001826" lon="-2.1830228"><ele>1000.0</ele><time>2026-03-22T11:52:04.139Z</time></trkpt><trkpt lat="39.9000967" lon="-2.1831003"><ele>1000.0</ele><time>2026-03-22T11:52:05.158Z</time></trkpt><trkpt lat="39.9000279" lon="-2.1831875"><ele>1000.0</ele><time>2026-03-22T11:52:06.15Z</time></trkpt><trkpt lat="39.8999786" lon="-2.1832974"><ele>1000.0</ele><time>2026-03-22T11:52:07.137Z</time></trkpt><trkpt lat="39.89995" lon="-2.1834288"><ele>1001.4</ele><time>2026-03-22T11:52:08.152Z</time></trkpt><trkpt lat="39.8999204" lon="-2.1835792"><ele>1002.8</ele><time>2026-03-22T11:52:09.136Z</time></trkpt><trkpt lat="39.8999025" lon="-2.1837209"><ele>1004.2</ele><time>2026-03-22T11:52:10.135Z</time></trkpt><trkpt lat="39.899878" lon="-2.1838418"><ele>1005.6</ele><time>2026-03-22T11:52:11.128Z</time></trkpt><trkpt lat="39.8998508" lon="-2.1839596"><ele>1007.0</ele><time>2026-03-22T11:52:12.149Z</time></trkpt><trkpt lat="39.8998269" lon="-2.1840973"><ele>1008.0</ele><time>2026-03-22T11:52:13.138Z</time></trkpt><trkpt lat="39.8998015" lon="-2.1842316"><ele>1009.0</ele><time>2026-03-22T11:52:14.178Z</time></trkpt><trkpt lat="39.899773" lon="-2.1843657"><ele>1010.0</ele><time>2026-03-22T11:52:15.15Z</time></trkpt><trkpt lat="39.8997493" lon="-2.1844936"><ele>1011.0</ele><time>2026-03-22T11:52:16.155Z</time></trkpt><trkpt lat="39.8997392" lon="-2.1846282"><ele>1012.0</ele><time>2026-03-22T11:52:17.137Z</time></trkpt><trkpt lat="39.8997234" lon="-2.1847625"><ele>1013.6</ele><time>2026-03-22T11:52:18.132Z</time></trkpt><trkpt lat="39.8997069" lon="-2.1848976"><ele>1015.2</ele><time>2026-03-22T11:52:19.15Z</time></trkpt><trkpt lat="39.8996928" lon="-2.1850112"><ele>1016.8</ele><time>2026-03-22T11:52:20.144Z</time></trkpt><trkpt lat="39.8996682" lon="-2.1851179"><ele>1018.4</ele><time>2026-03-22T11:52:21.16Z</time></trkpt><trkpt lat="39.8996376" lon="-2.1852251"><ele>1020.0</ele><time>2026-03-22T11:52:22.133Z</time></trkpt><trkpt lat="39.8996121" lon="-2.185337"><ele>1020.0</ele><time>2026-03-22T11:52:23.148Z</time></trkpt><trkpt lat="39.899586" lon="-2.1854517"><ele>1020.0</ele><time>2026-03-22T11:52:24.142Z</time></trkpt><trkpt lat="39.8995564" lon="-2.1855649"><ele>1020.0</ele><time>2026-03-22T11:52:25.14Z</time></trkpt><trkpt lat="39.8995247" lon="-2.1856702"><ele>1020.0</ele><time>2026-03-22T11:52:26.136Z</time></trkpt><trkpt lat="39.8994973" lon="-2.1857728"><ele>1020.0</ele><time>2026-03-22T11:52:27.148Z</time></trkpt><trkpt lat="39.8994799" lon="-2.1858754"><ele>1020.0</ele><time>2026-03-22T11:52:28.154Z</time></trkpt><trkpt lat="39.8994699" lon="-2.1859727"><ele>1021.8333333333334</ele><time>2026-03-22T11:52:29.163Z</time></trkpt><trkpt lat="39.8994804" lon="-2.1860663"><ele>1023.6666666666667</ele><time>2026-03-22T11:52:30.132Z</time></trkpt><trkpt lat="39.8995094" lon="-2.1861569"><ele>1025.5</ele><time>2026-03-22T11:52:31.15Z</time></trkpt><trkpt lat="39.8995508" lon="-2.1862415"><ele>1027.3333333333335</ele><time>2026-03-22T11:52:32.143Z</time></trkpt><trkpt lat="39.8996112" lon="-2.186308"><ele>1029.1666666666667</ele><time>2026-03-22T11:52:33.141Z</time></trkpt><trkpt lat="39.8996847" lon="-2.1863679"><ele>1031.0</ele><time>2026-03-22T11:52:34.143Z</time></trkpt><trkpt lat="39.8997768" lon="-2.1864126"><ele>1031.0</ele><time>2026-03-22T11:52:35.14Z</time></trkpt><trkpt lat="39.8998733" lon="-2.1864339"><ele>1031.0</ele><time>2026-03-22T11:52:36.139Z</time></trkpt><trkpt lat="39.8999604" lon="-2.1864322"><ele>1031.0</ele><time>2026-03-22T11:52:37.139Z</time></trkpt><trkpt lat="39.9000362" lon="-2.1864181"><ele>1031.0</ele><time>2026-03-22T11:52:38.151Z</time></trkpt><trkpt lat="39.9001477" lon="-2.1863734"><ele>1031.0</ele><time>2026-03-22T11:52:40.171Z</time></trkpt><trkpt lat="39.9001623" lon="-2.186248"><ele>1032.3999999999999</ele><time>2026-03-22T11:52:43.152Z</time></trkpt><trkpt lat="39.9001261" lon="-2.1861301"><ele>1033.8</ele><time>2026-03-22T11:52:45.131Z</time></trkpt><trkpt lat="39.90018" lon="-2.1860814"><ele>1035.1999999999998</ele><time>2026-03-22T11:52:48.147Z</time></trkpt><trkpt lat="39.9002551" lon="-2.1861273"><ele>1036.6</ele><time>2026-03-22T11:52:50.213Z</time></trkpt><trkpt lat="39.9003316" lon="-2.1862473"><ele>1038.0</ele><time>2026-03-22T11:52:52.134Z</time></trkpt><trkpt lat="39.9003961" lon="-2.1863356"><ele>1038.0</ele><time>2026-03-22T11:52:53.15Z</time></trkpt><trkpt lat="39.9004732" lon="-2.1864439"><ele>1038.0</ele><time>2026-03-22T11:52:54.135Z</time></trkpt><trkpt lat="39.9005435" lon="-2.1865556"><ele>1038.0</ele><time>2026-03-22T11:52:55.136Z</time></trkpt><trkpt lat="39.9005994" lon="-2.1866539"><ele>1038.0</ele><time>2026-03-22T11:52:56.139Z</time></trkpt><trkpt lat="39.9006415" lon="-2.1867421"><ele>1038.0</ele><time>2026-03-22T11:52:57.142Z</time></trkpt><trkpt lat="39.9006713" lon="-2.1868246"><ele>1039.142857142857</ele><time>2026-03-22T11:52:58.156Z</time></trkpt><trkpt lat="39.9006819" lon="-2.1869087"><ele>1040.2857142857142</ele><time>2026-03-22T11:52:59.15Z</time></trkpt><trkpt lat="39.9006716" lon="-2.1869944"><ele>1041.4285714285713</ele><time>2026-03-22T11:53:00.172Z</time></trkpt><trkpt lat="39.9006408" lon="-2.1870671"><ele>1042.5714285714284</ele><time>2026-03-22T11:53:01.156Z</time></trkpt><trkpt lat="39.9005967" lon="-2.1871286"><ele>1043.7142857142858</ele><time>2026-03-22T11:53:02.15Z</time></trkpt><trkpt lat="39.9005389" lon="-2.187183"><ele>1044.8571428571427</ele><time>2026-03-22T11:53:03.148Z</time></trkpt><trkpt lat="39.9004661" lon="-2.1872411"><ele>1046.0</ele><time>2026-03-22T11:53:04.146Z</time></trkpt><trkpt lat="39.9003898" lon="-2.1873018"><ele>1045.3333333333335</ele><time>2026-03-22T11:53:05.159Z</time></trkpt><trkpt lat="39.9003162" lon="-2.1873632"><ele>1044.6666666666667</ele><time>2026-03-22T11:53:06.139Z</time></trkpt><trkpt lat="39.9002386" lon="-2.187426"><ele>1044.0</ele><time>2026-03-22T11:53:07.18Z</time></trkpt><trkpt lat="39.9001658" lon="-2.1874824"><ele>1043.3333333333333</ele><time>2026-03-22T11:53:08.159Z</time></trkpt><trkpt lat="39.9000827" lon="-2.1875277"><ele>1042.6666666666665</ele><time>2026-03-22T11:53:09.136Z</time></trkpt><trkpt lat="39.8999902" lon="-2.1875607"><ele>1042.0</ele><time>2026-03-22T11:53:10.159Z</time></trkpt><trkpt lat="39.8998984" lon="-2.1875939"><ele>1042.0</ele><time>2026-03-22T11:53:11.137Z</time></trkpt><trkpt lat="39.8998067" lon="-2.1876277"><ele>1042.0</ele><time>2026-03-22T11:53:12.138Z</time></trkpt><trkpt lat="39.899719" lon="-2.187662"><ele>1042.0</ele><time>2026-03-22T11:53:13.151Z</time></trkpt><trkpt lat="39.8996286" lon="-2.1877033"><ele>1042.0</ele><time>2026-03-22T11:53:14.153Z</time></trkpt><trkpt lat="39.8995313" lon="-2.1877519"><ele>1042.0</ele><time>2026-03-22T11:53:15.156Z</time></trkpt><trkpt lat="39.8994404" lon="-2.1878162"><ele>1042.0</ele><time>2026-03-22T11:53:16.159Z</time></trkpt><trkpt lat="39.8993624" lon="-2.187881"><ele>1042.0</ele><time>2026-03-22T11:53:17.144Z</time></trkpt><trkpt lat="39.8992976" lon="-2.1879474"><ele>1042.0</ele><time>2026-03-22T11:53:18.138Z</time></trkpt><trkpt lat="39.8992473" lon="-2.1880309"><ele>1042.0</ele><time>2026-03-22T11:53:19.175Z</time></trkpt><trkpt lat="39.8992141" lon="-2.1881241"><ele>1042.0</ele><time>2026-03-22T11:53:20.141Z</time></trkpt><trkpt lat="39.8991858" lon="-2.1882378"><ele>1042.0</ele><time>2026-03-22T11:53:21.146Z</time></trkpt><trkpt lat="39.8991781" lon="-2.1883818"><ele>1044.2</ele><time>2026-03-22T11:53:22.138Z</time></trkpt><trkpt lat="39.8991698" lon="-2.1885394"><ele>1046.4</ele><time>2026-03-22T11:53:23.136Z</time></trkpt><trkpt lat="39.8991621" lon="-2.1886906"><ele>1048.6</ele><time>2026-03-22T11:53:24.166Z</time></trkpt><trkpt lat="39.8991604" lon="-2.1888275"><ele>1050.8</ele><time>2026-03-22T11:53:25.14Z</time></trkpt><trkpt lat="39.8991492" lon="-2.1889606"><ele>1053.0</ele><time>2026-03-22T11:53:26.148Z</time></trkpt><trkpt lat="39.8991304" lon="-2.1891005"><ele>1053.4</ele><time>2026-03-22T11:53:27.149Z</time></trkpt><trkpt lat="39.8991201" lon="-2.1892509"><ele>1053.8</ele><time>2026-03-22T11:53:28.138Z</time></trkpt><trkpt lat="39.8991126" lon="-2.1893958"><ele>1054.2</ele><time>2026-03-22T11:53:29.146Z</time></trkpt><trkpt lat="39.899109" lon="-2.1895274"><ele>1054.6</ele><time>2026-03-22T11:53:30.138Z</time></trkpt><trkpt lat="39.899117" lon="-2.1896518"><ele>1055.0</ele><time>2026-03-22T11:53:31.168Z</time></trkpt><trkpt lat="39.8991208" lon="-2.1897855"><ele>1056.0</ele><time>2026-03-22T11:53:32.154Z</time></trkpt><trkpt lat="39.8991281" lon="-2.1899278"><ele>1057.0</ele><time>2026-03-22T11:53:33.14Z</time></trkpt><trkpt lat="39.8991339" lon="-2.1900771"><ele>1058.0</ele><time>2026-03-22T11:53:34.142Z</time></trkpt><trkpt lat="39.8991432" lon="-2.1902154"><ele>1059.0</ele><time>2026-03-22T11:53:35.154Z</time></trkpt><trkpt lat="39.8991429" lon="-2.190355"><ele>1060.0</ele><time>2026-03-22T11:53:36.144Z</time></trkpt><trkpt lat="39.8991302" lon="-2.190496"><ele>1060.0</ele><time>2026-03-22T11:53:37.184Z</time></trkpt><trkpt lat="39.8991019" lon="-2.1906325"><ele>1060.0</ele><time>2026-03-22T11:53:38.172Z</time></trkpt><trkpt lat="39.8990656" lon="-2.1907632"><ele>1060.0</ele><time>2026-03-22T11:53:39.14Z</time></trkpt><trkpt lat="39.8990301" lon="-2.1908842"><ele>1060.0</ele><time>2026-03-22T11:53:40.164Z</time></trkpt><trkpt lat="39.898996" lon="-2.1909845"><ele>1060.0</ele><time>2026-03-22T11:53:41.182Z</time></trkpt><trkpt lat="39.8989524" lon="-2.1910727"><ele>1060.0</ele><time>2026-03-22T11:53:42.144Z</time></trkpt><trkpt lat="39.8989081" lon="-2.191158"><ele>1060.0</ele><time>2026-03-22T11:53:43.162Z</time></trkpt><trkpt lat="39.8988772" lon="-2.1912483"><ele>1060.0</ele><time>2026-03-22T11:53:44.187Z</time></trkpt><trkpt lat="39.8988797" lon="-2.1913552"><ele>1060.0</ele><time>2026-03-22T11:53:45.141Z</time></trkpt><trkpt lat="39.8989153" lon="-2.1914658"><ele>1060.0</ele><time>2026-03-22T11:53:46.152Z</time></trkpt><trkpt lat="39.8989579" lon="-2.191576"><ele>1060.0</ele><time>2026-03-22T11:53:47.156Z</time></trkpt><trkpt lat="39.8990162" lon="-2.1916663"><ele>1060.5</ele><time>2026-03-22T11:53:48.133Z</time></trkpt><trkpt lat="39.8990753" lon="-2.1917388"><ele>1061.0</ele><time>2026-03-22T11:53:49.174Z</time></trkpt><trkpt lat="39.8991151" lon="-2.1918106"><ele>1061.5</ele><time>2026-03-22T11:53:50.201Z</time></trkpt><trkpt lat="39.8991357" lon="-2.1918975"><ele>1062.0</ele><time>2026-03-22T11:53:51.198Z</time></trkpt><trkpt lat="39.8991357" lon="-2.192"><ele>1062.5</ele><time>2026-03-22T11:53:52.156Z</time></trkpt><trkpt lat="39.8991321" lon="-2.1921154"><ele>1063.0</ele><time>2026-03-22T11:53:53.152Z</time></trkpt><trkpt lat="39.8991195" lon="-2.1922282"><ele>1063.0</ele><time>2026-03-22T11:53:54.187Z</time></trkpt><trkpt lat="39.899103" lon="-2.1923271"><ele>1063.0</ele><time>2026-03-22T11:53:55.139Z</time></trkpt><trkpt lat="39.8990872" lon="-2.1924634"><ele>1063.0</ele><time>2026-03-22T11:53:57.146Z</time></trkpt><trkpt lat="39.8991019" lon="-2.1925666"><ele>1063.0</ele><time>2026-03-22T11:53:59.172Z</time></trkpt><trkpt lat="39.899162" lon="-2.1926611"><ele>1063.0</ele><time>2026-03-22T11:54:01.209Z</time></trkpt><trkpt lat="39.8992691" lon="-2.1927245"><ele>1061.1666666666665</ele><time>2026-03-22T11:54:03.153Z</time></trkpt><trkpt lat="39.8993868" lon="-2.1927592"><ele>1059.3333333333333</ele><time>2026-03-22T11:54:05.186Z</time></trkpt><trkpt lat="39.8994556" lon="-2.1927567"><ele>1057.5</ele><time>2026-03-22T11:54:06.154Z</time></trkpt><trkpt lat="39.8995266" lon="-2.1927452"><ele>1055.6666666666667</ele><time>2026-03-22T11:54:07.152Z</time></trkpt><trkpt lat="39.8995972" lon="-2.1927322"><ele>1053.8333333333335</ele><time>2026-03-22T11:54:08.175Z</time></trkpt><trkpt lat="39.8996679" lon="-2.1927252"><ele>1052.0</ele><time>2026-03-22T11:54:09.16Z</time></trkpt><trkpt lat="39.8997366" lon="-2.1927323"><ele>1052.0</ele><time>2026-03-22T11:54:10.135Z</time></trkpt><trkpt lat="39.8998058" lon="-2.192754"><ele>1052.0</ele><time>2026-03-22T11:54:11.149Z</time></trkpt><trkpt lat="39.8998772" lon="-2.1927951"><ele>1052.0</ele><time>2026-03-22T11:54:12.199Z</time></trkpt><trkpt lat="39.8999462" lon="-2.1928482"><ele>1052.0</ele><time>2026-03-22T11:54:13.149Z</time></trkpt><trkpt lat="39.9000067" lon="-2.1929073"><ele>1052.0</ele><time>2026-03-22T11:54:14.149Z</time></trkpt><trkpt lat="39.9000572" lon="-2.1929754"><ele>1052.0</ele><time>2026-03-22T11:54:15.138Z</time></trkpt><trkpt lat="39.9000993" lon="-2.1930425"><ele>1052.0</ele><time>2026-03-22T11:54:16.174Z</time></trkpt><trkpt lat="39.9001782" lon="-2.1931782"><ele>1053.3333333333335</ele><time>2026-03-22T11:54:18.149Z</time></trkpt><trkpt lat="39.9002195" lon="-2.1932605"><ele>1054.6666666666667</ele><time>2026-03-22T11:54:19.168Z</time></trkpt><trkpt lat="39.9002565" lon="-2.1933453"><ele>1056.0</ele><time>2026-03-22T11:54:20.171Z</time></trkpt><trkpt lat="39.900284" lon="-2.1934207"><ele>1057.3333333333333</ele><time>2026-03-22T11:54:21.155Z</time></trkpt><trkpt lat="39.9003225" lon="-2.1935369"><ele>1058.6666666666665</ele><time>2026-03-22T11:54:23.156Z</time></trkpt><trkpt lat="39.9003371" lon="-2.1936227"><ele>1060.0</ele><time>2026-03-22T11:54:25.167Z</time></trkpt><trkpt lat="39.9003087" lon="-2.1937225"><ele>1060.0</ele><time>2026-03-22T11:54:28.156Z</time></trkpt><trkpt lat="39.9002453" lon="-2.1938044"><ele>1060.0</ele><time>2026-03-22T11:54:30.224Z</time></trkpt><trkpt lat="39.9001942" lon="-2.1938532"><ele>1060.0</ele><time>2026-03-22T11:54:31.206Z</time></trkpt><trkpt lat="39.9001167" lon="-2.1938941"><ele>1060.0</ele><time>2026-03-22T11:54:32.156Z</time></trkpt><trkpt lat="39.9000275" lon="-2.193943"><ele>1060.0</ele><time>2026-03-22T11:54:33.144Z</time></trkpt><trkpt lat="39.8999432" lon="-2.1940009"><ele>1060.0</ele><time>2026-03-22T11:54:34.151Z</time></trkpt><trkpt lat="39.8998623" lon="-2.1940889"><ele>1063.4</ele><time>2026-03-22T11:54:35.153Z</time></trkpt><trkpt lat="39.8997935" lon="-2.1941899"><ele>1066.8</ele><time>2026-03-22T11:54:36.174Z</time></trkpt><trkpt lat="39.8997243" lon="-2.1942945"><ele>1070.2</ele><time>2026-03-22T11:54:37.153Z</time></trkpt><trkpt lat="39.8996528" lon="-2.1943966"><ele>1073.6</ele><time>2026-03-22T11:54:38.152Z</time></trkpt><trkpt lat="39.8996002" lon="-2.1944731"><ele>1077.0</ele><time>2026-03-22T11:54:39.149Z</time></trkpt><trkpt lat="39.89956" lon="-2.1945847"><ele>1077.0</ele><time>2026-03-22T11:54:41.163Z</time></trkpt><trkpt lat="39.8995376" lon="-2.194717"><ele>1077.0</ele><time>2026-03-22T11:54:43.145Z</time></trkpt><trkpt lat="39.8995417" lon="-2.1948047"><ele>1077.0</ele><time>2026-03-22T11:54:44.159Z</time></trkpt><trkpt lat="39.8995513" lon="-2.1948921"><ele>1077.0</ele><time>2026-03-22T11:54:45.202Z</time></trkpt><trkpt lat="39.8995857" lon="-2.1950397"><ele>1077.0</ele><time>2026-03-22T11:54:47.139Z</time></trkpt><trkpt lat="39.8996526" lon="-2.1951851"><ele>1077.0</ele><time>2026-03-22T11:54:49.174Z</time></trkpt><trkpt lat="39.8997155" lon="-2.1953106"><ele>1077.0</ele><time>2026-03-22T11:54:51.145Z</time></trkpt><trkpt lat="39.8997452" lon="-2.1953851"><ele>1077.0</ele><time>2026-03-22T11:54:52.147Z</time></trkpt><trkpt lat="39.8997807" lon="-2.195453"><ele>1077.0</ele><time>2026-03-22T11:54:53.136Z</time></trkpt><trkpt lat="39.8998194" lon="-2.1955242"><ele>1077.0</ele><time>2026-03-22T11:54:54.144Z</time></trkpt><trkpt lat="39.8998783" lon="-2.1955903"><ele>1077.0</ele><time>2026-03-22T11:54:55.147Z</time></trkpt><trkpt lat="39.8999299" lon="-2.1956602"><ele>1077.6666666666667</ele><time>2026-03-22T11:54:56.152Z</time></trkpt><trkpt lat="39.899976" lon="-2.1957365"><ele>1078.3333333333333</ele><time>2026-03-22T11:54:57.146Z</time></trkpt><trkpt lat="39.9000119" lon="-2.1958224"><ele>1079.0</ele><time>2026-03-22T11:54:58.149Z</time></trkpt><trkpt lat="39.9000335" lon="-2.1959204"><ele>1079.6666666666665</ele><time>2026-03-22T11:54:59.155Z</time></trkpt><trkpt lat="39.9000546" lon="-2.1960223"><ele>1080.3333333333333</ele><time>2026-03-22T11:55:00.162Z</time></trkpt><trkpt lat="39.9000744" lon="-2.1961297"><ele>1081.0</ele><time>2026-03-22T11:55:01.154Z</time></trkpt><trkpt lat="39.9000911" lon="-2.1962469"><ele>1079.1666666666665</ele><time>2026-03-22T11:55:02.133Z</time></trkpt><trkpt lat="39.9001039" lon="-2.1963603"><ele>1077.3333333333333</ele><time>2026-03-22T11:55:03.158Z</time></trkpt><trkpt lat="39.9001173" lon="-2.1964693"><ele>1075.5</ele><time>2026-03-22T11:55:04.139Z</time></trkpt><trkpt lat="39.9001299" lon="-2.19657"><ele>1073.6666666666667</ele><time>2026-03-22T11:55:05.145Z</time></trkpt><trkpt lat="39.9001387" lon="-2.1966612"><ele>1071.8333333333335</ele><time>2026-03-22T11:55:06.154Z</time></trkpt><trkpt lat="39.9001453" lon="-2.1967437"><ele>1070.0</ele><time>2026-03-22T11:55:07.135Z</time></trkpt><trkpt lat="39.9001755" lon="-2.1968909"><ele>1069.6</ele><time>2026-03-22T11:55:09.135Z</time></trkpt><trkpt lat="39.9002357" lon="-2.1970181"><ele>1069.2</ele><time>2026-03-22T11:55:11.149Z</time></trkpt><trkpt lat="39.9003134" lon="-2.1971442"><ele>1068.8</ele><time>2026-03-22T11:55:13.144Z</time></trkpt><trkpt lat="39.9003579" lon="-2.1972065"><ele>1068.4</ele><time>2026-03-22T11:55:14.137Z</time></trkpt><trkpt lat="39.9004025" lon="-2.1972667"><ele>1068.0</ele><time>2026-03-22T11:55:15.149Z</time></trkpt><trkpt lat="39.9004828" lon="-2.1973815"><ele>1068.0</ele><time>2026-03-22T11:55:17.145Z</time></trkpt><trkpt lat="39.900561" lon="-2.1974931"><ele>1068.0</ele><time>2026-03-22T11:55:19.134Z</time></trkpt><trkpt lat="39.9006427" lon="-2.1976144"><ele>1068.0</ele><time>2026-03-22T11:55:21.136Z</time></trkpt><trkpt lat="39.9006888" lon="-2.1976904"><ele>1068.0</ele><time>2026-03-22T11:55:22.147Z</time></trkpt><trkpt lat="39.900731" lon="-2.197769"><ele>1068.0</ele><time>2026-03-22T11:55:23.145Z</time></trkpt><trkpt lat="39.9007661" lon="-2.1978454"><ele>1068.0</ele><time>2026-03-22T11:55:24.153Z</time></trkpt><trkpt lat="39.9008005" lon="-2.1979154"><ele>1068.0</ele><time>2026-03-22T11:55:25.16Z</time></trkpt><trkpt lat="39.9008727" lon="-2.1980392"><ele>1068.0</ele><time>2026-03-22T11:55:27.155Z</time></trkpt><trkpt lat="39.9009249" lon="-2.1981004"><ele>1068.0</ele><time>2026-03-22T11:55:28.141Z</time></trkpt><trkpt lat="39.901011" lon="-2.1981622"><ele>1068.0</ele><time>2026-03-22T11:55:29.14Z</time></trkpt><trkpt lat="39.90112" lon="-2.1982289"><ele>1067.0</ele><time>2026-03-22T11:55:30.139Z</time></trkpt><trkpt lat="39.9012215" lon="-2.1983027"><ele>1066.0</ele><time>2026-03-22T11:55:31.136Z</time></trkpt><trkpt lat="39.9013109" lon="-2.1983803"><ele>1065.0</ele><time>2026-03-22T11:55:32.143Z</time></trkpt><trkpt lat="39.9013955" lon="-2.1984462"><ele>1064.0</ele><time>2026-03-22T11:55:33.148Z</time></trkpt><trkpt lat="39.9014855" lon="-2.1985103"><ele>1063.0</ele><time>2026-03-22T11:55:34.167Z</time></trkpt><trkpt lat="39.9015811" lon="-2.1985784"><ele>1063.0</ele><time>2026-03-22T11:55:35.14Z</time></trkpt><trkpt lat="39.901675" lon="-2.1986456"><ele>1063.0</ele><time>2026-03-22T11:55:36.157Z</time></trkpt><trkpt lat="39.9017626" lon="-2.1987089"><ele>1063.0</ele><time>2026-03-22T11:55:37.152Z</time></trkpt><trkpt lat="39.9018448" lon="-2.1987656"><ele>1063.0</ele><time>2026-03-22T11:55:38.149Z</time></trkpt><trkpt lat="39.9019199" lon="-2.1988291"><ele>1063.0</ele><time>2026-03-22T11:55:39.15Z</time></trkpt><trkpt lat="39.9019976" lon="-2.1988668"><ele>1061.4</ele><time>2026-03-22T11:55:40.146Z</time></trkpt><trkpt lat="39.9020818" lon="-2.1988921"><ele>1059.8</ele><time>2026-03-22T11:55:41.133Z</time></trkpt><trkpt lat="39.9021741" lon="-2.1989185"><ele>1058.2</ele><time>2026-03-22T11:55:42.15Z</time></trkpt><trkpt lat="39.9022703" lon="-2.1989277"><ele>1056.6</ele><time>2026-03-22T11:55:43.133Z</time></trkpt><trkpt lat="39.9023666" lon="-2.1989399"><ele>1055.0</ele><time>2026-03-22T11:55:44.145Z</time></trkpt><trkpt lat="39.9024625" lon="-2.1989646"><ele>1055.0</ele><time>2026-03-22T11:55:45.147Z</time></trkpt><trkpt lat="39.9025618" lon="-2.1989695"><ele>1055.0</ele><time>2026-03-22T11:55:46.143Z</time></trkpt><trkpt lat="39.902665" lon="-2.1989645"><ele>1055.0</ele><time>2026-03-22T11:55:47.166Z</time></trkpt><trkpt lat="39.9027719" lon="-2.1989509"><ele>1055.0</ele><time>2026-03-22T11:55:48.151Z</time></trkpt><trkpt lat="39.9028771" lon="-2.1989315"><ele>1055.0</ele><time>2026-03-22T11:55:49.141Z</time></trkpt><trkpt lat="39.9029768" lon="-2.1989163"><ele>1053.8</ele><time>2026-03-22T11:55:50.146Z</time></trkpt><trkpt lat="39.9030713" lon="-2.1988948"><ele>1052.6</ele><time>2026-03-22T11:55:51.137Z</time></trkpt><trkpt lat="39.9031646" lon="-2.1988745"><ele>1051.4</ele><time>2026-03-22T11:55:52.141Z</time></trkpt><trkpt lat="39.9032554" lon="-2.1988471"><ele>1050.2</ele><time>2026-03-22T11:55:53.148Z</time></trkpt><trkpt lat="39.9033462" lon="-2.1988254"><ele>1049.0</ele><time>2026-03-22T11:55:54.156Z</time></trkpt><trkpt lat="39.9034327" lon="-2.1988161"><ele>1048.8</ele><time>2026-03-22T11:55:55.139Z</time></trkpt><trkpt lat="39.9035105" lon="-2.1988576"><ele>1048.6000000000001</ele><time>2026-03-22T11:55:56.131Z</time></trkpt><trkpt lat="39.9035936" lon="-2.1989269"><ele>1048.4</ele><time>2026-03-22T11:55:57.163Z</time></trkpt><trkpt lat="39.9036799" lon="-2.1989883"><ele>1048.2</ele><time>2026-03-22T11:55:58.146Z</time></trkpt><trkpt lat="39.9037718" lon="-2.1990452"><ele>1048.0</ele><time>2026-03-22T11:55:59.157Z</time></trkpt><trkpt lat="39.9038713" lon="-2.1990719"><ele>1048.6</ele><time>2026-03-22T11:56:00.177Z</time></trkpt><trkpt lat="39.9039684" lon="-2.1991053"><ele>1049.1999999999998</ele><time>2026-03-22T11:56:01.144Z</time></trkpt><trkpt lat="39.9040619" lon="-2.1991381"><ele>1049.8</ele><time>2026-03-22T11:56:02.144Z</time></trkpt><trkpt lat="39.9041497" lon="-2.1991734"><ele>1050.3999999999999</ele><time>2026-03-22T11:56:03.146Z</time></trkpt><trkpt lat="39.9042405" lon="-2.1992146"><ele>1051.0</ele><time>2026-03-22T11:56:04.137Z</time></trkpt><trkpt lat="39.9043407" lon="-2.1992478"><ele>1047.75</ele><time>2026-03-22T11:56:05.131Z</time></trkpt><trkpt lat="39.9044449" lon="-2.199286"><ele>1044.5</ele><time>2026-03-22T11:56:06.152Z</time></trkpt><trkpt lat="39.9045532" lon="-2.199324"><ele>1041.25</ele><time>2026-03-22T11:56:07.153Z</time></trkpt><trkpt lat="39.9046657" lon="-2.1993696"><ele>1038.0</ele><time>2026-03-22T11:56:08.137Z</time></trkpt><trkpt lat="39.9047822" lon="-2.1994192"><ele>1038.0</ele><time>2026-03-22T11:56:09.145Z</time></trkpt><trkpt lat="39.9048981" lon="-2.1994662"><ele>1038.0</ele><time>2026-03-22T11:56:10.147Z</time></trkpt><trkpt lat="39.9050121" lon="-2.199515"><ele>1038.0</ele><time>2026-03-22T11:56:11.151Z</time></trkpt><trkpt lat="39.905129" lon="-2.1995507"><ele>1038.0</ele><time>2026-03-22T11:56:12.149Z</time></trkpt><trkpt lat="39.9052408" lon="-2.1996056"><ele>1037.25</ele><time>2026-03-22T11:56:13.141Z</time></trkpt><trkpt lat="39.9053551" lon="-2.1996635"><ele>1036.5</ele><time>2026-03-22T11:56:14.155Z</time></trkpt><trkpt lat="39.9054729" lon="-2.19973"><ele>1035.75</ele><time>2026-03-22T11:56:15.15Z</time></trkpt><trkpt lat="39.90559" lon="-2.1998032"><ele>1035.0</ele><time>2026-03-22T11:56:16.149Z</time></trkpt><trkpt lat="39.9057036" lon="-2.1998791"><ele>1035.0</ele><time>2026-03-22T11:56:17.151Z</time></trkpt><trkpt lat="39.9058086" lon="-2.1999554"><ele>1035.0</ele><time>2026-03-22T11:56:18.139Z</time></trkpt><trkpt lat="39.9059069" lon="-2.2000234"><ele>1035.0</ele><time>2026-03-22T11:56:19.139Z</time></trkpt><trkpt lat="39.9059972" lon="-2.2000864"><ele>1035.0</ele><time>2026-03-22T11:56:20.147Z</time></trkpt><trkpt lat="39.9060784" lon="-2.2001554"><ele>1035.0</ele><time>2026-03-22T11:56:21.14Z</time></trkpt><trkpt lat="39.9061571" lon="-2.2002197"><ele>1033.6666666666667</ele><time>2026-03-22T11:56:22.142Z</time></trkpt><trkpt lat="39.9062353" lon="-2.2002745"><ele>1032.3333333333333</ele><time>2026-03-22T11:56:23.135Z</time></trkpt><trkpt lat="39.9063113" lon="-2.2003244"><ele>1031.0</ele><time>2026-03-22T11:56:24.141Z</time></trkpt><trkpt lat="39.9063901" lon="-2.2003613"><ele>1029.6666666666665</ele><time>2026-03-22T11:56:25.146Z</time></trkpt><trkpt lat="39.9064663" lon="-2.2004048"><ele>1028.3333333333333</ele><time>2026-03-22T11:56:26.153Z</time></trkpt><trkpt lat="39.9065435" lon="-2.2004466"><ele>1027.0</ele><time>2026-03-22T11:56:27.138Z</time></trkpt><trkpt lat="39.9066188" lon="-2.2004888"><ele>1027.0</ele><time>2026-03-22T11:56:28.143Z</time></trkpt><trkpt lat="39.9066877" lon="-2.2005343"><ele>1027.0</ele><time>2026-03-22T11:56:29.143Z</time></trkpt><trkpt lat="39.9067536" lon="-2.2005819"><ele>1027.0</ele><time>2026-03-22T11:56:30.14Z</time></trkpt><trkpt lat="39.9068187" lon="-2.200627"><ele>1027.0</ele><time>2026-03-22T11:56:31.128Z</time></trkpt><trkpt lat="39.9068858" lon="-2.2006609"><ele>1027.0</ele><time>2026-03-22T11:56:32.139Z</time></trkpt><trkpt lat="39.9069631" lon="-2.200698"><ele>1027.0</ele><time>2026-03-22T11:56:33.159Z</time></trkpt><trkpt lat="39.9070465" lon="-2.2007144"><ele>1025.857142857143</ele><time>2026-03-22T11:56:34.157Z</time></trkpt><trkpt lat="39.9071263" lon="-2.2007157"><ele>1024.7142857142858</ele><time>2026-03-22T11:56:35.137Z</time></trkpt><trkpt lat="39.9072001" lon="-2.2007062"><ele>1023.5714285714287</ele><time>2026-03-22T11:56:36.142Z</time></trkpt><trkpt lat="39.9072652" lon="-2.2006847"><ele>1022.4285714285716</ele><time>2026-03-22T11:56:37.14Z</time></trkpt><trkpt lat="39.9073347" lon="-2.200652"><ele>1021.2857142857143</ele><time>2026-03-22T11:56:38.137Z</time></trkpt><trkpt lat="39.9074028" lon="-2.200611"><ele>1020.1428571428573</ele><time>2026-03-22T11:56:39.146Z</time></trkpt><trkpt lat="39.9074648" lon="-2.2005681"><ele>1019.0000000000001</ele><time>2026-03-22T11:56:40.14Z</time></trkpt><trkpt lat="39.9075239" lon="-2.2005193"><ele>1016.4285714285716</ele><time>2026-03-22T11:56:41.139Z</time></trkpt><trkpt lat="39.9075838" lon="-2.2004614"><ele>1013.8571428571429</ele><time>2026-03-22T11:56:42.143Z</time></trkpt><trkpt lat="39.9076452" lon="-2.2004109"><ele>1011.2857142857143</ele><time>2026-03-22T11:56:43.156Z</time></trkpt><trkpt lat="39.9077117" lon="-2.2003644"><ele>1008.7142857142858</ele><time>2026-03-22T11:56:44.14Z</time></trkpt><trkpt lat="39.9077857" lon="-2.2003379"><ele>1006.1428571428571</ele><time>2026-03-22T11:56:45.15Z</time></trkpt><trkpt lat="39.9078548" lon="-2.2003074"><ele>1003.5714285714286</ele><time>2026-03-22T11:56:46.155Z</time></trkpt><trkpt lat="39.9079198" lon="-2.2002703"><ele>1001.0</ele><time>2026-03-22T11:56:47.135Z</time></trkpt><trkpt lat="39.9079835" lon="-2.2002241"><ele>1001.0000000000001</ele><time>2026-03-22T11:56:48.147Z</time></trkpt><trkpt lat="39.9080509" lon="-2.2001772"><ele>1001.0</ele><time>2026-03-22T11:56:49.157Z</time></trkpt><trkpt lat="39.9081221" lon="-2.2001319"><ele>1001.0</ele><time>2026-03-22T11:56:50.148Z</time></trkpt><trkpt lat="39.9081994" lon="-2.2001019"><ele>1001.0</ele><time>2026-03-22T11:56:51.143Z</time></trkpt><trkpt lat="39.9082782" lon="-2.2000886"><ele>1001.0000000000001</ele><time>2026-03-22T11:56:52.156Z</time></trkpt><trkpt lat="39.90835" lon="-2.2000773"><ele>1001.0</ele><time>2026-03-22T11:56:53.146Z</time></trkpt><trkpt lat="39.9084185" lon="-2.200065"><ele>1000.1666666666667</ele><time>2026-03-22T11:56:54.144Z</time></trkpt><trkpt lat="39.9084847" lon="-2.2000593"><ele>999.3333333333334</ele><time>2026-03-22T11:56:55.164Z</time></trkpt><trkpt lat="39.9085601" lon="-2.2000408"><ele>998.5</ele><time>2026-03-22T11:56:56.159Z</time></trkpt><trkpt lat="39.9086371" lon="-2.2000464"><ele>997.6666666666667</ele><time>2026-03-22T11:56:57.154Z</time></trkpt><trkpt lat="39.9087183" lon="-2.2000451"><ele>996.8333333333334</ele><time>2026-03-22T11:56:58.134Z</time></trkpt><trkpt lat="39.9088" lon="-2.2000407"><ele>996.0</ele><time>2026-03-22T11:56:59.142Z</time></trkpt><trkpt lat="39.9088851" lon="-2.2000419"><ele>996.0</ele><time>2026-03-22T11:57:00.191Z</time></trkpt><trkpt lat="39.9089726" lon="-2.2000372"><ele>996.0</ele><time>2026-03-22T11:57:01.145Z</time></trkpt><trkpt lat="39.9090593" lon="-2.2000383"><ele>996.0</ele><time>2026-03-22T11:57:02.166Z</time></trkpt><trkpt lat="39.9091444" lon="-2.20004"><ele>996.0</ele><time>2026-03-22T11:57:03.137Z</time></trkpt><trkpt lat="39.9092279" lon="-2.200024"><ele>996.0</ele><time>2026-03-22T11:57:04.152Z</time></trkpt><trkpt lat="39.9093104" lon="-2.2000017"><ele>996.0</ele><time>2026-03-22T11:57:05.141Z</time></trkpt><trkpt lat="39.9094003" lon="-2.19998"><ele>994.3333333333334</ele><time>2026-03-22T11:57:06.137Z</time></trkpt><trkpt lat="39.90949" lon="-2.1999536"><ele>992.6666666666667</ele><time>2026-03-22T11:57:07.151Z</time></trkpt><trkpt lat="39.9095782" lon="-2.1999367"><ele>991.0</ele><time>2026-03-22T11:57:08.148Z</time></trkpt><trkpt lat="39.909661" lon="-2.1999171"><ele>989.3333333333334</ele><time>2026-03-22T11:57:09.156Z</time></trkpt><trkpt lat="39.9097381" lon="-2.1998834"><ele>987.6666666666667</ele><time>2026-03-22T11:57:10.147Z</time></trkpt><trkpt lat="39.9098117" lon="-2.19985"><ele>986.0</ele><time>2026-03-22T11:57:11.139Z</time></trkpt><trkpt lat="39.9098855" lon="-2.1998168"><ele>985.3333333333334</ele><time>2026-03-22T11:57:12.145Z</time></trkpt><trkpt lat="39.9099615" lon="-2.1997811"><ele>984.6666666666667</ele><time>2026-03-22T11:57:13.138Z</time></trkpt><trkpt lat="39.9100409" lon="-2.1997426"><ele>984.0</ele><time>2026-03-22T11:57:14.167Z</time></trkpt><trkpt lat="39.9101249" lon="-2.199712"><ele>983.3333333333333</ele><time>2026-03-22T11:57:15.152Z</time></trkpt><trkpt lat="39.9102066" lon="-2.199682"><ele>982.6666666666666</ele><time>2026-03-22T11:57:16.144Z</time></trkpt><trkpt lat="39.9102896" lon="-2.1996687"><ele>982.0</ele><time>2026-03-22T11:57:17.139Z</time></trkpt><trkpt lat="39.9103715" lon="-2.1996482"><ele>981.3333333333333</ele><time>2026-03-22T11:57:18.149Z</time></trkpt><trkpt lat="39.9104466" lon="-2.19963"><ele>980.6666666666666</ele><time>2026-03-22T11:57:19.145Z</time></trkpt><trkpt lat="39.9105188" lon="-2.1996117"><ele>980.0</ele><time>2026-03-22T11:57:20.172Z</time></trkpt><trkpt lat="39.9105905" lon="-2.1995917"><ele>979.3333333333333</ele><time>2026-03-22T11:57:21.137Z</time></trkpt><trkpt lat="39.9106611" lon="-2.1995605"><ele>978.6666666666666</ele><time>2026-03-22T11:57:22.161Z</time></trkpt><trkpt lat="39.9107309" lon="-2.1995196"><ele>978.0</ele><time>2026-03-22T11:57:23.156Z</time></trkpt><trkpt lat="39.9108004" lon="-2.1994561"><ele>978.0</ele><time>2026-03-22T11:57:24.154Z</time></trkpt><trkpt lat="39.9108691" lon="-2.19938"><ele>978.0</ele><time>2026-03-22T11:57:25.152Z</time></trkpt><trkpt lat="39.9109349" lon="-2.1992917"><ele>978.0</ele><time>2026-03-22T11:57:26.153Z</time></trkpt><trkpt lat="39.9109993" lon="-2.1992"><ele>978.0</ele><time>2026-03-22T11:57:27.139Z</time></trkpt><trkpt lat="39.9110635" lon="-2.199107"><ele>978.0</ele><time>2026-03-22T11:57:28.156Z</time></trkpt><trkpt lat="39.9111327" lon="-2.1990094"><ele>975.2</ele><time>2026-03-22T11:57:29.149Z</time></trkpt><trkpt lat="39.9112157" lon="-2.1989258"><ele>972.4</ele><time>2026-03-22T11:57:30.144Z</time></trkpt><trkpt lat="39.9112889" lon="-2.1988274"><ele>969.6000000000001</ele><time>2026-03-22T11:57:31.149Z</time></trkpt><trkpt lat="39.9113574" lon="-2.198735"><ele>966.8000000000001</ele><time>2026-03-22T11:57:32.146Z</time></trkpt><trkpt lat="39.9114229" lon="-2.1986587"><ele>964.0</ele><time>2026-03-22T11:57:33.136Z</time></trkpt><trkpt lat="39.9114808" lon="-2.1985936"><ele>963.9999999999999</ele><time>2026-03-22T11:57:34.134Z</time></trkpt><trkpt lat="39.9115346" lon="-2.1985365"><ele>964.0</ele><time>2026-03-22T11:57:35.156Z</time></trkpt><trkpt lat="39.9115988" lon="-2.1984942"><ele>964.0</ele><time>2026-03-22T11:57:36.137Z</time></trkpt><trkpt lat="39.9116751" lon="-2.198462"><ele>964.0</ele><time>2026-03-22T11:57:37.165Z</time></trkpt><trkpt lat="39.9117583" lon="-2.1984076"><ele>963.9999999999999</ele><time>2026-03-22T11:57:38.142Z</time></trkpt><trkpt lat="39.911862" lon="-2.1983833"><ele>964.0</ele><time>2026-03-22T11:57:39.148Z</time></trkpt><trkpt lat="39.9119744" lon="-2.1983492"><ele>962.25</ele><time>2026-03-22T11:57:40.136Z</time></trkpt><trkpt lat="39.9120882" lon="-2.1982853"><ele>960.5</ele><time>2026-03-22T11:57:41.145Z</time></trkpt><trkpt lat="39.9122033" lon="-2.1982221"><ele>958.75</ele><time>2026-03-22T11:57:42.141Z</time></trkpt><trkpt lat="39.9123222" lon="-2.1981543"><ele>957.0</ele><time>2026-03-22T11:57:43.15Z</time></trkpt><trkpt lat="39.9124482" lon="-2.1980929"><ele>955.5</ele><time>2026-03-22T11:57:44.153Z</time></trkpt><trkpt lat="39.9125765" lon="-2.1980321"><ele>954.0</ele><time>2026-03-22T11:57:45.149Z</time></trkpt><trkpt lat="39.9127054" lon="-2.1979845"><ele>952.5</ele><time>2026-03-22T11:57:46.15Z</time></trkpt><trkpt lat="39.9128178" lon="-2.1979241"><ele>951.0</ele><time>2026-03-22T11:57:47.133Z</time></trkpt><trkpt lat="39.9129256" lon="-2.1978833"><ele>951.0</ele><time>2026-03-22T11:57:48.151Z</time></trkpt><trkpt lat="39.9130459" lon="-2.1978465"><ele>951.0</ele><time>2026-03-22T11:57:49.143Z</time></trkpt><trkpt lat="39.9131694" lon="-2.1978037"><ele>951.0</ele><time>2026-03-22T11:57:50.139Z</time></trkpt><trkpt lat="39.9132869" lon="-2.1977474"><ele>951.0</ele><time>2026-03-22T11:57:51.147Z</time></trkpt><trkpt lat="39.9134018" lon="-2.1976739"><ele>950.5</ele><time>2026-03-22T11:57:52.131Z</time></trkpt><trkpt lat="39.9135146" lon="-2.1975919"><ele>950.0</ele><time>2026-03-22T11:57:53.167Z</time></trkpt><trkpt lat="39.9136274" lon="-2.1975091"><ele>949.5</ele><time>2026-03-22T11:57:54.173Z</time></trkpt><trkpt lat="39.913738" lon="-2.1974285"><ele>949.0</ele><time>2026-03-22T11:57:55.188Z</time></trkpt><trkpt lat="39.9138466" lon="-2.1973473"><ele>948.5</ele><time>2026-03-22T11:57:56.173Z</time></trkpt><trkpt lat="39.9139528" lon="-2.1972753"><ele>948.0</ele><time>2026-03-22T11:57:57.151Z</time></trkpt><trkpt lat="39.9140567" lon="-2.1972039"><ele>947.5</ele><time>2026-03-22T11:57:58.209Z</time></trkpt><trkpt lat="39.9141553" lon="-2.1971342"><ele>947.0</ele><time>2026-03-22T11:57:59.157Z</time></trkpt><trkpt lat="39.9142513" lon="-2.1970795"><ele>945.6</ele><time>2026-03-22T11:58:00.199Z</time></trkpt><trkpt lat="39.9143424" lon="-2.1969997"><ele>944.2</ele><time>2026-03-22T11:58:01.144Z</time></trkpt><trkpt lat="39.9144255" lon="-2.1969652"><ele>942.8</ele><time>2026-03-22T11:58:02.147Z</time></trkpt><trkpt lat="39.9144978" lon="-2.196938"><ele>941.4</ele><time>2026-03-22T11:58:03.186Z</time></trkpt><trkpt lat="39.914565" lon="-2.1969278"><ele>940.0</ele><time>2026-03-22T11:58:04.19Z</time></trkpt><trkpt lat="39.9146803" lon="-2.1969192"><ele>939.9999999999999</ele><time>2026-03-22T11:58:06.14Z</time></trkpt><trkpt lat="39.9147909" lon="-2.1969565"><ele>940.0</ele><time>2026-03-22T11:58:08.153Z</time></trkpt><trkpt lat="39.9148525" lon="-2.1970086"><ele>940.0</ele><time>2026-03-22T11:58:09.165Z</time></trkpt><trkpt lat="39.9149215" lon="-2.1970347"><ele>940.0</ele><time>2026-03-22T11:58:10.169Z</time></trkpt><trkpt lat="39.9149952" lon="-2.1970542"><ele>939.9999999999999</ele><time>2026-03-22T11:58:11.15Z</time></trkpt><trkpt lat="39.9150838" lon="-2.197014"><ele>940.0</ele><time>2026-03-22T11:58:12.156Z</time></trkpt><trkpt lat="39.9151693" lon="-2.1969804"><ele>938.8333333333333</ele><time>2026-03-22T11:58:13.156Z</time></trkpt><trkpt lat="39.915249" lon="-2.1969699"><ele>937.6666666666666</ele><time>2026-03-22T11:58:14.143Z</time></trkpt><trkpt lat="39.9153188" lon="-2.1969418"><ele>936.5</ele><time>2026-03-22T11:58:15.203Z</time></trkpt><trkpt lat="39.9154074" lon="-2.1968428"><ele>935.3333333333333</ele><time>2026-03-22T11:58:17.16Z</time></trkpt><trkpt lat="39.9154473" lon="-2.1967514"><ele>934.1666666666666</ele><time>2026-03-22T11:58:18.139Z</time></trkpt><trkpt lat="39.915478" lon="-2.1966404"><ele>933.0</ele><time>2026-03-22T11:58:19.141Z</time></trkpt><trkpt lat="39.9155068" lon="-2.1965078"><ele>932.75</ele><time>2026-03-22T11:58:20.138Z</time></trkpt><trkpt lat="39.9155478" lon="-2.196365"><ele>932.5</ele><time>2026-03-22T11:58:21.147Z</time></trkpt><trkpt lat="39.9155929" lon="-2.1962165"><ele>932.25</ele><time>2026-03-22T11:58:22.141Z</time></trkpt><trkpt lat="39.9156334" lon="-2.1960729"><ele>932.0</ele><time>2026-03-22T11:58:23.156Z</time></trkpt><trkpt lat="39.9156702" lon="-2.1959313"><ele>932.0</ele><time>2026-03-22T11:58:24.139Z</time></trkpt><trkpt lat="39.9157074" lon="-2.1957918"><ele>932.0</ele><time>2026-03-22T11:58:25.134Z</time></trkpt><trkpt lat="39.9157455" lon="-2.195654"><ele>932.0</ele><time>2026-03-22T11:58:26.138Z</time></trkpt><trkpt lat="39.9157841" lon="-2.1955113"><ele>932.0</ele><time>2026-03-22T11:58:27.144Z</time></trkpt><trkpt lat="39.9158322" lon="-2.1953683"><ele>931.75</ele><time>2026-03-22T11:58:28.148Z</time></trkpt><trkpt lat="39.9158784" lon="-2.1952239"><ele>931.5</ele><time>2026-03-22T11:58:29.142Z</time></trkpt><trkpt lat="39.9159014" lon="-2.1950767"><ele>931.25</ele><time>2026-03-22T11:58:30.136Z</time></trkpt><trkpt lat="39.9159252" lon="-2.1949238"><ele>931.0</ele><time>2026-03-22T11:58:31.145Z</time></trkpt><trkpt lat="39.915936" lon="-2.1947652"><ele>930.5</ele><time>2026-03-22T11:58:32.156Z</time></trkpt><trkpt lat="39.9159334" lon="-2.1945964"><ele>930.0</ele><time>2026-03-22T11:58:33.137Z</time></trkpt><trkpt lat="39.9159447" lon="-2.1944268"><ele>929.5</ele><time>2026-03-22T11:58:34.138Z</time></trkpt><trkpt lat="39.9159561" lon="-2.1942662"><ele>929.0</ele><time>2026-03-22T11:58:35.153Z</time></trkpt><trkpt lat="39.915971" lon="-2.1941192"><ele>926.6</ele><time>2026-03-22T11:58:36.138Z</time></trkpt><trkpt lat="39.915989" lon="-2.1939907"><ele>924.2</ele><time>2026-03-22T11:58:37.156Z</time></trkpt><trkpt lat="39.9160116" lon="-2.1938731"><ele>921.8000000000001</ele><time>2026-03-22T11:58:38.143Z</time></trkpt><trkpt lat="39.91604" lon="-2.1937583"><ele>919.4000000000001</ele><time>2026-03-22T11:58:39.135Z</time></trkpt><trkpt lat="39.9160806" lon="-2.1936403"><ele>917.0</ele><time>2026-03-22T11:58:40.149Z</time></trkpt><trkpt lat="39.9161302" lon="-2.1935162"><ele>917.0</ele><time>2026-03-22T11:58:41.153Z</time></trkpt><trkpt lat="39.9161835" lon="-2.1933916"><ele>917.0</ele><time>2026-03-22T11:58:42.145Z</time></trkpt><trkpt lat="39.9162421" lon="-2.1932681"><ele>917.0</ele><time>2026-03-22T11:58:43.142Z</time></trkpt><trkpt lat="39.9163007" lon="-2.1931437"><ele>917.0</ele><time>2026-03-22T11:58:44.147Z</time></trkpt><trkpt lat="39.9163562" lon="-2.1930137"><ele>917.0</ele><time>2026-03-22T11:58:45.146Z</time></trkpt><trkpt lat="39.9164072" lon="-2.1928861"><ele>916.8</ele><time>2026-03-22T11:58:46.139Z</time></trkpt><trkpt lat="39.9164688" lon="-2.192762"><ele>916.6</ele><time>2026-03-22T11:58:47.149Z</time></trkpt><trkpt lat="39.9165282" lon="-2.1926449"><ele>916.3999999999999</ele><time>2026-03-22T11:58:48.146Z</time></trkpt><trkpt lat="39.916585" lon="-2.1925323"><ele>916.1999999999999</ele><time>2026-03-22T11:58:49.144Z</time></trkpt><trkpt lat="39.9166403" lon="-2.1924213"><ele>916.0</ele><time>2026-03-22T11:58:50.15Z</time></trkpt><trkpt lat="39.9166735" lon="-2.1923002"><ele>915.5</ele><time>2026-03-22T11:58:51.152Z</time></trkpt><trkpt lat="39.9166826" lon="-2.192163"><ele>915.0</ele><time>2026-03-22T11:58:52.148Z</time></trkpt><trkpt lat="39.9167021" lon="-2.19201"><ele>914.5</ele><time>2026-03-22T11:58:53.14Z</time></trkpt><trkpt lat="39.9167202" lon="-2.1918503"><ele>914.0</ele><time>2026-03-22T11:58:54.136Z</time></trkpt><trkpt lat="39.916715" lon="-2.1917052"><ele>914.0</ele><time>2026-03-22T11:58:55.163Z</time></trkpt><trkpt lat="39.9167137" lon="-2.1915702"><ele>914.0000000000001</ele><time>2026-03-22T11:58:56.153Z</time></trkpt><trkpt lat="39.9167131" lon="-2.1914441"><ele>914.0000000000001</ele><time>2026-03-22T11:58:57.14Z</time></trkpt><trkpt lat="39.9167239" lon="-2.1913179"><ele>914.0</ele><time>2026-03-22T11:58:58.143Z</time></trkpt><trkpt lat="39.9167236" lon="-2.1911945"><ele>914.0</ele><time>2026-03-22T11:58:59.15Z</time></trkpt><trkpt lat="39.9166905" lon="-2.1910821"><ele>913.0</ele><time>2026-03-22T11:59:00.19Z</time></trkpt><trkpt lat="39.9166683" lon="-2.1909713"><ele>912.0000000000001</ele><time>2026-03-22T11:59:01.155Z</time></trkpt><trkpt lat="39.9166514" lon="-2.1908574"><ele>911.0000000000001</ele><time>2026-03-22T11:59:02.151Z</time></trkpt><trkpt lat="39.9166416" lon="-2.1907405"><ele>910.0</ele><time>2026-03-22T11:59:03.191Z</time></trkpt><trkpt lat="39.9166516" lon="-2.1906219"><ele>909.0</ele><time>2026-03-22T11:59:04.155Z</time></trkpt><trkpt lat="39.9166791" lon="-2.1905049"><ele>908.0</ele><time>2026-03-22T11:59:05.15Z</time></trkpt><trkpt lat="39.9166993" lon="-2.1903907"><ele>907.0</ele><time>2026-03-22T11:59:06.189Z</time></trkpt><trkpt lat="39.9167276" lon="-2.1902775"><ele>906.0</ele><time>2026-03-22T11:59:07.162Z</time></trkpt><trkpt lat="39.9167571" lon="-2.1901653"><ele>905.0</ele><time>2026-03-22T11:59:08.162Z</time></trkpt><trkpt lat="39.9167953" lon="-2.1900607"><ele>904.0</ele><time>2026-03-22T11:59:09.17Z</time></trkpt><trkpt lat="39.9168236" lon="-2.1899578"><ele>903.0</ele><time>2026-03-22T11:59:10.161Z</time></trkpt><trkpt lat="39.9168576" lon="-2.1898614"><ele>901.8333333333334</ele><time>2026-03-22T11:59:11.161Z</time></trkpt><trkpt lat="39.9168985" lon="-2.1897671"><ele>900.6666666666667</ele><time>2026-03-22T11:59:12.161Z</time></trkpt><trkpt lat="39.9169558" lon="-2.1896957"><ele>899.5</ele><time>2026-03-22T11:59:13.216Z</time></trkpt><trkpt lat="39.917006" lon="-2.189632"><ele>898.3333333333334</ele><time>2026-03-22T11:59:14.14Z</time></trkpt><trkpt lat="39.9170813" lon="-2.1896147"><ele>897.1666666666667</ele><time>2026-03-22T11:59:15.162Z</time></trkpt><trkpt lat="39.9171528" lon="-2.1896042"><ele>896.0</ele><time>2026-03-22T11:59:16.169Z</time></trkpt><trkpt lat="39.9172422" lon="-2.1896313"><ele>896.0</ele><time>2026-03-22T11:59:17.199Z</time></trkpt><trkpt lat="39.917331" lon="-2.1896522"><ele>895.9999999999999</ele><time>2026-03-22T11:59:18.163Z</time></trkpt><trkpt lat="39.9174217" lon="-2.1896526"><ele>895.9999999999999</ele><time>2026-03-22T11:59:19.138Z</time></trkpt><trkpt lat="39.9175116" lon="-2.1896397"><ele>896.0</ele><time>2026-03-22T11:59:20.153Z</time></trkpt><trkpt lat="39.9176" lon="-2.1895683"><ele>896.0</ele><time>2026-03-22T11:59:21.149Z</time></trkpt><trkpt lat="39.9176873" lon="-2.1895534"><ele>895.0000000000001</ele><time>2026-03-22T11:59:22.188Z</time></trkpt><trkpt lat="39.9177637" lon="-2.1895104"><ele>894.0</ele><time>2026-03-22T11:59:23.146Z</time></trkpt><trkpt lat="39.9178362" lon="-2.1894856"><ele>893.0</ele><time>2026-03-22T11:59:24.177Z</time></trkpt><trkpt lat="39.9179092" lon="-2.1894633"><ele>892.0</ele><time>2026-03-22T11:59:25.155Z</time></trkpt><trkpt lat="39.9179813" lon="-2.1894556"><ele>891.0000000000001</ele><time>2026-03-22T11:59:26.167Z</time></trkpt><trkpt lat="39.9180478" lon="-2.1894522"><ele>890.0</ele><time>2026-03-22T11:59:27.184Z</time></trkpt><trkpt lat="39.9181694" lon="-2.1894672"><ele>890.0000000000001</ele><time>2026-03-22T11:59:29.138Z</time></trkpt><trkpt lat="39.9182299" lon="-2.1895037"><ele>890.0</ele><time>2026-03-22T11:59:30.155Z</time></trkpt><trkpt lat="39.918291" lon="-2.1895531"><ele>890.0</ele><time>2026-03-22T11:59:31.162Z</time></trkpt><trkpt lat="39.918352" lon="-2.1896032"><ele>890.0</ele><time>2026-03-22T11:59:32.146Z</time></trkpt><trkpt lat="39.9184073" lon="-2.189673"><ele>890.0000000000001</ele><time>2026-03-22T11:59:33.156Z</time></trkpt><trkpt lat="39.9184714" lon="-2.1897583"><ele>890.0</ele><time>2026-03-22T11:59:34.139Z</time></trkpt><trkpt lat="39.9185324" lon="-2.1898392"><ele>889.8333333333334</ele><time>2026-03-22T11:59:35.138Z</time></trkpt><trkpt lat="39.918587" lon="-2.1899095"><ele>889.6666666666667</ele><time>2026-03-22T11:59:36.147Z</time></trkpt><trkpt lat="39.9186367" lon="-2.1899676"><ele>889.5</ele><time>2026-03-22T11:59:37.141Z</time></trkpt><trkpt lat="39.9186798" lon="-2.1900351"><ele>889.3333333333333</ele><time>2026-03-22T11:59:38.14Z</time></trkpt><trkpt lat="39.9187624" lon="-2.1901233"><ele>889.1666666666666</ele><time>2026-03-22T11:59:40.151Z</time></trkpt><trkpt lat="39.9188649" lon="-2.1901176"><ele>889.0</ele><time>2026-03-22T11:59:42.162Z</time></trkpt><trkpt lat="39.9189753" lon="-2.1900221"><ele>889.0</ele><time>2026-03-22T11:59:44.164Z</time></trkpt><trkpt lat="39.9190391" lon="-2.1899558"><ele>889.0000000000001</ele><time>2026-03-22T11:59:45.155Z</time></trkpt><trkpt lat="39.9191091" lon="-2.1898848"><ele>889.0000000000001</ele><time>2026-03-22T11:59:46.186Z</time></trkpt><trkpt lat="39.9191951" lon="-2.1898102"><ele>889.0</ele><time>2026-03-22T11:59:47.151Z</time></trkpt><trkpt lat="39.9192844" lon="-2.189734"><ele>889.0</ele><time>2026-03-22T11:59:48.197Z</time></trkpt><trkpt lat="39.9193649" lon="-2.1896651"><ele>889.4000000000001</ele><time>2026-03-22T11:59:49.147Z</time></trkpt><trkpt lat="39.9194344" lon="-2.1895944"><ele>889.8000000000001</ele><time>2026-03-22T11:59:50.162Z</time></trkpt><trkpt lat="39.9194944" lon="-2.1895204"><ele>890.1999999999999</ele><time>2026-03-22T11:59:51.156Z</time></trkpt><trkpt lat="39.9195544" lon="-2.1894397"><ele>890.5999999999999</ele><time>2026-03-22T11:59:52.177Z</time></trkpt><trkpt lat="39.9196097" lon="-2.1893401"><ele>891.0</ele><time>2026-03-22T11:59:53.177Z</time></trkpt><trkpt lat="39.9196645" lon="-2.1892312"><ele>891.0</ele><time>2026-03-22T11:59:54.188Z</time></trkpt><trkpt lat="39.9197179" lon="-2.1891098"><ele>890.9999999999999</ele><time>2026-03-22T11:59:55.191Z</time></trkpt><trkpt lat="39.9197716" lon="-2.1889884"><ele>890.9999999999999</ele><time>2026-03-22T11:59:56.174Z</time></trkpt><trkpt lat="39.9198274" lon="-2.1888674"><ele>891.0</ele><time>2026-03-22T11:59:57.159Z</time></trkpt><trkpt lat="39.9198775" lon="-2.1887492"><ele>891.0</ele><time>2026-03-22T11:59:58.149Z</time></trkpt><trkpt lat="39.9199224" lon="-2.1886369"><ele>891.1999999999999</ele><time>2026-03-22T11:59:59.179Z</time></trkpt><trkpt lat="39.9199696" lon="-2.1885238"><ele>891.3999999999999</ele><time>2026-03-22T12:00:00.182Z</time></trkpt><trkpt lat="39.920013" lon="-2.1884135"><ele>891.6</ele><time>2026-03-22T12:00:01.169Z</time></trkpt><trkpt lat="39.9200568" lon="-2.1883066"><ele>891.8</ele><time>2026-03-22T12:00:02.144Z</time></trkpt><trkpt lat="39.9201018" lon="-2.1881991"><ele>892.0</ele><time>2026-03-22T12:00:03.174Z</time></trkpt><trkpt lat="39.9201507" lon="-2.1880892"><ele>892.8333333333333</ele><time>2026-03-22T12:00:04.175Z</time></trkpt><trkpt lat="39.9201984" lon="-2.1879853"><ele>893.6666666666666</ele><time>2026-03-22T12:00:05.165Z</time></trkpt><trkpt lat="39.9202375" lon="-2.1878932"><ele>894.5</ele><time>2026-03-22T12:00:06.177Z</time></trkpt><trkpt lat="39.9202723" lon="-2.1878126"><ele>895.3333333333333</ele><time>2026-03-22T12:00:07.154Z</time></trkpt><trkpt lat="39.9203084" lon="-2.1877438"><ele>896.1666666666666</ele><time>2026-03-22T12:00:08.17Z</time></trkpt><trkpt lat="39.9203898" lon="-2.1876212"><ele>897.0</ele><time>2026-03-22T12:00:10.194Z</time></trkpt><trkpt lat="39.9204409" lon="-2.1875696"><ele>897.0</ele><time>2026-03-22T12:00:11.203Z</time></trkpt><trkpt lat="39.9205227" lon="-2.187499"><ele>897.0</ele><time>2026-03-22T12:00:13.157Z</time></trkpt><trkpt lat="39.9205963" lon="-2.1875368"><ele>897.0</ele><time>2026-03-22T12:00:16.147Z</time></trkpt><trkpt lat="39.9206487" lon="-2.1876386"><ele>897.0</ele><time>2026-03-22T12:00:18.15Z</time></trkpt><trkpt lat="39.9206639" lon="-2.1877242"><ele>897.0</ele><time>2026-03-22T12:00:19.148Z</time></trkpt><trkpt lat="39.9206812" lon="-2.1878153"><ele>897.0</ele><time>2026-03-22T12:00:20.156Z</time></trkpt><trkpt lat="39.9206981" lon="-2.1879064"><ele>897.0</ele><time>2026-03-22T12:00:21.161Z</time></trkpt><trkpt lat="39.9207095" lon="-2.1880052"><ele>897.0</ele><time>2026-03-22T12:00:22.154Z</time></trkpt><trkpt lat="39.9207225" lon="-2.188107"><ele>897.0</ele><time>2026-03-22T12:00:23.146Z</time></trkpt><trkpt lat="39.9207385" lon="-2.1882233"><ele>897.0</ele><time>2026-03-22T12:00:24.138Z</time></trkpt><trkpt lat="39.9207707" lon="-2.1883633"><ele>897.0</ele><time>2026-03-22T12:00:25.155Z</time></trkpt><trkpt lat="39.9208134" lon="-2.1885389"><ele>896.3333333333333</ele><time>2026-03-22T12:00:26.145Z</time></trkpt><trkpt lat="39.920859" lon="-2.1887395"><ele>895.6666666666666</ele><time>2026-03-22T12:00:27.134Z</time></trkpt><trkpt lat="39.9209097" lon="-2.1889653"><ele>895.0</ele><time>2026-03-22T12:00:28.149Z</time></trkpt><trkpt lat="39.9209657" lon="-2.1892095"><ele>895.0</ele><time>2026-03-22T12:00:29.148Z</time></trkpt><trkpt lat="39.9210242" lon="-2.1894625"><ele>895.0</ele><time>2026-03-22T12:00:30.146Z</time></trkpt><trkpt lat="39.9210878" lon="-2.189701"><ele>895.0</ele><time>2026-03-22T12:00:31.151Z</time></trkpt><trkpt lat="39.921141" lon="-2.1899328"><ele>895.0</ele><time>2026-03-22T12:00:32.161Z</time></trkpt><trkpt lat="39.9211946" lon="-2.190148"><ele>895.0</ele><time>2026-03-22T12:00:33.146Z</time></trkpt><trkpt lat="39.9212459" lon="-2.1903522"><ele>895.0</ele><time>2026-03-22T12:00:34.148Z</time></trkpt><trkpt lat="39.9212936" lon="-2.1905491"><ele>894.0</ele><time>2026-03-22T12:00:35.155Z</time></trkpt><trkpt lat="39.9213339" lon="-2.1907466"><ele>893.0</ele><time>2026-03-22T12:00:36.153Z</time></trkpt><trkpt lat="39.9213816" lon="-2.1909402"><ele>892.0</ele><time>2026-03-22T12:00:37.146Z</time></trkpt><trkpt lat="39.9214272" lon="-2.1911454"><ele>892.0</ele><time>2026-03-22T12:00:38.147Z</time></trkpt><trkpt lat="39.9214762" lon="-2.1913576"><ele>892.0</ele><time>2026-03-22T12:00:39.143Z</time></trkpt><trkpt lat="39.9215294" lon="-2.191566"><ele>892.0</ele><time>2026-03-22T12:00:40.148Z</time></trkpt><trkpt lat="39.9216003" lon="-2.1917645"><ele>892.0</ele><time>2026-03-22T12:00:41.144Z</time></trkpt><trkpt lat="39.9216933" lon="-2.1919641"><ele>892.0</ele><time>2026-03-22T12:00:42.145Z</time></trkpt><trkpt lat="39.9217966" lon="-2.192168"><ele>892.0</ele><time>2026-03-22T12:00:43.144Z</time></trkpt><trkpt lat="39.9219021" lon="-2.1923774"><ele>892.0</ele><time>2026-03-22T12:00:44.151Z</time></trkpt><trkpt lat="39.922009" lon="-2.1925905"><ele>892.0</ele><time>2026-03-22T12:00:45.156Z</time></trkpt><trkpt lat="39.922117" lon="-2.1928063"><ele>892.0</ele><time>2026-03-22T12:00:46.155Z</time></trkpt><trkpt lat="39.9222207" lon="-2.1930265"><ele>890.3333333333333</ele><time>2026-03-22T12:00:47.148Z</time></trkpt><trkpt lat="39.9223233" lon="-2.1932451"><ele>888.6666666666667</ele><time>2026-03-22T12:00:48.141Z</time></trkpt><trkpt lat="39.9224192" lon="-2.1934667"><ele>887.0</ele><time>2026-03-22T12:00:49.142Z</time></trkpt><trkpt lat="39.922507" lon="-2.1936951"><ele>887.6666666666667</ele><time>2026-03-22T12:00:50.165Z</time></trkpt><trkpt lat="39.9225973" lon="-2.1939258"><ele>888.3333333333333</ele><time>2026-03-22T12:00:51.158Z</time></trkpt><trkpt lat="39.922691" lon="-2.1941597"><ele>889.0</ele><time>2026-03-22T12:00:52.152Z</time></trkpt><trkpt lat="39.9227891" lon="-2.1943918"><ele>889.0</ele><time>2026-03-22T12:00:53.18Z</time></trkpt><trkpt lat="39.9228867" lon="-2.1946251"><ele>889.0</ele><time>2026-03-22T12:00:54.145Z</time></trkpt><trkpt lat="39.9229845" lon="-2.194855"><ele>889.0</ele><time>2026-03-22T12:00:55.146Z</time></trkpt><trkpt lat="39.9230701" lon="-2.1950896"><ele>887.6666666666666</ele><time>2026-03-22T12:00:56.161Z</time></trkpt><trkpt lat="39.9231513" lon="-2.1953065"><ele>886.3333333333333</ele><time>2026-03-22T12:00:57.139Z</time></trkpt><trkpt lat="39.9232261" lon="-2.1955064"><ele>885.0</ele><time>2026-03-22T12:00:58.137Z</time></trkpt><trkpt lat="39.9232993" lon="-2.1957055"><ele>884.3333333333333</ele><time>2026-03-22T12:00:59.161Z</time></trkpt><trkpt lat="39.9233817" lon="-2.1959053"><ele>883.6666666666666</ele><time>2026-03-22T12:01:00.155Z</time></trkpt><trkpt lat="39.923455" lon="-2.1961235"><ele>883.0</ele><time>2026-03-22T12:01:01.144Z</time></trkpt><trkpt lat="39.9235333" lon="-2.1963388"><ele>883.6666666666666</ele><time>2026-03-22T12:01:02.145Z</time></trkpt><trkpt lat="39.9235974" lon="-2.1965582"><ele>884.3333333333333</ele><time>2026-03-22T12:01:03.153Z</time></trkpt><trkpt lat="39.9236595" lon="-2.1967695"><ele>885.0</ele><time>2026-03-22T12:01:04.153Z</time></trkpt><trkpt lat="39.923718" lon="-2.1969733"><ele>885.0</ele><time>2026-03-22T12:01:05.147Z</time></trkpt><trkpt lat="39.9237603" lon="-2.1971754"><ele>885.0</ele><time>2026-03-22T12:01:06.147Z</time></trkpt><trkpt lat="39.9237925" lon="-2.197375"><ele>885.0</ele><time>2026-03-22T12:01:07.147Z</time></trkpt><trkpt lat="39.9238064" lon="-2.1975857"><ele>885.0</ele><time>2026-03-22T12:01:08.15Z</time></trkpt><trkpt lat="39.9238119" lon="-2.1977946"><ele>885.0</ele><time>2026-03-22T12:01:09.169Z</time></trkpt><trkpt lat="39.9238185" lon="-2.1980033"><ele>885.0</ele><time>2026-03-22T12:01:10.153Z</time></trkpt><trkpt lat="39.9238264" lon="-2.1982108"><ele>885.0</ele><time>2026-03-22T12:01:11.162Z</time></trkpt><trkpt lat="39.9238342" lon="-2.1984175"><ele>885.0</ele><time>2026-03-22T12:01:12.134Z</time></trkpt><trkpt lat="39.923842" lon="-2.1986314"><ele>885.0</ele><time>2026-03-22T12:01:13.157Z</time></trkpt><trkpt lat="39.9238492" lon="-2.1988488"><ele>884.3333333333333</ele><time>2026-03-22T12:01:14.146Z</time></trkpt><trkpt lat="39.9238589" lon="-2.1990608"><ele>883.6666666666666</ele><time>2026-03-22T12:01:15.148Z</time></trkpt><trkpt lat="39.9238795" lon="-2.1992731"><ele>883.0</ele><time>2026-03-22T12:01:16.15Z</time></trkpt><trkpt lat="39.923917" lon="-2.1994899"><ele>883.0</ele><time>2026-03-22T12:01:17.158Z</time></trkpt><trkpt lat="39.9239716" lon="-2.1997098"><ele>883.0</ele><time>2026-03-22T12:01:18.163Z</time></trkpt><trkpt lat="39.9240271" lon="-2.1999328"><ele>883.0</ele><time>2026-03-22T12:01:19.174Z</time></trkpt><trkpt lat="39.9240816" lon="-2.2001525"><ele>881.6666666666666</ele><time>2026-03-22T12:01:20.174Z</time></trkpt><trkpt lat="39.9241375" lon="-2.2003575"><ele>880.3333333333333</ele><time>2026-03-22T12:01:21.161Z</time></trkpt><trkpt lat="39.9241798" lon="-2.2005596"><ele>879.0</ele><time>2026-03-22T12:01:22.191Z</time></trkpt><trkpt lat="39.9242254" lon="-2.2007422"><ele>879.75</ele><time>2026-03-22T12:01:23.167Z</time></trkpt><trkpt lat="39.924261" lon="-2.2009208"><ele>880.5</ele><time>2026-03-22T12:01:24.168Z</time></trkpt><trkpt lat="39.9242957" lon="-2.2010862"><ele>881.25</ele><time>2026-03-22T12:01:25.171Z</time></trkpt><trkpt lat="39.9243304" lon="-2.20123"><ele>882.0</ele><time>2026-03-22T12:01:26.154Z</time></trkpt><trkpt lat="39.9243506" lon="-2.20136"><ele>882.0</ele><time>2026-03-22T12:01:27.159Z</time></trkpt><trkpt lat="39.924366" lon="-2.2014714"><ele>882.0</ele><time>2026-03-22T12:01:28.151Z</time></trkpt><trkpt lat="39.9243807" lon="-2.2015523"><ele>882.0</ele><time>2026-03-22T12:01:29.162Z</time></trkpt><trkpt lat="39.9244478" lon="-2.201625"><ele>882.0</ele><time>2026-03-22T12:01:31.159Z</time></trkpt><trkpt lat="39.9245667" lon="-2.2017079"><ele>882.0</ele><time>2026-03-22T12:01:33.145Z</time></trkpt><trkpt lat="39.9246522" lon="-2.2017644"><ele>881.5</ele><time>2026-03-22T12:01:34.146Z</time></trkpt><trkpt lat="39.924752" lon="-2.2018433"><ele>881.0</ele><time>2026-03-22T12:01:35.137Z</time></trkpt><trkpt lat="39.9248684" lon="-2.2019318"><ele>880.5</ele><time>2026-03-22T12:01:36.144Z</time></trkpt><trkpt lat="39.924995" lon="-2.2020275"><ele>880.0</ele><time>2026-03-22T12:01:37.159Z</time></trkpt><trkpt lat="39.9251274" lon="-2.2021216"><ele>881.25</ele><time>2026-03-22T12:01:38.149Z</time></trkpt><trkpt lat="39.9252571" lon="-2.2022137"><ele>882.5</ele><time>2026-03-22T12:01:39.142Z</time></trkpt><trkpt lat="39.9253764" lon="-2.2022918"><ele>883.75</ele><time>2026-03-22T12:01:40.144Z</time></trkpt><trkpt lat="39.9254843" lon="-2.2023599"><ele>885.0</ele><time>2026-03-22T12:01:41.152Z</time></trkpt><trkpt lat="39.9255879" lon="-2.2024295"><ele>885.0</ele><time>2026-03-22T12:01:42.155Z</time></trkpt><trkpt lat="39.9256918" lon="-2.2024999"><ele>885.0</ele><time>2026-03-22T12:01:43.166Z</time></trkpt><trkpt lat="39.9257968" lon="-2.2025794"><ele>885.0</ele><time>2026-03-22T12:01:44.152Z</time></trkpt><trkpt lat="39.9258893" lon="-2.2026731"><ele>885.0</ele><time>2026-03-22T12:01:45.149Z</time></trkpt><trkpt lat="39.9259777" lon="-2.2027779"><ele>886.2</ele><time>2026-03-22T12:01:46.156Z</time></trkpt><trkpt lat="39.9260551" lon="-2.2028861"><ele>887.4</ele><time>2026-03-22T12:01:47.194Z</time></trkpt><trkpt lat="39.9261379" lon="-2.2029837"><ele>888.5999999999999</ele><time>2026-03-22T12:01:48.209Z</time></trkpt><trkpt lat="39.9262147" lon="-2.2030779"><ele>889.8</ele><time>2026-03-22T12:01:49.162Z</time></trkpt><trkpt lat="39.9262968" lon="-2.2031665"><ele>891.0</ele><time>2026-03-22T12:01:50.185Z</time></trkpt><trkpt lat="39.9263931" lon="-2.2032327"><ele>891.0</ele><time>2026-03-22T12:01:51.15Z</time></trkpt><trkpt lat="39.9264895" lon="-2.203306"><ele>891.0</ele><time>2026-03-22T12:01:52.18Z</time></trkpt><trkpt lat="39.9265871" lon="-2.2033875"><ele>891.0</ele><time>2026-03-22T12:01:53.153Z</time></trkpt><trkpt lat="39.9266936" lon="-2.2034487"><ele>891.0</ele><time>2026-03-22T12:01:54.157Z</time></trkpt><trkpt lat="39.926795" lon="-2.2035344"><ele>891.5999999999999</ele><time>2026-03-22T12:01:55.18Z</time></trkpt><trkpt lat="39.9268882" lon="-2.2036134"><ele>892.1999999999999</ele><time>2026-03-22T12:01:56.178Z</time></trkpt><trkpt lat="39.926971" lon="-2.2037046"><ele>892.8000000000001</ele><time>2026-03-22T12:01:57.17Z</time></trkpt><trkpt lat="39.9270447" lon="-2.2037971"><ele>893.4000000000001</ele><time>2026-03-22T12:01:58.157Z</time></trkpt><trkpt lat="39.9271184" lon="-2.20388"><ele>894.0</ele><time>2026-03-22T12:01:59.153Z</time></trkpt><trkpt lat="39.9271883" lon="-2.2039481"><ele>893.3333333333334</ele><time>2026-03-22T12:02:00.161Z</time></trkpt><trkpt lat="39.9272471" lon="-2.2040006"><ele>892.6666666666667</ele><time>2026-03-22T12:02:01.152Z</time></trkpt><trkpt lat="39.9273017" lon="-2.2040481"><ele>892.0</ele><time>2026-03-22T12:02:02.149Z</time></trkpt><trkpt lat="39.9273505" lon="-2.2041096"><ele>891.3333333333334</ele><time>2026-03-22T12:02:03.164Z</time></trkpt><trkpt lat="39.9274193" lon="-2.2041591"><ele>890.6666666666667</ele><time>2026-03-22T12:02:04.152Z</time></trkpt><trkpt lat="39.9274922" lon="-2.2042348"><ele>890.0</ele><time>2026-03-22T12:02:05.152Z</time></trkpt><trkpt lat="39.9275655" lon="-2.204321"><ele>890.0</ele><time>2026-03-22T12:02:06.136Z</time></trkpt><trkpt lat="39.927639" lon="-2.2044025"><ele>890.0</ele><time>2026-03-22T12:02:07.15Z</time></trkpt><trkpt lat="39.9277271" lon="-2.2044577"><ele>890.0</ele><time>2026-03-22T12:02:08.138Z</time></trkpt><trkpt lat="39.9278144" lon="-2.2045422"><ele>890.0</ele><time>2026-03-22T12:02:09.162Z</time></trkpt><trkpt lat="39.927901" lon="-2.2046273"><ele>890.0</ele><time>2026-03-22T12:02:10.132Z</time></trkpt><trkpt lat="39.9279886" lon="-2.204705"><ele>890.0</ele><time>2026-03-22T12:02:11.147Z</time></trkpt><trkpt lat="39.9280624" lon="-2.2047662"><ele>890.0</ele><time>2026-03-22T12:02:12.16Z</time></trkpt><trkpt lat="39.9281685" lon="-2.2048604"><ele>890.0</ele><time>2026-03-22T12:02:53.141Z</time></trkpt><trkpt lat="39.9282632" lon="-2.2048963"><ele>890.0</ele><time>2026-03-22T12:02:55.15Z</time></trkpt><trkpt lat="39.9283681" lon="-2.2049883"><ele>890.0</ele><time>2026-03-22T12:02:57.122Z</time></trkpt><trkpt lat="39.9284247" lon="-2.2050707"><ele>890.4</ele><time>2026-03-22T12:02:58.134Z</time></trkpt><trkpt lat="39.928484" lon="-2.2051691"><ele>890.8</ele><time>2026-03-22T12:02:59.152Z</time></trkpt><trkpt lat="39.9285373" lon="-2.2052776"><ele>891.2</ele><time>2026-03-22T12:03:00.12Z</time></trkpt><trkpt lat="39.928596" lon="-2.2053869"><ele>891.6</ele><time>2026-03-22T12:03:01.105Z</time></trkpt><trkpt lat="39.9286496" lon="-2.2054948"><ele>892.0</ele><time>2026-03-22T12:03:02.184Z</time></trkpt><trkpt lat="39.9287063" lon="-2.2056124"><ele>891.8</ele><time>2026-03-22T12:03:03.149Z</time></trkpt><trkpt lat="39.9287641" lon="-2.2057299"><ele>891.6</ele><time>2026-03-22T12:03:04.15Z</time></trkpt><trkpt lat="39.9288213" lon="-2.20584"><ele>891.3999999999999</ele><time>2026-03-22T12:03:05.134Z</time></trkpt><trkpt lat="39.9288788" lon="-2.2059351"><ele>891.1999999999999</ele><time>2026-03-22T12:03:06.154Z</time></trkpt><trkpt lat="39.9289217" lon="-2.2060216"><ele>891.0</ele><time>2026-03-22T12:03:07.146Z</time></trkpt><trkpt lat="39.9289568" lon="-2.2061107"><ele>891.0000000000001</ele><time>2026-03-22T12:03:08.134Z</time></trkpt><trkpt lat="39.9289914" lon="-2.2062032"><ele>891.0</ele><time>2026-03-22T12:03:09.137Z</time></trkpt><trkpt lat="39.9290267" lon="-2.206291"><ele>891.0</ele><time>2026-03-22T12:03:10.121Z</time></trkpt><trkpt lat="39.9290731" lon="-2.2063615"><ele>891.0</ele><time>2026-03-22T12:03:11.148Z</time></trkpt><trkpt lat="39.9291199" lon="-2.2064248"><ele>891.0</ele><time>2026-03-22T12:03:12.136Z</time></trkpt><trkpt lat="39.9291729" lon="-2.2064897"><ele>891.0000000000001</ele><time>2026-03-22T12:03:13.153Z</time></trkpt><trkpt lat="39.9292348" lon="-2.2065417"><ele>891.0</ele><time>2026-03-22T12:03:14.136Z</time></trkpt><trkpt lat="39.9293035" lon="-2.2065891"><ele>892.3333333333334</ele><time>2026-03-22T12:03:15.156Z</time></trkpt><trkpt lat="39.9293745" lon="-2.2066367"><ele>893.6666666666667</ele><time>2026-03-22T12:03:16.127Z</time></trkpt><trkpt lat="39.9294442" lon="-2.2066921"><ele>895.0</ele><time>2026-03-22T12:03:17.137Z</time></trkpt><trkpt lat="39.9295146" lon="-2.2067439"><ele>896.3333333333334</ele><time>2026-03-22T12:03:18.131Z</time></trkpt><trkpt lat="39.929583" lon="-2.2067842"><ele>897.6666666666667</ele><time>2026-03-22T12:03:19.163Z</time></trkpt><trkpt lat="39.9296457" lon="-2.2068225"><ele>899.0</ele><time>2026-03-22T12:03:20.15Z</time></trkpt><trkpt lat="39.9297077" lon="-2.2068427"><ele>899.0000000000001</ele><time>2026-03-22T12:03:21.15Z</time></trkpt><trkpt lat="39.9298123" lon="-2.2069371"><ele>899.0</ele><time>2026-03-22T12:03:23.15Z</time></trkpt><trkpt lat="39.9298678" lon="-2.2069923"><ele>899.0</ele><time>2026-03-22T12:03:24.15Z</time></trkpt><trkpt lat="39.9299276" lon="-2.2070515"><ele>899.0</ele><time>2026-03-22T12:03:25.141Z</time></trkpt><trkpt lat="39.9299852" lon="-2.2071216"><ele>899.0000000000001</ele><time>2026-03-22T12:03:26.133Z</time></trkpt><trkpt lat="39.9300352" lon="-2.2071968"><ele>899.0</ele><time>2026-03-22T12:03:27.131Z</time></trkpt><trkpt lat="39.9300835" lon="-2.2072507"><ele>899.5000000000001</ele><time>2026-03-22T12:03:28.13Z</time></trkpt><trkpt lat="39.9301956" lon="-2.207256"><ele>900.0</ele><time>2026-03-22T12:03:30.154Z</time></trkpt><trkpt lat="39.9303194" lon="-2.2072312"><ele>900.5</ele><time>2026-03-22T12:03:32.156Z</time></trkpt><trkpt lat="39.9303791" lon="-2.20718"><ele>901.0</ele><time>2026-03-22T12:03:33.148Z</time></trkpt><trkpt lat="39.9304357" lon="-2.2071328"><ele>901.5000000000001</ele><time>2026-03-22T12:03:34.153Z</time></trkpt><trkpt lat="39.930492" lon="-2.2070956"><ele>902.0</ele><time>2026-03-22T12:03:35.133Z</time></trkpt><trkpt lat="39.9305599" lon="-2.2071022"><ele>902.0</ele><time>2026-03-22T12:03:36.146Z</time></trkpt><trkpt lat="39.9306261" lon="-2.2071344"><ele>902.0</ele><time>2026-03-22T12:03:37.135Z</time></trkpt><trkpt lat="39.9306906" lon="-2.2071662"><ele>902.0</ele><time>2026-03-22T12:03:38.135Z</time></trkpt><trkpt lat="39.9307518" lon="-2.2072069"><ele>902.0</ele><time>2026-03-22T12:03:39.136Z</time></trkpt><trkpt lat="39.9308119" lon="-2.2072516"><ele>902.0</ele><time>2026-03-22T12:03:40.146Z</time></trkpt><trkpt lat="39.9308709" lon="-2.2072888"><ele>902.0</ele><time>2026-03-22T12:03:41.154Z</time></trkpt><trkpt lat="39.9309291" lon="-2.2073207"><ele>902.0</ele><time>2026-03-22T12:03:42.145Z</time></trkpt><trkpt lat="39.9310303" lon="-2.2073875"><ele>904.0000000000001</ele><time>2026-03-22T12:03:44.138Z</time></trkpt><trkpt lat="39.9310479" lon="-2.2074855"><ele>906.0</ele><time>2026-03-22T12:03:46.146Z</time></trkpt><trkpt lat="39.9310111" lon="-2.2076447"><ele>908.0</ele><time>2026-03-22T12:03:48.148Z</time></trkpt><trkpt lat="39.9310017" lon="-2.2077397"><ele>910.0</ele><time>2026-03-22T12:03:49.138Z</time></trkpt><trkpt lat="39.9309877" lon="-2.2078349"><ele>912.0000000000001</ele><time>2026-03-22T12:03:50.152Z</time></trkpt><trkpt lat="39.9309568" lon="-2.2079177"><ele>914.0</ele><time>2026-03-22T12:03:51.162Z</time></trkpt><trkpt lat="39.9309059" lon="-2.2079833"><ele>914.1666666666667</ele><time>2026-03-22T12:03:52.142Z</time></trkpt><trkpt lat="39.9308493" lon="-2.2080422"><ele>914.3333333333334</ele><time>2026-03-22T12:03:53.139Z</time></trkpt><trkpt lat="39.9307971" lon="-2.2081069"><ele>914.5</ele><time>2026-03-22T12:03:54.133Z</time></trkpt><trkpt lat="39.9307532" lon="-2.2081885"><ele>914.6666666666667</ele><time>2026-03-22T12:03:55.137Z</time></trkpt><trkpt lat="39.9307138" lon="-2.208272"><ele>914.8333333333334</ele><time>2026-03-22T12:03:56.144Z</time></trkpt><trkpt lat="39.9306954" lon="-2.2083736"><ele>915.0</ele><time>2026-03-22T12:03:57.145Z</time></trkpt><trkpt lat="39.9306753" lon="-2.2084848"><ele>917.0</ele><time>2026-03-22T12:03:58.155Z</time></trkpt><trkpt lat="39.930646" lon="-2.2085876"><ele>919.0</ele><time>2026-03-22T12:03:59.154Z</time></trkpt><trkpt lat="39.9305914" lon="-2.2086688"><ele>921.0</ele><time>2026-03-22T12:04:00.135Z</time></trkpt><trkpt lat="39.9305448" lon="-2.2087332"><ele>923.0</ele><time>2026-03-22T12:04:01.138Z</time></trkpt><trkpt lat="39.9304908" lon="-2.2088761"><ele>925.0</ele><time>2026-03-22T12:04:03.161Z</time></trkpt><trkpt lat="39.9304662" lon="-2.2089574"><ele>927.0</ele><time>2026-03-22T12:04:04.142Z</time></trkpt><trkpt lat="39.9304525" lon="-2.2090412"><ele>928.0</ele><time>2026-03-22T12:04:05.136Z</time></trkpt><trkpt lat="39.9304516" lon="-2.2092064"><ele>929.0</ele><time>2026-03-22T12:04:07.138Z</time></trkpt><trkpt lat="39.9304698" lon="-2.2093"><ele>930.0</ele><time>2026-03-22T12:04:08.136Z</time></trkpt><trkpt lat="39.9304974" lon="-2.209394"><ele>931.0</ele><time>2026-03-22T12:04:09.147Z</time></trkpt><trkpt lat="39.9305324" lon="-2.2094874"><ele>932.0</ele><time>2026-03-22T12:04:10.144Z</time></trkpt><trkpt lat="39.930564" lon="-2.209573"><ele>933.0</ele><time>2026-03-22T12:04:11.145Z</time></trkpt><trkpt lat="39.9306396" lon="-2.2096877"><ele>933.0</ele><time>2026-03-22T12:04:13.135Z</time></trkpt><trkpt lat="39.9307219" lon="-2.2097989"><ele>933.0</ele><time>2026-03-22T12:04:15.156Z</time></trkpt><trkpt lat="39.9307902" lon="-2.2099347"><ele>933.0</ele><time>2026-03-22T12:04:17.151Z</time></trkpt><trkpt lat="39.9308297" lon="-2.2100023"><ele>933.0</ele><time>2026-03-22T12:04:18.159Z</time></trkpt><trkpt lat="39.9308743" lon="-2.2100646"><ele>933.0</ele><time>2026-03-22T12:04:19.148Z</time></trkpt><trkpt lat="39.9309405" lon="-2.2100966"><ele>933.0</ele><time>2026-03-22T12:04:20.139Z</time></trkpt><trkpt lat="39.9310121" lon="-2.2101232"><ele>935.6666666666666</ele><time>2026-03-22T12:04:21.186Z</time></trkpt><trkpt lat="39.9310818" lon="-2.2101613"><ele>938.3333333333333</ele><time>2026-03-22T12:04:22.135Z</time></trkpt><trkpt lat="39.9311594" lon="-2.2101856"><ele>941.0</ele><time>2026-03-22T12:04:23.136Z</time></trkpt><trkpt lat="39.9312449" lon="-2.2101935"><ele>943.6666666666666</ele><time>2026-03-22T12:04:24.127Z</time></trkpt><trkpt lat="39.9313329" lon="-2.2102092"><ele>946.3333333333333</ele><time>2026-03-22T12:04:25.139Z</time></trkpt><trkpt lat="39.9314204" lon="-2.2102399"><ele>949.0</ele><time>2026-03-22T12:04:26.14Z</time></trkpt><trkpt lat="39.9315023" lon="-2.2102619"><ele>948.9999999999999</ele><time>2026-03-22T12:04:27.157Z</time></trkpt><trkpt lat="39.9315728" lon="-2.2102728"><ele>949.0</ele><time>2026-03-22T12:04:28.165Z</time></trkpt><trkpt lat="39.9316369" lon="-2.2102785"><ele>949.0</ele><time>2026-03-22T12:04:29.158Z</time></trkpt><trkpt lat="39.9317605" lon="-2.2102602"><ele>949.0</ele><time>2026-03-22T12:04:31.163Z</time></trkpt><trkpt lat="39.9318248" lon="-2.2102297"><ele>948.9999999999999</ele><time>2026-03-22T12:04:32.149Z</time></trkpt><trkpt lat="39.931876" lon="-2.2101751"><ele>949.0</ele><time>2026-03-22T12:04:33.145Z</time></trkpt><trkpt lat="39.9318988" lon="-2.2100911"><ele>950.2</ele><time>2026-03-22T12:04:34.136Z</time></trkpt><trkpt lat="39.9319429" lon="-2.2099767"><ele>951.4000000000001</ele><time>2026-03-22T12:04:36.14Z</time></trkpt><trkpt lat="39.9320069" lon="-2.2099269"><ele>952.6</ele><time>2026-03-22T12:04:38.151Z</time></trkpt><trkpt lat="39.9320836" lon="-2.2099507"><ele>953.8</ele><time>2026-03-22T12:04:40.151Z</time></trkpt><trkpt lat="39.9321885" lon="-2.2100033"><ele>955.0</ele><time>2026-03-22T12:04:42.147Z</time></trkpt><trkpt lat="39.9322829" lon="-2.2100743"><ele>954.9999999999999</ele><time>2026-03-22T12:04:44.146Z</time></trkpt><trkpt lat="39.932334" lon="-2.2101285"><ele>955.0</ele><time>2026-03-22T12:04:45.133Z</time></trkpt><trkpt lat="39.9323889" lon="-2.2101923"><ele>955.0</ele><time>2026-03-22T12:04:46.143Z</time></trkpt><trkpt lat="39.932438" lon="-2.2102523"><ele>955.0</ele><time>2026-03-22T12:04:47.148Z</time></trkpt><trkpt lat="39.9324917" lon="-2.2103016"><ele>954.9999999999999</ele><time>2026-03-22T12:04:48.135Z</time></trkpt><trkpt lat="39.9326234" lon="-2.2103489"><ele>955.0</ele><time>2026-03-22T12:04:50.146Z</time></trkpt><trkpt lat="39.9326991" lon="-2.2103537"><ele>955.9999999999999</ele><time>2026-03-22T12:04:51.144Z</time></trkpt><trkpt lat="39.9327709" lon="-2.2103607"><ele>957.0</ele><time>2026-03-22T12:04:52.153Z</time></trkpt><trkpt lat="39.9328479" lon="-2.2103667"><ele>958.0</ele><time>2026-03-22T12:04:53.15Z</time></trkpt><trkpt lat="39.9329273" lon="-2.2103714"><ele>959.0</ele><time>2026-03-22T12:04:54.143Z</time></trkpt><trkpt lat="39.9330061" lon="-2.2103787"><ele>959.9999999999999</ele><time>2026-03-22T12:04:55.138Z</time></trkpt><trkpt lat="39.9330832" lon="-2.2103763"><ele>961.0</ele><time>2026-03-22T12:04:56.142Z</time></trkpt><trkpt lat="39.9331588" lon="-2.2103837"><ele>960.9999999999999</ele><time>2026-03-22T12:04:57.139Z</time></trkpt><trkpt lat="39.9332372" lon="-2.2103885"><ele>961.0</ele><time>2026-03-22T12:04:58.16Z</time></trkpt><trkpt lat="39.9333186" lon="-2.2103875"><ele>961.0</ele><time>2026-03-22T12:04:59.148Z</time></trkpt><trkpt lat="39.9333912" lon="-2.2104126"><ele>961.0</ele><time>2026-03-22T12:05:00.159Z</time></trkpt><trkpt lat="39.9334608" lon="-2.2104457"><ele>960.9999999999999</ele><time>2026-03-22T12:05:01.156Z</time></trkpt><trkpt lat="39.9335291" lon="-2.2104917"><ele>961.0</ele><time>2026-03-22T12:05:02.153Z</time></trkpt><trkpt lat="39.9335895" lon="-2.2105306"><ele>963.6666666666666</ele><time>2026-03-22T12:05:03.144Z</time></trkpt><trkpt lat="39.9336422" lon="-2.2105786"><ele>966.3333333333333</ele><time>2026-03-22T12:05:04.181Z</time></trkpt><trkpt lat="39.9337343" lon="-2.2105717"><ele>969.0</ele><time>2026-03-22T12:05:06.146Z</time></trkpt><trkpt lat="39.9337906" lon="-2.2104927"><ele>971.6666666666667</ele><time>2026-03-22T12:05:08.131Z</time></trkpt><trkpt lat="39.9338274" lon="-2.2104094"><ele>974.3333333333334</ele><time>2026-03-22T12:05:09.141Z</time></trkpt><trkpt lat="39.9338647" lon="-2.2103295"><ele>977.0</ele><time>2026-03-22T12:05:10.145Z</time></trkpt><trkpt lat="39.9339036" lon="-2.2102481"><ele>977.0000000000001</ele><time>2026-03-22T12:05:11.15Z</time></trkpt><trkpt lat="39.9339426" lon="-2.2101751"><ele>977.0</ele><time>2026-03-22T12:05:12.137Z</time></trkpt><trkpt lat="39.9339849" lon="-2.210098"><ele>977.0000000000001</ele><time>2026-03-22T12:05:13.136Z</time></trkpt><trkpt lat="39.9340119" lon="-2.2100135"><ele>977.0000000000001</ele><time>2026-03-22T12:05:14.162Z</time></trkpt><trkpt lat="39.9340274" lon="-2.2099311"><ele>977.0</ele><time>2026-03-22T12:05:15.133Z</time></trkpt><trkpt lat="39.9340591" lon="-2.2098335"><ele>977.0000000000001</ele><time>2026-03-22T12:05:17.149Z</time></trkpt><trkpt lat="39.9341173" lon="-2.2097805"><ele>977.0000000000001</ele><time>2026-03-22T12:05:20.139Z</time></trkpt><trkpt lat="39.9341585" lon="-2.2098602"><ele>977.0000000000001</ele><time>2026-03-22T12:05:24.146Z</time></trkpt><trkpt lat="39.9341346" lon="-2.2099491"><ele>977.0</ele><time>2026-03-22T12:05:25.162Z</time></trkpt><trkpt lat="39.9340944" lon="-2.2100583"><ele>977.0</ele><time>2026-03-22T12:05:26.15Z</time></trkpt><trkpt lat="39.9340569" lon="-2.2101821"><ele>977.0</ele><time>2026-03-22T12:05:27.147Z</time></trkpt><trkpt lat="39.9340218" lon="-2.2102918"><ele>977.0000000000001</ele><time>2026-03-22T12:05:28.135Z</time></trkpt><trkpt lat="39.9339917" lon="-2.2103799"><ele>977.0</ele><time>2026-03-22T12:05:29.153Z</time></trkpt><trkpt lat="39.9339599" lon="-2.2104718"><ele>977.0000000000001</ele><time>2026-03-22T12:05:30.154Z</time></trkpt><trkpt lat="39.9339435" lon="-2.2105614"><ele>977.0</ele><time>2026-03-22T12:05:31.161Z</time></trkpt><trkpt lat="39.9339388" lon="-2.2106512"><ele>977.0000000000001</ele><time>2026-03-22T12:05:32.152Z</time></trkpt><trkpt lat="39.9339289" lon="-2.2107428"><ele>977.0000000000001</ele><time>2026-03-22T12:05:33.138Z</time></trkpt><trkpt lat="39.9339219" lon="-2.2108416"><ele>977.0</ele><time>2026-03-22T12:05:34.131Z</time></trkpt><trkpt lat="39.9339202" lon="-2.2109351"><ele>977.0000000000001</ele><time>2026-03-22T12:05:35.132Z</time></trkpt><trkpt lat="39.9339202" lon="-2.211036"><ele>977.0000000000001</ele><time>2026-03-22T12:05:36.165Z</time></trkpt><trkpt lat="39.9339155" lon="-2.211138"><ele>978.8333333333334</ele><time>2026-03-22T12:05:37.154Z</time></trkpt><trkpt lat="39.9339175" lon="-2.2112263"><ele>980.6666666666667</ele><time>2026-03-22T12:05:38.137Z</time></trkpt><trkpt lat="39.9339477" lon="-2.2113743"><ele>982.5</ele><time>2026-03-22T12:05:40.16Z</time></trkpt><trkpt lat="39.9340111" lon="-2.2114811"><ele>984.3333333333333</ele><time>2026-03-22T12:05:42.157Z</time></trkpt><trkpt lat="39.9340773" lon="-2.2115234"><ele>986.1666666666666</ele><time>2026-03-22T12:05:43.137Z</time></trkpt><trkpt lat="39.9341498" lon="-2.2115758"><ele>988.0</ele><time>2026-03-22T12:05:44.142Z</time></trkpt><trkpt lat="39.9342151" lon="-2.211636"><ele>987.9999999999999</ele><time>2026-03-22T12:05:45.135Z</time></trkpt><trkpt lat="39.9342719" lon="-2.2116978"><ele>988.0</ele><time>2026-03-22T12:05:46.154Z</time></trkpt><trkpt lat="39.9343224" lon="-2.2117552"><ele>988.0</ele><time>2026-03-22T12:05:47.142Z</time></trkpt><trkpt lat="39.9343662" lon="-2.2118159"><ele>988.0</ele><time>2026-03-22T12:05:48.16Z</time></trkpt><trkpt lat="39.9344407" lon="-2.2119442"><ele>987.9999999999999</ele><time>2026-03-22T12:05:50.15Z</time></trkpt><trkpt lat="39.9345187" lon="-2.212058"><ele>988.0</ele><time>2026-03-22T12:05:52.133Z</time></trkpt><trkpt lat="39.9346178" lon="-2.2121503"><ele>988.0</ele><time>2026-03-22T12:05:54.156Z</time></trkpt><trkpt lat="39.9346777" lon="-2.2121948"><ele>988.0</ele><time>2026-03-22T12:05:55.163Z</time></trkpt><trkpt lat="39.9347438" lon="-2.2122347"><ele>988.0</ele><time>2026-03-22T12:05:56.148Z</time></trkpt><trkpt lat="39.9348127" lon="-2.2122744"><ele>988.0</ele><time>2026-03-22T12:05:57.135Z</time></trkpt><trkpt lat="39.9348826" lon="-2.2123101"><ele>988.0</ele><time>2026-03-22T12:05:58.143Z</time></trkpt><trkpt lat="39.934955" lon="-2.2123447"><ele>988.0</ele><time>2026-03-22T12:05:59.148Z</time></trkpt><trkpt lat="39.9350155" lon="-2.2123757"><ele>988.0</ele><time>2026-03-22T12:06:00.184Z</time></trkpt><trkpt lat="39.9351274" lon="-2.2124285"><ele>987.5999999999999</ele><time>2026-03-22T12:06:02.142Z</time></trkpt><trkpt lat="39.9352187" lon="-2.2124969"><ele>987.1999999999999</ele><time>2026-03-22T12:06:04.132Z</time></trkpt><trkpt lat="39.9352817" lon="-2.2126183"><ele>986.8</ele><time>2026-03-22T12:06:06.163Z</time></trkpt><trkpt lat="39.9352763" lon="-2.2127046"><ele>986.4</ele><time>2026-03-22T12:06:07.154Z</time></trkpt><trkpt lat="39.9352475" lon="-2.212852"><ele>986.0</ele><time>2026-03-22T12:06:09.142Z</time></trkpt><trkpt lat="39.9352216" lon="-2.212996"><ele>986.0</ele><time>2026-03-22T12:06:11.157Z</time></trkpt><trkpt lat="39.9351971" lon="-2.2131395"><ele>985.9999999999999</ele><time>2026-03-22T12:06:13.139Z</time></trkpt><trkpt lat="39.9351727" lon="-2.2132492"><ele>985.9999999999999</ele><time>2026-03-22T12:06:14.144Z</time></trkpt><trkpt lat="39.9351383" lon="-2.2133921"><ele>986.0</ele><time>2026-03-22T12:06:15.167Z</time></trkpt><trkpt lat="39.9350941" lon="-2.2135501"><ele>986.0</ele><time>2026-03-22T12:06:16.146Z</time></trkpt><trkpt lat="39.9350483" lon="-2.2137155"><ele>986.5</ele><time>2026-03-22T12:06:17.141Z</time></trkpt><trkpt lat="39.9350027" lon="-2.2138774"><ele>987.0</ele><time>2026-03-22T12:06:18.15Z</time></trkpt><trkpt lat="39.9349583" lon="-2.2140291"><ele>987.5</ele><time>2026-03-22T12:06:19.141Z</time></trkpt><trkpt lat="39.9349136" lon="-2.2141788"><ele>988.0</ele><time>2026-03-22T12:06:20.17Z</time></trkpt><trkpt lat="39.9348606" lon="-2.2143172"><ele>988.0</ele><time>2026-03-22T12:06:21.143Z</time></trkpt><trkpt lat="39.9348096" lon="-2.2144447"><ele>988.0</ele><time>2026-03-22T12:06:22.128Z</time></trkpt><trkpt lat="39.9347618" lon="-2.2145584"><ele>988.0</ele><time>2026-03-22T12:06:23.151Z</time></trkpt><trkpt lat="39.934722" lon="-2.2146897"><ele>988.0</ele><time>2026-03-22T12:06:24.136Z</time></trkpt><trkpt lat="39.9347017" lon="-2.214848"><ele>988.0</ele><time>2026-03-22T12:06:25.134Z</time></trkpt><trkpt lat="39.934686" lon="-2.2150318"><ele>988.75</ele><time>2026-03-22T12:06:26.158Z</time></trkpt><trkpt lat="39.9346794" lon="-2.215219"><ele>989.5</ele><time>2026-03-22T12:06:27.142Z</time></trkpt><trkpt lat="39.934668" lon="-2.2154115"><ele>990.25</ele><time>2026-03-22T12:06:28.162Z</time></trkpt><trkpt lat="39.9346448" lon="-2.2156066"><ele>991.0</ele><time>2026-03-22T12:06:29.145Z</time></trkpt><trkpt lat="39.9346247" lon="-2.2157889"><ele>991.25</ele><time>2026-03-22T12:06:30.142Z</time></trkpt><trkpt lat="39.9346084" lon="-2.2159502"><ele>991.5</ele><time>2026-03-22T12:06:31.156Z</time></trkpt><trkpt lat="39.9345891" lon="-2.2160929"><ele>991.75</ele><time>2026-03-22T12:06:32.139Z</time></trkpt><trkpt lat="39.9345594" lon="-2.2162327"><ele>992.0</ele><time>2026-03-22T12:06:33.145Z</time></trkpt><trkpt lat="39.9345094" lon="-2.2163778"><ele>992.25</ele><time>2026-03-22T12:06:34.142Z</time></trkpt><trkpt lat="39.9344363" lon="-2.2165216"><ele>992.5</ele><time>2026-03-22T12:06:35.165Z</time></trkpt><trkpt lat="39.9343461" lon="-2.216672"><ele>992.75</ele><time>2026-03-22T12:06:36.145Z</time></trkpt><trkpt lat="39.9342649" lon="-2.2168314"><ele>993.0</ele><time>2026-03-22T12:06:37.148Z</time></trkpt><trkpt lat="39.9341922" lon="-2.2169748"><ele>993.0</ele><time>2026-03-22T12:06:38.147Z</time></trkpt><trkpt lat="39.9341259" lon="-2.2170965"><ele>993.0</ele><time>2026-03-22T12:06:39.138Z</time></trkpt><trkpt lat="39.9340675" lon="-2.2172076"><ele>993.0</ele><time>2026-03-22T12:06:40.145Z</time></trkpt><trkpt lat="39.9340175" lon="-2.2173095"><ele>993.0</ele><time>2026-03-22T12:06:41.135Z</time></trkpt><trkpt lat="39.9339775" lon="-2.2174176"><ele>993.0</ele><time>2026-03-22T12:06:42.144Z</time></trkpt><trkpt lat="39.9339394" lon="-2.2175339"><ele>993.4</ele><time>2026-03-22T12:06:43.134Z</time></trkpt><trkpt lat="39.9339116" lon="-2.2176663"><ele>993.8</ele><time>2026-03-22T12:06:44.146Z</time></trkpt><trkpt lat="39.9338779" lon="-2.2177969"><ele>994.2</ele><time>2026-03-22T12:06:45.135Z</time></trkpt><trkpt lat="39.933845" lon="-2.2179241"><ele>994.6</ele><time>2026-03-22T12:06:46.145Z</time></trkpt><trkpt lat="39.9338144" lon="-2.2180459"><ele>995.0</ele><time>2026-03-22T12:06:47.129Z</time></trkpt><trkpt lat="39.933785" lon="-2.2181683"><ele>993.5</ele><time>2026-03-22T12:06:48.152Z</time></trkpt><trkpt lat="39.9337738" lon="-2.2183032"><ele>992.0</ele><time>2026-03-22T12:06:49.145Z</time></trkpt><trkpt lat="39.9337804" lon="-2.2184532"><ele>990.5</ele><time>2026-03-22T12:06:50.149Z</time></trkpt><trkpt lat="39.9337892" lon="-2.2186185"><ele>989.0</ele><time>2026-03-22T12:06:51.148Z</time></trkpt><trkpt lat="39.9338024" lon="-2.2187827"><ele>989.0</ele><time>2026-03-22T12:06:52.141Z</time></trkpt><trkpt lat="39.933815" lon="-2.2189396"><ele>989.0000000000001</ele><time>2026-03-22T12:06:53.137Z</time></trkpt><trkpt lat="39.9338262" lon="-2.219085"><ele>989.0000000000001</ele><time>2026-03-22T12:06:54.141Z</time></trkpt><trkpt lat="39.9338418" lon="-2.2192221"><ele>989.0</ele><time>2026-03-22T12:06:55.132Z</time></trkpt><trkpt lat="39.9338579" lon="-2.2193521"><ele>989.0</ele><time>2026-03-22T12:06:56.132Z</time></trkpt><trkpt lat="39.9338765" lon="-2.2194769"><ele>988.0</ele><time>2026-03-22T12:06:57.141Z</time></trkpt><trkpt lat="39.933904" lon="-2.2195915"><ele>987.0000000000001</ele><time>2026-03-22T12:06:58.151Z</time></trkpt><trkpt lat="39.9339329" lon="-2.2196999"><ele>986.0000000000001</ele><time>2026-03-22T12:06:59.147Z</time></trkpt><trkpt lat="39.9339688" lon="-2.2198089"><ele>985.0</ele><time>2026-03-22T12:07:00.154Z</time></trkpt><trkpt lat="39.9340367" lon="-2.2199118"><ele>984.0</ele><time>2026-03-22T12:07:01.139Z</time></trkpt><trkpt lat="39.9341261" lon="-2.220006"><ele>983.25</ele><time>2026-03-22T12:07:02.155Z</time></trkpt><trkpt lat="39.9342104" lon="-2.220118"><ele>982.5</ele><time>2026-03-22T12:07:03.135Z</time></trkpt><trkpt lat="39.9342857" lon="-2.2202501"><ele>981.75</ele><time>2026-03-22T12:07:04.142Z</time></trkpt><trkpt lat="39.9343522" lon="-2.2204005"><ele>981.0</ele><time>2026-03-22T12:07:05.132Z</time></trkpt><trkpt lat="39.9344209" lon="-2.2205596"><ele>978.5</ele><time>2026-03-22T12:07:06.163Z</time></trkpt><trkpt lat="39.9344938" lon="-2.2207239"><ele>976.0</ele><time>2026-03-22T12:07:07.149Z</time></trkpt><trkpt lat="39.9345636" lon="-2.2209004"><ele>973.5</ele><time>2026-03-22T12:07:08.163Z</time></trkpt><trkpt lat="39.9346233" lon="-2.2210818"><ele>971.0</ele><time>2026-03-22T12:07:09.132Z</time></trkpt><trkpt lat="39.934684" lon="-2.2212587"><ele>971.0</ele><time>2026-03-22T12:07:10.138Z</time></trkpt><trkpt lat="39.9347416" lon="-2.221432"><ele>971.0</ele><time>2026-03-22T12:07:11.129Z</time></trkpt><trkpt lat="39.9347979" lon="-2.2216028"><ele>971.0</ele><time>2026-03-22T12:07:12.142Z</time></trkpt><trkpt lat="39.934847" lon="-2.221773"><ele>971.0</ele><time>2026-03-22T12:07:13.148Z</time></trkpt><trkpt lat="39.9348944" lon="-2.2219328"><ele>971.0</ele><time>2026-03-22T12:07:14.16Z</time></trkpt><trkpt lat="39.9349407" lon="-2.2220779"><ele>970.9999999999999</ele><time>2026-03-22T12:07:15.149Z</time></trkpt><trkpt lat="39.9349873" lon="-2.2222078"><ele>970.9999999999999</ele><time>2026-03-22T12:07:16.142Z</time></trkpt><trkpt lat="39.9350313" lon="-2.2223297"><ele>971.0</ele><time>2026-03-22T12:07:17.144Z</time></trkpt><trkpt lat="39.9350804" lon="-2.2224502"><ele>971.0</ele><time>2026-03-22T12:07:18.156Z</time></trkpt><trkpt lat="39.9351323" lon="-2.2225764"><ele>970.1999999999999</ele><time>2026-03-22T12:07:19.158Z</time></trkpt><trkpt lat="39.9351856" lon="-2.2227008"><ele>969.3999999999999</ele><time>2026-03-22T12:07:20.161Z</time></trkpt><trkpt lat="39.9352402" lon="-2.2228145"><ele>968.6</ele><time>2026-03-22T12:07:21.143Z</time></trkpt><trkpt lat="39.9352951" lon="-2.2229184"><ele>967.8</ele><time>2026-03-22T12:07:22.148Z</time></trkpt><trkpt lat="39.9353504" lon="-2.2230131"><ele>967.0</ele><time>2026-03-22T12:07:23.148Z</time></trkpt><trkpt lat="39.9353983" lon="-2.223111"><ele>967.2</ele><time>2026-03-22T12:07:24.149Z</time></trkpt><trkpt lat="39.9354313" lon="-2.2232253"><ele>967.4000000000001</ele><time>2026-03-22T12:07:25.166Z</time></trkpt><trkpt lat="39.9354534" lon="-2.2233445"><ele>967.5999999999999</ele><time>2026-03-22T12:07:26.132Z</time></trkpt><trkpt lat="39.935472" lon="-2.2234706"><ele>967.8</ele><time>2026-03-22T12:07:27.157Z</time></trkpt><trkpt lat="39.9354908" lon="-2.2236021"><ele>968.0</ele><time>2026-03-22T12:07:28.15Z</time></trkpt><trkpt lat="39.9355104" lon="-2.2237415"><ele>968.0</ele><time>2026-03-22T12:07:29.144Z</time></trkpt><trkpt lat="39.935539" lon="-2.2238877"><ele>968.0</ele><time>2026-03-22T12:07:30.154Z</time></trkpt><trkpt lat="39.9355757" lon="-2.224039"><ele>968.0</ele><time>2026-03-22T12:07:31.14Z</time></trkpt><trkpt lat="39.9356095" lon="-2.224184"><ele>968.0</ele><time>2026-03-22T12:07:32.135Z</time></trkpt><trkpt lat="39.9356341" lon="-2.2243266"><ele>968.0</ele><time>2026-03-22T12:07:33.158Z</time></trkpt><trkpt lat="39.9356512" lon="-2.2244712"><ele>968.0</ele><time>2026-03-22T12:07:34.141Z</time></trkpt><trkpt lat="39.935655" lon="-2.2246182"><ele>968.0</ele><time>2026-03-22T12:07:35.147Z</time></trkpt><trkpt lat="39.9356612" lon="-2.2247663"><ele>968.0</ele><time>2026-03-22T12:07:36.173Z</time></trkpt><trkpt lat="39.9356417" lon="-2.2249211"><ele>967.4</ele><time>2026-03-22T12:07:37.163Z</time></trkpt><trkpt lat="39.9356209" lon="-2.225079"><ele>966.8</ele><time>2026-03-22T12:07:38.165Z</time></trkpt><trkpt lat="39.935601" lon="-2.22523"><ele>966.2</ele><time>2026-03-22T12:07:39.149Z</time></trkpt><trkpt lat="39.9355888" lon="-2.2253683"><ele>965.6</ele><time>2026-03-22T12:07:40.157Z</time></trkpt><trkpt lat="39.9355805" lon="-2.2254985"><ele>965.0</ele><time>2026-03-22T12:07:41.148Z</time></trkpt><trkpt lat="39.9355828" lon="-2.2256215"><ele>964.0000000000001</ele><time>2026-03-22T12:07:42.16Z</time></trkpt><trkpt lat="39.9355945" lon="-2.2257408"><ele>963.0</ele><time>2026-03-22T12:07:43.144Z</time></trkpt><trkpt lat="39.9356045" lon="-2.225857"><ele>962.0</ele><time>2026-03-22T12:07:44.143Z</time></trkpt><trkpt lat="39.9356149" lon="-2.2259727"><ele>961.0</ele><time>2026-03-22T12:07:45.15Z</time></trkpt><trkpt lat="39.9356262" lon="-2.2260861"><ele>960.0000000000001</ele><time>2026-03-22T12:07:46.133Z</time></trkpt><trkpt lat="39.9356416" lon="-2.2262003"><ele>959.0</ele><time>2026-03-22T12:07:47.147Z</time></trkpt><trkpt lat="39.9356446" lon="-2.2263137"><ele>959.0</ele><time>2026-03-22T12:07:48.16Z</time></trkpt><trkpt lat="39.9356457" lon="-2.2264336"><ele>959.0000000000001</ele><time>2026-03-22T12:07:49.184Z</time></trkpt><trkpt lat="39.9356564" lon="-2.2265646"><ele>959.0000000000001</ele><time>2026-03-22T12:07:50.143Z</time></trkpt><trkpt lat="39.9356787" lon="-2.2267029"><ele>959.0</ele><time>2026-03-22T12:07:51.161Z</time></trkpt><trkpt lat="39.9357038" lon="-2.2268433"><ele>959.0</ele><time>2026-03-22T12:07:52.142Z</time></trkpt><trkpt lat="39.9357236" lon="-2.2269845"><ele>958.4000000000001</ele><time>2026-03-22T12:07:53.144Z</time></trkpt><trkpt lat="39.9357336" lon="-2.2271271"><ele>957.8000000000001</ele><time>2026-03-22T12:07:54.164Z</time></trkpt><trkpt lat="39.9357404" lon="-2.2272689"><ele>957.1999999999999</ele><time>2026-03-22T12:07:55.139Z</time></trkpt><trkpt lat="39.9357527" lon="-2.2274105"><ele>956.5999999999999</ele><time>2026-03-22T12:07:56.158Z</time></trkpt><trkpt lat="39.9357722" lon="-2.2275474"><ele>956.0</ele><time>2026-03-22T12:07:57.17Z</time></trkpt><trkpt lat="39.9357996" lon="-2.2276799"><ele>955.1999999999999</ele><time>2026-03-22T12:07:58.169Z</time></trkpt><trkpt lat="39.9358327" lon="-2.2278123"><ele>954.3999999999999</ele><time>2026-03-22T12:07:59.172Z</time></trkpt><trkpt lat="39.9358805" lon="-2.2279321"><ele>953.6</ele><time>2026-03-22T12:08:00.15Z</time></trkpt><trkpt lat="39.9359338" lon="-2.2280258"><ele>952.8</ele><time>2026-03-22T12:08:01.174Z</time></trkpt><trkpt lat="39.9359909" lon="-2.2281313"><ele>952.0</ele><time>2026-03-22T12:08:02.164Z</time></trkpt><trkpt lat="39.9360607" lon="-2.2282263"><ele>950.4000000000001</ele><time>2026-03-22T12:08:03.159Z</time></trkpt><trkpt lat="39.9361352" lon="-2.22832"><ele>948.8000000000001</ele><time>2026-03-22T12:08:04.176Z</time></trkpt><trkpt lat="39.9362093" lon="-2.2284107"><ele>947.2</ele><time>2026-03-22T12:08:05.204Z</time></trkpt><trkpt lat="39.9362857" lon="-2.2284719"><ele>945.6</ele><time>2026-03-22T12:08:06.166Z</time></trkpt><trkpt lat="39.9363588" lon="-2.2285364"><ele>944.0</ele><time>2026-03-22T12:08:07.153Z</time></trkpt><trkpt lat="39.9364306" lon="-2.2286063"><ele>944.0</ele><time>2026-03-22T12:08:08.163Z</time></trkpt><trkpt lat="39.9365023" lon="-2.2286849"><ele>944.0000000000001</ele><time>2026-03-22T12:08:09.163Z</time></trkpt><trkpt lat="39.9365736" lon="-2.2287807"><ele>944.0000000000001</ele><time>2026-03-22T12:08:10.171Z</time></trkpt><trkpt lat="39.9366475" lon="-2.2288738"><ele>944.0</ele><time>2026-03-22T12:08:11.149Z</time></trkpt><trkpt lat="39.9367157" lon="-2.22897"><ele>944.0</ele><time>2026-03-22T12:08:12.15Z</time></trkpt><trkpt lat="39.9367795" lon="-2.2290592"><ele>942.2</ele><time>2026-03-22T12:08:13.193Z</time></trkpt><trkpt lat="39.9368478" lon="-2.2291284"><ele>940.4000000000001</ele><time>2026-03-22T12:08:14.25Z</time></trkpt><trkpt lat="39.9369892" lon="-2.2292411"><ele>938.6</ele><time>2026-03-22T12:08:16.155Z</time></trkpt><trkpt lat="39.9370551" lon="-2.2292745"><ele>936.8</ele><time>2026-03-22T12:08:17.163Z</time></trkpt><trkpt lat="39.9371528" lon="-2.229302"><ele>935.0</ele><time>2026-03-22T12:08:19.156Z</time></trkpt><trkpt lat="39.9372012" lon="-2.2293666"><ele>935.0000000000001</ele><time>2026-03-22T12:08:21.144Z</time></trkpt><trkpt lat="39.9371831" lon="-2.2294602"><ele>935.0</ele><time>2026-03-22T12:08:23.179Z</time></trkpt><trkpt lat="39.9370956" lon="-2.2295562"><ele>935.0</ele><time>2026-03-22T12:08:25.121Z</time></trkpt><trkpt lat="39.9370464" lon="-2.2296093"><ele>935.0</ele><time>2026-03-22T12:08:26.137Z</time></trkpt><trkpt lat="39.9369891" lon="-2.2296758"><ele>935.0000000000001</ele><time>2026-03-22T12:08:27.148Z</time></trkpt><trkpt lat="39.9369338" lon="-2.2297506"><ele>935.0</ele><time>2026-03-22T12:08:28.156Z</time></trkpt><trkpt lat="39.9368722" lon="-2.2298206"><ele>935.0000000000001</ele><time>2026-03-22T12:08:29.176Z</time></trkpt><trkpt lat="39.9368085" lon="-2.2298869"><ele>935.0</ele><time>2026-03-22T12:08:30.15Z</time></trkpt><trkpt lat="39.936736" lon="-2.2299661"><ele>935.0</ele><time>2026-03-22T12:08:31.148Z</time></trkpt><trkpt lat="39.9366688" lon="-2.2300406"><ele>935.0</ele><time>2026-03-22T12:08:32.184Z</time></trkpt><trkpt lat="39.9365888" lon="-2.2300838"><ele>935.0000000000001</ele><time>2026-03-22T12:08:33.183Z</time></trkpt><trkpt lat="39.9365115" lon="-2.2301195"><ele>935.0</ele><time>2026-03-22T12:08:34.152Z</time></trkpt><trkpt lat="39.9364289" lon="-2.2301799"><ele>935.0</ele><time>2026-03-22T12:08:35.141Z</time></trkpt><trkpt lat="39.9363333" lon="-2.2302169"><ele>935.0</ele><time>2026-03-22T12:08:36.16Z</time></trkpt><trkpt lat="39.936238" lon="-2.2302431"><ele>935.0</ele><time>2026-03-22T12:08:37.159Z</time></trkpt><trkpt lat="39.9361451" lon="-2.2302754"><ele>935.0</ele><time>2026-03-22T12:08:38.129Z</time></trkpt><trkpt lat="39.9360517" lon="-2.2303025"><ele>935.0</ele><time>2026-03-22T12:08:39.192Z</time></trkpt><trkpt lat="39.9359546" lon="-2.2303311"><ele>934.0</ele><time>2026-03-22T12:08:40.154Z</time></trkpt><trkpt lat="39.9358705" lon="-2.2303808"><ele>933.0</ele><time>2026-03-22T12:08:41.152Z</time></trkpt><trkpt lat="39.9357823" lon="-2.2304373"><ele>932.0</ele><time>2026-03-22T12:08:42.164Z</time></trkpt><trkpt lat="39.9356924" lon="-2.2305013"><ele>931.0</ele><time>2026-03-22T12:08:43.163Z</time></trkpt><trkpt lat="39.935624" lon="-2.2305827"><ele>930.0</ele><time>2026-03-22T12:08:44.144Z</time></trkpt><trkpt lat="39.9355544" lon="-2.2306656"><ele>929.5</ele><time>2026-03-22T12:08:45.148Z</time></trkpt><trkpt lat="39.9354674" lon="-2.2307342"><ele>929.0</ele><time>2026-03-22T12:08:46.161Z</time></trkpt><trkpt lat="39.9353983" lon="-2.2308219"><ele>928.5</ele><time>2026-03-22T12:08:47.142Z</time></trkpt><trkpt lat="39.9353411" lon="-2.2309155"><ele>928.0</ele><time>2026-03-22T12:08:48.144Z</time></trkpt><trkpt lat="39.9352997" lon="-2.231009"><ele>927.5</ele><time>2026-03-22T12:08:49.174Z</time></trkpt><trkpt lat="39.9352489" lon="-2.2310786"><ele>927.0</ele><time>2026-03-22T12:08:50.184Z</time></trkpt><trkpt lat="39.9352161" lon="-2.2311663"><ele>927.0</ele><time>2026-03-22T12:08:51.189Z</time></trkpt><trkpt lat="39.9351824" lon="-2.2312631"><ele>927.0</ele><time>2026-03-22T12:08:52.189Z</time></trkpt><trkpt lat="39.935146" lon="-2.231371"><ele>927.0</ele><time>2026-03-22T12:08:53.149Z</time></trkpt><trkpt lat="39.9351116" lon="-2.2314734"><ele>927.0</ele><time>2026-03-22T12:08:54.15Z</time></trkpt><trkpt lat="39.9350849" lon="-2.2315716"><ele>927.0</ele><time>2026-03-22T12:08:55.154Z</time></trkpt><trkpt lat="39.9350632" lon="-2.2316749"><ele>927.0</ele><time>2026-03-22T12:08:56.147Z</time></trkpt><trkpt lat="39.9350279" lon="-2.2317704"><ele>924.8</ele><time>2026-03-22T12:08:57.141Z</time></trkpt><trkpt lat="39.9350287" lon="-2.2318881"><ele>922.6</ele><time>2026-03-22T12:08:58.137Z</time></trkpt><trkpt lat="39.9350267" lon="-2.2320121"><ele>920.3999999999999</ele><time>2026-03-22T12:08:59.154Z</time></trkpt><trkpt lat="39.9350286" lon="-2.2321331"><ele>918.1999999999999</ele><time>2026-03-22T12:09:00.137Z</time></trkpt><trkpt lat="39.9350293" lon="-2.2322572"><ele>916.0</ele><time>2026-03-22T12:09:01.165Z</time></trkpt><trkpt lat="39.9350289" lon="-2.2323813"><ele>914.6666666666666</ele><time>2026-03-22T12:09:02.151Z</time></trkpt><trkpt lat="39.9350258" lon="-2.2325049"><ele>913.3333333333333</ele><time>2026-03-22T12:09:03.145Z</time></trkpt><trkpt lat="39.9350213" lon="-2.2326319"><ele>912.0</ele><time>2026-03-22T12:09:04.176Z</time></trkpt><trkpt lat="39.9350176" lon="-2.2327524"><ele>910.6666666666667</ele><time>2026-03-22T12:09:05.16Z</time></trkpt><trkpt lat="39.9350088" lon="-2.232863"><ele>909.3333333333334</ele><time>2026-03-22T12:09:06.147Z</time></trkpt><trkpt lat="39.9349994" lon="-2.2329567"><ele>908.0</ele><time>2026-03-22T12:09:07.171Z</time></trkpt><trkpt lat="39.9349483" lon="-2.2330871"><ele>907.8333333333334</ele><time>2026-03-22T12:09:09.119Z</time></trkpt><trkpt lat="39.9348645" lon="-2.2331984"><ele>907.6666666666667</ele><time>2026-03-22T12:09:11.167Z</time></trkpt><trkpt lat="39.9348074" lon="-2.2332601"><ele>907.5</ele><time>2026-03-22T12:09:12.185Z</time></trkpt><trkpt lat="39.9347481" lon="-2.2333263"><ele>907.3333333333333</ele><time>2026-03-22T12:09:13.172Z</time></trkpt><trkpt lat="39.9346862" lon="-2.2334082"><ele>907.1666666666666</ele><time>2026-03-22T12:09:14.139Z</time></trkpt><trkpt lat="39.9346289" lon="-2.2334966"><ele>907.0</ele><time>2026-03-22T12:09:15.147Z</time></trkpt><trkpt lat="39.9345676" lon="-2.2335867"><ele>906.9999999999999</ele><time>2026-03-22T12:09:16.173Z</time></trkpt><trkpt lat="39.9345122" lon="-2.2336686"><ele>907.0</ele><time>2026-03-22T12:09:17.152Z</time></trkpt><trkpt lat="39.9344574" lon="-2.2337546"><ele>907.0</ele><time>2026-03-22T12:09:18.15Z</time></trkpt><trkpt lat="39.9343764" lon="-2.2338162"><ele>907.0</ele><time>2026-03-22T12:09:19.151Z</time></trkpt><trkpt lat="39.9343183" lon="-2.2339108"><ele>906.9999999999999</ele><time>2026-03-22T12:09:20.143Z</time></trkpt><trkpt lat="39.9342523" lon="-2.2339846"><ele>907.0</ele><time>2026-03-22T12:09:21.168Z</time></trkpt><trkpt lat="39.9341823" lon="-2.234052"><ele>904.8333333333333</ele><time>2026-03-22T12:09:22.152Z</time></trkpt><trkpt lat="39.9341137" lon="-2.2341254"><ele>902.6666666666666</ele><time>2026-03-22T12:09:23.136Z</time></trkpt><trkpt lat="39.934051" lon="-2.2342011"><ele>900.5</ele><time>2026-03-22T12:09:24.148Z</time></trkpt><trkpt lat="39.9340127" lon="-2.2342841"><ele>898.3333333333333</ele><time>2026-03-22T12:09:25.158Z</time></trkpt><trkpt lat="39.9339825" lon="-2.2343564"><ele>896.1666666666666</ele><time>2026-03-22T12:09:26.147Z</time></trkpt><trkpt lat="39.9339227" lon="-2.2344674"><ele>894.0</ele><time>2026-03-22T12:09:28.142Z</time></trkpt><trkpt lat="39.9338855" lon="-2.2345485"><ele>894.0</ele><time>2026-03-22T12:09:30.158Z</time></trkpt><trkpt lat="39.9338248" lon="-2.2346346"><ele>894.0</ele><time>2026-03-22T12:09:33.158Z</time></trkpt><trkpt lat="39.9338644" lon="-2.234554"><ele>894.0</ele><time>2026-03-22T12:09:41.181Z</time></trkpt><trkpt lat="39.9339326" lon="-2.2344273"><ele>894.0</ele><time>2026-03-22T12:09:43.162Z</time></trkpt><trkpt lat="39.9339684" lon="-2.2343446"><ele>894.0</ele><time>2026-03-22T12:09:44.143Z</time></trkpt><trkpt lat="39.9340126" lon="-2.2342561"><ele>894.0</ele><time>2026-03-22T12:09:45.131Z</time></trkpt><trkpt lat="39.9340642" lon="-2.234163"><ele>894.0</ele><time>2026-03-22T12:09:46.134Z</time></trkpt><trkpt lat="39.9341188" lon="-2.2340844"><ele>894.0</ele><time>2026-03-22T12:09:47.156Z</time></trkpt><trkpt lat="39.9341839" lon="-2.2340217"><ele>894.0</ele><time>2026-03-22T12:09:48.146Z</time></trkpt><trkpt lat="39.9342576" lon="-2.233974"><ele>894.0</ele><time>2026-03-22T12:09:49.163Z</time></trkpt><trkpt lat="39.9343277" lon="-2.2339202"><ele>894.0</ele><time>2026-03-22T12:09:50.145Z</time></trkpt><trkpt lat="39.9343973" lon="-2.2338496"><ele>894.0</ele><time>2026-03-22T12:09:51.146Z</time></trkpt><trkpt lat="39.9344606" lon="-2.2337778"><ele>896.1666666666666</ele><time>2026-03-22T12:09:52.174Z</time></trkpt><trkpt lat="39.9345245" lon="-2.233708"><ele>898.3333333333333</ele><time>2026-03-22T12:09:53.178Z</time></trkpt><trkpt lat="39.9345891" lon="-2.2336299"><ele>900.5</ele><time>2026-03-22T12:09:54.141Z</time></trkpt><trkpt lat="39.9346494" lon="-2.233547"><ele>902.6666666666666</ele><time>2026-03-22T12:09:55.14Z</time></trkpt><trkpt lat="39.9347038" lon="-2.233467"><ele>904.8333333333333</ele><time>2026-03-22T12:09:56.158Z</time></trkpt><trkpt lat="39.9347586" lon="-2.233388"><ele>907.0</ele><time>2026-03-22T12:09:57.146Z</time></trkpt><trkpt lat="39.9348127" lon="-2.2333149"><ele>906.9999999999999</ele><time>2026-03-22T12:09:58.169Z</time></trkpt><trkpt lat="39.9348689" lon="-2.23324"><ele>907.0</ele><time>2026-03-22T12:09:59.158Z</time></trkpt><trkpt lat="39.9349171" lon="-2.2331615"><ele>907.0</ele><time>2026-03-22T12:10:00.177Z</time></trkpt><trkpt lat="39.9349559" lon="-2.2330876"><ele>907.0</ele><time>2026-03-22T12:10:01.165Z</time></trkpt><trkpt lat="39.934988" lon="-2.2330041"><ele>906.9999999999999</ele><time>2026-03-22T12:10:02.151Z</time></trkpt><trkpt lat="39.9350131" lon="-2.2328858"><ele>907.0</ele><time>2026-03-22T12:10:03.161Z</time></trkpt><trkpt lat="39.9350163" lon="-2.2327474"><ele>907.2</ele><time>2026-03-22T12:10:04.159Z</time></trkpt><trkpt lat="39.9350148" lon="-2.2326048"><ele>907.4000000000001</ele><time>2026-03-22T12:10:05.137Z</time></trkpt><trkpt lat="39.9350162" lon="-2.2324589"><ele>907.5999999999999</ele><time>2026-03-22T12:10:06.147Z</time></trkpt><trkpt lat="39.935019" lon="-2.2323202"><ele>907.8</ele><time>2026-03-22T12:10:07.146Z</time></trkpt><trkpt lat="39.9350127" lon="-2.2321955"><ele>908.0</ele><time>2026-03-22T12:10:08.135Z</time></trkpt><trkpt lat="39.9350099" lon="-2.232073"><ele>909.5999999999999</ele><time>2026-03-22T12:10:09.177Z</time></trkpt><trkpt lat="39.9350202" lon="-2.231949"><ele>911.1999999999999</ele><time>2026-03-22T12:10:10.16Z</time></trkpt><trkpt lat="39.935031" lon="-2.2318231"><ele>912.8</ele><time>2026-03-22T12:10:11.179Z</time></trkpt><trkpt lat="39.9350539" lon="-2.2316992"><ele>914.4</ele><time>2026-03-22T12:10:12.145Z</time></trkpt><trkpt lat="39.9350788" lon="-2.2315812"><ele>916.0</ele><time>2026-03-22T12:10:13.198Z</time></trkpt><trkpt lat="39.9351271" lon="-2.2314795"><ele>917.8333333333333</ele><time>2026-03-22T12:10:14.167Z</time></trkpt><trkpt lat="39.9351768" lon="-2.2313643"><ele>919.6666666666666</ele><time>2026-03-22T12:10:15.193Z</time></trkpt><trkpt lat="39.9352282" lon="-2.2312642"><ele>921.5</ele><time>2026-03-22T12:10:16.164Z</time></trkpt><trkpt lat="39.9352725" lon="-2.2311783"><ele>923.3333333333333</ele><time>2026-03-22T12:10:17.18Z</time></trkpt><trkpt lat="39.9353227" lon="-2.2310927"><ele>925.1666666666666</ele><time>2026-03-22T12:10:18.228Z</time></trkpt><trkpt lat="39.9353839" lon="-2.2310002"><ele>927.0</ele><time>2026-03-22T12:10:19.147Z</time></trkpt><trkpt lat="39.9354453" lon="-2.2308939"><ele>927.0</ele><time>2026-03-22T12:10:20.16Z</time></trkpt><trkpt lat="39.9355112" lon="-2.2307919"><ele>927.0</ele><time>2026-03-22T12:10:21.138Z</time></trkpt><trkpt lat="39.9355788" lon="-2.2307003"><ele>927.0</ele><time>2026-03-22T12:10:22.17Z</time></trkpt><trkpt lat="39.9356469" lon="-2.2306043"><ele>927.0</ele><time>2026-03-22T12:10:23.147Z</time></trkpt><trkpt lat="39.9357284" lon="-2.2305249"><ele>927.0</ele><time>2026-03-22T12:10:24.143Z</time></trkpt><trkpt lat="39.9358118" lon="-2.2304579"><ele>928.6</ele><time>2026-03-22T12:10:25.144Z</time></trkpt><trkpt lat="39.9358931" lon="-2.2303845"><ele>930.2</ele><time>2026-03-22T12:10:26.151Z</time></trkpt><trkpt lat="39.9359799" lon="-2.2303327"><ele>931.8</ele><time>2026-03-22T12:10:27.169Z</time></trkpt><trkpt lat="39.9360719" lon="-2.2302859"><ele>933.4</ele><time>2026-03-22T12:10:28.166Z</time></trkpt><trkpt lat="39.936167" lon="-2.2302465"><ele>935.0</ele><time>2026-03-22T12:10:29.148Z</time></trkpt><trkpt lat="39.9362731" lon="-2.2302261"><ele>935.0</ele><time>2026-03-22T12:10:30.156Z</time></trkpt><trkpt lat="39.9363819" lon="-2.2301968"><ele>935.0</ele><time>2026-03-22T12:10:31.168Z</time></trkpt><trkpt lat="39.9364816" lon="-2.23014"><ele>935.0</ele><time>2026-03-22T12:10:32.163Z</time></trkpt><trkpt lat="39.9365743" lon="-2.2300947"><ele>935.0</ele><time>2026-03-22T12:10:33.142Z</time></trkpt><trkpt lat="39.9366624" lon="-2.2300544"><ele>935.0</ele><time>2026-03-22T12:10:34.14Z</time></trkpt><trkpt lat="39.9367387" lon="-2.2299953"><ele>935.0000000000001</ele><time>2026-03-22T12:10:35.193Z</time></trkpt><trkpt lat="39.9368094" lon="-2.2299247"><ele>935.0</ele><time>2026-03-22T12:10:36.15Z</time></trkpt><trkpt lat="39.9368734" lon="-2.2298519"><ele>935.0</ele><time>2026-03-22T12:10:37.154Z</time></trkpt><trkpt lat="39.9369412" lon="-2.2297846"><ele>935.0</ele><time>2026-03-22T12:10:38.152Z</time></trkpt><trkpt lat="39.937006" lon="-2.2297137"><ele>935.0000000000001</ele><time>2026-03-22T12:10:39.18Z</time></trkpt><trkpt lat="39.9370627" lon="-2.2296478"><ele>935.0</ele><time>2026-03-22T12:10:40.15Z</time></trkpt><trkpt lat="39.9371098" lon="-2.229584"><ele>935.0</ele><time>2026-03-22T12:10:41.15Z</time></trkpt><trkpt lat="39.9371996" lon="-2.2295156"><ele>935.0</ele><time>2026-03-22T12:10:43.134Z</time></trkpt><trkpt lat="39.9372951" lon="-2.2295084"><ele>935.0</ele><time>2026-03-22T12:10:45.15Z</time></trkpt><trkpt lat="39.9373978" lon="-2.2295419"><ele>935.0</ele><time>2026-03-22T12:10:47.143Z</time></trkpt><trkpt lat="39.9375162" lon="-2.2295736"><ele>935.0</ele><time>2026-03-22T12:10:49.141Z</time></trkpt><trkpt lat="39.9375945" lon="-2.2295858"><ele>933.4</ele><time>2026-03-22T12:10:50.159Z</time></trkpt><trkpt lat="39.9376865" lon="-2.2296063"><ele>931.8</ele><time>2026-03-22T12:10:51.163Z</time></trkpt><trkpt lat="39.9377872" lon="-2.2296526"><ele>930.2</ele><time>2026-03-22T12:10:52.15Z</time></trkpt><trkpt lat="39.9379036" lon="-2.2296888"><ele>928.6</ele><time>2026-03-22T12:10:53.154Z</time></trkpt><trkpt lat="39.938025" lon="-2.2297281"><ele>927.0</ele><time>2026-03-22T12:10:54.149Z</time></trkpt><trkpt lat="39.9381401" lon="-2.2297596"><ele>927.0</ele><time>2026-03-22T12:10:55.165Z</time></trkpt><trkpt lat="39.9382475" lon="-2.2297898"><ele>927.0</ele><time>2026-03-22T12:10:56.158Z</time></trkpt><trkpt lat="39.9383469" lon="-2.2298204"><ele>927.0</ele><time>2026-03-22T12:10:57.153Z</time></trkpt><trkpt lat="39.9384422" lon="-2.2298444"><ele>927.0</ele><time>2026-03-22T12:10:58.132Z</time></trkpt><trkpt lat="39.9385365" lon="-2.2298785"><ele>927.0</ele><time>2026-03-22T12:10:59.148Z</time></trkpt><trkpt lat="39.9386272" lon="-2.2299447"><ele>926.0</ele><time>2026-03-22T12:11:00.166Z</time></trkpt><trkpt lat="39.9387243" lon="-2.229998"><ele>925.0</ele><time>2026-03-22T12:11:01.15Z</time></trkpt><trkpt lat="39.9388189" lon="-2.2300495"><ele>924.0</ele><time>2026-03-22T12:11:02.145Z</time></trkpt><trkpt lat="39.9389042" lon="-2.2300998"><ele>923.0</ele><time>2026-03-22T12:11:03.141Z</time></trkpt><trkpt lat="39.9389808" lon="-2.230143"><ele>922.0</ele><time>2026-03-22T12:11:04.138Z</time></trkpt><trkpt lat="39.9390469" lon="-2.2302402"><ele>922.0</ele><time>2026-03-22T12:11:05.164Z</time></trkpt><trkpt lat="39.9391381" lon="-2.2302989"><ele>922.0</ele><time>2026-03-22T12:11:06.155Z</time></trkpt><trkpt lat="39.9392284" lon="-2.2303785"><ele>922.0</ele><time>2026-03-22T12:11:07.151Z</time></trkpt><trkpt lat="39.939308" lon="-2.2304722"><ele>922.0</ele><time>2026-03-22T12:11:08.146Z</time></trkpt><trkpt lat="39.9393814" lon="-2.230584"><ele>922.0</ele><time>2026-03-22T12:11:09.152Z</time></trkpt><trkpt lat="39.9394692" lon="-2.2306826"><ele>920.4000000000001</ele><time>2026-03-22T12:11:10.138Z</time></trkpt><trkpt lat="39.9395555" lon="-2.2307695"><ele>918.8000000000001</ele><time>2026-03-22T12:11:11.153Z</time></trkpt><trkpt lat="39.9396483" lon="-2.2308306"><ele>917.2</ele><time>2026-03-22T12:11:12.168Z</time></trkpt><trkpt lat="39.9397375" lon="-2.2308748"><ele>915.6</ele><time>2026-03-22T12:11:13.164Z</time></trkpt><trkpt lat="39.9398137" lon="-2.2309139"><ele>914.0</ele><time>2026-03-22T12:11:14.14Z</time></trkpt><trkpt lat="39.9398739" lon="-2.230956"><ele>914.0000000000001</ele><time>2026-03-22T12:11:15.149Z</time></trkpt><trkpt lat="39.939952" lon="-2.2310664"><ele>914.0</ele><time>2026-03-22T12:11:17.138Z</time></trkpt><trkpt lat="39.9399821" lon="-2.2311465"><ele>914.0</ele><time>2026-03-22T12:11:18.138Z</time></trkpt><trkpt lat="39.9400096" lon="-2.2312382"><ele>914.0</ele><time>2026-03-22T12:11:19.152Z</time></trkpt><trkpt lat="39.9400322" lon="-2.2313454"><ele>914.0000000000001</ele><time>2026-03-22T12:11:20.153Z</time></trkpt><trkpt lat="39.9400528" lon="-2.2314613"><ele>914.0</ele><time>2026-03-22T12:11:21.15Z</time></trkpt><trkpt lat="39.9400812" lon="-2.2315747"><ele>915.5000000000001</ele><time>2026-03-22T12:11:22.15Z</time></trkpt><trkpt lat="39.9401075" lon="-2.2316714"><ele>917.0</ele><time>2026-03-22T12:11:23.152Z</time></trkpt><trkpt lat="39.9401292" lon="-2.2317758"><ele>918.5</ele><time>2026-03-22T12:11:24.144Z</time></trkpt><trkpt lat="39.9401503" lon="-2.2318791"><ele>920.0</ele><time>2026-03-22T12:11:25.137Z</time></trkpt><trkpt lat="39.9401684" lon="-2.2319867"><ele>921.5000000000001</ele><time>2026-03-22T12:11:26.152Z</time></trkpt><trkpt lat="39.940189" lon="-2.2320877"><ele>923.0</ele><time>2026-03-22T12:11:27.151Z</time></trkpt><trkpt lat="39.9402127" lon="-2.2321957"><ele>921.8</ele><time>2026-03-22T12:11:28.147Z</time></trkpt><trkpt lat="39.9402264" lon="-2.2323303"><ele>920.5999999999999</ele><time>2026-03-22T12:11:29.136Z</time></trkpt><trkpt lat="39.9402328" lon="-2.2324739"><ele>919.4000000000001</ele><time>2026-03-22T12:11:30.136Z</time></trkpt><trkpt lat="39.9402492" lon="-2.2326049"><ele>918.2</ele><time>2026-03-22T12:11:31.137Z</time></trkpt><trkpt lat="39.9402615" lon="-2.2327258"><ele>917.0</ele><time>2026-03-22T12:11:32.151Z</time></trkpt><trkpt lat="39.9402793" lon="-2.2328386"><ele>917.0000000000001</ele><time>2026-03-22T12:11:33.147Z</time></trkpt><trkpt lat="39.9402926" lon="-2.232955"><ele>917.0</ele><time>2026-03-22T12:11:34.153Z</time></trkpt><trkpt lat="39.9403123" lon="-2.2330618"><ele>917.0</ele><time>2026-03-22T12:11:35.131Z</time></trkpt><trkpt lat="39.9403319" lon="-2.2331618"><ele>917.0</ele><time>2026-03-22T12:11:36.145Z</time></trkpt><trkpt lat="39.9403448" lon="-2.2332672"><ele>917.0000000000001</ele><time>2026-03-22T12:11:37.158Z</time></trkpt><trkpt lat="39.9403655" lon="-2.2333698"><ele>917.0</ele><time>2026-03-22T12:11:38.139Z</time></trkpt><trkpt lat="39.940384" lon="-2.2334709"><ele>916.0000000000001</ele><time>2026-03-22T12:11:39.158Z</time></trkpt><trkpt lat="39.9403993" lon="-2.2335694"><ele>915.0</ele><time>2026-03-22T12:11:40.137Z</time></trkpt><trkpt lat="39.9404085" lon="-2.2336696"><ele>914.0</ele><time>2026-03-22T12:11:41.15Z</time></trkpt><trkpt lat="39.9404274" lon="-2.2337732"><ele>913.0</ele><time>2026-03-22T12:11:42.137Z</time></trkpt><trkpt lat="39.9404714" lon="-2.2338604"><ele>912.0000000000001</ele><time>2026-03-22T12:11:43.151Z</time></trkpt><trkpt lat="39.9405244" lon="-2.2339511"><ele>911.0</ele><time>2026-03-22T12:11:44.138Z</time></trkpt><trkpt lat="39.9405757" lon="-2.2340503"><ele>909.5000000000001</ele><time>2026-03-22T12:11:45.134Z</time></trkpt><trkpt lat="39.9406157" lon="-2.2341699"><ele>908.0</ele><time>2026-03-22T12:11:46.148Z</time></trkpt><trkpt lat="39.9406458" lon="-2.2342841"><ele>906.5</ele><time>2026-03-22T12:11:47.167Z</time></trkpt><trkpt lat="39.9406667" lon="-2.2343897"><ele>905.0</ele><time>2026-03-22T12:11:48.185Z</time></trkpt><trkpt lat="39.9406846" lon="-2.2344944"><ele>903.5000000000001</ele><time>2026-03-22T12:11:49.161Z</time></trkpt><trkpt lat="39.9407041" lon="-2.2346092"><ele>902.0</ele><time>2026-03-22T12:11:50.159Z</time></trkpt><trkpt lat="39.9407229" lon="-2.234733"><ele>900.8</ele><time>2026-03-22T12:11:51.14Z</time></trkpt><trkpt lat="39.9407545" lon="-2.2348468"><ele>899.6</ele><time>2026-03-22T12:11:52.15Z</time></trkpt><trkpt lat="39.9407859" lon="-2.2349623"><ele>898.3999999999999</ele><time>2026-03-22T12:11:53.145Z</time></trkpt><trkpt lat="39.9408165" lon="-2.2350782"><ele>897.1999999999999</ele><time>2026-03-22T12:11:54.144Z</time></trkpt><trkpt lat="39.9408437" lon="-2.2351987"><ele>896.0</ele><time>2026-03-22T12:11:55.144Z</time></trkpt><trkpt lat="39.9408735" lon="-2.2353103"><ele>897.5999999999999</ele><time>2026-03-22T12:11:56.142Z</time></trkpt><trkpt lat="39.9408974" lon="-2.2354266"><ele>899.1999999999999</ele><time>2026-03-22T12:11:57.144Z</time></trkpt><trkpt lat="39.9409204" lon="-2.2355452"><ele>900.8000000000001</ele><time>2026-03-22T12:11:58.145Z</time></trkpt><trkpt lat="39.940937" lon="-2.2356598"><ele>902.4000000000001</ele><time>2026-03-22T12:11:59.145Z</time></trkpt><trkpt lat="39.9409539" lon="-2.2357715"><ele>904.0</ele><time>2026-03-22T12:12:00.153Z</time></trkpt><trkpt lat="39.9409736" lon="-2.2358868"><ele>903.9999999999999</ele><time>2026-03-22T12:12:01.16Z</time></trkpt><trkpt lat="39.9409956" lon="-2.2359982"><ele>904.0</ele><time>2026-03-22T12:12:02.16Z</time></trkpt><trkpt lat="39.941018" lon="-2.2360964"><ele>904.0</ele><time>2026-03-22T12:12:03.154Z</time></trkpt><trkpt lat="39.9410466" lon="-2.236186"><ele>904.0</ele><time>2026-03-22T12:12:04.167Z</time></trkpt><trkpt lat="39.941075" lon="-2.2362609"><ele>903.9999999999999</ele><time>2026-03-22T12:12:05.145Z</time></trkpt><trkpt lat="39.9411296" lon="-2.2363766"><ele>904.0</ele><time>2026-03-22T12:12:07.139Z</time></trkpt><trkpt lat="39.9411748" lon="-2.2364823"><ele>901.6666666666666</ele><time>2026-03-22T12:12:09.15Z</time></trkpt><trkpt lat="39.9412371" lon="-2.2366133"><ele>899.3333333333333</ele><time>2026-03-22T12:12:11.172Z</time></trkpt><trkpt lat="39.9412904" lon="-2.236679"><ele>897.0</ele><time>2026-03-22T12:12:12.189Z</time></trkpt><trkpt lat="39.9413477" lon="-2.2367551"><ele>894.6666666666667</ele><time>2026-03-22T12:12:13.178Z</time></trkpt><trkpt lat="39.941404" lon="-2.2368338"><ele>892.3333333333334</ele><time>2026-03-22T12:12:14.153Z</time></trkpt><trkpt lat="39.9414479" lon="-2.2369224"><ele>890.0</ele><time>2026-03-22T12:12:15.151Z</time></trkpt><trkpt lat="39.9414864" lon="-2.2370169"><ele>890.0000000000001</ele><time>2026-03-22T12:12:16.147Z</time></trkpt><trkpt lat="39.9415196" lon="-2.2371133"><ele>890.0</ele><time>2026-03-22T12:12:17.183Z</time></trkpt><trkpt lat="39.9415406" lon="-2.2372179"><ele>890.0</ele><time>2026-03-22T12:12:18.176Z</time></trkpt><trkpt lat="39.941542" lon="-2.2373284"><ele>890.0</ele><time>2026-03-22T12:12:19.187Z</time></trkpt><trkpt lat="39.941549" lon="-2.2374314"><ele>890.0000000000001</ele><time>2026-03-22T12:12:20.158Z</time></trkpt><trkpt lat="39.9415564" lon="-2.2375276"><ele>890.0</ele><time>2026-03-22T12:12:21.194Z</time></trkpt><trkpt lat="39.9415717" lon="-2.2376292"><ele>888.6</ele><time>2026-03-22T12:12:22.23Z</time></trkpt><trkpt lat="39.9415983" lon="-2.2377404"><ele>887.2</ele><time>2026-03-22T12:12:23.19Z</time></trkpt><trkpt lat="39.9416417" lon="-2.2378546"><ele>885.8</ele><time>2026-03-22T12:12:24.143Z</time></trkpt><trkpt lat="39.9416959" lon="-2.2379655"><ele>884.4</ele><time>2026-03-22T12:12:25.157Z</time></trkpt><trkpt lat="39.9417492" lon="-2.2380698"><ele>883.0</ele><time>2026-03-22T12:12:26.152Z</time></trkpt><trkpt lat="39.9418019" lon="-2.2381636"><ele>882.9999999999999</ele><time>2026-03-22T12:12:27.144Z</time></trkpt><trkpt lat="39.9418496" lon="-2.2382558"><ele>883.0</ele><time>2026-03-22T12:12:28.173Z</time></trkpt><trkpt lat="39.9418947" lon="-2.2383462"><ele>883.0</ele><time>2026-03-22T12:12:29.144Z</time></trkpt><trkpt lat="39.9419369" lon="-2.2384345"><ele>883.0</ele><time>2026-03-22T12:12:30.153Z</time></trkpt><trkpt lat="39.9419762" lon="-2.2385157"><ele>882.9999999999999</ele><time>2026-03-22T12:12:31.16Z</time></trkpt><trkpt lat="39.942013" lon="-2.2385865"><ele>883.0</ele><time>2026-03-22T12:12:32.149Z</time></trkpt><trkpt lat="39.9420688" lon="-2.2387119"><ele>883.0</ele><time>2026-03-22T12:12:34.151Z</time></trkpt><trkpt lat="39.9421323" lon="-2.2388279"><ele>883.0</ele><time>2026-03-22T12:12:36.167Z</time></trkpt><trkpt lat="39.9421698" lon="-2.2389261"><ele>883.0</ele><time>2026-03-22T12:12:38.171Z</time></trkpt><trkpt lat="39.9421742" lon="-2.2390852"><ele>883.0</ele><time>2026-03-22T12:12:40.207Z</time></trkpt><trkpt lat="39.9421744" lon="-2.2392442"><ele>883.0</ele><time>2026-03-22T12:12:42.14Z</time></trkpt><trkpt lat="39.9421647" lon="-2.2393406"><ele>882.6666666666666</ele><time>2026-03-22T12:12:43.147Z</time></trkpt><trkpt lat="39.9421538" lon="-2.2394436"><ele>882.3333333333333</ele><time>2026-03-22T12:12:44.133Z</time></trkpt><trkpt lat="39.9421329" lon="-2.2395516"><ele>882.0</ele><time>2026-03-22T12:12:45.129Z</time></trkpt><trkpt lat="39.9421103" lon="-2.2396616"><ele>881.6666666666667</ele><time>2026-03-22T12:12:46.157Z</time></trkpt><trkpt lat="39.9420841" lon="-2.2397797"><ele>881.3333333333334</ele><time>2026-03-22T12:12:47.159Z</time></trkpt><trkpt lat="39.9420559" lon="-2.2398924"><ele>881.0</ele><time>2026-03-22T12:12:48.155Z</time></trkpt><trkpt lat="39.9420273" lon="-2.240008"><ele>880.5000000000001</ele><time>2026-03-22T12:12:49.154Z</time></trkpt><trkpt lat="39.9419945" lon="-2.2401176"><ele>880.0</ele><time>2026-03-22T12:12:50.138Z</time></trkpt><trkpt lat="39.9419693" lon="-2.240227"><ele>879.5</ele><time>2026-03-22T12:12:51.138Z</time></trkpt><trkpt lat="39.9419414" lon="-2.2403219"><ele>879.0</ele><time>2026-03-22T12:12:52.147Z</time></trkpt><trkpt lat="39.9419266" lon="-2.2404132"><ele>878.5000000000001</ele><time>2026-03-22T12:12:53.138Z</time></trkpt><trkpt lat="39.9419103" lon="-2.2404969"><ele>878.0</ele><time>2026-03-22T12:12:54.131Z</time></trkpt><trkpt lat="39.9418943" lon="-2.2405787"><ele>876.75</ele><time>2026-03-22T12:12:55.146Z</time></trkpt><trkpt lat="39.9418503" lon="-2.2407152"><ele>875.5</ele><time>2026-03-22T12:12:57.164Z</time></trkpt><trkpt lat="39.9418072" lon="-2.240848"><ele>874.25</ele><time>2026-03-22T12:12:59.14Z</time></trkpt><trkpt lat="39.9417728" lon="-2.2409899"><ele>873.0</ele><time>2026-03-22T12:13:01.161Z</time></trkpt><trkpt lat="39.9417366" lon="-2.2411281"><ele>873.0</ele><time>2026-03-22T12:13:03.143Z</time></trkpt><trkpt lat="39.941685" lon="-2.2412703"><ele>873.0</ele><time>2026-03-22T12:13:05.129Z</time></trkpt><trkpt lat="39.9416363" lon="-2.2413669"><ele>873.0</ele><time>2026-03-22T12:13:06.164Z</time></trkpt><trkpt lat="39.9415776" lon="-2.2414748"><ele>873.0</ele><time>2026-03-22T12:13:07.16Z</time></trkpt><trkpt lat="39.9415005" lon="-2.2415835"><ele>873.0</ele><time>2026-03-22T12:13:08.14Z</time></trkpt><trkpt lat="39.9414025" lon="-2.2417038"><ele>873.0</ele><time>2026-03-22T12:13:09.145Z</time></trkpt><trkpt lat="39.9413101" lon="-2.2418248"><ele>873.0</ele><time>2026-03-22T12:13:10.157Z</time></trkpt><trkpt lat="39.9412292" lon="-2.2419405"><ele>873.0</ele><time>2026-03-22T12:13:11.146Z</time></trkpt><trkpt lat="39.9411622" lon="-2.2420546"><ele>873.0</ele><time>2026-03-22T12:13:12.16Z</time></trkpt><trkpt lat="39.9411056" lon="-2.2421868"><ele>872.0</ele><time>2026-03-22T12:13:13.135Z</time></trkpt><trkpt lat="39.9410501" lon="-2.2423243"><ele>871.0</ele><time>2026-03-22T12:13:14.15Z</time></trkpt><trkpt lat="39.9409972" lon="-2.2424678"><ele>870.0</ele><time>2026-03-22T12:13:15.134Z</time></trkpt><trkpt lat="39.9409384" lon="-2.2426394"><ele>869.0</ele><time>2026-03-22T12:13:16.163Z</time></trkpt><trkpt lat="39.9408811" lon="-2.242806"><ele>869.5</ele><time>2026-03-22T12:13:17.151Z</time></trkpt><trkpt lat="39.940822" lon="-2.2429715"><ele>870.0</ele><time>2026-03-22T12:13:18.155Z</time></trkpt><trkpt lat="39.9407667" lon="-2.2431432"><ele>870.5</ele><time>2026-03-22T12:13:19.141Z</time></trkpt><trkpt lat="39.9407198" lon="-2.2433077"><ele>871.0</ele><time>2026-03-22T12:13:20.142Z</time></trkpt><trkpt lat="39.9406761" lon="-2.2434643"><ele>871.0</ele><time>2026-03-22T12:13:21.137Z</time></trkpt><trkpt lat="39.9406487" lon="-2.2436161"><ele>870.9999999999999</ele><time>2026-03-22T12:13:22.167Z</time></trkpt><trkpt lat="39.9406172" lon="-2.2437545"><ele>870.9999999999999</ele><time>2026-03-22T12:13:23.158Z</time></trkpt><trkpt lat="39.9405889" lon="-2.2438831"><ele>871.0</ele><time>2026-03-22T12:13:24.14Z</time></trkpt><trkpt lat="39.9405579" lon="-2.2439959"><ele>871.0</ele><time>2026-03-22T12:13:25.152Z</time></trkpt><trkpt lat="39.9405109" lon="-2.2441006"><ele>869.75</ele><time>2026-03-22T12:13:26.15Z</time></trkpt><trkpt lat="39.9404547" lon="-2.2442195"><ele>868.5</ele><time>2026-03-22T12:13:27.164Z</time></trkpt><trkpt lat="39.9403768" lon="-2.2443411"><ele>867.25</ele><time>2026-03-22T12:13:28.173Z</time></trkpt><trkpt lat="39.9402991" lon="-2.2444778"><ele>866.0</ele><time>2026-03-22T12:13:29.143Z</time></trkpt><trkpt lat="39.9402242" lon="-2.2446132"><ele>866.0</ele><time>2026-03-22T12:13:30.191Z</time></trkpt><trkpt lat="39.9401352" lon="-2.2447165"><ele>865.9999999999999</ele><time>2026-03-22T12:13:31.143Z</time></trkpt><trkpt lat="39.9400691" lon="-2.2448295"><ele>865.9999999999999</ele><time>2026-03-22T12:13:32.174Z</time></trkpt><trkpt lat="39.9399958" lon="-2.2449291"><ele>866.0</ele><time>2026-03-22T12:13:33.177Z</time></trkpt><trkpt lat="39.9399253" lon="-2.2450281"><ele>866.0</ele><time>2026-03-22T12:13:34.156Z</time></trkpt><trkpt lat="39.9398612" lon="-2.2451265"><ele>866.0000000000001</ele><time>2026-03-22T12:13:35.163Z</time></trkpt><trkpt lat="39.9398075" lon="-2.245226"><ele>866.0</ele><time>2026-03-22T12:13:36.181Z</time></trkpt><trkpt lat="39.9397418" lon="-2.2453042"><ele>866.0</ele><time>2026-03-22T12:13:37.156Z</time></trkpt><trkpt lat="39.9396969" lon="-2.2453893"><ele>866.0</ele><time>2026-03-22T12:13:38.207Z</time></trkpt><trkpt lat="39.9396574" lon="-2.2454649"><ele>866.0000000000001</ele><time>2026-03-22T12:13:39.172Z</time></trkpt><trkpt lat="39.9395874" lon="-2.2455808"><ele>866.0</ele><time>2026-03-22T12:13:41.177Z</time></trkpt><trkpt lat="39.9395414" lon="-2.2456642"><ele>863.75</ele><time>2026-03-22T12:13:43.171Z</time></trkpt><trkpt lat="39.9395267" lon="-2.2457727"><ele>861.5</ele><time>2026-03-22T12:13:46.216Z</time></trkpt><trkpt lat="39.9396168" lon="-2.2459323"><ele>859.25</ele><time>2026-03-22T12:13:48.152Z</time></trkpt><trkpt lat="39.9396888" lon="-2.2460471"><ele>857.0</ele><time>2026-03-22T12:13:49.159Z</time></trkpt><trkpt lat="39.9397664" lon="-2.2461738"><ele>857.0</ele><time>2026-03-22T12:13:50.153Z</time></trkpt><trkpt lat="39.939849" lon="-2.2463151"><ele>857.0</ele><time>2026-03-22T12:13:51.161Z</time></trkpt><trkpt lat="39.9399369" lon="-2.2464481"><ele>857.0</ele><time>2026-03-22T12:13:52.147Z</time></trkpt><trkpt lat="39.9400323" lon="-2.2465871"><ele>857.0</ele><time>2026-03-22T12:13:53.137Z</time></trkpt><trkpt lat="39.9401351" lon="-2.2467302"><ele>863.6666666666667</ele><time>2026-03-22T12:13:54.143Z</time></trkpt><trkpt lat="39.9402451" lon="-2.2468694"><ele>870.3333333333333</ele><time>2026-03-22T12:13:55.135Z</time></trkpt><trkpt lat="39.9403591" lon="-2.2470146"><ele>877.0</ele><time>2026-03-22T12:13:56.143Z</time></trkpt><trkpt lat="39.9404734" lon="-2.2471615"><ele>872.0</ele><time>2026-03-22T12:13:57.143Z</time></trkpt><trkpt lat="39.9405919" lon="-2.2473064"><ele>867.0</ele><time>2026-03-22T12:13:58.136Z</time></trkpt><trkpt lat="39.9407184" lon="-2.2474567"><ele>862.0</ele><time>2026-03-22T12:13:59.132Z</time></trkpt><trkpt lat="39.9408558" lon="-2.2475945"><ele>867.6666666666666</ele><time>2026-03-22T12:14:00.198Z</time></trkpt><trkpt lat="39.9409943" lon="-2.2477633"><ele>873.3333333333333</ele><time>2026-03-22T12:14:01.151Z</time></trkpt><trkpt lat="39.9411369" lon="-2.2479199"><ele>879.0</ele><time>2026-03-22T12:14:02.156Z</time></trkpt><trkpt lat="39.9412781" lon="-2.248083"><ele>873.0</ele><time>2026-03-22T12:14:03.145Z</time></trkpt><trkpt lat="39.9414171" lon="-2.2482586"><ele>867.0</ele><time>2026-03-22T12:14:04.143Z</time></trkpt><trkpt lat="39.9415564" lon="-2.2484275"><ele>861.0</ele><time>2026-03-22T12:14:05.155Z</time></trkpt><trkpt lat="39.9416941" lon="-2.2485981"><ele>862.6666666666667</ele><time>2026-03-22T12:14:06.144Z</time></trkpt><trkpt lat="39.941834" lon="-2.2487599"><ele>864.3333333333334</ele><time>2026-03-22T12:14:07.138Z</time></trkpt><trkpt lat="39.9419722" lon="-2.2489213"><ele>866.0</ele><time>2026-03-22T12:14:08.135Z</time></trkpt><trkpt lat="39.9421087" lon="-2.2490822"><ele>866.0</ele><time>2026-03-22T12:14:09.146Z</time></trkpt><trkpt lat="39.9422443" lon="-2.2492397"><ele>866.0</ele><time>2026-03-22T12:14:10.158Z</time></trkpt><trkpt lat="39.9423771" lon="-2.2494003"><ele>866.0</ele><time>2026-03-22T12:14:11.154Z</time></trkpt><trkpt lat="39.9425088" lon="-2.2495593"><ele>865.0</ele><time>2026-03-22T12:14:12.171Z</time></trkpt><trkpt lat="39.9426445" lon="-2.2497099"><ele>864.0</ele><time>2026-03-22T12:14:13.186Z</time></trkpt><trkpt lat="39.9427801" lon="-2.2498567"><ele>863.0</ele><time>2026-03-22T12:14:14.144Z</time></trkpt><trkpt lat="39.9429119" lon="-2.2499916"><ele>863.0</ele><time>2026-03-22T12:14:15.143Z</time></trkpt><trkpt lat="39.9430425" lon="-2.2501162"><ele>863.0</ele><time>2026-03-22T12:14:16.202Z</time></trkpt><trkpt lat="39.9431721" lon="-2.2502292"><ele>863.0</ele><time>2026-03-22T12:14:17.147Z</time></trkpt><trkpt lat="39.9432993" lon="-2.2503372"><ele>862.5</ele><time>2026-03-22T12:14:18.156Z</time></trkpt><trkpt lat="39.9434231" lon="-2.250439"><ele>862.0</ele><time>2026-03-22T12:14:19.184Z</time></trkpt><trkpt lat="39.9435426" lon="-2.2505316"><ele>861.5</ele><time>2026-03-22T12:14:20.156Z</time></trkpt><trkpt lat="39.9436517" lon="-2.2506229"><ele>861.0</ele><time>2026-03-22T12:14:21.155Z</time></trkpt><trkpt lat="39.9437459" lon="-2.2507"><ele>861.0</ele><time>2026-03-22T12:14:22.196Z</time></trkpt><trkpt lat="39.9438182" lon="-2.2507639"><ele>861.0</ele><time>2026-03-22T12:14:23.242Z</time></trkpt><trkpt lat="39.9438781" lon="-2.2508566"><ele>861.0</ele><time>2026-03-22T12:14:25.164Z</time></trkpt><trkpt lat="39.9438477" lon="-2.2509596"><ele>861.0</ele><time>2026-03-22T12:14:27.156Z</time></trkpt><trkpt lat="39.9437929" lon="-2.2510641"><ele>861.0</ele><time>2026-03-22T12:14:29.168Z</time></trkpt><trkpt lat="39.9437696" lon="-2.2511428"><ele>861.0</ele><time>2026-03-22T12:14:31.149Z</time></trkpt><trkpt lat="39.9437886" lon="-2.25123"><ele>861.0</ele><time>2026-03-22T12:14:33.145Z</time></trkpt><trkpt lat="39.9438305" lon="-2.2513948"><ele>861.0</ele><time>2026-03-22T12:14:35.133Z</time></trkpt><trkpt lat="39.9438607" lon="-2.2514874"><ele>861.0</ele><time>2026-03-22T12:14:36.16Z</time></trkpt><trkpt lat="39.943892" lon="-2.2515719"><ele>861.0</ele><time>2026-03-22T12:14:37.15Z</time></trkpt><trkpt lat="39.9439171" lon="-2.2516516"><ele>861.0</ele><time>2026-03-22T12:14:38.162Z</time></trkpt><trkpt lat="39.9439355" lon="-2.2517316"><ele>861.0</ele><time>2026-03-22T12:14:39.153Z</time></trkpt><trkpt lat="39.9439546" lon="-2.2518149"><ele>861.8571428571429</ele><time>2026-03-22T12:14:40.182Z</time></trkpt><trkpt lat="39.9439702" lon="-2.2518986"><ele>862.7142857142858</ele><time>2026-03-22T12:14:41.16Z</time></trkpt><trkpt lat="39.9439879" lon="-2.251987"><ele>863.5714285714286</ele><time>2026-03-22T12:14:42.145Z</time></trkpt><trkpt lat="39.9440082" lon="-2.2520738"><ele>864.4285714285714</ele><time>2026-03-22T12:14:43.151Z</time></trkpt><trkpt lat="39.9440273" lon="-2.2521578"><ele>865.2857142857143</ele><time>2026-03-22T12:14:44.154Z</time></trkpt><trkpt lat="39.9440425" lon="-2.2522455"><ele>866.1428571428571</ele><time>2026-03-22T12:14:45.138Z</time></trkpt><trkpt lat="39.9440589" lon="-2.2523368"><ele>867.0</ele><time>2026-03-22T12:14:46.14Z</time></trkpt><trkpt lat="39.9440779" lon="-2.2524376"><ele>867.0</ele><time>2026-03-22T12:14:47.149Z</time></trkpt><trkpt lat="39.9441112" lon="-2.2525337"><ele>867.0</ele><time>2026-03-22T12:14:48.152Z</time></trkpt><trkpt lat="39.944146" lon="-2.2526398"><ele>867.0</ele><time>2026-03-22T12:14:49.146Z</time></trkpt><trkpt lat="39.9441829" lon="-2.2527394"><ele>867.0</ele><time>2026-03-22T12:14:50.155Z</time></trkpt><trkpt lat="39.9442081" lon="-2.2528265"><ele>867.0</ele><time>2026-03-22T12:14:51.132Z</time></trkpt><trkpt lat="39.9442342" lon="-2.2529065"><ele>867.0</ele><time>2026-03-22T12:14:52.142Z</time></trkpt><trkpt lat="39.9442601" lon="-2.252985"><ele>871.3333333333334</ele><time>2026-03-22T12:14:53.133Z</time></trkpt><trkpt lat="39.9442822" lon="-2.2530731"><ele>875.6666666666667</ele><time>2026-03-22T12:14:54.147Z</time></trkpt><trkpt lat="39.9443019" lon="-2.2531749"><ele>880.0</ele><time>2026-03-22T12:14:55.156Z</time></trkpt><trkpt lat="39.9443163" lon="-2.2532777"><ele>884.3333333333334</ele><time>2026-03-22T12:14:56.149Z</time></trkpt><trkpt lat="39.9443283" lon="-2.2533782"><ele>888.6666666666667</ele><time>2026-03-22T12:14:57.143Z</time></trkpt><trkpt lat="39.9443367" lon="-2.2534765"><ele>893.0</ele><time>2026-03-22T12:14:58.144Z</time></trkpt><trkpt lat="39.9443383" lon="-2.2535676"><ele>893.0000000000001</ele><time>2026-03-22T12:14:59.146Z</time></trkpt><trkpt lat="39.9443383" lon="-2.2536518"><ele>893.0</ele><time>2026-03-22T12:15:00.145Z</time></trkpt><trkpt lat="39.9443316" lon="-2.2538086"><ele>893.0</ele><time>2026-03-22T12:15:02.15Z</time></trkpt><trkpt lat="39.9443279" lon="-2.2539039"><ele>893.0</ele><time>2026-03-22T12:15:03.135Z</time></trkpt><trkpt lat="39.9443247" lon="-2.2540188"><ele>893.0000000000001</ele><time>2026-03-22T12:15:04.15Z</time></trkpt><trkpt lat="39.9443185" lon="-2.2541333"><ele>893.0</ele><time>2026-03-22T12:15:05.172Z</time></trkpt><trkpt lat="39.9443151" lon="-2.2542496"><ele>890.4</ele><time>2026-03-22T12:15:06.144Z</time></trkpt><trkpt lat="39.9443174" lon="-2.2543697"><ele>887.8</ele><time>2026-03-22T12:15:07.158Z</time></trkpt><trkpt lat="39.9443288" lon="-2.2544995"><ele>885.2</ele><time>2026-03-22T12:15:08.145Z</time></trkpt><trkpt lat="39.944359" lon="-2.2546578"><ele>882.6</ele><time>2026-03-22T12:15:09.146Z</time></trkpt><trkpt lat="39.94438" lon="-2.2548109"><ele>880.0</ele><time>2026-03-22T12:15:10.146Z</time></trkpt><trkpt lat="39.9443929" lon="-2.2549455"><ele>878.8</ele><time>2026-03-22T12:15:11.148Z</time></trkpt><trkpt lat="39.9444102" lon="-2.2550724"><ele>877.6</ele><time>2026-03-22T12:15:12.146Z</time></trkpt><trkpt lat="39.9444293" lon="-2.2552035"><ele>876.4000000000001</ele><time>2026-03-22T12:15:13.146Z</time></trkpt><trkpt lat="39.9444595" lon="-2.2553427"><ele>875.2</ele><time>2026-03-22T12:15:14.138Z</time></trkpt><trkpt lat="39.9445004" lon="-2.255475"><ele>874.0</ele><time>2026-03-22T12:15:15.135Z</time></trkpt><trkpt lat="39.9445364" lon="-2.2556045"><ele>873.6</ele><time>2026-03-22T12:15:16.137Z</time></trkpt><trkpt lat="39.9445638" lon="-2.2557247"><ele>873.2</ele><time>2026-03-22T12:15:17.151Z</time></trkpt><trkpt lat="39.9445806" lon="-2.2558358"><ele>872.8000000000001</ele><time>2026-03-22T12:15:18.164Z</time></trkpt><trkpt lat="39.9445982" lon="-2.2559405"><ele>872.4000000000001</ele><time>2026-03-22T12:15:19.142Z</time></trkpt><trkpt lat="39.9446226" lon="-2.2560538"><ele>872.0</ele><time>2026-03-22T12:15:20.141Z</time></trkpt><trkpt lat="39.9446618" lon="-2.2561787"><ele>872.0000000000001</ele><time>2026-03-22T12:15:21.157Z</time></trkpt><trkpt lat="39.9447169" lon="-2.2562839"><ele>872.0</ele><time>2026-03-22T12:15:22.128Z</time></trkpt><trkpt lat="39.944778" lon="-2.2563848"><ele>872.0</ele><time>2026-03-22T12:15:23.149Z</time></trkpt><trkpt lat="39.9448184" lon="-2.2564804"><ele>872.0</ele><time>2026-03-22T12:15:24.153Z</time></trkpt><trkpt lat="39.9448228" lon="-2.2565734"><ele>872.0000000000001</ele><time>2026-03-22T12:15:25.149Z</time></trkpt><trkpt lat="39.9448192" lon="-2.256697"><ele>872.0</ele><time>2026-03-22T12:15:26.144Z</time></trkpt><trkpt lat="39.9448157" lon="-2.2568355"><ele>870.2</ele><time>2026-03-22T12:15:27.14Z</time></trkpt><trkpt lat="39.9447966" lon="-2.2569587"><ele>868.4000000000001</ele><time>2026-03-22T12:15:28.161Z</time></trkpt><trkpt lat="39.9447744" lon="-2.2570793"><ele>866.5999999999999</ele><time>2026-03-22T12:15:29.142Z</time></trkpt><trkpt lat="39.9447538" lon="-2.257209"><ele>864.8</ele><time>2026-03-22T12:15:30.142Z</time></trkpt><trkpt lat="39.9447457" lon="-2.2573566"><ele>863.0</ele><time>2026-03-22T12:15:31.143Z</time></trkpt><trkpt lat="39.9447556" lon="-2.2575142"><ele>863.0</ele><time>2026-03-22T12:15:32.134Z</time></trkpt><trkpt lat="39.944762" lon="-2.2576773"><ele>863.0</ele><time>2026-03-22T12:15:33.148Z</time></trkpt><trkpt lat="39.9447704" lon="-2.2578314"><ele>863.0</ele><time>2026-03-22T12:15:34.161Z</time></trkpt><trkpt lat="39.9447785" lon="-2.2579696"><ele>863.0</ele><time>2026-03-22T12:15:35.142Z</time></trkpt><trkpt lat="39.9447897" lon="-2.2581027"><ele>863.0</ele><time>2026-03-22T12:15:36.147Z</time></trkpt><trkpt lat="39.9448" lon="-2.258231"><ele>863.0</ele><time>2026-03-22T12:15:37.156Z</time></trkpt><trkpt lat="39.9448105" lon="-2.2583518"><ele>863.0</ele><time>2026-03-22T12:15:38.139Z</time></trkpt><trkpt lat="39.9448319" lon="-2.2584848"><ele>863.0</ele><time>2026-03-22T12:15:39.152Z</time></trkpt><trkpt lat="39.944862" lon="-2.2586012"><ele>863.0</ele><time>2026-03-22T12:15:40.147Z</time></trkpt><trkpt lat="39.9448831" lon="-2.2586998"><ele>863.0000000000001</ele><time>2026-03-22T12:15:41.145Z</time></trkpt><trkpt lat="39.9448938" lon="-2.258788"><ele>863.0</ele><time>2026-03-22T12:15:42.152Z</time></trkpt><trkpt lat="39.9449016" lon="-2.2588702"><ele>863.0</ele><time>2026-03-22T12:15:43.139Z</time></trkpt><trkpt lat="39.9449098" lon="-2.2589664"><ele>863.0</ele><time>2026-03-22T12:15:44.166Z</time></trkpt><trkpt lat="39.9449135" lon="-2.2590718"><ele>863.0</ele><time>2026-03-22T12:15:45.143Z</time></trkpt><trkpt lat="39.9449147" lon="-2.2591819"><ele>863.0000000000001</ele><time>2026-03-22T12:15:46.166Z</time></trkpt><trkpt lat="39.9449102" lon="-2.259278"><ele>863.0</ele><time>2026-03-22T12:15:47.158Z</time></trkpt><trkpt lat="39.9448966" lon="-2.2593703"><ele>862.3333333333334</ele><time>2026-03-22T12:15:48.152Z</time></trkpt><trkpt lat="39.9448776" lon="-2.2594492"><ele>861.6666666666667</ele><time>2026-03-22T12:15:49.145Z</time></trkpt><trkpt lat="39.9448674" lon="-2.259578"><ele>861.0</ele><time>2026-03-22T12:15:51.157Z</time></trkpt><trkpt lat="39.9448652" lon="-2.2596773"><ele>860.3333333333333</ele><time>2026-03-22T12:15:53.149Z</time></trkpt><trkpt lat="39.9448794" lon="-2.2598008"><ele>859.6666666666666</ele><time>2026-03-22T12:15:55.152Z</time></trkpt><trkpt lat="39.9449021" lon="-2.2598793"><ele>859.0</ele><time>2026-03-22T12:15:56.143Z</time></trkpt><trkpt lat="39.9449331" lon="-2.2599668"><ele>858.6</ele><time>2026-03-22T12:15:57.156Z</time></trkpt><trkpt lat="39.944986" lon="-2.2601072"><ele>858.2</ele><time>2026-03-22T12:15:59.128Z</time></trkpt><trkpt lat="39.9450136" lon="-2.2602572"><ele>857.8000000000001</ele><time>2026-03-22T12:16:01.158Z</time></trkpt><trkpt lat="39.9450631" lon="-2.260387"><ele>857.4000000000001</ele><time>2026-03-22T12:16:03.146Z</time></trkpt><trkpt lat="39.9450976" lon="-2.2604625"><ele>857.0</ele><time>2026-03-22T12:16:04.139Z</time></trkpt><trkpt lat="39.9451464" lon="-2.2606009"><ele>858.8333333333334</ele><time>2026-03-22T12:16:06.144Z</time></trkpt><trkpt lat="39.9451729" lon="-2.2607201"><ele>860.6666666666667</ele><time>2026-03-22T12:16:08.147Z</time></trkpt><trkpt lat="39.9452121" lon="-2.2608335"><ele>862.5</ele><time>2026-03-22T12:16:10.137Z</time></trkpt><trkpt lat="39.9452578" lon="-2.2609188"><ele>864.3333333333333</ele><time>2026-03-22T12:16:12.15Z</time></trkpt><trkpt lat="39.9453039" lon="-2.2609861"><ele>866.1666666666666</ele><time>2026-03-22T12:16:14.143Z</time></trkpt><trkpt lat="39.9453535" lon="-2.2610498"><ele>868.0</ele><time>2026-03-22T12:16:16.139Z</time></trkpt><trkpt lat="39.9454205" lon="-2.2611362"><ele>868.0</ele><time>2026-03-22T12:16:19.142Z</time></trkpt><trkpt lat="39.9454771" lon="-2.2612114"><ele>868.0</ele><time>2026-03-22T12:16:21.153Z</time></trkpt><trkpt lat="39.9455128" lon="-2.261303"><ele>868.0</ele><time>2026-03-22T12:16:23.169Z</time></trkpt><trkpt lat="39.945588" lon="-2.2614713"><ele>868.0</ele><time>2026-03-22T12:16:25.162Z</time></trkpt><trkpt lat="39.9456497" lon="-2.2615943"><ele>868.0</ele><time>2026-03-22T12:16:26.14Z</time></trkpt><trkpt lat="39.9457077" lon="-2.2617068"><ele>868.6666666666666</ele><time>2026-03-22T12:16:27.146Z</time></trkpt><trkpt lat="39.9457547" lon="-2.2618085"><ele>869.3333333333333</ele><time>2026-03-22T12:16:28.159Z</time></trkpt><trkpt lat="39.9457995" lon="-2.261904"><ele>870.0</ele><time>2026-03-22T12:16:29.133Z</time></trkpt><trkpt lat="39.9458469" lon="-2.2619962"><ele>870.6666666666667</ele><time>2026-03-22T12:16:30.146Z</time></trkpt><trkpt lat="39.9458948" lon="-2.2620742"><ele>871.3333333333334</ele><time>2026-03-22T12:16:31.149Z</time></trkpt><trkpt lat="39.9459521" lon="-2.2621599"><ele>872.0</ele><time>2026-03-22T12:16:32.155Z</time></trkpt><trkpt lat="39.9460251" lon="-2.2622558"><ele>870.4000000000001</ele><time>2026-03-22T12:16:33.146Z</time></trkpt><trkpt lat="39.9460893" lon="-2.2623669"><ele>868.8000000000001</ele><time>2026-03-22T12:16:34.14Z</time></trkpt><trkpt lat="39.9461402" lon="-2.2624874"><ele>867.2</ele><time>2026-03-22T12:16:35.149Z</time></trkpt><trkpt lat="39.9461949" lon="-2.2626214"><ele>865.6</ele><time>2026-03-22T12:16:36.142Z</time></trkpt><trkpt lat="39.9462753" lon="-2.2627327"><ele>864.0</ele><time>2026-03-22T12:16:37.148Z</time></trkpt><trkpt lat="39.9463575" lon="-2.2628235"><ele>864.0</ele><time>2026-03-22T12:16:38.159Z</time></trkpt><trkpt lat="39.9464337" lon="-2.2629132"><ele>864.0000000000001</ele><time>2026-03-22T12:16:39.149Z</time></trkpt><trkpt lat="39.9465" lon="-2.2630179"><ele>864.0000000000001</ele><time>2026-03-22T12:16:40.161Z</time></trkpt><trkpt lat="39.9465772" lon="-2.2631164"><ele>864.0</ele><time>2026-03-22T12:16:41.136Z</time></trkpt><trkpt lat="39.9466684" lon="-2.2632174"><ele>864.0</ele><time>2026-03-22T12:16:42.143Z</time></trkpt><trkpt lat="39.9467568" lon="-2.2633112"><ele>864.2</ele><time>2026-03-22T12:16:43.143Z</time></trkpt><trkpt lat="39.9468317" lon="-2.2633917"><ele>864.4000000000001</ele><time>2026-03-22T12:16:44.14Z</time></trkpt><trkpt lat="39.9468976" lon="-2.2634662"><ele>864.6</ele><time>2026-03-22T12:16:45.152Z</time></trkpt><trkpt lat="39.9469677" lon="-2.263543"><ele>864.8</ele><time>2026-03-22T12:16:46.163Z</time></trkpt><trkpt lat="39.9470579" lon="-2.2636082"><ele>865.0</ele><time>2026-03-22T12:16:47.136Z</time></trkpt><trkpt lat="39.9471625" lon="-2.2636366"><ele>864.9999999999999</ele><time>2026-03-22T12:16:48.14Z</time></trkpt><trkpt lat="39.9472525" lon="-2.2636616"><ele>865.0</ele><time>2026-03-22T12:16:49.138Z</time></trkpt><trkpt lat="39.9473271" lon="-2.2637076"><ele>865.0</ele><time>2026-03-22T12:16:50.138Z</time></trkpt><trkpt lat="39.9474029" lon="-2.2637365"><ele>865.0</ele><time>2026-03-22T12:16:51.15Z</time></trkpt><trkpt lat="39.9474722" lon="-2.2637675"><ele>864.9999999999999</ele><time>2026-03-22T12:16:52.146Z</time></trkpt><trkpt lat="39.9475358" lon="-2.2638136"><ele>865.0</ele><time>2026-03-22T12:16:53.144Z</time></trkpt><trkpt lat="39.9475846" lon="-2.263891"><ele>865.8</ele><time>2026-03-22T12:16:54.14Z</time></trkpt><trkpt lat="39.9476252" lon="-2.2639825"><ele>866.6</ele><time>2026-03-22T12:16:55.144Z</time></trkpt><trkpt lat="39.9476899" lon="-2.2640843"><ele>867.4000000000001</ele><time>2026-03-22T12:16:56.146Z</time></trkpt><trkpt lat="39.9477713" lon="-2.2641648"><ele>868.2</ele><time>2026-03-22T12:16:57.135Z</time></trkpt><trkpt lat="39.9478549" lon="-2.2642465"><ele>869.0</ele><time>2026-03-22T12:16:58.139Z</time></trkpt><trkpt lat="39.9479455" lon="-2.2643242"><ele>869.0</ele><time>2026-03-22T12:16:59.14Z</time></trkpt><trkpt lat="39.9480346" lon="-2.2643997"><ele>869.0000000000001</ele><time>2026-03-22T12:17:00.176Z</time></trkpt><trkpt lat="39.9481301" lon="-2.2644626"><ele>869.0000000000001</ele><time>2026-03-22T12:17:01.154Z</time></trkpt><trkpt lat="39.9482334" lon="-2.2645122"><ele>869.0</ele><time>2026-03-22T12:17:02.148Z</time></trkpt><trkpt lat="39.9483492" lon="-2.264571"><ele>869.0</ele><time>2026-03-22T12:17:03.146Z</time></trkpt><trkpt lat="39.9484743" lon="-2.2646111"><ele>869.6</ele><time>2026-03-22T12:17:04.146Z</time></trkpt><trkpt lat="39.9485904" lon="-2.264659"><ele>870.2</ele><time>2026-03-22T12:17:05.155Z</time></trkpt><trkpt lat="39.9486942" lon="-2.2647085"><ele>870.8000000000001</ele><time>2026-03-22T12:17:06.135Z</time></trkpt><trkpt lat="39.9487866" lon="-2.2647513"><ele>871.4000000000001</ele><time>2026-03-22T12:17:07.144Z</time></trkpt><trkpt lat="39.9488739" lon="-2.2648103"><ele>872.0</ele><time>2026-03-22T12:17:08.147Z</time></trkpt><trkpt lat="39.9489687" lon="-2.2648812"><ele>870.5000000000001</ele><time>2026-03-22T12:17:09.162Z</time></trkpt><trkpt lat="39.9490413" lon="-2.2649571"><ele>869.0</ele><time>2026-03-22T12:17:10.132Z</time></trkpt><trkpt lat="39.9490986" lon="-2.2650188"><ele>867.5</ele><time>2026-03-22T12:17:11.148Z</time></trkpt><trkpt lat="39.9491572" lon="-2.2650657"><ele>866.0</ele><time>2026-03-22T12:17:12.147Z</time></trkpt><trkpt lat="39.9492316" lon="-2.2651023"><ele>864.5000000000001</ele><time>2026-03-22T12:17:13.161Z</time></trkpt><trkpt lat="39.9493232" lon="-2.2651269"><ele>863.0</ele><time>2026-03-22T12:17:14.141Z</time></trkpt><trkpt lat="39.9494067" lon="-2.2651743"><ele>863.0000000000001</ele><time>2026-03-22T12:17:15.142Z</time></trkpt><trkpt lat="39.9494804" lon="-2.2652159"><ele>863.0</ele><time>2026-03-22T12:17:16.149Z</time></trkpt><trkpt lat="39.9495493" lon="-2.2652582"><ele>863.0</ele><time>2026-03-22T12:17:17.148Z</time></trkpt><trkpt lat="39.9496159" lon="-2.2653031"><ele>863.0</ele><time>2026-03-22T12:17:18.139Z</time></trkpt><trkpt lat="39.9496786" lon="-2.2653358"><ele>863.0000000000001</ele><time>2026-03-22T12:17:19.143Z</time></trkpt><trkpt lat="39.9497785" lon="-2.2653659"><ele>863.0</ele><time>2026-03-22T12:17:21.144Z</time></trkpt><trkpt lat="39.949868" lon="-2.2653319"><ele>863.0</ele><time>2026-03-22T12:17:23.143Z</time></trkpt><trkpt lat="39.9499293" lon="-2.265298"><ele>863.0</ele><time>2026-03-22T12:17:24.138Z</time></trkpt><trkpt lat="39.9500358" lon="-2.2652484"><ele>863.0</ele><time>2026-03-22T12:17:26.134Z</time></trkpt><trkpt lat="39.9501413" lon="-2.2652117"><ele>863.0</ele><time>2026-03-22T12:17:28.152Z</time></trkpt><trkpt lat="39.9502663" lon="-2.2652094"><ele>863.0</ele><time>2026-03-22T12:17:30.142Z</time></trkpt><trkpt lat="39.9503298" lon="-2.265229"><ele>864.0</ele><time>2026-03-22T12:17:31.139Z</time></trkpt><trkpt lat="39.9504327" lon="-2.2652597"><ele>865.0</ele><time>2026-03-22T12:17:33.159Z</time></trkpt><trkpt lat="39.9505381" lon="-2.2653112"><ele>866.0</ele><time>2026-03-22T12:17:35.135Z</time></trkpt><trkpt lat="39.9505947" lon="-2.2653498"><ele>867.0</ele><time>2026-03-22T12:17:36.132Z</time></trkpt><trkpt lat="39.9506517" lon="-2.2653955"><ele>868.0</ele><time>2026-03-22T12:17:37.154Z</time></trkpt><trkpt lat="39.9507572" lon="-2.2654695"><ele>867.8</ele><time>2026-03-22T12:17:39.133Z</time></trkpt><trkpt lat="39.9508772" lon="-2.2655058"><ele>867.5999999999999</ele><time>2026-03-22T12:17:41.144Z</time></trkpt><trkpt lat="39.9509714" lon="-2.2655146"><ele>867.4000000000001</ele><time>2026-03-22T12:17:43.161Z</time></trkpt><trkpt lat="39.9510736" lon="-2.2655183"><ele>867.2</ele><time>2026-03-22T12:17:45.157Z</time></trkpt><trkpt lat="39.9511976" lon="-2.2655102"><ele>867.0</ele><time>2026-03-22T12:17:47.129Z</time></trkpt><trkpt lat="39.9512671" lon="-2.2654994"><ele>867.0</ele><time>2026-03-22T12:17:48.146Z</time></trkpt><trkpt lat="39.9513394" lon="-2.2654944"><ele>867.0</ele><time>2026-03-22T12:17:49.13Z</time></trkpt><trkpt lat="39.9514097" lon="-2.2654966"><ele>867.0</ele><time>2026-03-22T12:17:50.137Z</time></trkpt><trkpt lat="39.9514848" lon="-2.2654908"><ele>867.0</ele><time>2026-03-22T12:17:51.143Z</time></trkpt><trkpt lat="39.9515643" lon="-2.265482"><ele>867.0</ele><time>2026-03-22T12:17:52.146Z</time></trkpt><trkpt lat="39.9516395" lon="-2.2654736"><ele>867.0</ele><time>2026-03-22T12:17:53.157Z</time></trkpt><trkpt lat="39.9517181" lon="-2.2654624"><ele>866.4285714285714</ele><time>2026-03-22T12:17:54.141Z</time></trkpt><trkpt lat="39.951788" lon="-2.2654503"><ele>865.8571428571429</ele><time>2026-03-22T12:17:55.153Z</time></trkpt><trkpt lat="39.9518581" lon="-2.2654339"><ele>865.2857142857143</ele><time>2026-03-22T12:17:56.134Z</time></trkpt><trkpt lat="39.9519238" lon="-2.2654121"><ele>864.7142857142858</ele><time>2026-03-22T12:17:57.139Z</time></trkpt><trkpt lat="39.9519872" lon="-2.2653896"><ele>864.1428571428571</ele><time>2026-03-22T12:17:58.14Z</time></trkpt><trkpt lat="39.952057" lon="-2.2653704"><ele>863.5714285714287</ele><time>2026-03-22T12:17:59.145Z</time></trkpt><trkpt lat="39.9521246" lon="-2.265361"><ele>863.0</ele><time>2026-03-22T12:18:00.162Z</time></trkpt><trkpt lat="39.9522509" lon="-2.2653321"><ele>863.0000000000001</ele><time>2026-03-22T12:18:02.167Z</time></trkpt><trkpt lat="39.9523247" lon="-2.2653211"><ele>863.0</ele><time>2026-03-22T12:18:03.151Z</time></trkpt><trkpt lat="39.9523994" lon="-2.2653256"><ele>863.0</ele><time>2026-03-22T12:18:04.149Z</time></trkpt><trkpt lat="39.9524796" lon="-2.2653328"><ele>863.0</ele><time>2026-03-22T12:18:05.151Z</time></trkpt><trkpt lat="39.9525644" lon="-2.265344"><ele>863.0000000000001</ele><time>2026-03-22T12:18:06.146Z</time></trkpt><trkpt lat="39.9526534" lon="-2.265353"><ele>863.0</ele><time>2026-03-22T12:18:07.159Z</time></trkpt><trkpt lat="39.9527407" lon="-2.2653478"><ele>862.2</ele><time>2026-03-22T12:18:08.162Z</time></trkpt><trkpt lat="39.9528283" lon="-2.2653087"><ele>861.4</ele><time>2026-03-22T12:18:09.147Z</time></trkpt><trkpt lat="39.9529133" lon="-2.2652567"><ele>860.6000000000001</ele><time>2026-03-22T12:18:10.137Z</time></trkpt><trkpt lat="39.9529972" lon="-2.2652041"><ele>859.8000000000001</ele><time>2026-03-22T12:18:11.148Z</time></trkpt><trkpt lat="39.9530781" lon="-2.2651529"><ele>859.0</ele><time>2026-03-22T12:18:12.161Z</time></trkpt><trkpt lat="39.9531478" lon="-2.2650994"><ele>858.9999999999999</ele><time>2026-03-22T12:18:13.154Z</time></trkpt><trkpt lat="39.953215" lon="-2.2650336"><ele>859.0</ele><time>2026-03-22T12:18:14.149Z</time></trkpt><trkpt lat="39.9532814" lon="-2.2649733"><ele>859.0</ele><time>2026-03-22T12:18:15.147Z</time></trkpt><trkpt lat="39.9533588" lon="-2.2649229"><ele>859.0</ele><time>2026-03-22T12:18:16.131Z</time></trkpt><trkpt lat="39.9534396" lon="-2.2648758"><ele>858.9999999999999</ele><time>2026-03-22T12:18:17.144Z</time></trkpt><trkpt lat="39.9535183" lon="-2.2648322"><ele>859.0</ele><time>2026-03-22T12:18:18.16Z</time></trkpt><trkpt lat="39.953594" lon="-2.2647909"><ele>861.0</ele><time>2026-03-22T12:18:19.14Z</time></trkpt><trkpt lat="39.9536787" lon="-2.2647549"><ele>863.0000000000001</ele><time>2026-03-22T12:18:20.151Z</time></trkpt><trkpt lat="39.9537698" lon="-2.2647089"><ele>865.0000000000001</ele><time>2026-03-22T12:18:21.137Z</time></trkpt><trkpt lat="39.9538569" lon="-2.2646639"><ele>867.0</ele><time>2026-03-22T12:18:22.145Z</time></trkpt><trkpt lat="39.9539445" lon="-2.26462"><ele>869.0</ele><time>2026-03-22T12:18:23.152Z</time></trkpt><trkpt lat="39.9540378" lon="-2.26458"><ele>869.0</ele><time>2026-03-22T12:18:24.177Z</time></trkpt><trkpt lat="39.9541353" lon="-2.2645441"><ele>869.0000000000001</ele><time>2026-03-22T12:18:25.146Z</time></trkpt><trkpt lat="39.954226" lon="-2.2645126"><ele>869.0000000000001</ele><time>2026-03-22T12:18:26.169Z</time></trkpt><trkpt lat="39.9543115" lon="-2.2644691"><ele>869.0</ele><time>2026-03-22T12:18:27.148Z</time></trkpt><trkpt lat="39.954394" lon="-2.2644221"><ele>869.0</ele><time>2026-03-22T12:18:28.147Z</time></trkpt><trkpt lat="39.954469" lon="-2.2643839"><ele>867.6666666666667</ele><time>2026-03-22T12:18:29.138Z</time></trkpt><trkpt lat="39.9545427" lon="-2.2643611"><ele>866.3333333333334</ele><time>2026-03-22T12:18:30.14Z</time></trkpt><trkpt lat="39.9546194" lon="-2.2643377"><ele>865.0</ele><time>2026-03-22T12:18:31.132Z</time></trkpt><trkpt lat="39.9546872" lon="-2.2643001"><ele>863.6666666666667</ele><time>2026-03-22T12:18:32.134Z</time></trkpt><trkpt lat="39.9547442" lon="-2.2642389"><ele>862.3333333333334</ele><time>2026-03-22T12:18:33.146Z</time></trkpt><trkpt lat="39.9548128" lon="-2.2641892"><ele>861.0</ele><time>2026-03-22T12:18:34.151Z</time></trkpt><trkpt lat="39.954883" lon="-2.2641423"><ele>861.0</ele><time>2026-03-22T12:18:35.128Z</time></trkpt><trkpt lat="39.9549581" lon="-2.2640928"><ele>861.0</ele><time>2026-03-22T12:18:36.148Z</time></trkpt><trkpt lat="39.9550258" lon="-2.2640399"><ele>861.0</ele><time>2026-03-22T12:18:37.123Z</time></trkpt><trkpt lat="39.9550906" lon="-2.2639852"><ele>861.0</ele><time>2026-03-22T12:18:38.138Z</time></trkpt><trkpt lat="39.9551559" lon="-2.2639369"><ele>861.0</ele><time>2026-03-22T12:18:39.129Z</time></trkpt><trkpt lat="39.9552252" lon="-2.263886"><ele>861.0</ele><time>2026-03-22T12:18:40.139Z</time></trkpt><trkpt lat="39.9552904" lon="-2.2638325"><ele>860.6666666666666</ele><time>2026-03-22T12:18:41.141Z</time></trkpt><trkpt lat="39.9553426" lon="-2.2637857"><ele>860.3333333333333</ele><time>2026-03-22T12:18:42.136Z</time></trkpt><trkpt lat="39.9553778" lon="-2.2637174"><ele>860.0</ele><time>2026-03-22T12:18:43.14Z</time></trkpt><trkpt lat="39.9554356" lon="-2.2636136"><ele>859.6666666666666</ele><time>2026-03-22T12:18:45.17Z</time></trkpt><trkpt lat="39.9555164" lon="-2.2635472"><ele>859.3333333333333</ele><time>2026-03-22T12:18:47.141Z</time></trkpt><trkpt lat="39.9555968" lon="-2.2635546"><ele>859.0</ele><time>2026-03-22T12:18:49.158Z</time></trkpt><trkpt lat="39.9556833" lon="-2.2635401"><ele>859.0</ele><time>2026-03-22T12:18:51.141Z</time></trkpt><trkpt lat="39.9557717" lon="-2.2634961"><ele>859.0000000000001</ele><time>2026-03-22T12:18:53.132Z</time></trkpt><trkpt lat="39.9558483" lon="-2.2634718"><ele>859.0000000000001</ele><time>2026-03-22T12:18:55.139Z</time></trkpt><trkpt lat="39.9559365" lon="-2.2634097"><ele>859.0</ele><time>2026-03-22T12:18:57.147Z</time></trkpt><trkpt lat="39.9560257" lon="-2.2633245"><ele>859.0</ele><time>2026-03-22T12:18:59.154Z</time></trkpt><trkpt lat="39.956094" lon="-2.2632155"><ele>858.2</ele><time>2026-03-22T12:19:01.154Z</time></trkpt><trkpt lat="39.9561429" lon="-2.2630863"><ele>857.4000000000001</ele><time>2026-03-22T12:19:03.164Z</time></trkpt><trkpt lat="39.9561434" lon="-2.2629375"><ele>856.6</ele><time>2026-03-22T12:19:05.144Z</time></trkpt><trkpt lat="39.9561239" lon="-2.2628446"><ele>855.8</ele><time>2026-03-22T12:19:06.146Z</time></trkpt><trkpt lat="39.9561042" lon="-2.2627407"><ele>855.0</ele><time>2026-03-22T12:19:07.141Z</time></trkpt><trkpt lat="39.9560938" lon="-2.2626327"><ele>855.0</ele><time>2026-03-22T12:19:08.142Z</time></trkpt><trkpt lat="39.9561057" lon="-2.2625228"><ele>855.0</ele><time>2026-03-22T12:19:09.142Z</time></trkpt><trkpt lat="39.9561447" lon="-2.2624187"><ele>855.0</ele><time>2026-03-22T12:19:10.154Z</time></trkpt><trkpt lat="39.9561976" lon="-2.262314"><ele>855.0</ele><time>2026-03-22T12:19:11.162Z</time></trkpt><trkpt lat="39.9562635" lon="-2.2622087"><ele>855.0</ele><time>2026-03-22T12:19:12.146Z</time></trkpt><trkpt lat="39.9563269" lon="-2.2621099"><ele>855.6666666666666</ele><time>2026-03-22T12:19:13.133Z</time></trkpt><trkpt lat="39.9563858" lon="-2.2620201"><ele>856.3333333333333</ele><time>2026-03-22T12:19:14.122Z</time></trkpt><trkpt lat="39.9564434" lon="-2.2619418"><ele>857.0</ele><time>2026-03-22T12:19:15.15Z</time></trkpt><trkpt lat="39.9565002" lon="-2.2618656"><ele>857.6666666666666</ele><time>2026-03-22T12:19:16.147Z</time></trkpt><trkpt lat="39.9565496" lon="-2.2617838"><ele>858.3333333333333</ele><time>2026-03-22T12:19:17.139Z</time></trkpt><trkpt lat="39.9565946" lon="-2.2616906"><ele>859.0</ele><time>2026-03-22T12:19:18.159Z</time></trkpt><trkpt lat="39.9566435" lon="-2.2615907"><ele>859.0</ele><time>2026-03-22T12:19:19.148Z</time></trkpt><trkpt lat="39.9566812" lon="-2.2614807"><ele>859.0000000000001</ele><time>2026-03-22T12:19:20.133Z</time></trkpt><trkpt lat="39.9567242" lon="-2.2613701"><ele>859.0000000000001</ele><time>2026-03-22T12:19:21.135Z</time></trkpt><trkpt lat="39.9567683" lon="-2.2612636"><ele>859.0</ele><time>2026-03-22T12:19:22.14Z</time></trkpt><trkpt lat="39.9568235" lon="-2.2611706"><ele>859.0</ele><time>2026-03-22T12:19:23.133Z</time></trkpt><trkpt lat="39.9568842" lon="-2.2610846"><ele>858.6666666666666</ele><time>2026-03-22T12:19:24.164Z</time></trkpt><trkpt lat="39.9569496" lon="-2.2609983"><ele>858.3333333333333</ele><time>2026-03-22T12:19:25.159Z</time></trkpt><trkpt lat="39.957021" lon="-2.2609356"><ele>858.0</ele><time>2026-03-22T12:19:26.153Z</time></trkpt><trkpt lat="39.9570835" lon="-2.2608743"><ele>857.6666666666667</ele><time>2026-03-22T12:19:27.156Z</time></trkpt><trkpt lat="39.9571426" lon="-2.2608081"><ele>857.3333333333334</ele><time>2026-03-22T12:19:28.14Z</time></trkpt><trkpt lat="39.9572073" lon="-2.2607366"><ele>857.0</ele><time>2026-03-22T12:19:29.145Z</time></trkpt><trkpt lat="39.9572797" lon="-2.2606791"><ele>857.0</ele><time>2026-03-22T12:19:30.165Z</time></trkpt><trkpt lat="39.9573697" lon="-2.2606306"><ele>857.0</ele><time>2026-03-22T12:19:31.163Z</time></trkpt><trkpt lat="39.9574609" lon="-2.2605861"><ele>857.0</ele><time>2026-03-22T12:19:32.159Z</time></trkpt><trkpt lat="39.9575468" lon="-2.2605345"><ele>857.0</ele><time>2026-03-22T12:19:33.167Z</time></trkpt><trkpt lat="39.9576241" lon="-2.2604769"><ele>857.0</ele><time>2026-03-22T12:19:34.141Z</time></trkpt><trkpt lat="39.9576954" lon="-2.2604058"><ele>857.1666666666667</ele><time>2026-03-22T12:19:35.141Z</time></trkpt><trkpt lat="39.957751" lon="-2.2603283"><ele>857.3333333333334</ele><time>2026-03-22T12:19:36.148Z</time></trkpt><trkpt lat="39.9578113" lon="-2.260239"><ele>857.5</ele><time>2026-03-22T12:19:37.137Z</time></trkpt><trkpt lat="39.9578685" lon="-2.2601566"><ele>857.6666666666667</ele><time>2026-03-22T12:19:38.132Z</time></trkpt><trkpt lat="39.9579345" lon="-2.2600861"><ele>857.8333333333334</ele><time>2026-03-22T12:19:39.146Z</time></trkpt><trkpt lat="39.9580119" lon="-2.2600449"><ele>858.0</ele><time>2026-03-22T12:19:40.162Z</time></trkpt><trkpt lat="39.9581053" lon="-2.2600007"><ele>858.0</ele><time>2026-03-22T12:19:41.151Z</time></trkpt><trkpt lat="39.9581832" lon="-2.2599536"><ele>858.0</ele><time>2026-03-22T12:19:42.131Z</time></trkpt><trkpt lat="39.958261" lon="-2.2598792"><ele>858.0</ele><time>2026-03-22T12:19:43.147Z</time></trkpt><trkpt lat="39.9583397" lon="-2.259816"><ele>858.0</ele><time>2026-03-22T12:19:44.128Z</time></trkpt><trkpt lat="39.9584124" lon="-2.2597766"><ele>858.0</ele><time>2026-03-22T12:19:45.146Z</time></trkpt><trkpt lat="39.9584866" lon="-2.2597506"><ele>858.0</ele><time>2026-03-22T12:19:46.141Z</time></trkpt><trkpt lat="39.9585667" lon="-2.2597298"><ele>858.3333333333334</ele><time>2026-03-22T12:19:47.151Z</time></trkpt><trkpt lat="39.9586484" lon="-2.2597123"><ele>858.6666666666667</ele><time>2026-03-22T12:19:48.138Z</time></trkpt><trkpt lat="39.9587292" lon="-2.2596895"><ele>859.0</ele><time>2026-03-22T12:19:49.145Z</time></trkpt><trkpt lat="39.9588051" lon="-2.2596511"><ele>859.3333333333334</ele><time>2026-03-22T12:19:50.147Z</time></trkpt><trkpt lat="39.9588829" lon="-2.2595952"><ele>859.6666666666667</ele><time>2026-03-22T12:19:51.162Z</time></trkpt><trkpt lat="39.9589565" lon="-2.2595146"><ele>860.0</ele><time>2026-03-22T12:19:52.147Z</time></trkpt><trkpt lat="39.9590226" lon="-2.2594228"><ele>860.0</ele><time>2026-03-22T12:19:53.163Z</time></trkpt><trkpt lat="39.9590886" lon="-2.2593274"><ele>860.0</ele><time>2026-03-22T12:19:54.157Z</time></trkpt><trkpt lat="39.9591623" lon="-2.2592395"><ele>860.0</ele><time>2026-03-22T12:19:55.149Z</time></trkpt><trkpt lat="39.9592389" lon="-2.2591682"><ele>860.0</ele><time>2026-03-22T12:19:56.133Z</time></trkpt><trkpt lat="39.959313" lon="-2.2591007"><ele>860.0</ele><time>2026-03-22T12:19:57.152Z</time></trkpt><trkpt lat="39.9593854" lon="-2.2590246"><ele>860.2</ele><time>2026-03-22T12:19:58.134Z</time></trkpt><trkpt lat="39.9594525" lon="-2.2589411"><ele>860.4</ele><time>2026-03-22T12:19:59.152Z</time></trkpt><trkpt lat="39.9595128" lon="-2.2588465"><ele>860.5999999999999</ele><time>2026-03-22T12:20:00.14Z</time></trkpt><trkpt lat="39.9595747" lon="-2.2587496"><ele>860.8</ele><time>2026-03-22T12:20:01.129Z</time></trkpt><trkpt lat="39.959638" lon="-2.2586666"><ele>861.0</ele><time>2026-03-22T12:20:02.162Z</time></trkpt><trkpt lat="39.9596961" lon="-2.258587"><ele>861.0</ele><time>2026-03-22T12:20:03.134Z</time></trkpt><trkpt lat="39.9597425" lon="-2.2585139"><ele>861.0</ele><time>2026-03-22T12:20:04.15Z</time></trkpt><trkpt lat="39.9597951" lon="-2.2584581"><ele>861.0</ele><time>2026-03-22T12:20:05.133Z</time></trkpt><trkpt lat="39.9598619" lon="-2.2584116"><ele>861.0</ele><time>2026-03-22T12:20:06.151Z</time></trkpt><trkpt lat="39.9599421" lon="-2.2583788"><ele>861.0</ele><time>2026-03-22T12:20:07.144Z</time></trkpt><trkpt lat="39.9600215" lon="-2.2583264"><ele>861.0</ele><time>2026-03-22T12:20:08.144Z</time></trkpt><trkpt lat="39.9601006" lon="-2.2582701"><ele>860.4</ele><time>2026-03-22T12:20:09.142Z</time></trkpt><trkpt lat="39.9601874" lon="-2.2582261"><ele>859.8</ele><time>2026-03-22T12:20:10.135Z</time></trkpt><trkpt lat="39.9602812" lon="-2.2581725"><ele>859.1999999999999</ele><time>2026-03-22T12:20:11.141Z</time></trkpt><trkpt lat="39.9603789" lon="-2.2581297"><ele>858.5999999999999</ele><time>2026-03-22T12:20:12.123Z</time></trkpt><trkpt lat="39.9604672" lon="-2.2580824"><ele>858.0</ele><time>2026-03-22T12:20:13.143Z</time></trkpt><trkpt lat="39.9605495" lon="-2.2580234"><ele>861.4</ele><time>2026-03-22T12:20:14.147Z</time></trkpt><trkpt lat="39.9606371" lon="-2.2579621"><ele>864.8</ele><time>2026-03-22T12:20:15.147Z</time></trkpt><trkpt lat="39.9607284" lon="-2.2579166"><ele>868.2</ele><time>2026-03-22T12:20:16.146Z</time></trkpt><trkpt lat="39.9608126" lon="-2.2578869"><ele>871.6</ele><time>2026-03-22T12:20:17.159Z</time></trkpt><trkpt lat="39.960894" lon="-2.2578675"><ele>875.0</ele><time>2026-03-22T12:20:18.141Z</time></trkpt><trkpt lat="39.9609822" lon="-2.2578626"><ele>875.8</ele><time>2026-03-22T12:20:19.142Z</time></trkpt><trkpt lat="39.9610755" lon="-2.2578797"><ele>876.6</ele><time>2026-03-22T12:20:20.132Z</time></trkpt><trkpt lat="39.9611735" lon="-2.2578971"><ele>877.4000000000001</ele><time>2026-03-22T12:20:21.139Z</time></trkpt><trkpt lat="39.9612778" lon="-2.2579239"><ele>878.2</ele><time>2026-03-22T12:20:22.151Z</time></trkpt><trkpt lat="39.9613813" lon="-2.2579618"><ele>879.0</ele><time>2026-03-22T12:20:23.135Z</time></trkpt><trkpt lat="39.9614807" lon="-2.2580051"><ele>879.0</ele><time>2026-03-22T12:20:24.142Z</time></trkpt><trkpt lat="39.9615776" lon="-2.2580511"><ele>879.0000000000001</ele><time>2026-03-22T12:20:25.146Z</time></trkpt><trkpt lat="39.9616678" lon="-2.2580931"><ele>879.0000000000001</ele><time>2026-03-22T12:20:26.148Z</time></trkpt><trkpt lat="39.9617575" lon="-2.2581515"><ele>879.0</ele><time>2026-03-22T12:20:27.143Z</time></trkpt><trkpt lat="39.9618486" lon="-2.2582242"><ele>879.0</ele><time>2026-03-22T12:20:28.145Z</time></trkpt><trkpt lat="39.9619332" lon="-2.258295"><ele>878.3333333333334</ele><time>2026-03-22T12:20:29.135Z</time></trkpt><trkpt lat="39.9620027" lon="-2.2583669"><ele>877.6666666666667</ele><time>2026-03-22T12:20:30.14Z</time></trkpt><trkpt lat="39.9620678" lon="-2.2584322"><ele>877.0</ele><time>2026-03-22T12:20:31.153Z</time></trkpt><trkpt lat="39.9621308" lon="-2.2584722"><ele>876.3333333333334</ele><time>2026-03-22T12:20:32.137Z</time></trkpt><trkpt lat="39.9622021" lon="-2.2585248"><ele>875.6666666666667</ele><time>2026-03-22T12:20:34.139Z</time></trkpt><trkpt lat="39.9622637" lon="-2.2585793"><ele>875.0</ele><time>2026-03-22T12:20:36.14Z</time></trkpt><trkpt lat="39.9623498" lon="-2.2586478"><ele>875.0</ele><time>2026-03-22T12:20:38.134Z</time></trkpt><trkpt lat="39.9624148" lon="-2.2586998"><ele>875.0</ele><time>2026-03-22T12:20:40.144Z</time></trkpt><trkpt lat="39.9624296" lon="-2.258793"><ele>875.0</ele><time>2026-03-22T12:20:56.161Z</time></trkpt><trkpt lat="39.9624631" lon="-2.2588677"><ele>875.0</ele><time>2026-03-22T12:20:58.16Z</time></trkpt><trkpt lat="39.9624956" lon="-2.2589718"><ele>875.0</ele><time>2026-03-22T12:21:01.144Z</time></trkpt><trkpt lat="39.962536" lon="-2.2590413"><ele>875.0</ele><time>2026-03-22T12:21:06.156Z</time></trkpt><trkpt lat="39.962607" lon="-2.2590911"><ele>875.0</ele><time>2026-03-22T12:21:16.133Z</time></trkpt><trkpt lat="39.9626967" lon="-2.2591414"><ele>877.0000000000001</ele><time>2026-03-22T12:21:18.164Z</time></trkpt><trkpt lat="39.9627535" lon="-2.2592136"><ele>879.0</ele><time>2026-03-22T12:21:20.131Z</time></trkpt><trkpt lat="39.9627832" lon="-2.2593132"><ele>881.0</ele><time>2026-03-22T12:21:23.152Z</time></trkpt><trkpt lat="39.9627844" lon="-2.2594013"><ele>883.0</ele><time>2026-03-22T12:21:26.133Z</time></trkpt><trkpt lat="39.9628486" lon="-2.2594662"><ele>885.0000000000001</ele><time>2026-03-22T12:21:40.151Z</time></trkpt><trkpt lat="39.9628477" lon="-2.2593834"><ele>887.0</ele><time>2026-03-22T12:21:46.139Z</time></trkpt><trkpt lat="39.9627892" lon="-2.259297"><ele>886.9999999999999</ele><time>2026-03-22T12:21:50.138Z</time></trkpt><trkpt lat="39.9627439" lon="-2.2592393"><ele>887.0</ele><time>2026-03-22T12:21:52.147Z</time></trkpt><trkpt lat="39.9626873" lon="-2.2591957"><ele>887.0</ele><time>2026-03-22T12:21:54.148Z</time></trkpt><trkpt lat="39.9626111" lon="-2.2591796"><ele>887.0</ele><time>2026-03-22T12:21:57.158Z</time></trkpt><trkpt lat="39.9625403" lon="-2.2592099"><ele>887.0</ele><time>2026-03-22T12:22:01.154Z</time></trkpt><trkpt lat="39.9625016" lon="-2.2591211"><ele>886.9999999999999</ele><time>2026-03-22T12:22:05.142Z</time></trkpt><trkpt lat="39.9624641" lon="-2.2590369"><ele>887.0</ele><time>2026-03-22T12:22:07.133Z</time></trkpt><trkpt lat="39.9623976" lon="-2.2589638"><ele>885.0000000000001</ele><time>2026-03-22T12:22:09.139Z</time></trkpt><trkpt lat="39.9623231" lon="-2.2589265"><ele>883.0</ele><time>2026-03-22T12:22:11.188Z</time></trkpt><trkpt lat="39.9622666" lon="-2.258884"><ele>881.0</ele><time>2026-03-22T12:22:13.171Z</time></trkpt><trkpt lat="39.9621949" lon="-2.2588307"><ele>879.0</ele><time>2026-03-22T12:22:15.16Z</time></trkpt><trkpt lat="39.9621143" lon="-2.2587375"><ele>877.0000000000001</ele><time>2026-03-22T12:22:17.164Z</time></trkpt><trkpt lat="39.9620376" lon="-2.2586723"><ele>875.0</ele><time>2026-03-22T12:22:19.151Z</time></trkpt><trkpt lat="39.9619584" lon="-2.258581"><ele>875.0</ele><time>2026-03-22T12:22:21.185Z</time></trkpt><trkpt lat="39.9618432" lon="-2.2584878"><ele>875.0</ele><time>2026-03-22T12:22:23.185Z</time></trkpt><trkpt lat="39.9617832" lon="-2.2584404"><ele>875.0</ele><time>2026-03-22T12:22:24.162Z</time></trkpt><trkpt lat="39.9616838" lon="-2.2583718"><ele>875.0</ele><time>2026-03-22T12:22:26.169Z</time></trkpt><trkpt lat="39.9616275" lon="-2.2583206"><ele>875.0</ele><time>2026-03-22T12:22:27.151Z</time></trkpt><trkpt lat="39.9615614" lon="-2.2582624"><ele>875.6666666666667</ele><time>2026-03-22T12:22:28.145Z</time></trkpt><trkpt lat="39.9614901" lon="-2.2582092"><ele>876.3333333333334</ele><time>2026-03-22T12:22:29.134Z</time></trkpt><trkpt lat="39.9614192" lon="-2.2581693"><ele>877.0</ele><time>2026-03-22T12:22:30.134Z</time></trkpt><trkpt lat="39.9613404" lon="-2.258134"><ele>877.6666666666667</ele><time>2026-03-22T12:22:31.15Z</time></trkpt><trkpt lat="39.9612692" lon="-2.258093"><ele>878.3333333333334</ele><time>2026-03-22T12:22:32.141Z</time></trkpt><trkpt lat="39.9612024" lon="-2.2580614"><ele>879.0</ele><time>2026-03-22T12:22:33.137Z</time></trkpt><trkpt lat="39.9611214" lon="-2.2580359"><ele>879.0</ele><time>2026-03-22T12:22:34.151Z</time></trkpt><trkpt lat="39.9610453" lon="-2.2580119"><ele>879.0</ele><time>2026-03-22T12:22:35.146Z</time></trkpt><trkpt lat="39.9609667" lon="-2.2579839"><ele>879.0</ele><time>2026-03-22T12:22:36.147Z</time></trkpt><trkpt lat="39.9609039" lon="-2.2579603"><ele>879.0</ele><time>2026-03-22T12:22:37.136Z</time></trkpt><trkpt lat="39.9607686" lon="-2.2579797"><ele>879.0</ele><time>2026-03-22T12:22:39.136Z</time></trkpt><trkpt lat="39.9607009" lon="-2.2579893"><ele>879.0</ele><time>2026-03-22T12:22:40.146Z</time></trkpt><trkpt lat="39.9606255" lon="-2.2580209"><ele>878.2</ele><time>2026-03-22T12:22:41.142Z</time></trkpt><trkpt lat="39.9605349" lon="-2.2580641"><ele>877.4000000000001</ele><time>2026-03-22T12:22:42.148Z</time></trkpt><trkpt lat="39.9604448" lon="-2.2581092"><ele>876.6</ele><time>2026-03-22T12:22:43.13Z</time></trkpt><trkpt lat="39.9603613" lon="-2.2581498"><ele>875.8</ele><time>2026-03-22T12:22:44.143Z</time></trkpt><trkpt lat="39.9602784" lon="-2.2581864"><ele>875.0</ele><time>2026-03-22T12:22:45.144Z</time></trkpt><trkpt lat="39.9601904" lon="-2.2582209"><ele>872.6666666666667</ele><time>2026-03-22T12:22:46.143Z</time></trkpt><trkpt lat="39.960114" lon="-2.2582637"><ele>870.3333333333334</ele><time>2026-03-22T12:22:47.132Z</time></trkpt><trkpt lat="39.9600407" lon="-2.258304"><ele>868.0</ele><time>2026-03-22T12:22:48.146Z</time></trkpt><trkpt lat="39.9599642" lon="-2.2583401"><ele>865.6666666666667</ele><time>2026-03-22T12:22:49.14Z</time></trkpt><trkpt lat="39.9598886" lon="-2.2583668"><ele>863.3333333333334</ele><time>2026-03-22T12:22:50.134Z</time></trkpt><trkpt lat="39.9598218" lon="-2.2583863"><ele>861.0</ele><time>2026-03-22T12:22:51.173Z</time></trkpt><trkpt lat="39.9597197" lon="-2.2584529"><ele>861.0</ele><time>2026-03-22T12:22:53.136Z</time></trkpt><trkpt lat="39.9596812" lon="-2.2585185"><ele>860.9999999999999</ele><time>2026-03-22T12:22:54.129Z</time></trkpt><trkpt lat="39.9596237" lon="-2.2586124"><ele>860.9999999999999</ele><time>2026-03-22T12:22:55.128Z</time></trkpt><trkpt lat="39.9595575" lon="-2.2587193"><ele>861.0</ele><time>2026-03-22T12:22:56.138Z</time></trkpt><trkpt lat="39.9594941" lon="-2.2588218"><ele>861.0</ele><time>2026-03-22T12:22:57.154Z</time></trkpt><trkpt lat="39.9594332" lon="-2.2589196"><ele>860.8</ele><time>2026-03-22T12:22:58.14Z</time></trkpt><trkpt lat="39.9593657" lon="-2.2590065"><ele>860.5999999999999</ele><time>2026-03-22T12:22:59.154Z</time></trkpt><trkpt lat="39.9592755" lon="-2.2590802"><ele>860.4</ele><time>2026-03-22T12:23:00.155Z</time></trkpt><trkpt lat="39.9591797" lon="-2.2591541"><ele>860.2</ele><time>2026-03-22T12:23:01.14Z</time></trkpt><trkpt lat="39.9590948" lon="-2.259229"><ele>860.0</ele><time>2026-03-22T12:23:02.137Z</time></trkpt><trkpt lat="39.959021" lon="-2.259314"><ele>860.0</ele><time>2026-03-22T12:23:03.142Z</time></trkpt><trkpt lat="39.9589515" lon="-2.2594004"><ele>860.0</ele><time>2026-03-22T12:23:04.136Z</time></trkpt><trkpt lat="39.9588733" lon="-2.2594792"><ele>860.0</ele><time>2026-03-22T12:23:05.128Z</time></trkpt><trkpt lat="39.9587882" lon="-2.2595493"><ele>860.0</ele><time>2026-03-22T12:23:06.145Z</time></trkpt><trkpt lat="39.958698" lon="-2.2596076"><ele>860.0</ele><time>2026-03-22T12:23:07.135Z</time></trkpt><trkpt lat="39.9586039" lon="-2.2596495"><ele>860.0</ele><time>2026-03-22T12:23:08.126Z</time></trkpt><trkpt lat="39.9585121" lon="-2.2596803"><ele>860.0</ele><time>2026-03-22T12:23:09.14Z</time></trkpt><trkpt lat="39.9584222" lon="-2.2597093"><ele>860.0</ele><time>2026-03-22T12:23:10.153Z</time></trkpt><trkpt lat="39.9583388" lon="-2.25975"><ele>860.0</ele><time>2026-03-22T12:23:11.129Z</time></trkpt><trkpt lat="39.9582612" lon="-2.2598204"><ele>860.0</ele><time>2026-03-22T12:23:12.139Z</time></trkpt><trkpt lat="39.9581821" lon="-2.2598959"><ele>859.6666666666667</ele><time>2026-03-22T12:23:13.136Z</time></trkpt><trkpt lat="39.9581065" lon="-2.2599562"><ele>859.3333333333334</ele><time>2026-03-22T12:23:14.132Z</time></trkpt><trkpt lat="39.9580339" lon="-2.2599961"><ele>859.0</ele><time>2026-03-22T12:23:15.15Z</time></trkpt><trkpt lat="39.9579581" lon="-2.2600322"><ele>858.6666666666667</ele><time>2026-03-22T12:23:16.137Z</time></trkpt><trkpt lat="39.957888" lon="-2.2600886"><ele>858.3333333333334</ele><time>2026-03-22T12:23:17.153Z</time></trkpt><trkpt lat="39.9578357" lon="-2.2601716"><ele>858.0</ele><time>2026-03-22T12:23:18.144Z</time></trkpt><trkpt lat="39.9577802" lon="-2.2602651"><ele>858.0</ele><time>2026-03-22T12:23:19.142Z</time></trkpt><trkpt lat="39.9577178" lon="-2.2603565"><ele>858.0</ele><time>2026-03-22T12:23:20.148Z</time></trkpt><trkpt lat="39.9576525" lon="-2.2604395"><ele>858.0</ele><time>2026-03-22T12:23:21.131Z</time></trkpt><trkpt lat="39.9575858" lon="-2.2605105"><ele>858.0</ele><time>2026-03-22T12:23:22.124Z</time></trkpt><trkpt lat="39.9575028" lon="-2.2605567"><ele>858.0</ele><time>2026-03-22T12:23:23.143Z</time></trkpt><trkpt lat="39.9574176" lon="-2.260602"><ele>857.8333333333334</ele><time>2026-03-22T12:23:24.143Z</time></trkpt><trkpt lat="39.9573372" lon="-2.2606425"><ele>857.6666666666667</ele><time>2026-03-22T12:23:25.133Z</time></trkpt><trkpt lat="39.9572641" lon="-2.2606791"><ele>857.5</ele><time>2026-03-22T12:23:26.148Z</time></trkpt><trkpt lat="39.9571949" lon="-2.2607279"><ele>857.3333333333334</ele><time>2026-03-22T12:23:27.132Z</time></trkpt><trkpt lat="39.9571392" lon="-2.2608131"><ele>857.1666666666667</ele><time>2026-03-22T12:23:28.136Z</time></trkpt><trkpt lat="39.9570794" lon="-2.2609182"><ele>857.0</ele><time>2026-03-22T12:23:29.135Z</time></trkpt><trkpt lat="39.9570051" lon="-2.261006"><ele>857.0</ele><time>2026-03-22T12:23:30.136Z</time></trkpt><trkpt lat="39.9569375" lon="-2.2610831"><ele>857.0</ele><time>2026-03-22T12:23:31.126Z</time></trkpt><trkpt lat="39.9568523" lon="-2.2611448"><ele>857.0</ele><time>2026-03-22T12:23:32.134Z</time></trkpt><trkpt lat="39.9567761" lon="-2.2612307"><ele>857.0</ele><time>2026-03-22T12:23:33.148Z</time></trkpt><trkpt lat="39.9567124" lon="-2.2613382"><ele>857.0</ele><time>2026-03-22T12:23:34.132Z</time></trkpt><trkpt lat="39.9566697" lon="-2.2614648"><ele>857.4000000000001</ele><time>2026-03-22T12:23:35.151Z</time></trkpt><trkpt lat="39.9566225" lon="-2.2615836"><ele>857.8000000000001</ele><time>2026-03-22T12:23:36.158Z</time></trkpt><trkpt lat="39.9565725" lon="-2.2616943"><ele>858.2</ele><time>2026-03-22T12:23:37.142Z</time></trkpt><trkpt lat="39.9565062" lon="-2.2617849"><ele>858.6</ele><time>2026-03-22T12:23:38.135Z</time></trkpt><trkpt lat="39.9564401" lon="-2.2618668"><ele>859.0</ele><time>2026-03-22T12:23:39.129Z</time></trkpt><trkpt lat="39.9563808" lon="-2.2619443"><ele>858.9999999999999</ele><time>2026-03-22T12:23:40.146Z</time></trkpt><trkpt lat="39.9563169" lon="-2.2620295"><ele>859.0</ele><time>2026-03-22T12:23:41.135Z</time></trkpt><trkpt lat="39.9562614" lon="-2.2621171"><ele>859.0</ele><time>2026-03-22T12:23:42.146Z</time></trkpt><trkpt lat="39.9562126" lon="-2.2622133"><ele>859.0</ele><time>2026-03-22T12:23:43.147Z</time></trkpt><trkpt lat="39.9561719" lon="-2.2623195"><ele>858.9999999999999</ele><time>2026-03-22T12:23:44.142Z</time></trkpt><trkpt lat="39.9561517" lon="-2.2624183"><ele>859.0</ele><time>2026-03-22T12:23:45.138Z</time></trkpt><trkpt lat="39.9561475" lon="-2.2625194"><ele>858.3333333333333</ele><time>2026-03-22T12:23:46.147Z</time></trkpt><trkpt lat="39.9561572" lon="-2.2626348"><ele>857.6666666666666</ele><time>2026-03-22T12:23:47.135Z</time></trkpt><trkpt lat="39.9561814" lon="-2.2627359"><ele>857.0</ele><time>2026-03-22T12:23:48.153Z</time></trkpt><trkpt lat="39.9562105" lon="-2.2628266"><ele>856.3333333333333</ele><time>2026-03-22T12:23:49.148Z</time></trkpt><trkpt lat="39.956223" lon="-2.2629146"><ele>855.6666666666666</ele><time>2026-03-22T12:23:50.136Z</time></trkpt><trkpt lat="39.9562424" lon="-2.2630567"><ele>855.0</ele><time>2026-03-22T12:23:52.125Z</time></trkpt><trkpt lat="39.9561884" lon="-2.2631814"><ele>854.5714285714286</ele><time>2026-03-22T12:23:54.133Z</time></trkpt><trkpt lat="39.9561457" lon="-2.2632476"><ele>854.1428571428571</ele><time>2026-03-22T12:23:55.138Z</time></trkpt><trkpt lat="39.9560903" lon="-2.2632995"><ele>853.7142857142857</ele><time>2026-03-22T12:23:56.136Z</time></trkpt><trkpt lat="39.9560181" lon="-2.2633346"><ele>853.2857142857142</ele><time>2026-03-22T12:23:57.142Z</time></trkpt><trkpt lat="39.9559529" lon="-2.2633724"><ele>852.8571428571429</ele><time>2026-03-22T12:23:58.153Z</time></trkpt><trkpt lat="39.9558922" lon="-2.2634111"><ele>852.4285714285713</ele><time>2026-03-22T12:23:59.148Z</time></trkpt><trkpt lat="39.9558341" lon="-2.2634543"><ele>852.0</ele><time>2026-03-22T12:24:00.194Z</time></trkpt><trkpt lat="39.9557339" lon="-2.2635241"><ele>853.4000000000001</ele><time>2026-03-22T12:24:02.156Z</time></trkpt><trkpt lat="39.9556432" lon="-2.2635478"><ele>854.8000000000001</ele><time>2026-03-22T12:24:04.162Z</time></trkpt><trkpt lat="39.9555702" lon="-2.2635447"><ele>856.2</ele><time>2026-03-22T12:24:06.139Z</time></trkpt><trkpt lat="39.9554794" lon="-2.2635601"><ele>857.6</ele><time>2026-03-22T12:24:08.142Z</time></trkpt><trkpt lat="39.9553807" lon="-2.2636606"><ele>859.0</ele><time>2026-03-22T12:24:10.143Z</time></trkpt><trkpt lat="39.9553257" lon="-2.2637198"><ele>858.9999999999999</ele><time>2026-03-22T12:24:11.129Z</time></trkpt><trkpt lat="39.9552689" lon="-2.2637823"><ele>859.0</ele><time>2026-03-22T12:24:12.136Z</time></trkpt><trkpt lat="39.9552126" lon="-2.2638343"><ele>859.0</ele><time>2026-03-22T12:24:13.151Z</time></trkpt><trkpt lat="39.9551576" lon="-2.2638878"><ele>859.0</ele><time>2026-03-22T12:24:14.133Z</time></trkpt><trkpt lat="39.9550867" lon="-2.2639509"><ele>858.9999999999999</ele><time>2026-03-22T12:24:15.157Z</time></trkpt><trkpt lat="39.954998" lon="-2.2640164"><ele>859.0</ele><time>2026-03-22T12:24:16.139Z</time></trkpt><trkpt lat="39.9548997" lon="-2.2640765"><ele>859.4000000000001</ele><time>2026-03-22T12:24:17.136Z</time></trkpt><trkpt lat="39.9548038" lon="-2.264137"><ele>859.8000000000001</ele><time>2026-03-22T12:24:18.156Z</time></trkpt><trkpt lat="39.9547059" lon="-2.2641984"><ele>860.1999999999999</ele><time>2026-03-22T12:24:19.141Z</time></trkpt><trkpt lat="39.9545989" lon="-2.264255"><ele>860.5999999999999</ele><time>2026-03-22T12:24:20.173Z</time></trkpt><trkpt lat="39.9544967" lon="-2.2643026"><ele>861.0</ele><time>2026-03-22T12:24:21.142Z</time></trkpt><trkpt lat="39.9543832" lon="-2.2643537"><ele>861.0</ele><time>2026-03-22T12:24:22.135Z</time></trkpt><trkpt lat="39.9542728" lon="-2.2644052"><ele>861.0</ele><time>2026-03-22T12:24:23.128Z</time></trkpt><trkpt lat="39.9541602" lon="-2.2644734"><ele>861.0</ele><time>2026-03-22T12:24:24.149Z</time></trkpt><trkpt lat="39.9540629" lon="-2.2645353"><ele>861.0</ele><time>2026-03-22T12:24:25.155Z</time></trkpt><trkpt lat="39.9539636" lon="-2.2645836"><ele>862.5999999999999</ele><time>2026-03-22T12:24:26.14Z</time></trkpt><trkpt lat="39.9538644" lon="-2.2646251"><ele>864.1999999999999</ele><time>2026-03-22T12:24:27.138Z</time></trkpt><trkpt lat="39.9537645" lon="-2.2646655"><ele>865.8000000000001</ele><time>2026-03-22T12:24:28.145Z</time></trkpt><trkpt lat="39.9536662" lon="-2.264703"><ele>867.4000000000001</ele><time>2026-03-22T12:24:29.125Z</time></trkpt><trkpt lat="39.9535681" lon="-2.2647413"><ele>869.0</ele><time>2026-03-22T12:24:30.132Z</time></trkpt><trkpt lat="39.9534819" lon="-2.2647764"><ele>867.3333333333334</ele><time>2026-03-22T12:24:31.156Z</time></trkpt><trkpt lat="39.9533953" lon="-2.2648133"><ele>865.6666666666667</ele><time>2026-03-22T12:24:32.145Z</time></trkpt><trkpt lat="39.9533" lon="-2.2648608"><ele>864.0</ele><time>2026-03-22T12:24:33.173Z</time></trkpt><trkpt lat="39.9532077" lon="-2.2649029"><ele>862.3333333333333</ele><time>2026-03-22T12:24:34.128Z</time></trkpt><trkpt lat="39.9531277" lon="-2.2649411"><ele>860.6666666666666</ele><time>2026-03-22T12:24:35.129Z</time></trkpt><trkpt lat="39.9530637" lon="-2.2649763"><ele>859.0</ele><time>2026-03-22T12:24:36.154Z</time></trkpt><trkpt lat="39.9529788" lon="-2.265038"><ele>858.9999999999999</ele><time>2026-03-22T12:24:38.131Z</time></trkpt><trkpt lat="39.9529017" lon="-2.2650779"><ele>859.0</ele><time>2026-03-22T12:24:40.155Z</time></trkpt><trkpt lat="39.9528216" lon="-2.265058"><ele>859.0</ele><time>2026-03-22T12:24:42.149Z</time></trkpt><trkpt lat="39.9527187" lon="-2.2649631"><ele>859.0</ele><time>2026-03-22T12:24:44.143Z</time></trkpt><trkpt lat="39.9526536" lon="-2.2649162"><ele>858.9999999999999</ele><time>2026-03-22T12:24:45.127Z</time></trkpt><trkpt lat="39.952588" lon="-2.2648819"><ele>859.0</ele><time>2026-03-22T12:24:46.158Z</time></trkpt><trkpt lat="39.9524929" lon="-2.2648195"><ele>861.4999999999999</ele><time>2026-03-22T12:24:48.141Z</time></trkpt><trkpt lat="39.9524026" lon="-2.2647136"><ele>864.0</ele><time>2026-03-22T12:24:50.15Z</time></trkpt><trkpt lat="39.9523713" lon="-2.2646296"><ele>866.5</ele><time>2026-03-22T12:24:51.156Z</time></trkpt><trkpt lat="39.9523472" lon="-2.2645414"><ele>869.0</ele><time>2026-03-22T12:24:52.158Z</time></trkpt><trkpt lat="39.952319" lon="-2.2644519"><ele>871.4999999999999</ele><time>2026-03-22T12:24:53.14Z</time></trkpt><trkpt lat="39.9523009" lon="-2.2643597"><ele>874.0</ele><time>2026-03-22T12:24:54.152Z</time></trkpt><trkpt lat="39.9522965" lon="-2.2642757"><ele>874.0</ele><time>2026-03-22T12:24:55.16Z</time></trkpt><trkpt lat="39.9523178" lon="-2.2641152"><ele>874.0000000000001</ele><time>2026-03-22T12:24:57.128Z</time></trkpt><trkpt lat="39.9523467" lon="-2.2640281"><ele>874.0000000000001</ele><time>2026-03-22T12:24:58.151Z</time></trkpt><trkpt lat="39.9524031" lon="-2.263952"><ele>874.0</ele><time>2026-03-22T12:24:59.144Z</time></trkpt><trkpt lat="39.9524616" lon="-2.2638571"><ele>874.0</ele><time>2026-03-22T12:25:00.195Z</time></trkpt><trkpt lat="39.9524967" lon="-2.2637519"><ele>876.2</ele><time>2026-03-22T12:25:01.144Z</time></trkpt><trkpt lat="39.9525253" lon="-2.2636299"><ele>878.4000000000001</ele><time>2026-03-22T12:25:02.144Z</time></trkpt><trkpt lat="39.9525577" lon="-2.2635042"><ele>880.6</ele><time>2026-03-22T12:25:03.141Z</time></trkpt><trkpt lat="39.9525912" lon="-2.2633865"><ele>882.8</ele><time>2026-03-22T12:25:04.171Z</time></trkpt><trkpt lat="39.9526224" lon="-2.2632791"><ele>885.0</ele><time>2026-03-22T12:25:05.137Z</time></trkpt><trkpt lat="39.9526586" lon="-2.2631835"><ele>887.0</ele><time>2026-03-22T12:25:06.184Z</time></trkpt><trkpt lat="39.9527138" lon="-2.2630946"><ele>889.0</ele><time>2026-03-22T12:25:07.181Z</time></trkpt><trkpt lat="39.9527725" lon="-2.2629923"><ele>891.0</ele><time>2026-03-22T12:25:08.17Z</time></trkpt><trkpt lat="39.9528339" lon="-2.2628911"><ele>893.0</ele><time>2026-03-22T12:25:09.194Z</time></trkpt><trkpt lat="39.9528911" lon="-2.2627836"><ele>895.0</ele><time>2026-03-22T12:25:10.147Z</time></trkpt><trkpt lat="39.9529463" lon="-2.2626775"><ele>895.0</ele><time>2026-03-22T12:25:11.19Z</time></trkpt><trkpt lat="39.9530078" lon="-2.2625858"><ele>895.0</ele><time>2026-03-22T12:25:12.185Z</time></trkpt><trkpt lat="39.9530588" lon="-2.2625097"><ele>895.0</ele><time>2026-03-22T12:25:13.156Z</time></trkpt><trkpt lat="39.9531443" lon="-2.2624337"><ele>895.0</ele><time>2026-03-22T12:25:15.163Z</time></trkpt><trkpt lat="39.9532107" lon="-2.2623542"><ele>895.0</ele><time>2026-03-22T12:25:17.212Z</time></trkpt><trkpt lat="39.9532678" lon="-2.2622619"><ele>896.1666666666666</ele><time>2026-03-22T12:25:19.179Z</time></trkpt><trkpt lat="39.9533127" lon="-2.2621581"><ele>897.3333333333333</ele><time>2026-03-22T12:25:21.149Z</time></trkpt><trkpt lat="39.9533309" lon="-2.2620312"><ele>898.5</ele><time>2026-03-22T12:25:23.14Z</time></trkpt><trkpt lat="39.9533396" lon="-2.2619438"><ele>899.6666666666667</ele><time>2026-03-22T12:25:24.155Z</time></trkpt><trkpt lat="39.9533534" lon="-2.2618525"><ele>900.8333333333334</ele><time>2026-03-22T12:25:25.15Z</time></trkpt><trkpt lat="39.9533678" lon="-2.2617635"><ele>902.0</ele><time>2026-03-22T12:25:26.177Z</time></trkpt><trkpt lat="39.9533695" lon="-2.26162"><ele>902.0</ele><time>2026-03-22T12:25:28.144Z</time></trkpt><trkpt lat="39.9533483" lon="-2.261493"><ele>902.0</ele><time>2026-03-22T12:25:30.158Z</time></trkpt><trkpt lat="39.9533076" lon="-2.2613395"><ele>902.0</ele><time>2026-03-22T12:25:32.144Z</time></trkpt><trkpt lat="39.953285" lon="-2.2612427"><ele>902.0</ele><time>2026-03-22T12:25:33.151Z</time></trkpt><trkpt lat="39.9532655" lon="-2.2611397"><ele>902.0</ele><time>2026-03-22T12:25:34.141Z</time></trkpt><trkpt lat="39.9532484" lon="-2.2610329"><ele>902.8333333333334</ele><time>2026-03-22T12:25:35.165Z</time></trkpt><trkpt lat="39.9532341" lon="-2.2609346"><ele>903.6666666666667</ele><time>2026-03-22T12:25:36.133Z</time></trkpt><trkpt lat="39.9532276" lon="-2.2608316"><ele>904.5</ele><time>2026-03-22T12:25:37.164Z</time></trkpt><trkpt lat="39.9532237" lon="-2.2607349"><ele>905.3333333333333</ele><time>2026-03-22T12:25:38.144Z</time></trkpt><trkpt lat="39.9532253" lon="-2.2606368"><ele>906.1666666666666</ele><time>2026-03-22T12:25:39.151Z</time></trkpt><trkpt lat="39.9532343" lon="-2.2605372"><ele>907.0</ele><time>2026-03-22T12:25:40.199Z</time></trkpt><trkpt lat="39.9532516" lon="-2.2604327"><ele>907.8333333333333</ele><time>2026-03-22T12:25:41.158Z</time></trkpt><trkpt lat="39.95328" lon="-2.2603198"><ele>908.6666666666666</ele><time>2026-03-22T12:25:42.159Z</time></trkpt><trkpt lat="39.9533064" lon="-2.2602152"><ele>909.5</ele><time>2026-03-22T12:25:43.147Z</time></trkpt><trkpt lat="39.9533553" lon="-2.2601273"><ele>910.3333333333333</ele><time>2026-03-22T12:25:44.146Z</time></trkpt><trkpt lat="39.9534121" lon="-2.2600391"><ele>911.1666666666666</ele><time>2026-03-22T12:25:45.163Z</time></trkpt><trkpt lat="39.9534752" lon="-2.2599567"><ele>912.0</ele><time>2026-03-22T12:25:46.14Z</time></trkpt><trkpt lat="39.9535381" lon="-2.2598745"><ele>914.1666666666666</ele><time>2026-03-22T12:25:47.153Z</time></trkpt><trkpt lat="39.9535917" lon="-2.2597794"><ele>916.3333333333333</ele><time>2026-03-22T12:25:48.144Z</time></trkpt><trkpt lat="39.9536283" lon="-2.2596812"><ele>918.5</ele><time>2026-03-22T12:25:49.168Z</time></trkpt><trkpt lat="39.9536564" lon="-2.2595839"><ele>920.6666666666666</ele><time>2026-03-22T12:25:50.169Z</time></trkpt><trkpt lat="39.9536673" lon="-2.2594909"><ele>922.8333333333333</ele><time>2026-03-22T12:25:51.155Z</time></trkpt><trkpt lat="39.9536772" lon="-2.2594069"><ele>925.0</ele><time>2026-03-22T12:25:52.183Z</time></trkpt><trkpt lat="39.9537146" lon="-2.2592531"><ele>924.9999999999999</ele><time>2026-03-22T12:25:54.141Z</time></trkpt><trkpt lat="39.9537658" lon="-2.2591773"><ele>925.0</ele><time>2026-03-22T12:25:55.141Z</time></trkpt><trkpt lat="39.9538364" lon="-2.2591038"><ele>925.0</ele><time>2026-03-22T12:25:56.141Z</time></trkpt><trkpt lat="39.9539165" lon="-2.2590453"><ele>925.0</ele><time>2026-03-22T12:25:57.147Z</time></trkpt><trkpt lat="39.9539935" lon="-2.2589923"><ele>924.9999999999999</ele><time>2026-03-22T12:25:58.154Z</time></trkpt><trkpt lat="39.9540702" lon="-2.2589398"><ele>925.0</ele><time>2026-03-22T12:25:59.148Z</time></trkpt><trkpt lat="39.954144" lon="-2.2588762"><ele>926.8</ele><time>2026-03-22T12:26:00.19Z</time></trkpt><trkpt lat="39.9542271" lon="-2.2588137"><ele>928.6</ele><time>2026-03-22T12:26:01.147Z</time></trkpt><trkpt lat="39.954311" lon="-2.2587578"><ele>930.4000000000001</ele><time>2026-03-22T12:26:02.129Z</time></trkpt><trkpt lat="39.9543876" lon="-2.2586911"><ele>932.2</ele><time>2026-03-22T12:26:03.143Z</time></trkpt><trkpt lat="39.9544697" lon="-2.2586501"><ele>934.0</ele><time>2026-03-22T12:26:04.148Z</time></trkpt><trkpt lat="39.9545556" lon="-2.2586183"><ele>933.9999999999999</ele><time>2026-03-22T12:26:05.165Z</time></trkpt><trkpt lat="39.954638" lon="-2.2585818"><ele>934.0</ele><time>2026-03-22T12:26:06.149Z</time></trkpt><trkpt lat="39.9547208" lon="-2.2585391"><ele>934.0</ele><time>2026-03-22T12:26:07.166Z</time></trkpt><trkpt lat="39.9547948" lon="-2.2584891"><ele>934.0</ele><time>2026-03-22T12:26:08.163Z</time></trkpt><trkpt lat="39.9548629" lon="-2.2584425"><ele>933.9999999999999</ele><time>2026-03-22T12:26:09.142Z</time></trkpt><trkpt lat="39.9549271" lon="-2.2583933"><ele>934.0</ele><time>2026-03-22T12:26:10.134Z</time></trkpt><trkpt lat="39.9549883" lon="-2.2583408"><ele>934.1666666666666</ele><time>2026-03-22T12:26:11.156Z</time></trkpt><trkpt lat="39.9550424" lon="-2.2582802"><ele>934.3333333333333</ele><time>2026-03-22T12:26:12.167Z</time></trkpt><trkpt lat="39.9550966" lon="-2.2582381"><ele>934.5</ele><time>2026-03-22T12:26:13.16Z</time></trkpt><trkpt lat="39.9551696" lon="-2.2581898"><ele>934.6666666666667</ele><time>2026-03-22T12:26:15.145Z</time></trkpt><trkpt lat="39.9552439" lon="-2.2581402"><ele>934.8333333333334</ele><time>2026-03-22T12:26:44.198Z</time></trkpt><trkpt lat="39.9553501" lon="-2.2580641"><ele>935.0</ele><time>2026-03-22T12:26:47.142Z</time></trkpt><trkpt lat="39.9554059" lon="-2.258023"><ele>934.6666666666667</ele><time>2026-03-22T12:26:48.179Z</time></trkpt><trkpt lat="39.9554813" lon="-2.2579872"><ele>934.3333333333334</ele><time>2026-03-22T12:26:49.163Z</time></trkpt><trkpt lat="39.9555585" lon="-2.2579667"><ele>934.0</ele><time>2026-03-22T12:26:50.164Z</time></trkpt><trkpt lat="39.9556367" lon="-2.2579466"><ele>933.6666666666667</ele><time>2026-03-22T12:26:51.156Z</time></trkpt><trkpt lat="39.9557047" lon="-2.2579285"><ele>933.3333333333334</ele><time>2026-03-22T12:26:52.143Z</time></trkpt><trkpt lat="39.9558182" lon="-2.2578734"><ele>933.0</ele><time>2026-03-22T12:26:54.154Z</time></trkpt><trkpt lat="39.9559183" lon="-2.2577826"><ele>934.0</ele><time>2026-03-22T12:26:56.159Z</time></trkpt><trkpt lat="39.9560012" lon="-2.2576572"><ele>935.0</ele><time>2026-03-22T12:26:58.149Z</time></trkpt><trkpt lat="39.956089" lon="-2.2575777"><ele>936.0</ele><time>2026-03-22T12:27:00.187Z</time></trkpt><trkpt lat="39.9561516" lon="-2.2575524"><ele>937.0</ele><time>2026-03-22T12:27:01.163Z</time></trkpt><trkpt lat="39.9562624" lon="-2.2575555"><ele>938.0</ele><time>2026-03-22T12:27:03.151Z</time></trkpt><trkpt lat="39.9563533" lon="-2.2576098"><ele>938.0</ele><time>2026-03-22T12:27:05.159Z</time></trkpt><trkpt lat="39.9564464" lon="-2.2576326"><ele>938.0</ele><time>2026-03-22T12:27:07.147Z</time></trkpt><trkpt lat="39.956557" lon="-2.2575693"><ele>938.0</ele><time>2026-03-22T12:27:09.157Z</time></trkpt><trkpt lat="39.956638" lon="-2.2575442"><ele>938.0</ele><time>2026-03-22T12:27:10.167Z</time></trkpt><trkpt lat="39.9567356" lon="-2.2575338"><ele>938.0</ele><time>2026-03-22T12:27:11.148Z</time></trkpt><trkpt lat="39.9568371" lon="-2.257514"><ele>939.5999999999999</ele><time>2026-03-22T12:27:12.148Z</time></trkpt><trkpt lat="39.9569399" lon="-2.2574764"><ele>941.1999999999999</ele><time>2026-03-22T12:27:13.175Z</time></trkpt><trkpt lat="39.9570389" lon="-2.2574344"><ele>942.8</ele><time>2026-03-22T12:27:14.175Z</time></trkpt><trkpt lat="39.9571227" lon="-2.2574123"><ele>944.4</ele><time>2026-03-22T12:27:15.151Z</time></trkpt><trkpt lat="39.9572087" lon="-2.2573708"><ele>946.0</ele><time>2026-03-22T12:27:16.149Z</time></trkpt><trkpt lat="39.9572888" lon="-2.2573332"><ele>945.9999999999999</ele><time>2026-03-22T12:27:17.19Z</time></trkpt><trkpt lat="39.957368" lon="-2.2573066"><ele>946.0</ele><time>2026-03-22T12:27:18.156Z</time></trkpt><trkpt lat="39.9574381" lon="-2.2572681"><ele>946.0</ele><time>2026-03-22T12:27:19.149Z</time></trkpt><trkpt lat="39.9574996" lon="-2.2572219"><ele>946.0</ele><time>2026-03-22T12:27:20.158Z</time></trkpt><trkpt lat="39.9575561" lon="-2.2571433"><ele>945.9999999999999</ele><time>2026-03-22T12:27:21.161Z</time></trkpt><trkpt lat="39.9576143" lon="-2.2570325"><ele>946.0</ele><time>2026-03-22T12:27:22.144Z</time></trkpt><trkpt lat="39.9576861" lon="-2.2569174"><ele>948.1999999999999</ele><time>2026-03-22T12:27:23.144Z</time></trkpt><trkpt lat="39.957764" lon="-2.2568142"><ele>950.3999999999999</ele><time>2026-03-22T12:27:24.169Z</time></trkpt><trkpt lat="39.9578454" lon="-2.2567331"><ele>952.6</ele><time>2026-03-22T12:27:25.145Z</time></trkpt><trkpt lat="39.957921" lon="-2.2566549"><ele>954.8</ele><time>2026-03-22T12:27:26.139Z</time></trkpt><trkpt lat="39.9579897" lon="-2.2565759"><ele>957.0</ele><time>2026-03-22T12:27:27.189Z</time></trkpt><trkpt lat="39.9580628" lon="-2.2565038"><ele>957.2</ele><time>2026-03-22T12:27:28.137Z</time></trkpt><trkpt lat="39.9581353" lon="-2.2564227"><ele>957.4000000000001</ele><time>2026-03-22T12:27:29.181Z</time></trkpt><trkpt lat="39.958216" lon="-2.2563575"><ele>957.5999999999999</ele><time>2026-03-22T12:27:30.158Z</time></trkpt><trkpt lat="39.9583127" lon="-2.2563095"><ele>957.8</ele><time>2026-03-22T12:27:31.149Z</time></trkpt><trkpt lat="39.9584124" lon="-2.2562611"><ele>958.0</ele><time>2026-03-22T12:27:32.149Z</time></trkpt><trkpt lat="39.9585151" lon="-2.256207"><ele>959.2</ele><time>2026-03-22T12:27:33.149Z</time></trkpt><trkpt lat="39.9586164" lon="-2.2561451"><ele>960.4</ele><time>2026-03-22T12:27:34.173Z</time></trkpt><trkpt lat="39.9587149" lon="-2.2560893"><ele>961.6000000000001</ele><time>2026-03-22T12:27:35.182Z</time></trkpt><trkpt lat="39.9588065" lon="-2.2560393"><ele>962.8000000000001</ele><time>2026-03-22T12:27:36.153Z</time></trkpt><trkpt lat="39.9588983" lon="-2.2559969"><ele>964.0</ele><time>2026-03-22T12:27:37.155Z</time></trkpt><trkpt lat="39.9589864" lon="-2.2559436"><ele>964.0</ele><time>2026-03-22T12:27:38.16Z</time></trkpt><trkpt lat="39.9590753" lon="-2.2558775"><ele>964.0000000000001</ele><time>2026-03-22T12:27:39.144Z</time></trkpt><trkpt lat="39.9591592" lon="-2.2558066"><ele>964.0000000000001</ele><time>2026-03-22T12:27:40.168Z</time></trkpt><trkpt lat="39.9592243" lon="-2.2557383"><ele>964.0</ele><time>2026-03-22T12:27:41.164Z</time></trkpt><trkpt lat="39.9592747" lon="-2.255681"><ele>964.0</ele><time>2026-03-22T12:27:42.14Z</time></trkpt><trkpt lat="39.9593587" lon="-2.2555679"><ele>964.4000000000001</ele><time>2026-03-22T12:27:44.153Z</time></trkpt><trkpt lat="39.9594118" lon="-2.2555047"><ele>964.8000000000001</ele><time>2026-03-22T12:27:45.158Z</time></trkpt><trkpt lat="39.9594723" lon="-2.2554172"><ele>965.1999999999999</ele><time>2026-03-22T12:27:46.167Z</time></trkpt><trkpt lat="39.9595396" lon="-2.2553216"><ele>965.5999999999999</ele><time>2026-03-22T12:27:47.167Z</time></trkpt><trkpt lat="39.9596089" lon="-2.2552176"><ele>966.0</ele><time>2026-03-22T12:27:48.161Z</time></trkpt><trkpt lat="39.9596765" lon="-2.2551179"><ele>966.0</ele><time>2026-03-22T12:27:49.159Z</time></trkpt><trkpt lat="39.9597449" lon="-2.255033"><ele>965.9999999999999</ele><time>2026-03-22T12:27:50.161Z</time></trkpt><trkpt lat="39.9598201" lon="-2.2549553"><ele>965.9999999999999</ele><time>2026-03-22T12:27:51.148Z</time></trkpt><trkpt lat="39.959895" lon="-2.2548964"><ele>966.0</ele><time>2026-03-22T12:27:52.156Z</time></trkpt><trkpt lat="39.9599649" lon="-2.2548325"><ele>966.0</ele><time>2026-03-22T12:27:53.14Z</time></trkpt><trkpt lat="39.9600384" lon="-2.2547541"><ele>966.8</ele><time>2026-03-22T12:27:54.139Z</time></trkpt><trkpt lat="39.9601158" lon="-2.2546678"><ele>967.5999999999999</ele><time>2026-03-22T12:27:55.168Z</time></trkpt><trkpt lat="39.9601909" lon="-2.2545732"><ele>968.4</ele><time>2026-03-22T12:27:56.148Z</time></trkpt><trkpt lat="39.9602469" lon="-2.2545197"><ele>969.2</ele><time>2026-03-22T12:27:57.163Z</time></trkpt><trkpt lat="39.9603171" lon="-2.254443"><ele>970.0</ele><time>2026-03-22T12:27:58.17Z</time></trkpt><trkpt lat="39.9603827" lon="-2.2543648"><ele>969.9999999999999</ele><time>2026-03-22T12:27:59.153Z</time></trkpt><trkpt lat="39.9604329" lon="-2.2542949"><ele>970.0</ele><time>2026-03-22T12:28:00.149Z</time></trkpt><trkpt lat="39.9604913" lon="-2.254211"><ele>970.0</ele><time>2026-03-22T12:28:01.151Z</time></trkpt><trkpt lat="39.9605482" lon="-2.2541248"><ele>970.0</ele><time>2026-03-22T12:28:02.152Z</time></trkpt><trkpt lat="39.9606027" lon="-2.2540423"><ele>969.9999999999999</ele><time>2026-03-22T12:28:03.154Z</time></trkpt><trkpt lat="39.9606563" lon="-2.2539643"><ele>970.0</ele><time>2026-03-22T12:28:04.16Z</time></trkpt><trkpt lat="39.9606948" lon="-2.2538742"><ele>970.3333333333333</ele><time>2026-03-22T12:28:05.16Z</time></trkpt><trkpt lat="39.9607241" lon="-2.253775"><ele>970.6666666666666</ele><time>2026-03-22T12:28:06.158Z</time></trkpt><trkpt lat="39.9607572" lon="-2.2536865"><ele>971.0</ele><time>2026-03-22T12:28:07.147Z</time></trkpt><trkpt lat="39.9607963" lon="-2.2536045"><ele>971.3333333333333</ele><time>2026-03-22T12:28:08.155Z</time></trkpt><trkpt lat="39.9608331" lon="-2.2535264"><ele>971.6666666666666</ele><time>2026-03-22T12:28:09.156Z</time></trkpt><trkpt lat="39.9608598" lon="-2.2534242"><ele>972.0</ele><time>2026-03-22T12:28:10.15Z</time></trkpt><trkpt lat="39.9608828" lon="-2.2533077"><ele>972.6</ele><time>2026-03-22T12:28:11.18Z</time></trkpt><trkpt lat="39.9609144" lon="-2.2531813"><ele>973.2</ele><time>2026-03-22T12:28:12.167Z</time></trkpt><trkpt lat="39.9609572" lon="-2.2530544"><ele>973.8</ele><time>2026-03-22T12:28:13.178Z</time></trkpt><trkpt lat="39.9610044" lon="-2.2529388"><ele>974.4</ele><time>2026-03-22T12:28:14.167Z</time></trkpt><trkpt lat="39.9610457" lon="-2.2528229"><ele>975.0</ele><time>2026-03-22T12:28:15.153Z</time></trkpt><trkpt lat="39.9610772" lon="-2.2527192"><ele>975.6</ele><time>2026-03-22T12:28:16.164Z</time></trkpt><trkpt lat="39.9611021" lon="-2.2526085"><ele>976.2</ele><time>2026-03-22T12:28:17.151Z</time></trkpt><trkpt lat="39.9611343" lon="-2.2525004"><ele>976.8</ele><time>2026-03-22T12:28:18.151Z</time></trkpt><trkpt lat="39.9611785" lon="-2.2523903"><ele>977.4</ele><time>2026-03-22T12:28:19.159Z</time></trkpt><trkpt lat="39.961231" lon="-2.2522788"><ele>978.0</ele><time>2026-03-22T12:28:20.176Z</time></trkpt><trkpt lat="39.9612766" lon="-2.2521728"><ele>978.0</ele><time>2026-03-22T12:28:21.177Z</time></trkpt><trkpt lat="39.9613092" lon="-2.2520724"><ele>978.0</ele><time>2026-03-22T12:28:22.162Z</time></trkpt><trkpt lat="39.9613412" lon="-2.2519789"><ele>978.0</ele><time>2026-03-22T12:28:23.178Z</time></trkpt><trkpt lat="39.961374" lon="-2.2518827"><ele>978.0</ele><time>2026-03-22T12:28:24.164Z</time></trkpt><trkpt lat="39.961422" lon="-2.2518109"><ele>978.0</ele><time>2026-03-22T12:28:25.162Z</time></trkpt><trkpt lat="39.9614618" lon="-2.2517377"><ele>978.0</ele><time>2026-03-22T12:28:26.156Z</time></trkpt><trkpt lat="39.961496" lon="-2.2516432"><ele>978.0</ele><time>2026-03-22T12:28:27.18Z</time></trkpt><trkpt lat="39.9615233" lon="-2.2515398"><ele>978.0</ele><time>2026-03-22T12:28:28.157Z</time></trkpt><trkpt lat="39.9615376" lon="-2.2514335"><ele>978.0</ele><time>2026-03-22T12:28:29.142Z</time></trkpt><trkpt lat="39.9615442" lon="-2.2513391"><ele>978.0</ele><time>2026-03-22T12:28:30.179Z</time></trkpt><trkpt lat="39.9615672" lon="-2.2512565"><ele>978.0</ele><time>2026-03-22T12:28:31.162Z</time></trkpt><trkpt lat="39.9616108" lon="-2.2511786"><ele>978.0</ele><time>2026-03-22T12:28:32.168Z</time></trkpt><trkpt lat="39.9616685" lon="-2.2511069"><ele>977.8333333333334</ele><time>2026-03-22T12:28:33.207Z</time></trkpt><trkpt lat="39.9617204" lon="-2.2510323"><ele>977.6666666666667</ele><time>2026-03-22T12:28:34.133Z</time></trkpt><trkpt lat="39.9617671" lon="-2.2509668"><ele>977.5</ele><time>2026-03-22T12:28:35.152Z</time></trkpt><trkpt lat="39.96182" lon="-2.2508102"><ele>977.3333333333334</ele><time>2026-03-22T12:28:37.154Z</time></trkpt><trkpt lat="39.9618293" lon="-2.2507054"><ele>977.1666666666667</ele><time>2026-03-22T12:28:38.176Z</time></trkpt><trkpt lat="39.9618382" lon="-2.250587"><ele>977.0</ele><time>2026-03-22T12:28:39.175Z</time></trkpt><trkpt lat="39.9618446" lon="-2.2504509"><ele>977.0000000000001</ele><time>2026-03-22T12:28:40.178Z</time></trkpt><trkpt lat="39.9618539" lon="-2.2503244"><ele>977.0</ele><time>2026-03-22T12:28:41.179Z</time></trkpt><trkpt lat="39.9618616" lon="-2.2502134"><ele>977.0</ele><time>2026-03-22T12:28:42.169Z</time></trkpt><trkpt lat="39.9618799" lon="-2.2501096"><ele>977.0</ele><time>2026-03-22T12:28:43.178Z</time></trkpt><trkpt lat="39.9619043" lon="-2.2500103"><ele>977.0000000000001</ele><time>2026-03-22T12:28:44.153Z</time></trkpt><trkpt lat="39.9619398" lon="-2.2499179"><ele>977.0</ele><time>2026-03-22T12:28:45.141Z</time></trkpt><trkpt lat="39.9619644" lon="-2.2498383"><ele>977.0</ele><time>2026-03-22T12:28:46.147Z</time></trkpt><trkpt lat="39.96202" lon="-2.249725"><ele>977.0</ele><time>2026-03-22T12:28:48.147Z</time></trkpt><trkpt lat="39.9621255" lon="-2.2496723"><ele>977.0</ele><time>2026-03-22T12:28:50.154Z</time></trkpt><trkpt lat="39.9621925" lon="-2.2496174"><ele>977.0</ele><time>2026-03-22T12:28:51.169Z</time></trkpt><trkpt lat="39.9622703" lon="-2.249547"><ele>977.0</ele><time>2026-03-22T12:28:52.149Z</time></trkpt><trkpt lat="39.9623437" lon="-2.2494731"><ele>977.0</ele><time>2026-03-22T12:28:53.18Z</time></trkpt><trkpt lat="39.9624151" lon="-2.2493733"><ele>977.0</ele><time>2026-03-22T12:28:54.145Z</time></trkpt><trkpt lat="39.9624854" lon="-2.2492522"><ele>977.0</ele><time>2026-03-22T12:28:55.159Z</time></trkpt><trkpt lat="39.9625523" lon="-2.2491099"><ele>977.0</ele><time>2026-03-22T12:28:56.16Z</time></trkpt><trkpt lat="39.9626036" lon="-2.2489595"><ele>977.0</ele><time>2026-03-22T12:28:57.161Z</time></trkpt><trkpt lat="39.9626616" lon="-2.2488315"><ele>977.0</ele><time>2026-03-22T12:28:58.166Z</time></trkpt><trkpt lat="39.9627221" lon="-2.2487166"><ele>977.0</ele><time>2026-03-22T12:28:59.152Z</time></trkpt><trkpt lat="39.9627799" lon="-2.2486"><ele>977.0</ele><time>2026-03-22T12:29:00.186Z</time></trkpt><trkpt lat="39.9628378" lon="-2.2484761"><ele>977.0</ele><time>2026-03-22T12:29:01.138Z</time></trkpt><trkpt lat="39.962895" lon="-2.2483462"><ele>977.0</ele><time>2026-03-22T12:29:02.155Z</time></trkpt><trkpt lat="39.9629582" lon="-2.2482154"><ele>977.0</ele><time>2026-03-22T12:29:03.14Z</time></trkpt><trkpt lat="39.963017" lon="-2.2480916"><ele>977.0</ele><time>2026-03-22T12:29:04.159Z</time></trkpt><trkpt lat="39.9630776" lon="-2.2479937"><ele>977.0</ele><time>2026-03-22T12:29:05.158Z</time></trkpt><trkpt lat="39.9631308" lon="-2.2479076"><ele>977.0</ele><time>2026-03-22T12:29:06.161Z</time></trkpt><trkpt lat="39.9632031" lon="-2.2478316"><ele>976.8</ele><time>2026-03-22T12:29:07.154Z</time></trkpt><trkpt lat="39.9632933" lon="-2.2477591"><ele>976.6</ele><time>2026-03-22T12:29:08.175Z</time></trkpt><trkpt lat="39.9633811" lon="-2.2476895"><ele>976.3999999999999</ele><time>2026-03-22T12:29:09.159Z</time></trkpt><trkpt lat="39.9634626" lon="-2.2476333"><ele>976.1999999999999</ele><time>2026-03-22T12:29:10.169Z</time></trkpt><trkpt lat="39.9635248" lon="-2.2475921"><ele>976.0</ele><time>2026-03-22T12:29:11.148Z</time></trkpt><trkpt lat="39.963619" lon="-2.2475317"><ele>976.0</ele><time>2026-03-22T12:29:13.16Z</time></trkpt><trkpt lat="39.9636946" lon="-2.2474188"><ele>975.9999999999999</ele><time>2026-03-22T12:29:15.167Z</time></trkpt><trkpt lat="39.9637308" lon="-2.2473451"><ele>975.9999999999999</ele><time>2026-03-22T12:29:16.144Z</time></trkpt><trkpt lat="39.9637625" lon="-2.2472286"><ele>976.0</ele><time>2026-03-22T12:29:18.163Z</time></trkpt><trkpt lat="39.9637876" lon="-2.2471136"><ele>976.0</ele><time>2026-03-22T12:29:20.161Z</time></trkpt><trkpt lat="39.9638591" lon="-2.2469781"><ele>976.4285714285713</ele><time>2026-03-22T12:29:22.216Z</time></trkpt><trkpt lat="39.9639101" lon="-2.2469264"><ele>976.8571428571429</ele><time>2026-03-22T12:29:23.149Z</time></trkpt><trkpt lat="39.9639749" lon="-2.2468726"><ele>977.2857142857142</ele><time>2026-03-22T12:29:24.175Z</time></trkpt><trkpt lat="39.9640493" lon="-2.2468264"><ele>977.7142857142857</ele><time>2026-03-22T12:29:25.15Z</time></trkpt><trkpt lat="39.9641158" lon="-2.2467834"><ele>978.1428571428571</ele><time>2026-03-22T12:29:26.154Z</time></trkpt><trkpt lat="39.964167" lon="-2.246727"><ele>978.5714285714286</ele><time>2026-03-22T12:29:27.167Z</time></trkpt><trkpt lat="39.9641971" lon="-2.2466482"><ele>979.0</ele><time>2026-03-22T12:29:28.145Z</time></trkpt><trkpt lat="39.9642106" lon="-2.2465494"><ele>978.6666666666666</ele><time>2026-03-22T12:29:29.149Z</time></trkpt><trkpt lat="39.9642087" lon="-2.2464524"><ele>978.3333333333333</ele><time>2026-03-22T12:29:30.153Z</time></trkpt><trkpt lat="39.964194" lon="-2.2463543"><ele>978.0</ele><time>2026-03-22T12:29:31.176Z</time></trkpt><trkpt lat="39.9641646" lon="-2.2462604"><ele>977.6666666666667</ele><time>2026-03-22T12:29:32.167Z</time></trkpt><trkpt lat="39.9641254" lon="-2.2461776"><ele>977.3333333333334</ele><time>2026-03-22T12:29:33.155Z</time></trkpt><trkpt lat="39.9640898" lon="-2.2460917"><ele>977.0</ele><time>2026-03-22T12:29:34.153Z</time></trkpt><trkpt lat="39.9640595" lon="-2.2460031"><ele>977.0000000000001</ele><time>2026-03-22T12:29:35.168Z</time></trkpt><trkpt lat="39.9640514" lon="-2.2459203"><ele>977.0</ele><time>2026-03-22T12:29:36.139Z</time></trkpt><trkpt lat="39.9640653" lon="-2.2458307"><ele>977.0000000000001</ele><time>2026-03-22T12:29:37.155Z</time></trkpt><trkpt lat="39.9640953" lon="-2.2457433"><ele>977.0000000000001</ele><time>2026-03-22T12:29:38.17Z</time></trkpt><trkpt lat="39.9641248" lon="-2.2456699"><ele>977.0</ele><time>2026-03-22T12:29:39.234Z</time></trkpt><trkpt lat="39.9641613" lon="-2.2455694"><ele>977.0000000000001</ele><time>2026-03-22T12:29:41.175Z</time></trkpt><trkpt lat="39.9642223" lon="-2.2455293"><ele>977.0000000000001</ele><time>2026-03-22T12:32:55.176Z</time></trkpt><trkpt lat="39.9642652" lon="-2.2454392"><ele>974.8333333333334</ele><time>2026-03-22T12:32:57.192Z</time></trkpt><trkpt lat="39.9643051" lon="-2.2453667"><ele>972.6666666666667</ele><time>2026-03-22T12:32:59.157Z</time></trkpt><trkpt lat="39.9643726" lon="-2.2453047"><ele>970.5</ele><time>2026-03-22T12:33:02.171Z</time></trkpt><trkpt lat="39.9644574" lon="-2.2452459"><ele>968.3333333333333</ele><time>2026-03-22T12:33:05.141Z</time></trkpt><trkpt lat="39.9645414" lon="-2.2452028"><ele>966.1666666666666</ele><time>2026-03-22T12:33:07.133Z</time></trkpt><trkpt lat="39.964606" lon="-2.2452107"><ele>964.0</ele><time>2026-03-22T12:33:09.144Z</time></trkpt><trkpt lat="39.9646566" lon="-2.2452603"><ele>964.0</ele><time>2026-03-22T12:33:11.167Z</time></trkpt><trkpt lat="39.9647414" lon="-2.2452867"><ele>964.0000000000001</ele><time>2026-03-22T12:33:13.152Z</time></trkpt><trkpt lat="39.9648759" lon="-2.245325"><ele>964.0000000000001</ele><time>2026-03-22T12:33:15.141Z</time></trkpt><trkpt lat="39.964955" lon="-2.2453611"><ele>964.0</ele><time>2026-03-22T12:33:16.143Z</time></trkpt><trkpt lat="39.9650345" lon="-2.2453906"><ele>964.0</ele><time>2026-03-22T12:33:17.146Z</time></trkpt><trkpt lat="39.9651313" lon="-2.2454046"><ele>962.1666666666666</ele><time>2026-03-22T12:33:18.158Z</time></trkpt><trkpt lat="39.9652119" lon="-2.2454137"><ele>960.3333333333333</ele><time>2026-03-22T12:33:19.146Z</time></trkpt><trkpt lat="39.965295" lon="-2.2454201"><ele>958.5</ele><time>2026-03-22T12:33:20.141Z</time></trkpt><trkpt lat="39.9653692" lon="-2.2454358"><ele>956.6666666666667</ele><time>2026-03-22T12:33:21.137Z</time></trkpt><trkpt lat="39.965443" lon="-2.2454428"><ele>954.8333333333334</ele><time>2026-03-22T12:33:22.159Z</time></trkpt><trkpt lat="39.9655285" lon="-2.2454429"><ele>953.0</ele><time>2026-03-22T12:33:24.143Z</time></trkpt><trkpt lat="39.9655943" lon="-2.2454155"><ele>953.0000000000001</ele><time>2026-03-22T12:33:29.14Z</time></trkpt><trkpt lat="39.9656643" lon="-2.2454564"><ele>953.0</ele><time>2026-03-22T12:33:33.158Z</time></trkpt><trkpt lat="39.9655992" lon="-2.2454134"><ele>953.0</ele><time>2026-03-22T12:34:03.144Z</time></trkpt><trkpt lat="39.9655735" lon="-2.2453187"><ele>953.0</ele><time>2026-03-22T12:34:05.15Z</time></trkpt><trkpt lat="39.9655842" lon="-2.2452095"><ele>953.0000000000001</ele><time>2026-03-22T12:34:08.181Z</time></trkpt><trkpt lat="39.9656443" lon="-2.2450957"><ele>953.0</ele><time>2026-03-22T12:34:10.163Z</time></trkpt><trkpt lat="39.9657282" lon="-2.2449942"><ele>953.0000000000001</ele><time>2026-03-22T12:34:12.169Z</time></trkpt><trkpt lat="39.9657779" lon="-2.2449303"><ele>953.0</ele><time>2026-03-22T12:34:13.164Z</time></trkpt><trkpt lat="39.9658229" lon="-2.2448686"><ele>953.0</ele><time>2026-03-22T12:34:14.151Z</time></trkpt><trkpt lat="39.9658646" lon="-2.2448008"><ele>953.0</ele><time>2026-03-22T12:34:15.186Z</time></trkpt><trkpt lat="39.9659349" lon="-2.2446857"><ele>953.0000000000001</ele><time>2026-03-22T12:34:17.16Z</time></trkpt><trkpt lat="39.9659888" lon="-2.2445944"><ele>953.0</ele><time>2026-03-22T12:34:19.169Z</time></trkpt><trkpt lat="39.9660574" lon="-2.2445317"><ele>951.0000000000001</ele><time>2026-03-22T12:34:22.18Z</time></trkpt><trkpt lat="39.966144" lon="-2.2445155"><ele>949.0</ele><time>2026-03-22T12:34:25.169Z</time></trkpt><trkpt lat="39.9662448" lon="-2.2445283"><ele>947.0</ele><time>2026-03-22T12:34:27.196Z</time></trkpt><trkpt lat="39.9663411" lon="-2.2445416"><ele>945.0</ele><time>2026-03-22T12:34:29.146Z</time></trkpt><trkpt lat="39.9664174" lon="-2.2445299"><ele>943.0000000000001</ele><time>2026-03-22T12:34:31.184Z</time></trkpt><trkpt lat="39.96649" lon="-2.24455"><ele>941.0</ele><time>2026-03-22T12:34:33.156Z</time></trkpt><trkpt lat="39.9665752" lon="-2.2446972"><ele>942.0</ele><time>2026-03-22T12:34:35.162Z</time></trkpt><trkpt lat="39.9666531" lon="-2.2448049"><ele>943.0</ele><time>2026-03-22T12:34:36.145Z</time></trkpt><trkpt lat="39.9667405" lon="-2.2449347"><ele>944.0</ele><time>2026-03-22T12:34:37.169Z</time></trkpt><trkpt lat="39.9668405" lon="-2.2450688"><ele>945.0</ele><time>2026-03-22T12:34:38.137Z</time></trkpt><trkpt lat="39.9669473" lon="-2.2452022"><ele>942.3333333333333</ele><time>2026-03-22T12:34:39.144Z</time></trkpt><trkpt lat="39.9670709" lon="-2.2453437"><ele>939.6666666666666</ele><time>2026-03-22T12:34:40.146Z</time></trkpt><trkpt lat="39.967209" lon="-2.2454869"><ele>937.0</ele><time>2026-03-22T12:34:41.155Z</time></trkpt><trkpt lat="39.9673592" lon="-2.2456188"><ele>936.3333333333333</ele><time>2026-03-22T12:34:42.159Z</time></trkpt><trkpt lat="39.9675164" lon="-2.2457316"><ele>935.6666666666667</ele><time>2026-03-22T12:34:43.162Z</time></trkpt><trkpt lat="39.9676908" lon="-2.2458468"><ele>935.0</ele><time>2026-03-22T12:34:44.19Z</time></trkpt><trkpt lat="39.9678568" lon="-2.2459608"><ele>934.0</ele><time>2026-03-22T12:34:45.175Z</time></trkpt><trkpt lat="39.968029" lon="-2.2460816"><ele>933.0</ele><time>2026-03-22T12:34:46.168Z</time></trkpt><trkpt lat="39.9681983" lon="-2.2462134"><ele>932.0</ele><time>2026-03-22T12:34:47.169Z</time></trkpt><trkpt lat="39.9683638" lon="-2.2463405"><ele>929.3333333333334</ele><time>2026-03-22T12:34:48.187Z</time></trkpt><trkpt lat="39.9685397" lon="-2.2464721"><ele>926.6666666666667</ele><time>2026-03-22T12:34:49.204Z</time></trkpt><trkpt lat="39.9687207" lon="-2.2465942"><ele>924.0</ele><time>2026-03-22T12:34:50.175Z</time></trkpt><trkpt lat="39.9688932" lon="-2.2467111"><ele>924.0</ele><time>2026-03-22T12:34:51.152Z</time></trkpt><trkpt lat="39.9690615" lon="-2.2468235"><ele>924.0</ele><time>2026-03-22T12:34:52.181Z</time></trkpt><trkpt lat="39.9692496" lon="-2.2469379"><ele>924.0</ele><time>2026-03-22T12:34:53.161Z</time></trkpt><trkpt lat="39.9694279" lon="-2.2470483"><ele>921.6666666666667</ele><time>2026-03-22T12:34:54.152Z</time></trkpt><trkpt lat="39.9696074" lon="-2.2471438"><ele>919.3333333333334</ele><time>2026-03-22T12:34:55.155Z</time></trkpt><trkpt lat="39.9697835" lon="-2.2472431"><ele>917.0</ele><time>2026-03-22T12:34:56.155Z</time></trkpt><trkpt lat="39.9699479" lon="-2.2473488"><ele>915.6666666666667</ele><time>2026-03-22T12:34:57.182Z</time></trkpt><trkpt lat="39.9701211" lon="-2.2474349"><ele>914.3333333333333</ele><time>2026-03-22T12:34:58.173Z</time></trkpt><trkpt lat="39.970294" lon="-2.2475314"><ele>913.0</ele><time>2026-03-22T12:34:59.183Z</time></trkpt><trkpt lat="39.9704635" lon="-2.2476188"><ele>913.0</ele><time>2026-03-22T12:35:00.177Z</time></trkpt><trkpt lat="39.9706351" lon="-2.2477003"><ele>913.0</ele><time>2026-03-22T12:35:01.163Z</time></trkpt><trkpt lat="39.9708071" lon="-2.2477979"><ele>913.0</ele><time>2026-03-22T12:35:02.141Z</time></trkpt><trkpt lat="39.9709758" lon="-2.2479045"><ele>911.6666666666666</ele><time>2026-03-22T12:35:03.199Z</time></trkpt><trkpt lat="39.9711401" lon="-2.2480107"><ele>910.3333333333333</ele><time>2026-03-22T12:35:04.147Z</time></trkpt><trkpt lat="39.9712908" lon="-2.2481338"><ele>909.0</ele><time>2026-03-22T12:35:05.173Z</time></trkpt><trkpt lat="39.9714303" lon="-2.2482662"><ele>908.3333333333333</ele><time>2026-03-22T12:35:06.179Z</time></trkpt><trkpt lat="39.9715697" lon="-2.2484043"><ele>907.6666666666666</ele><time>2026-03-22T12:35:07.158Z</time></trkpt><trkpt lat="39.9717043" lon="-2.2485564"><ele>907.0</ele><time>2026-03-22T12:35:08.163Z</time></trkpt><trkpt lat="39.971837" lon="-2.2487123"><ele>905.6666666666666</ele><time>2026-03-22T12:35:09.155Z</time></trkpt><trkpt lat="39.9719623" lon="-2.2488731"><ele>904.3333333333333</ele><time>2026-03-22T12:35:10.154Z</time></trkpt><trkpt lat="39.9720847" lon="-2.2490419"><ele>903.0</ele><time>2026-03-22T12:35:11.147Z</time></trkpt><trkpt lat="39.9721831" lon="-2.2492238"><ele>902.6666666666667</ele><time>2026-03-22T12:35:12.148Z</time></trkpt><trkpt lat="39.9722717" lon="-2.249426"><ele>902.3333333333334</ele><time>2026-03-22T12:35:13.174Z</time></trkpt><trkpt lat="39.9723543" lon="-2.2496233"><ele>902.0</ele><time>2026-03-22T12:35:14.168Z</time></trkpt><trkpt lat="39.9724218" lon="-2.2498307"><ele>900.0</ele><time>2026-03-22T12:35:15.176Z</time></trkpt><trkpt lat="39.9724693" lon="-2.2500522"><ele>898.0</ele><time>2026-03-22T12:35:16.152Z</time></trkpt><trkpt lat="39.9725039" lon="-2.250271"><ele>896.0</ele><time>2026-03-22T12:35:17.132Z</time></trkpt><trkpt lat="39.9725393" lon="-2.2504856"><ele>895.6666666666667</ele><time>2026-03-22T12:35:18.149Z</time></trkpt><trkpt lat="39.9725843" lon="-2.2506948"><ele>895.3333333333333</ele><time>2026-03-22T12:35:19.165Z</time></trkpt><trkpt lat="39.9726228" lon="-2.2509028"><ele>895.0</ele><time>2026-03-22T12:35:20.159Z</time></trkpt><trkpt lat="39.9726696" lon="-2.251106"><ele>895.0</ele><time>2026-03-22T12:35:21.165Z</time></trkpt><trkpt lat="39.972726" lon="-2.2513117"><ele>895.0</ele><time>2026-03-22T12:35:22.144Z</time></trkpt><trkpt lat="39.9727934" lon="-2.2515329"><ele>895.0</ele><time>2026-03-22T12:35:23.159Z</time></trkpt><trkpt lat="39.9728616" lon="-2.2517512"><ele>894.6666666666666</ele><time>2026-03-22T12:35:24.168Z</time></trkpt><trkpt lat="39.9729286" lon="-2.2519714"><ele>894.3333333333333</ele><time>2026-03-22T12:35:25.169Z</time></trkpt><trkpt lat="39.9730105" lon="-2.2521842"><ele>894.0</ele><time>2026-03-22T12:35:26.195Z</time></trkpt><trkpt lat="39.9730999" lon="-2.2523894"><ele>891.0</ele><time>2026-03-22T12:35:27.168Z</time></trkpt><trkpt lat="39.9731882" lon="-2.2525945"><ele>888.0</ele><time>2026-03-22T12:35:28.144Z</time></trkpt><trkpt lat="39.9732687" lon="-2.2527762"><ele>885.0</ele><time>2026-03-22T12:35:29.156Z</time></trkpt><trkpt lat="39.9733468" lon="-2.2529738"><ele>886.0</ele><time>2026-03-22T12:35:30.143Z</time></trkpt><trkpt lat="39.973427" lon="-2.2531507"><ele>887.0</ele><time>2026-03-22T12:35:31.163Z</time></trkpt><trkpt lat="39.9735429" lon="-2.2532793"><ele>888.0</ele><time>2026-03-22T12:35:32.209Z</time></trkpt><trkpt lat="39.973666" lon="-2.2533998"><ele>888.0</ele><time>2026-03-22T12:35:33.153Z</time></trkpt><trkpt lat="39.9738114" lon="-2.2535048"><ele>888.0</ele><time>2026-03-22T12:35:34.17Z</time></trkpt><trkpt lat="39.9739722" lon="-2.2535433"><ele>888.0</ele><time>2026-03-22T12:35:35.163Z</time></trkpt><trkpt lat="39.974138" lon="-2.2535524"><ele>886.6666666666667</ele><time>2026-03-22T12:35:36.157Z</time></trkpt><trkpt lat="39.9742951" lon="-2.2535451"><ele>885.3333333333334</ele><time>2026-03-22T12:35:37.176Z</time></trkpt><trkpt lat="39.9744585" lon="-2.2535288"><ele>884.0</ele><time>2026-03-22T12:35:38.175Z</time></trkpt><trkpt lat="39.9746198" lon="-2.2534849"><ele>884.0</ele><time>2026-03-22T12:35:39.168Z</time></trkpt><trkpt lat="39.9747781" lon="-2.2534207"><ele>884.0</ele><time>2026-03-22T12:35:40.151Z</time></trkpt><trkpt lat="39.9749427" lon="-2.2533538"><ele>884.0</ele><time>2026-03-22T12:35:41.164Z</time></trkpt><trkpt lat="39.9751179" lon="-2.2532901"><ele>882.6666666666667</ele><time>2026-03-22T12:35:42.168Z</time></trkpt><trkpt lat="39.9752971" lon="-2.2532317"><ele>881.3333333333333</ele><time>2026-03-22T12:35:43.161Z</time></trkpt><trkpt lat="39.9754773" lon="-2.2531542"><ele>880.0</ele><time>2026-03-22T12:35:44.202Z</time></trkpt><trkpt lat="39.9756623" lon="-2.2530802"><ele>880.0</ele><time>2026-03-22T12:35:45.163Z</time></trkpt><trkpt lat="39.9758424" lon="-2.253003"><ele>880.0</ele><time>2026-03-22T12:35:46.16Z</time></trkpt><trkpt lat="39.9760186" lon="-2.252928"><ele>880.0</ele><time>2026-03-22T12:35:47.184Z</time></trkpt><trkpt lat="39.9761774" lon="-2.2528419"><ele>878.6666666666666</ele><time>2026-03-22T12:35:48.17Z</time></trkpt><trkpt lat="39.9762923" lon="-2.2527171"><ele>877.3333333333333</ele><time>2026-03-22T12:35:49.147Z</time></trkpt><trkpt lat="39.9763829" lon="-2.2525457"><ele>876.0</ele><time>2026-03-22T12:35:50.132Z</time></trkpt><trkpt lat="39.9764495" lon="-2.2523597"><ele>875.6666666666667</ele><time>2026-03-22T12:35:51.137Z</time></trkpt><trkpt lat="39.976485" lon="-2.2521514"><ele>875.3333333333334</ele><time>2026-03-22T12:35:52.151Z</time></trkpt><trkpt lat="39.976503" lon="-2.2519323"><ele>875.0</ele><time>2026-03-22T12:35:53.135Z</time></trkpt><trkpt lat="39.9764867" lon="-2.2517335"><ele>875.0</ele><time>2026-03-22T12:35:54.14Z</time></trkpt><trkpt lat="39.9764449" lon="-2.2515417"><ele>875.0</ele><time>2026-03-22T12:35:55.15Z</time></trkpt><trkpt lat="39.9763769" lon="-2.2513574"><ele>875.0</ele><time>2026-03-22T12:35:56.137Z</time></trkpt><trkpt lat="39.9762825" lon="-2.2511929"><ele>872.6666666666667</ele><time>2026-03-22T12:35:57.142Z</time></trkpt><trkpt lat="39.9761721" lon="-2.2510477"><ele>870.3333333333333</ele><time>2026-03-22T12:35:58.14Z</time></trkpt><trkpt lat="39.9760589" lon="-2.2508917"><ele>868.0</ele><time>2026-03-22T12:35:59.137Z</time></trkpt><trkpt lat="39.9759638" lon="-2.25071"><ele>868.6666666666666</ele><time>2026-03-22T12:36:00.156Z</time></trkpt><trkpt lat="39.9758787" lon="-2.2505229"><ele>869.3333333333333</ele><time>2026-03-22T12:36:01.134Z</time></trkpt><trkpt lat="39.9758175" lon="-2.2503287"><ele>870.0</ele><time>2026-03-22T12:36:02.132Z</time></trkpt><trkpt lat="39.9757716" lon="-2.2501343"><ele>870.0</ele><time>2026-03-22T12:36:03.136Z</time></trkpt><trkpt lat="39.9757165" lon="-2.2499345"><ele>870.0</ele><time>2026-03-22T12:36:04.152Z</time></trkpt><trkpt lat="39.9756564" lon="-2.2497103"><ele>870.0</ele><time>2026-03-22T12:36:05.144Z</time></trkpt><trkpt lat="39.975601" lon="-2.2494909"><ele>869.3333333333333</ele><time>2026-03-22T12:36:06.15Z</time></trkpt><trkpt lat="39.9755395" lon="-2.2492658"><ele>868.6666666666666</ele><time>2026-03-22T12:36:07.158Z</time></trkpt><trkpt lat="39.9754765" lon="-2.2490339"><ele>868.0</ele><time>2026-03-22T12:36:08.142Z</time></trkpt><trkpt lat="39.9754146" lon="-2.248797"><ele>867.6666666666666</ele><time>2026-03-22T12:36:09.152Z</time></trkpt><trkpt lat="39.9753521" lon="-2.2485658"><ele>867.3333333333333</ele><time>2026-03-22T12:36:10.138Z</time></trkpt><trkpt lat="39.9752898" lon="-2.2483359"><ele>867.0</ele><time>2026-03-22T12:36:11.134Z</time></trkpt><trkpt lat="39.9752235" lon="-2.2481101"><ele>867.0</ele><time>2026-03-22T12:36:12.157Z</time></trkpt><trkpt lat="39.9751586" lon="-2.247888"><ele>867.0</ele><time>2026-03-22T12:36:13.138Z</time></trkpt><trkpt lat="39.9750895" lon="-2.2476643"><ele>867.0</ele><time>2026-03-22T12:36:14.147Z</time></trkpt><trkpt lat="39.9750279" lon="-2.2474439"><ele>869.6666666666667</ele><time>2026-03-22T12:36:15.168Z</time></trkpt><trkpt lat="39.9749669" lon="-2.2472227"><ele>872.3333333333334</ele><time>2026-03-22T12:36:16.131Z</time></trkpt><trkpt lat="39.9749073" lon="-2.2470012"><ele>875.0</ele><time>2026-03-22T12:36:17.151Z</time></trkpt><trkpt lat="39.9748782" lon="-2.2467789"><ele>875.0</ele><time>2026-03-22T12:36:18.164Z</time></trkpt><trkpt lat="39.9748738" lon="-2.2465471"><ele>875.0</ele><time>2026-03-22T12:36:19.143Z</time></trkpt><trkpt lat="39.9748796" lon="-2.2463"><ele>875.0</ele><time>2026-03-22T12:36:20.14Z</time></trkpt><trkpt lat="39.9748973" lon="-2.2460203"><ele>875.0</ele><time>2026-03-22T12:36:21.149Z</time></trkpt><trkpt lat="39.9749446" lon="-2.2457564"><ele>875.0</ele><time>2026-03-22T12:36:22.148Z</time></trkpt><trkpt lat="39.9749993" lon="-2.2455195"><ele>875.0</ele><time>2026-03-22T12:36:23.14Z</time></trkpt><trkpt lat="39.9750535" lon="-2.2452788"><ele>872.6666666666667</ele><time>2026-03-22T12:36:24.148Z</time></trkpt><trkpt lat="39.975112" lon="-2.2450343"><ele>870.3333333333333</ele><time>2026-03-22T12:36:25.153Z</time></trkpt><trkpt lat="39.975176" lon="-2.2448031"><ele>868.0</ele><time>2026-03-22T12:36:26.15Z</time></trkpt><trkpt lat="39.9752639" lon="-2.2445819"><ele>868.0</ele><time>2026-03-22T12:36:27.154Z</time></trkpt><trkpt lat="39.9753714" lon="-2.2443684"><ele>868.0</ele><time>2026-03-22T12:36:28.151Z</time></trkpt><trkpt lat="39.9754897" lon="-2.2441599"><ele>868.0</ele><time>2026-03-22T12:36:29.156Z</time></trkpt><trkpt lat="39.9756525" lon="-2.2439588"><ele>867.6666666666666</ele><time>2026-03-22T12:36:30.14Z</time></trkpt><trkpt lat="39.9758001" lon="-2.2437951"><ele>867.3333333333333</ele><time>2026-03-22T12:36:31.139Z</time></trkpt><trkpt lat="39.9759636" lon="-2.2436409"><ele>867.0</ele><time>2026-03-22T12:36:32.143Z</time></trkpt><trkpt lat="39.9761267" lon="-2.243505"><ele>867.0</ele><time>2026-03-22T12:36:33.166Z</time></trkpt><trkpt lat="39.9762803" lon="-2.2433324"><ele>867.0</ele><time>2026-03-22T12:36:34.133Z</time></trkpt><trkpt lat="39.9764339" lon="-2.2431303"><ele>867.0</ele><time>2026-03-22T12:36:35.151Z</time></trkpt><trkpt lat="39.9765896" lon="-2.2429614"><ele>868.0</ele><time>2026-03-22T12:36:36.15Z</time></trkpt><trkpt lat="39.9767463" lon="-2.2427953"><ele>869.0</ele><time>2026-03-22T12:36:37.149Z</time></trkpt><trkpt lat="39.9768927" lon="-2.2426296"><ele>870.0</ele><time>2026-03-22T12:36:38.128Z</time></trkpt><trkpt lat="39.977036" lon="-2.2424666"><ele>870.0</ele><time>2026-03-22T12:36:39.148Z</time></trkpt><trkpt lat="39.9771551" lon="-2.2423176"><ele>870.0</ele><time>2026-03-22T12:36:40.139Z</time></trkpt><trkpt lat="39.977271" lon="-2.2421774"><ele>870.0</ele><time>2026-03-22T12:36:41.146Z</time></trkpt><trkpt lat="39.977406" lon="-2.2420215"><ele>870.6666666666667</ele><time>2026-03-22T12:36:42.16Z</time></trkpt><trkpt lat="39.9775716" lon="-2.2419099"><ele>871.3333333333334</ele><time>2026-03-22T12:36:43.163Z</time></trkpt><trkpt lat="39.9777379" lon="-2.2417964"><ele>872.0</ele><time>2026-03-22T12:36:44.141Z</time></trkpt><trkpt lat="39.9778974" lon="-2.2416873"><ele>872.0</ele><time>2026-03-22T12:36:45.146Z</time></trkpt><trkpt lat="39.9780668" lon="-2.2415638"><ele>872.0</ele><time>2026-03-22T12:36:46.156Z</time></trkpt><trkpt lat="39.9782393" lon="-2.2414383"><ele>872.0</ele><time>2026-03-22T12:36:47.133Z</time></trkpt><trkpt lat="39.9784111" lon="-2.2413156"><ele>873.3333333333334</ele><time>2026-03-22T12:36:48.148Z</time></trkpt><trkpt lat="39.9785839" lon="-2.2411856"><ele>874.6666666666667</ele><time>2026-03-22T12:36:49.14Z</time></trkpt><trkpt lat="39.9787659" lon="-2.2410599"><ele>876.0</ele><time>2026-03-22T12:36:50.143Z</time></trkpt><trkpt lat="39.978929" lon="-2.2409278"><ele>876.0</ele><time>2026-03-22T12:36:51.15Z</time></trkpt><trkpt lat="39.9790953" lon="-2.240803"><ele>876.0</ele><time>2026-03-22T12:36:52.165Z</time></trkpt><trkpt lat="39.9792651" lon="-2.2406741"><ele>876.0</ele><time>2026-03-22T12:36:53.16Z</time></trkpt><trkpt lat="39.9794283" lon="-2.2405526"><ele>877.6666666666667</ele><time>2026-03-22T12:36:54.147Z</time></trkpt><trkpt lat="39.9795917" lon="-2.240441"><ele>879.3333333333334</ele><time>2026-03-22T12:36:55.132Z</time></trkpt><trkpt lat="39.9797936" lon="-2.2403469"><ele>881.0</ele><time>2026-03-22T12:36:56.146Z</time></trkpt><trkpt lat="39.9799685" lon="-2.2402606"><ele>878.0</ele><time>2026-03-22T12:36:57.132Z</time></trkpt><trkpt lat="39.9801385" lon="-2.2401776"><ele>875.0</ele><time>2026-03-22T12:36:58.151Z</time></trkpt><trkpt lat="39.9803401" lon="-2.240118"><ele>872.0</ele><time>2026-03-22T12:36:59.141Z</time></trkpt><trkpt lat="39.9805462" lon="-2.2400993"><ele>872.0</ele><time>2026-03-22T12:37:00.16Z</time></trkpt><trkpt lat="39.9807518" lon="-2.2401138"><ele>872.0</ele><time>2026-03-22T12:37:01.135Z</time></trkpt><trkpt lat="39.9809552" lon="-2.2401326"><ele>872.0</ele><time>2026-03-22T12:37:02.155Z</time></trkpt><trkpt lat="39.9811565" lon="-2.2401456"><ele>873.3333333333334</ele><time>2026-03-22T12:37:03.138Z</time></trkpt><trkpt lat="39.9813476" lon="-2.2401573"><ele>874.6666666666667</ele><time>2026-03-22T12:37:04.134Z</time></trkpt><trkpt lat="39.9815501" lon="-2.2401627"><ele>876.0</ele><time>2026-03-22T12:37:05.145Z</time></trkpt><trkpt lat="39.981757" lon="-2.2401803"><ele>879.3333333333333</ele><time>2026-03-22T12:37:06.154Z</time></trkpt><trkpt lat="39.9819587" lon="-2.2401976"><ele>882.6666666666666</ele><time>2026-03-22T12:37:07.158Z</time></trkpt><trkpt lat="39.9821516" lon="-2.2402198"><ele>886.0</ele><time>2026-03-22T12:37:08.135Z</time></trkpt><trkpt lat="39.9823324" lon="-2.2402477"><ele>886.0</ele><time>2026-03-22T12:37:09.156Z</time></trkpt><trkpt lat="39.9825024" lon="-2.240279"><ele>886.0</ele><time>2026-03-22T12:37:10.144Z</time></trkpt><trkpt lat="39.982672" lon="-2.2403176"><ele>886.0</ele><time>2026-03-22T12:37:11.143Z</time></trkpt><trkpt lat="39.9828336" lon="-2.2403734"><ele>887.6666666666666</ele><time>2026-03-22T12:37:12.145Z</time></trkpt><trkpt lat="39.9830009" lon="-2.240448"><ele>889.3333333333333</ele><time>2026-03-22T12:37:13.15Z</time></trkpt><trkpt lat="39.9831735" lon="-2.2405525"><ele>891.0</ele><time>2026-03-22T12:37:14.14Z</time></trkpt><trkpt lat="39.9833369" lon="-2.2406607"><ele>885.3333333333333</ele><time>2026-03-22T12:37:15.146Z</time></trkpt><trkpt lat="39.9834853" lon="-2.2407989"><ele>879.6666666666666</ele><time>2026-03-22T12:37:16.133Z</time></trkpt><trkpt lat="39.9836429" lon="-2.2409427"><ele>874.0</ele><time>2026-03-22T12:37:17.144Z</time></trkpt><trkpt lat="39.9838006" lon="-2.2411046"><ele>874.0</ele><time>2026-03-22T12:37:18.13Z</time></trkpt><trkpt lat="39.9839481" lon="-2.2412898"><ele>874.0</ele><time>2026-03-22T12:37:19.154Z</time></trkpt><trkpt lat="39.9841034" lon="-2.2414917"><ele>874.0</ele><time>2026-03-22T12:37:20.181Z</time></trkpt><trkpt lat="39.9842584" lon="-2.2416936"><ele>875.0</ele><time>2026-03-22T12:37:21.168Z</time></trkpt><trkpt lat="39.984415" lon="-2.2418961"><ele>876.0</ele><time>2026-03-22T12:37:22.158Z</time></trkpt><trkpt lat="39.9845689" lon="-2.2421031"><ele>877.0</ele><time>2026-03-22T12:37:23.145Z</time></trkpt><trkpt lat="39.9847176" lon="-2.2423123"><ele>877.0</ele><time>2026-03-22T12:37:24.128Z</time></trkpt><trkpt lat="39.984866" lon="-2.242512"><ele>877.0</ele><time>2026-03-22T12:37:25.134Z</time></trkpt><trkpt lat="39.9850192" lon="-2.2427137"><ele>877.0</ele><time>2026-03-22T12:37:26.156Z</time></trkpt><trkpt lat="39.9851663" lon="-2.2429083"><ele>882.3333333333333</ele><time>2026-03-22T12:37:27.151Z</time></trkpt><trkpt lat="39.9853124" lon="-2.243102"><ele>887.6666666666667</ele><time>2026-03-22T12:37:28.142Z</time></trkpt><trkpt lat="39.9854597" lon="-2.2432906"><ele>893.0</ele><time>2026-03-22T12:37:29.16Z</time></trkpt><trkpt lat="39.9856012" lon="-2.2434763"><ele>893.0</ele><time>2026-03-22T12:37:30.173Z</time></trkpt><trkpt lat="39.9857416" lon="-2.2436599"><ele>893.0</ele><time>2026-03-22T12:37:31.139Z</time></trkpt><trkpt lat="39.9858832" lon="-2.2438597"><ele>893.0</ele><time>2026-03-22T12:37:32.16Z</time></trkpt><trkpt lat="39.9860208" lon="-2.2440595"><ele>891.3333333333334</ele><time>2026-03-22T12:37:33.153Z</time></trkpt><trkpt lat="39.9861524" lon="-2.2442613"><ele>889.6666666666667</ele><time>2026-03-22T12:37:34.161Z</time></trkpt><trkpt lat="39.9862685" lon="-2.2444769"><ele>888.0</ele><time>2026-03-22T12:37:35.166Z</time></trkpt><trkpt lat="39.9863736" lon="-2.2446919"><ele>884.3333333333333</ele><time>2026-03-22T12:37:36.142Z</time></trkpt><trkpt lat="39.986465" lon="-2.2449158"><ele>880.6666666666666</ele><time>2026-03-22T12:37:37.162Z</time></trkpt><trkpt lat="39.986549" lon="-2.2451509"><ele>877.0</ele><time>2026-03-22T12:37:38.16Z</time></trkpt><trkpt lat="39.9866353" lon="-2.2453814"><ele>880.6666666666666</ele><time>2026-03-22T12:37:39.138Z</time></trkpt><trkpt lat="39.9867176" lon="-2.245614"><ele>884.3333333333333</ele><time>2026-03-22T12:37:40.148Z</time></trkpt><trkpt lat="39.9867961" lon="-2.2458386"><ele>888.0</ele><time>2026-03-22T12:37:41.148Z</time></trkpt><trkpt lat="39.9868758" lon="-2.2460702"><ele>891.0</ele><time>2026-03-22T12:37:42.141Z</time></trkpt><trkpt lat="39.9869534" lon="-2.2462958"><ele>894.0</ele><time>2026-03-22T12:37:43.16Z</time></trkpt><trkpt lat="39.9870266" lon="-2.2465029"><ele>897.0</ele><time>2026-03-22T12:37:44.155Z</time></trkpt><trkpt lat="39.9870957" lon="-2.2466936"><ele>897.0</ele><time>2026-03-22T12:37:45.176Z</time></trkpt><trkpt lat="39.9871637" lon="-2.2468857"><ele>897.0</ele><time>2026-03-22T12:37:46.18Z</time></trkpt><trkpt lat="39.9872327" lon="-2.2470403"><ele>897.0</ele><time>2026-03-22T12:37:47.162Z</time></trkpt><trkpt lat="39.9873031" lon="-2.2471672"><ele>897.0</ele><time>2026-03-22T12:37:48.193Z</time></trkpt><trkpt lat="39.9873807" lon="-2.2472714"><ele>896.3333333333334</ele><time>2026-03-22T12:37:49.18Z</time></trkpt><trkpt lat="39.9874429" lon="-2.2473469"><ele>895.6666666666667</ele><time>2026-03-22T12:37:50.171Z</time></trkpt><trkpt lat="39.987493" lon="-2.2474116"><ele>895.0</ele><time>2026-03-22T12:37:51.159Z</time></trkpt><trkpt lat="39.9875379" lon="-2.2475057"><ele>894.3333333333334</ele><time>2026-03-22T12:37:53.161Z</time></trkpt><trkpt lat="39.9875045" lon="-2.2476026"><ele>893.6666666666667</ele><time>2026-03-22T12:37:56.147Z</time></trkpt><trkpt lat="39.9873985" lon="-2.2476258"><ele>893.0</ele><time>2026-03-22T12:37:58.147Z</time></trkpt><trkpt lat="39.9873323" lon="-2.2476055"><ele>892.5000000000001</ele><time>2026-03-22T12:37:59.148Z</time></trkpt><trkpt lat="39.9872581" lon="-2.2476032"><ele>892.0</ele><time>2026-03-22T12:38:00.134Z</time></trkpt><trkpt lat="39.9871851" lon="-2.2475986"><ele>891.5</ele><time>2026-03-22T12:38:01.15Z</time></trkpt><trkpt lat="39.9871063" lon="-2.2475967"><ele>891.0</ele><time>2026-03-22T12:38:02.143Z</time></trkpt><trkpt lat="39.9870084" lon="-2.2475934"><ele>890.5000000000001</ele><time>2026-03-22T12:38:03.144Z</time></trkpt><trkpt lat="39.9868982" lon="-2.2475948"><ele>890.0</ele><time>2026-03-22T12:38:04.136Z</time></trkpt><trkpt lat="39.9867792" lon="-2.2475966"><ele>888.5</ele><time>2026-03-22T12:38:05.149Z</time></trkpt><trkpt lat="39.986647" lon="-2.2476018"><ele>887.0</ele><time>2026-03-22T12:38:06.142Z</time></trkpt><trkpt lat="39.9864894" lon="-2.2476081"><ele>885.5</ele><time>2026-03-22T12:38:07.154Z</time></trkpt><trkpt lat="39.9863504" lon="-2.247607"><ele>884.0</ele><time>2026-03-22T12:38:08.164Z</time></trkpt><trkpt lat="39.9861702" lon="-2.2476204"><ele>884.0</ele><time>2026-03-22T12:38:09.144Z</time></trkpt><trkpt lat="39.9860582" lon="-2.2476345"><ele>884.0</ele><time>2026-03-22T12:38:10.148Z</time></trkpt><trkpt lat="39.9859493" lon="-2.2476586"><ele>884.0</ele><time>2026-03-22T12:38:11.134Z</time></trkpt><trkpt lat="39.9858344" lon="-2.2477009"><ele>884.0</ele><time>2026-03-22T12:38:12.14Z</time></trkpt><trkpt lat="39.9857064" lon="-2.2477632"><ele>883.5</ele><time>2026-03-22T12:38:13.158Z</time></trkpt><trkpt lat="39.9855825" lon="-2.2478477"><ele>883.0</ele><time>2026-03-22T12:38:14.14Z</time></trkpt><trkpt lat="39.9854596" lon="-2.2479505"><ele>882.5</ele><time>2026-03-22T12:38:15.142Z</time></trkpt><trkpt lat="39.9853358" lon="-2.2480601"><ele>882.0</ele><time>2026-03-22T12:38:16.139Z</time></trkpt><trkpt lat="39.9852078" lon="-2.2481686"><ele>882.0</ele><time>2026-03-22T12:38:17.151Z</time></trkpt><trkpt lat="39.985085" lon="-2.2482833"><ele>882.0</ele><time>2026-03-22T12:38:18.148Z</time></trkpt><trkpt lat="39.9849639" lon="-2.248396"><ele>882.0</ele><time>2026-03-22T12:38:19.141Z</time></trkpt><trkpt lat="39.9848477" lon="-2.2485014"><ele>882.0</ele><time>2026-03-22T12:38:20.134Z</time></trkpt><trkpt lat="39.9847451" lon="-2.2485955"><ele>882.0</ele><time>2026-03-22T12:38:21.138Z</time></trkpt><trkpt lat="39.9846481" lon="-2.2486718"><ele>882.0</ele><time>2026-03-22T12:38:22.159Z</time></trkpt><trkpt lat="39.9845562" lon="-2.2487423"><ele>882.0</ele><time>2026-03-22T12:38:23.16Z</time></trkpt><trkpt lat="39.984468" lon="-2.2488134"><ele>882.0</ele><time>2026-03-22T12:38:24.141Z</time></trkpt><trkpt lat="39.984375" lon="-2.2488954"><ele>882.0</ele><time>2026-03-22T12:38:25.164Z</time></trkpt><trkpt lat="39.9842973" lon="-2.2490001"><ele>882.0</ele><time>2026-03-22T12:38:26.157Z</time></trkpt><trkpt lat="39.9842327" lon="-2.2491301"><ele>882.0</ele><time>2026-03-22T12:38:27.127Z</time></trkpt><trkpt lat="39.9841667" lon="-2.2492633"><ele>882.0</ele><time>2026-03-22T12:38:28.137Z</time></trkpt><trkpt lat="39.9841066" lon="-2.2493986"><ele>882.0</ele><time>2026-03-22T12:38:29.148Z</time></trkpt><trkpt lat="39.9840585" lon="-2.2495339"><ele>879.75</ele><time>2026-03-22T12:38:30.17Z</time></trkpt><trkpt lat="39.984024" lon="-2.249679"><ele>877.5</ele><time>2026-03-22T12:38:31.165Z</time></trkpt><trkpt lat="39.9840028" lon="-2.2498212"><ele>875.25</ele><time>2026-03-22T12:38:32.187Z</time></trkpt><trkpt lat="39.9839831" lon="-2.2499652"><ele>873.0</ele><time>2026-03-22T12:38:33.157Z</time></trkpt><trkpt lat="39.9839684" lon="-2.2501158"><ele>873.0</ele><time>2026-03-22T12:38:34.215Z</time></trkpt><trkpt lat="39.9839551" lon="-2.2502761"><ele>873.0</ele><time>2026-03-22T12:38:35.182Z</time></trkpt><trkpt lat="39.9839411" lon="-2.2504434"><ele>873.0</ele><time>2026-03-22T12:38:36.183Z</time></trkpt><trkpt lat="39.9839296" lon="-2.2506111"><ele>873.0</ele><time>2026-03-22T12:38:37.16Z</time></trkpt><trkpt lat="39.9839246" lon="-2.2507656"><ele>873.25</ele><time>2026-03-22T12:38:38.167Z</time></trkpt><trkpt lat="39.9839201" lon="-2.2509294"><ele>873.5</ele><time>2026-03-22T12:38:39.145Z</time></trkpt><trkpt lat="39.983916" lon="-2.2510814"><ele>873.75</ele><time>2026-03-22T12:38:40.172Z</time></trkpt><trkpt lat="39.9839101" lon="-2.2512284"><ele>874.0</ele><time>2026-03-22T12:38:41.156Z</time></trkpt><trkpt lat="39.9839064" lon="-2.2513564"><ele>873.2</ele><time>2026-03-22T12:38:42.161Z</time></trkpt><trkpt lat="39.983876" lon="-2.2514657"><ele>872.4000000000001</ele><time>2026-03-22T12:38:43.15Z</time></trkpt><trkpt lat="39.9838144" lon="-2.2515716"><ele>871.6</ele><time>2026-03-22T12:38:44.169Z</time></trkpt><trkpt lat="39.9837394" lon="-2.2516683"><ele>870.8</ele><time>2026-03-22T12:38:45.157Z</time></trkpt><trkpt lat="39.9836591" lon="-2.2517644"><ele>870.0</ele><time>2026-03-22T12:38:46.164Z</time></trkpt><trkpt lat="39.9835833" lon="-2.251855"><ele>870.0</ele><time>2026-03-22T12:38:47.16Z</time></trkpt><trkpt lat="39.9835194" lon="-2.2519363"><ele>870.0</ele><time>2026-03-22T12:38:48.185Z</time></trkpt><trkpt lat="39.9834649" lon="-2.2520102"><ele>870.0</ele><time>2026-03-22T12:38:49.17Z</time></trkpt><trkpt lat="39.9834177" lon="-2.2520704"><ele>870.0</ele><time>2026-03-22T12:38:50.159Z</time></trkpt><trkpt lat="39.9833712" lon="-2.2521705"><ele>870.0</ele><time>2026-03-22T12:38:52.161Z</time></trkpt><trkpt lat="39.9834004" lon="-2.2523185"><ele>870.0</ele><time>2026-03-22T12:38:54.165Z</time></trkpt><trkpt lat="39.9834434" lon="-2.2523898"><ele>869.8</ele><time>2026-03-22T12:38:55.136Z</time></trkpt><trkpt lat="39.9835144" lon="-2.252435"><ele>869.6</ele><time>2026-03-22T12:38:56.139Z</time></trkpt><trkpt lat="39.9835972" lon="-2.2524752"><ele>869.4000000000001</ele><time>2026-03-22T12:38:57.137Z</time></trkpt><trkpt lat="39.983678" lon="-2.2525464"><ele>869.2</ele><time>2026-03-22T12:38:58.133Z</time></trkpt><trkpt lat="39.9837718" lon="-2.2526428"><ele>869.0</ele><time>2026-03-22T12:38:59.134Z</time></trkpt><trkpt lat="39.9838834" lon="-2.2527575"><ele>869.0</ele><time>2026-03-22T12:39:00.153Z</time></trkpt><trkpt lat="39.98399" lon="-2.2528897"><ele>869.0</ele><time>2026-03-22T12:39:01.17Z</time></trkpt><trkpt lat="39.9840956" lon="-2.2530263"><ele>869.0</ele><time>2026-03-22T12:39:02.146Z</time></trkpt><trkpt lat="39.984194" lon="-2.2531745"><ele>869.0</ele><time>2026-03-22T12:39:03.159Z</time></trkpt><trkpt lat="39.9842897" lon="-2.2533148"><ele>869.75</ele><time>2026-03-22T12:39:04.148Z</time></trkpt><trkpt lat="39.9843765" lon="-2.2534483"><ele>870.5</ele><time>2026-03-22T12:39:05.171Z</time></trkpt><trkpt lat="39.9844719" lon="-2.2535461"><ele>871.25</ele><time>2026-03-22T12:39:06.125Z</time></trkpt><trkpt lat="39.9845685" lon="-2.253627"><ele>872.0</ele><time>2026-03-22T12:39:07.143Z</time></trkpt><trkpt lat="39.9846823" lon="-2.2536833"><ele>872.0</ele><time>2026-03-22T12:39:08.189Z</time></trkpt><trkpt lat="39.9848096" lon="-2.2537145"><ele>872.0</ele><time>2026-03-22T12:39:09.163Z</time></trkpt><trkpt lat="39.9849378" lon="-2.2537391"><ele>872.0</ele><time>2026-03-22T12:39:10.152Z</time></trkpt><trkpt lat="39.9850632" lon="-2.2537647"><ele>872.0</ele><time>2026-03-22T12:39:11.158Z</time></trkpt><trkpt lat="39.9851869" lon="-2.2538232"><ele>871.25</ele><time>2026-03-22T12:39:12.16Z</time></trkpt><trkpt lat="39.9853104" lon="-2.2538907"><ele>870.5</ele><time>2026-03-22T12:39:13.156Z</time></trkpt><trkpt lat="39.9854319" lon="-2.2539498"><ele>869.75</ele><time>2026-03-22T12:39:14.17Z</time></trkpt><trkpt lat="39.9855467" lon="-2.2540151"><ele>869.0</ele><time>2026-03-22T12:39:15.143Z</time></trkpt><trkpt lat="39.9856499" lon="-2.2540837"><ele>871.0</ele><time>2026-03-22T12:39:16.157Z</time></trkpt><trkpt lat="39.9857391" lon="-2.254181"><ele>873.0000000000001</ele><time>2026-03-22T12:39:17.158Z</time></trkpt><trkpt lat="39.9858054" lon="-2.2542802"><ele>875.0000000000001</ele><time>2026-03-22T12:39:18.155Z</time></trkpt><trkpt lat="39.9858357" lon="-2.2544165"><ele>877.0</ele><time>2026-03-22T12:39:19.149Z</time></trkpt><trkpt lat="39.9858045" lon="-2.2545726"><ele>879.0</ele><time>2026-03-22T12:39:20.179Z</time></trkpt><trkpt lat="39.9857249" lon="-2.2547116"><ele>881.25</ele><time>2026-03-22T12:39:21.164Z</time></trkpt><trkpt lat="39.9856229" lon="-2.2548247"><ele>883.5</ele><time>2026-03-22T12:39:22.161Z</time></trkpt><trkpt lat="39.9855043" lon="-2.2548892"><ele>885.75</ele><time>2026-03-22T12:39:23.155Z</time></trkpt><trkpt lat="39.985379" lon="-2.2549104"><ele>888.0</ele><time>2026-03-22T12:39:24.154Z</time></trkpt><trkpt lat="39.9852508" lon="-2.2549057"><ele>888.0</ele><time>2026-03-22T12:39:25.173Z</time></trkpt><trkpt lat="39.9851221" lon="-2.2548696"><ele>888.0</ele><time>2026-03-22T12:39:26.145Z</time></trkpt><trkpt lat="39.9849907" lon="-2.2548101"><ele>888.0</ele><time>2026-03-22T12:39:27.168Z</time></trkpt><trkpt lat="39.9848748" lon="-2.2547495"><ele>888.0</ele><time>2026-03-22T12:39:28.153Z</time></trkpt><trkpt lat="39.9847431" lon="-2.2547253"><ele>888.25</ele><time>2026-03-22T12:39:29.15Z</time></trkpt><trkpt lat="39.9846279" lon="-2.2547444"><ele>888.5</ele><time>2026-03-22T12:39:30.186Z</time></trkpt><trkpt lat="39.9845109" lon="-2.254778"><ele>888.75</ele><time>2026-03-22T12:39:31.142Z</time></trkpt><trkpt lat="39.9843493" lon="-2.2548155"><ele>889.0</ele><time>2026-03-22T12:39:32.159Z</time></trkpt><trkpt lat="39.9842112" lon="-2.2548487"><ele>892.0</ele><time>2026-03-22T12:39:33.142Z</time></trkpt><trkpt lat="39.9840764" lon="-2.2548857"><ele>895.0</ele><time>2026-03-22T12:39:34.145Z</time></trkpt><trkpt lat="39.9839409" lon="-2.2549265"><ele>898.0</ele><time>2026-03-22T12:39:35.153Z</time></trkpt><trkpt lat="39.9838126" lon="-2.2549618"><ele>901.0</ele><time>2026-03-22T12:39:36.142Z</time></trkpt><trkpt lat="39.9836864" lon="-2.2549828"><ele>901.0</ele><time>2026-03-22T12:39:37.147Z</time></trkpt><trkpt lat="39.9835651" lon="-2.2550165"><ele>900.9999999999999</ele><time>2026-03-22T12:39:38.15Z</time></trkpt><trkpt lat="39.9834475" lon="-2.25505"><ele>900.9999999999999</ele><time>2026-03-22T12:39:39.147Z</time></trkpt><trkpt lat="39.9833468" lon="-2.2550801"><ele>901.0</ele><time>2026-03-22T12:39:40.144Z</time></trkpt><trkpt lat="39.983267" lon="-2.2551123"><ele>901.0</ele><time>2026-03-22T12:39:41.148Z</time></trkpt><trkpt lat="39.9831701" lon="-2.2551728"><ele>901.8</ele><time>2026-03-22T12:39:43.188Z</time></trkpt><trkpt lat="39.9830621" lon="-2.2552622"><ele>902.5999999999999</ele><time>2026-03-22T12:39:45.143Z</time></trkpt><trkpt lat="39.9830026" lon="-2.2552927"><ele>903.4</ele><time>2026-03-22T12:39:46.138Z</time></trkpt><trkpt lat="39.9829199" lon="-2.2553431"><ele>904.2</ele><time>2026-03-22T12:39:47.149Z</time></trkpt><trkpt lat="39.9828241" lon="-2.2553499"><ele>905.0</ele><time>2026-03-22T12:39:48.15Z</time></trkpt><trkpt lat="39.9827137" lon="-2.2553373"><ele>905.0</ele><time>2026-03-22T12:39:49.151Z</time></trkpt><trkpt lat="39.9826087" lon="-2.2553158"><ele>905.0</ele><time>2026-03-22T12:39:50.149Z</time></trkpt><trkpt lat="39.982511" lon="-2.2552931"><ele>905.0</ele><time>2026-03-22T12:39:51.147Z</time></trkpt><trkpt lat="39.9824247" lon="-2.2552677"><ele>905.0</ele><time>2026-03-22T12:39:52.141Z</time></trkpt><trkpt lat="39.9823439" lon="-2.2552529"><ele>905.0</ele><time>2026-03-22T12:39:53.136Z</time></trkpt><trkpt lat="39.9822318" lon="-2.2552456"><ele>905.6666666666667</ele><time>2026-03-22T12:39:55.135Z</time></trkpt><trkpt lat="39.9821622" lon="-2.2553276"><ele>906.3333333333334</ele><time>2026-03-22T12:39:57.144Z</time></trkpt><trkpt lat="39.9821464" lon="-2.2554353"><ele>907.0</ele><time>2026-03-22T12:39:59.159Z</time></trkpt><trkpt lat="39.9821531" lon="-2.2555843"><ele>907.6666666666667</ele><time>2026-03-22T12:40:01.156Z</time></trkpt><trkpt lat="39.9821524" lon="-2.2556747"><ele>908.3333333333334</ele><time>2026-03-22T12:40:02.133Z</time></trkpt><trkpt lat="39.9821612" lon="-2.255761"><ele>909.0</ele><time>2026-03-22T12:40:03.165Z</time></trkpt><trkpt lat="39.9821703" lon="-2.2558477"><ele>909.6</ele><time>2026-03-22T12:40:04.144Z</time></trkpt><trkpt lat="39.9821901" lon="-2.2559317"><ele>910.2</ele><time>2026-03-22T12:40:05.146Z</time></trkpt><trkpt lat="39.9822171" lon="-2.2560067"><ele>910.8000000000001</ele><time>2026-03-22T12:40:06.156Z</time></trkpt><trkpt lat="39.9822829" lon="-2.2561268"><ele>911.4000000000001</ele><time>2026-03-22T12:40:08.141Z</time></trkpt><trkpt lat="39.9823863" lon="-2.256236"><ele>912.0</ele><time>2026-03-22T12:40:10.136Z</time></trkpt><trkpt lat="39.982455" lon="-2.2562877"><ele>912.1666666666666</ele><time>2026-03-22T12:40:11.151Z</time></trkpt><trkpt lat="39.9825232" lon="-2.2563414"><ele>912.3333333333333</ele><time>2026-03-22T12:40:12.164Z</time></trkpt><trkpt lat="39.9825876" lon="-2.2564013"><ele>912.5</ele><time>2026-03-22T12:40:13.134Z</time></trkpt><trkpt lat="39.9826543" lon="-2.2564633"><ele>912.6666666666666</ele><time>2026-03-22T12:40:14.14Z</time></trkpt><trkpt lat="39.9827209" lon="-2.256524"><ele>912.8333333333333</ele><time>2026-03-22T12:40:15.144Z</time></trkpt><trkpt lat="39.9827879" lon="-2.2565851"><ele>913.0</ele><time>2026-03-22T12:40:16.165Z</time></trkpt><trkpt lat="39.9828576" lon="-2.2566469"><ele>914.9999999999999</ele><time>2026-03-22T12:40:17.138Z</time></trkpt><trkpt lat="39.9829301" lon="-2.2567035"><ele>917.0</ele><time>2026-03-22T12:40:18.148Z</time></trkpt><trkpt lat="39.9830207" lon="-2.2567375"><ele>919.0</ele><time>2026-03-22T12:40:19.134Z</time></trkpt><trkpt lat="39.9831005" lon="-2.256784"><ele>921.0</ele><time>2026-03-22T12:40:20.145Z</time></trkpt><trkpt lat="39.9831766" lon="-2.2568348"><ele>922.9999999999999</ele><time>2026-03-22T12:40:21.147Z</time></trkpt><trkpt lat="39.9832461" lon="-2.2569006"><ele>925.0</ele><time>2026-03-22T12:40:22.147Z</time></trkpt><trkpt lat="39.9833071" lon="-2.2569648"><ele>925.3333333333333</ele><time>2026-03-22T12:40:23.143Z</time></trkpt><trkpt lat="39.983371" lon="-2.2570306"><ele>925.6666666666666</ele><time>2026-03-22T12:40:24.141Z</time></trkpt><trkpt lat="39.9834424" lon="-2.2570906"><ele>926.0</ele><time>2026-03-22T12:40:25.138Z</time></trkpt><trkpt lat="39.9835177" lon="-2.257146"><ele>926.3333333333333</ele><time>2026-03-22T12:40:26.146Z</time></trkpt><trkpt lat="39.9836009" lon="-2.2572054"><ele>926.6666666666666</ele><time>2026-03-22T12:40:27.141Z</time></trkpt><trkpt lat="39.9836787" lon="-2.2572778"><ele>927.0</ele><time>2026-03-22T12:40:28.133Z</time></trkpt><trkpt lat="39.9837635" lon="-2.257338"><ele>929.1666666666666</ele><time>2026-03-22T12:40:29.133Z</time></trkpt><trkpt lat="39.9838431" lon="-2.2573911"><ele>931.3333333333333</ele><time>2026-03-22T12:40:30.149Z</time></trkpt><trkpt lat="39.9839199" lon="-2.2574437"><ele>933.5</ele><time>2026-03-22T12:40:31.143Z</time></trkpt><trkpt lat="39.9840032" lon="-2.2574963"><ele>935.6666666666666</ele><time>2026-03-22T12:40:32.146Z</time></trkpt><trkpt lat="39.9840871" lon="-2.2575346"><ele>937.8333333333333</ele><time>2026-03-22T12:40:33.148Z</time></trkpt><trkpt lat="39.984171" lon="-2.2575542"><ele>940.0</ele><time>2026-03-22T12:40:34.136Z</time></trkpt><trkpt lat="39.9842526" lon="-2.2575763"><ele>940.5714285714286</ele><time>2026-03-22T12:40:35.143Z</time></trkpt><trkpt lat="39.984313" lon="-2.2576294"><ele>941.1428571428571</ele><time>2026-03-22T12:40:36.149Z</time></trkpt><trkpt lat="39.9843691" lon="-2.2577045"><ele>941.7142857142857</ele><time>2026-03-22T12:40:37.134Z</time></trkpt><trkpt lat="39.9844252" lon="-2.2577844"><ele>942.2857142857142</ele><time>2026-03-22T12:40:38.16Z</time></trkpt><trkpt lat="39.9844665" lon="-2.2578674"><ele>942.8571428571429</ele><time>2026-03-22T12:40:39.136Z</time></trkpt><trkpt lat="39.9845113" lon="-2.257934"><ele>943.4285714285713</ele><time>2026-03-22T12:40:40.129Z</time></trkpt><trkpt lat="39.9845621" lon="-2.2579854"><ele>944.0</ele><time>2026-03-22T12:40:41.142Z</time></trkpt><trkpt lat="39.9846177" lon="-2.2580315"><ele>944.0</ele><time>2026-03-22T12:40:42.144Z</time></trkpt><trkpt lat="39.9846732" lon="-2.2580749"><ele>944.0000000000001</ele><time>2026-03-22T12:40:43.139Z</time></trkpt><trkpt lat="39.984743" lon="-2.2581137"><ele>944.0000000000001</ele><time>2026-03-22T12:40:44.139Z</time></trkpt><trkpt lat="39.9848354" lon="-2.2581432"><ele>944.0</ele><time>2026-03-22T12:40:45.129Z</time></trkpt><trkpt lat="39.9849416" lon="-2.2581756"><ele>944.0</ele><time>2026-03-22T12:40:46.134Z</time></trkpt><trkpt lat="39.9850525" lon="-2.2582066"><ele>945.8000000000001</ele><time>2026-03-22T12:40:47.143Z</time></trkpt><trkpt lat="39.98516" lon="-2.2582357"><ele>947.6000000000001</ele><time>2026-03-22T12:40:48.159Z</time></trkpt><trkpt lat="39.9852668" lon="-2.258269"><ele>949.4</ele><time>2026-03-22T12:40:49.146Z</time></trkpt><trkpt lat="39.9853766" lon="-2.2583002"><ele>951.2</ele><time>2026-03-22T12:40:50.15Z</time></trkpt><trkpt lat="39.9854853" lon="-2.2583287"><ele>953.0</ele><time>2026-03-22T12:40:51.156Z</time></trkpt><trkpt lat="39.985588" lon="-2.2583478"><ele>953.0</ele><time>2026-03-22T12:40:52.147Z</time></trkpt><trkpt lat="39.9856921" lon="-2.2583542"><ele>953.0</ele><time>2026-03-22T12:40:53.15Z</time></trkpt><trkpt lat="39.9857981" lon="-2.2583657"><ele>953.0</ele><time>2026-03-22T12:40:54.154Z</time></trkpt><trkpt lat="39.9858901" lon="-2.2583764"><ele>953.0</ele><time>2026-03-22T12:40:55.156Z</time></trkpt><trkpt lat="39.9859782" lon="-2.2584009"><ele>953.0</ele><time>2026-03-22T12:40:56.152Z</time></trkpt><trkpt lat="39.9860548" lon="-2.2584397"><ele>953.0000000000001</ele><time>2026-03-22T12:40:57.142Z</time></trkpt><trkpt lat="39.9861239" lon="-2.258479"><ele>953.0</ele><time>2026-03-22T12:40:58.148Z</time></trkpt><trkpt lat="39.9861864" lon="-2.2585481"><ele>953.0</ele><time>2026-03-22T12:40:59.148Z</time></trkpt><trkpt lat="39.9862192" lon="-2.2586355"><ele>953.0</ele><time>2026-03-22T12:41:00.164Z</time></trkpt><trkpt lat="39.9862308" lon="-2.2587414"><ele>953.0000000000001</ele><time>2026-03-22T12:41:01.147Z</time></trkpt><trkpt lat="39.9862355" lon="-2.2588533"><ele>953.0</ele><time>2026-03-22T12:41:02.151Z</time></trkpt><trkpt lat="39.9862404" lon="-2.2589746"><ele>953.0000000000001</ele><time>2026-03-22T12:41:03.143Z</time></trkpt><trkpt lat="39.9862422" lon="-2.2590756"><ele>953.0</ele><time>2026-03-22T12:41:04.14Z</time></trkpt><trkpt lat="39.9862432" lon="-2.2591766"><ele>953.0</ele><time>2026-03-22T12:41:05.144Z</time></trkpt><trkpt lat="39.9862507" lon="-2.2592838"><ele>953.0</ele><time>2026-03-22T12:41:06.14Z</time></trkpt><trkpt lat="39.9862683" lon="-2.2594145"><ele>953.0000000000001</ele><time>2026-03-22T12:41:07.144Z</time></trkpt><trkpt lat="39.986298" lon="-2.2595381"><ele>953.0</ele><time>2026-03-22T12:41:08.141Z</time></trkpt><trkpt lat="39.9863321" lon="-2.25966"><ele>953.0</ele><time>2026-03-22T12:41:09.151Z</time></trkpt><trkpt lat="39.9863691" lon="-2.2597732"><ele>953.0</ele><time>2026-03-22T12:41:10.173Z</time></trkpt><trkpt lat="39.9864105" lon="-2.2598831"><ele>953.0</ele><time>2026-03-22T12:41:11.151Z</time></trkpt><trkpt lat="39.9864519" lon="-2.2599863"><ele>953.0</ele><time>2026-03-22T12:41:12.158Z</time></trkpt><trkpt lat="39.9865024" lon="-2.2600914"><ele>953.0</ele><time>2026-03-22T12:41:13.149Z</time></trkpt><trkpt lat="39.9865701" lon="-2.2602025"><ele>955.0</ele><time>2026-03-22T12:41:14.17Z</time></trkpt><trkpt lat="39.9866479" lon="-2.2603099"><ele>957.0</ele><time>2026-03-22T12:41:15.161Z</time></trkpt><trkpt lat="39.9867376" lon="-2.2604081"><ele>959.0</ele><time>2026-03-22T12:41:16.142Z</time></trkpt><trkpt lat="39.9868398" lon="-2.2604983"><ele>961.0</ele><time>2026-03-22T12:41:17.165Z</time></trkpt><trkpt lat="39.986941" lon="-2.2605791"><ele>962.1999999999999</ele><time>2026-03-22T12:41:18.144Z</time></trkpt><trkpt lat="39.9870323" lon="-2.2606493"><ele>963.3999999999999</ele><time>2026-03-22T12:41:19.138Z</time></trkpt><trkpt lat="39.987122" lon="-2.2607437"><ele>964.6</ele><time>2026-03-22T12:41:20.139Z</time></trkpt><trkpt lat="39.9872045" lon="-2.2608306"><ele>965.8</ele><time>2026-03-22T12:41:21.145Z</time></trkpt><trkpt lat="39.9872927" lon="-2.2609108"><ele>967.0</ele><time>2026-03-22T12:41:22.142Z</time></trkpt><trkpt lat="39.987381" lon="-2.260978"><ele>966.9999999999999</ele><time>2026-03-22T12:41:23.147Z</time></trkpt><trkpt lat="39.9874607" lon="-2.261035"><ele>967.0</ele><time>2026-03-22T12:41:24.155Z</time></trkpt><trkpt lat="39.9875369" lon="-2.261072"><ele>967.0</ele><time>2026-03-22T12:41:25.135Z</time></trkpt><trkpt lat="39.9876179" lon="-2.2610982"><ele>967.0</ele><time>2026-03-22T12:41:26.152Z</time></trkpt><trkpt lat="39.987695" lon="-2.2611382"><ele>966.9999999999999</ele><time>2026-03-22T12:41:27.169Z</time></trkpt><trkpt lat="39.9877633" lon="-2.2611877"><ele>967.0</ele><time>2026-03-22T12:41:28.159Z</time></trkpt><trkpt lat="39.9878248" lon="-2.2612314"><ele>966.6666666666666</ele><time>2026-03-22T12:41:29.136Z</time></trkpt><trkpt lat="39.9878804" lon="-2.261277"><ele>966.3333333333333</ele><time>2026-03-22T12:41:30.152Z</time></trkpt><trkpt lat="39.9879142" lon="-2.2613487"><ele>966.0</ele><time>2026-03-22T12:41:31.134Z</time></trkpt><trkpt lat="39.9879117" lon="-2.2614885"><ele>965.6666666666667</ele><time>2026-03-22T12:41:33.136Z</time></trkpt><trkpt lat="39.987953" lon="-2.2616307"><ele>965.3333333333334</ele><time>2026-03-22T12:41:35.143Z</time></trkpt><trkpt lat="39.9880049" lon="-2.2616997"><ele>965.0</ele><time>2026-03-22T12:41:36.157Z</time></trkpt><trkpt lat="39.9880617" lon="-2.2617768"><ele>966.0</ele><time>2026-03-22T12:41:37.138Z</time></trkpt><trkpt lat="39.9881227" lon="-2.2618604"><ele>967.0</ele><time>2026-03-22T12:41:38.153Z</time></trkpt><trkpt lat="39.9881915" lon="-2.2619482"><ele>968.0</ele><time>2026-03-22T12:41:39.145Z</time></trkpt><trkpt lat="39.9882739" lon="-2.2620271"><ele>969.0</ele><time>2026-03-22T12:41:40.146Z</time></trkpt><trkpt lat="39.9883649" lon="-2.2620778"><ele>970.0</ele><time>2026-03-22T12:41:41.146Z</time></trkpt><trkpt lat="39.9884684" lon="-2.2621068"><ele>970.0</ele><time>2026-03-22T12:41:42.144Z</time></trkpt><trkpt lat="39.9885625" lon="-2.2621425"><ele>970.0</ele><time>2026-03-22T12:41:43.16Z</time></trkpt><trkpt lat="39.9886472" lon="-2.2621754"><ele>970.0</ele><time>2026-03-22T12:41:44.127Z</time></trkpt><trkpt lat="39.9887204" lon="-2.262236"><ele>970.0</ele><time>2026-03-22T12:41:45.146Z</time></trkpt><trkpt lat="39.9887773" lon="-2.2623278"><ele>970.0</ele><time>2026-03-22T12:41:46.149Z</time></trkpt><trkpt lat="39.9888204" lon="-2.2624262"><ele>971.4</ele><time>2026-03-22T12:41:47.137Z</time></trkpt><trkpt lat="39.9888593" lon="-2.262519"><ele>972.8</ele><time>2026-03-22T12:41:48.158Z</time></trkpt><trkpt lat="39.988887" lon="-2.2626189"><ele>974.2</ele><time>2026-03-22T12:41:49.141Z</time></trkpt><trkpt lat="39.9889273" lon="-2.2627166"><ele>975.6</ele><time>2026-03-22T12:41:50.144Z</time></trkpt><trkpt lat="39.9889718" lon="-2.2628261"><ele>977.0</ele><time>2026-03-22T12:41:51.142Z</time></trkpt><trkpt lat="39.9890166" lon="-2.2629567"><ele>977.0</ele><time>2026-03-22T12:41:52.136Z</time></trkpt><trkpt lat="39.9890708" lon="-2.2631076"><ele>977.0</ele><time>2026-03-22T12:41:53.144Z</time></trkpt><trkpt lat="39.9891286" lon="-2.2632642"><ele>977.0</ele><time>2026-03-22T12:41:54.15Z</time></trkpt><trkpt lat="39.9891843" lon="-2.2634133"><ele>977.0</ele><time>2026-03-22T12:41:55.141Z</time></trkpt><trkpt lat="39.9892414" lon="-2.2635641"><ele>978.0</ele><time>2026-03-22T12:41:56.166Z</time></trkpt><trkpt lat="39.9892986" lon="-2.263719"><ele>979.0</ele><time>2026-03-22T12:41:57.153Z</time></trkpt><trkpt lat="39.9893535" lon="-2.2638694"><ele>980.0</ele><time>2026-03-22T12:41:58.131Z</time></trkpt><trkpt lat="39.9894122" lon="-2.2640116"><ele>981.0</ele><time>2026-03-22T12:41:59.139Z</time></trkpt><trkpt lat="39.9894598" lon="-2.2641537"><ele>981.5</ele><time>2026-03-22T12:42:00.153Z</time></trkpt><trkpt lat="39.9895072" lon="-2.2642968"><ele>982.0</ele><time>2026-03-22T12:42:01.139Z</time></trkpt><trkpt lat="39.9895526" lon="-2.264446"><ele>982.5</ele><time>2026-03-22T12:42:02.14Z</time></trkpt><trkpt lat="39.9895954" lon="-2.2645865"><ele>983.0</ele><time>2026-03-22T12:42:03.148Z</time></trkpt><trkpt lat="39.9896302" lon="-2.2647343"><ele>983.5</ele><time>2026-03-22T12:42:04.15Z</time></trkpt><trkpt lat="39.9896664" lon="-2.2648882"><ele>984.0</ele><time>2026-03-22T12:42:05.139Z</time></trkpt><trkpt lat="39.989706" lon="-2.2650483"><ele>984.5</ele><time>2026-03-22T12:42:06.142Z</time></trkpt><trkpt lat="39.989745" lon="-2.2651942"><ele>985.0</ele><time>2026-03-22T12:42:07.133Z</time></trkpt><trkpt lat="39.9897817" lon="-2.2653409"><ele>985.0</ele><time>2026-03-22T12:42:08.134Z</time></trkpt><trkpt lat="39.989823" lon="-2.2654707"><ele>985.0</ele><time>2026-03-22T12:42:09.138Z</time></trkpt><trkpt lat="39.989872" lon="-2.2656009"><ele>985.0</ele><time>2026-03-22T12:42:10.142Z</time></trkpt><trkpt lat="39.9899299" lon="-2.2657245"><ele>985.0</ele><time>2026-03-22T12:42:11.155Z</time></trkpt><trkpt lat="39.9899936" lon="-2.265847"><ele>985.0</ele><time>2026-03-22T12:42:12.153Z</time></trkpt><trkpt lat="39.990062" lon="-2.2659539"><ele>985.0</ele><time>2026-03-22T12:42:13.159Z</time></trkpt><trkpt lat="39.9901344" lon="-2.266066"><ele>985.0</ele><time>2026-03-22T12:42:14.166Z</time></trkpt><trkpt lat="39.9902019" lon="-2.2661703"><ele>985.0</ele><time>2026-03-22T12:42:15.15Z</time></trkpt><trkpt lat="39.9902652" lon="-2.2662847"><ele>985.0</ele><time>2026-03-22T12:42:16.153Z</time></trkpt><trkpt lat="39.9903016" lon="-2.266409"><ele>985.0</ele><time>2026-03-22T12:42:17.132Z</time></trkpt><trkpt lat="39.9903193" lon="-2.2665336"><ele>984.1666666666666</ele><time>2026-03-22T12:42:18.133Z</time></trkpt><trkpt lat="39.9903401" lon="-2.2666436"><ele>983.3333333333333</ele><time>2026-03-22T12:42:19.142Z</time></trkpt><trkpt lat="39.9903191" lon="-2.2667387"><ele>982.5</ele><time>2026-03-22T12:42:20.153Z</time></trkpt><trkpt lat="39.9902819" lon="-2.2668178"><ele>981.6666666666667</ele><time>2026-03-22T12:42:21.157Z</time></trkpt><trkpt lat="39.9902223" lon="-2.266951"><ele>980.8333333333334</ele><time>2026-03-22T12:42:23.142Z</time></trkpt><trkpt lat="39.9902003" lon="-2.2670403"><ele>980.0</ele><time>2026-03-22T12:42:24.156Z</time></trkpt><trkpt lat="39.9901776" lon="-2.2671379"><ele>980.0000000000001</ele><time>2026-03-22T12:42:25.142Z</time></trkpt><trkpt lat="39.990166" lon="-2.2672382"><ele>980.0</ele><time>2026-03-22T12:42:26.146Z</time></trkpt><trkpt lat="39.9901641" lon="-2.2673376"><ele>980.0</ele><time>2026-03-22T12:42:27.168Z</time></trkpt><trkpt lat="39.9901615" lon="-2.2674515"><ele>980.0</ele><time>2026-03-22T12:42:28.158Z</time></trkpt><trkpt lat="39.9901454" lon="-2.2675779"><ele>980.0000000000001</ele><time>2026-03-22T12:42:29.148Z</time></trkpt><trkpt lat="39.99012" lon="-2.2677015"><ele>980.0</ele><time>2026-03-22T12:42:30.139Z</time></trkpt><trkpt lat="39.9900842" lon="-2.2678252"><ele>979.2</ele><time>2026-03-22T12:42:31.156Z</time></trkpt><trkpt lat="39.9900218" lon="-2.2679419"><ele>978.4</ele><time>2026-03-22T12:42:32.135Z</time></trkpt><trkpt lat="39.9899506" lon="-2.2680532"><ele>977.5999999999999</ele><time>2026-03-22T12:42:33.149Z</time></trkpt><trkpt lat="39.9898729" lon="-2.2681529"><ele>976.8</ele><time>2026-03-22T12:42:34.126Z</time></trkpt><trkpt lat="39.9898003" lon="-2.2682447"><ele>976.0</ele><time>2026-03-22T12:42:35.148Z</time></trkpt><trkpt lat="39.9897527" lon="-2.2683543"><ele>974.5</ele><time>2026-03-22T12:42:36.149Z</time></trkpt><trkpt lat="39.9897201" lon="-2.2684908"><ele>973.0</ele><time>2026-03-22T12:42:37.147Z</time></trkpt><trkpt lat="39.9896911" lon="-2.2686329"><ele>971.5</ele><time>2026-03-22T12:42:38.151Z</time></trkpt><trkpt lat="39.9896664" lon="-2.2687859"><ele>970.0</ele><time>2026-03-22T12:42:39.139Z</time></trkpt><trkpt lat="39.989649" lon="-2.2689345"><ele>970.25</ele><time>2026-03-22T12:42:40.132Z</time></trkpt><trkpt lat="39.9896365" lon="-2.2690919"><ele>970.5</ele><time>2026-03-22T12:42:41.15Z</time></trkpt><trkpt lat="39.9896169" lon="-2.269271"><ele>970.75</ele><time>2026-03-22T12:42:42.153Z</time></trkpt><trkpt lat="39.9895941" lon="-2.2694369"><ele>971.0</ele><time>2026-03-22T12:42:43.151Z</time></trkpt><trkpt lat="39.9895488" lon="-2.2696079"><ele>971.0</ele><time>2026-03-22T12:42:44.157Z</time></trkpt><trkpt lat="39.9895122" lon="-2.2697618"><ele>970.9999999999999</ele><time>2026-03-22T12:42:45.136Z</time></trkpt><trkpt lat="39.9895009" lon="-2.2698948"><ele>970.9999999999999</ele><time>2026-03-22T12:42:46.134Z</time></trkpt><trkpt lat="39.9894849" lon="-2.2700285"><ele>971.0</ele><time>2026-03-22T12:42:47.13Z</time></trkpt><trkpt lat="39.9894591" lon="-2.2701541"><ele>971.0</ele><time>2026-03-22T12:42:48.14Z</time></trkpt><trkpt lat="39.989423" lon="-2.2702668"><ele>970.8333333333334</ele><time>2026-03-22T12:42:49.15Z</time></trkpt><trkpt lat="39.9893821" lon="-2.2703691"><ele>970.6666666666667</ele><time>2026-03-22T12:42:50.15Z</time></trkpt><trkpt lat="39.9893595" lon="-2.2704548"><ele>970.5</ele><time>2026-03-22T12:42:51.156Z</time></trkpt><trkpt lat="39.9893483" lon="-2.2705498"><ele>970.3333333333333</ele><time>2026-03-22T12:42:52.133Z</time></trkpt><trkpt lat="39.9893319" lon="-2.2707128"><ele>970.1666666666666</ele><time>2026-03-22T12:42:54.146Z</time></trkpt><trkpt lat="39.9893214" lon="-2.2708075"><ele>970.0</ele><time>2026-03-22T12:42:55.133Z</time></trkpt><trkpt lat="39.9893049" lon="-2.2709056"><ele>968.8333333333333</ele><time>2026-03-22T12:42:56.152Z</time></trkpt><trkpt lat="39.9892882" lon="-2.2710011"><ele>967.6666666666666</ele><time>2026-03-22T12:42:57.159Z</time></trkpt><trkpt lat="39.989274" lon="-2.2710933"><ele>966.5</ele><time>2026-03-22T12:42:58.145Z</time></trkpt><trkpt lat="39.9892588" lon="-2.2712012"><ele>965.3333333333333</ele><time>2026-03-22T12:42:59.135Z</time></trkpt><trkpt lat="39.989274" lon="-2.2713267"><ele>964.1666666666666</ele><time>2026-03-22T12:43:00.158Z</time></trkpt><trkpt lat="39.9892929" lon="-2.2714477"><ele>963.0</ele><time>2026-03-22T12:43:01.146Z</time></trkpt><trkpt lat="39.9893109" lon="-2.2715729"><ele>962.5</ele><time>2026-03-22T12:43:02.173Z</time></trkpt><trkpt lat="39.9893147" lon="-2.2717151"><ele>962.0</ele><time>2026-03-22T12:43:03.155Z</time></trkpt><trkpt lat="39.9893086" lon="-2.2718758"><ele>961.5</ele><time>2026-03-22T12:43:04.138Z</time></trkpt><trkpt lat="39.9892762" lon="-2.272035"><ele>961.0</ele><time>2026-03-22T12:43:05.186Z</time></trkpt><trkpt lat="39.9892452" lon="-2.2721677"><ele>961.0</ele><time>2026-03-22T12:43:06.159Z</time></trkpt><trkpt lat="39.9892225" lon="-2.2723019"><ele>961.0</ele><time>2026-03-22T12:43:07.146Z</time></trkpt><trkpt lat="39.989213" lon="-2.2724567"><ele>961.0</ele><time>2026-03-22T12:43:08.236Z</time></trkpt><trkpt lat="39.989212" lon="-2.2726136"><ele>961.0</ele><time>2026-03-22T12:43:09.19Z</time></trkpt><trkpt lat="39.989203" lon="-2.2727574"><ele>961.0</ele><time>2026-03-22T12:43:10.151Z</time></trkpt><trkpt lat="39.9891853" lon="-2.2728939"><ele>961.0</ele><time>2026-03-22T12:43:11.13Z</time></trkpt><trkpt lat="39.9891689" lon="-2.2730401"><ele>961.0</ele><time>2026-03-22T12:43:12.131Z</time></trkpt><trkpt lat="39.9891633" lon="-2.2732017"><ele>961.0</ele><time>2026-03-22T12:43:13.136Z</time></trkpt><trkpt lat="39.9891444" lon="-2.2733648"><ele>964.75</ele><time>2026-03-22T12:43:14.134Z</time></trkpt><trkpt lat="39.9891142" lon="-2.2735307"><ele>968.5</ele><time>2026-03-22T12:43:15.158Z</time></trkpt><trkpt lat="39.9890965" lon="-2.2736784"><ele>972.25</ele><time>2026-03-22T12:43:16.146Z</time></trkpt><trkpt lat="39.9890781" lon="-2.2738139"><ele>976.0</ele><time>2026-03-22T12:43:17.145Z</time></trkpt><trkpt lat="39.9890602" lon="-2.2739485"><ele>976.5999999999999</ele><time>2026-03-22T12:43:18.146Z</time></trkpt><trkpt lat="39.9890409" lon="-2.274084"><ele>977.1999999999999</ele><time>2026-03-22T12:43:19.139Z</time></trkpt><trkpt lat="39.9890125" lon="-2.2742113"><ele>977.8000000000001</ele><time>2026-03-22T12:43:20.17Z</time></trkpt><trkpt lat="39.9889712" lon="-2.2743267"><ele>978.4000000000001</ele><time>2026-03-22T12:43:21.135Z</time></trkpt><trkpt lat="39.9889303" lon="-2.2744311"><ele>979.0</ele><time>2026-03-22T12:43:22.146Z</time></trkpt><trkpt lat="39.9889071" lon="-2.2745437"><ele>978.9999999999999</ele><time>2026-03-22T12:43:23.144Z</time></trkpt><trkpt lat="39.9889112" lon="-2.2746559"><ele>979.0</ele><time>2026-03-22T12:43:24.158Z</time></trkpt><trkpt lat="39.9889358" lon="-2.2747641"><ele>979.0</ele><time>2026-03-22T12:43:25.166Z</time></trkpt><trkpt lat="39.9889652" lon="-2.2748663"><ele>979.0</ele><time>2026-03-22T12:43:26.132Z</time></trkpt><trkpt lat="39.9890113" lon="-2.2749561"><ele>978.9999999999999</ele><time>2026-03-22T12:43:27.143Z</time></trkpt><trkpt lat="39.9890707" lon="-2.2750371"><ele>979.0</ele><time>2026-03-22T12:43:28.156Z</time></trkpt><trkpt lat="39.9891334" lon="-2.2751152"><ele>979.4000000000001</ele><time>2026-03-22T12:43:29.147Z</time></trkpt><trkpt lat="39.9891872" lon="-2.275208"><ele>979.8000000000001</ele><time>2026-03-22T12:43:30.157Z</time></trkpt><trkpt lat="39.9892349" lon="-2.2753146"><ele>980.1999999999999</ele><time>2026-03-22T12:43:31.16Z</time></trkpt><trkpt lat="39.9892613" lon="-2.27544"><ele>980.5999999999999</ele><time>2026-03-22T12:43:32.141Z</time></trkpt><trkpt lat="39.9892721" lon="-2.2755732"><ele>981.0</ele><time>2026-03-22T12:43:33.135Z</time></trkpt><trkpt lat="39.9892842" lon="-2.2757164"><ele>981.0</ele><time>2026-03-22T12:43:34.157Z</time></trkpt><trkpt lat="39.9893026" lon="-2.2758637"><ele>981.0</ele><time>2026-03-22T12:43:35.146Z</time></trkpt><trkpt lat="39.9893179" lon="-2.2760153"><ele>981.0</ele><time>2026-03-22T12:43:36.138Z</time></trkpt><trkpt lat="39.9893031" lon="-2.2761674"><ele>981.0</ele><time>2026-03-22T12:43:37.146Z</time></trkpt><trkpt lat="39.9893016" lon="-2.276314"><ele>982.0</ele><time>2026-03-22T12:43:38.161Z</time></trkpt><trkpt lat="39.9893218" lon="-2.2764651"><ele>983.0</ele><time>2026-03-22T12:43:39.145Z</time></trkpt><trkpt lat="39.9893503" lon="-2.2766225"><ele>984.0</ele><time>2026-03-22T12:43:40.149Z</time></trkpt><trkpt lat="39.9893845" lon="-2.276776"><ele>985.0</ele><time>2026-03-22T12:43:41.136Z</time></trkpt><trkpt lat="39.989432" lon="-2.2769192"><ele>985.0</ele><time>2026-03-22T12:43:42.147Z</time></trkpt><trkpt lat="39.9894519" lon="-2.2770666"><ele>985.0</ele><time>2026-03-22T12:43:43.141Z</time></trkpt><trkpt lat="39.9894701" lon="-2.2771965"><ele>985.0</ele><time>2026-03-22T12:43:44.123Z</time></trkpt><trkpt lat="39.9894838" lon="-2.2773231"><ele>985.0</ele><time>2026-03-22T12:43:45.143Z</time></trkpt><trkpt lat="39.989489" lon="-2.2774441"><ele>985.0</ele><time>2026-03-22T12:43:46.139Z</time></trkpt><trkpt lat="39.989496" lon="-2.2775675"><ele>985.4</ele><time>2026-03-22T12:43:47.143Z</time></trkpt><trkpt lat="39.9894886" lon="-2.2776956"><ele>985.8</ele><time>2026-03-22T12:43:48.132Z</time></trkpt><trkpt lat="39.9894797" lon="-2.2778319"><ele>986.2</ele><time>2026-03-22T12:43:49.143Z</time></trkpt><trkpt lat="39.9894825" lon="-2.2779673"><ele>986.6</ele><time>2026-03-22T12:43:50.135Z</time></trkpt><trkpt lat="39.989485" lon="-2.278117"><ele>987.0</ele><time>2026-03-22T12:43:51.152Z</time></trkpt><trkpt lat="39.9894893" lon="-2.2782723"><ele>987.75</ele><time>2026-03-22T12:43:52.154Z</time></trkpt><trkpt lat="39.9895031" lon="-2.2784401"><ele>988.5</ele><time>2026-03-22T12:43:53.141Z</time></trkpt><trkpt lat="39.98952" lon="-2.2785975"><ele>989.25</ele><time>2026-03-22T12:43:54.128Z</time></trkpt><trkpt lat="39.9895389" lon="-2.2787457"><ele>990.0</ele><time>2026-03-22T12:43:55.166Z</time></trkpt><trkpt lat="39.9895552" lon="-2.2788797"><ele>991.0</ele><time>2026-03-22T12:43:56.145Z</time></trkpt><trkpt lat="39.9895647" lon="-2.279007"><ele>992.0</ele><time>2026-03-22T12:43:57.14Z</time></trkpt><trkpt lat="39.9895684" lon="-2.2791189"><ele>993.0</ele><time>2026-03-22T12:43:58.135Z</time></trkpt><trkpt lat="39.9895563" lon="-2.2792302"><ele>994.0</ele><time>2026-03-22T12:43:59.132Z</time></trkpt><trkpt lat="39.9895182" lon="-2.2793354"><ele>995.0</ele><time>2026-03-22T12:44:00.148Z</time></trkpt><trkpt lat="39.9894855" lon="-2.2794244"><ele>996.0</ele><time>2026-03-22T12:44:01.149Z</time></trkpt><trkpt lat="39.989474" lon="-2.2795246"><ele>996.0</ele><time>2026-03-22T12:44:02.148Z</time></trkpt><trkpt lat="39.9894799" lon="-2.2796273"><ele>996.0</ele><time>2026-03-22T12:44:03.157Z</time></trkpt><trkpt lat="39.989499" lon="-2.2797151"><ele>996.0</ele><time>2026-03-22T12:44:04.138Z</time></trkpt><trkpt lat="39.989534" lon="-2.2798"><ele>996.0</ele><time>2026-03-22T12:44:05.129Z</time></trkpt><trkpt lat="39.9895945" lon="-2.2798804"><ele>996.0</ele><time>2026-03-22T12:44:06.134Z</time></trkpt><trkpt lat="39.9896729" lon="-2.2799424"><ele>996.0</ele><time>2026-03-22T12:44:07.135Z</time></trkpt><trkpt lat="39.9897514" lon="-2.2800069"><ele>995.8</ele><time>2026-03-22T12:44:08.148Z</time></trkpt><trkpt lat="39.9898287" lon="-2.2800789"><ele>995.5999999999999</ele><time>2026-03-22T12:44:09.126Z</time></trkpt><trkpt lat="39.9898989" lon="-2.2801501"><ele>995.4</ele><time>2026-03-22T12:44:10.145Z</time></trkpt><trkpt lat="39.9899665" lon="-2.2802282"><ele>995.2</ele><time>2026-03-22T12:44:11.139Z</time></trkpt><trkpt lat="39.9900414" lon="-2.2803071"><ele>995.0</ele><time>2026-03-22T12:44:12.148Z</time></trkpt><trkpt lat="39.9901093" lon="-2.280385"><ele>995.0</ele><time>2026-03-22T12:44:13.136Z</time></trkpt><trkpt lat="39.9901686" lon="-2.2804659"><ele>995.0</ele><time>2026-03-22T12:44:14.146Z</time></trkpt><trkpt lat="39.9902327" lon="-2.2805464"><ele>995.0</ele><time>2026-03-22T12:44:15.135Z</time></trkpt><trkpt lat="39.9902863" lon="-2.2806404"><ele>995.0</ele><time>2026-03-22T12:44:16.137Z</time></trkpt><trkpt lat="39.9903336" lon="-2.2807461"><ele>995.0</ele><time>2026-03-22T12:44:17.139Z</time></trkpt><trkpt lat="39.9903742" lon="-2.2808733"><ele>996.6</ele><time>2026-03-22T12:44:18.145Z</time></trkpt><trkpt lat="39.9904093" lon="-2.2810017"><ele>998.2</ele><time>2026-03-22T12:44:19.142Z</time></trkpt><trkpt lat="39.9904442" lon="-2.281134"><ele>999.8</ele><time>2026-03-22T12:44:20.158Z</time></trkpt><trkpt lat="39.9904795" lon="-2.2812709"><ele>1001.4</ele><time>2026-03-22T12:44:21.128Z</time></trkpt><trkpt lat="39.9905021" lon="-2.2813994"><ele>1003.0</ele><time>2026-03-22T12:44:22.131Z</time></trkpt><trkpt lat="39.9905278" lon="-2.2815241"><ele>1004.0</ele><time>2026-03-22T12:44:23.16Z</time></trkpt><trkpt lat="39.9905469" lon="-2.2816502"><ele>1005.0</ele><time>2026-03-22T12:44:24.146Z</time></trkpt><trkpt lat="39.9905671" lon="-2.2817768"><ele>1006.0</ele><time>2026-03-22T12:44:25.134Z</time></trkpt><trkpt lat="39.9905911" lon="-2.2819026"><ele>1007.0</ele><time>2026-03-22T12:44:26.145Z</time></trkpt><trkpt lat="39.990602" lon="-2.2820212"><ele>1008.0</ele><time>2026-03-22T12:44:27.135Z</time></trkpt><trkpt lat="39.9906092" lon="-2.2821385"><ele>1008.0</ele><time>2026-03-22T12:44:28.136Z</time></trkpt><trkpt lat="39.990612" lon="-2.2822519"><ele>1008.0</ele><time>2026-03-22T12:44:29.127Z</time></trkpt><trkpt lat="39.9905957" lon="-2.2823645"><ele>1008.0</ele><time>2026-03-22T12:44:30.142Z</time></trkpt><trkpt lat="39.9905707" lon="-2.2824761"><ele>1008.0</ele><time>2026-03-22T12:44:31.14Z</time></trkpt><trkpt lat="39.9905492" lon="-2.282587"><ele>1008.0</ele><time>2026-03-22T12:44:32.14Z</time></trkpt><trkpt lat="39.9905212" lon="-2.2827089"><ele>1008.0</ele><time>2026-03-22T12:44:33.128Z</time></trkpt><trkpt lat="39.9904946" lon="-2.2828384"><ele>1008.8</ele><time>2026-03-22T12:44:34.15Z</time></trkpt><trkpt lat="39.9904666" lon="-2.2829641"><ele>1009.5999999999999</ele><time>2026-03-22T12:44:35.133Z</time></trkpt><trkpt lat="39.9904467" lon="-2.2830856"><ele>1010.4000000000001</ele><time>2026-03-22T12:44:36.147Z</time></trkpt><trkpt lat="39.990431" lon="-2.2832023"><ele>1011.2</ele><time>2026-03-22T12:44:37.147Z</time></trkpt><trkpt lat="39.990418" lon="-2.2833127"><ele>1012.0</ele><time>2026-03-22T12:44:38.135Z</time></trkpt><trkpt lat="39.9904033" lon="-2.2834311"><ele>1013.0</ele><time>2026-03-22T12:44:39.143Z</time></trkpt><trkpt lat="39.9903875" lon="-2.2835553"><ele>1014.0</ele><time>2026-03-22T12:44:40.134Z</time></trkpt><trkpt lat="39.9903737" lon="-2.2836806"><ele>1015.0</ele><time>2026-03-22T12:44:41.134Z</time></trkpt><trkpt lat="39.9903752" lon="-2.2838014"><ele>1016.0</ele><time>2026-03-22T12:44:42.143Z</time></trkpt><trkpt lat="39.9903843" lon="-2.2839568"><ele>1017.0</ele><time>2026-03-22T12:44:43.132Z</time></trkpt><trkpt lat="39.9904098" lon="-2.2841056"><ele>1017.3333333333334</ele><time>2026-03-22T12:44:44.138Z</time></trkpt><trkpt lat="39.9904297" lon="-2.2842391"><ele>1017.6666666666667</ele><time>2026-03-22T12:44:45.147Z</time></trkpt><trkpt lat="39.9904429" lon="-2.2843663"><ele>1018.0</ele><time>2026-03-22T12:44:46.136Z</time></trkpt><trkpt lat="39.990444" lon="-2.2844764"><ele>1018.3333333333334</ele><time>2026-03-22T12:44:47.138Z</time></trkpt><trkpt lat="39.990429" lon="-2.2845785"><ele>1018.6666666666667</ele><time>2026-03-22T12:44:48.142Z</time></trkpt><trkpt lat="39.9904228" lon="-2.2846787"><ele>1019.0</ele><time>2026-03-22T12:44:49.143Z</time></trkpt><trkpt lat="39.9904275" lon="-2.2847746"><ele>1021.0</ele><time>2026-03-22T12:44:50.166Z</time></trkpt><trkpt lat="39.9905083" lon="-2.2848773"><ele>1023.0000000000001</ele><time>2026-03-22T12:44:52.144Z</time></trkpt><trkpt lat="39.9906109" lon="-2.284946"><ele>1025.0</ele><time>2026-03-22T12:44:54.128Z</time></trkpt><trkpt lat="39.9906743" lon="-2.285004"><ele>1027.0</ele><time>2026-03-22T12:44:56.147Z</time></trkpt><trkpt lat="39.9907142" lon="-2.2850733"><ele>1029.0</ele><time>2026-03-22T12:44:59.138Z</time></trkpt><trkpt lat="39.9907034" lon="-2.2852009"><ele>1029.0</ele><time>2026-03-22T12:45:01.138Z</time></trkpt><trkpt lat="39.9906772" lon="-2.2852796"><ele>1029.0</ele><time>2026-03-22T12:45:02.135Z</time></trkpt><trkpt lat="39.9906195" lon="-2.2854219"><ele>1029.0</ele><time>2026-03-22T12:45:04.153Z</time></trkpt><trkpt lat="39.9906165" lon="-2.285514"><ele>1029.0</ele><time>2026-03-22T12:45:05.165Z</time></trkpt><trkpt lat="39.9906263" lon="-2.285632"><ele>1029.0</ele><time>2026-03-22T12:45:06.137Z</time></trkpt><trkpt lat="39.9906297" lon="-2.2858079"><ele>1029.5</ele><time>2026-03-22T12:45:07.142Z</time></trkpt><trkpt lat="39.9906305" lon="-2.2859509"><ele>1030.0</ele><time>2026-03-22T12:45:08.147Z</time></trkpt><trkpt lat="39.99063" lon="-2.2860633"><ele>1030.5</ele><time>2026-03-22T12:45:09.156Z</time></trkpt><trkpt lat="39.9906389" lon="-2.2861856"><ele>1031.0</ele><time>2026-03-22T12:45:10.171Z</time></trkpt><trkpt lat="39.9906387" lon="-2.2862909"><ele>1031.5</ele><time>2026-03-22T12:45:11.151Z</time></trkpt><trkpt lat="39.99066" lon="-2.2863874"><ele>1032.0</ele><time>2026-03-22T12:45:12.124Z</time></trkpt><trkpt lat="39.9907081" lon="-2.2864864"><ele>1032.1666666666667</ele><time>2026-03-22T12:45:13.142Z</time></trkpt><trkpt lat="39.9907786" lon="-2.2865695"><ele>1032.3333333333333</ele><time>2026-03-22T12:45:14.155Z</time></trkpt><trkpt lat="39.9908379" lon="-2.2866454"><ele>1032.5</ele><time>2026-03-22T12:45:15.157Z</time></trkpt><trkpt lat="39.9908926" lon="-2.2867229"><ele>1032.6666666666665</ele><time>2026-03-22T12:45:16.129Z</time></trkpt><trkpt lat="39.990937" lon="-2.2868142"><ele>1032.8333333333333</ele><time>2026-03-22T12:45:17.157Z</time></trkpt><trkpt lat="39.9909803" lon="-2.2869079"><ele>1033.0</ele><time>2026-03-22T12:45:18.155Z</time></trkpt><trkpt lat="39.9910186" lon="-2.287004"><ele>1033.0</ele><time>2026-03-22T12:45:19.169Z</time></trkpt><trkpt lat="39.9910549" lon="-2.2871099"><ele>1033.0</ele><time>2026-03-22T12:45:20.155Z</time></trkpt><trkpt lat="39.9910922" lon="-2.2872272"><ele>1033.0</ele><time>2026-03-22T12:45:21.142Z</time></trkpt><trkpt lat="39.9911417" lon="-2.2873351"><ele>1033.0</ele><time>2026-03-22T12:45:22.146Z</time></trkpt><trkpt lat="39.9911831" lon="-2.2874448"><ele>1033.0</ele><time>2026-03-22T12:45:23.147Z</time></trkpt><trkpt lat="39.9912195" lon="-2.287549"><ele>1033.6666666666665</ele><time>2026-03-22T12:45:24.127Z</time></trkpt><trkpt lat="39.9912413" lon="-2.2876552"><ele>1034.3333333333333</ele><time>2026-03-22T12:45:25.157Z</time></trkpt><trkpt lat="39.9912632" lon="-2.2877515"><ele>1035.0</ele><time>2026-03-22T12:45:26.129Z</time></trkpt><trkpt lat="39.9912895" lon="-2.2878385"><ele>1035.6666666666667</ele><time>2026-03-22T12:45:27.171Z</time></trkpt><trkpt lat="39.9913189" lon="-2.2879248"><ele>1036.3333333333335</ele><time>2026-03-22T12:45:28.136Z</time></trkpt><trkpt lat="39.991351" lon="-2.2880084"><ele>1037.0</ele><time>2026-03-22T12:45:29.167Z</time></trkpt><trkpt lat="39.9913726" lon="-2.2881038"><ele>1037.0</ele><time>2026-03-22T12:45:30.148Z</time></trkpt><trkpt lat="39.9914068" lon="-2.2882022"><ele>1037.0</ele><time>2026-03-22T12:45:31.137Z</time></trkpt><trkpt lat="39.9914258" lon="-2.2883054"><ele>1037.0</ele><time>2026-03-22T12:45:32.167Z</time></trkpt><trkpt lat="39.9914622" lon="-2.2883959"><ele>1037.0</ele><time>2026-03-22T12:45:33.151Z</time></trkpt><trkpt lat="39.9915168" lon="-2.2884796"><ele>1037.0</ele><time>2026-03-22T12:45:34.179Z</time></trkpt><trkpt lat="39.9915715" lon="-2.2885628"><ele>1037.0</ele><time>2026-03-22T12:45:35.189Z</time></trkpt><trkpt lat="39.9916207" lon="-2.288658"><ele>1037.0</ele><time>2026-03-22T12:45:36.157Z</time></trkpt><trkpt lat="39.991666" lon="-2.2887581"><ele>1037.0</ele><time>2026-03-22T12:45:37.155Z</time></trkpt><trkpt lat="39.9917058" lon="-2.2888534"><ele>1037.0</ele><time>2026-03-22T12:45:38.155Z</time></trkpt><trkpt lat="39.9917461" lon="-2.2889403"><ele>1037.0</ele><time>2026-03-22T12:45:39.157Z</time></trkpt><trkpt lat="39.9917837" lon="-2.2890313"><ele>1037.0</ele><time>2026-03-22T12:45:40.157Z</time></trkpt><trkpt lat="39.9918481" lon="-2.2891059"><ele>1037.0</ele><time>2026-03-22T12:45:41.168Z</time></trkpt><trkpt lat="39.9919041" lon="-2.2892041"><ele>1036.8</ele><time>2026-03-22T12:45:42.152Z</time></trkpt><trkpt lat="39.9919619" lon="-2.2893124"><ele>1036.6</ele><time>2026-03-22T12:45:43.153Z</time></trkpt><trkpt lat="39.9920102" lon="-2.2894245"><ele>1036.3999999999999</ele><time>2026-03-22T12:45:44.209Z</time></trkpt><trkpt lat="39.9920646" lon="-2.2895184"><ele>1036.2</ele><time>2026-03-22T12:45:45.142Z</time></trkpt><trkpt lat="39.9921282" lon="-2.2895935"><ele>1036.0</ele><time>2026-03-22T12:45:46.158Z</time></trkpt><trkpt lat="39.9921877" lon="-2.2896585"><ele>1036.0</ele><time>2026-03-22T12:45:47.159Z</time></trkpt><trkpt lat="39.9922359" lon="-2.2897302"><ele>1036.0</ele><time>2026-03-22T12:45:48.152Z</time></trkpt><trkpt lat="39.9922692" lon="-2.2898069"><ele>1036.0</ele><time>2026-03-22T12:45:49.174Z</time></trkpt><trkpt lat="39.9922869" lon="-2.2898919"><ele>1036.0</ele><time>2026-03-22T12:45:50.181Z</time></trkpt><trkpt lat="39.9922937" lon="-2.2899739"><ele>1036.0</ele><time>2026-03-22T12:45:51.145Z</time></trkpt><trkpt lat="39.9922997" lon="-2.290063"><ele>1036.0</ele><time>2026-03-22T12:45:52.148Z</time></trkpt><trkpt lat="39.9923251" lon="-2.2901477"><ele>1036.0</ele><time>2026-03-22T12:45:53.141Z</time></trkpt><trkpt lat="39.9923416" lon="-2.2902355"><ele>1035.8333333333333</ele><time>2026-03-22T12:45:54.164Z</time></trkpt><trkpt lat="39.9923551" lon="-2.2903605"><ele>1035.6666666666665</ele><time>2026-03-22T12:45:56.15Z</time></trkpt><trkpt lat="39.992388" lon="-2.290442"><ele>1035.5</ele><time>2026-03-22T12:45:59.151Z</time></trkpt><trkpt lat="39.992438" lon="-2.2905126"><ele>1035.3333333333333</ele><time>2026-03-22T12:46:02.14Z</time></trkpt><trkpt lat="39.9924637" lon="-2.2906049"><ele>1035.1666666666667</ele><time>2026-03-22T12:46:05.151Z</time></trkpt><trkpt lat="39.9925109" lon="-2.2906678"><ele>1035.0</ele><time>2026-03-22T12:46:10.141Z</time></trkpt><trkpt lat="39.9925348" lon="-2.2907634"><ele>1033.6666666666667</ele><time>2026-03-22T12:46:13.138Z</time></trkpt><trkpt lat="39.992568" lon="-2.2908339"><ele>1032.3333333333333</ele><time>2026-03-22T12:46:15.152Z</time></trkpt><trkpt lat="39.9925968" lon="-2.2909303"><ele>1031.0</ele><time>2026-03-22T12:46:18.154Z</time></trkpt><trkpt lat="39.9926567" lon="-2.2909739"><ele>1029.6666666666665</ele><time>2026-03-22T12:46:21.139Z</time></trkpt><trkpt lat="39.9927479" lon="-2.2909802"><ele>1028.3333333333333</ele><time>2026-03-22T12:46:23.132Z</time></trkpt><trkpt lat="39.9928405" lon="-2.290969"><ele>1027.0</ele><time>2026-03-22T12:46:25.152Z</time></trkpt><trkpt lat="39.9929486" lon="-2.2909709"><ele>1027.0</ele><time>2026-03-22T12:46:27.145Z</time></trkpt><trkpt lat="39.9930558" lon="-2.2909518"><ele>1027.0</ele><time>2026-03-22T12:46:29.142Z</time></trkpt><trkpt lat="39.9931567" lon="-2.2909144"><ele>1027.0</ele><time>2026-03-22T12:46:31.152Z</time></trkpt><trkpt lat="39.9932392" lon="-2.2908923"><ele>1027.0</ele><time>2026-03-22T12:46:33.146Z</time></trkpt><trkpt lat="39.9933073" lon="-2.2908653"><ele>1027.0</ele><time>2026-03-22T12:46:35.147Z</time></trkpt><trkpt lat="39.9933871" lon="-2.2908925"><ele>1023.4000000000001</ele><time>2026-03-22T12:46:37.164Z</time></trkpt><trkpt lat="39.9934444" lon="-2.2909329"><ele>1019.8000000000001</ele><time>2026-03-22T12:46:39.143Z</time></trkpt><trkpt lat="39.9935414" lon="-2.2910348"><ele>1016.2</ele><time>2026-03-22T12:46:41.155Z</time></trkpt><trkpt lat="39.9935906" lon="-2.2910931"><ele>1012.6</ele><time>2026-03-22T12:46:42.155Z</time></trkpt><trkpt lat="39.9936687" lon="-2.2912111"><ele>1009.0</ele><time>2026-03-22T12:46:44.147Z</time></trkpt><trkpt lat="39.9937386" lon="-2.2913373"><ele>1008.9999999999999</ele><time>2026-03-22T12:46:46.153Z</time></trkpt><trkpt lat="39.9937812" lon="-2.2914139"><ele>1009.0</ele><time>2026-03-22T12:46:47.149Z</time></trkpt><trkpt lat="39.9938192" lon="-2.291481"><ele>1009.0</ele><time>2026-03-22T12:46:48.137Z</time></trkpt><trkpt lat="39.9938657" lon="-2.2915438"><ele>1009.0</ele><time>2026-03-22T12:46:49.14Z</time></trkpt><trkpt lat="39.9939205" lon="-2.291603"><ele>1008.9999999999999</ele><time>2026-03-22T12:46:50.145Z</time></trkpt><trkpt lat="39.9940008" lon="-2.2916772"><ele>1009.0</ele><time>2026-03-22T12:46:52.147Z</time></trkpt><trkpt lat="39.9940608" lon="-2.2917493"><ele>1009.1666666666666</ele><time>2026-03-22T12:46:54.158Z</time></trkpt><trkpt lat="39.994186" lon="-2.2918036"><ele>1009.3333333333333</ele><time>2026-03-22T12:46:56.152Z</time></trkpt><trkpt lat="39.9942585" lon="-2.2918055"><ele>1009.5</ele><time>2026-03-22T12:46:57.142Z</time></trkpt><trkpt lat="39.9943425" lon="-2.2917853"><ele>1009.6666666666667</ele><time>2026-03-22T12:46:58.148Z</time></trkpt><trkpt lat="39.9944099" lon="-2.2917784"><ele>1009.8333333333334</ele><time>2026-03-22T12:46:59.139Z</time></trkpt><trkpt lat="39.9944777" lon="-2.2917801"><ele>1010.0</ele><time>2026-03-22T12:47:00.16Z</time></trkpt><trkpt lat="39.994608" lon="-2.2917995"><ele>1010.0</ele><time>2026-03-22T12:47:02.15Z</time></trkpt><trkpt lat="39.99467" lon="-2.291835"><ele>1010.0</ele><time>2026-03-22T12:47:03.141Z</time></trkpt><trkpt lat="39.9947293" lon="-2.2918713"><ele>1010.0</ele><time>2026-03-22T12:47:04.138Z</time></trkpt><trkpt lat="39.9948105" lon="-2.2919663"><ele>1010.0</ele><time>2026-03-22T12:47:06.137Z</time></trkpt><trkpt lat="39.9948949" lon="-2.2920437"><ele>1010.0</ele><time>2026-03-22T12:47:08.141Z</time></trkpt><trkpt lat="39.9949999" lon="-2.2921184"><ele>1009.6</ele><time>2026-03-22T12:47:10.136Z</time></trkpt><trkpt lat="39.9951165" lon="-2.2921891"><ele>1009.2</ele><time>2026-03-22T12:47:12.146Z</time></trkpt><trkpt lat="39.9951991" lon="-2.2922395"><ele>1008.8</ele><time>2026-03-22T12:47:13.154Z</time></trkpt><trkpt lat="39.9952791" lon="-2.2922877"><ele>1008.4</ele><time>2026-03-22T12:47:14.138Z</time></trkpt><trkpt lat="39.9953458" lon="-2.2923397"><ele>1008.0</ele><time>2026-03-22T12:47:15.148Z</time></trkpt><trkpt lat="39.9954134" lon="-2.2923898"><ele>1008.0</ele><time>2026-03-22T12:47:16.134Z</time></trkpt><trkpt lat="39.995483" lon="-2.2924439"><ele>1008.0</ele><time>2026-03-22T12:47:17.133Z</time></trkpt><trkpt lat="39.9955478" lon="-2.2925039"><ele>1008.0</ele><time>2026-03-22T12:47:18.162Z</time></trkpt><trkpt lat="39.9956128" lon="-2.2925699"><ele>1008.0</ele><time>2026-03-22T12:47:19.128Z</time></trkpt><trkpt lat="39.9956807" lon="-2.2926373"><ele>1008.0</ele><time>2026-03-22T12:47:20.14Z</time></trkpt><trkpt lat="39.9957418" lon="-2.2926949"><ele>1008.0</ele><time>2026-03-22T12:47:21.153Z</time></trkpt><trkpt lat="39.99584" lon="-2.2927797"><ele>1008.2</ele><time>2026-03-22T12:47:23.141Z</time></trkpt><trkpt lat="39.9959189" lon="-2.2928243"><ele>1008.4</ele><time>2026-03-22T12:47:25.131Z</time></trkpt><trkpt lat="39.9959915" lon="-2.2928792"><ele>1008.6000000000001</ele><time>2026-03-22T12:47:27.139Z</time></trkpt><trkpt lat="39.9960713" lon="-2.2930007"><ele>1008.8000000000001</ele><time>2026-03-22T12:47:29.167Z</time></trkpt><trkpt lat="39.9961381" lon="-2.2931222"><ele>1009.0</ele><time>2026-03-22T12:47:31.133Z</time></trkpt><trkpt lat="39.9961645" lon="-2.2932487"><ele>1009.0</ele><time>2026-03-22T12:47:33.137Z</time></trkpt><trkpt lat="39.9961909" lon="-2.2933725"><ele>1009.0000000000001</ele><time>2026-03-22T12:47:35.159Z</time></trkpt><trkpt lat="39.9962389" lon="-2.293506"><ele>1009.0000000000001</ele><time>2026-03-22T12:47:37.15Z</time></trkpt><trkpt lat="39.9962808" lon="-2.2935984"><ele>1009.0</ele><time>2026-03-22T12:47:39.137Z</time></trkpt><trkpt lat="39.996324" lon="-2.2936915"><ele>1009.0</ele><time>2026-03-22T12:47:42.162Z</time></trkpt><trkpt lat="39.9964043" lon="-2.2936238"><ele>1008.9999999999999</ele><time>2026-03-22T12:47:46.161Z</time></trkpt><trkpt lat="39.9964121" lon="-2.2935285"><ele>1009.0</ele><time>2026-03-22T12:47:48.143Z</time></trkpt><trkpt lat="39.9963999" lon="-2.2933952"><ele>1009.0</ele><time>2026-03-22T12:47:51.156Z</time></trkpt><trkpt lat="39.9964093" lon="-2.293267"><ele>1009.0</ele><time>2026-03-22T12:47:53.152Z</time></trkpt><trkpt lat="39.9964193" lon="-2.2931547"><ele>1008.9999999999999</ele><time>2026-03-22T12:47:55.142Z</time></trkpt><trkpt lat="39.996409" lon="-2.2930555"><ele>1009.0</ele><time>2026-03-22T12:47:58.153Z</time></trkpt><trkpt lat="39.9963959" lon="-2.2929484"><ele>1007.0</ele><time>2026-03-22T12:48:01.166Z</time></trkpt><trkpt lat="39.9963805" lon="-2.2928242"><ele>1005.0000000000001</ele><time>2026-03-22T12:48:03.154Z</time></trkpt><trkpt lat="39.9963727" lon="-2.2927001"><ele>1003.0000000000001</ele><time>2026-03-22T12:48:05.139Z</time></trkpt><trkpt lat="39.9963586" lon="-2.2925863"><ele>1001.0</ele><time>2026-03-22T12:48:07.157Z</time></trkpt><trkpt lat="39.9963578" lon="-2.2924617"><ele>999.0</ele><time>2026-03-22T12:48:09.144Z</time></trkpt><trkpt lat="39.9963156" lon="-2.2923206"><ele>998.1666666666666</ele><time>2026-03-22T12:48:11.147Z</time></trkpt><trkpt lat="39.9962684" lon="-2.292164"><ele>997.3333333333333</ele><time>2026-03-22T12:48:13.134Z</time></trkpt><trkpt lat="39.9962444" lon="-2.2920805"><ele>996.5</ele><time>2026-03-22T12:48:14.14Z</time></trkpt><trkpt lat="39.9962019" lon="-2.291958"><ele>995.6666666666666</ele><time>2026-03-22T12:48:16.119Z</time></trkpt><trkpt lat="39.9961589" lon="-2.2918688"><ele>994.8333333333333</ele><time>2026-03-22T12:48:18.127Z</time></trkpt><trkpt lat="39.9961323" lon="-2.2917936"><ele>994.0</ele><time>2026-03-22T12:48:20.152Z</time></trkpt><trkpt lat="39.9961096" lon="-2.2916832"><ele>993.9999999999999</ele><time>2026-03-22T12:48:23.138Z</time></trkpt><trkpt lat="39.9961004" lon="-2.2915825"><ele>994.0</ele><time>2026-03-22T12:48:25.139Z</time></trkpt><trkpt lat="39.9960922" lon="-2.2914764"><ele>994.0</ele><time>2026-03-22T12:48:27.155Z</time></trkpt><trkpt lat="39.9961051" lon="-2.2913698"><ele>994.0</ele><time>2026-03-22T12:48:29.152Z</time></trkpt><trkpt lat="39.9961378" lon="-2.291285"><ele>993.9999999999999</ele><time>2026-03-22T12:48:31.144Z</time></trkpt><trkpt lat="39.9961782" lon="-2.2912123"><ele>994.0</ele><time>2026-03-22T12:48:33.143Z</time></trkpt><trkpt lat="39.9962167" lon="-2.2911379"><ele>993.0</ele><time>2026-03-22T12:48:35.149Z</time></trkpt><trkpt lat="39.9962711" lon="-2.2910326"><ele>992.0000000000001</ele><time>2026-03-22T12:48:37.147Z</time></trkpt><trkpt lat="39.9963583" lon="-2.2909627"><ele>991.0000000000001</ele><time>2026-03-22T12:48:39.161Z</time></trkpt><trkpt lat="39.9964402" lon="-2.2908551"><ele>990.0</ele><time>2026-03-22T12:48:41.175Z</time></trkpt><trkpt lat="39.9964838" lon="-2.2907869"><ele>989.0</ele><time>2026-03-22T12:48:42.132Z</time></trkpt><trkpt lat="39.9965927" lon="-2.2906819"><ele>988.6</ele><time>2026-03-22T12:48:44.142Z</time></trkpt><trkpt lat="39.996678" lon="-2.2905927"><ele>988.2</ele><time>2026-03-22T12:48:46.135Z</time></trkpt><trkpt lat="39.9968077" lon="-2.2905272"><ele>987.8000000000001</ele><time>2026-03-22T12:48:48.149Z</time></trkpt><trkpt lat="39.9968719" lon="-2.2905026"><ele>987.4000000000001</ele><time>2026-03-22T12:48:49.148Z</time></trkpt><trkpt lat="39.9969381" lon="-2.2904569"><ele>987.0</ele><time>2026-03-22T12:48:51.157Z</time></trkpt><trkpt lat="39.9970103" lon="-2.290448"><ele>986.5</ele><time>2026-03-22T12:48:53.148Z</time></trkpt><trkpt lat="39.9970738" lon="-2.29041"><ele>986.0</ele><time>2026-03-22T12:48:59.179Z</time></trkpt><trkpt lat="39.9971415" lon="-2.290365"><ele>985.5</ele><time>2026-03-22T12:49:03.147Z</time></trkpt><trkpt lat="39.9972587" lon="-2.2903089"><ele>985.0</ele><time>2026-03-22T12:49:05.155Z</time></trkpt><trkpt lat="39.9973349" lon="-2.2902933"><ele>984.5</ele><time>2026-03-22T12:49:06.144Z</time></trkpt><trkpt lat="39.9974152" lon="-2.2902765"><ele>984.0</ele><time>2026-03-22T12:49:07.133Z</time></trkpt><trkpt lat="39.997507" lon="-2.2903035"><ele>982.2</ele><time>2026-03-22T12:49:08.145Z</time></trkpt><trkpt lat="39.9975917" lon="-2.2903329"><ele>980.4000000000001</ele><time>2026-03-22T12:49:09.186Z</time></trkpt><trkpt lat="39.9976755" lon="-2.2903102"><ele>978.6</ele><time>2026-03-22T12:49:10.15Z</time></trkpt><trkpt lat="39.9977402" lon="-2.2902775"><ele>976.8</ele><time>2026-03-22T12:49:11.147Z</time></trkpt><trkpt lat="39.9978671" lon="-2.2901724"><ele>975.0</ele><time>2026-03-22T12:49:13.154Z</time></trkpt><trkpt lat="39.9979224" lon="-2.2901172"><ele>975.0</ele><time>2026-03-22T12:49:14.15Z</time></trkpt><trkpt lat="39.997982" lon="-2.2900695"><ele>975.0</ele><time>2026-03-22T12:49:15.137Z</time></trkpt><trkpt lat="39.9980726" lon="-2.2899807"><ele>975.0</ele><time>2026-03-22T12:49:17.15Z</time></trkpt><trkpt lat="39.9981583" lon="-2.2899406"><ele>975.0</ele><time>2026-03-22T12:49:19.18Z</time></trkpt><trkpt lat="39.9982506" lon="-2.2899225"><ele>975.0</ele><time>2026-03-22T12:49:21.198Z</time></trkpt><trkpt lat="39.9983555" lon="-2.2899212"><ele>974.2</ele><time>2026-03-22T12:49:23.15Z</time></trkpt><trkpt lat="39.9984558" lon="-2.2899811"><ele>973.4</ele><time>2026-03-22T12:49:25.16Z</time></trkpt><trkpt lat="39.9985575" lon="-2.2900536"><ele>972.5999999999999</ele><time>2026-03-22T12:49:27.124Z</time></trkpt><trkpt lat="39.9986726" lon="-2.2901294"><ele>971.8</ele><time>2026-03-22T12:49:29.202Z</time></trkpt><trkpt lat="39.9987345" lon="-2.290169"><ele>971.0</ele><time>2026-03-22T12:49:30.171Z</time></trkpt><trkpt lat="39.9988025" lon="-2.2902038"><ele>971.0</ele><time>2026-03-22T12:49:31.131Z</time></trkpt><trkpt lat="39.9988723" lon="-2.2902344"><ele>970.9999999999999</ele><time>2026-03-22T12:49:32.236Z</time></trkpt><trkpt lat="39.9989481" lon="-2.290261"><ele>970.9999999999999</ele><time>2026-03-22T12:49:33.167Z</time></trkpt><trkpt lat="39.9990186" lon="-2.2902856"><ele>971.0</ele><time>2026-03-22T12:49:34.155Z</time></trkpt><trkpt lat="39.9991375" lon="-2.2902959"><ele>971.0</ele><time>2026-03-22T12:49:36.174Z</time></trkpt><trkpt lat="39.9992492" lon="-2.2902776"><ele>969.8</ele><time>2026-03-22T12:49:38.166Z</time></trkpt><trkpt lat="39.9993572" lon="-2.2902563"><ele>968.5999999999999</ele><time>2026-03-22T12:49:40.159Z</time></trkpt><trkpt lat="39.9994652" lon="-2.290219"><ele>967.4</ele><time>2026-03-22T12:49:42.204Z</time></trkpt><trkpt lat="39.999579" lon="-2.2901864"><ele>966.2</ele><time>2026-03-22T12:49:44.216Z</time></trkpt><trkpt lat="39.9996537" lon="-2.290169"><ele>965.0</ele><time>2026-03-22T12:49:46.184Z</time></trkpt><trkpt lat="39.9997392" lon="-2.2901307"><ele>965.0</ele><time>2026-03-22T12:49:49.15Z</time></trkpt><trkpt lat="39.9998084" lon="-2.2900164"><ele>965.0</ele><time>2026-03-22T12:49:51.151Z</time></trkpt><trkpt lat="39.9998793" lon="-2.2898672"><ele>965.0</ele><time>2026-03-22T12:49:53.159Z</time></trkpt><trkpt lat="39.9999083" lon="-2.2897732"><ele>965.0</ele><time>2026-03-22T12:49:54.167Z</time></trkpt><trkpt lat="39.999939" lon="-2.289683"><ele>965.0</ele><time>2026-03-22T12:49:55.148Z</time></trkpt><trkpt lat="39.9999783" lon="-2.2896003"><ele>964.5714285714286</ele><time>2026-03-22T12:49:56.148Z</time></trkpt><trkpt lat="40.0000137" lon="-2.2895217"><ele>964.1428571428571</ele><time>2026-03-22T12:49:57.136Z</time></trkpt><trkpt lat="40.0000319" lon="-2.2894341"><ele>963.7142857142857</ele><time>2026-03-22T12:49:58.14Z</time></trkpt><trkpt lat="40.0000526" lon="-2.2893502"><ele>963.2857142857142</ele><time>2026-03-22T12:49:59.142Z</time></trkpt><trkpt lat="40.0000766" lon="-2.2892712"><ele>962.8571428571429</ele><time>2026-03-22T12:50:00.186Z</time></trkpt><trkpt lat="40.0000914" lon="-2.2891874"><ele>962.4285714285713</ele><time>2026-03-22T12:50:01.135Z</time></trkpt><trkpt lat="40.0001194" lon="-2.2890969"><ele>961.9999999999999</ele><time>2026-03-22T12:50:02.141Z</time></trkpt><trkpt lat="40.0001566" lon="-2.2890156"><ele>962.0000000000001</ele><time>2026-03-22T12:50:03.155Z</time></trkpt><trkpt lat="40.0002057" lon="-2.2889506"><ele>962.0</ele><time>2026-03-22T12:50:04.158Z</time></trkpt><trkpt lat="40.0002657" lon="-2.2888865"><ele>962.0</ele><time>2026-03-22T12:50:05.145Z</time></trkpt><trkpt lat="40.0003197" lon="-2.2888136"><ele>962.0</ele><time>2026-03-22T12:50:06.178Z</time></trkpt><trkpt lat="40.0003739" lon="-2.288736"><ele>962.0000000000001</ele><time>2026-03-22T12:50:07.154Z</time></trkpt><trkpt lat="40.0004269" lon="-2.2886484"><ele>962.0</ele><time>2026-03-22T12:50:08.145Z</time></trkpt><trkpt lat="40.0004851" lon="-2.2885668"><ele>962.3333333333334</ele><time>2026-03-22T12:50:09.131Z</time></trkpt><trkpt lat="40.0005319" lon="-2.2884749"><ele>962.6666666666667</ele><time>2026-03-22T12:50:10.14Z</time></trkpt><trkpt lat="40.0005697" lon="-2.2883835"><ele>963.0</ele><time>2026-03-22T12:50:11.138Z</time></trkpt><trkpt lat="40.0005992" lon="-2.2882982"><ele>963.3333333333333</ele><time>2026-03-22T12:50:12.139Z</time></trkpt><trkpt lat="40.0006212" lon="-2.2881544"><ele>963.6666666666666</ele><time>2026-03-22T12:50:14.156Z</time></trkpt><trkpt lat="40.0006695" lon="-2.2881008"><ele>964.0</ele><time>2026-03-22T12:50:17.151Z</time></trkpt><trkpt lat="40.0006059" lon="-2.2880911"><ele>964.0</ele><time>2026-03-22T12:53:05.152Z</time></trkpt><trkpt lat="40.0006702" lon="-2.2881146"><ele>964.0000000000001</ele><time>2026-03-22T12:54:03.16Z</time></trkpt><trkpt lat="40.0007478" lon="-2.2880583"><ele>964.0000000000001</ele><time>2026-03-22T12:54:05.192Z</time></trkpt><trkpt lat="40.000843" lon="-2.2880069"><ele>964.0</ele><time>2026-03-22T12:54:07.14Z</time></trkpt><trkpt lat="40.0009193" lon="-2.28796"><ele>964.0</ele><time>2026-03-22T12:54:09.137Z</time></trkpt><trkpt lat="40.0010254" lon="-2.2878919"><ele>964.3333333333333</ele><time>2026-03-22T12:54:11.157Z</time></trkpt><trkpt lat="40.0011" lon="-2.287821"><ele>964.6666666666666</ele><time>2026-03-22T12:54:12.176Z</time></trkpt><trkpt lat="40.0011666" lon="-2.2877503"><ele>965.0</ele><time>2026-03-22T12:54:13.135Z</time></trkpt><trkpt lat="40.001225" lon="-2.2876721"><ele>965.3333333333333</ele><time>2026-03-22T12:54:14.144Z</time></trkpt><trkpt lat="40.0012819" lon="-2.2875893"><ele>965.6666666666666</ele><time>2026-03-22T12:54:15.129Z</time></trkpt><trkpt lat="40.0013267" lon="-2.2874913"><ele>966.0</ele><time>2026-03-22T12:54:16.138Z</time></trkpt><trkpt lat="40.001363" lon="-2.2873822"><ele>966.0</ele><time>2026-03-22T12:54:17.138Z</time></trkpt><trkpt lat="40.0013911" lon="-2.2872794"><ele>966.0</ele><time>2026-03-22T12:54:18.156Z</time></trkpt><trkpt lat="40.0014216" lon="-2.2871772"><ele>966.0</ele><time>2026-03-22T12:54:19.135Z</time></trkpt><trkpt lat="40.0014505" lon="-2.2870743"><ele>966.0</ele><time>2026-03-22T12:54:20.147Z</time></trkpt><trkpt lat="40.0014682" lon="-2.2869704"><ele>966.0</ele><time>2026-03-22T12:54:21.141Z</time></trkpt><trkpt lat="40.0014841" lon="-2.2868727"><ele>966.0</ele><time>2026-03-22T12:54:22.142Z</time></trkpt><trkpt lat="40.0015095" lon="-2.2867903"><ele>965.1666666666666</ele><time>2026-03-22T12:54:23.152Z</time></trkpt><trkpt lat="40.001533" lon="-2.2867126"><ele>964.3333333333333</ele><time>2026-03-22T12:54:24.155Z</time></trkpt><trkpt lat="40.0015765" lon="-2.2866244"><ele>963.5</ele><time>2026-03-22T12:54:25.169Z</time></trkpt><trkpt lat="40.0015975" lon="-2.2865312"><ele>962.6666666666666</ele><time>2026-03-22T12:54:26.187Z</time></trkpt><trkpt lat="40.0016327" lon="-2.2863901"><ele>961.8333333333333</ele><time>2026-03-22T12:54:28.146Z</time></trkpt><trkpt lat="40.0016303" lon="-2.2862623"><ele>961.0</ele><time>2026-03-22T12:54:30.148Z</time></trkpt><trkpt lat="40.00164" lon="-2.2861673"><ele>957.4</ele><time>2026-03-22T12:54:32.176Z</time></trkpt><trkpt lat="40.0016755" lon="-2.2860597"><ele>953.8</ele><time>2026-03-22T12:54:34.182Z</time></trkpt><trkpt lat="40.0017092" lon="-2.2859379"><ele>950.1999999999999</ele><time>2026-03-22T12:54:36.168Z</time></trkpt><trkpt lat="40.0017372" lon="-2.2857853"><ele>946.5999999999999</ele><time>2026-03-22T12:54:38.151Z</time></trkpt><trkpt lat="40.0017777" lon="-2.2856308"><ele>943.0</ele><time>2026-03-22T12:54:40.139Z</time></trkpt><trkpt lat="40.0018007" lon="-2.2855522"><ele>943.0</ele><time>2026-03-22T12:54:41.14Z</time></trkpt><trkpt lat="40.0018208" lon="-2.285459"><ele>943.0</ele><time>2026-03-22T12:54:42.159Z</time></trkpt><trkpt lat="40.0018615" lon="-2.2853123"><ele>943.0</ele><time>2026-03-22T12:54:44.162Z</time></trkpt><trkpt lat="40.0019027" lon="-2.2851844"><ele>943.0</ele><time>2026-03-22T12:54:46.15Z</time></trkpt><trkpt lat="40.001966" lon="-2.2850317"><ele>943.0</ele><time>2026-03-22T12:54:48.145Z</time></trkpt><trkpt lat="40.0020004" lon="-2.2849513"><ele>942.9999999999999</ele><time>2026-03-22T12:54:49.211Z</time></trkpt><trkpt lat="40.0020417" lon="-2.2848662"><ele>943.0</ele><time>2026-03-22T12:54:50.152Z</time></trkpt><trkpt lat="40.0020884" lon="-2.2847772"><ele>943.0</ele><time>2026-03-22T12:54:51.146Z</time></trkpt><trkpt lat="40.0021338" lon="-2.2846843"><ele>943.0</ele><time>2026-03-22T12:54:52.158Z</time></trkpt><trkpt lat="40.0021759" lon="-2.2845984"><ele>942.9999999999999</ele><time>2026-03-22T12:54:53.177Z</time></trkpt><trkpt lat="40.0022189" lon="-2.2845216"><ele>943.0</ele><time>2026-03-22T12:54:54.15Z</time></trkpt><trkpt lat="40.0022636" lon="-2.2844424"><ele>941.8</ele><time>2026-03-22T12:54:55.145Z</time></trkpt><trkpt lat="40.0022957" lon="-2.2843716"><ele>940.5999999999999</ele><time>2026-03-22T12:54:56.14Z</time></trkpt><trkpt lat="40.002342" lon="-2.2842862"><ele>939.4000000000001</ele><time>2026-03-22T12:54:58.164Z</time></trkpt><trkpt lat="40.0023462" lon="-2.2841842"><ele>938.2</ele><time>2026-03-22T12:55:01.128Z</time></trkpt><trkpt lat="40.0022997" lon="-2.2840502"><ele>937.0</ele><time>2026-03-22T12:55:03.134Z</time></trkpt><trkpt lat="40.0022252" lon="-2.2839203"><ele>936.0</ele><time>2026-03-22T12:55:05.111Z</time></trkpt><trkpt lat="40.0021511" lon="-2.283795"><ele>935.0</ele><time>2026-03-22T12:55:07.142Z</time></trkpt><trkpt lat="40.0020686" lon="-2.2836646"><ele>934.0</ele><time>2026-03-22T12:55:09.136Z</time></trkpt><trkpt lat="40.002025" lon="-2.2835866"><ele>933.0</ele><time>2026-03-22T12:55:10.142Z</time></trkpt><trkpt lat="40.0019768" lon="-2.283505"><ele>932.0</ele><time>2026-03-22T12:55:11.152Z</time></trkpt><trkpt lat="40.0019194" lon="-2.2834151"><ele>932.0</ele><time>2026-03-22T12:55:12.147Z</time></trkpt><trkpt lat="40.001864" lon="-2.2833238"><ele>932.0</ele><time>2026-03-22T12:55:13.129Z</time></trkpt><trkpt lat="40.0018022" lon="-2.2832284"><ele>932.0</ele><time>2026-03-22T12:55:14.129Z</time></trkpt><trkpt lat="40.0017341" lon="-2.283122"><ele>932.0</ele><time>2026-03-22T12:55:15.176Z</time></trkpt><trkpt lat="40.0016682" lon="-2.2830159"><ele>932.0</ele><time>2026-03-22T12:55:16.141Z</time></trkpt><trkpt lat="40.0016109" lon="-2.282915"><ele>932.0</ele><time>2026-03-22T12:55:17.17Z</time></trkpt><trkpt lat="40.0015563" lon="-2.282808"><ele>932.0</ele><time>2026-03-22T12:55:18.157Z</time></trkpt><trkpt lat="40.0015062" lon="-2.2826975"><ele>932.0</ele><time>2026-03-22T12:55:19.147Z</time></trkpt><trkpt lat="40.0014601" lon="-2.2825802"><ele>932.0</ele><time>2026-03-22T12:55:20.142Z</time></trkpt><trkpt lat="40.0014211" lon="-2.2824616"><ele>932.0</ele><time>2026-03-22T12:55:21.131Z</time></trkpt><trkpt lat="40.0013802" lon="-2.2823365"><ele>932.5</ele><time>2026-03-22T12:55:22.139Z</time></trkpt><trkpt lat="40.0013436" lon="-2.2822031"><ele>933.0</ele><time>2026-03-22T12:55:23.148Z</time></trkpt><trkpt lat="40.0013072" lon="-2.2820512"><ele>933.5</ele><time>2026-03-22T12:55:24.145Z</time></trkpt><trkpt lat="40.0012732" lon="-2.2818696"><ele>934.0</ele><time>2026-03-22T12:55:25.136Z</time></trkpt><trkpt lat="40.0012487" lon="-2.2816697"><ele>934.0</ele><time>2026-03-22T12:55:26.147Z</time></trkpt><trkpt lat="40.0012285" lon="-2.2814591"><ele>934.0</ele><time>2026-03-22T12:55:27.158Z</time></trkpt><trkpt lat="40.0012064" lon="-2.2812424"><ele>934.0</ele><time>2026-03-22T12:55:28.136Z</time></trkpt><trkpt lat="40.0011897" lon="-2.2810362"><ele>933.5</ele><time>2026-03-22T12:55:29.149Z</time></trkpt><trkpt lat="40.0011683" lon="-2.2808428"><ele>933.0</ele><time>2026-03-22T12:55:30.139Z</time></trkpt><trkpt lat="40.0011581" lon="-2.2806606"><ele>932.5</ele><time>2026-03-22T12:55:31.139Z</time></trkpt><trkpt lat="40.0011478" lon="-2.2804836"><ele>932.0</ele><time>2026-03-22T12:55:32.142Z</time></trkpt><trkpt lat="40.0011332" lon="-2.2803134"><ele>932.0</ele><time>2026-03-22T12:55:33.13Z</time></trkpt><trkpt lat="40.0011212" lon="-2.2801504"><ele>932.0</ele><time>2026-03-22T12:55:34.149Z</time></trkpt><trkpt lat="40.0011152" lon="-2.2799936"><ele>932.0</ele><time>2026-03-22T12:55:35.132Z</time></trkpt><trkpt lat="40.0011096" lon="-2.2798381"><ele>932.0</ele><time>2026-03-22T12:55:36.124Z</time></trkpt><trkpt lat="40.0010962" lon="-2.2796685"><ele>931.25</ele><time>2026-03-22T12:55:37.14Z</time></trkpt><trkpt lat="40.0010829" lon="-2.2794808"><ele>930.5</ele><time>2026-03-22T12:55:38.135Z</time></trkpt><trkpt lat="40.0010626" lon="-2.2792896"><ele>929.75</ele><time>2026-03-22T12:55:39.147Z</time></trkpt><trkpt lat="40.0010492" lon="-2.2791022"><ele>929.0</ele><time>2026-03-22T12:55:40.136Z</time></trkpt><trkpt lat="40.001046" lon="-2.2789089"><ele>928.6666666666667</ele><time>2026-03-22T12:55:41.131Z</time></trkpt><trkpt lat="40.0010403" lon="-2.2787197"><ele>928.3333333333333</ele><time>2026-03-22T12:55:42.136Z</time></trkpt><trkpt lat="40.001074" lon="-2.2785194"><ele>928.0</ele><time>2026-03-22T12:55:43.137Z</time></trkpt><trkpt lat="40.0011183" lon="-2.2783071"><ele>927.6666666666666</ele><time>2026-03-22T12:55:44.142Z</time></trkpt><trkpt lat="40.0011705" lon="-2.2780862"><ele>927.3333333333333</ele><time>2026-03-22T12:55:45.133Z</time></trkpt><trkpt lat="40.0012125" lon="-2.2778673"><ele>927.0</ele><time>2026-03-22T12:55:46.148Z</time></trkpt><trkpt lat="40.0012404" lon="-2.2776508"><ele>927.0</ele><time>2026-03-22T12:55:47.131Z</time></trkpt><trkpt lat="40.0012599" lon="-2.2774251"><ele>927.0</ele><time>2026-03-22T12:55:48.136Z</time></trkpt><trkpt lat="40.0012802" lon="-2.2771957"><ele>927.0</ele><time>2026-03-22T12:55:49.144Z</time></trkpt><trkpt lat="40.0013015" lon="-2.2769692"><ele>927.0</ele><time>2026-03-22T12:55:50.133Z</time></trkpt><trkpt lat="40.0013439" lon="-2.2767414"><ele>927.0</ele><time>2026-03-22T12:55:51.134Z</time></trkpt><trkpt lat="40.0013721" lon="-2.2765348"><ele>927.0</ele><time>2026-03-22T12:55:52.162Z</time></trkpt><trkpt lat="40.0013994" lon="-2.2763276"><ele>927.3333333333333</ele><time>2026-03-22T12:55:53.142Z</time></trkpt><trkpt lat="40.0014317" lon="-2.276121"><ele>927.6666666666666</ele><time>2026-03-22T12:55:54.133Z</time></trkpt><trkpt lat="40.0014645" lon="-2.2759217"><ele>928.0</ele><time>2026-03-22T12:55:55.13Z</time></trkpt><trkpt lat="40.0015011" lon="-2.2757296"><ele>925.5</ele><time>2026-03-22T12:55:56.138Z</time></trkpt><trkpt lat="40.0015317" lon="-2.2755509"><ele>923.0</ele><time>2026-03-22T12:55:57.13Z</time></trkpt><trkpt lat="40.0015626" lon="-2.2753932"><ele>920.5</ele><time>2026-03-22T12:55:58.153Z</time></trkpt><trkpt lat="40.0015795" lon="-2.2752505"><ele>918.0</ele><time>2026-03-22T12:55:59.139Z</time></trkpt><trkpt lat="40.0015851" lon="-2.2751022"><ele>918.0</ele><time>2026-03-22T12:56:00.138Z</time></trkpt><trkpt lat="40.0015507" lon="-2.2749493"><ele>918.0</ele><time>2026-03-22T12:56:01.142Z</time></trkpt><trkpt lat="40.0014783" lon="-2.2748052"><ele>918.0</ele><time>2026-03-22T12:56:02.143Z</time></trkpt><trkpt lat="40.0013723" lon="-2.2746692"><ele>918.0</ele><time>2026-03-22T12:56:03.143Z</time></trkpt><trkpt lat="40.0012519" lon="-2.2745365"><ele>913.6666666666667</ele><time>2026-03-22T12:56:04.148Z</time></trkpt><trkpt lat="40.0011176" lon="-2.2744094"><ele>909.3333333333334</ele><time>2026-03-22T12:56:05.169Z</time></trkpt><trkpt lat="40.0009849" lon="-2.2742782"><ele>905.0</ele><time>2026-03-22T12:56:06.184Z</time></trkpt><trkpt lat="40.0008489" lon="-2.2741505"><ele>904.0</ele><time>2026-03-22T12:56:07.151Z</time></trkpt><trkpt lat="40.000721" lon="-2.274013"><ele>903.0</ele><time>2026-03-22T12:56:08.137Z</time></trkpt><trkpt lat="40.0006101" lon="-2.2738485"><ele>902.0</ele><time>2026-03-22T12:56:09.153Z</time></trkpt><trkpt lat="40.0005051" lon="-2.2736719"><ele>902.0</ele><time>2026-03-22T12:56:10.131Z</time></trkpt><trkpt lat="40.0003942" lon="-2.2734822"><ele>902.0</ele><time>2026-03-22T12:56:11.134Z</time></trkpt><trkpt lat="40.000276" lon="-2.2732804"><ele>902.0</ele><time>2026-03-22T12:56:12.164Z</time></trkpt><trkpt lat="40.0001481" lon="-2.2730698"><ele>901.0</ele><time>2026-03-22T12:56:13.155Z</time></trkpt><trkpt lat="40.0000156" lon="-2.2728595"><ele>900.0</ele><time>2026-03-22T12:56:14.135Z</time></trkpt><trkpt lat="39.9998864" lon="-2.2726541"><ele>899.0</ele><time>2026-03-22T12:56:15.139Z</time></trkpt><trkpt lat="39.9997639" lon="-2.2724684"><ele>899.0</ele><time>2026-03-22T12:56:16.137Z</time></trkpt><trkpt lat="39.9996493" lon="-2.2722795"><ele>899.0</ele><time>2026-03-22T12:56:17.146Z</time></trkpt><trkpt lat="39.9995403" lon="-2.2720996"><ele>899.0</ele><time>2026-03-22T12:56:18.147Z</time></trkpt><trkpt lat="39.9994273" lon="-2.2718932"><ele>900.6666666666667</ele><time>2026-03-22T12:56:19.143Z</time></trkpt><trkpt lat="39.9993296" lon="-2.2716816"><ele>902.3333333333333</ele><time>2026-03-22T12:56:20.133Z</time></trkpt><trkpt lat="39.9992642" lon="-2.2714383"><ele>904.0</ele><time>2026-03-22T12:56:21.144Z</time></trkpt><trkpt lat="39.9992175" lon="-2.2711913"><ele>905.0</ele><time>2026-03-22T12:56:22.15Z</time></trkpt><trkpt lat="39.999162" lon="-2.2709491"><ele>906.0</ele><time>2026-03-22T12:56:23.162Z</time></trkpt><trkpt lat="39.99912" lon="-2.2707299"><ele>907.0</ele><time>2026-03-22T12:56:24.134Z</time></trkpt><trkpt lat="39.9990794" lon="-2.2705276"><ele>907.0</ele><time>2026-03-22T12:56:25.14Z</time></trkpt><trkpt lat="39.9990366" lon="-2.2703279"><ele>907.0</ele><time>2026-03-22T12:56:26.144Z</time></trkpt><trkpt lat="39.9989913" lon="-2.2701191"><ele>907.0</ele><time>2026-03-22T12:56:27.149Z</time></trkpt><trkpt lat="39.9989377" lon="-2.2699099"><ele>906.3333333333333</ele><time>2026-03-22T12:56:28.139Z</time></trkpt><trkpt lat="39.99889" lon="-2.2696997"><ele>905.6666666666667</ele><time>2026-03-22T12:56:29.137Z</time></trkpt><trkpt lat="39.998838" lon="-2.2694793"><ele>905.0</ele><time>2026-03-22T12:56:30.158Z</time></trkpt><trkpt lat="39.9987911" lon="-2.2692601"><ele>905.0</ele><time>2026-03-22T12:56:31.14Z</time></trkpt><trkpt lat="39.9987503" lon="-2.2690323"><ele>905.0</ele><time>2026-03-22T12:56:32.145Z</time></trkpt><trkpt lat="39.9987077" lon="-2.2687998"><ele>905.0</ele><time>2026-03-22T12:56:33.141Z</time></trkpt><trkpt lat="39.9986691" lon="-2.2685746"><ele>903.3333333333334</ele><time>2026-03-22T12:56:34.137Z</time></trkpt><trkpt lat="39.998622" lon="-2.2683564"><ele>901.6666666666667</ele><time>2026-03-22T12:56:35.148Z</time></trkpt><trkpt lat="39.9985884" lon="-2.2681427"><ele>900.0</ele><time>2026-03-22T12:56:36.134Z</time></trkpt><trkpt lat="39.998552" lon="-2.2679357"><ele>898.6666666666667</ele><time>2026-03-22T12:56:37.135Z</time></trkpt><trkpt lat="39.9985045" lon="-2.26774"><ele>897.3333333333334</ele><time>2026-03-22T12:56:38.159Z</time></trkpt><trkpt lat="39.9984652" lon="-2.2675244"><ele>896.0</ele><time>2026-03-22T12:56:39.137Z</time></trkpt><trkpt lat="39.9984185" lon="-2.2673006"><ele>895.0</ele><time>2026-03-22T12:56:40.126Z</time></trkpt><trkpt lat="39.998364" lon="-2.2670748"><ele>894.0</ele><time>2026-03-22T12:56:41.127Z</time></trkpt><trkpt lat="39.9983052" lon="-2.2668532"><ele>893.0</ele><time>2026-03-22T12:56:42.136Z</time></trkpt><trkpt lat="39.9982521" lon="-2.2666439"><ele>894.0</ele><time>2026-03-22T12:56:43.138Z</time></trkpt><trkpt lat="39.9982203" lon="-2.2664305"><ele>895.0</ele><time>2026-03-22T12:56:44.139Z</time></trkpt><trkpt lat="39.9981833" lon="-2.2662181"><ele>896.0</ele><time>2026-03-22T12:56:45.263Z</time></trkpt><trkpt lat="39.9981038" lon="-2.2658256"><ele>896.0</ele><time>2026-03-22T12:56:47.145Z</time></trkpt><trkpt lat="39.9980799" lon="-2.2656267"><ele>896.0</ele><time>2026-03-22T12:56:48.128Z</time></trkpt><trkpt lat="39.9980735" lon="-2.2654185"><ele>896.0</ele><time>2026-03-22T12:56:49.147Z</time></trkpt><trkpt lat="39.9980973" lon="-2.2651902"><ele>895.6666666666667</ele><time>2026-03-22T12:56:50.154Z</time></trkpt><trkpt lat="39.9981453" lon="-2.2649682"><ele>895.3333333333333</ele><time>2026-03-22T12:56:51.142Z</time></trkpt><trkpt lat="39.9981853" lon="-2.2647467"><ele>895.0</ele><time>2026-03-22T12:56:52.142Z</time></trkpt><trkpt lat="39.9982258" lon="-2.2645367"><ele>894.0</ele><time>2026-03-22T12:56:53.147Z</time></trkpt><trkpt lat="39.9982768" lon="-2.2643279"><ele>893.0</ele><time>2026-03-22T12:56:54.168Z</time></trkpt><trkpt lat="39.9983172" lon="-2.2641426"><ele>892.0</ele><time>2026-03-22T12:56:55.13Z</time></trkpt><trkpt lat="39.99835" lon="-2.263971"><ele>892.5</ele><time>2026-03-22T12:56:56.129Z</time></trkpt><trkpt lat="39.9983621" lon="-2.263807"><ele>893.0</ele><time>2026-03-22T12:56:57.14Z</time></trkpt><trkpt lat="39.9983543" lon="-2.2636429"><ele>893.5</ele><time>2026-03-22T12:56:58.134Z</time></trkpt><trkpt lat="39.9983183" lon="-2.263478"><ele>894.0</ele><time>2026-03-22T12:56:59.132Z</time></trkpt><trkpt lat="39.9982648" lon="-2.2633171"><ele>894.0</ele><time>2026-03-22T12:57:00.162Z</time></trkpt><trkpt lat="39.998196" lon="-2.2631565"><ele>894.0</ele><time>2026-03-22T12:57:01.174Z</time></trkpt><trkpt lat="39.9981159" lon="-2.263002"><ele>894.0</ele><time>2026-03-22T12:57:02.148Z</time></trkpt><trkpt lat="39.9980498" lon="-2.2628446"><ele>894.0</ele><time>2026-03-22T12:57:03.141Z</time></trkpt><trkpt lat="39.9979769" lon="-2.2626931"><ele>895.0</ele><time>2026-03-22T12:57:04.15Z</time></trkpt><trkpt lat="39.997913" lon="-2.2625363"><ele>896.0</ele><time>2026-03-22T12:57:05.169Z</time></trkpt><trkpt lat="39.9978458" lon="-2.2623765"><ele>897.0</ele><time>2026-03-22T12:57:06.15Z</time></trkpt><trkpt lat="39.9977793" lon="-2.2622112"><ele>898.0</ele><time>2026-03-22T12:57:07.144Z</time></trkpt><trkpt lat="39.9977226" lon="-2.2620438"><ele>898.0</ele><time>2026-03-22T12:57:08.167Z</time></trkpt><trkpt lat="39.9976737" lon="-2.2618784"><ele>898.0</ele><time>2026-03-22T12:57:09.126Z</time></trkpt><trkpt lat="39.9976305" lon="-2.2617132"><ele>898.0</ele><time>2026-03-22T12:57:10.148Z</time></trkpt><trkpt lat="39.9975856" lon="-2.261555"><ele>898.0</ele><time>2026-03-22T12:57:11.137Z</time></trkpt><trkpt lat="39.9975419" lon="-2.2614006"><ele>895.5</ele><time>2026-03-22T12:57:12.143Z</time></trkpt><trkpt lat="39.9975" lon="-2.2612537"><ele>893.0</ele><time>2026-03-22T12:57:13.146Z</time></trkpt><trkpt lat="39.9974659" lon="-2.2611011"><ele>890.5</ele><time>2026-03-22T12:57:14.209Z</time></trkpt><trkpt lat="39.9974316" lon="-2.2609628"><ele>888.0</ele><time>2026-03-22T12:57:15.136Z</time></trkpt><trkpt lat="39.9974027" lon="-2.2608352"><ele>888.0</ele><time>2026-03-22T12:57:16.148Z</time></trkpt><trkpt lat="39.9973807" lon="-2.2607458"><ele>888.0</ele><time>2026-03-22T12:57:17.168Z</time></trkpt><trkpt lat="39.9973765" lon="-2.2606345"><ele>888.0</ele><time>2026-03-22T12:57:19.15Z</time></trkpt><trkpt lat="39.9974269" lon="-2.2605687"><ele>888.0</ele><time>2026-03-22T12:57:21.135Z</time></trkpt><trkpt lat="39.997554" lon="-2.260559"><ele>888.0</ele><time>2026-03-22T12:57:23.156Z</time></trkpt><trkpt lat="39.9976443" lon="-2.2605941"><ele>890.0</ele><time>2026-03-22T12:57:24.263Z</time></trkpt><trkpt lat="39.9978488" lon="-2.2606282"><ele>892.0</ele><time>2026-03-22T12:57:26.138Z</time></trkpt><trkpt lat="39.9979599" lon="-2.2606207"><ele>894.0</ele><time>2026-03-22T12:57:27.161Z</time></trkpt><trkpt lat="39.9980625" lon="-2.2606327"><ele>896.0</ele><time>2026-03-22T12:57:28.146Z</time></trkpt><trkpt lat="39.9981593" lon="-2.2606177"><ele>897.4</ele><time>2026-03-22T12:57:29.154Z</time></trkpt><trkpt lat="39.9982508" lon="-2.2606065"><ele>898.8</ele><time>2026-03-22T12:57:30.146Z</time></trkpt><trkpt lat="39.9983518" lon="-2.2605915"><ele>900.1999999999999</ele><time>2026-03-22T12:57:31.133Z</time></trkpt><trkpt lat="39.9984547" lon="-2.2606088"><ele>901.5999999999999</ele><time>2026-03-22T12:57:32.138Z</time></trkpt><trkpt lat="39.9985392" lon="-2.2606381"><ele>903.0</ele><time>2026-03-22T12:57:33.14Z</time></trkpt><trkpt lat="39.9986148" lon="-2.2606636"><ele>903.0</ele><time>2026-03-22T12:57:34.129Z</time></trkpt><trkpt lat="39.9986732" lon="-2.2607146"><ele>903.0</ele><time>2026-03-22T12:57:35.161Z</time></trkpt><trkpt lat="39.9987224" lon="-2.2607976"><ele>903.0</ele><time>2026-03-22T12:57:36.153Z</time></trkpt><trkpt lat="39.9988059" lon="-2.260911"><ele>903.0</ele><time>2026-03-22T12:57:38.135Z</time></trkpt><trkpt lat="39.9988697" lon="-2.2609546"><ele>903.0</ele><time>2026-03-22T12:57:39.142Z</time></trkpt><trkpt lat="39.9989413" lon="-2.2609758"><ele>903.0</ele><time>2026-03-22T12:57:40.147Z</time></trkpt><trkpt lat="39.9990053" lon="-2.2610158"><ele>903.0</ele><time>2026-03-22T12:57:41.143Z</time></trkpt><trkpt lat="39.9990619" lon="-2.2610588"><ele>903.0</ele><time>2026-03-22T12:57:42.143Z</time></trkpt><trkpt lat="39.9991206" lon="-2.2611113"><ele>903.0</ele><time>2026-03-22T12:57:43.137Z</time></trkpt><trkpt lat="39.999175" lon="-2.2611768"><ele>903.0</ele><time>2026-03-22T12:57:44.142Z</time></trkpt><trkpt lat="39.9992274" lon="-2.2612312"><ele>903.0</ele><time>2026-03-22T12:57:45.14Z</time></trkpt><trkpt lat="39.9993032" lon="-2.2612612"><ele>903.0</ele><time>2026-03-22T12:57:46.149Z</time></trkpt><trkpt lat="39.9994065" lon="-2.2613035"><ele>905.0</ele><time>2026-03-22T12:57:48.115Z</time></trkpt><trkpt lat="39.999501" lon="-2.2613357"><ele>907.0</ele><time>2026-03-22T12:57:50.143Z</time></trkpt><trkpt lat="39.9995973" lon="-2.2613792"><ele>909.0</ele><time>2026-03-22T12:57:52.17Z</time></trkpt><trkpt lat="39.9997249" lon="-2.2614111"><ele>911.0</ele><time>2026-03-22T12:57:54.145Z</time></trkpt><trkpt lat="39.999803" lon="-2.2614294"><ele>913.0</ele><time>2026-03-22T12:57:55.134Z</time></trkpt><trkpt lat="39.9998918" lon="-2.261453"><ele>912.9999999999999</ele><time>2026-03-22T12:57:56.132Z</time></trkpt><trkpt lat="39.9999568" lon="-2.261508"><ele>913.0</ele><time>2026-03-22T12:57:57.124Z</time></trkpt><trkpt lat="39.9999959" lon="-2.2616061"><ele>912.9999999999999</ele><time>2026-03-22T12:57:58.128Z</time></trkpt><trkpt lat="40.0000395" lon="-2.2616822"><ele>912.9999999999999</ele><time>2026-03-22T12:57:59.135Z</time></trkpt><trkpt lat="40.0000812" lon="-2.2617495"><ele>913.0</ele><time>2026-03-22T12:58:00.135Z</time></trkpt><trkpt lat="40.0001317" lon="-2.2618118"><ele>912.9999999999999</ele><time>2026-03-22T12:58:01.15Z</time></trkpt><trkpt lat="40.0001648" lon="-2.2618901"><ele>912.9999999999999</ele><time>2026-03-22T12:58:02.135Z</time></trkpt><trkpt lat="40.0002131" lon="-2.2619592"><ele>912.9999999999999</ele><time>2026-03-22T12:58:03.134Z</time></trkpt><trkpt lat="40.0002729" lon="-2.2620107"><ele>913.0</ele><time>2026-03-22T12:58:04.128Z</time></trkpt><trkpt lat="40.0003301" lon="-2.2620599"><ele>913.0</ele><time>2026-03-22T12:58:05.127Z</time></trkpt><trkpt lat="40.0003831" lon="-2.2621186"><ele>913.0</ele><time>2026-03-22T12:58:06.142Z</time></trkpt><trkpt lat="40.0004346" lon="-2.2621694"><ele>912.9999999999999</ele><time>2026-03-22T12:58:07.128Z</time></trkpt><trkpt lat="40.0005655" lon="-2.2622356"><ele>913.0</ele><time>2026-03-22T12:58:09.138Z</time></trkpt><trkpt lat="40.000653" lon="-2.2622425"><ele>913.6666666666666</ele><time>2026-03-22T12:58:10.136Z</time></trkpt><trkpt lat="40.0007374" lon="-2.2623009"><ele>914.3333333333333</ele><time>2026-03-22T12:58:11.135Z</time></trkpt><trkpt lat="40.0008191" lon="-2.2623498"><ele>915.0</ele><time>2026-03-22T12:58:12.141Z</time></trkpt><trkpt lat="40.0008953" lon="-2.2623834"><ele>915.6666666666667</ele><time>2026-03-22T12:58:13.133Z</time></trkpt><trkpt lat="40.0009511" lon="-2.2624373"><ele>916.3333333333334</ele><time>2026-03-22T12:58:14.137Z</time></trkpt><trkpt lat="40.0010248" lon="-2.2624588"><ele>917.0</ele><time>2026-03-22T12:58:15.136Z</time></trkpt><trkpt lat="40.0011034" lon="-2.2624774"><ele>917.1428571428571</ele><time>2026-03-22T12:58:16.144Z</time></trkpt><trkpt lat="40.0011869" lon="-2.2624864"><ele>917.2857142857142</ele><time>2026-03-22T12:58:17.133Z</time></trkpt><trkpt lat="40.0012638" lon="-2.2624867"><ele>917.4285714285714</ele><time>2026-03-22T12:58:18.126Z</time></trkpt><trkpt lat="40.0013346" lon="-2.2624612"><ele>917.5714285714286</ele><time>2026-03-22T12:58:19.137Z</time></trkpt><trkpt lat="40.0014012" lon="-2.2624394"><ele>917.7142857142857</ele><time>2026-03-22T12:58:20.156Z</time></trkpt><trkpt lat="40.0014657" lon="-2.2624344"><ele>917.8571428571429</ele><time>2026-03-22T12:58:21.132Z</time></trkpt><trkpt lat="40.0015445" lon="-2.2624221"><ele>918.0</ele><time>2026-03-22T12:58:22.133Z</time></trkpt><trkpt lat="40.0016235" lon="-2.2624131"><ele>919.5</ele><time>2026-03-22T12:58:23.147Z</time></trkpt><trkpt lat="40.0017046" lon="-2.2624051"><ele>921.0</ele><time>2026-03-22T12:58:24.15Z</time></trkpt><trkpt lat="40.0017938" lon="-2.2623945"><ele>922.5</ele><time>2026-03-22T12:58:25.143Z</time></trkpt><trkpt lat="40.0018835" lon="-2.2623718"><ele>924.0</ele><time>2026-03-22T12:58:26.134Z</time></trkpt><trkpt lat="40.0019585" lon="-2.2623608"><ele>925.5</ele><time>2026-03-22T12:58:27.121Z</time></trkpt><trkpt lat="40.002038" lon="-2.2623603"><ele>927.0</ele><time>2026-03-22T12:58:28.15Z</time></trkpt><trkpt lat="40.0021033" lon="-2.2623811"><ele>927.0</ele><time>2026-03-22T12:58:29.131Z</time></trkpt><trkpt lat="40.002173" lon="-2.2623933"><ele>927.0</ele><time>2026-03-22T12:58:30.148Z</time></trkpt><trkpt lat="40.0022392" lon="-2.2623886"><ele>927.0</ele><time>2026-03-22T12:58:31.122Z</time></trkpt><trkpt lat="40.002334" lon="-2.2624146"><ele>927.0</ele><time>2026-03-22T12:58:33.141Z</time></trkpt><trkpt lat="40.0024151" lon="-2.2624958"><ele>927.0</ele><time>2026-03-22T12:58:35.146Z</time></trkpt><trkpt lat="40.0025039" lon="-2.2624693"><ele>927.0</ele><time>2026-03-22T12:58:37.148Z</time></trkpt><trkpt lat="40.0025217" lon="-2.2623824"><ele>926.9999999999999</ele><time>2026-03-22T12:59:01.155Z</time></trkpt><trkpt lat="40.0024842" lon="-2.2624818"><ele>927.0</ele><time>2026-03-22T13:00:02.156Z</time></trkpt><trkpt lat="40.002445" lon="-2.2625495"><ele>926.9999999999999</ele><time>2026-03-22T13:00:04.141Z</time></trkpt><trkpt lat="40.002371" lon="-2.2625582"><ele>926.9999999999999</ele><time>2026-03-22T13:00:06.144Z</time></trkpt><trkpt lat="40.0023025" lon="-2.2625353"><ele>927.0</ele><time>2026-03-22T13:00:07.142Z</time></trkpt><trkpt lat="40.0022389" lon="-2.2625329"><ele>926.9999999999999</ele><time>2026-03-22T13:00:08.125Z</time></trkpt><trkpt lat="40.002166" lon="-2.2625784"><ele>926.9999999999999</ele><time>2026-03-22T13:00:09.141Z</time></trkpt><trkpt lat="40.0021018" lon="-2.2626138"><ele>927.0</ele><time>2026-03-22T13:00:10.13Z</time></trkpt><trkpt lat="40.0019855" lon="-2.2626181"><ele>927.0</ele><time>2026-03-22T13:00:12.146Z</time></trkpt><trkpt lat="40.0019216" lon="-2.262631"><ele>927.0</ele><time>2026-03-22T13:00:13.156Z</time></trkpt><trkpt lat="40.0018524" lon="-2.2626567"><ele>927.0</ele><time>2026-03-22T13:00:14.147Z</time></trkpt><trkpt lat="40.0017913" lon="-2.2626947"><ele>927.0</ele><time>2026-03-22T13:00:15.184Z</time></trkpt><trkpt lat="40.0017124" lon="-2.2627042"><ele>927.0</ele><time>2026-03-22T13:00:16.119Z</time></trkpt><trkpt lat="40.001637" lon="-2.2627127"><ele>925.5</ele><time>2026-03-22T13:00:17.117Z</time></trkpt><trkpt lat="40.0015348" lon="-2.2627025"><ele>924.0</ele><time>2026-03-22T13:00:18.128Z</time></trkpt><trkpt lat="40.0014472" lon="-2.2627006"><ele>922.5</ele><time>2026-03-22T13:00:19.189Z</time></trkpt><trkpt lat="40.0013265" lon="-2.2626953"><ele>921.0</ele><time>2026-03-22T13:00:21.167Z</time></trkpt><trkpt lat="40.0012595" lon="-2.2627162"><ele>919.5</ele><time>2026-03-22T13:00:22.199Z</time></trkpt><trkpt lat="40.001193" lon="-2.2627346"><ele>918.0</ele><time>2026-03-22T13:00:23.159Z</time></trkpt><trkpt lat="40.0011214" lon="-2.2627403"><ele>918.0</ele><time>2026-03-22T13:00:24.164Z</time></trkpt><trkpt lat="40.0010472" lon="-2.262736"><ele>918.0</ele><time>2026-03-22T13:00:25.145Z</time></trkpt><trkpt lat="40.0009587" lon="-2.2627326"><ele>918.0</ele><time>2026-03-22T13:00:26.13Z</time></trkpt><trkpt lat="40.0008796" lon="-2.262721"><ele>918.0</ele><time>2026-03-22T13:00:27.153Z</time></trkpt><trkpt lat="40.0008071" lon="-2.262695"><ele>918.0</ele><time>2026-03-22T13:00:28.15Z</time></trkpt><trkpt lat="40.000743" lon="-2.2626622"><ele>918.0</ele><time>2026-03-22T13:00:29.148Z</time></trkpt><trkpt lat="40.0006699" lon="-2.2626442"><ele>917.8571428571429</ele><time>2026-03-22T13:00:30.145Z</time></trkpt><trkpt lat="40.0006017" lon="-2.2626001"><ele>917.7142857142857</ele><time>2026-03-22T13:00:31.121Z</time></trkpt><trkpt lat="40.0005342" lon="-2.2625583"><ele>917.5714285714286</ele><time>2026-03-22T13:00:32.14Z</time></trkpt><trkpt lat="40.0004686" lon="-2.2625197"><ele>917.4285714285714</ele><time>2026-03-22T13:00:33.141Z</time></trkpt><trkpt lat="40.0004038" lon="-2.2624809"><ele>917.2857142857142</ele><time>2026-03-22T13:00:34.144Z</time></trkpt><trkpt lat="40.0003443" lon="-2.2624391"><ele>917.1428571428571</ele><time>2026-03-22T13:00:35.149Z</time></trkpt><trkpt lat="40.0002877" lon="-2.2623986"><ele>917.0</ele><time>2026-03-22T13:00:36.162Z</time></trkpt><trkpt lat="40.0002378" lon="-2.26233"><ele>916.3333333333334</ele><time>2026-03-22T13:00:37.147Z</time></trkpt><trkpt lat="40.0001951" lon="-2.2622523"><ele>915.6666666666667</ele><time>2026-03-22T13:00:38.131Z</time></trkpt><trkpt lat="40.0001504" lon="-2.2621913"><ele>915.0</ele><time>2026-03-22T13:00:39.143Z</time></trkpt><trkpt lat="40.0000513" lon="-2.2620949"><ele>914.3333333333333</ele><time>2026-03-22T13:00:41.124Z</time></trkpt><trkpt lat="40.0000092" lon="-2.26201"><ele>913.6666666666666</ele><time>2026-03-22T13:00:42.175Z</time></trkpt><trkpt lat="39.9999718" lon="-2.2619196"><ele>913.0</ele><time>2026-03-22T13:00:43.137Z</time></trkpt><trkpt lat="39.9999289" lon="-2.2618494"><ele>912.9999999999999</ele><time>2026-03-22T13:00:44.134Z</time></trkpt><trkpt lat="39.9998789" lon="-2.261776"><ele>913.0</ele><time>2026-03-22T13:00:45.145Z</time></trkpt><trkpt lat="39.9998269" lon="-2.2616961"><ele>912.9999999999999</ele><time>2026-03-22T13:00:46.155Z</time></trkpt><trkpt lat="39.9997795" lon="-2.2616148"><ele>912.9999999999999</ele><time>2026-03-22T13:00:47.129Z</time></trkpt><trkpt lat="39.9997344" lon="-2.2615392"><ele>913.0</ele><time>2026-03-22T13:00:48.132Z</time></trkpt><trkpt lat="39.9996883" lon="-2.2614774"><ele>912.9999999999999</ele><time>2026-03-22T13:00:49.132Z</time></trkpt><trkpt lat="39.9996318" lon="-2.2614336"><ele>912.9999999999999</ele><time>2026-03-22T13:00:50.145Z</time></trkpt><trkpt lat="39.9995677" lon="-2.2614114"><ele>913.1666666666666</ele><time>2026-03-22T13:00:51.13Z</time></trkpt><trkpt lat="39.9994928" lon="-2.2614036"><ele>913.3333333333333</ele><time>2026-03-22T13:00:52.145Z</time></trkpt><trkpt lat="39.999408" lon="-2.2614021"><ele>913.5</ele><time>2026-03-22T13:00:53.132Z</time></trkpt><trkpt lat="39.9993135" lon="-2.2614063"><ele>913.6666666666667</ele><time>2026-03-22T13:00:54.146Z</time></trkpt><trkpt lat="39.9992248" lon="-2.2613931"><ele>913.8333333333334</ele><time>2026-03-22T13:00:55.141Z</time></trkpt><trkpt lat="39.9991489" lon="-2.2613575"><ele>914.0</ele><time>2026-03-22T13:00:56.159Z</time></trkpt><trkpt lat="39.9990828" lon="-2.2613124"><ele>912.1666666666667</ele><time>2026-03-22T13:00:57.136Z</time></trkpt><trkpt lat="39.9990136" lon="-2.2612585"><ele>910.3333333333334</ele><time>2026-03-22T13:00:58.148Z</time></trkpt><trkpt lat="39.9989514" lon="-2.2611916"><ele>908.5</ele><time>2026-03-22T13:00:59.128Z</time></trkpt><trkpt lat="39.9988875" lon="-2.2611283"><ele>906.6666666666667</ele><time>2026-03-22T13:01:00.146Z</time></trkpt><trkpt lat="39.9988209" lon="-2.2610886"><ele>904.8333333333334</ele><time>2026-03-22T13:01:01.149Z</time></trkpt><trkpt lat="39.9987564" lon="-2.2610553"><ele>903.0</ele><time>2026-03-22T13:01:02.142Z</time></trkpt><trkpt lat="39.9986946" lon="-2.2610118"><ele>903.0</ele><time>2026-03-22T13:01:03.15Z</time></trkpt><trkpt lat="39.9986358" lon="-2.2609548"><ele>903.0</ele><time>2026-03-22T13:01:04.147Z</time></trkpt><trkpt lat="39.9985916" lon="-2.2608673"><ele>903.0</ele><time>2026-03-22T13:01:05.143Z</time></trkpt><trkpt lat="39.9985025" lon="-2.260761"><ele>903.0</ele><time>2026-03-22T13:01:07.135Z</time></trkpt><trkpt lat="39.9984356" lon="-2.2607427"><ele>903.0</ele><time>2026-03-22T13:01:08.134Z</time></trkpt><trkpt lat="39.9983564" lon="-2.2607207"><ele>903.0</ele><time>2026-03-22T13:01:09.146Z</time></trkpt><trkpt lat="39.9982864" lon="-2.2607005"><ele>902.0</ele><time>2026-03-22T13:01:10.139Z</time></trkpt><trkpt lat="39.9982217" lon="-2.2606974"><ele>901.0</ele><time>2026-03-22T13:01:11.135Z</time></trkpt><trkpt lat="39.998151" lon="-2.2607101"><ele>900.0</ele><time>2026-03-22T13:01:12.15Z</time></trkpt><trkpt lat="39.9980865" lon="-2.2607338"><ele>899.0</ele><time>2026-03-22T13:01:13.14Z</time></trkpt><trkpt lat="39.9980111" lon="-2.2607293"><ele>898.0</ele><time>2026-03-22T13:01:14.136Z</time></trkpt><trkpt lat="39.9979351" lon="-2.2607026"><ele>897.0</ele><time>2026-03-22T13:01:15.139Z</time></trkpt><trkpt lat="39.9978521" lon="-2.2606718"><ele>896.0</ele><time>2026-03-22T13:01:16.177Z</time></trkpt><trkpt lat="39.9977642" lon="-2.2606569"><ele>896.0000000000001</ele><time>2026-03-22T13:01:17.136Z</time></trkpt><trkpt lat="39.9976831" lon="-2.2606587"><ele>896.0</ele><time>2026-03-22T13:01:18.154Z</time></trkpt><trkpt lat="39.9976071" lon="-2.2606508"><ele>896.0</ele><time>2026-03-22T13:01:19.168Z</time></trkpt><trkpt lat="39.9975417" lon="-2.2606466"><ele>896.0</ele><time>2026-03-22T13:01:20.142Z</time></trkpt><trkpt lat="39.9974338" lon="-2.2606612"><ele>896.0000000000001</ele><time>2026-03-22T13:01:22.154Z</time></trkpt><trkpt lat="39.9973673" lon="-2.2606434"><ele>896.0</ele><time>2026-03-22T13:01:24.185Z</time></trkpt><trkpt lat="39.9973081" lon="-2.2605331"><ele>895.1999999999999</ele><time>2026-03-22T13:01:26.138Z</time></trkpt><trkpt lat="39.9972806" lon="-2.2604348"><ele>894.3999999999999</ele><time>2026-03-22T13:01:27.154Z</time></trkpt><trkpt lat="39.9972412" lon="-2.2603124"><ele>893.6</ele><time>2026-03-22T13:01:28.119Z</time></trkpt><trkpt lat="39.9971897" lon="-2.2601881"><ele>892.8</ele><time>2026-03-22T13:01:29.141Z</time></trkpt><trkpt lat="39.9971212" lon="-2.2600676"><ele>892.0</ele><time>2026-03-22T13:01:30.167Z</time></trkpt><trkpt lat="39.9970336" lon="-2.2599465"><ele>892.0</ele><time>2026-03-22T13:01:31.129Z</time></trkpt><trkpt lat="39.9969267" lon="-2.2598271"><ele>892.0</ele><time>2026-03-22T13:01:32.154Z</time></trkpt><trkpt lat="39.9968101" lon="-2.2596955"><ele>892.0</ele><time>2026-03-22T13:01:33.182Z</time></trkpt><trkpt lat="39.9966928" lon="-2.2595436"><ele>890.6666666666666</ele><time>2026-03-22T13:01:34.147Z</time></trkpt><trkpt lat="39.9965743" lon="-2.2593958"><ele>889.3333333333333</ele><time>2026-03-22T13:01:35.163Z</time></trkpt><trkpt lat="39.9964442" lon="-2.2592333"><ele>888.0</ele><time>2026-03-22T13:01:36.166Z</time></trkpt><trkpt lat="39.996307" lon="-2.2590658"><ele>889.6666666666667</ele><time>2026-03-22T13:01:37.163Z</time></trkpt><trkpt lat="39.9961614" lon="-2.2589003"><ele>891.3333333333334</ele><time>2026-03-22T13:01:38.155Z</time></trkpt><trkpt lat="39.9960188" lon="-2.2587325"><ele>893.0</ele><time>2026-03-22T13:01:39.165Z</time></trkpt><trkpt lat="39.9958768" lon="-2.2585663"><ele>893.3333333333334</ele><time>2026-03-22T13:01:40.148Z</time></trkpt><trkpt lat="39.995745" lon="-2.2584041"><ele>893.6666666666667</ele><time>2026-03-22T13:01:41.165Z</time></trkpt><trkpt lat="39.9956237" lon="-2.2582527"><ele>894.0</ele><time>2026-03-22T13:01:42.144Z</time></trkpt><trkpt lat="39.995508" lon="-2.2581122"><ele>894.0</ele><time>2026-03-22T13:01:43.151Z</time></trkpt><trkpt lat="39.9953995" lon="-2.2579727"><ele>894.0</ele><time>2026-03-22T13:01:44.126Z</time></trkpt><trkpt lat="39.9952909" lon="-2.2578305"><ele>894.0</ele><time>2026-03-22T13:01:45.141Z</time></trkpt><trkpt lat="39.9951778" lon="-2.2576848"><ele>894.0</ele><time>2026-03-22T13:01:46.132Z</time></trkpt><trkpt lat="39.9950684" lon="-2.2575354"><ele>894.0</ele><time>2026-03-22T13:01:47.13Z</time></trkpt><trkpt lat="39.9949558" lon="-2.2573916"><ele>894.0</ele><time>2026-03-22T13:01:48.142Z</time></trkpt><trkpt lat="39.9948521" lon="-2.2572423"><ele>891.0</ele><time>2026-03-22T13:01:49.171Z</time></trkpt><trkpt lat="39.9947495" lon="-2.2570975"><ele>888.0</ele><time>2026-03-22T13:01:50.153Z</time></trkpt><trkpt lat="39.9946528" lon="-2.256935"><ele>885.0</ele><time>2026-03-22T13:01:51.162Z</time></trkpt><trkpt lat="39.9945548" lon="-2.256758"><ele>885.0</ele><time>2026-03-22T13:01:52.152Z</time></trkpt><trkpt lat="39.9944537" lon="-2.2565436"><ele>885.0</ele><time>2026-03-22T13:01:53.149Z</time></trkpt><trkpt lat="39.9943645" lon="-2.2563121"><ele>885.0</ele><time>2026-03-22T13:01:54.146Z</time></trkpt><trkpt lat="39.9942968" lon="-2.2560713"><ele>884.3333333333333</ele><time>2026-03-22T13:01:55.162Z</time></trkpt><trkpt lat="39.9942305" lon="-2.2558456"><ele>883.6666666666666</ele><time>2026-03-22T13:01:56.143Z</time></trkpt><trkpt lat="39.9941629" lon="-2.2556282"><ele>883.0</ele><time>2026-03-22T13:01:57.17Z</time></trkpt><trkpt lat="39.9940894" lon="-2.2554206"><ele>883.0</ele><time>2026-03-22T13:01:58.158Z</time></trkpt><trkpt lat="39.9940083" lon="-2.2552222"><ele>883.0</ele><time>2026-03-22T13:01:59.171Z</time></trkpt><trkpt lat="39.9939371" lon="-2.2550345"><ele>883.0</ele><time>2026-03-22T13:02:00.141Z</time></trkpt><trkpt lat="39.9938644" lon="-2.2548457"><ele>883.6666666666666</ele><time>2026-03-22T13:02:01.168Z</time></trkpt><trkpt lat="39.9937946" lon="-2.2546624"><ele>884.3333333333333</ele><time>2026-03-22T13:02:02.174Z</time></trkpt><trkpt lat="39.9937294" lon="-2.2544667"><ele>885.0</ele><time>2026-03-22T13:02:03.164Z</time></trkpt><trkpt lat="39.9936912" lon="-2.2542378"><ele>885.0</ele><time>2026-03-22T13:02:04.161Z</time></trkpt><trkpt lat="39.9936397" lon="-2.2540622"><ele>885.0</ele><time>2026-03-22T13:02:05.151Z</time></trkpt><trkpt lat="39.9935775" lon="-2.2538986"><ele>885.0</ele><time>2026-03-22T13:02:06.161Z</time></trkpt><trkpt lat="39.9935192" lon="-2.2537316"><ele>885.0</ele><time>2026-03-22T13:02:07.153Z</time></trkpt><trkpt lat="39.9934603" lon="-2.2535608"><ele>882.5</ele><time>2026-03-22T13:02:08.177Z</time></trkpt><trkpt lat="39.9934004" lon="-2.2533924"><ele>880.0</ele><time>2026-03-22T13:02:09.148Z</time></trkpt><trkpt lat="39.9933372" lon="-2.2532261"><ele>877.5</ele><time>2026-03-22T13:02:10.142Z</time></trkpt><trkpt lat="39.9932677" lon="-2.2530645"><ele>875.0</ele><time>2026-03-22T13:02:11.168Z</time></trkpt><trkpt lat="39.993203" lon="-2.2529048"><ele>873.75</ele><time>2026-03-22T13:02:12.151Z</time></trkpt><trkpt lat="39.993148" lon="-2.2527275"><ele>872.5</ele><time>2026-03-22T13:02:13.132Z</time></trkpt><trkpt lat="39.9930774" lon="-2.2525759"><ele>871.25</ele><time>2026-03-22T13:02:14.143Z</time></trkpt><trkpt lat="39.9929945" lon="-2.2524336"><ele>870.0</ele><time>2026-03-22T13:02:15.147Z</time></trkpt><trkpt lat="39.9928902" lon="-2.2523124"><ele>869.6666666666667</ele><time>2026-03-22T13:02:16.143Z</time></trkpt><trkpt lat="39.9927616" lon="-2.2522187"><ele>869.3333333333334</ele><time>2026-03-22T13:02:17.162Z</time></trkpt><trkpt lat="39.9926309" lon="-2.252119"><ele>869.0</ele><time>2026-03-22T13:02:18.145Z</time></trkpt><trkpt lat="39.9924909" lon="-2.2520297"><ele>870.0</ele><time>2026-03-22T13:02:19.154Z</time></trkpt><trkpt lat="39.9923433" lon="-2.2519434"><ele>871.0</ele><time>2026-03-22T13:02:20.175Z</time></trkpt><trkpt lat="39.9921909" lon="-2.2518705"><ele>872.0</ele><time>2026-03-22T13:02:21.15Z</time></trkpt><trkpt lat="39.9920439" lon="-2.2517904"><ele>872.0</ele><time>2026-03-22T13:02:22.162Z</time></trkpt><trkpt lat="39.9918847" lon="-2.2517143"><ele>872.0</ele><time>2026-03-22T13:02:23.174Z</time></trkpt><trkpt lat="39.9917195" lon="-2.2516626"><ele>872.0</ele><time>2026-03-22T13:02:24.157Z</time></trkpt><trkpt lat="39.9915501" lon="-2.2516256"><ele>873.0</ele><time>2026-03-22T13:02:25.154Z</time></trkpt><trkpt lat="39.9913841" lon="-2.2515983"><ele>874.0</ele><time>2026-03-22T13:02:26.146Z</time></trkpt><trkpt lat="39.9912245" lon="-2.251576"><ele>875.0</ele><time>2026-03-22T13:02:27.139Z</time></trkpt><trkpt lat="39.9910646" lon="-2.2515767"><ele>875.0</ele><time>2026-03-22T13:02:28.142Z</time></trkpt><trkpt lat="39.9908971" lon="-2.2515981"><ele>875.0</ele><time>2026-03-22T13:02:29.154Z</time></trkpt><trkpt lat="39.9907296" lon="-2.2516519"><ele>875.0</ele><time>2026-03-22T13:02:30.141Z</time></trkpt><trkpt lat="39.9905549" lon="-2.2517157"><ele>874.3333333333334</ele><time>2026-03-22T13:02:31.151Z</time></trkpt><trkpt lat="39.9903781" lon="-2.2517798"><ele>873.6666666666667</ele><time>2026-03-22T13:02:32.142Z</time></trkpt><trkpt lat="39.9901994" lon="-2.2518401"><ele>873.0</ele><time>2026-03-22T13:02:33.148Z</time></trkpt><trkpt lat="39.9900188" lon="-2.2518955"><ele>872.6666666666667</ele><time>2026-03-22T13:02:34.187Z</time></trkpt><trkpt lat="39.9898477" lon="-2.2519494"><ele>872.3333333333334</ele><time>2026-03-22T13:02:35.155Z</time></trkpt><trkpt lat="39.9896889" lon="-2.2520108"><ele>872.0</ele><time>2026-03-22T13:02:36.149Z</time></trkpt><trkpt lat="39.989546" lon="-2.2520783"><ele>872.0</ele><time>2026-03-22T13:02:37.142Z</time></trkpt><trkpt lat="39.9894092" lon="-2.2521554"><ele>872.0</ele><time>2026-03-22T13:02:38.144Z</time></trkpt><trkpt lat="39.9892745" lon="-2.2522505"><ele>872.0</ele><time>2026-03-22T13:02:39.173Z</time></trkpt><trkpt lat="39.9891395" lon="-2.2523767"><ele>873.6666666666667</ele><time>2026-03-22T13:02:40.142Z</time></trkpt><trkpt lat="39.9889945" lon="-2.2524994"><ele>875.3333333333333</ele><time>2026-03-22T13:02:41.159Z</time></trkpt><trkpt lat="39.9888488" lon="-2.2526288"><ele>877.0</ele><time>2026-03-22T13:02:42.137Z</time></trkpt><trkpt lat="39.9887075" lon="-2.2527573"><ele>877.0</ele><time>2026-03-22T13:02:43.172Z</time></trkpt><trkpt lat="39.9885736" lon="-2.2528808"><ele>877.0</ele><time>2026-03-22T13:02:44.148Z</time></trkpt><trkpt lat="39.9884373" lon="-2.2529932"><ele>877.0</ele><time>2026-03-22T13:02:45.142Z</time></trkpt><trkpt lat="39.9883128" lon="-2.2531001"><ele>878.75</ele><time>2026-03-22T13:02:46.145Z</time></trkpt><trkpt lat="39.9882033" lon="-2.2531675"><ele>880.5</ele><time>2026-03-22T13:02:47.157Z</time></trkpt><trkpt lat="39.9881012" lon="-2.2532415"><ele>882.25</ele><time>2026-03-22T13:02:48.153Z</time></trkpt><trkpt lat="39.9880019" lon="-2.2533062"><ele>884.0</ele><time>2026-03-22T13:02:49.167Z</time></trkpt><trkpt lat="39.9878948" lon="-2.2533502"><ele>884.0</ele><time>2026-03-22T13:02:50.14Z</time></trkpt><trkpt lat="39.9877797" lon="-2.2533919"><ele>884.0</ele><time>2026-03-22T13:02:51.16Z</time></trkpt><trkpt lat="39.9876507" lon="-2.2534072"><ele>884.0</ele><time>2026-03-22T13:02:52.142Z</time></trkpt><trkpt lat="39.9875044" lon="-2.2534201"><ele>884.0</ele><time>2026-03-22T13:02:53.147Z</time></trkpt><trkpt lat="39.9873467" lon="-2.2534374"><ele>881.0</ele><time>2026-03-22T13:02:54.17Z</time></trkpt><trkpt lat="39.987184" lon="-2.2534525"><ele>878.0</ele><time>2026-03-22T13:02:55.14Z</time></trkpt><trkpt lat="39.9870197" lon="-2.2534641"><ele>875.0</ele><time>2026-03-22T13:02:56.152Z</time></trkpt><trkpt lat="39.9868568" lon="-2.2534691"><ele>875.0</ele><time>2026-03-22T13:02:57.162Z</time></trkpt><trkpt lat="39.9866929" lon="-2.2534658"><ele>875.0</ele><time>2026-03-22T13:02:58.16Z</time></trkpt><trkpt lat="39.9865323" lon="-2.2534686"><ele>875.0</ele><time>2026-03-22T13:02:59.151Z</time></trkpt><trkpt lat="39.9863777" lon="-2.2534833"><ele>874.3333333333334</ele><time>2026-03-22T13:03:00.148Z</time></trkpt><trkpt lat="39.9862241" lon="-2.2534999"><ele>873.6666666666667</ele><time>2026-03-22T13:03:01.152Z</time></trkpt><trkpt lat="39.98607" lon="-2.2535159"><ele>873.0</ele><time>2026-03-22T13:03:02.155Z</time></trkpt><trkpt lat="39.9859173" lon="-2.2535302"><ele>871.6666666666667</ele><time>2026-03-22T13:03:03.135Z</time></trkpt><trkpt lat="39.9857671" lon="-2.2535255"><ele>870.3333333333334</ele><time>2026-03-22T13:03:04.164Z</time></trkpt><trkpt lat="39.985615" lon="-2.2535138"><ele>869.0</ele><time>2026-03-22T13:03:05.164Z</time></trkpt><trkpt lat="39.9854543" lon="-2.2535035"><ele>869.0</ele><time>2026-03-22T13:03:06.149Z</time></trkpt><trkpt lat="39.9852894" lon="-2.2534902"><ele>869.0</ele><time>2026-03-22T13:03:07.162Z</time></trkpt><trkpt lat="39.9851213" lon="-2.2534736"><ele>869.0</ele><time>2026-03-22T13:03:08.131Z</time></trkpt><trkpt lat="39.9849574" lon="-2.2534523"><ele>869.75</ele><time>2026-03-22T13:03:09.153Z</time></trkpt><trkpt lat="39.9848054" lon="-2.2534318"><ele>870.5</ele><time>2026-03-22T13:03:10.175Z</time></trkpt><trkpt lat="39.984671" lon="-2.2533869"><ele>871.25</ele><time>2026-03-22T13:03:11.149Z</time></trkpt><trkpt lat="39.9845401" lon="-2.253357"><ele>872.0</ele><time>2026-03-22T13:03:12.148Z</time></trkpt><trkpt lat="39.9844184" lon="-2.2532892"><ele>872.0</ele><time>2026-03-22T13:03:13.14Z</time></trkpt><trkpt lat="39.9843016" lon="-2.253206"><ele>872.0</ele><time>2026-03-22T13:03:14.18Z</time></trkpt><trkpt lat="39.9841935" lon="-2.253085"><ele>872.0</ele><time>2026-03-22T13:03:15.156Z</time></trkpt><trkpt lat="39.9841053" lon="-2.2529597"><ele>872.0</ele><time>2026-03-22T13:03:16.201Z</time></trkpt><trkpt lat="39.9840236" lon="-2.2528561"><ele>871.5000000000001</ele><time>2026-03-22T13:03:17.134Z</time></trkpt><trkpt lat="39.9839462" lon="-2.2527605"><ele>871.0</ele><time>2026-03-22T13:03:18.157Z</time></trkpt><trkpt lat="39.9838753" lon="-2.2526866"><ele>870.5</ele><time>2026-03-22T13:03:19.142Z</time></trkpt><trkpt lat="39.9838126" lon="-2.2526155"><ele>870.0</ele><time>2026-03-22T13:03:20.141Z</time></trkpt><trkpt lat="39.983753" lon="-2.2525392"><ele>869.5000000000001</ele><time>2026-03-22T13:03:21.151Z</time></trkpt><trkpt lat="39.9836969" lon="-2.2524651"><ele>869.0</ele><time>2026-03-22T13:03:22.181Z</time></trkpt><trkpt lat="39.9836472" lon="-2.2523981"><ele>869.0</ele><time>2026-03-22T13:03:23.15Z</time></trkpt><trkpt lat="39.9835674" lon="-2.2522963"><ele>869.0000000000001</ele><time>2026-03-22T13:03:25.147Z</time></trkpt><trkpt lat="39.9835061" lon="-2.2522325"><ele>869.0000000000001</ele><time>2026-03-22T13:03:27.151Z</time></trkpt><trkpt lat="39.9834068" lon="-2.2521193"><ele>869.0</ele><time>2026-03-22T13:03:32.171Z</time></trkpt><trkpt lat="39.9833783" lon="-2.2519993"><ele>869.0</ele><time>2026-03-22T13:03:34.152Z</time></trkpt><trkpt lat="39.9834237" lon="-2.2519252"><ele>869.1428571428572</ele><time>2026-03-22T13:03:35.151Z</time></trkpt><trkpt lat="39.9834787" lon="-2.2518557"><ele>869.2857142857142</ele><time>2026-03-22T13:03:36.153Z</time></trkpt><trkpt lat="39.9835407" lon="-2.2517862"><ele>869.4285714285714</ele><time>2026-03-22T13:03:37.152Z</time></trkpt><trkpt lat="39.983596" lon="-2.251716"><ele>869.5714285714287</ele><time>2026-03-22T13:03:38.157Z</time></trkpt><trkpt lat="39.9836522" lon="-2.2516634"><ele>869.7142857142858</ele><time>2026-03-22T13:03:39.169Z</time></trkpt><trkpt lat="39.9837149" lon="-2.2516186"><ele>869.8571428571429</ele><time>2026-03-22T13:03:40.152Z</time></trkpt><trkpt lat="39.9837717" lon="-2.2515692"><ele>870.0</ele><time>2026-03-22T13:03:41.155Z</time></trkpt><trkpt lat="39.983854" lon="-2.2514861"><ele>870.0</ele><time>2026-03-22T13:03:43.146Z</time></trkpt><trkpt lat="39.9839328" lon="-2.2514574"><ele>870.0</ele><time>2026-03-22T13:05:25.226Z</time></trkpt><trkpt lat="39.9839555" lon="-2.2513058"><ele>870.0</ele><time>2026-03-22T13:06:19.171Z</time></trkpt><trkpt lat="39.9839458" lon="-2.2511811"><ele>870.0</ele><time>2026-03-22T13:06:20.173Z</time></trkpt><trkpt lat="39.9839506" lon="-2.2510202"><ele>870.0</ele><time>2026-03-22T13:06:21.164Z</time></trkpt><trkpt lat="39.9839648" lon="-2.2508599"><ele>870.75</ele><time>2026-03-22T13:06:22.181Z</time></trkpt><trkpt lat="39.9839687" lon="-2.2506993"><ele>871.5</ele><time>2026-03-22T13:06:23.165Z</time></trkpt><trkpt lat="39.9839734" lon="-2.2505255"><ele>872.25</ele><time>2026-03-22T13:06:24.152Z</time></trkpt><trkpt lat="39.9839937" lon="-2.2503251"><ele>873.0</ele><time>2026-03-22T13:06:25.215Z</time></trkpt><trkpt lat="39.9840023" lon="-2.2501465"><ele>873.0</ele><time>2026-03-22T13:06:26.174Z</time></trkpt><trkpt lat="39.9840084" lon="-2.2499652"><ele>873.0</ele><time>2026-03-22T13:06:27.141Z</time></trkpt><trkpt lat="39.9840226" lon="-2.2497898"><ele>873.0</ele><time>2026-03-22T13:06:28.148Z</time></trkpt><trkpt lat="39.984058" lon="-2.2496281"><ele>873.0</ele><time>2026-03-22T13:06:29.183Z</time></trkpt><trkpt lat="39.9841028" lon="-2.2494502"><ele>872.75</ele><time>2026-03-22T13:06:30.143Z</time></trkpt><trkpt lat="39.9841613" lon="-2.2492784"><ele>872.5</ele><time>2026-03-22T13:06:31.132Z</time></trkpt><trkpt lat="39.9842363" lon="-2.2491216"><ele>872.25</ele><time>2026-03-22T13:06:32.135Z</time></trkpt><trkpt lat="39.9843225" lon="-2.2489817"><ele>872.0</ele><time>2026-03-22T13:06:33.153Z</time></trkpt><trkpt lat="39.9844132" lon="-2.2488449"><ele>873.0</ele><time>2026-03-22T13:06:34.14Z</time></trkpt><trkpt lat="39.984524" lon="-2.2487348"><ele>874.0</ele><time>2026-03-22T13:06:35.155Z</time></trkpt><trkpt lat="39.9846414" lon="-2.2486181"><ele>875.0</ele><time>2026-03-22T13:06:36.154Z</time></trkpt><trkpt lat="39.9847554" lon="-2.2484907"><ele>876.0</ele><time>2026-03-22T13:06:37.143Z</time></trkpt><trkpt lat="39.9848695" lon="-2.2483537"><ele>876.0</ele><time>2026-03-22T13:06:38.149Z</time></trkpt><trkpt lat="39.9849916" lon="-2.2482185"><ele>876.0</ele><time>2026-03-22T13:06:39.159Z</time></trkpt><trkpt lat="39.9851186" lon="-2.2480884"><ele>876.0</ele><time>2026-03-22T13:06:40.14Z</time></trkpt><trkpt lat="39.9852473" lon="-2.247963"><ele>876.0</ele><time>2026-03-22T13:06:41.137Z</time></trkpt><trkpt lat="39.9853729" lon="-2.2478418"><ele>876.0</ele><time>2026-03-22T13:06:42.139Z</time></trkpt><trkpt lat="39.9855001" lon="-2.2477408"><ele>876.0</ele><time>2026-03-22T13:06:43.132Z</time></trkpt><trkpt lat="39.9856334" lon="-2.2476548"><ele>876.0</ele><time>2026-03-22T13:06:44.158Z</time></trkpt><trkpt lat="39.9857783" lon="-2.2476323"><ele>876.0</ele><time>2026-03-22T13:06:45.147Z</time></trkpt><trkpt lat="39.9859143" lon="-2.2476381"><ele>876.0</ele><time>2026-03-22T13:06:46.164Z</time></trkpt><trkpt lat="39.9860602" lon="-2.2476414"><ele>876.0</ele><time>2026-03-22T13:06:47.143Z</time></trkpt><trkpt lat="39.9862092" lon="-2.2476468"><ele>878.0</ele><time>2026-03-22T13:06:48.146Z</time></trkpt><trkpt lat="39.9863605" lon="-2.2476489"><ele>880.0</ele><time>2026-03-22T13:06:49.137Z</time></trkpt><trkpt lat="39.9864906" lon="-2.2476302"><ele>882.0</ele><time>2026-03-22T13:06:50.138Z</time></trkpt><trkpt lat="39.9865931" lon="-2.2476195"><ele>884.0</ele><time>2026-03-22T13:06:51.148Z</time></trkpt><trkpt lat="39.9866749" lon="-2.247609"><ele>885.0000000000001</ele><time>2026-03-22T13:06:52.145Z</time></trkpt><trkpt lat="39.9867481" lon="-2.2475755"><ele>886.0</ele><time>2026-03-22T13:06:53.14Z</time></trkpt><trkpt lat="39.9868151" lon="-2.2475352"><ele>887.0</ele><time>2026-03-22T13:06:54.155Z</time></trkpt><trkpt lat="39.9869075" lon="-2.2474995"><ele>888.0</ele><time>2026-03-22T13:06:56.165Z</time></trkpt><trkpt lat="39.9869796" lon="-2.2474885"><ele>889.0000000000001</ele><time>2026-03-22T13:06:58.154Z</time></trkpt><trkpt lat="39.987051" lon="-2.2475148"><ele>890.0</ele><time>2026-03-22T13:06:59.143Z</time></trkpt><trkpt lat="39.9871209" lon="-2.2475753"><ele>890.0</ele><time>2026-03-22T13:07:00.174Z</time></trkpt><trkpt lat="39.9872053" lon="-2.2476277"><ele>890.0</ele><time>2026-03-22T13:07:01.138Z</time></trkpt><trkpt lat="39.9873021" lon="-2.2476502"><ele>890.0</ele><time>2026-03-22T13:07:02.137Z</time></trkpt><trkpt lat="39.9874257" lon="-2.2476581"><ele>890.0</ele><time>2026-03-22T13:07:03.128Z</time></trkpt><trkpt lat="39.9875526" lon="-2.2476536"><ele>890.0</ele><time>2026-03-22T13:07:04.119Z</time></trkpt><trkpt lat="39.9876703" lon="-2.2476415"><ele>890.75</ele><time>2026-03-22T13:07:05.148Z</time></trkpt><trkpt lat="39.987795" lon="-2.2476154"><ele>891.5</ele><time>2026-03-22T13:07:06.142Z</time></trkpt><trkpt lat="39.9879326" lon="-2.247579"><ele>892.25</ele><time>2026-03-22T13:07:07.151Z</time></trkpt><trkpt lat="39.988091" lon="-2.2475175"><ele>893.0</ele><time>2026-03-22T13:07:08.149Z</time></trkpt><trkpt lat="39.9882267" lon="-2.247391"><ele>893.6666666666667</ele><time>2026-03-22T13:07:09.202Z</time></trkpt><trkpt lat="39.9883548" lon="-2.2472453"><ele>894.3333333333333</ele><time>2026-03-22T13:07:10.204Z</time></trkpt><trkpt lat="39.9884905" lon="-2.2471185"><ele>895.0</ele><time>2026-03-22T13:07:11.161Z</time></trkpt><trkpt lat="39.9886365" lon="-2.247029"><ele>895.0</ele><time>2026-03-22T13:07:12.145Z</time></trkpt><trkpt lat="39.9887993" lon="-2.2469476"><ele>895.0</ele><time>2026-03-22T13:07:13.158Z</time></trkpt><trkpt lat="39.9889824" lon="-2.2468867"><ele>895.0</ele><time>2026-03-22T13:07:14.166Z</time></trkpt><trkpt lat="39.9891659" lon="-2.2468289"><ele>895.3333333333333</ele><time>2026-03-22T13:07:15.193Z</time></trkpt><trkpt lat="39.9893452" lon="-2.246758"><ele>895.6666666666667</ele><time>2026-03-22T13:07:16.152Z</time></trkpt><trkpt lat="39.9895293" lon="-2.2466726"><ele>896.0</ele><time>2026-03-22T13:07:17.147Z</time></trkpt><trkpt lat="39.9897153" lon="-2.2465823"><ele>896.0</ele><time>2026-03-22T13:07:18.19Z</time></trkpt><trkpt lat="39.9899" lon="-2.2464853"><ele>896.0</ele><time>2026-03-22T13:07:19.144Z</time></trkpt><trkpt lat="39.990078" lon="-2.246385"><ele>896.0</ele><time>2026-03-22T13:07:20.134Z</time></trkpt><trkpt lat="39.990251" lon="-2.2462979"><ele>897.0</ele><time>2026-03-22T13:07:21.171Z</time></trkpt><trkpt lat="39.9904169" lon="-2.2462093"><ele>898.0</ele><time>2026-03-22T13:07:22.172Z</time></trkpt><trkpt lat="39.9905763" lon="-2.2461064"><ele>899.0</ele><time>2026-03-22T13:07:23.188Z</time></trkpt><trkpt lat="39.9907299" lon="-2.2460049"><ele>898.6666666666667</ele><time>2026-03-22T13:07:24.15Z</time></trkpt><trkpt lat="39.9908803" lon="-2.2458857"><ele>898.3333333333333</ele><time>2026-03-22T13:07:25.141Z</time></trkpt><trkpt lat="39.9910183" lon="-2.2457456"><ele>898.0</ele><time>2026-03-22T13:07:26.159Z</time></trkpt><trkpt lat="39.9911474" lon="-2.2456073"><ele>899.3333333333333</ele><time>2026-03-22T13:07:27.149Z</time></trkpt><trkpt lat="39.9912751" lon="-2.2454645"><ele>900.6666666666667</ele><time>2026-03-22T13:07:28.147Z</time></trkpt><trkpt lat="39.9914041" lon="-2.2453351"><ele>902.0</ele><time>2026-03-22T13:07:29.145Z</time></trkpt><trkpt lat="39.991529" lon="-2.245217"><ele>902.0</ele><time>2026-03-22T13:07:30.138Z</time></trkpt><trkpt lat="39.9916508" lon="-2.2450852"><ele>902.0</ele><time>2026-03-22T13:07:31.197Z</time></trkpt><trkpt lat="39.9917625" lon="-2.2449456"><ele>902.0</ele><time>2026-03-22T13:07:32.153Z</time></trkpt><trkpt lat="39.991832" lon="-2.244772"><ele>901.0</ele><time>2026-03-22T13:07:33.151Z</time></trkpt><trkpt lat="39.9918748" lon="-2.2445916"><ele>900.0</ele><time>2026-03-22T13:07:34.132Z</time></trkpt><trkpt lat="39.9919043" lon="-2.2444002"><ele>899.0</ele><time>2026-03-22T13:07:35.164Z</time></trkpt><trkpt lat="39.9919003" lon="-2.2442012"><ele>898.0</ele><time>2026-03-22T13:07:36.145Z</time></trkpt><trkpt lat="39.9918926" lon="-2.2439923"><ele>897.6666666666666</ele><time>2026-03-22T13:07:37.143Z</time></trkpt><trkpt lat="39.9918855" lon="-2.243765"><ele>897.3333333333333</ele><time>2026-03-22T13:07:38.151Z</time></trkpt><trkpt lat="39.9918801" lon="-2.2435277"><ele>897.0</ele><time>2026-03-22T13:07:39.163Z</time></trkpt><trkpt lat="39.991883" lon="-2.2432911"><ele>897.6666666666667</ele><time>2026-03-22T13:07:40.153Z</time></trkpt><trkpt lat="39.9918884" lon="-2.243065"><ele>898.3333333333334</ele><time>2026-03-22T13:07:41.151Z</time></trkpt><trkpt lat="39.9919034" lon="-2.242828"><ele>899.0</ele><time>2026-03-22T13:07:42.155Z</time></trkpt><trkpt lat="39.991912" lon="-2.2425825"><ele>899.0</ele><time>2026-03-22T13:07:43.189Z</time></trkpt><trkpt lat="39.9919208" lon="-2.2423367"><ele>899.0</ele><time>2026-03-22T13:07:44.181Z</time></trkpt><trkpt lat="39.9919291" lon="-2.2420988"><ele>899.0</ele><time>2026-03-22T13:07:45.145Z</time></trkpt><trkpt lat="39.9919438" lon="-2.2418609"><ele>899.0</ele><time>2026-03-22T13:07:46.144Z</time></trkpt><trkpt lat="39.9919646" lon="-2.24163"><ele>899.0</ele><time>2026-03-22T13:07:47.133Z</time></trkpt><trkpt lat="39.9920031" lon="-2.2414172"><ele>899.0</ele><time>2026-03-22T13:07:48.164Z</time></trkpt><trkpt lat="39.9920499" lon="-2.2412024"><ele>900.5</ele><time>2026-03-22T13:07:49.154Z</time></trkpt><trkpt lat="39.9921074" lon="-2.2409875"><ele>902.0</ele><time>2026-03-22T13:07:50.159Z</time></trkpt><trkpt lat="39.9922612" lon="-2.2405726"><ele>902.6666666666667</ele><time>2026-03-22T13:07:52.155Z</time></trkpt><trkpt lat="39.99235" lon="-2.2403662"><ele>903.3333333333333</ele><time>2026-03-22T13:07:53.161Z</time></trkpt><trkpt lat="39.9924374" lon="-2.2401591"><ele>904.0</ele><time>2026-03-22T13:07:54.195Z</time></trkpt><trkpt lat="39.9925333" lon="-2.2399551"><ele>904.3333333333333</ele><time>2026-03-22T13:07:55.173Z</time></trkpt><trkpt lat="39.9926285" lon="-2.2397527"><ele>904.6666666666667</ele><time>2026-03-22T13:07:56.163Z</time></trkpt><trkpt lat="39.9927215" lon="-2.2395565"><ele>905.0</ele><time>2026-03-22T13:07:57.146Z</time></trkpt><trkpt lat="39.9928178" lon="-2.2393598"><ele>905.0</ele><time>2026-03-22T13:07:58.155Z</time></trkpt><trkpt lat="39.9929086" lon="-2.2391616"><ele>905.0</ele><time>2026-03-22T13:07:59.154Z</time></trkpt><trkpt lat="39.9929978" lon="-2.2389695"><ele>905.0</ele><time>2026-03-22T13:08:00.183Z</time></trkpt><trkpt lat="39.9931019" lon="-2.2387786"><ele>906.6666666666667</ele><time>2026-03-22T13:08:01.176Z</time></trkpt><trkpt lat="39.9932148" lon="-2.2386012"><ele>908.3333333333333</ele><time>2026-03-22T13:08:02.185Z</time></trkpt><trkpt lat="39.9933411" lon="-2.2384333"><ele>910.0</ele><time>2026-03-22T13:08:03.184Z</time></trkpt><trkpt lat="39.9934737" lon="-2.2382809"><ele>911.3333333333333</ele><time>2026-03-22T13:08:04.159Z</time></trkpt><trkpt lat="39.9936221" lon="-2.2381447"><ele>912.6666666666667</ele><time>2026-03-22T13:08:05.188Z</time></trkpt><trkpt lat="39.9937845" lon="-2.2380162"><ele>914.0</ele><time>2026-03-22T13:08:06.147Z</time></trkpt><trkpt lat="39.993959" lon="-2.2379027"><ele>914.0</ele><time>2026-03-22T13:08:07.153Z</time></trkpt><trkpt lat="39.9941345" lon="-2.2378151"><ele>914.0</ele><time>2026-03-22T13:08:08.142Z</time></trkpt><trkpt lat="39.9943052" lon="-2.2377246"><ele>914.0</ele><time>2026-03-22T13:08:09.167Z</time></trkpt><trkpt lat="39.994492" lon="-2.2376445"><ele>915.3333333333334</ele><time>2026-03-22T13:08:10.173Z</time></trkpt><trkpt lat="39.9946924" lon="-2.2375887"><ele>916.6666666666667</ele><time>2026-03-22T13:08:11.143Z</time></trkpt><trkpt lat="39.9948911" lon="-2.2375436"><ele>918.0</ele><time>2026-03-22T13:08:12.163Z</time></trkpt><trkpt lat="39.9950899" lon="-2.2374928"><ele>919.3333333333333</ele><time>2026-03-22T13:08:13.159Z</time></trkpt><trkpt lat="39.9952935" lon="-2.2374329"><ele>920.6666666666666</ele><time>2026-03-22T13:08:14.167Z</time></trkpt><trkpt lat="39.9954827" lon="-2.2373834"><ele>922.0</ele><time>2026-03-22T13:08:15.206Z</time></trkpt><trkpt lat="39.9956695" lon="-2.2373335"><ele>921.6666666666666</ele><time>2026-03-22T13:08:16.152Z</time></trkpt><trkpt lat="39.9958552" lon="-2.2372852"><ele>921.3333333333333</ele><time>2026-03-22T13:08:17.152Z</time></trkpt><trkpt lat="39.9960427" lon="-2.2372385"><ele>921.0</ele><time>2026-03-22T13:08:18.147Z</time></trkpt><trkpt lat="39.9962252" lon="-2.2371921"><ele>921.0</ele><time>2026-03-22T13:08:19.131Z</time></trkpt><trkpt lat="39.9964076" lon="-2.2371476"><ele>921.0</ele><time>2026-03-22T13:08:20.146Z</time></trkpt><trkpt lat="39.9965885" lon="-2.2371027"><ele>921.0</ele><time>2026-03-22T13:08:21.151Z</time></trkpt><trkpt lat="39.9967698" lon="-2.2370568"><ele>919.6666666666667</ele><time>2026-03-22T13:08:22.161Z</time></trkpt><trkpt lat="39.9969535" lon="-2.2370103"><ele>918.3333333333334</ele><time>2026-03-22T13:08:23.169Z</time></trkpt><trkpt lat="39.997139" lon="-2.2369648"><ele>917.0</ele><time>2026-03-22T13:08:24.163Z</time></trkpt><trkpt lat="39.9973256" lon="-2.2369205"><ele>915.6666666666667</ele><time>2026-03-22T13:08:25.157Z</time></trkpt><trkpt lat="39.9975089" lon="-2.2368778"><ele>914.3333333333333</ele><time>2026-03-22T13:08:26.169Z</time></trkpt><trkpt lat="39.9976832" lon="-2.2368364"><ele>913.0</ele><time>2026-03-22T13:08:27.152Z</time></trkpt><trkpt lat="39.9978618" lon="-2.2367971"><ele>913.0</ele><time>2026-03-22T13:08:28.13Z</time></trkpt><trkpt lat="39.9980462" lon="-2.2367584"><ele>913.0</ele><time>2026-03-22T13:08:29.197Z</time></trkpt><trkpt lat="39.9982294" lon="-2.2367128"><ele>913.0</ele><time>2026-03-22T13:08:30.167Z</time></trkpt><trkpt lat="39.9984149" lon="-2.236667"><ele>912.6666666666666</ele><time>2026-03-22T13:08:31.132Z</time></trkpt><trkpt lat="39.9986011" lon="-2.2366218"><ele>912.3333333333333</ele><time>2026-03-22T13:08:32.191Z</time></trkpt><trkpt lat="39.9987871" lon="-2.2365789"><ele>912.0</ele><time>2026-03-22T13:08:33.157Z</time></trkpt><trkpt lat="39.9989713" lon="-2.2365362"><ele>912.0</ele><time>2026-03-22T13:08:34.153Z</time></trkpt><trkpt lat="39.9991552" lon="-2.2364921"><ele>912.0</ele><time>2026-03-22T13:08:35.151Z</time></trkpt><trkpt lat="39.9993372" lon="-2.2364483"><ele>912.0</ele><time>2026-03-22T13:08:36.154Z</time></trkpt><trkpt lat="39.999528" lon="-2.2364058"><ele>913.0</ele><time>2026-03-22T13:08:37.163Z</time></trkpt><trkpt lat="39.9997156" lon="-2.2363631"><ele>914.0</ele><time>2026-03-22T13:08:38.144Z</time></trkpt><trkpt lat="39.9999017" lon="-2.2363214"><ele>915.0</ele><time>2026-03-22T13:08:39.146Z</time></trkpt><trkpt lat="40.0000839" lon="-2.2362747"><ele>915.0</ele><time>2026-03-22T13:08:40.143Z</time></trkpt><trkpt lat="40.0002624" lon="-2.2362197"><ele>915.0</ele><time>2026-03-22T13:08:41.156Z</time></trkpt><trkpt lat="40.0004261" lon="-2.2361341"><ele>915.0</ele><time>2026-03-22T13:08:42.157Z</time></trkpt><trkpt lat="40.0005883" lon="-2.2360278"><ele>915.0</ele><time>2026-03-22T13:08:43.172Z</time></trkpt><trkpt lat="40.0007501" lon="-2.2359153"><ele>915.0</ele><time>2026-03-22T13:08:44.168Z</time></trkpt><trkpt lat="40.0009063" lon="-2.2357876"><ele>915.0</ele><time>2026-03-22T13:08:45.16Z</time></trkpt><trkpt lat="40.0010707" lon="-2.2356111"><ele>914.0</ele><time>2026-03-22T13:08:46.155Z</time></trkpt><trkpt lat="40.0012183" lon="-2.2354075"><ele>913.0</ele><time>2026-03-22T13:08:47.154Z</time></trkpt><trkpt lat="40.0013543" lon="-2.235192"><ele>912.0</ele><time>2026-03-22T13:08:48.145Z</time></trkpt><trkpt lat="40.0014805" lon="-2.2349529"><ele>912.0</ele><time>2026-03-22T13:08:49.172Z</time></trkpt><trkpt lat="40.0015948" lon="-2.2346998"><ele>912.0</ele><time>2026-03-22T13:08:50.183Z</time></trkpt><trkpt lat="40.0017089" lon="-2.2344383"><ele>912.0</ele><time>2026-03-22T13:08:51.157Z</time></trkpt><trkpt lat="40.0018281" lon="-2.234176"><ele>912.0</ele><time>2026-03-22T13:08:52.155Z</time></trkpt><trkpt lat="40.0019491" lon="-2.2339151"><ele>913.0</ele><time>2026-03-22T13:08:53.154Z</time></trkpt><trkpt lat="40.0020873" lon="-2.2336762"><ele>914.0</ele><time>2026-03-22T13:08:54.165Z</time></trkpt><trkpt lat="40.0022498" lon="-2.2334744"><ele>914.0</ele><time>2026-03-22T13:08:55.147Z</time></trkpt><trkpt lat="40.002378" lon="-2.2332297"><ele>914.0</ele><time>2026-03-22T13:08:56.147Z</time></trkpt><trkpt lat="40.0025015" lon="-2.23298"><ele>911.5</ele><time>2026-03-22T13:08:57.179Z</time></trkpt><trkpt lat="40.0026296" lon="-2.2327393"><ele>909.0</ele><time>2026-03-22T13:08:58.135Z</time></trkpt><trkpt lat="40.0027667" lon="-2.2325048"><ele>910.0</ele><time>2026-03-22T13:08:59.164Z</time></trkpt><trkpt lat="40.0028906" lon="-2.232267"><ele>911.0</ele><time>2026-03-22T13:09:00.218Z</time></trkpt><trkpt lat="40.0030097" lon="-2.2320306"><ele>912.0</ele><time>2026-03-22T13:09:01.145Z</time></trkpt><trkpt lat="40.0031189" lon="-2.23179"><ele>912.0</ele><time>2026-03-22T13:09:02.162Z</time></trkpt><trkpt lat="40.0032197" lon="-2.2315467"><ele>912.0</ele><time>2026-03-22T13:09:03.16Z</time></trkpt><trkpt lat="40.0033093" lon="-2.231299"><ele>912.0</ele><time>2026-03-22T13:09:04.154Z</time></trkpt><trkpt lat="40.0033954" lon="-2.2310548"><ele>910.3333333333333</ele><time>2026-03-22T13:09:05.153Z</time></trkpt><trkpt lat="40.0034876" lon="-2.230808"><ele>908.6666666666666</ele><time>2026-03-22T13:09:06.16Z</time></trkpt><trkpt lat="40.0035805" lon="-2.2305588"><ele>907.0</ele><time>2026-03-22T13:09:07.156Z</time></trkpt><trkpt lat="40.0036734" lon="-2.2303051"><ele>907.0</ele><time>2026-03-22T13:09:08.14Z</time></trkpt><trkpt lat="40.003766" lon="-2.2300536"><ele>907.0</ele><time>2026-03-22T13:09:09.148Z</time></trkpt><trkpt lat="40.0038571" lon="-2.2298022"><ele>907.0</ele><time>2026-03-22T13:09:10.139Z</time></trkpt><trkpt lat="40.0039573" lon="-2.2295525"><ele>907.0</ele><time>2026-03-22T13:09:11.15Z</time></trkpt><trkpt lat="40.0040536" lon="-2.2293045"><ele>907.0</ele><time>2026-03-22T13:09:12.154Z</time></trkpt><trkpt lat="40.0041569" lon="-2.2290565"><ele>907.0</ele><time>2026-03-22T13:09:13.197Z</time></trkpt><trkpt lat="40.0042573" lon="-2.2288101"><ele>907.0</ele><time>2026-03-22T13:09:14.15Z</time></trkpt><trkpt lat="40.0043529" lon="-2.2285664"><ele>907.0</ele><time>2026-03-22T13:09:15.158Z</time></trkpt><trkpt lat="40.0044457" lon="-2.2283203"><ele>907.0</ele><time>2026-03-22T13:09:16.202Z</time></trkpt><trkpt lat="40.0045382" lon="-2.2280721"><ele>906.6666666666666</ele><time>2026-03-22T13:09:17.172Z</time></trkpt><trkpt lat="40.0046334" lon="-2.2278157"><ele>906.3333333333333</ele><time>2026-03-22T13:09:18.144Z</time></trkpt><trkpt lat="40.0047206" lon="-2.2275573"><ele>906.0</ele><time>2026-03-22T13:09:19.174Z</time></trkpt><trkpt lat="40.0048183" lon="-2.2272969"><ele>905.0</ele><time>2026-03-22T13:09:20.13Z</time></trkpt><trkpt lat="40.0049075" lon="-2.227042"><ele>904.0</ele><time>2026-03-22T13:09:21.151Z</time></trkpt><trkpt lat="40.0049937" lon="-2.226789"><ele>903.0</ele><time>2026-03-22T13:09:22.166Z</time></trkpt><trkpt lat="40.0050791" lon="-2.226542"><ele>903.3333333333333</ele><time>2026-03-22T13:09:23.144Z</time></trkpt><trkpt lat="40.0051619" lon="-2.2262954"><ele>903.6666666666666</ele><time>2026-03-22T13:09:24.148Z</time></trkpt><trkpt lat="40.0052451" lon="-2.2260506"><ele>904.0</ele><time>2026-03-22T13:09:25.154Z</time></trkpt><trkpt lat="40.0053327" lon="-2.2258108"><ele>904.3333333333333</ele><time>2026-03-22T13:09:26.183Z</time></trkpt><trkpt lat="40.0054165" lon="-2.2255666"><ele>904.6666666666667</ele><time>2026-03-22T13:09:27.129Z</time></trkpt><trkpt lat="40.0054958" lon="-2.2253226"><ele>905.0</ele><time>2026-03-22T13:09:28.124Z</time></trkpt><trkpt lat="40.0055778" lon="-2.2250778"><ele>905.0</ele><time>2026-03-22T13:09:29.135Z</time></trkpt><trkpt lat="40.0056599" lon="-2.2248353"><ele>905.0</ele><time>2026-03-22T13:09:30.146Z</time></trkpt><trkpt lat="40.0057461" lon="-2.2245942"><ele>905.0</ele><time>2026-03-22T13:09:31.171Z</time></trkpt><trkpt lat="40.0058335" lon="-2.224359"><ele>904.3333333333334</ele><time>2026-03-22T13:09:32.132Z</time></trkpt><trkpt lat="40.0059228" lon="-2.2241287"><ele>903.6666666666667</ele><time>2026-03-22T13:09:33.146Z</time></trkpt><trkpt lat="40.0060061" lon="-2.2238982"><ele>903.0</ele><time>2026-03-22T13:09:34.153Z</time></trkpt><trkpt lat="40.0060916" lon="-2.22367"><ele>903.0</ele><time>2026-03-22T13:09:35.137Z</time></trkpt><trkpt lat="40.0061737" lon="-2.2234403"><ele>903.0</ele><time>2026-03-22T13:09:36.161Z</time></trkpt><trkpt lat="40.0062525" lon="-2.2232075"><ele>903.0</ele><time>2026-03-22T13:09:37.153Z</time></trkpt><trkpt lat="40.0063252" lon="-2.2229776"><ele>902.6666666666667</ele><time>2026-03-22T13:09:38.153Z</time></trkpt><trkpt lat="40.0064" lon="-2.2227504"><ele>902.3333333333334</ele><time>2026-03-22T13:09:39.152Z</time></trkpt><trkpt lat="40.0064773" lon="-2.2225241"><ele>902.0</ele><time>2026-03-22T13:09:40.137Z</time></trkpt><trkpt lat="40.0065567" lon="-2.2222988"><ele>902.6666666666667</ele><time>2026-03-22T13:09:41.148Z</time></trkpt><trkpt lat="40.0066361" lon="-2.2220735"><ele>903.3333333333333</ele><time>2026-03-22T13:09:42.143Z</time></trkpt><trkpt lat="40.0067183" lon="-2.2218453"><ele>904.0</ele><time>2026-03-22T13:09:43.151Z</time></trkpt><trkpt lat="40.0068041" lon="-2.2216156"><ele>901.6666666666666</ele><time>2026-03-22T13:09:44.167Z</time></trkpt><trkpt lat="40.006885" lon="-2.2213836"><ele>899.3333333333333</ele><time>2026-03-22T13:09:45.179Z</time></trkpt><trkpt lat="40.0069676" lon="-2.2211521"><ele>897.0</ele><time>2026-03-22T13:09:46.143Z</time></trkpt><trkpt lat="40.0070637" lon="-2.2209263"><ele>897.0</ele><time>2026-03-22T13:09:47.124Z</time></trkpt><trkpt lat="40.0071584" lon="-2.2207023"><ele>897.0</ele><time>2026-03-22T13:09:48.168Z</time></trkpt><trkpt lat="40.007249" lon="-2.2204891"><ele>897.0</ele><time>2026-03-22T13:09:49.17Z</time></trkpt><trkpt lat="40.007329" lon="-2.220277"><ele>897.0</ele><time>2026-03-22T13:09:50.177Z</time></trkpt><trkpt lat="40.0074096" lon="-2.2200609"><ele>897.0</ele><time>2026-03-22T13:09:51.169Z</time></trkpt><trkpt lat="40.0074927" lon="-2.2198395"><ele>897.0</ele><time>2026-03-22T13:09:52.138Z</time></trkpt><trkpt lat="40.0075751" lon="-2.2196097"><ele>897.0</ele><time>2026-03-22T13:09:53.146Z</time></trkpt><trkpt lat="40.0076554" lon="-2.2193736"><ele>897.0</ele><time>2026-03-22T13:09:54.137Z</time></trkpt><trkpt lat="40.0077391" lon="-2.2191322"><ele>897.0</ele><time>2026-03-22T13:09:55.135Z</time></trkpt><trkpt lat="40.0078193" lon="-2.21889"><ele>897.3333333333333</ele><time>2026-03-22T13:09:56.172Z</time></trkpt><trkpt lat="40.0078991" lon="-2.2186516"><ele>897.6666666666666</ele><time>2026-03-22T13:09:57.212Z</time></trkpt><trkpt lat="40.0079766" lon="-2.2184168"><ele>898.0</ele><time>2026-03-22T13:09:58.172Z</time></trkpt><trkpt lat="40.0080555" lon="-2.2181934"><ele>898.6666666666666</ele><time>2026-03-22T13:09:59.148Z</time></trkpt><trkpt lat="40.0081298" lon="-2.2179817"><ele>899.3333333333333</ele><time>2026-03-22T13:10:00.19Z</time></trkpt><trkpt lat="40.008204" lon="-2.2177791"><ele>900.0</ele><time>2026-03-22T13:10:01.15Z</time></trkpt><trkpt lat="40.0082818" lon="-2.2175867"><ele>898.25</ele><time>2026-03-22T13:10:02.162Z</time></trkpt><trkpt lat="40.0083487" lon="-2.2174033"><ele>896.5</ele><time>2026-03-22T13:10:03.197Z</time></trkpt><trkpt lat="40.0084214" lon="-2.2172358"><ele>894.75</ele><time>2026-03-22T13:10:04.156Z</time></trkpt><trkpt lat="40.0084816" lon="-2.2170704"><ele>893.0</ele><time>2026-03-22T13:10:05.169Z</time></trkpt><trkpt lat="40.0085436" lon="-2.2169072"><ele>892.75</ele><time>2026-03-22T13:10:06.146Z</time></trkpt><trkpt lat="40.0086062" lon="-2.2167415"><ele>892.5</ele><time>2026-03-22T13:10:07.16Z</time></trkpt><trkpt lat="40.0086679" lon="-2.216584"><ele>892.25</ele><time>2026-03-22T13:10:08.16Z</time></trkpt><trkpt lat="40.0087239" lon="-2.216453"><ele>892.0</ele><time>2026-03-22T13:10:09.178Z</time></trkpt><trkpt lat="40.0087769" lon="-2.2163599"><ele>892.3333333333333</ele><time>2026-03-22T13:10:10.192Z</time></trkpt><trkpt lat="40.0088228" lon="-2.216225"><ele>892.6666666666666</ele><time>2026-03-22T13:10:16.173Z</time></trkpt><trkpt lat="40.008784" lon="-2.2161574"><ele>893.0</ele><time>2026-03-22T13:10:18.194Z</time></trkpt><trkpt lat="40.0087469" lon="-2.2160413"><ele>893.3333333333333</ele><time>2026-03-22T13:10:20.189Z</time></trkpt><trkpt lat="40.0087292" lon="-2.21595"><ele>893.6666666666666</ele><time>2026-03-22T13:10:21.203Z</time></trkpt><trkpt lat="40.0087321" lon="-2.2158496"><ele>894.0</ele><time>2026-03-22T13:10:22.146Z</time></trkpt><trkpt lat="40.0087391" lon="-2.2157353"><ele>893.8000000000001</ele><time>2026-03-22T13:10:23.17Z</time></trkpt><trkpt lat="40.008747" lon="-2.2156099"><ele>893.6000000000001</ele><time>2026-03-22T13:10:24.208Z</time></trkpt><trkpt lat="40.008766" lon="-2.2154916"><ele>893.4</ele><time>2026-03-22T13:10:25.196Z</time></trkpt><trkpt lat="40.0087895" lon="-2.215371"><ele>893.2</ele><time>2026-03-22T13:10:26.151Z</time></trkpt><trkpt lat="40.0088132" lon="-2.2152509"><ele>893.0</ele><time>2026-03-22T13:10:27.15Z</time></trkpt><trkpt lat="40.0088226" lon="-2.2151274"><ele>893.0000000000001</ele><time>2026-03-22T13:10:28.174Z</time></trkpt><trkpt lat="40.0088365" lon="-2.2150082"><ele>893.0</ele><time>2026-03-22T13:10:29.195Z</time></trkpt><trkpt lat="40.0088484" lon="-2.2148958"><ele>893.0</ele><time>2026-03-22T13:10:30.18Z</time></trkpt><trkpt lat="40.0088537" lon="-2.2147975"><ele>893.0</ele><time>2026-03-22T13:10:31.14Z</time></trkpt><trkpt lat="40.0088683" lon="-2.214651"><ele>893.0000000000001</ele><time>2026-03-22T13:10:33.214Z</time></trkpt><trkpt lat="40.0088799" lon="-2.2145504"><ele>893.0</ele><time>2026-03-22T13:10:35.154Z</time></trkpt><trkpt lat="40.0088812" lon="-2.2144619"><ele>893.6666666666667</ele><time>2026-03-22T13:10:37.179Z</time></trkpt><trkpt lat="40.0088777" lon="-2.2143469"><ele>894.3333333333334</ele><time>2026-03-22T13:10:39.15Z</time></trkpt><trkpt lat="40.0088614" lon="-2.2142547"><ele>895.0</ele><time>2026-03-22T13:10:41.207Z</time></trkpt><trkpt lat="40.008823" lon="-2.2141884"><ele>895.6666666666667</ele><time>2026-03-22T13:10:43.14Z</time></trkpt><trkpt lat="40.0087448" lon="-2.2141344"><ele>896.3333333333334</ele><time>2026-03-22T13:10:46.152Z</time></trkpt><trkpt lat="40.0086722" lon="-2.2141921"><ele>897.0</ele><time>2026-03-22T13:11:11.16Z</time></trkpt><trkpt lat="40.0085943" lon="-2.2141908"><ele>897.0</ele><time>2026-03-22T13:11:12.151Z</time></trkpt><trkpt lat="40.00849" lon="-2.2142039"><ele>897.0</ele><time>2026-03-22T13:11:13.146Z</time></trkpt><trkpt lat="40.0083758" lon="-2.2142113"><ele>897.0</ele><time>2026-03-22T13:11:14.139Z</time></trkpt><trkpt lat="40.0082361" lon="-2.2142195"><ele>897.0</ele><time>2026-03-22T13:11:15.146Z</time></trkpt><trkpt lat="40.0080798" lon="-2.2142109"><ele>897.3333333333333</ele><time>2026-03-22T13:11:16.149Z</time></trkpt><trkpt lat="40.0079278" lon="-2.2142038"><ele>897.6666666666666</ele><time>2026-03-22T13:11:17.131Z</time></trkpt><trkpt lat="40.0077543" lon="-2.2142068"><ele>898.0</ele><time>2026-03-22T13:11:18.143Z</time></trkpt><trkpt lat="40.0076051" lon="-2.2142002"><ele>899.0</ele><time>2026-03-22T13:11:19.145Z</time></trkpt><trkpt lat="40.0074799" lon="-2.2142192"><ele>900.0</ele><time>2026-03-22T13:11:20.143Z</time></trkpt><trkpt lat="40.0073583" lon="-2.2142414"><ele>901.0</ele><time>2026-03-22T13:11:21.168Z</time></trkpt><trkpt lat="40.007232" lon="-2.2142475"><ele>902.0</ele><time>2026-03-22T13:11:22.159Z</time></trkpt><trkpt lat="40.0071078" lon="-2.2142586"><ele>902.0</ele><time>2026-03-22T13:11:23.143Z</time></trkpt><trkpt lat="40.0069802" lon="-2.2142533"><ele>902.0</ele><time>2026-03-22T13:11:24.149Z</time></trkpt><trkpt lat="40.0068525" lon="-2.2142511"><ele>902.0</ele><time>2026-03-22T13:11:25.145Z</time></trkpt><trkpt lat="40.0067304" lon="-2.2143081"><ele>902.0</ele><time>2026-03-22T13:11:26.146Z</time></trkpt><trkpt lat="40.0066098" lon="-2.2143908"><ele>903.6</ele><time>2026-03-22T13:11:27.141Z</time></trkpt><trkpt lat="40.0064902" lon="-2.2144484"><ele>905.2</ele><time>2026-03-22T13:11:28.132Z</time></trkpt><trkpt lat="40.0064049" lon="-2.2144996"><ele>906.8</ele><time>2026-03-22T13:11:29.156Z</time></trkpt><trkpt lat="40.0063432" lon="-2.2145486"><ele>908.4</ele><time>2026-03-22T13:11:30.136Z</time></trkpt><trkpt lat="40.0062663" lon="-2.2146018"><ele>910.0</ele><time>2026-03-22T13:11:31.154Z</time></trkpt><trkpt lat="40.0061612" lon="-2.2146228"><ele>910.0</ele><time>2026-03-22T13:11:32.144Z</time></trkpt><trkpt lat="40.0060454" lon="-2.2146517"><ele>910.0</ele><time>2026-03-22T13:11:33.142Z</time></trkpt><trkpt lat="40.0059355" lon="-2.2146827"><ele>910.0</ele><time>2026-03-22T13:11:34.153Z</time></trkpt><trkpt lat="40.0058221" lon="-2.2146056"><ele>910.0</ele><time>2026-03-22T13:11:35.147Z</time></trkpt><trkpt lat="40.0056686" lon="-2.2145371"><ele>910.75</ele><time>2026-03-22T13:11:36.138Z</time></trkpt><trkpt lat="40.0055205" lon="-2.2144335"><ele>911.5</ele><time>2026-03-22T13:11:37.132Z</time></trkpt><trkpt lat="40.0053887" lon="-2.2143882"><ele>912.25</ele><time>2026-03-22T13:11:38.137Z</time></trkpt><trkpt lat="40.0052717" lon="-2.214364"><ele>913.0</ele><time>2026-03-22T13:11:39.144Z</time></trkpt><trkpt lat="40.0051651" lon="-2.2143332"><ele>913.0</ele><time>2026-03-22T13:11:40.194Z</time></trkpt><trkpt lat="40.0050506" lon="-2.214334"><ele>913.0</ele><time>2026-03-22T13:11:41.141Z</time></trkpt><trkpt lat="40.0049452" lon="-2.2143938"><ele>913.0</ele><time>2026-03-22T13:11:42.154Z</time></trkpt><trkpt lat="40.0048468" lon="-2.2144891"><ele>913.0</ele><time>2026-03-22T13:11:43.144Z</time></trkpt><trkpt lat="40.0047419" lon="-2.2145877"><ele>914.0</ele><time>2026-03-22T13:11:44.143Z</time></trkpt><trkpt lat="40.0046305" lon="-2.2146825"><ele>915.0</ele><time>2026-03-22T13:11:45.135Z</time></trkpt><trkpt lat="40.0045131" lon="-2.2147622"><ele>916.0</ele><time>2026-03-22T13:11:46.14Z</time></trkpt><trkpt lat="40.0043961" lon="-2.214839"><ele>917.0</ele><time>2026-03-22T13:11:47.152Z</time></trkpt><trkpt lat="40.0042705" lon="-2.2149014"><ele>919.0</ele><time>2026-03-22T13:11:48.145Z</time></trkpt><trkpt lat="40.0041422" lon="-2.2149714"><ele>921.0</ele><time>2026-03-22T13:11:49.143Z</time></trkpt><trkpt lat="40.0040153" lon="-2.2150417"><ele>923.0</ele><time>2026-03-22T13:11:50.145Z</time></trkpt><trkpt lat="40.00389" lon="-2.2151187"><ele>925.0</ele><time>2026-03-22T13:11:51.145Z</time></trkpt><trkpt lat="40.0037649" lon="-2.2151978"><ele>925.0</ele><time>2026-03-22T13:11:52.138Z</time></trkpt><trkpt lat="40.0036427" lon="-2.2152723"><ele>925.0</ele><time>2026-03-22T13:11:53.138Z</time></trkpt><trkpt lat="40.0035248" lon="-2.2153449"><ele>925.0</ele><time>2026-03-22T13:11:54.143Z</time></trkpt><trkpt lat="40.0034158" lon="-2.2154139"><ele>925.0</ele><time>2026-03-22T13:11:55.148Z</time></trkpt><trkpt lat="40.0033116" lon="-2.2154925"><ele>927.0</ele><time>2026-03-22T13:11:56.144Z</time></trkpt><trkpt lat="40.0032243" lon="-2.215582"><ele>929.0</ele><time>2026-03-22T13:11:57.137Z</time></trkpt><trkpt lat="40.0031221" lon="-2.215717"><ele>931.0</ele><time>2026-03-22T13:11:58.146Z</time></trkpt><trkpt lat="40.003037" lon="-2.2158327"><ele>933.0</ele><time>2026-03-22T13:11:59.15Z</time></trkpt><trkpt lat="40.0029618" lon="-2.2159371"><ele>933.0</ele><time>2026-03-22T13:12:00.209Z</time></trkpt><trkpt lat="40.0028858" lon="-2.2160226"><ele>933.0</ele><time>2026-03-22T13:12:01.141Z</time></trkpt><trkpt lat="40.0028083" lon="-2.2160916"><ele>933.0</ele><time>2026-03-22T13:12:02.142Z</time></trkpt><trkpt lat="40.002718" lon="-2.2161618"><ele>933.0</ele><time>2026-03-22T13:12:03.136Z</time></trkpt><trkpt lat="40.0026291" lon="-2.2162481"><ele>933.0</ele><time>2026-03-22T13:12:04.143Z</time></trkpt><trkpt lat="40.0025428" lon="-2.216342"><ele>934.25</ele><time>2026-03-22T13:12:05.143Z</time></trkpt><trkpt lat="40.0024526" lon="-2.2164302"><ele>935.5</ele><time>2026-03-22T13:12:06.131Z</time></trkpt><trkpt lat="40.0023518" lon="-2.2165121"><ele>936.75</ele><time>2026-03-22T13:12:07.14Z</time></trkpt><trkpt lat="40.0022482" lon="-2.2165833"><ele>938.0</ele><time>2026-03-22T13:12:08.139Z</time></trkpt><trkpt lat="40.0021465" lon="-2.2166427"><ele>938.0</ele><time>2026-03-22T13:12:09.144Z</time></trkpt><trkpt lat="40.002052" lon="-2.2166967"><ele>938.0</ele><time>2026-03-22T13:12:10.151Z</time></trkpt><trkpt lat="40.0019643" lon="-2.2167485"><ele>938.0</ele><time>2026-03-22T13:12:11.164Z</time></trkpt><trkpt lat="40.0018708" lon="-2.216798"><ele>938.0</ele><time>2026-03-22T13:12:12.148Z</time></trkpt><trkpt lat="40.0017758" lon="-2.216848"><ele>938.0</ele><time>2026-03-22T13:12:13.137Z</time></trkpt><trkpt lat="40.0016832" lon="-2.2168893"><ele>940.75</ele><time>2026-03-22T13:12:14.14Z</time></trkpt><trkpt lat="40.0015792" lon="-2.2169467"><ele>943.5</ele><time>2026-03-22T13:12:15.135Z</time></trkpt><trkpt lat="40.0014719" lon="-2.2170153"><ele>946.25</ele><time>2026-03-22T13:12:16.148Z</time></trkpt><trkpt lat="40.0013665" lon="-2.2170867"><ele>949.0</ele><time>2026-03-22T13:12:17.135Z</time></trkpt><trkpt lat="40.0012503" lon="-2.2171576"><ele>949.0</ele><time>2026-03-22T13:12:18.131Z</time></trkpt><trkpt lat="40.0011385" lon="-2.2172373"><ele>949.0</ele><time>2026-03-22T13:12:19.139Z</time></trkpt><trkpt lat="40.0010246" lon="-2.21732"><ele>949.0</ele><time>2026-03-22T13:12:20.144Z</time></trkpt><trkpt lat="40.0009236" lon="-2.2173908"><ele>949.0</ele><time>2026-03-22T13:12:21.15Z</time></trkpt><trkpt lat="40.0008365" lon="-2.2174503"><ele>951.4999999999999</ele><time>2026-03-22T13:12:22.137Z</time></trkpt><trkpt lat="40.0007586" lon="-2.2175164"><ele>954.0</ele><time>2026-03-22T13:12:23.17Z</time></trkpt><trkpt lat="40.0006848" lon="-2.2175811"><ele>956.5</ele><time>2026-03-22T13:12:24.141Z</time></trkpt><trkpt lat="40.000625" lon="-2.2176438"><ele>959.0</ele><time>2026-03-22T13:12:25.149Z</time></trkpt><trkpt lat="40.0005732" lon="-2.2177057"><ele>961.4999999999999</ele><time>2026-03-22T13:12:26.136Z</time></trkpt><trkpt lat="40.0005007" lon="-2.2178178"><ele>964.0</ele><time>2026-03-22T13:12:28.129Z</time></trkpt><trkpt lat="40.0004473" lon="-2.217873"><ele>964.0</ele><time>2026-03-22T13:12:30.147Z</time></trkpt><trkpt lat="40.0003721" lon="-2.2179201"><ele>964.0000000000001</ele><time>2026-03-22T13:12:32.151Z</time></trkpt><trkpt lat="40.000263" lon="-2.2179671"><ele>964.0000000000001</ele><time>2026-03-22T13:12:34.14Z</time></trkpt><trkpt lat="40.0001634" lon="-2.2180003"><ele>964.0</ele><time>2026-03-22T13:12:36.152Z</time></trkpt><trkpt lat="40.0000762" lon="-2.2180187"><ele>964.0</ele><time>2026-03-22T13:12:38.151Z</time></trkpt><trkpt lat="39.9999653" lon="-2.218023"><ele>964.0</ele><time>2026-03-22T13:12:40.154Z</time></trkpt><trkpt lat="39.9998512" lon="-2.2180104"><ele>964.0000000000001</ele><time>2026-03-22T13:12:42.196Z</time></trkpt><trkpt lat="39.999778" lon="-2.2180385"><ele>964.0000000000001</ele><time>2026-03-22T13:12:43.149Z</time></trkpt><trkpt lat="39.9996978" lon="-2.2180667"><ele>964.0</ele><time>2026-03-22T13:12:44.148Z</time></trkpt><trkpt lat="39.999603" lon="-2.2180757"><ele>964.0</ele><time>2026-03-22T13:12:45.145Z</time></trkpt><trkpt lat="39.9994981" lon="-2.2180735"><ele>964.0</ele><time>2026-03-22T13:12:46.145Z</time></trkpt><trkpt lat="39.9993867" lon="-2.2180547"><ele>964.0000000000001</ele><time>2026-03-22T13:12:47.133Z</time></trkpt><trkpt lat="39.9992779" lon="-2.218027"><ele>964.0000000000001</ele><time>2026-03-22T13:12:48.147Z</time></trkpt><trkpt lat="39.9991785" lon="-2.2179987"><ele>964.0</ele><time>2026-03-22T13:12:49.137Z</time></trkpt><trkpt lat="39.9990963" lon="-2.2179767"><ele>964.0</ele><time>2026-03-22T13:12:50.128Z</time></trkpt><trkpt lat="39.9990153" lon="-2.2179525"><ele>966.4285714285714</ele><time>2026-03-22T13:12:51.171Z</time></trkpt><trkpt lat="39.9989381" lon="-2.2179221"><ele>968.8571428571429</ele><time>2026-03-22T13:12:52.134Z</time></trkpt><trkpt lat="39.9988726" lon="-2.2178915"><ele>971.2857142857143</ele><time>2026-03-22T13:12:53.129Z</time></trkpt><trkpt lat="39.9988125" lon="-2.2178506"><ele>973.7142857142858</ele><time>2026-03-22T13:12:54.14Z</time></trkpt><trkpt lat="39.9987512" lon="-2.2177982"><ele>976.1428571428571</ele><time>2026-03-22T13:12:55.148Z</time></trkpt><trkpt lat="39.99869" lon="-2.2177527"><ele>978.5714285714287</ele><time>2026-03-22T13:12:56.134Z</time></trkpt><trkpt lat="39.9986346" lon="-2.2177133"><ele>981.0</ele><time>2026-03-22T13:12:57.135Z</time></trkpt><trkpt lat="39.9985331" lon="-2.2176635"><ele>981.0</ele><time>2026-03-22T13:12:59.132Z</time></trkpt><trkpt lat="39.9984378" lon="-2.2176162"><ele>981.0</ele><time>2026-03-22T13:13:01.141Z</time></trkpt><trkpt lat="39.998341" lon="-2.2175428"><ele>981.0</ele><time>2026-03-22T13:13:03.151Z</time></trkpt><trkpt lat="39.9982366" lon="-2.2174631"><ele>981.0</ele><time>2026-03-22T13:13:05.132Z</time></trkpt><trkpt lat="39.9981278" lon="-2.2173791"><ele>988.25</ele><time>2026-03-22T13:13:07.145Z</time></trkpt><trkpt lat="39.9980179" lon="-2.2173007"><ele>995.5</ele><time>2026-03-22T13:13:09.16Z</time></trkpt><trkpt lat="39.9979121" lon="-2.2172549"><ele>1002.75</ele><time>2026-03-22T13:13:11.149Z</time></trkpt><trkpt lat="39.9978038" lon="-2.2172015"><ele>1010.0</ele><time>2026-03-22T13:13:13.149Z</time></trkpt><trkpt lat="39.9977048" lon="-2.2171339"><ele>1010.0</ele><time>2026-03-22T13:13:15.131Z</time></trkpt><trkpt lat="39.9975998" lon="-2.2170772"><ele>1010.0</ele><time>2026-03-22T13:13:17.137Z</time></trkpt><trkpt lat="39.9975063" lon="-2.2170262"><ele>1010.0</ele><time>2026-03-22T13:13:19.161Z</time></trkpt><trkpt lat="39.9974168" lon="-2.2169957"><ele>1010.0</ele><time>2026-03-22T13:13:21.153Z</time></trkpt><trkpt lat="39.9973359" lon="-2.216951"><ele>1010.0</ele><time>2026-03-22T13:13:23.149Z</time></trkpt><trkpt lat="39.9972648" lon="-2.2169095"><ele>1008.8333333333334</ele><time>2026-03-22T13:13:25.154Z</time></trkpt><trkpt lat="39.997176" lon="-2.2168475"><ele>1007.6666666666667</ele><time>2026-03-22T13:13:27.131Z</time></trkpt><trkpt lat="39.9971157" lon="-2.2167583"><ele>1006.5</ele><time>2026-03-22T13:13:29.135Z</time></trkpt><trkpt lat="39.9970831" lon="-2.2166773"><ele>1005.3333333333333</ele><time>2026-03-22T13:13:31.144Z</time></trkpt><trkpt lat="39.9970144" lon="-2.2166385"><ele>1004.1666666666666</ele><time>2026-03-22T13:13:34.148Z</time></trkpt><trkpt lat="39.9969482" lon="-2.2166707"><ele>1003.0</ele><time>2026-03-22T13:13:53.139Z</time></trkpt><trkpt lat="39.9968878" lon="-2.2167128"><ele>1003.0</ele><time>2026-03-22T13:14:09.163Z</time></trkpt><trkpt lat="39.9968261" lon="-2.2167431"><ele>1002.9999999999999</ele><time>2026-03-22T13:14:11.137Z</time></trkpt><trkpt lat="39.9967492" lon="-2.2168133"><ele>1003.0</ele><time>2026-03-22T13:14:14.146Z</time></trkpt><trkpt lat="39.9966834" lon="-2.2168319"><ele>1003.0</ele><time>2026-03-22T13:14:17.179Z</time></trkpt><trkpt lat="39.9966058" lon="-2.2167956"><ele>1002.9999999999999</ele><time>2026-03-22T13:14:20.13Z</time></trkpt><trkpt lat="39.9965579" lon="-2.2167394"><ele>1003.0</ele><time>2026-03-22T13:14:22.128Z</time></trkpt><trkpt lat="39.9965073" lon="-2.2166827"><ele>1003.0</ele><time>2026-03-22T13:14:24.133Z</time></trkpt><trkpt lat="39.9964358" lon="-2.2166179"><ele>1004.0</ele><time>2026-03-22T13:14:27.144Z</time></trkpt><trkpt lat="39.9963692" lon="-2.216538"><ele>1005.0</ele><time>2026-03-22T13:14:29.126Z</time></trkpt><trkpt lat="39.9962833" lon="-2.2164493"><ele>1006.0</ele><time>2026-03-22T13:14:31.147Z</time></trkpt><trkpt lat="39.9961649" lon="-2.2163677"><ele>1007.0</ele><time>2026-03-22T13:14:33.132Z</time></trkpt><trkpt lat="39.9960856" lon="-2.2163259"><ele>1008.0</ele><time>2026-03-22T13:14:34.133Z</time></trkpt><trkpt lat="39.9960115" lon="-2.216286"><ele>1011.4</ele><time>2026-03-22T13:14:35.148Z</time></trkpt><trkpt lat="39.9959438" lon="-2.2162428"><ele>1014.8</ele><time>2026-03-22T13:14:36.163Z</time></trkpt><trkpt lat="39.9958453" lon="-2.2161829"><ele>1018.2</ele><time>2026-03-22T13:14:37.126Z</time></trkpt><trkpt lat="39.9957348" lon="-2.2161367"><ele>1021.6</ele><time>2026-03-22T13:14:38.134Z</time></trkpt><trkpt lat="39.9956472" lon="-2.216116"><ele>1025.0</ele><time>2026-03-22T13:14:39.132Z</time></trkpt><trkpt lat="39.9955274" lon="-2.2161137"><ele>1025.0</ele><time>2026-03-22T13:14:41.137Z</time></trkpt><trkpt lat="39.9954002" lon="-2.2160715"><ele>1025.0</ele><time>2026-03-22T13:14:43.134Z</time></trkpt><trkpt lat="39.9953316" lon="-2.2160279"><ele>1025.0</ele><time>2026-03-22T13:14:44.133Z</time></trkpt><trkpt lat="39.9952562" lon="-2.2159764"><ele>1025.0</ele><time>2026-03-22T13:14:45.125Z</time></trkpt><trkpt lat="39.9951844" lon="-2.2159263"><ele>1025.0</ele><time>2026-03-22T13:14:46.126Z</time></trkpt><trkpt lat="39.9951078" lon="-2.2158756"><ele>1025.0</ele><time>2026-03-22T13:14:47.125Z</time></trkpt><trkpt lat="39.9950153" lon="-2.2158438"><ele>1025.0</ele><time>2026-03-22T13:14:48.113Z</time></trkpt><trkpt lat="39.9949173" lon="-2.2158129"><ele>1025.0</ele><time>2026-03-22T13:14:49.132Z</time></trkpt><trkpt lat="39.9948089" lon="-2.2157734"><ele>1025.0</ele><time>2026-03-22T13:14:50.122Z</time></trkpt><trkpt lat="39.9946987" lon="-2.2157276"><ele>1025.0</ele><time>2026-03-22T13:14:51.131Z</time></trkpt><trkpt lat="39.9945873" lon="-2.2156768"><ele>1027.4</ele><time>2026-03-22T13:14:52.133Z</time></trkpt><trkpt lat="39.9944763" lon="-2.2156276"><ele>1029.8</ele><time>2026-03-22T13:14:53.131Z</time></trkpt><trkpt lat="39.9943814" lon="-2.2155816"><ele>1032.2</ele><time>2026-03-22T13:14:54.124Z</time></trkpt><trkpt lat="39.9942896" lon="-2.2155309"><ele>1034.6</ele><time>2026-03-22T13:14:55.132Z</time></trkpt><trkpt lat="39.9942024" lon="-2.2154844"><ele>1037.0</ele><time>2026-03-22T13:14:56.135Z</time></trkpt><trkpt lat="39.9941148" lon="-2.2154374"><ele>1037.25</ele><time>2026-03-22T13:14:57.138Z</time></trkpt><trkpt lat="39.9940007" lon="-2.2153732"><ele>1037.5</ele><time>2026-03-22T13:14:58.16Z</time></trkpt><trkpt lat="39.9939012" lon="-2.2153017"><ele>1037.75</ele><time>2026-03-22T13:14:59.131Z</time></trkpt><trkpt lat="39.9938001" lon="-2.2151969"><ele>1038.0</ele><time>2026-03-22T13:15:00.17Z</time></trkpt><trkpt lat="39.9937079" lon="-2.2150995"><ele>1038.0</ele><time>2026-03-22T13:15:01.144Z</time></trkpt><trkpt lat="39.9936114" lon="-2.21501"><ele>1038.0</ele><time>2026-03-22T13:15:02.136Z</time></trkpt><trkpt lat="39.9935172" lon="-2.2149119"><ele>1038.0</ele><time>2026-03-22T13:15:03.14Z</time></trkpt><trkpt lat="39.9934095" lon="-2.2148393"><ele>1038.0</ele><time>2026-03-22T13:15:04.13Z</time></trkpt><trkpt lat="39.9933091" lon="-2.2148071"><ele>1038.6666666666667</ele><time>2026-03-22T13:15:05.122Z</time></trkpt><trkpt lat="39.9932215" lon="-2.2147694"><ele>1039.3333333333333</ele><time>2026-03-22T13:15:06.136Z</time></trkpt><trkpt lat="39.9931425" lon="-2.2147398"><ele>1040.0</ele><time>2026-03-22T13:15:07.124Z</time></trkpt><trkpt lat="39.9930666" lon="-2.2147002"><ele>1040.6666666666665</ele><time>2026-03-22T13:15:08.138Z</time></trkpt><trkpt lat="39.9930143" lon="-2.2146386"><ele>1041.3333333333333</ele><time>2026-03-22T13:15:09.125Z</time></trkpt><trkpt lat="39.9929609" lon="-2.214594"><ele>1042.0</ele><time>2026-03-22T13:15:10.138Z</time></trkpt><trkpt lat="39.9929002" lon="-2.21456"><ele>1042.0</ele><time>2026-03-22T13:15:11.122Z</time></trkpt><trkpt lat="39.9928287" lon="-2.2145255"><ele>1042.0</ele><time>2026-03-22T13:15:12.139Z</time></trkpt><trkpt lat="39.9927671" lon="-2.2144556"><ele>1042.0</ele><time>2026-03-22T13:15:13.134Z</time></trkpt><trkpt lat="39.9927004" lon="-2.2143595"><ele>1042.0</ele><time>2026-03-22T13:15:14.131Z</time></trkpt><trkpt lat="39.9926307" lon="-2.2142596"><ele>1042.0</ele><time>2026-03-22T13:15:15.125Z</time></trkpt><trkpt lat="39.9925656" lon="-2.2141574"><ele>1042.2</ele><time>2026-03-22T13:15:16.137Z</time></trkpt><trkpt lat="39.9924753" lon="-2.214078"><ele>1042.4</ele><time>2026-03-22T13:15:17.141Z</time></trkpt><trkpt lat="39.9923968" lon="-2.2140097"><ele>1042.6</ele><time>2026-03-22T13:15:18.144Z</time></trkpt><trkpt lat="39.9923144" lon="-2.2139259"><ele>1042.8</ele><time>2026-03-22T13:15:19.123Z</time></trkpt><trkpt lat="39.9922408" lon="-2.2137994"><ele>1043.0</ele><time>2026-03-22T13:15:20.13Z</time></trkpt><trkpt lat="39.9921701" lon="-2.2136574"><ele>1043.0</ele><time>2026-03-22T13:15:21.145Z</time></trkpt><trkpt lat="39.9921004" lon="-2.213496"><ele>1043.0</ele><time>2026-03-22T13:15:22.132Z</time></trkpt><trkpt lat="39.9920373" lon="-2.2133222"><ele>1043.0</ele><time>2026-03-22T13:15:23.136Z</time></trkpt><trkpt lat="39.9919921" lon="-2.21317"><ele>1043.0</ele><time>2026-03-22T13:15:24.13Z</time></trkpt><trkpt lat="39.9919699" lon="-2.2129973"><ele>1043.25</ele><time>2026-03-22T13:15:25.133Z</time></trkpt><trkpt lat="39.9919337" lon="-2.2128512"><ele>1043.5</ele><time>2026-03-22T13:15:26.151Z</time></trkpt><trkpt lat="39.9918753" lon="-2.2127001"><ele>1043.75</ele><time>2026-03-22T13:15:27.134Z</time></trkpt><trkpt lat="39.9918254" lon="-2.2125762"><ele>1044.0</ele><time>2026-03-22T13:15:28.147Z</time></trkpt><trkpt lat="39.9917823" lon="-2.2124481"><ele>1044.0</ele><time>2026-03-22T13:15:29.153Z</time></trkpt><trkpt lat="39.9917711" lon="-2.2123582"><ele>1044.0</ele><time>2026-03-22T13:15:30.134Z</time></trkpt><trkpt lat="39.9917638" lon="-2.2122279"><ele>1044.0</ele><time>2026-03-22T13:15:31.134Z</time></trkpt><trkpt lat="39.9917311" lon="-2.2120999"><ele>1044.0</ele><time>2026-03-22T13:15:32.148Z</time></trkpt><trkpt lat="39.9917048" lon="-2.2119896"><ele>1044.0</ele><time>2026-03-22T13:15:33.135Z</time></trkpt><trkpt lat="39.9916818" lon="-2.2118983"><ele>1044.0</ele><time>2026-03-22T13:15:34.138Z</time></trkpt><trkpt lat="39.9916568" lon="-2.2117961"><ele>1043.6666666666667</ele><time>2026-03-22T13:15:35.134Z</time></trkpt><trkpt lat="39.9916352" lon="-2.2117129"><ele>1043.3333333333333</ele><time>2026-03-22T13:15:36.137Z</time></trkpt><trkpt lat="39.9916" lon="-2.211641"><ele>1043.0</ele><time>2026-03-22T13:15:38.139Z</time></trkpt><trkpt lat="39.9915334" lon="-2.2115048"><ele>1042.6666666666665</ele><time>2026-03-22T13:15:41.137Z</time></trkpt><trkpt lat="39.9914959" lon="-2.2114276"><ele>1042.3333333333333</ele><time>2026-03-22T13:15:42.155Z</time></trkpt><trkpt lat="39.9914329" lon="-2.21132"><ele>1042.0</ele><time>2026-03-22T13:15:44.148Z</time></trkpt><trkpt lat="39.9913651" lon="-2.2112077"><ele>1041.1666666666665</ele><time>2026-03-22T13:15:46.132Z</time></trkpt><trkpt lat="39.9913058" lon="-2.211123"><ele>1040.3333333333333</ele><time>2026-03-22T13:15:48.138Z</time></trkpt><trkpt lat="39.9912638" lon="-2.211044"><ele>1039.5</ele><time>2026-03-22T13:15:50.153Z</time></trkpt><trkpt lat="39.9912149" lon="-2.2109588"><ele>1038.6666666666667</ele><time>2026-03-22T13:15:52.148Z</time></trkpt><trkpt lat="39.9911693" lon="-2.210876"><ele>1037.8333333333335</ele><time>2026-03-22T13:15:54.148Z</time></trkpt><trkpt lat="39.9911216" lon="-2.2108039"><ele>1037.0</ele><time>2026-03-22T13:15:56.13Z</time></trkpt><trkpt lat="39.9910695" lon="-2.2107253"><ele>1037.0</ele><time>2026-03-22T13:15:58.147Z</time></trkpt><trkpt lat="39.9910196" lon="-2.2106618"><ele>1037.0</ele><time>2026-03-22T13:16:00.187Z</time></trkpt><trkpt lat="39.9909619" lon="-2.2105732"><ele>1037.0</ele><time>2026-03-22T13:16:03.156Z</time></trkpt><trkpt lat="39.9908944" lon="-2.2105267"><ele>1037.0</ele><time>2026-03-22T13:16:06.18Z</time></trkpt><trkpt lat="39.9908462" lon="-2.2104599"><ele>1037.0</ele><time>2026-03-22T13:16:08.153Z</time></trkpt><trkpt lat="39.9907988" lon="-2.2103832"><ele>1037.0</ele><time>2026-03-22T13:16:10.158Z</time></trkpt><trkpt lat="39.9907592" lon="-2.2103149"><ele>1037.0</ele><time>2026-03-22T13:16:12.154Z</time></trkpt><trkpt lat="39.990716" lon="-2.2102469"><ele>1034.8333333333335</ele><time>2026-03-22T13:16:14.141Z</time></trkpt><trkpt lat="39.9906732" lon="-2.2101824"><ele>1032.6666666666667</ele><time>2026-03-22T13:16:16.178Z</time></trkpt><trkpt lat="39.9906225" lon="-2.210103"><ele>1030.5</ele><time>2026-03-22T13:16:19.166Z</time></trkpt><trkpt lat="39.9905749" lon="-2.2100174"><ele>1028.3333333333333</ele><time>2026-03-22T13:16:24.168Z</time></trkpt><trkpt lat="39.9905253" lon="-2.2099545"><ele>1026.1666666666665</ele><time>2026-03-22T13:16:29.181Z</time></trkpt><trkpt lat="39.9904874" lon="-2.2098487"><ele>1024.0</ele><time>2026-03-22T13:16:32.15Z</time></trkpt><trkpt lat="39.9904314" lon="-2.2097385"><ele>1023.4999999999999</ele><time>2026-03-22T13:16:34.141Z</time></trkpt><trkpt lat="39.9903606" lon="-2.2096338"><ele>1023.0</ele><time>2026-03-22T13:16:36.169Z</time></trkpt><trkpt lat="39.990317" lon="-2.209563"><ele>1022.5</ele><time>2026-03-22T13:16:37.179Z</time></trkpt><trkpt lat="39.9902718" lon="-2.2094817"><ele>1022.0</ele><time>2026-03-22T13:16:38.169Z</time></trkpt><trkpt lat="39.9902214" lon="-2.2093917"><ele>1021.4999999999999</ele><time>2026-03-22T13:16:39.159Z</time></trkpt><trkpt lat="39.990166" lon="-2.2092868"><ele>1021.0</ele><time>2026-03-22T13:16:40.165Z</time></trkpt><trkpt lat="39.9901154" lon="-2.2091878"><ele>1020.9999999999999</ele><time>2026-03-22T13:16:41.153Z</time></trkpt><trkpt lat="39.9900741" lon="-2.209084"><ele>1021.0</ele><time>2026-03-22T13:16:42.156Z</time></trkpt><trkpt lat="39.9900333" lon="-2.2089719"><ele>1021.0</ele><time>2026-03-22T13:16:43.148Z</time></trkpt><trkpt lat="39.9899858" lon="-2.2088682"><ele>1021.0</ele><time>2026-03-22T13:16:44.15Z</time></trkpt><trkpt lat="39.9899359" lon="-2.2087765"><ele>1020.9999999999999</ele><time>2026-03-22T13:16:45.14Z</time></trkpt><trkpt lat="39.9898952" lon="-2.2086925"><ele>1021.0</ele><time>2026-03-22T13:16:46.146Z</time></trkpt><trkpt lat="39.9898613" lon="-2.2086141"><ele>1020.6666666666666</ele><time>2026-03-22T13:16:47.15Z</time></trkpt><trkpt lat="39.9898637" lon="-2.2084699"><ele>1020.3333333333333</ele><time>2026-03-22T13:16:49.173Z</time></trkpt><trkpt lat="39.9899168" lon="-2.2083784"><ele>1020.0</ele><time>2026-03-22T13:16:51.183Z</time></trkpt><trkpt lat="39.989958" lon="-2.2082855"><ele>1019.6666666666667</ele><time>2026-03-22T13:16:53.215Z</time></trkpt><trkpt lat="39.9899607" lon="-2.2082005"><ele>1019.3333333333334</ele><time>2026-03-22T13:16:55.216Z</time></trkpt><trkpt lat="39.989918" lon="-2.2081329"><ele>1019.0</ele><time>2026-03-22T13:16:57.171Z</time></trkpt><trkpt lat="39.9898389" lon="-2.2081017"><ele>1018.6666666666667</ele><time>2026-03-22T13:16:59.167Z</time></trkpt><trkpt lat="39.989711" lon="-2.208085"><ele>1018.3333333333334</ele><time>2026-03-22T13:17:01.133Z</time></trkpt><trkpt lat="39.9896445" lon="-2.208087"><ele>1018.0</ele><time>2026-03-22T13:17:02.137Z</time></trkpt><trkpt lat="39.9895752" lon="-2.2081003"><ele>1017.6666666666667</ele><time>2026-03-22T13:17:03.147Z</time></trkpt><trkpt lat="39.9895016" lon="-2.2081155"><ele>1017.3333333333334</ele><time>2026-03-22T13:17:04.16Z</time></trkpt><trkpt lat="39.9894228" lon="-2.2081364"><ele>1017.0</ele><time>2026-03-22T13:17:05.15Z</time></trkpt><trkpt lat="39.9893507" lon="-2.2081486"><ele>1017.0</ele><time>2026-03-22T13:17:06.133Z</time></trkpt><trkpt lat="39.9892829" lon="-2.2081436"><ele>1017.0</ele><time>2026-03-22T13:17:07.142Z</time></trkpt><trkpt lat="39.9892191" lon="-2.2081276"><ele>1017.0</ele><time>2026-03-22T13:17:08.15Z</time></trkpt><trkpt lat="39.9891081" lon="-2.2080615"><ele>1017.0</ele><time>2026-03-22T13:17:10.134Z</time></trkpt><trkpt lat="39.9890077" lon="-2.2079633"><ele>1017.0</ele><time>2026-03-22T13:17:12.145Z</time></trkpt><trkpt lat="39.9889512" lon="-2.2079031"><ele>1018.0</ele><time>2026-03-22T13:17:13.148Z</time></trkpt><trkpt lat="39.9889031" lon="-2.2078306"><ele>1019.0</ele><time>2026-03-22T13:17:14.134Z</time></trkpt><trkpt lat="39.9888566" lon="-2.207759"><ele>1020.0</ele><time>2026-03-22T13:17:15.15Z</time></trkpt><trkpt lat="39.9888079" lon="-2.2076763"><ele>1021.0</ele><time>2026-03-22T13:17:16.124Z</time></trkpt><trkpt lat="39.9887584" lon="-2.2076051"><ele>1022.0</ele><time>2026-03-22T13:17:17.156Z</time></trkpt><trkpt lat="39.9887127" lon="-2.2075176"><ele>1023.0</ele><time>2026-03-22T13:17:18.138Z</time></trkpt><trkpt lat="39.9886675" lon="-2.2074311"><ele>1023.0</ele><time>2026-03-22T13:17:19.14Z</time></trkpt><trkpt lat="39.9886227" lon="-2.2073341"><ele>1023.0</ele><time>2026-03-22T13:17:20.133Z</time></trkpt><trkpt lat="39.988564" lon="-2.2072312"><ele>1023.0</ele><time>2026-03-22T13:17:21.138Z</time></trkpt><trkpt lat="39.988495" lon="-2.2071325"><ele>1023.0</ele><time>2026-03-22T13:17:22.133Z</time></trkpt><trkpt lat="39.9884308" lon="-2.2070447"><ele>1023.0</ele><time>2026-03-22T13:17:23.149Z</time></trkpt><trkpt lat="39.9883706" lon="-2.2069628"><ele>1023.2857142857143</ele><time>2026-03-22T13:17:24.149Z</time></trkpt><trkpt lat="39.9883163" lon="-2.2068882"><ele>1023.5714285714284</ele><time>2026-03-22T13:17:25.135Z</time></trkpt><trkpt lat="39.9882759" lon="-2.2068145"><ele>1023.8571428571428</ele><time>2026-03-22T13:17:26.133Z</time></trkpt><trkpt lat="39.9882468" lon="-2.2067312"><ele>1024.142857142857</ele><time>2026-03-22T13:17:27.141Z</time></trkpt><trkpt lat="39.9882193" lon="-2.2066395"><ele>1024.4285714285713</ele><time>2026-03-22T13:17:28.138Z</time></trkpt><trkpt lat="39.9881882" lon="-2.206551"><ele>1024.7142857142856</ele><time>2026-03-22T13:17:29.14Z</time></trkpt><trkpt lat="39.9881581" lon="-2.206463"><ele>1025.0</ele><time>2026-03-22T13:17:30.148Z</time></trkpt><trkpt lat="39.9881239" lon="-2.2063663"><ele>1025.0</ele><time>2026-03-22T13:17:31.168Z</time></trkpt><trkpt lat="39.9880973" lon="-2.2062638"><ele>1025.0</ele><time>2026-03-22T13:17:32.131Z</time></trkpt><trkpt lat="39.9880832" lon="-2.2061619"><ele>1025.0</ele><time>2026-03-22T13:17:33.147Z</time></trkpt><trkpt lat="39.9880801" lon="-2.2060449"><ele>1025.0</ele><time>2026-03-22T13:17:34.157Z</time></trkpt><trkpt lat="39.9880811" lon="-2.2059337"><ele>1025.0</ele><time>2026-03-22T13:17:35.157Z</time></trkpt><trkpt lat="39.9880761" lon="-2.2058362"><ele>1025.0</ele><time>2026-03-22T13:17:36.152Z</time></trkpt><trkpt lat="39.9880739" lon="-2.205724"><ele>1024.9999999999998</ele><time>2026-03-22T13:17:37.138Z</time></trkpt><trkpt lat="39.9880736" lon="-2.2056182"><ele>1025.0</ele><time>2026-03-22T13:17:38.151Z</time></trkpt><trkpt lat="39.9880652" lon="-2.205527"><ele>1025.0</ele><time>2026-03-22T13:17:39.135Z</time></trkpt><trkpt lat="39.9880503" lon="-2.2054391"><ele>1025.0</ele><time>2026-03-22T13:17:40.142Z</time></trkpt><trkpt lat="39.9880299" lon="-2.2053561"><ele>1025.0</ele><time>2026-03-22T13:17:41.14Z</time></trkpt><trkpt lat="39.9880069" lon="-2.2052792"><ele>1024.9999999999998</ele><time>2026-03-22T13:17:42.154Z</time></trkpt><trkpt lat="39.9879712" lon="-2.2052045"><ele>1025.0</ele><time>2026-03-22T13:17:43.136Z</time></trkpt><trkpt lat="39.9879342" lon="-2.2051352"><ele>1025.0</ele><time>2026-03-22T13:17:44.142Z</time></trkpt><trkpt lat="39.9878647" lon="-2.205013"><ele>1025.0</ele><time>2026-03-22T13:17:46.158Z</time></trkpt><trkpt lat="39.9877939" lon="-2.2048783"><ele>1025.0</ele><time>2026-03-22T13:17:48.159Z</time></trkpt><trkpt lat="39.9877297" lon="-2.2047448"><ele>1025.0</ele><time>2026-03-22T13:17:50.136Z</time></trkpt><trkpt lat="39.9876689" lon="-2.2046006"><ele>1024.8</ele><time>2026-03-22T13:17:52.139Z</time></trkpt><trkpt lat="39.9876001" lon="-2.2044819"><ele>1024.6</ele><time>2026-03-22T13:17:54.137Z</time></trkpt><trkpt lat="39.9875539" lon="-2.2044229"><ele>1024.4</ele><time>2026-03-22T13:17:55.147Z</time></trkpt><trkpt lat="39.9874594" lon="-2.2043194"><ele>1024.2</ele><time>2026-03-22T13:17:57.131Z</time></trkpt><trkpt lat="39.9873616" lon="-2.2042079"><ele>1024.0</ele><time>2026-03-22T13:17:59.155Z</time></trkpt><trkpt lat="39.9872804" lon="-2.204097"><ele>1024.0</ele><time>2026-03-22T13:18:01.145Z</time></trkpt><trkpt lat="39.9872182" lon="-2.2039594"><ele>1024.0</ele><time>2026-03-22T13:18:03.128Z</time></trkpt><trkpt lat="39.9871686" lon="-2.2038115"><ele>1024.0</ele><time>2026-03-22T13:18:05.143Z</time></trkpt><trkpt lat="39.9871436" lon="-2.2037349"><ele>1024.0</ele><time>2026-03-22T13:18:06.144Z</time></trkpt><trkpt lat="39.9870866" lon="-2.203592"><ele>1024.0</ele><time>2026-03-22T13:18:08.132Z</time></trkpt><trkpt lat="39.9870116" lon="-2.203463"><ele>1024.0</ele><time>2026-03-22T13:18:10.147Z</time></trkpt><trkpt lat="39.9869692" lon="-2.2034011"><ele>1024.0</ele><time>2026-03-22T13:18:11.129Z</time></trkpt><trkpt lat="39.9868838" lon="-2.203277"><ele>1024.0</ele><time>2026-03-22T13:18:13.161Z</time></trkpt><trkpt lat="39.986806" lon="-2.2031599"><ele>1024.0</ele><time>2026-03-22T13:18:15.146Z</time></trkpt><trkpt lat="39.9867632" lon="-2.2030334"><ele>1024.0</ele><time>2026-03-22T13:18:17.138Z</time></trkpt><trkpt lat="39.9867857" lon="-2.2029474"><ele>1023.9999999999999</ele><time>2026-03-22T13:18:19.163Z</time></trkpt><trkpt lat="39.9868711" lon="-2.2028848"><ele>1024.0</ele><time>2026-03-22T13:18:21.134Z</time></trkpt><trkpt lat="39.9869691" lon="-2.2028213"><ele>1024.0</ele><time>2026-03-22T13:18:23.141Z</time></trkpt><trkpt lat="39.9870321" lon="-2.2027714"><ele>1024.0</ele><time>2026-03-22T13:18:24.127Z</time></trkpt><trkpt lat="39.9870939" lon="-2.2027144"><ele>1023.9999999999999</ele><time>2026-03-22T13:18:25.159Z</time></trkpt><trkpt lat="39.987156" lon="-2.2026544"><ele>1024.0</ele><time>2026-03-22T13:18:26.141Z</time></trkpt><trkpt lat="39.9872131" lon="-2.2025956"><ele>1023.9999999999999</ele><time>2026-03-22T13:18:27.141Z</time></trkpt><trkpt lat="39.9872678" lon="-2.202542"><ele>1024.0</ele><time>2026-03-22T13:18:28.139Z</time></trkpt><trkpt lat="39.9873225" lon="-2.2025002"><ele>1024.0</ele><time>2026-03-22T13:18:29.139Z</time></trkpt><trkpt lat="39.9874392" lon="-2.2024599"><ele>1024.0</ele><time>2026-03-22T13:18:31.138Z</time></trkpt><trkpt lat="39.9874984" lon="-2.202431"><ele>1023.9999999999999</ele><time>2026-03-22T13:18:32.156Z</time></trkpt><trkpt lat="39.9876148" lon="-2.2023621"><ele>1024.0</ele><time>2026-03-22T13:18:34.152Z</time></trkpt><trkpt lat="39.9877201" lon="-2.2022764"><ele>1020.6666666666666</ele><time>2026-03-22T13:18:36.14Z</time></trkpt><trkpt lat="39.987766" lon="-2.2022056"><ele>1017.3333333333333</ele><time>2026-03-22T13:18:37.142Z</time></trkpt><trkpt lat="39.987804" lon="-2.2021268"><ele>1014.0</ele><time>2026-03-22T13:18:38.157Z</time></trkpt><trkpt lat="39.9878318" lon="-2.2020354"><ele>1010.6666666666667</ele><time>2026-03-22T13:18:39.137Z</time></trkpt><trkpt lat="39.9878632" lon="-2.2019557"><ele>1007.3333333333334</ele><time>2026-03-22T13:18:40.133Z</time></trkpt><trkpt lat="39.9879352" lon="-2.201817"><ele>1004.0</ele><time>2026-03-22T13:18:42.135Z</time></trkpt><trkpt lat="39.9879828" lon="-2.2017444"><ele>1004.0000000000001</ele><time>2026-03-22T13:18:43.146Z</time></trkpt><trkpt lat="39.9880358" lon="-2.2016781"><ele>1004.0</ele><time>2026-03-22T13:18:44.151Z</time></trkpt><trkpt lat="39.9880841" lon="-2.2016164"><ele>1004.0</ele><time>2026-03-22T13:18:45.128Z</time></trkpt><trkpt lat="39.9881165" lon="-2.2015348"><ele>1004.0</ele><time>2026-03-22T13:18:46.133Z</time></trkpt><trkpt lat="39.9881447" lon="-2.2014373"><ele>1004.0000000000001</ele><time>2026-03-22T13:18:47.137Z</time></trkpt><trkpt lat="39.9881569" lon="-2.2013242"><ele>1004.0</ele><time>2026-03-22T13:18:48.142Z</time></trkpt><trkpt lat="39.9881704" lon="-2.2012098"><ele>1002.4000000000001</ele><time>2026-03-22T13:18:49.131Z</time></trkpt><trkpt lat="39.9881706" lon="-2.2010896"><ele>1000.8000000000001</ele><time>2026-03-22T13:18:50.137Z</time></trkpt><trkpt lat="39.9881765" lon="-2.2009723"><ele>999.1999999999999</ele><time>2026-03-22T13:18:51.147Z</time></trkpt><trkpt lat="39.9881947" lon="-2.2008317"><ele>997.5999999999999</ele><time>2026-03-22T13:18:52.134Z</time></trkpt><trkpt lat="39.9882472" lon="-2.2006921"><ele>996.0</ele><time>2026-03-22T13:18:53.148Z</time></trkpt><trkpt lat="39.9883407" lon="-2.2005721"><ele>998.0</ele><time>2026-03-22T13:18:54.13Z</time></trkpt><trkpt lat="39.9884304" lon="-2.2004774"><ele>999.9999999999999</ele><time>2026-03-22T13:18:55.138Z</time></trkpt><trkpt lat="39.9885138" lon="-2.2003917"><ele>1001.9999999999999</ele><time>2026-03-22T13:18:56.152Z</time></trkpt><trkpt lat="39.9885939" lon="-2.2002933"><ele>1004.0</ele><time>2026-03-22T13:18:57.153Z</time></trkpt><trkpt lat="39.9886616" lon="-2.2001929"><ele>1006.0</ele><time>2026-03-22T13:18:58.148Z</time></trkpt><trkpt lat="39.9887244" lon="-2.2000655"><ele>1006.0</ele><time>2026-03-22T13:18:59.138Z</time></trkpt><trkpt lat="39.9887779" lon="-2.1999102"><ele>1006.0</ele><time>2026-03-22T13:19:00.134Z</time></trkpt><trkpt lat="39.9888114" lon="-2.1997731"><ele>1006.0</ele><time>2026-03-22T13:19:01.14Z</time></trkpt><trkpt lat="39.9888325" lon="-2.1996406"><ele>1006.0</ele><time>2026-03-22T13:19:02.145Z</time></trkpt><trkpt lat="39.9888505" lon="-2.199499"><ele>1006.0</ele><time>2026-03-22T13:19:03.153Z</time></trkpt><trkpt lat="39.9888736" lon="-2.1993715"><ele>1005.9999999999999</ele><time>2026-03-22T13:19:04.14Z</time></trkpt><trkpt lat="39.9889023" lon="-2.1992286"><ele>1005.9999999999999</ele><time>2026-03-22T13:19:05.136Z</time></trkpt><trkpt lat="39.9889301" lon="-2.19909"><ele>1006.0</ele><time>2026-03-22T13:19:06.137Z</time></trkpt><trkpt lat="39.9889431" lon="-2.1989541"><ele>1006.0</ele><time>2026-03-22T13:19:07.135Z</time></trkpt><trkpt lat="39.9889663" lon="-2.1988294"><ele>1004.0</ele><time>2026-03-22T13:19:08.144Z</time></trkpt><trkpt lat="39.9889825" lon="-2.198709"><ele>1001.9999999999999</ele><time>2026-03-22T13:19:09.134Z</time></trkpt><trkpt lat="39.9890115" lon="-2.1985878"><ele>999.9999999999999</ele><time>2026-03-22T13:19:10.139Z</time></trkpt><trkpt lat="39.9890298" lon="-2.1984586"><ele>998.0</ele><time>2026-03-22T13:19:11.153Z</time></trkpt><trkpt lat="39.9890491" lon="-2.1983407"><ele>996.0</ele><time>2026-03-22T13:19:12.14Z</time></trkpt><trkpt lat="39.989061" lon="-2.1982216"><ele>997.1999999999999</ele><time>2026-03-22T13:19:13.135Z</time></trkpt><trkpt lat="39.9890733" lon="-2.1981257"><ele>998.3999999999999</ele><time>2026-03-22T13:19:14.132Z</time></trkpt><trkpt lat="39.9891364" lon="-2.1979981"><ele>999.6</ele><time>2026-03-22T13:19:16.152Z</time></trkpt><trkpt lat="39.9892148" lon="-2.1978681"><ele>1000.8</ele><time>2026-03-22T13:19:18.135Z</time></trkpt><trkpt lat="39.9892608" lon="-2.1977874"><ele>1002.0</ele><time>2026-03-22T13:19:19.145Z</time></trkpt><trkpt lat="39.9893044" lon="-2.1977056"><ele>1002.0</ele><time>2026-03-22T13:19:20.15Z</time></trkpt><trkpt lat="39.9893448" lon="-2.197616"><ele>1002.0</ele><time>2026-03-22T13:19:21.144Z</time></trkpt><trkpt lat="39.989381" lon="-2.1975384"><ele>1002.0</ele><time>2026-03-22T13:19:22.14Z</time></trkpt><trkpt lat="39.9894431" lon="-2.1973986"><ele>1002.0</ele><time>2026-03-22T13:19:24.133Z</time></trkpt><trkpt lat="39.989536" lon="-2.1972889"><ele>1002.0</ele><time>2026-03-22T13:19:26.134Z</time></trkpt><trkpt lat="39.9895895" lon="-2.1972422"><ele>999.8</ele><time>2026-03-22T13:19:27.127Z</time></trkpt><trkpt lat="39.9896485" lon="-2.197197"><ele>997.6</ele><time>2026-03-22T13:19:28.131Z</time></trkpt><trkpt lat="39.9897039" lon="-2.1971572"><ele>995.3999999999999</ele><time>2026-03-22T13:19:29.135Z</time></trkpt><trkpt lat="39.9897934" lon="-2.1970476"><ele>993.1999999999999</ele><time>2026-03-22T13:19:31.133Z</time></trkpt><trkpt lat="39.9898827" lon="-2.1969508"><ele>991.0</ele><time>2026-03-22T13:19:33.134Z</time></trkpt><trkpt lat="39.9899824" lon="-2.1968423"><ele>988.5999999999999</ele><time>2026-03-22T13:19:35.14Z</time></trkpt><trkpt lat="39.9900322" lon="-2.1967794"><ele>986.1999999999999</ele><time>2026-03-22T13:19:36.129Z</time></trkpt><trkpt lat="39.9900919" lon="-2.1967104"><ele>983.8000000000001</ele><time>2026-03-22T13:19:37.141Z</time></trkpt><trkpt lat="39.9901712" lon="-2.1966431"><ele>981.4000000000001</ele><time>2026-03-22T13:19:38.138Z</time></trkpt><trkpt lat="39.9902602" lon="-2.1965671"><ele>979.0</ele><time>2026-03-22T13:19:39.14Z</time></trkpt><trkpt lat="39.9903614" lon="-2.1965007"><ele>977.6</ele><time>2026-03-22T13:19:40.157Z</time></trkpt><trkpt lat="39.9904584" lon="-2.1964356"><ele>976.2</ele><time>2026-03-22T13:19:41.138Z</time></trkpt><trkpt lat="39.9905533" lon="-2.1963826"><ele>974.8000000000001</ele><time>2026-03-22T13:19:42.139Z</time></trkpt><trkpt lat="39.9906483" lon="-2.1963344"><ele>973.4000000000001</ele><time>2026-03-22T13:19:43.141Z</time></trkpt><trkpt lat="39.9907498" lon="-2.1962809"><ele>972.0</ele><time>2026-03-22T13:19:44.151Z</time></trkpt><trkpt lat="39.990844" lon="-2.1962245"><ele>972.0</ele><time>2026-03-22T13:19:45.142Z</time></trkpt><trkpt lat="39.9909428" lon="-2.1961647"><ele>972.0</ele><time>2026-03-22T13:19:46.13Z</time></trkpt><trkpt lat="39.991033" lon="-2.1961035"><ele>972.0</ele><time>2026-03-22T13:19:47.141Z</time></trkpt><trkpt lat="39.9911237" lon="-2.1960418"><ele>972.0</ele><time>2026-03-22T13:19:48.13Z</time></trkpt><trkpt lat="39.9912002" lon="-2.1959689"><ele>972.0</ele><time>2026-03-22T13:19:49.13Z</time></trkpt><trkpt lat="39.9912737" lon="-2.1958905"><ele>972.0</ele><time>2026-03-22T13:19:50.139Z</time></trkpt><trkpt lat="39.9913364" lon="-2.1958049"><ele>972.0</ele><time>2026-03-22T13:19:51.138Z</time></trkpt><trkpt lat="39.9913944" lon="-2.1956962"><ele>972.0</ele><time>2026-03-22T13:19:52.141Z</time></trkpt><trkpt lat="39.9914483" lon="-2.1955727"><ele>972.0</ele><time>2026-03-22T13:19:53.129Z</time></trkpt><trkpt lat="39.991497" lon="-2.1954393"><ele>972.0</ele><time>2026-03-22T13:19:54.13Z</time></trkpt><trkpt lat="39.991543" lon="-2.1953107"><ele>972.0</ele><time>2026-03-22T13:19:55.149Z</time></trkpt><trkpt lat="39.9915778" lon="-2.1951842"><ele>972.0</ele><time>2026-03-22T13:19:56.132Z</time></trkpt><trkpt lat="39.9916071" lon="-2.1950591"><ele>972.0</ele><time>2026-03-22T13:19:57.142Z</time></trkpt><trkpt lat="39.9916426" lon="-2.1949431"><ele>972.0</ele><time>2026-03-22T13:19:58.136Z</time></trkpt><trkpt lat="39.9916891" lon="-2.1948397"><ele>972.0</ele><time>2026-03-22T13:19:59.13Z</time></trkpt><trkpt lat="39.9917465" lon="-2.1947383"><ele>970.5</ele><time>2026-03-22T13:20:00.14Z</time></trkpt><trkpt lat="39.9918134" lon="-2.1946384"><ele>969.0</ele><time>2026-03-22T13:20:01.136Z</time></trkpt><trkpt lat="39.9918868" lon="-2.1945277"><ele>967.5</ele><time>2026-03-22T13:20:02.138Z</time></trkpt><trkpt lat="39.9919687" lon="-2.1944102"><ele>966.0</ele><time>2026-03-22T13:20:03.153Z</time></trkpt><trkpt lat="39.9920708" lon="-2.194286"><ele>966.0</ele><time>2026-03-22T13:20:04.136Z</time></trkpt><trkpt lat="39.9921707" lon="-2.1941695"><ele>966.0</ele><time>2026-03-22T13:20:05.123Z</time></trkpt><trkpt lat="39.9922716" lon="-2.1940606"><ele>966.0</ele><time>2026-03-22T13:20:06.146Z</time></trkpt><trkpt lat="39.9923688" lon="-2.1939582"><ele>966.0</ele><time>2026-03-22T13:20:07.16Z</time></trkpt><trkpt lat="39.992459" lon="-2.1938686"><ele>963.8</ele><time>2026-03-22T13:20:08.162Z</time></trkpt><trkpt lat="39.9925431" lon="-2.1937917"><ele>961.5999999999999</ele><time>2026-03-22T13:20:09.133Z</time></trkpt><trkpt lat="39.9926257" lon="-2.1937272"><ele>959.4</ele><time>2026-03-22T13:20:10.132Z</time></trkpt><trkpt lat="39.9927206" lon="-2.1936775"><ele>957.2</ele><time>2026-03-22T13:20:11.133Z</time></trkpt><trkpt lat="39.9928287" lon="-2.1936385"><ele>955.0</ele><time>2026-03-22T13:20:12.144Z</time></trkpt><trkpt lat="39.9929597" lon="-2.193599"><ele>955.0</ele><time>2026-03-22T13:20:13.155Z</time></trkpt><trkpt lat="39.993117" lon="-2.1935889"><ele>955.0</ele><time>2026-03-22T13:20:14.15Z</time></trkpt><trkpt lat="39.9932876" lon="-2.1935832"><ele>955.0</ele><time>2026-03-22T13:20:15.141Z</time></trkpt><trkpt lat="39.9934604" lon="-2.1935779"><ele>953.6666666666666</ele><time>2026-03-22T13:20:16.137Z</time></trkpt><trkpt lat="39.9936255" lon="-2.1935737"><ele>952.3333333333333</ele><time>2026-03-22T13:20:17.14Z</time></trkpt><trkpt lat="39.9937879" lon="-2.1935711"><ele>951.0</ele><time>2026-03-22T13:20:18.129Z</time></trkpt><trkpt lat="39.9939478" lon="-2.1935684"><ele>951.0</ele><time>2026-03-22T13:20:19.125Z</time></trkpt><trkpt lat="39.994111" lon="-2.1935734"><ele>951.0</ele><time>2026-03-22T13:20:20.131Z</time></trkpt><trkpt lat="39.9942685" lon="-2.1935823"><ele>951.0</ele><time>2026-03-22T13:20:21.147Z</time></trkpt><trkpt lat="39.9944234" lon="-2.1935811"><ele>949.6666666666667</ele><time>2026-03-22T13:20:22.14Z</time></trkpt><trkpt lat="39.9945757" lon="-2.1935688"><ele>948.3333333333334</ele><time>2026-03-22T13:20:23.145Z</time></trkpt><trkpt lat="39.9947229" lon="-2.1935486"><ele>947.0</ele><time>2026-03-22T13:20:24.143Z</time></trkpt><trkpt lat="39.9948749" lon="-2.1935262"><ele>946.6666666666667</ele><time>2026-03-22T13:20:25.133Z</time></trkpt><trkpt lat="39.9950271" lon="-2.1934974"><ele>946.3333333333333</ele><time>2026-03-22T13:20:26.133Z</time></trkpt><trkpt lat="39.9951878" lon="-2.1934684"><ele>946.0</ele><time>2026-03-22T13:20:27.124Z</time></trkpt><trkpt lat="39.9953438" lon="-2.1934379"><ele>946.0</ele><time>2026-03-22T13:20:28.153Z</time></trkpt><trkpt lat="39.995502" lon="-2.1934067"><ele>946.0</ele><time>2026-03-22T13:20:29.137Z</time></trkpt><trkpt lat="39.9956619" lon="-2.1933776"><ele>946.0</ele><time>2026-03-22T13:20:30.143Z</time></trkpt><trkpt lat="39.9958178" lon="-2.1933438"><ele>946.3333333333333</ele><time>2026-03-22T13:20:31.175Z</time></trkpt><trkpt lat="39.9959741" lon="-2.1933101"><ele>946.6666666666667</ele><time>2026-03-22T13:20:32.155Z</time></trkpt><trkpt lat="39.9961246" lon="-2.1932761"><ele>947.0</ele><time>2026-03-22T13:20:33.147Z</time></trkpt><trkpt lat="39.9962759" lon="-2.1932436"><ele>947.0</ele><time>2026-03-22T13:20:34.161Z</time></trkpt><trkpt lat="39.9964273" lon="-2.1932138"><ele>947.0</ele><time>2026-03-22T13:20:35.147Z</time></trkpt><trkpt lat="39.9965823" lon="-2.1931883"><ele>947.0</ele><time>2026-03-22T13:20:36.185Z</time></trkpt><trkpt lat="39.9967417" lon="-2.1931669"><ele>947.25</ele><time>2026-03-22T13:20:37.186Z</time></trkpt><trkpt lat="39.9968906" lon="-2.1931355"><ele>947.5</ele><time>2026-03-22T13:20:38.15Z</time></trkpt><trkpt lat="39.9970363" lon="-2.1931074"><ele>947.75</ele><time>2026-03-22T13:20:39.217Z</time></trkpt><trkpt lat="39.997175" lon="-2.1930796"><ele>948.0</ele><time>2026-03-22T13:20:40.194Z</time></trkpt><trkpt lat="39.9973096" lon="-2.1930556"><ele>948.0</ele><time>2026-03-22T13:20:41.17Z</time></trkpt><trkpt lat="39.9974432" lon="-2.1930328"><ele>948.0</ele><time>2026-03-22T13:20:42.197Z</time></trkpt><trkpt lat="39.9975706" lon="-2.1930111"><ele>948.0</ele><time>2026-03-22T13:20:43.164Z</time></trkpt><trkpt lat="39.9976913" lon="-2.1929935"><ele>948.0</ele><time>2026-03-22T13:20:44.172Z</time></trkpt><trkpt lat="39.9977901" lon="-2.1929762"><ele>946.8</ele><time>2026-03-22T13:20:45.159Z</time></trkpt><trkpt lat="39.9978656" lon="-2.1929676"><ele>945.5999999999999</ele><time>2026-03-22T13:20:46.147Z</time></trkpt><trkpt lat="39.9979799" lon="-2.192952"><ele>944.4000000000001</ele><time>2026-03-22T13:20:48.162Z</time></trkpt><trkpt lat="39.9980515" lon="-2.1929245"><ele>943.2</ele><time>2026-03-22T13:20:49.155Z</time></trkpt><trkpt lat="39.9981377" lon="-2.1928745"><ele>942.0</ele><time>2026-03-22T13:20:50.131Z</time></trkpt><trkpt lat="39.9982447" lon="-2.1928217"><ele>941.5</ele><time>2026-03-22T13:20:51.129Z</time></trkpt><trkpt lat="39.9983629" lon="-2.1927526"><ele>941.0</ele><time>2026-03-22T13:20:52.159Z</time></trkpt><trkpt lat="39.9984836" lon="-2.1926716"><ele>940.5</ele><time>2026-03-22T13:20:53.152Z</time></trkpt><trkpt lat="39.9986166" lon="-2.1925887"><ele>940.0</ele><time>2026-03-22T13:20:54.136Z</time></trkpt><trkpt lat="39.9987497" lon="-2.1925114"><ele>940.0</ele><time>2026-03-22T13:20:55.185Z</time></trkpt><trkpt lat="39.9988818" lon="-2.1924438"><ele>940.0</ele><time>2026-03-22T13:20:56.139Z</time></trkpt><trkpt lat="39.9990113" lon="-2.1923728"><ele>940.0</ele><time>2026-03-22T13:20:57.137Z</time></trkpt><trkpt lat="39.9991324" lon="-2.1922993"><ele>940.0</ele><time>2026-03-22T13:20:58.135Z</time></trkpt><trkpt lat="39.9992476" lon="-2.192224"><ele>938.5</ele><time>2026-03-22T13:20:59.147Z</time></trkpt><trkpt lat="39.9993637" lon="-2.1921531"><ele>937.0</ele><time>2026-03-22T13:21:00.136Z</time></trkpt><trkpt lat="39.9994773" lon="-2.1920795"><ele>935.5</ele><time>2026-03-22T13:21:01.14Z</time></trkpt><trkpt lat="39.9995901" lon="-2.192014"><ele>934.0</ele><time>2026-03-22T13:21:02.14Z</time></trkpt><trkpt lat="39.9997004" lon="-2.1919484"><ele>934.0</ele><time>2026-03-22T13:21:03.144Z</time></trkpt><trkpt lat="39.9998115" lon="-2.1918858"><ele>934.0</ele><time>2026-03-22T13:21:04.128Z</time></trkpt><trkpt lat="39.9999317" lon="-2.1918361"><ele>934.0</ele><time>2026-03-22T13:21:05.157Z</time></trkpt><trkpt lat="40.0000622" lon="-2.1918078"><ele>934.0</ele><time>2026-03-22T13:21:06.154Z</time></trkpt><trkpt lat="40.0001952" lon="-2.1917811"><ele>934.0</ele><time>2026-03-22T13:21:07.142Z</time></trkpt><trkpt lat="40.0003295" lon="-2.1917608"><ele>934.0</ele><time>2026-03-22T13:21:08.17Z</time></trkpt><trkpt lat="40.0004633" lon="-2.1917463"><ele>934.0</ele><time>2026-03-22T13:21:09.155Z</time></trkpt><trkpt lat="40.0006003" lon="-2.1917395"><ele>934.0</ele><time>2026-03-22T13:21:10.165Z</time></trkpt><trkpt lat="40.0007276" lon="-2.1917183"><ele>933.5</ele><time>2026-03-22T13:21:11.164Z</time></trkpt><trkpt lat="40.0008488" lon="-2.1916899"><ele>933.0</ele><time>2026-03-22T13:21:12.175Z</time></trkpt><trkpt lat="40.0009577" lon="-2.1916465"><ele>932.5</ele><time>2026-03-22T13:21:13.142Z</time></trkpt><trkpt lat="40.0010641" lon="-2.191592"><ele>932.0</ele><time>2026-03-22T13:21:14.154Z</time></trkpt><trkpt lat="40.0011764" lon="-2.1915276"><ele>930.75</ele><time>2026-03-22T13:21:15.169Z</time></trkpt><trkpt lat="40.001288" lon="-2.1914487"><ele>929.5</ele><time>2026-03-22T13:21:16.142Z</time></trkpt><trkpt lat="40.0013921" lon="-2.1913636"><ele>928.25</ele><time>2026-03-22T13:21:17.177Z</time></trkpt><trkpt lat="40.0014874" lon="-2.1912854"><ele>927.0</ele><time>2026-03-22T13:21:18.142Z</time></trkpt><trkpt lat="40.001571" lon="-2.1912072"><ele>927.0</ele><time>2026-03-22T13:21:19.153Z</time></trkpt><trkpt lat="40.0016472" lon="-2.1911393"><ele>927.0</ele><time>2026-03-22T13:21:20.141Z</time></trkpt><trkpt lat="40.0017126" lon="-2.1910873"><ele>927.0</ele><time>2026-03-22T13:21:21.171Z</time></trkpt><trkpt lat="40.0017728" lon="-2.1910427"><ele>927.0</ele><time>2026-03-22T13:21:22.171Z</time></trkpt><trkpt lat="40.0018504" lon="-2.1909858"><ele>927.0</ele><time>2026-03-22T13:21:24.174Z</time></trkpt><trkpt lat="40.0017404" lon="-2.1909144"><ele>927.0</ele><time>2026-03-22T13:21:34.145Z</time></trkpt><trkpt lat="40.001676" lon="-2.1909455"><ele>927.0</ele><time>2026-03-22T13:21:36.191Z</time></trkpt><trkpt lat="40.001612" lon="-2.1909872"><ele>927.0</ele><time>2026-03-22T13:21:37.155Z</time></trkpt><trkpt lat="40.0014916" lon="-2.1909921"><ele>927.0</ele><time>2026-03-22T13:21:38.138Z</time></trkpt><trkpt lat="40.0013222" lon="-2.1909812"><ele>927.0</ele><time>2026-03-22T13:21:39.14Z</time></trkpt><trkpt lat="40.0011409" lon="-2.1909441"><ele>927.0</ele><time>2026-03-22T13:21:40.146Z</time></trkpt><trkpt lat="40.0009353" lon="-2.1908703"><ele>927.0</ele><time>2026-03-22T13:21:41.144Z</time></trkpt><trkpt lat="40.0007455" lon="-2.1907932"><ele>927.0</ele><time>2026-03-22T13:21:42.139Z</time></trkpt><trkpt lat="40.0005731" lon="-2.1907131"><ele>927.0</ele><time>2026-03-22T13:21:43.143Z</time></trkpt><trkpt lat="40.0003968" lon="-2.1906278"><ele>927.0</ele><time>2026-03-22T13:21:44.145Z</time></trkpt><trkpt lat="40.0002185" lon="-2.1905378"><ele>927.0</ele><time>2026-03-22T13:21:45.137Z</time></trkpt><trkpt lat="40.00005" lon="-2.1904486"><ele>927.0</ele><time>2026-03-22T13:21:46.155Z</time></trkpt><trkpt lat="39.9998829" lon="-2.1903678"><ele>927.0</ele><time>2026-03-22T13:21:47.153Z</time></trkpt><trkpt lat="39.9997178" lon="-2.1902945"><ele>927.0</ele><time>2026-03-22T13:21:48.135Z</time></trkpt><trkpt lat="39.9995496" lon="-2.1902191"><ele>927.0</ele><time>2026-03-22T13:21:49.128Z</time></trkpt><trkpt lat="39.9993861" lon="-2.1901566"><ele>927.0</ele><time>2026-03-22T13:21:50.145Z</time></trkpt><trkpt lat="39.9992315" lon="-2.1900973"><ele>927.0</ele><time>2026-03-22T13:21:51.142Z</time></trkpt><trkpt lat="39.9990817" lon="-2.1900548"><ele>928.0</ele><time>2026-03-22T13:21:52.145Z</time></trkpt><trkpt lat="39.9989355" lon="-2.1900316"><ele>929.0</ele><time>2026-03-22T13:21:53.144Z</time></trkpt><trkpt lat="39.9987977" lon="-2.190021"><ele>930.0</ele><time>2026-03-22T13:21:54.139Z</time></trkpt><trkpt lat="39.9986657" lon="-2.1900168"><ele>931.0</ele><time>2026-03-22T13:21:55.133Z</time></trkpt><trkpt lat="39.9985359" lon="-2.1900439"><ele>931.0</ele><time>2026-03-22T13:21:56.132Z</time></trkpt><trkpt lat="39.9983985" lon="-2.1900778"><ele>931.0</ele><time>2026-03-22T13:21:57.152Z</time></trkpt><trkpt lat="39.9982416" lon="-2.1901084"><ele>931.0</ele><time>2026-03-22T13:21:58.132Z</time></trkpt><trkpt lat="39.9980855" lon="-2.1901654"><ele>931.0</ele><time>2026-03-22T13:21:59.14Z</time></trkpt><trkpt lat="39.9979234" lon="-2.1902346"><ele>931.0</ele><time>2026-03-22T13:22:00.147Z</time></trkpt><trkpt lat="39.9977643" lon="-2.190312"><ele>931.0</ele><time>2026-03-22T13:22:01.127Z</time></trkpt><trkpt lat="39.9976087" lon="-2.1903818"><ele>931.3333333333333</ele><time>2026-03-22T13:22:02.122Z</time></trkpt><trkpt lat="39.9974483" lon="-2.1904403"><ele>931.6666666666667</ele><time>2026-03-22T13:22:03.154Z</time></trkpt><trkpt lat="39.9972725" lon="-2.190481"><ele>932.0</ele><time>2026-03-22T13:22:04.126Z</time></trkpt><trkpt lat="39.997111" lon="-2.1904835"><ele>932.0</ele><time>2026-03-22T13:22:05.145Z</time></trkpt><trkpt lat="39.9969647" lon="-2.1904714"><ele>932.0</ele><time>2026-03-22T13:22:06.137Z</time></trkpt><trkpt lat="39.9968259" lon="-2.1904485"><ele>932.0</ele><time>2026-03-22T13:22:07.146Z</time></trkpt><trkpt lat="39.9966822" lon="-2.1904033"><ele>932.0</ele><time>2026-03-22T13:22:08.145Z</time></trkpt><trkpt lat="39.9965507" lon="-2.1903496"><ele>933.0</ele><time>2026-03-22T13:22:09.138Z</time></trkpt><trkpt lat="39.9964271" lon="-2.1902793"><ele>934.0</ele><time>2026-03-22T13:22:10.134Z</time></trkpt><trkpt lat="39.9963112" lon="-2.1901812"><ele>935.0</ele><time>2026-03-22T13:22:11.144Z</time></trkpt><trkpt lat="39.9961912" lon="-2.1900752"><ele>936.0</ele><time>2026-03-22T13:22:12.138Z</time></trkpt><trkpt lat="39.9960675" lon="-2.1899429"><ele>935.6666666666667</ele><time>2026-03-22T13:22:13.153Z</time></trkpt><trkpt lat="39.9959391" lon="-2.1898038"><ele>935.3333333333334</ele><time>2026-03-22T13:22:14.144Z</time></trkpt><trkpt lat="39.9958059" lon="-2.1896615"><ele>935.0</ele><time>2026-03-22T13:22:15.154Z</time></trkpt><trkpt lat="39.9956592" lon="-2.1895014"><ele>935.0</ele><time>2026-03-22T13:22:16.167Z</time></trkpt><trkpt lat="39.9955081" lon="-2.1893241"><ele>935.0</ele><time>2026-03-22T13:22:17.147Z</time></trkpt><trkpt lat="39.9953547" lon="-2.1891403"><ele>935.0</ele><time>2026-03-22T13:22:18.145Z</time></trkpt><trkpt lat="39.9951865" lon="-2.1889438"><ele>937.0</ele><time>2026-03-22T13:22:19.156Z</time></trkpt><trkpt lat="39.9950325" lon="-2.1887656"><ele>939.0</ele><time>2026-03-22T13:22:20.12Z</time></trkpt><trkpt lat="39.9948853" lon="-2.1885929"><ele>941.0</ele><time>2026-03-22T13:22:21.146Z</time></trkpt><trkpt lat="39.9947358" lon="-2.1884204"><ele>941.0</ele><time>2026-03-22T13:22:22.137Z</time></trkpt><trkpt lat="39.994596" lon="-2.1882656"><ele>941.0</ele><time>2026-03-22T13:22:23.135Z</time></trkpt><trkpt lat="39.9944682" lon="-2.1881145"><ele>941.0</ele><time>2026-03-22T13:22:24.15Z</time></trkpt><trkpt lat="39.9943434" lon="-2.1879706"><ele>941.0</ele><time>2026-03-22T13:22:25.138Z</time></trkpt><trkpt lat="39.9941954" lon="-2.1878448"><ele>941.0</ele><time>2026-03-22T13:22:26.147Z</time></trkpt><trkpt lat="39.994025" lon="-2.1877428"><ele>941.0</ele><time>2026-03-22T13:22:27.157Z</time></trkpt><trkpt lat="39.9938616" lon="-2.1876603"><ele>941.0</ele><time>2026-03-22T13:22:28.144Z</time></trkpt><trkpt lat="39.9936782" lon="-2.1876131"><ele>941.0</ele><time>2026-03-22T13:22:29.135Z</time></trkpt><trkpt lat="39.9934912" lon="-2.1875782"><ele>941.0</ele><time>2026-03-22T13:22:30.146Z</time></trkpt><trkpt lat="39.9932965" lon="-2.1875418"><ele>942.3333333333334</ele><time>2026-03-22T13:22:31.15Z</time></trkpt><trkpt lat="39.9931062" lon="-2.1875162"><ele>943.6666666666667</ele><time>2026-03-22T13:22:32.14Z</time></trkpt><trkpt lat="39.9929292" lon="-2.1874976"><ele>945.0</ele><time>2026-03-22T13:22:33.171Z</time></trkpt><trkpt lat="39.9927619" lon="-2.187476"><ele>945.0</ele><time>2026-03-22T13:22:34.163Z</time></trkpt><trkpt lat="39.9926012" lon="-2.1874521"><ele>945.0</ele><time>2026-03-22T13:22:35.158Z</time></trkpt><trkpt lat="39.9924562" lon="-2.1874253"><ele>945.0</ele><time>2026-03-22T13:22:36.153Z</time></trkpt><trkpt lat="39.9923176" lon="-2.187398"><ele>945.0</ele><time>2026-03-22T13:22:37.144Z</time></trkpt><trkpt lat="39.992193" lon="-2.1873754"><ele>945.2</ele><time>2026-03-22T13:22:38.146Z</time></trkpt><trkpt lat="39.9920821" lon="-2.1873121"><ele>945.4</ele><time>2026-03-22T13:22:39.143Z</time></trkpt><trkpt lat="39.9919794" lon="-2.1872635"><ele>945.5999999999999</ele><time>2026-03-22T13:22:40.156Z</time></trkpt><trkpt lat="39.9918852" lon="-2.1872176"><ele>945.8</ele><time>2026-03-22T13:22:41.137Z</time></trkpt><trkpt lat="39.9917949" lon="-2.1871676"><ele>946.0</ele><time>2026-03-22T13:22:42.129Z</time></trkpt><trkpt lat="39.9916904" lon="-2.1870927"><ele>946.3333333333333</ele><time>2026-03-22T13:22:43.135Z</time></trkpt><trkpt lat="39.9916016" lon="-2.1869189"><ele>946.6666666666667</ele><time>2026-03-22T13:22:44.135Z</time></trkpt><trkpt lat="39.9915374" lon="-2.1867221"><ele>947.0</ele><time>2026-03-22T13:22:45.133Z</time></trkpt><trkpt lat="39.9914673" lon="-2.1865735"><ele>947.25</ele><time>2026-03-22T13:22:46.133Z</time></trkpt><trkpt lat="39.9913771" lon="-2.1864502"><ele>947.5</ele><time>2026-03-22T13:22:47.151Z</time></trkpt><trkpt lat="39.9912724" lon="-2.1863421"><ele>947.75</ele><time>2026-03-22T13:22:48.138Z</time></trkpt><trkpt lat="39.9911529" lon="-2.1862482"><ele>948.0</ele><time>2026-03-22T13:22:49.139Z</time></trkpt><trkpt lat="39.9910075" lon="-2.1861498"><ele>948.0</ele><time>2026-03-22T13:22:50.142Z</time></trkpt><trkpt lat="39.9908538" lon="-2.186049"><ele>948.0</ele><time>2026-03-22T13:22:51.16Z</time></trkpt><trkpt lat="39.9906878" lon="-2.1859366"><ele>948.0</ele><time>2026-03-22T13:22:52.13Z</time></trkpt><trkpt lat="39.990515" lon="-2.1858239"><ele>949.3333333333333</ele><time>2026-03-22T13:22:53.139Z</time></trkpt><trkpt lat="39.9903339" lon="-2.1857159"><ele>950.6666666666666</ele><time>2026-03-22T13:22:54.13Z</time></trkpt><trkpt lat="39.990156" lon="-2.1856174"><ele>952.0</ele><time>2026-03-22T13:22:55.145Z</time></trkpt><trkpt lat="39.9899747" lon="-2.1855168"><ele>953.3333333333333</ele><time>2026-03-22T13:22:56.163Z</time></trkpt><trkpt lat="39.9897957" lon="-2.1854189"><ele>954.6666666666667</ele><time>2026-03-22T13:22:57.148Z</time></trkpt><trkpt lat="39.9896187" lon="-2.1853217"><ele>956.0</ele><time>2026-03-22T13:22:58.138Z</time></trkpt><trkpt lat="39.9894417" lon="-2.185224"><ele>956.0</ele><time>2026-03-22T13:22:59.139Z</time></trkpt><trkpt lat="39.9892642" lon="-2.1851248"><ele>956.0</ele><time>2026-03-22T13:23:00.163Z</time></trkpt><trkpt lat="39.9890902" lon="-2.1850194"><ele>956.0</ele><time>2026-03-22T13:23:01.145Z</time></trkpt><trkpt lat="39.9889133" lon="-2.1849252"><ele>957.3333333333334</ele><time>2026-03-22T13:23:02.141Z</time></trkpt><trkpt lat="39.988745" lon="-2.1848493"><ele>958.6666666666667</ele><time>2026-03-22T13:23:03.139Z</time></trkpt><trkpt lat="39.9885707" lon="-2.1847941"><ele>960.0</ele><time>2026-03-22T13:23:04.137Z</time></trkpt><trkpt lat="39.9883848" lon="-2.1847499"><ele>961.0</ele><time>2026-03-22T13:23:05.141Z</time></trkpt><trkpt lat="39.9881951" lon="-2.1847173"><ele>962.0</ele><time>2026-03-22T13:23:06.143Z</time></trkpt><trkpt lat="39.988024" lon="-2.184691"><ele>963.0</ele><time>2026-03-22T13:23:07.147Z</time></trkpt><trkpt lat="39.9878622" lon="-2.1846428"><ele>963.0</ele><time>2026-03-22T13:23:08.128Z</time></trkpt><trkpt lat="39.9877077" lon="-2.1845418"><ele>963.0</ele><time>2026-03-22T13:23:09.134Z</time></trkpt><trkpt lat="39.9875548" lon="-2.1844165"><ele>963.0</ele><time>2026-03-22T13:23:10.128Z</time></trkpt><trkpt lat="39.987403" lon="-2.184288"><ele>964.3333333333333</ele><time>2026-03-22T13:23:11.121Z</time></trkpt><trkpt lat="39.9872509" lon="-2.1841523"><ele>965.6666666666666</ele><time>2026-03-22T13:23:12.145Z</time></trkpt><trkpt lat="39.9870978" lon="-2.1840196"><ele>967.0</ele><time>2026-03-22T13:23:13.129Z</time></trkpt><trkpt lat="39.9869484" lon="-2.1838879"><ele>967.3333333333333</ele><time>2026-03-22T13:23:14.145Z</time></trkpt><trkpt lat="39.9867939" lon="-2.1837545"><ele>967.6666666666667</ele><time>2026-03-22T13:23:15.139Z</time></trkpt><trkpt lat="39.9866354" lon="-2.1836314"><ele>968.0</ele><time>2026-03-22T13:23:16.137Z</time></trkpt><trkpt lat="39.9864669" lon="-2.1835228"><ele>969.0</ele><time>2026-03-22T13:23:17.138Z</time></trkpt><trkpt lat="39.9862924" lon="-2.1834337"><ele>970.0</ele><time>2026-03-22T13:23:18.149Z</time></trkpt><trkpt lat="39.9861153" lon="-2.1833377"><ele>971.0</ele><time>2026-03-22T13:23:19.133Z</time></trkpt><trkpt lat="39.9859362" lon="-2.1832385"><ele>972.0</ele><time>2026-03-22T13:23:20.139Z</time></trkpt><trkpt lat="39.9857612" lon="-2.183143"><ele>973.0</ele><time>2026-03-22T13:23:21.139Z</time></trkpt><trkpt lat="39.9855834" lon="-2.1830531"><ele>974.0</ele><time>2026-03-22T13:23:22.141Z</time></trkpt><trkpt lat="39.9853961" lon="-2.1829742"><ele>974.0</ele><time>2026-03-22T13:23:23.155Z</time></trkpt><trkpt lat="39.9852066" lon="-2.1829048"><ele>974.0</ele><time>2026-03-22T13:23:24.139Z</time></trkpt><trkpt lat="39.9850163" lon="-2.1828407"><ele>974.0</ele><time>2026-03-22T13:23:25.148Z</time></trkpt><trkpt lat="39.9848279" lon="-2.1827756"><ele>974.3333333333334</ele><time>2026-03-22T13:23:26.139Z</time></trkpt><trkpt lat="39.9846424" lon="-2.1827097"><ele>974.6666666666667</ele><time>2026-03-22T13:23:27.155Z</time></trkpt><trkpt lat="39.9844638" lon="-2.1826512"><ele>975.0</ele><time>2026-03-22T13:23:28.142Z</time></trkpt><trkpt lat="39.984291" lon="-2.1825938"><ele>976.6666666666667</ele><time>2026-03-22T13:23:29.14Z</time></trkpt><trkpt lat="39.98412" lon="-2.1825395"><ele>978.3333333333334</ele><time>2026-03-22T13:23:30.176Z</time></trkpt><trkpt lat="39.9839546" lon="-2.1824901"><ele>980.0</ele><time>2026-03-22T13:23:31.135Z</time></trkpt><trkpt lat="39.9837939" lon="-2.1824473"><ele>980.0</ele><time>2026-03-22T13:23:32.145Z</time></trkpt><trkpt lat="39.983638" lon="-2.1824151"><ele>980.0</ele><time>2026-03-22T13:23:33.144Z</time></trkpt><trkpt lat="39.9834787" lon="-2.1824165"><ele>980.0</ele><time>2026-03-22T13:23:34.16Z</time></trkpt><trkpt lat="39.9833225" lon="-2.1824472"><ele>981.3333333333334</ele><time>2026-03-22T13:23:35.13Z</time></trkpt><trkpt lat="39.9831376" lon="-2.1824847"><ele>982.6666666666667</ele><time>2026-03-22T13:23:36.183Z</time></trkpt><trkpt lat="39.9829449" lon="-2.1825315"><ele>984.0</ele><time>2026-03-22T13:23:37.138Z</time></trkpt><trkpt lat="39.9827638" lon="-2.182574"><ele>984.0</ele><time>2026-03-22T13:23:38.137Z</time></trkpt><trkpt lat="39.9825829" lon="-2.1826197"><ele>984.0</ele><time>2026-03-22T13:23:39.157Z</time></trkpt><trkpt lat="39.9824026" lon="-2.182663"><ele>984.0</ele><time>2026-03-22T13:23:40.135Z</time></trkpt><trkpt lat="39.9822119" lon="-2.1826893"><ele>984.3333333333333</ele><time>2026-03-22T13:23:41.164Z</time></trkpt><trkpt lat="39.98203" lon="-2.1827059"><ele>984.6666666666666</ele><time>2026-03-22T13:23:42.141Z</time></trkpt><trkpt lat="39.9818415" lon="-2.1826913"><ele>985.0</ele><time>2026-03-22T13:23:43.143Z</time></trkpt><trkpt lat="39.9816583" lon="-2.1826653"><ele>987.0</ele><time>2026-03-22T13:23:44.156Z</time></trkpt><trkpt lat="39.981492" lon="-2.1826223"><ele>989.0</ele><time>2026-03-22T13:23:45.135Z</time></trkpt><trkpt lat="39.9813242" lon="-2.1825748"><ele>991.0</ele><time>2026-03-22T13:23:46.154Z</time></trkpt><trkpt lat="39.9811462" lon="-2.1825085"><ele>991.0</ele><time>2026-03-22T13:23:47.144Z</time></trkpt><trkpt lat="39.9809755" lon="-2.1824093"><ele>991.0</ele><time>2026-03-22T13:23:48.147Z</time></trkpt><trkpt lat="39.9808066" lon="-2.1822976"><ele>991.0</ele><time>2026-03-22T13:23:49.147Z</time></trkpt><trkpt lat="39.980632" lon="-2.1821907"><ele>992.3333333333333</ele><time>2026-03-22T13:23:50.131Z</time></trkpt><trkpt lat="39.9804544" lon="-2.1820783"><ele>993.6666666666667</ele><time>2026-03-22T13:23:51.144Z</time></trkpt><trkpt lat="39.980285" lon="-2.18197"><ele>995.0</ele><time>2026-03-22T13:23:52.157Z</time></trkpt><trkpt lat="39.9801162" lon="-2.1818682"><ele>996.3333333333334</ele><time>2026-03-22T13:23:53.144Z</time></trkpt><trkpt lat="39.9799585" lon="-2.1817698"><ele>997.6666666666667</ele><time>2026-03-22T13:23:54.174Z</time></trkpt><trkpt lat="39.9798067" lon="-2.1816727"><ele>999.0</ele><time>2026-03-22T13:23:55.145Z</time></trkpt><trkpt lat="39.9796569" lon="-2.1815657"><ele>998.3333333333333</ele><time>2026-03-22T13:23:56.154Z</time></trkpt><trkpt lat="39.9795057" lon="-2.1814488"><ele>997.6666666666666</ele><time>2026-03-22T13:23:57.129Z</time></trkpt><trkpt lat="39.979348" lon="-2.1813244"><ele>997.0</ele><time>2026-03-22T13:23:58.146Z</time></trkpt><trkpt lat="39.9791858" lon="-2.1811843"><ele>997.6666666666666</ele><time>2026-03-22T13:23:59.134Z</time></trkpt><trkpt lat="39.979023" lon="-2.1810487"><ele>998.3333333333333</ele><time>2026-03-22T13:24:00.161Z</time></trkpt><trkpt lat="39.9788554" lon="-2.180914"><ele>999.0</ele><time>2026-03-22T13:24:01.136Z</time></trkpt><trkpt lat="39.9786981" lon="-2.1807818"><ele>998.6666666666667</ele><time>2026-03-22T13:24:02.147Z</time></trkpt><trkpt lat="39.9785416" lon="-2.1806555"><ele>998.3333333333334</ele><time>2026-03-22T13:24:03.127Z</time></trkpt><trkpt lat="39.9783849" lon="-2.1805399"><ele>998.0</ele><time>2026-03-22T13:24:04.133Z</time></trkpt><trkpt lat="39.978219" lon="-2.180412"><ele>998.0</ele><time>2026-03-22T13:24:05.165Z</time></trkpt><trkpt lat="39.9780465" lon="-2.1802958"><ele>998.0</ele><time>2026-03-22T13:24:06.157Z</time></trkpt><trkpt lat="39.9778677" lon="-2.1801748"><ele>998.0</ele><time>2026-03-22T13:24:07.127Z</time></trkpt><trkpt lat="39.9776834" lon="-2.1800568"><ele>998.3333333333334</ele><time>2026-03-22T13:24:08.138Z</time></trkpt><trkpt lat="39.9774939" lon="-2.1799394"><ele>998.6666666666667</ele><time>2026-03-22T13:24:09.143Z</time></trkpt><trkpt lat="39.9773072" lon="-2.1798283"><ele>999.0</ele><time>2026-03-22T13:24:10.132Z</time></trkpt><trkpt lat="39.9771358" lon="-2.1797273"><ele>999.0</ele><time>2026-03-22T13:24:11.166Z</time></trkpt><trkpt lat="39.9769705" lon="-2.1796396"><ele>999.0</ele><time>2026-03-22T13:24:12.141Z</time></trkpt><trkpt lat="39.9768077" lon="-2.1795522"><ele>999.0</ele><time>2026-03-22T13:24:13.137Z</time></trkpt><trkpt lat="39.976635" lon="-2.1794639"><ele>1000.0</ele><time>2026-03-22T13:24:14.146Z</time></trkpt><trkpt lat="39.9764567" lon="-2.179374"><ele>1001.0</ele><time>2026-03-22T13:24:15.143Z</time></trkpt><trkpt lat="39.9762732" lon="-2.1792814"><ele>1002.0</ele><time>2026-03-22T13:24:16.127Z</time></trkpt><trkpt lat="39.9760933" lon="-2.1791932"><ele>1002.0</ele><time>2026-03-22T13:24:17.125Z</time></trkpt><trkpt lat="39.9759172" lon="-2.1791126"><ele>1002.0</ele><time>2026-03-22T13:24:18.14Z</time></trkpt><trkpt lat="39.9757429" lon="-2.1790327"><ele>1002.0</ele><time>2026-03-22T13:24:19.198Z</time></trkpt><trkpt lat="39.9755686" lon="-2.1789678"><ele>1003.3333333333333</ele><time>2026-03-22T13:24:20.169Z</time></trkpt><trkpt lat="39.9753874" lon="-2.1789268"><ele>1004.6666666666666</ele><time>2026-03-22T13:24:21.146Z</time></trkpt><trkpt lat="39.9752116" lon="-2.178898"><ele>1006.0</ele><time>2026-03-22T13:24:22.18Z</time></trkpt><trkpt lat="39.9750304" lon="-2.1788867"><ele>1007.6666666666666</ele><time>2026-03-22T13:24:23.151Z</time></trkpt><trkpt lat="39.9748437" lon="-2.1788807"><ele>1009.3333333333333</ele><time>2026-03-22T13:24:24.161Z</time></trkpt><trkpt lat="39.9746528" lon="-2.1788853"><ele>1011.0</ele><time>2026-03-22T13:24:25.152Z</time></trkpt><trkpt lat="39.9744621" lon="-2.178896"><ele>1011.0</ele><time>2026-03-22T13:24:26.179Z</time></trkpt><trkpt lat="39.974295" lon="-2.178912"><ele>1011.0</ele><time>2026-03-22T13:24:27.164Z</time></trkpt><trkpt lat="39.9741522" lon="-2.1789166"><ele>1011.0</ele><time>2026-03-22T13:24:28.225Z</time></trkpt><trkpt lat="39.9740399" lon="-2.1789282"><ele>1011.0</ele><time>2026-03-22T13:24:29.148Z</time></trkpt><trkpt lat="39.9739663" lon="-2.1789524"><ele>1011.0</ele><time>2026-03-22T13:24:30.159Z</time></trkpt><trkpt lat="39.9738929" lon="-2.1789018"><ele>1011.0</ele><time>2026-03-22T13:24:35.155Z</time></trkpt><trkpt lat="39.9739371" lon="-2.1788005"><ele>1011.0</ele><time>2026-03-22T13:24:37.145Z</time></trkpt><trkpt lat="39.9740218" lon="-2.1786901"><ele>1011.0</ele><time>2026-03-22T13:24:39.156Z</time></trkpt><trkpt lat="39.9740749" lon="-2.17864"><ele>1011.0</ele><time>2026-03-22T13:24:40.168Z</time></trkpt><trkpt lat="39.9741343" lon="-2.1785817"><ele>1011.0</ele><time>2026-03-22T13:24:41.183Z</time></trkpt><trkpt lat="39.9742027" lon="-2.1785105"><ele>1011.0</ele><time>2026-03-22T13:24:42.147Z</time></trkpt><trkpt lat="39.9742822" lon="-2.1783957"><ele>1010.9999999999999</ele><time>2026-03-22T13:24:43.145Z</time></trkpt><trkpt lat="39.9743444" lon="-2.1782863"><ele>1010.9999999999999</ele><time>2026-03-22T13:24:44.155Z</time></trkpt><trkpt lat="39.9744068" lon="-2.1781884"><ele>1011.0</ele><time>2026-03-22T13:24:45.141Z</time></trkpt><trkpt lat="39.9744648" lon="-2.1780954"><ele>1011.0</ele><time>2026-03-22T13:24:46.123Z</time></trkpt><trkpt lat="39.974526" lon="-2.1779893"><ele>1011.0</ele><time>2026-03-22T13:24:47.145Z</time></trkpt><trkpt lat="39.9745834" lon="-2.1778769"><ele>1010.9999999999999</ele><time>2026-03-22T13:24:48.144Z</time></trkpt><trkpt lat="39.9746625" lon="-2.1777792"><ele>1010.9999999999999</ele><time>2026-03-22T13:24:49.155Z</time></trkpt><trkpt lat="39.9747397" lon="-2.1776838"><ele>1011.0</ele><time>2026-03-22T13:24:50.161Z</time></trkpt><trkpt lat="39.974795" lon="-2.1776174"><ele>1011.0</ele><time>2026-03-22T13:24:52.14Z</time></trkpt><trkpt lat="39.9748426" lon="-2.1775365"><ele>1011.0</ele><time>2026-03-22T13:24:55.164Z</time></trkpt><trkpt lat="39.9749434" lon="-2.1774607"><ele>1010.9999999999999</ele><time>2026-03-22T13:24:59.175Z</time></trkpt><trkpt lat="39.9750598" lon="-2.1774606"><ele>1010.9999999999999</ele><time>2026-03-22T13:25:03.184Z</time></trkpt><trkpt lat="39.9750887" lon="-2.177585"><ele>1011.0</ele><time>2026-03-22T13:25:05.133Z</time></trkpt><trkpt lat="39.9750559" lon="-2.1776556"><ele>1011.0</ele><time>2026-03-22T13:25:06.162Z</time></trkpt><trkpt lat="39.9749977" lon="-2.1777184"><ele>1010.9999999999999</ele><time>2026-03-22T13:25:07.166Z</time></trkpt><trkpt lat="39.9749431" lon="-2.1777796"><ele>1011.0</ele><time>2026-03-22T13:25:08.157Z</time></trkpt><trkpt lat="39.9748869" lon="-2.1778422"><ele>1010.9999999999999</ele><time>2026-03-22T13:25:09.129Z</time></trkpt><trkpt lat="39.9748359" lon="-2.177904"><ele>1010.9999999999999</ele><time>2026-03-22T13:25:10.179Z</time></trkpt><trkpt lat="39.9747863" lon="-2.1779684"><ele>1011.0</ele><time>2026-03-22T13:25:11.156Z</time></trkpt><trkpt lat="39.9747403" lon="-2.1780396"><ele>1010.9999999999999</ele><time>2026-03-22T13:25:12.156Z</time></trkpt><trkpt lat="39.9746902" lon="-2.178121"><ele>1010.9999999999999</ele><time>2026-03-22T13:25:13.163Z</time></trkpt><trkpt lat="39.9746384" lon="-2.1782099"><ele>1011.0</ele><time>2026-03-22T13:25:14.165Z</time></trkpt><trkpt lat="39.9745748" lon="-2.1783138"><ele>1010.9999999999999</ele><time>2026-03-22T13:25:15.132Z</time></trkpt><trkpt lat="39.9745031" lon="-2.1783994"><ele>1010.9999999999999</ele><time>2026-03-22T13:25:16.135Z</time></trkpt><trkpt lat="39.9744296" lon="-2.1784661"><ele>1011.0</ele><time>2026-03-22T13:25:17.154Z</time></trkpt><trkpt lat="39.9743645" lon="-2.1785193"><ele>1011.0</ele><time>2026-03-22T13:25:18.183Z</time></trkpt><trkpt lat="39.9742695" lon="-2.1785934"><ele>1011.0</ele><time>2026-03-22T13:25:21.165Z</time></trkpt><trkpt lat="39.9742124" lon="-2.1786408"><ele>1010.9999999999999</ele><time>2026-03-22T13:25:23.155Z</time></trkpt><trkpt lat="39.9741156" lon="-2.1787129"><ele>1010.9999999999999</ele><time>2026-03-22T13:25:25.213Z</time></trkpt><trkpt lat="39.9740337" lon="-2.1787409"><ele>1011.0</ele><time>2026-03-22T13:25:26.178Z</time></trkpt><trkpt lat="39.9739293" lon="-2.1787733"><ele>1011.0</ele><time>2026-03-22T13:25:27.211Z</time></trkpt><trkpt lat="39.9738171" lon="-2.1788124"><ele>1011.25</ele><time>2026-03-22T13:25:28.134Z</time></trkpt><trkpt lat="39.9737017" lon="-2.1788618"><ele>1011.5</ele><time>2026-03-22T13:25:29.164Z</time></trkpt><trkpt lat="39.9735819" lon="-2.1789335"><ele>1011.75</ele><time>2026-03-22T13:25:30.126Z</time></trkpt><trkpt lat="39.9734612" lon="-2.1790168"><ele>1012.0</ele><time>2026-03-22T13:25:31.151Z</time></trkpt><trkpt lat="39.9733562" lon="-2.1791075"><ele>1011.75</ele><time>2026-03-22T13:25:32.137Z</time></trkpt><trkpt lat="39.9732607" lon="-2.1792149"><ele>1011.5</ele><time>2026-03-22T13:25:33.138Z</time></trkpt><trkpt lat="39.9731789" lon="-2.1793205"><ele>1011.25</ele><time>2026-03-22T13:25:34.145Z</time></trkpt><trkpt lat="39.9730965" lon="-2.1794358"><ele>1011.0</ele><time>2026-03-22T13:25:35.134Z</time></trkpt><trkpt lat="39.9730134" lon="-2.1795507"><ele>1011.0</ele><time>2026-03-22T13:25:36.144Z</time></trkpt><trkpt lat="39.9729219" lon="-2.1796584"><ele>1011.0</ele><time>2026-03-22T13:25:37.163Z</time></trkpt><trkpt lat="39.9728243" lon="-2.1797635"><ele>1011.0</ele><time>2026-03-22T13:25:38.154Z</time></trkpt><trkpt lat="39.9727151" lon="-2.1798678"><ele>1011.0</ele><time>2026-03-22T13:25:39.144Z</time></trkpt><trkpt lat="39.9726051" lon="-2.1799633"><ele>1011.5</ele><time>2026-03-22T13:25:40.141Z</time></trkpt><trkpt lat="39.9724917" lon="-2.180039"><ele>1012.0</ele><time>2026-03-22T13:25:41.144Z</time></trkpt><trkpt lat="39.9723666" lon="-2.180086"><ele>1012.5</ele><time>2026-03-22T13:25:42.147Z</time></trkpt><trkpt lat="39.9722326" lon="-2.1801022"><ele>1013.0</ele><time>2026-03-22T13:25:43.13Z</time></trkpt><trkpt lat="39.9720834" lon="-2.1801035"><ele>1013.0</ele><time>2026-03-22T13:25:44.143Z</time></trkpt><trkpt lat="39.971931" lon="-2.1800762"><ele>1013.0</ele><time>2026-03-22T13:25:45.152Z</time></trkpt><trkpt lat="39.971767" lon="-2.1800445"><ele>1013.0</ele><time>2026-03-22T13:25:46.155Z</time></trkpt><trkpt lat="39.971605" lon="-2.1800177"><ele>1015.3333333333334</ele><time>2026-03-22T13:25:47.149Z</time></trkpt><trkpt lat="39.971446" lon="-2.179982"><ele>1017.6666666666667</ele><time>2026-03-22T13:25:48.148Z</time></trkpt><trkpt lat="39.9712815" lon="-2.1799443"><ele>1020.0</ele><time>2026-03-22T13:25:49.139Z</time></trkpt><trkpt lat="39.9711233" lon="-2.1799119"><ele>1020.0</ele><time>2026-03-22T13:25:50.176Z</time></trkpt><trkpt lat="39.9709737" lon="-2.179892"><ele>1020.0</ele><time>2026-03-22T13:25:51.146Z</time></trkpt><trkpt lat="39.9708272" lon="-2.179886"><ele>1020.0</ele><time>2026-03-22T13:25:52.145Z</time></trkpt><trkpt lat="39.9706729" lon="-2.1799034"><ele>1019.6666666666667</ele><time>2026-03-22T13:25:53.148Z</time></trkpt><trkpt lat="39.9705111" lon="-2.1799511"><ele>1019.3333333333334</ele><time>2026-03-22T13:25:54.155Z</time></trkpt><trkpt lat="39.970356" lon="-2.1800037"><ele>1019.0</ele><time>2026-03-22T13:25:55.146Z</time></trkpt><trkpt lat="39.9701803" lon="-2.1800622"><ele>1018.6666666666667</ele><time>2026-03-22T13:25:56.146Z</time></trkpt><trkpt lat="39.9700165" lon="-2.1801283"><ele>1018.3333333333333</ele><time>2026-03-22T13:25:57.132Z</time></trkpt><trkpt lat="39.9698492" lon="-2.1801961"><ele>1018.0</ele><time>2026-03-22T13:25:58.133Z</time></trkpt><trkpt lat="39.9696967" lon="-2.1802544"><ele>1018.0</ele><time>2026-03-22T13:25:59.146Z</time></trkpt><trkpt lat="39.969548" lon="-2.1803027"><ele>1018.0</ele><time>2026-03-22T13:26:00.195Z</time></trkpt><trkpt lat="39.9693952" lon="-2.1803385"><ele>1018.0</ele><time>2026-03-22T13:26:01.164Z</time></trkpt><trkpt lat="39.9692592" lon="-2.1803497"><ele>1018.0</ele><time>2026-03-22T13:26:02.132Z</time></trkpt><trkpt lat="39.9691275" lon="-2.1803557"><ele>1018.4</ele><time>2026-03-22T13:26:03.153Z</time></trkpt><trkpt lat="39.9690109" lon="-2.1803587"><ele>1018.8</ele><time>2026-03-22T13:26:04.144Z</time></trkpt><trkpt lat="39.9689016" lon="-2.1803609"><ele>1019.2</ele><time>2026-03-22T13:26:05.158Z</time></trkpt><trkpt lat="39.9688011" lon="-2.1803621"><ele>1019.6</ele><time>2026-03-22T13:26:06.164Z</time></trkpt><trkpt lat="39.9687037" lon="-2.180377"><ele>1020.0</ele><time>2026-03-22T13:26:07.144Z</time></trkpt><trkpt lat="39.9686169" lon="-2.1804065"><ele>1020.0</ele><time>2026-03-22T13:26:08.186Z</time></trkpt><trkpt lat="39.968535" lon="-2.1804268"><ele>1020.0</ele><time>2026-03-22T13:26:09.164Z</time></trkpt><trkpt lat="39.9684505" lon="-2.1804424"><ele>1020.0</ele><time>2026-03-22T13:26:10.187Z</time></trkpt><trkpt lat="39.9683618" lon="-2.1804491"><ele>1020.0</ele><time>2026-03-22T13:26:11.16Z</time></trkpt><trkpt lat="39.9682705" lon="-2.1804355"><ele>1020.0</ele><time>2026-03-22T13:26:12.185Z</time></trkpt><trkpt lat="39.9681947" lon="-2.1803519"><ele>1020.0</ele><time>2026-03-22T13:26:13.198Z</time></trkpt><trkpt lat="39.9681278" lon="-2.1802342"><ele>1020.0</ele><time>2026-03-22T13:26:14.149Z</time></trkpt><trkpt lat="39.9680791" lon="-2.1800822"><ele>1020.0</ele><time>2026-03-22T13:26:15.161Z</time></trkpt><trkpt lat="39.968023" lon="-2.1799173"><ele>1020.0</ele><time>2026-03-22T13:26:16.167Z</time></trkpt><trkpt lat="39.9679738" lon="-2.1797336"><ele>1020.0</ele><time>2026-03-22T13:26:17.179Z</time></trkpt><trkpt lat="39.9679357" lon="-2.1795446"><ele>1019.0</ele><time>2026-03-22T13:26:18.143Z</time></trkpt><trkpt lat="39.9679034" lon="-2.1793537"><ele>1018.0</ele><time>2026-03-22T13:26:19.189Z</time></trkpt><trkpt lat="39.9678716" lon="-2.1791682"><ele>1017.0</ele><time>2026-03-22T13:26:20.167Z</time></trkpt><trkpt lat="39.967843" lon="-2.1790045"><ele>1016.0</ele><time>2026-03-22T13:26:21.121Z</time></trkpt><trkpt lat="39.9678174" lon="-2.1788521"><ele>1016.0</ele><time>2026-03-22T13:26:22.145Z</time></trkpt><trkpt lat="39.9677943" lon="-2.1787167"><ele>1015.9999999999999</ele><time>2026-03-22T13:26:23.147Z</time></trkpt><trkpt lat="39.967774" lon="-2.1785969"><ele>1015.9999999999999</ele><time>2026-03-22T13:26:24.15Z</time></trkpt><trkpt lat="39.9677615" lon="-2.1785141"><ele>1016.0</ele><time>2026-03-22T13:26:25.139Z</time></trkpt><trkpt lat="39.967746" lon="-2.1784334"><ele>1016.0</ele><time>2026-03-22T13:26:26.17Z</time></trkpt><trkpt lat="39.9677209" lon="-2.1782598"><ele>1015.8</ele><time>2026-03-22T13:26:28.145Z</time></trkpt><trkpt lat="39.9677121" lon="-2.1781542"><ele>1015.5999999999999</ele><time>2026-03-22T13:26:29.15Z</time></trkpt><trkpt lat="39.967705" lon="-2.178035"><ele>1015.4</ele><time>2026-03-22T13:26:30.135Z</time></trkpt><trkpt lat="39.9677092" lon="-2.1779125"><ele>1015.2</ele><time>2026-03-22T13:26:31.146Z</time></trkpt><trkpt lat="39.9677274" lon="-2.1777589"><ele>1015.0</ele><time>2026-03-22T13:26:32.148Z</time></trkpt><trkpt lat="39.967755" lon="-2.1775939"><ele>1015.0</ele><time>2026-03-22T13:26:33.138Z</time></trkpt><trkpt lat="39.9677774" lon="-2.177429"><ele>1015.0</ele><time>2026-03-22T13:26:34.147Z</time></trkpt><trkpt lat="39.9677885" lon="-2.1772572"><ele>1015.0</ele><time>2026-03-22T13:26:35.16Z</time></trkpt><trkpt lat="39.9677935" lon="-2.17708"><ele>1015.0</ele><time>2026-03-22T13:26:36.136Z</time></trkpt><trkpt lat="39.9677948" lon="-2.176885"><ele>1014.75</ele><time>2026-03-22T13:26:37.143Z</time></trkpt><trkpt lat="39.9677957" lon="-2.1766886"><ele>1014.5</ele><time>2026-03-22T13:26:38.142Z</time></trkpt><trkpt lat="39.9677999" lon="-2.1765125"><ele>1014.25</ele><time>2026-03-22T13:26:39.144Z</time></trkpt><trkpt lat="39.9678048" lon="-2.1763414"><ele>1014.0</ele><time>2026-03-22T13:26:40.138Z</time></trkpt><trkpt lat="39.9678133" lon="-2.1761883"><ele>1012.75</ele><time>2026-03-22T13:26:41.141Z</time></trkpt><trkpt lat="39.967825" lon="-2.1760251"><ele>1011.5</ele><time>2026-03-22T13:26:42.147Z</time></trkpt><trkpt lat="39.9678386" lon="-2.1758584"><ele>1010.25</ele><time>2026-03-22T13:26:43.133Z</time></trkpt><trkpt lat="39.9678529" lon="-2.1757024"><ele>1009.0</ele><time>2026-03-22T13:26:44.143Z</time></trkpt><trkpt lat="39.9678628" lon="-2.1755548"><ele>1007.8000000000001</ele><time>2026-03-22T13:26:45.135Z</time></trkpt><trkpt lat="39.9678707" lon="-2.1754172"><ele>1006.6000000000001</ele><time>2026-03-22T13:26:46.142Z</time></trkpt><trkpt lat="39.9678763" lon="-2.1752819"><ele>1005.4</ele><time>2026-03-22T13:26:47.133Z</time></trkpt><trkpt lat="39.9678703" lon="-2.1751714"><ele>1004.2</ele><time>2026-03-22T13:26:48.129Z</time></trkpt><trkpt lat="39.9678571" lon="-2.1750566"><ele>1003.0</ele><time>2026-03-22T13:26:49.139Z</time></trkpt><trkpt lat="39.9678236" lon="-2.1749435"><ele>1001.9999999999999</ele><time>2026-03-22T13:26:50.14Z</time></trkpt><trkpt lat="39.967794" lon="-2.1748382"><ele>1001.0</ele><time>2026-03-22T13:26:51.144Z</time></trkpt><trkpt lat="39.9677643" lon="-2.1747431"><ele>1000.0</ele><time>2026-03-22T13:26:52.139Z</time></trkpt><trkpt lat="39.9677385" lon="-2.1746555"><ele>999.0</ele><time>2026-03-22T13:26:53.131Z</time></trkpt><trkpt lat="39.9677113" lon="-2.1745671"><ele>997.9999999999999</ele><time>2026-03-22T13:26:54.146Z</time></trkpt><trkpt lat="39.9676837" lon="-2.174476"><ele>997.0</ele><time>2026-03-22T13:26:55.148Z</time></trkpt><trkpt lat="39.9676434" lon="-2.1743719"><ele>996.9999999999999</ele><time>2026-03-22T13:26:56.145Z</time></trkpt><trkpt lat="39.967589" lon="-2.1742706"><ele>997.0</ele><time>2026-03-22T13:26:57.158Z</time></trkpt><trkpt lat="39.9675375" lon="-2.1741815"><ele>997.0</ele><time>2026-03-22T13:26:58.146Z</time></trkpt><trkpt lat="39.9674884" lon="-2.1740983"><ele>997.0</ele><time>2026-03-22T13:26:59.143Z</time></trkpt><trkpt lat="39.9674361" lon="-2.174018"><ele>996.9999999999999</ele><time>2026-03-22T13:27:00.145Z</time></trkpt><trkpt lat="39.9673794" lon="-2.1739399"><ele>997.0</ele><time>2026-03-22T13:27:01.128Z</time></trkpt><trkpt lat="39.9673211" lon="-2.1738717"><ele>995.6666666666666</ele><time>2026-03-22T13:27:02.131Z</time></trkpt><trkpt lat="39.967255" lon="-2.1738071"><ele>994.3333333333333</ele><time>2026-03-22T13:27:03.143Z</time></trkpt><trkpt lat="39.9671855" lon="-2.1737432"><ele>993.0</ele><time>2026-03-22T13:27:04.147Z</time></trkpt><trkpt lat="39.9671164" lon="-2.1736758"><ele>991.6666666666667</ele><time>2026-03-22T13:27:05.142Z</time></trkpt><trkpt lat="39.9670461" lon="-2.1736149"><ele>990.3333333333334</ele><time>2026-03-22T13:27:06.17Z</time></trkpt><trkpt lat="39.9669817" lon="-2.1735551"><ele>989.0</ele><time>2026-03-22T13:27:07.171Z</time></trkpt><trkpt lat="39.9669204" lon="-2.173498"><ele>989.0000000000001</ele><time>2026-03-22T13:27:08.154Z</time></trkpt><trkpt lat="39.9668631" lon="-2.1734415"><ele>989.0</ele><time>2026-03-22T13:27:09.138Z</time></trkpt><trkpt lat="39.9667752" lon="-2.1733481"><ele>989.0</ele><time>2026-03-22T13:27:11.147Z</time></trkpt><trkpt lat="39.966726" lon="-2.1732868"><ele>989.0</ele><time>2026-03-22T13:27:13.138Z</time></trkpt><trkpt lat="39.9666982" lon="-2.1731883"><ele>989.0000000000001</ele><time>2026-03-22T13:27:16.151Z</time></trkpt><trkpt lat="39.9667085" lon="-2.1730835"><ele>989.0</ele><time>2026-03-22T13:27:29.178Z</time></trkpt><trkpt lat="39.9667719" lon="-2.173004"><ele>989.0</ele><time>2026-03-22T13:27:31.15Z</time></trkpt><trkpt lat="39.966912" lon="-2.1730623"><ele>989.0</ele><time>2026-03-22T13:27:33.148Z</time></trkpt><trkpt lat="39.9669968" lon="-2.1731685"><ele>989.0</ele><time>2026-03-22T13:27:34.156Z</time></trkpt><trkpt lat="39.9670807" lon="-2.1732778"><ele>989.0</ele><time>2026-03-22T13:27:35.151Z</time></trkpt><trkpt lat="39.9671654" lon="-2.1733837"><ele>989.0</ele><time>2026-03-22T13:27:36.169Z</time></trkpt><trkpt lat="39.967261" lon="-2.1734999"><ele>989.0</ele><time>2026-03-22T13:27:37.149Z</time></trkpt><trkpt lat="39.9673485" lon="-2.1736063"><ele>989.0</ele><time>2026-03-22T13:27:38.147Z</time></trkpt><trkpt lat="39.9674361" lon="-2.1737026"><ele>989.0</ele><time>2026-03-22T13:27:39.164Z</time></trkpt><trkpt lat="39.9675195" lon="-2.1737989"><ele>989.8000000000001</ele><time>2026-03-22T13:27:40.165Z</time></trkpt><trkpt lat="39.9675981" lon="-2.1738897"><ele>990.6000000000001</ele><time>2026-03-22T13:27:41.148Z</time></trkpt><trkpt lat="39.967671" lon="-2.1739747"><ele>991.4</ele><time>2026-03-22T13:27:42.137Z</time></trkpt><trkpt lat="39.9677368" lon="-2.1740704"><ele>992.2</ele><time>2026-03-22T13:27:43.131Z</time></trkpt><trkpt lat="39.9678013" lon="-2.1741703"><ele>993.0</ele><time>2026-03-22T13:27:44.148Z</time></trkpt><trkpt lat="39.9678613" lon="-2.1742716"><ele>993.8</ele><time>2026-03-22T13:27:45.137Z</time></trkpt><trkpt lat="39.9679017" lon="-2.1743536"><ele>994.5999999999999</ele><time>2026-03-22T13:27:46.131Z</time></trkpt><trkpt lat="39.967949" lon="-2.1744705"><ele>995.4000000000001</ele><time>2026-03-22T13:27:48.139Z</time></trkpt><trkpt lat="39.9679934" lon="-2.174569"><ele>996.2</ele><time>2026-03-22T13:27:59.156Z</time></trkpt><trkpt lat="39.967964" lon="-2.1744294"><ele>997.0</ele><time>2026-03-22T13:28:02.127Z</time></trkpt><trkpt lat="39.9679146" lon="-2.1743426"><ele>996.9999999999999</ele><time>2026-03-22T13:28:03.129Z</time></trkpt><trkpt lat="39.9678789" lon="-2.1742478"><ele>997.0</ele><time>2026-03-22T13:28:04.15Z</time></trkpt><trkpt lat="39.9678523" lon="-2.1741474"><ele>997.0</ele><time>2026-03-22T13:28:05.134Z</time></trkpt><trkpt lat="39.9678293" lon="-2.1740625"><ele>997.0</ele><time>2026-03-22T13:28:06.148Z</time></trkpt><trkpt lat="39.9677957" lon="-2.1739584"><ele>996.9999999999999</ele><time>2026-03-22T13:28:08.134Z</time></trkpt><trkpt lat="39.9678431" lon="-2.1738503"><ele>997.0</ele><time>2026-03-22T13:28:11.146Z</time></trkpt><trkpt lat="39.9679303" lon="-2.1737184"><ele>996.3333333333333</ele><time>2026-03-22T13:28:13.131Z</time></trkpt><trkpt lat="39.9679783" lon="-2.1736264"><ele>995.6666666666666</ele><time>2026-03-22T13:28:14.131Z</time></trkpt><trkpt lat="39.9680095" lon="-2.1735287"><ele>995.0</ele><time>2026-03-22T13:28:15.141Z</time></trkpt><trkpt lat="39.9680237" lon="-2.1734278"><ele>994.3333333333333</ele><time>2026-03-22T13:28:16.138Z</time></trkpt><trkpt lat="39.9680382" lon="-2.1733129"><ele>993.6666666666666</ele><time>2026-03-22T13:28:17.133Z</time></trkpt><trkpt lat="39.9680475" lon="-2.1731893"><ele>993.0</ele><time>2026-03-22T13:28:18.139Z</time></trkpt><trkpt lat="39.9680587" lon="-2.1730618"><ele>993.0</ele><time>2026-03-22T13:28:19.138Z</time></trkpt><trkpt lat="39.9680615" lon="-2.1729283"><ele>993.0</ele><time>2026-03-22T13:28:20.16Z</time></trkpt><trkpt lat="39.968066" lon="-2.1727904"><ele>993.0</ele><time>2026-03-22T13:28:21.139Z</time></trkpt><trkpt lat="39.9680734" lon="-2.1726536"><ele>993.0</ele><time>2026-03-22T13:28:22.129Z</time></trkpt><trkpt lat="39.9680758" lon="-2.1725224"><ele>993.0</ele><time>2026-03-22T13:28:23.145Z</time></trkpt><trkpt lat="39.9680726" lon="-2.1723894"><ele>993.2</ele><time>2026-03-22T13:28:24.14Z</time></trkpt><trkpt lat="39.9680634" lon="-2.1722561"><ele>993.4</ele><time>2026-03-22T13:28:25.142Z</time></trkpt><trkpt lat="39.968051" lon="-2.1721286"><ele>993.6000000000001</ele><time>2026-03-22T13:28:26.137Z</time></trkpt><trkpt lat="39.9680368" lon="-2.1719972"><ele>993.8000000000001</ele><time>2026-03-22T13:28:27.132Z</time></trkpt><trkpt lat="39.9680184" lon="-2.171863"><ele>994.0</ele><time>2026-03-22T13:28:28.138Z</time></trkpt><trkpt lat="39.9679998" lon="-2.1717398"><ele>994.0</ele><time>2026-03-22T13:28:29.146Z</time></trkpt><trkpt lat="39.9679767" lon="-2.1716089"><ele>994.0000000000001</ele><time>2026-03-22T13:28:30.151Z</time></trkpt><trkpt lat="39.9679521" lon="-2.1714808"><ele>994.0000000000001</ele><time>2026-03-22T13:28:31.132Z</time></trkpt><trkpt lat="39.9679211" lon="-2.1713441"><ele>994.0</ele><time>2026-03-22T13:28:32.132Z</time></trkpt><trkpt lat="39.9678869" lon="-2.1712137"><ele>994.0</ele><time>2026-03-22T13:28:33.143Z</time></trkpt><trkpt lat="39.9678691" lon="-2.1710929"><ele>992.8000000000001</ele><time>2026-03-22T13:28:34.134Z</time></trkpt><trkpt lat="39.9678583" lon="-2.1709637"><ele>991.6000000000001</ele><time>2026-03-22T13:28:35.143Z</time></trkpt><trkpt lat="39.9678552" lon="-2.1708298"><ele>990.4</ele><time>2026-03-22T13:28:36.144Z</time></trkpt><trkpt lat="39.9678571" lon="-2.1706999"><ele>989.2</ele><time>2026-03-22T13:28:37.137Z</time></trkpt><trkpt lat="39.9678506" lon="-2.1705628"><ele>988.0</ele><time>2026-03-22T13:28:38.147Z</time></trkpt><trkpt lat="39.9678438" lon="-2.1704443"><ele>986.8</ele><time>2026-03-22T13:28:39.162Z</time></trkpt><trkpt lat="39.9678438" lon="-2.1703161"><ele>985.5999999999999</ele><time>2026-03-22T13:28:40.151Z</time></trkpt><trkpt lat="39.96785" lon="-2.1701921"><ele>984.4000000000001</ele><time>2026-03-22T13:28:41.155Z</time></trkpt><trkpt lat="39.9678657" lon="-2.1700699"><ele>983.2</ele><time>2026-03-22T13:28:42.129Z</time></trkpt><trkpt lat="39.9678935" lon="-2.1699339"><ele>982.0</ele><time>2026-03-22T13:28:43.145Z</time></trkpt><trkpt lat="39.9679298" lon="-2.1697952"><ele>981.2</ele><time>2026-03-22T13:28:44.15Z</time></trkpt><trkpt lat="39.9679688" lon="-2.1696641"><ele>980.4000000000001</ele><time>2026-03-22T13:28:45.148Z</time></trkpt><trkpt lat="39.9680215" lon="-2.1695378"><ele>979.5999999999999</ele><time>2026-03-22T13:28:46.141Z</time></trkpt><trkpt lat="39.9680788" lon="-2.1694117"><ele>978.8</ele><time>2026-03-22T13:28:47.137Z</time></trkpt><trkpt lat="39.9681358" lon="-2.1692886"><ele>978.0</ele><time>2026-03-22T13:28:48.128Z</time></trkpt><trkpt lat="39.9681892" lon="-2.1691711"><ele>978.0</ele><time>2026-03-22T13:28:49.148Z</time></trkpt><trkpt lat="39.9682334" lon="-2.1690549"><ele>978.0</ele><time>2026-03-22T13:28:50.147Z</time></trkpt><trkpt lat="39.9682683" lon="-2.168936"><ele>978.0</ele><time>2026-03-22T13:28:51.16Z</time></trkpt><trkpt lat="39.9683023" lon="-2.1688184"><ele>978.0</ele><time>2026-03-22T13:28:52.147Z</time></trkpt><trkpt lat="39.9683372" lon="-2.1686904"><ele>978.0</ele><time>2026-03-22T13:28:53.143Z</time></trkpt><trkpt lat="39.968368" lon="-2.1685643"><ele>978.0</ele><time>2026-03-22T13:28:54.128Z</time></trkpt><trkpt lat="39.9683928" lon="-2.1684445"><ele>978.0</ele><time>2026-03-22T13:28:55.133Z</time></trkpt><trkpt lat="39.9684084" lon="-2.1683155"><ele>978.0</ele><time>2026-03-22T13:28:56.155Z</time></trkpt><trkpt lat="39.9684057" lon="-2.1681671"><ele>978.0</ele><time>2026-03-22T13:28:57.159Z</time></trkpt><trkpt lat="39.9684038" lon="-2.1680215"><ele>978.0</ele><time>2026-03-22T13:28:58.166Z</time></trkpt><trkpt lat="39.968394" lon="-2.1678646"><ele>977.0</ele><time>2026-03-22T13:28:59.133Z</time></trkpt><trkpt lat="39.9683874" lon="-2.1677099"><ele>976.0</ele><time>2026-03-22T13:29:00.175Z</time></trkpt><trkpt lat="39.9683826" lon="-2.1675609"><ele>975.0</ele><time>2026-03-22T13:29:01.127Z</time></trkpt><trkpt lat="39.968374" lon="-2.1674134"><ele>974.0</ele><time>2026-03-22T13:29:02.14Z</time></trkpt><trkpt lat="39.9683662" lon="-2.16728"><ele>973.0</ele><time>2026-03-22T13:29:03.137Z</time></trkpt><trkpt lat="39.9683533" lon="-2.1671727"><ele>972.8</ele><time>2026-03-22T13:29:04.148Z</time></trkpt><trkpt lat="39.968341" lon="-2.1670529"><ele>972.5999999999999</ele><time>2026-03-22T13:29:05.133Z</time></trkpt><trkpt lat="39.9683305" lon="-2.1669263"><ele>972.4000000000001</ele><time>2026-03-22T13:29:06.15Z</time></trkpt><trkpt lat="39.9683257" lon="-2.1667852"><ele>972.2</ele><time>2026-03-22T13:29:07.144Z</time></trkpt><trkpt lat="39.9683238" lon="-2.1666348"><ele>972.0</ele><time>2026-03-22T13:29:08.135Z</time></trkpt><trkpt lat="39.9683245" lon="-2.1664862"><ele>973.8333333333334</ele><time>2026-03-22T13:29:09.149Z</time></trkpt><trkpt lat="39.9683229" lon="-2.1663462"><ele>975.6666666666667</ele><time>2026-03-22T13:29:10.132Z</time></trkpt><trkpt lat="39.9683217" lon="-2.1662213"><ele>977.5</ele><time>2026-03-22T13:29:11.167Z</time></trkpt><trkpt lat="39.9683264" lon="-2.1661081"><ele>979.3333333333334</ele><time>2026-03-22T13:29:12.134Z</time></trkpt><trkpt lat="39.9683215" lon="-2.1660151"><ele>981.1666666666667</ele><time>2026-03-22T13:29:13.127Z</time></trkpt><trkpt lat="39.9682836" lon="-2.165938"><ele>983.0</ele><time>2026-03-22T13:29:14.138Z</time></trkpt><trkpt lat="39.9682184" lon="-2.1659039"><ele>983.0000000000001</ele><time>2026-03-22T13:29:15.128Z</time></trkpt><trkpt lat="39.9681476" lon="-2.1658585"><ele>983.0</ele><time>2026-03-22T13:29:16.147Z</time></trkpt><trkpt lat="39.9680809" lon="-2.1657941"><ele>983.0</ele><time>2026-03-22T13:29:17.133Z</time></trkpt><trkpt lat="39.968018" lon="-2.1657239"><ele>983.0</ele><time>2026-03-22T13:29:18.136Z</time></trkpt><trkpt lat="39.967961" lon="-2.1656517"><ele>983.0000000000001</ele><time>2026-03-22T13:29:19.132Z</time></trkpt><trkpt lat="39.9679067" lon="-2.1655679"><ele>983.0</ele><time>2026-03-22T13:29:20.134Z</time></trkpt><trkpt lat="39.967862" lon="-2.165476"><ele>984.1666666666667</ele><time>2026-03-22T13:29:21.138Z</time></trkpt><trkpt lat="39.9678322" lon="-2.1653808"><ele>985.3333333333334</ele><time>2026-03-22T13:29:22.162Z</time></trkpt><trkpt lat="39.9678191" lon="-2.165285"><ele>986.5</ele><time>2026-03-22T13:29:23.145Z</time></trkpt><trkpt lat="39.9678095" lon="-2.1651965"><ele>987.6666666666667</ele><time>2026-03-22T13:29:24.138Z</time></trkpt><trkpt lat="39.9678279" lon="-2.1651078"><ele>988.8333333333334</ele><time>2026-03-22T13:29:25.136Z</time></trkpt><trkpt lat="39.9678595" lon="-2.1650199"><ele>990.0</ele><time>2026-03-22T13:29:26.128Z</time></trkpt><trkpt lat="39.9678929" lon="-2.1649133"><ele>989.2</ele><time>2026-03-22T13:29:27.136Z</time></trkpt><trkpt lat="39.9679149" lon="-2.1647919"><ele>988.4</ele><time>2026-03-22T13:29:28.152Z</time></trkpt><trkpt lat="39.9679329" lon="-2.1646516"><ele>987.5999999999999</ele><time>2026-03-22T13:29:29.147Z</time></trkpt><trkpt lat="39.9679354" lon="-2.1645189"><ele>986.8</ele><time>2026-03-22T13:29:30.145Z</time></trkpt><trkpt lat="39.9679368" lon="-2.1644057"><ele>986.0</ele><time>2026-03-22T13:29:31.137Z</time></trkpt><trkpt lat="39.9679405" lon="-2.1643094"><ele>986.0000000000001</ele><time>2026-03-22T13:29:32.126Z</time></trkpt><trkpt lat="39.9679654" lon="-2.1641866"><ele>986.0</ele><time>2026-03-22T13:29:34.133Z</time></trkpt><trkpt lat="39.96804" lon="-2.1640984"><ele>986.0</ele><time>2026-03-22T13:29:36.146Z</time></trkpt><trkpt lat="39.9681063" lon="-2.1640664"><ele>986.0</ele><time>2026-03-22T13:29:37.137Z</time></trkpt><trkpt lat="39.9681828" lon="-2.1640364"><ele>986.0000000000001</ele><time>2026-03-22T13:29:38.138Z</time></trkpt><trkpt lat="39.968246" lon="-2.1640139"><ele>986.0</ele><time>2026-03-22T13:29:39.138Z</time></trkpt><trkpt lat="39.9683203" lon="-2.1639776"><ele>985.1999999999999</ele><time>2026-03-22T13:29:54.152Z</time></trkpt><trkpt lat="39.968372" lon="-2.1638643"><ele>984.3999999999999</ele><time>2026-03-22T13:29:57.134Z</time></trkpt><trkpt lat="39.9683934" lon="-2.1637863"><ele>983.6</ele><time>2026-03-22T13:29:58.152Z</time></trkpt><trkpt lat="39.9684077" lon="-2.1636854"><ele>982.8</ele><time>2026-03-22T13:29:59.147Z</time></trkpt><trkpt lat="39.9684361" lon="-2.1635488"><ele>982.0</ele><time>2026-03-22T13:30:00.135Z</time></trkpt><trkpt lat="39.9684669" lon="-2.1633918"><ele>982.0</ele><time>2026-03-22T13:30:01.138Z</time></trkpt><trkpt lat="39.9685027" lon="-2.1632392"><ele>982.0</ele><time>2026-03-22T13:30:02.144Z</time></trkpt><trkpt lat="39.9685321" lon="-2.1630823"><ele>982.0</ele><time>2026-03-22T13:30:03.155Z</time></trkpt><trkpt lat="39.9685579" lon="-2.1629377"><ele>982.0</ele><time>2026-03-22T13:30:04.14Z</time></trkpt><trkpt lat="39.9685775" lon="-2.1628071"><ele>982.4999999999999</ele><time>2026-03-22T13:30:05.132Z</time></trkpt><trkpt lat="39.9685957" lon="-2.1626901"><ele>983.0</ele><time>2026-03-22T13:30:06.148Z</time></trkpt><trkpt lat="39.9686101" lon="-2.1625872"><ele>983.5</ele><time>2026-03-22T13:30:07.146Z</time></trkpt><trkpt lat="39.9686229" lon="-2.1625023"><ele>984.0</ele><time>2026-03-22T13:30:08.146Z</time></trkpt><trkpt lat="39.9686479" lon="-2.1623913"><ele>984.4999999999999</ele><time>2026-03-22T13:30:10.138Z</time></trkpt><trkpt lat="39.9687107" lon="-2.1623315"><ele>985.0</ele><time>2026-03-22T13:30:12.151Z</time></trkpt><trkpt lat="39.9688442" lon="-2.1623677"><ele>985.0</ele><time>2026-03-22T13:30:14.137Z</time></trkpt><trkpt lat="39.9689245" lon="-2.1623997"><ele>985.0</ele><time>2026-03-22T13:30:15.148Z</time></trkpt><trkpt lat="39.9690088" lon="-2.1624283"><ele>985.0</ele><time>2026-03-22T13:30:16.147Z</time></trkpt><trkpt lat="39.9691031" lon="-2.1624705"><ele>985.0</ele><time>2026-03-22T13:30:17.134Z</time></trkpt><trkpt lat="39.9691934" lon="-2.1625144"><ele>985.0</ele><time>2026-03-22T13:30:18.148Z</time></trkpt><trkpt lat="39.9692875" lon="-2.1625575"><ele>984.0</ele><time>2026-03-22T13:30:19.144Z</time></trkpt><trkpt lat="39.9693972" lon="-2.1625952"><ele>983.0</ele><time>2026-03-22T13:30:20.13Z</time></trkpt><trkpt lat="39.9695079" lon="-2.1626496"><ele>982.0</ele><time>2026-03-22T13:30:21.145Z</time></trkpt><trkpt lat="39.9696085" lon="-2.1627106"><ele>981.0</ele><time>2026-03-22T13:30:22.134Z</time></trkpt><trkpt lat="39.969712" lon="-2.1627587"><ele>981.0</ele><time>2026-03-22T13:30:23.145Z</time></trkpt><trkpt lat="39.9698236" lon="-2.1628204"><ele>981.0</ele><time>2026-03-22T13:30:24.15Z</time></trkpt><trkpt lat="39.9699407" lon="-2.1628798"><ele>981.0</ele><time>2026-03-22T13:30:25.14Z</time></trkpt><trkpt lat="39.9700615" lon="-2.1629311"><ele>981.0</ele><time>2026-03-22T13:30:26.134Z</time></trkpt><trkpt lat="39.9701719" lon="-2.1629782"><ele>980.8</ele><time>2026-03-22T13:30:27.133Z</time></trkpt><trkpt lat="39.9702802" lon="-2.1630234"><ele>980.5999999999999</ele><time>2026-03-22T13:30:28.13Z</time></trkpt><trkpt lat="39.9703799" lon="-2.1630635"><ele>980.4</ele><time>2026-03-22T13:30:29.135Z</time></trkpt><trkpt lat="39.9704768" lon="-2.1630971"><ele>980.2</ele><time>2026-03-22T13:30:30.157Z</time></trkpt><trkpt lat="39.970575" lon="-2.1631266"><ele>980.0</ele><time>2026-03-22T13:30:31.151Z</time></trkpt><trkpt lat="39.9706739" lon="-2.1631496"><ele>980.0</ele><time>2026-03-22T13:30:32.148Z</time></trkpt><trkpt lat="39.9707717" lon="-2.1631675"><ele>980.0</ele><time>2026-03-22T13:30:33.14Z</time></trkpt><trkpt lat="39.9708707" lon="-2.163183"><ele>980.0</ele><time>2026-03-22T13:30:34.131Z</time></trkpt><trkpt lat="39.9709641" lon="-2.1631891"><ele>980.0</ele><time>2026-03-22T13:30:35.163Z</time></trkpt><trkpt lat="39.9710528" lon="-2.1631931"><ele>980.0</ele><time>2026-03-22T13:30:36.15Z</time></trkpt><trkpt lat="39.9711465" lon="-2.1632017"><ele>977.6</ele><time>2026-03-22T13:30:37.159Z</time></trkpt><trkpt lat="39.9712386" lon="-2.1632108"><ele>975.2</ele><time>2026-03-22T13:30:38.178Z</time></trkpt><trkpt lat="39.971334" lon="-2.1632276"><ele>972.8</ele><time>2026-03-22T13:30:39.146Z</time></trkpt><trkpt lat="39.9714323" lon="-2.1632389"><ele>970.4</ele><time>2026-03-22T13:30:40.141Z</time></trkpt><trkpt lat="39.9715344" lon="-2.1632454"><ele>968.0</ele><time>2026-03-22T13:30:41.155Z</time></trkpt><trkpt lat="39.9716417" lon="-2.1632609"><ele>967.8</ele><time>2026-03-22T13:30:42.136Z</time></trkpt><trkpt lat="39.9717454" lon="-2.1632741"><ele>967.5999999999999</ele><time>2026-03-22T13:30:43.133Z</time></trkpt><trkpt lat="39.9718476" lon="-2.1632815"><ele>967.4000000000001</ele><time>2026-03-22T13:30:44.135Z</time></trkpt><trkpt lat="39.9719505" lon="-2.1632889"><ele>967.2</ele><time>2026-03-22T13:30:45.132Z</time></trkpt><trkpt lat="39.9720628" lon="-2.1632961"><ele>967.0</ele><time>2026-03-22T13:30:46.138Z</time></trkpt><trkpt lat="39.9721672" lon="-2.1633061"><ele>967.0</ele><time>2026-03-22T13:30:47.134Z</time></trkpt><trkpt lat="39.9722821" lon="-2.1633185"><ele>967.0</ele><time>2026-03-22T13:30:48.144Z</time></trkpt><trkpt lat="39.9724042" lon="-2.1633326"><ele>967.0</ele><time>2026-03-22T13:30:49.139Z</time></trkpt><trkpt lat="39.9725322" lon="-2.1633462"><ele>967.0</ele><time>2026-03-22T13:30:50.133Z</time></trkpt><trkpt lat="39.972657" lon="-2.1633591"><ele>966.6</ele><time>2026-03-22T13:30:51.151Z</time></trkpt><trkpt lat="39.9727729" lon="-2.1633769"><ele>966.2</ele><time>2026-03-22T13:30:52.135Z</time></trkpt><trkpt lat="39.9728826" lon="-2.1633981"><ele>965.8</ele><time>2026-03-22T13:30:53.13Z</time></trkpt><trkpt lat="39.9729842" lon="-2.1634297"><ele>965.4</ele><time>2026-03-22T13:30:54.153Z</time></trkpt><trkpt lat="39.9730708" lon="-2.1634373"><ele>965.0</ele><time>2026-03-22T13:30:55.143Z</time></trkpt><trkpt lat="39.9731346" lon="-2.1634171"><ele>965.0</ele><time>2026-03-22T13:30:56.146Z</time></trkpt><trkpt lat="39.9732234" lon="-2.1633391"><ele>965.0</ele><time>2026-03-22T13:30:58.13Z</time></trkpt><trkpt lat="39.9733371" lon="-2.1632171"><ele>965.0</ele><time>2026-03-22T13:31:00.194Z</time></trkpt><trkpt lat="39.9734162" lon="-2.1631422"><ele>965.0</ele><time>2026-03-22T13:31:01.15Z</time></trkpt><trkpt lat="39.973511" lon="-2.16305"><ele>964.25</ele><time>2026-03-22T13:31:02.16Z</time></trkpt><trkpt lat="39.9736142" lon="-2.1629485"><ele>963.5</ele><time>2026-03-22T13:31:03.187Z</time></trkpt><trkpt lat="39.9737107" lon="-2.162844"><ele>962.75</ele><time>2026-03-22T13:31:04.135Z</time></trkpt><trkpt lat="39.9738097" lon="-2.1627397"><ele>962.0</ele><time>2026-03-22T13:31:05.138Z</time></trkpt><trkpt lat="39.9739067" lon="-2.1626592"><ele>962.0</ele><time>2026-03-22T13:31:06.15Z</time></trkpt><trkpt lat="39.9740015" lon="-2.1625805"><ele>962.0</ele><time>2026-03-22T13:31:07.149Z</time></trkpt><trkpt lat="39.9740992" lon="-2.1625059"><ele>962.0</ele><time>2026-03-22T13:31:08.132Z</time></trkpt><trkpt lat="39.9742015" lon="-2.1624298"><ele>962.0</ele><time>2026-03-22T13:31:09.131Z</time></trkpt><trkpt lat="39.9743132" lon="-2.1623485"><ele>960.75</ele><time>2026-03-22T13:31:10.162Z</time></trkpt><trkpt lat="39.9744326" lon="-2.1622606"><ele>959.5</ele><time>2026-03-22T13:31:11.137Z</time></trkpt><trkpt lat="39.9745582" lon="-2.1621697"><ele>958.25</ele><time>2026-03-22T13:31:12.148Z</time></trkpt><trkpt lat="39.9746808" lon="-2.1620797"><ele>957.0</ele><time>2026-03-22T13:31:13.159Z</time></trkpt><trkpt lat="39.9748083" lon="-2.161987"><ele>957.0</ele><time>2026-03-22T13:31:14.15Z</time></trkpt><trkpt lat="39.9749294" lon="-2.161882"><ele>957.0</ele><time>2026-03-22T13:31:15.156Z</time></trkpt><trkpt lat="39.9750532" lon="-2.1617747"><ele>957.0</ele><time>2026-03-22T13:31:16.133Z</time></trkpt><trkpt lat="39.9751776" lon="-2.1616878"><ele>957.0</ele><time>2026-03-22T13:31:17.135Z</time></trkpt><trkpt lat="39.9753097" lon="-2.1615997"><ele>956.0</ele><time>2026-03-22T13:31:18.151Z</time></trkpt><trkpt lat="39.9754396" lon="-2.1615038"><ele>955.0</ele><time>2026-03-22T13:31:19.137Z</time></trkpt><trkpt lat="39.9755633" lon="-2.1613974"><ele>954.0</ele><time>2026-03-22T13:31:20.14Z</time></trkpt><trkpt lat="39.975682" lon="-2.1612826"><ele>953.0</ele><time>2026-03-22T13:31:21.148Z</time></trkpt><trkpt lat="39.9757854" lon="-2.1611591"><ele>952.0</ele><time>2026-03-22T13:31:22.129Z</time></trkpt><trkpt lat="39.9758779" lon="-2.1610316"><ele>951.0</ele><time>2026-03-22T13:31:23.168Z</time></trkpt><trkpt lat="39.9759564" lon="-2.1609"><ele>950.0</ele><time>2026-03-22T13:31:24.161Z</time></trkpt><trkpt lat="39.9760241" lon="-2.1607815"><ele>949.0</ele><time>2026-03-22T13:31:25.159Z</time></trkpt><trkpt lat="39.9760843" lon="-2.1606409"><ele>949.0</ele><time>2026-03-22T13:31:26.127Z</time></trkpt><trkpt lat="39.9761374" lon="-2.1604828"><ele>949.0</ele><time>2026-03-22T13:31:27.159Z</time></trkpt><trkpt lat="39.9762026" lon="-2.1603403"><ele>949.0</ele><time>2026-03-22T13:31:28.142Z</time></trkpt><trkpt lat="39.9762753" lon="-2.1602"><ele>949.0</ele><time>2026-03-22T13:31:29.141Z</time></trkpt><trkpt lat="39.9763329" lon="-2.1600427"><ele>949.0</ele><time>2026-03-22T13:31:30.13Z</time></trkpt><trkpt lat="39.9763902" lon="-2.1599062"><ele>949.0</ele><time>2026-03-22T13:31:31.136Z</time></trkpt><trkpt lat="39.9764516" lon="-2.1597856"><ele>949.0</ele><time>2026-03-22T13:31:32.142Z</time></trkpt><trkpt lat="39.9765211" lon="-2.1596548"><ele>949.0</ele><time>2026-03-22T13:31:33.142Z</time></trkpt><trkpt lat="39.976586" lon="-2.1595255"><ele>949.2</ele><time>2026-03-22T13:31:34.132Z</time></trkpt><trkpt lat="39.9766588" lon="-2.1594239"><ele>949.4000000000001</ele><time>2026-03-22T13:31:35.139Z</time></trkpt><trkpt lat="39.9767328" lon="-2.1593198"><ele>949.6</ele><time>2026-03-22T13:31:36.158Z</time></trkpt><trkpt lat="39.9768046" lon="-2.1592169"><ele>949.8</ele><time>2026-03-22T13:31:37.137Z</time></trkpt><trkpt lat="39.9768778" lon="-2.1590997"><ele>950.0</ele><time>2026-03-22T13:31:38.141Z</time></trkpt><trkpt lat="39.9769483" lon="-2.1589885"><ele>950.5</ele><time>2026-03-22T13:31:39.127Z</time></trkpt><trkpt lat="39.9770339" lon="-2.1588629"><ele>951.0</ele><time>2026-03-22T13:31:40.142Z</time></trkpt><trkpt lat="39.9771168" lon="-2.1587041"><ele>951.5</ele><time>2026-03-22T13:31:41.138Z</time></trkpt><trkpt lat="39.977196" lon="-2.1585649"><ele>952.0</ele><time>2026-03-22T13:31:42.176Z</time></trkpt><trkpt lat="39.9772631" lon="-2.1584177"><ele>952.0</ele><time>2026-03-22T13:31:43.153Z</time></trkpt><trkpt lat="39.9773211" lon="-2.1582675"><ele>952.0</ele><time>2026-03-22T13:31:44.141Z</time></trkpt><trkpt lat="39.977373" lon="-2.1581072"><ele>952.0</ele><time>2026-03-22T13:31:45.137Z</time></trkpt><trkpt lat="39.9774242" lon="-2.1579508"><ele>952.0</ele><time>2026-03-22T13:31:46.154Z</time></trkpt><trkpt lat="39.9774766" lon="-2.1577707"><ele>950.75</ele><time>2026-03-22T13:31:47.139Z</time></trkpt><trkpt lat="39.9775399" lon="-2.1576042"><ele>949.5</ele><time>2026-03-22T13:31:48.128Z</time></trkpt><trkpt lat="39.9775993" lon="-2.1574684"><ele>948.25</ele><time>2026-03-22T13:31:49.158Z</time></trkpt><trkpt lat="39.9776562" lon="-2.1573415"><ele>947.0</ele><time>2026-03-22T13:31:50.151Z</time></trkpt><trkpt lat="39.9777195" lon="-2.1572156"><ele>946.2</ele><time>2026-03-22T13:31:51.146Z</time></trkpt><trkpt lat="39.9777777" lon="-2.1571047"><ele>945.4000000000001</ele><time>2026-03-22T13:31:52.146Z</time></trkpt><trkpt lat="39.9778313" lon="-2.1569995"><ele>944.5999999999999</ele><time>2026-03-22T13:31:53.122Z</time></trkpt><trkpt lat="39.9778829" lon="-2.156882"><ele>943.8</ele><time>2026-03-22T13:31:54.128Z</time></trkpt><trkpt lat="39.9779391" lon="-2.1567553"><ele>943.0</ele><time>2026-03-22T13:31:55.167Z</time></trkpt><trkpt lat="39.9779988" lon="-2.1566193"><ele>943.0</ele><time>2026-03-22T13:31:56.142Z</time></trkpt><trkpt lat="39.9780565" lon="-2.1564925"><ele>943.0</ele><time>2026-03-22T13:31:57.142Z</time></trkpt><trkpt lat="39.9781122" lon="-2.1563687"><ele>943.0</ele><time>2026-03-22T13:31:58.143Z</time></trkpt><trkpt lat="39.9781723" lon="-2.1562579"><ele>943.0</ele><time>2026-03-22T13:31:59.144Z</time></trkpt><trkpt lat="39.9782395" lon="-2.1561581"><ele>943.0</ele><time>2026-03-22T13:32:00.142Z</time></trkpt><trkpt lat="39.9783038" lon="-2.1560722"><ele>942.4999999999999</ele><time>2026-03-22T13:32:01.145Z</time></trkpt><trkpt lat="39.9783721" lon="-2.1559996"><ele>942.0</ele><time>2026-03-22T13:32:02.132Z</time></trkpt><trkpt lat="39.9784317" lon="-2.1559207"><ele>941.5</ele><time>2026-03-22T13:32:03.133Z</time></trkpt><trkpt lat="39.9784862" lon="-2.1558516"><ele>941.0</ele><time>2026-03-22T13:32:04.13Z</time></trkpt><trkpt lat="39.9785632" lon="-2.1557674"><ele>940.4999999999999</ele><time>2026-03-22T13:32:06.141Z</time></trkpt><trkpt lat="39.9785771" lon="-2.1556788"><ele>940.0</ele><time>2026-03-22T13:32:08.146Z</time></trkpt><trkpt lat="39.9785578" lon="-2.1555879"><ele>939.9999999999999</ele><time>2026-03-22T13:32:10.19Z</time></trkpt><trkpt lat="39.9785656" lon="-2.1554967"><ele>940.0</ele><time>2026-03-22T13:32:12.214Z</time></trkpt><trkpt lat="39.9786047" lon="-2.1554215"><ele>940.0</ele><time>2026-03-22T13:32:13.214Z</time></trkpt><trkpt lat="39.9786469" lon="-2.1553309"><ele>940.0</ele><time>2026-03-22T13:32:14.169Z</time></trkpt><trkpt lat="39.978698" lon="-2.1552163"><ele>939.9999999999999</ele><time>2026-03-22T13:32:15.171Z</time></trkpt><trkpt lat="39.9787452" lon="-2.1550952"><ele>940.0</ele><time>2026-03-22T13:32:16.18Z</time></trkpt><trkpt lat="39.9787994" lon="-2.1549735"><ele>940.5</ele><time>2026-03-22T13:32:17.144Z</time></trkpt><trkpt lat="39.9788573" lon="-2.1548295"><ele>941.0</ele><time>2026-03-22T13:32:18.151Z</time></trkpt><trkpt lat="39.9789257" lon="-2.154691"><ele>941.5</ele><time>2026-03-22T13:32:19.124Z</time></trkpt><trkpt lat="39.9789872" lon="-2.1545582"><ele>942.0</ele><time>2026-03-22T13:32:20.132Z</time></trkpt><trkpt lat="39.9790455" lon="-2.1544253"><ele>942.0</ele><time>2026-03-22T13:32:21.136Z</time></trkpt><trkpt lat="39.9791045" lon="-2.1543045"><ele>942.0</ele><time>2026-03-22T13:32:22.145Z</time></trkpt><trkpt lat="39.9791604" lon="-2.1541911"><ele>942.0</ele><time>2026-03-22T13:32:23.157Z</time></trkpt><trkpt lat="39.9792206" lon="-2.1540777"><ele>942.0</ele><time>2026-03-22T13:32:24.127Z</time></trkpt><trkpt lat="39.9792805" lon="-2.1539608"><ele>942.0</ele><time>2026-03-22T13:32:25.134Z</time></trkpt><trkpt lat="39.9793479" lon="-2.1538415"><ele>941.0</ele><time>2026-03-22T13:32:26.128Z</time></trkpt><trkpt lat="39.9794223" lon="-2.1537087"><ele>940.0</ele><time>2026-03-22T13:32:27.13Z</time></trkpt><trkpt lat="39.9794963" lon="-2.1535763"><ele>939.0</ele><time>2026-03-22T13:32:28.131Z</time></trkpt><trkpt lat="39.9795792" lon="-2.1534434"><ele>938.0</ele><time>2026-03-22T13:32:29.141Z</time></trkpt><trkpt lat="39.9796665" lon="-2.1533027"><ele>938.0</ele><time>2026-03-22T13:32:30.145Z</time></trkpt><trkpt lat="39.9797454" lon="-2.1531815"><ele>938.0</ele><time>2026-03-22T13:32:31.138Z</time></trkpt><trkpt lat="39.979822" lon="-2.1530574"><ele>938.0</ele><time>2026-03-22T13:32:32.148Z</time></trkpt><trkpt lat="39.9798916" lon="-2.1529427"><ele>938.0</ele><time>2026-03-22T13:32:33.137Z</time></trkpt><trkpt lat="39.9799592" lon="-2.1528332"><ele>938.25</ele><time>2026-03-22T13:32:34.173Z</time></trkpt><trkpt lat="39.9800307" lon="-2.1527235"><ele>938.5</ele><time>2026-03-22T13:32:35.168Z</time></trkpt><trkpt lat="39.9801088" lon="-2.1526069"><ele>938.75</ele><time>2026-03-22T13:32:36.144Z</time></trkpt><trkpt lat="39.9801906" lon="-2.1524841"><ele>939.0</ele><time>2026-03-22T13:32:37.137Z</time></trkpt><trkpt lat="39.9802712" lon="-2.152364"><ele>940.0</ele><time>2026-03-22T13:32:38.129Z</time></trkpt><trkpt lat="39.980353" lon="-2.1522395"><ele>941.0</ele><time>2026-03-22T13:32:39.133Z</time></trkpt><trkpt lat="39.9804283" lon="-2.1521164"><ele>942.0</ele><time>2026-03-22T13:32:40.128Z</time></trkpt><trkpt lat="39.9805028" lon="-2.1519975"><ele>943.0</ele><time>2026-03-22T13:32:41.131Z</time></trkpt><trkpt lat="39.980578" lon="-2.1518758"><ele>943.0</ele><time>2026-03-22T13:32:42.136Z</time></trkpt><trkpt lat="39.9806548" lon="-2.1517518"><ele>943.0</ele><time>2026-03-22T13:32:43.136Z</time></trkpt><trkpt lat="39.9807354" lon="-2.1516232"><ele>943.0</ele><time>2026-03-22T13:32:44.143Z</time></trkpt><trkpt lat="39.980812" lon="-2.1515009"><ele>943.0</ele><time>2026-03-22T13:32:45.13Z</time></trkpt><trkpt lat="39.9808829" lon="-2.151375"><ele>942.25</ele><time>2026-03-22T13:32:46.141Z</time></trkpt><trkpt lat="39.9809547" lon="-2.1512414"><ele>941.5</ele><time>2026-03-22T13:32:47.126Z</time></trkpt><trkpt lat="39.9810078" lon="-2.1510824"><ele>940.75</ele><time>2026-03-22T13:32:48.146Z</time></trkpt><trkpt lat="39.9810587" lon="-2.1509121"><ele>940.0</ele><time>2026-03-22T13:32:49.142Z</time></trkpt><trkpt lat="39.9811095" lon="-2.1507372"><ele>941.0</ele><time>2026-03-22T13:32:50.133Z</time></trkpt><trkpt lat="39.9811717" lon="-2.1505485"><ele>942.0</ele><time>2026-03-22T13:32:51.143Z</time></trkpt><trkpt lat="39.9812131" lon="-2.1503939"><ele>943.0</ele><time>2026-03-22T13:32:52.128Z</time></trkpt><trkpt lat="39.981252" lon="-2.1502493"><ele>944.0</ele><time>2026-03-22T13:32:53.146Z</time></trkpt><trkpt lat="39.9812905" lon="-2.1501029"><ele>944.0</ele><time>2026-03-22T13:32:54.147Z</time></trkpt><trkpt lat="39.9813306" lon="-2.1499526"><ele>944.0</ele><time>2026-03-22T13:32:55.151Z</time></trkpt><trkpt lat="39.9813772" lon="-2.1497895"><ele>944.0</ele><time>2026-03-22T13:32:56.148Z</time></trkpt><trkpt lat="39.9814293" lon="-2.1496161"><ele>944.0</ele><time>2026-03-22T13:32:57.147Z</time></trkpt><trkpt lat="39.9814856" lon="-2.14944"><ele>944.0</ele><time>2026-03-22T13:32:58.13Z</time></trkpt><trkpt lat="39.9815404" lon="-2.1492696"><ele>944.0</ele><time>2026-03-22T13:32:59.135Z</time></trkpt><trkpt lat="39.9815912" lon="-2.1491099"><ele>944.0</ele><time>2026-03-22T13:33:00.205Z</time></trkpt><trkpt lat="39.9816398" lon="-2.1489724"><ele>944.0</ele><time>2026-03-22T13:33:01.171Z</time></trkpt><trkpt lat="39.9816709" lon="-2.1488636"><ele>943.8333333333334</ele><time>2026-03-22T13:33:02.167Z</time></trkpt><trkpt lat="39.9816935" lon="-2.1487682"><ele>943.6666666666667</ele><time>2026-03-22T13:33:03.179Z</time></trkpt><trkpt lat="39.9817144" lon="-2.1486779"><ele>943.5</ele><time>2026-03-22T13:33:04.133Z</time></trkpt><trkpt lat="39.9817193" lon="-2.1485721"><ele>943.3333333333333</ele><time>2026-03-22T13:33:05.188Z</time></trkpt><trkpt lat="39.9817232" lon="-2.1484565"><ele>943.1666666666666</ele><time>2026-03-22T13:33:06.163Z</time></trkpt><trkpt lat="39.9817258" lon="-2.1483077"><ele>943.0</ele><time>2026-03-22T13:33:07.159Z</time></trkpt><trkpt lat="39.9817357" lon="-2.1481263"><ele>942.75</ele><time>2026-03-22T13:33:08.177Z</time></trkpt><trkpt lat="39.9817476" lon="-2.1479331"><ele>942.5</ele><time>2026-03-22T13:33:09.157Z</time></trkpt><trkpt lat="39.9817612" lon="-2.147758"><ele>942.25</ele><time>2026-03-22T13:33:10.18Z</time></trkpt><trkpt lat="39.9817713" lon="-2.1475967"><ele>942.0</ele><time>2026-03-22T13:33:11.179Z</time></trkpt><trkpt lat="39.9817815" lon="-2.1474562"><ele>942.6</ele><time>2026-03-22T13:33:12.156Z</time></trkpt><trkpt lat="39.9817951" lon="-2.1473186"><ele>943.2</ele><time>2026-03-22T13:33:13.166Z</time></trkpt><trkpt lat="39.9818181" lon="-2.1471789"><ele>943.8</ele><time>2026-03-22T13:33:14.197Z</time></trkpt><trkpt lat="39.9818425" lon="-2.147036"><ele>944.4</ele><time>2026-03-22T13:33:15.161Z</time></trkpt><trkpt lat="39.9818635" lon="-2.1468997"><ele>945.0</ele><time>2026-03-22T13:33:16.185Z</time></trkpt><trkpt lat="39.9818878" lon="-2.1467854"><ele>945.0</ele><time>2026-03-22T13:33:17.19Z</time></trkpt><trkpt lat="39.9819042" lon="-2.1466814"><ele>945.0</ele><time>2026-03-22T13:33:18.172Z</time></trkpt><trkpt lat="39.9819191" lon="-2.146589"><ele>945.0</ele><time>2026-03-22T13:33:19.172Z</time></trkpt><trkpt lat="39.9819396" lon="-2.1465104"><ele>945.0</ele><time>2026-03-22T13:33:20.192Z</time></trkpt><trkpt lat="39.981982" lon="-2.1463924"><ele>945.0</ele><time>2026-03-22T13:33:22.133Z</time></trkpt><trkpt lat="39.9820494" lon="-2.1463472"><ele>945.0</ele><time>2026-03-22T13:33:24.147Z</time></trkpt><trkpt lat="39.9821728" lon="-2.1463149"><ele>945.1666666666666</ele><time>2026-03-22T13:33:26.132Z</time></trkpt><trkpt lat="39.9822518" lon="-2.1463028"><ele>945.3333333333333</ele><time>2026-03-22T13:33:27.144Z</time></trkpt><trkpt lat="39.9823387" lon="-2.146286"><ele>945.5</ele><time>2026-03-22T13:33:28.134Z</time></trkpt><trkpt lat="39.9824256" lon="-2.1462723"><ele>945.6666666666666</ele><time>2026-03-22T13:33:29.134Z</time></trkpt><trkpt lat="39.9825101" lon="-2.1462601"><ele>945.8333333333333</ele><time>2026-03-22T13:33:30.128Z</time></trkpt><trkpt lat="39.982598" lon="-2.1462434"><ele>946.0</ele><time>2026-03-22T13:33:31.145Z</time></trkpt><trkpt lat="39.9826888" lon="-2.1462176"><ele>946.0</ele><time>2026-03-22T13:33:32.151Z</time></trkpt><trkpt lat="39.9827808" lon="-2.1461763"><ele>945.9999999999999</ele><time>2026-03-22T13:33:33.145Z</time></trkpt><trkpt lat="39.9828788" lon="-2.1460964"><ele>945.9999999999999</ele><time>2026-03-22T13:33:34.158Z</time></trkpt><trkpt lat="39.9829654" lon="-2.1460025"><ele>946.0</ele><time>2026-03-22T13:33:35.151Z</time></trkpt><trkpt lat="39.9830355" lon="-2.1459106"><ele>946.0</ele><time>2026-03-22T13:33:36.142Z</time></trkpt><trkpt lat="39.9830993" lon="-2.1458235"><ele>945.9999999999999</ele><time>2026-03-22T13:33:37.142Z</time></trkpt><trkpt lat="39.9831459" lon="-2.1457336"><ele>946.0</ele><time>2026-03-22T13:33:38.129Z</time></trkpt><trkpt lat="39.9831635" lon="-2.1456397"><ele>946.0</ele><time>2026-03-22T13:33:39.142Z</time></trkpt><trkpt lat="39.9831783" lon="-2.1455427"><ele>946.0</ele><time>2026-03-22T13:33:40.13Z</time></trkpt><trkpt lat="39.9831852" lon="-2.1454402"><ele>945.9999999999999</ele><time>2026-03-22T13:33:41.148Z</time></trkpt><trkpt lat="39.9831913" lon="-2.1453345"><ele>946.0</ele><time>2026-03-22T13:33:42.133Z</time></trkpt><trkpt lat="39.9831709" lon="-2.1452292"><ele>946.4</ele><time>2026-03-22T13:33:43.14Z</time></trkpt><trkpt lat="39.9831336" lon="-2.1451159"><ele>946.8</ele><time>2026-03-22T13:33:44.147Z</time></trkpt><trkpt lat="39.9830809" lon="-2.1449967"><ele>947.1999999999999</ele><time>2026-03-22T13:33:45.158Z</time></trkpt><trkpt lat="39.9830235" lon="-2.1448695"><ele>947.5999999999999</ele><time>2026-03-22T13:33:46.151Z</time></trkpt><trkpt lat="39.9829616" lon="-2.1447351"><ele>948.0</ele><time>2026-03-22T13:33:47.138Z</time></trkpt><trkpt lat="39.9828891" lon="-2.1446008"><ele>946.75</ele><time>2026-03-22T13:33:48.145Z</time></trkpt><trkpt lat="39.9828222" lon="-2.1444544"><ele>945.5</ele><time>2026-03-22T13:33:49.141Z</time></trkpt><trkpt lat="39.9827546" lon="-2.1442967"><ele>944.25</ele><time>2026-03-22T13:33:50.146Z</time></trkpt><trkpt lat="39.9826869" lon="-2.1441342"><ele>943.0</ele><time>2026-03-22T13:33:51.153Z</time></trkpt><trkpt lat="39.9826181" lon="-2.1439606"><ele>941.75</ele><time>2026-03-22T13:33:52.133Z</time></trkpt><trkpt lat="39.9825544" lon="-2.1438034"><ele>940.5</ele><time>2026-03-22T13:33:53.133Z</time></trkpt><trkpt lat="39.982497" lon="-2.1436486"><ele>939.25</ele><time>2026-03-22T13:33:54.129Z</time></trkpt><trkpt lat="39.9824388" lon="-2.1434898"><ele>938.0</ele><time>2026-03-22T13:33:55.151Z</time></trkpt><trkpt lat="39.9823766" lon="-2.1433311"><ele>939.0</ele><time>2026-03-22T13:33:56.145Z</time></trkpt><trkpt lat="39.9823241" lon="-2.1431685"><ele>940.0</ele><time>2026-03-22T13:33:57.133Z</time></trkpt><trkpt lat="39.9822784" lon="-2.1430213"><ele>941.0</ele><time>2026-03-22T13:33:58.139Z</time></trkpt><trkpt lat="39.9822467" lon="-2.1428755"><ele>942.0</ele><time>2026-03-22T13:33:59.128Z</time></trkpt><trkpt lat="39.9822124" lon="-2.1427345"><ele>942.0</ele><time>2026-03-22T13:34:00.134Z</time></trkpt><trkpt lat="39.9821798" lon="-2.1425813"><ele>942.0</ele><time>2026-03-22T13:34:01.156Z</time></trkpt><trkpt lat="39.9822128" lon="-2.1424145"><ele>942.0</ele><time>2026-03-22T13:34:02.139Z</time></trkpt><trkpt lat="39.9822746" lon="-2.1422415"><ele>942.0</ele><time>2026-03-22T13:34:03.138Z</time></trkpt><trkpt lat="39.9823387" lon="-2.1420553"><ele>940.6666666666667</ele><time>2026-03-22T13:34:04.132Z</time></trkpt><trkpt lat="39.9824075" lon="-2.1418686"><ele>939.3333333333334</ele><time>2026-03-22T13:34:05.136Z</time></trkpt><trkpt lat="39.9824745" lon="-2.1416854"><ele>938.0</ele><time>2026-03-22T13:34:06.133Z</time></trkpt><trkpt lat="39.9825377" lon="-2.1414981"><ele>937.0</ele><time>2026-03-22T13:34:07.149Z</time></trkpt><trkpt lat="39.9825998" lon="-2.1413131"><ele>936.0</ele><time>2026-03-22T13:34:08.135Z</time></trkpt><trkpt lat="39.9826657" lon="-2.1411299"><ele>935.0</ele><time>2026-03-22T13:34:09.132Z</time></trkpt><trkpt lat="39.9827305" lon="-2.1409459"><ele>935.0</ele><time>2026-03-22T13:34:10.129Z</time></trkpt><trkpt lat="39.9827929" lon="-2.140761"><ele>935.0</ele><time>2026-03-22T13:34:11.151Z</time></trkpt><trkpt lat="39.9828498" lon="-2.140578"><ele>935.0</ele><time>2026-03-22T13:34:12.137Z</time></trkpt><trkpt lat="39.9829078" lon="-2.1403987"><ele>934.6666666666667</ele><time>2026-03-22T13:34:13.145Z</time></trkpt><trkpt lat="39.9829755" lon="-2.1402116"><ele>934.3333333333333</ele><time>2026-03-22T13:34:14.141Z</time></trkpt><trkpt lat="39.9830513" lon="-2.1399947"><ele>934.0</ele><time>2026-03-22T13:34:15.134Z</time></trkpt><trkpt lat="39.9831331" lon="-2.1397742"><ele>934.0</ele><time>2026-03-22T13:34:16.133Z</time></trkpt><trkpt lat="39.9832023" lon="-2.1395523"><ele>934.0</ele><time>2026-03-22T13:34:17.143Z</time></trkpt><trkpt lat="39.9832624" lon="-2.1393419"><ele>934.0</ele><time>2026-03-22T13:34:18.142Z</time></trkpt><trkpt lat="39.9833291" lon="-2.1391365"><ele>936.0</ele><time>2026-03-22T13:34:19.143Z</time></trkpt><trkpt lat="39.9833901" lon="-2.138925"><ele>938.0</ele><time>2026-03-22T13:34:20.144Z</time></trkpt><trkpt lat="39.9834698" lon="-2.1387312"><ele>940.0</ele><time>2026-03-22T13:34:21.131Z</time></trkpt><trkpt lat="39.9835407" lon="-2.1385473"><ele>940.0</ele><time>2026-03-22T13:34:22.128Z</time></trkpt><trkpt lat="39.9836084" lon="-2.1383657"><ele>940.0</ele><time>2026-03-22T13:34:23.12Z</time></trkpt><trkpt lat="39.9836752" lon="-2.1381888"><ele>940.0</ele><time>2026-03-22T13:34:24.142Z</time></trkpt><trkpt lat="39.9837466" lon="-2.1380184"><ele>939.75</ele><time>2026-03-22T13:34:25.139Z</time></trkpt><trkpt lat="39.9838097" lon="-2.1378492"><ele>939.5</ele><time>2026-03-22T13:34:26.131Z</time></trkpt><trkpt lat="39.9838727" lon="-2.1376807"><ele>939.25</ele><time>2026-03-22T13:34:27.143Z</time></trkpt><trkpt lat="39.9839184" lon="-2.1375284"><ele>939.0</ele><time>2026-03-22T13:34:28.151Z</time></trkpt><trkpt lat="39.9839593" lon="-2.1373925"><ele>938.0</ele><time>2026-03-22T13:34:29.142Z</time></trkpt><trkpt lat="39.9839987" lon="-2.1372667"><ele>937.0000000000001</ele><time>2026-03-22T13:34:30.127Z</time></trkpt><trkpt lat="39.9840461" lon="-2.1371435"><ele>936.0000000000001</ele><time>2026-03-22T13:34:31.142Z</time></trkpt><trkpt lat="39.9840983" lon="-2.1370297"><ele>935.0</ele><time>2026-03-22T13:34:32.135Z</time></trkpt><trkpt lat="39.9841528" lon="-2.1369001"><ele>934.0</ele><time>2026-03-22T13:34:33.137Z</time></trkpt><trkpt lat="39.9842115" lon="-2.1367489"><ele>933.6666666666666</ele><time>2026-03-22T13:34:34.133Z</time></trkpt><trkpt lat="39.9842651" lon="-2.1365714"><ele>933.3333333333333</ele><time>2026-03-22T13:34:35.135Z</time></trkpt><trkpt lat="39.9843026" lon="-2.1363693"><ele>933.0</ele><time>2026-03-22T13:34:36.139Z</time></trkpt><trkpt lat="39.9843339" lon="-2.1361685"><ele>932.75</ele><time>2026-03-22T13:34:37.158Z</time></trkpt><trkpt lat="39.9843614" lon="-2.1359849"><ele>932.5</ele><time>2026-03-22T13:34:38.14Z</time></trkpt><trkpt lat="39.9843885" lon="-2.1358128"><ele>932.25</ele><time>2026-03-22T13:34:39.138Z</time></trkpt><trkpt lat="39.9844226" lon="-2.1356529"><ele>932.0</ele><time>2026-03-22T13:34:40.124Z</time></trkpt><trkpt lat="39.9844571" lon="-2.1354999"><ele>931.75</ele><time>2026-03-22T13:34:41.169Z</time></trkpt><trkpt lat="39.9844749" lon="-2.1353511"><ele>931.5</ele><time>2026-03-22T13:34:42.15Z</time></trkpt><trkpt lat="39.9844836" lon="-2.1352118"><ele>931.25</ele><time>2026-03-22T13:34:43.154Z</time></trkpt><trkpt lat="39.9844848" lon="-2.1350643"><ele>931.0</ele><time>2026-03-22T13:34:44.126Z</time></trkpt><trkpt lat="39.9844585" lon="-2.1348814"><ele>931.0</ele><time>2026-03-22T13:34:45.145Z</time></trkpt><trkpt lat="39.984421" lon="-2.1346772"><ele>931.0</ele><time>2026-03-22T13:34:46.134Z</time></trkpt><trkpt lat="39.984366" lon="-2.1344407"><ele>931.0</ele><time>2026-03-22T13:34:47.13Z</time></trkpt><trkpt lat="39.98431" lon="-2.1342182"><ele>931.6666666666666</ele><time>2026-03-22T13:34:48.138Z</time></trkpt><trkpt lat="39.9842408" lon="-2.133996"><ele>932.3333333333333</ele><time>2026-03-22T13:34:49.133Z</time></trkpt><trkpt lat="39.9841911" lon="-2.133765"><ele>933.0</ele><time>2026-03-22T13:34:50.141Z</time></trkpt><trkpt lat="39.9841379" lon="-2.1335431"><ele>933.0</ele><time>2026-03-22T13:34:51.131Z</time></trkpt><trkpt lat="39.9840877" lon="-2.1333153"><ele>933.0</ele><time>2026-03-22T13:34:52.144Z</time></trkpt><trkpt lat="39.9840372" lon="-2.1330822"><ele>933.0</ele><time>2026-03-22T13:34:53.139Z</time></trkpt><trkpt lat="39.9839819" lon="-2.1328488"><ele>933.0</ele><time>2026-03-22T13:34:54.14Z</time></trkpt><trkpt lat="39.9839267" lon="-2.1326188"><ele>933.0</ele><time>2026-03-22T13:34:55.171Z</time></trkpt><trkpt lat="39.9838693" lon="-2.132395"><ele>933.0</ele><time>2026-03-22T13:34:56.139Z</time></trkpt><trkpt lat="39.983816" lon="-2.1321782"><ele>933.0</ele><time>2026-03-22T13:34:57.139Z</time></trkpt><trkpt lat="39.9837715" lon="-2.1319531"><ele>933.0</ele><time>2026-03-22T13:34:58.134Z</time></trkpt><trkpt lat="39.9837271" lon="-2.1317219"><ele>933.0</ele><time>2026-03-22T13:34:59.141Z</time></trkpt><trkpt lat="39.9836855" lon="-2.1314998"><ele>933.0</ele><time>2026-03-22T13:35:00.172Z</time></trkpt><trkpt lat="39.9836291" lon="-2.1312875"><ele>933.0</ele><time>2026-03-22T13:35:01.137Z</time></trkpt><trkpt lat="39.98357" lon="-2.1310856"><ele>933.0</ele><time>2026-03-22T13:35:02.142Z</time></trkpt><trkpt lat="39.9835105" lon="-2.1308684"><ele>933.3333333333333</ele><time>2026-03-22T13:35:03.148Z</time></trkpt><trkpt lat="39.9834552" lon="-2.1306577"><ele>933.6666666666666</ele><time>2026-03-22T13:35:04.144Z</time></trkpt><trkpt lat="39.983418" lon="-2.1304437"><ele>934.0</ele><time>2026-03-22T13:35:05.152Z</time></trkpt><trkpt lat="39.9833778" lon="-2.1302341"><ele>934.6666666666666</ele><time>2026-03-22T13:35:06.134Z</time></trkpt><trkpt lat="39.9833389" lon="-2.1300235"><ele>935.3333333333333</ele><time>2026-03-22T13:35:07.147Z</time></trkpt><trkpt lat="39.9832972" lon="-2.1298066"><ele>936.0</ele><time>2026-03-22T13:35:08.14Z</time></trkpt><trkpt lat="39.9832469" lon="-2.1295951"><ele>936.0</ele><time>2026-03-22T13:35:09.139Z</time></trkpt><trkpt lat="39.9831962" lon="-2.1293825"><ele>936.0</ele><time>2026-03-22T13:35:10.141Z</time></trkpt><trkpt lat="39.9831358" lon="-2.1291737"><ele>936.0</ele><time>2026-03-22T13:35:11.153Z</time></trkpt><trkpt lat="39.9830855" lon="-2.1289617"><ele>935.6666666666667</ele><time>2026-03-22T13:35:12.155Z</time></trkpt><trkpt lat="39.9830395" lon="-2.1287493"><ele>935.3333333333334</ele><time>2026-03-22T13:35:13.142Z</time></trkpt><trkpt lat="39.9829948" lon="-2.128536"><ele>935.0</ele><time>2026-03-22T13:35:14.153Z</time></trkpt><trkpt lat="39.9829383" lon="-2.1283287"><ele>934.6666666666667</ele><time>2026-03-22T13:35:15.141Z</time></trkpt><trkpt lat="39.9828879" lon="-2.1281225"><ele>934.3333333333333</ele><time>2026-03-22T13:35:16.138Z</time></trkpt><trkpt lat="39.9828443" lon="-2.1279107"><ele>934.0</ele><time>2026-03-22T13:35:17.157Z</time></trkpt><trkpt lat="39.9828152" lon="-2.1276934"><ele>934.0</ele><time>2026-03-22T13:35:18.131Z</time></trkpt><trkpt lat="39.9827939" lon="-2.127478"><ele>934.0</ele><time>2026-03-22T13:35:19.133Z</time></trkpt><trkpt lat="39.9827758" lon="-2.1272629"><ele>934.0</ele><time>2026-03-22T13:35:20.15Z</time></trkpt><trkpt lat="39.982738" lon="-2.1270547"><ele>934.3333333333333</ele><time>2026-03-22T13:35:21.14Z</time></trkpt><trkpt lat="39.982695" lon="-2.1268347"><ele>934.6666666666667</ele><time>2026-03-22T13:35:22.137Z</time></trkpt><trkpt lat="39.9826626" lon="-2.1266089"><ele>935.0</ele><time>2026-03-22T13:35:23.147Z</time></trkpt><trkpt lat="39.9826125" lon="-2.1263906"><ele>935.6666666666667</ele><time>2026-03-22T13:35:24.128Z</time></trkpt><trkpt lat="39.9825875" lon="-2.126184"><ele>936.3333333333333</ele><time>2026-03-22T13:35:25.129Z</time></trkpt><trkpt lat="39.982564" lon="-2.1259895"><ele>937.0</ele><time>2026-03-22T13:35:26.137Z</time></trkpt><trkpt lat="39.9825525" lon="-2.1257986"><ele>937.3333333333333</ele><time>2026-03-22T13:35:27.156Z</time></trkpt><trkpt lat="39.9825397" lon="-2.125597"><ele>937.6666666666667</ele><time>2026-03-22T13:35:28.16Z</time></trkpt><trkpt lat="39.9825523" lon="-2.125384"><ele>938.0</ele><time>2026-03-22T13:35:29.14Z</time></trkpt><trkpt lat="39.9825732" lon="-2.125165"><ele>938.0</ele><time>2026-03-22T13:35:30.143Z</time></trkpt><trkpt lat="39.982592" lon="-2.1249488"><ele>938.0</ele><time>2026-03-22T13:35:31.139Z</time></trkpt><trkpt lat="39.9826078" lon="-2.1247274"><ele>938.0</ele><time>2026-03-22T13:35:32.135Z</time></trkpt><trkpt lat="39.982626" lon="-2.1245061"><ele>937.6666666666667</ele><time>2026-03-22T13:35:33.128Z</time></trkpt><trkpt lat="39.982643" lon="-2.1242933"><ele>937.3333333333333</ele><time>2026-03-22T13:35:34.133Z</time></trkpt><trkpt lat="39.9826538" lon="-2.1240861"><ele>937.0</ele><time>2026-03-22T13:35:35.144Z</time></trkpt><trkpt lat="39.9826704" lon="-2.1238849"><ele>937.0</ele><time>2026-03-22T13:35:36.144Z</time></trkpt><trkpt lat="39.9826854" lon="-2.1236826"><ele>937.0</ele><time>2026-03-22T13:35:37.143Z</time></trkpt><trkpt lat="39.9826995" lon="-2.1234902"><ele>937.0</ele><time>2026-03-22T13:35:38.137Z</time></trkpt><trkpt lat="39.982705" lon="-2.1233074"><ele>937.0</ele><time>2026-03-22T13:35:39.13Z</time></trkpt><trkpt lat="39.9827046" lon="-2.1231328"><ele>937.25</ele><time>2026-03-22T13:35:40.14Z</time></trkpt><trkpt lat="39.9827125" lon="-2.1229714"><ele>937.5</ele><time>2026-03-22T13:35:41.142Z</time></trkpt><trkpt lat="39.9827422" lon="-2.1228254"><ele>937.75</ele><time>2026-03-22T13:35:42.14Z</time></trkpt><trkpt lat="39.9827873" lon="-2.1226823"><ele>938.0</ele><time>2026-03-22T13:35:43.13Z</time></trkpt><trkpt lat="39.9828436" lon="-2.122542"><ele>938.0</ele><time>2026-03-22T13:35:44.14Z</time></trkpt><trkpt lat="39.9829139" lon="-2.1224104"><ele>938.0</ele><time>2026-03-22T13:35:45.136Z</time></trkpt><trkpt lat="39.9829963" lon="-2.1222771"><ele>938.0</ele><time>2026-03-22T13:35:46.157Z</time></trkpt><trkpt lat="39.9830742" lon="-2.1221362"><ele>938.0</ele><time>2026-03-22T13:35:47.128Z</time></trkpt><trkpt lat="39.9831371" lon="-2.1219958"><ele>938.25</ele><time>2026-03-22T13:35:48.141Z</time></trkpt><trkpt lat="39.9832093" lon="-2.121858"><ele>938.5</ele><time>2026-03-22T13:35:49.142Z</time></trkpt><trkpt lat="39.9832902" lon="-2.12171"><ele>938.75</ele><time>2026-03-22T13:35:50.145Z</time></trkpt><trkpt lat="39.9833681" lon="-2.1215515"><ele>939.0</ele><time>2026-03-22T13:35:51.148Z</time></trkpt><trkpt lat="39.9834543" lon="-2.1213798"><ele>939.0</ele><time>2026-03-22T13:35:52.148Z</time></trkpt><trkpt lat="39.9835307" lon="-2.1211936"><ele>939.0</ele><time>2026-03-22T13:35:53.141Z</time></trkpt><trkpt lat="39.9836149" lon="-2.1210032"><ele>939.0</ele><time>2026-03-22T13:35:54.148Z</time></trkpt><trkpt lat="39.9836866" lon="-2.1207971"><ele>939.6666666666667</ele><time>2026-03-22T13:35:55.137Z</time></trkpt><trkpt lat="39.9837737" lon="-2.120592"><ele>940.3333333333334</ele><time>2026-03-22T13:35:56.147Z</time></trkpt><trkpt lat="39.983864" lon="-2.120387"><ele>941.0</ele><time>2026-03-22T13:35:57.145Z</time></trkpt><trkpt lat="39.9839338" lon="-2.1201929"><ele>941.0</ele><time>2026-03-22T13:35:58.139Z</time></trkpt><trkpt lat="39.9840034" lon="-2.120002"><ele>941.0</ele><time>2026-03-22T13:35:59.148Z</time></trkpt><trkpt lat="39.9840594" lon="-2.1198016"><ele>941.0</ele><time>2026-03-22T13:36:00.224Z</time></trkpt><trkpt lat="39.9841283" lon="-2.1195923"><ele>941.6666666666667</ele><time>2026-03-22T13:36:01.15Z</time></trkpt><trkpt lat="39.9841959" lon="-2.1193771"><ele>942.3333333333333</ele><time>2026-03-22T13:36:02.154Z</time></trkpt><trkpt lat="39.9842487" lon="-2.1191648"><ele>943.0</ele><time>2026-03-22T13:36:03.178Z</time></trkpt><trkpt lat="39.9843021" lon="-2.1189583"><ele>943.3333333333333</ele><time>2026-03-22T13:36:04.19Z</time></trkpt><trkpt lat="39.9843565" lon="-2.1187663"><ele>943.6666666666667</ele><time>2026-03-22T13:36:05.132Z</time></trkpt><trkpt lat="39.9844032" lon="-2.1185777"><ele>944.0</ele><time>2026-03-22T13:36:06.159Z</time></trkpt><trkpt lat="39.9844487" lon="-2.1183862"><ele>944.75</ele><time>2026-03-22T13:36:07.152Z</time></trkpt><trkpt lat="39.9844862" lon="-2.1181963"><ele>945.5</ele><time>2026-03-22T13:36:08.17Z</time></trkpt><trkpt lat="39.9845263" lon="-2.1180254"><ele>946.25</ele><time>2026-03-22T13:36:09.149Z</time></trkpt><trkpt lat="39.9845606" lon="-2.1178582"><ele>947.0</ele><time>2026-03-22T13:36:10.146Z</time></trkpt><trkpt lat="39.9845869" lon="-2.1177144"><ele>947.0000000000001</ele><time>2026-03-22T13:36:11.16Z</time></trkpt><trkpt lat="39.9846184" lon="-2.1176003"><ele>947.0</ele><time>2026-03-22T13:36:12.15Z</time></trkpt><trkpt lat="39.9846431" lon="-2.1174873"><ele>947.0</ele><time>2026-03-22T13:36:14.209Z</time></trkpt><trkpt lat="39.9846835" lon="-2.1174125"><ele>947.0</ele><time>2026-03-22T13:36:17.18Z</time></trkpt><trkpt lat="39.9847344" lon="-2.1173282"><ele>947.0000000000001</ele><time>2026-03-22T13:36:19.132Z</time></trkpt><trkpt lat="39.9847844" lon="-2.117264"><ele>947.0</ele><time>2026-03-22T13:36:20.148Z</time></trkpt><trkpt lat="39.9848698" lon="-2.1172304"><ele>948.0</ele><time>2026-03-22T13:36:21.143Z</time></trkpt><trkpt lat="39.9849711" lon="-2.117216"><ele>949.0</ele><time>2026-03-22T13:36:22.142Z</time></trkpt><trkpt lat="39.9850891" lon="-2.1171835"><ele>950.0</ele><time>2026-03-22T13:36:23.138Z</time></trkpt><trkpt lat="39.9852207" lon="-2.1171458"><ele>951.0</ele><time>2026-03-22T13:36:24.124Z</time></trkpt><trkpt lat="39.9853561" lon="-2.1171048"><ele>951.0</ele><time>2026-03-22T13:36:25.137Z</time></trkpt><trkpt lat="39.9855026" lon="-2.117044"><ele>951.0</ele><time>2026-03-22T13:36:26.148Z</time></trkpt><trkpt lat="39.9856462" lon="-2.1169573"><ele>951.0</ele><time>2026-03-22T13:36:27.128Z</time></trkpt><trkpt lat="39.9857749" lon="-2.1168535"><ele>950.5</ele><time>2026-03-22T13:36:28.145Z</time></trkpt><trkpt lat="39.9858849" lon="-2.1167323"><ele>950.0</ele><time>2026-03-22T13:36:29.141Z</time></trkpt><trkpt lat="39.9859813" lon="-2.1166018"><ele>949.5</ele><time>2026-03-22T13:36:30.184Z</time></trkpt><trkpt lat="39.9860691" lon="-2.1164644"><ele>949.0</ele><time>2026-03-22T13:36:31.185Z</time></trkpt><trkpt lat="39.9861571" lon="-2.1163158"><ele>949.0</ele><time>2026-03-22T13:36:32.191Z</time></trkpt><trkpt lat="39.9862109" lon="-2.1161573"><ele>949.0</ele><time>2026-03-22T13:36:33.175Z</time></trkpt><trkpt lat="39.986256" lon="-2.115996"><ele>949.0</ele><time>2026-03-22T13:36:34.155Z</time></trkpt><trkpt lat="39.9863102" lon="-2.1158328"><ele>949.0</ele><time>2026-03-22T13:36:35.147Z</time></trkpt><trkpt lat="39.9863529" lon="-2.1156682"><ele>949.25</ele><time>2026-03-22T13:36:36.156Z</time></trkpt><trkpt lat="39.9863802" lon="-2.1154912"><ele>949.5</ele><time>2026-03-22T13:36:37.171Z</time></trkpt><trkpt lat="39.9864166" lon="-2.1153171"><ele>949.75</ele><time>2026-03-22T13:36:38.183Z</time></trkpt><trkpt lat="39.9864567" lon="-2.1151483"><ele>950.0</ele><time>2026-03-22T13:36:39.162Z</time></trkpt><trkpt lat="39.9865031" lon="-2.114986"><ele>950.2</ele><time>2026-03-22T13:36:40.132Z</time></trkpt><trkpt lat="39.9865402" lon="-2.1148339"><ele>950.4</ele><time>2026-03-22T13:36:41.129Z</time></trkpt><trkpt lat="39.9865749" lon="-2.1146988"><ele>950.5999999999999</ele><time>2026-03-22T13:36:42.145Z</time></trkpt><trkpt lat="39.9866134" lon="-2.1145793"><ele>950.8</ele><time>2026-03-22T13:36:43.163Z</time></trkpt><trkpt lat="39.9866497" lon="-2.1144878"><ele>951.0</ele><time>2026-03-22T13:36:44.167Z</time></trkpt><trkpt lat="39.9866767" lon="-2.1144032"><ele>951.0</ele><time>2026-03-22T13:36:45.148Z</time></trkpt><trkpt lat="39.9866868" lon="-2.1143191"><ele>950.9999999999999</ele><time>2026-03-22T13:36:46.154Z</time></trkpt><trkpt lat="39.9866054" lon="-2.1142006"><ele>950.9999999999999</ele><time>2026-03-22T13:36:48.142Z</time></trkpt><trkpt lat="39.9865394" lon="-2.1141322"><ele>951.0</ele><time>2026-03-22T13:36:49.137Z</time></trkpt><trkpt lat="39.9864731" lon="-2.1140393"><ele>951.0</ele><time>2026-03-22T13:36:50.14Z</time></trkpt><trkpt lat="39.9863939" lon="-2.1139307"><ele>950.75</ele><time>2026-03-22T13:36:51.13Z</time></trkpt><trkpt lat="39.9863064" lon="-2.1137932"><ele>950.5</ele><time>2026-03-22T13:36:52.153Z</time></trkpt><trkpt lat="39.9862145" lon="-2.113652"><ele>950.25</ele><time>2026-03-22T13:36:53.138Z</time></trkpt><trkpt lat="39.986114" lon="-2.1135264"><ele>950.0</ele><time>2026-03-22T13:36:54.13Z</time></trkpt><trkpt lat="39.9860185" lon="-2.1134108"><ele>950.0</ele><time>2026-03-22T13:36:55.148Z</time></trkpt><trkpt lat="39.9859397" lon="-2.1132976"><ele>950.0</ele><time>2026-03-22T13:36:56.136Z</time></trkpt><trkpt lat="39.9858658" lon="-2.1131859"><ele>950.0</ele><time>2026-03-22T13:36:57.149Z</time></trkpt><trkpt lat="39.9857917" lon="-2.1130655"><ele>950.0</ele><time>2026-03-22T13:36:58.136Z</time></trkpt><trkpt lat="39.9857106" lon="-2.112942"><ele>952.0</ele><time>2026-03-22T13:36:59.14Z</time></trkpt><trkpt lat="39.985627" lon="-2.112833"><ele>954.0</ele><time>2026-03-22T13:37:00.176Z</time></trkpt><trkpt lat="39.9855432" lon="-2.1127387"><ele>956.0</ele><time>2026-03-22T13:37:01.143Z</time></trkpt><trkpt lat="39.9854568" lon="-2.1126511"><ele>958.0</ele><time>2026-03-22T13:37:02.139Z</time></trkpt><trkpt lat="39.9853694" lon="-2.1125576"><ele>958.0</ele><time>2026-03-22T13:37:03.13Z</time></trkpt><trkpt lat="39.9852746" lon="-2.1124746"><ele>958.0</ele><time>2026-03-22T13:37:04.14Z</time></trkpt><trkpt lat="39.9851767" lon="-2.1123868"><ele>958.0</ele><time>2026-03-22T13:37:05.135Z</time></trkpt><trkpt lat="39.9850762" lon="-2.1122833"><ele>958.0</ele><time>2026-03-22T13:37:06.143Z</time></trkpt><trkpt lat="39.9849681" lon="-2.1121805"><ele>958.75</ele><time>2026-03-22T13:37:07.131Z</time></trkpt><trkpt lat="39.9848609" lon="-2.1120764"><ele>959.5</ele><time>2026-03-22T13:37:08.142Z</time></trkpt><trkpt lat="39.9847672" lon="-2.1119808"><ele>960.25</ele><time>2026-03-22T13:37:09.148Z</time></trkpt><trkpt lat="39.9846684" lon="-2.1119309"><ele>961.0</ele><time>2026-03-22T13:37:10.133Z</time></trkpt><trkpt lat="39.9845577" lon="-2.1118934"><ele>961.0</ele><time>2026-03-22T13:37:11.159Z</time></trkpt><trkpt lat="39.9844471" lon="-2.1118497"><ele>961.0</ele><time>2026-03-22T13:37:12.134Z</time></trkpt><trkpt lat="39.984328" lon="-2.1117997"><ele>961.0</ele><time>2026-03-22T13:37:13.141Z</time></trkpt><trkpt lat="39.9842016" lon="-2.1117562"><ele>961.0</ele><time>2026-03-22T13:37:14.152Z</time></trkpt><trkpt lat="39.9840702" lon="-2.1117328"><ele>962.75</ele><time>2026-03-22T13:37:15.14Z</time></trkpt><trkpt lat="39.9839385" lon="-2.1117137"><ele>964.5</ele><time>2026-03-22T13:37:16.137Z</time></trkpt><trkpt lat="39.9837987" lon="-2.1117007"><ele>966.25</ele><time>2026-03-22T13:37:17.13Z</time></trkpt><trkpt lat="39.9836536" lon="-2.1117006"><ele>968.0</ele><time>2026-03-22T13:37:18.148Z</time></trkpt><trkpt lat="39.9835099" lon="-2.1117072"><ele>968.0</ele><time>2026-03-22T13:37:19.137Z</time></trkpt><trkpt lat="39.9833669" lon="-2.1117261"><ele>968.0</ele><time>2026-03-22T13:37:20.126Z</time></trkpt><trkpt lat="39.9832211" lon="-2.1117364"><ele>968.0</ele><time>2026-03-22T13:37:21.145Z</time></trkpt><trkpt lat="39.983077" lon="-2.111749"><ele>968.0</ele><time>2026-03-22T13:37:22.144Z</time></trkpt><trkpt lat="39.9829366" lon="-2.1117613"><ele>969.0</ele><time>2026-03-22T13:37:23.136Z</time></trkpt><trkpt lat="39.9828047" lon="-2.1117682"><ele>970.0</ele><time>2026-03-22T13:37:24.131Z</time></trkpt><trkpt lat="39.9826828" lon="-2.1117612"><ele>971.0</ele><time>2026-03-22T13:37:25.136Z</time></trkpt><trkpt lat="39.9825734" lon="-2.1117421"><ele>972.0</ele><time>2026-03-22T13:37:26.131Z</time></trkpt><trkpt lat="39.9824701" lon="-2.1117129"><ele>973.2</ele><time>2026-03-22T13:37:27.132Z</time></trkpt><trkpt lat="39.9823783" lon="-2.1116499"><ele>974.4000000000001</ele><time>2026-03-22T13:37:28.131Z</time></trkpt><trkpt lat="39.9822816" lon="-2.1115924"><ele>975.5999999999999</ele><time>2026-03-22T13:37:29.193Z</time></trkpt><trkpt lat="39.9821972" lon="-2.1115183"><ele>976.8</ele><time>2026-03-22T13:37:30.143Z</time></trkpt><trkpt lat="39.9821123" lon="-2.1114448"><ele>978.0</ele><time>2026-03-22T13:37:31.13Z</time></trkpt><trkpt lat="39.9820175" lon="-2.1113765"><ele>978.0</ele><time>2026-03-22T13:37:32.146Z</time></trkpt><trkpt lat="39.9819043" lon="-2.111324"><ele>978.0</ele><time>2026-03-22T13:37:33.127Z</time></trkpt><trkpt lat="39.9818247" lon="-2.1112306"><ele>978.0</ele><time>2026-03-22T13:37:34.13Z</time></trkpt><trkpt lat="39.981745" lon="-2.111143"><ele>978.0</ele><time>2026-03-22T13:37:35.13Z</time></trkpt><trkpt lat="39.9816386" lon="-2.1110851"><ele>978.0</ele><time>2026-03-22T13:37:36.138Z</time></trkpt><trkpt lat="39.981535" lon="-2.1110184"><ele>977.5</ele><time>2026-03-22T13:37:37.137Z</time></trkpt><trkpt lat="39.981437" lon="-2.1109366"><ele>977.0</ele><time>2026-03-22T13:37:38.166Z</time></trkpt><trkpt lat="39.9813395" lon="-2.1108513"><ele>976.5</ele><time>2026-03-22T13:37:39.136Z</time></trkpt><trkpt lat="39.9812365" lon="-2.1107561"><ele>976.0</ele><time>2026-03-22T13:37:40.141Z</time></trkpt><trkpt lat="39.9811384" lon="-2.1106562"><ele>975.0</ele><time>2026-03-22T13:37:41.14Z</time></trkpt><trkpt lat="39.9810427" lon="-2.1105629"><ele>974.0</ele><time>2026-03-22T13:37:42.144Z</time></trkpt><trkpt lat="39.98095" lon="-2.1104695"><ele>973.0</ele><time>2026-03-22T13:37:43.14Z</time></trkpt><trkpt lat="39.9808545" lon="-2.110369"><ele>972.0</ele><time>2026-03-22T13:37:44.149Z</time></trkpt><trkpt lat="39.980754" lon="-2.11026"><ele>972.0</ele><time>2026-03-22T13:37:45.142Z</time></trkpt><trkpt lat="39.9806608" lon="-2.1101654"><ele>972.0</ele><time>2026-03-22T13:37:46.132Z</time></trkpt><trkpt lat="39.9805653" lon="-2.1100737"><ele>972.0</ele><time>2026-03-22T13:37:47.132Z</time></trkpt><trkpt lat="39.9804685" lon="-2.109971"><ele>972.0</ele><time>2026-03-22T13:37:48.135Z</time></trkpt><trkpt lat="39.9803744" lon="-2.1098728"><ele>971.75</ele><time>2026-03-22T13:37:49.143Z</time></trkpt><trkpt lat="39.9802842" lon="-2.1097739"><ele>971.5</ele><time>2026-03-22T13:37:50.14Z</time></trkpt><trkpt lat="39.9801928" lon="-2.1096805"><ele>971.25</ele><time>2026-03-22T13:37:51.133Z</time></trkpt><trkpt lat="39.9801011" lon="-2.1095817"><ele>971.0</ele><time>2026-03-22T13:37:52.15Z</time></trkpt><trkpt lat="39.9800003" lon="-2.1094592"><ele>971.0</ele><time>2026-03-22T13:37:53.135Z</time></trkpt><trkpt lat="39.9798873" lon="-2.1093405"><ele>971.0</ele><time>2026-03-22T13:37:54.14Z</time></trkpt><trkpt lat="39.9797751" lon="-2.1092348"><ele>971.0</ele><time>2026-03-22T13:37:55.148Z</time></trkpt><trkpt lat="39.9796654" lon="-2.1091335"><ele>971.0</ele><time>2026-03-22T13:37:56.152Z</time></trkpt><trkpt lat="39.9795634" lon="-2.1090364"><ele>971.0</ele><time>2026-03-22T13:37:57.142Z</time></trkpt><trkpt lat="39.9794712" lon="-2.1089467"><ele>971.0</ele><time>2026-03-22T13:37:58.132Z</time></trkpt><trkpt lat="39.9793887" lon="-2.1088586"><ele>971.0</ele><time>2026-03-22T13:37:59.134Z</time></trkpt><trkpt lat="39.979296" lon="-2.1087645"><ele>971.0</ele><time>2026-03-22T13:38:00.185Z</time></trkpt><trkpt lat="39.9791851" lon="-2.1086657"><ele>971.75</ele><time>2026-03-22T13:38:01.139Z</time></trkpt><trkpt lat="39.9790722" lon="-2.1085569"><ele>972.5</ele><time>2026-03-22T13:38:02.137Z</time></trkpt><trkpt lat="39.9789536" lon="-2.1084445"><ele>973.25</ele><time>2026-03-22T13:38:03.14Z</time></trkpt><trkpt lat="39.9788398" lon="-2.1083328"><ele>974.0</ele><time>2026-03-22T13:38:04.146Z</time></trkpt><trkpt lat="39.9787308" lon="-2.1082288"><ele>974.0</ele><time>2026-03-22T13:38:05.15Z</time></trkpt><trkpt lat="39.978625" lon="-2.1081221"><ele>974.0</ele><time>2026-03-22T13:38:06.133Z</time></trkpt><trkpt lat="39.9785152" lon="-2.1080207"><ele>974.0</ele><time>2026-03-22T13:38:07.137Z</time></trkpt><trkpt lat="39.9784021" lon="-2.1079078"><ele>974.0</ele><time>2026-03-22T13:38:08.156Z</time></trkpt><trkpt lat="39.9782929" lon="-2.1077974"><ele>975.25</ele><time>2026-03-22T13:38:09.135Z</time></trkpt><trkpt lat="39.9781935" lon="-2.1076937"><ele>976.5</ele><time>2026-03-22T13:38:10.129Z</time></trkpt><trkpt lat="39.9780952" lon="-2.1075946"><ele>977.75</ele><time>2026-03-22T13:38:11.142Z</time></trkpt><trkpt lat="39.9780013" lon="-2.1075101"><ele>979.0</ele><time>2026-03-22T13:38:12.144Z</time></trkpt><trkpt lat="39.9779152" lon="-2.1074262"><ele>978.9999999999999</ele><time>2026-03-22T13:38:13.138Z</time></trkpt><trkpt lat="39.9778474" lon="-2.1073495"><ele>979.0</ele><time>2026-03-22T13:38:14.155Z</time></trkpt><trkpt lat="39.9777961" lon="-2.1072719"><ele>979.0</ele><time>2026-03-22T13:38:15.143Z</time></trkpt><trkpt lat="39.977755" lon="-2.1071858"><ele>979.0</ele><time>2026-03-22T13:38:16.14Z</time></trkpt><trkpt lat="39.9777317" lon="-2.107075"><ele>978.9999999999999</ele><time>2026-03-22T13:38:17.136Z</time></trkpt><trkpt lat="39.9777227" lon="-2.1069479"><ele>979.0</ele><time>2026-03-22T13:38:18.147Z</time></trkpt><trkpt lat="39.9777209" lon="-2.1068025"><ele>979.0</ele><time>2026-03-22T13:38:19.141Z</time></trkpt><trkpt lat="39.9777381" lon="-2.1066562"><ele>979.0</ele><time>2026-03-22T13:38:20.138Z</time></trkpt><trkpt lat="39.9777636" lon="-2.1065081"><ele>979.0</ele><time>2026-03-22T13:38:21.129Z</time></trkpt><trkpt lat="39.9777735" lon="-2.1063433"><ele>979.0</ele><time>2026-03-22T13:38:22.135Z</time></trkpt><trkpt lat="39.9777837" lon="-2.1061746"><ele>978.5</ele><time>2026-03-22T13:38:23.131Z</time></trkpt><trkpt lat="39.9777997" lon="-2.1060144"><ele>978.0</ele><time>2026-03-22T13:38:24.135Z</time></trkpt><trkpt lat="39.9778057" lon="-2.1058604"><ele>977.5</ele><time>2026-03-22T13:38:25.132Z</time></trkpt><trkpt lat="39.9778091" lon="-2.1057024"><ele>977.0</ele><time>2026-03-22T13:38:26.136Z</time></trkpt><trkpt lat="39.9778123" lon="-2.1055306"><ele>977.0</ele><time>2026-03-22T13:38:27.139Z</time></trkpt><trkpt lat="39.9778161" lon="-2.105353"><ele>977.0</ele><time>2026-03-22T13:38:28.149Z</time></trkpt><trkpt lat="39.977823" lon="-2.1051726"><ele>977.0</ele><time>2026-03-22T13:38:29.139Z</time></trkpt><trkpt lat="39.9778297" lon="-2.1049999"><ele>977.0</ele><time>2026-03-22T13:38:30.136Z</time></trkpt><trkpt lat="39.9778347" lon="-2.1048312"><ele>977.75</ele><time>2026-03-22T13:38:31.151Z</time></trkpt><trkpt lat="39.9778405" lon="-2.1046584"><ele>978.5</ele><time>2026-03-22T13:38:32.14Z</time></trkpt><trkpt lat="39.9778507" lon="-2.10448"><ele>979.25</ele><time>2026-03-22T13:38:33.134Z</time></trkpt><trkpt lat="39.9778558" lon="-2.1043067"><ele>980.0</ele><time>2026-03-22T13:38:34.147Z</time></trkpt><trkpt lat="39.9778486" lon="-2.1041442"><ele>979.75</ele><time>2026-03-22T13:38:35.138Z</time></trkpt><trkpt lat="39.9778344" lon="-2.1039754"><ele>979.5</ele><time>2026-03-22T13:38:36.134Z</time></trkpt><trkpt lat="39.9778158" lon="-2.1037988"><ele>979.25</ele><time>2026-03-22T13:38:37.15Z</time></trkpt><trkpt lat="39.9777838" lon="-2.1036163"><ele>979.0</ele><time>2026-03-22T13:38:38.137Z</time></trkpt><trkpt lat="39.9777447" lon="-2.1034436"><ele>979.0</ele><time>2026-03-22T13:38:39.144Z</time></trkpt><trkpt lat="39.9776947" lon="-2.1032849"><ele>979.0</ele><time>2026-03-22T13:38:40.131Z</time></trkpt><trkpt lat="39.9776429" lon="-2.1031286"><ele>979.0</ele><time>2026-03-22T13:38:41.148Z</time></trkpt><trkpt lat="39.9775815" lon="-2.1029777"><ele>979.0</ele><time>2026-03-22T13:38:42.142Z</time></trkpt><trkpt lat="39.977519" lon="-2.1028208"><ele>979.75</ele><time>2026-03-22T13:38:43.138Z</time></trkpt><trkpt lat="39.9774552" lon="-2.1026591"><ele>980.5</ele><time>2026-03-22T13:38:44.147Z</time></trkpt><trkpt lat="39.9773896" lon="-2.1025025"><ele>981.25</ele><time>2026-03-22T13:38:45.135Z</time></trkpt><trkpt lat="39.9773249" lon="-2.1023429"><ele>982.0</ele><time>2026-03-22T13:38:46.125Z</time></trkpt><trkpt lat="39.9772578" lon="-2.1021856"><ele>982.75</ele><time>2026-03-22T13:38:47.128Z</time></trkpt><trkpt lat="39.9771963" lon="-2.1020309"><ele>983.5</ele><time>2026-03-22T13:38:48.147Z</time></trkpt><trkpt lat="39.9771318" lon="-2.1018859"><ele>984.25</ele><time>2026-03-22T13:38:49.147Z</time></trkpt><trkpt lat="39.9770693" lon="-2.1017389"><ele>985.0</ele><time>2026-03-22T13:38:50.148Z</time></trkpt><trkpt lat="39.9770119" lon="-2.1016016"><ele>984.6</ele><time>2026-03-22T13:38:51.147Z</time></trkpt><trkpt lat="39.9769521" lon="-2.1014774"><ele>984.2</ele><time>2026-03-22T13:38:52.129Z</time></trkpt><trkpt lat="39.976898" lon="-2.1013584"><ele>983.8</ele><time>2026-03-22T13:38:53.139Z</time></trkpt><trkpt lat="39.9768367" lon="-2.1012357"><ele>983.4</ele><time>2026-03-22T13:38:54.142Z</time></trkpt><trkpt lat="39.9767661" lon="-2.1011184"><ele>983.0</ele><time>2026-03-22T13:38:55.131Z</time></trkpt><trkpt lat="39.9766927" lon="-2.101"><ele>984.75</ele><time>2026-03-22T13:38:56.138Z</time></trkpt><trkpt lat="39.9766223" lon="-2.1008779"><ele>986.5</ele><time>2026-03-22T13:38:57.133Z</time></trkpt><trkpt lat="39.9765479" lon="-2.1007549"><ele>988.25</ele><time>2026-03-22T13:38:58.142Z</time></trkpt><trkpt lat="39.9764719" lon="-2.1006265"><ele>990.0</ele><time>2026-03-22T13:38:59.136Z</time></trkpt><trkpt lat="39.9763866" lon="-2.1005036"><ele>990.2</ele><time>2026-03-22T13:39:00.198Z</time></trkpt><trkpt lat="39.9763012" lon="-2.1003876"><ele>990.4</ele><time>2026-03-22T13:39:01.135Z</time></trkpt><trkpt lat="39.9762218" lon="-2.1002824"><ele>990.5999999999999</ele><time>2026-03-22T13:39:02.14Z</time></trkpt><trkpt lat="39.976149" lon="-2.1001845"><ele>990.8</ele><time>2026-03-22T13:39:03.131Z</time></trkpt><trkpt lat="39.9760748" lon="-2.1000975"><ele>991.0</ele><time>2026-03-22T13:39:04.163Z</time></trkpt><trkpt lat="39.975998" lon="-2.1000265"><ele>990.9999999999999</ele><time>2026-03-22T13:39:05.145Z</time></trkpt><trkpt lat="39.9759273" lon="-2.099957"><ele>991.0</ele><time>2026-03-22T13:39:06.149Z</time></trkpt><trkpt lat="39.9758592" lon="-2.0998827"><ele>991.0</ele><time>2026-03-22T13:39:07.126Z</time></trkpt><trkpt lat="39.9757953" lon="-2.0998082"><ele>991.0</ele><time>2026-03-22T13:39:08.156Z</time></trkpt><trkpt lat="39.9757274" lon="-2.099737"><ele>990.9999999999999</ele><time>2026-03-22T13:39:09.157Z</time></trkpt><trkpt lat="39.9756606" lon="-2.0996664"><ele>991.0</ele><time>2026-03-22T13:39:10.153Z</time></trkpt><trkpt lat="39.9755968" lon="-2.0996026"><ele>990.9999999999999</ele><time>2026-03-22T13:39:11.151Z</time></trkpt><trkpt lat="39.9755312" lon="-2.0995417"><ele>991.0</ele><time>2026-03-22T13:39:12.144Z</time></trkpt><trkpt lat="39.9754758" lon="-2.0994755"><ele>991.0</ele><time>2026-03-22T13:39:13.145Z</time></trkpt><trkpt lat="39.9754208" lon="-2.0994104"><ele>991.0</ele><time>2026-03-22T13:39:14.141Z</time></trkpt><trkpt lat="39.9753635" lon="-2.0993458"><ele>990.9999999999999</ele><time>2026-03-22T13:39:15.129Z</time></trkpt><trkpt lat="39.9753072" lon="-2.0992808"><ele>991.0</ele><time>2026-03-22T13:39:16.164Z</time></trkpt><trkpt lat="39.9752531" lon="-2.0992144"><ele>990.9999999999999</ele><time>2026-03-22T13:39:17.162Z</time></trkpt><trkpt lat="39.9751975" lon="-2.0991562"><ele>991.0</ele><time>2026-03-22T13:39:18.144Z</time></trkpt><trkpt lat="39.9751424" lon="-2.0990981"><ele>991.0</ele><time>2026-03-22T13:39:19.14Z</time></trkpt><trkpt lat="39.9750904" lon="-2.0990464"><ele>991.0</ele><time>2026-03-22T13:39:20.132Z</time></trkpt><trkpt lat="39.9749928" lon="-2.0989394"><ele>990.9999999999999</ele><time>2026-03-22T13:39:22.162Z</time></trkpt><trkpt lat="39.9749425" lon="-2.0988827"><ele>991.0</ele><time>2026-03-22T13:39:23.147Z</time></trkpt><trkpt lat="39.9748843" lon="-2.0988238"><ele>991.8</ele><time>2026-03-22T13:39:24.14Z</time></trkpt><trkpt lat="39.9748299" lon="-2.0987482"><ele>992.5999999999999</ele><time>2026-03-22T13:39:25.145Z</time></trkpt><trkpt lat="39.9747538" lon="-2.098667"><ele>993.4</ele><time>2026-03-22T13:39:26.136Z</time></trkpt><trkpt lat="39.9746619" lon="-2.0985756"><ele>994.2</ele><time>2026-03-22T13:39:27.162Z</time></trkpt><trkpt lat="39.9745536" lon="-2.0984781"><ele>995.0</ele><time>2026-03-22T13:39:28.151Z</time></trkpt><trkpt lat="39.9744475" lon="-2.0983724"><ele>995.0</ele><time>2026-03-22T13:39:29.166Z</time></trkpt><trkpt lat="39.9743558" lon="-2.0982663"><ele>995.0</ele><time>2026-03-22T13:39:30.142Z</time></trkpt><trkpt lat="39.9742681" lon="-2.098166"><ele>995.0</ele><time>2026-03-22T13:39:31.136Z</time></trkpt><trkpt lat="39.9741843" lon="-2.0980595"><ele>995.0</ele><time>2026-03-22T13:39:32.143Z</time></trkpt><trkpt lat="39.9741021" lon="-2.0979549"><ele>996.25</ele><time>2026-03-22T13:39:33.159Z</time></trkpt><trkpt lat="39.9740278" lon="-2.097843"><ele>997.5</ele><time>2026-03-22T13:39:34.132Z</time></trkpt><trkpt lat="39.9739677" lon="-2.0977163"><ele>998.75</ele><time>2026-03-22T13:39:35.147Z</time></trkpt><trkpt lat="39.9739375" lon="-2.0975617"><ele>1000.0</ele><time>2026-03-22T13:39:36.14Z</time></trkpt><trkpt lat="39.9739122" lon="-2.0973928"><ele>1000.5</ele><time>2026-03-22T13:39:37.139Z</time></trkpt><trkpt lat="39.9738885" lon="-2.0972122"><ele>1001.0</ele><time>2026-03-22T13:39:38.145Z</time></trkpt><trkpt lat="39.973873" lon="-2.0970229"><ele>1001.5</ele><time>2026-03-22T13:39:39.155Z</time></trkpt><trkpt lat="39.9738596" lon="-2.0968327"><ele>1002.0</ele><time>2026-03-22T13:39:40.124Z</time></trkpt><trkpt lat="39.9738408" lon="-2.0966409"><ele>1001.0</ele><time>2026-03-22T13:39:41.14Z</time></trkpt><trkpt lat="39.973828" lon="-2.0964597"><ele>1000.0</ele><time>2026-03-22T13:39:42.135Z</time></trkpt><trkpt lat="39.9738239" lon="-2.0962961"><ele>999.0</ele><time>2026-03-22T13:39:43.138Z</time></trkpt><trkpt lat="39.9738153" lon="-2.0961352"><ele>998.0</ele><time>2026-03-22T13:39:44.136Z</time></trkpt><trkpt lat="39.9738054" lon="-2.0959719"><ele>998.0</ele><time>2026-03-22T13:39:45.136Z</time></trkpt><trkpt lat="39.9738025" lon="-2.0957993"><ele>998.0</ele><time>2026-03-22T13:39:46.124Z</time></trkpt><trkpt lat="39.9738052" lon="-2.0956187"><ele>998.0</ele><time>2026-03-22T13:39:47.133Z</time></trkpt><trkpt lat="39.9737933" lon="-2.0954428"><ele>998.0</ele><time>2026-03-22T13:39:48.141Z</time></trkpt><trkpt lat="39.9737825" lon="-2.0952835"><ele>998.4</ele><time>2026-03-22T13:39:49.128Z</time></trkpt><trkpt lat="39.973771" lon="-2.0951363"><ele>998.8</ele><time>2026-03-22T13:39:50.14Z</time></trkpt><trkpt lat="39.9737659" lon="-2.0950015"><ele>999.2</ele><time>2026-03-22T13:39:51.14Z</time></trkpt><trkpt lat="39.9737645" lon="-2.0948792"><ele>999.6</ele><time>2026-03-22T13:39:52.125Z</time></trkpt><trkpt lat="39.9737829" lon="-2.0947518"><ele>1000.0</ele><time>2026-03-22T13:39:53.156Z</time></trkpt><trkpt lat="39.9738248" lon="-2.0946166"><ele>1000.0</ele><time>2026-03-22T13:39:54.144Z</time></trkpt><trkpt lat="39.9738704" lon="-2.0944793"><ele>1000.0</ele><time>2026-03-22T13:39:55.122Z</time></trkpt><trkpt lat="39.9739017" lon="-2.0943436"><ele>1000.0</ele><time>2026-03-22T13:39:56.17Z</time></trkpt><trkpt lat="39.9739331" lon="-2.0942103"><ele>1000.0</ele><time>2026-03-22T13:39:57.123Z</time></trkpt><trkpt lat="39.9739597" lon="-2.0940916"><ele>1000.0</ele><time>2026-03-22T13:39:58.138Z</time></trkpt><trkpt lat="39.973982" lon="-2.0939887"><ele>1000.1666666666666</ele><time>2026-03-22T13:39:59.14Z</time></trkpt><trkpt lat="39.9740046" lon="-2.0938968"><ele>1000.3333333333333</ele><time>2026-03-22T13:40:00.149Z</time></trkpt><trkpt lat="39.9740127" lon="-2.0937957"><ele>1000.5</ele><time>2026-03-22T13:40:01.13Z</time></trkpt><trkpt lat="39.9740036" lon="-2.0936719"><ele>1000.6666666666667</ele><time>2026-03-22T13:40:02.144Z</time></trkpt><trkpt lat="39.9739982" lon="-2.0935451"><ele>1000.8333333333334</ele><time>2026-03-22T13:40:03.141Z</time></trkpt><trkpt lat="39.9739989" lon="-2.0934275"><ele>1001.0</ele><time>2026-03-22T13:40:04.145Z</time></trkpt><trkpt lat="39.974006" lon="-2.0933194"><ele>1001.0000000000001</ele><time>2026-03-22T13:40:05.138Z</time></trkpt><trkpt lat="39.9740213" lon="-2.093231"><ele>1001.0</ele><time>2026-03-22T13:40:06.14Z</time></trkpt><trkpt lat="39.9740302" lon="-2.0931238"><ele>1001.0</ele><time>2026-03-22T13:40:07.142Z</time></trkpt><trkpt lat="39.9740452" lon="-2.0930128"><ele>1001.0</ele><time>2026-03-22T13:40:08.132Z</time></trkpt><trkpt lat="39.9740679" lon="-2.0928998"><ele>1001.0000000000001</ele><time>2026-03-22T13:40:09.143Z</time></trkpt><trkpt lat="39.9740845" lon="-2.0928095"><ele>1001.0</ele><time>2026-03-22T13:40:10.135Z</time></trkpt><trkpt lat="39.9740955" lon="-2.0927263"><ele>1001.0</ele><time>2026-03-22T13:40:11.144Z</time></trkpt><trkpt lat="39.9741074" lon="-2.0926384"><ele>1001.0</ele><time>2026-03-22T13:40:12.133Z</time></trkpt><trkpt lat="39.9741231" lon="-2.0925499"><ele>1001.0</ele><time>2026-03-22T13:40:13.145Z</time></trkpt><trkpt lat="39.9741318" lon="-2.0924611"><ele>1001.0</ele><time>2026-03-22T13:40:14.146Z</time></trkpt><trkpt lat="39.9741394" lon="-2.0923715"><ele>1001.0</ele><time>2026-03-22T13:40:15.154Z</time></trkpt><trkpt lat="39.9741405" lon="-2.0922825"><ele>1001.0</ele><time>2026-03-22T13:40:16.152Z</time></trkpt><trkpt lat="39.9741372" lon="-2.0921868"><ele>1001.0</ele><time>2026-03-22T13:40:17.161Z</time></trkpt><trkpt lat="39.9741267" lon="-2.092072"><ele>1000.8</ele><time>2026-03-22T13:40:18.168Z</time></trkpt><trkpt lat="39.9741084" lon="-2.09196"><ele>1000.5999999999999</ele><time>2026-03-22T13:40:19.145Z</time></trkpt><trkpt lat="39.9740805" lon="-2.0918406"><ele>1000.4</ele><time>2026-03-22T13:40:20.158Z</time></trkpt><trkpt lat="39.9740516" lon="-2.0917167"><ele>1000.2</ele><time>2026-03-22T13:40:21.187Z</time></trkpt><trkpt lat="39.9740053" lon="-2.0915915"><ele>1000.0</ele><time>2026-03-22T13:40:22.197Z</time></trkpt><trkpt lat="39.9739461" lon="-2.0914556"><ele>1000.0</ele><time>2026-03-22T13:40:23.149Z</time></trkpt><trkpt lat="39.9738889" lon="-2.0913132"><ele>1000.0</ele><time>2026-03-22T13:40:24.144Z</time></trkpt><trkpt lat="39.9738329" lon="-2.0911855"><ele>1000.0</ele><time>2026-03-22T13:40:25.176Z</time></trkpt><trkpt lat="39.9737743" lon="-2.0910633"><ele>1000.0</ele><time>2026-03-22T13:40:26.154Z</time></trkpt><trkpt lat="39.9737254" lon="-2.0909536"><ele>1000.0</ele><time>2026-03-22T13:40:27.151Z</time></trkpt><trkpt lat="39.9736825" lon="-2.0908316"><ele>1000.4285714285713</ele><time>2026-03-22T13:40:28.157Z</time></trkpt><trkpt lat="39.973644" lon="-2.0907227"><ele>1000.8571428571429</ele><time>2026-03-22T13:40:29.164Z</time></trkpt><trkpt lat="39.973621" lon="-2.0906407"><ele>1001.2857142857142</ele><time>2026-03-22T13:40:30.183Z</time></trkpt><trkpt lat="39.9736001" lon="-2.0905443"><ele>1001.7142857142857</ele><time>2026-03-22T13:40:31.154Z</time></trkpt><trkpt lat="39.9735884" lon="-2.0904525"><ele>1002.1428571428571</ele><time>2026-03-22T13:40:32.167Z</time></trkpt><trkpt lat="39.9735897" lon="-2.09036"><ele>1002.5714285714286</ele><time>2026-03-22T13:40:34.158Z</time></trkpt><trkpt lat="39.9736276" lon="-2.0902894"><ele>1003.0</ele><time>2026-03-22T13:40:37.164Z</time></trkpt><trkpt lat="39.9736319" lon="-2.0902029"><ele>1003.0</ele><time>2026-03-22T13:40:42.161Z</time></trkpt><trkpt lat="39.9735519" lon="-2.0900601"><ele>1003.0</ele><time>2026-03-22T13:40:44.139Z</time></trkpt><trkpt lat="39.9734997" lon="-2.089954"><ele>1003.0</ele><time>2026-03-22T13:40:45.131Z</time></trkpt><trkpt lat="39.9734558" lon="-2.0898248"><ele>1003.0</ele><time>2026-03-22T13:40:46.139Z</time></trkpt><trkpt lat="39.9734101" lon="-2.0896943"><ele>1003.4</ele><time>2026-03-22T13:40:47.14Z</time></trkpt><trkpt lat="39.9733652" lon="-2.0895692"><ele>1003.8</ele><time>2026-03-22T13:40:48.144Z</time></trkpt><trkpt lat="39.9733114" lon="-2.0894542"><ele>1004.2</ele><time>2026-03-22T13:40:49.14Z</time></trkpt><trkpt lat="39.9732513" lon="-2.0893407"><ele>1004.6</ele><time>2026-03-22T13:40:50.141Z</time></trkpt><trkpt lat="39.973186" lon="-2.089221"><ele>1005.0</ele><time>2026-03-22T13:40:51.138Z</time></trkpt><trkpt lat="39.9731164" lon="-2.0891025"><ele>1006.4</ele><time>2026-03-22T13:40:52.124Z</time></trkpt><trkpt lat="39.9730505" lon="-2.0889827"><ele>1007.8</ele><time>2026-03-22T13:40:53.135Z</time></trkpt><trkpt lat="39.9729752" lon="-2.0888793"><ele>1009.2</ele><time>2026-03-22T13:40:54.12Z</time></trkpt><trkpt lat="39.9729008" lon="-2.0887898"><ele>1010.6</ele><time>2026-03-22T13:40:55.145Z</time></trkpt><trkpt lat="39.9728323" lon="-2.0887059"><ele>1012.0</ele><time>2026-03-22T13:40:56.128Z</time></trkpt><trkpt lat="39.9727628" lon="-2.088627"><ele>1012.0</ele><time>2026-03-22T13:40:57.14Z</time></trkpt><trkpt lat="39.9726992" lon="-2.0885516"><ele>1012.0</ele><time>2026-03-22T13:40:58.175Z</time></trkpt><trkpt lat="39.9726336" lon="-2.0884765"><ele>1012.0</ele><time>2026-03-22T13:40:59.17Z</time></trkpt><trkpt lat="39.9725578" lon="-2.0883991"><ele>1012.0</ele><time>2026-03-22T13:41:00.225Z</time></trkpt><trkpt lat="39.9724775" lon="-2.0883189"><ele>1012.0</ele><time>2026-03-22T13:41:01.145Z</time></trkpt><trkpt lat="39.9723933" lon="-2.0882382"><ele>1012.75</ele><time>2026-03-22T13:41:02.139Z</time></trkpt><trkpt lat="39.9723023" lon="-2.0881545"><ele>1013.5</ele><time>2026-03-22T13:41:03.158Z</time></trkpt><trkpt lat="39.9722034" lon="-2.0880602"><ele>1014.25</ele><time>2026-03-22T13:41:04.149Z</time></trkpt><trkpt lat="39.9720952" lon="-2.0879604"><ele>1015.0</ele><time>2026-03-22T13:41:05.178Z</time></trkpt><trkpt lat="39.9719909" lon="-2.0878489"><ele>1015.0</ele><time>2026-03-22T13:41:06.155Z</time></trkpt><trkpt lat="39.9718919" lon="-2.0877315"><ele>1015.0</ele><time>2026-03-22T13:41:07.164Z</time></trkpt><trkpt lat="39.9717968" lon="-2.087607"><ele>1015.0</ele><time>2026-03-22T13:41:08.16Z</time></trkpt><trkpt lat="39.9716945" lon="-2.0874942"><ele>1015.0</ele><time>2026-03-22T13:41:09.138Z</time></trkpt><trkpt lat="39.971603" lon="-2.0873819"><ele>1014.75</ele><time>2026-03-22T13:41:10.19Z</time></trkpt><trkpt lat="39.9715172" lon="-2.0872717"><ele>1014.5</ele><time>2026-03-22T13:41:11.148Z</time></trkpt><trkpt lat="39.9714412" lon="-2.087162"><ele>1014.25</ele><time>2026-03-22T13:41:12.182Z</time></trkpt><trkpt lat="39.971367" lon="-2.0870548"><ele>1014.0</ele><time>2026-03-22T13:41:13.153Z</time></trkpt><trkpt lat="39.9712968" lon="-2.086952"><ele>1014.0</ele><time>2026-03-22T13:41:14.148Z</time></trkpt><trkpt lat="39.971234" lon="-2.0868577"><ele>1014.0</ele><time>2026-03-22T13:41:15.181Z</time></trkpt><trkpt lat="39.9711802" lon="-2.0867725"><ele>1014.0</ele><time>2026-03-22T13:41:16.149Z</time></trkpt><trkpt lat="39.9711258" lon="-2.0866805"><ele>1014.0</ele><time>2026-03-22T13:41:17.15Z</time></trkpt><trkpt lat="39.9710861" lon="-2.0866158"><ele>1014.0</ele><time>2026-03-22T13:41:18.183Z</time></trkpt><trkpt lat="39.9710112" lon="-2.0866048"><ele>1014.0</ele><time>2026-03-22T13:41:20.185Z</time></trkpt><trkpt lat="39.970938" lon="-2.0866408"><ele>1014.0</ele><time>2026-03-22T13:41:22.135Z</time></trkpt><trkpt lat="39.9708672" lon="-2.0866416"><ele>1014.0</ele><time>2026-03-22T13:41:24.151Z</time></trkpt><trkpt lat="39.9707865" lon="-2.0865672"><ele>1014.0</ele><time>2026-03-22T13:41:26.153Z</time></trkpt><trkpt lat="39.9707229" lon="-2.0865242"><ele>1014.0</ele><time>2026-03-22T13:41:27.189Z</time></trkpt><trkpt lat="39.9706587" lon="-2.0864685"><ele>1014.0</ele><time>2026-03-22T13:41:28.172Z</time></trkpt><trkpt lat="39.9705873" lon="-2.0864039"><ele>1014.0</ele><time>2026-03-22T13:41:29.131Z</time></trkpt><trkpt lat="39.9705081" lon="-2.0863444"><ele>1014.8000000000001</ele><time>2026-03-22T13:41:30.164Z</time></trkpt><trkpt lat="39.9704204" lon="-2.0862838"><ele>1015.6000000000001</ele><time>2026-03-22T13:41:31.133Z</time></trkpt><trkpt lat="39.9703305" lon="-2.0862205"><ele>1016.4</ele><time>2026-03-22T13:41:32.132Z</time></trkpt><trkpt lat="39.9702386" lon="-2.0861508"><ele>1017.2</ele><time>2026-03-22T13:41:33.148Z</time></trkpt><trkpt lat="39.9701493" lon="-2.086086"><ele>1018.0</ele><time>2026-03-22T13:41:34.192Z</time></trkpt><trkpt lat="39.970063" lon="-2.0860238"><ele>1018.3333333333333</ele><time>2026-03-22T13:41:35.171Z</time></trkpt><trkpt lat="39.969988" lon="-2.0859697"><ele>1018.6666666666666</ele><time>2026-03-22T13:41:36.167Z</time></trkpt><trkpt lat="39.9699283" lon="-2.0859226"><ele>1019.0</ele><time>2026-03-22T13:41:37.162Z</time></trkpt><trkpt lat="39.9698858" lon="-2.0858529"><ele>1019.3333333333333</ele><time>2026-03-22T13:41:38.137Z</time></trkpt><trkpt lat="39.9698419" lon="-2.0857682"><ele>1019.6666666666666</ele><time>2026-03-22T13:41:39.156Z</time></trkpt><trkpt lat="39.9698035" lon="-2.0856827"><ele>1020.0</ele><time>2026-03-22T13:41:40.123Z</time></trkpt><trkpt lat="39.9697619" lon="-2.0855828"><ele>1020.8</ele><time>2026-03-22T13:41:41.18Z</time></trkpt><trkpt lat="39.9697134" lon="-2.08547"><ele>1021.6</ele><time>2026-03-22T13:41:42.156Z</time></trkpt><trkpt lat="39.9696601" lon="-2.0853433"><ele>1022.4000000000001</ele><time>2026-03-22T13:41:43.172Z</time></trkpt><trkpt lat="39.9696096" lon="-2.0852091"><ele>1023.2</ele><time>2026-03-22T13:41:44.154Z</time></trkpt><trkpt lat="39.9695641" lon="-2.0850676"><ele>1024.0</ele><time>2026-03-22T13:41:45.142Z</time></trkpt><trkpt lat="39.9695323" lon="-2.084939"><ele>1024.2</ele><time>2026-03-22T13:41:46.136Z</time></trkpt><trkpt lat="39.9695084" lon="-2.0848172"><ele>1024.4</ele><time>2026-03-22T13:41:47.131Z</time></trkpt><trkpt lat="39.9694873" lon="-2.0846889"><ele>1024.6</ele><time>2026-03-22T13:41:48.139Z</time></trkpt><trkpt lat="39.9694587" lon="-2.0845738"><ele>1024.8</ele><time>2026-03-22T13:41:49.126Z</time></trkpt><trkpt lat="39.9694243" lon="-2.0844541"><ele>1025.0</ele><time>2026-03-22T13:41:50.139Z</time></trkpt><trkpt lat="39.9693886" lon="-2.0843314"><ele>1025.0</ele><time>2026-03-22T13:41:51.134Z</time></trkpt><trkpt lat="39.9693553" lon="-2.0842156"><ele>1025.0</ele><time>2026-03-22T13:41:52.134Z</time></trkpt><trkpt lat="39.969337" lon="-2.0841027"><ele>1025.0</ele><time>2026-03-22T13:41:53.145Z</time></trkpt><trkpt lat="39.9693174" lon="-2.0839858"><ele>1025.0</ele><time>2026-03-22T13:41:54.127Z</time></trkpt><trkpt lat="39.9693025" lon="-2.0838673"><ele>1025.0</ele><time>2026-03-22T13:41:55.146Z</time></trkpt><trkpt lat="39.969297" lon="-2.0837499"><ele>1024.4285714285713</ele><time>2026-03-22T13:41:56.133Z</time></trkpt><trkpt lat="39.9692959" lon="-2.0836403"><ele>1023.8571428571429</ele><time>2026-03-22T13:41:57.134Z</time></trkpt><trkpt lat="39.9692923" lon="-2.0835521"><ele>1023.2857142857142</ele><time>2026-03-22T13:41:58.125Z</time></trkpt><trkpt lat="39.9692914" lon="-2.0834607"><ele>1022.7142857142857</ele><time>2026-03-22T13:41:59.131Z</time></trkpt><trkpt lat="39.9692827" lon="-2.0833628"><ele>1022.1428571428571</ele><time>2026-03-22T13:42:00.142Z</time></trkpt><trkpt lat="39.96927" lon="-2.0832724"><ele>1021.5714285714286</ele><time>2026-03-22T13:42:01.147Z</time></trkpt><trkpt lat="39.9692462" lon="-2.0831909"><ele>1021.0</ele><time>2026-03-22T13:42:02.125Z</time></trkpt><trkpt lat="39.9692163" lon="-2.083112"><ele>1020.4999999999999</ele><time>2026-03-22T13:42:03.129Z</time></trkpt><trkpt lat="39.9691848" lon="-2.0830287"><ele>1020.0</ele><time>2026-03-22T13:42:04.135Z</time></trkpt><trkpt lat="39.9691513" lon="-2.0829467"><ele>1019.5</ele><time>2026-03-22T13:42:05.132Z</time></trkpt><trkpt lat="39.9691044" lon="-2.0828684"><ele>1019.0</ele><time>2026-03-22T13:42:06.134Z</time></trkpt><trkpt lat="39.9690578" lon="-2.0828003"><ele>1018.4999999999999</ele><time>2026-03-22T13:42:07.153Z</time></trkpt><trkpt lat="39.968999" lon="-2.0827305"><ele>1018.0</ele><time>2026-03-22T13:42:08.129Z</time></trkpt><trkpt lat="39.9689347" lon="-2.0826586"><ele>1017.9999999999999</ele><time>2026-03-22T13:42:09.127Z</time></trkpt><trkpt lat="39.9688661" lon="-2.0825931"><ele>1018.0</ele><time>2026-03-22T13:42:10.126Z</time></trkpt><trkpt lat="39.9687972" lon="-2.0825343"><ele>1018.0</ele><time>2026-03-22T13:42:11.138Z</time></trkpt><trkpt lat="39.9687221" lon="-2.0824868"><ele>1018.0</ele><time>2026-03-22T13:42:12.147Z</time></trkpt><trkpt lat="39.9686343" lon="-2.0824498"><ele>1017.9999999999999</ele><time>2026-03-22T13:42:13.139Z</time></trkpt><trkpt lat="39.968546" lon="-2.0824123"><ele>1018.0</ele><time>2026-03-22T13:42:14.134Z</time></trkpt><trkpt lat="39.9684578" lon="-2.0823715"><ele>1018.2</ele><time>2026-03-22T13:42:15.129Z</time></trkpt><trkpt lat="39.9683746" lon="-2.08232"><ele>1018.4</ele><time>2026-03-22T13:42:16.149Z</time></trkpt><trkpt lat="39.9682862" lon="-2.0822576"><ele>1018.6000000000001</ele><time>2026-03-22T13:42:17.136Z</time></trkpt><trkpt lat="39.9682122" lon="-2.082163"><ele>1018.8000000000001</ele><time>2026-03-22T13:42:18.145Z</time></trkpt><trkpt lat="39.9681439" lon="-2.0820634"><ele>1019.0</ele><time>2026-03-22T13:42:19.147Z</time></trkpt><trkpt lat="39.9680757" lon="-2.0819578"><ele>1019.0</ele><time>2026-03-22T13:42:20.132Z</time></trkpt><trkpt lat="39.9680097" lon="-2.0818565"><ele>1019.0000000000001</ele><time>2026-03-22T13:42:21.124Z</time></trkpt><trkpt lat="39.9679423" lon="-2.0817685"><ele>1019.0000000000001</ele><time>2026-03-22T13:42:22.146Z</time></trkpt><trkpt lat="39.9678776" lon="-2.0816852"><ele>1019.0</ele><time>2026-03-22T13:42:23.126Z</time></trkpt><trkpt lat="39.9678065" lon="-2.0815847"><ele>1019.0</ele><time>2026-03-22T13:42:24.168Z</time></trkpt><trkpt lat="39.9677435" lon="-2.0814692"><ele>1020.4000000000001</ele><time>2026-03-22T13:42:25.128Z</time></trkpt><trkpt lat="39.9676947" lon="-2.081351"><ele>1021.8000000000001</ele><time>2026-03-22T13:42:26.162Z</time></trkpt><trkpt lat="39.9676465" lon="-2.0812182"><ele>1023.1999999999999</ele><time>2026-03-22T13:42:27.146Z</time></trkpt><trkpt lat="39.9676059" lon="-2.0810832"><ele>1024.6</ele><time>2026-03-22T13:42:28.131Z</time></trkpt><trkpt lat="39.9675772" lon="-2.0809493"><ele>1026.0</ele><time>2026-03-22T13:42:29.169Z</time></trkpt><trkpt lat="39.9675517" lon="-2.0808254"><ele>1027.8</ele><time>2026-03-22T13:42:30.171Z</time></trkpt><trkpt lat="39.9675233" lon="-2.0807041"><ele>1029.6</ele><time>2026-03-22T13:42:31.176Z</time></trkpt><trkpt lat="39.9674975" lon="-2.0805893"><ele>1031.4</ele><time>2026-03-22T13:42:32.145Z</time></trkpt><trkpt lat="39.9674613" lon="-2.0804727"><ele>1033.2</ele><time>2026-03-22T13:42:33.15Z</time></trkpt><trkpt lat="39.9674069" lon="-2.0803714"><ele>1035.0</ele><time>2026-03-22T13:42:34.163Z</time></trkpt><trkpt lat="39.9673477" lon="-2.0802738"><ele>1035.0</ele><time>2026-03-22T13:42:35.134Z</time></trkpt><trkpt lat="39.9672947" lon="-2.0801909"><ele>1035.0</ele><time>2026-03-22T13:42:36.178Z</time></trkpt><trkpt lat="39.96724" lon="-2.0801262"><ele>1035.0</ele><time>2026-03-22T13:42:37.173Z</time></trkpt><trkpt lat="39.9671746" lon="-2.0800622"><ele>1035.0</ele><time>2026-03-22T13:42:38.156Z</time></trkpt><trkpt lat="39.9671176" lon="-2.0799816"><ele>1035.0</ele><time>2026-03-22T13:42:39.183Z</time></trkpt><trkpt lat="39.9670626" lon="-2.0799003"><ele>1035.0</ele><time>2026-03-22T13:42:40.156Z</time></trkpt><trkpt lat="39.9670067" lon="-2.0798248"><ele>1035.8</ele><time>2026-03-22T13:42:41.143Z</time></trkpt><trkpt lat="39.9669524" lon="-2.0797454"><ele>1036.6</ele><time>2026-03-22T13:42:42.197Z</time></trkpt><trkpt lat="39.9668988" lon="-2.0796592"><ele>1037.4</ele><time>2026-03-22T13:42:43.171Z</time></trkpt><trkpt lat="39.9668414" lon="-2.0795636"><ele>1038.2</ele><time>2026-03-22T13:42:44.147Z</time></trkpt><trkpt lat="39.9667891" lon="-2.0794637"><ele>1039.0</ele><time>2026-03-22T13:42:45.182Z</time></trkpt><trkpt lat="39.9667355" lon="-2.0793555"><ele>1038.8333333333333</ele><time>2026-03-22T13:42:46.175Z</time></trkpt><trkpt lat="39.9666837" lon="-2.0792538"><ele>1038.6666666666665</ele><time>2026-03-22T13:42:47.153Z</time></trkpt><trkpt lat="39.966636" lon="-2.0791644"><ele>1038.5</ele><time>2026-03-22T13:42:48.146Z</time></trkpt><trkpt lat="39.9665849" lon="-2.0790699"><ele>1038.3333333333333</ele><time>2026-03-22T13:42:49.158Z</time></trkpt><trkpt lat="39.966535" lon="-2.0789812"><ele>1038.1666666666667</ele><time>2026-03-22T13:42:50.145Z</time></trkpt><trkpt lat="39.9664856" lon="-2.0788841"><ele>1038.0</ele><time>2026-03-22T13:42:51.16Z</time></trkpt><trkpt lat="39.9664368" lon="-2.0787878"><ele>1036.8333333333333</ele><time>2026-03-22T13:42:52.176Z</time></trkpt><trkpt lat="39.9663901" lon="-2.0786963"><ele>1035.6666666666667</ele><time>2026-03-22T13:42:53.175Z</time></trkpt><trkpt lat="39.9663451" lon="-2.0786124"><ele>1034.5</ele><time>2026-03-22T13:42:54.16Z</time></trkpt><trkpt lat="39.9663024" lon="-2.0785316"><ele>1033.3333333333335</ele><time>2026-03-22T13:42:55.209Z</time></trkpt><trkpt lat="39.9662428" lon="-2.0784347"><ele>1032.1666666666667</ele><time>2026-03-22T13:42:56.158Z</time></trkpt><trkpt lat="39.9661939" lon="-2.0783579"><ele>1031.0</ele><time>2026-03-22T13:42:57.138Z</time></trkpt><trkpt lat="39.9661437" lon="-2.0782794"><ele>1031.0</ele><time>2026-03-22T13:42:59.159Z</time></trkpt><trkpt lat="39.9662645" lon="-2.0783047"><ele>1031.0</ele><time>2026-03-22T13:43:06.185Z</time></trkpt><trkpt lat="39.9663777" lon="-2.0783541"><ele>1031.0</ele><time>2026-03-22T13:43:07.159Z</time></trkpt><trkpt lat="39.9664847" lon="-2.0783928"><ele>1031.0</ele><time>2026-03-22T13:43:08.172Z</time></trkpt><trkpt lat="39.9666006" lon="-2.0784097"><ele>1030.3999999999999</ele><time>2026-03-22T13:43:09.14Z</time></trkpt><trkpt lat="39.9667184" lon="-2.0784195"><ele>1029.8</ele><time>2026-03-22T13:43:10.157Z</time></trkpt><trkpt lat="39.96683" lon="-2.0784315"><ele>1029.1999999999998</ele><time>2026-03-22T13:43:11.15Z</time></trkpt><trkpt lat="39.9669296" lon="-2.0784389"><ele>1028.6</ele><time>2026-03-22T13:43:12.182Z</time></trkpt><trkpt lat="39.9670081" lon="-2.0784422"><ele>1028.0</ele><time>2026-03-22T13:43:13.129Z</time></trkpt><trkpt lat="39.9670727" lon="-2.0784227"><ele>1028.0</ele><time>2026-03-22T13:43:14.132Z</time></trkpt><trkpt lat="39.9671306" lon="-2.0783659"><ele>1028.0</ele><time>2026-03-22T13:43:15.129Z</time></trkpt><trkpt lat="39.9671965" lon="-2.0783113"><ele>1028.0</ele><time>2026-03-22T13:43:16.166Z</time></trkpt><trkpt lat="39.9672783" lon="-2.0782676"><ele>1028.0</ele><time>2026-03-22T13:43:17.139Z</time></trkpt><trkpt lat="39.9673641" lon="-2.0782286"><ele>1028.0</ele><time>2026-03-22T13:43:18.13Z</time></trkpt><trkpt lat="39.9674435" lon="-2.0781948"><ele>1028.0</ele><time>2026-03-22T13:43:19.145Z</time></trkpt><trkpt lat="39.9675219" lon="-2.0781888"><ele>1026.5</ele><time>2026-03-22T13:43:20.133Z</time></trkpt><trkpt lat="39.9676156" lon="-2.0781707"><ele>1025.0</ele><time>2026-03-22T13:43:21.142Z</time></trkpt><trkpt lat="39.9677051" lon="-2.0781441"><ele>1023.5</ele><time>2026-03-22T13:43:22.14Z</time></trkpt><trkpt lat="39.9677697" lon="-2.0781073"><ele>1022.0</ele><time>2026-03-22T13:43:23.141Z</time></trkpt><trkpt lat="39.9678318" lon="-2.0780786"><ele>1020.5000000000001</ele><time>2026-03-22T13:43:24.135Z</time></trkpt><trkpt lat="39.9678967" lon="-2.0780523"><ele>1019.0</ele><time>2026-03-22T13:43:25.135Z</time></trkpt><trkpt lat="39.9679728" lon="-2.0780154"><ele>1019.0000000000001</ele><time>2026-03-22T13:43:26.132Z</time></trkpt><trkpt lat="39.9680506" lon="-2.0779685"><ele>1019.0</ele><time>2026-03-22T13:43:27.138Z</time></trkpt><trkpt lat="39.9681276" lon="-2.0779204"><ele>1019.0</ele><time>2026-03-22T13:43:28.133Z</time></trkpt><trkpt lat="39.9682028" lon="-2.0778889"><ele>1019.0</ele><time>2026-03-22T13:43:29.127Z</time></trkpt><trkpt lat="39.9682693" lon="-2.0778677"><ele>1019.0000000000001</ele><time>2026-03-22T13:43:30.129Z</time></trkpt><trkpt lat="39.9683703" lon="-2.0778098"><ele>1019.0</ele><time>2026-03-22T13:43:32.143Z</time></trkpt><trkpt lat="39.9684333" lon="-2.0776785"><ele>1018.5000000000001</ele><time>2026-03-22T13:43:34.13Z</time></trkpt><trkpt lat="39.9684601" lon="-2.0776021"><ele>1018.0</ele><time>2026-03-22T13:43:35.135Z</time></trkpt><trkpt lat="39.9684935" lon="-2.0775027"><ele>1017.5</ele><time>2026-03-22T13:43:37.155Z</time></trkpt><trkpt lat="39.9684706" lon="-2.0773595"><ele>1017.0</ele><time>2026-03-22T13:43:39.141Z</time></trkpt><trkpt lat="39.9684487" lon="-2.0772628"><ele>1016.5000000000001</ele><time>2026-03-22T13:43:40.17Z</time></trkpt><trkpt lat="39.9684232" lon="-2.0771644"><ele>1016.0</ele><time>2026-03-22T13:43:41.159Z</time></trkpt><trkpt lat="39.9684049" lon="-2.0770549"><ele>1016.0</ele><time>2026-03-22T13:43:42.141Z</time></trkpt><trkpt lat="39.9683855" lon="-2.0769348"><ele>1015.9999999999999</ele><time>2026-03-22T13:43:43.129Z</time></trkpt><trkpt lat="39.9683446" lon="-2.0768078"><ele>1015.9999999999999</ele><time>2026-03-22T13:43:44.142Z</time></trkpt><trkpt lat="39.9683233" lon="-2.0766644"><ele>1016.0</ele><time>2026-03-22T13:43:45.151Z</time></trkpt><trkpt lat="39.9683023" lon="-2.0765146"><ele>1016.0</ele><time>2026-03-22T13:43:46.153Z</time></trkpt><trkpt lat="39.9682829" lon="-2.0763807"><ele>1017.1999999999999</ele><time>2026-03-22T13:43:47.138Z</time></trkpt><trkpt lat="39.9682639" lon="-2.0762556"><ele>1018.3999999999999</ele><time>2026-03-22T13:43:48.169Z</time></trkpt><trkpt lat="39.9682567" lon="-2.0761377"><ele>1019.6</ele><time>2026-03-22T13:43:49.145Z</time></trkpt><trkpt lat="39.9682626" lon="-2.0760277"><ele>1020.8</ele><time>2026-03-22T13:43:50.135Z</time></trkpt><trkpt lat="39.9682709" lon="-2.0759081"><ele>1022.0</ele><time>2026-03-22T13:43:51.146Z</time></trkpt><trkpt lat="39.9682736" lon="-2.0757789"><ele>1022.2</ele><time>2026-03-22T13:43:52.148Z</time></trkpt><trkpt lat="39.9682675" lon="-2.0756395"><ele>1022.4000000000001</ele><time>2026-03-22T13:43:53.145Z</time></trkpt><trkpt lat="39.9682697" lon="-2.0754896"><ele>1022.5999999999999</ele><time>2026-03-22T13:43:54.16Z</time></trkpt><trkpt lat="39.9682705" lon="-2.0753431"><ele>1022.8</ele><time>2026-03-22T13:43:55.18Z</time></trkpt><trkpt lat="39.9682708" lon="-2.0751974"><ele>1023.0</ele><time>2026-03-22T13:43:56.162Z</time></trkpt><trkpt lat="39.9682749" lon="-2.0750689"><ele>1023.0</ele><time>2026-03-22T13:43:57.16Z</time></trkpt><trkpt lat="39.9682808" lon="-2.0749557"><ele>1023.0</ele><time>2026-03-22T13:43:58.152Z</time></trkpt><trkpt lat="39.9682851" lon="-2.0748539"><ele>1023.0</ele><time>2026-03-22T13:43:59.151Z</time></trkpt><trkpt lat="39.9682965" lon="-2.0747558"><ele>1023.0</ele><time>2026-03-22T13:44:00.177Z</time></trkpt><trkpt lat="39.9683028" lon="-2.0746647"><ele>1023.0</ele><time>2026-03-22T13:44:01.147Z</time></trkpt><trkpt lat="39.9683082" lon="-2.0745291"><ele>1023.0</ele><time>2026-03-22T13:44:03.165Z</time></trkpt><trkpt lat="39.9683196" lon="-2.0744444"><ele>1023.3333333333334</ele><time>2026-03-22T13:44:06.168Z</time></trkpt><trkpt lat="39.9683396" lon="-2.0743469"><ele>1023.6666666666667</ele><time>2026-03-22T13:44:09.161Z</time></trkpt><trkpt lat="39.9683355" lon="-2.07425"><ele>1024.0</ele><time>2026-03-22T13:44:11.2Z</time></trkpt><trkpt lat="39.9682834" lon="-2.0741228"><ele>1024.3333333333335</ele><time>2026-03-22T13:44:13.152Z</time></trkpt><trkpt lat="39.9682418" lon="-2.0740569"><ele>1024.6666666666667</ele><time>2026-03-22T13:44:14.142Z</time></trkpt><trkpt lat="39.9681932" lon="-2.0739985"><ele>1025.0</ele><time>2026-03-22T13:44:15.154Z</time></trkpt><trkpt lat="39.9681384" lon="-2.0739569"><ele>1025.4</ele><time>2026-03-22T13:44:16.175Z</time></trkpt><trkpt lat="39.9680645" lon="-2.0738867"><ele>1025.8</ele><time>2026-03-22T13:44:18.145Z</time></trkpt><trkpt lat="39.9680296" lon="-2.0737932"><ele>1026.2</ele><time>2026-03-22T13:44:21.121Z</time></trkpt><trkpt lat="39.9681318" lon="-2.0736738"><ele>1026.6</ele><time>2026-03-22T13:44:23.14Z</time></trkpt><trkpt lat="39.9681968" lon="-2.0736016"><ele>1027.0</ele><time>2026-03-22T13:44:24.137Z</time></trkpt><trkpt lat="39.9682556" lon="-2.0735144"><ele>1027.0</ele><time>2026-03-22T13:44:25.139Z</time></trkpt><trkpt lat="39.9683279" lon="-2.0733954"><ele>1027.0</ele><time>2026-03-22T13:44:26.142Z</time></trkpt><trkpt lat="39.968397" lon="-2.0732621"><ele>1027.0</ele><time>2026-03-22T13:44:27.136Z</time></trkpt><trkpt lat="39.9684659" lon="-2.0731252"><ele>1027.0</ele><time>2026-03-22T13:44:28.163Z</time></trkpt><trkpt lat="39.968535" lon="-2.0729702"><ele>1028.0</ele><time>2026-03-22T13:44:29.161Z</time></trkpt><trkpt lat="39.9685958" lon="-2.0728049"><ele>1029.0</ele><time>2026-03-22T13:44:30.17Z</time></trkpt><trkpt lat="39.9686527" lon="-2.0726226"><ele>1030.0</ele><time>2026-03-22T13:44:31.138Z</time></trkpt><trkpt lat="39.9687102" lon="-2.0724352"><ele>1031.0</ele><time>2026-03-22T13:44:32.144Z</time></trkpt><trkpt lat="39.9687681" lon="-2.0722475"><ele>1032.25</ele><time>2026-03-22T13:44:33.179Z</time></trkpt><trkpt lat="39.9688221" lon="-2.0720636"><ele>1033.5</ele><time>2026-03-22T13:44:34.171Z</time></trkpt><trkpt lat="39.9688734" lon="-2.0718917"><ele>1034.75</ele><time>2026-03-22T13:44:35.172Z</time></trkpt><trkpt lat="39.9689227" lon="-2.0717224"><ele>1036.0</ele><time>2026-03-22T13:44:36.136Z</time></trkpt><trkpt lat="39.9689738" lon="-2.0715535"><ele>1036.25</ele><time>2026-03-22T13:44:37.159Z</time></trkpt><trkpt lat="39.9690057" lon="-2.0713866"><ele>1036.5</ele><time>2026-03-22T13:44:38.191Z</time></trkpt><trkpt lat="39.9690287" lon="-2.0712207"><ele>1036.75</ele><time>2026-03-22T13:44:39.174Z</time></trkpt><trkpt lat="39.9690479" lon="-2.0710582"><ele>1037.0</ele><time>2026-03-22T13:44:40.192Z</time></trkpt><trkpt lat="39.9690471" lon="-2.0708974"><ele>1036.0</ele><time>2026-03-22T13:44:41.137Z</time></trkpt><trkpt lat="39.9690482" lon="-2.0707363"><ele>1035.0</ele><time>2026-03-22T13:44:42.175Z</time></trkpt><trkpt lat="39.9690526" lon="-2.0705912"><ele>1034.0</ele><time>2026-03-22T13:44:43.158Z</time></trkpt><trkpt lat="39.9690407" lon="-2.0704792"><ele>1033.0</ele><time>2026-03-22T13:44:44.156Z</time></trkpt><trkpt lat="39.9690264" lon="-2.070373"><ele>1032.0</ele><time>2026-03-22T13:44:45.16Z</time></trkpt><trkpt lat="39.9690012" lon="-2.0702685"><ele>1032.0</ele><time>2026-03-22T13:44:46.163Z</time></trkpt><trkpt lat="39.9689642" lon="-2.0701686"><ele>1032.0</ele><time>2026-03-22T13:44:47.149Z</time></trkpt><trkpt lat="39.9689235" lon="-2.0700649"><ele>1032.0</ele><time>2026-03-22T13:44:48.139Z</time></trkpt><trkpt lat="39.9688868" lon="-2.0699744"><ele>1032.0</ele><time>2026-03-22T13:44:49.153Z</time></trkpt><trkpt lat="39.968852" lon="-2.0698934"><ele>1032.0</ele><time>2026-03-22T13:44:50.147Z</time></trkpt><trkpt lat="39.9688127" lon="-2.069754"><ele>1032.0</ele><time>2026-03-22T13:44:52.136Z</time></trkpt><trkpt lat="39.9688014" lon="-2.069587"><ele>1032.4</ele><time>2026-03-22T13:44:54.155Z</time></trkpt><trkpt lat="39.9687895" lon="-2.0694693"><ele>1032.8000000000002</ele><time>2026-03-22T13:44:55.149Z</time></trkpt><trkpt lat="39.9687653" lon="-2.0693306"><ele>1033.2</ele><time>2026-03-22T13:44:56.135Z</time></trkpt><trkpt lat="39.9687221" lon="-2.0691976"><ele>1033.6000000000001</ele><time>2026-03-22T13:44:57.139Z</time></trkpt><trkpt lat="39.9686835" lon="-2.0690627"><ele>1034.0</ele><time>2026-03-22T13:44:58.164Z</time></trkpt><trkpt lat="39.9686517" lon="-2.0689315"><ele>1035.25</ele><time>2026-03-22T13:44:59.124Z</time></trkpt><trkpt lat="39.9686225" lon="-2.0687964"><ele>1036.5</ele><time>2026-03-22T13:45:00.164Z</time></trkpt><trkpt lat="39.968605" lon="-2.0686483"><ele>1037.75</ele><time>2026-03-22T13:45:01.226Z</time></trkpt><trkpt lat="39.968621" lon="-2.0684793"><ele>1039.0</ele><time>2026-03-22T13:45:02.162Z</time></trkpt><trkpt lat="39.9686603" lon="-2.0683126"><ele>1039.0</ele><time>2026-03-22T13:45:03.168Z</time></trkpt><trkpt lat="39.9687153" lon="-2.0681571"><ele>1039.0</ele><time>2026-03-22T13:45:04.137Z</time></trkpt><trkpt lat="39.9687666" lon="-2.0680108"><ele>1039.0</ele><time>2026-03-22T13:45:05.133Z</time></trkpt><trkpt lat="39.9687962" lon="-2.0678653"><ele>1039.0</ele><time>2026-03-22T13:45:06.171Z</time></trkpt><trkpt lat="39.9688157" lon="-2.0676968"><ele>1039.0</ele><time>2026-03-22T13:45:07.158Z</time></trkpt><trkpt lat="39.9688311" lon="-2.0675103"><ele>1039.0</ele><time>2026-03-22T13:45:08.153Z</time></trkpt><trkpt lat="39.9688441" lon="-2.0673204"><ele>1039.0</ele><time>2026-03-22T13:45:09.139Z</time></trkpt><trkpt lat="39.9688811" lon="-2.0671429"><ele>1039.0</ele><time>2026-03-22T13:45:10.16Z</time></trkpt><trkpt lat="39.9689099" lon="-2.0669749"><ele>1039.25</ele><time>2026-03-22T13:45:11.163Z</time></trkpt><trkpt lat="39.9689265" lon="-2.0667947"><ele>1039.5</ele><time>2026-03-22T13:45:12.16Z</time></trkpt><trkpt lat="39.9689584" lon="-2.0665956"><ele>1039.75</ele><time>2026-03-22T13:45:13.173Z</time></trkpt><trkpt lat="39.9689948" lon="-2.0664057"><ele>1040.0</ele><time>2026-03-22T13:45:14.16Z</time></trkpt><trkpt lat="39.9690287" lon="-2.0662157"><ele>1040.0</ele><time>2026-03-22T13:45:15.162Z</time></trkpt><trkpt lat="39.9690617" lon="-2.0660394"><ele>1040.0</ele><time>2026-03-22T13:45:16.138Z</time></trkpt><trkpt lat="39.9690889" lon="-2.0658905"><ele>1040.0</ele><time>2026-03-22T13:45:17.168Z</time></trkpt><trkpt lat="39.9691067" lon="-2.0657424"><ele>1040.0</ele><time>2026-03-22T13:45:18.162Z</time></trkpt><trkpt lat="39.9691006" lon="-2.0655896"><ele>1040.0</ele><time>2026-03-22T13:45:19.137Z</time></trkpt><trkpt lat="39.9690912" lon="-2.0654299"><ele>1040.0</ele><time>2026-03-22T13:45:20.171Z</time></trkpt><trkpt lat="39.9690868" lon="-2.065285"><ele>1040.0</ele><time>2026-03-22T13:45:21.184Z</time></trkpt><trkpt lat="39.9690822" lon="-2.0651562"><ele>1040.0</ele><time>2026-03-22T13:45:22.135Z</time></trkpt><trkpt lat="39.9690746" lon="-2.0650407"><ele>1040.0</ele><time>2026-03-22T13:45:23.167Z</time></trkpt><trkpt lat="39.9690723" lon="-2.0649569"><ele>1040.2</ele><time>2026-03-22T13:45:24.165Z</time></trkpt><trkpt lat="39.9690675" lon="-2.0648458"><ele>1040.4</ele><time>2026-03-22T13:45:26.155Z</time></trkpt><trkpt lat="39.9690739" lon="-2.0647567"><ele>1040.6</ele><time>2026-03-22T13:45:28.159Z</time></trkpt><trkpt lat="39.9691026" lon="-2.0646594"><ele>1040.8</ele><time>2026-03-22T13:45:30.159Z</time></trkpt><trkpt lat="39.9691443" lon="-2.064545"><ele>1041.0</ele><time>2026-03-22T13:45:32.134Z</time></trkpt><trkpt lat="39.9692138" lon="-2.0644035"><ele>1040.8</ele><time>2026-03-22T13:45:34.167Z</time></trkpt><trkpt lat="39.9692582" lon="-2.0642912"><ele>1040.6</ele><time>2026-03-22T13:45:35.123Z</time></trkpt><trkpt lat="39.969304" lon="-2.0641681"><ele>1040.4</ele><time>2026-03-22T13:45:36.158Z</time></trkpt><trkpt lat="39.9693433" lon="-2.0640569"><ele>1040.2</ele><time>2026-03-22T13:45:37.164Z</time></trkpt><trkpt lat="39.9693806" lon="-2.0639544"><ele>1040.0</ele><time>2026-03-22T13:45:38.144Z</time></trkpt><trkpt lat="39.9694111" lon="-2.0638605"><ele>1040.0</ele><time>2026-03-22T13:45:39.147Z</time></trkpt><trkpt lat="39.9694389" lon="-2.0637731"><ele>1040.0</ele><time>2026-03-22T13:45:40.129Z</time></trkpt><trkpt lat="39.969469" lon="-2.0636919"><ele>1040.0</ele><time>2026-03-22T13:45:41.148Z</time></trkpt><trkpt lat="39.9694974" lon="-2.0636142"><ele>1040.0</ele><time>2026-03-22T13:45:42.186Z</time></trkpt><trkpt lat="39.9695546" lon="-2.0634663"><ele>1040.0</ele><time>2026-03-22T13:45:44.161Z</time></trkpt><trkpt lat="39.9695849" lon="-2.063391"><ele>1040.0</ele><time>2026-03-22T13:45:45.147Z</time></trkpt><trkpt lat="39.9696371" lon="-2.0632644"><ele>1040.8333333333335</ele><time>2026-03-22T13:45:47.136Z</time></trkpt><trkpt lat="39.9696892" lon="-2.0631643"><ele>1041.6666666666667</ele><time>2026-03-22T13:45:49.139Z</time></trkpt><trkpt lat="39.9697441" lon="-2.0630729"><ele>1042.5</ele><time>2026-03-22T13:45:51.167Z</time></trkpt><trkpt lat="39.9698323" lon="-2.0630279"><ele>1043.3333333333333</ele><time>2026-03-22T13:45:54.166Z</time></trkpt><trkpt lat="39.9699055" lon="-2.0630473"><ele>1044.1666666666665</ele><time>2026-03-22T13:45:57.189Z</time></trkpt><trkpt lat="39.9699607" lon="-2.0631098"><ele>1045.0</ele><time>2026-03-22T13:45:59.195Z</time></trkpt><trkpt lat="39.9700308" lon="-2.0631736"><ele>1045.2</ele><time>2026-03-22T13:46:01.139Z</time></trkpt><trkpt lat="39.9700856" lon="-2.0632549"><ele>1045.4</ele><time>2026-03-22T13:46:03.188Z</time></trkpt><trkpt lat="39.9701323" lon="-2.0633915"><ele>1045.6</ele><time>2026-03-22T13:46:05.164Z</time></trkpt><trkpt lat="39.9701812" lon="-2.0635521"><ele>1045.8</ele><time>2026-03-22T13:46:07.162Z</time></trkpt><trkpt lat="39.9702477" lon="-2.0636327"><ele>1046.0</ele><time>2026-03-22T13:46:08.164Z</time></trkpt><trkpt lat="39.9703441" lon="-2.0637008"><ele>1045.0</ele><time>2026-03-22T13:46:09.157Z</time></trkpt><trkpt lat="39.9704489" lon="-2.0637588"><ele>1044.0</ele><time>2026-03-22T13:46:10.142Z</time></trkpt><trkpt lat="39.9705403" lon="-2.0637997"><ele>1043.0</ele><time>2026-03-22T13:46:11.143Z</time></trkpt><trkpt lat="39.9706195" lon="-2.0638553"><ele>1042.0</ele><time>2026-03-22T13:46:12.126Z</time></trkpt><trkpt lat="39.9707008" lon="-2.0639197"><ele>1041.0</ele><time>2026-03-22T13:46:13.151Z</time></trkpt><trkpt lat="39.9707785" lon="-2.0639861"><ele>1041.0</ele><time>2026-03-22T13:46:14.165Z</time></trkpt><trkpt lat="39.9708572" lon="-2.0640538"><ele>1041.0</ele><time>2026-03-22T13:46:15.147Z</time></trkpt><trkpt lat="39.970936" lon="-2.0641328"><ele>1041.0</ele><time>2026-03-22T13:46:16.144Z</time></trkpt><trkpt lat="39.9710105" lon="-2.0642199"><ele>1041.0</ele><time>2026-03-22T13:46:17.162Z</time></trkpt><trkpt lat="39.9710861" lon="-2.064304"><ele>1041.0</ele><time>2026-03-22T13:46:18.156Z</time></trkpt><trkpt lat="39.9711635" lon="-2.0643836"><ele>1040.4285714285716</ele><time>2026-03-22T13:46:19.127Z</time></trkpt><trkpt lat="39.9712332" lon="-2.0644263"><ele>1039.857142857143</ele><time>2026-03-22T13:46:20.165Z</time></trkpt><trkpt lat="39.9713035" lon="-2.06444"><ele>1039.2857142857142</ele><time>2026-03-22T13:46:21.156Z</time></trkpt><trkpt lat="39.9713772" lon="-2.0644482"><ele>1038.7142857142858</ele><time>2026-03-22T13:46:22.138Z</time></trkpt><trkpt lat="39.9714478" lon="-2.064458"><ele>1038.142857142857</ele><time>2026-03-22T13:46:23.132Z</time></trkpt><trkpt lat="39.971517" lon="-2.0644827"><ele>1037.5714285714287</ele><time>2026-03-22T13:46:24.149Z</time></trkpt><trkpt lat="39.971586" lon="-2.0645125"><ele>1037.0</ele><time>2026-03-22T13:46:25.157Z</time></trkpt><trkpt lat="39.971652" lon="-2.0645604"><ele>1037.1666666666667</ele><time>2026-03-22T13:46:26.148Z</time></trkpt><trkpt lat="39.9717344" lon="-2.0645834"><ele>1037.3333333333335</ele><time>2026-03-22T13:46:27.193Z</time></trkpt><trkpt lat="39.9718192" lon="-2.0645978"><ele>1037.5</ele><time>2026-03-22T13:46:28.153Z</time></trkpt><trkpt lat="39.9718965" lon="-2.0646265"><ele>1037.6666666666667</ele><time>2026-03-22T13:46:29.14Z</time></trkpt><trkpt lat="39.971976" lon="-2.0646615"><ele>1037.8333333333333</ele><time>2026-03-22T13:46:30.141Z</time></trkpt><trkpt lat="39.972057" lon="-2.0647154"><ele>1038.0</ele><time>2026-03-22T13:46:31.141Z</time></trkpt><trkpt lat="39.9721451" lon="-2.0647669"><ele>1038.0</ele><time>2026-03-22T13:46:32.143Z</time></trkpt><trkpt lat="39.9722416" lon="-2.0648069"><ele>1038.0</ele><time>2026-03-22T13:46:33.122Z</time></trkpt><trkpt lat="39.9723375" lon="-2.0648438"><ele>1038.0</ele><time>2026-03-22T13:46:34.171Z</time></trkpt><trkpt lat="39.9724309" lon="-2.0648825"><ele>1038.0</ele><time>2026-03-22T13:46:35.142Z</time></trkpt><trkpt lat="39.9725216" lon="-2.0649252"><ele>1038.0</ele><time>2026-03-22T13:46:36.16Z</time></trkpt><trkpt lat="39.9726091" lon="-2.0649679"><ele>1037.1666666666667</ele><time>2026-03-22T13:46:37.176Z</time></trkpt><trkpt lat="39.9726848" lon="-2.0650359"><ele>1036.3333333333333</ele><time>2026-03-22T13:46:38.13Z</time></trkpt><trkpt lat="39.9727526" lon="-2.0651164"><ele>1035.5</ele><time>2026-03-22T13:46:39.164Z</time></trkpt><trkpt lat="39.9728058" lon="-2.0652007"><ele>1034.6666666666665</ele><time>2026-03-22T13:46:40.141Z</time></trkpt><trkpt lat="39.9728514" lon="-2.0652822"><ele>1033.8333333333333</ele><time>2026-03-22T13:46:41.156Z</time></trkpt><trkpt lat="39.9728978" lon="-2.0653516"><ele>1033.0</ele><time>2026-03-22T13:46:42.135Z</time></trkpt><trkpt lat="39.9729477" lon="-2.0654182"><ele>1033.0</ele><time>2026-03-22T13:46:43.149Z</time></trkpt><trkpt lat="39.9730071" lon="-2.0654694"><ele>1033.0</ele><time>2026-03-22T13:46:44.144Z</time></trkpt><trkpt lat="39.9730715" lon="-2.0655297"><ele>1033.0</ele><time>2026-03-22T13:46:45.141Z</time></trkpt><trkpt lat="39.9731306" lon="-2.0656032"><ele>1033.0</ele><time>2026-03-22T13:46:46.128Z</time></trkpt><trkpt lat="39.9731838" lon="-2.0656857"><ele>1033.0</ele><time>2026-03-22T13:46:47.166Z</time></trkpt><trkpt lat="39.9732443" lon="-2.065761"><ele>1033.0</ele><time>2026-03-22T13:46:48.13Z</time></trkpt><trkpt lat="39.9733164" lon="-2.0658238"><ele>1032.1666666666665</ele><time>2026-03-22T13:46:49.184Z</time></trkpt><trkpt lat="39.973392" lon="-2.0658843"><ele>1031.3333333333333</ele><time>2026-03-22T13:46:50.161Z</time></trkpt><trkpt lat="39.9734671" lon="-2.0659375"><ele>1030.5</ele><time>2026-03-22T13:46:51.166Z</time></trkpt><trkpt lat="39.9735425" lon="-2.0659881"><ele>1029.6666666666667</ele><time>2026-03-22T13:46:52.138Z</time></trkpt><trkpt lat="39.9736176" lon="-2.0660457"><ele>1028.8333333333335</ele><time>2026-03-22T13:46:53.144Z</time></trkpt><trkpt lat="39.973698" lon="-2.0661036"><ele>1028.0</ele><time>2026-03-22T13:46:54.15Z</time></trkpt><trkpt lat="39.9737891" lon="-2.0661458"><ele>1028.0</ele><time>2026-03-22T13:46:55.142Z</time></trkpt><trkpt lat="39.9738867" lon="-2.0661718"><ele>1028.0</ele><time>2026-03-22T13:46:56.139Z</time></trkpt><trkpt lat="39.9739813" lon="-2.066217"><ele>1028.0</ele><time>2026-03-22T13:46:57.136Z</time></trkpt><trkpt lat="39.9740662" lon="-2.066267"><ele>1028.0</ele><time>2026-03-22T13:46:58.17Z</time></trkpt><trkpt lat="39.9741455" lon="-2.0663238"><ele>1028.0</ele><time>2026-03-22T13:46:59.142Z</time></trkpt><trkpt lat="39.974224" lon="-2.0663962"><ele>1027.6</ele><time>2026-03-22T13:47:00.157Z</time></trkpt><trkpt lat="39.9743108" lon="-2.0664772"><ele>1027.1999999999998</ele><time>2026-03-22T13:47:01.156Z</time></trkpt><trkpt lat="39.9744038" lon="-2.0665453"><ele>1026.8</ele><time>2026-03-22T13:47:02.159Z</time></trkpt><trkpt lat="39.9744855" lon="-2.066617"><ele>1026.3999999999999</ele><time>2026-03-22T13:47:03.164Z</time></trkpt><trkpt lat="39.9745757" lon="-2.0666808"><ele>1026.0</ele><time>2026-03-22T13:47:04.138Z</time></trkpt><trkpt lat="39.974661" lon="-2.0667423"><ele>1025.3333333333333</ele><time>2026-03-22T13:47:05.165Z</time></trkpt><trkpt lat="39.9747427" lon="-2.0667992"><ele>1024.6666666666667</ele><time>2026-03-22T13:47:06.158Z</time></trkpt><trkpt lat="39.9748114" lon="-2.0668549"><ele>1024.0</ele><time>2026-03-22T13:47:07.143Z</time></trkpt><trkpt lat="39.9748673" lon="-2.0669274"><ele>1023.3333333333334</ele><time>2026-03-22T13:47:08.166Z</time></trkpt><trkpt lat="39.9749118" lon="-2.0669985"><ele>1022.6666666666667</ele><time>2026-03-22T13:47:09.162Z</time></trkpt><trkpt lat="39.9750066" lon="-2.0670508"><ele>1022.0</ele><time>2026-03-22T13:47:11.144Z</time></trkpt><trkpt lat="39.9750737" lon="-2.0670404"><ele>1022.0000000000001</ele><time>2026-03-22T13:47:12.14Z</time></trkpt><trkpt lat="39.9751462" lon="-2.067013"><ele>1022.0</ele><time>2026-03-22T13:47:13.178Z</time></trkpt><trkpt lat="39.9752267" lon="-2.0670143"><ele>1022.0</ele><time>2026-03-22T13:47:14.161Z</time></trkpt><trkpt lat="39.9753124" lon="-2.0670273"><ele>1022.0</ele><time>2026-03-22T13:47:15.149Z</time></trkpt><trkpt lat="39.9753962" lon="-2.0670708"><ele>1022.0000000000001</ele><time>2026-03-22T13:47:16.172Z</time></trkpt><trkpt lat="39.9754705" lon="-2.0671154"><ele>1022.0</ele><time>2026-03-22T13:47:17.145Z</time></trkpt><trkpt lat="39.9755414" lon="-2.0671418"><ele>1022.0000000000001</ele><time>2026-03-22T13:47:18.182Z</time></trkpt><trkpt lat="39.9756023" lon="-2.0671742"><ele>1022.0</ele><time>2026-03-22T13:47:19.15Z</time></trkpt><trkpt lat="39.9757134" lon="-2.0672364"><ele>1022.0</ele><time>2026-03-22T13:47:21.138Z</time></trkpt><trkpt lat="39.9757857" lon="-2.0672471"><ele>1022.0</ele><time>2026-03-22T13:47:22.136Z</time></trkpt><trkpt lat="39.9758681" lon="-2.0672497"><ele>1022.0000000000001</ele><time>2026-03-22T13:47:23.14Z</time></trkpt><trkpt lat="39.9759525" lon="-2.0672568"><ele>1022.0</ele><time>2026-03-22T13:47:24.148Z</time></trkpt><trkpt lat="39.9760322" lon="-2.0672481"><ele>1021.5000000000001</ele><time>2026-03-22T13:47:25.177Z</time></trkpt><trkpt lat="39.9761053" lon="-2.0672184"><ele>1021.0</ele><time>2026-03-22T13:47:26.146Z</time></trkpt><trkpt lat="39.9761708" lon="-2.0671802"><ele>1020.5</ele><time>2026-03-22T13:47:27.147Z</time></trkpt><trkpt lat="39.9762658" lon="-2.0671048"><ele>1020.0</ele><time>2026-03-22T13:47:29.141Z</time></trkpt><trkpt lat="39.9763301" lon="-2.0670994"><ele>1019.5000000000001</ele><time>2026-03-22T13:47:30.161Z</time></trkpt><trkpt lat="39.9763991" lon="-2.0670974"><ele>1019.0</ele><time>2026-03-22T13:47:31.124Z</time></trkpt><trkpt lat="39.9764812" lon="-2.0670917"><ele>1019.0000000000001</ele><time>2026-03-22T13:47:32.134Z</time></trkpt><trkpt lat="39.9765583" lon="-2.0670978"><ele>1019.0</ele><time>2026-03-22T13:47:33.151Z</time></trkpt><trkpt lat="39.9766332" lon="-2.0671219"><ele>1019.0</ele><time>2026-03-22T13:47:34.123Z</time></trkpt><trkpt lat="39.9767065" lon="-2.0671473"><ele>1019.0</ele><time>2026-03-22T13:47:35.137Z</time></trkpt><trkpt lat="39.9767831" lon="-2.0671793"><ele>1019.0000000000001</ele><time>2026-03-22T13:47:36.146Z</time></trkpt><trkpt lat="39.9768569" lon="-2.067217"><ele>1019.0</ele><time>2026-03-22T13:47:37.135Z</time></trkpt><trkpt lat="39.9769386" lon="-2.0672437"><ele>1017.1666666666667</ele><time>2026-03-22T13:47:38.144Z</time></trkpt><trkpt lat="39.977025" lon="-2.0672471"><ele>1015.3333333333334</ele><time>2026-03-22T13:47:39.144Z</time></trkpt><trkpt lat="39.9771152" lon="-2.0672458"><ele>1013.5</ele><time>2026-03-22T13:47:40.14Z</time></trkpt><trkpt lat="39.9772132" lon="-2.0672395"><ele>1011.6666666666667</ele><time>2026-03-22T13:47:41.144Z</time></trkpt><trkpt lat="39.9773057" lon="-2.067237"><ele>1009.8333333333334</ele><time>2026-03-22T13:47:42.155Z</time></trkpt><trkpt lat="39.9773847" lon="-2.0672358"><ele>1008.0</ele><time>2026-03-22T13:47:43.142Z</time></trkpt><trkpt lat="39.9774493" lon="-2.0672138"><ele>1008.0</ele><time>2026-03-22T13:47:44.159Z</time></trkpt><trkpt lat="39.9775489" lon="-2.0670988"><ele>1008.0</ele><time>2026-03-22T13:47:46.193Z</time></trkpt><trkpt lat="39.9775899" lon="-2.067022"><ele>1008.0</ele><time>2026-03-22T13:47:47.166Z</time></trkpt><trkpt lat="39.9776135" lon="-2.06684"><ele>1008.0</ele><time>2026-03-22T13:47:49.161Z</time></trkpt><trkpt lat="39.9776213" lon="-2.066723"><ele>1008.0</ele><time>2026-03-22T13:47:50.134Z</time></trkpt><trkpt lat="39.9776256" lon="-2.0665985"><ele>1008.0</ele><time>2026-03-22T13:47:51.152Z</time></trkpt><trkpt lat="39.9776085" lon="-2.0664923"><ele>1008.0</ele><time>2026-03-22T13:47:52.161Z</time></trkpt><trkpt lat="39.9775856" lon="-2.0663833"><ele>1008.0</ele><time>2026-03-22T13:47:53.155Z</time></trkpt><trkpt lat="39.9775682" lon="-2.0662596"><ele>1008.0</ele><time>2026-03-22T13:47:54.155Z</time></trkpt><trkpt lat="39.9775657" lon="-2.0661302"><ele>1008.0</ele><time>2026-03-22T13:47:55.166Z</time></trkpt><trkpt lat="39.977582" lon="-2.0659998"><ele>1008.0</ele><time>2026-03-22T13:47:56.148Z</time></trkpt><trkpt lat="39.9776064" lon="-2.0658686"><ele>1008.0</ele><time>2026-03-22T13:47:57.177Z</time></trkpt><trkpt lat="39.9776367" lon="-2.0657333"><ele>1008.0</ele><time>2026-03-22T13:47:58.166Z</time></trkpt><trkpt lat="39.9776654" lon="-2.0656082"><ele>1008.0</ele><time>2026-03-22T13:47:59.157Z</time></trkpt><trkpt lat="39.977686" lon="-2.0654999"><ele>1008.0</ele><time>2026-03-22T13:48:00.12Z</time></trkpt><trkpt lat="39.9776935" lon="-2.065381"><ele>1007.4</ele><time>2026-03-22T13:48:01.129Z</time></trkpt><trkpt lat="39.9776934" lon="-2.0652638"><ele>1006.8</ele><time>2026-03-22T13:48:02.116Z</time></trkpt><trkpt lat="39.9776901" lon="-2.065137"><ele>1006.2</ele><time>2026-03-22T13:48:03.201Z</time></trkpt><trkpt lat="39.977676" lon="-2.0650052"><ele>1005.6</ele><time>2026-03-22T13:48:04.16Z</time></trkpt><trkpt lat="39.9776497" lon="-2.0648883"><ele>1005.0</ele><time>2026-03-22T13:48:05.122Z</time></trkpt><trkpt lat="39.9776195" lon="-2.0647836"><ele>1004.8333333333334</ele><time>2026-03-22T13:48:06.169Z</time></trkpt><trkpt lat="39.9775887" lon="-2.0646909"><ele>1004.6666666666667</ele><time>2026-03-22T13:48:07.143Z</time></trkpt><trkpt lat="39.9775647" lon="-2.0646146"><ele>1004.5</ele><time>2026-03-22T13:48:08.145Z</time></trkpt><trkpt lat="39.9775537" lon="-2.0645273"><ele>1004.3333333333334</ele><time>2026-03-22T13:48:11.182Z</time></trkpt><trkpt lat="39.9776361" lon="-2.0645413"><ele>1004.1666666666667</ele><time>2026-03-22T13:48:13.164Z</time></trkpt><trkpt lat="39.9777125" lon="-2.0646062"><ele>1004.0</ele><time>2026-03-22T13:48:14.187Z</time></trkpt><trkpt lat="39.9778142" lon="-2.0646704"><ele>1004.0</ele><time>2026-03-22T13:48:15.136Z</time></trkpt><trkpt lat="39.9779189" lon="-2.0647445"><ele>1004.0</ele><time>2026-03-22T13:48:16.12Z</time></trkpt><trkpt lat="39.9780321" lon="-2.0648375"><ele>1004.0</ele><time>2026-03-22T13:48:17.15Z</time></trkpt><trkpt lat="39.9781519" lon="-2.064945"><ele>1004.0</ele><time>2026-03-22T13:48:18.138Z</time></trkpt><trkpt lat="39.9782741" lon="-2.0650611"><ele>1003.6666666666667</ele><time>2026-03-22T13:48:19.172Z</time></trkpt><trkpt lat="39.9783981" lon="-2.0651967"><ele>1003.3333333333333</ele><time>2026-03-22T13:48:20.134Z</time></trkpt><trkpt lat="39.9785234" lon="-2.0653444"><ele>1003.0</ele><time>2026-03-22T13:48:21.141Z</time></trkpt><trkpt lat="39.978649" lon="-2.0654912"><ele>1003.0</ele><time>2026-03-22T13:48:22.156Z</time></trkpt><trkpt lat="39.9787797" lon="-2.0656421"><ele>1003.0</ele><time>2026-03-22T13:48:23.166Z</time></trkpt><trkpt lat="39.9789193" lon="-2.0657881"><ele>1003.0</ele><time>2026-03-22T13:48:24.129Z</time></trkpt><trkpt lat="39.9790442" lon="-2.0659092"><ele>1003.0</ele><time>2026-03-22T13:48:25.175Z</time></trkpt><trkpt lat="39.9791638" lon="-2.0660301"><ele>1003.0</ele><time>2026-03-22T13:48:26.174Z</time></trkpt><trkpt lat="39.9792896" lon="-2.0661621"><ele>1003.0</ele><time>2026-03-22T13:48:27.132Z</time></trkpt><trkpt lat="39.9794188" lon="-2.0662866"><ele>1002.0</ele><time>2026-03-22T13:48:28.14Z</time></trkpt><trkpt lat="39.9795528" lon="-2.0664007"><ele>1001.0</ele><time>2026-03-22T13:48:29.167Z</time></trkpt><trkpt lat="39.9796809" lon="-2.0665127"><ele>1000.0</ele><time>2026-03-22T13:48:30.149Z</time></trkpt><trkpt lat="39.9798024" lon="-2.0666381"><ele>1000.0</ele><time>2026-03-22T13:48:31.171Z</time></trkpt><trkpt lat="39.9799324" lon="-2.0667744"><ele>1000.0</ele><time>2026-03-22T13:48:32.127Z</time></trkpt><trkpt lat="39.9800547" lon="-2.0669177"><ele>1000.0</ele><time>2026-03-22T13:48:33.158Z</time></trkpt><trkpt lat="39.9801818" lon="-2.0670664"><ele>999.0</ele><time>2026-03-22T13:48:34.145Z</time></trkpt><trkpt lat="39.9803129" lon="-2.0672209"><ele>998.0</ele><time>2026-03-22T13:48:35.145Z</time></trkpt><trkpt lat="39.9804452" lon="-2.0673827"><ele>997.0</ele><time>2026-03-22T13:48:36.144Z</time></trkpt><trkpt lat="39.9805796" lon="-2.0675471"><ele>997.0</ele><time>2026-03-22T13:48:37.148Z</time></trkpt><trkpt lat="39.9807112" lon="-2.0677054"><ele>997.0</ele><time>2026-03-22T13:48:38.167Z</time></trkpt><trkpt lat="39.9808468" lon="-2.0678608"><ele>997.0</ele><time>2026-03-22T13:48:39.141Z</time></trkpt><trkpt lat="39.9809813" lon="-2.0680172"><ele>997.0</ele><time>2026-03-22T13:48:40.153Z</time></trkpt><trkpt lat="39.9811086" lon="-2.0681713"><ele>997.0</ele><time>2026-03-22T13:48:41.134Z</time></trkpt><trkpt lat="39.9812339" lon="-2.0683234"><ele>997.0</ele><time>2026-03-22T13:48:42.159Z</time></trkpt><trkpt lat="39.9813574" lon="-2.0684703"><ele>997.0</ele><time>2026-03-22T13:48:43.133Z</time></trkpt><trkpt lat="39.9814809" lon="-2.0686124"><ele>997.0</ele><time>2026-03-22T13:48:44.158Z</time></trkpt><trkpt lat="39.9816085" lon="-2.0687407"><ele>997.0</ele><time>2026-03-22T13:48:45.153Z</time></trkpt><trkpt lat="39.9817355" lon="-2.068849"><ele>997.3333333333333</ele><time>2026-03-22T13:48:46.135Z</time></trkpt><trkpt lat="39.9818659" lon="-2.068948"><ele>997.6666666666667</ele><time>2026-03-22T13:48:47.149Z</time></trkpt><trkpt lat="39.981996" lon="-2.0690597"><ele>998.0</ele><time>2026-03-22T13:48:48.148Z</time></trkpt><trkpt lat="39.9821233" lon="-2.0691787"><ele>998.0</ele><time>2026-03-22T13:48:49.15Z</time></trkpt><trkpt lat="39.9822559" lon="-2.0692944"><ele>998.0</ele><time>2026-03-22T13:48:50.145Z</time></trkpt><trkpt lat="39.9824012" lon="-2.0694026"><ele>998.0</ele><time>2026-03-22T13:48:51.173Z</time></trkpt><trkpt lat="39.9825356" lon="-2.0694945"><ele>998.25</ele><time>2026-03-22T13:48:52.148Z</time></trkpt><trkpt lat="39.9826578" lon="-2.069594"><ele>998.5</ele><time>2026-03-22T13:48:53.135Z</time></trkpt><trkpt lat="39.9827715" lon="-2.0697187"><ele>998.75</ele><time>2026-03-22T13:48:54.148Z</time></trkpt><trkpt lat="39.9828735" lon="-2.0698608"><ele>999.0</ele><time>2026-03-22T13:48:55.164Z</time></trkpt><trkpt lat="39.9829582" lon="-2.070011"><ele>999.0</ele><time>2026-03-22T13:48:56.143Z</time></trkpt><trkpt lat="39.9830377" lon="-2.0701865"><ele>999.0</ele><time>2026-03-22T13:48:57.154Z</time></trkpt><trkpt lat="39.98309" lon="-2.0703499"><ele>999.0</ele><time>2026-03-22T13:48:58.164Z</time></trkpt><trkpt lat="39.9831343" lon="-2.0705156"><ele>999.0</ele><time>2026-03-22T13:48:59.137Z</time></trkpt><trkpt lat="39.9831803" lon="-2.0706925"><ele>998.4000000000001</ele><time>2026-03-22T13:49:00.16Z</time></trkpt><trkpt lat="39.9832125" lon="-2.0708547"><ele>997.8000000000001</ele><time>2026-03-22T13:49:01.183Z</time></trkpt><trkpt lat="39.9832306" lon="-2.0710034"><ele>997.1999999999999</ele><time>2026-03-22T13:49:02.13Z</time></trkpt><trkpt lat="39.9832371" lon="-2.0711393"><ele>996.5999999999999</ele><time>2026-03-22T13:49:03.156Z</time></trkpt><trkpt lat="39.9832356" lon="-2.0712612"><ele>996.0</ele><time>2026-03-22T13:49:04.148Z</time></trkpt><trkpt lat="39.9832527" lon="-2.0713859"><ele>996.0</ele><time>2026-03-22T13:49:05.155Z</time></trkpt><trkpt lat="39.983285" lon="-2.0715243"><ele>996.0</ele><time>2026-03-22T13:49:06.166Z</time></trkpt><trkpt lat="39.9833255" lon="-2.0716685"><ele>996.0</ele><time>2026-03-22T13:49:07.129Z</time></trkpt><trkpt lat="39.9833742" lon="-2.0718331"><ele>996.0</ele><time>2026-03-22T13:49:08.145Z</time></trkpt><trkpt lat="39.9834172" lon="-2.0719844"><ele>996.5</ele><time>2026-03-22T13:49:09.14Z</time></trkpt><trkpt lat="39.9834537" lon="-2.0721503"><ele>997.0</ele><time>2026-03-22T13:49:10.144Z</time></trkpt><trkpt lat="39.9834871" lon="-2.0723116"><ele>997.5</ele><time>2026-03-22T13:49:11.162Z</time></trkpt><trkpt lat="39.98351" lon="-2.0724642"><ele>998.0</ele><time>2026-03-22T13:49:12.155Z</time></trkpt><trkpt lat="39.9835344" lon="-2.07261"><ele>996.75</ele><time>2026-03-22T13:49:13.134Z</time></trkpt><trkpt lat="39.9835605" lon="-2.0727655"><ele>995.5</ele><time>2026-03-22T13:49:14.17Z</time></trkpt><trkpt lat="39.983595" lon="-2.07294"><ele>994.25</ele><time>2026-03-22T13:49:15.161Z</time></trkpt><trkpt lat="39.9836384" lon="-2.0731229"><ele>993.0</ele><time>2026-03-22T13:49:16.145Z</time></trkpt><trkpt lat="39.9836826" lon="-2.0733075"><ele>992.3333333333333</ele><time>2026-03-22T13:49:17.175Z</time></trkpt><trkpt lat="39.9837269" lon="-2.0734897"><ele>991.6666666666666</ele><time>2026-03-22T13:49:18.175Z</time></trkpt><trkpt lat="39.9837739" lon="-2.0736767"><ele>991.0</ele><time>2026-03-22T13:49:19.172Z</time></trkpt><trkpt lat="39.9838233" lon="-2.0738663"><ele>991.0</ele><time>2026-03-22T13:49:20.167Z</time></trkpt><trkpt lat="39.9838716" lon="-2.0740571"><ele>991.0</ele><time>2026-03-22T13:49:21.159Z</time></trkpt><trkpt lat="39.9839144" lon="-2.0742348"><ele>991.0</ele><time>2026-03-22T13:49:22.176Z</time></trkpt><trkpt lat="39.9839566" lon="-2.0744079"><ele>991.0</ele><time>2026-03-22T13:49:23.148Z</time></trkpt><trkpt lat="39.9840012" lon="-2.074591"><ele>990.25</ele><time>2026-03-22T13:49:24.147Z</time></trkpt><trkpt lat="39.9840461" lon="-2.0747778"><ele>989.5</ele><time>2026-03-22T13:49:25.161Z</time></trkpt><trkpt lat="39.9840952" lon="-2.0749631"><ele>988.75</ele><time>2026-03-22T13:49:26.182Z</time></trkpt><trkpt lat="39.9841439" lon="-2.0751371"><ele>988.0</ele><time>2026-03-22T13:49:27.153Z</time></trkpt><trkpt lat="39.9841885" lon="-2.0753027"><ele>987.75</ele><time>2026-03-22T13:49:28.177Z</time></trkpt><trkpt lat="39.9842315" lon="-2.0754714"><ele>987.5</ele><time>2026-03-22T13:49:29.149Z</time></trkpt><trkpt lat="39.9842763" lon="-2.0756369"><ele>987.25</ele><time>2026-03-22T13:49:30.14Z</time></trkpt><trkpt lat="39.9843413" lon="-2.0757891"><ele>987.0</ele><time>2026-03-22T13:49:31.127Z</time></trkpt><trkpt lat="39.9844115" lon="-2.0759289"><ele>986.0</ele><time>2026-03-22T13:49:32.132Z</time></trkpt><trkpt lat="39.9844874" lon="-2.0760774"><ele>985.0</ele><time>2026-03-22T13:49:33.15Z</time></trkpt><trkpt lat="39.984552" lon="-2.076204"><ele>984.0</ele><time>2026-03-22T13:49:34.149Z</time></trkpt><trkpt lat="39.9845959" lon="-2.0763017"><ele>983.0</ele><time>2026-03-22T13:49:35.132Z</time></trkpt><trkpt lat="39.9846372" lon="-2.0763931"><ele>982.0</ele><time>2026-03-22T13:49:36.145Z</time></trkpt><trkpt lat="39.9846829" lon="-2.0764914"><ele>981.9999999999999</ele><time>2026-03-22T13:49:37.147Z</time></trkpt><trkpt lat="39.984734" lon="-2.076587"><ele>982.0</ele><time>2026-03-22T13:49:38.131Z</time></trkpt><trkpt lat="39.984784" lon="-2.0766741"><ele>982.0</ele><time>2026-03-22T13:49:39.143Z</time></trkpt><trkpt lat="39.9848325" lon="-2.0767584"><ele>982.0</ele><time>2026-03-22T13:49:40.144Z</time></trkpt><trkpt lat="39.9848901" lon="-2.076847"><ele>981.9999999999999</ele><time>2026-03-22T13:49:41.135Z</time></trkpt><trkpt lat="39.9849593" lon="-2.0769505"><ele>982.0</ele><time>2026-03-22T13:49:42.126Z</time></trkpt><trkpt lat="39.9850268" lon="-2.0770578"><ele>983.75</ele><time>2026-03-22T13:49:43.137Z</time></trkpt><trkpt lat="39.985092" lon="-2.0771847"><ele>985.5</ele><time>2026-03-22T13:49:44.146Z</time></trkpt><trkpt lat="39.9851456" lon="-2.0773153"><ele>987.25</ele><time>2026-03-22T13:49:45.132Z</time></trkpt><trkpt lat="39.9851763" lon="-2.0774757"><ele>989.0</ele><time>2026-03-22T13:49:46.153Z</time></trkpt><trkpt lat="39.9852007" lon="-2.0776525"><ele>989.5</ele><time>2026-03-22T13:49:47.126Z</time></trkpt><trkpt lat="39.9852165" lon="-2.0778253"><ele>990.0</ele><time>2026-03-22T13:49:48.132Z</time></trkpt><trkpt lat="39.985233" lon="-2.0780038"><ele>990.5</ele><time>2026-03-22T13:49:49.131Z</time></trkpt><trkpt lat="39.9852485" lon="-2.0781839"><ele>991.0</ele><time>2026-03-22T13:49:50.145Z</time></trkpt><trkpt lat="39.9852678" lon="-2.0783728"><ele>991.0</ele><time>2026-03-22T13:49:51.144Z</time></trkpt><trkpt lat="39.9852885" lon="-2.0785678"><ele>991.0</ele><time>2026-03-22T13:49:52.151Z</time></trkpt><trkpt lat="39.9853073" lon="-2.0787603"><ele>991.0</ele><time>2026-03-22T13:49:53.153Z</time></trkpt><trkpt lat="39.9853298" lon="-2.0789523"><ele>991.0</ele><time>2026-03-22T13:49:54.142Z</time></trkpt><trkpt lat="39.9853515" lon="-2.0791406"><ele>989.6666666666666</ele><time>2026-03-22T13:49:55.137Z</time></trkpt><trkpt lat="39.9853671" lon="-2.0793334"><ele>988.3333333333333</ele><time>2026-03-22T13:49:56.149Z</time></trkpt><trkpt lat="39.985383" lon="-2.0795354"><ele>987.0</ele><time>2026-03-22T13:49:57.139Z</time></trkpt><trkpt lat="39.9854006" lon="-2.0797422"><ele>986.25</ele><time>2026-03-22T13:49:58.152Z</time></trkpt><trkpt lat="39.985416" lon="-2.0799357"><ele>985.5</ele><time>2026-03-22T13:49:59.139Z</time></trkpt><trkpt lat="39.98543" lon="-2.0801075"><ele>984.75</ele><time>2026-03-22T13:50:00.154Z</time></trkpt><trkpt lat="39.9854429" lon="-2.0802509"><ele>984.0</ele><time>2026-03-22T13:50:01.136Z</time></trkpt><trkpt lat="39.9854591" lon="-2.0803843"><ele>984.0</ele><time>2026-03-22T13:50:02.147Z</time></trkpt><trkpt lat="39.9854724" lon="-2.0805036"><ele>984.0000000000001</ele><time>2026-03-22T13:50:03.138Z</time></trkpt><trkpt lat="39.9854885" lon="-2.0806178"><ele>984.0000000000001</ele><time>2026-03-22T13:50:04.137Z</time></trkpt><trkpt lat="39.9854993" lon="-2.0807354"><ele>984.0</ele><time>2026-03-22T13:50:05.15Z</time></trkpt><trkpt lat="39.985513" lon="-2.0808671"><ele>984.0</ele><time>2026-03-22T13:50:06.179Z</time></trkpt><trkpt lat="39.9855245" lon="-2.0810103"><ele>984.0</ele><time>2026-03-22T13:50:07.144Z</time></trkpt><trkpt lat="39.9855335" lon="-2.0811471"><ele>984.0</ele><time>2026-03-22T13:50:08.122Z</time></trkpt><trkpt lat="39.9855433" lon="-2.0812571"><ele>984.0</ele><time>2026-03-22T13:50:09.126Z</time></trkpt><trkpt lat="39.9855514" lon="-2.0813488"><ele>984.0</ele><time>2026-03-22T13:50:10.131Z</time></trkpt><trkpt lat="39.9855606" lon="-2.0814378"><ele>984.0</ele><time>2026-03-22T13:50:11.15Z</time></trkpt><trkpt lat="39.9855755" lon="-2.0815621"><ele>984.0</ele><time>2026-03-22T13:50:13.152Z</time></trkpt><trkpt lat="39.9855075" lon="-2.0815822"><ele>984.0</ele><time>2026-03-22T13:50:19.236Z</time></trkpt><trkpt lat="39.9854355" lon="-2.0815757"><ele>984.0</ele><time>2026-03-22T13:50:21.144Z</time></trkpt><trkpt lat="39.9853719" lon="-2.0815892"><ele>984.0</ele><time>2026-03-22T13:50:23.159Z</time></trkpt><trkpt lat="39.9852855" lon="-2.081584"><ele>984.0</ele><time>2026-03-22T13:50:25.141Z</time></trkpt><trkpt lat="39.9852062" lon="-2.0816374"><ele>984.0</ele><time>2026-03-22T13:50:29.183Z</time></trkpt><trkpt lat="39.9851149" lon="-2.0817179"><ele>984.0</ele><time>2026-03-22T13:50:31.16Z</time></trkpt><trkpt lat="39.9850445" lon="-2.0817551"><ele>983.3333333333334</ele><time>2026-03-22T13:50:32.144Z</time></trkpt><trkpt lat="39.9849769" lon="-2.0817936"><ele>982.6666666666667</ele><time>2026-03-22T13:50:33.134Z</time></trkpt><trkpt lat="39.9849144" lon="-2.08183"><ele>982.0</ele><time>2026-03-22T13:50:34.163Z</time></trkpt><trkpt lat="39.984812" lon="-2.0818888"><ele>981.3333333333334</ele><time>2026-03-22T13:50:36.176Z</time></trkpt><trkpt lat="39.9847521" lon="-2.0819509"><ele>980.6666666666667</ele><time>2026-03-22T13:50:39.171Z</time></trkpt><trkpt lat="39.9847699" lon="-2.0820609"><ele>980.0</ele><time>2026-03-22T13:50:41.153Z</time></trkpt><trkpt lat="39.984835" lon="-2.0821918"><ele>980.0000000000001</ele><time>2026-03-22T13:50:43.17Z</time></trkpt><trkpt lat="39.9848757" lon="-2.0822773"><ele>980.0</ele><time>2026-03-22T13:50:44.138Z</time></trkpt><trkpt lat="39.9849034" lon="-2.0823532"><ele>980.0</ele><time>2026-03-22T13:50:45.187Z</time></trkpt><trkpt lat="39.9849294" lon="-2.0824351"><ele>980.0</ele><time>2026-03-22T13:50:46.171Z</time></trkpt><trkpt lat="39.9849589" lon="-2.0825779"><ele>980.0000000000001</ele><time>2026-03-22T13:50:48.154Z</time></trkpt><trkpt lat="39.9849701" lon="-2.0827054"><ele>980.0</ele><time>2026-03-22T13:50:50.151Z</time></trkpt><trkpt lat="39.9849255" lon="-2.0828107"><ele>979.8</ele><time>2026-03-22T13:50:52.143Z</time></trkpt><trkpt lat="39.9848277" lon="-2.0829204"><ele>979.6</ele><time>2026-03-22T13:50:54.139Z</time></trkpt><trkpt lat="39.9847569" lon="-2.0829529"><ele>979.4000000000001</ele><time>2026-03-22T13:50:55.153Z</time></trkpt><trkpt lat="39.9846796" lon="-2.0829852"><ele>979.2</ele><time>2026-03-22T13:50:56.17Z</time></trkpt><trkpt lat="39.9845792" lon="-2.0830421"><ele>979.0</ele><time>2026-03-22T13:50:57.176Z</time></trkpt><trkpt lat="39.9845093" lon="-2.0830717"><ele>979.0</ele><time>2026-03-22T13:50:58.154Z</time></trkpt><trkpt lat="39.9844452" lon="-2.0831006"><ele>979.0</ele><time>2026-03-22T13:50:59.144Z</time></trkpt><trkpt lat="39.9843727" lon="-2.0831264"><ele>979.0</ele><time>2026-03-22T13:51:00.213Z</time></trkpt><trkpt lat="39.9842971" lon="-2.0831547"><ele>979.0</ele><time>2026-03-22T13:51:01.138Z</time></trkpt><trkpt lat="39.9842162" lon="-2.0831837"><ele>979.0</ele><time>2026-03-22T13:51:02.144Z</time></trkpt><trkpt lat="39.9841484" lon="-2.0832072"><ele>979.0</ele><time>2026-03-22T13:51:03.147Z</time></trkpt><trkpt lat="39.9840796" lon="-2.0832398"><ele>979.0</ele><time>2026-03-22T13:51:04.145Z</time></trkpt><trkpt lat="39.9840077" lon="-2.0832795"><ele>979.3333333333333</ele><time>2026-03-22T13:51:05.15Z</time></trkpt><trkpt lat="39.9839468" lon="-2.083314"><ele>979.6666666666666</ele><time>2026-03-22T13:51:06.169Z</time></trkpt><trkpt lat="39.9838357" lon="-2.0833681"><ele>980.0</ele><time>2026-03-22T13:51:08.18Z</time></trkpt><trkpt lat="39.9837749" lon="-2.0833965"><ele>980.3333333333333</ele><time>2026-03-22T13:51:09.168Z</time></trkpt><trkpt lat="39.9837109" lon="-2.0834257"><ele>980.6666666666666</ele><time>2026-03-22T13:51:10.152Z</time></trkpt><trkpt lat="39.9836416" lon="-2.0834541"><ele>981.0</ele><time>2026-03-22T13:51:11.16Z</time></trkpt><trkpt lat="39.98357" lon="-2.0834819"><ele>981.0</ele><time>2026-03-22T13:51:12.149Z</time></trkpt><trkpt lat="39.983497" lon="-2.0835109"><ele>981.0</ele><time>2026-03-22T13:51:13.156Z</time></trkpt><trkpt lat="39.9833894" lon="-2.0835568"><ele>981.0</ele><time>2026-03-22T13:51:15.131Z</time></trkpt><trkpt lat="39.9833038" lon="-2.083587"><ele>981.0</ele><time>2026-03-22T13:51:17.184Z</time></trkpt><trkpt lat="39.9832402" lon="-2.0835998"><ele>981.0</ele><time>2026-03-22T13:51:18.165Z</time></trkpt><trkpt lat="39.9831546" lon="-2.0835975"><ele>981.0</ele><time>2026-03-22T13:51:19.147Z</time></trkpt><trkpt lat="39.983068" lon="-2.0835066"><ele>982.0</ele><time>2026-03-22T13:51:20.151Z</time></trkpt><trkpt lat="39.9830109" lon="-2.0833762"><ele>983.0</ele><time>2026-03-22T13:51:21.144Z</time></trkpt><trkpt lat="39.9829869" lon="-2.083257"><ele>984.0</ele><time>2026-03-22T13:51:22.267Z</time></trkpt><trkpt lat="39.9829812" lon="-2.083069"><ele>985.0</ele><time>2026-03-22T13:51:24.123Z</time></trkpt><trkpt lat="39.9830096" lon="-2.0829308"><ele>985.25</ele><time>2026-03-22T13:51:26.157Z</time></trkpt><trkpt lat="39.9831251" lon="-2.0827928"><ele>985.5</ele><time>2026-03-22T13:51:28.157Z</time></trkpt><trkpt lat="39.983222" lon="-2.0827188"><ele>985.75</ele><time>2026-03-22T13:51:29.146Z</time></trkpt><trkpt lat="39.9833117" lon="-2.0826546"><ele>986.0</ele><time>2026-03-22T13:51:30.13Z</time></trkpt><trkpt lat="39.9833943" lon="-2.0825922"><ele>985.3333333333334</ele><time>2026-03-22T13:51:31.152Z</time></trkpt><trkpt lat="39.9834732" lon="-2.0825333"><ele>984.6666666666667</ele><time>2026-03-22T13:51:32.173Z</time></trkpt><trkpt lat="39.9835436" lon="-2.0824857"><ele>984.0</ele><time>2026-03-22T13:51:33.142Z</time></trkpt><trkpt lat="39.9836084" lon="-2.0824379"><ele>983.3333333333333</ele><time>2026-03-22T13:51:34.144Z</time></trkpt><trkpt lat="39.9836663" lon="-2.0823944"><ele>982.6666666666666</ele><time>2026-03-22T13:51:35.165Z</time></trkpt><trkpt lat="39.9837238" lon="-2.0823535"><ele>982.0</ele><time>2026-03-22T13:51:36.159Z</time></trkpt><trkpt lat="39.9837896" lon="-2.082312"><ele>982.0</ele><time>2026-03-22T13:51:37.147Z</time></trkpt><trkpt lat="39.9838571" lon="-2.0822705"><ele>982.0</ele><time>2026-03-22T13:51:38.143Z</time></trkpt><trkpt lat="39.9839209" lon="-2.0822333"><ele>982.0</ele><time>2026-03-22T13:51:39.15Z</time></trkpt><trkpt lat="39.9840157" lon="-2.0821814"><ele>982.0</ele><time>2026-03-22T13:51:41.165Z</time></trkpt><trkpt lat="39.9841187" lon="-2.0820776"><ele>982.0</ele><time>2026-03-22T13:52:15.526Z</time></trkpt></trkseg></trk></gpx>